ftp/pub/mcmurdo/arrivalheights/2006/0206AHWX.TXT
Download
Temp Hi Low Out Dew Wind Wind Wind Hi Wind Heat THW Heat Cool In In Arc.
Date Time Out Temp Temp Hum Pt. Speed Dir Run Speed Chill Index Index Bar D-D D-D Temp Hum Int.
02/01/06 12:01 a -4.9 -4.9 -5.0 --- --- 17.4 E 0.29 19.1 -13.2 --- --- 730.8 0.016 0.000 8.5 8 1
02/01/06 12:02 a -4.9 -4.9 -5.0 --- --- 17.4 E 0.29 19.1 -13.2 --- --- 730.7 0.016 0.000 8.5 8 1
02/01/06 12:03 a -5.2 -5.1 -5.3 --- --- 18.3 ESE 0.30 20.0 -13.6 --- --- 730.7 0.016 0.000 8.5 8 1
02/01/06 12:04 a -5.3 -5.3 -5.3 --- --- 19.1 ESE 0.32 20.9 -14.1 --- --- 730.8 0.016 0.000 8.5 8 1
02/01/06 12:05 a -5.3 -5.3 -5.3 --- --- 18.3 E 0.30 20.0 -13.8 --- --- 730.8 0.016 0.000 8.5 8 1
02/01/06 12:06 a -5.3 -5.3 -5.4 --- --- 17.4 E 0.29 19.1 -13.7 --- --- 730.8 0.016 0.000 8.5 8 1
02/01/06 12:07 a -5.4 -5.4 -5.4 --- --- 17.4 E 0.29 20.0 -13.7 --- --- 730.7 0.016 0.000 8.5 8 1
02/01/06 12:08 a -5.6 -5.5 -5.6 --- --- 17.4 E 0.29 19.1 -13.9 --- --- 730.7 0.017 0.000 8.5 8 1
02/01/06 12:09 a -5.7 -5.6 -5.8 --- --- 19.1 E 0.32 20.0 -14.5 --- --- 730.7 0.017 0.000 8.5 8 1
02/01/06 12:10 a -5.8 -5.7 -5.9 --- --- 18.3 E 0.30 20.0 -14.5 --- --- 730.8 0.017 0.000 8.5 8 1
02/01/06 12:11 a -5.6 -5.4 -5.7 --- --- 18.3 E 0.30 20.0 -14.2 --- --- 730.7 0.017 0.000 8.5 8 1
02/01/06 12:12 a -5.3 -5.2 -5.4 --- --- 18.3 E 0.30 19.1 -13.8 --- --- 730.8 0.016 0.000 8.5 8 1
02/01/06 12:13 a -5.1 -5.1 -5.1 --- --- 18.3 ESE 0.30 20.0 -13.5 --- --- 730.7 0.016 0.000 8.5 8 1
02/01/06 12:14 a -5.1 -5.0 -5.1 --- --- 17.4 E 0.29 20.0 -13.3 --- --- 730.8 0.016 0.000 8.5 8 1
02/01/06 12:15 a -5.1 -5.0 -5.1 --- --- 17.4 E 0.29 20.0 -13.3 --- --- 730.7 0.016 0.000 8.5 8 1
02/01/06 12:16 a -4.9 -4.9 -5.0 --- --- 18.3 E 0.30 20.9 -13.3 --- --- 730.7 0.016 0.000 8.5 8 1
02/01/06 12:17 a -4.9 -4.9 -4.9 --- --- 19.1 ESE 0.32 20.9 -13.4 --- --- 730.7 0.016 0.000 8.5 8 1
02/01/06 12:18 a -4.9 -4.9 -4.9 --- --- 19.1 E 0.32 20.9 -13.4 --- --- 730.8 0.016 0.000 8.5 8 1
02/01/06 12:19 a -4.9 -4.8 -4.9 --- --- 17.4 E 0.29 19.1 -13.1 --- --- 730.8 0.016 0.000 8.5 8 1
02/01/06 12:20 a -4.9 -4.9 -4.9 --- --- 17.4 E 0.29 19.1 -13.2 --- --- 730.7 0.016 0.000 8.5 8 1
02/01/06 12:21 a -4.9 -4.9 -4.9 --- --- 18.3 E 0.30 20.0 -13.3 --- --- 730.7 0.016 0.000 8.5 8 1
02/01/06 12:22 a -4.9 -4.9 -5.0 --- --- 18.3 E 0.30 21.7 -13.3 --- --- 730.7 0.016 0.000 8.5 8 1
02/01/06 12:23 a -5.0 -5.0 -5.1 --- --- 19.1 E 0.32 20.0 -13.6 --- --- 730.7 0.016 0.000 8.5 8 1
02/01/06 12:24 a -5.2 -5.1 -5.3 --- --- 18.3 E 0.30 20.9 -13.7 --- --- 730.7 0.016 0.000 8.5 8 1
02/01/06 12:25 a -5.3 -5.3 -5.3 --- --- 18.3 E 0.30 20.0 -13.8 --- --- 730.8 0.016 0.000 8.5 8 1
02/01/06 12:26 a -5.2 -5.1 -5.3 --- --- 17.4 ESE 0.29 20.9 -13.5 --- --- 730.7 0.016 0.000 8.5 8 1
02/01/06 12:27 a -5.1 -4.9 -5.1 --- --- 17.4 E 0.29 20.0 -13.3 --- --- 730.8 0.016 0.000 8.5 8 1
02/01/06 12:28 a -4.9 -4.9 -5.1 --- --- 19.1 E 0.32 20.9 -13.5 --- --- 730.8 0.016 0.000 8.5 8 1
02/01/06 12:29 a -4.9 -4.9 -5.0 --- --- 19.1 E 0.32 20.9 -13.5 --- --- 730.7 0.016 0.000 8.5 8 1
02/01/06 12:30 a -4.9 -4.8 -4.9 --- --- 18.3 E 0.30 21.7 -13.3 --- --- 730.7 0.016 0.000 8.5 8 1
02/01/06 12:31 a -4.8 -4.7 -4.9 --- --- 19.1 E 0.32 23.5 -13.4 --- --- 730.8 0.016 0.000 8.5 7 1
02/01/06 12:32 a -4.7 -4.7 -4.7 --- --- 20.0 E 0.33 22.6 -13.3 --- --- 730.8 0.016 0.000 8.5 8 1
02/01/06 12:33 a -4.7 -4.7 -4.7 --- --- 18.3 E 0.30 21.7 -13.0 --- --- 730.8 0.016 0.000 8.5 8 1
02/01/06 12:34 a -4.7 -4.7 -4.8 --- --- 19.1 E 0.32 21.7 -13.2 --- --- 730.7 0.016 0.000 8.5 8 1
02/01/06 12:35 a -4.8 -4.7 -4.9 --- --- 20.0 E 0.33 22.6 -13.4 --- --- 730.8 0.016 0.000 8.5 8 1
02/01/06 12:36 a -5.1 -4.9 -5.2 --- --- 20.0 E 0.33 22.6 -13.8 --- --- 730.8 0.016 0.000 8.5 8 1
02/01/06 12:37 a -5.4 -5.3 -5.5 --- --- 20.9 E 0.35 24.3 -14.4 --- --- 730.7 0.016 0.000 8.5 8 1
02/01/06 12:38 a -5.6 -5.6 -5.6 --- --- 19.1 E 0.32 24.3 -14.3 --- --- 730.7 0.017 0.000 8.5 8 1
02/01/06 12:39 a -5.6 -5.6 -5.6 --- --- 20.0 E 0.33 23.5 -14.6 --- --- 730.7 0.017 0.000 8.5 8 1
02/01/06 12:40 a -5.7 -5.6 -5.8 --- --- 20.9 E 0.35 25.2 -14.8 --- --- 730.7 0.017 0.000 8.4 8 1
02/01/06 12:41 a -5.8 -5.8 -5.9 --- --- 21.7 E 0.36 24.3 -15.2 --- --- 730.7 0.017 0.000 8.4 8 1
02/01/06 12:42 a -5.9 -5.8 -6.0 --- --- 22.6 ESE 0.38 26.1 -15.4 --- --- 730.6 0.017 0.000 8.4 8 1
02/01/06 12:43 a -6.1 -6.0 -6.3 --- --- 23.5 E 0.39 26.1 -15.9 --- --- 730.7 0.017 0.000 8.4 8 1
02/01/06 12:44 a -6.4 -6.3 -6.5 --- --- 23.5 E 0.39 26.1 -16.2 --- --- 730.7 0.017 0.000 8.4 8 1
02/01/06 12:45 a -6.4 -6.4 -6.4 --- --- 22.6 E 0.38 26.1 -16.2 --- --- 730.7 0.017 0.000 8.4 8 1
02/01/06 12:46 a -6.4 -6.4 -6.5 --- --- 22.6 ESE 0.38 26.1 -16.2 --- --- 730.8 0.017 0.000 8.4 8 1
02/01/06 12:47 a -6.5 -6.4 -6.6 --- --- 22.6 E 0.38 25.2 -16.2 --- --- 730.6 0.017 0.000 8.4 8 1
02/01/06 12:48 a -6.7 -6.6 -6.7 --- --- 24.3 E 0.41 27.8 -16.8 --- --- 730.6 0.017 0.000 8.4 8 1
02/01/06 12:49 a -6.7 -6.6 -6.7 --- --- 24.3 E 0.41 27.8 -16.8 --- --- 730.7 0.017 0.000 8.4 8 1
02/01/06 12:50 a -6.8 -6.7 -6.9 --- --- 23.5 E 0.39 27.0 -16.8 --- --- 730.7 0.017 0.000 8.4 8 1
02/01/06 12:51 a -6.8 -6.7 -6.9 --- --- 23.5 E 0.39 27.8 -16.8 --- --- 730.7 0.017 0.000 8.4 8 1
02/01/06 12:52 a -6.7 -6.7 -6.7 --- --- 23.5 E 0.39 27.8 -16.6 --- --- 730.7 0.017 0.000 8.4 8 1
02/01/06 12:53 a -6.6 -6.4 -6.6 --- --- 26.1 E 0.43 28.7 -16.9 --- --- 730.6 0.017 0.000 8.4 8 1
02/01/06 12:54 a -6.4 -6.3 -6.4 --- --- 25.2 E 0.42 27.8 -16.6 --- --- 730.7 0.017 0.000 8.4 8 1
02/01/06 12:55 a -6.5 -6.5 -6.6 --- --- 24.3 E 0.41 26.1 -16.6 --- --- 730.7 0.017 0.000 8.4 8 1
02/01/06 12:56 a -6.6 -6.5 -6.6 --- --- 25.2 E 0.42 27.8 -16.8 --- --- 730.6 0.017 0.000 8.4 8 1
02/01/06 12:57 a -6.5 -6.5 -6.6 --- --- 24.3 E 0.41 28.7 -16.6 --- --- 730.6 0.017 0.000 8.4 8 1
02/01/06 12:58 a -6.4 -6.4 -6.5 --- --- 24.3 E 0.41 27.0 -16.4 --- --- 730.6 0.017 0.000 8.4 8 1
02/01/06 12:59 a -6.4 -6.4 -6.4 --- --- 23.5 E 0.39 28.7 -16.3 --- --- 730.6 0.017 0.000 8.4 8 1
02/01/06 1:00 a -6.4 -6.4 -6.4 --- --- 23.5 E 0.39 27.8 -16.2 --- --- 730.6 0.017 0.000 8.4 8 1
02/01/06 1:02 a -6.4 -6.4 -6.4 --- --- 25.2 E 0.42 27.0 -16.6 --- --- 730.7 0.017 0.000 8.4 8 1
02/01/06 1:03 a -6.4 -6.3 -6.4 --- --- 23.5 E 0.39 27.0 -16.2 --- --- 730.7 0.017 0.000 8.4 8 1
02/01/06 1:04 a -6.4 -6.3 -6.4 --- --- 21.7 ESE 0.36 25.2 -15.9 --- --- 730.7 0.017 0.000 8.4 8 1
02/01/06 1:05 a -6.4 -6.3 -6.4 --- --- 24.3 E 0.41 27.0 -16.4 --- --- 730.6 0.017 0.000 8.4 8 1
02/01/06 1:06 a -6.3 -6.3 -6.4 --- --- 22.6 E 0.38 26.1 -16.0 --- --- 730.7 0.017 0.000 8.4 8 1
02/01/06 1:07 a -6.3 -6.3 -6.4 --- --- 24.3 E 0.41 27.0 -16.3 --- --- 730.7 0.017 0.000 8.4 8 1
02/01/06 1:08 a -6.3 -6.3 -6.4 --- --- 24.3 E 0.41 26.1 -16.3 --- --- 730.7 0.017 0.000 8.4 8 1
02/01/06 1:09 a -6.3 -6.2 -6.3 --- --- 21.7 E 0.36 27.8 -15.8 --- --- 730.7 0.017 0.000 8.4 8 1
02/01/06 1:10 a -6.4 -6.3 -6.5 --- --- 20.9 E 0.35 24.3 -15.8 --- --- 730.7 0.017 0.000 8.4 8 1
02/01/06 1:11 a -6.5 -6.5 -6.6 --- --- 23.5 E 0.39 27.0 -16.4 --- --- 730.7 0.017 0.000 8.4 8 1
02/01/06 1:12 a -6.6 -6.5 -6.6 --- --- 24.3 ESE 0.41 27.0 -16.6 --- --- 730.6 0.017 0.000 8.4 8 1
02/01/06 1:13 a -6.7 -6.6 -6.8 --- --- 22.6 E 0.38 26.1 -16.6 --- --- 730.8 0.017 0.000 8.4 8 1
02/01/06 1:14 a -6.9 -6.8 -6.9 --- --- 20.9 E 0.35 26.1 -16.4 --- --- 730.7 0.018 0.000 8.4 8 1
02/01/06 1:15 a -7.1 -7.0 -7.1 --- --- 21.7 E 0.36 26.1 -16.8 --- --- 730.7 0.018 0.000 8.4 8 1
02/01/06 1:16 a -7.2 -7.2 -7.2 --- --- 20.0 ESE 0.33 22.6 -16.6 --- --- 730.7 0.018 0.000 8.4 8 1
02/01/06 1:17 a -7.2 -7.2 -7.3 --- --- 20.9 ESE 0.35 25.2 -16.9 --- --- 730.7 0.018 0.000 8.4 8 1
02/01/06 1:18 a -7.2 -7.2 -7.2 --- --- 20.9 E 0.35 22.6 -16.8 --- --- 730.6 0.018 0.000 8.4 8 1
02/01/06 1:19 a -7.2 -7.2 -7.2 --- --- 20.9 E 0.35 23.5 -16.8 --- --- 730.7 0.018 0.000 8.4 8 1
02/01/06 1:20 a -7.2 -7.1 -7.2 --- --- 21.7 E 0.36 23.5 -17.0 --- --- 730.7 0.018 0.000 8.4 8 1
02/01/06 1:21 a -7.1 -7.0 -7.1 --- --- 19.1 E 0.32 23.5 -16.3 --- --- 730.7 0.018 0.000 8.4 8 1
02/01/06 1:22 a -6.9 -6.8 -6.9 --- --- 20.0 E 0.33 21.7 -16.3 --- --- 730.8 0.018 0.000 8.4 8 1
02/01/06 1:23 a -6.8 -6.7 -6.8 --- --- 20.0 E 0.33 22.6 -16.1 --- --- 730.7 0.017 0.000 8.4 8 1
02/01/06 1:24 a -6.6 -6.6 -6.7 --- --- 20.0 E 0.33 23.5 -15.9 --- --- 730.7 0.017 0.000 8.4 8 1
02/01/06 1:25 a -6.5 -6.4 -6.5 --- --- 20.9 E 0.35 24.3 -15.9 --- --- 730.8 0.017 0.000 8.4 8 1
02/01/06 1:26 a -6.6 -6.6 -6.6 --- --- 20.0 E 0.33 21.7 -15.8 --- --- 730.8 0.017 0.000 8.4 8 1
02/01/06 1:27 a -6.5 -6.5 -6.6 --- --- 18.3 E 0.30 22.6 -15.4 --- --- 730.8 0.017 0.000 8.4 8 1
02/01/06 1:28 a -6.4 -6.3 -6.5 --- --- 20.0 E 0.33 25.2 -15.6 --- --- 730.7 0.017 0.000 8.4 8 1
02/01/06 1:29 a -6.3 -6.3 -6.3 --- --- 19.1 E 0.32 21.7 -15.3 --- --- 730.8 0.017 0.000 8.4 8 1
02/01/06 1:30 a -6.3 -6.3 -6.3 --- --- 18.3 E 0.30 21.7 -15.2 --- --- 730.7 0.017 0.000 8.4 8 1
02/01/06 1:31 a -6.2 -6.2 -6.3 --- --- 17.4 E 0.29 22.6 -14.8 --- --- 730.8 0.017 0.000 8.4 8 1
02/01/06 1:32 a -6.2 -6.1 -6.2 --- --- 20.0 E 0.33 22.6 -15.3 --- --- 730.8 0.017 0.000 8.4 8 1
02/01/06 1:33 a -6.2 -6.1 -6.3 --- --- 18.3 E 0.30 21.7 -15.0 --- --- 730.7 0.017 0.000 8.4 8 1
02/01/06 1:34 a -6.3 -6.3 -6.4 --- --- 19.1 E 0.32 21.7 -15.3 --- --- 730.7 0.017 0.000 8.4 8 1
02/01/06 1:35 a -6.4 -6.3 -6.4 --- --- 17.4 E 0.29 20.9 -15.1 --- --- 730.8 0.017 0.000 8.4 8 1
02/01/06 1:36 a -6.3 -6.2 -6.3 --- --- 18.3 E 0.30 20.9 -15.1 --- --- 730.8 0.017 0.000 8.4 8 1
02/01/06 1:37 a -6.2 -6.2 -6.3 --- --- 19.1 E 0.32 22.6 -15.2 --- --- 730.7 0.017 0.000 8.4 8 1
02/01/06 1:38 a -6.2 -6.2 -6.2 --- --- 19.1 E 0.32 20.9 -15.2 --- --- 730.7 0.017 0.000 8.4 8 1
02/01/06 1:39 a -6.2 -6.2 -6.2 --- --- 19.1 E 0.32 22.6 -15.1 --- --- 730.7 0.017 0.000 8.4 8 1
02/01/06 1:40 a -6.2 -6.1 -6.2 --- --- 20.0 E 0.33 21.7 -15.3 --- --- 730.6 0.017 0.000 8.4 8 1
02/01/06 1:41 a -6.1 -5.9 -6.1 --- --- 19.1 E 0.32 21.7 -15.0 --- --- 730.7 0.017 0.000 8.4 8 1
02/01/06 1:42 a -6.0 -5.9 -6.1 --- --- 17.4 E 0.29 20.9 -14.6 --- --- 730.8 0.017 0.000 8.4 8 1
02/01/06 1:43 a -6.1 -5.9 -6.1 --- --- 19.1 E 0.32 20.9 -15.0 --- --- 730.8 0.017 0.000 8.4 8 1
02/01/06 1:44 a -5.9 -5.9 -5.9 --- --- 17.4 E 0.29 21.7 -14.5 --- --- 730.8 0.017 0.000 8.4 8 1
02/01/06 1:45 a -5.8 -5.8 -5.9 --- --- 18.3 E 0.30 20.9 -14.5 --- --- 730.7 0.017 0.000 8.3 8 1
02/01/06 1:46 a -5.9 -5.8 -5.9 --- --- 19.1 E 0.32 21.7 -14.8 --- --- 730.8 0.017 0.000 8.3 8 1
02/01/06 1:47 a -5.7 -5.7 -5.8 --- --- 18.3 E 0.30 20.9 -14.4 --- --- 730.8 0.017 0.000 8.3 8 1
02/01/06 1:48 a -5.7 -5.7 -5.7 --- --- 19.1 E 0.32 20.9 -14.6 --- --- 730.8 0.017 0.000 8.3 8 1
02/01/06 1:49 a -5.6 -5.6 -5.6 --- --- 16.5 E 0.28 21.7 -13.8 --- --- 730.7 0.017 0.000 8.3 8 1
02/01/06 1:50 a -5.4 -5.4 -5.5 --- --- 17.4 E 0.29 21.7 -13.8 --- --- 730.8 0.017 0.000 8.3 8 1
02/01/06 1:51 a -5.4 -5.4 -5.5 --- --- 18.3 E 0.30 22.6 -14.0 --- --- 730.8 0.017 0.000 8.4 8 1
02/01/06 1:52 a -5.4 -5.4 -5.6 --- --- 19.1 E 0.32 21.7 -14.2 --- --- 730.8 0.017 0.000 8.4 8 1
02/01/06 1:53 a -5.8 -5.7 -6.0 --- --- 17.4 E 0.29 20.9 -14.3 --- --- 730.7 0.017 0.000 8.3 7 1
02/01/06 1:54 a -6.0 -5.9 -6.1 --- --- 18.3 E 0.30 20.9 -14.7 --- --- 730.7 0.017 0.000 8.3 8 1
02/01/06 1:55 a -6.0 -6.0 -6.1 --- --- 18.3 E 0.30 20.9 -14.7 --- --- 730.7 0.017 0.000 8.3 8 1
02/01/06 1:56 a -5.9 -5.7 -6.0 --- --- 17.4 E 0.29 20.9 -14.4 --- --- 730.8 0.017 0.000 8.3 7 1
02/01/06 1:57 a -5.7 -5.6 -5.7 --- --- 17.4 E 0.29 21.7 -14.1 --- --- 730.8 0.017 0.000 8.3 8 1
02/01/06 1:58 a -5.8 -5.7 -6.1 --- --- 18.3 E 0.30 22.6 -14.4 --- --- 730.8 0.017 0.000 8.3 8 1
02/01/06 1:59 a -6.1 -6.1 -6.2 --- --- 18.3 E 0.30 22.6 -14.9 --- --- 730.8 0.017 0.000 8.3 8 1
02/01/06 2:00 a -6.3 -6.2 -6.4 --- --- 17.4 E 0.29 21.7 -15.0 --- --- 730.8 0.017 0.000 8.3 8 1
02/01/06 2:02 a -6.2 -6.1 -6.3 --- --- 18.3 E 0.30 20.0 -14.9 --- --- 730.7 0.017 0.000 8.3 7 1
02/01/06 2:03 a -5.9 -5.8 -6.1 --- --- 17.4 E 0.29 21.7 -14.5 --- --- 730.8 0.017 0.000 8.3 8 1
02/01/06 2:04 a -5.8 -5.7 -5.9 --- --- 18.3 E 0.30 21.7 -14.5 --- --- 730.8 0.017 0.000 8.3 7 1
02/01/06 2:05 a -5.8 -5.8 -5.9 --- --- 18.3 E 0.30 21.7 -14.5 --- --- 730.8 0.017 0.000 8.3 7 1
02/01/06 2:06 a -5.9 -5.8 -5.9 --- --- 17.4 E 0.29 20.9 -14.4 --- --- 730.8 0.017 0.000 8.3 7 1
02/01/06 2:07 a -5.9 -5.9 -6.0 --- --- 20.0 E 0.33 23.5 -15.0 --- --- 730.8 0.017 0.000 8.3 7 1
02/01/06 2:08 a -5.9 -5.8 -6.1 --- --- 18.3 E 0.30 20.9 -14.7 --- --- 730.9 0.017 0.000 8.3 7 1
02/01/06 2:09 a -6.2 -6.1 -6.4 --- --- 18.3 E 0.30 21.7 -15.0 --- --- 730.8 0.017 0.000 8.3 7 1
02/01/06 2:10 a -6.6 -6.5 -6.7 --- --- 18.3 E 0.30 22.6 -15.6 --- --- 730.9 0.017 0.000 8.3 7 1
02/01/06 2:11 a -6.8 -6.7 -6.8 --- --- 17.4 E 0.29 21.7 -15.6 --- --- 730.9 0.017 0.000 8.3 7 1
02/01/06 2:12 a -6.7 -6.7 -6.7 --- --- 19.1 E 0.32 22.6 -15.9 --- --- 730.8 0.017 0.000 8.3 7 1
02/01/06 2:13 a -6.6 -6.6 -6.6 --- --- 19.1 E 0.32 22.6 -15.7 --- --- 730.8 0.017 0.000 8.3 7 1
02/01/06 2:14 a -6.6 -6.6 -6.6 --- --- 19.1 E 0.32 21.7 -15.7 --- --- 730.8 0.017 0.000 8.3 7 1
02/01/06 2:15 a -6.6 -6.5 -6.6 --- --- 17.4 E 0.29 20.0 -15.3 --- --- 730.9 0.017 0.000 8.3 7 1
02/01/06 2:16 a -6.6 -6.6 -6.7 --- --- 17.4 E 0.29 20.9 -15.3 --- --- 730.8 0.017 0.000 8.3 7 1
02/01/06 2:17 a -6.8 -6.7 -6.8 --- --- 20.0 E 0.33 21.7 -16.1 --- --- 730.8 0.017 0.000 8.3 7 1
02/01/06 2:18 a -6.9 -6.9 -7.0 --- --- 18.3 E 0.30 22.6 -16.0 --- --- 730.9 0.018 0.000 8.3 7 1
02/01/06 2:19 a -7.1 -7.1 -7.1 --- --- 18.3 E 0.30 20.9 -16.1 --- --- 730.8 0.018 0.000 8.3 7 1
02/01/06 2:20 a -7.2 -7.1 -7.3 --- --- 19.1 E 0.32 22.6 -16.4 --- --- 730.8 0.018 0.000 8.3 7 1
02/01/06 2:21 a -7.3 -7.3 -7.4 --- --- 16.5 E 0.28 20.0 -16.1 --- --- 730.8 0.018 0.000 8.3 7 1
02/01/06 2:22 a -7.5 -7.4 -7.6 --- --- 19.1 E 0.32 21.7 -16.9 --- --- 730.9 0.018 0.000 8.3 7 1
02/01/06 2:23 a -7.6 -7.5 -7.6 --- --- 18.3 E 0.30 21.7 -16.8 --- --- 730.9 0.018 0.000 8.3 7 1
02/01/06 2:24 a -7.5 -7.5 -7.6 --- --- 15.7 E 0.26 19.1 -16.1 --- --- 730.8 0.018 0.000 8.3 7 1
02/01/06 2:25 a -7.6 -7.5 -7.6 --- --- 20.0 E 0.33 21.7 -17.2 --- --- 730.8 0.018 0.000 8.3 7 1
02/01/06 2:26 a -7.6 -7.6 -7.7 --- --- 20.0 E 0.33 23.5 -17.2 --- --- 730.9 0.018 0.000 8.3 7 1
02/01/06 2:27 a -7.6 -7.4 -7.6 --- --- 18.3 E 0.30 21.7 -16.8 --- --- 730.9 0.018 0.000 8.3 7 1
02/01/06 2:28 a -7.4 -7.4 -7.4 --- --- 19.1 E 0.32 21.7 -16.8 --- --- 730.9 0.018 0.000 8.3 7 1
02/01/06 2:29 a -7.3 -7.3 -7.4 --- --- 19.1 E 0.32 21.7 -16.7 --- --- 730.9 0.018 0.000 8.3 7 1
02/01/06 2:30 a -7.4 -7.3 -7.4 --- --- 20.0 E 0.33 22.6 -16.9 --- --- 730.9 0.018 0.000 8.3 7 1
02/01/06 2:31 a -7.4 -7.3 -7.4 --- --- 20.0 E 0.33 23.5 -16.9 --- --- 730.8 0.018 0.000 8.3 7 1
02/01/06 2:32 a -7.5 -7.4 -7.5 --- --- 20.9 E 0.35 24.3 -17.3 --- --- 730.9 0.018 0.000 8.3 7 1
02/01/06 2:33 a -7.6 -7.6 -7.7 --- --- 20.0 ENE 0.33 22.6 -17.2 --- --- 730.9 0.018 0.000 8.3 7 1
02/01/06 2:34 a -7.6 -7.6 -7.7 --- --- 18.3 E 0.30 20.9 -16.8 --- --- 730.8 0.018 0.000 8.3 7 1
02/01/06 2:35 a -7.7 -7.6 -7.7 --- --- 18.3 E 0.30 20.0 -16.9 --- --- 730.9 0.018 0.000 8.2 7 1
02/01/06 2:36 a -7.7 -7.7 -7.7 --- --- 17.4 E 0.29 21.7 -16.8 --- --- 730.9 0.018 0.000 8.2 7 1
02/01/06 2:37 a -7.8 -7.7 -7.8 --- --- 18.3 E 0.30 21.7 -17.1 --- --- 730.9 0.018 0.000 8.2 7 1
02/01/06 2:38 a -7.8 -7.8 -7.8 --- --- 20.0 E 0.33 22.6 -17.5 --- --- 730.9 0.018 0.000 8.2 7 1
02/01/06 2:39 a -7.8 -7.8 -7.9 --- --- 20.0 E 0.33 23.5 -17.5 --- --- 730.9 0.018 0.000 8.2 7 1
02/01/06 2:40 a -7.8 -7.8 -7.8 --- --- 18.3 E 0.30 21.7 -17.2 --- --- 730.9 0.018 0.000 8.2 7 1
02/01/06 2:41 a -7.8 -7.8 -7.8 --- --- 20.0 E 0.33 22.6 -17.5 --- --- 730.9 0.018 0.000 8.2 7 1
02/01/06 2:42 a -7.8 -7.8 -7.8 --- --- 20.0 ENE 0.33 22.6 -17.5 --- --- 731.0 0.018 0.000 8.2 7 1
02/01/06 2:43 a -7.8 -7.7 -7.8 --- --- 20.0 ENE 0.33 21.7 -17.5 --- --- 731.0 0.018 0.000 8.2 7 1
02/01/06 2:44 a -7.7 -7.6 -7.7 --- --- 20.0 ENE 0.33 20.9 -17.3 --- --- 730.9 0.018 0.000 8.2 7 1
02/01/06 2:45 a -7.6 -7.6 -7.6 --- --- 18.3 E 0.30 20.9 -16.8 --- --- 730.9 0.018 0.000 8.2 7 1
02/01/06 2:46 a -7.6 -7.6 -7.7 --- --- 16.5 E 0.28 20.0 -16.4 --- --- 730.9 0.018 0.000 8.2 7 1
02/01/06 2:47 a -7.7 -7.7 -7.7 --- --- 18.3 E 0.30 21.7 -16.9 --- --- 730.9 0.018 0.000 8.2 7 1
02/01/06 2:48 a -7.7 -7.7 -7.7 --- --- 18.3 E 0.30 21.7 -16.9 --- --- 730.8 0.018 0.000 8.2 7 1
02/01/06 2:49 a -7.6 -7.6 -7.7 --- --- 19.1 E 0.32 20.9 -17.1 --- --- 730.9 0.018 0.000 8.2 7 1
02/01/06 2:50 a -7.6 -7.6 -7.6 --- --- 18.3 E 0.30 20.9 -16.8 --- --- 730.9 0.018 0.000 8.2 7 1
02/01/06 2:51 a -7.6 -7.6 -7.6 --- --- 17.4 E 0.29 19.1 -16.7 --- --- 730.9 0.018 0.000 8.2 7 1
02/01/06 2:52 a -7.6 -7.6 -7.6 --- --- 19.1 E 0.32 21.7 -17.1 --- --- 730.9 0.018 0.000 8.2 7 1
02/01/06 2:53 a -7.6 -7.6 -7.7 --- --- 20.0 ENE 0.33 23.5 -17.2 --- --- 730.8 0.018 0.000 8.2 7 1
02/01/06 2:54 a -7.6 -7.6 -7.7 --- --- 20.0 E 0.33 23.5 -17.2 --- --- 730.8 0.018 0.000 8.2 7 1
02/01/06 2:55 a -7.5 -7.4 -7.6 --- --- 18.3 E 0.30 20.0 -16.7 --- --- 730.8 0.018 0.000 8.2 7 1
02/01/06 2:56 a -7.3 -7.2 -7.4 --- --- 18.3 E 0.30 20.9 -16.4 --- --- 730.8 0.018 0.000 8.2 7 1
02/01/06 2:57 a -7.1 -6.9 -7.2 --- --- 18.3 E 0.30 20.0 -16.1 --- --- 730.9 0.018 0.000 8.2 7 1
02/01/06 2:58 a -6.9 -6.9 -6.9 --- --- 17.4 E 0.29 19.1 -15.8 --- --- 730.9 0.018 0.000 8.2 7 1
02/01/06 2:59 a -6.8 -6.7 -6.9 --- --- 15.7 ENE 0.26 18.3 -15.2 --- --- 731.0 0.017 0.000 8.2 7 1
02/01/06 3:00 a -6.6 -6.5 -6.7 --- --- 14.8 ENE 0.25 17.4 -14.7 --- --- 730.9 0.017 0.000 8.2 7 1
02/01/06 3:01 a -6.5 -6.5 -6.6 --- --- 14.8 E 0.25 19.1 -14.6 --- --- 730.9 0.017 0.000 8.2 7 1
02/01/06 3:02 a -6.2 -6.1 -6.4 --- --- 19.1 E 0.32 23.5 -15.2 --- --- 730.8 0.017 0.000 8.2 7 1
02/01/06 3:03 a -6.2 -6.1 -6.3 --- --- 20.0 ENE 0.33 22.6 -15.3 --- --- 730.9 0.017 0.000 8.2 7 1
02/01/06 3:04 a -6.3 -6.2 -6.3 --- --- 19.1 E 0.32 21.7 -15.3 --- --- 730.9 0.017 0.000 8.2 7 1
02/01/06 3:05 a -6.3 -6.3 -6.3 --- --- 18.3 ENE 0.30 20.9 -15.1 --- --- 730.9 0.017 0.000 8.2 7 1
02/01/06 3:06 a -6.3 -6.3 -6.3 --- --- 18.3 ENE 0.30 20.0 -15.2 --- --- 731.0 0.017 0.000 8.2 7 1
02/01/06 3:07 a -6.2 -6.1 -6.2 --- --- 17.4 ENE 0.29 18.3 -14.8 --- --- 731.0 0.017 0.000 8.2 7 1
02/01/06 3:08 a -5.8 -5.8 -5.9 --- --- 17.4 ENE 0.29 19.1 -14.3 --- --- 730.9 0.017 0.000 8.2 7 1
02/01/06 3:09 a -5.7 -5.7 -5.8 --- --- 17.4 ENE 0.29 19.1 -14.2 --- --- 730.8 0.017 0.000 8.2 7 1
02/01/06 3:10 a -5.7 -5.7 -5.8 --- --- 17.4 E 0.29 20.9 -14.2 --- --- 730.8 0.017 0.000 8.2 7 1
02/01/06 3:11 a -5.9 -5.9 -6.1 --- --- 16.5 E 0.28 20.0 -14.3 --- --- 730.7 0.017 0.000 8.2 7 1
02/01/06 3:12 a -6.2 -6.1 -6.3 --- --- 17.4 E 0.29 21.7 -14.8 --- --- 730.7 0.017 0.000 8.2 7 1
02/01/06 3:13 a -6.3 -6.3 -6.4 --- --- 19.1 E 0.32 20.9 -15.3 --- --- 730.8 0.017 0.000 8.2 7 1
02/01/06 3:14 a -6.4 -6.4 -6.4 --- --- 18.3 E 0.30 20.0 -15.2 --- --- 730.8 0.017 0.000 8.2 7 1
02/01/06 3:15 a -6.4 -6.4 -6.5 --- --- 19.1 ENE 0.32 21.7 -15.5 --- --- 730.7 0.017 0.000 8.2 7 1
02/01/06 3:16 a -6.5 -6.5 -6.6 --- --- 19.1 ENE 0.32 21.7 -15.6 --- --- 730.8 0.017 0.000 8.2 7 1
02/01/06 3:17 a -6.4 -6.4 -6.5 --- --- 18.3 ENE 0.30 20.9 -15.3 --- --- 730.9 0.017 0.000 8.3 7 1
02/01/06 3:18 a -6.3 -6.3 -6.4 --- --- 18.3 ENE 0.30 19.1 -15.2 --- --- 730.8 0.017 0.000 8.3 7 1
02/01/06 3:19 a -6.2 -6.1 -6.2 --- --- 18.3 ENE 0.30 20.0 -14.9 --- --- 730.8 0.017 0.000 8.2 7 1
02/01/06 3:20 a -6.1 -5.9 -6.1 --- --- 16.5 ENE 0.28 18.3 -14.4 --- --- 730.9 0.017 0.000 8.2 7 1
02/01/06 3:21 a -5.9 -5.8 -5.9 --- --- 15.7 ENE 0.26 17.4 -14.0 --- --- 730.9 0.017 0.000 8.2 7 1
02/01/06 3:22 a -5.7 -5.6 -5.8 --- --- 16.5 ENE 0.28 17.4 -14.0 --- --- 730.8 0.017 0.000 8.2 7 1
02/01/06 3:23 a -5.7 -5.6 -5.7 --- --- 17.4 ENE 0.29 20.0 -14.1 --- --- 730.8 0.017 0.000 8.2 7 1
02/01/06 3:24 a -5.7 -5.7 -5.8 --- --- 18.3 ENE 0.30 20.0 -14.4 --- --- 730.7 0.017 0.000 8.2 7 1
02/01/06 3:25 a -5.7 -5.7 -5.8 --- --- 18.3 ENE 0.30 20.0 -14.4 --- --- 730.7 0.017 0.000 8.2 7 1
02/01/06 3:26 a -5.7 -5.6 -5.7 --- --- 17.4 ENE 0.29 19.1 -14.1 --- --- 730.8 0.017 0.000 8.2 7 1
02/01/06 3:27 a -5.6 -5.6 -5.6 --- --- 17.4 ENE 0.29 19.1 -14.1 --- --- 730.8 0.017 0.000 8.2 7 1
02/01/06 3:28 a -5.6 -5.5 -5.6 --- --- 16.5 ENE 0.28 18.3 -13.8 --- --- 730.8 0.017 0.000 8.2 7 1
02/01/06 3:29 a -5.4 -5.3 -5.6 --- --- 16.5 ENE 0.28 18.3 -13.6 --- --- 730.8 0.017 0.000 8.3 7 1
02/01/06 3:30 a -5.3 -5.3 -5.3 --- --- 16.5 ENE 0.28 18.3 -13.5 --- --- 730.8 0.016 0.000 8.3 7 1
02/01/06 3:31 a -5.3 -5.2 -5.3 --- --- 15.7 ENE 0.26 17.4 -13.2 --- --- 730.8 0.016 0.000 8.2 7 1
02/01/06 3:32 a -5.2 -5.2 -5.3 --- --- 15.7 ENE 0.26 17.4 -13.1 --- --- 730.8 0.016 0.000 8.3 7 1
02/01/06 3:33 a -5.2 -5.2 -5.2 --- --- 16.5 ENE 0.28 18.3 -13.3 --- --- 730.7 0.016 0.000 8.3 7 1
02/01/06 3:34 a -5.2 -5.2 -5.2 --- --- 16.5 ENE 0.28 18.3 -13.3 --- --- 730.8 0.016 0.000 8.3 7 1
02/01/06 3:35 a -5.2 -5.2 -5.2 --- --- 17.4 ENE 0.29 19.1 -13.5 --- --- 730.7 0.016 0.000 8.3 7 1
02/01/06 3:36 a -5.2 -5.1 -5.2 --- --- 17.4 ENE 0.29 19.1 -13.4 --- --- 730.8 0.016 0.000 8.3 7 1
02/01/06 3:37 a -5.1 -5.0 -5.1 --- --- 16.5 ENE 0.28 18.3 -13.1 --- --- 730.8 0.016 0.000 8.3 7 1
02/01/06 3:38 a -4.9 -4.9 -5.0 --- --- 15.7 ENE 0.26 17.4 -12.8 --- --- 730.8 0.016 0.000 8.3 7 1
02/01/06 3:39 a -4.9 -4.8 -4.9 --- --- 15.7 ENE 0.26 17.4 -12.7 --- --- 730.8 0.016 0.000 8.3 7 1
02/01/06 3:40 a -4.9 -4.9 -4.9 --- --- 17.4 ENE 0.29 18.3 -13.1 --- --- 730.8 0.016 0.000 8.3 7 1
02/01/06 3:41 a -4.9 -4.8 -4.9 --- --- 17.4 ENE 0.29 18.3 -13.1 --- --- 730.8 0.016 0.000 8.3 7 1
02/01/06 3:42 a -4.8 -4.8 -4.9 --- --- 15.7 ENE 0.26 18.3 -12.6 --- --- 730.8 0.016 0.000 8.3 7 1
02/01/06 3:43 a -4.7 -4.7 -4.7 --- --- 15.7 ENE 0.26 17.4 -12.5 --- --- 730.8 0.016 0.000 8.3 7 1
02/01/06 3:44 a -4.6 -4.5 -4.6 --- --- 15.7 ENE 0.26 16.5 -12.3 --- --- 730.8 0.016 0.000 8.3 7 1
02/01/06 3:45 a -4.4 -4.4 -4.5 --- --- 14.8 ENE 0.25 16.5 -11.9 --- --- 730.9 0.016 0.000 8.3 7 1
02/01/06 3:46 a -4.4 -4.4 -4.4 --- --- 14.8 ENE 0.25 15.7 -11.9 --- --- 730.8 0.016 0.000 8.3 7 1
02/01/06 3:47 a -4.4 -4.3 -4.4 --- --- 13.9 NE 0.23 14.8 -11.6 --- --- 730.8 0.016 0.000 8.3 7 1
02/01/06 3:48 a -4.4 -4.4 -4.4 --- --- 13.0 NE 0.22 14.8 -11.5 --- --- 730.8 0.016 0.000 8.3 7 1
02/01/06 3:49 a -4.4 -4.3 -4.4 --- --- 13.9 ENE 0.23 15.7 -11.6 --- --- 730.8 0.016 0.000 8.3 7 1
02/01/06 3:50 a -4.3 -4.3 -4.4 --- --- 15.7 ENE 0.26 17.4 -12.0 --- --- 730.8 0.016 0.000 8.3 7 1
02/01/06 3:51 a -4.5 -4.4 -4.7 --- --- 17.4 ENE 0.29 20.0 -12.6 --- --- 730.9 0.016 0.000 8.3 7 1
02/01/06 3:52 a -4.8 -4.8 -4.9 --- --- 17.4 ENE 0.29 19.1 -13.0 --- --- 730.8 0.016 0.000 8.3 7 1
02/01/06 3:53 a -4.9 -4.9 -4.9 --- --- 17.4 ENE 0.29 18.3 -13.1 --- --- 730.8 0.016 0.000 8.3 7 1
02/01/06 3:54 a -4.8 -4.7 -4.8 --- --- 15.7 ENE 0.26 17.4 -12.6 --- --- 730.9 0.016 0.000 8.3 7 1
02/01/06 3:55 a -4.7 -4.7 -4.8 --- --- 16.5 ENE 0.28 18.3 -12.7 --- --- 730.9 0.016 0.000 8.3 7 1
02/01/06 3:56 a -4.6 -4.5 -4.7 --- --- 15.7 ENE 0.26 17.4 -12.3 --- --- 731.0 0.016 0.000 8.3 7 1
02/01/06 3:57 a -4.4 -4.3 -4.5 --- --- 14.8 ENE 0.25 15.7 -11.9 --- --- 730.8 0.016 0.000 8.3 7 1
02/01/06 3:58 a -4.2 -4.1 -4.3 --- --- 15.7 ENE 0.26 16.5 -11.8 --- --- 730.9 0.016 0.000 8.3 7 1
02/01/06 3:59 a -4.2 -4.2 -4.2 --- --- 15.7 ENE 0.26 17.4 -11.8 --- --- 730.8 0.016 0.000 8.3 7 1
02/01/06 4:00 a -4.2 -4.2 -4.2 --- --- 14.8 ENE 0.25 16.5 -11.6 --- --- 730.9 0.016 0.000 8.3 7 1
02/01/06 4:01 a -4.2 -4.1 -4.2 --- --- 14.8 ENE 0.25 15.7 -11.6 --- --- 730.9 0.016 0.000 8.3 7 1
02/01/06 4:02 a -4.2 -4.1 -4.2 --- --- 13.9 ENE 0.23 14.8 -11.3 --- --- 730.8 0.016 0.000 8.3 7 1
02/01/06 4:03 a -4.3 -4.2 -4.3 --- --- 15.7 ENE 0.26 17.4 -11.9 --- --- 730.8 0.016 0.000 8.3 7 1
02/01/06 4:04 a -4.3 -4.3 -4.3 --- --- 16.5 ENE 0.28 18.3 -12.1 --- --- 730.9 0.016 0.000 8.3 7 1
02/01/06 4:05 a -4.3 -4.3 -4.3 --- --- 15.7 ENE 0.26 17.4 -12.0 --- --- 730.9 0.016 0.000 8.3 7 1
02/01/06 4:06 a -4.3 -4.2 -4.3 --- --- 14.8 ENE 0.25 16.5 -11.7 --- --- 730.9 0.016 0.000 8.3 7 1
02/01/06 4:07 a -4.1 -4.1 -4.1 --- --- 14.8 ENE 0.25 17.4 -11.5 --- --- 730.9 0.016 0.000 8.3 7 1
02/01/06 4:08 a -4.1 -4.1 -4.2 --- --- 15.7 ENE 0.26 17.4 -11.7 --- --- 730.7 0.016 0.000 8.3 7 1
02/01/06 4:09 a -4.2 -4.1 -4.2 --- --- 15.7 ENE 0.26 17.4 -11.8 --- --- 730.8 0.016 0.000 8.3 7 1
02/01/06 4:10 a -4.1 -4.0 -4.2 --- --- 14.8 ENE 0.25 16.5 -11.5 --- --- 730.8 0.016 0.000 8.3 7 1
02/01/06 4:11 a -4.1 -4.0 -4.1 --- --- 16.5 ENE 0.28 17.4 -11.8 --- --- 730.8 0.016 0.000 8.4 7 1
02/01/06 4:12 a -3.9 -3.8 -4.0 --- --- 15.7 ENE 0.26 17.4 -11.4 --- --- 730.9 0.015 0.000 8.4 7 1
02/01/06 4:13 a -3.7 -3.7 -3.8 --- --- 14.8 ENE 0.25 15.7 -11.0 --- --- 730.9 0.015 0.000 8.4 7 1
02/01/06 4:14 a -3.6 -3.4 -3.7 --- --- 13.9 ENE 0.23 14.8 -10.6 --- --- 730.9 0.015 0.000 8.4 7 1
02/01/06 4:15 a -3.4 -3.3 -3.4 --- --- 13.0 ENE 0.22 13.9 -10.1 --- --- 730.8 0.015 0.000 8.4 7 1
02/01/06 4:16 a -3.5 -3.4 -3.7 --- --- 14.8 ENE 0.25 17.4 -10.7 --- --- 730.8 0.015 0.000 8.4 7 1
02/01/06 4:17 a -3.8 -3.8 -4.0 --- --- 16.5 ENE 0.28 17.4 -11.5 --- --- 730.8 0.015 0.000 8.4 7 1
02/01/06 4:18 a -4.1 -4.1 -4.1 --- --- 15.7 ENE 0.26 17.4 -11.6 --- --- 731.0 0.016 0.000 8.4 7 1
02/01/06 4:19 a -4.1 -4.1 -4.1 --- --- 13.9 ENE 0.23 15.7 -11.3 --- --- 730.9 0.016 0.000 8.4 7 1
02/01/06 4:20 a -4.2 -4.1 -4.2 --- --- 13.9 ENE 0.23 15.7 -11.3 --- --- 730.9 0.016 0.000 8.4 7 1
02/01/06 4:21 a -4.2 -4.2 -4.2 --- --- 13.0 ENE 0.22 15.7 -11.1 --- --- 730.8 0.016 0.000 8.4 7 1
02/01/06 4:22 a -4.3 -4.2 -4.3 --- --- 14.8 ENE 0.25 16.5 -11.7 --- --- 730.8 0.016 0.000 8.4 7 1
02/01/06 4:23 a -4.1 -4.1 -4.2 --- --- 14.8 ENE 0.25 16.5 -11.5 --- --- 730.8 0.016 0.000 8.4 7 1
02/01/06 4:24 a -4.1 -4.0 -4.3 --- --- 15.7 ENE 0.26 17.4 -11.7 --- --- 730.9 0.016 0.000 8.4 7 1
02/01/06 4:25 a -4.4 -4.3 -4.5 --- --- 15.7 ENE 0.26 17.4 -12.1 --- --- 730.8 0.016 0.000 8.4 7 1
02/01/06 4:26 a -4.6 -4.5 -4.6 --- --- 14.8 ENE 0.25 16.5 -12.1 --- --- 730.9 0.016 0.000 8.4 7 1
02/01/06 4:27 a -4.7 -4.6 -4.7 --- --- 13.9 ENE 0.23 15.7 -12.0 --- --- 730.9 0.016 0.000 8.4 7 1
02/01/06 4:28 a -4.7 -4.7 -4.7 --- --- 15.7 ENE 0.26 16.5 -12.4 --- --- 730.9 0.016 0.000 8.4 7 1
02/01/06 4:29 a -4.6 -4.6 -4.7 --- --- 15.7 ENE 0.26 16.5 -12.3 --- --- 730.8 0.016 0.000 8.4 7 1
02/01/06 4:30 a -4.7 -4.7 -4.8 --- --- 16.5 ENE 0.28 18.3 -12.7 --- --- 730.9 0.016 0.000 8.4 7 1
02/01/06 4:31 a -4.9 -4.8 -5.1 --- --- 16.5 ENE 0.28 18.3 -12.9 --- --- 730.8 0.016 0.000 8.4 7 1
02/01/06 4:32 a -5.1 -5.1 -5.2 --- --- 17.4 ENE 0.29 18.3 -13.4 --- --- 730.9 0.016 0.000 8.4 7 1
02/01/06 4:33 a -5.3 -5.3 -5.4 --- --- 17.4 ENE 0.29 18.3 -13.7 --- --- 730.8 0.016 0.000 8.4 7 1
02/01/06 4:34 a -5.4 -5.4 -5.5 --- --- 17.4 ENE 0.29 18.3 -13.8 --- --- 730.8 0.017 0.000 8.4 7 1
02/01/06 4:35 a -5.6 -5.6 -5.6 --- --- 16.5 ENE 0.28 18.3 -13.8 --- --- 730.8 0.017 0.000 8.4 7 1
02/01/06 4:36 a -5.7 -5.6 -5.7 --- --- 16.5 ENE 0.28 17.4 -13.9 --- --- 730.8 0.017 0.000 8.3 7 1
02/01/06 4:37 a -5.6 -5.5 -5.6 --- --- 16.5 ENE 0.28 18.3 -13.8 --- --- 730.9 0.017 0.000 8.3 7 1
02/01/06 4:38 a -5.5 -5.4 -5.5 --- --- 16.5 ENE 0.28 18.3 -13.7 --- --- 730.9 0.017 0.000 8.3 7 1
02/01/06 4:39 a -5.4 -5.4 -5.4 --- --- 15.7 ENE 0.26 17.4 -13.3 --- --- 730.9 0.016 0.000 8.3 7 1
02/01/06 4:40 a -5.3 -5.2 -5.3 --- --- 15.7 ENE 0.26 17.4 -13.2 --- --- 730.9 0.016 0.000 8.3 7 1
02/01/06 4:41 a -5.2 -5.2 -5.3 --- --- 15.7 ENE 0.26 16.5 -13.1 --- --- 730.8 0.016 0.000 8.3 7 1
02/01/06 4:42 a -5.2 -5.2 -5.2 --- --- 14.8 ENE 0.25 15.7 -12.9 --- --- 730.9 0.016 0.000 8.3 7 1
02/01/06 4:43 a -5.3 -5.3 -5.3 --- --- 15.7 ENE 0.26 16.5 -13.2 --- --- 730.9 0.016 0.000 8.3 7 1
02/01/06 4:44 a -5.4 -5.3 -5.4 --- --- 15.7 ENE 0.26 17.4 -13.3 --- --- 730.9 0.016 0.000 8.3 7 1
02/01/06 4:45 a -5.5 -5.5 -5.6 --- --- 16.5 ENE 0.28 17.4 -13.7 --- --- 730.9 0.017 0.000 8.3 7 1
02/01/06 4:46 a -5.6 -5.6 -5.6 --- --- 16.5 ENE 0.28 17.4 -13.8 --- --- 730.8 0.017 0.000 8.3 7 1
02/01/06 4:47 a -5.6 -5.6 -5.7 --- --- 15.7 ENE 0.26 17.4 -13.7 --- --- 730.9 0.017 0.000 8.3 7 1
02/01/06 4:48 a -5.8 -5.7 -5.8 --- --- 14.8 NE 0.25 16.5 -13.7 --- --- 730.8 0.017 0.000 8.3 7 1
02/01/06 4:49 a -5.8 -5.8 -5.8 --- --- 15.7 ENE 0.26 16.5 -13.9 --- --- 730.9 0.017 0.000 8.3 7 1
02/01/06 4:50 a -5.8 -5.8 -5.8 --- --- 14.8 ENE 0.25 17.4 -13.7 --- --- 731.0 0.017 0.000 8.3 7 1
02/01/06 4:51 a -5.7 -5.7 -5.7 --- --- 15.7 NE 0.26 17.4 -13.8 --- --- 730.9 0.017 0.000 8.3 7 1
02/01/06 4:52 a -5.6 -5.6 -5.7 --- --- 14.8 NE 0.25 16.5 -13.4 --- --- 730.9 0.017 0.000 8.3 7 1
02/01/06 4:53 a -5.6 -5.6 -5.6 --- --- 14.8 NE 0.25 16.5 -13.3 --- --- 730.9 0.017 0.000 8.3 7 1
02/01/06 4:54 a -5.6 -5.6 -5.6 --- --- 14.8 NE 0.25 16.5 -13.3 --- --- 730.9 0.017 0.000 8.3 7 1
02/01/06 4:55 a -5.6 -5.6 -5.6 --- --- 14.8 NE 0.25 15.7 -13.4 --- --- 730.9 0.017 0.000 8.3 7 1
02/01/06 4:56 a -5.6 -5.4 -5.6 --- --- 14.8 NE 0.25 16.5 -13.3 --- --- 730.9 0.017 0.000 8.3 7 1
02/01/06 4:57 a -5.3 -5.3 -5.4 --- --- 14.8 NE 0.25 17.4 -13.1 --- --- 730.9 0.016 0.000 8.3 7 1
02/01/06 4:58 a -5.2 -5.1 -5.2 --- --- 14.8 NE 0.25 15.7 -12.8 --- --- 730.9 0.016 0.000 8.3 7 1
02/01/06 4:59 a -5.0 -4.9 -5.1 --- --- 14.8 NE 0.25 16.5 -12.6 --- --- 730.9 0.016 0.000 8.3 7 1
02/01/06 5:00 a -4.8 -4.7 -4.8 --- --- 14.8 NE 0.25 16.5 -12.3 --- --- 730.9 0.016 0.000 8.3 7 1
02/01/06 5:02 a -4.6 -4.4 -4.6 --- --- 13.9 NE 0.23 14.8 -11.8 --- --- 730.9 0.016 0.000 8.3 7 1
02/01/06 5:03 a -4.4 -4.3 -4.5 --- --- 14.8 NE 0.25 15.7 -11.8 --- --- 730.9 0.016 0.000 8.3 7 1
02/01/06 5:04 a -4.2 -4.2 -4.3 --- --- 13.9 ENE 0.23 14.8 -11.4 --- --- 730.8 0.016 0.000 8.3 7 1
02/01/06 5:05 a -4.1 -3.9 -4.2 --- --- 13.0 ENE 0.22 13.9 -11.1 --- --- 730.9 0.016 0.000 8.3 7 1
02/01/06 5:06 a -3.9 -3.8 -3.9 --- --- 12.2 ENE 0.20 13.9 -10.6 --- --- 730.9 0.015 0.000 8.3 7 1
02/01/06 5:07 a -3.8 -3.8 -3.8 --- --- 13.0 ENE 0.22 13.9 -10.6 --- --- 730.9 0.015 0.000 8.3 7 1
02/01/06 5:08 a -3.9 -3.8 -3.9 --- --- 13.0 ENE 0.22 14.8 -10.8 --- --- 730.9 0.015 0.000 8.3 7 1
02/01/06 5:09 a -4.1 -4.0 -4.2 --- --- 13.9 ENE 0.23 15.7 -11.2 --- --- 730.9 0.016 0.000 8.4 7 1
02/01/06 5:10 a -4.3 -4.3 -4.4 --- --- 14.8 NE 0.25 15.7 -11.7 --- --- 730.9 0.016 0.000 8.4 7 1
02/01/06 5:11 a -4.4 -4.4 -4.6 --- --- 14.8 NE 0.25 15.7 -11.9 --- --- 730.9 0.016 0.000 8.4 7 1
02/01/06 5:12 a -4.6 -4.6 -4.6 --- --- 14.8 NE 0.25 15.7 -12.1 --- --- 730.9 0.016 0.000 8.4 7 1
02/01/06 5:13 a -4.6 -4.5 -4.7 --- --- 14.8 NE 0.25 16.5 -12.1 --- --- 730.9 0.016 0.000 8.4 7 1
02/01/06 5:14 a -4.4 -4.4 -4.5 --- --- 13.9 NE 0.23 15.7 -11.7 --- --- 731.0 0.016 0.000 8.4 7 1
02/01/06 5:15 a -4.4 -4.4 -4.4 --- --- 13.9 NE 0.23 15.7 -11.6 --- --- 730.9 0.016 0.000 8.4 7 1
02/01/06 5:16 a -4.4 -4.4 -4.4 --- --- 13.9 NE 0.23 15.7 -11.6 --- --- 730.9 0.016 0.000 8.4 7 1
02/01/06 5:17 a -4.4 -4.3 -4.4 --- --- 14.8 NE 0.25 15.7 -11.8 --- --- 731.0 0.016 0.000 8.4 7 1
02/01/06 5:18 a -4.3 -4.3 -4.3 --- --- 14.8 NE 0.25 15.7 -11.8 --- --- 730.9 0.016 0.000 8.4 7 1
02/01/06 5:19 a -4.4 -4.3 -4.4 --- --- 14.8 NE 0.25 15.7 -11.8 --- --- 731.0 0.016 0.000 8.4 7 1
02/01/06 5:20 a -4.4 -4.4 -4.5 --- --- 14.8 NE 0.25 15.7 -11.9 --- --- 730.9 0.016 0.000 8.4 7 1
02/01/06 5:21 a -4.6 -4.5 -4.7 --- --- 14.8 NE 0.25 16.5 -12.1 --- --- 730.9 0.016 0.000 8.4 7 1
02/01/06 5:22 a -4.7 -4.7 -4.7 --- --- 13.9 NE 0.23 14.8 -12.1 --- --- 730.9 0.016 0.000 8.4 7 1
02/01/06 5:23 a -4.7 -4.7 -4.7 --- --- 13.9 NE 0.23 15.7 -12.0 --- --- 731.0 0.016 0.000 8.4 7 1
02/01/06 5:24 a -4.8 -4.7 -4.9 --- --- 14.8 NE 0.25 16.5 -12.3 --- --- 730.9 0.016 0.000 8.4 7 1
02/01/06 5:25 a -5.1 -4.9 -5.1 --- --- 14.8 NE 0.25 15.7 -12.7 --- --- 730.9 0.016 0.000 8.4 7 1
02/01/06 5:26 a -5.2 -5.1 -5.2 --- --- 13.9 NE 0.23 15.7 -12.6 --- --- 731.0 0.016 0.000 8.3 7 1
02/01/06 5:27 a -5.2 -5.1 -5.2 --- --- 14.8 NE 0.25 16.5 -12.9 --- --- 731.0 0.016 0.000 8.3 7 1
02/01/06 5:28 a -5.1 -5.1 -5.1 --- --- 14.8 NE 0.25 15.7 -12.7 --- --- 731.0 0.016 0.000 8.3 7 1
02/01/06 5:29 a -4.9 -4.8 -5.0 --- --- 13.0 NE 0.22 14.8 -12.1 --- --- 730.9 0.016 0.000 8.3 7 1
02/01/06 5:30 a -4.8 -4.8 -4.8 --- --- 14.8 NE 0.25 15.7 -12.4 --- --- 731.0 0.016 0.000 8.3 7 1
02/01/06 5:31 a -4.8 -4.8 -4.8 --- --- 12.2 NE 0.20 14.8 -11.7 --- --- 731.0 0.016 0.000 8.3 7 1
02/01/06 5:32 a -4.7 -4.6 -4.7 --- --- 15.7 NE 0.26 16.5 -12.5 --- --- 730.9 0.016 0.000 8.3 7 1
02/01/06 5:33 a -4.6 -4.4 -4.6 --- --- 13.9 NE 0.23 15.7 -11.8 --- --- 731.0 0.016 0.000 8.3 7 1
02/01/06 5:34 a -4.4 -4.3 -4.4 --- --- 13.9 NE 0.23 16.5 -11.6 --- --- 731.0 0.016 0.000 8.3 7 1
02/01/06 5:35 a -4.3 -4.3 -4.3 --- --- 15.7 NE 0.26 16.5 -11.9 --- --- 731.0 0.016 0.000 8.3 7 1
02/01/06 5:36 a -4.2 -4.1 -4.3 --- --- 12.2 NE 0.20 13.9 -10.9 --- --- 730.9 0.016 0.000 8.3 7 1
02/01/06 5:37 a -4.1 -4.0 -4.1 --- --- 15.7 NE 0.26 16.5 -11.6 --- --- 731.0 0.016 0.000 8.3 7 1
02/01/06 5:38 a -4.2 -4.1 -4.2 --- --- 14.8 NE 0.25 15.7 -11.6 --- --- 731.0 0.016 0.000 8.3 7 1
02/01/06 5:39 a -4.1 -4.1 -4.2 --- --- 13.0 NE 0.22 14.8 -11.1 --- --- 731.0 0.016 0.000 8.3 7 1
02/01/06 5:40 a -4.0 -3.9 -4.1 --- --- 14.8 NE 0.25 17.4 -11.3 --- --- 730.9 0.016 0.000 8.3 7 1
02/01/06 5:41 a -4.1 -4.1 -4.1 --- --- 12.2 NE 0.20 13.9 -10.7 --- --- 731.0 0.016 0.000 8.3 7 1
02/01/06 5:42 a -3.8 -3.7 -4.0 --- --- 11.3 NE 0.19 18.3 -10.2 --- --- 730.9 0.015 0.000 8.3 7 1
02/01/06 5:43 a -3.8 -3.8 -3.8 --- --- 14.8 NE 0.25 16.5 -11.1 --- --- 731.0 0.015 0.000 8.3 7 1
02/01/06 5:44 a -3.8 -3.7 -3.8 --- --- 12.2 NE 0.20 13.0 -10.4 --- --- 730.9 0.015 0.000 8.3 7 1
02/01/06 5:45 a -3.6 -3.5 -3.7 --- --- 10.4 NE 0.17 13.0 -9.7 --- --- 731.0 0.015 0.000 8.3 7 1
02/01/06 5:46 a -3.7 -3.6 -3.8 --- --- 13.9 ENE 0.23 15.7 -10.7 --- --- 731.0 0.015 0.000 8.3 7 1
02/01/06 5:47 a -3.8 -3.8 -3.9 --- --- 14.8 ENE 0.25 16.5 -11.1 --- --- 731.0 0.015 0.000 8.3 7 1
02/01/06 5:48 a -3.9 -3.9 -4.0 --- --- 13.9 NE 0.23 14.8 -11.1 --- --- 731.0 0.015 0.000 8.3 7 1
02/01/06 5:49 a -4.1 -4.1 -4.2 --- --- 13.0 NE 0.22 13.9 -11.0 --- --- 731.0 0.016 0.000 8.3 7 1
02/01/06 5:50 a -4.3 -4.2 -4.3 --- --- 11.3 NE 0.19 13.9 -10.8 --- --- 731.0 0.016 0.000 8.3 7 1
02/01/06 5:51 a -4.4 -4.3 -4.5 --- --- 13.0 NE 0.22 15.7 -11.4 --- --- 731.0 0.016 0.000 8.3 7 1
02/01/06 5:52 a -4.6 -4.6 -4.7 --- --- 13.0 ENE 0.22 13.9 -11.7 --- --- 731.1 0.016 0.000 8.3 7 1
02/01/06 5:53 a -4.7 -4.7 -4.8 --- --- 13.0 NE 0.22 13.9 -11.8 --- --- 731.1 0.016 0.000 8.3 7 1
02/01/06 5:54 a -4.9 -4.8 -5.0 --- --- 12.2 NE 0.20 13.9 -11.8 --- --- 731.0 0.016 0.000 8.3 7 1
02/01/06 5:55 a -5.1 -5.0 -5.2 --- --- 12.2 NE 0.20 13.9 -12.0 --- --- 731.0 0.016 0.000 8.3 7 1
02/01/06 5:56 a -5.3 -5.3 -5.4 --- --- 12.2 NE 0.20 13.9 -12.4 --- --- 731.1 0.016 0.000 8.3 7 1
02/01/06 5:57 a -5.4 -5.3 -5.4 --- --- 12.2 NE 0.20 13.9 -12.4 --- --- 731.0 0.016 0.000 8.3 7 1
02/01/06 5:58 a -5.3 -5.3 -5.3 --- --- 12.2 NE 0.20 14.8 -12.3 --- --- 731.0 0.016 0.000 8.3 7 1
02/01/06 5:59 a -5.2 -5.2 -5.2 --- --- 12.2 NE 0.20 13.9 -12.2 --- --- 731.0 0.016 0.000 8.3 7 1
02/01/06 6:00 a -5.1 -5.0 -5.2 --- --- 12.2 NE 0.20 13.0 -12.1 --- --- 731.0 0.016 0.000 8.3 7 1
02/01/06 6:02 a -4.8 -4.8 -4.8 --- --- 12.2 NE 0.20 13.9 -11.7 --- --- 731.0 0.016 0.000 8.3 7 1
02/01/06 6:03 a -4.7 -4.7 -4.8 --- --- 10.4 NE 0.17 13.0 -11.1 --- --- 731.0 0.016 0.000 8.3 7 1
02/01/06 6:04 a -4.7 -4.6 -4.8 --- --- 12.2 NE 0.20 13.0 -11.5 --- --- 731.1 0.016 0.000 8.3 7 1
02/01/06 6:05 a -4.7 -4.7 -4.7 --- --- 11.3 NE 0.19 13.0 -11.3 --- --- 731.1 0.016 0.000 8.3 7 1
02/01/06 6:06 a -4.6 -4.6 -4.7 --- --- 11.3 NE 0.19 13.0 -11.2 --- --- 731.0 0.016 0.000 8.3 7 1
02/01/06 6:07 a -4.6 -4.6 -4.7 --- --- 13.0 NE 0.22 13.9 -11.7 --- --- 731.1 0.016 0.000 8.3 7 1
02/01/06 6:08 a -4.8 -4.8 -4.9 --- --- 12.2 NE 0.20 14.8 -11.7 --- --- 731.0 0.016 0.000 8.3 7 1
02/01/06 6:09 a -5.1 -5.0 -5.1 --- --- 13.9 NE 0.23 14.8 -12.5 --- --- 731.0 0.016 0.000 8.3 7 1
02/01/06 6:10 a -5.1 -5.0 -5.1 --- --- 13.0 NE 0.22 14.8 -12.3 --- --- 731.0 0.016 0.000 8.3 7 1
02/01/06 6:11 a -4.8 -4.6 -5.0 --- --- 9.6 NE 0.16 12.2 -10.9 --- --- 731.0 0.016 0.000 8.3 7 1
02/01/06 6:12 a -4.6 -4.6 -4.6 --- --- 11.3 NNE 0.19 13.0 -11.1 --- --- 731.1 0.016 0.000 8.3 7 1
02/01/06 6:13 a -4.7 -4.6 -4.7 --- --- 10.4 NNE 0.17 13.9 -11.0 --- --- 731.1 0.016 0.000 8.3 7 1
02/01/06 6:14 a -4.8 -4.7 -4.8 --- --- 13.0 NE 0.22 14.8 -11.9 --- --- 731.0 0.016 0.000 8.3 7 1
02/01/06 6:15 a -4.8 -4.8 -4.8 --- --- 13.9 NE 0.23 16.5 -12.2 --- --- 731.0 0.016 0.000 8.3 7 1
02/01/06 6:16 a -4.7 -4.7 -4.8 --- --- 13.0 NE 0.22 14.8 -11.8 --- --- 731.1 0.016 0.000 8.3 7 1
02/01/06 6:17 a -4.7 -4.7 -4.8 --- --- 12.2 NE 0.20 13.9 -11.6 --- --- 731.0 0.016 0.000 8.3 7 1
02/01/06 6:18 a -4.5 -4.4 -4.6 --- --- 11.3 NE 0.19 12.2 -11.1 --- --- 731.0 0.016 0.000 8.3 7 1
02/01/06 6:19 a -4.3 -4.2 -4.3 --- --- 11.3 NE 0.19 13.9 -10.8 --- --- 731.0 0.016 0.000 8.3 7 1
02/01/06 6:20 a -4.3 -4.2 -4.4 --- --- 11.3 NNE 0.19 13.0 -10.8 --- --- 730.9 0.016 0.000 8.3 7 1
02/01/06 6:21 a -4.3 -4.1 -4.4 --- --- 9.6 NE 0.16 11.3 -10.3 --- --- 731.0 0.016 0.000 8.3 7 1
02/01/06 6:22 a -3.9 -3.8 -4.1 --- --- 10.4 NE 0.17 12.2 -10.1 --- --- 731.0 0.015 0.000 8.3 7 1
02/01/06 6:23 a -3.8 -3.7 -3.8 --- --- 11.3 NNE 0.19 13.0 -10.1 --- --- 731.0 0.015 0.000 8.3 7 1
02/01/06 6:24 a -3.6 -3.5 -3.7 --- --- 11.3 NE 0.19 13.0 -9.9 --- --- 731.0 0.015 0.000 8.4 7 1
02/01/06 6:25 a -3.6 -3.5 -3.7 --- --- 9.6 NNE 0.16 11.3 -9.3 --- --- 731.1 0.015 0.000 8.4 7 1
02/01/06 6:26 a -4.0 -3.8 -4.2 --- --- 11.3 NNE 0.19 13.0 -10.4 --- --- 731.2 0.016 0.000 8.4 7 1
02/01/06 6:27 a -4.1 -4.0 -4.2 --- --- 9.6 NNE 0.16 12.2 -9.9 --- --- 731.1 0.016 0.000 8.4 7 1
02/01/06 6:28 a -4.4 -4.2 -4.6 --- --- 8.7 NNE 0.14 10.4 -10.1 --- --- 731.1 0.016 0.000 8.4 7 1
02/01/06 6:29 a -4.0 -3.7 -4.3 --- --- 9.6 NE 0.16 10.4 -9.9 --- --- 731.1 0.016 0.000 8.4 7 1
02/01/06 6:30 a -3.5 -3.3 -3.6 --- --- 7.8 NE 0.13 9.6 -8.6 --- --- 731.2 0.015 0.000 8.4 7 1
02/01/06 6:31 a -3.2 -3.2 -3.3 --- --- 7.8 NNE 0.13 10.4 -8.3 --- --- 731.1 0.015 0.000 8.4 7 1
02/01/06 6:32 a -3.4 -3.3 -3.6 --- --- 10.4 NNE 0.17 12.2 -9.4 --- --- 731.2 0.015 0.000 8.4 7 1
02/01/06 6:33 a -3.7 -3.6 -3.8 --- --- 8.7 NNE 0.14 13.0 -9.2 --- --- 731.1 0.015 0.000 8.4 7 1
02/01/06 6:34 a -3.3 -3.0 -3.5 --- --- 7.8 NE 0.13 10.4 -8.3 --- --- 731.2 0.015 0.000 8.4 7 1
02/01/06 6:35 a -3.4 -2.9 -3.8 --- --- 8.7 NNE 0.14 11.3 -8.8 --- --- 731.2 0.015 0.000 8.4 7 1
02/01/06 6:36 a -3.4 -3.0 -3.6 --- --- 9.6 NE 0.16 10.4 -9.2 --- --- 731.1 0.015 0.000 8.4 7 1
02/01/06 6:37 a -2.8 -2.7 -2.9 --- --- 9.6 NE 0.16 12.2 -8.4 --- --- 731.1 0.015 0.000 8.4 7 1
02/01/06 6:38 a -2.6 -2.6 -2.7 --- --- 10.4 NE 0.17 12.2 -8.4 --- --- 731.1 0.015 0.000 8.4 7 1
02/01/06 6:39 a -2.7 -2.6 -2.8 --- --- 10.4 NE 0.17 12.2 -8.5 --- --- 731.0 0.015 0.000 8.4 7 1
02/01/06 6:40 a -2.9 -2.9 -2.9 --- --- 9.6 NE 0.16 12.2 -8.5 --- --- 731.0 0.015 0.000 8.4 7 1
02/01/06 6:41 a -2.9 -2.8 -2.9 --- --- 9.6 NE 0.16 11.3 -8.5 --- --- 731.1 0.015 0.000 8.5 7 1
02/01/06 6:42 a -2.9 -2.9 -3.0 --- --- 10.4 NE 0.17 13.0 -8.8 --- --- 731.0 0.015 0.000 8.5 7 1
02/01/06 6:43 a -2.9 -2.8 -3.0 --- --- 10.4 NE 0.17 13.0 -8.8 --- --- 731.1 0.015 0.000 8.5 7 1
02/01/06 6:44 a -3.2 -3.1 -3.4 --- --- 12.2 NE 0.20 13.0 -9.7 --- --- 731.1 0.015 0.000 8.5 7 1
02/01/06 6:45 a -3.6 -3.4 -3.9 --- --- 11.3 NE 0.19 13.0 -9.9 --- --- 731.1 0.015 0.000 8.5 7 1
02/01/06 6:46 a -4.0 -3.9 -4.2 --- --- 11.3 NE 0.19 13.0 -10.4 --- --- 731.1 0.016 0.000 8.5 7 1
02/01/06 6:47 a -4.2 -4.2 -4.3 --- --- 10.4 NE 0.17 13.9 -10.4 --- --- 731.0 0.016 0.000 8.5 7 1
02/01/06 6:48 a -4.3 -4.3 -4.4 --- --- 10.4 NNE 0.17 12.2 -10.6 --- --- 731.0 0.016 0.000 8.5 7 1
02/01/06 6:49 a -4.3 -4.3 -4.3 --- --- 12.2 NE 0.20 13.9 -11.1 --- --- 731.0 0.016 0.000 8.5 7 1
02/01/06 6:50 a -4.4 -4.4 -4.4 --- --- 12.2 NE 0.20 13.0 -11.2 --- --- 731.1 0.016 0.000 8.5 7 1
02/01/06 6:51 a -4.4 -4.3 -4.4 --- --- 12.2 ENE 0.20 13.9 -11.2 --- --- 731.0 0.016 0.000 8.5 7 1
02/01/06 6:52 a -4.4 -4.4 -4.5 --- --- 11.3 NE 0.19 13.0 -10.9 --- --- 731.2 0.016 0.000 8.5 7 1
02/01/06 6:53 a -4.4 -4.3 -4.6 --- --- 9.6 NE 0.16 13.0 -10.4 --- --- 731.1 0.016 0.000 8.5 7 1
02/01/06 6:54 a -4.2 -4.1 -4.3 --- --- 10.4 NE 0.17 13.0 -10.4 --- --- 731.1 0.016 0.000 8.5 7 1
02/01/06 6:55 a -4.2 -4.1 -4.2 --- --- 9.6 NE 0.16 13.0 -10.1 --- --- 731.1 0.016 0.000 8.4 7 1
02/01/06 6:56 a -4.2 -4.1 -4.2 --- --- 9.6 NE 0.16 12.2 -10.1 --- --- 731.1 0.016 0.000 8.4 7 1
02/01/06 6:57 a -4.2 -4.2 -4.3 --- --- 10.4 NE 0.17 12.2 -10.4 --- --- 731.2 0.016 0.000 8.4 7 1
02/01/06 6:58 a -4.3 -4.3 -4.3 --- --- 11.3 NE 0.19 13.0 -10.8 --- --- 731.1 0.016 0.000 8.4 7 1
02/01/06 6:59 a -4.4 -4.3 -4.4 --- --- 10.4 NE 0.17 12.2 -10.7 --- --- 731.2 0.016 0.000 8.4 7 1
02/01/06 7:00 a -4.3 -4.3 -4.4 --- --- 9.6 NE 0.16 10.4 -10.3 --- --- 731.1 0.016 0.000 8.4 7 1
02/01/06 7:01 a -4.1 -3.9 -4.2 --- --- 7.8 NE 0.13 11.3 -9.3 --- --- 731.2 0.016 0.000 8.4 7 1
02/01/06 7:02 a -3.8 -3.8 -3.9 --- --- 9.6 NE 0.16 10.4 -9.7 --- --- 731.0 0.015 0.000 8.4 7 1
02/01/06 7:03 a -3.9 -3.8 -4.1 --- --- 9.6 NE 0.16 11.3 -9.8 --- --- 731.1 0.015 0.000 8.4 7 1
02/01/06 7:04 a -4.2 -4.1 -4.3 --- --- 11.3 NE 0.19 12.2 -10.6 --- --- 731.1 0.016 0.000 8.4 7 1
02/01/06 7:05 a -4.4 -4.3 -4.6 --- --- 9.6 NE 0.16 11.3 -10.4 --- --- 731.0 0.016 0.000 8.4 7 1
02/01/06 7:06 a -4.6 -4.6 -4.6 --- --- 8.7 NE 0.14 10.4 -10.3 --- --- 731.1 0.016 0.000 8.4 7 1
02/01/06 7:07 a -4.5 -4.5 -4.6 --- --- 8.7 NE 0.14 10.4 -10.2 --- --- 731.1 0.016 0.000 8.4 7 1
02/01/06 7:08 a -4.5 -4.5 -4.5 --- --- 7.8 NE 0.13 8.7 -9.8 --- --- 731.1 0.016 0.000 8.4 7 1
02/01/06 7:09 a -4.3 -4.3 -4.4 --- --- 7.0 NNE 0.12 8.7 -9.3 --- --- 731.0 0.016 0.000 8.4 7 1
02/01/06 7:10 a -4.2 -4.2 -4.3 --- --- 9.6 NE 0.16 10.4 -10.2 --- --- 731.1 0.016 0.000 8.4 7 1
02/01/06 7:11 a -4.3 -4.2 -4.3 --- --- 8.7 NE 0.14 9.6 -9.9 --- --- 731.2 0.016 0.000 8.3 7 1
02/01/06 7:12 a -4.3 -4.2 -4.3 --- --- 8.7 NE 0.14 9.6 -9.9 --- --- 731.2 0.016 0.000 8.3 7 1
02/01/06 7:13 a -4.2 -4.2 -4.3 --- --- 7.8 NE 0.13 9.6 -9.5 --- --- 731.1 0.016 0.000 8.3 7 1
02/01/06 7:14 a -4.1 -4.1 -4.2 --- --- 7.8 NE 0.13 9.6 -9.3 --- --- 731.1 0.016 0.000 8.3 7 1
02/01/06 7:15 a -3.9 -3.9 -4.1 --- --- 6.1 NNE 0.10 7.8 -8.4 --- --- 731.1 0.015 0.000 8.3 7 1
02/01/06 7:16 a -4.1 -3.9 -4.2 --- --- 5.2 N 0.09 7.0 -8.1 --- --- 731.1 0.016 0.000 8.3 7 1
02/01/06 7:17 a -4.2 -4.1 -4.2 --- --- 5.2 N 0.09 6.1 -8.2 --- --- 731.1 0.016 0.000 8.3 7 1
02/01/06 7:18 a -4.1 -4.0 -4.2 --- --- 5.2 N 0.09 6.1 -8.1 --- --- 731.2 0.016 0.000 8.3 7 1
02/01/06 7:19 a -4.3 -4.3 -4.4 --- --- 5.2 N 0.09 7.0 -8.3 --- --- 731.1 0.016 0.000 8.3 7 1
02/01/06 7:20 a -4.5 -4.4 -4.6 --- --- 6.1 N 0.10 8.7 -9.1 --- --- 731.2 0.016 0.000 8.3 7 1
02/01/06 7:21 a -4.7 -4.6 -4.7 --- --- 5.2 N 0.09 7.8 -8.8 --- --- 731.1 0.016 0.000 8.3 7 1
02/01/06 7:22 a -4.6 -4.6 -4.7 --- --- 6.1 N 0.10 7.8 -9.2 --- --- 731.1 0.016 0.000 8.3 7 1
02/01/06 7:23 a -4.7 -4.7 -4.7 --- --- 6.1 N 0.10 8.7 -9.2 --- --- 731.2 0.016 0.000 8.3 7 1
02/01/06 7:24 a -4.6 -4.6 -4.7 --- --- 6.1 NNW 0.10 9.6 -9.2 --- --- 731.1 0.016 0.000 8.3 7 1
02/01/06 7:25 a -4.5 -4.5 -4.6 --- --- 5.2 N 0.09 7.8 -8.6 --- --- 731.2 0.016 0.000 8.3 7 1
02/01/06 7:26 a -4.6 -4.5 -4.6 --- --- 6.1 N 0.10 7.0 -9.1 --- --- 731.1 0.016 0.000 8.3 7 1
02/01/06 7:27 a -4.6 -4.6 -4.6 --- --- 5.2 N 0.09 6.1 -8.6 --- --- 731.1 0.016 0.000 8.3 7 1
02/01/06 7:28 a -4.6 -4.6 -4.6 --- --- 5.2 N 0.09 7.8 -8.6 --- --- 731.2 0.016 0.000 8.3 7 1
02/01/06 7:29 a -4.6 -4.6 -4.6 --- --- 6.1 N 0.10 7.0 -9.1 --- --- 731.1 0.016 0.000 8.3 7 1
02/01/06 7:30 a -4.6 -4.6 -4.7 --- --- 6.1 N 0.10 7.8 -9.2 --- --- 731.1 0.016 0.000 8.3 7 1
02/01/06 7:31 a -4.6 -4.6 -4.6 --- --- 6.1 N 0.10 7.8 -9.2 --- --- 731.2 0.016 0.000 8.2 7 1
02/01/06 7:32 a -4.6 -4.5 -4.6 --- --- 6.1 N 0.10 8.7 -9.2 --- --- 731.1 0.016 0.000 8.2 7 1
02/01/06 7:33 a -4.4 -4.3 -4.5 --- --- 7.0 N 0.12 7.8 -9.3 --- --- 731.1 0.016 0.000 8.3 7 1
02/01/06 7:34 a -4.3 -4.3 -4.4 --- --- 6.1 N 0.10 7.8 -8.8 --- --- 731.1 0.016 0.000 8.3 7 1
02/01/06 7:35 a -4.4 -4.3 -4.4 --- --- 5.2 N 0.09 7.0 -8.4 --- --- 731.1 0.016 0.000 8.3 7 1
02/01/06 7:36 a -4.4 -4.3 -4.4 --- --- 7.0 N 0.12 8.7 -9.3 --- --- 731.0 0.016 0.000 8.2 7 1
02/01/06 7:37 a -4.3 -4.3 -4.4 --- --- 5.2 N 0.09 7.0 -8.4 --- --- 731.1 0.016 0.000 8.2 7 1
02/01/06 7:38 a -4.3 -4.3 -4.3 --- --- 6.1 N 0.10 7.0 -8.8 --- --- 731.1 0.016 0.000 8.2 7 1
02/01/06 7:39 a -4.3 -4.3 -4.3 --- --- 6.1 N 0.10 7.8 -8.8 --- --- 731.1 0.016 0.000 8.2 7 1
02/01/06 7:40 a -4.2 -4.2 -4.2 --- --- 7.0 N 0.12 8.7 -9.1 --- --- 731.1 0.016 0.000 8.2 7 1
02/01/06 7:41 a -4.2 -4.2 -4.3 --- --- 7.8 NNW 0.13 8.7 -9.5 --- --- 731.1 0.016 0.000 8.2 7 1
02/01/06 7:42 a -4.2 -4.2 -4.2 --- --- 6.1 N 0.10 9.6 -8.7 --- --- 731.1 0.016 0.000 8.2 7 1
02/01/06 7:43 a -4.2 -4.2 -4.2 --- --- 7.8 NNW 0.13 8.7 -9.4 --- --- 731.2 0.016 0.000 8.2 7 1
02/01/06 7:44 a -4.1 -4.0 -4.2 --- --- 6.1 N 0.10 7.0 -8.6 --- --- 731.2 0.016 0.000 8.2 7 1
02/01/06 7:45 a -4.1 -3.9 -4.2 --- --- 6.1 N 0.10 7.8 -8.5 --- --- 731.1 0.016 0.000 8.2 7 1
02/01/06 7:46 a -4.2 -4.1 -4.2 --- --- 7.8 NNW 0.13 9.6 -9.4 --- --- 731.1 0.016 0.000 8.2 7 1
02/01/06 7:47 a -4.1 -4.1 -4.1 --- --- 7.0 N 0.12 7.8 -9.0 --- --- 731.1 0.016 0.000 8.2 7 1
02/01/06 7:48 a -4.1 -4.1 -4.2 --- --- 7.0 N 0.12 8.7 -9.0 --- --- 731.1 0.016 0.000 8.2 7 1
02/01/06 7:49 a -4.1 -4.1 -4.1 --- --- 7.0 N 0.12 9.6 -9.0 --- --- 731.1 0.016 0.000 8.2 7 1
02/01/06 7:50 a -4.1 -4.1 -4.1 --- --- 7.0 N 0.12 7.8 -9.0 --- --- 731.1 0.016 0.000 8.3 7 1
02/01/06 7:51 a -4.2 -4.1 -4.3 --- --- 7.0 N 0.12 8.7 -9.1 --- --- 731.0 0.016 0.000 8.3 7 1
02/01/06 7:52 a -4.2 -4.2 -4.3 --- --- 7.0 N 0.12 9.6 -9.1 --- --- 731.2 0.016 0.000 8.3 7 1
02/01/06 7:53 a -4.1 -4.1 -4.2 --- --- 7.8 N 0.13 8.7 -9.3 --- --- 731.0 0.016 0.000 8.3 7 1
02/01/06 7:54 a -4.2 -4.1 -4.2 --- --- 7.0 N 0.12 8.7 -9.1 --- --- 731.0 0.016 0.000 8.3 7 1
02/01/06 7:55 a -4.2 -4.2 -4.3 --- --- 7.0 N 0.12 8.7 -9.1 --- --- 731.1 0.016 0.000 8.3 7 1
02/01/06 7:56 a -4.3 -4.2 -4.3 --- --- 7.0 N 0.12 8.7 -9.2 --- --- 731.0 0.016 0.000 8.3 7 1
02/01/06 7:57 a -4.2 -4.2 -4.2 --- --- 7.8 N 0.13 9.6 -9.5 --- --- 731.0 0.016 0.000 8.3 7 1
02/01/06 7:58 a -4.2 -4.1 -4.2 --- --- 7.8 NNW 0.13 9.6 -9.4 --- --- 731.1 0.016 0.000 8.3 7 1
02/01/06 7:59 a -4.0 -4.0 -4.1 --- --- 7.8 NNW 0.13 9.6 -9.2 --- --- 731.1 0.016 0.000 8.3 7 1
02/01/06 8:00 a -4.1 -4.0 -4.2 --- --- 7.8 NNW 0.13 10.4 -9.3 --- --- 731.1 0.016 0.000 8.3 7 1
02/01/06 8:02 a -4.1 -4.1 -4.2 --- --- 8.7 NNW 0.14 9.6 -9.7 --- --- 731.1 0.016 0.000 8.3 7 1
02/01/06 8:03 a -4.2 -4.2 -4.3 --- --- 8.7 NNW 0.14 10.4 -9.8 --- --- 731.0 0.016 0.000 8.3 7 1
02/01/06 8:04 a -4.2 -4.2 -4.3 --- --- 8.7 NNW 0.14 10.4 -9.8 --- --- 731.1 0.016 0.000 8.3 7 1
02/01/06 8:05 a -4.3 -4.3 -4.3 --- --- 8.7 NNW 0.14 9.6 -9.9 --- --- 731.1 0.016 0.000 8.3 7 1
02/01/06 8:06 a -4.3 -4.3 -4.3 --- --- 8.7 NNW 0.14 10.4 -9.9 --- --- 731.1 0.016 0.000 8.3 7 1
02/01/06 8:07 a -4.3 -4.2 -4.3 --- --- 8.7 NNW 0.14 11.3 -9.9 --- --- 731.1 0.016 0.000 8.3 7 1
02/01/06 8:08 a -4.2 -4.2 -4.2 --- --- 8.7 NNW 0.14 10.4 -9.8 --- --- 731.0 0.016 0.000 8.3 7 1
02/01/06 8:09 a -4.2 -4.2 -4.2 --- --- 9.6 NNW 0.16 11.3 -10.1 --- --- 731.1 0.016 0.000 8.4 7 1
02/01/06 8:10 a -4.2 -4.2 -4.3 --- --- 8.7 NNW 0.14 9.6 -9.8 --- --- 731.0 0.016 0.000 8.4 7 1
02/01/06 8:11 a -4.2 -4.2 -4.3 --- --- 7.8 NNW 0.13 9.6 -9.5 --- --- 731.1 0.016 0.000 8.4 7 1
02/01/06 8:12 a -4.2 -4.2 -4.2 --- --- 8.7 N 0.14 10.4 -9.8 --- --- 731.1 0.016 0.000 8.4 7 1
02/01/06 8:13 a -4.2 -4.2 -4.2 --- --- 8.7 N 0.14 9.6 -9.8 --- --- 731.1 0.016 0.000 8.4 7 1
02/01/06 8:14 a -4.2 -4.2 -4.3 --- --- 8.7 N 0.14 9.6 -9.8 --- --- 731.1 0.016 0.000 8.4 7 1
02/01/06 8:15 a -4.2 -4.2 -4.3 --- --- 8.7 NNW 0.14 10.4 -9.8 --- --- 731.1 0.016 0.000 8.4 7 1
02/01/06 8:16 a -4.3 -4.2 -4.3 --- --- 9.6 NNW 0.16 10.4 -10.2 --- --- 731.1 0.016 0.000 8.4 7 1
02/01/06 8:17 a -4.1 -4.1 -4.2 --- --- 8.7 NNW 0.14 11.3 -9.7 --- --- 731.1 0.016 0.000 8.4 7 1
02/01/06 8:18 a -4.2 -4.1 -4.2 --- --- 8.7 NNW 0.14 9.6 -9.8 --- --- 731.2 0.016 0.000 8.4 7 1
02/01/06 8:19 a -4.2 -4.2 -4.2 --- --- 7.8 NNW 0.13 9.6 -9.4 --- --- 731.0 0.016 0.000 8.4 7 1
02/01/06 8:20 a -4.2 -4.2 -4.2 --- --- 7.8 N 0.13 9.6 -9.4 --- --- 731.1 0.016 0.000 8.4 7 1
02/01/06 8:21 a -4.2 -4.1 -4.2 --- --- 8.7 NNW 0.14 9.6 -9.8 --- --- 731.1 0.016 0.000 8.4 7 1
02/01/06 8:22 a -4.1 -3.9 -4.2 --- --- 8.7 NNW 0.14 11.3 -9.6 --- --- 731.1 0.016 0.000 8.4 7 1
02/01/06 8:23 a -3.7 -3.6 -3.8 --- --- 4.3 NW 0.07 7.0 -7.1 --- --- 731.2 0.015 0.000 8.4 7 1
02/01/06 8:24 a -3.5 -3.5 -3.5 --- --- 3.5 WNW 0.06 5.2 -6.2 --- --- 731.1 0.015 0.000 8.4 7 1
02/01/06 8:25 a -3.6 -3.6 -3.7 --- --- 3.5 W 0.06 4.3 -6.3 --- --- 731.1 0.015 0.000 8.4 8 1
02/01/06 8:26 a -3.8 -3.7 -3.9 --- --- 4.3 W 0.07 6.1 -7.2 --- --- 731.1 0.015 0.000 8.4 7 1
02/01/06 8:27 a -3.9 -3.9 -4.0 --- --- 6.1 WNW 0.10 9.6 -8.4 --- --- 731.1 0.015 0.000 8.4 8 1
02/01/06 8:28 a -3.8 -3.7 -3.9 --- --- 5.2 NNW 0.09 7.0 -7.8 --- --- 731.1 0.015 0.000 8.4 7 1
02/01/06 8:29 a -3.6 -3.3 -3.7 --- --- 2.6 NW 0.04 5.2 -5.5 --- --- 731.1 0.015 0.000 8.4 7 1
02/01/06 8:30 a -3.1 -3.0 -3.2 --- --- 0.9 WNW 0.01 2.6 -3.1 --- --- 731.1 0.015 0.000 8.4 7 1
02/01/06 8:31 a -3.3 -3.1 -3.5 --- --- 3.5 W 0.06 5.2 -6.1 --- --- 731.2 0.015 0.000 8.4 7 1
02/01/06 8:32 a -3.5 -3.4 -3.6 --- --- 1.7 WNW 0.03 3.5 -4.4 --- --- 731.2 0.015 0.000 8.4 8 1
02/01/06 8:33 a -3.5 -3.3 -3.6 --- --- 0.9 WNW 0.01 1.7 -3.5 --- --- 731.2 0.015 0.000 8.4 7 1
02/01/06 8:34 a -3.1 -3.1 -3.2 --- --- 3.5 NW 0.06 5.2 -5.8 --- --- 731.1 0.015 0.000 8.4 7 1
02/01/06 8:35 a -3.1 -3.0 -3.1 --- --- 1.7 NW 0.03 3.5 -3.9 --- --- 731.2 0.015 0.000 8.4 8 1
02/01/06 8:36 a -3.0 -2.9 -3.1 --- --- 1.7 NW 0.03 3.5 -3.9 --- --- 731.2 0.015 0.000 8.3 8 1
02/01/06 8:37 a -3.1 -3.1 -3.1 --- --- 4.3 NW 0.07 6.1 -6.3 --- --- 731.1 0.015 0.000 8.3 7 1
02/01/06 8:38 a -3.2 -3.0 -3.6 --- --- 6.1 NNW 0.10 7.8 -7.5 --- --- 731.1 0.015 0.000 8.3 7 1
02/01/06 8:39 a -3.9 -3.7 -4.1 --- --- 4.3 NNW 0.07 6.1 -7.3 --- --- 731.1 0.015 0.000 8.3 7 1
02/01/06 8:40 a -4.1 -4.1 -4.2 --- --- 4.3 NNW 0.07 5.2 -7.6 --- --- 731.2 0.016 0.000 8.3 7 1
02/01/06 8:41 a -4.3 -4.2 -4.4 --- --- 5.2 NNW 0.09 6.1 -8.3 --- --- 731.1 0.016 0.000 8.3 8 1
02/01/06 8:42 a -4.0 -3.8 -4.1 --- --- 4.3 NNW 0.07 6.1 -7.4 --- --- 731.2 0.016 0.000 8.3 7 1
02/01/06 8:43 a -4.0 -3.9 -4.2 --- --- 5.2 NNW 0.09 7.0 -7.9 --- --- 731.1 0.016 0.000 8.3 7 1
02/01/06 8:44 a -4.2 -4.1 -4.2 --- --- 5.2 NNW 0.09 7.0 -8.2 --- --- 731.1 0.016 0.000 8.3 7 1
02/01/06 8:45 a -4.2 -4.2 -4.4 --- --- 4.3 NNW 0.07 6.1 -7.7 --- --- 731.1 0.016 0.000 8.3 8 1
02/01/06 8:46 a -4.4 -4.3 -4.5 --- --- 5.2 NNW 0.09 7.0 -8.4 --- --- 731.1 0.016 0.000 8.3 7 1
02/01/06 8:47 a -4.6 -4.5 -4.6 --- --- 6.1 NNW 0.10 7.8 -9.1 --- --- 731.1 0.016 0.000 8.3 7 1
02/01/06 8:48 a -4.4 -4.4 -4.5 --- --- 6.1 NNW 0.10 7.0 -8.9 --- --- 731.1 0.016 0.000 8.3 8 1
02/01/06 8:49 a -4.4 -4.3 -4.5 --- --- 5.2 NNW 0.09 7.0 -8.5 --- --- 731.1 0.016 0.000 8.3 7 1
02/01/06 8:50 a -4.3 -4.3 -4.5 --- --- 5.2 NNW 0.09 7.0 -8.4 --- --- 731.0 0.016 0.000 8.3 7 1
02/01/06 8:51 a -4.6 -4.6 -4.7 --- --- 6.1 NNW 0.10 7.8 -9.2 --- --- 731.0 0.016 0.000 8.3 7 1
02/01/06 8:52 a -4.6 -4.5 -4.6 --- --- 6.1 NNW 0.10 7.8 -9.1 --- --- 731.2 0.016 0.000 8.3 8 1
02/01/06 8:53 a -4.6 -4.5 -4.6 --- --- 5.2 NNW 0.09 7.0 -8.6 --- --- 731.1 0.016 0.000 8.3 7 1
02/01/06 8:54 a -4.6 -4.5 -4.6 --- --- 5.2 NNW 0.09 6.1 -8.6 --- --- 731.0 0.016 0.000 8.3 8 1
02/01/06 8:55 a -4.5 -4.4 -4.6 --- --- 6.1 NNW 0.10 7.8 -9.1 --- --- 731.1 0.016 0.000 8.3 8 1
02/01/06 8:56 a -4.4 -4.4 -4.5 --- --- 6.1 NNW 0.10 7.8 -8.9 --- --- 731.1 0.016 0.000 8.3 8 1
02/01/06 8:57 a -4.5 -4.5 -4.6 --- --- 6.1 NNW 0.10 7.0 -9.1 --- --- 731.0 0.016 0.000 8.3 8 1
02/01/06 8:58 a -4.7 -4.6 -4.8 --- --- 5.2 NNW 0.09 6.1 -8.8 --- --- 731.1 0.016 0.000 8.3 7 1
02/01/06 8:59 a -4.8 -4.7 -4.9 --- --- 5.2 NNW 0.09 6.1 -8.9 --- --- 731.1 0.016 0.000 8.3 7 1
02/01/06 9:00 a -4.7 -4.6 -4.7 --- --- 6.1 NNW 0.10 7.0 -9.2 --- --- 731.1 0.016 0.000 8.3 8 1
02/01/06 9:02 a -4.4 -4.3 -4.4 --- --- 6.1 NNW 0.10 7.8 -8.9 --- --- 731.1 0.016 0.000 8.3 8 1
02/01/06 9:03 a -4.2 -4.2 -4.3 --- --- 6.1 NNW 0.10 7.8 -8.7 --- --- 731.1 0.016 0.000 8.3 8 1
02/01/06 9:04 a -4.2 -4.2 -4.3 --- --- 6.1 NNW 0.10 7.0 -8.7 --- --- 731.1 0.016 0.000 8.3 7 1
02/01/06 9:05 a -4.4 -4.3 -4.5 --- --- 6.1 NNW 0.10 7.8 -8.9 --- --- 731.1 0.016 0.000 8.3 8 1
02/01/06 9:06 a -4.6 -4.5 -4.6 --- --- 6.1 NNW 0.10 7.8 -9.1 --- --- 731.1 0.016 0.000 8.3 8 1
02/01/06 9:07 a -4.7 -4.6 -4.7 --- --- 6.1 NNW 0.10 7.0 -9.2 --- --- 731.1 0.016 0.000 8.3 8 1
02/01/06 9:08 a -4.6 -4.6 -4.6 --- --- 6.1 NNW 0.10 7.8 -9.2 --- --- 731.2 0.016 0.000 8.3 8 1
02/01/06 9:09 a -4.6 -4.6 -4.6 --- --- 7.8 NNW 0.13 9.6 -9.9 --- --- 731.2 0.016 0.000 8.3 8 1
02/01/06 9:10 a -4.6 -4.6 -4.7 --- --- 7.0 NNW 0.12 7.8 -9.6 --- --- 731.1 0.016 0.000 8.3 8 1
02/01/06 9:11 a -4.7 -4.6 -4.8 --- --- 7.0 NNW 0.12 9.6 -9.7 --- --- 731.2 0.016 0.000 8.3 8 1
02/01/06 9:12 a -4.8 -4.8 -4.9 --- --- 8.7 NNW 0.14 9.6 -10.6 --- --- 731.2 0.016 0.000 8.3 8 1
02/01/06 9:13 a -5.0 -4.9 -5.1 --- --- 8.7 NNW 0.14 9.6 -10.8 --- --- 731.2 0.016 0.000 8.3 7 1
02/01/06 9:14 a -5.2 -5.1 -5.3 --- --- 7.8 NNW 0.13 9.6 -10.7 --- --- 731.2 0.016 0.000 8.3 8 1
02/01/06 9:15 a -5.2 -5.1 -5.3 --- --- 7.8 NNW 0.13 9.6 -10.7 --- --- 731.1 0.016 0.000 8.3 8 1
02/01/06 9:16 a -5.1 -5.0 -5.1 --- --- 7.8 NNW 0.13 8.7 -10.5 --- --- 731.2 0.016 0.000 8.3 8 1
02/01/06 9:17 a -5.2 -5.2 -5.3 --- --- 7.8 NNW 0.13 8.7 -10.7 --- --- 731.2 0.016 0.000 8.3 8 1
02/01/06 9:18 a -5.2 -5.2 -5.2 --- --- 8.7 NNW 0.14 9.6 -11.1 --- --- 731.2 0.016 0.000 8.3 8 1
02/01/06 9:19 a -5.0 -4.9 -5.1 --- --- 9.6 NNW 0.16 9.6 -11.1 --- --- 731.2 0.016 0.000 8.3 8 1
02/01/06 9:20 a -5.1 -4.9 -5.2 --- --- 7.8 NNW 0.13 9.6 -10.5 --- --- 731.2 0.016 0.000 8.3 8 1
02/01/06 9:21 a -5.3 -5.2 -5.3 --- --- 8.7 NNW 0.14 9.6 -11.1 --- --- 731.1 0.016 0.000 8.3 8 1
02/01/06 9:22 a -5.3 -5.3 -5.3 --- --- 8.7 NNW 0.14 9.6 -11.1 --- --- 731.2 0.016 0.000 8.3 8 1
02/01/06 9:23 a -5.2 -5.0 -5.3 --- --- 9.6 NNW 0.16 10.4 -11.3 --- --- 731.2 0.016 0.000 8.3 8 1
02/01/06 9:24 a -5.0 -4.9 -5.0 --- --- 7.8 NNW 0.13 9.6 -10.4 --- --- 731.1 0.016 0.000 8.3 8 1
02/01/06 9:25 a -5.0 -4.9 -5.2 --- --- 7.8 NNW 0.13 9.6 -10.4 --- --- 731.2 0.016 0.000 8.3 8 1
02/01/06 9:26 a -5.3 -5.2 -5.3 --- --- 7.8 NNW 0.13 9.6 -10.8 --- --- 731.2 0.016 0.000 8.3 8 1
02/01/06 9:27 a -5.3 -5.2 -5.3 --- --- 8.7 NNW 0.14 9.6 -11.1 --- --- 731.1 0.016 0.000 8.3 8 1
02/01/06 9:28 a -5.2 -5.2 -5.2 --- --- 8.7 NNW 0.14 9.6 -11.1 --- --- 731.2 0.016 0.000 8.3 8 1
02/01/06 9:29 a -5.3 -5.2 -5.3 --- --- 8.7 NNW 0.14 9.6 -11.1 --- --- 731.1 0.016 0.000 8.3 8 1
02/01/06 9:30 a -5.3 -5.2 -5.3 --- --- 8.7 NNW 0.14 10.4 -11.1 --- --- 731.1 0.016 0.000 8.3 8 1
02/01/06 9:31 a -5.3 -5.3 -5.4 --- --- 8.7 NNW 0.14 9.6 -11.2 --- --- 731.2 0.016 0.000 8.3 8 1
02/01/06 9:32 a -5.4 -5.3 -5.4 --- --- 7.8 NNW 0.13 9.6 -10.9 --- --- 731.1 0.016 0.000 8.3 8 1
02/01/06 9:33 a -5.4 -5.4 -5.4 --- --- 8.7 NNW 0.14 9.6 -11.3 --- --- 731.2 0.016 0.000 8.3 7 1
02/01/06 9:34 a -5.4 -5.4 -5.4 --- --- 8.7 NNW 0.14 9.6 -11.3 --- --- 731.1 0.016 0.000 8.3 7 1
02/01/06 9:35 a -5.4 -5.4 -5.4 --- --- 8.7 NNW 0.14 10.4 -11.3 --- --- 731.2 0.017 0.000 8.3 8 1
02/01/06 9:36 a -5.4 -5.4 -5.4 --- --- 8.7 NNW 0.14 9.6 -11.3 --- --- 731.1 0.017 0.000 8.3 8 1
02/01/06 9:37 a -5.4 -5.4 -5.4 --- --- 9.6 NNW 0.16 10.4 -11.6 --- --- 731.2 0.016 0.000 8.3 7 1
02/01/06 9:38 a -5.4 -5.4 -5.5 --- --- 8.7 NNW 0.14 10.4 -11.3 --- --- 731.2 0.017 0.000 8.3 8 1
02/01/06 9:39 a -5.5 -5.5 -5.6 --- --- 7.8 NNW 0.13 9.6 -11.1 --- --- 731.2 0.017 0.000 8.3 8 1
02/01/06 9:40 a -5.5 -5.5 -5.6 --- --- 7.8 NNW 0.13 9.6 -11.1 --- --- 731.2 0.017 0.000 8.3 8 1
02/01/06 9:41 a -5.6 -5.6 -5.6 --- --- 7.8 N 0.13 8.7 -11.1 --- --- 731.2 0.017 0.000 8.3 8 1
02/01/06 9:42 a -5.6 -5.6 -5.6 --- --- 8.7 NNW 0.14 10.4 -11.6 --- --- 731.2 0.017 0.000 8.3 8 1
02/01/06 9:43 a -5.6 -5.6 -5.7 --- --- 8.7 NNW 0.14 10.4 -11.6 --- --- 731.2 0.017 0.000 8.3 8 1
02/01/06 9:44 a -5.6 -5.6 -5.7 --- --- 8.7 NNW 0.14 9.6 -11.6 --- --- 731.2 0.017 0.000 8.3 8 1
02/01/06 9:45 a -5.7 -5.7 -5.7 --- --- 8.7 NNW 0.14 10.4 -11.7 --- --- 731.1 0.017 0.000 8.3 8 1
02/01/06 9:46 a -5.7 -5.7 -5.8 --- --- 8.7 NNW 0.14 10.4 -11.7 --- --- 731.1 0.017 0.000 8.3 8 1
02/01/06 9:47 a -5.7 -5.7 -5.8 --- --- 8.7 NNW 0.14 9.6 -11.7 --- --- 731.2 0.017 0.000 8.3 8 1
02/01/06 9:48 a -5.8 -5.8 -5.8 --- --- 8.7 NNW 0.14 10.4 -11.8 --- --- 731.2 0.017 0.000 8.3 8 1
02/01/06 9:49 a -5.8 -5.8 -5.8 --- --- 9.6 NNW 0.16 10.4 -12.1 --- --- 731.1 0.017 0.000 8.3 8 1
02/01/06 9:50 a -5.8 -5.8 -5.8 --- --- 7.8 N 0.13 9.6 -11.4 --- --- 731.1 0.017 0.000 8.3 8 1
02/01/06 9:51 a -5.8 -5.8 -5.8 --- --- 7.8 N 0.13 10.4 -11.4 --- --- 731.2 0.017 0.000 8.3 7 1
02/01/06 9:52 a -5.8 -5.8 -5.8 --- --- 7.8 N 0.13 9.6 -11.4 --- --- 731.2 0.017 0.000 8.3 8 1
02/01/06 9:53 a -5.9 -5.9 -5.9 --- --- 7.8 N 0.13 9.6 -11.6 --- --- 731.2 0.017 0.000 8.3 8 1
02/01/06 9:54 a -6.0 -5.9 -6.1 --- --- 7.8 N 0.13 9.6 -11.7 --- --- 731.2 0.017 0.000 8.3 8 1
02/01/06 9:55 a -6.0 -6.0 -6.0 --- --- 7.8 N 0.13 8.7 -11.7 --- --- 731.2 0.017 0.000 8.3 8 1
02/01/06 9:56 a -6.0 -6.0 -6.1 --- --- 8.7 NNW 0.14 9.6 -12.1 --- --- 731.1 0.017 0.000 8.3 8 1
02/01/06 9:57 a -6.0 -5.9 -6.0 --- --- 7.8 N 0.13 9.6 -11.7 --- --- 731.2 0.017 0.000 8.3 8 1
02/01/06 9:58 a -5.9 -5.9 -6.0 --- --- 8.7 NNW 0.14 11.3 -11.9 --- --- 731.2 0.017 0.000 8.3 8 1
02/01/06 9:59 a -5.8 -5.8 -5.9 --- --- 8.7 NNW 0.14 9.6 -11.8 --- --- 731.2 0.017 0.000 8.3 8 1
02/01/06 10:00 a -5.8 -5.8 -5.9 --- --- 8.7 NNW 0.14 9.6 -11.8 --- --- 731.3 0.017 0.000 8.3 7 1
02/01/06 10:01 a -5.9 -5.9 -6.0 --- --- 8.7 NNW 0.14 10.4 -11.9 --- --- 731.2 0.017 0.000 8.3 8 1
02/01/06 10:02 a -6.1 -6.0 -6.1 --- --- 8.7 NNW 0.14 9.6 -12.1 --- --- 731.3 0.017 0.000 8.3 8 1
02/01/06 10:03 a -6.2 -6.1 -6.2 --- --- 7.8 NNW 0.13 8.7 -11.9 --- --- 731.3 0.017 0.000 8.3 8 1
02/01/06 10:04 a -6.2 -6.2 -6.3 --- --- 8.7 NNW 0.14 9.6 -12.3 --- --- 731.2 0.017 0.000 8.3 8 1
02/01/06 10:05 a -6.3 -6.3 -6.3 --- --- 7.8 NNW 0.13 10.4 -12.1 --- --- 731.2 0.017 0.000 8.3 7 1
02/01/06 10:06 a -6.3 -6.3 -6.3 --- --- 7.8 NNW 0.13 9.6 -12.1 --- --- 731.2 0.017 0.000 8.3 8 1
02/01/06 10:07 a -6.3 -6.3 -6.4 --- --- 7.8 N 0.13 9.6 -12.1 --- --- 731.2 0.017 0.000 8.3 8 1
02/01/06 10:08 a -6.4 -6.4 -6.4 --- --- 8.7 NNW 0.14 10.4 -12.5 --- --- 731.3 0.017 0.000 8.3 8 1
02/01/06 10:09 a -6.4 -6.3 -6.4 --- --- 9.6 NNW 0.16 11.3 -12.8 --- --- 731.3 0.017 0.000 8.3 8 1
02/01/06 10:10 a -6.3 -6.3 -6.3 --- --- 9.6 NNW 0.16 10.4 -12.8 --- --- 731.3 0.017 0.000 8.3 8 1
02/01/06 10:11 a -6.3 -6.3 -6.4 --- --- 8.7 NNW 0.14 10.4 -12.4 --- --- 731.2 0.017 0.000 8.3 8 1
02/01/06 10:12 a -6.4 -6.4 -6.5 --- --- 8.7 NNW 0.14 9.6 -12.6 --- --- 731.2 0.017 0.000 8.3 8 1
02/01/06 10:13 a -6.5 -6.5 -6.5 --- --- 9.6 NNW 0.16 10.4 -13.0 --- --- 731.2 0.017 0.000 8.3 8 1
02/01/06 10:14 a -6.5 -6.4 -6.5 --- --- 8.7 NNW 0.14 10.4 -12.7 --- --- 731.3 0.017 0.000 8.3 8 1
02/01/06 10:15 a -6.4 -6.4 -6.5 --- --- 8.7 NNW 0.14 10.4 -12.6 --- --- 731.3 0.017 0.000 8.3 8 1
02/01/06 10:16 a -6.4 -6.4 -6.5 --- --- 8.7 NNW 0.14 10.4 -12.6 --- --- 731.3 0.017 0.000 8.3 8 1
02/01/06 10:17 a -6.5 -6.5 -6.6 --- --- 10.4 NNW 0.17 11.3 -13.3 --- --- 731.3 0.017 0.000 8.3 8 1
02/01/06 10:18 a -6.6 -6.6 -6.6 --- --- 8.7 NNW 0.14 11.3 -12.7 --- --- 731.2 0.017 0.000 8.3 8 1
02/01/06 10:19 a -6.6 -6.6 -6.6 --- --- 9.6 NNW 0.16 10.4 -13.1 --- --- 731.3 0.017 0.000 8.2 8 1
02/01/06 10:20 a -6.6 -6.6 -6.7 --- --- 9.6 NNW 0.16 11.3 -13.1 --- --- 731.3 0.017 0.000 8.3 8 1
02/01/06 10:21 a -6.7 -6.7 -6.8 --- --- 9.6 NNW 0.16 12.2 -13.3 --- --- 731.3 0.017 0.000 8.3 8 1
02/01/06 10:22 a -6.7 -6.7 -6.7 --- --- 8.7 NNW 0.14 10.4 -12.9 --- --- 731.3 0.017 0.000 8.3 8 1
02/01/06 10:23 a -6.8 -6.8 -6.8 --- --- 9.6 NNW 0.16 9.6 -13.3 --- --- 731.3 0.017 0.000 8.3 8 1
02/01/06 10:24 a -6.8 -6.8 -6.8 --- --- 8.7 NNW 0.14 10.4 -13.0 --- --- 731.3 0.017 0.000 8.3 8 1
02/01/06 10:25 a -6.8 -6.8 -6.8 --- --- 7.8 NNW 0.13 9.6 -12.6 --- --- 731.2 0.017 0.000 8.3 8 1
02/01/06 10:26 a -6.8 -6.8 -6.8 --- --- 8.7 NNW 0.14 10.4 -13.0 --- --- 731.4 0.017 0.000 8.3 8 1
02/01/06 10:27 a -6.8 -6.8 -6.8 --- --- 7.8 NNW 0.13 9.6 -12.7 --- --- 731.2 0.017 0.000 8.3 8 1
02/01/06 10:28 a -6.8 -6.8 -6.9 --- --- 7.8 NNW 0.13 8.7 -12.7 --- --- 731.2 0.017 0.000 8.3 8 1
02/01/06 10:29 a -6.9 -6.9 -6.9 --- --- 7.8 NNW 0.13 8.7 -12.8 --- --- 731.3 0.018 0.000 8.3 8 1
02/01/06 10:30 a -6.9 -6.9 -6.9 --- --- 7.0 N 0.12 9.6 -12.4 --- --- 731.2 0.018 0.000 8.4 8 1
02/01/06 10:31 a -6.9 -6.9 -6.9 --- --- 7.8 NNW 0.13 9.6 -12.8 --- --- 731.2 0.018 0.000 8.4 8 1
02/01/06 10:32 a -6.9 -6.9 -6.9 --- --- 8.7 NNW 0.14 9.6 -13.1 --- --- 731.3 0.018 0.000 8.4 8 1
02/01/06 10:33 a -6.9 -6.9 -6.9 --- --- 8.7 NNW 0.14 10.4 -13.1 --- --- 731.3 0.018 0.000 8.4 8 1
02/01/06 10:34 a -6.9 -6.9 -6.9 --- --- 9.6 NNW 0.16 12.2 -13.4 --- --- 731.3 0.018 0.000 8.4 7 1
02/01/06 10:35 a -6.8 -6.8 -6.9 --- --- 9.6 NNW 0.16 11.3 -13.4 --- --- 731.3 0.017 0.000 8.4 8 1
02/01/06 10:36 a -6.9 -6.9 -6.9 --- --- 9.6 NNW 0.16 10.4 -13.6 --- --- 731.3 0.018 0.000 8.4 8 1
02/01/06 10:37 a -6.9 -6.9 -6.9 --- --- 8.7 NNW 0.14 9.6 -13.2 --- --- 731.3 0.018 0.000 8.4 8 1
02/01/06 10:38 a -6.9 -6.9 -6.9 --- --- 8.7 NNW 0.14 9.6 -13.1 --- --- 731.2 0.018 0.000 8.4 8 1
02/01/06 10:39 a -6.9 -6.9 -6.9 --- --- 8.7 NNW 0.14 10.4 -13.2 --- --- 731.3 0.018 0.000 8.3 8 1
02/01/06 10:40 a -6.9 -6.9 -6.9 --- --- 7.8 NNW 0.13 8.7 -12.8 --- --- 731.3 0.018 0.000 8.3 8 1
02/01/06 10:41 a -6.9 -6.9 -7.0 --- --- 7.8 N 0.13 10.4 -12.8 --- --- 731.3 0.018 0.000 8.3 8 1
02/01/06 10:42 a -7.0 -6.9 -7.0 --- --- 9.6 NNW 0.16 10.4 -13.6 --- --- 731.2 0.018 0.000 8.3 7 1
02/01/06 10:43 a -7.0 -7.0 -7.0 --- --- 7.8 NNW 0.13 9.6 -12.9 --- --- 731.2 0.018 0.000 8.3 8 1
02/01/06 10:44 a -6.9 -6.9 -7.0 --- --- 7.0 N 0.12 7.0 -12.4 --- --- 731.3 0.018 0.000 8.3 8 1
02/01/06 10:45 a -6.9 -6.9 -6.9 --- --- 8.7 NNW 0.14 8.7 -13.2 --- --- 731.3 0.018 0.000 8.3 8 1
02/01/06 10:46 a -6.9 -6.9 -6.9 --- --- 8.7 NNW 0.14 10.4 -13.2 --- --- 731.3 0.018 0.000 8.3 8 1
02/01/06 10:47 a -6.9 -6.8 -6.9 --- --- 9.6 NNW 0.16 10.4 -13.4 --- --- 731.3 0.018 0.000 8.3 8 1
02/01/06 10:48 a -6.9 -6.9 -6.9 --- --- 8.7 NNW 0.14 10.4 -13.1 --- --- 731.3 0.018 0.000 8.3 8 1
02/01/06 10:49 a -6.8 -6.8 -6.9 --- --- 7.8 NNW 0.13 8.7 -12.7 --- --- 731.3 0.017 0.000 8.3 8 1
02/01/06 10:50 a -6.8 -6.8 -6.8 --- --- 7.8 NNW 0.13 10.4 -12.7 --- --- 731.3 0.017 0.000 8.3 8 1
02/01/06 10:51 a -6.8 -6.8 -6.9 --- --- 8.7 NNW 0.14 10.4 -13.1 --- --- 731.3 0.017 0.000 8.3 8 1
02/01/06 10:52 a -6.8 -6.8 -6.8 --- --- 8.7 NNW 0.14 10.4 -13.0 --- --- 731.3 0.017 0.000 8.3 8 1
02/01/06 10:53 a -6.8 -6.8 -6.9 --- --- 8.7 NNW 0.14 10.4 -13.1 --- --- 731.3 0.017 0.000 8.3 8 1
02/01/06 10:54 a -6.9 -6.9 -6.9 --- --- 9.6 NNW 0.16 11.3 -13.4 --- --- 731.2 0.018 0.000 8.3 8 1
02/01/06 10:55 a -6.8 -6.8 -6.8 --- --- 9.6 NNW 0.16 10.4 -13.4 --- --- 731.2 0.017 0.000 8.3 8 1
02/01/06 10:56 a -6.8 -6.8 -6.8 --- --- 9.6 NNW 0.16 11.3 -13.3 --- --- 731.2 0.017 0.000 8.3 8 1
02/01/06 10:57 a -6.8 -6.8 -6.8 --- --- 11.3 NNW 0.19 14.8 -13.9 --- --- 731.2 0.017 0.000 8.3 8 1
02/01/06 10:58 a -6.8 -6.7 -6.8 --- --- 13.0 NNW 0.22 15.7 -14.4 --- --- 731.3 0.017 0.000 8.3 8 1
02/01/06 10:59 a -6.8 -6.7 -6.8 --- --- 10.4 NNW 0.17 12.2 -13.7 --- --- 731.2 0.017 0.000 8.3 8 1
02/01/06 11:00 a -6.8 -6.7 -6.8 --- --- 10.4 NNW 0.17 12.2 -13.7 --- --- 731.2 0.017 0.000 8.3 8 1
02/01/06 11:01 a -6.8 -6.8 -6.8 --- --- 11.3 NNW 0.19 12.2 -13.9 --- --- 731.2 0.017 0.000 8.3 7 1
02/01/06 11:02 a -6.8 -6.8 -6.9 --- --- 8.7 NNW 0.14 10.4 -13.1 --- --- 731.2 0.017 0.000 8.3 8 1
02/01/06 11:03 a -6.9 -6.9 -6.9 --- --- 9.6 NNW 0.16 11.3 -13.4 --- --- 731.2 0.018 0.000 8.3 8 1
02/01/06 11:04 a -6.9 -6.9 -6.9 --- --- 10.4 NNW 0.17 12.2 -13.8 --- --- 731.2 0.018 0.000 8.3 8 1
02/01/06 11:05 a -6.9 -6.9 -6.9 --- --- 10.4 NNW 0.17 12.2 -13.8 --- --- 731.2 0.018 0.000 8.3 8 1
02/01/06 11:06 a -6.9 -6.9 -6.9 --- --- 10.4 NNW 0.17 12.2 -13.8 --- --- 731.2 0.018 0.000 8.3 8 1
02/01/06 11:07 a -6.9 -6.9 -6.9 --- --- 11.3 NNW 0.19 12.2 -14.1 --- --- 731.2 0.018 0.000 8.2 8 1
02/01/06 11:08 a -6.9 -6.9 -6.9 --- --- 10.4 NNW 0.17 13.0 -13.8 --- --- 731.3 0.018 0.000 8.2 8 1
02/01/06 11:09 a -6.9 -6.9 -7.0 --- --- 8.7 NNW 0.14 9.6 -13.2 --- --- 731.2 0.018 0.000 8.3 8 1
02/01/06 11:10 a -7.1 -7.0 -7.1 --- --- 10.4 NNW 0.17 11.3 -14.0 --- --- 731.2 0.018 0.000 8.2 8 1
02/01/06 11:11 a -7.1 -7.1 -7.1 --- --- 10.4 NNW 0.17 12.2 -14.1 --- --- 731.2 0.018 0.000 8.3 8 1
02/01/06 11:12 a -7.1 -7.1 -7.1 --- --- 9.6 NNW 0.16 11.3 -13.7 --- --- 731.2 0.018 0.000 8.2 8 1
02/01/06 11:13 a -7.1 -7.1 -7.1 --- --- 10.4 NNW 0.17 12.2 -14.1 --- --- 731.2 0.018 0.000 8.3 8 1
02/01/06 11:14 a -7.1 -7.1 -7.1 --- --- 10.4 NNW 0.17 10.4 -14.1 --- --- 731.2 0.018 0.000 8.3 8 1
02/01/06 11:15 a -7.1 -7.1 -7.1 --- --- 9.6 NNW 0.16 10.4 -13.7 --- --- 731.3 0.018 0.000 8.3 8 1
02/01/06 11:16 a -7.2 -7.1 -7.2 --- --- 9.6 NNW 0.16 11.3 -13.8 --- --- 731.2 0.018 0.000 8.3 8 1
02/01/06 11:17 a -7.1 -7.1 -7.2 --- --- 7.8 NNW 0.13 9.6 -13.1 --- --- 731.2 0.018 0.000 8.3 8 1
02/01/06 11:18 a -7.2 -7.1 -7.2 --- --- 9.6 NNW 0.16 12.2 -13.8 --- --- 731.2 0.018 0.000 8.3 8 1
02/01/06 11:19 a -7.2 -7.2 -7.2 --- --- 11.3 NNW 0.19 13.0 -14.4 --- --- 731.2 0.018 0.000 8.3 8 1
02/01/06 11:20 a -7.2 -7.2 -7.2 --- --- 9.6 NNW 0.16 11.3 -13.8 --- --- 731.3 0.018 0.000 8.2 8 1
02/01/06 11:21 a -7.2 -7.2 -7.2 --- --- 9.6 NNW 0.16 10.4 -13.9 --- --- 731.3 0.018 0.000 8.2 8 1
02/01/06 11:22 a -7.2 -7.2 -7.3 --- --- 9.6 NNW 0.16 10.4 -13.9 --- --- 731.1 0.018 0.000 8.2 8 1
02/01/06 11:23 a -7.2 -7.2 -7.2 --- --- 10.4 NNW 0.17 11.3 -14.2 --- --- 731.3 0.018 0.000 8.2 8 1
02/01/06 11:24 a -7.2 -7.2 -7.3 --- --- 9.6 NNW 0.16 11.3 -13.9 --- --- 731.3 0.018 0.000 8.2 8 1
02/01/06 11:25 a -7.3 -7.3 -7.4 --- --- 9.6 NNW 0.16 10.4 -14.0 --- --- 731.2 0.018 0.000 8.2 8 1
02/01/06 11:26 a -7.4 -7.4 -7.4 --- --- 8.7 NNW 0.14 10.4 -13.8 --- --- 731.2 0.018 0.000 8.2 8 1
02/01/06 11:27 a -7.4 -7.3 -7.4 --- --- 9.6 NNW 0.16 10.4 -14.1 --- --- 731.3 0.018 0.000 8.2 8 1
02/01/06 11:28 a -7.4 -7.3 -7.4 --- --- 8.7 NNW 0.14 9.6 -13.8 --- --- 731.3 0.018 0.000 8.2 8 1
02/01/06 11:29 a -7.4 -7.4 -7.5 --- --- 9.6 NNW 0.16 10.4 -14.2 --- --- 731.2 0.018 0.000 8.2 8 1
02/01/06 11:30 a -7.5 -7.4 -7.5 --- --- 9.6 NNW 0.16 11.3 -14.2 --- --- 731.3 0.018 0.000 8.2 8 1
02/01/06 11:31 a -7.4 -7.4 -7.5 --- --- 9.6 NNW 0.16 10.4 -14.2 --- --- 731.2 0.018 0.000 8.2 8 1
02/01/06 11:32 a -7.4 -7.4 -7.4 --- --- 10.4 NNW 0.17 11.3 -14.5 --- --- 731.3 0.018 0.000 8.2 8 1
02/01/06 11:33 a -7.4 -7.4 -7.4 --- --- 9.6 NNW 0.16 11.3 -14.2 --- --- 731.3 0.018 0.000 8.2 8 1
02/01/06 11:34 a -7.4 -7.4 -7.4 --- --- 9.6 NNW 0.16 11.3 -14.1 --- --- 731.3 0.018 0.000 8.2 8 1
02/01/06 11:35 a -7.4 -7.4 -7.4 --- --- 9.6 NNW 0.16 10.4 -14.2 --- --- 731.3 0.018 0.000 8.2 8 1
02/01/06 11:36 a -7.4 -7.4 -7.5 --- --- 9.6 NNW 0.16 10.4 -14.2 --- --- 731.2 0.018 0.000 8.2 8 1
02/01/06 11:37 a -7.6 -7.5 -7.6 --- --- 10.4 NNW 0.17 12.2 -14.6 --- --- 731.3 0.018 0.000 8.2 8 1
02/01/06 11:38 a -7.6 -7.6 -7.6 --- --- 10.4 NNW 0.17 11.3 -14.6 --- --- 731.2 0.018 0.000 8.2 8 1
02/01/06 11:39 a -7.6 -7.6 -7.6 --- --- 9.6 NNW 0.16 10.4 -14.3 --- --- 731.2 0.018 0.000 8.2 8 1
02/01/06 11:40 a -7.6 -7.5 -7.6 --- --- 9.6 NNW 0.16 11.3 -14.3 --- --- 731.2 0.018 0.000 8.2 8 1
02/01/06 11:41 a -7.5 -7.5 -7.6 --- --- 9.6 NNW 0.16 11.3 -14.2 --- --- 731.2 0.018 0.000 8.2 8 1
02/01/06 11:42 a -7.6 -7.6 -7.6 --- --- 10.4 NNW 0.17 12.2 -14.6 --- --- 731.3 0.018 0.000 8.2 8 1
02/01/06 11:43 a -7.6 -7.5 -7.6 --- --- 9.6 NNW 0.16 11.3 -14.3 --- --- 731.2 0.018 0.000 8.2 8 1
02/01/06 11:44 a -7.5 -7.5 -7.6 --- --- 9.6 NNW 0.16 11.3 -14.2 --- --- 731.3 0.018 0.000 8.2 8 1
02/01/06 11:45 a -7.5 -7.5 -7.6 --- --- 10.4 NNW 0.17 12.2 -14.6 --- --- 731.2 0.018 0.000 8.2 8 1
02/01/06 11:46 a -7.5 -7.5 -7.6 --- --- 10.4 NNW 0.17 13.0 -14.6 --- --- 731.2 0.018 0.000 8.2 8 1
02/01/06 11:47 a -7.6 -7.6 -7.6 --- --- 9.6 NNW 0.16 12.2 -14.3 --- --- 731.2 0.018 0.000 8.2 8 1
02/01/06 11:48 a -7.6 -7.6 -7.7 --- --- 8.7 NNW 0.14 9.6 -14.1 --- --- 731.2 0.018 0.000 8.2 8 1
02/01/06 11:49 a -7.7 -7.7 -7.7 --- --- 8.7 NNW 0.14 9.6 -14.1 --- --- 731.2 0.018 0.000 8.2 8 1
02/01/06 11:50 a -7.6 -7.6 -7.7 --- --- 8.7 NNW 0.14 10.4 -14.1 --- --- 731.2 0.018 0.000 8.2 8 1
02/01/06 11:51 a -7.7 -7.7 -7.7 --- --- 7.8 NNW 0.13 9.6 -13.7 --- --- 731.2 0.018 0.000 8.2 8 1
02/01/06 11:52 a -7.7 -7.7 -7.7 --- --- 8.7 NNW 0.14 9.6 -14.1 --- --- 731.2 0.018 0.000 8.2 8 1
02/01/06 11:53 a -7.7 -7.7 -7.8 --- --- 8.7 NNW 0.14 11.3 -14.2 --- --- 731.2 0.018 0.000 8.2 8 1
02/01/06 11:54 a -7.8 -7.8 -7.8 --- --- 9.6 NNW 0.16 10.4 -14.6 --- --- 731.2 0.018 0.000 8.2 8 1
02/01/06 11:55 a -7.8 -7.7 -7.8 --- --- 9.6 NNW 0.16 12.2 -14.6 --- --- 731.2 0.018 0.000 8.2 8 1
02/01/06 11:56 a -7.7 -7.7 -7.8 --- --- 9.6 NNW 0.16 10.4 -14.5 --- --- 731.2 0.018 0.000 8.2 8 1
02/01/06 11:57 a -7.7 -7.7 -7.8 --- --- 9.6 NNW 0.16 10.4 -14.5 --- --- 731.3 0.018 0.000 8.2 8 1
02/01/06 11:58 a -7.7 -7.7 -7.7 --- --- 9.6 NNW 0.16 11.3 -14.5 --- --- 731.3 0.018 0.000 8.2 8 1
02/01/06 11:59 a -7.7 -7.7 -7.7 --- --- 9.6 NNW 0.16 10.4 -14.5 --- --- 731.2 0.018 0.000 8.2 8 1
02/01/06 12:00 p -7.8 -7.7 -7.8 --- --- 8.7 NNW 0.14 10.4 -14.2 --- --- 731.2 0.018 0.000 8.2 8 1
02/01/06 12:02 p -7.8 -7.8 -7.8 --- --- 9.6 NNW 0.16 11.3 -14.6 --- --- 731.2 0.018 0.000 8.2 8 1
02/01/06 12:03 p -7.8 -7.7 -7.8 --- --- 8.7 NNW 0.14 9.6 -14.2 --- --- 731.2 0.018 0.000 8.2 8 1
02/01/06 12:04 p -7.7 -7.7 -7.8 --- --- 9.6 NNW 0.16 10.4 -14.5 --- --- 731.1 0.018 0.000 8.2 8 1
02/01/06 12:05 p -7.7 -7.7 -7.8 --- --- 9.6 NNW 0.16 10.4 -14.5 --- --- 731.1 0.018 0.000 8.2 8 1
02/01/06 12:06 p -7.7 -7.7 -7.7 --- --- 8.7 NNW 0.14 9.6 -14.2 --- --- 731.2 0.018 0.000 8.3 8 1
02/01/06 12:07 p -7.8 -7.7 -7.8 --- --- 9.6 NNW 0.16 11.3 -14.6 --- --- 731.2 0.018 0.000 8.3 8 1
02/01/06 12:08 p -7.8 -7.8 -7.8 --- --- 9.6 NNW 0.16 10.4 -14.7 --- --- 731.2 0.018 0.000 8.3 8 1
02/01/06 12:09 p -7.8 -7.8 -7.8 --- --- 9.6 NNW 0.16 13.0 -14.6 --- --- 731.2 0.018 0.000 8.3 8 1
02/01/06 12:10 p -7.8 -7.8 -7.8 --- --- 8.7 NNW 0.14 9.6 -14.2 --- --- 731.2 0.018 0.000 8.3 8 1
02/01/06 12:11 p -7.8 -7.8 -7.8 --- --- 9.6 NNW 0.16 10.4 -14.6 --- --- 731.2 0.018 0.000 8.3 8 1
02/01/06 12:12 p -7.8 -7.8 -7.8 --- --- 8.7 NNW 0.14 10.4 -14.2 --- --- 731.1 0.018 0.000 8.3 8 1
02/01/06 12:13 p -7.8 -7.8 -7.9 --- --- 8.7 NNW 0.14 10.4 -14.3 --- --- 731.1 0.018 0.000 8.3 8 1
02/01/06 12:14 p -7.9 -7.8 -7.9 --- --- 9.6 NNW 0.16 11.3 -14.7 --- --- 731.1 0.018 0.000 8.3 8 1
02/01/06 12:15 p -7.8 -7.8 -7.8 --- --- 8.7 NNW 0.14 10.4 -14.3 --- --- 731.1 0.018 0.000 8.3 8 1
02/01/06 12:16 p -7.8 -7.8 -7.9 --- --- 8.7 NNW 0.14 10.4 -14.3 --- --- 731.2 0.018 0.000 8.3 8 1
02/01/06 12:17 p -7.9 -7.9 -7.9 --- --- 8.7 NNW 0.14 9.6 -14.4 --- --- 731.2 0.018 0.000 8.3 8 1
02/01/06 12:18 p -7.9 -7.9 -7.9 --- --- 8.7 NNW 0.14 9.6 -14.4 --- --- 731.2 0.018 0.000 8.3 8 1
02/01/06 12:19 p -7.9 -7.9 -7.9 --- --- 8.7 NNW 0.14 11.3 -14.4 --- --- 731.2 0.018 0.000 8.3 8 1
02/01/06 12:20 p -7.9 -7.9 -7.9 --- --- 8.7 NNW 0.14 9.6 -14.4 --- --- 731.1 0.018 0.000 8.3 8 1
02/01/06 12:21 p -7.9 -7.9 -7.9 --- --- 8.7 NNW 0.14 10.4 -14.4 --- --- 731.1 0.018 0.000 8.2 8 1
02/01/06 12:22 p -7.9 -7.9 -7.9 --- --- 8.7 NNW 0.14 9.6 -14.4 --- --- 731.1 0.018 0.000 8.2 8 1
02/01/06 12:23 p -7.9 -7.9 -7.9 --- --- 8.7 NNW 0.14 10.4 -14.4 --- --- 731.2 0.018 0.000 8.2 8 1
02/01/06 12:24 p -7.9 -7.9 -7.9 --- --- 9.6 NNW 0.16 10.4 -14.7 --- --- 731.1 0.018 0.000 8.2 8 1
02/01/06 12:25 p -7.9 -7.9 -7.9 --- --- 8.7 NNW 0.14 9.6 -14.4 --- --- 731.1 0.018 0.000 8.2 8 1
02/01/06 12:26 p -7.9 -7.9 -8.0 --- --- 8.7 NNW 0.14 10.4 -14.4 --- --- 731.2 0.018 0.000 8.2 8 1
02/01/06 12:27 p -7.9 -7.9 -7.9 --- --- 8.7 NNW 0.14 10.4 -14.4 --- --- 731.1 0.018 0.000 8.2 8 1
02/01/06 12:28 p -7.9 -7.9 -8.0 --- --- 8.7 NNW 0.14 10.4 -14.4 --- --- 731.1 0.018 0.000 8.2 8 1
02/01/06 12:29 p -7.9 -7.9 -8.0 --- --- 7.8 NNW 0.13 9.6 -14.1 --- --- 731.1 0.018 0.000 8.2 8 1
02/01/06 12:30 p -7.9 -7.9 -7.9 --- --- 9.6 NNW 0.16 10.4 -14.8 --- --- 731.1 0.018 0.000 8.2 8 1
02/01/06 12:31 p -7.9 -7.9 -8.0 --- --- 8.7 NNW 0.14 10.4 -14.4 --- --- 731.2 0.018 0.000 8.2 8 1
02/01/06 12:32 p -7.9 -7.9 -8.0 --- --- 9.6 NNW 0.16 11.3 -14.8 --- --- 731.1 0.018 0.000 8.2 8 1
02/01/06 12:33 p -7.9 -7.8 -7.9 --- --- 9.6 NNW 0.16 10.4 -14.7 --- --- 731.2 0.018 0.000 8.2 8 1
02/01/06 12:34 p -7.9 -7.9 -7.9 --- --- 8.7 NNW 0.14 10.4 -14.4 --- --- 731.2 0.018 0.000 8.2 8 1
02/01/06 12:35 p -7.9 -7.9 -8.0 --- --- 7.8 NNW 0.13 9.6 -14.1 --- --- 731.2 0.018 0.000 8.2 8 1
02/01/06 12:36 p -8.0 -8.0 -8.0 --- --- 9.6 NNW 0.16 10.4 -14.8 --- --- 731.1 0.018 0.000 8.2 8 1
02/01/06 12:37 p -8.0 -7.9 -8.0 --- --- 8.7 NNW 0.14 9.6 -14.5 --- --- 731.2 0.018 0.000 8.2 8 1
02/01/06 12:38 p -8.0 -8.0 -8.0 --- --- 7.8 NNW 0.13 9.6 -14.1 --- --- 731.1 0.018 0.000 8.2 8 1
02/01/06 12:39 p -8.0 -7.9 -8.1 --- --- 7.8 NNW 0.13 10.4 -14.1 --- --- 731.2 0.018 0.000 8.2 8 1
02/01/06 12:40 p -8.0 -7.9 -8.0 --- --- 7.8 NNW 0.13 8.7 -14.1 --- --- 731.1 0.018 0.000 8.2 8 1
02/01/06 12:41 p -8.0 -8.0 -8.1 --- --- 7.8 NNW 0.13 9.6 -14.1 --- --- 731.1 0.018 0.000 8.2 8 1
02/01/06 12:42 p -8.1 -8.0 -8.1 --- --- 7.8 NNW 0.13 9.6 -14.2 --- --- 731.1 0.018 0.000 8.2 8 1
02/01/06 12:43 p -8.1 -8.1 -8.1 --- --- 7.0 NNW 0.12 8.7 -13.8 --- --- 731.1 0.018 0.000 8.2 8 1
02/01/06 12:44 p -8.2 -8.1 -8.2 --- --- 7.8 NNW 0.13 8.7 -14.3 --- --- 731.2 0.018 0.000 8.2 8 1
02/01/06 12:45 p -8.1 -8.1 -8.1 --- --- 7.8 NNW 0.13 8.7 -14.3 --- --- 731.1 0.018 0.000 8.2 8 1
02/01/06 12:46 p -8.1 -8.1 -8.1 --- --- 7.8 NNW 0.13 9.6 -14.3 --- --- 731.2 0.018 0.000 8.2 8 1
02/01/06 12:47 p -8.1 -8.1 -8.1 --- --- 7.8 NNW 0.13 9.6 -14.3 --- --- 731.1 0.018 0.000 8.2 8 1
02/01/06 12:48 p -8.1 -8.1 -8.2 --- --- 7.8 NNW 0.13 8.7 -14.3 --- --- 731.1 0.018 0.000 8.2 8 1
02/01/06 12:49 p -8.1 -8.1 -8.1 --- --- 7.8 NNW 0.13 11.3 -14.3 --- --- 731.1 0.018 0.000 8.2 8 1
02/01/06 12:50 p -8.1 -8.1 -8.1 --- --- 7.8 NNW 0.13 8.7 -14.3 --- --- 731.2 0.018 0.000 8.2 8 1
02/01/06 12:51 p -8.2 -8.1 -8.2 --- --- 7.8 NNW 0.13 9.6 -14.3 --- --- 731.2 0.018 0.000 8.2 8 1
02/01/06 12:52 p -8.2 -8.1 -8.2 --- --- 8.7 NNW 0.14 10.4 -14.7 --- --- 731.1 0.018 0.000 8.2 8 1
02/01/06 12:53 p -8.1 -8.1 -8.1 --- --- 8.7 NNW 0.14 9.6 -14.7 --- --- 731.1 0.018 0.000 8.2 8 1
02/01/06 12:54 p -8.1 -8.1 -8.1 --- --- 8.7 NNW 0.14 9.6 -14.7 --- --- 731.1 0.018 0.000 8.2 8 1
02/01/06 12:55 p -8.1 -8.1 -8.2 --- --- 8.7 NNW 0.14 9.6 -14.7 --- --- 731.1 0.018 0.000 8.2 8 1
02/01/06 12:56 p -8.2 -8.1 -8.2 --- --- 8.7 NNW 0.14 11.3 -14.7 --- --- 731.2 0.018 0.000 8.2 8 1
02/01/06 12:57 p -8.1 -8.1 -8.2 --- --- 8.7 NNW 0.14 9.6 -14.7 --- --- 731.1 0.018 0.000 8.2 8 1
02/01/06 12:58 p -8.2 -8.1 -8.2 --- --- 7.8 NNW 0.13 8.7 -14.3 --- --- 731.2 0.018 0.000 8.2 8 1
02/01/06 12:59 p -8.2 -8.2 -8.2 --- --- 8.7 NNW 0.14 9.6 -14.7 --- --- 731.0 0.018 0.000 8.2 8 1
02/01/06 1:00 p -8.2 -8.2 -8.2 --- --- 8.7 NNW 0.14 9.6 -14.7 --- --- 731.1 0.018 0.000 8.2 8 1
02/01/06 1:02 p -8.2 -8.2 -8.2 --- --- 7.8 NNW 0.13 9.6 -14.3 --- --- 731.1 0.018 0.000 8.1 8 1
02/01/06 1:03 p -8.2 -8.2 -8.3 --- --- 8.7 NNW 0.14 9.6 -14.8 --- --- 731.0 0.018 0.000 8.1 8 1
02/01/06 1:04 p -8.2 -8.2 -8.3 --- --- 9.6 NNW 0.16 10.4 -15.1 --- --- 731.1 0.018 0.000 8.1 8 1
02/01/06 1:05 p -8.2 -8.2 -8.3 --- --- 8.7 NNW 0.14 10.4 -14.8 --- --- 731.1 0.018 0.000 8.1 8 1
02/01/06 1:06 p -8.2 -8.2 -8.2 --- --- 8.7 NNW 0.14 9.6 -14.8 --- --- 731.0 0.018 0.000 8.1 8 1
02/01/06 1:07 p -8.2 -8.2 -8.3 --- --- 9.6 NNW 0.16 10.4 -15.1 --- --- 731.1 0.018 0.000 8.1 8 1
02/01/06 1:08 p -8.2 -8.1 -8.2 --- --- 8.7 NNW 0.14 10.4 -14.7 --- --- 731.1 0.018 0.000 8.1 8 1
02/01/06 1:09 p -8.2 -8.2 -8.2 --- --- 8.7 NNW 0.14 10.4 -14.7 --- --- 731.2 0.018 0.000 8.1 8 1
02/01/06 1:10 p -8.2 -8.1 -8.2 --- --- 9.6 NNW 0.16 11.3 -15.1 --- --- 731.0 0.018 0.000 8.1 8 1
02/01/06 1:11 p -8.1 -8.1 -8.2 --- --- 8.7 NNW 0.14 10.4 -14.7 --- --- 731.1 0.018 0.000 8.1 8 1
02/01/06 1:12 p -8.2 -8.1 -8.2 --- --- 7.8 NNW 0.13 8.7 -14.3 --- --- 731.1 0.018 0.000 8.1 8 1
02/01/06 1:13 p -8.2 -8.2 -8.3 --- --- 7.8 NNW 0.13 8.7 -14.4 --- --- 731.0 0.018 0.000 8.1 8 1
02/01/06 1:14 p -8.3 -8.2 -8.3 --- --- 7.8 NNW 0.13 8.7 -14.5 --- --- 731.1 0.018 0.000 8.1 8 1
02/01/06 1:15 p -8.2 -8.2 -8.2 --- --- 7.8 NNW 0.13 8.7 -14.4 --- --- 731.1 0.018 0.000 8.1 8 1
02/01/06 1:16 p -8.2 -8.2 -8.3 --- --- 8.7 NNW 0.14 10.4 -14.8 --- --- 731.0 0.018 0.000 8.1 8 1
02/01/06 1:17 p -8.2 -8.2 -8.3 --- --- 7.8 NNW 0.13 8.7 -14.4 --- --- 731.0 0.018 0.000 8.1 8 1
02/01/06 1:18 p -8.3 -8.3 -8.3 --- --- 8.7 NNW 0.14 9.6 -14.8 --- --- 731.1 0.018 0.000 8.1 8 1
02/01/06 1:19 p -8.3 -8.3 -8.3 --- --- 8.7 NNW 0.14 9.6 -14.8 --- --- 731.1 0.018 0.000 8.1 8 1
02/01/06 1:20 p -8.3 -8.3 -8.3 --- --- 8.7 NNW 0.14 9.6 -14.9 --- --- 731.1 0.019 0.000 8.1 8 1
02/01/06 1:21 p -8.3 -8.2 -8.3 --- --- 8.7 NNW 0.14 9.6 -14.8 --- --- 731.1 0.018 0.000 8.1 8 1
02/01/06 1:22 p -8.2 -8.2 -8.2 --- --- 7.8 NNW 0.13 9.6 -14.4 --- --- 731.1 0.018 0.000 8.2 8 1
02/01/06 1:23 p -8.2 -8.2 -8.2 --- --- 8.7 NNW 0.14 9.6 -14.8 --- --- 731.1 0.018 0.000 8.2 8 1
02/01/06 1:24 p -8.3 -8.3 -8.3 --- --- 8.7 NNW 0.14 9.6 -14.8 --- --- 731.1 0.018 0.000 8.2 8 1
02/01/06 1:25 p -8.2 -8.2 -8.3 --- --- 8.7 NNW 0.14 10.4 -14.8 --- --- 731.0 0.018 0.000 8.2 8 1
02/01/06 1:26 p -8.2 -8.2 -8.2 --- --- 8.7 NNW 0.14 10.4 -14.7 --- --- 731.1 0.018 0.000 8.3 8 1
02/01/06 1:27 p -8.2 -8.2 -8.3 --- --- 8.7 NNW 0.14 12.2 -14.8 --- --- 731.0 0.018 0.000 8.3 8 1
02/01/06 1:28 p -8.3 -8.3 -8.3 --- --- 8.7 NNW 0.14 10.4 -14.8 --- --- 731.0 0.018 0.000 8.3 8 1
02/01/06 1:29 p -8.3 -8.3 -8.3 --- --- 8.7 NNW 0.14 9.6 -14.8 --- --- 731.0 0.018 0.000 8.3 8 1
02/01/06 1:30 p -8.3 -8.3 -8.3 --- --- 8.7 NNW 0.14 10.4 -14.8 --- --- 731.1 0.018 0.000 8.3 8 1
02/01/06 1:31 p -8.3 -8.3 -8.4 --- --- 8.7 NNW 0.14 10.4 -14.9 --- --- 731.0 0.019 0.000 8.3 8 1
02/01/06 1:32 p -8.3 -8.3 -8.3 --- --- 8.7 NNW 0.14 9.6 -14.9 --- --- 731.0 0.019 0.000 8.3 8 1
02/01/06 1:33 p -8.3 -8.3 -8.3 --- --- 9.6 NNW 0.16 10.4 -15.2 --- --- 731.0 0.018 0.000 8.3 8 1
02/01/06 1:34 p -8.2 -8.2 -8.3 --- --- 8.7 NNW 0.14 10.4 -14.8 --- --- 731.0 0.018 0.000 8.3 8 1
02/01/06 1:35 p -8.2 -8.2 -8.2 --- --- 7.8 NNW 0.13 8.7 -14.3 --- --- 731.1 0.018 0.000 8.3 8 1
02/01/06 1:36 p -8.2 -8.2 -8.2 --- --- 7.0 NNW 0.12 7.8 -13.9 --- --- 731.0 0.018 0.000 8.3 8 1
02/01/06 1:37 p -8.3 -8.2 -8.3 --- --- 8.7 NNW 0.14 10.4 -14.8 --- --- 731.0 0.018 0.000 8.3 8 1
02/01/06 1:38 p -8.3 -8.3 -8.3 --- --- 8.7 NNW 0.14 9.6 -14.9 --- --- 731.1 0.019 0.000 8.3 8 1
02/01/06 1:39 p -8.3 -8.3 -8.4 --- --- 8.7 NNW 0.14 9.6 -14.9 --- --- 731.0 0.019 0.000 8.3 8 1
02/01/06 1:40 p -8.3 -8.3 -8.3 --- --- 8.7 NNW 0.14 9.6 -14.8 --- --- 731.0 0.018 0.000 8.3 8 1
02/01/06 1:41 p -8.3 -8.3 -8.4 --- --- 7.8 NNW 0.13 9.6 -14.6 --- --- 731.1 0.019 0.000 8.3 8 1
02/01/06 1:42 p -8.3 -8.3 -8.4 --- --- 8.7 NNW 0.14 10.4 -14.9 --- --- 731.0 0.019 0.000 8.3 8 1
02/01/06 1:43 p -8.3 -8.3 -8.3 --- --- 8.7 NNW 0.14 10.4 -14.9 --- --- 731.0 0.019 0.000 8.3 8 1
02/01/06 1:44 p -8.3 -8.3 -8.3 --- --- 8.7 NNW 0.14 10.4 -14.9 --- --- 731.1 0.019 0.000 8.3 8 1
02/01/06 1:45 p -8.3 -8.3 -8.3 --- --- 8.7 NNW 0.14 9.6 -14.9 --- --- 731.0 0.019 0.000 8.3 8 1
02/01/06 1:46 p -8.3 -8.3 -8.3 --- --- 7.0 NNW 0.12 9.6 -14.1 --- --- 731.1 0.018 0.000 8.3 8 1
02/01/06 1:47 p -8.3 -8.3 -8.3 --- --- 7.0 NNW 0.12 8.7 -14.1 --- --- 731.0 0.018 0.000 8.3 8 1
02/01/06 1:48 p -8.3 -8.3 -8.4 --- --- 7.0 NNW 0.12 8.7 -14.1 --- --- 731.0 0.019 0.000 8.3 8 1
02/01/06 1:49 p -8.3 -8.3 -8.4 --- --- 7.8 NNW 0.13 8.7 -14.6 --- --- 731.0 0.019 0.000 8.3 8 1
02/01/06 1:50 p -8.3 -8.3 -8.3 --- --- 7.8 NNW 0.13 8.7 -14.6 --- --- 731.0 0.019 0.000 8.4 8 1
02/01/06 1:51 p -8.3 -8.3 -8.3 --- --- 7.0 NNW 0.12 8.7 -14.1 --- --- 731.0 0.019 0.000 8.4 8 1
02/01/06 1:52 p -8.4 -8.3 -8.4 --- --- 7.0 NNW 0.12 8.7 -14.2 --- --- 731.0 0.019 0.000 8.4 8 1
02/01/06 1:53 p -8.4 -8.4 -8.4 --- --- 7.0 NNW 0.12 8.7 -14.2 --- --- 731.0 0.019 0.000 8.4 8 1
02/01/06 1:54 p -8.4 -8.3 -8.4 --- --- 7.0 NNW 0.12 8.7 -14.2 --- --- 731.0 0.019 0.000 8.4 8 1
02/01/06 1:55 p -8.3 -8.3 -8.4 --- --- 7.0 NNW 0.12 8.7 -14.1 --- --- 731.1 0.019 0.000 8.4 8 1
02/01/06 1:56 p -8.4 -8.3 -8.4 --- --- 7.8 NNW 0.13 9.6 -14.6 --- --- 731.1 0.019 0.000 8.4 8 1
02/01/06 1:57 p -8.3 -8.3 -8.3 --- --- 8.7 NNW 0.14 9.6 -14.9 --- --- 731.1 0.019 0.000 8.3 8 1
02/01/06 1:58 p -8.3 -8.3 -8.3 --- --- 7.8 NNW 0.13 8.7 -14.5 --- --- 731.1 0.018 0.000 8.3 8 1
02/01/06 1:59 p -8.3 -8.3 -8.3 --- --- 7.8 NNW 0.13 10.4 -14.5 --- --- 731.1 0.018 0.000 8.3 8 1
02/01/06 2:00 p -8.3 -8.3 -8.3 --- --- 8.7 NNW 0.14 10.4 -14.8 --- --- 731.1 0.018 0.000 8.3 8 1
02/01/06 2:02 p -8.3 -8.3 -8.4 --- --- 7.0 NNW 0.12 8.7 -14.1 --- --- 731.1 0.019 0.000 8.3 8 1
02/01/06 2:03 p -8.4 -8.3 -8.4 --- --- 7.0 NNW 0.12 8.7 -14.2 --- --- 731.0 0.019 0.000 8.3 8 1
02/01/06 2:04 p -8.4 -8.3 -8.4 --- --- 9.6 NNW 0.16 11.3 -15.3 --- --- 731.0 0.019 0.000 8.3 8 1
02/01/06 2:05 p -8.3 -8.3 -8.4 --- --- 8.7 NNW 0.14 10.4 -14.9 --- --- 731.0 0.019 0.000 8.3 8 1
02/01/06 2:06 p -8.3 -8.3 -8.3 --- --- 7.8 NNW 0.13 9.6 -14.6 --- --- 731.1 0.019 0.000 8.3 8 1
02/01/06 2:07 p -8.3 -8.3 -8.3 --- --- 7.8 NNW 0.13 11.3 -14.6 --- --- 731.1 0.019 0.000 8.3 8 1
02/01/06 2:08 p -8.4 -8.3 -8.4 --- --- 8.7 NNW 0.14 10.4 -15.0 --- --- 731.0 0.019 0.000 8.3 8 1
02/01/06 2:09 p -8.4 -8.3 -8.4 --- --- 7.0 NNW 0.12 8.7 -14.2 --- --- 731.0 0.019 0.000 8.3 8 1
02/01/06 2:10 p -8.3 -8.3 -8.4 --- --- 7.8 NNW 0.13 8.7 -14.6 --- --- 731.1 0.019 0.000 8.3 8 1
02/01/06 2:11 p -8.3 -8.3 -8.4 --- --- 7.8 NNW 0.13 10.4 -14.6 --- --- 731.0 0.019 0.000 8.3 8 1
02/01/06 2:12 p -8.4 -8.3 -8.4 --- --- 8.7 NNW 0.14 10.4 -15.0 --- --- 731.1 0.019 0.000 8.3 8 1
02/01/06 2:13 p -8.3 -8.3 -8.4 --- --- 8.7 NNW 0.14 10.4 -14.9 --- --- 731.1 0.019 0.000 8.3 8 1
02/01/06 2:14 p -8.3 -8.3 -8.4 --- --- 9.6 NNW 0.16 11.3 -15.3 --- --- 731.1 0.019 0.000 8.3 8 1
02/01/06 2:15 p -8.3 -8.3 -8.3 --- --- 9.6 NW 0.16 13.0 -15.2 --- --- 731.1 0.018 0.000 8.3 8 1
02/01/06 2:16 p -8.2 -8.2 -8.3 --- --- 8.7 NNW 0.14 9.6 -14.8 --- --- 731.1 0.018 0.000 8.3 8 1
02/01/06 2:17 p -8.3 -8.3 -8.3 --- --- 7.0 NNW 0.12 7.8 -14.1 --- --- 731.1 0.018 0.000 8.3 8 1
02/01/06 2:18 p -8.3 -8.3 -8.3 --- --- 10.4 NNW 0.17 11.3 -15.6 --- --- 731.1 0.018 0.000 8.3 8 1
02/01/06 2:19 p -8.3 -8.2 -8.3 --- --- 9.6 NW 0.16 12.2 -15.2 --- --- 731.1 0.018 0.000 8.3 8 1
02/01/06 2:20 p -8.3 -8.2 -8.3 --- --- 7.0 NW 0.12 7.8 -14.1 --- --- 731.1 0.018 0.000 8.2 8 1
02/01/06 2:21 p -8.3 -8.3 -8.3 --- --- 7.0 NNW 0.12 8.7 -14.1 --- --- 731.1 0.019 0.000 8.2 8 1
02/01/06 2:22 p -8.3 -8.3 -8.3 --- --- 7.8 NNW 0.13 9.6 -14.5 --- --- 731.1 0.018 0.000 8.3 8 1
02/01/06 2:23 p -8.3 -8.3 -8.3 --- --- 7.0 NNW 0.12 8.7 -14.1 --- --- 731.1 0.018 0.000 8.3 8 1
02/01/06 2:24 p -8.3 -8.3 -8.3 --- --- 7.8 NNW 0.13 9.6 -14.6 --- --- 731.0 0.019 0.000 8.3 8 1
02/01/06 2:25 p -8.3 -8.3 -8.3 --- --- 7.8 NNW 0.13 8.7 -14.6 --- --- 731.1 0.019 0.000 8.3 8 1
02/01/06 2:26 p -8.3 -8.3 -8.3 --- --- 8.7 NW 0.14 10.4 -14.8 --- --- 731.0 0.018 0.000 8.3 8 1
02/01/06 2:27 p -8.3 -8.3 -8.3 --- --- 8.7 NNW 0.14 10.4 -14.8 --- --- 731.0 0.018 0.000 8.2 8 1
02/01/06 2:28 p -8.3 -8.3 -8.3 --- --- 7.0 NNW 0.12 9.6 -14.1 --- --- 731.0 0.019 0.000 8.2 8 1
02/01/06 2:29 p -8.3 -8.3 -8.3 --- --- 9.6 NNW 0.16 11.3 -15.3 --- --- 731.0 0.019 0.000 8.2 8 1
02/01/06 2:30 p -8.3 -8.3 -8.3 --- --- 8.7 NNW 0.14 11.3 -14.9 --- --- 731.0 0.019 0.000 8.2 8 1
02/01/06 2:31 p -8.3 -8.3 -8.3 --- --- 9.6 NNW 0.16 11.3 -15.2 --- --- 731.0 0.018 0.000 8.2 8 1
02/01/06 2:32 p -8.2 -8.2 -8.3 --- --- 8.7 NNW 0.14 10.4 -14.8 --- --- 731.1 0.018 0.000 8.2 8 1
02/01/06 2:33 p -8.2 -8.2 -8.2 --- --- 8.7 NNW 0.14 10.4 -14.8 --- --- 731.2 0.018 0.000 8.2 8 1
02/01/06 2:34 p -8.2 -8.2 -8.3 --- --- 8.7 NNW 0.14 10.4 -14.8 --- --- 731.1 0.018 0.000 8.2 8 1
02/01/06 2:35 p -8.3 -8.3 -8.3 --- --- 7.8 NW 0.13 9.6 -14.5 --- --- 731.1 0.018 0.000 8.2 8 1
02/01/06 2:36 p -8.3 -8.3 -8.4 --- --- 7.8 NNW 0.13 8.7 -14.6 --- --- 731.1 0.019 0.000 8.2 8 1
02/01/06 2:37 p -8.3 -8.3 -8.3 --- --- 7.8 NNW 0.13 9.6 -14.6 --- --- 731.1 0.019 0.000 8.2 8 1
02/01/06 2:38 p -8.3 -8.3 -8.3 --- --- 8.7 NNW 0.14 10.4 -14.9 --- --- 731.0 0.019 0.000 8.2 8 1
02/01/06 2:39 p -8.3 -8.3 -8.3 --- --- 9.6 NW 0.16 11.3 -15.2 --- --- 731.1 0.018 0.000 8.2 8 1
02/01/06 2:40 p -8.3 -8.2 -8.3 --- --- 9.6 NW 0.16 11.3 -15.2 --- --- 731.0 0.018 0.000 8.2 9 1
02/01/06 2:41 p -8.2 -8.2 -8.2 --- --- 9.6 NW 0.16 10.4 -15.1 --- --- 731.0 0.018 0.000 8.2 8 1
02/01/06 2:42 p -8.2 -8.2 -8.2 --- --- 7.8 NW 0.13 10.4 -14.3 --- --- 731.0 0.018 0.000 8.2 8 1
02/01/06 2:43 p -8.2 -8.2 -8.2 --- --- 9.6 NW 0.16 12.2 -15.1 --- --- 731.1 0.018 0.000 8.2 9 1
02/01/06 2:44 p -8.2 -8.1 -8.2 --- --- 10.4 NW 0.17 13.0 -15.4 --- --- 731.1 0.018 0.000 8.2 9 1
02/01/06 2:45 p -8.1 -8.1 -8.2 --- --- 10.4 NW 0.17 13.0 -15.3 --- --- 731.1 0.018 0.000 8.2 8 1
02/01/06 2:46 p -8.1 -8.1 -8.1 --- --- 9.6 NW 0.16 12.2 -15.0 --- --- 731.1 0.018 0.000 8.2 8 1
02/01/06 2:47 p -8.1 -8.1 -8.2 --- --- 8.7 NNW 0.14 12.2 -14.7 --- --- 731.1 0.018 0.000 8.2 8 1
02/01/06 2:48 p -8.2 -8.2 -8.2 --- --- 10.4 NW 0.17 11.3 -15.4 --- --- 731.1 0.018 0.000 8.2 9 1
02/01/06 2:49 p -8.2 -8.2 -8.2 --- --- 10.4 NNW 0.17 13.9 -15.4 --- --- 731.1 0.018 0.000 8.2 9 1
02/01/06 2:50 p -8.1 -8.1 -8.1 --- --- 9.6 NW 0.16 11.3 -15.0 --- --- 731.1 0.018 0.000 8.2 8 1
02/01/06 2:51 p -8.1 -8.1 -8.2 --- --- 7.8 NNW 0.13 9.6 -14.3 --- --- 731.1 0.018 0.000 8.2 8 1
02/01/06 2:52 p -8.3 -8.2 -8.3 --- --- 9.6 NNW 0.16 11.3 -15.2 --- --- 731.2 0.018 0.000 8.2 8 1
02/01/06 2:53 p -8.2 -8.2 -8.3 --- --- 9.6 NNW 0.16 11.3 -15.1 --- --- 731.1 0.018 0.000 8.2 8 1
02/01/06 2:54 p -8.3 -8.3 -8.3 --- --- 9.6 NNW 0.16 10.4 -15.2 --- --- 731.1 0.018 0.000 8.2 9 1
02/01/06 2:55 p -8.3 -8.3 -8.3 --- --- 9.6 NNW 0.16 11.3 -15.2 --- --- 731.2 0.018 0.000 8.3 8 1
02/01/06 2:56 p -8.3 -8.3 -8.3 --- --- 11.3 NW 0.19 12.2 -15.8 --- --- 731.2 0.018 0.000 8.3 8 1
02/01/06 2:57 p -8.3 -8.3 -8.3 --- --- 7.8 NW 0.13 9.6 -14.6 --- --- 731.2 0.019 0.000 8.3 8 1
02/01/06 2:58 p -8.3 -8.3 -8.4 --- --- 8.7 NW 0.14 9.6 -14.9 --- --- 731.2 0.019 0.000 8.3 8 1
02/01/06 2:59 p -8.4 -8.3 -8.4 --- --- 7.0 NW 0.12 8.7 -14.2 --- --- 731.2 0.019 0.000 8.3 8 1
02/01/06 3:00 p -8.4 -8.4 -8.4 --- --- 6.1 NW 0.10 7.8 -13.7 --- --- 731.2 0.019 0.000 8.3 8 1
02/01/06 3:01 p -8.4 -8.4 -8.4 --- --- 8.7 NW 0.14 10.4 -15.0 --- --- 731.2 0.019 0.000 8.3 9 1
02/01/06 3:02 p -8.4 -8.3 -8.4 --- --- 7.0 NW 0.12 8.7 -14.2 --- --- 731.1 0.019 0.000 8.3 9 1
02/01/06 3:03 p -8.4 -8.3 -8.4 --- --- 6.1 NW 0.10 7.8 -13.7 --- --- 731.2 0.019 0.000 8.3 9 1
02/01/06 3:04 p -8.4 -8.4 -8.4 --- --- 4.3 NNW 0.07 5.2 -12.6 --- --- 731.2 0.019 0.000 8.3 9 1
02/01/06 3:05 p -8.4 -8.4 -8.4 --- --- 8.7 NNW 0.14 9.6 -15.0 --- --- 731.1 0.019 0.000 8.3 9 1
02/01/06 3:06 p -8.4 -8.4 -8.4 --- --- 7.8 NNW 0.13 9.6 -14.7 --- --- 731.1 0.019 0.000 8.3 9 1
02/01/06 3:07 p -8.4 -8.4 -8.4 --- --- 7.8 NNW 0.13 8.7 -14.7 --- --- 731.2 0.019 0.000 8.3 9 1
02/01/06 3:08 p -8.4 -8.4 -8.5 --- --- 7.0 NNW 0.12 7.8 -14.3 --- --- 731.2 0.019 0.000 8.3 9 1
02/01/06 3:09 p -8.5 -8.5 -8.5 --- --- 7.0 NW 0.12 7.8 -14.3 --- --- 731.2 0.019 0.000 8.3 9 1
02/01/06 3:10 p -8.4 -8.4 -8.5 --- --- 6.1 NNW 0.10 7.0 -13.8 --- --- 731.1 0.019 0.000 8.2 8 1
02/01/06 3:11 p -8.4 -8.3 -8.4 --- --- 7.0 NNW 0.12 9.6 -14.2 --- --- 731.1 0.019 0.000 8.3 9 1
02/01/06 3:12 p -8.3 -8.3 -8.3 --- --- 7.0 NNW 0.12 8.7 -14.1 --- --- 731.1 0.019 0.000 8.3 8 1
02/01/06 3:13 p -8.2 -8.2 -8.3 --- --- 7.8 NNW 0.13 9.6 -14.4 --- --- 731.1 0.018 0.000 8.2 8 1
02/01/06 3:14 p -8.2 -8.2 -8.2 --- --- 7.8 NNW 0.13 9.6 -14.4 --- --- 731.2 0.018 0.000 8.2 8 1
02/01/06 3:15 p -8.3 -8.2 -8.3 --- --- 7.8 NNW 0.13 9.6 -14.5 --- --- 731.1 0.018 0.000 8.2 8 1
02/01/06 3:16 p -8.2 -8.2 -8.3 --- --- 7.8 NW 0.13 8.7 -14.4 --- --- 731.1 0.018 0.000 8.2 9 1
02/01/06 3:17 p -8.3 -8.3 -8.3 --- --- 7.0 NNW 0.12 8.7 -14.1 --- --- 731.1 0.018 0.000 8.2 9 1
02/01/06 3:18 p -8.3 -8.3 -8.3 --- --- 7.0 NW 0.12 8.7 -14.1 --- --- 731.1 0.018 0.000 8.2 8 1
02/01/06 3:19 p -8.3 -8.3 -8.4 --- --- 5.2 NW 0.09 6.1 -13.1 --- --- 731.2 0.019 0.000 8.2 9 1
02/01/06 3:20 p -8.4 -8.4 -8.4 --- --- 7.0 NNW 0.12 8.7 -14.2 --- --- 731.2 0.019 0.000 8.2 9 1
02/01/06 3:21 p -8.3 -8.3 -8.3 --- --- 7.0 NNW 0.12 9.6 -14.1 --- --- 731.1 0.019 0.000 8.2 9 1
02/01/06 3:22 p -8.3 -8.3 -8.3 --- --- 7.0 NNW 0.12 8.7 -14.1 --- --- 731.2 0.018 0.000 8.2 9 1
02/01/06 3:23 p -8.3 -8.3 -8.3 --- --- 7.8 NNW 0.13 8.7 -14.5 --- --- 731.2 0.018 0.000 8.2 9 1
02/01/06 3:24 p -8.3 -8.3 -8.4 --- --- 7.0 NNW 0.12 8.7 -14.1 --- --- 731.1 0.019 0.000 8.2 8 1
02/01/06 3:25 p -8.4 -8.4 -8.4 --- --- 7.0 NNW 0.12 8.7 -14.3 --- --- 731.1 0.019 0.000 8.2 8 1
02/01/06 3:26 p -8.5 -8.4 -8.5 --- --- 7.0 NNW 0.12 8.7 -14.3 --- --- 731.2 0.019 0.000 8.2 8 1
02/01/06 3:27 p -8.5 -8.4 -8.5 --- --- 7.8 NNW 0.13 8.7 -14.7 --- --- 731.2 0.019 0.000 8.2 9 1
02/01/06 3:28 p -8.4 -8.4 -8.5 --- --- 7.0 NNW 0.12 8.7 -14.3 --- --- 731.1 0.019 0.000 8.2 8 1
02/01/06 3:29 p -8.4 -8.4 -8.5 --- --- 7.8 NNW 0.13 9.6 -14.7 --- --- 731.1 0.019 0.000 8.2 8 1
02/01/06 3:30 p -8.4 -8.4 -8.5 --- --- 7.0 NNW 0.12 7.0 -14.3 --- --- 731.2 0.019 0.000 8.2 8 1
02/01/06 3:31 p -8.4 -8.4 -8.4 --- --- 6.1 NNW 0.10 7.8 -13.8 --- --- 731.2 0.019 0.000 8.2 9 1
02/01/06 3:32 p -8.4 -8.4 -8.5 --- --- 7.0 NNW 0.12 9.6 -14.3 --- --- 731.1 0.019 0.000 8.2 8 1
02/01/06 3:33 p -8.4 -8.4 -8.4 --- --- 7.8 NNW 0.13 9.6 -14.7 --- --- 731.1 0.019 0.000 8.2 9 1
02/01/06 3:34 p -8.4 -8.4 -8.5 --- --- 7.0 NNW 0.12 7.8 -14.3 --- --- 731.1 0.019 0.000 8.2 9 1
02/01/06 3:35 p -8.4 -8.4 -8.5 --- --- 7.0 NNW 0.12 8.7 -14.3 --- --- 731.2 0.019 0.000 8.2 9 1
02/01/06 3:36 p -8.5 -8.5 -8.6 --- --- 8.7 NW 0.14 8.7 -15.1 --- --- 731.2 0.019 0.000 8.2 9 1
02/01/06 3:37 p -8.5 -8.4 -8.6 --- --- 8.7 NW 0.14 9.6 -15.1 --- --- 731.1 0.019 0.000 8.2 9 1
02/01/06 3:38 p -8.3 -8.3 -8.4 --- --- 7.0 NW 0.12 7.8 -14.1 --- --- 731.2 0.019 0.000 8.2 9 1
02/01/06 3:39 p -8.3 -8.3 -8.4 --- --- 7.8 NNW 0.13 8.7 -14.6 --- --- 731.2 0.019 0.000 8.2 9 1
02/01/06 3:40 p -8.3 -8.3 -8.3 --- --- 9.6 NNW 0.16 13.0 -15.3 --- --- 731.1 0.019 0.000 8.2 9 1
02/01/06 3:41 p -8.2 -8.1 -8.2 --- --- 10.4 NW 0.17 13.0 -15.4 --- --- 731.2 0.018 0.000 8.2 8 1
02/01/06 3:42 p -8.1 -8.1 -8.2 --- --- 8.7 NNW 0.14 10.4 -14.7 --- --- 731.1 0.018 0.000 8.2 9 1
02/01/06 3:43 p -8.3 -8.2 -8.3 --- --- 7.8 NNW 0.13 8.7 -14.5 --- --- 731.2 0.018 0.000 8.2 8 1
02/01/06 3:44 p -8.3 -8.3 -8.3 --- --- 8.7 NNW 0.14 10.4 -14.9 --- --- 731.2 0.019 0.000 8.2 9 1
02/01/06 3:45 p -8.3 -8.3 -8.3 --- --- 8.7 NNW 0.14 10.4 -14.8 --- --- 731.2 0.018 0.000 8.2 9 1
02/01/06 3:46 p -8.2 -8.1 -8.2 --- --- 10.4 NNW 0.17 14.8 -15.4 --- --- 731.2 0.018 0.000 8.2 9 1
02/01/06 3:47 p -8.1 -8.1 -8.1 --- --- 7.0 NNW 0.12 9.6 -13.8 --- --- 731.1 0.018 0.000 8.2 8 1
02/01/06 3:48 p -8.1 -8.1 -8.2 --- --- 8.7 NNW 0.14 10.4 -14.7 --- --- 731.1 0.018 0.000 8.2 8 1
02/01/06 3:49 p -8.2 -8.2 -8.2 --- --- 9.6 NW 0.16 11.3 -15.1 --- --- 731.2 0.018 0.000 8.2 8 1
02/01/06 3:50 p -8.2 -8.1 -8.2 --- --- 10.4 NW 0.17 12.2 -15.4 --- --- 731.2 0.018 0.000 8.2 9 1
02/01/06 3:51 p -8.1 -8.1 -8.1 --- --- 9.6 NW 0.16 11.3 -14.9 --- --- 731.2 0.018 0.000 8.2 8 1
02/01/06 3:52 p -8.1 -8.1 -8.1 --- --- 7.8 NW 0.13 8.7 -14.2 --- --- 731.1 0.018 0.000 8.2 8 1
02/01/06 3:53 p -8.1 -8.1 -8.1 --- --- 9.6 NW 0.16 13.0 -14.9 --- --- 731.2 0.018 0.000 8.2 9 1
02/01/06 3:54 p -8.1 -8.1 -8.1 --- --- 9.6 NW 0.16 11.3 -14.9 --- --- 731.2 0.018 0.000 8.2 9 1
02/01/06 3:55 p -8.0 -8.0 -8.1 --- --- 7.8 NW 0.13 9.6 -14.1 --- --- 731.2 0.018 0.000 8.2 9 1
02/01/06 3:56 p -8.1 -8.0 -8.1 --- --- 7.0 NNW 0.12 8.7 -13.8 --- --- 731.2 0.018 0.000 8.2 8 1
02/01/06 3:57 p -8.1 -8.1 -8.1 --- --- 7.8 NNW 0.13 9.6 -14.2 --- --- 731.2 0.018 0.000 8.2 8 1
02/01/06 3:58 p -8.1 -8.0 -8.1 --- --- 7.0 NW 0.12 9.6 -13.8 --- --- 731.3 0.018 0.000 8.1 8 1
02/01/06 3:59 p -8.1 -8.1 -8.1 --- --- 7.8 NNW 0.13 8.7 -14.3 --- --- 731.3 0.018 0.000 8.1 9 1
02/01/06 4:00 p -8.1 -8.1 -8.1 --- --- 7.8 NW 0.13 9.6 -14.3 --- --- 731.2 0.018 0.000 8.1 8 1
02/01/06 4:02 p -8.2 -8.1 -8.2 --- --- 7.8 NNW 0.13 9.6 -14.3 --- --- 731.2 0.018 0.000 8.1 9 1
02/01/06 4:03 p -8.2 -8.1 -8.2 --- --- 7.8 NNW 0.13 8.7 -14.3 --- --- 731.2 0.018 0.000 8.2 9 1
02/01/06 4:04 p -8.3 -8.3 -8.3 --- --- 7.8 NW 0.13 7.8 -14.5 --- --- 731.2 0.018 0.000 8.1 8 1
02/01/06 4:05 p -8.3 -8.3 -8.4 --- --- 7.0 NNW 0.12 7.8 -14.1 --- --- 731.2 0.019 0.000 8.1 9 1
02/01/06 4:06 p -8.4 -8.3 -8.4 --- --- 7.8 NW 0.13 8.7 -14.6 --- --- 731.1 0.019 0.000 8.1 9 1
02/01/06 4:07 p -8.3 -8.3 -8.3 --- --- 7.8 NNW 0.13 8.7 -14.6 --- --- 731.2 0.019 0.000 8.2 9 1
02/01/06 4:08 p -8.3 -8.3 -8.3 --- --- 7.8 NW 0.13 7.8 -14.6 --- --- 731.2 0.019 0.000 8.2 9 1
02/01/06 4:09 p -8.3 -8.3 -8.4 --- --- 6.1 NW 0.10 7.0 -13.7 --- --- 731.2 0.019 0.000 8.2 9 1
02/01/06 4:10 p -8.4 -8.3 -8.4 --- --- 6.1 NNW 0.10 7.0 -13.7 --- --- 731.3 0.019 0.000 8.2 8 1
02/01/06 4:11 p -8.3 -8.3 -8.3 --- --- 6.1 NW 0.10 7.8 -13.6 --- --- 731.3 0.018 0.000 8.2 9 1
02/01/06 4:12 p -8.3 -8.2 -8.3 --- --- 7.0 NW 0.12 7.8 -14.1 --- --- 731.3 0.018 0.000 8.2 9 1
02/01/06 4:13 p -8.3 -8.2 -8.3 --- --- 7.0 NNW 0.12 7.8 -14.1 --- --- 731.3 0.018 0.000 8.2 9 1
02/01/06 4:14 p -8.3 -8.3 -8.3 --- --- 6.1 NNW 0.10 7.0 -13.6 --- --- 731.2 0.018 0.000 8.2 8 1
02/01/06 4:15 p -8.3 -8.3 -8.3 --- --- 6.1 NNW 0.10 7.0 -13.7 --- --- 731.2 0.019 0.000 8.2 8 1
02/01/06 4:16 p -8.3 -8.3 -8.3 --- --- 6.1 NNW 0.10 7.8 -13.7 --- --- 731.2 0.019 0.000 8.2 9 1
02/01/06 4:17 p -8.3 -8.3 -8.4 --- --- 7.0 NNW 0.12 7.8 -14.1 --- --- 731.2 0.019 0.000 8.2 9 1
02/01/06 4:18 p -8.4 -8.3 -8.4 --- --- 5.2 NNW 0.09 6.1 -13.2 --- --- 731.2 0.019 0.000 8.2 9 1
02/01/06 4:19 p -8.3 -8.3 -8.3 --- --- 7.8 NNW 0.13 9.6 -14.5 --- --- 731.2 0.018 0.000 8.2 9 1
02/01/06 4:20 p -8.3 -8.3 -8.3 --- --- 7.8 NNW 0.13 8.7 -14.5 --- --- 731.2 0.018 0.000 8.2 9 1
02/01/06 4:21 p -8.3 -8.3 -8.3 --- --- 6.1 NNW 0.10 7.0 -13.6 --- --- 731.2 0.018 0.000 8.3 9 1
02/01/06 4:22 p -8.3 -8.3 -8.3 --- --- 6.1 NNW 0.10 7.0 -13.7 --- --- 731.2 0.019 0.000 8.2 9 1
02/01/06 4:23 p -8.3 -8.3 -8.4 --- --- 7.0 NW 0.12 7.8 -14.1 --- --- 731.2 0.019 0.000 8.3 9 1
02/01/06 4:24 p -8.3 -8.2 -8.3 --- --- 9.6 NW 0.16 12.2 -15.2 --- --- 731.1 0.018 0.000 8.2 9 1
02/01/06 4:25 p -8.1 -8.1 -8.1 --- --- 8.7 NW 0.14 10.4 -14.7 --- --- 731.2 0.018 0.000 8.2 9 1
02/01/06 4:26 p -8.1 -8.1 -8.1 --- --- 6.1 NW 0.10 7.8 -13.4 --- --- 731.2 0.018 0.000 8.2 9 1
02/01/06 4:27 p -8.1 -8.1 -8.1 --- --- 7.0 NW 0.12 7.8 -13.8 --- --- 731.3 0.018 0.000 8.2 9 1
02/01/06 4:28 p -8.2 -8.1 -8.2 --- --- 7.0 NNW 0.12 8.7 -13.9 --- --- 731.2 0.018 0.000 8.2 9 1
02/01/06 4:29 p -8.2 -8.2 -8.2 --- --- 7.8 NNW 0.13 9.6 -14.3 --- --- 731.3 0.018 0.000 8.2 9 1
02/01/06 4:30 p -8.2 -8.2 -8.2 --- --- 7.8 NNW 0.13 8.7 -14.3 --- --- 731.1 0.018 0.000 8.2 8 1
02/01/06 4:31 p -8.1 -8.1 -8.2 --- --- 7.0 NNW 0.12 7.8 -13.8 --- --- 731.2 0.018 0.000 8.2 9 1
02/01/06 4:32 p -8.1 -8.1 -8.1 --- --- 6.1 NNW 0.10 7.0 -13.4 --- --- 731.2 0.018 0.000 8.2 8 1
02/01/06 4:33 p -8.1 -8.1 -8.2 --- --- 7.0 NNW 0.12 7.8 -13.8 --- --- 731.2 0.018 0.000 8.2 9 1
02/01/06 4:34 p -8.2 -8.1 -8.2 --- --- 6.1 NNW 0.10 7.8 -13.4 --- --- 731.3 0.018 0.000 8.2 9 1
02/01/06 4:35 p -8.2 -8.2 -8.2 --- --- 7.0 NNW 0.12 7.8 -14.0 --- --- 731.2 0.018 0.000 8.2 9 1
02/01/06 4:36 p -8.2 -8.1 -8.2 --- --- 7.8 NNW 0.13 8.7 -14.3 --- --- 731.2 0.018 0.000 8.2 9 1
02/01/06 4:37 p -8.1 -8.1 -8.1 --- --- 7.8 NNW 0.13 8.7 -14.2 --- --- 731.2 0.018 0.000 8.2 9 1
02/01/06 4:38 p -8.0 -8.0 -8.1 --- --- 7.8 NNW 0.13 8.7 -14.1 --- --- 731.2 0.018 0.000 8.2 8 1
02/01/06 4:39 p -8.0 -7.9 -8.0 --- --- 8.7 NNW 0.14 9.6 -14.5 --- --- 731.1 0.018 0.000 8.2 9 1
02/01/06 4:40 p -7.9 -7.9 -7.9 --- --- 8.7 NNW 0.14 9.6 -14.4 --- --- 731.2 0.018 0.000 8.2 9 1
02/01/06 4:41 p -7.9 -7.9 -7.9 --- --- 7.8 NW 0.13 8.7 -14.1 --- --- 731.2 0.018 0.000 8.2 9 1
02/01/06 4:42 p -7.9 -7.8 -7.9 --- --- 7.8 NNW 0.13 8.7 -14.0 --- --- 731.2 0.018 0.000 8.2 9 1
02/01/06 4:43 p -7.9 -7.8 -7.9 --- --- 8.7 NNW 0.14 9.6 -14.4 --- --- 731.2 0.018 0.000 8.2 9 1
02/01/06 4:44 p -7.8 -7.8 -7.8 --- --- 8.7 NNW 0.14 9.6 -14.3 --- --- 731.3 0.018 0.000 8.2 8 1
02/01/06 4:45 p -7.9 -7.8 -7.9 --- --- 7.8 NNW 0.13 8.7 -14.0 --- --- 731.2 0.018 0.000 8.2 9 1
02/01/06 4:46 p -7.9 -7.9 -7.9 --- --- 8.7 NNW 0.14 9.6 -14.4 --- --- 731.2 0.018 0.000 8.2 8 1
02/01/06 4:47 p -7.9 -7.9 -7.9 --- --- 8.7 NNW 0.14 10.4 -14.4 --- --- 731.2 0.018 0.000 8.2 9 1
02/01/06 4:48 p -7.9 -7.9 -8.0 --- --- 7.0 NNW 0.12 8.7 -13.7 --- --- 731.2 0.018 0.000 8.2 9 1
02/01/06 4:49 p -8.0 -8.0 -8.0 --- --- 7.8 NNW 0.13 8.7 -14.1 --- --- 731.2 0.018 0.000 8.2 9 1
02/01/06 4:50 p -8.0 -8.0 -8.0 --- --- 7.8 NNW 0.13 8.7 -14.1 --- --- 731.2 0.018 0.000 8.2 9 1
02/01/06 4:51 p -8.0 -7.9 -8.0 --- --- 7.8 NW 0.13 8.7 -14.1 --- --- 731.2 0.018 0.000 8.2 9 1
02/01/06 4:52 p -7.9 -7.9 -8.0 --- --- 7.8 NW 0.13 9.6 -14.1 --- --- 731.2 0.018 0.000 8.2 9 1
02/01/06 4:53 p -7.9 -7.9 -8.0 --- --- 8.7 NW 0.14 11.3 -14.4 --- --- 731.2 0.018 0.000 8.2 9 1
02/01/06 4:54 p -7.9 -7.9 -7.9 --- --- 7.0 NW 0.12 8.7 -13.7 --- --- 731.2 0.018 0.000 8.2 9 1
02/01/06 4:55 p -7.9 -7.9 -8.0 --- --- 7.8 NW 0.13 9.6 -14.1 --- --- 731.2 0.018 0.000 8.2 9 1
02/01/06 4:56 p -7.9 -7.9 -7.9 --- --- 7.0 NW 0.12 8.7 -13.7 --- --- 731.3 0.018 0.000 8.2 9 1
02/01/06 4:57 p -7.9 -7.9 -7.9 --- --- 7.0 NW 0.12 8.7 -13.7 --- --- 731.2 0.018 0.000 8.2 9 1
02/01/06 4:58 p -7.9 -7.9 -7.9 --- --- 7.0 NW 0.12 8.7 -13.7 --- --- 731.2 0.018 0.000 8.1 9 1
02/01/06 4:59 p -7.9 -7.9 -7.9 --- --- 8.7 NW 0.14 9.6 -14.4 --- --- 731.2 0.018 0.000 8.2 9 1
02/01/06 5:00 p -7.8 -7.8 -7.9 --- --- 7.8 NW 0.13 8.7 -13.9 --- --- 731.3 0.018 0.000 8.2 9 1
02/01/06 5:02 p -7.9 -7.9 -7.9 --- --- 6.1 NW 0.10 7.0 -13.1 --- --- 731.2 0.018 0.000 8.2 9 1
02/01/06 5:03 p -7.9 -7.9 -7.9 --- --- 6.1 NNW 0.10 7.0 -13.1 --- --- 731.2 0.018 0.000 8.2 9 1
02/01/06 5:04 p -7.9 -7.9 -7.9 --- --- 6.1 NW 0.10 7.0 -13.1 --- --- 731.2 0.018 0.000 8.2 9 1
02/01/06 5:05 p -7.9 -7.9 -7.9 --- --- 5.2 NNW 0.09 7.0 -12.7 --- --- 731.3 0.018 0.000 8.2 9 1
02/01/06 5:06 p -7.9 -7.9 -7.9 --- --- 7.0 NW 0.12 7.8 -13.6 --- --- 731.3 0.018 0.000 8.2 9 1
02/01/06 5:07 p -7.8 -7.8 -7.8 --- --- 7.0 NW 0.12 7.0 -13.5 --- --- 731.2 0.018 0.000 8.2 9 1
02/01/06 5:08 p -7.8 -7.8 -7.8 --- --- 7.0 NW 0.12 7.8 -13.5 --- --- 731.2 0.018 0.000 8.2 9 1
02/01/06 5:09 p -7.8 -7.7 -7.8 --- --- 6.1 NW 0.10 7.0 -13.0 --- --- 731.2 0.018 0.000 8.2 9 1
02/01/06 5:10 p -7.7 -7.7 -7.8 --- --- 6.1 NW 0.10 7.8 -12.9 --- --- 731.2 0.018 0.000 8.2 9 1
02/01/06 5:11 p -7.8 -7.8 -7.8 --- --- 5.2 NW 0.09 6.1 -12.4 --- --- 731.3 0.018 0.000 8.2 9 1
02/01/06 5:12 p -7.8 -7.8 -7.8 --- --- 6.1 NW 0.10 7.0 -13.0 --- --- 731.2 0.018 0.000 8.1 9 1
02/01/06 5:13 p -7.8 -7.7 -7.8 --- --- 5.2 NW 0.09 7.0 -12.4 --- --- 731.3 0.018 0.000 8.2 9 1
02/01/06 5:14 p -7.8 -7.8 -7.8 --- --- 4.3 NW 0.07 6.1 -11.9 --- --- 731.3 0.018 0.000 8.1 9 1
02/01/06 5:15 p -7.8 -7.7 -7.8 --- --- 4.3 NNW 0.07 6.1 -11.9 --- --- 731.2 0.018 0.000 8.1 9 1
02/01/06 5:16 p -7.7 -7.7 -7.8 --- --- 4.3 NW 0.07 5.2 -11.8 --- --- 731.2 0.018 0.000 8.1 9 1
02/01/06 5:17 p -7.7 -7.7 -7.7 --- --- 3.5 NW 0.06 4.3 -11.1 --- --- 731.3 0.018 0.000 8.1 9 1
02/01/06 5:18 p -7.7 -7.7 -7.7 --- --- 4.3 NW 0.07 4.3 -11.8 --- --- 731.2 0.018 0.000 8.1 9 1
02/01/06 5:19 p -7.8 -7.7 -7.8 --- --- 4.3 NNW 0.07 5.2 -11.9 --- --- 731.2 0.018 0.000 8.1 9 1
02/01/06 5:20 p -7.8 -7.8 -7.8 --- --- 5.2 NNW 0.09 6.1 -12.4 --- --- 731.3 0.018 0.000 8.1 9 1
02/01/06 5:21 p -7.8 -7.8 -7.8 --- --- 4.3 NNW 0.07 5.2 -11.9 --- --- 731.2 0.018 0.000 8.1 9 1
02/01/06 5:22 p -7.8 -7.8 -7.8 --- --- 4.3 NNW 0.07 5.2 -11.9 --- --- 731.2 0.018 0.000 8.1 9 1
02/01/06 5:23 p -7.9 -7.8 -7.9 --- --- 5.2 NNW 0.09 5.2 -12.6 --- --- 731.2 0.018 0.000 8.1 9 1
02/01/06 5:24 p -7.9 -7.9 -7.9 --- --- 4.3 NNW 0.07 6.1 -12.0 --- --- 731.3 0.018 0.000 8.1 9 1
02/01/06 5:25 p -7.9 -7.9 -8.0 --- --- 5.2 NNW 0.09 6.1 -12.7 --- --- 731.2 0.018 0.000 8.1 9 1
02/01/06 5:26 p -7.9 -7.9 -7.9 --- --- 5.2 NNW 0.09 6.1 -12.7 --- --- 731.3 0.018 0.000 8.1 9 1
02/01/06 5:27 p -7.9 -7.9 -8.0 --- --- 5.2 NNW 0.09 6.1 -12.7 --- --- 731.3 0.018 0.000 8.2 9 1
02/01/06 5:28 p -8.0 -7.9 -8.0 --- --- 5.2 NNW 0.09 6.1 -12.7 --- --- 731.2 0.018 0.000 8.2 9 1
02/01/06 5:29 p -7.9 -7.9 -7.9 --- --- 4.3 NW 0.07 5.2 -12.1 --- --- 731.2 0.018 0.000 8.2 9 1
02/01/06 5:30 p -8.0 -8.0 -8.0 --- --- 4.3 NNW 0.07 5.2 -12.1 --- --- 731.2 0.018 0.000 8.2 9 1
02/01/06 5:31 p -8.0 -8.0 -8.0 --- --- 4.3 NNW 0.07 5.2 -12.1 --- --- 731.3 0.018 0.000 8.2 9 1
02/01/06 5:32 p -8.0 -8.0 -8.0 --- --- 3.5 NNW 0.06 4.3 -11.4 --- --- 731.4 0.018 0.000 8.2 9 1
02/01/06 5:33 p -8.0 -8.0 -8.0 --- --- 4.3 NNW 0.07 5.2 -12.1 --- --- 731.4 0.018 0.000 8.2 9 1
02/01/06 5:34 p -8.0 -8.0 -8.0 --- --- 3.5 NNW 0.06 4.3 -11.4 --- --- 731.3 0.018 0.000 8.2 9 1
02/01/06 5:35 p -8.0 -8.0 -8.0 --- --- 3.5 NNW 0.06 4.3 -11.4 --- --- 731.4 0.018 0.000 8.2 9 1
02/01/06 5:36 p -8.0 -8.0 -8.0 --- --- 4.3 NNW 0.07 5.2 -12.1 --- --- 731.4 0.018 0.000 8.2 9 1
02/01/06 5:37 p -8.0 -7.9 -8.0 --- --- 3.5 NNW 0.06 4.3 -11.4 --- --- 731.3 0.018 0.000 8.2 9 1
02/01/06 5:38 p -8.0 -8.0 -8.0 --- --- 3.5 NNW 0.06 4.3 -11.4 --- --- 731.3 0.018 0.000 8.2 9 1
02/01/06 5:39 p -7.9 -7.9 -8.0 --- --- 3.5 NNW 0.06 4.3 -11.3 --- --- 731.4 0.018 0.000 8.2 9 1
02/01/06 5:40 p -7.9 -7.9 -7.9 --- --- 3.5 NNW 0.06 3.5 -11.3 --- --- 731.3 0.018 0.000 8.2 9 1
02/01/06 5:41 p -7.9 -7.9 -7.9 --- --- 3.5 NNW 0.06 4.3 -11.3 --- --- 731.4 0.018 0.000 8.2 9 1
02/01/06 5:42 p -7.9 -7.9 -7.9 --- --- 2.6 NNW 0.04 3.5 -10.5 --- --- 731.3 0.018 0.000 8.2 9 1
02/01/06 5:43 p -7.9 -7.9 -7.9 --- --- 2.6 NNW 0.04 2.6 -10.4 --- --- 731.3 0.018 0.000 8.2 9 1
02/01/06 5:44 p -7.9 -7.9 -7.9 --- --- 2.6 NNW 0.04 3.5 -10.4 --- --- 731.3 0.018 0.000 8.2 9 1
02/01/06 5:45 p -7.9 -7.8 -7.9 --- --- 2.6 NNW 0.04 3.5 -10.4 --- --- 731.3 0.018 0.000 8.2 9 1
02/01/06 5:46 p -7.8 -7.8 -7.8 --- --- 2.6 NNW 0.04 3.5 -10.3 --- --- 731.3 0.018 0.000 8.2 9 1
02/01/06 5:47 p -7.8 -7.8 -7.8 --- --- 2.6 NNW 0.04 3.5 -10.3 --- --- 731.5 0.018 0.000 8.2 9 1
02/01/06 5:48 p -7.8 -7.8 -7.8 --- --- 1.7 NNW 0.03 2.6 -9.1 --- --- 731.3 0.018 0.000 8.2 9 1
02/01/06 5:49 p -7.8 -7.8 -7.8 --- --- 2.6 NNW 0.04 2.6 -10.3 --- --- 731.4 0.018 0.000 8.2 9 1
02/01/06 5:50 p -7.8 -7.7 -7.8 --- --- 2.6 NNW 0.04 2.6 -10.3 --- --- 731.4 0.018 0.000 8.2 9 1
02/01/06 5:51 p -7.7 -7.7 -7.8 --- --- 2.6 NNW 0.04 3.5 -10.2 --- --- 731.4 0.018 0.000 8.2 9 1
02/01/06 5:52 p -7.7 -7.7 -7.8 --- --- 3.5 NNW 0.06 3.5 -11.1 --- --- 731.4 0.018 0.000 8.2 9 1
02/01/06 5:53 p -7.7 -7.7 -7.8 --- --- 3.5 NNW 0.06 3.5 -11.1 --- --- 731.5 0.018 0.000 8.2 9 1
02/01/06 5:54 p -7.7 -7.7 -7.7 --- --- 3.5 NNW 0.06 3.5 -11.1 --- --- 731.4 0.018 0.000 8.2 9 1
02/01/06 5:55 p -7.7 -7.7 -7.7 --- --- 3.5 NNW 0.06 4.3 -11.1 --- --- 731.3 0.018 0.000 8.2 9 1
02/01/06 5:56 p -7.7 -7.7 -7.7 --- --- 3.5 NNW 0.06 3.5 -11.1 --- --- 731.4 0.018 0.000 8.2 9 1
02/01/06 5:57 p -7.7 -7.7 -7.7 --- --- 3.5 NNW 0.06 5.2 -11.1 --- --- 731.4 0.018 0.000 8.2 9 1
02/01/06 5:58 p -7.7 -7.7 -7.7 --- --- 4.3 NNW 0.07 4.3 -11.7 --- --- 731.4 0.018 0.000 8.2 9 1
02/01/06 5:59 p -7.6 -7.6 -7.7 --- --- 3.5 NNW 0.06 4.3 -10.9 --- --- 731.5 0.018 0.000 8.2 9 1
02/01/06 6:00 p -7.7 -7.7 -7.7 --- --- 2.6 NNW 0.04 4.3 -10.2 --- --- 731.4 0.018 0.000 8.2 9 1
02/01/06 6:01 p -7.7 -7.7 -7.7 --- --- 2.6 NNW 0.04 3.5 -10.2 --- --- 731.4 0.018 0.000 8.2 9 1
02/01/06 6:02 p -7.7 -7.7 -7.7 --- --- 2.6 NNW 0.04 3.5 -10.2 --- --- 731.4 0.018 0.000 8.2 9 1
02/01/06 6:03 p -7.7 -7.7 -7.8 --- --- 3.5 NNW 0.06 4.3 -11.1 --- --- 731.4 0.018 0.000 8.2 9 1
02/01/06 6:04 p -7.7 -7.7 -7.8 --- --- 3.5 NNW 0.06 4.3 -11.1 --- --- 731.3 0.018 0.000 8.2 9 1
02/01/06 6:05 p -7.7 -7.7 -7.7 --- --- 2.6 NNW 0.04 4.3 -10.2 --- --- 731.4 0.018 0.000 8.2 9 1
02/01/06 6:06 p -7.7 -7.7 -7.7 --- --- 3.5 NNW 0.06 4.3 -11.1 --- --- 731.4 0.018 0.000 8.2 9 1
02/01/06 6:07 p -7.6 -7.6 -7.7 --- --- 3.5 NNW 0.06 5.2 -10.9 --- --- 731.5 0.018 0.000 8.2 9 1
02/01/06 6:08 p -7.6 -7.6 -7.6 --- --- 4.3 NNW 0.07 5.2 -11.7 --- --- 731.3 0.018 0.000 8.2 9 1
02/01/06 6:09 p -7.6 -7.6 -7.6 --- --- 4.3 NNW 0.07 5.2 -11.7 --- --- 731.4 0.018 0.000 8.2 9 1
02/01/06 6:10 p -7.7 -7.6 -7.7 --- --- 5.2 NNW 0.09 6.1 -12.3 --- --- 731.4 0.018 0.000 8.2 9 1
02/01/06 6:11 p -7.7 -7.7 -7.7 --- --- 4.3 NNW 0.07 5.2 -11.7 --- --- 731.4 0.018 0.000 8.2 9 1
02/01/06 6:12 p -7.7 -7.7 -7.8 --- --- 3.5 NNW 0.06 4.3 -11.1 --- --- 731.4 0.018 0.000 8.2 9 1
02/01/06 6:13 p -7.7 -7.7 -7.7 --- --- 3.5 NNW 0.06 5.2 -11.1 --- --- 731.4 0.018 0.000 8.2 9 1
02/01/06 6:14 p -7.8 -7.7 -7.8 --- --- 5.2 NNW 0.09 7.0 -12.4 --- --- 731.4 0.018 0.000 8.2 9 1
02/01/06 6:15 p -7.7 -7.7 -7.8 --- --- 5.2 NNW 0.09 6.1 -12.4 --- --- 731.3 0.018 0.000 8.2 9 1
02/01/06 6:16 p -7.7 -7.7 -7.8 --- --- 3.5 NNW 0.06 5.2 -11.1 --- --- 731.4 0.018 0.000 8.2 9 1
02/01/06 6:17 p -7.8 -7.8 -7.8 --- --- 4.3 NNW 0.07 6.1 -11.9 --- --- 731.3 0.018 0.000 8.2 9 1
02/01/06 6:18 p -7.8 -7.8 -7.9 --- --- 4.3 NNW 0.07 6.1 -11.9 --- --- 731.4 0.018 0.000 8.2 9 1
02/01/06 6:19 p -7.8 -7.8 -7.8 --- --- 5.2 NNW 0.09 6.1 -12.6 --- --- 731.4 0.018 0.000 8.2 9 1
02/01/06 6:20 p -7.9 -7.8 -7.9 --- --- 4.3 NNW 0.07 6.1 -12.0 --- --- 731.3 0.018 0.000 8.1 9 1
02/01/06 6:21 p -7.9 -7.9 -7.9 --- --- 6.1 NNW 0.10 7.0 -13.1 --- --- 731.3 0.018 0.000 8.1 9 1
02/01/06 6:22 p -7.9 -7.8 -7.9 --- --- 5.2 NNW 0.09 7.0 -12.6 --- --- 731.4 0.018 0.000 8.1 9 1
02/01/06 6:23 p -7.8 -7.8 -7.8 --- --- 5.2 NNW 0.09 6.1 -12.6 --- --- 731.3 0.018 0.000 8.1 9 1
02/01/06 6:24 p -7.8 -7.8 -7.8 --- --- 5.2 NNW 0.09 6.1 -12.4 --- --- 731.3 0.018 0.000 8.1 9 1
02/01/06 6:25 p -7.7 -7.7 -7.8 --- --- 4.3 NNW 0.07 5.2 -11.8 --- --- 731.3 0.018 0.000 8.2 9 1
02/01/06 6:26 p -7.8 -7.8 -7.8 --- --- 5.2 NNW 0.09 5.2 -12.4 --- --- 731.3 0.018 0.000 8.2 9 1
02/01/06 6:27 p -7.8 -7.8 -7.8 --- --- 4.3 NNW 0.07 6.1 -11.9 --- --- 731.4 0.018 0.000 8.2 9 1
02/01/06 6:28 p -7.9 -7.9 -7.9 --- --- 4.3 NNW 0.07 5.2 -12.0 --- --- 731.4 0.018 0.000 8.2 8 1
02/01/06 6:29 p -7.9 -7.9 -8.0 --- --- 6.1 NNW 0.10 7.0 -13.2 --- --- 731.3 0.018 0.000 8.2 9 1
02/01/06 6:30 p -8.0 -7.9 -8.0 --- --- 4.3 NNW 0.07 6.1 -12.1 --- --- 731.3 0.018 0.000 8.1 8 1
02/01/06 6:31 p -7.9 -7.9 -7.9 --- --- 4.3 NNW 0.07 6.1 -12.0 --- --- 731.3 0.018 0.000 8.1 9 1
02/01/06 6:32 p -7.9 -7.9 -7.9 --- --- 5.2 NNW 0.09 6.1 -12.6 --- --- 731.3 0.018 0.000 8.1 9 1
02/01/06 6:33 p -7.8 -7.8 -7.8 --- --- 5.2 NNW 0.09 6.1 -12.6 --- --- 731.4 0.018 0.000 8.1 8 1
02/01/06 6:34 p -7.8 -7.8 -7.8 --- --- 5.2 NNW 0.09 6.1 -12.6 --- --- 731.4 0.018 0.000 8.1 8 1
02/01/06 6:35 p -7.8 -7.8 -7.8 --- --- 6.1 NNW 0.10 7.0 -13.1 --- --- 731.4 0.018 0.000 8.1 8 1
02/01/06 6:36 p -7.9 -7.8 -7.9 --- --- 4.3 NNW 0.07 6.1 -12.0 --- --- 731.4 0.018 0.000 8.1 8 1
02/01/06 6:37 p -7.9 -7.9 -7.9 --- --- 6.1 NNW 0.10 6.1 -13.1 --- --- 731.4 0.018 0.000 8.1 8 1
02/01/06 6:38 p -7.8 -7.8 -7.9 --- --- 5.2 NNW 0.09 6.1 -12.6 --- --- 731.4 0.018 0.000 8.1 8 1
02/01/06 6:39 p -7.8 -7.8 -7.8 --- --- 5.2 NNW 0.09 6.1 -12.4 --- --- 731.4 0.018 0.000 8.1 8 1
02/01/06 6:40 p -7.8 -7.8 -7.9 --- --- 6.1 NNW 0.10 7.0 -13.1 --- --- 731.4 0.018 0.000 8.1 8 1
02/01/06 6:41 p -7.9 -7.9 -7.9 --- --- 5.2 NNW 0.09 6.1 -12.6 --- --- 731.4 0.018 0.000 8.1 9 1
02/01/06 6:42 p -7.9 -7.9 -7.9 --- --- 5.2 NNW 0.09 6.1 -12.6 --- --- 731.3 0.018 0.000 8.1 9 1
02/01/06 6:43 p -7.8 -7.8 -7.9 --- --- 5.2 NNW 0.09 6.1 -12.6 --- --- 731.4 0.018 0.000 8.1 8 1
02/01/06 6:44 p -7.8 -7.8 -7.9 --- --- 5.2 NW 0.09 6.1 -12.6 --- --- 731.3 0.018 0.000 8.1 9 1
02/01/06 6:45 p -7.8 -7.8 -7.8 --- --- 4.3 NW 0.07 5.2 -11.9 --- --- 731.3 0.018 0.000 8.1 8 1
02/01/06 6:46 p -7.8 -7.8 -7.8 --- --- 5.2 NNW 0.09 6.1 -12.4 --- --- 731.4 0.018 0.000 8.2 8 1
02/01/06 6:47 p -7.8 -7.8 -7.8 --- --- 4.3 NNW 0.07 6.1 -11.9 --- --- 731.3 0.018 0.000 8.2 8 1
02/01/06 6:48 p -7.9 -7.8 -7.9 --- --- 5.2 NNW 0.09 6.1 -12.6 --- --- 731.3 0.018 0.000 8.2 8 1
02/01/06 6:49 p -7.8 -7.8 -7.9 --- --- 4.3 NNW 0.07 6.1 -11.9 --- --- 731.3 0.018 0.000 8.2 8 1
02/01/06 6:50 p -7.8 -7.8 -7.8 --- --- 4.3 NW 0.07 5.2 -11.9 --- --- 731.4 0.018 0.000 8.2 8 1
02/01/06 6:51 p -7.8 -7.8 -7.8 --- --- 4.3 NW 0.07 5.2 -11.9 --- --- 731.4 0.018 0.000 8.2 8 1
02/01/06 6:52 p -7.8 -7.8 -7.8 --- --- 4.3 NW 0.07 6.1 -11.9 --- --- 731.4 0.018 0.000 8.2 8 1
02/01/06 6:53 p -7.8 -7.8 -7.8 --- --- 4.3 NW 0.07 5.2 -11.9 --- --- 731.4 0.018 0.000 8.2 8 1
02/01/06 6:54 p -7.7 -7.7 -7.7 --- --- 4.3 NW 0.07 5.2 -11.8 --- --- 731.4 0.018 0.000 8.2 8 1
02/01/06 6:55 p -7.8 -7.7 -7.8 --- --- 3.5 NW 0.06 4.3 -11.2 --- --- 731.4 0.018 0.000 8.2 8 1
02/01/06 6:56 p -7.8 -7.8 -7.8 --- --- 3.5 NW 0.06 4.3 -11.2 --- --- 731.4 0.018 0.000 8.2 8 1
02/01/06 6:57 p -7.8 -7.8 -7.8 --- --- 3.5 NW 0.06 4.3 -11.2 --- --- 731.3 0.018 0.000 8.2 8 1
02/01/06 6:58 p -7.8 -7.8 -7.8 --- --- 4.3 NW 0.07 6.1 -11.9 --- --- 731.5 0.018 0.000 8.2 8 1
02/01/06 6:59 p -7.8 -7.7 -7.8 --- --- 5.2 NW 0.09 5.2 -12.4 --- --- 731.4 0.018 0.000 8.2 8 1
02/01/06 7:00 p -7.7 -7.7 -7.8 --- --- 3.5 NW 0.06 4.3 -11.1 --- --- 731.4 0.018 0.000 8.2 8 1
02/01/06 7:01 p -7.7 -7.7 -7.7 --- --- 3.5 NW 0.06 4.3 -11.1 --- --- 731.4 0.018 0.000 8.2 8 1
02/01/06 7:02 p -7.7 -7.7 -7.7 --- --- 3.5 NW 0.06 5.2 -11.1 --- --- 731.4 0.018 0.000 8.2 8 1
02/01/06 7:03 p -7.7 -7.7 -7.7 --- --- 5.2 NW 0.09 6.1 -12.4 --- --- 731.4 0.018 0.000 8.2 8 1
02/01/06 7:04 p -7.7 -7.7 -7.7 --- --- 5.2 NW 0.09 6.1 -12.4 --- --- 731.3 0.018 0.000 8.2 8 1
02/01/06 7:05 p -7.7 -7.7 -7.7 --- --- 5.2 NW 0.09 6.1 -12.4 --- --- 731.3 0.018 0.000 8.2 8 1
02/01/06 7:06 p -7.7 -7.7 -7.7 --- --- 4.3 NW 0.07 5.2 -11.8 --- --- 731.4 0.018 0.000 8.2 8 1
02/01/06 7:07 p -7.7 -7.7 -7.7 --- --- 2.6 NW 0.04 4.3 -10.2 --- --- 731.4 0.018 0.000 8.2 8 1
02/01/06 7:08 p -7.7 -7.7 -7.7 --- --- 2.6 NW 0.04 3.5 -10.2 --- --- 731.4 0.018 0.000 8.2 8 1
02/01/06 7:09 p -7.7 -7.7 -7.7 --- --- 2.6 NW 0.04 3.5 -10.2 --- --- 731.4 0.018 0.000 8.2 8 1
02/01/06 7:10 p -7.7 -7.7 -7.7 --- --- 2.6 NW 0.04 3.5 -10.2 --- --- 731.5 0.018 0.000 8.2 8 1
02/01/06 7:11 p -7.7 -7.7 -7.8 --- --- 2.6 NW 0.04 3.5 -10.2 --- --- 731.4 0.018 0.000 8.2 8 1
02/01/06 7:12 p -7.7 -7.7 -7.7 --- --- 2.6 NW 0.04 3.5 -10.2 --- --- 731.5 0.018 0.000 8.2 8 1
02/01/06 7:13 p -7.8 -7.7 -7.8 --- --- 2.6 NW 0.04 3.5 -10.3 --- --- 731.4 0.018 0.000 8.2 8 1
02/01/06 7:14 p -7.7 -7.7 -7.8 --- --- 2.6 NW 0.04 3.5 -10.2 --- --- 731.5 0.018 0.000 8.2 8 1
02/01/06 7:15 p -7.8 -7.8 -7.8 --- --- 2.6 NW 0.04 3.5 -10.3 --- --- 731.4 0.018 0.000 8.2 8 1
02/01/06 7:16 p -7.8 -7.8 -7.8 --- --- 2.6 NW 0.04 2.6 -10.3 --- --- 731.4 0.018 0.000 8.2 8 1
02/01/06 7:17 p -7.8 -7.8 -7.8 --- --- 2.6 NW 0.04 2.6 -10.3 --- --- 731.4 0.018 0.000 8.2 8 1
02/01/06 7:18 p -7.8 -7.7 -7.8 --- --- 2.6 NW 0.04 3.5 -10.3 --- --- 731.4 0.018 0.000 8.2 8 1
02/01/06 7:19 p -7.8 -7.8 -7.8 --- --- 2.6 NW 0.04 2.6 -10.3 --- --- 731.5 0.018 0.000 8.2 8 1
02/01/06 7:20 p -7.8 -7.7 -7.8 --- --- 1.7 NW 0.03 3.5 -9.1 --- --- 731.5 0.018 0.000 8.2 8 1
02/01/06 7:21 p -7.8 -7.7 -7.8 --- --- 2.6 NW 0.04 2.6 -10.3 --- --- 731.4 0.018 0.000 8.2 8 1
02/01/06 7:22 p -7.7 -7.7 -7.8 --- --- 2.6 NW 0.04 3.5 -10.2 --- --- 731.4 0.018 0.000 8.2 8 1
02/01/06 7:23 p -7.7 -7.7 -7.7 --- --- 2.6 NW 0.04 2.6 -10.2 --- --- 731.4 0.018 0.000 8.2 8 1
02/01/06 7:24 p -7.7 -7.7 -7.7 --- --- 2.6 NW 0.04 3.5 -10.2 --- --- 731.4 0.018 0.000 8.2 8 1
02/01/06 7:25 p -7.7 -7.7 -7.7 --- --- 2.6 NW 0.04 2.6 -10.2 --- --- 731.5 0.018 0.000 8.2 8 1
02/01/06 7:26 p -7.7 -7.7 -7.7 --- --- 2.6 NW 0.04 2.6 -10.2 --- --- 731.5 0.018 0.000 8.2 8 1
02/01/06 7:27 p -7.7 -7.7 -7.7 --- --- 2.6 NW 0.04 2.6 -10.2 --- --- 731.5 0.018 0.000 8.2 8 1
02/01/06 7:28 p -7.7 -7.7 -7.7 --- --- 2.6 NW 0.04 2.6 -10.2 --- --- 731.5 0.018 0.000 8.2 8 1
02/01/06 7:29 p -7.7 -7.7 -7.7 --- --- 2.6 NW 0.04 3.5 -10.2 --- --- 731.5 0.018 0.000 8.2 8 1
02/01/06 7:30 p -7.7 -7.7 -7.7 --- --- 2.6 NW 0.04 3.5 -10.2 --- --- 731.5 0.018 0.000 8.2 8 1
02/01/06 7:31 p -7.7 -7.6 -7.7 --- --- 1.7 NW 0.03 2.6 -9.0 --- --- 731.5 0.018 0.000 8.2 8 1
02/01/06 7:32 p -7.7 -7.6 -7.7 --- --- 1.7 NW 0.03 2.6 -9.0 --- --- 731.6 0.018 0.000 8.2 8 1
02/01/06 7:33 p -7.6 -7.6 -7.6 --- --- 2.6 NW 0.04 2.6 -10.1 --- --- 731.5 0.018 0.000 8.2 8 1
02/01/06 7:34 p -7.6 -7.6 -7.6 --- --- 1.7 NW 0.03 2.6 -8.9 --- --- 731.4 0.018 0.000 8.2 8 1
02/01/06 7:35 p -7.6 -7.6 -7.6 --- --- 2.6 NW 0.04 2.6 -10.1 --- --- 731.5 0.018 0.000 8.2 8 1
02/01/06 7:36 p -7.6 -7.6 -7.6 --- --- 1.7 NW 0.03 2.6 -8.9 --- --- 731.4 0.018 0.000 8.2 8 1
02/01/06 7:37 p -7.5 -7.5 -7.6 --- --- 1.7 NW 0.03 2.6 -8.8 --- --- 731.5 0.018 0.000 8.2 8 1
02/01/06 7:38 p -7.5 -7.5 -7.5 --- --- 2.6 NW 0.04 3.5 -10.0 --- --- 731.5 0.018 0.000 8.2 8 1
02/01/06 7:39 p -7.4 -7.4 -7.5 --- --- 2.6 NW 0.04 3.5 -9.9 --- --- 731.5 0.018 0.000 8.2 8 1
02/01/06 7:40 p -7.4 -7.4 -7.4 --- --- 3.5 NW 0.06 3.5 -10.8 --- --- 731.5 0.018 0.000 8.2 8 1
02/01/06 7:41 p -7.4 -7.4 -7.4 --- --- 3.5 NW 0.06 4.3 -10.7 --- --- 731.4 0.018 0.000 8.2 8 1
02/01/06 7:42 p -7.4 -7.4 -7.4 --- --- 2.6 NW 0.04 3.5 -9.8 --- --- 731.5 0.018 0.000 8.2 8 1
02/01/06 7:43 p -7.4 -7.4 -7.4 --- --- 3.5 NW 0.06 3.5 -10.7 --- --- 731.5 0.018 0.000 8.2 8 1
02/01/06 7:44 p -7.4 -7.3 -7.4 --- --- 3.5 NW 0.06 4.3 -10.7 --- --- 731.5 0.018 0.000 8.2 8 1
02/01/06 7:45 p -7.3 -7.3 -7.4 --- --- 3.5 NW 0.06 4.3 -10.7 --- --- 731.5 0.018 0.000 8.2 8 1
02/01/06 7:46 p -7.4 -7.4 -7.4 --- --- 4.3 NW 0.07 5.2 -11.4 --- --- 731.4 0.018 0.000 8.2 8 1
02/01/06 7:47 p -7.3 -7.3 -7.4 --- --- 4.3 NW 0.07 5.2 -11.3 --- --- 731.5 0.018 0.000 8.2 8 1
02/01/06 7:48 p -7.4 -7.4 -7.4 --- --- 3.5 NNW 0.06 4.3 -10.7 --- --- 731.5 0.018 0.000 8.2 8 1
02/01/06 7:49 p -7.4 -7.4 -7.4 --- --- 3.5 NNW 0.06 4.3 -10.8 --- --- 731.5 0.018 0.000 8.2 8 1
02/01/06 7:50 p -7.4 -7.4 -7.5 --- --- 3.5 NNW 0.06 4.3 -10.8 --- --- 731.5 0.018 0.000 8.2 8 1
02/01/06 7:51 p -7.4 -7.4 -7.4 --- --- 3.5 NNW 0.06 3.5 -10.7 --- --- 731.5 0.018 0.000 8.2 8 1
02/01/06 7:52 p -7.4 -7.4 -7.4 --- --- 2.6 NNW 0.04 3.5 -9.8 --- --- 731.4 0.018 0.000 8.2 8 1
02/01/06 7:53 p -7.5 -7.4 -7.5 --- --- 2.6 NNW 0.04 3.5 -10.0 --- --- 731.5 0.018 0.000 8.2 8 1
02/01/06 7:54 p -7.4 -7.4 -7.4 --- --- 3.5 NNW 0.06 4.3 -10.8 --- --- 731.5 0.018 0.000 8.2 8 1
02/01/06 7:55 p -7.4 -7.3 -7.4 --- --- 3.5 NNW 0.06 4.3 -10.7 --- --- 731.5 0.018 0.000 8.2 8 1
02/01/06 7:56 p -7.3 -7.3 -7.3 --- --- 3.5 NNW 0.06 4.3 -10.6 --- --- 731.5 0.018 0.000 8.2 8 1
02/01/06 7:57 p -7.3 -7.3 -7.4 --- --- 3.5 NNW 0.06 3.5 -10.7 --- --- 731.6 0.018 0.000 8.2 8 1
02/01/06 7:58 p -7.4 -7.4 -7.4 --- --- 3.5 NNW 0.06 4.3 -10.7 --- --- 731.5 0.018 0.000 8.2 8 1
02/01/06 7:59 p -7.4 -7.4 -7.4 --- --- 3.5 NW 0.06 4.3 -10.7 --- --- 731.5 0.018 0.000 8.2 8 1
02/01/06 8:00 p -7.3 -7.3 -7.4 --- --- 4.3 NW 0.07 5.2 -11.3 --- --- 731.5 0.018 0.000 8.2 8 1
02/01/06 8:02 p -7.3 -7.3 -7.3 --- --- 4.3 NNW 0.07 5.2 -11.3 --- --- 731.5 0.018 0.000 8.2 8 1
02/01/06 8:03 p -7.3 -7.3 -7.3 --- --- 4.3 NNW 0.07 4.3 -11.3 --- --- 731.5 0.018 0.000 8.2 8 1
02/01/06 8:04 p -7.2 -7.2 -7.3 --- --- 4.3 NNW 0.07 5.2 -11.2 --- --- 731.5 0.018 0.000 8.2 8 1
02/01/06 8:05 p -7.2 -7.2 -7.2 --- --- 4.3 NNW 0.07 5.2 -11.2 --- --- 731.6 0.018 0.000 8.2 8 1
02/01/06 8:06 p -7.2 -7.2 -7.2 --- --- 4.3 NNW 0.07 5.2 -11.2 --- --- 731.5 0.018 0.000 8.2 8 1
02/01/06 8:07 p -7.2 -7.2 -7.2 --- --- 5.2 NNW 0.09 6.1 -11.7 --- --- 731.6 0.018 0.000 8.2 8 1
02/01/06 8:08 p -7.3 -7.3 -7.3 --- --- 5.2 NNW 0.09 6.1 -11.9 --- --- 731.6 0.018 0.000 8.2 8 1
02/01/06 8:09 p -7.3 -7.3 -7.3 --- --- 5.2 NNW 0.09 6.1 -11.9 --- --- 731.6 0.018 0.000 8.2 8 1
02/01/06 8:10 p -7.3 -7.2 -7.3 --- --- 5.2 NNW 0.09 6.1 -11.9 --- --- 731.5 0.018 0.000 8.3 8 1
02/01/06 8:11 p -7.2 -7.2 -7.3 --- --- 5.2 NNW 0.09 6.1 -11.8 --- --- 731.5 0.018 0.000 8.3 8 1
02/01/06 8:12 p -7.2 -7.2 -7.2 --- --- 5.2 NNW 0.09 6.1 -11.7 --- --- 731.5 0.018 0.000 8.3 8 1
02/01/06 8:13 p -7.1 -7.1 -7.1 --- --- 4.3 NNW 0.07 4.3 -11.1 --- --- 731.5 0.018 0.000 8.3 8 1
02/01/06 8:14 p -7.2 -7.1 -7.2 --- --- 3.5 NNW 0.06 4.3 -10.4 --- --- 731.4 0.018 0.000 8.3 8 1
02/01/06 8:15 p -7.2 -7.1 -7.2 --- --- 3.5 NNW 0.06 5.2 -10.4 --- --- 731.5 0.018 0.000 8.3 8 1
02/01/06 8:16 p -7.1 -7.1 -7.1 --- --- 3.5 NNW 0.06 5.2 -10.4 --- --- 731.5 0.018 0.000 8.3 8 1
02/01/06 8:17 p -7.2 -7.1 -7.3 --- --- 3.5 NNW 0.06 5.2 -10.4 --- --- 731.5 0.018 0.000 8.3 8 1
02/01/06 8:18 p -7.4 -7.3 -7.5 --- --- 4.3 NNW 0.07 5.2 -11.4 --- --- 731.5 0.018 0.000 8.3 8 1
02/01/06 8:19 p -7.5 -7.4 -7.5 --- --- 4.3 NNW 0.07 4.3 -11.6 --- --- 731.5 0.018 0.000 8.3 8 1
02/01/06 8:20 p -7.4 -7.4 -7.4 --- --- 4.3 NNW 0.07 5.2 -11.5 --- --- 731.6 0.018 0.000 8.3 8 1
02/01/06 8:21 p -7.4 -7.4 -7.4 --- --- 4.3 NNW 0.07 5.2 -11.5 --- --- 731.5 0.018 0.000 8.3 8 1
02/01/06 8:22 p -7.3 -7.3 -7.4 --- --- 5.2 NNW 0.09 6.1 -11.9 --- --- 731.5 0.018 0.000 8.2 8 1
02/01/06 8:23 p -7.4 -7.4 -7.5 --- --- 4.3 NNW 0.07 6.1 -11.5 --- --- 731.5 0.018 0.000 8.3 8 1
02/01/06 8:24 p -7.5 -7.4 -7.5 --- --- 6.1 NNW 0.10 7.0 -12.7 --- --- 731.5 0.018 0.000 8.3 8 1
02/01/06 8:25 p -7.4 -7.4 -7.5 --- --- 4.3 NNW 0.07 6.1 -11.5 --- --- 731.5 0.018 0.000 8.2 8 1
02/01/06 8:26 p -7.4 -7.4 -7.5 --- --- 5.2 NNW 0.09 7.0 -12.1 --- --- 731.5 0.018 0.000 8.3 8 1
02/01/06 8:27 p -7.5 -7.4 -7.5 --- --- 6.1 NNW 0.10 7.0 -12.7 --- --- 731.5 0.018 0.000 8.3 8 1
02/01/06 8:28 p -7.4 -7.4 -7.4 --- --- 5.2 NNW 0.09 6.1 -12.0 --- --- 731.5 0.018 0.000 8.3 8 1
02/01/06 8:29 p -7.3 -7.3 -7.4 --- --- 5.2 NNW 0.09 6.1 -11.9 --- --- 731.6 0.018 0.000 8.3 8 1
02/01/06 8:30 p -7.3 -7.3 -7.4 --- --- 5.2 NNW 0.09 6.1 -11.9 --- --- 731.5 0.018 0.000 8.3 8 1
02/01/06 8:31 p -7.3 -7.3 -7.4 --- --- 6.1 NNW 0.10 7.0 -12.4 --- --- 731.6 0.018 0.000 8.3 8 1
02/01/06 8:32 p -7.4 -7.4 -7.4 --- --- 6.1 NNW 0.10 6.1 -12.5 --- --- 731.5 0.018 0.000 8.2 8 1
02/01/06 8:33 p -7.4 -7.4 -7.4 --- --- 5.2 NNW 0.09 6.1 -12.1 --- --- 731.5 0.018 0.000 8.2 8 1
02/01/06 8:34 p -7.4 -7.3 -7.4 --- --- 5.2 NNW 0.09 5.2 -12.0 --- --- 731.5 0.018 0.000 8.2 8 1
02/01/06 8:35 p -7.3 -7.3 -7.3 --- --- 5.2 NNW 0.09 6.1 -11.9 --- --- 731.5 0.018 0.000 8.2 8 1
02/01/06 8:36 p -7.3 -7.3 -7.3 --- --- 5.2 NNW 0.09 5.2 -11.9 --- --- 731.5 0.018 0.000 8.2 8 1
02/01/06 8:37 p -7.3 -7.2 -7.3 --- --- 5.2 NNW 0.09 7.0 -11.9 --- --- 731.5 0.018 0.000 8.2 8 1
02/01/06 8:38 p -7.2 -7.2 -7.2 --- --- 5.2 NNW 0.09 6.1 -11.7 --- --- 731.6 0.018 0.000 8.2 8 1
02/01/06 8:39 p -7.1 -7.1 -7.2 --- --- 5.2 NNW 0.09 6.1 -11.7 --- --- 731.5 0.018 0.000 8.2 8 1
02/01/06 8:40 p -7.0 -6.9 -7.0 --- --- 5.2 NNW 0.09 6.1 -11.6 --- --- 731.6 0.018 0.000 8.2 8 1
02/01/06 8:41 p -7.0 -6.9 -7.0 --- --- 4.3 NNW 0.07 5.2 -10.9 --- --- 731.6 0.018 0.000 8.2 8 1
02/01/06 8:42 p -6.9 -6.9 -7.0 --- --- 5.2 NNW 0.09 6.1 -11.5 --- --- 731.6 0.018 0.000 8.2 8 1
02/01/06 8:43 p -7.0 -6.9 -7.0 --- --- 5.2 NNW 0.09 6.1 -11.6 --- --- 731.6 0.018 0.000 8.2 8 1
02/01/06 8:44 p -7.0 -6.9 -7.0 --- --- 6.1 NNW 0.10 6.1 -12.1 --- --- 731.6 0.018 0.000 8.2 8 1
02/01/06 8:45 p -6.9 -6.8 -6.9 --- --- 7.0 NNW 0.12 7.0 -12.4 --- --- 731.6 0.018 0.000 8.2 8 1
02/01/06 8:46 p -6.8 -6.8 -6.8 --- --- 5.2 NNW 0.09 6.1 -11.3 --- --- 731.5 0.017 0.000 8.3 8 1
02/01/06 8:47 p -6.8 -6.8 -6.8 --- --- 6.1 NNW 0.10 7.0 -11.8 --- --- 731.6 0.017 0.000 8.2 8 1
02/01/06 8:48 p -6.8 -6.8 -6.8 --- --- 7.0 NNW 0.12 7.8 -12.2 --- --- 731.5 0.017 0.000 8.2 8 1
02/01/06 8:49 p -6.9 -6.8 -7.0 --- --- 7.0 NNW 0.12 7.8 -12.4 --- --- 731.5 0.018 0.000 8.2 8 1
02/01/06 8:50 p -7.1 -7.1 -7.1 --- --- 7.0 NNW 0.12 7.8 -12.6 --- --- 731.5 0.018 0.000 8.2 8 1
02/01/06 8:51 p -7.0 -7.0 -7.0 --- --- 7.0 NW 0.12 7.8 -12.5 --- --- 731.5 0.018 0.000 8.2 8 1
02/01/06 8:52 p -7.1 -7.1 -7.1 --- --- 7.0 NW 0.12 7.8 -12.6 --- --- 731.5 0.018 0.000 8.2 8 1
02/01/06 8:53 p -7.0 -6.9 -7.1 --- --- 7.0 NW 0.12 7.8 -12.5 --- --- 731.5 0.018 0.000 8.2 8 1
02/01/06 8:54 p -7.0 -6.9 -7.0 --- --- 5.2 NW 0.09 7.0 -11.6 --- --- 731.5 0.018 0.000 8.2 8 1
02/01/06 8:55 p -6.9 -6.9 -6.9 --- --- 6.1 NW 0.10 7.0 -12.0 --- --- 731.6 0.018 0.000 8.2 8 1
02/01/06 8:56 p -6.9 -6.8 -6.9 --- --- 6.1 NW 0.10 7.0 -11.9 --- --- 731.5 0.018 0.000 8.2 8 1
02/01/06 8:57 p -6.9 -6.9 -6.9 --- --- 7.0 NW 0.12 7.8 -12.4 --- --- 731.5 0.018 0.000 8.2 8 1
02/01/06 8:58 p -7.0 -6.9 -7.0 --- --- 7.0 NNW 0.12 7.8 -12.5 --- --- 731.5 0.018 0.000 8.2 8 1
02/01/06 8:59 p -6.9 -6.9 -7.0 --- --- 7.0 NNW 0.12 8.7 -12.4 --- --- 731.5 0.018 0.000 8.2 8 1
02/01/06 9:00 p -7.1 -7.1 -7.2 --- --- 7.0 NNW 0.12 9.6 -12.6 --- --- 731.6 0.018 0.000 8.2 8 1
02/01/06 9:02 p -7.1 -7.1 -7.2 --- --- 7.8 NNW 0.13 9.6 -13.1 --- --- 731.5 0.018 0.000 8.2 8 1
02/01/06 9:03 p -7.1 -7.0 -7.1 --- --- 7.0 NNW 0.12 7.8 -12.6 --- --- 731.6 0.018 0.000 8.2 8 1
02/01/06 9:04 p -7.1 -7.0 -7.1 --- --- 6.1 NNW 0.10 7.0 -12.1 --- --- 731.6 0.018 0.000 8.2 8 1
02/01/06 9:05 p -7.1 -7.1 -7.1 --- --- 6.1 NNW 0.10 7.0 -12.1 --- --- 731.5 0.018 0.000 8.2 8 1
02/01/06 9:06 p -7.2 -7.2 -7.3 --- --- 6.1 NNW 0.10 7.8 -12.3 --- --- 731.5 0.018 0.000 8.2 8 1
02/01/06 9:07 p -7.2 -7.2 -7.2 --- --- 6.1 NNW 0.10 7.0 -12.2 --- --- 731.4 0.018 0.000 8.2 8 1
02/01/06 9:08 p -7.2 -7.1 -7.3 --- --- 7.0 NNW 0.12 7.8 -12.7 --- --- 731.4 0.018 0.000 8.3 8 1
02/01/06 9:09 p -7.1 -7.1 -7.1 --- --- 7.0 NW 0.12 7.8 -12.6 --- --- 731.4 0.018 0.000 8.2 8 1
02/01/06 9:10 p -7.2 -7.1 -7.2 --- --- 7.0 NNW 0.12 7.8 -12.7 --- --- 731.5 0.018 0.000 8.2 8 1
02/01/06 9:11 p -7.2 -7.2 -7.2 --- --- 5.2 NNW 0.09 7.0 -11.7 --- --- 731.5 0.018 0.000 8.3 8 1
02/01/06 9:12 p -7.1 -7.0 -7.2 --- --- 5.2 NNW 0.09 6.1 -11.7 --- --- 731.5 0.018 0.000 8.2 8 1
02/01/06 9:13 p -7.1 -7.1 -7.2 --- --- 7.8 NNW 0.13 10.4 -13.1 --- --- 731.5 0.018 0.000 8.2 8 1
02/01/06 9:14 p -7.1 -7.1 -7.2 --- --- 7.0 NW 0.12 8.7 -12.6 --- --- 731.5 0.018 0.000 8.2 8 1
02/01/06 9:15 p -7.1 -7.1 -7.1 --- --- 7.0 NNW 0.12 8.7 -12.6 --- --- 731.4 0.018 0.000 8.2 8 1
02/01/06 9:16 p -7.1 -7.1 -7.1 --- --- 7.0 NNW 0.12 7.8 -12.6 --- --- 731.5 0.018 0.000 8.2 8 1
02/01/06 9:17 p -7.0 -7.0 -7.1 --- --- 6.1 NNW 0.10 7.0 -12.1 --- --- 731.5 0.018 0.000 8.2 8 1
02/01/06 9:18 p -7.1 -7.1 -7.1 --- --- 7.0 NNW 0.12 7.8 -12.6 --- --- 731.5 0.018 0.000 8.2 8 1
02/01/06 9:19 p -7.2 -7.1 -7.2 --- --- 6.1 NNW 0.10 7.8 -12.2 --- --- 731.5 0.018 0.000 8.2 8 1
02/01/06 9:20 p -7.3 -7.3 -7.4 --- --- 7.8 NNW 0.13 8.7 -13.3 --- --- 731.4 0.018 0.000 8.2 8 1
02/01/06 9:21 p -7.4 -7.4 -7.4 --- --- 7.8 NNW 0.13 7.8 -13.4 --- --- 731.5 0.018 0.000 8.2 8 1
02/01/06 9:22 p -7.4 -7.4 -7.4 --- --- 7.0 NNW 0.12 7.8 -13.0 --- --- 731.4 0.018 0.000 8.2 8 1
02/01/06 9:23 p -7.3 -7.3 -7.4 --- --- 6.1 NNW 0.10 7.0 -12.4 --- --- 731.5 0.018 0.000 8.3 8 1
02/01/06 9:24 p -7.3 -7.2 -7.4 --- --- 7.0 NNW 0.12 7.8 -12.8 --- --- 731.5 0.018 0.000 8.3 8 1
02/01/06 9:25 p -7.3 -7.3 -7.3 --- --- 6.1 NNW 0.10 7.0 -12.4 --- --- 731.4 0.018 0.000 8.3 8 1
02/01/06 9:26 p -7.4 -7.3 -7.4 --- --- 7.0 NNW 0.12 8.7 -13.0 --- --- 731.5 0.018 0.000 8.2 8 1
02/01/06 9:27 p -7.3 -7.3 -7.4 --- --- 7.0 NW 0.12 8.7 -12.9 --- --- 731.5 0.018 0.000 8.2 8 1
02/01/06 9:28 p -7.2 -7.1 -7.2 --- --- 7.0 NNW 0.12 8.7 -12.7 --- --- 731.5 0.018 0.000 8.2 8 1
02/01/06 9:29 p -7.3 -7.2 -7.4 --- --- 5.2 NNW 0.09 7.0 -11.9 --- --- 731.4 0.018 0.000 8.2 8 1
02/01/06 9:30 p -7.4 -7.4 -7.4 --- --- 7.0 NNW 0.12 8.7 -13.1 --- --- 731.5 0.018 0.000 8.2 8 1
02/01/06 9:31 p -7.3 -7.3 -7.4 --- --- 6.1 NNW 0.10 7.8 -12.4 --- --- 731.4 0.018 0.000 8.3 8 1
02/01/06 9:32 p -7.3 -7.2 -7.3 --- --- 6.1 NNW 0.10 7.0 -12.4 --- --- 731.5 0.018 0.000 8.3 8 1
02/01/06 9:33 p -7.2 -7.2 -7.3 --- --- 7.8 NNW 0.13 8.7 -13.2 --- --- 731.4 0.018 0.000 8.3 8 1
02/01/06 9:34 p -7.4 -7.4 -7.4 --- --- 7.0 NNW 0.12 7.8 -13.0 --- --- 731.4 0.018 0.000 8.3 8 1
02/01/06 9:35 p -7.4 -7.3 -7.4 --- --- 7.0 NNW 0.12 8.7 -13.0 --- --- 731.5 0.018 0.000 8.3 8 1
02/01/06 9:36 p -7.3 -7.2 -7.3 --- --- 6.1 NNW 0.10 7.8 -12.4 --- --- 731.4 0.018 0.000 8.3 8 1
02/01/06 9:37 p -7.3 -7.3 -7.3 --- --- 7.0 NNW 0.12 7.8 -12.9 --- --- 731.4 0.018 0.000 8.3 8 1
02/01/06 9:38 p -7.3 -7.2 -7.3 --- --- 6.1 NNW 0.10 7.0 -12.4 --- --- 731.5 0.018 0.000 8.3 8 1
02/01/06 9:39 p -7.4 -7.3 -7.4 --- --- 7.0 NNW 0.12 7.0 -13.0 --- --- 731.5 0.018 0.000 8.3 8 1
02/01/06 9:40 p -7.3 -7.2 -7.3 --- --- 6.1 NNW 0.10 7.0 -12.4 --- --- 731.5 0.018 0.000 8.3 8 1
02/01/06 9:41 p -7.1 -7.1 -7.2 --- --- 7.0 NNW 0.12 7.8 -12.6 --- --- 731.5 0.018 0.000 8.4 8 1
02/01/06 9:42 p -7.2 -7.1 -7.2 --- --- 6.1 NNW 0.10 7.0 -12.2 --- --- 731.4 0.018 0.000 8.4 8 1
02/01/06 9:43 p -7.1 -7.1 -7.2 --- --- 5.2 NNW 0.09 6.1 -11.7 --- --- 731.5 0.018 0.000 8.4 8 1
02/01/06 9:44 p -7.1 -7.1 -7.2 --- --- 6.1 NNW 0.10 7.0 -12.2 --- --- 731.5 0.018 0.000 8.4 8 1
02/01/06 9:45 p -7.1 -7.1 -7.2 --- --- 6.1 NNW 0.10 7.0 -12.2 --- --- 731.5 0.018 0.000 8.4 8 1
02/01/06 9:46 p -7.1 -7.1 -7.1 --- --- 7.0 NNW 0.12 7.8 -12.6 --- --- 731.4 0.018 0.000 8.4 8 1
02/01/06 9:47 p -7.0 -6.9 -7.0 --- --- 5.2 NW 0.09 6.1 -11.6 --- --- 731.5 0.018 0.000 8.4 8 1
02/01/06 9:48 p -6.9 -6.9 -6.9 --- --- 5.2 NNW 0.09 6.1 -11.5 --- --- 731.5 0.018 0.000 8.4 8 1
02/01/06 9:49 p -6.9 -6.8 -6.9 --- --- 6.1 NNW 0.10 7.0 -11.9 --- --- 731.5 0.018 0.000 8.4 8 1
02/01/06 9:50 p -6.9 -6.8 -6.9 --- --- 5.2 NNW 0.09 7.0 -11.4 --- --- 731.5 0.018 0.000 8.4 8 1
02/01/06 9:51 p -6.9 -6.8 -6.9 --- --- 6.1 NNW 0.10 7.8 -11.9 --- --- 731.5 0.018 0.000 8.4 8 1
02/01/06 9:52 p -6.8 -6.8 -6.8 --- --- 7.0 NW 0.12 7.8 -12.3 --- --- 731.5 0.017 0.000 8.4 8 1
02/01/06 9:53 p -6.8 -6.8 -6.9 --- --- 5.2 NW 0.09 7.0 -11.3 --- --- 731.5 0.017 0.000 8.4 8 1
02/01/06 9:54 p -6.9 -6.9 -6.9 --- --- 5.2 NNW 0.09 6.1 -11.5 --- --- 731.4 0.018 0.000 8.3 8 1
02/01/06 9:55 p -7.0 -6.9 -7.1 --- --- 6.1 NNW 0.10 7.8 -12.1 --- --- 731.4 0.018 0.000 8.3 8 1
02/01/06 9:56 p -7.1 -7.0 -7.1 --- --- 5.2 NW 0.09 6.1 -11.6 --- --- 731.6 0.018 0.000 8.3 8 1
02/01/06 9:57 p -6.9 -6.8 -6.9 --- --- 5.2 NW 0.09 6.1 -11.4 --- --- 731.5 0.018 0.000 8.3 8 1
02/01/06 9:58 p -6.7 -6.7 -6.8 --- --- 4.3 NNW 0.07 5.2 -10.6 --- --- 731.5 0.017 0.000 8.3 8 1
02/01/06 9:59 p -6.7 -6.6 -6.7 --- --- 5.2 NW 0.09 6.1 -11.2 --- --- 731.5 0.017 0.000 8.3 8 1
02/01/06 10:00 p -6.7 -6.7 -6.7 --- --- 3.5 NW 0.06 5.2 -9.9 --- --- 731.5 0.017 0.000 8.3 8 1
02/01/06 10:01 p -6.7 -6.7 -6.7 --- --- 4.3 NW 0.07 6.1 -10.6 --- --- 731.5 0.017 0.000 8.3 8 1
02/01/06 10:02 p -6.8 -6.8 -6.8 --- --- 3.5 NW 0.06 4.3 -10.0 --- --- 731.5 0.017 0.000 8.3 8 1
02/01/06 10:03 p -6.7 -6.7 -6.8 --- --- 3.5 NW 0.06 5.2 -9.9 --- --- 731.6 0.017 0.000 8.3 8 1
02/01/06 10:04 p -6.7 -6.6 -6.7 --- --- 3.5 NW 0.06 4.3 -9.9 --- --- 731.5 0.017 0.000 8.3 7 1
02/01/06 10:05 p -6.6 -6.6 -6.6 --- --- 3.5 NW 0.06 5.2 -9.8 --- --- 731.6 0.017 0.000 8.3 8 1
02/01/06 10:06 p -6.6 -6.6 -6.6 --- --- 3.5 NW 0.06 5.2 -9.8 --- --- 731.6 0.017 0.000 8.3 8 1
02/01/06 10:07 p -6.6 -6.6 -6.6 --- --- 2.6 NW 0.04 3.5 -8.9 --- --- 731.6 0.017 0.000 8.3 8 1
02/01/06 10:08 p -6.5 -6.5 -6.6 --- --- 2.6 NW 0.04 3.5 -8.8 --- --- 731.6 0.017 0.000 8.3 8 1
02/01/06 10:09 p -6.5 -6.5 -6.6 --- --- 2.6 NW 0.04 3.5 -8.8 --- --- 731.5 0.017 0.000 8.3 8 1
02/01/06 10:10 p -6.4 -6.4 -6.5 --- --- 3.5 NW 0.06 4.3 -9.6 --- --- 731.5 0.017 0.000 8.3 8 1
02/01/06 10:11 p -6.4 -6.4 -6.4 --- --- 2.6 NNW 0.04 4.3 -8.7 --- --- 731.6 0.017 0.000 8.3 8 1
02/01/06 10:12 p -6.5 -6.4 -6.6 --- --- 4.3 NNW 0.07 5.2 -10.4 --- --- 731.6 0.017 0.000 8.3 7 1
02/01/06 10:13 p -6.6 -6.6 -6.6 --- --- 3.5 NW 0.06 4.3 -9.8 --- --- 731.6 0.017 0.000 8.3 7 1
02/01/06 10:14 p -6.5 -6.4 -6.5 --- --- 2.6 NW 0.04 4.3 -8.8 --- --- 731.6 0.017 0.000 8.3 7 1
02/01/06 10:15 p -6.4 -6.3 -6.4 --- --- 2.6 NW 0.04 4.3 -8.7 --- --- 731.6 0.017 0.000 8.3 7 1
02/01/06 10:16 p -6.4 -6.3 -6.4 --- --- 2.6 NNW 0.04 3.5 -8.7 --- --- 731.7 0.017 0.000 8.3 8 1
02/01/06 10:17 p -6.3 -6.2 -6.3 --- --- 3.5 NNW 0.06 4.3 -9.4 --- --- 731.6 0.017 0.000 8.3 8 1
02/01/06 10:18 p -6.2 -6.1 -6.2 --- --- 3.5 NW 0.06 5.2 -9.3 --- --- 731.7 0.017 0.000 8.3 7 1
02/01/06 10:19 p -6.2 -6.1 -6.3 --- --- 4.3 NW 0.07 7.0 -10.0 --- --- 731.6 0.017 0.000 8.3 7 1
02/01/06 10:20 p -6.4 -6.3 -6.4 --- --- 4.3 NNW 0.07 5.2 -10.2 --- --- 731.6 0.017 0.000 8.3 8 1
02/01/06 10:21 p -6.6 -6.4 -6.7 --- --- 4.3 NNW 0.07 6.1 -10.4 --- --- 731.6 0.017 0.000 8.3 7 1
02/01/06 10:22 p -6.7 -6.7 -6.7 --- --- 6.1 NNW 0.10 7.0 -11.7 --- --- 731.6 0.017 0.000 8.3 8 1
02/01/06 10:23 p -6.6 -6.5 -6.7 --- --- 5.2 NW 0.09 7.0 -11.1 --- --- 731.7 0.017 0.000 8.3 7 1
02/01/06 10:24 p -6.4 -6.4 -6.4 --- --- 4.3 NNW 0.07 6.1 -10.3 --- --- 731.6 0.017 0.000 8.3 7 1
02/01/06 10:25 p -6.4 -6.4 -6.5 --- --- 4.3 NW 0.07 6.1 -10.3 --- --- 731.6 0.017 0.000 8.3 8 1
02/01/06 10:26 p -6.5 -6.4 -6.5 --- --- 5.2 NW 0.09 7.0 -10.9 --- --- 731.6 0.017 0.000 8.3 8 1
02/01/06 10:27 p -6.3 -6.2 -6.4 --- --- 5.2 NW 0.09 6.1 -10.7 --- --- 731.6 0.017 0.000 8.3 8 1
02/01/06 10:28 p -6.2 -6.2 -6.2 --- --- 6.1 NW 0.10 7.0 -11.1 --- --- 731.6 0.017 0.000 8.3 8 1
02/01/06 10:29 p -6.2 -6.2 -6.3 --- --- 6.1 NW 0.10 7.8 -11.1 --- --- 731.6 0.017 0.000 8.3 7 1
02/01/06 10:30 p -6.2 -6.2 -6.3 --- --- 4.3 NW 0.07 5.2 -10.1 --- --- 731.6 0.017 0.000 8.3 8 1
02/01/06 10:31 p -6.2 -6.1 -6.2 --- --- 4.3 NW 0.07 5.2 -10.0 --- --- 731.5 0.017 0.000 8.3 8 1
02/01/06 10:32 p -6.1 -6.1 -6.1 --- --- 3.5 NW 0.06 5.2 -9.2 --- --- 731.6 0.017 0.000 8.3 8 1
02/01/06 10:33 p -6.1 -6.0 -6.1 --- --- 3.5 NW 0.06 5.2 -9.2 --- --- 731.5 0.017 0.000 8.3 8 1
02/01/06 10:34 p -6.0 -5.9 -6.1 --- --- 4.3 NW 0.07 5.2 -9.8 --- --- 731.6 0.017 0.000 8.3 8 1
02/01/06 10:35 p -6.0 -5.9 -6.1 --- --- 3.5 NNW 0.06 5.2 -9.1 --- --- 731.5 0.017 0.000 8.3 8 1
02/01/06 10:36 p -5.8 -5.8 -5.8 --- --- 4.3 NNW 0.07 6.1 -9.6 --- --- 731.6 0.017 0.000 8.3 8 1
02/01/06 10:37 p -6.0 -5.8 -6.2 --- --- 5.2 NNW 0.09 6.1 -10.3 --- --- 731.6 0.017 0.000 8.3 8 1
02/01/06 10:38 p -6.2 -6.2 -6.3 --- --- 4.3 NNW 0.07 6.1 -10.1 --- --- 731.6 0.017 0.000 8.3 8 1
02/01/06 10:39 p -6.1 -6.1 -6.2 --- --- 3.5 NW 0.06 4.3 -9.2 --- --- 731.6 0.017 0.000 8.3 8 1
02/01/06 10:40 p -6.1 -6.0 -6.2 --- --- 4.3 NNW 0.07 5.2 -9.9 --- --- 731.6 0.017 0.000 8.3 8 1
02/01/06 10:41 p -6.2 -6.2 -6.3 --- --- 4.3 NNW 0.07 5.2 -10.1 --- --- 731.6 0.017 0.000 8.3 8 1
02/01/06 10:42 p -6.4 -6.3 -6.4 --- --- 4.3 NNW 0.07 5.2 -10.2 --- --- 731.6 0.017 0.000 8.3 8 1
02/01/06 10:43 p -6.3 -6.3 -6.3 --- --- 4.3 NNW 0.07 5.2 -10.2 --- --- 731.6 0.017 0.000 8.3 8 1
02/01/06 10:44 p -6.3 -6.2 -6.3 --- --- 3.5 NW 0.06 5.2 -9.4 --- --- 731.6 0.017 0.000 8.3 8 1
02/01/06 10:45 p -6.4 -6.4 -6.5 --- --- 3.5 NW 0.06 4.3 -9.6 --- --- 731.6 0.017 0.000 8.3 8 1
02/01/06 10:46 p -6.4 -6.4 -6.4 --- --- 4.3 NW 0.07 5.2 -10.3 --- --- 731.7 0.017 0.000 8.3 8 1
02/01/06 10:47 p -6.3 -6.2 -6.3 --- --- 3.5 NNW 0.06 4.3 -9.4 --- --- 731.6 0.017 0.000 8.3 8 1
02/01/06 10:48 p -6.1 -6.0 -6.2 --- --- 2.6 NW 0.04 3.5 -8.4 --- --- 731.6 0.017 0.000 8.3 8 1
02/01/06 10:49 p -5.9 -5.9 -5.9 --- --- 3.5 NW 0.06 3.5 -9.1 --- --- 731.5 0.017 0.000 8.3 8 1
02/01/06 10:50 p -5.8 -5.8 -5.9 --- --- 3.5 NW 0.06 4.3 -8.9 --- --- 731.6 0.017 0.000 8.3 8 1
02/01/06 10:51 p -5.8 -5.8 -5.8 --- --- 3.5 NW 0.06 4.3 -8.8 --- --- 731.6 0.017 0.000 8.3 8 1
02/01/06 10:52 p -5.9 -5.9 -6.0 --- --- 2.6 NNW 0.04 4.3 -8.2 --- --- 731.6 0.017 0.000 8.3 8 1
02/01/06 10:53 p -5.9 -5.8 -5.9 --- --- 2.6 NNW 0.04 2.6 -8.2 --- --- 731.6 0.017 0.000 8.3 8 1
02/01/06 10:54 p -5.9 -5.8 -5.9 --- --- 3.5 NNW 0.06 4.3 -9.0 --- --- 731.6 0.017 0.000 8.3 8 1
02/01/06 10:55 p -5.9 -5.8 -5.9 --- --- 3.5 NNW 0.06 4.3 -9.0 --- --- 731.6 0.017 0.000 8.3 8 1
02/01/06 10:56 p -5.8 -5.7 -5.8 --- --- 2.6 NNW 0.04 3.5 -8.0 --- --- 731.6 0.017 0.000 8.3 8 1
02/01/06 10:57 p -5.7 -5.6 -5.7 --- --- 3.5 NNW 0.06 4.3 -8.8 --- --- 731.6 0.017 0.000 8.3 8 1
02/01/06 10:58 p -5.5 -5.4 -5.6 --- --- 3.5 NW 0.06 3.5 -8.6 --- --- 731.7 0.017 0.000 8.3 8 1
02/01/06 10:59 p -5.3 -5.2 -5.3 --- --- 1.7 NW 0.03 3.5 -6.4 --- --- 731.7 0.016 0.000 8.3 8 1
02/01/06 11:00 p -5.0 -4.8 -5.1 --- --- 0.0 --- 0.00 0.9 -5.0 --- --- 731.7 0.016 0.000 8.3 8 1
02/01/06 11:01 p -4.7 -4.6 -4.8 --- --- 0.9 NW 0.01 1.7 -4.7 --- --- 731.6 0.016 0.000 8.3 8 1
02/01/06 11:02 p -4.6 -4.5 -4.7 --- --- 0.9 NW 0.01 2.6 -4.6 --- --- 731.6 0.016 0.000 8.3 8 1
02/01/06 11:03 p -4.3 -4.1 -4.4 --- --- 1.7 NW 0.03 2.6 -5.3 --- --- 731.7 0.016 0.000 8.3 8 1
02/01/06 11:04 p -4.1 -4.1 -4.2 --- --- 1.7 NW 0.03 2.6 -5.1 --- --- 731.7 0.016 0.000 8.3 8 1
02/01/06 11:05 p -4.2 -4.1 -4.4 --- --- 1.7 NW 0.03 2.6 -5.2 --- --- 731.6 0.016 0.000 8.3 8 1
02/01/06 11:06 p -4.6 -4.6 -4.6 --- --- 0.0 NW 0.00 0.9 -4.6 --- --- 731.6 0.016 0.000 8.3 8 1
02/01/06 11:07 p -4.6 -4.6 -4.7 --- --- 0.9 NW 0.01 2.6 -4.6 --- --- 731.7 0.016 0.000 8.3 8 1
02/01/06 11:08 p -4.8 -4.8 -4.8 --- --- 0.0 NW 0.00 0.9 -4.8 --- --- 731.7 0.016 0.000 8.3 8 1
02/01/06 11:09 p -4.8 -4.7 -4.8 --- --- 0.0 --- 0.00 0.0 -4.8 --- --- 731.7 0.016 0.000 8.3 8 1
02/01/06 11:10 p -4.3 -4.1 -4.6 --- --- 0.0 NW 0.00 0.9 -4.3 --- --- 731.6 0.016 0.000 8.3 8 1
02/01/06 11:11 p -3.8 -3.6 -4.0 --- --- 0.0 NW 0.00 0.9 -3.8 --- --- 731.7 0.015 0.000 8.3 8 1
02/01/06 11:12 p -3.4 -3.3 -3.5 --- --- 0.9 NW 0.01 1.7 -3.4 --- --- 731.7 0.015 0.000 8.3 8 1
02/01/06 11:13 p -3.2 -3.1 -3.3 --- --- 0.9 NW 0.01 2.6 -3.2 --- --- 731.7 0.015 0.000 8.3 8 1
02/01/06 11:14 p -3.5 -3.4 -3.7 --- --- 0.9 NW 0.01 1.7 -3.5 --- --- 731.6 0.015 0.000 8.3 8 1
02/01/06 11:15 p -3.7 -3.6 -3.8 --- --- 0.0 NW 0.00 0.9 -3.7 --- --- 731.8 0.015 0.000 8.3 8 1
02/01/06 11:16 p -3.6 -3.4 -3.7 --- --- 0.0 NW 0.00 0.9 -3.6 --- --- 731.8 0.015 0.000 8.3 8 1
02/01/06 11:17 p -3.7 -3.6 -3.9 --- --- 1.7 NW 0.03 2.6 -4.6 --- --- 731.8 0.015 0.000 8.3 8 1
02/01/06 11:18 p -4.2 -4.1 -4.3 --- --- 0.9 NW 0.01 1.7 -4.2 --- --- 731.8 0.016 0.000 8.3 8 1
02/01/06 11:19 p -4.4 -4.4 -4.5 --- --- 0.0 NW 0.00 0.9 -4.4 --- --- 731.7 0.016 0.000 8.3 8 1
02/01/06 11:20 p -4.1 -3.6 -4.4 --- --- 0.0 --- 0.00 0.0 -4.1 --- --- 731.8 0.016 0.000 8.3 8 1
02/01/06 11:21 p -3.6 -3.4 -3.6 --- --- 0.0 --- 0.00 0.0 -3.6 --- --- 731.7 0.015 0.000 8.3 8 1
02/01/06 11:22 p -3.5 -3.4 -3.5 --- --- 0.0 NW 0.00 1.7 -3.5 --- --- 731.8 0.015 0.000 8.3 8 1
02/01/06 11:23 p -3.4 -3.4 -3.6 --- --- 0.9 NW 0.01 2.6 -3.4 --- --- 731.7 0.015 0.000 8.3 8 1
02/01/06 11:24 p -3.9 -3.7 -4.3 --- --- 0.9 NW 0.01 2.6 -3.9 --- --- 731.8 0.015 0.000 8.3 8 1
02/01/06 11:25 p -4.4 -4.4 -4.6 --- --- 0.9 NW 0.01 1.7 -4.4 --- --- 731.7 0.016 0.000 8.3 8 1
02/01/06 11:26 p -4.4 -4.3 -4.6 --- --- 0.0 --- 0.00 0.9 -4.4 --- --- 731.8 0.016 0.000 8.3 8 1
02/01/06 11:27 p -4.1 -3.9 -4.2 --- --- 0.0 NW 0.00 0.9 -4.1 --- --- 731.7 0.016 0.000 8.3 8 1
02/01/06 11:28 p -3.8 -3.6 -3.8 --- --- 0.0 NW 0.00 1.7 -3.8 --- --- 731.8 0.015 0.000 8.3 8 1
02/01/06 11:29 p -3.4 -3.3 -3.5 --- --- 0.9 NW 0.01 1.7 -3.4 --- --- 731.7 0.015 0.000 8.3 8 1
02/01/06 11:30 p -3.4 -3.3 -3.4 --- --- 0.9 NNW 0.01 1.7 -3.4 --- --- 731.7 0.015 0.000 8.3 8 1
02/01/06 11:31 p -3.4 -3.4 -3.5 --- --- 0.0 --- 0.00 0.0 -3.4 --- --- 731.7 0.015 0.000 8.3 8 1
02/01/06 11:32 p -3.3 -3.3 -3.4 --- --- 0.0 --- 0.00 0.0 -3.3 --- --- 731.7 0.015 0.000 8.3 8 1
02/01/06 11:33 p -3.3 -3.3 -3.5 --- --- 0.9 NNW 0.01 2.6 -3.3 --- --- 731.8 0.015 0.000 8.3 8 1
02/01/06 11:34 p -3.9 -3.7 -4.3 --- --- 1.7 NNW 0.03 2.6 -4.8 --- --- 731.7 0.015 0.000 8.3 8 1
02/01/06 11:35 p -4.5 -4.4 -4.6 --- --- 1.7 NNW 0.03 3.5 -5.5 --- --- 731.8 0.016 0.000 8.3 8 1
02/01/06 11:36 p -4.4 -4.4 -4.5 --- --- 1.7 NNW 0.03 3.5 -5.4 --- --- 731.7 0.016 0.000 8.3 8 1
02/01/06 11:37 p -4.2 -4.1 -4.3 --- --- 0.9 NNW 0.01 1.7 -4.2 --- --- 731.8 0.016 0.000 8.3 8 1
02/01/06 11:38 p -3.9 -3.8 -4.1 --- --- 0.0 NNW 0.00 0.9 -3.9 --- --- 731.7 0.015 0.000 8.3 8 1
02/01/06 11:39 p -3.7 -3.6 -3.7 --- --- 0.0 NNW 0.00 0.9 -3.7 --- --- 731.8 0.015 0.000 8.3 8 1
02/01/06 11:40 p -3.5 -3.4 -3.5 --- --- 0.0 NNW 0.00 0.9 -3.5 --- --- 731.8 0.015 0.000 8.3 8 1
02/01/06 11:41 p -3.4 -3.3 -3.4 --- --- 0.0 NNW 0.00 1.7 -3.4 --- --- 731.8 0.015 0.000 8.3 8 1
02/01/06 11:42 p -3.3 -3.2 -3.3 --- --- 0.0 NNW 0.00 0.9 -3.3 --- --- 731.9 0.015 0.000 8.3 8 1
02/01/06 11:43 p -3.1 -2.9 -3.2 --- --- 0.0 --- 0.00 0.0 -3.1 --- --- 731.9 0.015 0.000 8.3 8 1
02/01/06 11:44 p -3.1 -2.9 -3.2 --- --- 1.7 NW 0.03 2.6 -3.9 --- --- 731.8 0.015 0.000 8.3 8 1
02/01/06 11:45 p -3.3 -3.2 -3.3 --- --- 0.9 WNW 0.01 3.5 -3.3 --- --- 731.8 0.015 0.000 8.4 8 1
02/01/06 11:46 p -3.2 -3.1 -3.2 --- --- 5.2 ENE 0.09 7.0 -7.0 --- --- 731.9 0.015 0.000 8.4 8 1
02/01/06 11:47 p -2.9 -2.9 -3.0 --- --- 4.3 E 0.07 7.0 -6.2 --- --- 731.9 0.015 0.000 8.4 8 1
02/01/06 11:48 p -2.9 -2.9 -2.9 --- --- 4.3 E 0.07 7.0 -6.2 --- --- 731.9 0.015 0.000 8.4 8 1
02/01/06 11:49 p -3.0 -2.9 -3.1 --- --- 5.2 E 0.09 8.7 -6.8 --- --- 731.8 0.015 0.000 8.4 8 1
02/01/06 11:50 p -3.1 -3.1 -3.1 --- --- 6.1 E 0.10 8.7 -7.3 --- --- 731.9 0.015 0.000 8.4 8 1
02/01/06 11:51 p -3.2 -3.2 -3.3 --- --- 7.0 ENE 0.12 7.8 -7.9 --- --- 731.9 0.015 0.000 8.4 8 1
02/01/06 11:52 p -3.4 -3.3 -3.4 --- --- 6.1 ENE 0.10 8.7 -7.7 --- --- 731.8 0.015 0.000 8.4 8 1
02/01/06 11:53 p -3.4 -3.4 -3.4 --- --- 6.1 E 0.10 8.7 -7.8 --- --- 731.9 0.015 0.000 8.4 8 1
02/01/06 11:54 p -3.5 -3.5 -3.5 --- --- 7.8 ENE 0.13 9.6 -8.6 --- --- 731.8 0.015 0.000 8.4 8 1
02/01/06 11:55 p -3.6 -3.5 -3.6 --- --- 7.0 ENE 0.12 9.6 -8.3 --- --- 731.8 0.015 0.000 8.4 8 1
02/01/06 11:56 p -3.7 -3.6 -3.8 --- --- 7.8 ENE 0.13 9.6 -8.8 --- --- 731.9 0.015 0.000 8.4 8 1
02/01/06 11:57 p -3.8 -3.7 -3.8 --- --- 6.1 E 0.10 8.7 -8.2 --- --- 731.9 0.015 0.000 8.5 8 1
02/01/06 11:58 p -3.7 -3.6 -3.7 --- --- 5.2 E 0.09 7.8 -7.6 --- --- 731.9 0.015 0.000 8.5 8 1
02/01/06 11:59 p -3.6 -3.6 -3.6 --- --- 6.1 E 0.10 7.8 -7.9 --- --- 731.8 0.015 0.000 8.5 8 1
02/02/06 12:00 a -3.7 -3.6 -3.7 --- --- 7.0 E 0.12 8.7 -8.4 --- --- 732.0 0.015 0.000 8.5 8 1
02/02/06 12:01 a -3.7 -3.7 -3.8 --- --- 8.7 ENE 0.14 10.4 -9.2 --- --- 731.9 0.015 0.000 8.5 8 1
02/02/06 12:02 a -3.9 -3.8 -3.9 --- --- 9.6 E 0.16 12.2 -9.7 --- --- 731.9 0.015 0.000 8.5 8 1
02/02/06 12:03 a -4.1 -4.0 -4.1 --- --- 10.4 ENE 0.17 11.3 -10.2 --- --- 731.8 0.016 0.000 8.5 8 1
02/02/06 12:04 a -4.2 -4.2 -4.3 --- --- 10.4 ENE 0.17 12.2 -10.4 --- --- 731.9 0.016 0.000 8.5 8 1
02/02/06 12:05 a -4.3 -4.3 -4.3 --- --- 9.6 ENE 0.16 12.2 -10.2 --- --- 731.9 0.016 0.000 8.5 8 1
02/02/06 12:06 a -4.3 -4.2 -4.3 --- --- 9.6 ENE 0.16 11.3 -10.2 --- --- 731.9 0.016 0.000 8.5 8 1
02/02/06 12:07 a -4.2 -4.2 -4.2 --- --- 8.7 ENE 0.14 10.4 -9.8 --- --- 731.9 0.016 0.000 8.5 8 1
02/02/06 12:08 a -4.2 -4.2 -4.2 --- --- 8.7 E 0.14 10.4 -9.8 --- --- 731.9 0.016 0.000 8.5 8 1
02/02/06 12:09 a -4.3 -4.2 -4.4 --- --- 7.0 E 0.12 9.6 -9.2 --- --- 732.0 0.016 0.000 8.5 8 1
02/02/06 12:10 a -4.5 -4.4 -4.6 --- --- 7.8 E 0.13 9.6 -9.8 --- --- 731.9 0.016 0.000 8.5 8 1
02/02/06 12:11 a -4.6 -4.6 -4.7 --- --- 9.6 E 0.16 12.2 -10.6 --- --- 731.9 0.016 0.000 8.5 8 1
02/02/06 12:12 a -4.7 -4.6 -4.7 --- --- 8.7 ENE 0.14 11.3 -10.4 --- --- 731.9 0.016 0.000 8.5 8 1
02/02/06 12:13 a -4.5 -4.4 -4.6 --- --- 8.7 E 0.14 10.4 -10.2 --- --- 732.0 0.016 0.000 8.5 8 1
02/02/06 12:14 a -4.8 -4.7 -4.9 --- --- 8.7 E 0.14 11.3 -10.5 --- --- 731.9 0.016 0.000 8.5 8 1
02/02/06 12:15 a -5.0 -4.9 -5.1 --- --- 10.4 ENE 0.17 12.2 -11.4 --- --- 732.0 0.016 0.000 8.5 8 1
02/02/06 12:16 a -5.2 -5.1 -5.2 --- --- 9.6 E 0.16 12.2 -11.4 --- --- 732.0 0.016 0.000 8.5 8 1
02/02/06 12:17 a -5.3 -5.2 -5.3 --- --- 9.6 ENE 0.16 11.3 -11.4 --- --- 732.0 0.016 0.000 8.5 8 1
02/02/06 12:18 a -5.3 -5.3 -5.4 --- --- 8.7 E 0.14 12.2 -11.2 --- --- 732.0 0.016 0.000 8.5 8 1
02/02/06 12:19 a -5.6 -5.5 -5.7 --- --- 7.8 E 0.13 12.2 -11.2 --- --- 731.9 0.017 0.000 8.5 8 1
02/02/06 12:20 a -5.7 -5.6 -5.7 --- --- 8.7 E 0.14 12.2 -11.6 --- --- 732.0 0.017 0.000 8.5 8 1
02/02/06 12:21 a -5.7 -5.6 -5.7 --- --- 10.4 ENE 0.17 12.2 -12.2 --- --- 731.9 0.017 0.000 8.5 8 1
02/02/06 12:22 a -5.7 -5.7 -5.7 --- --- 9.6 ENE 0.16 11.3 -11.9 --- --- 731.9 0.017 0.000 8.5 8 1
02/02/06 12:23 a -5.8 -5.7 -5.9 --- --- 9.6 ENE 0.16 12.2 -12.1 --- --- 732.0 0.017 0.000 8.5 8 1
02/02/06 12:24 a -5.9 -5.9 -5.9 --- --- 11.3 ENE 0.19 12.2 -12.8 --- --- 731.9 0.017 0.000 8.5 8 1
02/02/06 12:25 a -5.8 -5.8 -5.9 --- --- 11.3 ENE 0.19 12.2 -12.7 --- --- 731.9 0.017 0.000 8.5 8 1
02/02/06 12:26 a -5.8 -5.8 -5.8 --- --- 10.4 ENE 0.17 11.3 -12.4 --- --- 731.9 0.017 0.000 8.5 8 1
02/02/06 12:27 a -5.7 -5.6 -5.8 --- --- 10.4 ENE 0.17 13.0 -12.3 --- --- 732.0 0.017 0.000 8.5 8 1
02/02/06 12:28 a -5.4 -5.4 -5.6 --- --- 12.2 ENE 0.20 13.0 -12.5 --- --- 731.9 0.017 0.000 8.5 8 1
02/02/06 12:29 a -5.4 -5.3 -5.4 --- --- 9.6 ENE 0.16 11.3 -11.6 --- --- 732.0 0.016 0.000 8.5 8 1
02/02/06 12:30 a -5.1 -5.0 -5.2 --- --- 9.6 ENE 0.16 13.0 -11.3 --- --- 732.0 0.016 0.000 8.5 8 1
02/02/06 12:31 a -5.0 -4.9 -5.1 --- --- 12.2 ENE 0.20 13.9 -11.9 --- --- 732.0 0.016 0.000 8.5 8 1
02/02/06 12:32 a -5.2 -5.2 -5.3 --- --- 10.4 ENE 0.17 11.3 -11.7 --- --- 732.1 0.016 0.000 8.5 8 1
02/02/06 12:33 a -5.6 -5.4 -5.8 --- --- 10.4 ENE 0.17 13.0 -12.1 --- --- 731.9 0.017 0.000 8.5 8 1
02/02/06 12:34 a -5.8 -5.8 -5.9 --- --- 13.0 ENE 0.22 13.9 -13.3 --- --- 732.0 0.017 0.000 8.5 8 1
02/02/06 12:35 a -6.1 -6.0 -6.1 --- --- 12.2 ENE 0.20 13.0 -13.3 --- --- 731.9 0.017 0.000 8.5 8 1
02/02/06 12:36 a -6.1 -6.1 -6.2 --- --- 12.2 ENE 0.20 13.9 -13.3 --- --- 732.0 0.017 0.000 8.5 8 1
02/02/06 12:37 a -6.1 -6.0 -6.2 --- --- 10.4 ENE 0.17 13.0 -12.8 --- --- 731.9 0.017 0.000 8.5 8 1
02/02/06 12:38 a -5.9 -5.8 -5.9 --- --- 13.0 ENE 0.22 15.7 -13.3 --- --- 732.0 0.017 0.000 8.5 9 1
02/02/06 12:39 a -5.8 -5.7 -5.8 --- --- 13.9 ENE 0.23 15.7 -13.4 --- --- 731.9 0.017 0.000 8.5 8 1
02/02/06 12:40 a -5.8 -5.8 -5.8 --- --- 13.0 ENE 0.22 15.7 -13.3 --- --- 731.9 0.017 0.000 8.5 8 1
02/02/06 12:41 a -5.8 -5.8 -5.9 --- --- 13.9 ENE 0.23 15.7 -13.5 --- --- 731.9 0.017 0.000 8.5 8 1
02/02/06 12:42 a -5.9 -5.8 -6.0 --- --- 13.9 ENE 0.23 15.7 -13.6 --- --- 732.0 0.017 0.000 8.5 8 1
02/02/06 12:43 a -6.1 -6.1 -6.1 --- --- 12.2 ENE 0.20 13.9 -13.3 --- --- 732.0 0.017 0.000 8.5 8 1
02/02/06 12:44 a -6.2 -6.2 -6.2 --- --- 13.0 ENE 0.22 16.5 -13.7 --- --- 732.0 0.017 0.000 8.5 8 1
02/02/06 12:45 a -6.3 -6.2 -6.3 --- --- 13.9 ENE 0.23 15.7 -14.1 --- --- 732.0 0.017 0.000 8.5 8 1
02/02/06 12:46 a -6.4 -6.3 -6.6 --- --- 13.9 ENE 0.23 15.7 -14.3 --- --- 732.0 0.017 0.000 8.5 8 1
02/02/06 12:47 a -6.6 -6.6 -6.7 --- --- 13.9 ENE 0.23 16.5 -14.5 --- --- 732.0 0.017 0.000 8.5 8 1
02/02/06 12:48 a -6.6 -6.4 -6.6 --- --- 13.0 ENE 0.22 14.8 -14.2 --- --- 732.1 0.017 0.000 8.5 9 1
02/02/06 12:49 a -6.3 -6.3 -6.4 --- --- 11.3 ENE 0.19 13.9 -13.4 --- --- 732.1 0.017 0.000 8.5 9 1
02/02/06 12:50 a -6.1 -6.0 -6.2 --- --- 13.9 ENE 0.23 17.4 -13.8 --- --- 731.8 0.017 0.000 8.5 8 1
02/02/06 12:51 a -6.2 -6.1 -6.3 --- --- 14.8 ENE 0.25 17.4 -14.2 --- --- 731.9 0.017 0.000 8.5 8 1
02/02/06 12:52 a -6.4 -6.3 -6.4 --- --- 13.0 ENE 0.22 16.5 -13.9 --- --- 732.1 0.017 0.000 8.5 8 1
02/02/06 12:53 a -6.3 -6.1 -6.3 --- --- 13.0 ENE 0.22 15.7 -13.8 --- --- 732.0 0.017 0.000 8.5 9 1
02/02/06 12:54 a -6.0 -5.9 -6.0 --- --- 15.7 ENE 0.26 18.3 -14.2 --- --- 731.9 0.017 0.000 8.5 8 1
02/02/06 12:55 a -5.9 -5.8 -6.0 --- --- 13.9 ENE 0.23 17.4 -13.6 --- --- 732.0 0.017 0.000 8.5 8 1
02/02/06 12:56 a -5.9 -5.9 -6.0 --- --- 14.8 ENE 0.25 17.4 -13.8 --- --- 732.0 0.017 0.000 8.5 8 1
02/02/06 12:57 a -5.7 -5.4 -5.9 --- --- 14.8 ENE 0.25 17.4 -13.6 --- --- 732.0 0.017 0.000 8.5 9 1
02/02/06 12:58 a -5.3 -5.1 -5.4 --- --- 13.9 ENE 0.23 15.7 -12.8 --- --- 732.0 0.016 0.000 8.5 8 1
02/02/06 12:59 a -4.9 -4.9 -5.0 --- --- 15.7 ENE 0.26 17.4 -12.8 --- --- 731.9 0.016 0.000 8.5 9 1
02/02/06 1:00 a -5.0 -4.9 -5.0 --- --- 13.9 ENE 0.23 16.5 -12.4 --- --- 732.1 0.016 0.000 8.5 8 1
02/02/06 1:02 a -4.8 -4.8 -4.8 --- --- 12.2 ENE 0.20 15.7 -11.7 --- --- 732.1 0.016 0.000 8.6 8 1
02/02/06 1:03 a -4.9 -4.8 -5.1 --- --- 14.8 ENE 0.25 17.4 -12.5 --- --- 732.1 0.016 0.000 8.6 8 1
02/02/06 1:04 a -5.1 -5.1 -5.2 --- --- 15.7 ENE 0.26 17.4 -13.0 --- --- 732.0 0.016 0.000 8.6 8 1
02/02/06 1:05 a -5.2 -5.1 -5.3 --- --- 13.9 ENE 0.23 16.5 -12.6 --- --- 732.1 0.016 0.000 8.6 8 1
02/02/06 1:06 a -5.3 -5.3 -5.3 --- --- 15.7 ENE 0.26 18.3 -13.2 --- --- 732.0 0.016 0.000 8.6 8 1
02/02/06 1:07 a -5.3 -5.2 -5.4 --- --- 15.7 ENE 0.26 18.3 -13.3 --- --- 732.0 0.016 0.000 8.6 8 1
02/02/06 1:08 a -5.4 -5.3 -5.4 --- --- 13.0 ENE 0.22 14.8 -12.7 --- --- 732.1 0.016 0.000 8.6 8 1
02/02/06 1:09 a -5.4 -5.3 -5.4 --- --- 16.5 ENE 0.28 18.3 -13.6 --- --- 731.9 0.016 0.000 8.6 8 1
02/02/06 1:10 a -5.4 -5.4 -5.5 --- --- 15.7 ENE 0.26 17.4 -13.4 --- --- 732.0 0.017 0.000 8.6 8 1
02/02/06 1:11 a -5.5 -5.4 -5.5 --- --- 14.8 ENE 0.25 18.3 -13.3 --- --- 731.9 0.017 0.000 8.6 8 1
02/02/06 1:12 a -5.6 -5.6 -5.7 --- --- 16.5 ENE 0.28 17.4 -13.8 --- --- 732.0 0.017 0.000 8.6 8 1
02/02/06 1:13 a -5.4 -5.3 -5.5 --- --- 15.7 ENE 0.26 18.3 -13.4 --- --- 732.0 0.017 0.000 8.6 8 1
02/02/06 1:14 a -5.4 -5.3 -5.6 --- --- 14.8 ENE 0.25 16.5 -13.2 --- --- 732.0 0.016 0.000 8.6 8 1
02/02/06 1:15 a -5.7 -5.6 -5.7 --- --- 14.8 ENE 0.25 16.5 -13.5 --- --- 731.9 0.017 0.000 8.6 8 1
02/02/06 1:16 a -5.6 -5.6 -5.6 --- --- 15.7 ENE 0.26 16.5 -13.6 --- --- 732.0 0.017 0.000 8.6 8 1
02/02/06 1:17 a -5.7 -5.6 -5.8 --- --- 15.7 ENE 0.26 17.4 -13.7 --- --- 731.9 0.017 0.000 8.6 8 1
02/02/06 1:18 a -5.9 -5.8 -6.0 --- --- 16.5 ENE 0.28 19.1 -14.2 --- --- 732.0 0.017 0.000 8.6 8 1
02/02/06 1:19 a -5.7 -5.6 -5.8 --- --- 15.7 ENE 0.26 17.4 -13.8 --- --- 732.0 0.017 0.000 8.6 8 1
02/02/06 1:20 a -5.5 -5.4 -5.6 --- --- 15.7 ENE 0.26 17.4 -13.5 --- --- 732.0 0.017 0.000 8.6 8 1
02/02/06 1:21 a -5.4 -5.3 -5.5 --- --- 13.0 ENE 0.22 15.7 -12.7 --- --- 731.9 0.016 0.000 8.6 8 1
02/02/06 1:22 a -5.3 -5.3 -5.4 --- --- 13.0 ENE 0.22 14.8 -12.6 --- --- 731.9 0.016 0.000 8.6 8 1
02/02/06 1:23 a -5.4 -5.4 -5.5 --- --- 13.9 ENE 0.23 16.5 -13.0 --- --- 731.9 0.017 0.000 8.6 8 1
02/02/06 1:24 a -5.5 -5.4 -5.5 --- --- 13.0 ENE 0.22 16.5 -12.8 --- --- 731.9 0.017 0.000 8.6 8 1
02/02/06 1:25 a -5.5 -5.4 -5.6 --- --- 13.9 ENE 0.23 15.7 -13.1 --- --- 732.0 0.017 0.000 8.6 8 1
02/02/06 1:26 a -5.6 -5.6 -5.7 --- --- 14.8 ENE 0.25 16.5 -13.4 --- --- 731.9 0.017 0.000 8.6 8 1
02/02/06 1:27 a -5.6 -5.6 -5.7 --- --- 13.9 ENE 0.23 15.7 -13.2 --- --- 731.9 0.017 0.000 8.6 8 1
02/02/06 1:28 a -5.7 -5.6 -5.8 --- --- 15.7 ENE 0.26 17.4 -13.7 --- --- 732.0 0.017 0.000 8.6 8 1
02/02/06 1:29 a -5.8 -5.8 -5.8 --- --- 13.9 ENE 0.23 18.3 -13.5 --- --- 731.9 0.017 0.000 8.6 8 1
02/02/06 1:30 a -5.8 -5.8 -5.9 --- --- 12.2 E 0.20 17.4 -13.0 --- --- 731.9 0.017 0.000 8.6 8 1
02/02/06 1:31 a -6.0 -5.9 -6.1 --- --- 13.0 ENE 0.22 14.8 -13.4 --- --- 731.9 0.017 0.000 8.6 8 1
02/02/06 1:32 a -6.1 -6.0 -6.1 --- --- 13.9 E 0.23 15.7 -13.8 --- --- 732.0 0.017 0.000 8.6 8 1
02/02/06 1:33 a -5.9 -5.9 -6.1 --- --- 13.0 E 0.22 14.8 -13.4 --- --- 731.8 0.017 0.000 8.6 8 1
02/02/06 1:34 a -5.9 -5.9 -6.0 --- --- 12.2 E 0.20 14.8 -13.2 --- --- 731.9 0.017 0.000 8.6 8 1
02/02/06 1:35 a -5.9 -5.8 -6.0 --- --- 11.3 E 0.19 14.8 -12.9 --- --- 731.9 0.017 0.000 8.6 8 1
02/02/06 1:36 a -5.8 -5.8 -5.8 --- --- 13.0 ENE 0.22 15.7 -13.3 --- --- 731.9 0.017 0.000 8.6 8 1
02/02/06 1:37 a -5.8 -5.7 -5.8 --- --- 12.2 ENE 0.20 14.8 -12.9 --- --- 732.0 0.017 0.000 8.6 8 1
02/02/06 1:38 a -5.8 -5.8 -5.9 --- --- 13.0 ENE 0.22 16.5 -13.3 --- --- 731.9 0.017 0.000 8.6 8 1
02/02/06 1:39 a -5.9 -5.9 -5.9 --- --- 13.0 ENE 0.22 15.7 -13.4 --- --- 731.9 0.017 0.000 8.6 8 1
02/02/06 1:40 a -5.9 -5.9 -5.9 --- --- 13.0 ENE 0.22 14.8 -13.3 --- --- 731.8 0.017 0.000 8.7 8 1
02/02/06 1:41 a -5.7 -5.6 -5.8 --- --- 12.2 E 0.20 14.8 -12.9 --- --- 731.9 0.017 0.000 8.7 8 1
02/02/06 1:42 a -5.7 -5.6 -5.7 --- --- 12.2 E 0.20 15.7 -12.8 --- --- 731.8 0.017 0.000 8.7 8 1
02/02/06 1:43 a -5.8 -5.8 -5.8 --- --- 14.8 ENE 0.25 16.5 -13.7 --- --- 731.8 0.017 0.000 8.7 8 1
02/02/06 1:44 a -5.8 -5.8 -5.9 --- --- 13.0 ENE 0.22 15.7 -13.3 --- --- 731.7 0.017 0.000 8.7 8 1
02/02/06 1:45 a -5.7 -5.7 -5.8 --- --- 13.0 ENE 0.22 14.8 -13.1 --- --- 731.8 0.017 0.000 8.7 9 1
02/02/06 1:46 a -5.6 -5.5 -5.7 --- --- 13.9 ENE 0.23 15.7 -13.2 --- --- 731.8 0.017 0.000 8.7 9 1
02/02/06 1:47 a -5.6 -5.5 -5.7 --- --- 13.9 ENE 0.23 16.5 -13.2 --- --- 731.7 0.017 0.000 8.7 9 1
02/02/06 1:48 a -5.7 -5.7 -5.7 --- --- 14.8 ENE 0.25 16.5 -13.6 --- --- 731.8 0.017 0.000 8.7 9 1
02/02/06 1:49 a -5.7 -5.5 -5.7 --- --- 14.8 ENE 0.25 16.5 -13.5 --- --- 731.7 0.017 0.000 8.7 9 1
02/02/06 1:50 a -5.6 -5.5 -5.6 --- --- 13.0 E 0.22 15.7 -12.9 --- --- 731.8 0.017 0.000 8.7 8 1
02/02/06 1:51 a -5.6 -5.6 -5.6 --- --- 14.8 ENE 0.25 16.5 -13.3 --- --- 731.8 0.017 0.000 8.7 9 1
02/02/06 1:52 a -5.7 -5.7 -5.8 --- --- 16.5 ENE 0.28 19.1 -14.0 --- --- 731.7 0.017 0.000 8.7 8 1
02/02/06 1:53 a -5.9 -5.8 -5.9 --- --- 15.7 ENE 0.26 17.4 -14.0 --- --- 731.8 0.017 0.000 8.7 9 1
02/02/06 1:54 a -6.0 -6.0 -6.1 --- --- 15.7 ENE 0.26 18.3 -14.2 --- --- 731.8 0.017 0.000 8.7 8 1
02/02/06 1:55 a -5.9 -5.8 -6.0 --- --- 16.5 ENE 0.28 19.1 -14.2 --- --- 731.7 0.017 0.000 8.8 9 1
02/02/06 1:56 a -5.8 -5.8 -5.8 --- --- 14.8 ENE 0.25 16.5 -13.7 --- --- 731.7 0.017 0.000 8.8 9 1
02/02/06 1:57 a -5.7 -5.7 -5.8 --- --- 16.5 ENE 0.28 19.1 -14.0 --- --- 731.8 0.017 0.000 8.8 8 1
02/02/06 1:58 a -5.8 -5.8 -5.9 --- --- 17.4 ENE 0.29 19.1 -14.3 --- --- 731.8 0.017 0.000 8.8 8 1
02/02/06 1:59 a -5.8 -5.8 -5.9 --- --- 13.9 ENE 0.23 16.5 -13.5 --- --- 731.7 0.017 0.000 8.8 8 1
02/02/06 2:00 a -5.8 -5.8 -5.8 --- --- 15.7 ENE 0.26 17.4 -13.9 --- --- 731.7 0.017 0.000 8.8 8 1
02/02/06 2:02 a -5.8 -5.8 -5.8 --- --- 15.7 ENE 0.26 20.0 -13.9 --- --- 731.7 0.017 0.000 8.8 8 1
02/02/06 2:03 a -5.8 -5.8 -5.9 --- --- 17.4 ENE 0.29 20.0 -14.3 --- --- 731.8 0.017 0.000 8.8 8 1
02/02/06 2:04 a -5.8 -5.8 -5.9 --- --- 15.7 ENE 0.26 20.0 -13.9 --- --- 731.7 0.017 0.000 8.8 8 1
02/02/06 2:05 a -5.9 -5.9 -6.0 --- --- 18.3 ENE 0.30 19.1 -14.7 --- --- 731.8 0.017 0.000 8.8 8 1
02/02/06 2:06 a -5.9 -5.9 -6.0 --- --- 15.7 ENE 0.26 19.1 -14.1 --- --- 731.7 0.017 0.000 8.8 8 1
02/02/06 2:07 a -6.1 -6.1 -6.1 --- --- 17.4 ENE 0.29 20.0 -14.6 --- --- 731.8 0.017 0.000 8.8 8 1
02/02/06 2:08 a -6.0 -5.9 -6.0 --- --- 13.0 ENE 0.22 15.7 -13.4 --- --- 731.8 0.017 0.000 8.8 8 1
02/02/06 2:09 a -5.8 -5.7 -5.9 --- --- 17.4 ENE 0.29 19.1 -14.3 --- --- 731.9 0.017 0.000 8.9 8 1
02/02/06 2:10 a -5.7 -5.7 -5.7 --- --- 12.2 ENE 0.20 16.5 -12.9 --- --- 731.9 0.017 0.000 8.9 8 1
02/02/06 2:11 a -5.7 -5.7 -5.7 --- --- 15.7 ENE 0.26 20.9 -13.7 --- --- 731.7 0.017 0.000 8.9 8 1
02/02/06 2:12 a -5.8 -5.7 -5.9 --- --- 20.0 ENE 0.33 22.6 -14.8 --- --- 731.8 0.017 0.000 8.9 8 1
02/02/06 2:13 a -5.8 -5.8 -5.8 --- --- 15.7 ENE 0.26 18.3 -13.9 --- --- 731.8 0.017 0.000 8.9 8 1
02/02/06 2:14 a -5.8 -5.8 -5.9 --- --- 16.5 ENE 0.28 20.0 -14.1 --- --- 731.7 0.017 0.000 8.9 8 1
02/02/06 2:15 a -6.0 -5.9 -6.0 --- --- 19.1 ENE 0.32 20.9 -14.9 --- --- 731.7 0.017 0.000 9.0 8 1
02/02/06 2:16 a -6.0 -5.9 -6.1 --- --- 16.5 ENE 0.28 20.0 -14.3 --- --- 731.7 0.017 0.000 8.9 8 1
02/02/06 2:17 a -5.9 -5.9 -6.0 --- --- 17.4 ENE 0.29 19.1 -14.5 --- --- 731.7 0.017 0.000 8.9 8 1
02/02/06 2:18 a -6.0 -5.9 -6.1 --- --- 16.5 ENE 0.28 19.1 -14.3 --- --- 731.8 0.017 0.000 8.9 8 1
02/02/06 2:19 a -6.1 -6.1 -6.1 --- --- 15.7 ENE 0.26 18.3 -14.3 --- --- 731.8 0.017 0.000 9.0 8 1
02/02/06 2:20 a -6.0 -5.9 -6.1 --- --- 16.5 ENE 0.28 20.0 -14.3 --- --- 731.7 0.017 0.000 9.0 8 1
02/02/06 2:21 a -5.9 -5.9 -5.9 --- --- 16.5 ENE 0.28 20.0 -14.3 --- --- 731.8 0.017 0.000 9.0 8 1
02/02/06 2:22 a -5.8 -5.8 -5.9 --- --- 17.4 ENE 0.29 20.9 -14.3 --- --- 731.7 0.017 0.000 8.9 8 1
02/02/06 2:23 a -6.0 -6.0 -6.1 --- --- 16.5 ENE 0.28 18.3 -14.3 --- --- 731.9 0.017 0.000 9.0 8 1
02/02/06 2:24 a -6.1 -6.0 -6.1 --- --- 17.4 ENE 0.29 19.1 -14.6 --- --- 731.7 0.017 0.000 9.0 8 1
02/02/06 2:25 a -6.0 -6.0 -6.0 --- --- 17.4 ENE 0.29 19.1 -14.6 --- --- 731.7 0.017 0.000 9.0 8 1
02/02/06 2:26 a -6.1 -6.0 -6.2 --- --- 16.5 ENE 0.28 18.3 -14.5 --- --- 731.7 0.017 0.000 9.0 8 1
02/02/06 2:27 a -6.1 -6.1 -6.1 --- --- 17.4 ENE 0.29 20.0 -14.6 --- --- 731.8 0.017 0.000 9.0 8 1
02/02/06 2:28 a -6.1 -6.1 -6.2 --- --- 13.9 ENE 0.23 22.6 -13.8 --- --- 731.7 0.017 0.000 9.0 8 1
02/02/06 2:29 a -6.2 -6.2 -6.2 --- --- 18.3 ENE 0.30 22.6 -14.9 --- --- 731.8 0.017 0.000 9.0 8 1
02/02/06 2:30 a -6.2 -6.2 -6.2 --- --- 16.5 ENE 0.28 20.9 -14.7 --- --- 731.6 0.017 0.000 9.1 8 1
02/02/06 2:31 a -6.3 -6.3 -6.3 --- --- 16.5 ENE 0.28 20.0 -14.7 --- --- 731.7 0.017 0.000 9.1 8 1
02/02/06 2:32 a -6.2 -6.2 -6.2 --- --- 14.8 ENE 0.25 18.3 -14.2 --- --- 731.8 0.017 0.000 9.0 8 1
02/02/06 2:33 a -6.2 -6.2 -6.3 --- --- 17.4 ENE 0.29 20.0 -14.8 --- --- 731.7 0.017 0.000 9.0 8 1
02/02/06 2:34 a -6.1 -6.1 -6.2 --- --- 14.8 ENE 0.25 20.0 -14.1 --- --- 731.6 0.017 0.000 9.0 8 1
02/02/06 2:35 a -6.0 -5.9 -6.0 --- --- 16.5 ENE 0.28 19.1 -14.3 --- --- 731.8 0.017 0.000 9.1 8 1
02/02/06 2:36 a -5.8 -5.8 -5.9 --- --- 13.9 ENE 0.23 20.0 -13.5 --- --- 731.7 0.017 0.000 9.1 8 1
02/02/06 2:37 a -5.9 -5.9 -6.0 --- --- 16.5 ENE 0.28 19.1 -14.3 --- --- 731.7 0.017 0.000 9.1 8 1
02/02/06 2:38 a -6.1 -6.1 -6.2 --- --- 13.9 NE 0.23 20.0 -13.8 --- --- 731.8 0.017 0.000 9.1 8 1
02/02/06 2:39 a -6.1 -6.0 -6.2 --- --- 9.6 ENE 0.16 15.7 -12.5 --- --- 731.7 0.017 0.000 9.1 8 1
02/02/06 2:40 a -6.1 -5.9 -6.2 --- --- 18.3 ENE 0.30 21.7 -14.8 --- --- 731.6 0.017 0.000 9.1 8 1
02/02/06 2:41 a -6.2 -6.2 -6.2 --- --- 15.7 ENE 0.26 19.1 -14.4 --- --- 731.8 0.017 0.000 9.1 8 1
02/02/06 2:42 a -5.9 -5.8 -6.1 --- --- 13.0 ENE 0.22 19.1 -13.4 --- --- 731.7 0.017 0.000 9.1 8 1
02/02/06 2:43 a -5.8 -5.8 -5.9 --- --- 16.5 NE 0.28 19.1 -14.1 --- --- 731.7 0.017 0.000 9.1 8 1
02/02/06 2:44 a -5.8 -5.8 -5.9 --- --- 13.9 ENE 0.23 16.5 -13.5 --- --- 731.7 0.017 0.000 9.1 8 1
02/02/06 2:45 a -5.7 -5.6 -5.7 --- --- 16.5 ENE 0.28 20.9 -13.9 --- --- 731.6 0.017 0.000 9.1 8 1
02/02/06 2:46 a -5.8 -5.7 -5.9 --- --- 15.7 ENE 0.26 20.0 -13.8 --- --- 731.7 0.017 0.000 9.1 8 1
02/02/06 2:47 a -5.8 -5.7 -5.8 --- --- 13.0 ENE 0.22 16.5 -13.2 --- --- 731.6 0.017 0.000 9.1 8 1
02/02/06 2:48 a -5.8 -5.7 -5.9 --- --- 19.1 ENE 0.32 21.7 -14.6 --- --- 731.7 0.017 0.000 9.1 8 1
02/02/06 2:49 a -5.8 -5.8 -5.9 --- --- 14.8 ENE 0.25 16.5 -13.7 --- --- 731.7 0.017 0.000 9.1 8 1
02/02/06 2:50 a -5.8 -5.8 -5.8 --- --- 16.5 ENE 0.28 18.3 -14.1 --- --- 731.7 0.017 0.000 9.1 8 1
02/02/06 2:51 a -5.8 -5.8 -5.9 --- --- 14.8 ENE 0.25 16.5 -13.7 --- --- 731.7 0.017 0.000 9.1 8 1
02/02/06 2:52 a -5.9 -5.9 -6.0 --- --- 16.5 ENE 0.28 19.1 -14.3 --- --- 731.8 0.017 0.000 9.1 8 1
02/02/06 2:53 a -6.0 -6.0 -6.1 --- --- 13.0 ENE 0.22 16.5 -13.4 --- --- 731.7 0.017 0.000 9.1 8 1
02/02/06 2:54 a -5.9 -5.8 -5.9 --- --- 16.5 ENE 0.28 20.0 -14.2 --- --- 731.7 0.017 0.000 9.1 8 1
02/02/06 2:55 a -6.0 -6.0 -6.0 --- --- 16.5 ENE 0.28 19.1 -14.3 --- --- 731.8 0.017 0.000 9.1 8 1
02/02/06 2:56 a -5.9 -5.8 -5.9 --- --- 11.3 ENE 0.19 18.3 -12.8 --- --- 731.7 0.017 0.000 9.1 7 1
02/02/06 2:57 a -5.8 -5.8 -5.8 --- --- 18.3 ENE 0.30 20.9 -14.4 --- --- 731.8 0.017 0.000 9.1 8 1
02/02/06 2:58 a -5.8 -5.6 -5.8 --- --- 11.3 ENE 0.19 16.5 -12.7 --- --- 731.8 0.017 0.000 9.1 8 1
02/02/06 2:59 a -5.3 -5.3 -5.3 --- --- 13.0 ENE 0.22 20.9 -12.6 --- --- 731.6 0.016 0.000 9.1 7 1
02/02/06 3:00 a -5.5 -5.3 -5.6 --- --- 18.3 ENE 0.30 20.0 -14.1 --- --- 731.7 0.017 0.000 9.1 7 1
02/02/06 3:01 a -5.7 -5.7 -5.7 --- --- 13.0 ENE 0.22 18.3 -13.1 --- --- 731.7 0.017 0.000 9.1 7 1
02/02/06 3:02 a -5.3 -5.1 -5.6 --- --- 8.7 ENE 0.14 14.8 -11.2 --- --- 731.7 0.016 0.000 9.1 7 1
02/02/06 3:03 a -5.3 -5.1 -5.5 --- --- 17.4 ENE 0.29 21.7 -13.6 --- --- 731.7 0.016 0.000 9.1 8 1
02/02/06 3:04 a -5.4 -5.3 -5.5 --- --- 7.8 ENE 0.13 13.0 -11.0 --- --- 731.7 0.017 0.000 9.1 7 1
02/02/06 3:05 a -5.2 -5.1 -5.4 --- --- 15.7 ENE 0.26 20.0 -13.1 --- --- 731.6 0.016 0.000 9.1 7 1
02/02/06 3:06 a -5.4 -5.4 -5.4 --- --- 13.9 ENE 0.23 19.1 -13.0 --- --- 731.7 0.017 0.000 9.1 7 1
02/02/06 3:07 a -5.4 -5.3 -5.4 --- --- 11.3 ENE 0.19 19.1 -12.2 --- --- 731.6 0.016 0.000 9.1 7 1
02/02/06 3:08 a -5.4 -5.4 -5.6 --- --- 13.0 ENE 0.22 17.4 -12.8 --- --- 731.6 0.017 0.000 9.1 7 1
02/02/06 3:09 a -5.4 -5.3 -5.4 --- --- 16.5 ENE 0.28 19.1 -13.6 --- --- 731.7 0.016 0.000 9.1 7 1
02/02/06 3:10 a -5.4 -5.1 -5.4 --- --- 7.8 ENE 0.13 12.2 -10.9 --- --- 731.7 0.016 0.000 9.1 7 1
02/02/06 3:11 a -5.1 -5.0 -5.3 --- --- 16.5 ENE 0.28 20.0 -13.2 --- --- 731.6 0.016 0.000 9.1 7 1
02/02/06 3:12 a -5.4 -5.3 -5.5 --- --- 13.9 NE 0.23 16.5 -13.0 --- --- 731.6 0.017 0.000 9.1 7 1
02/02/06 3:13 a -5.5 -5.4 -5.6 --- --- 15.7 ENE 0.26 17.4 -13.5 --- --- 731.7 0.017 0.000 9.1 7 1
02/02/06 3:14 a -5.7 -5.6 -5.8 --- --- 12.2 ENE 0.20 14.8 -12.9 --- --- 731.7 0.017 0.000 9.1 7 1
02/02/06 3:15 a -5.6 -5.6 -5.7 --- --- 16.5 NE 0.28 18.3 -13.8 --- --- 731.6 0.017 0.000 9.1 7 1
02/02/06 3:16 a -5.7 -5.7 -5.7 --- --- 13.9 ENE 0.23 15.7 -13.3 --- --- 731.6 0.017 0.000 9.1 7 1
02/02/06 3:17 a -5.8 -5.7 -5.8 --- --- 13.9 NE 0.23 17.4 -13.4 --- --- 731.7 0.017 0.000 9.1 7 1
02/02/06 3:18 a -5.7 -5.6 -5.7 --- --- 15.7 ENE 0.26 17.4 -13.7 --- --- 731.5 0.017 0.000 9.1 7 1
02/02/06 3:19 a -5.7 -5.7 -5.7 --- --- 13.9 NE 0.23 16.5 -13.3 --- --- 731.6 0.017 0.000 9.1 7 1
02/02/06 3:20 a -5.6 -5.6 -5.7 --- --- 13.0 ENE 0.22 17.4 -12.9 --- --- 731.6 0.017 0.000 9.1 7 1
02/02/06 3:21 a -5.6 -5.6 -5.7 --- --- 14.8 ENE 0.25 16.5 -13.4 --- --- 731.5 0.017 0.000 9.1 7 1
02/02/06 3:22 a -5.7 -5.7 -5.7 --- --- 15.7 ENE 0.26 17.4 -13.7 --- --- 731.6 0.017 0.000 9.1 7 1
02/02/06 3:23 a -5.7 -5.7 -5.7 --- --- 13.9 ENE 0.23 15.7 -13.3 --- --- 731.6 0.017 0.000 9.2 7 1
02/02/06 3:24 a -5.6 -5.6 -5.7 --- --- 15.7 ENE 0.26 19.1 -13.7 --- --- 731.5 0.017 0.000 9.2 7 1
02/02/06 3:25 a -5.8 -5.8 -5.9 --- --- 14.8 NE 0.25 17.4 -13.7 --- --- 731.7 0.017 0.000 9.2 7 1
02/02/06 3:26 a -5.8 -5.8 -5.9 --- --- 9.6 NE 0.16 12.2 -12.2 --- --- 731.6 0.017 0.000 9.1 7 1
02/02/06 3:27 a -5.7 -5.6 -5.8 --- --- 13.9 ENE 0.23 18.3 -13.3 --- --- 731.5 0.017 0.000 9.2 7 1
02/02/06 3:28 a -5.7 -5.6 -5.8 --- --- 15.7 ENE 0.26 19.1 -13.7 --- --- 731.7 0.017 0.000 9.2 7 1
02/02/06 3:29 a -5.8 -5.8 -5.8 --- --- 13.0 NE 0.22 14.8 -13.3 --- --- 731.7 0.017 0.000 9.2 7 1
02/02/06 3:30 a -5.6 -5.4 -5.8 --- --- 10.4 ENE 0.17 16.5 -12.2 --- --- 731.5 0.017 0.000 9.2 7 1
02/02/06 3:31 a -5.6 -5.4 -5.7 --- --- 18.3 ENE 0.30 20.0 -14.2 --- --- 731.6 0.017 0.000 9.2 7 1
02/02/06 3:32 a -5.8 -5.7 -5.8 --- --- 12.2 NE 0.20 14.8 -12.9 --- --- 731.5 0.017 0.000 9.2 7 1
02/02/06 3:33 a -5.8 -5.8 -5.8 --- --- 15.7 ENE 0.26 18.3 -13.8 --- --- 731.6 0.017 0.000 9.2 7 1
02/02/06 3:34 a -5.7 -5.6 -5.7 --- --- 13.0 ENE 0.22 17.4 -13.1 --- --- 731.5 0.017 0.000 9.2 7 1
02/02/06 3:35 a -5.6 -5.6 -5.6 --- --- 17.4 ENE 0.29 18.3 -13.9 --- --- 731.6 0.017 0.000 9.2 7 1
02/02/06 3:36 a -5.8 -5.5 -6.2 --- --- 10.4 NE 0.17 17.4 -12.4 --- --- 731.6 0.017 0.000 9.2 7 1
02/02/06 3:37 a -6.6 -6.2 -6.8 --- --- 11.3 ENE 0.19 14.8 -13.7 --- --- 731.5 0.017 0.000 9.2 7 1
02/02/06 3:38 a -6.1 -5.9 -6.2 --- --- 17.4 ENE 0.29 19.1 -14.7 --- --- 731.5 0.017 0.000 9.2 7 1
02/02/06 3:39 a -5.9 -5.8 -5.9 --- --- 15.7 ENE 0.26 17.4 -14.0 --- --- 731.6 0.017 0.000 9.2 7 1
02/02/06 3:40 a -5.7 -5.6 -5.7 --- --- 11.3 ENE 0.19 13.9 -12.6 --- --- 731.6 0.017 0.000 9.2 7 1
02/02/06 3:41 a -5.5 -5.4 -5.6 --- --- 13.9 ENE 0.23 16.5 -13.1 --- --- 731.5 0.017 0.000 9.2 7 1
02/02/06 3:42 a -5.5 -5.5 -5.6 --- --- 16.5 ENE 0.28 18.3 -13.7 --- --- 731.6 0.017 0.000 9.2 7 1
02/02/06 3:43 a -5.6 -5.6 -5.7 --- --- 13.9 ENE 0.23 15.7 -13.2 --- --- 731.6 0.017 0.000 9.2 7 1
02/02/06 3:44 a -5.5 -5.4 -5.6 --- --- 13.9 ENE 0.23 18.3 -13.1 --- --- 731.6 0.017 0.000 9.2 7 1
02/02/06 3:45 a -5.6 -5.4 -5.7 --- --- 15.7 ENE 0.26 19.1 -13.6 --- --- 731.6 0.017 0.000 9.3 7 1
02/02/06 3:46 a -5.6 -5.5 -5.6 --- --- 14.8 ENE 0.25 17.4 -13.3 --- --- 731.5 0.017 0.000 9.2 7 1
02/02/06 3:47 a -5.6 -5.6 -5.7 --- --- 16.5 ENE 0.28 19.1 -13.8 --- --- 731.5 0.017 0.000 9.2 7 1
02/02/06 3:48 a -5.8 -5.7 -5.8 --- --- 13.0 ENE 0.22 15.7 -13.2 --- --- 731.5 0.017 0.000 9.3 7 1
02/02/06 3:49 a -5.7 -5.7 -5.7 --- --- 15.7 ENE 0.26 17.4 -13.8 --- --- 731.5 0.017 0.000 9.2 7 1
02/02/06 3:50 a -5.7 -5.7 -5.8 --- --- 14.8 ENE 0.25 17.4 -13.6 --- --- 731.5 0.017 0.000 9.3 7 1
02/02/06 3:51 a -5.6 -5.6 -5.7 --- --- 13.0 ENE 0.22 16.5 -12.9 --- --- 731.5 0.017 0.000 9.3 7 1
02/02/06 3:52 a -5.6 -5.6 -5.7 --- --- 15.7 ENE 0.26 17.4 -13.7 --- --- 731.6 0.017 0.000 9.3 7 1
02/02/06 3:53 a -5.7 -5.6 -5.7 --- --- 11.3 NE 0.19 13.9 -12.6 --- --- 731.5 0.017 0.000 9.3 7 1
02/02/06 3:54 a -5.6 -5.5 -5.6 --- --- 14.8 ENE 0.25 20.0 -13.3 --- --- 731.5 0.017 0.000 9.3 7 1
02/02/06 3:55 a -5.8 -5.7 -5.8 --- --- 15.7 ENE 0.26 18.3 -13.8 --- --- 731.6 0.017 0.000 9.3 7 1
02/02/06 3:56 a -5.7 -5.6 -5.8 --- --- 6.1 NE 0.10 11.3 -10.5 --- --- 731.6 0.017 0.000 9.2 7 1
02/02/06 3:57 a -5.4 -5.4 -5.4 --- --- 16.5 ENE 0.28 18.3 -13.6 --- --- 731.4 0.016 0.000 9.2 7 1
02/02/06 3:58 a -5.5 -5.4 -5.7 --- --- 14.8 NE 0.25 18.3 -13.3 --- --- 731.6 0.017 0.000 9.2 7 1
02/02/06 3:59 a -5.6 -5.6 -5.7 --- --- 7.0 ENE 0.12 11.3 -10.8 --- --- 731.6 0.017 0.000 9.3 7 1
02/02/06 4:00 a -5.3 -5.3 -5.4 --- --- 15.7 NE 0.26 18.3 -13.3 --- --- 731.5 0.016 0.000 9.3 7 1
02/02/06 4:01 a -5.6 -5.6 -5.7 --- --- 12.2 NE 0.20 16.5 -12.7 --- --- 731.5 0.017 0.000 9.3 7 1
02/02/06 4:02 a -5.6 -5.4 -5.6 --- --- 11.3 ENE 0.19 16.5 -12.4 --- --- 731.5 0.017 0.000 9.3 7 1
02/02/06 4:03 a -5.7 -5.5 -5.9 --- --- 16.5 NE 0.28 19.1 -13.9 --- --- 731.5 0.017 0.000 9.3 7 1
02/02/06 4:04 a -6.0 -5.9 -6.1 --- --- 13.0 NE 0.22 14.8 -13.4 --- --- 731.6 0.017 0.000 9.3 7 1
02/02/06 4:05 a -5.9 -5.8 -6.0 --- --- 13.9 ENE 0.23 17.4 -13.6 --- --- 731.4 0.017 0.000 9.3 7 1
02/02/06 4:06 a -6.0 -5.9 -6.3 --- --- 13.9 NE 0.23 17.4 -13.7 --- --- 731.5 0.017 0.000 9.3 7 1
02/02/06 4:07 a -7.1 -6.3 -7.4 --- --- 9.6 N 0.16 14.8 -13.7 --- --- 731.5 0.018 0.000 9.3 7 1
02/02/06 4:08 a -6.7 -6.4 -6.9 --- --- 14.8 ENE 0.25 19.1 -14.8 --- --- 731.5 0.017 0.000 9.3 7 1
02/02/06 4:09 a -6.4 -6.2 -6.4 --- --- 16.5 ENE 0.28 18.3 -14.8 --- --- 731.5 0.017 0.000 9.3 7 1
02/02/06 4:10 a -6.2 -6.1 -6.2 --- --- 12.2 NE 0.20 16.5 -13.4 --- --- 731.7 0.017 0.000 9.3 7 1
02/02/06 4:11 a -6.4 -6.1 -6.7 --- --- 7.0 N 0.12 13.0 -11.8 --- --- 731.6 0.017 0.000 9.3 7 1
02/02/06 4:12 a -6.3 -6.2 -6.4 --- --- 14.8 ENE 0.25 18.3 -14.4 --- --- 731.4 0.017 0.000 9.3 7 1
02/02/06 4:13 a -6.2 -6.2 -6.2 --- --- 18.3 ENE 0.30 21.7 -15.0 --- --- 731.5 0.017 0.000 9.3 7 1
02/02/06 4:14 a -6.1 -5.8 -6.2 --- --- 7.8 ENE 0.13 13.9 -11.7 --- --- 731.6 0.017 0.000 9.3 7 1
02/02/06 4:15 a -5.4 -5.3 -5.8 --- --- 6.1 ENE 0.10 12.2 -10.2 --- --- 731.5 0.017 0.000 9.3 7 1
02/02/06 4:16 a -5.3 -5.2 -5.3 --- --- 10.4 NE 0.17 14.8 -11.8 --- --- 731.6 0.016 0.000 9.4 7 1
02/02/06 4:17 a -5.3 -5.2 -5.5 --- --- 13.0 ENE 0.22 15.7 -12.6 --- --- 731.5 0.016 0.000 9.4 7 1
02/02/06 4:18 a -5.4 -5.2 -5.5 --- --- 7.8 ENE 0.13 17.4 -10.9 --- --- 731.6 0.016 0.000 9.4 7 1
02/02/06 4:19 a -5.4 -5.2 -5.6 --- --- 15.7 ENE 0.26 17.4 -13.3 --- --- 731.5 0.016 0.000 9.4 7 1
02/02/06 4:20 a -5.7 -5.6 -5.9 --- --- 10.4 NE 0.17 17.4 -12.3 --- --- 731.6 0.017 0.000 9.4 7 1
02/02/06 4:21 a -5.7 -5.7 -5.9 --- --- 7.0 NE 0.12 17.4 -10.9 --- --- 731.5 0.017 0.000 9.4 7 1
02/02/06 4:22 a -5.6 -5.6 -5.7 --- --- 15.7 ENE 0.26 17.4 -13.7 --- --- 731.5 0.017 0.000 9.4 7 1
02/02/06 4:23 a -5.7 -5.6 -5.7 --- --- 10.4 NE 0.17 16.5 -12.2 --- --- 731.5 0.017 0.000 9.4 7 1
02/02/06 4:24 a -5.6 -5.6 -5.7 --- --- 14.8 NE 0.25 19.1 -13.4 --- --- 731.4 0.017 0.000 9.4 7 1
02/02/06 4:25 a -5.6 -5.5 -5.6 --- --- 15.7 ENE 0.26 18.3 -13.6 --- --- 731.5 0.017 0.000 9.4 7 1
02/02/06 4:26 a -5.5 -5.5 -5.6 --- --- 11.3 E 0.19 15.7 -12.3 --- --- 731.5 0.017 0.000 9.4 7 1
02/02/06 4:27 a -5.6 -5.4 -5.8 --- --- 13.9 NE 0.23 19.1 -13.2 --- --- 731.6 0.017 0.000 9.4 7 1
02/02/06 4:28 a -5.7 -5.7 -5.8 --- --- 10.4 NE 0.17 13.9 -12.3 --- --- 731.6 0.017 0.000 9.4 6 1
02/02/06 4:29 a -5.5 -5.3 -5.7 --- --- 7.0 NE 0.12 8.7 -10.7 --- --- 731.6 0.017 0.000 9.4 7 1
02/02/06 4:30 a -5.1 -4.9 -5.3 --- --- 10.4 ENE 0.17 14.8 -11.6 --- --- 731.6 0.016 0.000 9.4 6 1
02/02/06 4:31 a -5.0 -4.9 -5.2 --- --- 10.4 NE 0.17 13.9 -11.4 --- --- 731.7 0.016 0.000 9.4 7 1
02/02/06 4:32 a -5.2 -5.2 -5.3 --- --- 15.7 ENE 0.26 18.3 -13.1 --- --- 731.6 0.016 0.000 9.4 7 1
02/02/06 4:33 a -5.3 -5.3 -5.4 --- --- 13.0 ENE 0.22 15.7 -12.6 --- --- 731.5 0.016 0.000 9.4 7 1
02/02/06 4:34 a -5.4 -5.3 -5.4 --- --- 11.3 ENE 0.19 15.7 -12.2 --- --- 731.6 0.016 0.000 9.4 7 1
02/02/06 4:35 a -5.4 -5.4 -5.4 --- --- 11.3 ENE 0.19 14.8 -12.2 --- --- 731.5 0.017 0.000 9.4 6 1
02/02/06 4:36 a -5.4 -5.4 -5.4 --- --- 13.9 NE 0.23 17.4 -13.0 --- --- 731.5 0.017 0.000 9.5 7 1
02/02/06 4:37 a -5.4 -5.4 -5.4 --- --- 15.7 NE 0.26 16.5 -13.4 --- --- 731.5 0.017 0.000 9.5 7 1
02/02/06 4:38 a -5.4 -5.4 -5.5 --- --- 11.3 ENE 0.19 15.7 -12.2 --- --- 731.6 0.017 0.000 9.5 6 1
02/02/06 4:39 a -5.3 -5.2 -5.4 --- --- 9.6 ENE 0.16 12.2 -11.6 --- --- 731.6 0.016 0.000 9.5 6 1
02/02/06 4:40 a -5.2 -5.1 -5.2 --- --- 14.8 ENE 0.25 16.5 -12.8 --- --- 731.6 0.016 0.000 9.5 7 1
02/02/06 4:41 a -5.3 -5.2 -5.4 --- --- 15.7 ENE 0.26 18.3 -13.2 --- --- 731.6 0.016 0.000 9.5 6 1
02/02/06 4:42 a -5.4 -5.4 -5.5 --- --- 13.0 NE 0.22 16.5 -12.8 --- --- 731.6 0.017 0.000 9.5 7 1
02/02/06 4:43 a -5.5 -5.4 -5.6 --- --- 10.4 NE 0.17 15.7 -12.1 --- --- 731.5 0.017 0.000 9.5 6 1
02/02/06 4:44 a -5.4 -5.4 -5.4 --- --- 15.7 ENE 0.26 16.5 -13.4 --- --- 731.5 0.017 0.000 9.5 6 1
02/02/06 4:45 a -5.5 -5.4 -5.6 --- --- 12.2 NE 0.20 16.5 -12.6 --- --- 731.5 0.017 0.000 9.5 6 1
02/02/06 4:46 a -5.5 -5.4 -5.6 --- --- 13.0 NE 0.22 15.7 -12.8 --- --- 731.5 0.017 0.000 9.5 6 1
02/02/06 4:47 a -5.4 -5.4 -5.6 --- --- 14.8 NE 0.25 16.5 -13.2 --- --- 731.5 0.017 0.000 9.5 6 1
02/02/06 4:48 a -5.4 -5.3 -5.4 --- --- 9.6 NE 0.16 12.2 -11.6 --- --- 731.6 0.016 0.000 9.6 6 1
02/02/06 4:49 a -5.3 -5.2 -5.3 --- --- 11.3 NE 0.19 13.0 -12.1 --- --- 731.5 0.016 0.000 9.6 6 1
02/02/06 4:50 a -5.3 -5.3 -5.4 --- --- 13.0 NE 0.22 14.8 -12.6 --- --- 731.5 0.016 0.000 9.6 6 1
02/02/06 4:51 a -5.4 -5.4 -5.5 --- --- 13.9 NE 0.23 15.7 -13.0 --- --- 731.5 0.017 0.000 9.6 6 1
02/02/06 4:52 a -5.6 -5.5 -5.7 --- --- 15.7 ENE 0.26 17.4 -13.6 --- --- 731.5 0.017 0.000 9.6 6 1
02/02/06 4:53 a -5.7 -5.6 -5.7 --- --- 13.0 ENE 0.22 17.4 -13.1 --- --- 731.5 0.017 0.000 9.5 6 1
02/02/06 4:54 a -5.6 -5.5 -5.6 --- --- 13.9 NE 0.23 18.3 -13.1 --- --- 731.5 0.017 0.000 9.6 6 1
02/02/06 4:55 a -5.6 -5.6 -5.7 --- --- 15.7 ENE 0.26 18.3 -13.7 --- --- 731.5 0.017 0.000 9.6 6 1
02/02/06 4:56 a -5.8 -5.7 -5.9 --- --- 17.4 NE 0.29 18.3 -14.3 --- --- 731.5 0.017 0.000 9.6 6 1
02/02/06 4:57 a -6.1 -6.1 -6.3 --- --- 13.0 NE 0.22 16.5 -13.6 --- --- 731.5 0.017 0.000 9.6 6 1
02/02/06 4:58 a -6.2 -6.1 -6.3 --- --- 9.6 NE 0.16 11.3 -12.7 --- --- 731.5 0.017 0.000 9.6 6 1
02/02/06 4:59 a -5.8 -5.6 -5.8 --- --- 13.0 NE 0.22 15.7 -13.2 --- --- 731.5 0.017 0.000 9.6 6 1
02/02/06 5:00 a -5.8 -5.7 -5.9 --- --- 13.9 NE 0.23 14.8 -13.5 --- --- 731.5 0.017 0.000 9.6 6 1
02/02/06 5:02 a -5.8 -5.7 -5.8 --- --- 13.9 NE 0.23 16.5 -13.4 --- --- 731.5 0.017 0.000 9.6 6 1
02/02/06 5:03 a -5.8 -5.8 -5.8 --- --- 13.9 ENE 0.23 15.7 -13.5 --- --- 731.5 0.017 0.000 9.6 6 1
02/02/06 5:04 a -5.7 -5.6 -5.8 --- --- 11.3 NE 0.19 13.9 -12.6 --- --- 731.4 0.017 0.000 9.6 6 1
02/02/06 5:05 a -5.7 -5.6 -5.8 --- --- 13.0 NE 0.22 15.7 -13.1 --- --- 731.5 0.017 0.000 9.6 6 1
02/02/06 5:06 a -5.6 -5.4 -5.7 --- --- 10.4 ENE 0.17 13.9 -12.1 --- --- 731.5 0.017 0.000 9.6 6 1
02/02/06 5:07 a -5.4 -5.3 -5.5 --- --- 12.2 NE 0.20 16.5 -12.4 --- --- 731.5 0.016 0.000 9.6 6 1
02/02/06 5:08 a -5.7 -5.7 -5.8 --- --- 13.9 NE 0.23 16.5 -13.3 --- --- 731.5 0.017 0.000 9.6 6 1
02/02/06 5:09 a -5.9 -5.9 -6.0 --- --- 10.4 NE 0.17 13.0 -12.6 --- --- 731.5 0.017 0.000 9.6 6 1
02/02/06 5:10 a -5.7 -5.5 -5.8 --- --- 9.6 NE 0.16 13.0 -11.9 --- --- 731.5 0.017 0.000 9.6 6 1
02/02/06 5:11 a -5.6 -5.6 -5.6 --- --- 11.3 NE 0.19 13.9 -12.4 --- --- 731.5 0.017 0.000 9.6 6 1
02/02/06 5:12 a -5.6 -5.6 -5.7 --- --- 13.0 NE 0.22 14.8 -12.9 --- --- 731.6 0.017 0.000 9.6 6 1
02/02/06 5:13 a -5.8 -5.8 -5.8 --- --- 11.3 NE 0.19 13.0 -12.7 --- --- 731.6 0.017 0.000 9.6 6 1
02/02/06 5:14 a -5.8 -5.6 -5.8 --- --- 9.6 NE 0.16 12.2 -12.1 --- --- 731.5 0.017 0.000 9.6 6 1
02/02/06 5:15 a -5.4 -5.4 -5.4 --- --- 13.9 ENE 0.23 15.7 -13.0 --- --- 731.6 0.017 0.000 9.6 6 1
02/02/06 5:16 a -5.6 -5.6 -5.7 --- --- 12.2 ENE 0.20 13.9 -12.7 --- --- 731.5 0.017 0.000 9.6 6 1
02/02/06 5:17 a -5.6 -5.6 -5.6 --- --- 13.0 ENE 0.22 14.8 -12.9 --- --- 731.5 0.017 0.000 9.6 6 1
02/02/06 5:18 a -5.6 -5.5 -5.6 --- --- 13.0 ENE 0.22 13.9 -12.9 --- --- 731.5 0.017 0.000 9.6 6 1
02/02/06 5:19 a -5.5 -5.5 -5.6 --- --- 13.0 ENE 0.22 14.8 -12.8 --- --- 731.5 0.017 0.000 9.6 6 1
02/02/06 5:20 a -5.5 -5.4 -5.6 --- --- 13.9 NE 0.23 17.4 -13.1 --- --- 731.6 0.017 0.000 9.6 6 1
02/02/06 5:21 a -5.7 -5.6 -5.7 --- --- 7.8 NE 0.13 12.2 -11.3 --- --- 731.6 0.017 0.000 9.6 6 1
02/02/06 5:22 a -5.4 -5.4 -5.4 --- --- 12.2 NE 0.20 14.8 -12.5 --- --- 731.6 0.017 0.000 9.6 6 1
02/02/06 5:23 a -5.5 -5.5 -5.6 --- --- 13.0 NE 0.22 15.7 -12.8 --- --- 731.5 0.017 0.000 9.6 6 1
02/02/06 5:24 a -5.8 -5.7 -5.9 --- --- 13.0 NE 0.22 17.4 -13.2 --- --- 731.6 0.017 0.000 9.6 6 1
02/02/06 5:25 a -5.8 -5.8 -5.9 --- --- 11.3 NE 0.19 14.8 -12.7 --- --- 731.6 0.017 0.000 9.6 6 1
02/02/06 5:26 a -5.9 -5.8 -5.9 --- --- 11.3 NE 0.19 14.8 -12.8 --- --- 731.6 0.017 0.000 9.6 6 1
02/02/06 5:27 a -5.7 -5.6 -5.8 --- --- 12.2 NE 0.20 15.7 -12.8 --- --- 731.6 0.017 0.000 9.6 6 1
02/02/06 5:28 a -5.7 -5.7 -5.8 --- --- 12.2 NE 0.20 16.5 -12.9 --- --- 731.6 0.017 0.000 9.6 6 1
02/02/06 5:29 a -5.8 -5.7 -5.9 --- --- 13.9 NE 0.23 15.7 -13.4 --- --- 731.7 0.017 0.000 9.7 6 1
02/02/06 5:30 a -5.9 -5.9 -5.9 --- --- 10.4 NE 0.17 11.3 -12.5 --- --- 731.7 0.017 0.000 9.7 6 1
02/02/06 5:31 a -5.9 -5.8 -5.9 --- --- 12.2 NE 0.20 14.8 -13.1 --- --- 731.6 0.017 0.000 9.7 6 1
02/02/06 5:32 a -5.9 -5.7 -5.9 --- --- 12.2 NE 0.20 14.8 -13.1 --- --- 731.6 0.017 0.000 9.7 6 1
02/02/06 5:33 a -5.8 -5.7 -5.9 --- --- 13.0 NE 0.22 16.5 -13.3 --- --- 731.6 0.017 0.000 9.6 6 1
02/02/06 5:34 a -6.1 -5.9 -6.1 --- --- 10.4 NE 0.17 13.9 -12.7 --- --- 731.6 0.017 0.000 9.6 6 1
02/02/06 5:35 a -6.0 -5.9 -6.1 --- --- 11.3 NE 0.19 13.9 -12.9 --- --- 731.6 0.017 0.000 9.6 6 1
02/02/06 5:36 a -6.1 -6.1 -6.2 --- --- 13.9 NE 0.23 15.7 -13.8 --- --- 731.6 0.017 0.000 9.7 6 1
02/02/06 5:37 a -6.1 -6.1 -6.2 --- --- 11.3 NE 0.19 13.9 -13.1 --- --- 731.5 0.017 0.000 9.7 6 1
02/02/06 5:38 a -6.1 -6.1 -6.1 --- --- 12.2 NE 0.20 14.8 -13.3 --- --- 731.6 0.017 0.000 9.7 6 1
02/02/06 5:39 a -6.1 -6.1 -6.1 --- --- 11.3 NE 0.19 13.9 -13.0 --- --- 731.7 0.017 0.000 9.7 6 1
02/02/06 5:40 a -6.0 -5.9 -6.1 --- --- 11.3 NE 0.19 13.9 -12.9 --- --- 731.7 0.017 0.000 9.7 6 1
02/02/06 5:41 a -5.7 -5.6 -5.9 --- --- 10.4 NE 0.17 14.8 -12.3 --- --- 731.6 0.017 0.000 9.7 6 1
02/02/06 5:42 a -5.7 -5.6 -5.8 --- --- 13.0 NE 0.22 16.5 -13.1 --- --- 731.6 0.017 0.000 9.7 6 1
02/02/06 5:43 a -5.7 -5.6 -5.8 --- --- 11.3 NE 0.19 14.8 -12.6 --- --- 731.6 0.017 0.000 9.7 6 1
02/02/06 5:44 a -5.8 -5.7 -6.1 --- --- 10.4 NE 0.17 13.9 -12.4 --- --- 731.7 0.017 0.000 9.7 6 1
02/02/06 5:45 a -6.8 -6.1 -7.2 --- --- 8.7 NNE 0.14 13.9 -13.0 --- --- 731.6 0.017 0.000 9.7 6 1
02/02/06 5:46 a -6.8 -6.7 -7.0 --- --- 13.0 NE 0.22 13.9 -14.6 --- --- 731.7 0.017 0.000 9.7 6 1
02/02/06 5:47 a -6.6 -6.4 -6.6 --- --- 11.3 NE 0.19 14.8 -13.7 --- --- 731.7 0.017 0.000 9.7 6 1
02/02/06 5:48 a -6.3 -6.3 -6.4 --- --- 12.2 NE 0.20 13.9 -13.7 --- --- 731.7 0.017 0.000 9.7 6 1
02/02/06 5:49 a -6.1 -6.0 -6.2 --- --- 8.7 NE 0.14 13.0 -12.2 --- --- 731.6 0.017 0.000 9.7 6 1
02/02/06 5:50 a -5.8 -5.8 -5.8 --- --- 12.2 NE 0.20 14.8 -13.0 --- --- 731.7 0.017 0.000 9.7 6 1
02/02/06 5:51 a -5.7 -5.7 -5.7 --- --- 12.2 NE 0.20 13.9 -12.9 --- --- 731.6 0.017 0.000 9.7 6 1
02/02/06 5:52 a -5.9 -5.8 -5.9 --- --- 11.3 NE 0.19 14.8 -12.8 --- --- 731.7 0.017 0.000 9.7 6 1
02/02/06 5:53 a -6.2 -6.2 -6.3 --- --- 10.4 NE 0.17 13.0 -12.9 --- --- 731.7 0.017 0.000 9.7 6 1
02/02/06 5:54 a -6.2 -6.0 -6.2 --- --- 11.3 NE 0.19 13.9 -13.2 --- --- 731.7 0.017 0.000 9.7 6 1
02/02/06 5:55 a -5.9 -5.9 -6.0 --- --- 11.3 NE 0.19 13.9 -12.9 --- --- 731.6 0.017 0.000 9.7 6 1
02/02/06 5:56 a -6.0 -5.9 -6.1 --- --- 10.4 NE 0.17 13.0 -12.7 --- --- 731.6 0.017 0.000 9.7 6 1
02/02/06 5:57 a -5.8 -5.8 -5.8 --- --- 12.2 NE 0.20 13.0 -13.0 --- --- 731.6 0.017 0.000 9.7 6 1
02/02/06 5:58 a -5.7 -5.6 -5.8 --- --- 11.3 NE 0.19 12.2 -12.6 --- --- 731.7 0.017 0.000 9.7 6 1
02/02/06 5:59 a -5.6 -5.6 -5.8 --- --- 12.2 NE 0.20 13.0 -12.7 --- --- 731.6 0.017 0.000 9.7 6 1
02/02/06 6:00 a -5.7 -5.7 -5.8 --- --- 9.6 NE 0.16 13.0 -12.0 --- --- 731.6 0.017 0.000 9.7 6 1
02/02/06 6:02 a -5.7 -5.7 -5.8 --- --- 12.2 NE 0.20 13.0 -12.8 --- --- 731.7 0.017 0.000 9.7 6 1
02/02/06 6:03 a -5.8 -5.8 -5.9 --- --- 12.2 NE 0.20 13.9 -13.0 --- --- 731.6 0.017 0.000 9.7 6 1
02/02/06 6:04 a -6.0 -5.9 -6.1 --- --- 11.3 NE 0.19 13.0 -12.9 --- --- 731.6 0.017 0.000 9.7 6 1
02/02/06 6:05 a -6.1 -6.1 -6.2 --- --- 11.3 NE 0.19 13.0 -13.0 --- --- 731.7 0.017 0.000 9.8 6 1
02/02/06 6:06 a -6.2 -6.2 -6.3 --- --- 11.3 NE 0.19 13.0 -13.2 --- --- 731.6 0.017 0.000 9.8 6 1
02/02/06 6:07 a -6.3 -6.3 -6.3 --- --- 12.2 NE 0.20 13.9 -13.6 --- --- 731.6 0.017 0.000 9.8 6 1
02/02/06 6:08 a -6.3 -6.3 -6.4 --- --- 11.3 NE 0.19 13.9 -13.4 --- --- 731.6 0.017 0.000 9.8 6 1
02/02/06 6:09 a -6.3 -6.2 -6.4 --- --- 10.4 NE 0.17 12.2 -13.0 --- --- 731.6 0.017 0.000 9.8 6 1
02/02/06 6:10 a -6.1 -6.0 -6.1 --- --- 11.3 NE 0.19 13.0 -13.0 --- --- 731.6 0.017 0.000 9.8 6 1
02/02/06 6:11 a -5.9 -5.9 -6.0 --- --- 9.6 NE 0.16 11.3 -12.3 --- --- 731.5 0.017 0.000 9.8 6 1
02/02/06 6:12 a -5.8 -5.8 -5.9 --- --- 10.4 NE 0.17 12.2 -12.4 --- --- 731.6 0.017 0.000 9.8 6 1
02/02/06 6:13 a -5.8 -5.8 -5.8 --- --- 9.6 NE 0.16 11.3 -12.2 --- --- 731.5 0.017 0.000 9.8 6 1
02/02/06 6:14 a -5.7 -5.6 -5.8 --- --- 10.4 NE 0.17 11.3 -12.2 --- --- 731.6 0.017 0.000 9.8 6 1
02/02/06 6:15 a -5.5 -5.4 -5.9 --- --- 9.6 NE 0.16 10.4 -11.7 --- --- 731.6 0.017 0.000 9.8 6 1
02/02/06 6:16 a -6.1 -5.9 -6.3 --- --- 7.8 NE 0.13 8.7 -11.8 --- --- 731.6 0.017 0.000 9.8 6 1
02/02/06 6:17 a -6.4 -6.3 -6.5 --- --- 9.6 NE 0.16 10.4 -12.9 --- --- 731.6 0.017 0.000 9.8 6 1
02/02/06 6:18 a -6.5 -6.4 -6.5 --- --- 8.7 NE 0.14 10.4 -12.7 --- --- 731.6 0.017 0.000 9.8 6 1
02/02/06 6:19 a -6.3 -6.1 -6.5 --- --- 7.8 NE 0.13 10.4 -12.1 --- --- 731.6 0.017 0.000 9.8 6 1
02/02/06 6:20 a -5.9 -5.5 -6.1 --- --- 9.6 NE 0.16 10.4 -12.2 --- --- 731.6 0.017 0.000 9.8 6 1
02/02/06 6:21 a -5.4 -5.4 -5.7 --- --- 7.8 NE 0.13 10.4 -11.0 --- --- 731.7 0.017 0.000 9.8 6 1
02/02/06 6:22 a -5.7 -5.6 -5.8 --- --- 6.1 NE 0.10 7.0 -10.5 --- --- 731.6 0.017 0.000 9.8 6 1
02/02/06 6:23 a -5.1 -4.9 -5.6 --- --- 4.3 NNE 0.07 8.7 -8.7 --- --- 731.6 0.016 0.000 9.7 6 1
02/02/06 6:24 a -4.8 -4.8 -4.8 --- --- 4.3 NW 0.07 5.2 -8.3 --- --- 731.6 0.016 0.000 9.7 6 1
02/02/06 6:25 a -4.8 -4.8 -4.8 --- --- 0.9 NNW 0.01 3.5 -4.8 --- --- 731.6 0.016 0.000 9.7 6 1
02/02/06 6:26 a -4.7 -4.6 -4.8 --- --- 0.9 NNW 0.01 2.6 -4.7 --- --- 731.6 0.016 0.000 9.7 6 1
02/02/06 6:27 a -4.4 -4.2 -4.6 --- --- 3.5 NNW 0.06 5.2 -7.3 --- --- 731.5 0.016 0.000 9.7 6 1
02/02/06 6:28 a -4.1 -4.0 -4.2 --- --- 4.3 NW 0.07 5.2 -7.6 --- --- 731.6 0.016 0.000 9.7 6 1
02/02/06 6:29 a -4.0 -3.9 -4.0 --- --- 4.3 NW 0.07 6.1 -7.4 --- --- 731.6 0.016 0.000 9.7 6 1
02/02/06 6:30 a -3.8 -3.8 -3.9 --- --- 5.2 NW 0.09 5.2 -7.8 --- --- 731.6 0.015 0.000 9.7 6 1
02/02/06 6:31 a -3.8 -3.8 -4.0 --- --- 3.5 NW 0.06 5.2 -6.6 --- --- 731.5 0.015 0.000 9.7 6 1
02/02/06 6:32 a -4.1 -4.0 -4.2 --- --- 5.2 NW 0.09 5.2 -8.1 --- --- 731.6 0.016 0.000 9.7 6 1
02/02/06 6:33 a -4.4 -4.2 -4.8 --- --- 4.3 NW 0.07 5.2 -7.9 --- --- 731.5 0.016 0.000 9.7 6 1
02/02/06 6:34 a -5.0 -4.8 -5.3 --- --- 5.2 NNW 0.09 7.0 -9.2 --- --- 731.5 0.016 0.000 9.7 6 1
02/02/06 6:35 a -5.3 -5.3 -5.4 --- --- 5.2 NNW 0.09 6.1 -9.6 --- --- 731.5 0.016 0.000 9.6 6 1
02/02/06 6:36 a -5.1 -4.9 -5.2 --- --- 5.2 NW 0.09 6.1 -9.2 --- --- 731.6 0.016 0.000 9.6 6 1
02/02/06 6:37 a -4.8 -4.8 -4.9 --- --- 6.1 NNW 0.10 8.7 -9.4 --- --- 731.5 0.016 0.000 9.6 7 1
02/02/06 6:38 a -4.8 -4.7 -4.9 --- --- 7.0 NNW 0.12 10.4 -9.8 --- --- 731.6 0.016 0.000 9.6 6 1
02/02/06 6:39 a -4.4 -4.3 -4.7 --- --- 5.2 NW 0.09 6.1 -8.5 --- --- 731.6 0.016 0.000 9.5 6 1
02/02/06 6:40 a -4.4 -4.4 -4.5 --- --- 5.2 WNW 0.09 7.0 -8.5 --- --- 731.6 0.016 0.000 9.5 6 1
02/02/06 6:41 a -4.5 -4.4 -4.6 --- --- 6.1 NW 0.10 8.7 -9.1 --- --- 731.6 0.016 0.000 9.5 6 1
02/02/06 6:42 a -4.7 -4.6 -4.7 --- --- 5.2 NW 0.09 7.8 -8.8 --- --- 731.6 0.016 0.000 9.5 7 1
02/02/06 6:43 a -4.7 -4.7 -4.7 --- --- 5.2 NW 0.09 7.0 -8.8 --- --- 731.5 0.016 0.000 9.5 7 1
02/02/06 6:44 a -4.7 -4.7 -4.7 --- --- 6.1 WNW 0.10 7.0 -9.2 --- --- 731.5 0.016 0.000 9.4 7 1
02/02/06 6:45 a -4.7 -4.7 -4.7 --- --- 5.2 NW 0.09 7.0 -8.8 --- --- 731.6 0.016 0.000 9.4 7 1
02/02/06 6:46 a -4.7 -4.7 -4.7 --- --- 5.2 NW 0.09 6.1 -8.8 --- --- 731.5 0.016 0.000 9.4 7 1
02/02/06 6:47 a -4.8 -4.7 -5.0 --- --- 6.1 NW 0.10 7.0 -9.4 --- --- 731.5 0.016 0.000 9.4 7 1
02/02/06 6:48 a -5.1 -5.0 -5.2 --- --- 6.1 WNW 0.10 7.0 -9.8 --- --- 731.6 0.016 0.000 9.4 7 1
02/02/06 6:49 a -5.2 -5.2 -5.3 --- --- 5.2 WNW 0.09 6.1 -9.4 --- --- 731.6 0.016 0.000 9.4 7 1
02/02/06 6:50 a -5.3 -5.3 -5.4 --- --- 4.3 WNW 0.07 6.1 -9.0 --- --- 731.6 0.016 0.000 9.4 7 1
02/02/06 6:51 a -5.4 -5.4 -5.4 --- --- 5.2 WNW 0.09 7.0 -9.6 --- --- 731.6 0.016 0.000 9.3 7 1
02/02/06 6:52 a -5.4 -5.4 -5.4 --- --- 6.1 NW 0.10 7.0 -10.2 --- --- 731.6 0.017 0.000 9.3 7 1
02/02/06 6:53 a -5.4 -5.4 -5.4 --- --- 5.2 WNW 0.09 6.1 -9.7 --- --- 731.6 0.017 0.000 9.3 7 1
02/02/06 6:54 a -5.4 -5.4 -5.4 --- --- 6.1 NW 0.10 7.0 -10.2 --- --- 731.5 0.017 0.000 9.2 7 1
02/02/06 6:55 a -5.4 -5.4 -5.4 --- --- 5.2 NW 0.09 6.1 -9.6 --- --- 731.6 0.016 0.000 9.2 7 1
02/02/06 6:56 a -5.4 -5.4 -5.4 --- --- 6.1 WNW 0.10 7.0 -10.1 --- --- 731.6 0.016 0.000 9.2 7 1
02/02/06 6:57 a -5.4 -5.4 -5.4 --- --- 7.0 WNW 0.12 8.7 -10.6 --- --- 731.6 0.016 0.000 9.2 7 1
02/02/06 6:58 a -5.3 -5.2 -5.4 --- --- 7.0 NW 0.12 8.7 -10.4 --- --- 731.6 0.016 0.000 9.2 7 1
02/02/06 6:59 a -5.1 -4.9 -5.2 --- --- 7.0 NW 0.12 7.8 -10.1 --- --- 731.6 0.016 0.000 9.2 7 1
02/02/06 7:00 a -4.5 -4.2 -4.6 --- --- 7.0 NW 0.12 8.7 -9.4 --- --- 731.6 0.016 0.000 9.2 7 1
02/02/06 7:01 a -4.3 -4.2 -4.3 --- --- 6.1 WNW 0.10 7.0 -8.8 --- --- 731.6 0.016 0.000 9.2 7 1
02/02/06 7:02 a -4.6 -4.5 -4.7 --- --- 7.8 NW 0.13 10.4 -9.9 --- --- 731.7 0.016 0.000 9.2 7 1
02/02/06 7:03 a -4.8 -4.7 -4.8 --- --- 8.7 NW 0.14 11.3 -10.5 --- --- 731.7 0.016 0.000 9.2 7 1
02/02/06 7:04 a -4.9 -4.9 -5.1 --- --- 8.7 NW 0.14 11.3 -10.7 --- --- 731.6 0.016 0.000 9.2 7 1
02/02/06 7:05 a -5.1 -5.1 -5.1 --- --- 7.0 NW 0.12 7.8 -10.1 --- --- 731.6 0.016 0.000 9.2 7 1
02/02/06 7:06 a -5.2 -5.1 -5.2 --- --- 7.0 NW 0.12 7.8 -10.3 --- --- 731.6 0.016 0.000 9.2 7 1
02/02/06 7:07 a -5.2 -5.2 -5.2 --- --- 7.0 NW 0.12 8.7 -10.3 --- --- 731.6 0.016 0.000 9.2 7 1
02/02/06 7:08 a -5.3 -5.2 -5.3 --- --- 7.8 WNW 0.13 7.8 -10.8 --- --- 731.6 0.016 0.000 9.2 7 1
02/02/06 7:09 a -5.3 -5.3 -5.4 --- --- 7.0 WNW 0.12 9.6 -10.4 --- --- 731.6 0.016 0.000 9.2 7 1
02/02/06 7:10 a -5.4 -5.4 -5.6 --- --- 7.8 WNW 0.13 9.6 -11.0 --- --- 731.6 0.017 0.000 9.2 7 1
02/02/06 7:11 a -5.6 -5.6 -5.7 --- --- 7.8 WNW 0.13 8.7 -11.2 --- --- 731.6 0.017 0.000 9.2 7 1
02/02/06 7:12 a -5.7 -5.7 -5.7 --- --- 7.0 WNW 0.12 8.7 -10.9 --- --- 731.6 0.017 0.000 9.1 7 1
02/02/06 7:13 a -5.7 -5.7 -5.7 --- --- 6.1 WNW 0.10 7.8 -10.4 --- --- 731.7 0.017 0.000 9.1 7 1
02/02/06 7:14 a -5.7 -5.7 -5.8 --- --- 6.1 WNW 0.10 7.0 -10.5 --- --- 731.7 0.017 0.000 9.1 7 1
02/02/06 7:15 a -5.6 -5.5 -5.7 --- --- 6.1 WNW 0.10 7.8 -10.3 --- --- 731.7 0.017 0.000 9.1 7 1
02/02/06 7:16 a -5.3 -5.3 -5.4 --- --- 6.1 WNW 0.10 7.0 -10.1 --- --- 731.7 0.016 0.000 9.1 7 1
02/02/06 7:17 a -5.4 -5.3 -5.4 --- --- 7.0 NW 0.12 7.8 -10.6 --- --- 731.7 0.016 0.000 9.1 7 1
02/02/06 7:18 a -4.9 -4.9 -5.1 --- --- 7.0 WNW 0.12 7.0 -10.0 --- --- 731.8 0.016 0.000 9.1 7 1
02/02/06 7:19 a -4.8 -4.3 -4.9 --- --- 6.1 WNW 0.10 7.0 -9.4 --- --- 731.8 0.016 0.000 9.1 7 1
02/02/06 7:20 a -4.4 -4.3 -4.4 --- --- 5.2 WNW 0.09 6.1 -8.4 --- --- 731.6 0.016 0.000 9.2 7 1
02/02/06 7:21 a -4.3 -4.2 -4.4 --- --- 5.2 WNW 0.09 7.0 -8.3 --- --- 731.6 0.016 0.000 9.2 7 1
02/02/06 7:22 a -4.1 -3.9 -4.2 --- --- 4.3 NW 0.07 6.1 -7.6 --- --- 731.7 0.016 0.000 9.2 7 1
02/02/06 7:23 a -3.9 -3.9 -4.3 --- --- 5.2 WNW 0.09 6.1 -7.9 --- --- 731.7 0.015 0.000 9.2 7 1
02/02/06 7:24 a -4.3 -4.2 -4.3 --- --- 4.3 WNW 0.07 5.2 -7.8 --- --- 731.6 0.016 0.000 9.2 7 1
02/02/06 7:25 a -4.5 -4.2 -4.7 --- --- 5.2 WNW 0.09 6.1 -8.6 --- --- 731.7 0.016 0.000 9.2 7 1
02/02/06 7:26 a -4.8 -4.7 -4.9 --- --- 5.2 WNW 0.09 6.1 -8.9 --- --- 731.6 0.016 0.000 9.2 7 1
02/02/06 7:27 a -5.0 -4.8 -5.1 --- --- 5.2 WNW 0.09 6.1 -9.2 --- --- 731.6 0.016 0.000 9.2 7 1
02/02/06 7:28 a -4.7 -4.5 -4.8 --- --- 5.2 WNW 0.09 6.1 -8.8 --- --- 731.7 0.016 0.000 9.2 7 1
02/02/06 7:29 a -4.3 -4.2 -4.5 --- --- 5.2 WNW 0.09 7.0 -8.3 --- --- 731.7 0.016 0.000 9.2 7 1
02/02/06 7:30 a -4.5 -4.3 -4.6 --- --- 4.3 WNW 0.07 6.1 -8.0 --- --- 731.6 0.016 0.000 9.2 7 1
02/02/06 7:31 a -4.4 -4.1 -4.6 --- --- 4.3 WNW 0.07 6.1 -7.9 --- --- 731.6 0.016 0.000 9.2 7 1
02/02/06 7:32 a -4.0 -3.9 -4.1 --- --- 5.2 WNW 0.09 6.1 -7.9 --- --- 731.6 0.016 0.000 9.2 7 1
02/02/06 7:33 a -3.8 -3.7 -3.9 --- --- 5.2 WNW 0.09 6.1 -7.7 --- --- 731.7 0.015 0.000 9.2 7 1
02/02/06 7:34 a -4.4 -4.2 -4.7 --- --- 4.3 WNW 0.07 6.1 -7.9 --- --- 731.6 0.016 0.000 9.2 7 1
02/02/06 7:35 a -4.9 -4.7 -5.0 --- --- 5.2 W 0.09 7.0 -9.0 --- --- 731.6 0.016 0.000 9.2 7 1
02/02/06 7:36 a -5.2 -5.1 -5.3 --- --- 5.2 W 0.09 6.1 -9.4 --- --- 731.6 0.016 0.000 9.2 7 1
02/02/06 7:37 a -4.9 -4.8 -5.0 --- --- 5.2 WNW 0.09 6.1 -9.1 --- --- 731.6 0.016 0.000 9.2 7 1
02/02/06 7:38 a -4.5 -4.3 -4.7 --- --- 4.3 WNW 0.07 5.2 -8.0 --- --- 731.7 0.016 0.000 9.2 7 1
02/02/06 7:39 a -4.3 -4.2 -4.3 --- --- 4.3 WNW 0.07 6.1 -7.8 --- --- 731.6 0.016 0.000 9.3 7 1
02/02/06 7:40 a -4.0 -3.9 -4.1 --- --- 4.3 WNW 0.07 6.1 -7.4 --- --- 731.6 0.016 0.000 9.3 7 1
02/02/06 7:41 a -4.1 -4.0 -4.1 --- --- 5.2 WNW 0.09 7.0 -8.1 --- --- 731.5 0.016 0.000 9.3 7 1
02/02/06 7:42 a -4.1 -4.1 -4.1 --- --- 5.2 WNW 0.09 6.1 -8.1 --- --- 731.7 0.016 0.000 9.3 7 1
02/02/06 7:43 a -4.1 -4.0 -4.1 --- --- 4.3 WNW 0.07 5.2 -7.5 --- --- 731.6 0.016 0.000 9.3 7 1
02/02/06 7:44 a -4.1 -4.1 -4.2 --- --- 4.3 WNW 0.07 5.2 -7.6 --- --- 731.6 0.016 0.000 9.3 7 1
02/02/06 7:45 a -4.1 -3.9 -4.2 --- --- 4.3 WNW 0.07 6.1 -7.5 --- --- 731.6 0.016 0.000 9.3 7 1
02/02/06 7:46 a -3.4 -3.4 -3.6 --- --- 5.2 NW 0.09 6.1 -7.3 --- --- 731.6 0.015 0.000 9.3 7 1
02/02/06 7:47 a -3.5 -3.4 -3.7 --- --- 4.3 WNW 0.07 6.1 -6.8 --- --- 731.6 0.015 0.000 9.3 7 1
02/02/06 7:48 a -4.2 -4.1 -4.4 --- --- 4.3 WNW 0.07 6.1 -7.7 --- --- 731.6 0.016 0.000 9.3 8 1
02/02/06 7:49 a -4.4 -4.4 -4.5 --- --- 5.2 WNW 0.09 6.1 -8.5 --- --- 731.6 0.016 0.000 9.3 8 1
02/02/06 7:50 a -4.7 -4.6 -4.7 --- --- 3.5 WNW 0.06 5.2 -7.6 --- --- 731.6 0.016 0.000 9.3 8 1
02/02/06 7:51 a -4.4 -4.4 -4.4 --- --- 4.3 WNW 0.07 5.2 -7.9 --- --- 731.6 0.016 0.000 9.3 8 1
02/02/06 7:52 a -4.8 -4.6 -5.1 --- --- 5.2 NW 0.09 6.1 -8.9 --- --- 731.5 0.016 0.000 9.3 8 1
02/02/06 7:53 a -5.2 -5.1 -5.3 --- --- 4.3 WNW 0.07 5.2 -8.8 --- --- 731.5 0.016 0.000 9.3 8 1
02/02/06 7:54 a -5.4 -5.4 -5.5 --- --- 5.2 WNW 0.09 6.1 -9.7 --- --- 731.6 0.017 0.000 9.3 8 1
02/02/06 7:55 a -5.5 -5.5 -5.6 --- --- 5.2 WNW 0.09 6.1 -9.8 --- --- 731.6 0.017 0.000 9.3 8 1
02/02/06 7:56 a -5.6 -5.5 -5.7 --- --- 6.1 NW 0.10 7.8 -10.4 --- --- 731.6 0.017 0.000 9.3 8 1
02/02/06 7:57 a -5.7 -5.7 -5.7 --- --- 4.3 NW 0.07 5.2 -9.4 --- --- 731.6 0.017 0.000 9.3 8 1
02/02/06 7:58 a -5.7 -5.7 -5.7 --- --- 5.2 NW 0.09 6.1 -10.0 --- --- 731.6 0.017 0.000 9.2 8 1
02/02/06 7:59 a -5.6 -5.6 -5.7 --- --- 6.1 NW 0.10 7.0 -10.4 --- --- 731.7 0.017 0.000 9.2 8 1
02/02/06 8:00 a -5.6 -5.6 -5.6 --- --- 5.2 NW 0.09 6.1 -9.9 --- --- 731.6 0.017 0.000 9.2 8 1
02/02/06 8:02 a -5.4 -5.4 -5.5 --- --- 4.3 WNW 0.07 5.2 -9.1 --- --- 731.5 0.017 0.000 9.2 8 1
02/02/06 8:03 a -5.4 -5.4 -5.4 --- --- 5.2 WNW 0.09 6.1 -9.7 --- --- 731.6 0.017 0.000 9.2 8 1
02/02/06 8:04 a -5.0 -4.7 -5.2 --- --- 5.2 NW 0.09 6.1 -9.2 --- --- 731.6 0.016 0.000 9.2 8 1
02/02/06 8:05 a -4.6 -4.2 -4.7 --- --- 6.1 NW 0.10 7.8 -9.2 --- --- 731.5 0.016 0.000 9.2 8 1
02/02/06 8:06 a -4.1 -3.8 -4.2 --- --- 7.0 NW 0.12 7.8 -8.9 --- --- 731.6 0.016 0.000 9.2 8 1
02/02/06 8:07 a -3.7 -3.4 -3.8 --- --- 7.0 NW 0.12 7.8 -8.4 --- --- 731.6 0.015 0.000 9.2 8 1
02/02/06 8:08 a -3.4 -3.4 -3.4 --- --- 7.0 NW 0.12 8.7 -8.1 --- --- 731.6 0.015 0.000 9.2 8 1
02/02/06 8:09 a -3.4 -3.3 -3.4 --- --- 7.0 NW 0.12 7.8 -8.1 --- --- 731.6 0.015 0.000 9.2 8 1
02/02/06 8:10 a -3.4 -3.3 -3.5 --- --- 7.0 NW 0.12 7.8 -8.1 --- --- 731.5 0.015 0.000 9.2 8 1
02/02/06 8:11 a -3.6 -3.5 -3.8 --- --- 5.2 NNW 0.09 7.0 -7.5 --- --- 731.5 0.015 0.000 9.2 8 1
02/02/06 8:12 a -3.7 -3.7 -3.8 --- --- 5.2 WNW 0.09 6.1 -7.6 --- --- 731.5 0.015 0.000 9.2 8 1
02/02/06 8:13 a -3.8 -3.8 -3.8 --- --- 6.1 NW 0.10 7.8 -8.2 --- --- 731.5 0.015 0.000 9.2 8 1
02/02/06 8:14 a -3.7 -3.7 -3.8 --- --- 7.0 NW 0.12 7.8 -8.5 --- --- 731.6 0.015 0.000 9.2 8 1
02/02/06 8:15 a -4.1 -3.8 -4.2 --- --- 7.0 WNW 0.12 8.7 -8.9 --- --- 731.6 0.016 0.000 9.2 8 1
02/02/06 8:16 a -4.2 -4.1 -4.2 --- --- 7.0 WNW 0.12 8.7 -9.1 --- --- 731.6 0.016 0.000 9.2 8 1
02/02/06 8:17 a -4.2 -4.2 -4.3 --- --- 7.0 NW 0.12 8.7 -9.1 --- --- 731.6 0.016 0.000 9.2 8 1
02/02/06 8:18 a -4.1 -4.0 -4.2 --- --- 7.0 NW 0.12 9.6 -8.9 --- --- 731.5 0.016 0.000 9.2 8 1
02/02/06 8:19 a -4.4 -4.0 -4.9 --- --- 7.8 WNW 0.13 9.6 -9.8 --- --- 731.6 0.016 0.000 9.2 8 1
02/02/06 8:20 a -5.0 -4.9 -5.2 --- --- 7.0 NW 0.12 7.0 -10.1 --- --- 731.5 0.016 0.000 9.2 8 1
02/02/06 8:21 a -5.2 -5.2 -5.3 --- --- 6.1 NW 0.10 7.0 -9.8 --- --- 731.5 0.016 0.000 9.2 8 1
02/02/06 8:22 a -5.4 -5.3 -5.6 --- --- 6.1 NW 0.10 7.0 -10.1 --- --- 731.6 0.016 0.000 9.2 8 1
02/02/06 8:23 a -5.4 -5.3 -5.6 --- --- 5.2 WNW 0.09 7.0 -9.7 --- --- 731.6 0.017 0.000 9.2 8 1
02/02/06 8:24 a -5.4 -5.4 -5.6 --- --- 6.1 NW 0.10 7.0 -10.2 --- --- 731.5 0.017 0.000 9.2 8 1
02/02/06 8:25 a -5.6 -5.6 -5.6 --- --- 6.1 NW 0.10 7.8 -10.4 --- --- 731.5 0.017 0.000 9.2 8 1
02/02/06 8:26 a -5.7 -5.6 -5.7 --- --- 5.2 NW 0.09 7.8 -9.9 --- --- 731.6 0.017 0.000 9.2 8 1
02/02/06 8:27 a -5.6 -5.5 -5.8 --- --- 6.1 NW 0.10 8.7 -10.4 --- --- 731.5 0.017 0.000 9.2 8 1
02/02/06 8:28 a -5.9 -5.8 -6.1 --- --- 6.1 NNW 0.10 7.0 -10.7 --- --- 731.5 0.017 0.000 9.2 8 1
02/02/06 8:29 a -6.0 -5.9 -6.1 --- --- 7.0 NW 0.12 7.8 -11.3 --- --- 731.5 0.017 0.000 9.2 8 1
02/02/06 8:30 a -6.1 -6.0 -6.2 --- --- 7.0 NW 0.12 7.8 -11.4 --- --- 731.6 0.017 0.000 9.2 8 1
02/02/06 8:31 a -6.2 -6.1 -6.2 --- --- 6.1 NW 0.10 7.0 -11.1 --- --- 731.6 0.017 0.000 9.2 8 1
02/02/06 8:32 a -5.9 -5.8 -6.1 --- --- 6.1 NW 0.10 7.0 -10.8 --- --- 731.5 0.017 0.000 9.2 8 1
02/02/06 8:33 a -5.7 -5.6 -5.8 --- --- 7.8 NW 0.13 8.7 -11.3 --- --- 731.6 0.017 0.000 9.2 8 1
02/02/06 8:34 a -5.6 -5.6 -5.6 --- --- 6.1 NW 0.10 7.8 -10.4 --- --- 731.6 0.017 0.000 9.2 8 1
02/02/06 8:35 a -5.6 -5.4 -5.7 --- --- 6.1 NW 0.10 7.8 -10.3 --- --- 731.5 0.017 0.000 9.2 8 1
02/02/06 8:36 a -5.3 -5.1 -5.4 --- --- 7.0 NW 0.12 7.8 -10.4 --- --- 731.5 0.016 0.000 9.2 8 1
02/02/06 8:37 a -5.1 -5.1 -5.1 --- --- 7.0 NW 0.12 7.8 -10.2 --- --- 731.5 0.016 0.000 9.2 8 1
02/02/06 8:38 a -4.9 -4.7 -5.1 --- --- 5.2 NW 0.09 6.1 -9.0 --- --- 731.5 0.016 0.000 9.2 8 1
02/02/06 8:39 a -4.7 -4.6 -4.7 --- --- 6.1 NW 0.10 7.0 -9.2 --- --- 731.5 0.016 0.000 9.2 8 1
02/02/06 8:40 a -4.6 -4.5 -4.6 --- --- 6.1 NW 0.10 7.0 -9.1 --- --- 731.4 0.016 0.000 9.2 8 1
02/02/06 8:41 a -4.7 -4.5 -5.1 --- --- 6.1 NW 0.10 7.0 -9.3 --- --- 731.5 0.016 0.000 9.2 8 1
02/02/06 8:42 a -5.2 -5.1 -5.4 --- --- 6.1 NW 0.10 7.0 -9.9 --- --- 731.5 0.016 0.000 9.2 8 1
02/02/06 8:43 a -5.5 -5.3 -5.6 --- --- 5.2 NW 0.09 6.1 -9.8 --- --- 731.5 0.017 0.000 9.2 8 1
02/02/06 8:44 a -5.1 -4.9 -5.3 --- --- 6.1 NW 0.10 7.0 -9.7 --- --- 731.5 0.016 0.000 9.2 8 1
02/02/06 8:45 a -5.0 -4.9 -5.1 --- --- 5.2 NW 0.09 6.1 -9.2 --- --- 731.5 0.016 0.000 9.2 8 1
02/02/06 8:46 a -4.9 -4.7 -5.0 --- --- 5.2 NW 0.09 6.1 -9.0 --- --- 731.5 0.016 0.000 9.2 8 1
02/02/06 8:47 a -4.6 -4.4 -4.7 --- --- 5.2 NW 0.09 6.1 -8.6 --- --- 731.5 0.016 0.000 9.2 8 1
02/02/06 8:48 a -4.3 -4.3 -4.3 --- --- 5.2 NW 0.09 6.1 -8.4 --- --- 731.5 0.016 0.000 9.2 8 1
02/02/06 8:49 a -4.4 -4.3 -4.4 --- --- 5.2 NW 0.09 6.1 -8.4 --- --- 731.5 0.016 0.000 9.2 8 1
02/02/06 8:50 a -4.6 -4.5 -4.6 --- --- 5.2 NW 0.09 7.0 -8.6 --- --- 731.5 0.016 0.000 9.2 8 1
02/02/06 8:51 a -4.5 -4.4 -4.6 --- --- 7.0 NW 0.12 7.8 -9.4 --- --- 731.5 0.016 0.000 9.2 8 1
02/02/06 8:52 a -4.4 -4.3 -4.5 --- --- 6.1 NW 0.10 7.0 -8.9 --- --- 731.5 0.016 0.000 9.2 8 1
02/02/06 8:53 a -4.6 -4.6 -4.6 --- --- 5.2 NW 0.09 7.0 -8.6 --- --- 731.5 0.016 0.000 9.2 8 1
02/02/06 8:54 a -4.9 -4.8 -5.1 --- --- 5.2 NW 0.09 6.1 -9.0 --- --- 731.4 0.016 0.000 9.2 8 1
02/02/06 8:55 a -5.1 -5.1 -5.2 --- --- 5.2 NW 0.09 6.1 -9.3 --- --- 731.5 0.016 0.000 9.2 8 1
02/02/06 8:56 a -5.2 -5.1 -5.3 --- --- 4.3 NW 0.07 6.1 -8.9 --- --- 731.4 0.016 0.000 9.2 8 1
02/02/06 8:57 a -5.0 -4.9 -5.2 --- --- 4.3 NW 0.07 5.2 -8.6 --- --- 731.4 0.016 0.000 9.2 8 1
02/02/06 8:58 a -4.7 -4.7 -4.8 --- --- 5.2 NW 0.09 6.1 -8.8 --- --- 731.4 0.016 0.000 9.2 8 1
02/02/06 8:59 a -4.5 -4.4 -4.6 --- --- 4.3 NW 0.07 5.2 -8.0 --- --- 731.5 0.016 0.000 9.2 8 1
02/02/06 9:00 a -4.3 -4.3 -4.4 --- --- 4.3 NW 0.07 5.2 -7.8 --- --- 731.5 0.016 0.000 9.2 8 1
02/02/06 9:02 a -4.3 -4.3 -4.3 --- --- 5.2 NW 0.09 6.1 -8.4 --- --- 731.4 0.016 0.000 9.2 8 1
02/02/06 9:03 a -4.4 -4.3 -4.4 --- --- 4.3 NW 0.07 5.2 -7.9 --- --- 731.4 0.016 0.000 9.2 8 1
02/02/06 9:04 a -4.4 -4.3 -4.4 --- --- 4.3 NW 0.07 6.1 -7.9 --- --- 731.4 0.016 0.000 9.2 8 1
02/02/06 9:05 a -4.3 -4.3 -4.3 --- --- 3.5 NW 0.06 4.3 -7.2 --- --- 731.4 0.016 0.000 9.2 8 1
02/02/06 9:06 a -4.3 -4.3 -4.4 --- --- 4.3 NW 0.07 5.2 -7.8 --- --- 731.4 0.016 0.000 9.2 8 1
02/02/06 9:07 a -4.5 -4.4 -4.5 --- --- 5.2 NW 0.09 5.2 -8.6 --- --- 731.4 0.016 0.000 9.2 8 1
02/02/06 9:08 a -4.6 -4.5 -4.6 --- --- 5.2 NW 0.09 6.1 -8.6 --- --- 731.4 0.016 0.000 9.2 8 1
02/02/06 9:09 a -4.6 -4.5 -4.6 --- --- 4.3 NW 0.07 5.2 -8.1 --- --- 731.4 0.016 0.000 9.2 8 1
02/02/06 9:10 a -4.6 -4.5 -4.7 --- --- 5.2 NW 0.09 7.0 -8.6 --- --- 731.3 0.016 0.000 9.2 8 1
02/02/06 9:11 a -4.7 -4.7 -4.7 --- --- 5.2 NW 0.09 6.1 -8.8 --- --- 731.4 0.016 0.000 9.2 8 1
02/02/06 9:12 a -4.7 -4.7 -4.7 --- --- 4.3 NW 0.07 6.1 -8.3 --- --- 731.4 0.016 0.000 9.2 8 1
02/02/06 9:13 a -4.8 -4.8 -4.8 --- --- 5.2 NW 0.09 6.1 -8.9 --- --- 731.3 0.016 0.000 9.2 8 1
02/02/06 9:14 a -4.7 -4.7 -4.8 --- --- 5.2 NW 0.09 5.2 -8.8 --- --- 731.3 0.016 0.000 9.2 8 1
02/02/06 9:15 a -4.8 -4.7 -4.8 --- --- 4.3 NW 0.07 5.2 -8.3 --- --- 731.3 0.016 0.000 9.2 8 1
02/02/06 9:16 a -4.8 -4.7 -4.8 --- --- 3.5 NW 0.06 4.3 -7.7 --- --- 731.3 0.016 0.000 9.2 8 1
02/02/06 9:17 a -4.6 -4.4 -4.6 --- --- 4.3 NW 0.07 5.2 -8.1 --- --- 731.4 0.016 0.000 9.2 8 1
02/02/06 9:18 a -4.5 -4.4 -4.6 --- --- 4.3 NW 0.07 6.1 -8.0 --- --- 731.4 0.016 0.000 9.2 8 1
02/02/06 9:19 a -4.6 -4.6 -4.6 --- --- 4.3 NW 0.07 5.2 -8.2 --- --- 731.3 0.016 0.000 9.2 8 1
02/02/06 9:20 a -4.5 -4.4 -4.6 --- --- 4.3 NW 0.07 5.2 -8.0 --- --- 731.4 0.016 0.000 9.2 8 1
02/02/06 9:21 a -4.6 -4.4 -4.7 --- --- 4.3 NW 0.07 5.2 -8.1 --- --- 731.4 0.016 0.000 9.2 8 1
02/02/06 9:22 a -4.7 -4.7 -4.7 --- --- 4.3 NW 0.07 5.2 -8.3 --- --- 731.4 0.016 0.000 9.2 8 1
02/02/06 9:23 a -4.7 -4.7 -4.7 --- --- 3.5 NW 0.06 3.5 -7.6 --- --- 731.4 0.016 0.000 9.2 8 1
02/02/06 9:24 a -4.8 -4.8 -4.9 --- --- 3.5 NW 0.06 3.5 -7.8 --- --- 731.4 0.016 0.000 9.2 8 1
02/02/06 9:25 a -4.9 -4.9 -5.1 --- --- 3.5 NW 0.06 4.3 -7.9 --- --- 731.4 0.016 0.000 9.2 8 1
02/02/06 9:26 a -5.1 -5.1 -5.1 --- --- 4.3 WNW 0.07 5.2 -8.7 --- --- 731.4 0.016 0.000 9.2 8 1
02/02/06 9:27 a -5.1 -5.1 -5.2 --- --- 4.3 WNW 0.07 5.2 -8.7 --- --- 731.4 0.016 0.000 9.2 8 1
02/02/06 9:28 a -5.2 -5.1 -5.3 --- --- 4.3 WNW 0.07 6.1 -8.8 --- --- 731.4 0.016 0.000 9.2 8 1
02/02/06 9:29 a -5.3 -5.2 -5.3 --- --- 5.2 NW 0.09 6.1 -9.5 --- --- 731.4 0.016 0.000 9.2 8 1
02/02/06 9:30 a -5.2 -5.1 -5.3 --- --- 5.2 NW 0.09 6.1 -9.3 --- --- 731.4 0.016 0.000 9.2 8 1
02/02/06 9:31 a -5.4 -5.3 -5.5 --- --- 6.1 NNW 0.10 7.0 -10.2 --- --- 731.5 0.017 0.000 9.2 8 1
02/02/06 9:32 a -5.3 -5.2 -5.4 --- --- 4.3 NNW 0.07 6.1 -9.0 --- --- 731.5 0.016 0.000 9.1 8 1
02/02/06 9:33 a -5.1 -4.9 -5.2 --- --- 4.3 NNW 0.07 5.2 -8.7 --- --- 731.4 0.016 0.000 9.1 8 1
02/02/06 9:34 a -4.9 -4.9 -4.9 --- --- 4.3 NNW 0.07 5.2 -8.5 --- --- 731.4 0.016 0.000 9.1 8 1
02/02/06 9:35 a -4.9 -4.9 -4.9 --- --- 4.3 NNW 0.07 6.1 -8.5 --- --- 731.4 0.016 0.000 9.1 8 1
02/02/06 9:36 a -4.9 -4.9 -4.9 --- --- 5.2 NNW 0.09 7.8 -9.0 --- --- 731.4 0.016 0.000 9.1 8 1
02/02/06 9:37 a -4.9 -4.9 -5.0 --- --- 7.0 NW 0.12 7.8 -10.0 --- --- 731.3 0.016 0.000 9.1 8 1
02/02/06 9:38 a -5.1 -5.0 -5.2 --- --- 7.0 NW 0.12 8.7 -10.1 --- --- 731.4 0.016 0.000 9.1 8 1
02/02/06 9:39 a -5.3 -5.2 -5.3 --- --- 7.0 NW 0.12 7.8 -10.4 --- --- 731.4 0.016 0.000 9.1 8 1
02/02/06 9:40 a -5.3 -5.2 -5.3 --- --- 7.0 NW 0.12 7.8 -10.4 --- --- 731.4 0.016 0.000 9.1 8 1
02/02/06 9:41 a -5.2 -5.2 -5.2 --- --- 6.1 NW 0.10 7.0 -9.8 --- --- 731.4 0.016 0.000 9.1 8 1
02/02/06 9:42 a -5.2 -5.2 -5.3 --- --- 6.1 WNW 0.10 7.0 -9.8 --- --- 731.4 0.016 0.000 9.1 8 1
02/02/06 9:43 a -5.3 -5.3 -5.3 --- --- 6.1 WNW 0.10 7.0 -10.1 --- --- 731.4 0.016 0.000 9.1 8 1
02/02/06 9:44 a -5.3 -5.3 -5.3 --- --- 7.0 NW 0.12 7.8 -10.4 --- --- 731.3 0.016 0.000 9.1 8 1
02/02/06 9:45 a -5.4 -5.3 -5.4 --- --- 7.8 WNW 0.13 8.7 -10.9 --- --- 731.4 0.016 0.000 9.1 8 1
02/02/06 9:46 a -5.4 -5.4 -5.5 --- --- 8.7 NW 0.14 11.3 -11.3 --- --- 731.3 0.017 0.000 9.1 8 1
02/02/06 9:47 a -5.6 -5.5 -5.7 --- --- 9.6 NW 0.16 11.3 -11.9 --- --- 731.3 0.017 0.000 9.1 8 1
02/02/06 9:48 a -5.7 -5.6 -5.7 --- --- 7.8 NW 0.13 9.6 -11.3 --- --- 731.4 0.017 0.000 9.1 8 1
02/02/06 9:49 a -5.7 -5.6 -5.7 --- --- 7.0 NW 0.12 9.6 -10.9 --- --- 731.3 0.017 0.000 9.1 8 1
02/02/06 9:50 a -5.6 -5.6 -5.7 --- --- 6.1 WNW 0.10 7.8 -10.4 --- --- 731.3 0.017 0.000 9.1 8 1
02/02/06 9:51 a -5.7 -5.6 -5.7 --- --- 5.2 WNW 0.09 7.0 -9.9 --- --- 731.3 0.017 0.000 9.1 8 1
02/02/06 9:52 a -5.7 -5.7 -5.7 --- --- 6.1 WNW 0.10 7.8 -10.5 --- --- 731.4 0.017 0.000 9.1 8 1
02/02/06 9:53 a -5.7 -5.7 -5.7 --- --- 5.2 WNW 0.09 6.1 -10.0 --- --- 731.4 0.017 0.000 9.1 8 1
02/02/06 9:54 a -5.6 -5.6 -5.7 --- --- 6.1 NW 0.10 7.0 -10.4 --- --- 731.3 0.017 0.000 9.1 8 1
02/02/06 9:55 a -5.7 -5.6 -5.8 --- --- 6.1 NW 0.10 7.8 -10.4 --- --- 731.4 0.017 0.000 9.1 8 1
02/02/06 9:56 a -5.9 -5.8 -6.1 --- --- 6.1 NNW 0.10 7.0 -10.8 --- --- 731.3 0.017 0.000 9.1 8 1
02/02/06 9:57 a -6.1 -6.1 -6.1 --- --- 6.1 NNW 0.10 7.0 -10.9 --- --- 731.4 0.017 0.000 9.1 8 1
02/02/06 9:58 a -6.2 -6.2 -6.3 --- --- 7.0 NNW 0.12 7.8 -11.6 --- --- 731.4 0.017 0.000 9.1 8 1
02/02/06 9:59 a -6.3 -6.3 -6.3 --- --- 6.1 NNW 0.10 7.0 -11.2 --- --- 731.4 0.017 0.000 9.1 8 1
02/02/06 10:00 a -6.1 -5.9 -6.1 --- --- 5.2 NW 0.09 6.1 -10.4 --- --- 731.4 0.017 0.000 9.1 8 1
02/02/06 10:02 a -5.8 -5.7 -5.9 --- --- 5.2 NW 0.09 7.0 -10.2 --- --- 731.4 0.017 0.000 9.1 8 1
02/02/06 10:03 a -5.9 -5.8 -5.9 --- --- 5.2 NNW 0.09 6.1 -10.2 --- --- 731.3 0.017 0.000 9.1 8 1
02/02/06 10:04 a -5.8 -5.7 -5.8 --- --- 5.2 NNW 0.09 6.1 -10.1 --- --- 731.4 0.017 0.000 9.1 8 1
02/02/06 10:05 a -5.8 -5.8 -6.0 --- --- 4.3 NNW 0.07 5.2 -9.6 --- --- 731.3 0.017 0.000 9.1 8 1
02/02/06 10:06 a -6.1 -6.0 -6.1 --- --- 5.2 NNW 0.09 6.1 -10.4 --- --- 731.4 0.017 0.000 9.1 8 1
02/02/06 10:07 a -6.0 -5.9 -6.1 --- --- 5.2 NNW 0.09 6.1 -10.3 --- --- 731.3 0.017 0.000 9.1 8 1
02/02/06 10:08 a -5.8 -5.8 -5.9 --- --- 5.2 NNW 0.09 7.0 -10.2 --- --- 731.3 0.017 0.000 9.1 8 1
02/02/06 10:09 a -5.7 -5.7 -5.8 --- --- 6.1 NW 0.10 7.0 -10.5 --- --- 731.4 0.017 0.000 9.1 8 1
02/02/06 10:10 a -5.7 -5.7 -5.8 --- --- 7.0 NW 0.12 7.8 -10.9 --- --- 731.4 0.017 0.000 9.1 8 1
02/02/06 10:11 a -5.8 -5.8 -5.9 --- --- 7.0 NW 0.12 8.7 -11.1 --- --- 731.4 0.017 0.000 9.1 8 1
02/02/06 10:12 a -5.8 -5.7 -5.8 --- --- 6.1 NW 0.10 7.0 -10.6 --- --- 731.4 0.017 0.000 9.1 8 1
02/02/06 10:13 a -5.8 -5.7 -6.1 --- --- 6.1 NW 0.10 7.8 -10.7 --- --- 731.4 0.017 0.000 9.1 8 1
02/02/06 10:14 a -6.1 -6.1 -6.1 --- --- 5.2 NNW 0.09 7.0 -10.5 --- --- 731.3 0.017 0.000 9.1 8 1
02/02/06 10:15 a -5.9 -5.8 -6.1 --- --- 3.5 NW 0.06 4.3 -9.1 --- --- 731.4 0.017 0.000 9.1 8 1
02/02/06 10:16 a -5.7 -5.7 -5.8 --- --- 5.2 NW 0.09 7.0 -10.0 --- --- 731.4 0.017 0.000 9.1 8 1
02/02/06 10:17 a -5.7 -5.7 -5.7 --- --- 5.2 NW 0.09 7.0 -9.9 --- --- 731.4 0.017 0.000 9.1 8 1
02/02/06 10:18 a -5.7 -5.7 -5.7 --- --- 5.2 NW 0.09 6.1 -10.0 --- --- 731.4 0.017 0.000 9.1 8 1
02/02/06 10:19 a -5.7 -5.7 -5.7 --- --- 4.3 NW 0.07 5.2 -9.4 --- --- 731.3 0.017 0.000 9.1 8 1
02/02/06 10:20 a -5.7 -5.7 -5.7 --- --- 5.2 WNW 0.09 6.1 -10.0 --- --- 731.4 0.017 0.000 9.1 8 1
02/02/06 10:21 a -5.7 -5.7 -5.8 --- --- 5.2 NW 0.09 7.8 -10.0 --- --- 731.3 0.017 0.000 9.1 8 1
02/02/06 10:22 a -5.9 -5.8 -5.9 --- --- 5.2 NW 0.09 7.0 -10.2 --- --- 731.3 0.017 0.000 9.0 8 1
02/02/06 10:23 a -5.9 -5.9 -6.0 --- --- 5.2 WNW 0.09 6.1 -10.3 --- --- 731.3 0.017 0.000 9.0 8 1
02/02/06 10:24 a -6.0 -5.9 -6.0 --- --- 6.1 NW 0.10 6.1 -10.8 --- --- 731.4 0.017 0.000 9.0 8 1
02/02/06 10:25 a -5.9 -5.9 -5.9 --- --- 6.1 NW 0.10 7.8 -10.7 --- --- 731.3 0.017 0.000 9.0 8 1
02/02/06 10:26 a -5.9 -5.9 -5.9 --- --- 5.2 NW 0.09 6.1 -10.3 --- --- 731.4 0.017 0.000 9.0 8 1
02/02/06 10:27 a -5.8 -5.8 -5.9 --- --- 5.2 NW 0.09 6.1 -10.2 --- --- 731.4 0.017 0.000 9.0 8 1
02/02/06 10:28 a -5.8 -5.8 -5.8 --- --- 5.2 NW 0.09 6.1 -10.2 --- --- 731.4 0.017 0.000 9.0 8 1
02/02/06 10:29 a -5.8 -5.8 -5.8 --- --- 4.3 NW 0.07 5.2 -9.6 --- --- 731.4 0.017 0.000 9.0 8 1
02/02/06 10:30 a -5.8 -5.8 -5.9 --- --- 4.3 NW 0.07 5.2 -9.6 --- --- 731.4 0.017 0.000 9.1 8 1
02/02/06 10:31 a -5.8 -5.8 -5.8 --- --- 4.3 NW 0.07 6.1 -9.6 --- --- 731.4 0.017 0.000 9.1 8 1
02/02/06 10:32 a -5.8 -5.8 -5.9 --- --- 5.2 NW 0.09 6.1 -10.2 --- --- 731.4 0.017 0.000 9.1 8 1
02/02/06 10:33 a -5.9 -5.9 -5.9 --- --- 4.3 NW 0.07 5.2 -9.7 --- --- 731.3 0.017 0.000 9.1 8 1
02/02/06 10:34 a -5.8 -5.8 -5.9 --- --- 5.2 NW 0.09 6.1 -10.2 --- --- 731.4 0.017 0.000 9.1 8 1
02/02/06 10:35 a -5.8 -5.8 -5.8 --- --- 5.2 NW 0.09 6.1 -10.2 --- --- 731.4 0.017 0.000 9.0 8 1
02/02/06 10:36 a -5.9 -5.8 -5.9 --- --- 5.2 NW 0.09 7.0 -10.2 --- --- 731.4 0.017 0.000 9.0 8 1
02/02/06 10:37 a -5.9 -5.9 -6.0 --- --- 6.1 NNW 0.10 6.1 -10.8 --- --- 731.4 0.017 0.000 9.0 8 1
02/02/06 10:38 a -6.1 -6.0 -6.2 --- --- 5.2 NNW 0.09 6.1 -10.4 --- --- 731.4 0.017 0.000 9.0 8 1
02/02/06 10:39 a -6.3 -6.4 -6.4 --- --- 5.2 NNW 0.09 6.1 -10.7 --- --- 731.4 0.017 0.000 9.0 8 1
02/02/06 10:40 a -6.4 -6.3 -6.4 --- --- 5.2 NNW 0.09 6.1 -10.8 --- --- 731.4 0.017 0.000 9.0 8 1
02/02/06 10:41 a -6.3 -6.3 -6.4 --- --- 4.3 NNW 0.07 5.2 -10.2 --- --- 731.4 0.017 0.000 9.0 8 1
02/02/06 10:42 a -6.4 -6.4 -6.4 --- --- 4.3 NW 0.07 5.2 -10.2 --- --- 731.4 0.017 0.000 9.0 8 1
02/02/06 10:43 a -6.3 -6.3 -6.3 --- --- 6.1 NW 0.10 7.0 -11.2 --- --- 731.4 0.017 0.000 9.0 8 1
02/02/06 10:44 a -6.3 -6.3 -6.4 --- --- 6.1 NW 0.10 7.0 -11.2 --- --- 731.4 0.017 0.000 9.0 8 1
02/02/06 10:45 a -6.4 -6.4 -6.4 --- --- 7.0 NW 0.12 8.7 -11.8 --- --- 731.4 0.017 0.000 9.0 8 1
02/02/06 10:46 a -6.4 -6.4 -6.4 --- --- 7.0 NW 0.12 7.8 -11.8 --- --- 731.4 0.017 0.000 9.0 8 1
02/02/06 10:47 a -6.5 -6.4 -6.5 --- --- 6.1 NW 0.10 7.0 -11.4 --- --- 731.3 0.017 0.000 9.0 8 1
02/02/06 10:48 a -6.5 -6.4 -6.6 --- --- 6.1 NNW 0.10 7.8 -11.4 --- --- 731.4 0.017 0.000 9.0 8 1
02/02/06 10:49 a -6.7 -6.6 -6.8 --- --- 6.1 NNW 0.10 7.0 -11.7 --- --- 731.3 0.017 0.000 9.0 8 1
02/02/06 10:50 a -6.7 -6.6 -6.7 --- --- 5.2 NNW 0.09 6.1 -11.2 --- --- 731.4 0.017 0.000 9.1 8 1
02/02/06 10:51 a -6.6 -6.5 -6.6 --- --- 5.2 NNW 0.09 6.1 -11.0 --- --- 731.4 0.017 0.000 9.1 8 1
02/02/06 10:52 a -6.5 -6.5 -6.6 --- --- 6.1 NW 0.10 7.0 -11.4 --- --- 731.4 0.017 0.000 9.1 8 1
02/02/06 10:53 a -6.6 -6.6 -6.6 --- --- 7.0 NW 0.12 7.8 -11.9 --- --- 731.3 0.017 0.000 9.1 8 1
02/02/06 10:54 a -6.7 -6.6 -6.8 --- --- 6.1 NW 0.10 7.8 -11.7 --- --- 731.4 0.017 0.000 9.1 8 1
02/02/06 10:55 a -6.9 -6.8 -7.1 --- --- 7.0 NW 0.12 7.8 -12.4 --- --- 731.4 0.018 0.000 9.0 8 1
02/02/06 10:56 a -7.1 -7.1 -7.2 --- --- 6.1 NW 0.10 7.0 -12.2 --- --- 731.4 0.018 0.000 9.0 8 1
02/02/06 10:57 a -7.3 -7.3 -7.4 --- --- 5.2 NW 0.09 6.1 -11.9 --- --- 731.3 0.018 0.000 9.0 8 1
02/02/06 10:58 a -7.4 -7.4 -7.5 --- --- 5.2 NW 0.09 6.1 -12.1 --- --- 731.3 0.018 0.000 9.0 8 1
02/02/06 10:59 a -7.5 -7.5 -7.5 --- --- 4.3 NW 0.07 5.2 -11.6 --- --- 731.4 0.018 0.000 9.0 8 1
02/02/06 11:00 a -7.5 -7.5 -7.5 --- --- 5.2 NW 0.09 6.1 -12.1 --- --- 731.3 0.018 0.000 9.0 8 1
02/02/06 11:01 a -7.5 -7.5 -7.6 --- --- 5.2 NW 0.09 6.1 -12.1 --- --- 731.3 0.018 0.000 9.0 8 1
02/02/06 11:02 a -7.6 -7.6 -7.6 --- --- 6.1 NNW 0.10 7.0 -12.7 --- --- 731.4 0.018 0.000 9.0 8 1
02/02/06 11:03 a -7.6 -7.6 -7.7 --- --- 5.2 NNW 0.09 7.0 -12.3 --- --- 731.4 0.018 0.000 9.0 8 1
02/02/06 11:04 a -7.6 -7.6 -7.6 --- --- 5.2 NW 0.09 7.0 -12.3 --- --- 731.4 0.018 0.000 9.0 8 1
02/02/06 11:05 a -7.7 -7.6 -7.7 --- --- 5.2 WNW 0.09 6.1 -12.3 --- --- 731.4 0.018 0.000 9.0 8 1
02/02/06 11:06 a -7.7 -7.7 -7.7 --- --- 5.2 NW 0.09 7.0 -12.3 --- --- 731.4 0.018 0.000 9.0 8 1
02/02/06 11:07 a -7.7 -7.7 -7.7 --- --- 5.2 NW 0.09 7.0 -12.3 --- --- 731.4 0.018 0.000 9.0 8 1
02/02/06 11:08 a -7.7 -7.7 -7.7 --- --- 7.0 NW 0.12 7.8 -13.3 --- --- 731.4 0.018 0.000 9.0 8 1
02/02/06 11:09 a -7.7 -7.7 -7.7 --- --- 7.0 NW 0.12 7.8 -13.3 --- --- 731.4 0.018 0.000 8.9 8 1
02/02/06 11:10 a -7.7 -7.7 -7.7 --- --- 7.0 NW 0.12 7.8 -13.3 --- --- 731.4 0.018 0.000 8.9 8 1
02/02/06 11:11 a -7.7 -7.7 -7.7 --- --- 7.0 NW 0.12 7.8 -13.3 --- --- 731.4 0.018 0.000 8.9 8 1
02/02/06 11:12 a -7.7 -7.7 -7.7 --- --- 7.8 NW 0.13 8.7 -13.7 --- --- 731.4 0.018 0.000 8.9 8 1
02/02/06 11:13 a -7.7 -7.7 -7.7 --- --- 6.1 NW 0.10 7.0 -12.8 --- --- 731.4 0.018 0.000 8.9 8 1
02/02/06 11:14 a -7.6 -7.6 -7.6 --- --- 6.1 NW 0.10 7.0 -12.8 --- --- 731.4 0.018 0.000 8.9 8 1
02/02/06 11:15 a -7.6 -7.6 -7.7 --- --- 4.3 NW 0.07 6.1 -11.7 --- --- 731.5 0.018 0.000 8.9 8 1
02/02/06 11:16 a -7.7 -7.7 -7.7 --- --- 4.3 NW 0.07 6.1 -11.7 --- --- 731.4 0.018 0.000 8.9 8 1
02/02/06 11:17 a -7.7 -7.7 -7.7 --- --- 6.1 NNW 0.10 7.8 -12.8 --- --- 731.4 0.018 0.000 8.9 8 1
02/02/06 11:18 a -7.7 -7.7 -7.7 --- --- 5.2 NW 0.09 6.1 -12.4 --- --- 731.5 0.018 0.000 8.9 8 1
02/02/06 11:19 a -7.7 -7.7 -7.7 --- --- 5.2 NW 0.09 7.0 -12.4 --- --- 731.4 0.018 0.000 8.9 8 1
02/02/06 11:20 a -7.8 -7.7 -7.8 --- --- 6.1 NW 0.10 7.8 -13.0 --- --- 731.4 0.018 0.000 8.9 8 1
02/02/06 11:21 a -7.8 -7.8 -7.8 --- --- 6.1 NW 0.10 7.0 -13.0 --- --- 731.4 0.018 0.000 9.0 8 1
02/02/06 11:22 a -7.8 -7.8 -7.8 --- --- 6.1 NW 0.10 7.8 -13.0 --- --- 731.4 0.018 0.000 9.0 8 1
02/02/06 11:23 a -7.8 -7.8 -7.8 --- --- 5.2 NW 0.09 7.0 -12.4 --- --- 731.4 0.018 0.000 9.0 8 1
02/02/06 11:24 a -7.8 -7.8 -7.8 --- --- 6.1 NNW 0.10 7.8 -13.0 --- --- 731.4 0.018 0.000 8.9 8 1
02/02/06 11:25 a -7.8 -7.8 -7.8 --- --- 5.2 NW 0.09 7.0 -12.4 --- --- 731.4 0.018 0.000 8.9 8 1
02/02/06 11:26 a -7.8 -7.8 -7.8 --- --- 5.2 NW 0.09 6.1 -12.4 --- --- 731.4 0.018 0.000 8.9 8 1
02/02/06 11:27 a -7.8 -7.8 -7.8 --- --- 6.1 NW 0.10 7.0 -13.1 --- --- 731.4 0.018 0.000 8.9 8 1
02/02/06 11:28 a -7.8 -7.8 -7.8 --- --- 5.2 NW 0.09 6.1 -12.6 --- --- 731.4 0.018 0.000 8.9 8 1
02/02/06 11:29 a -7.9 -7.8 -7.9 --- --- 6.1 NW 0.10 7.8 -13.1 --- --- 731.4 0.018 0.000 8.9 8 1
02/02/06 11:30 a -7.9 -7.9 -7.9 --- --- 7.8 NW 0.13 8.7 -14.0 --- --- 731.4 0.018 0.000 8.9 8 1
02/02/06 11:31 a -7.9 -7.9 -7.9 --- --- 7.0 NW 0.12 8.7 -13.6 --- --- 731.4 0.018 0.000 8.9 8 1
02/02/06 11:32 a -7.9 -7.9 -7.9 --- --- 6.1 NW 0.10 7.0 -13.1 --- --- 731.4 0.018 0.000 8.9 8 1
02/02/06 11:33 a -7.9 -7.8 -7.9 --- --- 7.8 NW 0.13 8.7 -14.0 --- --- 731.4 0.018 0.000 8.9 8 1
02/02/06 11:34 a -7.8 -7.8 -7.9 --- --- 9.6 WNW 0.16 10.4 -14.7 --- --- 731.4 0.018 0.000 8.9 8 1
02/02/06 11:35 a -7.8 -7.8 -7.8 --- --- 7.8 WNW 0.13 9.6 -13.9 --- --- 731.4 0.018 0.000 8.9 8 1
02/02/06 11:36 a -7.8 -7.8 -7.8 --- --- 6.1 WNW 0.10 7.8 -13.0 --- --- 731.4 0.018 0.000 8.9 8 1
02/02/06 11:37 a -7.7 -7.7 -7.8 --- --- 6.1 WNW 0.10 8.7 -12.9 --- --- 731.5 0.018 0.000 8.9 8 1
02/02/06 11:38 a -7.8 -7.8 -7.8 --- --- 7.8 NW 0.13 8.7 -13.8 --- --- 731.4 0.018 0.000 8.9 8 1
02/02/06 11:39 a -7.8 -7.8 -7.8 --- --- 7.0 NW 0.12 7.8 -13.4 --- --- 731.5 0.018 0.000 9.0 8 1
02/02/06 11:40 a -7.8 -7.8 -7.8 --- --- 5.2 NW 0.09 6.1 -12.6 --- --- 731.5 0.018 0.000 8.9 8 1
02/02/06 11:41 a -7.8 -7.8 -7.9 --- --- 6.1 NW 0.10 7.0 -13.1 --- --- 731.4 0.018 0.000 8.9 8 1
02/02/06 11:42 a -7.9 -7.9 -7.9 --- --- 7.0 NW 0.12 7.8 -13.6 --- --- 731.4 0.018 0.000 8.9 8 1
02/02/06 11:43 a -7.9 -7.9 -7.9 --- --- 7.0 NW 0.12 7.8 -13.7 --- --- 731.5 0.018 0.000 8.9 8 1
02/02/06 11:44 a -7.9 -7.9 -7.9 --- --- 5.2 NW 0.09 6.1 -12.6 --- --- 731.4 0.018 0.000 8.9 8 1
02/02/06 11:45 a -7.9 -7.9 -7.9 --- --- 3.5 WNW 0.06 4.3 -11.3 --- --- 731.3 0.018 0.000 8.9 8 1
02/02/06 11:46 a -7.9 -7.8 -7.9 --- --- 4.3 WNW 0.07 5.2 -12.0 --- --- 731.4 0.018 0.000 8.9 8 1
02/02/06 11:47 a -7.8 -7.8 -7.8 --- --- 5.2 NW 0.09 7.0 -12.6 --- --- 731.4 0.018 0.000 8.9 8 1
02/02/06 11:48 a -7.9 -7.8 -7.9 --- --- 6.1 WNW 0.10 7.0 -13.1 --- --- 731.4 0.018 0.000 8.9 8 1
02/02/06 11:49 a -7.9 -7.9 -7.9 --- --- 6.1 WNW 0.10 7.0 -13.1 --- --- 731.4 0.018 0.000 8.9 8 1
02/02/06 11:50 a -7.9 -7.9 -7.9 --- --- 7.0 WNW 0.12 7.8 -13.7 --- --- 731.4 0.018 0.000 8.9 8 1
02/02/06 11:51 a -7.9 -7.9 -7.9 --- --- 6.1 WNW 0.10 7.0 -13.1 --- --- 731.5 0.018 0.000 8.9 8 1
02/02/06 11:52 a -7.9 -7.9 -7.9 --- --- 5.2 WNW 0.09 7.0 -12.6 --- --- 731.4 0.018 0.000 8.9 8 1
02/02/06 11:53 a -7.9 -7.9 -7.9 --- --- 5.2 W 0.09 7.0 -12.6 --- --- 731.5 0.018 0.000 8.9 8 1
02/02/06 11:54 a -7.9 -7.9 -7.9 --- --- 3.5 W 0.06 4.3 -11.3 --- --- 731.4 0.018 0.000 8.9 8 1
02/02/06 11:55 a -7.9 -7.9 -7.9 --- --- 4.3 WNW 0.07 5.2 -12.0 --- --- 731.4 0.018 0.000 8.9 8 1
02/02/06 11:56 a -7.9 -7.9 -7.9 --- --- 6.1 NW 0.10 7.8 -13.1 --- --- 731.5 0.018 0.000 8.9 8 1
02/02/06 11:57 a -7.9 -7.9 -8.0 --- --- 6.1 NW 0.10 7.0 -13.2 --- --- 731.5 0.018 0.000 8.9 8 1
02/02/06 11:58 a -8.1 -8.0 -8.1 --- --- 5.2 NW 0.09 7.8 -12.8 --- --- 731.4 0.018 0.000 8.9 8 1
02/02/06 11:59 a -8.1 -8.1 -8.1 --- --- 5.2 NW 0.09 6.1 -12.8 --- --- 731.4 0.018 0.000 8.9 8 1
02/02/06 12:00 p -8.1 -8.0 -8.1 --- --- 2.6 NW 0.04 3.5 -10.6 --- --- 731.4 0.018 0.000 8.9 8 1
02/02/06 12:02 p -8.0 -8.0 -8.0 --- --- 5.2 WNW 0.09 7.0 -12.7 --- --- 731.5 0.018 0.000 8.9 8 1
02/02/06 12:03 p -8.1 -8.1 -8.1 --- --- 3.5 WNW 0.06 5.2 -11.5 --- --- 731.4 0.018 0.000 8.9 8 1
02/02/06 12:04 p -8.0 -8.0 -8.1 --- --- 2.6 WNW 0.04 3.5 -10.6 --- --- 731.5 0.018 0.000 8.9 8 1
02/02/06 12:05 p -8.0 -8.0 -8.0 --- --- 3.5 WNW 0.06 4.3 -11.4 --- --- 731.5 0.018 0.000 8.9 8 1
02/02/06 12:06 p -8.0 -8.0 -8.1 --- --- 5.2 NW 0.09 7.0 -12.7 --- --- 731.5 0.018 0.000 8.9 8 1
02/02/06 12:07 p -8.1 -8.1 -8.1 --- --- 5.2 WNW 0.09 7.0 -12.8 --- --- 731.5 0.018 0.000 8.9 8 1
02/02/06 12:08 p -8.1 -8.1 -8.1 --- --- 4.3 WNW 0.07 5.2 -12.3 --- --- 731.5 0.018 0.000 8.9 8 1
02/02/06 12:09 p -8.1 -8.1 -8.1 --- --- 4.3 WNW 0.07 5.2 -12.3 --- --- 731.5 0.018 0.000 8.9 8 1
02/02/06 12:10 p -8.1 -8.1 -8.1 --- --- 2.6 WNW 0.04 4.3 -10.7 --- --- 731.5 0.018 0.000 8.9 8 1
02/02/06 12:11 p -8.0 -8.0 -8.0 --- --- 4.3 WSW 0.07 7.0 -12.1 --- --- 731.4 0.018 0.000 8.9 8 1
02/02/06 12:12 p -8.1 -8.0 -8.1 --- --- 5.2 WNW 0.09 6.1 -12.8 --- --- 731.4 0.018 0.000 8.9 8 1
02/02/06 12:13 p -8.1 -8.1 -8.2 --- --- 6.1 NW 0.10 6.1 -13.4 --- --- 731.5 0.018 0.000 8.9 8 1
02/02/06 12:14 p -8.2 -8.2 -8.2 --- --- 4.3 NW 0.07 5.2 -12.4 --- --- 731.5 0.018 0.000 8.9 8 1
02/02/06 12:15 p -8.3 -8.3 -8.3 --- --- 3.5 NW 0.06 4.3 -11.7 --- --- 731.5 0.018 0.000 8.9 8 1
02/02/06 12:16 p -8.3 -8.3 -8.4 --- --- 2.6 NW 0.04 3.5 -10.9 --- --- 731.5 0.019 0.000 8.9 8 1
02/02/06 12:17 p -8.4 -8.4 -8.4 --- --- 2.6 NW 0.04 3.5 -11.0 --- --- 731.4 0.019 0.000 8.9 8 1
02/02/06 12:18 p -8.4 -8.4 -8.4 --- --- 3.5 NW 0.06 5.2 -11.9 --- --- 731.5 0.019 0.000 8.9 8 1
02/02/06 12:19 p -8.4 -8.4 -8.4 --- --- 3.5 NW 0.06 4.3 -11.9 --- --- 731.5 0.019 0.000 8.8 8 1
02/02/06 12:20 p -8.4 -8.4 -8.4 --- --- 3.5 NW 0.06 3.5 -11.9 --- --- 731.6 0.019 0.000 8.8 8 1
02/02/06 12:21 p -8.5 -8.4 -8.5 --- --- 3.5 NW 0.06 5.2 -12.0 --- --- 731.5 0.019 0.000 8.8 8 1
02/02/06 12:22 p -8.4 -8.4 -8.5 --- --- 4.3 NW 0.07 5.2 -12.7 --- --- 731.6 0.019 0.000 8.8 8 1
02/02/06 12:23 p -8.5 -8.5 -8.5 --- --- 4.3 NNW 0.07 5.2 -12.7 --- --- 731.5 0.019 0.000 8.8 8 1
02/02/06 12:24 p -8.6 -8.6 -8.7 --- --- 5.2 NNW 0.09 7.0 -13.4 --- --- 731.5 0.019 0.000 8.8 8 1
02/02/06 12:25 p -8.7 -8.6 -8.7 --- --- 4.3 NNW 0.07 5.2 -12.9 --- --- 731.6 0.019 0.000 8.8 8 1
02/02/06 12:26 p -8.7 -8.7 -8.8 --- --- 4.3 NNW 0.07 5.2 -13.0 --- --- 731.5 0.019 0.000 8.8 8 1
02/02/06 12:27 p -8.8 -8.8 -8.8 --- --- 2.6 NNW 0.04 4.3 -11.5 --- --- 731.5 0.019 0.000 8.8 8 1
02/02/06 12:28 p -8.8 -8.8 -8.8 --- --- 2.6 NNW 0.04 3.5 -11.4 --- --- 731.5 0.019 0.000 8.8 8 1
02/02/06 12:29 p -8.8 -8.8 -8.8 --- --- 3.5 NNW 0.06 4.3 -12.4 --- --- 731.6 0.019 0.000 8.8 8 1
02/02/06 12:30 p -8.8 -8.8 -8.8 --- --- 3.5 NNW 0.06 4.3 -12.4 --- --- 731.5 0.019 0.000 8.8 8 1
02/02/06 12:31 p -8.8 -8.8 -8.8 --- --- 5.2 NNW 0.09 6.1 -13.7 --- --- 731.5 0.019 0.000 8.8 8 1
02/02/06 12:32 p -8.8 -8.8 -8.8 --- --- 3.5 NNW 0.06 5.2 -12.3 --- --- 731.5 0.019 0.000 8.8 8 1
02/02/06 12:33 p -8.8 -8.8 -8.8 --- --- 2.6 NNW 0.04 3.5 -11.4 --- --- 731.5 0.019 0.000 8.8 8 1
02/02/06 12:34 p -8.8 -8.8 -8.8 --- --- 2.6 NNW 0.04 4.3 -11.4 --- --- 731.5 0.019 0.000 8.8 8 1
02/02/06 12:35 p -8.8 -8.8 -8.8 --- --- 5.2 NNW 0.09 6.1 -13.7 --- --- 731.5 0.019 0.000 8.8 8 1
02/02/06 12:36 p -8.9 -8.8 -8.9 --- --- 5.2 NNW 0.09 6.1 -13.8 --- --- 731.5 0.019 0.000 8.8 8 1
02/02/06 12:37 p -8.9 -8.9 -8.9 --- --- 4.3 NNW 0.07 5.2 -13.2 --- --- 731.5 0.019 0.000 8.8 8 1
02/02/06 12:38 p -8.9 -8.9 -8.9 --- --- 4.3 NNW 0.07 4.3 -13.2 --- --- 731.5 0.019 0.000 8.8 8 1
02/02/06 12:39 p -8.9 -8.9 -8.9 --- --- 3.5 NNW 0.06 5.2 -12.4 --- --- 731.5 0.019 0.000 8.8 8 1
02/02/06 12:40 p -8.8 -8.7 -8.9 --- --- 5.2 NNW 0.09 6.1 -13.7 --- --- 731.5 0.019 0.000 8.8 8 1
02/02/06 12:41 p -8.7 -8.6 -8.7 --- --- 3.5 NNW 0.06 6.1 -12.2 --- --- 731.5 0.019 0.000 8.8 8 1
02/02/06 12:42 p -8.6 -8.6 -8.7 --- --- 5.2 NW 0.09 6.1 -13.4 --- --- 731.5 0.019 0.000 8.8 8 1
02/02/06 12:43 p -8.7 -8.7 -8.7 --- --- 5.2 NW 0.09 6.1 -13.5 --- --- 731.5 0.019 0.000 8.8 8 1
02/02/06 12:44 p -8.8 -8.7 -8.8 --- --- 5.2 NW 0.09 6.1 -13.7 --- --- 731.5 0.019 0.000 8.8 8 1
02/02/06 12:45 p -8.8 -8.8 -8.9 --- --- 4.3 NW 0.07 5.2 -13.1 --- --- 731.5 0.019 0.000 8.8 8 1
02/02/06 12:46 p -8.9 -8.9 -8.9 --- --- 3.5 NW 0.06 4.3 -12.4 --- --- 731.5 0.019 0.000 8.8 8 1
02/02/06 12:47 p -8.9 -8.9 -8.9 --- --- 2.6 NW 0.04 3.5 -11.6 --- --- 731.4 0.019 0.000 8.8 8 1
02/02/06 12:48 p -8.9 -8.9 -9.0 --- --- 3.5 NW 0.06 4.3 -12.5 --- --- 731.5 0.019 0.000 8.8 8 1
02/02/06 12:49 p -9.0 -8.9 -9.0 --- --- 3.5 NW 0.06 4.3 -12.6 --- --- 731.5 0.019 0.000 8.8 8 1
02/02/06 12:50 p -9.1 -9.0 -9.1 --- --- 3.5 NW 0.06 5.2 -12.7 --- --- 731.5 0.019 0.000 8.8 8 1
02/02/06 12:51 p -9.0 -8.9 -9.1 --- --- 3.5 NW 0.06 4.3 -12.6 --- --- 731.6 0.019 0.000 8.8 8 1
02/02/06 12:52 p -8.9 -8.9 -8.9 --- --- 4.3 NW 0.07 5.2 -13.2 --- --- 731.6 0.019 0.000 8.8 8 1
02/02/06 12:53 p -8.9 -8.9 -8.9 --- --- 4.3 NW 0.07 5.2 -13.2 --- --- 731.5 0.019 0.000 8.8 8 1
02/02/06 12:54 p -8.9 -8.9 -8.9 --- --- 4.3 NW 0.07 5.2 -13.2 --- --- 731.6 0.019 0.000 8.8 8 1
02/02/06 12:55 p -8.9 -8.9 -8.9 --- --- 4.3 NW 0.07 5.2 -13.2 --- --- 731.6 0.019 0.000 8.8 8 1
02/02/06 12:56 p -8.9 -8.9 -8.9 --- --- 3.5 NW 0.06 4.3 -12.5 --- --- 731.6 0.019 0.000 8.8 8 1
02/02/06 12:57 p -8.9 -8.9 -8.9 --- --- 2.6 NNW 0.04 2.6 -11.6 --- --- 731.6 0.019 0.000 8.8 8 1
02/02/06 12:58 p -8.9 -8.9 -8.9 --- --- 2.6 NNW 0.04 3.5 -11.6 --- --- 731.6 0.019 0.000 8.8 8 1
02/02/06 12:59 p -8.8 -8.8 -8.9 --- --- 3.5 NNW 0.06 5.2 -12.4 --- --- 731.6 0.019 0.000 8.8 8 1
02/02/06 1:00 p -8.8 -8.8 -8.8 --- --- 4.3 NNW 0.07 5.2 -13.1 --- --- 731.6 0.019 0.000 8.8 8 1
02/02/06 1:02 p -8.8 -8.8 -8.8 --- --- 2.6 NNW 0.04 3.5 -11.4 --- --- 731.5 0.019 0.000 8.8 8 1
02/02/06 1:03 p -8.8 -8.8 -8.8 --- --- 2.6 NNW 0.04 3.5 -11.4 --- --- 731.6 0.019 0.000 8.8 8 1
02/02/06 1:04 p -8.8 -8.8 -8.8 --- --- 1.7 NNW 0.03 2.6 -10.3 --- --- 731.6 0.019 0.000 8.8 8 1
02/02/06 1:05 p -8.8 -8.8 -8.8 --- --- 0.9 NNW 0.01 1.7 -8.8 --- --- 731.5 0.019 0.000 8.8 8 1
02/02/06 1:06 p -8.8 -8.7 -8.8 --- --- 0.9 NNW 0.01 2.6 -8.8 --- --- 731.5 0.019 0.000 8.8 8 1
02/02/06 1:07 p -8.7 -8.7 -8.7 --- --- 0.0 NNW 0.00 0.9 -8.7 --- --- 731.6 0.019 0.000 8.8 8 1
02/02/06 1:08 p -8.7 -8.7 -8.7 --- --- 0.9 NNW 0.01 1.7 -8.7 --- --- 731.5 0.019 0.000 8.9 8 1
02/02/06 1:09 p -8.7 -8.7 -8.7 --- --- 1.7 NNW 0.03 3.5 -10.2 --- --- 731.5 0.019 0.000 8.9 8 1
02/02/06 1:10 p -8.7 -8.7 -8.7 --- --- 0.0 NNW 0.00 1.7 -8.7 --- --- 731.5 0.019 0.000 8.9 8 1
02/02/06 1:11 p -8.7 -8.7 -8.7 --- --- 0.9 NNW 0.01 1.7 -8.7 --- --- 731.5 0.019 0.000 8.9 8 1
02/02/06 1:12 p -8.7 -8.7 -8.7 --- --- 0.9 NNW 0.01 1.7 -8.7 --- --- 731.5 0.019 0.000 8.9 8 1
02/02/06 1:13 p -8.7 -8.7 -8.7 --- --- 0.9 NNW 0.01 1.7 -8.7 --- --- 731.5 0.019 0.000 8.9 8 1
02/02/06 1:14 p -8.7 -8.7 -8.7 --- --- 1.7 NNW 0.03 4.3 -10.1 --- --- 731.5 0.019 0.000 8.9 8 1
02/02/06 1:15 p -8.7 -8.7 -8.7 --- --- 3.5 NNW 0.06 4.3 -12.3 --- --- 731.5 0.019 0.000 8.9 8 1
02/02/06 1:16 p -8.7 -8.7 -8.8 --- --- 3.5 NNW 0.06 4.3 -12.3 --- --- 731.5 0.019 0.000 8.9 8 1
02/02/06 1:17 p -8.7 -8.7 -8.7 --- --- 2.6 NNW 0.04 3.5 -11.3 --- --- 731.5 0.019 0.000 8.9 8 1
02/02/06 1:18 p -8.8 -8.8 -8.8 --- --- 1.7 NNW 0.03 2.6 -10.2 --- --- 731.4 0.019 0.000 8.9 8 1
02/02/06 1:19 p -8.8 -8.8 -8.8 --- --- 1.7 NNW 0.03 2.6 -10.2 --- --- 731.4 0.019 0.000 8.9 8 1
02/02/06 1:20 p -8.8 -8.8 -8.8 --- --- 0.9 NNW 0.01 0.9 -8.8 --- --- 731.4 0.019 0.000 8.9 8 1
02/02/06 1:21 p -8.8 -8.8 -8.9 --- --- 0.9 NNW 0.01 1.7 -8.8 --- --- 731.4 0.019 0.000 8.9 8 1
02/02/06 1:22 p -8.9 -8.8 -8.9 --- --- 0.0 NNW 0.00 1.7 -8.9 --- --- 731.5 0.019 0.000 8.9 8 1
02/02/06 1:23 p -8.8 -8.8 -8.8 --- --- 1.7 NNW 0.03 2.6 -10.3 --- --- 731.4 0.019 0.000 8.8 8 1
02/02/06 1:24 p -8.8 -8.8 -8.8 --- --- 2.6 NNW 0.04 3.5 -11.5 --- --- 731.5 0.019 0.000 8.8 8 1
02/02/06 1:25 p -8.8 -8.7 -8.8 --- --- 3.5 NNW 0.06 4.3 -12.3 --- --- 731.4 0.019 0.000 8.8 8 1
02/02/06 1:26 p -8.7 -8.7 -8.7 --- --- 2.6 NNW 0.04 4.3 -11.3 --- --- 731.4 0.019 0.000 8.8 8 1
02/02/06 1:27 p -8.7 -8.7 -8.7 --- --- 1.7 NNW 0.03 2.6 -10.1 --- --- 731.5 0.019 0.000 8.8 8 1
02/02/06 1:28 p -8.6 -8.6 -8.7 --- --- 0.0 NNW 0.00 0.9 -8.6 --- --- 731.5 0.019 0.000 8.8 8 1
02/02/06 1:29 p -8.6 -8.6 -8.6 --- --- 0.9 NNW 0.01 1.7 -8.6 --- --- 731.5 0.019 0.000 8.8 8 1
02/02/06 1:30 p -8.6 -8.6 -8.6 --- --- 0.9 NNW 0.01 1.7 -8.6 --- --- 731.4 0.019 0.000 8.8 8 1
02/02/06 1:31 p -8.7 -8.6 -8.7 --- --- 1.7 NNW 0.03 1.7 -10.1 --- --- 731.5 0.019 0.000 8.8 8 1
02/02/06 1:32 p -8.7 -8.7 -8.7 --- --- 1.7 NNW 0.03 1.7 -10.2 --- --- 731.5 0.019 0.000 8.8 8 1
02/02/06 1:33 p -8.7 -8.7 -8.7 --- --- 2.6 NNW 0.04 3.5 -11.3 --- --- 731.5 0.019 0.000 8.8 8 1
02/02/06 1:34 p -8.7 -8.7 -8.7 --- --- 2.6 NNW 0.04 3.5 -11.3 --- --- 731.5 0.019 0.000 8.8 8 1
02/02/06 1:35 p -8.7 -8.7 -8.8 --- --- 3.5 NNW 0.06 4.3 -12.3 --- --- 731.5 0.019 0.000 8.8 8 1
02/02/06 1:36 p -8.8 -8.8 -8.8 --- --- 2.6 NNW 0.04 3.5 -11.4 --- --- 731.5 0.019 0.000 8.8 8 1
02/02/06 1:37 p -8.8 -8.8 -8.8 --- --- 1.7 NNW 0.03 3.5 -10.3 --- --- 731.5 0.019 0.000 8.8 8 1
02/02/06 1:38 p -8.8 -8.8 -8.9 --- --- 1.7 NNW 0.03 2.6 -10.3 --- --- 731.5 0.019 0.000 8.8 8 1
02/02/06 1:39 p -8.9 -8.8 -8.9 --- --- 0.9 NNW 0.01 1.7 -8.9 --- --- 731.4 0.019 0.000 8.8 8 1
02/02/06 1:40 p -8.9 -8.9 -8.9 --- --- 1.7 NNW 0.03 1.7 -10.3 --- --- 731.5 0.019 0.000 8.8 8 1
02/02/06 1:41 p -8.8 -8.8 -8.9 --- --- 0.9 NNW 0.01 1.7 -8.8 --- --- 731.3 0.019 0.000 8.9 8 1
02/02/06 1:42 p -8.7 -8.7 -8.8 --- --- 0.9 NNW 0.01 1.7 -8.7 --- --- 731.4 0.019 0.000 8.9 8 1
02/02/06 1:43 p -8.7 -8.7 -8.8 --- --- 0.9 NNW 0.01 1.7 -8.7 --- --- 731.5 0.019 0.000 8.9 7 1
02/02/06 1:44 p -8.7 -8.7 -8.8 --- --- 1.7 NNW 0.03 1.7 -10.2 --- --- 731.4 0.019 0.000 8.8 8 1
02/02/06 1:45 p -8.7 -8.7 -8.7 --- --- 1.7 NNW 0.03 3.5 -10.2 --- --- 731.4 0.019 0.000 8.9 8 1
02/02/06 1:46 p -8.7 -8.7 -8.8 --- --- 2.6 NNW 0.04 3.5 -11.3 --- --- 731.5 0.019 0.000 8.9 8 1
02/02/06 1:47 p -8.8 -8.7 -8.8 --- --- 1.7 NNW 0.03 3.5 -10.2 --- --- 731.4 0.019 0.000 8.9 8 1
02/02/06 1:48 p -8.7 -8.7 -8.7 --- --- 0.9 NNW 0.01 1.7 -8.7 --- --- 731.4 0.019 0.000 8.9 8 1
02/02/06 1:49 p -8.7 -8.7 -8.7 --- --- 1.7 NNW 0.03 1.7 -10.2 --- --- 731.4 0.019 0.000 8.9 8 1
02/02/06 1:50 p -8.7 -8.7 -8.7 --- --- 1.7 NNW 0.03 2.6 -10.1 --- --- 731.4 0.019 0.000 8.9 7 1
02/02/06 1:51 p -8.7 -8.6 -8.7 --- --- 1.7 NNW 0.03 2.6 -10.1 --- --- 731.5 0.019 0.000 8.9 7 1
02/02/06 1:52 p -8.7 -8.7 -8.7 --- --- 0.9 NNW 0.01 1.7 -8.7 --- --- 731.4 0.019 0.000 8.9 8 1
02/02/06 1:53 p -8.7 -8.7 -8.7 --- --- 1.7 NNW 0.03 2.6 -10.1 --- --- 731.4 0.019 0.000 8.9 8 1
02/02/06 1:54 p -8.7 -8.7 -8.7 --- --- 1.7 NNW 0.03 2.6 -10.2 --- --- 731.4 0.019 0.000 8.9 8 1
02/02/06 1:55 p -8.7 -8.7 -8.7 --- --- 0.0 NNW 0.00 1.7 -8.7 --- --- 731.4 0.019 0.000 8.9 8 1
02/02/06 1:56 p -8.7 -8.7 -8.7 --- --- 0.0 NNW 0.00 0.9 -8.7 --- --- 731.4 0.019 0.000 8.9 8 1
02/02/06 1:57 p -8.7 -8.7 -8.7 --- --- 0.0 NNW 0.00 0.9 -8.7 --- --- 731.4 0.019 0.000 8.9 8 1
02/02/06 1:58 p -8.7 -8.7 -8.7 --- --- 0.0 NNW 0.00 0.9 -8.7 --- --- 731.4 0.019 0.000 8.9 8 1
02/02/06 1:59 p -8.7 -8.7 -8.7 --- --- 0.0 NNW 0.00 0.9 -8.7 --- --- 731.4 0.019 0.000 8.9 8 1
02/02/06 2:00 p -8.7 -8.7 -8.7 --- --- 0.0 NNW 0.00 1.7 -8.7 --- --- 731.4 0.019 0.000 8.9 8 1
02/02/06 2:01 p -8.7 -8.7 -8.7 --- --- 1.7 NNW 0.03 1.7 -10.1 --- --- 731.4 0.019 0.000 8.9 8 1
02/02/06 2:02 p -8.7 -8.7 -8.7 --- --- 0.9 NNW 0.01 1.7 -8.7 --- --- 731.5 0.019 0.000 8.9 8 1
02/02/06 2:03 p -8.7 -8.7 -8.7 --- --- 1.7 NNW 0.03 2.6 -10.2 --- --- 731.5 0.019 0.000 8.9 8 1
02/02/06 2:04 p -8.8 -8.7 -8.8 --- --- 0.9 NNW 0.01 1.7 -8.8 --- --- 731.5 0.019 0.000 8.9 7 1
02/02/06 2:05 p -8.8 -8.8 -8.8 --- --- 1.7 NNW 0.03 2.6 -10.2 --- --- 731.5 0.019 0.000 8.9 8 1
02/02/06 2:06 p -8.7 -8.7 -8.8 --- --- 1.7 NNW 0.03 2.6 -10.2 --- --- 731.5 0.019 0.000 8.9 8 1
02/02/06 2:07 p -8.7 -8.7 -8.7 --- --- 2.6 NNW 0.04 3.5 -11.3 --- --- 731.5 0.019 0.000 8.9 7 1
02/02/06 2:08 p -8.8 -8.7 -8.8 --- --- 2.6 NNW 0.04 2.6 -11.4 --- --- 731.5 0.019 0.000 8.9 7 1
02/02/06 2:09 p -8.8 -8.8 -8.8 --- --- 2.6 NNW 0.04 3.5 -11.4 --- --- 731.5 0.019 0.000 8.9 8 1
02/02/06 2:10 p -8.8 -8.8 -8.8 --- --- 1.7 NNW 0.03 2.6 -10.2 --- --- 731.5 0.019 0.000 8.9 7 1
02/02/06 2:11 p -8.8 -8.8 -8.8 --- --- 0.9 NNW 0.01 1.7 -8.8 --- --- 731.4 0.019 0.000 8.9 7 1
02/02/06 2:12 p -8.8 -8.7 -8.8 --- --- 1.7 NNW 0.03 2.6 -10.2 --- --- 731.5 0.019 0.000 8.9 7 1
02/02/06 2:13 p -8.7 -8.7 -8.8 --- --- 1.7 NNW 0.03 2.6 -10.2 --- --- 731.5 0.019 0.000 8.9 7 1
02/02/06 2:14 p -8.7 -8.7 -8.7 --- --- 0.9 NNW 0.01 1.7 -8.7 --- --- 731.4 0.019 0.000 8.8 7 1
02/02/06 2:15 p -8.7 -8.7 -8.7 --- --- 1.7 NNW 0.03 2.6 -10.2 --- --- 731.4 0.019 0.000 8.9 7 1
02/02/06 2:16 p -8.7 -8.7 -8.7 --- --- 0.9 NNW 0.01 1.7 -8.7 --- --- 731.4 0.019 0.000 8.8 7 1
02/02/06 2:17 p -8.7 -8.7 -8.7 --- --- 1.7 NNW 0.03 1.7 -10.1 --- --- 731.4 0.019 0.000 8.8 7 1
02/02/06 2:18 p -8.7 -8.7 -8.7 --- --- 0.9 NNW 0.01 1.7 -8.7 --- --- 731.5 0.019 0.000 8.8 7 1
02/02/06 2:19 p -8.7 -8.7 -8.7 --- --- 0.9 NNW 0.01 1.7 -8.7 --- --- 731.5 0.019 0.000 8.8 7 1
02/02/06 2:20 p -8.6 -8.6 -8.6 --- --- 0.9 NNW 0.01 2.6 -8.6 --- --- 731.4 0.019 0.000 8.8 7 1
02/02/06 2:21 p -8.5 -8.4 -8.6 --- --- 0.9 NNW 0.01 1.7 -8.5 --- --- 731.4 0.019 0.000 8.8 7 1
02/02/06 2:22 p -8.4 -8.4 -8.4 --- --- 0.0 --- 0.00 0.9 -8.4 --- --- 731.5 0.019 0.000 8.8 7 1
02/02/06 2:23 p -8.4 -8.4 -8.4 --- --- 0.0 --- 0.00 0.0 -8.4 --- --- 731.4 0.019 0.000 8.8 7 1
02/02/06 2:24 p -8.4 -8.4 -8.4 --- --- 0.0 --- 0.00 0.0 -8.4 --- --- 731.4 0.019 0.000 8.8 7 1
02/02/06 2:25 p -8.4 -8.4 -8.4 --- --- 0.0 --- 0.00 0.0 -8.4 --- --- 731.3 0.019 0.000 8.8 7 1
02/02/06 2:26 p -8.4 -8.4 -8.4 --- --- 0.0 --- 0.00 0.0 -8.4 --- --- 731.4 0.019 0.000 8.8 7 1
02/02/06 2:27 p -8.4 -8.4 -8.4 --- --- 0.0 --- 0.00 0.0 -8.4 --- --- 731.4 0.019 0.000 8.8 7 1
02/02/06 2:28 p -8.4 -8.4 -8.4 --- --- 0.0 --- 0.00 0.0 -8.4 --- --- 731.4 0.019 0.000 8.8 7 1
02/02/06 2:29 p -8.4 -8.4 -8.4 --- --- 0.0 --- 0.00 0.0 -8.4 --- --- 731.4 0.019 0.000 8.8 7 1
02/02/06 2:30 p -8.4 -8.4 -8.5 --- --- 0.0 --- 0.00 0.0 -8.4 --- --- 731.4 0.019 0.000 8.8 7 1
02/02/06 2:31 p -8.5 -8.5 -8.5 --- --- 0.0 --- 0.00 0.0 -8.5 --- --- 731.4 0.019 0.000 8.8 7 1
02/02/06 2:32 p -8.5 -8.5 -8.5 --- --- 0.0 NNW 0.00 0.9 -8.5 --- --- 731.3 0.019 0.000 8.8 7 1
02/02/06 2:33 p -8.5 -8.5 -8.6 --- --- 0.0 NNW 0.00 0.9 -8.5 --- --- 731.4 0.019 0.000 8.8 7 1
02/02/06 2:34 p -8.6 -8.6 -8.6 --- --- 0.0 NNW 0.00 0.9 -8.6 --- --- 731.4 0.019 0.000 8.8 7 1
02/02/06 2:35 p -8.6 -8.6 -8.6 --- --- 0.0 NNW 0.00 0.9 -8.6 --- --- 731.4 0.019 0.000 8.8 7 1
02/02/06 2:36 p -8.6 -8.6 -8.6 --- --- 0.0 NNW 0.00 0.9 -8.6 --- --- 731.5 0.019 0.000 8.8 7 1
02/02/06 2:37 p -8.7 -8.7 -8.7 --- --- 0.9 NNW 0.01 1.7 -8.7 --- --- 731.5 0.019 0.000 8.8 7 1
02/02/06 2:38 p -8.7 -8.7 -8.7 --- --- 0.0 NNW 0.00 0.9 -8.7 --- --- 731.4 0.019 0.000 8.8 7 1
02/02/06 2:39 p -8.7 -8.7 -8.7 --- --- 0.0 NNW 0.00 0.9 -8.7 --- --- 731.4 0.019 0.000 8.8 7 1
02/02/06 2:40 p -8.7 -8.7 -8.7 --- --- 0.0 NNW 0.00 0.9 -8.7 --- --- 731.4 0.019 0.000 8.8 7 1
02/02/06 2:41 p -8.7 -8.7 -8.7 --- --- 0.0 NNW 0.00 0.9 -8.7 --- --- 731.4 0.019 0.000 8.8 7 1
02/02/06 2:42 p -8.7 -8.7 -8.7 --- --- 0.9 NNW 0.01 1.7 -8.7 --- --- 731.4 0.019 0.000 8.8 7 1
02/02/06 2:43 p -8.7 -8.7 -8.7 --- --- 0.9 NNW 0.01 1.7 -8.7 --- --- 731.4 0.019 0.000 8.8 7 1
02/02/06 2:44 p -8.7 -8.7 -8.7 --- --- 0.0 NNW 0.00 0.9 -8.7 --- --- 731.4 0.019 0.000 8.8 7 1
02/02/06 2:45 p -8.7 -8.7 -8.7 --- --- 0.9 NNW 0.01 1.7 -8.7 --- --- 731.3 0.019 0.000 8.8 7 1
02/02/06 2:46 p -8.6 -8.6 -8.7 --- --- 1.7 NNW 0.03 1.7 -10.1 --- --- 731.3 0.019 0.000 8.8 7 1
02/02/06 2:47 p -8.6 -8.6 -8.6 --- --- 1.7 NNW 0.03 1.7 -10.1 --- --- 731.3 0.019 0.000 8.8 7 1
02/02/06 2:48 p -8.6 -8.6 -8.6 --- --- 1.7 NNW 0.03 2.6 -10.1 --- --- 731.4 0.019 0.000 8.8 7 1
02/02/06 2:49 p -8.6 -8.6 -8.6 --- --- 1.7 NNW 0.03 2.6 -10.0 --- --- 731.4 0.019 0.000 8.8 7 1
02/02/06 2:50 p -8.6 -8.6 -8.6 --- --- 1.7 NNW 0.03 1.7 -10.0 --- --- 731.3 0.019 0.000 8.8 7 1
02/02/06 2:51 p -8.6 -8.6 -8.6 --- --- 1.7 NNW 0.03 1.7 -10.0 --- --- 731.3 0.019 0.000 8.8 7 1
02/02/06 2:52 p -8.6 -8.6 -8.6 --- --- 0.9 NNW 0.01 2.6 -8.6 --- --- 731.4 0.019 0.000 8.8 7 1
02/02/06 2:53 p -8.6 -8.6 -8.6 --- --- 0.0 NNW 0.00 1.7 -8.6 --- --- 731.3 0.019 0.000 8.8 7 1
02/02/06 2:54 p -8.7 -8.6 -8.7 --- --- 0.9 NNW 0.01 0.9 -8.7 --- --- 731.4 0.019 0.000 8.7 7 1
02/02/06 2:55 p -8.7 -8.6 -8.7 --- --- 0.9 NNW 0.01 0.9 -8.7 --- --- 731.4 0.019 0.000 8.8 7 1
02/02/06 2:56 p -8.7 -8.7 -8.7 --- --- 0.9 NNW 0.01 1.7 -8.7 --- --- 731.4 0.019 0.000 8.7 7 1
02/02/06 2:57 p -8.7 -8.6 -8.7 --- --- 0.9 NNW 0.01 1.7 -8.7 --- --- 731.4 0.019 0.000 8.8 7 1
02/02/06 2:58 p -8.6 -8.6 -8.6 --- --- 0.9 NNW 0.01 0.9 -8.6 --- --- 731.4 0.019 0.000 8.8 7 1
02/02/06 2:59 p -8.5 -8.4 -8.6 --- --- 0.9 NNW 0.01 1.7 -8.5 --- --- 731.4 0.019 0.000 8.8 7 1
02/02/06 3:00 p -8.4 -8.3 -8.4 --- --- 0.0 NNW 0.00 0.9 -8.4 --- --- 731.4 0.019 0.000 8.8 7 1
02/02/06 3:01 p -8.3 -8.3 -8.3 --- --- 0.9 NNW 0.01 0.9 -8.3 --- --- 731.4 0.018 0.000 8.8 7 1
02/02/06 3:02 p -8.3 -8.3 -8.3 --- --- 0.9 NNW 0.01 1.7 -8.3 --- --- 731.4 0.018 0.000 8.8 7 1
02/02/06 3:03 p -8.3 -8.3 -8.4 --- --- 0.0 NNW 0.00 0.9 -8.3 --- --- 731.4 0.019 0.000 8.8 7 1
02/02/06 3:04 p -8.5 -8.4 -8.5 --- --- 0.0 NNW 0.00 0.9 -8.5 --- --- 731.4 0.019 0.000 8.8 7 1
02/02/06 3:05 p -8.5 -8.5 -8.6 --- --- 0.0 NNW 0.00 0.9 -8.5 --- --- 731.5 0.019 0.000 8.8 7 1
02/02/06 3:06 p -8.6 -8.6 -8.6 --- --- 0.0 NNW 0.00 0.9 -8.6 --- --- 731.5 0.019 0.000 8.8 7 1
02/02/06 3:07 p -8.6 -8.6 -8.6 --- --- 0.9 NNW 0.01 1.7 -8.6 --- --- 731.4 0.019 0.000 8.8 7 1
02/02/06 3:08 p -8.6 -8.6 -8.6 --- --- 0.9 NNW 0.01 1.7 -8.6 --- --- 731.5 0.019 0.000 8.8 7 1
02/02/06 3:09 p -8.6 -8.6 -8.6 --- --- 0.9 NNW 0.01 1.7 -8.6 --- --- 731.4 0.019 0.000 8.7 7 1
02/02/06 3:10 p -8.6 -8.6 -8.6 --- --- 0.0 NNW 0.00 0.9 -8.6 --- --- 731.4 0.019 0.000 8.7 7 1
02/02/06 3:11 p -8.6 -8.6 -8.6 --- --- 0.0 NNW 0.00 0.9 -8.6 --- --- 731.4 0.019 0.000 8.7 7 1
02/02/06 3:12 p -8.6 -8.5 -8.6 --- --- 0.0 --- 0.00 0.9 -8.6 --- --- 731.4 0.019 0.000 8.8 7 1
02/02/06 3:13 p -8.5 -8.5 -8.5 --- --- 0.9 NNW 0.01 1.7 -8.5 --- --- 731.5 0.019 0.000 8.8 7 1
02/02/06 3:14 p -8.4 -8.4 -8.5 --- --- 1.7 NNW 0.03 1.7 -9.8 --- --- 731.4 0.019 0.000 8.8 7 1
02/02/06 3:15 p -8.4 -8.4 -8.4 --- --- 0.9 NW 0.01 1.7 -8.4 --- --- 731.4 0.019 0.000 8.8 7 1
02/02/06 3:16 p -8.4 -8.4 -8.4 --- --- 0.0 NNW 0.00 0.9 -8.4 --- --- 731.5 0.019 0.000 8.8 7 1
02/02/06 3:17 p -8.4 -8.3 -8.4 --- --- 0.0 NNW 0.00 0.9 -8.4 --- --- 731.5 0.019 0.000 8.8 7 1
02/02/06 3:18 p -8.3 -8.3 -8.3 --- --- 0.9 NNW 0.01 1.7 -8.3 --- --- 731.4 0.019 0.000 8.9 7 1
02/02/06 3:19 p -8.3 -8.3 -8.3 --- --- 0.9 NNW 0.01 1.7 -8.3 --- --- 731.4 0.018 0.000 8.9 7 1
02/02/06 3:20 p -8.3 -8.3 -8.4 --- --- 0.0 NNW 0.00 0.9 -8.3 --- --- 731.4 0.019 0.000 8.9 7 1
02/02/06 3:21 p -8.4 -8.4 -8.4 --- --- 0.0 NNW 0.00 0.9 -8.4 --- --- 731.4 0.019 0.000 8.9 7 1
02/02/06 3:22 p -8.3 -8.3 -8.4 --- --- 0.0 NNW 0.00 0.9 -8.3 --- --- 731.4 0.019 0.000 8.9 7 1
02/02/06 3:23 p -8.3 -8.3 -8.3 --- --- 0.0 --- 0.00 0.0 -8.3 --- --- 731.4 0.018 0.000 8.9 7 1
02/02/06 3:24 p -8.3 -8.3 -8.3 --- --- 0.0 --- 0.00 0.0 -8.3 --- --- 731.4 0.019 0.000 8.9 7 1
02/02/06 3:25 p -8.3 -8.3 -8.3 --- --- 0.0 NNW 0.00 0.9 -8.3 --- --- 731.4 0.019 0.000 8.9 7 1
02/02/06 3:26 p -8.3 -8.3 -8.3 --- --- 0.0 --- 0.00 0.0 -8.3 --- --- 731.4 0.019 0.000 8.9 7 1
02/02/06 3:27 p -8.3 -8.3 -8.3 --- --- 0.0 --- 0.00 0.0 -8.3 --- --- 731.4 0.019 0.000 8.9 7 1
02/02/06 3:28 p -8.3 -8.3 -8.3 --- --- 0.0 --- 0.00 0.0 -8.3 --- --- 731.4 0.019 0.000 8.9 7 1
02/02/06 3:29 p -8.3 -8.3 -8.3 --- --- 0.0 --- 0.00 0.0 -8.3 --- --- 731.4 0.018 0.000 8.9 7 1
02/02/06 3:30 p -8.3 -8.3 -8.3 --- --- 0.0 --- 0.00 0.0 -8.3 --- --- 731.4 0.019 0.000 8.9 7 1
02/02/06 3:31 p -8.4 -8.3 -8.4 --- --- 0.0 --- 0.00 0.0 -8.4 --- --- 731.5 0.019 0.000 8.9 7 1
02/02/06 3:32 p -8.4 -8.4 -8.4 --- --- 0.0 --- 0.00 0.0 -8.4 --- --- 731.5 0.019 0.000 8.9 7 1
02/02/06 3:33 p -8.4 -8.4 -8.4 --- --- 0.0 --- 0.00 0.0 -8.4 --- --- 731.4 0.019 0.000 8.8 7 1
02/02/06 3:34 p -8.4 -8.4 -8.4 --- --- 0.0 --- 0.00 0.0 -8.4 --- --- 731.4 0.019 0.000 8.8 7 1
02/02/06 3:35 p -8.4 -8.4 -8.4 --- --- 0.0 --- 0.00 0.0 -8.4 --- --- 731.4 0.019 0.000 8.8 7 1
02/02/06 3:36 p -8.4 -8.4 -8.4 --- --- 0.0 --- 0.00 0.0 -8.4 --- --- 731.4 0.019 0.000 8.8 7 1
02/02/06 3:37 p -8.4 -8.4 -8.4 --- --- 0.0 --- 0.00 0.0 -8.4 --- --- 731.4 0.019 0.000 8.8 7 1
02/02/06 3:38 p -8.4 -8.4 -8.4 --- --- 0.0 --- 0.00 0.0 -8.4 --- --- 731.4 0.019 0.000 8.8 7 1
02/02/06 3:39 p -8.4 -8.4 -8.4 --- --- 0.0 --- 0.00 0.0 -8.4 --- --- 731.4 0.019 0.000 8.8 7 1
02/02/06 3:40 p -8.3 -8.3 -8.4 --- --- 0.0 --- 0.00 0.9 -8.3 --- --- 731.4 0.019 0.000 8.8 7 1
02/02/06 3:41 p -8.4 -8.4 -8.4 --- --- 0.0 --- 0.00 0.0 -8.4 --- --- 731.3 0.019 0.000 8.8 7 1
02/02/06 3:42 p -8.4 -8.4 -8.4 --- --- 0.0 --- 0.00 0.9 -8.4 --- --- 731.4 0.019 0.000 8.8 7 1
02/02/06 3:43 p -8.4 -8.4 -8.4 --- --- 0.0 --- 0.00 0.0 -8.4 --- --- 731.4 0.019 0.000 8.8 7 1
02/02/06 3:44 p -8.4 -8.4 -8.4 --- --- 0.0 NNW 0.00 0.9 -8.4 --- --- 731.4 0.019 0.000 8.8 7 1
02/02/06 3:45 p -8.4 -8.4 -8.4 --- --- 0.9 NNW 0.01 0.9 -8.4 --- --- 731.4 0.019 0.000 8.8 7 1
02/02/06 3:46 p -8.4 -8.4 -8.4 --- --- 0.9 NNW 0.01 1.7 -8.4 --- --- 731.4 0.019 0.000 8.8 7 1
02/02/06 3:47 p -8.4 -8.4 -8.4 --- --- 1.7 NNW 0.03 3.5 -9.8 --- --- 731.4 0.019 0.000 8.8 7 1
02/02/06 3:48 p -8.5 -8.5 -8.5 --- --- 2.6 NNW 0.04 4.3 -11.1 --- --- 731.4 0.019 0.000 8.8 7 1
02/02/06 3:49 p -8.5 -8.5 -8.5 --- --- 2.6 NNE 0.04 3.5 -11.1 --- --- 731.4 0.019 0.000 8.8 7 1
02/02/06 3:50 p -8.6 -8.6 -8.6 --- --- 2.6 NNE 0.04 3.5 -11.2 --- --- 731.4 0.019 0.000 8.8 7 1
02/02/06 3:51 p -8.6 -8.6 -8.6 --- --- 3.5 NNE 0.06 3.5 -12.1 --- --- 731.3 0.019 0.000 8.8 7 1
02/02/06 3:52 p -8.6 -8.6 -8.6 --- --- 3.5 NNE 0.06 4.3 -12.1 --- --- 731.4 0.019 0.000 8.8 7 1
02/02/06 3:53 p -8.6 -8.6 -8.6 --- --- 3.5 NNE 0.06 3.5 -12.1 --- --- 731.4 0.019 0.000 8.8 7 1
02/02/06 3:54 p -8.6 -8.6 -8.6 --- --- 2.6 NNE 0.04 3.5 -11.2 --- --- 731.4 0.019 0.000 8.8 7 1
02/02/06 3:55 p -8.6 -8.6 -8.6 --- --- 2.6 NNE 0.04 3.5 -11.2 --- --- 731.4 0.019 0.000 8.8 7 1
02/02/06 3:56 p -8.6 -8.6 -8.6 --- --- 2.6 NNE 0.04 3.5 -11.2 --- --- 731.4 0.019 0.000 8.8 7 1
02/02/06 3:57 p -8.6 -8.5 -8.6 --- --- 2.6 NNE 0.04 3.5 -11.2 --- --- 731.4 0.019 0.000 8.8 7 1
02/02/06 3:58 p -8.5 -8.5 -8.5 --- --- 2.6 NNE 0.04 2.6 -11.1 --- --- 731.4 0.019 0.000 8.8 7 1
02/02/06 3:59 p -8.5 -8.5 -8.5 --- --- 2.6 NNE 0.04 2.6 -11.1 --- --- 731.5 0.019 0.000 8.8 7 1
02/02/06 4:00 p -8.5 -8.5 -8.5 --- --- 2.6 NNE 0.04 3.5 -11.1 --- --- 731.5 0.019 0.000 8.8 7 1
02/02/06 4:02 p -8.5 -8.5 -8.5 --- --- 2.6 NNE 0.04 3.5 -11.1 --- --- 731.5 0.019 0.000 8.8 7 1
02/02/06 4:03 p -8.5 -8.5 -8.5 --- --- 2.6 NNE 0.04 3.5 -11.1 --- --- 731.5 0.019 0.000 8.8 7 1
02/02/06 4:04 p -8.5 -8.4 -8.5 --- --- 2.6 NNE 0.04 3.5 -11.1 --- --- 731.5 0.019 0.000 8.8 7 1
02/02/06 4:05 p -8.5 -8.5 -8.5 --- --- 2.6 NNE 0.04 3.5 -11.1 --- --- 731.5 0.019 0.000 8.8 7 1
02/02/06 4:06 p -8.4 -8.4 -8.4 --- --- 2.6 NNE 0.04 3.5 -11.1 --- --- 731.5 0.019 0.000 8.8 7 1
02/02/06 4:07 p -8.4 -8.4 -8.4 --- --- 2.6 NNE 0.04 3.5 -11.1 --- --- 731.5 0.019 0.000 8.8 7 1
02/02/06 4:08 p -8.4 -8.4 -8.4 --- --- 3.5 NNE 0.06 3.5 -11.9 --- --- 731.4 0.019 0.000 8.8 7 1
02/02/06 4:09 p -8.4 -8.3 -8.4 --- --- 3.5 NNE 0.06 3.5 -11.9 --- --- 731.5 0.019 0.000 8.8 7 1
02/02/06 4:10 p -8.3 -8.3 -8.3 --- --- 3.5 NE 0.06 4.3 -11.8 --- --- 731.5 0.019 0.000 8.7 7 1
02/02/06 4:11 p -8.3 -8.3 -8.3 --- --- 2.6 NE 0.04 3.5 -10.9 --- --- 731.4 0.019 0.000 8.8 7 1
02/02/06 4:12 p -8.3 -8.3 -8.3 --- --- 1.7 NE 0.03 2.6 -9.7 --- --- 731.5 0.018 0.000 8.8 7 1
02/02/06 4:13 p -8.3 -8.3 -8.3 --- --- 0.0 NE 0.00 0.9 -8.3 --- --- 731.5 0.018 0.000 8.8 7 1
02/02/06 4:14 p -8.2 -8.2 -8.2 --- --- 0.0 NE 0.00 1.7 -8.2 --- --- 731.4 0.018 0.000 8.8 7 1
02/02/06 4:15 p -8.2 -8.2 -8.2 --- --- 0.0 NE 0.00 0.9 -8.2 --- --- 731.5 0.018 0.000 8.7 7 1
02/02/06 4:16 p -8.2 -8.2 -8.2 --- --- 0.0 NE 0.00 1.7 -8.2 --- --- 731.4 0.018 0.000 8.7 7 1
02/02/06 4:17 p -8.2 -8.2 -8.2 --- --- 1.7 NE 0.03 2.6 -9.6 --- --- 731.5 0.018 0.000 8.7 7 1
02/02/06 4:18 p -8.2 -8.2 -8.2 --- --- 0.9 NE 0.01 2.6 -8.2 --- --- 731.4 0.018 0.000 8.7 7 1
02/02/06 4:19 p -8.2 -8.2 -8.2 --- --- 1.7 NE 0.03 2.6 -9.6 --- --- 731.5 0.018 0.000 8.7 7 1
02/02/06 4:20 p -8.2 -8.2 -8.2 --- --- 0.9 NE 0.01 1.7 -8.2 --- --- 731.4 0.018 0.000 8.7 7 1
02/02/06 4:21 p -8.2 -8.2 -8.2 --- --- 0.0 --- 0.00 0.0 -8.2 --- --- 731.4 0.018 0.000 8.7 7 1
02/02/06 4:22 p -8.2 -8.2 -8.2 --- --- 0.9 NE 0.01 1.7 -8.2 --- --- 731.3 0.018 0.000 8.7 7 1
02/02/06 4:23 p -8.2 -8.2 -8.2 --- --- 0.0 NE 0.00 0.9 -8.2 --- --- 731.4 0.018 0.000 8.7 7 1
02/02/06 4:24 p -8.2 -8.1 -8.2 --- --- 0.0 NE 0.00 0.9 -8.2 --- --- 731.4 0.018 0.000 8.8 7 1
02/02/06 4:25 p -8.1 -8.1 -8.1 --- --- 0.9 NE 0.01 1.7 -8.1 --- --- 731.4 0.018 0.000 8.8 7 1
02/02/06 4:26 p -8.1 -8.1 -8.1 --- --- 0.0 NE 0.00 1.7 -8.1 --- --- 731.4 0.018 0.000 8.8 7 1
02/02/06 4:27 p -8.1 -8.1 -8.1 --- --- 0.0 NE 0.00 0.9 -8.1 --- --- 731.4 0.018 0.000 8.8 7 1
02/02/06 4:28 p -8.1 -8.1 -8.1 --- --- 0.0 NE 0.00 0.9 -8.1 --- --- 731.4 0.018 0.000 8.8 7 1
02/02/06 4:29 p -8.1 -8.1 -8.1 --- --- 0.9 NE 0.01 1.7 -8.1 --- --- 731.4 0.018 0.000 8.8 7 1
02/02/06 4:30 p -8.1 -8.1 -8.2 --- --- 0.9 NE 0.01 2.6 -8.1 --- --- 731.4 0.018 0.000 8.8 7 1
02/02/06 4:31 p -8.2 -8.2 -8.2 --- --- 0.9 NE 0.01 2.6 -8.2 --- --- 731.5 0.018 0.000 8.8 7 1
02/02/06 4:32 p -8.2 -8.2 -8.2 --- --- 1.7 NE 0.03 2.6 -9.6 --- --- 731.4 0.018 0.000 8.7 7 1
02/02/06 4:33 p -8.2 -8.2 -8.2 --- --- 0.9 NE 0.01 2.6 -8.2 --- --- 731.5 0.018 0.000 8.7 7 1
02/02/06 4:34 p -8.2 -8.2 -8.2 --- --- 0.9 NE 0.01 1.7 -8.2 --- --- 731.4 0.018 0.000 8.7 7 1
02/02/06 4:35 p -8.2 -8.2 -8.2 --- --- 1.7 NE 0.03 2.6 -9.6 --- --- 731.5 0.018 0.000 8.7 7 1
02/02/06 4:36 p -8.2 -8.2 -8.2 --- --- 0.9 NE 0.01 1.7 -8.2 --- --- 731.4 0.018 0.000 8.8 7 1
02/02/06 4:37 p -8.2 -8.2 -8.2 --- --- 0.9 NE 0.01 1.7 -8.2 --- --- 731.4 0.018 0.000 8.8 7 1
02/02/06 4:38 p -8.2 -8.2 -8.2 --- --- 0.9 NE 0.01 1.7 -8.2 --- --- 731.6 0.018 0.000 8.8 7 1
02/02/06 4:39 p -8.2 -8.2 -8.2 --- --- 0.9 NE 0.01 0.9 -8.2 --- --- 731.4 0.018 0.000 8.8 7 1
02/02/06 4:40 p -8.2 -8.2 -8.2 --- --- 0.9 NE 0.01 0.9 -8.2 --- --- 731.5 0.018 0.000 8.8 7 1
02/02/06 4:41 p -8.2 -8.2 -8.2 --- --- 0.9 NE 0.01 1.7 -8.2 --- --- 731.4 0.018 0.000 8.8 7 1
02/02/06 4:42 p -8.2 -8.2 -8.2 --- --- 0.9 NE 0.01 1.7 -8.2 --- --- 731.4 0.018 0.000 8.8 7 1
02/02/06 4:43 p -8.2 -8.2 -8.2 --- --- 1.7 NE 0.03 1.7 -9.6 --- --- 731.4 0.018 0.000 8.8 7 1
02/02/06 4:44 p -8.2 -8.1 -8.2 --- --- 0.9 NE 0.01 0.9 -8.2 --- --- 731.5 0.018 0.000 8.8 7 1
02/02/06 4:45 p -8.1 -8.1 -8.2 --- --- 0.9 NE 0.01 1.7 -8.1 --- --- 731.5 0.018 0.000 8.8 7 1
02/02/06 4:46 p -8.1 -8.1 -8.1 --- --- 0.9 NE 0.01 1.7 -8.1 --- --- 731.5 0.018 0.000 8.8 7 1
02/02/06 4:47 p -8.1 -8.1 -8.1 --- --- 0.0 --- 0.00 0.0 -8.1 --- --- 731.4 0.018 0.000 8.8 7 1
02/02/06 4:48 p -8.1 -8.0 -8.1 --- --- 0.0 --- 0.00 0.0 -8.1 --- --- 731.4 0.018 0.000 8.8 7 1
02/02/06 4:49 p -8.0 -8.0 -8.0 --- --- 0.0 --- 0.00 0.0 -8.0 --- --- 731.4 0.018 0.000 8.8 7 1
02/02/06 4:50 p -8.0 -8.0 -8.0 --- --- 0.9 NE 0.01 1.7 -8.0 --- --- 731.4 0.018 0.000 8.8 7 1
02/02/06 4:51 p -8.0 -8.0 -8.0 --- --- 2.6 NE 0.04 2.6 -10.6 --- --- 731.4 0.018 0.000 8.8 7 1
02/02/06 4:52 p -8.0 -8.0 -8.0 --- --- 1.7 NE 0.03 2.6 -9.4 --- --- 731.5 0.018 0.000 8.8 7 1
02/02/06 4:53 p -8.0 -8.0 -8.0 --- --- 1.7 NE 0.03 1.7 -9.4 --- --- 731.4 0.018 0.000 8.8 7 1
02/02/06 4:54 p -8.0 -8.0 -8.0 --- --- 0.0 NE 0.00 0.9 -8.0 --- --- 731.4 0.018 0.000 8.8 7 1
02/02/06 4:55 p -8.0 -7.9 -8.0 --- --- 0.9 NE 0.01 1.7 -8.0 --- --- 731.4 0.018 0.000 8.8 7 1
02/02/06 4:56 p -7.9 -7.9 -7.9 --- --- 0.9 NE 0.01 1.7 -7.9 --- --- 731.4 0.018 0.000 8.8 7 1
02/02/06 4:57 p -7.9 -7.9 -8.0 --- --- 0.0 NE 0.00 0.9 -7.9 --- --- 731.4 0.018 0.000 8.8 7 1
02/02/06 4:58 p -7.9 -7.9 -8.0 --- --- 0.0 --- 0.00 0.0 -7.9 --- --- 731.4 0.018 0.000 8.8 7 1
02/02/06 4:59 p -7.9 -7.8 -7.9 --- --- 0.0 NE 0.00 1.7 -7.9 --- --- 731.3 0.018 0.000 8.9 7 1
02/02/06 5:00 p -7.8 -7.8 -7.9 --- --- 0.0 NE 0.00 0.9 -7.8 --- --- 731.4 0.018 0.000 8.9 7 1
02/02/06 5:02 p -7.9 -7.9 -7.9 --- --- 0.0 NE 0.00 0.9 -7.9 --- --- 731.4 0.018 0.000 8.9 7 1
02/02/06 5:03 p -7.9 -7.9 -7.9 --- --- 0.0 --- 0.00 0.0 -7.9 --- --- 731.4 0.018 0.000 8.9 7 1
02/02/06 5:04 p -7.9 -7.9 -8.0 --- --- 0.0 NE 0.00 1.7 -7.9 --- --- 731.4 0.018 0.000 8.9 7 1
02/02/06 5:05 p -7.9 -7.9 -7.9 --- --- 0.0 NE 0.00 0.9 -7.9 --- --- 731.4 0.018 0.000 8.8 7 1
02/02/06 5:06 p -7.9 -7.9 -7.9 --- --- 0.0 --- 0.00 0.9 -7.9 --- --- 731.3 0.018 0.000 8.9 7 1
02/02/06 5:07 p -7.9 -7.9 -7.9 --- --- 0.0 --- 0.00 0.0 -7.9 --- --- 731.4 0.018 0.000 8.9 7 1
02/02/06 5:08 p -7.8 -7.8 -7.8 --- --- 0.0 --- 0.00 0.9 -7.8 --- --- 731.4 0.018 0.000 8.8 7 1
02/02/06 5:09 p -7.8 -7.8 -7.8 --- --- 0.0 --- 0.00 0.0 -7.8 --- --- 731.4 0.018 0.000 8.9 7 1
02/02/06 5:10 p -7.9 -7.9 -7.9 --- --- 0.0 NE 0.00 1.7 -7.9 --- --- 731.5 0.018 0.000 8.9 7 1
02/02/06 5:11 p -7.9 -7.9 -7.9 --- --- 0.0 NE 0.00 0.9 -7.9 --- --- 731.4 0.018 0.000 8.8 7 1
02/02/06 5:12 p -7.8 -7.8 -7.9 --- --- 0.9 NE 0.01 2.6 -7.8 --- --- 731.4 0.018 0.000 8.8 7 1
02/02/06 5:13 p -7.8 -7.8 -7.8 --- --- 2.6 NE 0.04 2.6 -10.3 --- --- 731.5 0.018 0.000 8.8 7 1
02/02/06 5:14 p -7.8 -7.8 -7.8 --- --- 1.7 NE 0.03 2.6 -9.2 --- --- 731.5 0.018 0.000 8.8 7 1
02/02/06 5:15 p -7.8 -7.8 -7.8 --- --- 1.7 NE 0.03 2.6 -9.1 --- --- 731.4 0.018 0.000 8.8 7 1
02/02/06 5:16 p -7.8 -7.8 -7.8 --- --- 0.9 NE 0.01 2.6 -7.8 --- --- 731.4 0.018 0.000 8.8 7 1
02/02/06 5:17 p -7.7 -7.7 -7.8 --- --- 0.9 NE 0.01 0.9 -7.7 --- --- 731.5 0.018 0.000 8.8 7 1
02/02/06 5:18 p -7.7 -7.7 -7.8 --- --- 0.9 NE 0.01 1.7 -7.7 --- --- 731.4 0.018 0.000 8.8 7 1
02/02/06 5:19 p -7.7 -7.7 -7.7 --- --- 0.0 NE 0.00 0.9 -7.7 --- --- 731.4 0.018 0.000 8.8 7 1
02/02/06 5:20 p -7.7 -7.7 -7.7 --- --- 0.0 --- 0.00 0.9 -7.7 --- --- 731.3 0.018 0.000 8.8 7 1
02/02/06 5:21 p -7.7 -7.7 -7.7 --- --- 0.0 NE 0.00 0.9 -7.7 --- --- 731.5 0.018 0.000 8.8 7 1
02/02/06 5:22 p -7.7 -7.7 -7.8 --- --- 0.9 NE 0.01 1.7 -7.7 --- --- 731.5 0.018 0.000 8.8 7 1
02/02/06 5:23 p -7.8 -7.8 -7.8 --- --- 0.9 NE 0.01 1.7 -7.8 --- --- 731.5 0.018 0.000 8.8 7 1
02/02/06 5:24 p -7.8 -7.8 -7.8 --- --- 0.0 NE 0.00 0.9 -7.8 --- --- 731.4 0.018 0.000 8.8 7 1
02/02/06 5:25 p -7.8 -7.8 -7.8 --- --- 0.0 NE 0.00 0.9 -7.8 --- --- 731.5 0.018 0.000 8.8 7 1
02/02/06 5:26 p -7.9 -7.8 -7.9 --- --- 0.9 NE 0.01 1.7 -7.9 --- --- 731.5 0.018 0.000 8.8 7 1
02/02/06 5:27 p -7.9 -7.9 -7.9 --- --- 0.0 NE 0.00 1.7 -7.9 --- --- 731.5 0.018 0.000 8.8 7 1
02/02/06 5:28 p -7.9 -7.9 -7.9 --- --- 0.0 --- 0.00 0.9 -7.9 --- --- 731.5 0.018 0.000 8.8 7 1
02/02/06 5:29 p -7.9 -7.9 -7.9 --- --- 0.0 --- 0.00 0.0 -7.9 --- --- 731.5 0.018 0.000 8.8 7 1
02/02/06 5:30 p -7.9 -7.8 -7.9 --- --- 0.0 --- 0.00 0.0 -7.9 --- --- 731.4 0.018 0.000 8.8 7 1
02/02/06 5:31 p -7.8 -7.8 -7.8 --- --- 0.0 --- 0.00 0.0 -7.8 --- --- 731.4 0.018 0.000 8.8 7 1
02/02/06 5:32 p -7.8 -7.7 -7.8 --- --- 0.0 --- 0.00 0.0 -7.8 --- --- 731.4 0.018 0.000 8.8 7 1
02/02/06 5:33 p -7.7 -7.7 -7.7 --- --- 0.0 --- 0.00 0.0 -7.7 --- --- 731.5 0.018 0.000 8.8 7 1
02/02/06 5:34 p -7.6 -7.6 -7.7 --- --- 0.0 --- 0.00 0.0 -7.6 --- --- 731.5 0.018 0.000 8.8 7 1
02/02/06 5:35 p -7.6 -7.5 -7.6 --- --- 0.0 --- 0.00 0.0 -7.6 --- --- 731.5 0.018 0.000 8.8 7 1
02/02/06 5:36 p -7.4 -7.4 -7.5 --- --- 0.0 --- 0.00 0.0 -7.4 --- --- 731.5 0.018 0.000 8.8 7 1
02/02/06 5:37 p -7.4 -7.4 -7.4 --- --- 0.0 --- 0.00 0.0 -7.4 --- --- 731.4 0.018 0.000 8.8 7 1
02/02/06 5:38 p -7.4 -7.4 -7.4 --- --- 0.0 --- 0.00 0.0 -7.4 --- --- 731.4 0.018 0.000 8.8 7 1
02/02/06 5:39 p -7.4 -7.3 -7.4 --- --- 0.9 NE 0.01 1.7 -7.4 --- --- 731.5 0.018 0.000 8.8 7 1
02/02/06 5:40 p -7.4 -7.3 -7.4 --- --- 1.7 NE 0.03 2.6 -8.7 --- --- 731.6 0.018 0.000 8.8 7 1
02/02/06 5:41 p -7.4 -7.4 -7.4 --- --- 1.7 NE 0.03 2.6 -8.8 --- --- 731.5 0.018 0.000 8.8 7 1
02/02/06 5:42 p -7.4 -7.4 -7.4 --- --- 2.6 NE 0.04 2.6 -9.9 --- --- 731.5 0.018 0.000 8.8 7 1
02/02/06 5:43 p -7.4 -7.4 -7.5 --- --- 1.7 NE 0.03 3.5 -8.8 --- --- 731.4 0.018 0.000 8.8 7 1
02/02/06 5:44 p -7.5 -7.5 -7.5 --- --- 1.7 NE 0.03 2.6 -8.8 --- --- 731.5 0.018 0.000 8.8 7 1
02/02/06 5:45 p -7.5 -7.4 -7.5 --- --- 0.9 NE 0.01 2.6 -7.5 --- --- 731.5 0.018 0.000 8.8 7 1
02/02/06 5:46 p -7.4 -7.4 -7.4 --- --- 1.7 NE 0.03 1.7 -8.8 --- --- 731.5 0.018 0.000 8.8 7 1
02/02/06 5:47 p -7.4 -7.4 -7.4 --- --- 0.9 NE 0.01 2.6 -7.4 --- --- 731.5 0.018 0.000 8.8 7 1
02/02/06 5:48 p -7.4 -7.4 -7.4 --- --- 2.6 NE 0.04 3.5 -9.8 --- --- 731.6 0.018 0.000 8.8 7 1
02/02/06 5:49 p -7.4 -7.4 -7.4 --- --- 1.7 NE 0.03 2.6 -8.7 --- --- 731.5 0.018 0.000 8.8 7 1
02/02/06 5:50 p -7.4 -7.4 -7.4 --- --- 1.7 NE 0.03 2.6 -8.7 --- --- 731.5 0.018 0.000 8.8 7 1
02/02/06 5:51 p -7.4 -7.4 -7.4 --- --- 0.9 NE 0.01 1.7 -7.4 --- --- 731.4 0.018 0.000 8.8 7 1
02/02/06 5:52 p -7.4 -7.4 -7.5 --- --- 0.9 NE 0.01 1.7 -7.4 --- --- 731.5 0.018 0.000 8.8 7 1
02/02/06 5:53 p -7.4 -7.3 -7.4 --- --- 0.9 NE 0.01 3.5 -7.4 --- --- 731.5 0.018 0.000 8.8 7 1
02/02/06 5:54 p -7.3 -7.3 -7.3 --- --- 2.6 NE 0.04 3.5 -9.8 --- --- 731.6 0.018 0.000 8.8 7 1
02/02/06 5:55 p -7.3 -7.3 -7.3 --- --- 2.6 NE 0.04 3.5 -9.8 --- --- 731.5 0.018 0.000 8.8 7 1
02/02/06 5:56 p -7.3 -7.3 -7.3 --- --- 3.5 NE 0.06 3.5 -10.7 --- --- 731.5 0.018 0.000 8.8 7 1
02/02/06 5:57 p -7.4 -7.4 -7.4 --- --- 3.5 NE 0.06 4.3 -10.7 --- --- 731.6 0.018 0.000 8.8 7 1
02/02/06 5:58 p -7.3 -7.3 -7.3 --- --- 2.6 NE 0.04 4.3 -9.8 --- --- 731.6 0.018 0.000 8.8 7 1
02/02/06 5:59 p -7.3 -7.3 -7.3 --- --- 2.6 NE 0.04 3.5 -9.8 --- --- 731.6 0.018 0.000 8.8 7 1
02/02/06 6:00 p -7.3 -7.3 -7.3 --- --- 2.6 NE 0.04 3.5 -9.8 --- --- 731.5 0.018 0.000 8.8 7 1
02/02/06 6:01 p -7.3 -7.3 -7.3 --- --- 2.6 NE 0.04 3.5 -9.7 --- --- 731.5 0.018 0.000 8.8 7 1
02/02/06 6:02 p -7.3 -7.2 -7.3 --- --- 2.6 NE 0.04 3.5 -9.7 --- --- 731.5 0.018 0.000 8.8 7 1
02/02/06 6:03 p -7.2 -7.2 -7.3 --- --- 2.6 NE 0.04 3.5 -9.7 --- --- 731.5 0.018 0.000 8.8 7 1
02/02/06 6:04 p -7.3 -7.2 -7.3 --- --- 2.6 NE 0.04 3.5 -9.7 --- --- 731.5 0.018 0.000 8.8 7 1
02/02/06 6:05 p -7.2 -7.2 -7.2 --- --- 2.6 NE 0.04 4.3 -9.7 --- --- 731.6 0.018 0.000 8.8 7 1
02/02/06 6:06 p -7.2 -7.2 -7.2 --- --- 2.6 NE 0.04 3.5 -9.7 --- --- 731.6 0.018 0.000 8.8 7 1
02/02/06 6:07 p -7.2 -7.2 -7.2 --- --- 2.6 NE 0.04 3.5 -9.6 --- --- 731.6 0.018 0.000 8.7 7 1
02/02/06 6:08 p -7.2 -7.2 -7.2 --- --- 2.6 NE 0.04 3.5 -9.6 --- --- 731.6 0.018 0.000 8.7 7 1
02/02/06 6:09 p -7.2 -7.2 -7.2 --- --- 1.7 NE 0.03 3.5 -8.4 --- --- 731.6 0.018 0.000 8.7 7 1
02/02/06 6:10 p -7.2 -7.1 -7.2 --- --- 1.7 NE 0.03 3.5 -8.4 --- --- 731.5 0.018 0.000 8.7 7 1
02/02/06 6:11 p -7.1 -7.1 -7.1 --- --- 1.7 NE 0.03 2.6 -8.4 --- --- 731.6 0.018 0.000 8.8 7 1
02/02/06 6:12 p -7.1 -7.1 -7.1 --- --- 1.7 NE 0.03 2.6 -8.4 --- --- 731.5 0.018 0.000 8.8 7 1
02/02/06 6:13 p -7.1 -7.1 -7.1 --- --- 2.6 NE 0.04 3.5 -9.6 --- --- 731.5 0.018 0.000 8.8 7 1
02/02/06 6:14 p -7.1 -7.1 -7.1 --- --- 2.6 NE 0.04 3.5 -9.4 --- --- 731.5 0.018 0.000 8.8 7 1
02/02/06 6:15 p -7.1 -7.1 -7.1 --- --- 2.6 NE 0.04 3.5 -9.4 --- --- 731.6 0.018 0.000 8.8 7 1
02/02/06 6:16 p -7.1 -7.1 -7.1 --- --- 2.6 NE 0.04 3.5 -9.6 --- --- 731.5 0.018 0.000 8.7 7 1
02/02/06 6:17 p -7.1 -7.1 -7.1 --- --- 1.7 NE 0.03 3.5 -8.4 --- --- 731.6 0.018 0.000 8.7 7 1
02/02/06 6:18 p -7.1 -7.1 -7.1 --- --- 1.7 NE 0.03 3.5 -8.4 --- --- 731.5 0.018 0.000 8.7 7 1
02/02/06 6:19 p -7.1 -7.1 -7.1 --- --- 2.6 NE 0.04 3.5 -9.6 --- --- 731.6 0.018 0.000 8.7 7 1
02/02/06 6:20 p -7.1 -7.1 -7.1 --- --- 2.6 NE 0.04 3.5 -9.4 --- --- 731.5 0.018 0.000 8.7 7 1
02/02/06 6:21 p -7.1 -7.1 -7.1 --- --- 2.6 ENE 0.04 3.5 -9.4 --- --- 731.6 0.018 0.000 8.7 7 1
02/02/06 6:22 p -7.1 -7.1 -7.1 --- --- 3.5 ENE 0.06 4.3 -10.3 --- --- 731.6 0.018 0.000 8.7 7 1
02/02/06 6:23 p -7.1 -7.1 -7.1 --- --- 2.6 ENE 0.04 3.5 -9.4 --- --- 731.6 0.018 0.000 8.7 7 1
02/02/06 6:24 p -7.1 -7.1 -7.1 --- --- 2.6 ENE 0.04 3.5 -9.4 --- --- 731.6 0.018 0.000 8.7 7 1
02/02/06 6:25 p -7.1 -7.0 -7.1 --- --- 2.6 ENE 0.04 3.5 -9.4 --- --- 731.5 0.018 0.000 8.7 7 1
02/02/06 6:26 p -7.0 -7.0 -7.0 --- --- 3.5 ENE 0.06 4.3 -10.3 --- --- 731.6 0.018 0.000 8.7 7 1
02/02/06 6:27 p -7.0 -6.9 -7.0 --- --- 2.6 ENE 0.04 3.5 -9.4 --- --- 731.6 0.018 0.000 8.8 7 1
02/02/06 6:28 p -6.9 -6.9 -6.9 --- --- 2.6 ENE 0.04 3.5 -9.3 --- --- 731.6 0.018 0.000 8.8 7 1
02/02/06 6:29 p -6.9 -6.9 -6.9 --- --- 2.6 ENE 0.04 3.5 -9.3 --- --- 731.6 0.018 0.000 8.8 7 1
02/02/06 6:30 p -6.9 -6.9 -6.9 --- --- 2.6 ENE 0.04 3.5 -9.3 --- --- 731.6 0.018 0.000 8.8 7 1
02/02/06 6:31 p -6.9 -6.9 -6.9 --- --- 2.6 ENE 0.04 3.5 -9.3 --- --- 731.6 0.018 0.000 8.8 7 1
02/02/06 6:32 p -6.9 -6.9 -6.9 --- --- 2.6 ENE 0.04 3.5 -9.3 --- --- 731.7 0.018 0.000 8.8 7 1
02/02/06 6:33 p -6.9 -6.9 -6.9 --- --- 2.6 ENE 0.04 4.3 -9.3 --- --- 731.6 0.018 0.000 8.9 7 1
02/02/06 6:34 p -6.9 -6.9 -6.9 --- --- 3.5 ENE 0.06 3.5 -10.2 --- --- 731.6 0.018 0.000 8.9 7 1
02/02/06 6:35 p -6.9 -6.9 -6.9 --- --- 3.5 ENE 0.06 4.3 -10.2 --- --- 731.7 0.018 0.000 8.9 7 1
02/02/06 6:36 p -6.9 -6.9 -6.9 --- --- 3.5 ENE 0.06 4.3 -10.2 --- --- 731.7 0.018 0.000 8.9 7 1
02/02/06 6:37 p -6.9 -6.9 -6.9 --- --- 3.5 ENE 0.06 4.3 -10.2 --- --- 731.7 0.018 0.000 8.9 7 1
02/02/06 6:38 p -6.9 -6.9 -6.9 --- --- 3.5 ENE 0.06 3.5 -10.2 --- --- 731.6 0.018 0.000 8.9 7 1
02/02/06 6:39 p -6.9 -6.9 -6.9 --- --- 3.5 ENE 0.06 4.3 -10.1 --- --- 731.6 0.018 0.000 8.9 7 1
02/02/06 6:40 p -6.9 -6.9 -6.9 --- --- 3.5 ENE 0.06 4.3 -10.1 --- --- 731.6 0.018 0.000 8.9 7 1
02/02/06 6:41 p -6.9 -6.8 -6.9 --- --- 2.6 ENE 0.04 4.3 -9.3 --- --- 731.7 0.018 0.000 8.9 7 1
02/02/06 6:42 p -6.8 -6.8 -6.8 --- --- 3.5 ENE 0.06 4.3 -10.1 --- --- 731.6 0.017 0.000 8.9 7 1
02/02/06 6:43 p -6.8 -6.8 -6.8 --- --- 2.6 ENE 0.04 3.5 -9.2 --- --- 731.7 0.017 0.000 8.9 7 1
02/02/06 6:44 p -6.8 -6.7 -6.8 --- --- 1.7 ENE 0.03 2.6 -8.0 --- --- 731.7 0.017 0.000 8.9 7 1
02/02/06 6:45 p -6.7 -6.7 -6.7 --- --- 0.9 ENE 0.01 1.7 -6.7 --- --- 731.6 0.017 0.000 8.9 7 1
02/02/06 6:46 p -6.7 -6.7 -6.7 --- --- 0.0 ENE 0.00 0.9 -6.7 --- --- 731.6 0.017 0.000 8.8 7 1
02/02/06 6:47 p -6.6 -6.6 -6.7 --- --- 0.9 ENE 0.01 0.9 -6.6 --- --- 731.7 0.017 0.000 8.8 7 1
02/02/06 6:48 p -6.6 -6.6 -6.6 --- --- 0.9 ENE 0.01 1.7 -6.6 --- --- 731.6 0.017 0.000 8.8 7 1
02/02/06 6:49 p -6.6 -6.5 -6.6 --- --- 0.0 ENE 0.00 1.7 -6.6 --- --- 731.6 0.017 0.000 8.8 7 1
02/02/06 6:50 p -6.5 -6.5 -6.5 --- --- 0.9 ENE 0.01 2.6 -6.5 --- --- 731.7 0.017 0.000 8.8 7 1
02/02/06 6:51 p -6.5 -6.5 -6.5 --- --- 2.6 ENE 0.04 3.5 -8.8 --- --- 731.6 0.017 0.000 8.8 7 1
02/02/06 6:52 p -6.5 -6.5 -6.5 --- --- 2.6 ENE 0.04 3.5 -8.8 --- --- 731.6 0.017 0.000 8.8 7 1
02/02/06 6:53 p -6.5 -6.5 -6.6 --- --- 3.5 ENE 0.06 4.3 -9.7 --- --- 731.6 0.017 0.000 8.8 7 1
02/02/06 6:54 p -6.6 -6.5 -6.6 --- --- 3.5 ENE 0.06 4.3 -9.8 --- --- 731.6 0.017 0.000 8.8 7 1
02/02/06 6:55 p -6.6 -6.6 -6.6 --- --- 3.5 ENE 0.06 4.3 -9.8 --- --- 731.6 0.017 0.000 8.8 7 1
02/02/06 6:56 p -6.6 -6.6 -6.6 --- --- 3.5 ENE 0.06 4.3 -9.8 --- --- 731.6 0.017 0.000 8.8 7 1
02/02/06 6:57 p -6.6 -6.6 -6.6 --- --- 3.5 ENE 0.06 4.3 -9.8 --- --- 731.6 0.017 0.000 8.8 7 1
02/02/06 6:58 p -6.6 -6.5 -6.6 --- --- 2.6 ENE 0.04 3.5 -8.9 --- --- 731.7 0.017 0.000 8.8 7 1
02/02/06 6:59 p -6.5 -6.5 -6.5 --- --- 3.5 ENE 0.06 3.5 -9.7 --- --- 731.6 0.017 0.000 8.8 7 1
02/02/06 7:00 p -6.5 -6.5 -6.5 --- --- 3.5 ENE 0.06 3.5 -9.7 --- --- 731.6 0.017 0.000 8.8 7 1
02/02/06 7:02 p -6.6 -6.6 -6.6 --- --- 3.5 ENE 0.06 4.3 -9.8 --- --- 731.6 0.017 0.000 8.8 7 1
02/02/06 7:03 p -6.6 -6.6 -6.6 --- --- 3.5 ENE 0.06 4.3 -9.8 --- --- 731.6 0.017 0.000 8.8 7 1
02/02/06 7:04 p -6.6 -6.6 -6.6 --- --- 2.6 ENE 0.04 3.5 -8.9 --- --- 731.6 0.017 0.000 8.8 7 1
02/02/06 7:05 p -6.6 -6.6 -6.6 --- --- 2.6 ENE 0.04 3.5 -8.9 --- --- 731.5 0.017 0.000 8.8 7 1
02/02/06 7:06 p -6.6 -6.6 -6.6 --- --- 3.5 ENE 0.06 4.3 -9.8 --- --- 731.6 0.017 0.000 8.8 7 1
02/02/06 7:07 p -6.6 -6.6 -6.6 --- --- 4.3 ENE 0.07 5.2 -10.5 --- --- 731.6 0.017 0.000 8.8 7 1
02/02/06 7:08 p -6.6 -6.6 -6.6 --- --- 4.3 ENE 0.07 5.2 -10.5 --- --- 731.6 0.017 0.000 8.8 7 1
02/02/06 7:09 p -6.7 -6.6 -6.7 --- --- 4.3 ENE 0.07 5.2 -10.6 --- --- 731.6 0.017 0.000 8.8 7 1
02/02/06 7:10 p -6.7 -6.7 -6.7 --- --- 4.3 ENE 0.07 5.2 -10.6 --- --- 731.6 0.017 0.000 8.8 7 1
02/02/06 7:11 p -6.6 -6.6 -6.7 --- --- 3.5 ENE 0.06 4.3 -9.8 --- --- 731.6 0.017 0.000 8.8 7 1
02/02/06 7:12 p -6.6 -6.6 -6.6 --- --- 3.5 ENE 0.06 4.3 -9.8 --- --- 731.6 0.017 0.000 8.8 7 1
02/02/06 7:13 p -6.6 -6.6 -6.6 --- --- 3.5 ENE 0.06 4.3 -9.8 --- --- 731.5 0.017 0.000 8.8 7 1
02/02/06 7:14 p -6.6 -6.6 -6.6 --- --- 3.5 ENE 0.06 4.3 -9.8 --- --- 731.5 0.017 0.000 8.8 7 1
02/02/06 7:15 p -6.6 -6.6 -6.6 --- --- 3.5 ENE 0.06 4.3 -9.8 --- --- 731.5 0.017 0.000 8.8 7 1
02/02/06 7:16 p -6.5 -6.5 -6.6 --- --- 3.5 ENE 0.06 3.5 -9.7 --- --- 731.6 0.017 0.000 8.8 7 1
02/02/06 7:17 p -6.5 -6.5 -6.5 --- --- 3.5 ENE 0.06 4.3 -9.7 --- --- 731.7 0.017 0.000 8.8 7 1
02/02/06 7:18 p -6.4 -6.4 -6.5 --- --- 3.5 ENE 0.06 4.3 -9.6 --- --- 731.6 0.017 0.000 8.8 7 1
02/02/06 7:19 p -6.4 -6.4 -6.4 --- --- 3.5 ENE 0.06 4.3 -9.6 --- --- 731.6 0.017 0.000 8.8 7 1
02/02/06 7:20 p -6.4 -6.4 -6.4 --- --- 3.5 ENE 0.06 4.3 -9.6 --- --- 731.6 0.017 0.000 8.8 7 1
02/02/06 7:21 p -6.4 -6.3 -6.4 --- --- 3.5 ENE 0.06 4.3 -9.6 --- --- 731.6 0.017 0.000 8.8 7 1
02/02/06 7:22 p -6.3 -6.3 -6.3 --- --- 3.5 ENE 0.06 4.3 -9.5 --- --- 731.6 0.017 0.000 8.8 7 1
02/02/06 7:23 p -6.3 -6.3 -6.3 --- --- 3.5 ENE 0.06 4.3 -9.5 --- --- 731.7 0.017 0.000 8.8 7 1
02/02/06 7:24 p -6.3 -6.3 -6.3 --- --- 3.5 ENE 0.06 4.3 -9.5 --- --- 731.6 0.017 0.000 8.8 7 1
02/02/06 7:25 p -6.3 -6.3 -6.3 --- --- 3.5 ENE 0.06 4.3 -9.5 --- --- 731.6 0.017 0.000 8.9 7 1
02/02/06 7:26 p -6.3 -6.3 -6.3 --- --- 3.5 ENE 0.06 3.5 -9.4 --- --- 731.6 0.017 0.000 8.9 7 1
02/02/06 7:27 p -6.3 -6.3 -6.3 --- --- 2.6 ENE 0.04 3.5 -8.6 --- --- 731.6 0.017 0.000 8.8 7 1
02/02/06 7:28 p -6.3 -6.3 -6.3 --- --- 3.5 ENE 0.06 3.5 -9.4 --- --- 731.6 0.017 0.000 8.8 7 1
02/02/06 7:29 p -6.2 -6.2 -6.3 --- --- 3.5 ENE 0.06 3.5 -9.4 --- --- 731.6 0.017 0.000 8.8 7 1
02/02/06 7:30 p -6.2 -6.2 -6.3 --- --- 2.6 ENE 0.04 2.6 -8.6 --- --- 731.6 0.017 0.000 8.8 7 1
02/02/06 7:31 p -6.2 -6.2 -6.2 --- --- 1.7 ENE 0.03 2.6 -7.3 --- --- 731.5 0.017 0.000 8.8 7 1
02/02/06 7:32 p -6.2 -6.1 -6.2 --- --- 2.6 ENE 0.04 3.5 -8.4 --- --- 731.6 0.017 0.000 8.8 7 1
02/02/06 7:33 p -6.1 -6.1 -6.1 --- --- 2.6 ENE 0.04 3.5 -8.4 --- --- 731.7 0.017 0.000 8.8 7 1
02/02/06 7:34 p -6.1 -6.1 -6.1 --- --- 1.7 ENE 0.03 2.6 -7.2 --- --- 731.7 0.017 0.000 8.8 7 1
02/02/06 7:35 p -6.1 -6.1 -6.1 --- --- 0.9 ENE 0.01 2.6 -6.1 --- --- 731.6 0.017 0.000 8.8 7 1
02/02/06 7:36 p -6.0 -6.0 -6.1 --- --- 2.6 ENE 0.04 3.5 -8.3 --- --- 731.7 0.017 0.000 8.8 7 1
02/02/06 7:37 p -6.0 -6.0 -6.1 --- --- 2.6 ENE 0.04 3.5 -8.3 --- --- 731.7 0.017 0.000 8.8 7 1
02/02/06 7:38 p -6.0 -6.0 -6.0 --- --- 2.6 ENE 0.04 4.3 -8.3 --- --- 731.7 0.017 0.000 8.8 7 1
02/02/06 7:39 p -5.9 -5.9 -6.0 --- --- 2.6 ENE 0.04 3.5 -8.2 --- --- 731.7 0.017 0.000 8.8 7 1
02/02/06 7:40 p -5.9 -5.9 -5.9 --- --- 2.6 ENE 0.04 3.5 -8.2 --- --- 731.6 0.017 0.000 8.8 7 1
02/02/06 7:41 p -5.9 -5.9 -5.9 --- --- 2.6 ENE 0.04 3.5 -8.2 --- --- 731.7 0.017 0.000 8.8 7 1
02/02/06 7:42 p -5.9 -5.9 -5.9 --- --- 2.6 ENE 0.04 3.5 -8.2 --- --- 731.7 0.017 0.000 8.8 7 1
02/02/06 7:43 p -5.9 -5.9 -5.9 --- --- 2.6 ENE 0.04 3.5 -8.2 --- --- 731.7 0.017 0.000 8.9 7 1
02/02/06 7:44 p -5.9 -5.9 -5.9 --- --- 2.6 ENE 0.04 2.6 -8.2 --- --- 731.7 0.017 0.000 8.8 7 1
02/02/06 7:45 p -5.9 -5.9 -5.9 --- --- 0.9 ENE 0.01 1.7 -5.9 --- --- 731.6 0.017 0.000 8.8 7 1
02/02/06 7:46 p -5.9 -5.9 -6.0 --- --- 0.9 ENE 0.01 1.7 -5.9 --- --- 731.7 0.017 0.000 8.8 7 1
02/02/06 7:47 p -6.1 -6.1 -6.3 --- --- 0.0 ENE 0.00 0.9 -6.1 --- --- 731.7 0.017 0.000 8.8 7 1
02/02/06 7:48 p -6.3 -6.3 -6.3 --- --- 0.0 --- 0.00 0.0 -6.3 --- --- 731.7 0.017 0.000 8.8 7 1
02/02/06 7:49 p -6.3 -6.3 -6.3 --- --- 0.0 ENE 0.00 0.9 -6.3 --- --- 731.7 0.017 0.000 8.8 7 1
02/02/06 7:50 p -6.3 -6.2 -6.3 --- --- 0.0 ENE 0.00 0.9 -6.3 --- --- 731.7 0.017 0.000 8.8 7 1
02/02/06 7:51 p -6.3 -6.2 -6.3 --- --- 0.0 ENE 0.00 0.9 -6.3 --- --- 731.7 0.017 0.000 8.8 7 1
02/02/06 7:52 p -6.3 -6.3 -6.4 --- --- 0.0 ENE 0.00 0.9 -6.3 --- --- 731.7 0.017 0.000 8.8 7 1
02/02/06 7:53 p -6.4 -6.4 -6.4 --- --- 0.9 ENE 0.01 0.9 -6.4 --- --- 731.7 0.017 0.000 8.8 7 1
02/02/06 7:54 p -6.4 -6.4 -6.4 --- --- 0.0 --- 0.00 0.9 -6.4 --- --- 731.8 0.017 0.000 8.8 7 1
02/02/06 7:55 p -6.4 -6.4 -6.4 --- --- 0.0 --- 0.00 0.0 -6.4 --- --- 731.7 0.017 0.000 8.8 7 1
02/02/06 7:56 p -6.4 -6.4 -6.4 --- --- 0.0 --- 0.00 0.0 -6.4 --- --- 731.7 0.017 0.000 8.8 7 1
02/02/06 7:57 p -6.4 -6.4 -6.4 --- --- 0.0 --- 0.00 0.0 -6.4 --- --- 731.7 0.017 0.000 8.8 7 1
02/02/06 7:58 p -6.3 -6.3 -6.4 --- --- 0.0 --- 0.00 0.0 -6.3 --- --- 731.7 0.017 0.000 8.8 7 1
02/02/06 7:59 p -6.3 -6.3 -6.3 --- --- 0.0 --- 0.00 0.0 -6.3 --- --- 731.7 0.017 0.000 8.8 7 1
02/02/06 8:00 p -6.3 -6.2 -6.3 --- --- 0.0 --- 0.00 0.0 -6.3 --- --- 731.6 0.017 0.000 8.8 7 1
02/02/06 8:02 p -6.2 -6.2 -6.2 --- --- 0.0 ENE 0.00 1.7 -6.2 --- --- 731.8 0.017 0.000 8.8 7 1
02/02/06 8:03 p -6.2 -6.2 -6.2 --- --- 0.9 ENE 0.01 1.7 -6.2 --- --- 731.8 0.017 0.000 8.8 7 1
02/02/06 8:04 p -6.3 -6.3 -6.3 --- --- 0.0 ENE 0.00 0.9 -6.3 --- --- 731.7 0.017 0.000 8.8 7 1
02/02/06 8:05 p -6.3 -6.3 -6.3 --- --- 0.9 ENE 0.01 0.9 -6.3 --- --- 731.7 0.017 0.000 8.8 7 1
02/02/06 8:06 p -6.4 -6.4 -6.5 --- --- 0.9 ENE 0.01 1.7 -6.4 --- --- 731.7 0.017 0.000 8.8 7 1
02/02/06 8:07 p -6.6 -6.5 -6.7 --- --- 0.9 ENE 0.01 1.7 -6.6 --- --- 731.7 0.017 0.000 8.8 7 1
02/02/06 8:08 p -6.7 -6.7 -6.7 --- --- 0.9 ENE 0.01 0.9 -6.7 --- --- 731.7 0.017 0.000 8.8 7 1
02/02/06 8:09 p -6.6 -6.6 -6.7 --- --- 0.9 ENE 0.01 2.6 -6.6 --- --- 731.6 0.017 0.000 8.8 7 1
02/02/06 8:10 p -6.6 -6.6 -6.6 --- --- 0.9 ENE 0.01 1.7 -6.6 --- --- 731.7 0.017 0.000 8.8 7 1
02/02/06 8:11 p -6.6 -6.6 -6.7 --- --- 0.9 ENE 0.01 1.7 -6.6 --- --- 731.7 0.017 0.000 8.8 7 1
02/02/06 8:12 p -6.6 -6.6 -6.7 --- --- 0.9 ENE 0.01 1.7 -6.6 --- --- 731.7 0.017 0.000 8.8 7 1
02/02/06 8:13 p -6.7 -6.7 -6.7 --- --- 0.9 ENE 0.01 2.6 -6.7 --- --- 731.7 0.017 0.000 8.8 7 1
02/02/06 8:14 p -6.7 -6.7 -6.7 --- --- 1.7 ENE 0.03 2.6 -7.9 --- --- 731.7 0.017 0.000 8.8 7 1
02/02/06 8:15 p -6.7 -6.7 -6.7 --- --- 0.9 ENE 0.01 1.7 -6.7 --- --- 731.6 0.017 0.000 8.8 7 1
02/02/06 8:16 p -6.6 -6.6 -6.7 --- --- 0.0 ENE 0.00 0.9 -6.6 --- --- 731.7 0.017 0.000 8.8 7 1
02/02/06 8:17 p -6.6 -6.5 -6.6 --- --- 0.9 ENE 0.01 1.7 -6.6 --- --- 731.7 0.017 0.000 8.8 7 1
02/02/06 8:18 p -6.5 -6.5 -6.5 --- --- 0.9 ENE 0.01 1.7 -6.5 --- --- 731.7 0.017 0.000 8.8 7 1
02/02/06 8:19 p -6.5 -6.5 -6.5 --- --- 0.9 ENE 0.01 1.7 -6.5 --- --- 731.7 0.017 0.000 8.8 7 1
02/02/06 8:20 p -6.5 -6.4 -6.5 --- --- 0.9 ENE 0.01 2.6 -6.5 --- --- 731.7 0.017 0.000 8.9 7 1
02/02/06 8:21 p -6.4 -6.4 -6.4 --- --- 1.7 ENE 0.03 2.6 -7.7 --- --- 731.7 0.017 0.000 8.9 7 1
02/02/06 8:22 p -6.4 -6.4 -6.4 --- --- 1.7 ENE 0.03 2.6 -7.6 --- --- 731.8 0.017 0.000 8.9 7 1
02/02/06 8:23 p -6.4 -6.4 -6.4 --- --- 1.7 ENE 0.03 2.6 -7.6 --- --- 731.7 0.017 0.000 8.9 7 1
02/02/06 8:24 p -6.4 -6.4 -6.4 --- --- 1.7 ENE 0.03 2.6 -7.6 --- --- 731.7 0.017 0.000 8.9 7 1
02/02/06 8:25 p -6.4 -6.3 -6.4 --- --- 0.9 ENE 0.01 2.6 -6.4 --- --- 731.7 0.017 0.000 8.9 7 1
02/02/06 8:26 p -6.3 -6.3 -6.3 --- --- 1.7 ENE 0.03 2.6 -7.6 --- --- 731.8 0.017 0.000 8.9 7 1
02/02/06 8:27 p -6.3 -6.3 -6.3 --- --- 1.7 ENE 0.03 1.7 -7.6 --- --- 731.7 0.017 0.000 8.9 7 1
02/02/06 8:28 p -6.4 -6.4 -6.5 --- --- 1.7 ENE 0.03 2.6 -7.7 --- --- 731.7 0.017 0.000 9.0 7 1
02/02/06 8:29 p -6.6 -6.6 -6.6 --- --- 1.7 ENE 0.03 2.6 -7.8 --- --- 731.7 0.017 0.000 9.0 7 1
02/02/06 8:30 p -6.6 -6.6 -6.6 --- --- 0.9 ENE 0.01 1.7 -6.6 --- --- 731.7 0.017 0.000 9.0 7 1
02/02/06 8:31 p -6.6 -6.6 -6.7 --- --- 0.9 ENE 0.01 1.7 -6.6 --- --- 731.7 0.017 0.000 9.0 7 1
02/02/06 8:32 p -6.6 -6.6 -6.7 --- --- 0.9 ENE 0.01 1.7 -6.6 --- --- 731.9 0.017 0.000 9.0 7 1
02/02/06 8:33 p -6.7 -6.7 -6.7 --- --- 0.9 ENE 0.01 1.7 -6.7 --- --- 731.8 0.017 0.000 9.0 7 1
02/02/06 8:34 p -6.7 -6.7 -6.7 --- --- 0.9 ENE 0.01 1.7 -6.7 --- --- 731.8 0.017 0.000 9.0 7 1
02/02/06 8:35 p -6.7 -6.7 -6.8 --- --- 0.9 ENE 0.01 1.7 -6.7 --- --- 731.7 0.017 0.000 9.0 7 1
02/02/06 8:36 p -6.8 -6.8 -6.8 --- --- 2.6 ENE 0.04 3.5 -9.2 --- --- 731.7 0.017 0.000 9.0 7 1
02/02/06 8:37 p -6.7 -6.7 -6.8 --- --- 2.6 ENE 0.04 3.5 -9.1 --- --- 731.7 0.017 0.000 9.0 7 1
02/02/06 8:38 p -6.6 -6.6 -6.6 --- --- 1.7 ENE 0.03 2.6 -7.8 --- --- 731.6 0.017 0.000 8.9 7 1
02/02/06 8:39 p -6.6 -6.5 -6.6 --- --- 1.7 ENE 0.03 3.5 -7.8 --- --- 731.7 0.017 0.000 8.9 7 1
02/02/06 8:40 p -6.4 -6.4 -6.4 --- --- 2.6 ENE 0.04 2.6 -8.7 --- --- 731.7 0.017 0.000 8.9 7 1
02/02/06 8:41 p -6.4 -6.4 -6.4 --- --- 2.6 ENE 0.04 2.6 -8.7 --- --- 731.7 0.017 0.000 8.9 7 1
02/02/06 8:42 p -6.4 -6.3 -6.4 --- --- 2.6 ENE 0.04 3.5 -8.7 --- --- 731.7 0.017 0.000 8.9 7 1
02/02/06 8:43 p -6.3 -6.3 -6.3 --- --- 2.6 ENE 0.04 2.6 -8.7 --- --- 731.7 0.017 0.000 8.9 7 1
02/02/06 8:44 p -6.3 -6.3 -6.3 --- --- 1.7 ENE 0.03 2.6 -7.5 --- --- 731.7 0.017 0.000 8.9 7 1
02/02/06 8:45 p -6.3 -6.3 -6.3 --- --- 1.7 ENE 0.03 2.6 -7.5 --- --- 731.7 0.017 0.000 8.9 7 1
02/02/06 8:46 p -6.3 -6.3 -6.3 --- --- 1.7 ENE 0.03 2.6 -7.6 --- --- 731.6 0.017 0.000 8.9 7 1
02/02/06 8:47 p -6.3 -6.3 -6.3 --- --- 1.7 ENE 0.03 2.6 -7.6 --- --- 731.6 0.017 0.000 8.9 7 1
02/02/06 8:48 p -6.3 -6.3 -6.3 --- --- 0.9 ENE 0.01 1.7 -6.3 --- --- 731.7 0.017 0.000 8.9 7 1
02/02/06 8:49 p -6.3 -6.2 -6.3 --- --- 0.0 ENE 0.00 0.9 -6.3 --- --- 731.7 0.017 0.000 8.9 7 1
02/02/06 8:50 p -6.2 -6.2 -6.2 --- --- 0.9 ENE 0.01 1.7 -6.2 --- --- 731.6 0.017 0.000 8.9 7 1
02/02/06 8:51 p -6.2 -6.1 -6.2 --- --- 0.9 ENE 0.01 1.7 -6.2 --- --- 731.7 0.017 0.000 8.9 7 1
02/02/06 8:52 p -6.1 -6.1 -6.1 --- --- 1.7 ENE 0.03 1.7 -7.3 --- --- 731.6 0.017 0.000 8.9 7 1
02/02/06 8:53 p -6.1 -6.1 -6.1 --- --- 0.9 ENE 0.01 2.6 -6.1 --- --- 731.7 0.017 0.000 8.9 7 1
02/02/06 8:54 p -6.1 -6.1 -6.1 --- --- 0.9 ENE 0.01 1.7 -6.1 --- --- 731.7 0.017 0.000 8.9 7 1
02/02/06 8:55 p -6.1 -6.1 -6.1 --- --- 0.9 ENE 0.01 1.7 -6.1 --- --- 731.7 0.017 0.000 8.9 7 1
02/02/06 8:56 p -6.1 -6.1 -6.1 --- --- 0.0 ENE 0.00 0.9 -6.1 --- --- 731.7 0.017 0.000 8.9 7 1
02/02/06 8:57 p -6.1 -6.1 -6.1 --- --- 0.0 ENE 0.00 0.9 -6.1 --- --- 731.7 0.017 0.000 8.9 7 1
02/02/06 8:58 p -6.1 -6.1 -6.1 --- --- 0.9 ENE 0.01 0.9 -6.1 --- --- 731.7 0.017 0.000 8.9 7 1
02/02/06 8:59 p -6.1 -6.0 -6.1 --- --- 0.9 ENE 0.01 1.7 -6.1 --- --- 731.7 0.017 0.000 8.9 7 1
02/02/06 9:00 p -5.9 -5.9 -6.0 --- --- 0.0 ENE 0.00 0.9 -5.9 --- --- 731.7 0.017 0.000 8.9 7 1
02/02/06 9:01 p -5.9 -5.9 -6.0 --- --- 0.9 ENE 0.01 1.7 -5.9 --- --- 731.6 0.017 0.000 8.9 7 1
02/02/06 9:02 p -5.8 -5.8 -5.9 --- --- 0.0 ENE 0.00 0.9 -5.8 --- --- 731.7 0.017 0.000 8.9 7 1
02/02/06 9:03 p -5.8 -5.8 -5.9 --- --- 0.0 ENE 0.00 0.9 -5.8 --- --- 731.7 0.017 0.000 8.9 7 1
02/02/06 9:04 p -5.8 -5.8 -5.9 --- --- 0.0 ENE 0.00 0.9 -5.8 --- --- 731.7 0.017 0.000 8.9 7 1
02/02/06 9:05 p -5.8 -5.7 -5.8 --- --- 0.0 ENE 0.00 0.9 -5.8 --- --- 731.6 0.017 0.000 8.9 7 1
02/02/06 9:06 p -5.7 -5.7 -5.7 --- --- 0.9 ENE 0.01 1.7 -5.7 --- --- 731.6 0.017 0.000 8.9 7 1
02/02/06 9:07 p -5.8 -5.7 -5.8 --- --- 0.0 ENE 0.00 0.9 -5.8 --- --- 731.6 0.017 0.000 8.9 7 1
02/02/06 9:08 p -5.8 -5.8 -5.8 --- --- 0.0 ENE 0.00 0.9 -5.8 --- --- 731.6 0.017 0.000 8.9 7 1
02/02/06 9:09 p -5.8 -5.8 -5.8 --- --- 0.0 ENE 0.00 0.9 -5.8 --- --- 731.5 0.017 0.000 8.9 7 1
02/02/06 9:10 p -5.8 -5.8 -5.8 --- --- 0.9 ENE 0.01 1.7 -5.8 --- --- 731.6 0.017 0.000 8.9 7 1
02/02/06 9:11 p -5.8 -5.8 -5.8 --- --- 0.9 ENE 0.01 0.9 -5.8 --- --- 731.6 0.017 0.000 8.9 7 1
02/02/06 9:12 p -5.7 -5.7 -5.8 --- --- 0.0 ENE 0.00 1.7 -5.7 --- --- 731.7 0.017 0.000 8.9 7 1
02/02/06 9:13 p -5.7 -5.7 -5.7 --- --- 0.0 ENE 0.00 0.9 -5.7 --- --- 731.6 0.017 0.000 8.9 7 1
02/02/06 9:14 p -5.7 -5.7 -5.8 --- --- 0.9 ENE 0.01 0.9 -5.7 --- --- 731.6 0.017 0.000 8.9 7 1
02/02/06 9:15 p -5.8 -5.8 -5.8 --- --- 0.0 ENE 0.00 0.9 -5.8 --- --- 731.7 0.017 0.000 8.9 7 1
02/02/06 9:16 p -5.8 -5.8 -5.9 --- --- 0.0 ENE 0.00 0.9 -5.8 --- --- 731.7 0.017 0.000 8.9 7 1
02/02/06 9:17 p -5.9 -5.8 -5.9 --- --- 0.9 ENE 0.01 2.6 -5.9 --- --- 731.6 0.017 0.000 8.9 7 1
02/02/06 9:18 p -5.8 -5.8 -5.8 --- --- 0.9 ENE 0.01 1.7 -5.8 --- --- 731.6 0.017 0.000 9.0 7 1
02/02/06 9:19 p -5.8 -5.8 -5.8 --- --- 0.9 ENE 0.01 1.7 -5.8 --- --- 731.6 0.017 0.000 9.0 7 1
02/02/06 9:20 p -5.9 -5.8 -5.9 --- --- 0.0 ENE 0.00 1.7 -5.9 --- --- 731.6 0.017 0.000 9.0 7 1
02/02/06 9:21 p -5.8 -5.8 -5.9 --- --- 0.0 ENE 0.00 0.9 -5.8 --- --- 731.6 0.017 0.000 9.0 7 1
02/02/06 9:22 p -5.7 -5.7 -5.8 --- --- 0.9 ENE 0.01 1.7 -5.7 --- --- 731.6 0.017 0.000 9.0 7 1
02/02/06 9:23 p -5.8 -5.8 -5.8 --- --- 0.0 ENE 0.00 0.9 -5.8 --- --- 731.6 0.017 0.000 8.9 7 1
02/02/06 9:24 p -5.9 -5.9 -5.9 --- --- 0.9 ENE 0.01 2.6 -5.9 --- --- 731.6 0.017 0.000 8.9 7 1
02/02/06 9:25 p -5.8 -5.8 -5.8 --- --- 0.9 ENE 0.01 1.7 -5.8 --- --- 731.5 0.017 0.000 8.9 7 1
02/02/06 9:26 p -5.7 -5.7 -5.8 --- --- 0.0 ENE 0.00 0.9 -5.7 --- --- 731.5 0.017 0.000 8.9 7 1
02/02/06 9:27 p -5.8 -5.7 -5.8 --- --- 0.0 ENE 0.00 0.9 -5.8 --- --- 731.5 0.017 0.000 8.9 7 1
02/02/06 9:28 p -5.7 -5.6 -5.7 --- --- 0.0 ENE 0.00 0.9 -5.7 --- --- 731.5 0.017 0.000 8.9 7 1
02/02/06 9:29 p -5.6 -5.6 -5.6 --- --- 0.0 ENE 0.00 0.9 -5.6 --- --- 731.6 0.017 0.000 8.9 7 1
02/02/06 9:30 p -5.6 -5.6 -5.6 --- --- 0.0 ENE 0.00 0.9 -5.6 --- --- 731.6 0.017 0.000 8.9 7 1
02/02/06 9:31 p -5.5 -5.5 -5.5 --- --- 0.9 ENE 0.01 1.7 -5.5 --- --- 731.6 0.017 0.000 8.9 7 1
02/02/06 9:32 p -5.4 -5.4 -5.5 --- --- 0.0 ENE 0.00 0.9 -5.4 --- --- 731.6 0.017 0.000 8.9 7 1
02/02/06 9:33 p -5.4 -5.4 -5.4 --- --- 0.0 --- 0.00 0.9 -5.4 --- --- 731.6 0.016 0.000 8.9 7 1
02/02/06 9:34 p -5.4 -5.4 -5.4 --- --- 0.0 ENE 0.00 1.7 -5.4 --- --- 731.6 0.016 0.000 8.9 7 1
02/02/06 9:35 p -5.4 -5.4 -5.4 --- --- 0.0 ENE 0.00 0.9 -5.4 --- --- 731.6 0.016 0.000 8.9 7 1
02/02/06 9:36 p -5.4 -5.4 -5.4 --- --- 0.0 ENE 0.00 1.7 -5.4 --- --- 731.5 0.016 0.000 8.9 7 1
02/02/06 9:37 p -5.3 -5.3 -5.3 --- --- 0.0 --- 0.00 0.0 -5.3 --- --- 731.5 0.016 0.000 8.9 7 1
02/02/06 9:38 p -5.2 -5.2 -5.3 --- --- 0.9 ENE 0.01 2.6 -5.2 --- --- 731.6 0.016 0.000 8.9 7 1
02/02/06 9:39 p -5.2 -5.2 -5.2 --- --- 0.0 ENE 0.00 1.7 -5.2 --- --- 731.6 0.016 0.000 8.9 7 1
02/02/06 9:40 p -5.3 -5.3 -5.3 --- --- 0.9 ENE 0.01 0.9 -5.3 --- --- 731.6 0.016 0.000 9.0 7 1
02/02/06 9:41 p -5.3 -5.3 -5.3 --- --- 0.9 ENE 0.01 1.7 -5.3 --- --- 731.6 0.016 0.000 9.0 7 1
02/02/06 9:42 p -5.4 -5.4 -5.4 --- --- 0.9 ENE 0.01 1.7 -5.4 --- --- 731.6 0.016 0.000 9.0 7 1
02/02/06 9:43 p -5.4 -5.3 -5.4 --- --- 0.9 ENE 0.01 2.6 -5.4 --- --- 731.6 0.016 0.000 9.0 7 1
02/02/06 9:44 p -5.5 -5.4 -5.6 --- --- 0.0 ENE 0.00 1.7 -5.5 --- --- 731.5 0.017 0.000 9.0 7 1
02/02/06 9:45 p -5.6 -5.6 -5.6 --- --- 0.9 ENE 0.01 1.7 -5.6 --- --- 731.6 0.017 0.000 9.0 7 1
02/02/06 9:46 p -5.6 -5.6 -5.6 --- --- 0.9 ENE 0.01 1.7 -5.6 --- --- 731.6 0.017 0.000 9.0 7 1
02/02/06 9:47 p -5.6 -5.6 -5.6 --- --- 0.9 ENE 0.01 2.6 -5.6 --- --- 731.6 0.017 0.000 9.0 7 1
02/02/06 9:48 p -5.6 -5.5 -5.6 --- --- 0.9 ENE 0.01 1.7 -5.6 --- --- 731.7 0.017 0.000 9.0 7 1
02/02/06 9:49 p -5.5 -5.4 -5.5 --- --- 0.9 ENE 0.01 1.7 -5.5 --- --- 731.6 0.017 0.000 8.9 7 1
02/02/06 9:50 p -5.4 -5.4 -5.4 --- --- 0.9 ENE 0.01 2.6 -5.4 --- --- 731.7 0.016 0.000 9.0 7 1
02/02/06 9:51 p -5.4 -5.3 -5.4 --- --- 0.9 ENE 0.01 2.6 -5.4 --- --- 731.7 0.016 0.000 9.0 7 1
02/02/06 9:52 p -5.4 -5.4 -5.4 --- --- 0.9 ENE 0.01 0.9 -5.4 --- --- 731.6 0.016 0.000 9.0 7 1
02/02/06 9:53 p -5.4 -5.4 -5.4 --- --- 0.9 ENE 0.01 1.7 -5.4 --- --- 731.6 0.016 0.000 9.0 7 1
02/02/06 9:54 p -5.4 -5.4 -5.4 --- --- 0.9 ENE 0.01 1.7 -5.4 --- --- 731.7 0.017 0.000 9.0 7 1
02/02/06 9:55 p -5.4 -5.4 -5.4 --- --- 0.9 ENE 0.01 1.7 -5.4 --- --- 731.7 0.017 0.000 9.0 7 1
02/02/06 9:56 p -5.4 -5.4 -5.5 --- --- 0.9 ENE 0.01 2.6 -5.4 --- --- 731.7 0.017 0.000 9.0 7 1
02/02/06 9:57 p -5.4 -5.4 -5.4 --- --- 0.9 ENE 0.01 0.9 -5.4 --- --- 731.6 0.017 0.000 9.0 7 1
02/02/06 9:58 p -5.4 -5.4 -5.4 --- --- 0.9 ENE 0.01 1.7 -5.4 --- --- 731.6 0.017 0.000 9.0 7 1
02/02/06 9:59 p -5.4 -5.3 -5.4 --- --- 0.9 ENE 0.01 1.7 -5.4 --- --- 731.5 0.016 0.000 9.0 7 1
02/02/06 10:00 p -5.3 -5.3 -5.3 --- --- 0.9 ENE 0.01 1.7 -5.3 --- --- 731.6 0.016 0.000 9.0 7 1
02/02/06 10:01 p -5.4 -5.3 -5.6 --- --- 1.7 ENE 0.03 1.7 -6.5 --- --- 731.6 0.016 0.000 8.9 7 1
02/02/06 10:02 p -5.7 -5.6 -5.9 --- --- 0.9 ENE 0.01 1.7 -5.7 --- --- 731.7 0.017 0.000 8.9 7 1
02/02/06 10:03 p -5.9 -5.9 -5.9 --- --- 1.7 ENE 0.03 2.6 -7.1 --- --- 731.6 0.017 0.000 8.9 7 1
02/02/06 10:04 p -5.8 -5.8 -5.9 --- --- 1.7 ENE 0.03 2.6 -7.0 --- --- 731.6 0.017 0.000 8.9 7 1
02/02/06 10:05 p -5.8 -5.8 -5.8 --- --- 0.9 ENE 0.01 1.7 -5.8 --- --- 731.6 0.017 0.000 9.0 7 1
02/02/06 10:06 p -5.8 -5.8 -5.8 --- --- 1.7 ENE 0.03 1.7 -7.0 --- --- 731.6 0.017 0.000 9.0 7 1
02/02/06 10:07 p -5.9 -5.9 -5.9 --- --- 0.9 ENE 0.01 1.7 -5.9 --- --- 731.7 0.017 0.000 9.0 7 1
02/02/06 10:08 p -5.8 -5.8 -5.9 --- --- 0.9 ENE 0.01 1.7 -5.8 --- --- 731.6 0.017 0.000 9.0 7 1
02/02/06 10:09 p -5.9 -5.9 -5.9 --- --- 1.7 ENE 0.03 3.5 -7.1 --- --- 731.6 0.017 0.000 9.0 7 1
02/02/06 10:10 p -5.9 -5.8 -5.9 --- --- 0.9 ENE 0.01 2.6 -5.9 --- --- 731.7 0.017 0.000 9.0 7 1
02/02/06 10:11 p -5.8 -5.7 -5.8 --- --- 1.7 ENE 0.03 2.6 -6.9 --- --- 731.7 0.017 0.000 9.0 7 1
02/02/06 10:12 p -5.6 -5.6 -5.6 --- --- 2.6 ENE 0.04 3.5 -7.8 --- --- 731.7 0.017 0.000 9.1 7 1
02/02/06 10:13 p -5.6 -5.5 -5.6 --- --- 1.7 ENE 0.03 2.6 -6.7 --- --- 731.6 0.017 0.000 9.1 7 1
02/02/06 10:14 p -5.4 -5.4 -5.4 --- --- 0.9 ENE 0.01 2.6 -5.4 --- --- 731.7 0.017 0.000 9.1 7 1
02/02/06 10:15 p -5.4 -5.4 -5.4 --- --- 2.6 ENE 0.04 2.6 -7.7 --- --- 731.6 0.017 0.000 9.1 7 1
02/02/06 10:16 p -5.6 -5.5 -5.8 --- --- 2.6 ENE 0.04 3.5 -7.8 --- --- 731.7 0.017 0.000 9.1 7 1
02/02/06 10:17 p -5.9 -5.8 -5.9 --- --- 2.6 ENE 0.04 3.5 -8.2 --- --- 731.6 0.017 0.000 9.0 7 1
02/02/06 10:18 p -5.9 -5.9 -6.0 --- --- 1.7 ENE 0.03 3.5 -7.1 --- --- 731.7 0.017 0.000 9.0 7 1
02/02/06 10:19 p -6.0 -6.0 -6.1 --- --- 2.6 ENE 0.04 2.6 -8.3 --- --- 731.6 0.017 0.000 9.0 7 1
02/02/06 10:20 p -5.9 -5.9 -6.0 --- --- 2.6 ENE 0.04 3.5 -8.2 --- --- 731.7 0.017 0.000 9.0 7 1
02/02/06 10:21 p -5.8 -5.8 -5.8 --- --- 2.6 ENE 0.04 3.5 -8.1 --- --- 731.7 0.017 0.000 9.0 7 1
02/02/06 10:22 p -5.8 -5.8 -5.9 --- --- 2.6 ENE 0.04 3.5 -8.1 --- --- 731.7 0.017 0.000 9.0 7 1
02/02/06 10:23 p -5.8 -5.8 -5.9 --- --- 2.6 ENE 0.04 3.5 -8.1 --- --- 731.7 0.017 0.000 9.0 7 1
02/02/06 10:24 p -5.8 -5.8 -5.8 --- --- 2.6 ENE 0.04 3.5 -8.1 --- --- 731.7 0.017 0.000 9.0 7 1
02/02/06 10:25 p -5.8 -5.8 -5.8 --- --- 3.5 ENE 0.06 4.3 -8.8 --- --- 731.7 0.017 0.000 9.0 7 1
02/02/06 10:26 p -5.7 -5.7 -5.8 --- --- 3.5 NNW 0.06 4.3 -8.8 --- --- 731.7 0.017 0.000 9.0 7 1
02/02/06 10:27 p -5.8 -5.7 -5.8 --- --- 3.5 NNW 0.06 4.3 -8.8 --- --- 731.8 0.017 0.000 9.0 7 1
02/02/06 10:28 p -5.7 -5.7 -5.8 --- --- 3.5 NNW 0.06 4.3 -8.8 --- --- 731.7 0.017 0.000 9.0 7 1
02/02/06 10:29 p -5.7 -5.7 -5.7 --- --- 3.5 NNW 0.06 4.3 -8.7 --- --- 731.7 0.017 0.000 9.1 7 1
02/02/06 10:30 p -5.8 -5.7 -5.8 --- --- 3.5 NNW 0.06 4.3 -8.8 --- --- 731.7 0.017 0.000 9.1 7 1
02/02/06 10:31 p -5.8 -5.8 -5.8 --- --- 3.5 NNW 0.06 3.5 -8.9 --- --- 731.7 0.017 0.000 9.1 7 1
02/02/06 10:32 p -5.8 -5.8 -5.8 --- --- 2.6 NNW 0.04 3.5 -8.1 --- --- 731.8 0.017 0.000 9.1 7 1
02/02/06 10:33 p -5.8 -5.8 -5.9 --- --- 3.5 NNW 0.06 4.3 -8.9 --- --- 731.7 0.017 0.000 9.1 7 1
02/02/06 10:34 p -5.8 -5.8 -5.8 --- --- 3.5 NNW 0.06 4.3 -8.9 --- --- 731.8 0.017 0.000 9.1 7 1
02/02/06 10:35 p -5.7 -5.7 -5.8 --- --- 3.5 NNW 0.06 4.3 -8.8 --- --- 731.8 0.017 0.000 9.1 7 1
02/02/06 10:36 p -5.7 -5.7 -5.8 --- --- 3.5 NNW 0.06 4.3 -8.8 --- --- 731.8 0.017 0.000 9.1 7 1
02/02/06 10:37 p -5.8 -5.8 -5.8 --- --- 3.5 NNW 0.06 4.3 -8.8 --- --- 731.8 0.017 0.000 9.1 7 1
02/02/06 10:38 p -5.8 -5.8 -5.8 --- --- 3.5 NNW 0.06 4.3 -8.8 --- --- 731.8 0.017 0.000 9.1 7 1
02/02/06 10:39 p -5.8 -5.8 -5.8 --- --- 2.6 NNW 0.04 4.3 -8.1 --- --- 731.8 0.017 0.000 9.1 7 1
02/02/06 10:40 p -5.8 -5.8 -5.8 --- --- 3.5 NNW 0.06 4.3 -8.8 --- --- 731.7 0.017 0.000 9.0 7 1
02/02/06 10:41 p -5.8 -5.7 -5.8 --- --- 3.5 NNW 0.06 4.3 -8.8 --- --- 731.9 0.017 0.000 9.0 7 1
02/02/06 10:42 p -5.7 -5.7 -5.8 --- --- 3.5 NNW 0.06 4.3 -8.8 --- --- 731.9 0.017 0.000 9.0 7 1
02/02/06 10:43 p -5.7 -5.7 -5.8 --- --- 3.5 NNW 0.06 4.3 -8.8 --- --- 731.9 0.017 0.000 9.0 7 1
02/02/06 10:44 p -5.8 -5.8 -5.8 --- --- 3.5 NNW 0.06 4.3 -8.9 --- --- 731.8 0.017 0.000 9.0 7 1
02/02/06 10:45 p -5.8 -5.8 -5.9 --- --- 3.5 NNW 0.06 4.3 -8.9 --- --- 731.8 0.017 0.000 9.0 7 1
02/02/06 10:46 p -5.9 -5.9 -5.9 --- --- 4.3 NNW 0.07 5.2 -9.7 --- --- 731.9 0.017 0.000 9.0 7 1
02/02/06 10:47 p -5.9 -5.9 -5.9 --- --- 4.3 NNW 0.07 5.2 -9.7 --- --- 731.9 0.017 0.000 9.0 7 1
02/02/06 10:48 p -5.9 -5.9 -5.9 --- --- 4.3 NNW 0.07 5.2 -9.7 --- --- 731.8 0.017 0.000 9.0 7 1
02/02/06 10:49 p -5.9 -5.8 -5.9 --- --- 4.3 NNW 0.07 5.2 -9.7 --- --- 731.9 0.017 0.000 9.1 7 1
02/02/06 10:50 p -5.8 -5.8 -5.8 --- --- 4.3 NNW 0.07 5.2 -9.6 --- --- 731.9 0.017 0.000 9.1 7 1
02/02/06 10:51 p -5.7 -5.7 -5.8 --- --- 4.3 NNW 0.07 5.2 -9.4 --- --- 731.9 0.017 0.000 9.1 7 1
02/02/06 10:52 p -5.6 -5.6 -5.7 --- --- 5.2 NNW 0.09 5.2 -9.9 --- --- 731.8 0.017 0.000 9.1 7 1
02/02/06 10:53 p -5.5 -5.4 -5.6 --- --- 4.3 NNW 0.07 5.2 -9.2 --- --- 731.9 0.017 0.000 9.1 7 1
02/02/06 10:54 p -5.5 -5.4 -5.5 --- --- 5.2 NNW 0.09 5.2 -9.8 --- --- 731.9 0.017 0.000 9.1 7 1
02/02/06 10:55 p -5.4 -5.4 -5.4 --- --- 4.3 NNW 0.07 5.2 -9.1 --- --- 731.9 0.017 0.000 9.1 7 1
02/02/06 10:56 p -5.4 -5.4 -5.4 --- --- 5.2 NNW 0.09 6.1 -9.6 --- --- 731.9 0.016 0.000 9.1 7 1
02/02/06 10:57 p -5.4 -5.4 -5.4 --- --- 5.2 NNW 0.09 6.1 -9.6 --- --- 731.9 0.016 0.000 9.1 7 1
02/02/06 10:58 p -5.3 -5.2 -5.4 --- --- 5.2 NNW 0.09 6.1 -9.6 --- --- 731.9 0.016 0.000 9.1 7 1
02/02/06 10:59 p -5.1 -5.1 -5.2 --- --- 5.2 NNW 0.09 6.1 -9.3 --- --- 732.0 0.016 0.000 9.1 7 1
02/02/06 11:00 p -5.2 -5.1 -5.3 --- --- 5.2 NNW 0.09 5.2 -9.3 --- --- 732.0 0.016 0.000 9.1 7 1
02/02/06 11:01 p -5.4 -5.3 -5.4 --- --- 5.2 NNW 0.09 6.1 -9.6 --- --- 731.9 0.016 0.000 9.1 7 1
02/02/06 11:02 p -5.4 -5.3 -5.4 --- --- 6.1 NNW 0.10 7.0 -10.1 --- --- 731.9 0.016 0.000 9.1 7 1
02/02/06 11:03 p -5.2 -5.1 -5.3 --- --- 6.1 NNW 0.10 6.1 -9.8 --- --- 731.9 0.016 0.000 9.1 7 1
02/02/06 11:04 p -5.0 -4.9 -5.1 --- --- 5.2 NNW 0.09 6.1 -9.2 --- --- 731.9 0.016 0.000 9.1 7 1
02/02/06 11:05 p -4.9 -4.9 -5.2 --- --- 5.2 NNW 0.09 6.1 -9.1 --- --- 731.9 0.016 0.000 9.1 7 1
02/02/06 11:06 p -5.2 -5.1 -5.2 --- --- 6.1 NNW 0.10 7.0 -9.8 --- --- 731.9 0.016 0.000 9.1 7 1
02/02/06 11:07 p -5.1 -5.1 -5.2 --- --- 5.2 NNW 0.09 7.0 -9.3 --- --- 732.0 0.016 0.000 9.1 7 1
02/02/06 11:08 p -5.1 -5.1 -5.2 --- --- 5.2 NNW 0.09 7.0 -9.3 --- --- 731.9 0.016 0.000 9.1 7 1
02/02/06 11:09 p -5.1 -5.1 -5.2 --- --- 5.2 NNW 0.09 6.1 -9.3 --- --- 731.9 0.016 0.000 9.1 7 1
02/02/06 11:10 p -5.3 -5.2 -5.4 --- --- 5.2 NNW 0.09 6.1 -9.6 --- --- 731.9 0.016 0.000 9.1 7 1
02/02/06 11:11 p -5.4 -5.4 -5.5 --- --- 5.2 NNW 0.09 6.1 -9.7 --- --- 731.9 0.017 0.000 9.1 7 1
02/02/06 11:12 p -5.4 -5.2 -5.5 --- --- 6.1 NNW 0.10 7.0 -10.1 --- --- 731.9 0.016 0.000 9.1 7 1
02/02/06 11:13 p -5.1 -5.0 -5.2 --- --- 6.1 NNW 0.10 7.0 -9.8 --- --- 731.9 0.016 0.000 9.1 7 1
02/02/06 11:14 p -5.0 -5.0 -5.0 --- --- 6.1 NNW 0.10 7.0 -9.6 --- --- 732.0 0.016 0.000 9.1 7 1
02/02/06 11:15 p -5.0 -4.9 -5.1 --- --- 6.1 NNW 0.10 7.0 -9.6 --- --- 732.0 0.016 0.000 9.1 7 1
02/02/06 11:16 p -5.2 -5.1 -5.3 --- --- 6.1 NNW 0.10 7.0 -9.8 --- --- 731.9 0.016 0.000 9.1 7 1
02/02/06 11:17 p -5.3 -5.3 -5.4 --- --- 6.1 NNW 0.10 7.8 -10.1 --- --- 731.9 0.016 0.000 9.1 7 1
02/02/06 11:18 p -5.4 -5.4 -5.4 --- --- 7.0 NNW 0.12 7.0 -10.6 --- --- 732.0 0.016 0.000 9.2 7 1
02/02/06 11:19 p -5.4 -5.4 -5.4 --- --- 6.1 NNW 0.10 7.0 -10.1 --- --- 732.0 0.016 0.000 9.2 7 1
02/02/06 11:20 p -5.5 -5.4 -5.5 --- --- 6.1 NNW 0.10 7.0 -10.2 --- --- 732.0 0.017 0.000 9.2 7 1
02/02/06 11:21 p -5.5 -5.4 -5.6 --- --- 7.0 NNW 0.12 7.8 -10.7 --- --- 732.0 0.017 0.000 9.2 7 1
02/02/06 11:22 p -5.4 -5.4 -5.5 --- --- 7.0 NNW 0.12 7.8 -10.6 --- --- 732.1 0.017 0.000 9.2 7 1
02/02/06 11:23 p -5.5 -5.4 -5.6 --- --- 7.0 NNW 0.12 7.8 -10.7 --- --- 731.9 0.017 0.000 9.2 7 1
02/02/06 11:24 p -5.4 -5.3 -5.4 --- --- 6.1 NNW 0.10 7.8 -10.1 --- --- 732.0 0.016 0.000 9.2 7 1
02/02/06 11:25 p -5.2 -5.2 -5.3 --- --- 6.1 NNW 0.10 7.0 -9.9 --- --- 732.1 0.016 0.000 9.2 7 1
02/02/06 11:26 p -5.3 -5.2 -5.4 --- --- 6.1 NNW 0.10 7.0 -10.1 --- --- 731.9 0.016 0.000 9.2 7 1
02/02/06 11:27 p -5.5 -5.4 -5.6 --- --- 7.0 NNW 0.12 7.8 -10.7 --- --- 732.1 0.017 0.000 9.2 7 1
02/02/06 11:28 p -5.7 -5.6 -5.7 --- --- 6.1 NNW 0.10 7.8 -10.4 --- --- 732.0 0.017 0.000 9.2 7 1
02/02/06 11:29 p -5.8 -5.8 -5.8 --- --- 6.1 NNW 0.10 7.8 -10.6 --- --- 732.0 0.017 0.000 9.2 7 1
02/02/06 11:30 p -5.8 -5.8 -5.8 --- --- 6.1 NNW 0.10 7.8 -10.7 --- --- 732.0 0.017 0.000 9.2 7 1
02/02/06 11:31 p -5.7 -5.6 -5.7 --- --- 6.1 NNW 0.10 7.8 -10.4 --- --- 731.9 0.017 0.000 9.2 7 1
02/02/06 11:32 p -5.6 -5.6 -5.6 --- --- 6.1 NNW 0.10 7.0 -10.3 --- --- 732.0 0.017 0.000 9.2 7 1
02/02/06 11:33 p -5.7 -5.7 -5.8 --- --- 5.2 NNW 0.09 7.0 -10.0 --- --- 732.0 0.017 0.000 9.2 7 1
02/02/06 11:34 p -5.8 -5.8 -5.8 --- --- 6.1 NNW 0.10 7.0 -10.6 --- --- 732.0 0.017 0.000 9.2 7 1
02/02/06 11:35 p -5.9 -5.9 -5.9 --- --- 6.1 NNW 0.10 6.1 -10.7 --- --- 731.9 0.017 0.000 9.1 7 1
02/02/06 11:36 p -5.9 -5.9 -5.9 --- --- 6.1 NNW 0.10 7.8 -10.7 --- --- 731.9 0.017 0.000 9.1 7 1
02/02/06 11:37 p -5.8 -5.8 -5.8 --- --- 6.1 NNW 0.10 7.0 -10.7 --- --- 732.0 0.017 0.000 9.1 7 1
02/02/06 11:38 p -5.8 -5.8 -5.9 --- --- 6.1 NNW 0.10 7.8 -10.7 --- --- 732.1 0.017 0.000 9.1 8 1
02/02/06 11:39 p -5.8 -5.8 -5.9 --- --- 5.2 NNW 0.09 7.0 -10.2 --- --- 732.0 0.017 0.000 9.1 7 1
02/02/06 11:40 p -5.9 -5.9 -5.9 --- --- 5.2 NNW 0.09 7.0 -10.2 --- --- 731.9 0.017 0.000 9.1 8 1
02/02/06 11:41 p -5.9 -5.8 -6.0 --- --- 5.2 NNW 0.09 6.1 -10.2 --- --- 732.0 0.017 0.000 9.1 8 1
02/02/06 11:42 p -6.1 -6.1 -6.1 --- --- 5.2 NNW 0.09 6.1 -10.4 --- --- 731.9 0.017 0.000 9.1 7 1
02/02/06 11:43 p -5.9 -5.9 -6.1 --- --- 6.1 N 0.10 7.8 -10.8 --- --- 731.9 0.017 0.000 9.1 7 1
02/02/06 11:44 p -5.9 -5.8 -5.9 --- --- 6.1 NNW 0.10 7.8 -10.7 --- --- 732.0 0.017 0.000 9.1 8 1
02/02/06 11:45 p -6.1 -6.0 -6.1 --- --- 6.1 N 0.10 7.0 -10.9 --- --- 732.0 0.017 0.000 9.2 8 1
02/02/06 11:46 p -6.1 -6.1 -6.2 --- --- 6.1 N 0.10 7.0 -11.0 --- --- 732.0 0.017 0.000 9.2 7 1
02/02/06 11:47 p -6.1 -6.1 -6.1 --- --- 6.1 N 0.10 7.0 -11.0 --- --- 732.0 0.017 0.000 9.2 8 1
02/02/06 11:48 p -6.2 -6.1 -6.2 --- --- 6.1 N 0.10 7.0 -11.1 --- --- 732.0 0.017 0.000 9.2 7 1
02/02/06 11:49 p -6.2 -6.1 -6.2 --- --- 6.1 N 0.10 7.0 -11.1 --- --- 732.0 0.017 0.000 9.2 7 1
02/02/06 11:50 p -6.1 -6.1 -6.1 --- --- 6.1 N 0.10 7.0 -10.9 --- --- 732.0 0.017 0.000 9.2 8 1
02/02/06 11:51 p -6.0 -6.0 -6.1 --- --- 7.0 N 0.12 7.8 -11.3 --- --- 732.0 0.017 0.000 9.2 7 1
02/02/06 11:52 p -6.0 -6.0 -6.0 --- --- 7.0 NNW 0.12 7.8 -11.3 --- --- 732.0 0.017 0.000 9.2 7 1
02/02/06 11:53 p -6.1 -6.0 -6.1 --- --- 6.1 NNW 0.10 7.8 -10.9 --- --- 731.9 0.017 0.000 9.2 7 1
02/02/06 11:54 p -6.1 -6.1 -6.1 --- --- 6.1 N 0.10 7.8 -11.0 --- --- 731.9 0.017 0.000 9.2 8 1
02/02/06 11:55 p -6.1 -6.1 -6.2 --- --- 6.1 N 0.10 7.8 -11.0 --- --- 731.9 0.017 0.000 9.2 7 1
02/02/06 11:56 p -6.1 -6.1 -6.2 --- --- 7.0 NNW 0.12 7.8 -11.4 --- --- 731.9 0.017 0.000 9.2 7 1
02/02/06 11:57 p -6.1 -6.0 -6.1 --- --- 7.0 N 0.12 7.8 -11.3 --- --- 731.9 0.017 0.000 9.2 8 1
02/02/06 11:58 p -5.8 -5.6 -5.9 --- --- 7.8 NNW 0.13 8.7 -11.4 --- --- 732.0 0.017 0.000 9.2 7 1
02/02/06 11:59 p -5.6 -5.6 -5.6 --- --- 7.8 NNW 0.13 8.7 -11.2 --- --- 731.9 0.017 0.000 9.2 8 1
02/03/06 12:00 a -5.8 -5.7 -5.9 --- --- 7.0 NNW 0.12 7.8 -11.1 --- --- 731.9 0.017 0.000 9.2 8 1
02/03/06 12:01 a -5.9 -5.9 -6.0 --- --- 7.0 NNW 0.12 8.7 -11.2 --- --- 732.0 0.017 0.000 9.2 7 1
02/03/06 12:02 a -6.1 -5.9 -6.1 --- --- 7.8 NNW 0.13 9.6 -11.7 --- --- 731.9 0.017 0.000 9.2 8 1
02/03/06 12:03 a -6.1 -6.1 -6.2 --- --- 7.8 NNW 0.13 8.7 -11.8 --- --- 731.9 0.017 0.000 9.2 7 1
02/03/06 12:04 a -6.4 -6.3 -6.4 --- --- 7.0 NNW 0.12 8.7 -11.8 --- --- 731.9 0.017 0.000 9.2 8 1
02/03/06 12:05 a -6.4 -6.3 -6.4 --- --- 7.0 NNW 0.12 8.7 -11.8 --- --- 731.9 0.017 0.000 9.2 7 1
02/03/06 12:06 a -6.3 -6.2 -6.4 --- --- 6.1 N 0.10 7.0 -11.2 --- --- 731.9 0.017 0.000 9.2 7 1
02/03/06 12:07 a -6.4 -6.4 -6.5 --- --- 7.0 N 0.12 7.8 -11.8 --- --- 731.9 0.017 0.000 9.2 8 1
02/03/06 12:08 a -6.3 -6.3 -6.4 --- --- 6.1 N 0.10 7.8 -11.2 --- --- 731.9 0.017 0.000 9.2 7 1
02/03/06 12:09 a -6.2 -6.0 -6.2 --- --- 7.0 N 0.12 9.6 -11.5 --- --- 731.9 0.017 0.000 9.2 7 1
02/03/06 12:10 a -6.1 -6.0 -6.1 --- --- 6.1 NNW 0.10 7.8 -10.9 --- --- 731.9 0.017 0.000 9.2 7 1
02/03/06 12:11 a -6.1 -6.1 -6.1 --- --- 6.1 N 0.10 7.0 -11.0 --- --- 731.9 0.017 0.000 9.2 7 1
02/03/06 12:12 a -6.1 -6.1 -6.1 --- --- 6.1 N 0.10 8.7 -10.9 --- --- 732.0 0.017 0.000 9.2 7 1
02/03/06 12:13 a -6.1 -6.1 -6.2 --- --- 7.8 NNW 0.13 8.7 -11.8 --- --- 732.0 0.017 0.000 9.2 7 1
02/03/06 12:14 a -6.1 -6.1 -6.1 --- --- 7.8 NNW 0.13 8.7 -11.8 --- --- 731.9 0.017 0.000 9.2 8 1
02/03/06 12:15 a -6.0 -6.0 -6.1 --- --- 7.8 NNW 0.13 8.7 -11.7 --- --- 731.9 0.017 0.000 9.2 7 1
02/03/06 12:16 a -5.9 -5.9 -5.9 --- --- 7.0 NNW 0.12 8.7 -11.2 --- --- 731.9 0.017 0.000 9.2 8 1
02/03/06 12:17 a -5.9 -5.8 -6.0 --- --- 7.0 NNW 0.12 7.8 -11.2 --- --- 731.9 0.017 0.000 9.2 8 1
02/03/06 12:18 a -5.9 -5.8 -5.9 --- --- 7.0 NNW 0.12 8.7 -11.2 --- --- 731.9 0.017 0.000 9.2 7 1
02/03/06 12:19 a -5.8 -5.7 -5.9 --- --- 7.8 NNW 0.13 8.7 -11.4 --- --- 731.9 0.017 0.000 9.2 7 1
02/03/06 12:20 a -5.7 -5.7 -5.7 --- --- 7.0 NNW 0.12 7.8 -10.9 --- --- 731.9 0.017 0.000 9.2 7 1
02/03/06 12:21 a -5.8 -5.7 -5.8 --- --- 7.0 NNW 0.12 8.7 -11.0 --- --- 731.9 0.017 0.000 9.2 7 1
02/03/06 12:22 a -5.8 -5.8 -5.8 --- --- 7.0 N 0.12 7.8 -11.0 --- --- 731.9 0.017 0.000 9.2 7 1
02/03/06 12:23 a -5.7 -5.7 -5.7 --- --- 6.1 NNW 0.10 7.8 -10.4 --- --- 731.7 0.017 0.000 9.2 7 1
02/03/06 12:24 a -5.7 -5.7 -5.7 --- --- 5.2 N 0.09 7.0 -9.9 --- --- 731.8 0.017 0.000 9.2 7 1
02/03/06 12:25 a -5.7 -5.7 -5.8 --- --- 7.0 NNW 0.12 8.7 -10.9 --- --- 731.8 0.017 0.000 9.1 7 1
02/03/06 12:26 a -5.7 -5.6 -5.7 --- --- 7.0 NNW 0.12 8.7 -10.9 --- --- 731.8 0.017 0.000 9.1 7 1
02/03/06 12:27 a -5.7 -5.6 -5.7 --- --- 6.1 NNW 0.10 7.8 -10.4 --- --- 731.9 0.017 0.000 9.1 7 1
02/03/06 12:28 a -5.8 -5.7 -5.8 --- --- 6.1 NNW 0.10 7.0 -10.6 --- --- 731.9 0.017 0.000 9.1 7 1
02/03/06 12:29 a -5.8 -5.8 -5.9 --- --- 6.1 N 0.10 7.8 -10.7 --- --- 731.9 0.017 0.000 9.1 7 1
02/03/06 12:30 a -5.8 -5.8 -5.8 --- --- 6.1 NNW 0.10 8.7 -10.6 --- --- 731.9 0.017 0.000 9.2 7 1
02/03/06 12:31 a -5.6 -5.3 -5.8 --- --- 7.8 NNW 0.13 8.7 -11.2 --- --- 732.0 0.017 0.000 9.2 7 1
02/03/06 12:32 a -5.2 -5.1 -5.3 --- --- 7.0 NNW 0.12 7.8 -10.3 --- --- 731.9 0.016 0.000 9.2 7 1
02/03/06 12:33 a -5.2 -5.1 -5.3 --- --- 7.8 NNW 0.13 9.6 -10.7 --- --- 731.9 0.016 0.000 9.2 7 1
02/03/06 12:34 a -5.3 -5.2 -5.4 --- --- 7.8 NNW 0.13 8.7 -10.8 --- --- 731.9 0.016 0.000 9.2 7 1
02/03/06 12:35 a -5.4 -5.3 -5.6 --- --- 7.8 NNW 0.13 9.6 -11.0 --- --- 731.8 0.017 0.000 9.2 7 1
02/03/06 12:36 a -5.3 -5.2 -5.3 --- --- 8.7 NNW 0.14 10.4 -11.1 --- --- 731.8 0.016 0.000 9.2 7 1
02/03/06 12:37 a -5.2 -5.1 -5.3 --- --- 7.8 NNW 0.13 10.4 -10.7 --- --- 731.9 0.016 0.000 9.2 7 1
02/03/06 12:38 a -5.2 -5.2 -5.3 --- --- 8.7 NNW 0.14 9.6 -11.1 --- --- 731.9 0.016 0.000 9.2 7 1
02/03/06 12:39 a -5.0 -4.9 -5.1 --- --- 7.8 NNW 0.13 9.6 -10.4 --- --- 731.9 0.016 0.000 9.2 7 1
02/03/06 12:40 a -4.9 -4.9 -5.1 --- --- 7.8 NNW 0.13 9.6 -10.4 --- --- 731.9 0.016 0.000 9.2 7 1
02/03/06 12:41 a -4.9 -4.9 -5.1 --- --- 7.8 NNW 0.13 8.7 -10.4 --- --- 731.8 0.016 0.000 9.2 7 1
02/03/06 12:42 a -4.9 -4.7 -5.1 --- --- 7.8 NNW 0.13 8.7 -10.3 --- --- 731.8 0.016 0.000 9.2 7 1
02/03/06 12:43 a -4.8 -4.7 -4.8 --- --- 7.8 NNW 0.13 9.6 -10.2 --- --- 731.8 0.016 0.000 9.2 7 1
02/03/06 12:44 a -4.7 -4.6 -4.9 --- --- 8.7 NNW 0.14 11.3 -10.4 --- --- 731.8 0.016 0.000 9.2 8 1
02/03/06 12:45 a -5.1 -5.0 -5.3 --- --- 7.8 NNW 0.13 8.7 -10.6 --- --- 731.9 0.016 0.000 9.2 7 1
02/03/06 12:46 a -5.2 -5.1 -5.3 --- --- 8.7 NNW 0.14 10.4 -11.1 --- --- 731.9 0.016 0.000 9.2 7 1
02/03/06 12:47 a -4.8 -4.7 -4.9 --- --- 8.7 NNW 0.14 9.6 -10.6 --- --- 731.9 0.016 0.000 9.2 8 1
02/03/06 12:48 a -4.8 -4.7 -4.9 --- --- 7.0 NNW 0.12 8.7 -9.8 --- --- 731.9 0.016 0.000 9.2 7 1
02/03/06 12:49 a -4.8 -4.8 -4.9 --- --- 7.0 NNW 0.12 7.8 -9.8 --- --- 731.9 0.016 0.000 9.2 8 1
02/03/06 12:50 a -4.4 -4.3 -4.7 --- --- 8.7 NNW 0.14 9.6 -10.1 --- --- 731.9 0.016 0.000 9.2 8 1
02/03/06 12:51 a -4.6 -4.4 -4.9 --- --- 8.7 NNW 0.14 10.4 -10.3 --- --- 731.9 0.016 0.000 9.2 7 1
02/03/06 12:52 a -5.1 -5.1 -5.2 --- --- 7.8 NNW 0.13 9.6 -10.6 --- --- 731.9 0.016 0.000 9.2 7 1
02/03/06 12:53 a -4.9 -4.8 -4.9 --- --- 8.7 NW 0.14 9.6 -10.7 --- --- 731.9 0.016 0.000 9.2 8 1
02/03/06 12:54 a -4.7 -4.6 -4.7 --- --- 9.6 NNW 0.16 11.3 -10.7 --- --- 731.9 0.016 0.000 9.2 7 1
02/03/06 12:55 a -4.6 -4.5 -4.6 --- --- 8.7 NNW 0.14 11.3 -10.2 --- --- 731.9 0.016 0.000 9.2 8 1
02/03/06 12:56 a -4.5 -4.4 -4.6 --- --- 7.8 NNW 0.13 9.6 -9.8 --- --- 731.9 0.016 0.000 9.2 8 1
02/03/06 12:57 a -4.3 -4.3 -4.4 --- --- 7.8 NNW 0.13 10.4 -9.6 --- --- 731.9 0.016 0.000 9.2 7 1
02/03/06 12:58 a -4.5 -4.3 -4.9 --- --- 9.6 NNW 0.16 10.4 -10.5 --- --- 731.9 0.016 0.000 9.2 7 1
02/03/06 12:59 a -5.0 -4.9 -5.1 --- --- 8.7 NNW 0.14 11.3 -10.8 --- --- 731.9 0.016 0.000 9.2 8 1
02/03/06 1:00 a -4.9 -4.6 -5.0 --- --- 10.4 NNW 0.17 12.2 -11.3 --- --- 731.9 0.016 0.000 9.2 8 1
02/03/06 1:02 a -4.8 -4.7 -5.0 --- --- 8.7 NNW 0.14 10.4 -10.6 --- --- 731.8 0.016 0.000 9.2 8 1
02/03/06 1:03 a -4.8 -4.8 -4.9 --- --- 8.7 NNW 0.14 10.4 -10.6 --- --- 731.8 0.016 0.000 9.2 8 1
02/03/06 1:04 a -4.8 -4.7 -4.9 --- --- 8.7 NNW 0.14 10.4 -10.5 --- --- 731.9 0.016 0.000 9.2 8 1
02/03/06 1:05 a -4.8 -4.6 -5.0 --- --- 7.8 NNW 0.13 9.6 -10.2 --- --- 731.9 0.016 0.000 9.2 8 1
02/03/06 1:06 a -4.7 -4.4 -4.9 --- --- 8.7 NNW 0.14 10.4 -10.4 --- --- 731.7 0.016 0.000 9.2 8 1
02/03/06 1:07 a -4.9 -4.8 -4.9 --- --- 10.4 NNW 0.17 12.2 -11.3 --- --- 731.8 0.016 0.000 9.2 8 1
02/03/06 1:08 a -4.8 -4.7 -4.9 --- --- 8.7 NNW 0.14 10.4 -10.5 --- --- 731.8 0.016 0.000 9.2 8 1
02/03/06 1:09 a -5.1 -5.0 -5.2 --- --- 9.6 NNW 0.16 10.4 -11.2 --- --- 731.8 0.016 0.000 9.2 8 1
02/03/06 1:10 a -5.3 -5.2 -5.4 --- --- 7.0 NNW 0.12 9.6 -10.4 --- --- 731.8 0.016 0.000 9.2 8 1
02/03/06 1:11 a -5.5 -5.4 -5.6 --- --- 8.7 NNW 0.14 9.6 -11.4 --- --- 731.8 0.017 0.000 9.2 8 1
02/03/06 1:12 a -5.4 -5.3 -5.5 --- --- 9.6 NNW 0.16 10.4 -11.6 --- --- 731.8 0.016 0.000 9.2 8 1
02/03/06 1:13 a -5.2 -5.1 -5.3 --- --- 9.6 NNW 0.16 11.3 -11.3 --- --- 731.8 0.016 0.000 9.2 8 1
02/03/06 1:14 a -4.9 -4.7 -5.0 --- --- 9.6 NNW 0.16 11.3 -11.0 --- --- 731.7 0.016 0.000 9.2 8 1
02/03/06 1:15 a -4.6 -4.5 -4.7 --- --- 10.4 NNW 0.17 11.3 -10.9 --- --- 731.8 0.016 0.000 9.2 8 1
02/03/06 1:16 a -4.6 -4.6 -4.7 --- --- 8.7 NNW 0.14 9.6 -10.3 --- --- 731.7 0.016 0.000 9.2 8 1
02/03/06 1:17 a -4.8 -4.7 -4.9 --- --- 7.0 NNW 0.12 7.8 -9.8 --- --- 731.7 0.016 0.000 9.2 8 1
02/03/06 1:18 a -4.9 -4.8 -4.9 --- --- 7.8 NNW 0.13 9.6 -10.3 --- --- 731.8 0.016 0.000 9.2 8 1
02/03/06 1:19 a -4.8 -4.7 -4.9 --- --- 7.8 NNW 0.13 9.6 -10.2 --- --- 731.7 0.016 0.000 9.2 8 1
02/03/06 1:20 a -4.7 -4.7 -4.8 --- --- 8.7 NNW 0.14 10.4 -10.4 --- --- 731.8 0.016 0.000 9.3 8 1
02/03/06 1:21 a -4.8 -4.8 -4.9 --- --- 9.6 NNW 0.16 11.3 -10.9 --- --- 731.8 0.016 0.000 9.3 8 1
02/03/06 1:22 a -4.8 -4.8 -4.9 --- --- 8.7 NNW 0.14 10.4 -10.6 --- --- 731.7 0.016 0.000 9.3 8 1
02/03/06 1:23 a -5.3 -5.0 -5.7 --- --- 7.0 NNW 0.12 8.7 -10.4 --- --- 731.8 0.016 0.000 9.3 8 1
02/03/06 1:24 a -5.8 -5.7 -5.8 --- --- 7.8 NNW 0.13 9.6 -11.4 --- --- 731.9 0.017 0.000 9.3 8 1
02/03/06 1:25 a -5.9 -5.8 -6.1 --- --- 7.0 NNW 0.12 9.6 -11.2 --- --- 731.9 0.017 0.000 9.3 8 1
02/03/06 1:26 a -5.9 -5.8 -6.0 --- --- 7.0 NNW 0.12 9.6 -11.2 --- --- 731.9 0.017 0.000 9.3 8 1
02/03/06 1:27 a -5.6 -5.2 -5.7 --- --- 9.6 NNW 0.16 12.2 -11.8 --- --- 731.8 0.017 0.000 9.3 8 1
02/03/06 1:28 a -5.1 -5.0 -5.2 --- --- 9.6 NNW 0.16 11.3 -11.3 --- --- 731.8 0.016 0.000 9.3 8 1
02/03/06 1:29 a -4.9 -4.8 -5.0 --- --- 9.6 NNW 0.16 11.3 -11.0 --- --- 731.9 0.016 0.000 9.3 8 1
02/03/06 1:30 a -5.0 -4.8 -5.1 --- --- 8.7 NNW 0.14 10.4 -10.8 --- --- 731.8 0.016 0.000 9.3 8 1
02/03/06 1:31 a -5.1 -4.9 -5.2 --- --- 8.7 NNW 0.14 11.3 -10.9 --- --- 731.8 0.016 0.000 9.3 8 1
02/03/06 1:32 a -5.0 -4.9 -5.1 --- --- 9.6 NNW 0.16 10.4 -11.1 --- --- 731.7 0.016 0.000 9.3 8 1
02/03/06 1:33 a -4.8 -4.6 -5.0 --- --- 8.7 NNW 0.14 11.3 -10.5 --- --- 731.7 0.016 0.000 9.3 8 1
02/03/06 1:34 a -4.7 -4.7 -4.8 --- --- 10.4 NNW 0.17 12.2 -11.1 --- --- 731.8 0.016 0.000 9.3 8 1
02/03/06 1:35 a -4.7 -4.7 -4.9 --- --- 7.8 NNW 0.13 10.4 -10.1 --- --- 731.8 0.016 0.000 9.3 8 1
02/03/06 1:36 a -4.9 -4.9 -5.0 --- --- 10.4 NNW 0.17 11.3 -11.3 --- --- 731.7 0.016 0.000 9.3 8 1
02/03/06 1:37 a -5.0 -4.9 -5.1 --- --- 8.7 NNW 0.14 10.4 -10.8 --- --- 731.8 0.016 0.000 9.3 8 1
02/03/06 1:38 a -5.1 -5.0 -5.1 --- --- 7.8 NNW 0.13 8.7 -10.5 --- --- 731.8 0.016 0.000 9.3 8 1
02/03/06 1:39 a -4.9 -4.9 -5.0 --- --- 7.0 NNW 0.12 9.6 -10.0 --- --- 731.9 0.016 0.000 9.3 8 1
02/03/06 1:40 a -4.9 -4.8 -4.9 --- --- 7.8 NNW 0.13 10.4 -10.3 --- --- 731.8 0.016 0.000 9.3 8 1
02/03/06 1:41 a -5.0 -4.8 -5.2 --- --- 8.7 NNW 0.14 10.4 -10.8 --- --- 731.8 0.016 0.000 9.3 8 1
02/03/06 1:42 a -5.2 -5.2 -5.3 --- --- 7.8 NNW 0.13 8.7 -10.7 --- --- 731.7 0.016 0.000 9.3 8 1
02/03/06 1:43 a -5.4 -5.3 -5.4 --- --- 8.7 NNW 0.14 10.4 -11.3 --- --- 731.7 0.016 0.000 9.3 8 1
02/03/06 1:44 a -5.3 -5.2 -5.4 --- --- 7.8 NNW 0.13 9.6 -10.8 --- --- 731.7 0.016 0.000 9.3 8 1
02/03/06 1:45 a -5.2 -5.2 -5.2 --- --- 7.8 NNW 0.13 9.6 -10.7 --- --- 731.7 0.016 0.000 9.3 8 1
02/03/06 1:46 a -5.2 -5.1 -5.2 --- --- 7.0 NNW 0.12 8.7 -10.3 --- --- 731.7 0.016 0.000 9.3 8 1
02/03/06 1:47 a -4.9 -4.8 -5.2 --- --- 7.0 NNW 0.12 8.7 -10.0 --- --- 731.7 0.016 0.000 9.4 8 1
02/03/06 1:48 a -4.9 -4.8 -5.1 --- --- 6.1 NNW 0.10 8.7 -9.5 --- --- 731.7 0.016 0.000 9.4 8 1
02/03/06 1:49 a -5.1 -5.1 -5.1 --- --- 7.0 NNW 0.12 8.7 -10.1 --- --- 731.8 0.016 0.000 9.4 8 1
02/03/06 1:50 a -5.1 -4.9 -5.1 --- --- 7.8 NNW 0.13 9.6 -10.5 --- --- 731.7 0.016 0.000 9.3 8 1
02/03/06 1:51 a -5.1 -4.9 -5.2 --- --- 6.1 NNW 0.10 7.8 -9.7 --- --- 731.7 0.016 0.000 9.3 8 1
02/03/06 1:52 a -5.3 -5.3 -5.3 --- --- 6.1 NNW 0.10 7.0 -10.0 --- --- 731.7 0.016 0.000 9.3 8 1
02/03/06 1:53 a -5.1 -4.8 -5.2 --- --- 5.2 NNW 0.09 6.1 -9.2 --- --- 731.7 0.016 0.000 9.3 8 1
02/03/06 1:54 a -4.4 -4.1 -4.7 --- --- 6.1 NNW 0.10 7.0 -8.9 --- --- 731.7 0.016 0.000 9.3 8 1
02/03/06 1:55 a -4.0 -3.9 -4.1 --- --- 6.1 NNW 0.10 7.0 -8.4 --- --- 731.6 0.016 0.000 9.3 8 1
02/03/06 1:56 a -4.0 -4.0 -4.1 --- --- 6.1 NNW 0.10 7.0 -8.4 --- --- 731.7 0.016 0.000 9.4 8 1
02/03/06 1:57 a -4.4 -4.2 -4.8 --- --- 5.2 NNW 0.09 6.1 -8.5 --- --- 731.7 0.016 0.000 9.4 8 1
02/03/06 1:58 a -4.8 -4.7 -4.8 --- --- 6.1 NNW 0.10 7.8 -9.4 --- --- 731.6 0.016 0.000 9.4 8 1
02/03/06 1:59 a -4.9 -4.8 -5.1 --- --- 6.1 NNW 0.10 7.8 -9.6 --- --- 731.6 0.016 0.000 9.4 8 1
02/03/06 2:00 a -4.8 -4.5 -5.0 --- --- 6.1 NNW 0.10 7.8 -9.4 --- --- 731.6 0.016 0.000 9.4 8 1
02/03/06 2:02 a -4.7 -4.6 -4.9 --- --- 6.1 NNW 0.10 7.8 -9.3 --- --- 731.7 0.016 0.000 9.4 8 1
02/03/06 2:03 a -4.7 -4.6 -5.0 --- --- 6.1 NNW 0.10 7.8 -9.3 --- --- 731.7 0.016 0.000 9.4 8 1
02/03/06 2:04 a -5.3 -5.1 -5.4 --- --- 4.3 N 0.07 6.1 -8.9 --- --- 731.6 0.016 0.000 9.4 8 1
02/03/06 2:05 a -5.2 -5.0 -5.3 --- --- 7.0 NNW 0.12 8.7 -10.3 --- --- 731.6 0.016 0.000 9.4 8 1
02/03/06 2:06 a -4.7 -4.6 -4.9 --- --- 6.1 NNW 0.10 7.8 -9.3 --- --- 731.6 0.016 0.000 9.4 8 1
02/03/06 2:07 a -4.9 -4.8 -5.1 --- --- 4.3 N 0.07 6.1 -8.6 --- --- 731.5 0.016 0.000 9.4 8 1
02/03/06 2:08 a -5.1 -4.9 -5.2 --- --- 5.2 NNW 0.09 7.0 -9.2 --- --- 731.7 0.016 0.000 9.4 8 1
02/03/06 2:09 a -4.8 -4.8 -4.9 --- --- 4.3 NNW 0.07 6.1 -8.4 --- --- 731.7 0.016 0.000 9.4 8 1
02/03/06 2:10 a -5.0 -4.8 -5.1 --- --- 5.2 NNW 0.09 7.0 -9.2 --- --- 731.6 0.016 0.000 9.4 8 1
02/03/06 2:11 a -4.7 -4.6 -4.8 --- --- 6.1 NNW 0.10 7.8 -9.2 --- --- 731.6 0.016 0.000 9.4 8 1
02/03/06 2:12 a -4.9 -4.9 -5.0 --- --- 5.2 NNW 0.09 7.0 -9.1 --- --- 731.7 0.016 0.000 9.4 8 1
02/03/06 2:13 a -4.9 -4.8 -5.1 --- --- 4.3 NNW 0.07 5.2 -8.6 --- --- 731.6 0.016 0.000 9.4 8 1
02/03/06 2:14 a -4.9 -4.8 -4.9 --- --- 7.0 NNW 0.12 8.7 -9.9 --- --- 731.6 0.016 0.000 9.4 8 1
02/03/06 2:15 a -5.0 -4.9 -5.1 --- --- 7.0 NNW 0.12 7.8 -10.1 --- --- 731.6 0.016 0.000 9.4 8 1
02/03/06 2:16 a -5.1 -4.9 -5.3 --- --- 6.1 NNW 0.10 7.8 -9.8 --- --- 731.6 0.016 0.000 9.4 8 1
02/03/06 2:17 a -5.2 -5.1 -5.4 --- --- 5.2 N 0.09 7.0 -9.4 --- --- 731.7 0.016 0.000 9.4 8 1
02/03/06 2:18 a -5.2 -5.0 -5.3 --- --- 5.2 NNW 0.09 7.0 -9.3 --- --- 731.5 0.016 0.000 9.4 8 1
02/03/06 2:19 a -5.1 -4.9 -5.2 --- --- 5.2 N 0.09 7.0 -9.2 --- --- 731.6 0.016 0.000 9.4 8 1
02/03/06 2:20 a -5.2 -5.1 -5.3 --- --- 5.2 NNW 0.09 7.0 -9.4 --- --- 731.5 0.016 0.000 9.4 8 1
02/03/06 2:21 a -5.1 -5.0 -5.1 --- --- 5.2 NNW 0.09 7.0 -9.2 --- --- 731.5 0.016 0.000 9.4 8 1
02/03/06 2:22 a -5.0 -4.9 -5.1 --- --- 7.0 NNW 0.12 9.6 -10.1 --- --- 731.5 0.016 0.000 9.4 8 1
02/03/06 2:23 a -4.8 -4.7 -4.9 --- --- 7.8 NNW 0.13 9.6 -10.2 --- --- 731.6 0.016 0.000 9.4 8 1
02/03/06 2:24 a -4.8 -4.7 -4.9 --- --- 7.0 NNW 0.12 8.7 -9.8 --- --- 731.6 0.016 0.000 9.5 8 1
02/03/06 2:25 a -5.1 -5.1 -5.2 --- --- 7.0 NNW 0.12 7.8 -10.2 --- --- 731.5 0.016 0.000 9.5 8 1
02/03/06 2:26 a -4.8 -4.6 -4.9 --- --- 5.2 NNW 0.09 7.0 -8.9 --- --- 731.5 0.016 0.000 9.5 8 1
02/03/06 2:27 a -4.5 -4.4 -4.6 --- --- 5.2 NNW 0.09 7.0 -8.6 --- --- 731.6 0.016 0.000 9.5 8 1
02/03/06 2:28 a -4.6 -4.5 -4.7 --- --- 7.0 NNW 0.12 8.7 -9.6 --- --- 731.5 0.016 0.000 9.5 8 1
02/03/06 2:29 a -4.6 -4.4 -4.7 --- --- 7.8 NNW 0.13 9.6 -9.9 --- --- 731.6 0.016 0.000 9.5 8 1
02/03/06 2:30 a -4.4 -4.4 -4.5 --- --- 7.0 NNW 0.12 7.8 -9.4 --- --- 731.5 0.016 0.000 9.5 8 1
02/03/06 2:31 a -4.3 -4.2 -4.4 --- --- 6.1 NNW 0.10 7.8 -8.8 --- --- 731.5 0.016 0.000 9.5 8 1
02/03/06 2:32 a -4.2 -4.1 -4.4 --- --- 6.1 NNW 0.10 7.8 -8.7 --- --- 731.5 0.016 0.000 9.5 8 1
02/03/06 2:33 a -4.6 -4.6 -4.9 --- --- 7.0 NNW 0.12 7.8 -9.6 --- --- 731.5 0.016 0.000 9.5 8 1
02/03/06 2:34 a -4.5 -4.2 -4.8 --- --- 5.2 NNW 0.09 7.0 -8.6 --- --- 731.6 0.016 0.000 9.5 8 1
02/03/06 2:35 a -4.3 -4.2 -4.3 --- --- 5.2 NNW 0.09 7.8 -8.3 --- --- 731.6 0.016 0.000 9.5 8 1
02/03/06 2:36 a -4.3 -4.3 -4.3 --- --- 6.1 NNW 0.10 7.8 -8.8 --- --- 731.5 0.016 0.000 9.5 8 1
02/03/06 2:37 a -4.3 -4.3 -4.4 --- --- 3.5 N 0.06 4.3 -7.2 --- --- 731.5 0.016 0.000 9.5 8 1
02/03/06 2:38 a -4.6 -4.5 -4.7 --- --- 4.3 NNW 0.07 7.0 -8.2 --- --- 731.5 0.016 0.000 9.5 8 1
02/03/06 2:39 a -4.4 -4.2 -4.6 --- --- 7.0 NNW 0.12 7.8 -9.3 --- --- 731.5 0.016 0.000 9.5 8 1
02/03/06 2:40 a -4.0 -3.9 -4.1 --- --- 6.1 NNW 0.10 7.0 -8.4 --- --- 731.6 0.016 0.000 9.5 8 1
02/03/06 2:41 a -3.7 -3.6 -3.8 --- --- 7.0 NNW 0.12 7.8 -8.4 --- --- 731.7 0.015 0.000 9.5 8 1
02/03/06 2:42 a -4.0 -3.8 -4.2 --- --- 6.1 NNW 0.10 7.8 -8.4 --- --- 731.6 0.016 0.000 9.6 8 1
02/03/06 2:43 a -3.9 -3.6 -4.3 --- --- 6.1 NNW 0.10 7.0 -8.4 --- --- 731.6 0.015 0.000 9.6 8 1
02/03/06 2:44 a -3.6 -3.5 -3.6 --- --- 5.2 NNW 0.09 7.0 -7.4 --- --- 731.6 0.015 0.000 9.6 8 1
02/03/06 2:45 a -3.6 -3.4 -3.8 --- --- 7.0 NNW 0.12 9.6 -8.4 --- --- 731.6 0.015 0.000 9.6 8 1
02/03/06 2:46 a -4.0 -3.8 -4.2 --- --- 7.8 NNW 0.13 9.6 -9.2 --- --- 731.6 0.016 0.000 9.6 8 1
02/03/06 2:47 a -4.5 -4.4 -4.6 --- --- 7.8 NNW 0.13 9.6 -9.8 --- --- 731.6 0.016 0.000 9.6 8 1
02/03/06 2:48 a -4.3 -4.3 -4.4 --- --- 7.8 NNW 0.13 10.4 -9.6 --- --- 731.6 0.016 0.000 9.6 8 1
02/03/06 2:49 a -4.7 -4.5 -4.8 --- --- 7.0 NNW 0.12 8.7 -9.7 --- --- 731.6 0.016 0.000 9.6 8 1
02/03/06 2:50 a -4.6 -4.5 -4.6 --- --- 7.0 NNW 0.12 8.7 -9.6 --- --- 731.5 0.016 0.000 9.6 8 1
02/03/06 2:51 a -4.7 -4.5 -4.8 --- --- 7.0 N 0.12 8.7 -9.7 --- --- 731.5 0.016 0.000 9.6 8 1
02/03/06 2:52 a -4.8 -4.7 -4.9 --- --- 6.1 NNW 0.10 7.8 -9.4 --- --- 731.6 0.016 0.000 9.6 8 1
02/03/06 2:53 a -4.5 -4.4 -4.6 --- --- 6.1 NNW 0.10 7.8 -9.1 --- --- 731.6 0.016 0.000 9.6 8 1
02/03/06 2:54 a -4.6 -4.5 -4.6 --- --- 7.0 NNW 0.12 8.7 -9.5 --- --- 731.5 0.016 0.000 9.6 8 1
02/03/06 2:55 a -4.6 -4.4 -4.7 --- --- 6.1 NNW 0.10 8.7 -9.1 --- --- 731.6 0.016 0.000 9.6 8 1
02/03/06 2:56 a -4.7 -4.7 -4.8 --- --- 7.0 NNW 0.12 8.7 -9.7 --- --- 731.6 0.016 0.000 9.6 8 1
02/03/06 2:57 a -4.9 -4.8 -4.9 --- --- 7.0 NNW 0.12 8.7 -9.9 --- --- 731.5 0.016 0.000 9.6 8 1
02/03/06 2:58 a -4.8 -4.7 -4.9 --- --- 7.8 NNW 0.13 9.6 -10.2 --- --- 731.6 0.016 0.000 9.6 8 1
02/03/06 2:59 a -4.8 -4.8 -4.9 --- --- 7.0 NNW 0.12 8.7 -9.8 --- --- 731.5 0.016 0.000 9.6 8 1
02/03/06 3:00 a -4.9 -4.8 -4.9 --- --- 7.8 NNW 0.13 10.4 -10.3 --- --- 731.5 0.016 0.000 9.6 8 1
02/03/06 3:01 a -4.8 -4.7 -4.9 --- --- 7.8 NNW 0.13 10.4 -10.2 --- --- 731.5 0.016 0.000 9.6 8 1
02/03/06 3:02 a -4.8 -4.8 -4.9 --- --- 8.7 NNW 0.14 10.4 -10.6 --- --- 731.5 0.016 0.000 9.6 8 1
02/03/06 3:03 a -4.9 -4.8 -5.0 --- --- 7.8 NNW 0.13 9.6 -10.3 --- --- 731.6 0.016 0.000 9.6 8 1
02/03/06 3:04 a -5.1 -5.0 -5.1 --- --- 8.7 NNW 0.14 9.6 -10.9 --- --- 731.5 0.016 0.000 9.6 8 1
02/03/06 3:05 a -4.9 -4.9 -5.0 --- --- 7.8 NNW 0.13 9.6 -10.4 --- --- 731.5 0.016 0.000 9.7 8 1
02/03/06 3:06 a -4.9 -4.9 -4.9 --- --- 7.8 NNW 0.13 10.4 -10.4 --- --- 731.5 0.016 0.000 9.7 8 1
02/03/06 3:07 a -4.7 -4.6 -4.9 --- --- 8.7 NNW 0.14 10.4 -10.4 --- --- 731.6 0.016 0.000 9.7 8 1
02/03/06 3:08 a -4.6 -4.4 -4.7 --- --- 8.7 NNW 0.14 10.4 -10.2 --- --- 731.6 0.016 0.000 9.7 8 1
02/03/06 3:09 a -4.6 -4.4 -4.8 --- --- 7.8 NNW 0.13 9.6 -9.9 --- --- 731.5 0.016 0.000 9.7 8 1
02/03/06 3:10 a -5.0 -4.9 -5.2 --- --- 7.8 NNW 0.13 9.6 -10.4 --- --- 731.6 0.016 0.000 9.7 8 1
02/03/06 3:11 a -5.0 -4.9 -5.1 --- --- 8.7 NNW 0.14 10.4 -10.8 --- --- 731.6 0.016 0.000 9.7 8 1
02/03/06 3:12 a -4.9 -4.9 -5.0 --- --- 7.8 NNW 0.13 10.4 -10.4 --- --- 731.6 0.016 0.000 9.7 8 1
02/03/06 3:13 a -5.0 -4.9 -5.1 --- --- 8.7 NNW 0.14 9.6 -10.8 --- --- 731.7 0.016 0.000 9.7 8 1
02/03/06 3:14 a -5.0 -4.9 -5.1 --- --- 8.7 NNW 0.14 10.4 -10.8 --- --- 731.6 0.016 0.000 9.7 8 1
02/03/06 3:15 a -4.9 -4.9 -5.0 --- --- 8.7 NNW 0.14 9.6 -10.7 --- --- 731.6 0.016 0.000 9.7 8 1
02/03/06 3:16 a -5.1 -5.1 -5.2 --- --- 8.7 NNW 0.14 9.6 -10.9 --- --- 731.6 0.016 0.000 9.7 8 1
02/03/06 3:17 a -5.2 -5.1 -5.2 --- --- 7.8 NNW 0.13 9.6 -10.7 --- --- 731.6 0.016 0.000 9.7 8 1
02/03/06 3:18 a -5.2 -5.1 -5.2 --- --- 7.8 NNW 0.13 9.6 -10.7 --- --- 731.7 0.016 0.000 9.7 8 1
02/03/06 3:19 a -5.1 -5.1 -5.2 --- --- 7.0 NNW 0.12 7.8 -10.2 --- --- 731.6 0.016 0.000 9.8 8 1
02/03/06 3:20 a -5.1 -5.1 -5.2 --- --- 7.0 NNW 0.12 8.7 -10.2 --- --- 731.6 0.016 0.000 9.8 8 1
02/03/06 3:21 a -5.2 -5.1 -5.3 --- --- 7.8 NNW 0.13 9.6 -10.7 --- --- 731.6 0.016 0.000 9.8 8 1
02/03/06 3:22 a -5.1 -4.9 -5.2 --- --- 7.0 NNW 0.12 9.6 -10.2 --- --- 731.6 0.016 0.000 9.8 8 1
02/03/06 3:23 a -4.7 -4.4 -4.9 --- --- 7.8 NNW 0.13 9.6 -10.1 --- --- 731.6 0.016 0.000 9.8 8 1
02/03/06 3:24 a -4.3 -4.2 -4.5 --- --- 7.8 NNW 0.13 9.6 -9.6 --- --- 731.6 0.016 0.000 9.8 8 1
02/03/06 3:25 a -4.8 -4.6 -4.9 --- --- 6.1 NNW 0.10 7.8 -9.4 --- --- 731.6 0.016 0.000 9.8 8 1
02/03/06 3:26 a -5.1 -5.1 -5.1 --- --- 6.1 N 0.10 7.8 -9.7 --- --- 731.6 0.016 0.000 9.8 8 1
02/03/06 3:27 a -5.1 -5.1 -5.1 --- --- 7.0 NNW 0.12 8.7 -10.1 --- --- 731.6 0.016 0.000 9.8 8 1
02/03/06 3:28 a -5.0 -5.0 -5.1 --- --- 7.0 NNW 0.12 8.7 -10.1 --- --- 731.7 0.016 0.000 9.8 8 1
02/03/06 3:29 a -5.0 -4.9 -5.1 --- --- 6.1 NNW 0.10 8.7 -9.6 --- --- 731.6 0.016 0.000 9.8 8 1
02/03/06 3:30 a -5.0 -5.0 -5.0 --- --- 7.0 NNW 0.12 8.7 -10.1 --- --- 731.7 0.016 0.000 9.8 8 1
02/03/06 3:31 a -5.2 -5.1 -5.2 --- --- 7.0 NNW 0.12 8.7 -10.3 --- --- 731.6 0.016 0.000 9.8 8 1
02/03/06 3:32 a -5.3 -5.3 -5.3 --- --- 7.0 NNW 0.12 8.7 -10.4 --- --- 731.7 0.016 0.000 9.8 8 1
02/03/06 3:33 a -5.4 -5.4 -5.4 --- --- 7.0 NNW 0.12 8.7 -10.6 --- --- 731.6 0.016 0.000 9.8 8 1
02/03/06 3:34 a -5.3 -5.2 -5.4 --- --- 7.0 NNW 0.12 8.7 -10.4 --- --- 731.6 0.016 0.000 9.8 8 1
02/03/06 3:35 a -5.1 -5.1 -5.1 --- --- 7.0 NNW 0.12 8.7 -10.2 --- --- 731.6 0.016 0.000 9.8 8 1
02/03/06 3:36 a -5.3 -5.2 -5.4 --- --- 6.1 NNW 0.10 7.8 -10.1 --- --- 731.6 0.016 0.000 9.8 8 1
02/03/06 3:37 a -5.4 -5.4 -5.4 --- --- 6.1 N 0.10 7.8 -10.1 --- --- 731.6 0.016 0.000 9.8 8 1
02/03/06 3:38 a -5.3 -5.3 -5.4 --- --- 6.1 NNW 0.10 7.8 -10.1 --- --- 731.6 0.016 0.000 9.8 8 1
02/03/06 3:39 a -5.3 -5.3 -5.4 --- --- 7.0 NNW 0.12 9.6 -10.4 --- --- 731.7 0.016 0.000 9.8 8 1
02/03/06 3:40 a -5.3 -5.3 -5.4 --- --- 7.0 NNW 0.12 8.7 -10.4 --- --- 731.6 0.016 0.000 9.8 8 1
02/03/06 3:41 a -5.4 -5.4 -5.5 --- --- 6.1 NNW 0.10 7.0 -10.2 --- --- 731.6 0.017 0.000 9.8 8 1
02/03/06 3:42 a -5.5 -5.3 -5.6 --- --- 6.1 NNW 0.10 8.7 -10.2 --- --- 731.6 0.017 0.000 9.8 8 1
02/03/06 3:43 a -5.1 -4.9 -5.3 --- --- 7.8 NNW 0.13 9.6 -10.6 --- --- 731.6 0.016 0.000 9.8 8 1
02/03/06 3:44 a -5.2 -4.9 -5.4 --- --- 7.0 NNW 0.12 8.7 -10.3 --- --- 731.6 0.016 0.000 9.8 8 1
02/03/06 3:45 a -5.4 -5.3 -5.4 --- --- 7.0 NNW 0.12 8.7 -10.6 --- --- 731.7 0.016 0.000 9.8 8 1
02/03/06 3:46 a -5.4 -5.4 -5.4 --- --- 6.1 N 0.10 7.8 -10.1 --- --- 731.6 0.016 0.000 9.8 8 1
02/03/06 3:47 a -5.3 -5.1 -5.3 --- --- 7.0 NNW 0.12 10.4 -10.4 --- --- 731.6 0.016 0.000 9.8 8 1
02/03/06 3:48 a -5.2 -5.1 -5.2 --- --- 7.0 NNW 0.12 7.8 -10.3 --- --- 731.6 0.016 0.000 9.8 8 1
02/03/06 3:49 a -5.4 -5.3 -5.5 --- --- 5.2 N 0.09 7.8 -9.6 --- --- 731.6 0.016 0.000 9.8 8 1
02/03/06 3:50 a -5.3 -5.1 -5.4 --- --- 7.8 NNW 0.13 9.6 -10.8 --- --- 731.6 0.016 0.000 9.8 8 1
02/03/06 3:51 a -4.8 -4.6 -5.0 --- --- 7.8 NNW 0.13 9.6 -10.2 --- --- 731.5 0.016 0.000 9.8 8 1
02/03/06 3:52 a -4.4 -4.4 -4.6 --- --- 7.8 NNW 0.13 9.6 -9.8 --- --- 731.5 0.016 0.000 9.8 8 1
02/03/06 3:53 a -4.8 -4.7 -4.9 --- --- 7.0 NNW 0.12 7.8 -9.8 --- --- 731.5 0.016 0.000 9.8 8 1
02/03/06 3:54 a -5.1 -4.9 -5.2 --- --- 7.0 NNW 0.12 8.7 -10.1 --- --- 731.5 0.016 0.000 9.8 8 1
02/03/06 3:55 a -5.0 -4.7 -5.2 --- --- 7.0 NNW 0.12 9.6 -10.1 --- --- 731.6 0.016 0.000 9.9 8 1
02/03/06 3:56 a -4.9 -4.8 -4.9 --- --- 7.8 NNW 0.13 8.7 -10.3 --- --- 731.6 0.016 0.000 9.9 8 1
02/03/06 3:57 a -4.8 -4.7 -4.9 --- --- 8.7 NNW 0.14 9.6 -10.5 --- --- 731.6 0.016 0.000 9.9 8 1
02/03/06 3:58 a -4.9 -4.8 -5.0 --- --- 7.0 NNW 0.12 8.7 -9.9 --- --- 731.5 0.016 0.000 9.9 8 1
02/03/06 3:59 a -4.9 -4.8 -5.1 --- --- 5.2 NNW 0.09 7.0 -9.1 --- --- 731.5 0.016 0.000 9.9 8 1
02/03/06 4:00 a -4.8 -4.7 -4.9 --- --- 7.0 NNW 0.12 8.7 -9.8 --- --- 731.6 0.016 0.000 9.9 8 1
02/03/06 4:02 a -5.2 -5.0 -5.3 --- --- 6.1 N 0.10 7.8 -9.8 --- --- 731.6 0.016 0.000 9.9 8 1
02/03/06 4:03 a -5.3 -5.2 -5.4 --- --- 7.0 NNW 0.12 8.7 -10.4 --- --- 731.5 0.016 0.000 9.9 8 1
02/03/06 4:04 a -5.0 -4.8 -5.1 --- --- 7.8 NNW 0.13 9.6 -10.4 --- --- 731.5 0.016 0.000 9.9 8 1
02/03/06 4:05 a -4.8 -4.7 -4.8 --- --- 7.0 NNW 0.12 8.7 -9.8 --- --- 731.6 0.016 0.000 9.9 8 1
02/03/06 4:06 a -4.6 -4.5 -4.7 --- --- 7.8 NNW 0.13 10.4 -9.9 --- --- 731.6 0.016 0.000 9.9 8 1
02/03/06 4:07 a -4.7 -4.7 -4.8 --- --- 8.7 NNW 0.14 9.6 -10.4 --- --- 731.5 0.016 0.000 9.9 8 1
02/03/06 4:08 a -4.9 -4.8 -5.0 --- --- 7.8 NNW 0.13 8.7 -10.3 --- --- 731.5 0.016 0.000 9.9 8 1
02/03/06 4:09 a -5.1 -5.0 -5.1 --- --- 6.1 NNW 0.10 7.8 -9.7 --- --- 731.5 0.016 0.000 10.0 8 1
02/03/06 4:10 a -4.8 -4.6 -5.0 --- --- 7.8 NNW 0.13 9.6 -10.2 --- --- 731.6 0.016 0.000 10.0 8 1
02/03/06 4:11 a -4.7 -4.6 -4.7 --- --- 7.0 NNW 0.12 8.7 -9.7 --- --- 731.5 0.016 0.000 10.0 8 1
02/03/06 4:12 a -4.7 -4.6 -4.9 --- --- 7.0 NNW 0.12 7.8 -9.7 --- --- 731.6 0.016 0.000 10.0 8 1
02/03/06 4:13 a -5.1 -5.1 -5.2 --- --- 6.1 N 0.10 7.8 -9.8 --- --- 731.5 0.016 0.000 10.0 8 1
02/03/06 4:14 a -5.1 -5.0 -5.2 --- --- 5.2 NNW 0.09 8.7 -9.2 --- --- 731.5 0.016 0.000 10.0 8 1
02/03/06 4:15 a -5.1 -5.1 -5.2 --- --- 7.0 NNW 0.12 10.4 -10.2 --- --- 731.6 0.016 0.000 10.0 8 1
02/03/06 4:16 a -5.4 -5.2 -5.6 --- --- 6.1 NNW 0.10 7.8 -10.1 --- --- 731.6 0.016 0.000 10.0 8 1
02/03/06 4:17 a -5.6 -5.6 -5.7 --- --- 6.1 NNW 0.10 7.8 -10.4 --- --- 731.6 0.017 0.000 10.0 8 1
02/03/06 4:18 a -5.8 -5.7 -5.9 --- --- 5.2 NNW 0.09 7.0 -10.2 --- --- 731.4 0.017 0.000 10.0 8 1
02/03/06 4:19 a -5.9 -5.9 -5.9 --- --- 6.1 NNW 0.10 7.8 -10.7 --- --- 731.5 0.017 0.000 10.0 8 1
02/03/06 4:20 a -5.8 -5.7 -5.9 --- --- 7.0 NNW 0.12 7.8 -11.0 --- --- 731.5 0.017 0.000 10.0 8 1
02/03/06 4:21 a -5.7 -5.6 -5.7 --- --- 5.2 N 0.09 7.8 -9.9 --- --- 731.5 0.017 0.000 10.0 8 1
02/03/06 4:22 a -5.6 -5.4 -5.7 --- --- 6.1 NNW 0.10 8.7 -10.3 --- --- 731.5 0.017 0.000 10.0 8 1
02/03/06 4:23 a -5.4 -5.4 -5.5 --- --- 7.8 NNW 0.13 8.7 -11.0 --- --- 731.5 0.017 0.000 10.0 8 1
02/03/06 4:24 a -5.6 -5.5 -5.6 --- --- 7.0 NNW 0.12 7.8 -10.7 --- --- 731.4 0.017 0.000 10.0 8 1
02/03/06 4:25 a -5.5 -5.4 -5.6 --- --- 6.1 NNW 0.10 7.0 -10.2 --- --- 731.5 0.017 0.000 10.0 8 1
02/03/06 4:26 a -5.7 -5.7 -5.8 --- --- 5.2 NNW 0.09 7.0 -10.0 --- --- 731.4 0.017 0.000 10.0 8 1
02/03/06 4:27 a -5.8 -5.7 -5.8 --- --- 5.2 NNW 0.09 7.0 -10.1 --- --- 731.5 0.017 0.000 10.0 8 1
02/03/06 4:28 a -5.8 -5.8 -5.9 --- --- 4.3 N 0.07 6.1 -9.6 --- --- 731.5 0.017 0.000 10.0 8 1
02/03/06 4:29 a -5.9 -5.9 -5.9 --- --- 4.3 N 0.07 7.0 -9.7 --- --- 731.4 0.017 0.000 10.0 8 1
02/03/06 4:30 a -5.9 -5.9 -6.0 --- --- 6.1 NNW 0.10 7.0 -10.8 --- --- 731.4 0.017 0.000 10.0 8 1
02/03/06 4:31 a -6.0 -6.0 -6.1 --- --- 5.2 N 0.09 7.0 -10.3 --- --- 731.5 0.017 0.000 10.0 8 1
02/03/06 4:32 a -5.9 -5.8 -5.9 --- --- 5.2 NNW 0.09 6.1 -10.3 --- --- 731.5 0.017 0.000 10.0 8 1
02/03/06 4:33 a -5.8 -5.8 -5.9 --- --- 6.1 NNW 0.10 7.0 -10.7 --- --- 731.5 0.017 0.000 9.9 8 1
02/03/06 4:34 a -5.9 -5.8 -6.0 --- --- 6.1 NNW 0.10 7.8 -10.8 --- --- 731.4 0.017 0.000 9.9 8 1
02/03/06 4:35 a -5.9 -5.8 -5.9 --- --- 6.1 NNW 0.10 7.8 -10.7 --- --- 731.4 0.017 0.000 9.9 8 1
02/03/06 4:36 a -5.8 -5.7 -5.8 --- --- 7.0 NNW 0.12 7.8 -11.0 --- --- 731.4 0.017 0.000 9.9 8 1
02/03/06 4:37 a -5.8 -5.7 -5.9 --- --- 6.1 NNW 0.10 7.8 -10.6 --- --- 731.4 0.017 0.000 9.9 8 1
02/03/06 4:38 a -5.9 -5.9 -6.0 --- --- 5.2 N 0.09 7.0 -10.3 --- --- 731.4 0.017 0.000 9.9 8 1
02/03/06 4:39 a -5.9 -5.8 -6.0 --- --- 6.1 NNW 0.10 7.8 -10.8 --- --- 731.4 0.017 0.000 9.9 8 1
02/03/06 4:40 a -5.8 -5.7 -5.8 --- --- 6.1 NNW 0.10 7.8 -10.6 --- --- 731.4 0.017 0.000 9.9 8 1
02/03/06 4:41 a -5.5 -5.4 -5.6 --- --- 7.0 NNW 0.12 7.8 -10.7 --- --- 731.4 0.017 0.000 9.9 8 1
02/03/06 4:42 a -5.4 -5.3 -5.4 --- --- 5.2 NNW 0.09 7.0 -9.6 --- --- 731.4 0.016 0.000 9.9 8 1
02/03/06 4:43 a -5.4 -5.4 -5.5 --- --- 6.1 NNW 0.10 7.0 -10.2 --- --- 731.4 0.017 0.000 9.9 8 1
02/03/06 4:44 a -5.4 -5.4 -5.4 --- --- 7.0 NNW 0.12 7.8 -10.6 --- --- 731.4 0.017 0.000 9.9 8 1
02/03/06 4:45 a -5.3 -5.2 -5.3 --- --- 7.0 NNW 0.12 7.8 -10.4 --- --- 731.4 0.016 0.000 9.9 8 1
02/03/06 4:46 a -5.2 -5.1 -5.4 --- --- 7.0 NNW 0.12 7.8 -10.3 --- --- 731.4 0.016 0.000 9.9 8 1
02/03/06 4:47 a -5.4 -5.4 -5.6 --- --- 8.7 NNW 0.14 10.4 -11.3 --- --- 731.4 0.017 0.000 9.9 8 1
02/03/06 4:48 a -5.7 -5.6 -5.8 --- --- 6.1 NNW 0.10 7.0 -10.4 --- --- 731.4 0.017 0.000 9.9 8 1
02/03/06 4:49 a -5.8 -5.7 -5.9 --- --- 7.8 NNW 0.13 9.6 -11.4 --- --- 731.5 0.017 0.000 9.9 8 1
02/03/06 4:50 a -5.8 -5.8 -5.9 --- --- 7.8 NNW 0.13 9.6 -11.4 --- --- 731.4 0.017 0.000 9.9 8 1
02/03/06 4:51 a -5.7 -5.6 -5.8 --- --- 8.7 NNW 0.14 9.6 -11.7 --- --- 731.4 0.017 0.000 9.9 8 1
02/03/06 4:52 a -5.8 -5.8 -5.9 --- --- 9.6 NNW 0.16 10.4 -12.2 --- --- 731.3 0.017 0.000 9.9 8 1
02/03/06 4:53 a -5.7 -5.6 -5.8 --- --- 10.4 NNW 0.17 13.0 -12.3 --- --- 731.4 0.017 0.000 9.9 8 1
02/03/06 4:54 a -5.8 -5.7 -5.8 --- --- 8.7 NNW 0.14 10.4 -11.8 --- --- 731.4 0.017 0.000 9.9 8 1
02/03/06 4:55 a -6.1 -5.8 -6.3 --- --- 7.0 NNW 0.12 8.7 -11.4 --- --- 731.5 0.017 0.000 9.9 8 1
02/03/06 4:56 a -6.3 -6.3 -6.4 --- --- 7.8 NNW 0.13 9.6 -12.1 --- --- 731.3 0.017 0.000 9.9 8 1
02/03/06 4:57 a -6.3 -6.2 -6.3 --- --- 9.6 NNW 0.16 11.3 -12.7 --- --- 731.4 0.017 0.000 9.9 8 1
02/03/06 4:58 a -6.2 -6.1 -6.3 --- --- 10.4 NNW 0.17 12.2 -12.9 --- --- 731.4 0.017 0.000 9.9 8 1
02/03/06 4:59 a -6.1 -6.0 -6.1 --- --- 9.6 NNW 0.16 12.2 -12.4 --- --- 731.4 0.017 0.000 9.9 8 1
02/03/06 5:00 a -6.2 -6.1 -6.2 --- --- 7.8 NNW 0.13 9.6 -11.9 --- --- 731.4 0.017 0.000 9.9 8 1
02/03/06 5:02 a -6.1 -6.0 -6.1 --- --- 10.4 NNW 0.17 12.2 -12.7 --- --- 731.4 0.017 0.000 9.9 8 1
02/03/06 5:03 a -6.1 -6.1 -6.2 --- --- 11.3 NNW 0.19 12.2 -13.1 --- --- 731.5 0.017 0.000 9.9 8 1
02/03/06 5:04 a -6.3 -6.2 -6.3 --- --- 9.6 NNW 0.16 11.3 -12.7 --- --- 731.4 0.017 0.000 9.9 8 1
02/03/06 5:05 a -6.2 -6.2 -6.2 --- --- 10.4 NNW 0.17 13.0 -12.9 --- --- 731.5 0.017 0.000 9.9 8 1
02/03/06 5:06 a -6.2 -6.1 -6.4 --- --- 7.8 NNW 0.13 9.6 -11.9 --- --- 731.4 0.017 0.000 9.9 8 1
02/03/06 5:07 a -6.5 -6.4 -6.5 --- --- 11.3 NNW 0.19 13.0 -13.6 --- --- 731.4 0.017 0.000 9.9 8 1
02/03/06 5:08 a -6.4 -6.4 -6.5 --- --- 9.6 NNW 0.16 11.3 -12.9 --- --- 731.4 0.017 0.000 9.9 8 1
02/03/06 5:09 a -6.4 -6.3 -6.4 --- --- 10.4 NNW 0.17 12.2 -13.2 --- --- 731.4 0.017 0.000 9.9 8 1
02/03/06 5:10 a -6.4 -6.4 -6.5 --- --- 10.4 NNW 0.17 12.2 -13.2 --- --- 731.4 0.017 0.000 9.9 8 1
02/03/06 5:11 a -6.4 -6.4 -6.4 --- --- 11.3 NNW 0.19 12.2 -13.4 --- --- 731.4 0.017 0.000 9.9 8 1
02/03/06 5:12 a -6.4 -6.3 -6.4 --- --- 9.6 NNW 0.16 12.2 -12.8 --- --- 731.4 0.017 0.000 9.8 8 1
02/03/06 5:13 a -6.4 -6.4 -6.5 --- --- 9.6 NNW 0.16 13.0 -12.9 --- --- 731.4 0.017 0.000 9.8 8 1
02/03/06 5:14 a -6.4 -6.4 -6.4 --- --- 11.3 NNW 0.19 12.2 -13.4 --- --- 731.5 0.017 0.000 9.8 8 1
02/03/06 5:15 a -6.4 -6.3 -6.4 --- --- 9.6 NNW 0.16 11.3 -12.8 --- --- 731.4 0.017 0.000 9.8 8 1
02/03/06 5:16 a -6.4 -6.4 -6.4 --- --- 9.6 NNW 0.16 10.4 -12.9 --- --- 731.4 0.017 0.000 9.8 8 1
02/03/06 5:17 a -6.4 -6.3 -6.4 --- --- 10.4 NNW 0.17 13.0 -13.2 --- --- 731.4 0.017 0.000 9.8 8 1
02/03/06 5:18 a -6.3 -6.2 -6.4 --- --- 10.4 NNW 0.17 12.2 -13.1 --- --- 731.5 0.017 0.000 9.8 8 1
02/03/06 5:19 a -6.2 -6.2 -6.2 --- --- 10.4 NNW 0.17 13.0 -12.9 --- --- 731.4 0.017 0.000 9.8 8 1
02/03/06 5:20 a -6.4 -6.3 -6.6 --- --- 12.2 NNW 0.20 14.8 -13.7 --- --- 731.4 0.017 0.000 9.8 8 1
02/03/06 5:21 a -6.7 -6.6 -6.7 --- --- 11.3 NNW 0.19 13.9 -13.8 --- --- 731.5 0.017 0.000 9.8 8 1
02/03/06 5:22 a -6.6 -6.6 -6.6 --- --- 11.3 NNW 0.19 13.9 -13.7 --- --- 731.4 0.017 0.000 9.8 8 1
02/03/06 5:23 a -6.6 -6.6 -6.6 --- --- 11.3 NNW 0.19 13.9 -13.7 --- --- 731.4 0.017 0.000 9.8 8 1
02/03/06 5:24 a -6.6 -6.5 -6.7 --- --- 9.6 NNW 0.16 13.9 -13.1 --- --- 731.4 0.017 0.000 9.8 8 1
02/03/06 5:25 a -6.8 -6.7 -6.8 --- --- 12.2 NNW 0.20 13.9 -14.2 --- --- 731.4 0.017 0.000 9.8 8 1
02/03/06 5:26 a -6.8 -6.8 -6.8 --- --- 9.6 NNW 0.16 10.4 -13.4 --- --- 731.4 0.017 0.000 9.8 8 1
02/03/06 5:27 a -6.8 -6.7 -6.9 --- --- 10.4 NNW 0.17 13.0 -13.7 --- --- 731.3 0.017 0.000 9.8 8 1
02/03/06 5:28 a -6.7 -6.7 -6.7 --- --- 10.4 NNW 0.17 11.3 -13.5 --- --- 731.4 0.017 0.000 9.8 8 1
02/03/06 5:29 a -6.7 -6.7 -6.7 --- --- 9.6 NNW 0.16 11.3 -13.3 --- --- 731.3 0.017 0.000 9.8 8 1
02/03/06 5:30 a -6.6 -6.6 -6.6 --- --- 9.6 NNW 0.16 12.2 -13.1 --- --- 731.4 0.017 0.000 9.8 8 1
02/03/06 5:31 a -6.7 -6.6 -6.8 --- --- 9.6 NNW 0.16 12.2 -13.2 --- --- 731.4 0.017 0.000 9.8 8 1
02/03/06 5:32 a -6.9 -6.8 -7.0 --- --- 10.4 NNW 0.17 13.9 -13.8 --- --- 731.4 0.018 0.000 9.8 8 1
02/03/06 5:33 a -6.9 -6.8 -7.0 --- --- 9.6 NNW 0.16 11.3 -13.4 --- --- 731.3 0.018 0.000 9.8 8 1
02/03/06 5:34 a -6.9 -6.9 -7.1 --- --- 9.6 NNW 0.16 10.4 -13.6 --- --- 731.3 0.018 0.000 9.8 8 1
02/03/06 5:35 a -7.0 -6.9 -7.1 --- --- 11.3 NNW 0.19 13.9 -14.2 --- --- 731.3 0.018 0.000 9.8 8 1
02/03/06 5:36 a -6.9 -6.8 -6.9 --- --- 11.3 NNW 0.19 13.9 -14.1 --- --- 731.4 0.018 0.000 9.8 8 1
02/03/06 5:37 a -6.9 -6.8 -7.0 --- --- 11.3 NNW 0.19 13.0 -14.1 --- --- 731.3 0.018 0.000 9.8 8 1
02/03/06 5:38 a -7.0 -6.9 -7.0 --- --- 11.3 NNW 0.19 13.9 -14.2 --- --- 731.4 0.018 0.000 9.8 8 1
02/03/06 5:39 a -6.8 -6.7 -6.9 --- --- 11.3 NNW 0.19 13.9 -14.0 --- --- 731.3 0.017 0.000 9.8 8 1
02/03/06 5:40 a -6.8 -6.7 -6.9 --- --- 10.4 NNW 0.17 12.2 -13.7 --- --- 731.3 0.017 0.000 9.8 8 1
02/03/06 5:41 a -6.9 -6.9 -6.9 --- --- 9.6 NNW 0.16 11.3 -13.4 --- --- 731.3 0.018 0.000 9.8 8 1
02/03/06 5:42 a -6.8 -6.8 -6.8 --- --- 10.4 NNW 0.17 13.9 -13.7 --- --- 731.4 0.017 0.000 9.8 8 1
02/03/06 5:43 a -6.9 -6.8 -7.0 --- --- 11.3 NNW 0.19 13.9 -14.2 --- --- 731.3 0.018 0.000 9.8 8 1
02/03/06 5:44 a -6.9 -6.9 -7.0 --- --- 10.4 NNW 0.17 13.0 -13.8 --- --- 731.3 0.018 0.000 9.8 8 1
02/03/06 5:45 a -6.9 -6.8 -6.9 --- --- 11.3 NNW 0.19 12.2 -14.1 --- --- 731.4 0.018 0.000 9.8 8 1
02/03/06 5:46 a -6.9 -6.9 -6.9 --- --- 11.3 NNW 0.19 13.0 -14.1 --- --- 731.3 0.018 0.000 9.8 8 1
02/03/06 5:47 a -6.8 -6.8 -6.9 --- --- 11.3 NNW 0.19 13.0 -14.0 --- --- 731.3 0.017 0.000 9.8 8 1
02/03/06 5:48 a -6.8 -6.8 -6.8 --- --- 11.3 NNW 0.19 12.2 -13.9 --- --- 731.4 0.017 0.000 9.8 8 1
02/03/06 5:49 a -6.7 -6.7 -6.8 --- --- 9.6 NNW 0.16 13.0 -13.3 --- --- 731.4 0.017 0.000 9.8 8 1
02/03/06 5:50 a -6.8 -6.8 -6.9 --- --- 13.0 NNW 0.22 14.8 -14.6 --- --- 731.3 0.017 0.000 9.8 8 1
02/03/06 5:51 a -6.9 -6.9 -6.9 --- --- 12.2 NNW 0.20 13.9 -14.3 --- --- 731.3 0.018 0.000 9.8 8 1
02/03/06 5:52 a -6.9 -6.9 -6.9 --- --- 12.2 NNW 0.20 15.7 -14.4 --- --- 731.3 0.018 0.000 9.8 8 1
02/03/06 5:53 a -6.9 -6.8 -6.9 --- --- 11.3 NNW 0.19 13.0 -14.1 --- --- 731.4 0.018 0.000 9.8 8 1
02/03/06 5:54 a -6.9 -6.9 -6.9 --- --- 10.4 NNW 0.17 13.9 -13.8 --- --- 731.3 0.018 0.000 9.8 8 1
02/03/06 5:55 a -6.9 -6.9 -6.9 --- --- 12.2 NNW 0.20 13.9 -14.3 --- --- 731.3 0.018 0.000 9.8 8 1
02/03/06 5:56 a -6.9 -6.8 -6.9 --- --- 12.2 NNW 0.20 13.9 -14.3 --- --- 731.3 0.018 0.000 9.8 8 1
02/03/06 5:57 a -6.8 -6.8 -6.9 --- --- 11.3 NNW 0.19 13.0 -14.0 --- --- 731.3 0.017 0.000 9.8 8 1
02/03/06 5:58 a -6.9 -6.8 -6.9 --- --- 13.0 NNW 0.22 14.8 -14.6 --- --- 731.3 0.018 0.000 9.7 8 1
02/03/06 5:59 a -6.9 -6.8 -6.9 --- --- 11.3 NNW 0.19 13.0 -14.1 --- --- 731.4 0.018 0.000 9.7 8 1
02/03/06 6:00 a -6.9 -6.8 -7.0 --- --- 11.3 NNW 0.19 12.2 -14.1 --- --- 731.3 0.018 0.000 9.7 8 1
02/03/06 6:02 a -6.8 -6.8 -6.8 --- --- 11.3 NNW 0.19 13.0 -13.9 --- --- 731.3 0.017 0.000 9.7 8 1
02/03/06 6:03 a -6.9 -6.8 -6.9 --- --- 11.3 NNW 0.19 13.0 -14.1 --- --- 731.3 0.018 0.000 9.7 8 1
02/03/06 6:04 a -6.9 -6.8 -6.9 --- --- 9.6 NNW 0.16 11.3 -13.4 --- --- 731.3 0.018 0.000 9.7 8 1
02/03/06 6:05 a -6.9 -6.8 -7.0 --- --- 9.6 NNW 0.16 12.2 -13.6 --- --- 731.4 0.018 0.000 9.7 8 1
02/03/06 6:06 a -6.9 -6.8 -6.9 --- --- 11.3 NNW 0.19 12.2 -14.1 --- --- 731.3 0.018 0.000 9.7 8 1
02/03/06 6:07 a -6.9 -6.9 -6.9 --- --- 11.3 NNW 0.19 12.2 -14.1 --- --- 731.3 0.018 0.000 9.7 8 1
02/03/06 6:08 a -7.0 -6.9 -7.1 --- --- 11.3 NNW 0.19 12.2 -14.2 --- --- 731.3 0.018 0.000 9.7 8 1
02/03/06 6:09 a -6.9 -6.8 -7.0 --- --- 10.4 NNW 0.17 12.2 -13.8 --- --- 731.3 0.018 0.000 9.7 8 1
02/03/06 6:10 a -6.8 -6.8 -6.9 --- --- 11.3 NNW 0.19 13.0 -14.0 --- --- 731.2 0.017 0.000 9.7 8 1
02/03/06 6:11 a -6.9 -6.9 -7.0 --- --- 10.4 NNW 0.17 12.2 -13.8 --- --- 731.2 0.018 0.000 9.7 8 1
02/03/06 6:12 a -7.0 -6.9 -7.1 --- --- 11.3 NNW 0.19 12.2 -14.2 --- --- 731.2 0.018 0.000 9.7 8 1
02/03/06 6:13 a -7.0 -7.0 -7.1 --- --- 13.0 NNW 0.22 14.8 -14.7 --- --- 731.3 0.018 0.000 9.7 8 1
02/03/06 6:14 a -7.0 -7.0 -7.0 --- --- 11.3 NNW 0.19 13.9 -14.2 --- --- 731.3 0.018 0.000 9.7 8 1
02/03/06 6:15 a -7.2 -7.0 -7.3 --- --- 11.3 NNW 0.19 12.2 -14.4 --- --- 731.2 0.018 0.000 9.7 8 1
02/03/06 6:16 a -7.3 -7.2 -7.3 --- --- 12.2 NNW 0.20 13.9 -14.8 --- --- 731.2 0.018 0.000 9.7 8 1
02/03/06 6:17 a -7.3 -7.2 -7.3 --- --- 13.0 NNW 0.22 14.8 -15.1 --- --- 731.3 0.018 0.000 9.7 8 1
02/03/06 6:18 a -7.3 -7.2 -7.3 --- --- 13.0 NNW 0.22 14.8 -15.1 --- --- 731.2 0.018 0.000 9.7 8 1
02/03/06 6:19 a -7.3 -7.2 -7.3 --- --- 13.9 NNW 0.23 14.8 -15.3 --- --- 731.3 0.018 0.000 9.7 8 1
02/03/06 6:20 a -7.2 -7.1 -7.2 --- --- 12.2 NNW 0.20 13.9 -14.7 --- --- 731.3 0.018 0.000 9.7 8 1
02/03/06 6:21 a -7.1 -7.1 -7.1 --- --- 12.2 NNW 0.20 13.9 -14.6 --- --- 731.2 0.018 0.000 9.7 8 1
02/03/06 6:22 a -7.2 -7.1 -7.2 --- --- 13.0 NNW 0.22 14.8 -14.9 --- --- 731.3 0.018 0.000 9.7 8 1
02/03/06 6:23 a -7.1 -7.1 -7.2 --- --- 12.2 NNW 0.20 13.9 -14.6 --- --- 731.3 0.018 0.000 9.7 8 1
02/03/06 6:24 a -7.2 -7.1 -7.3 --- --- 13.0 NNW 0.22 14.8 -14.9 --- --- 731.2 0.018 0.000 9.7 8 1
02/03/06 6:25 a -7.2 -7.1 -7.3 --- --- 11.3 NNW 0.19 12.2 -14.4 --- --- 731.2 0.018 0.000 9.7 8 1
02/03/06 6:26 a -7.1 -7.0 -7.1 --- --- 11.3 NNW 0.19 13.9 -14.3 --- --- 731.3 0.018 0.000 9.7 8 1
02/03/06 6:27 a -7.2 -7.1 -7.4 --- --- 11.3 NNW 0.19 13.9 -14.5 --- --- 731.2 0.018 0.000 9.7 8 1
02/03/06 6:28 a -7.4 -7.3 -7.4 --- --- 12.2 NNW 0.20 14.8 -15.0 --- --- 731.1 0.018 0.000 9.7 8 1
02/03/06 6:29 a -7.2 -7.2 -7.3 --- --- 13.9 NNW 0.23 14.8 -15.3 --- --- 731.2 0.018 0.000 9.7 8 1
02/03/06 6:30 a -7.1 -7.1 -7.2 --- --- 13.9 NNW 0.23 16.5 -15.1 --- --- 731.2 0.018 0.000 9.7 8 1
02/03/06 6:31 a -7.1 -7.1 -7.1 --- --- 14.8 NNW 0.25 15.7 -15.3 --- --- 731.2 0.018 0.000 9.7 8 1
02/03/06 6:32 a -7.1 -7.1 -7.2 --- --- 14.8 NNW 0.25 15.7 -15.4 --- --- 731.2 0.018 0.000 9.7 8 1
02/03/06 6:33 a -7.2 -7.1 -7.2 --- --- 13.9 NNW 0.23 14.8 -15.2 --- --- 731.3 0.018 0.000 9.7 8 1
02/03/06 6:34 a -7.2 -7.2 -7.3 --- --- 13.0 NNW 0.22 14.8 -15.1 --- --- 731.2 0.018 0.000 9.6 8 1
02/03/06 6:35 a -7.2 -7.2 -7.3 --- --- 12.2 NNW 0.20 13.0 -14.8 --- --- 731.2 0.018 0.000 9.6 8 1
02/03/06 6:36 a -7.3 -7.3 -7.4 --- --- 13.0 NNW 0.22 13.9 -15.2 --- --- 731.2 0.018 0.000 9.6 8 1
02/03/06 6:37 a -7.2 -7.2 -7.3 --- --- 13.9 NNW 0.23 14.8 -15.3 --- --- 731.2 0.018 0.000 9.6 8 1
02/03/06 6:38 a -7.2 -7.2 -7.2 --- --- 13.0 NNW 0.22 14.8 -14.9 --- --- 731.2 0.018 0.000 9.6 8 1
02/03/06 6:39 a -7.2 -7.2 -7.3 --- --- 13.9 NNW 0.23 15.7 -15.3 --- --- 731.3 0.018 0.000 9.6 8 1
02/03/06 6:40 a -7.3 -7.3 -7.4 --- --- 12.2 NNW 0.20 13.9 -14.9 --- --- 731.2 0.018 0.000 9.6 8 1
02/03/06 6:41 a -7.3 -7.2 -7.3 --- --- 12.2 NNW 0.20 13.9 -14.8 --- --- 731.3 0.018 0.000 9.6 8 1
02/03/06 6:42 a -7.3 -7.3 -7.4 --- --- 12.2 NNW 0.20 13.9 -14.9 --- --- 731.2 0.018 0.000 9.6 8 1
02/03/06 6:43 a -7.3 -7.3 -7.4 --- --- 12.2 NNW 0.20 13.0 -14.9 --- --- 731.2 0.018 0.000 9.6 8 1
02/03/06 6:44 a -7.4 -7.3 -7.4 --- --- 13.0 NNW 0.22 14.8 -15.2 --- --- 731.2 0.018 0.000 9.6 8 1
02/03/06 6:45 a -7.5 -7.4 -7.6 --- --- 13.0 NNW 0.22 14.8 -15.4 --- --- 731.2 0.018 0.000 9.6 8 1
02/03/06 6:46 a -7.6 -7.4 -7.6 --- --- 13.0 NNW 0.22 13.9 -15.4 --- --- 731.2 0.018 0.000 9.6 8 1
02/03/06 6:47 a -7.5 -7.4 -7.6 --- --- 12.2 NNW 0.20 14.8 -15.1 --- --- 731.2 0.018 0.000 9.6 8 1
02/03/06 6:48 a -7.5 -7.4 -7.6 --- --- 13.0 NNW 0.22 13.9 -15.4 --- --- 731.2 0.018 0.000 9.6 8 1
02/03/06 6:49 a -7.5 -7.4 -7.6 --- --- 12.2 NNW 0.20 13.0 -15.1 --- --- 731.3 0.018 0.000 9.6 8 1
02/03/06 6:50 a -7.4 -7.3 -7.5 --- --- 11.3 NNW 0.19 13.0 -14.8 --- --- 731.3 0.018 0.000 9.6 8 1
02/03/06 6:51 a -7.3 -7.3 -7.3 --- --- 13.0 NNW 0.22 14.8 -15.2 --- --- 731.3 0.018 0.000 9.6 8 1
02/03/06 6:52 a -7.4 -7.3 -7.4 --- --- 13.0 NNW 0.22 14.8 -15.2 --- --- 731.3 0.018 0.000 9.6 8 1
02/03/06 6:53 a -7.4 -7.4 -7.5 --- --- 13.0 NNW 0.22 14.8 -15.3 --- --- 731.3 0.018 0.000 9.6 8 1
02/03/06 6:54 a -7.4 -7.4 -7.4 --- --- 12.2 NNW 0.20 15.7 -15.1 --- --- 731.2 0.018 0.000 9.6 8 1
02/03/06 6:55 a -7.5 -7.4 -7.6 --- --- 12.2 NNW 0.20 13.9 -15.1 --- --- 731.2 0.018 0.000 9.6 8 1
02/03/06 6:56 a -7.5 -7.4 -7.6 --- --- 13.0 NNW 0.22 14.8 -15.4 --- --- 731.2 0.018 0.000 9.6 8 1
02/03/06 6:57 a -7.7 -7.6 -7.7 --- --- 13.0 NNW 0.22 15.7 -15.6 --- --- 731.2 0.018 0.000 9.6 8 1
02/03/06 6:58 a -7.7 -7.6 -7.8 --- --- 13.0 NNW 0.22 15.7 -15.6 --- --- 731.2 0.018 0.000 9.5 8 1
02/03/06 6:59 a -7.8 -7.8 -7.8 --- --- 12.2 NNW 0.20 13.9 -15.5 --- --- 731.2 0.018 0.000 9.5 8 1
02/03/06 7:00 a -7.7 -7.7 -7.8 --- --- 13.0 NNW 0.22 13.9 -15.7 --- --- 731.2 0.018 0.000 9.5 8 1
02/03/06 7:01 a -7.7 -7.7 -7.7 --- --- 13.0 NNW 0.22 14.8 -15.6 --- --- 731.3 0.018 0.000 9.5 8 1
02/03/06 7:02 a -7.7 -7.7 -7.7 --- --- 12.2 NNW 0.20 13.9 -15.3 --- --- 731.2 0.018 0.000 9.5 8 1
02/03/06 7:03 a -7.7 -7.7 -7.8 --- --- 11.3 NNW 0.19 13.0 -15.1 --- --- 731.2 0.018 0.000 9.5 8 1
02/03/06 7:04 a -7.7 -7.6 -7.7 --- --- 11.3 NNW 0.19 13.0 -15.1 --- --- 731.2 0.018 0.000 9.5 8 1
02/03/06 7:05 a -7.7 -7.6 -7.7 --- --- 11.3 NNW 0.19 13.0 -15.1 --- --- 731.1 0.018 0.000 9.5 8 1
02/03/06 7:06 a -7.7 -7.7 -7.8 --- --- 12.2 NNW 0.20 13.0 -15.4 --- --- 731.2 0.018 0.000 9.5 8 1
02/03/06 7:07 a -7.8 -7.8 -7.8 --- --- 12.2 NNW 0.20 13.9 -15.5 --- --- 731.3 0.018 0.000 9.5 8 1
02/03/06 7:08 a -7.8 -7.8 -7.8 --- --- 11.3 NNW 0.19 13.0 -15.2 --- --- 731.3 0.018 0.000 9.5 8 1
02/03/06 7:09 a -7.9 -7.8 -7.9 --- --- 12.2 NNW 0.20 13.9 -15.6 --- --- 731.3 0.018 0.000 9.4 8 1
02/03/06 7:10 a -7.8 -7.8 -7.9 --- --- 11.3 NNW 0.19 13.9 -15.3 --- --- 731.2 0.018 0.000 9.4 8 1
02/03/06 7:11 a -7.9 -7.9 -7.9 --- --- 12.2 NNW 0.20 13.9 -15.6 --- --- 731.2 0.018 0.000 9.4 8 1
02/03/06 7:12 a -7.9 -7.9 -7.9 --- --- 11.3 NNW 0.19 13.0 -15.3 --- --- 731.2 0.018 0.000 9.4 8 1
02/03/06 7:13 a -7.9 -7.8 -7.9 --- --- 11.3 NNW 0.19 13.0 -15.3 --- --- 731.2 0.018 0.000 9.4 8 1
02/03/06 7:14 a -7.9 -7.8 -7.9 --- --- 12.2 NNW 0.20 14.8 -15.6 --- --- 731.2 0.018 0.000 9.4 8 1
02/03/06 7:15 a -7.9 -7.8 -7.9 --- --- 12.2 NNW 0.20 13.0 -15.6 --- --- 731.2 0.018 0.000 9.4 8 1
02/03/06 7:16 a -7.9 -7.8 -7.9 --- --- 13.0 NNW 0.22 14.8 -15.9 --- --- 731.2 0.018 0.000 9.4 8 1
02/03/06 7:17 a -7.9 -7.9 -7.9 --- --- 12.2 NNW 0.20 13.9 -15.7 --- --- 731.2 0.018 0.000 9.4 8 1
02/03/06 7:18 a -7.9 -7.8 -7.9 --- --- 13.0 NNW 0.22 14.8 -15.9 --- --- 731.1 0.018 0.000 9.4 8 1
02/03/06 7:19 a -7.9 -7.9 -7.9 --- --- 13.9 NNW 0.23 13.9 -16.1 --- --- 731.3 0.018 0.000 9.4 8 1
02/03/06 7:20 a -7.8 -7.7 -7.9 --- --- 14.8 NNW 0.25 18.3 -16.3 --- --- 731.2 0.018 0.000 9.4 8 1
02/03/06 7:21 a -7.8 -7.7 -7.8 --- --- 11.3 NNW 0.19 13.0 -15.2 --- --- 731.2 0.018 0.000 9.4 8 1
02/03/06 7:22 a -7.9 -7.9 -8.0 --- --- 12.2 NNW 0.20 14.8 -15.7 --- --- 731.2 0.018 0.000 9.4 8 1
02/03/06 7:23 a -8.1 -8.0 -8.1 --- --- 11.3 NNW 0.19 13.0 -15.6 --- --- 731.2 0.018 0.000 9.4 8 1
02/03/06 7:24 a -7.9 -7.9 -7.9 --- --- 11.3 NNW 0.19 13.0 -15.4 --- --- 731.2 0.018 0.000 9.4 8 1
02/03/06 7:25 a -7.9 -7.9 -7.9 --- --- 10.4 NNW 0.17 11.3 -15.1 --- --- 731.2 0.018 0.000 9.4 8 1
02/03/06 7:26 a -7.9 -7.9 -8.0 --- --- 10.4 NNW 0.17 11.3 -15.1 --- --- 731.2 0.018 0.000 9.4 8 1
02/03/06 7:27 a -7.9 -7.8 -7.9 --- --- 11.3 NNW 0.19 12.2 -15.3 --- --- 731.3 0.018 0.000 9.4 8 1
02/03/06 7:28 a -7.9 -7.8 -7.9 --- --- 12.2 NNW 0.20 13.9 -15.6 --- --- 731.1 0.018 0.000 9.4 8 1
02/03/06 7:29 a -7.9 -7.9 -7.9 --- --- 12.2 NNW 0.20 13.9 -15.7 --- --- 731.2 0.018 0.000 9.4 8 1
02/03/06 7:30 a -7.9 -7.9 -8.0 --- --- 12.2 NNW 0.20 13.9 -15.7 --- --- 731.1 0.018 0.000 9.4 8 1
02/03/06 7:31 a -8.0 -7.9 -8.1 --- --- 10.4 NNW 0.17 13.0 -15.2 --- --- 731.2 0.018 0.000 9.4 8 1
02/03/06 7:32 a -7.8 -7.8 -7.9 --- --- 10.4 NNW 0.17 12.2 -15.0 --- --- 731.2 0.018 0.000 9.4 8 1
02/03/06 7:33 a -7.9 -7.8 -8.0 --- --- 10.4 NNW 0.17 12.2 -15.1 --- --- 731.2 0.018 0.000 9.4 8 1
02/03/06 7:34 a -8.0 -8.0 -8.1 --- --- 10.4 NNW 0.17 10.4 -15.2 --- --- 731.3 0.018 0.000 9.4 8 1
02/03/06 7:35 a -7.9 -7.9 -8.0 --- --- 10.4 NNW 0.17 11.3 -15.1 --- --- 731.3 0.018 0.000 9.4 8 1
02/03/06 7:36 a -7.9 -7.9 -7.9 --- --- 11.3 NNW 0.19 13.0 -15.4 --- --- 731.2 0.018 0.000 9.4 8 1
02/03/06 7:37 a -8.0 -7.9 -8.0 --- --- 11.3 NNW 0.19 12.2 -15.5 --- --- 731.3 0.018 0.000 9.4 8 1
02/03/06 7:38 a -7.9 -7.8 -7.9 --- --- 11.3 NNW 0.19 13.0 -15.3 --- --- 731.2 0.018 0.000 9.4 8 1
02/03/06 7:39 a -7.9 -7.9 -8.0 --- --- 11.3 NNW 0.19 12.2 -15.3 --- --- 731.2 0.018 0.000 9.4 8 1
02/03/06 7:40 a -8.0 -8.0 -8.0 --- --- 11.3 NNW 0.19 13.9 -15.5 --- --- 731.2 0.018 0.000 9.4 8 1
02/03/06 7:41 a -8.0 -8.0 -8.1 --- --- 12.2 NNW 0.20 13.0 -15.8 --- --- 731.1 0.018 0.000 9.4 8 1
02/03/06 7:42 a -8.1 -8.0 -8.1 --- --- 12.2 NNW 0.20 13.0 -15.8 --- --- 731.2 0.018 0.000 9.4 8 1
02/03/06 7:43 a -8.0 -8.0 -8.1 --- --- 10.4 NNW 0.17 12.2 -15.2 --- --- 731.2 0.018 0.000 9.4 8 1
02/03/06 7:44 a -8.1 -8.0 -8.1 --- --- 9.6 NNW 0.16 12.2 -14.9 --- --- 731.2 0.018 0.000 9.4 8 1
02/03/06 7:45 a -8.0 -7.9 -8.0 --- --- 9.6 NNW 0.16 11.3 -14.8 --- --- 731.2 0.018 0.000 9.4 8 1
02/03/06 7:46 a -7.9 -7.9 -8.0 --- --- 10.4 NNW 0.17 12.2 -15.1 --- --- 731.2 0.018 0.000 9.4 8 1
02/03/06 7:47 a -7.9 -7.9 -7.9 --- --- 10.4 NNW 0.17 12.2 -15.1 --- --- 731.2 0.018 0.000 9.4 8 1
02/03/06 7:48 a -7.9 -7.9 -7.9 --- --- 10.4 NW 0.17 12.2 -15.1 --- --- 731.3 0.018 0.000 9.4 8 1
02/03/06 7:49 a -7.8 -7.8 -7.9 --- --- 10.4 NW 0.17 11.3 -15.0 --- --- 731.3 0.018 0.000 9.4 8 1
02/03/06 7:50 a -7.9 -7.8 -7.9 --- --- 11.3 NNW 0.19 13.0 -15.3 --- --- 731.3 0.018 0.000 9.4 8 1
02/03/06 7:51 a -7.9 -7.8 -7.9 --- --- 12.2 NNW 0.20 14.8 -15.6 --- --- 731.2 0.018 0.000 9.4 8 1
02/03/06 7:52 a -7.8 -7.8 -7.9 --- --- 13.0 NNW 0.22 13.9 -15.8 --- --- 731.3 0.018 0.000 9.4 8 1
02/03/06 7:53 a -7.9 -7.9 -7.9 --- --- 13.0 NW 0.22 14.8 -15.9 --- --- 731.2 0.018 0.000 9.4 8 1
02/03/06 7:54 a -7.9 -7.9 -7.9 --- --- 13.0 NW 0.22 13.9 -15.9 --- --- 731.3 0.018 0.000 9.4 8 1
02/03/06 7:55 a -7.9 -7.9 -7.9 --- --- 11.3 NW 0.19 14.8 -15.3 --- --- 731.2 0.018 0.000 9.4 8 1
02/03/06 7:56 a -8.0 -7.9 -8.0 --- --- 13.0 NW 0.22 15.7 -16.1 --- --- 731.3 0.018 0.000 9.4 8 1
02/03/06 7:57 a -8.0 -7.9 -8.0 --- --- 10.4 NNW 0.17 12.2 -15.2 --- --- 731.2 0.018 0.000 9.4 8 1
02/03/06 7:58 a -8.1 -8.0 -8.1 --- --- 12.2 NNW 0.20 13.9 -15.8 --- --- 731.2 0.018 0.000 9.4 8 1
02/03/06 7:59 a -8.1 -8.1 -8.1 --- --- 12.2 NNW 0.20 13.0 -15.9 --- --- 731.2 0.018 0.000 9.4 8 1
02/03/06 8:00 a -8.1 -8.1 -8.1 --- --- 13.0 NW 0.22 13.9 -16.1 --- --- 731.3 0.018 0.000 9.3 8 1
02/03/06 8:02 a -8.0 -8.0 -8.1 --- --- 11.3 NNW 0.19 13.0 -15.5 --- --- 731.3 0.018 0.000 9.3 8 1
02/03/06 8:03 a -8.1 -8.0 -8.1 --- --- 12.2 NNW 0.20 13.9 -15.8 --- --- 731.3 0.018 0.000 9.3 8 1
02/03/06 8:04 a -8.1 -8.1 -8.1 --- --- 12.2 NNW 0.20 13.0 -15.9 --- --- 731.2 0.018 0.000 9.3 8 1
02/03/06 8:05 a -8.0 -7.9 -8.1 --- --- 11.3 NW 0.19 14.8 -15.5 --- --- 731.2 0.018 0.000 9.3 8 1
02/03/06 8:06 a -7.9 -7.9 -7.9 --- --- 13.0 NNW 0.22 14.8 -15.9 --- --- 731.3 0.018 0.000 9.3 8 1
02/03/06 8:07 a -8.0 -8.0 -8.0 --- --- 12.2 NNW 0.20 14.8 -15.8 --- --- 731.1 0.018 0.000 9.3 8 1
02/03/06 8:08 a -8.0 -8.0 -8.0 --- --- 12.2 NNW 0.20 13.9 -15.8 --- --- 731.2 0.018 0.000 9.3 8 1
02/03/06 8:09 a -8.0 -8.0 -8.1 --- --- 12.2 NNW 0.20 13.0 -15.8 --- --- 731.2 0.018 0.000 9.3 8 1
02/03/06 8:10 a -8.0 -8.0 -8.1 --- --- 10.4 NNW 0.17 11.3 -15.2 --- --- 731.1 0.018 0.000 9.3 8 1
02/03/06 8:11 a -8.0 -7.9 -8.0 --- --- 11.3 NNW 0.19 12.2 -15.5 --- --- 731.2 0.018 0.000 9.3 8 1
02/03/06 8:12 a -8.1 -8.0 -8.1 --- --- 11.3 NNW 0.19 13.0 -15.6 --- --- 731.3 0.018 0.000 9.3 8 1
02/03/06 8:13 a -8.1 -8.1 -8.1 --- --- 12.2 NNW 0.20 14.8 -15.8 --- --- 731.2 0.018 0.000 9.3 8 1
02/03/06 8:14 a -8.1 -8.0 -8.1 --- --- 14.8 NNW 0.25 18.3 -16.6 --- --- 731.2 0.018 0.000 9.3 8 1
02/03/06 8:15 a -8.1 -8.0 -8.1 --- --- 13.0 NNW 0.22 14.8 -16.1 --- --- 731.2 0.018 0.000 9.3 8 1
02/03/06 8:16 a -8.1 -8.1 -8.1 --- --- 13.0 NNW 0.22 13.9 -16.1 --- --- 731.2 0.018 0.000 9.3 8 1
02/03/06 8:17 a -8.1 -8.1 -8.2 --- --- 13.0 NNW 0.22 16.5 -16.2 --- --- 731.2 0.018 0.000 9.3 8 1
02/03/06 8:18 a -8.1 -8.1 -8.1 --- --- 13.0 NNW 0.22 15.7 -16.1 --- --- 731.3 0.018 0.000 9.3 8 1
02/03/06 8:19 a -8.1 -8.1 -8.1 --- --- 12.2 NNW 0.20 13.0 -15.9 --- --- 731.2 0.018 0.000 9.3 8 1
02/03/06 8:20 a -8.1 -8.1 -8.2 --- --- 13.0 NNW 0.22 14.8 -16.2 --- --- 731.2 0.018 0.000 9.3 8 1
02/03/06 8:21 a -8.1 -8.1 -8.1 --- --- 13.0 NNW 0.22 15.7 -16.1 --- --- 731.2 0.018 0.000 9.3 8 1
02/03/06 8:22 a -8.1 -8.1 -8.1 --- --- 12.2 NNW 0.20 13.0 -15.9 --- --- 731.2 0.018 0.000 9.3 8 1
02/03/06 8:23 a -8.1 -8.1 -8.1 --- --- 11.3 NNW 0.19 13.0 -15.6 --- --- 731.2 0.018 0.000 9.3 8 1
02/03/06 8:24 a -8.1 -8.1 -8.1 --- --- 13.0 NNW 0.22 14.8 -16.1 --- --- 731.2 0.018 0.000 9.2 8 1
02/03/06 8:25 a -8.1 -8.1 -8.1 --- --- 12.2 NNW 0.20 14.8 -15.8 --- --- 731.2 0.018 0.000 9.2 8 1
02/03/06 8:26 a -8.1 -8.1 -8.2 --- --- 12.2 NNW 0.20 13.9 -15.9 --- --- 731.2 0.018 0.000 9.2 8 1
02/03/06 8:27 a -8.2 -8.1 -8.2 --- --- 12.2 NNW 0.20 13.0 -16.0 --- --- 731.2 0.018 0.000 9.2 8 1
02/03/06 8:28 a -8.2 -8.2 -8.2 --- --- 11.3 NNW 0.19 13.0 -15.7 --- --- 731.2 0.018 0.000 9.2 8 1
02/03/06 8:29 a -8.2 -8.1 -8.2 --- --- 13.0 NNW 0.22 13.9 -16.2 --- --- 731.2 0.018 0.000 9.2 8 1
02/03/06 8:30 a -8.1 -8.1 -8.2 --- --- 12.2 NNW 0.20 14.8 -15.9 --- --- 731.3 0.018 0.000 9.2 8 1
02/03/06 8:31 a -8.1 -8.1 -8.1 --- --- 12.2 NNW 0.20 14.8 -15.9 --- --- 731.2 0.018 0.000 9.2 8 1
02/03/06 8:32 a -8.1 -8.1 -8.2 --- --- 11.3 NNW 0.19 13.0 -15.6 --- --- 731.3 0.018 0.000 9.2 8 1
02/03/06 8:33 a -8.1 -8.1 -8.2 --- --- 10.4 NNW 0.17 12.2 -15.3 --- --- 731.3 0.018 0.000 9.2 8 1
02/03/06 8:34 a -8.1 -8.1 -8.1 --- --- 11.3 NNW 0.19 13.0 -15.6 --- --- 731.3 0.018 0.000 9.2 8 1
02/03/06 8:35 a -8.1 -8.1 -8.1 --- --- 10.4 NNW 0.17 13.9 -15.3 --- --- 731.3 0.018 0.000 9.2 8 1
02/03/06 8:36 a -8.1 -8.1 -8.1 --- --- 11.3 NNW 0.19 13.0 -15.6 --- --- 731.3 0.018 0.000 9.2 8 1
02/03/06 8:37 a -8.1 -8.1 -8.1 --- --- 12.2 NNW 0.20 15.7 -15.9 --- --- 731.2 0.018 0.000 9.2 8 1
02/03/06 8:38 a -8.1 -8.1 -8.1 --- --- 12.2 NNW 0.20 13.9 -15.8 --- --- 731.2 0.018 0.000 9.2 8 1
02/03/06 8:39 a -8.0 -8.0 -8.1 --- --- 12.2 NNW 0.20 13.9 -15.8 --- --- 731.3 0.018 0.000 9.2 8 1
02/03/06 8:40 a -8.1 -8.1 -8.1 --- --- 10.4 NNW 0.17 12.2 -15.3 --- --- 731.2 0.018 0.000 9.2 8 1
02/03/06 8:41 a -8.1 -8.1 -8.1 --- --- 11.3 NNW 0.19 13.0 -15.6 --- --- 731.2 0.018 0.000 9.2 8 1
02/03/06 8:42 a -8.1 -8.1 -8.1 --- --- 11.3 NNW 0.19 13.0 -15.6 --- --- 731.3 0.018 0.000 9.2 8 1
02/03/06 8:43 a -8.1 -8.1 -8.2 --- --- 11.3 NNW 0.19 13.0 -15.6 --- --- 731.2 0.018 0.000 9.2 8 1
02/03/06 8:44 a -8.2 -8.1 -8.2 --- --- 11.3 NNW 0.19 13.0 -15.7 --- --- 731.2 0.018 0.000 9.2 8 1
02/03/06 8:45 a -8.2 -8.1 -8.2 --- --- 12.2 NNW 0.20 13.9 -16.0 --- --- 731.3 0.018 0.000 9.2 8 1
02/03/06 8:46 a -8.1 -8.1 -8.1 --- --- 12.2 NNW 0.20 13.0 -15.9 --- --- 731.3 0.018 0.000 9.2 8 1
02/03/06 8:47 a -8.1 -8.1 -8.1 --- --- 11.3 NNW 0.19 13.0 -15.6 --- --- 731.3 0.018 0.000 9.2 8 1
02/03/06 8:48 a -8.1 -8.1 -8.1 --- --- 9.6 NNW 0.16 12.2 -15.0 --- --- 731.3 0.018 0.000 9.2 8 1
02/03/06 8:49 a -8.1 -8.1 -8.1 --- --- 11.3 NNW 0.19 13.0 -15.6 --- --- 731.3 0.018 0.000 9.2 8 1
02/03/06 8:50 a -8.0 -8.0 -8.1 --- --- 10.4 NNW 0.17 13.0 -15.2 --- --- 731.3 0.018 0.000 9.2 8 1
02/03/06 8:51 a -8.0 -8.0 -8.0 --- --- 9.6 NNW 0.16 11.3 -14.8 --- --- 731.3 0.018 0.000 9.2 8 1
02/03/06 8:52 a -8.0 -8.0 -8.1 --- --- 10.4 NNW 0.17 13.0 -15.2 --- --- 731.2 0.018 0.000 9.2 8 1
02/03/06 8:53 a -8.1 -8.1 -8.2 --- --- 10.4 NNW 0.17 12.2 -15.3 --- --- 731.2 0.018 0.000 9.2 8 1
02/03/06 8:54 a -8.2 -8.2 -8.2 --- --- 11.3 NNW 0.19 13.0 -15.8 --- --- 731.2 0.018 0.000 9.2 8 1
02/03/06 8:55 a -8.2 -8.2 -8.2 --- --- 10.4 NNW 0.17 12.2 -15.4 --- --- 731.3 0.018 0.000 9.2 8 1
02/03/06 8:56 a -8.2 -8.2 -8.2 --- --- 10.4 NNW 0.17 12.2 -15.4 --- --- 731.3 0.018 0.000 9.2 8 1
02/03/06 8:57 a -8.2 -8.2 -8.3 --- --- 10.4 NNW 0.17 13.0 -15.4 --- --- 731.3 0.018 0.000 9.2 8 1
02/03/06 8:58 a -8.3 -8.3 -8.3 --- --- 11.3 NNW 0.19 13.0 -15.8 --- --- 731.2 0.018 0.000 9.2 8 1
02/03/06 8:59 a -8.3 -8.2 -8.3 --- --- 10.4 NNW 0.17 12.2 -15.6 --- --- 731.2 0.018 0.000 9.2 8 1
02/03/06 9:00 a -8.2 -8.2 -8.2 --- --- 11.3 NNW 0.19 13.0 -15.8 --- --- 731.2 0.018 0.000 9.2 8 1
02/03/06 9:02 a -8.2 -8.1 -8.2 --- --- 10.4 NNW 0.17 13.0 -15.4 --- --- 731.3 0.018 0.000 9.1 8 1
02/03/06 9:03 a -8.2 -8.2 -8.2 --- --- 11.3 NNW 0.19 14.8 -15.7 --- --- 731.3 0.018 0.000 9.2 8 1
02/03/06 9:04 a -8.2 -8.2 -8.3 --- --- 10.4 NNW 0.17 11.3 -15.4 --- --- 731.3 0.018 0.000 9.1 8 1
02/03/06 9:05 a -8.2 -8.1 -8.3 --- --- 10.4 NNW 0.17 13.9 -15.4 --- --- 731.3 0.018 0.000 9.2 8 1
02/03/06 9:06 a -8.1 -8.1 -8.2 --- --- 10.4 NNW 0.17 12.2 -15.3 --- --- 731.2 0.018 0.000 9.1 8 1
02/03/06 9:07 a -8.2 -8.2 -8.2 --- --- 10.4 NNW 0.17 12.2 -15.4 --- --- 731.2 0.018 0.000 9.1 8 1
02/03/06 9:08 a -8.2 -8.2 -8.2 --- --- 10.4 NNW 0.17 11.3 -15.4 --- --- 731.2 0.018 0.000 9.1 8 1
02/03/06 9:09 a -8.2 -8.2 -8.3 --- --- 9.6 NNW 0.16 11.3 -15.1 --- --- 731.3 0.018 0.000 9.1 8 1
02/03/06 9:10 a -8.3 -8.2 -8.3 --- --- 9.6 NNW 0.16 10.4 -15.2 --- --- 731.2 0.018 0.000 9.1 8 1
02/03/06 9:11 a -8.3 -8.3 -8.3 --- --- 9.6 NNW 0.16 11.3 -15.2 --- --- 731.3 0.018 0.000 9.1 8 1
02/03/06 9:12 a -8.3 -8.3 -8.3 --- --- 10.4 NNW 0.17 11.3 -15.6 --- --- 731.2 0.018 0.000 9.1 8 1
02/03/06 9:13 a -8.3 -8.3 -8.3 --- --- 11.3 NNW 0.19 12.2 -15.8 --- --- 731.2 0.018 0.000 9.1 8 1
02/03/06 9:14 a -8.3 -8.3 -8.3 --- --- 9.6 NNW 0.16 11.3 -15.2 --- --- 731.3 0.018 0.000 9.1 8 1
02/03/06 9:15 a -8.3 -8.3 -8.3 --- --- 8.7 NNW 0.14 8.7 -14.8 --- --- 731.3 0.018 0.000 9.1 8 1
02/03/06 9:16 a -8.3 -8.3 -8.3 --- --- 7.8 NNW 0.13 8.7 -14.6 --- --- 731.2 0.019 0.000 9.1 8 1
02/03/06 9:17 a -8.3 -8.3 -8.3 --- --- 7.8 NNW 0.13 9.6 -14.6 --- --- 731.3 0.019 0.000 9.1 8 1
02/03/06 9:18 a -8.3 -8.3 -8.3 --- --- 9.6 NNW 0.16 10.4 -15.3 --- --- 731.3 0.019 0.000 9.1 8 1
02/03/06 9:19 a -8.4 -8.4 -8.4 --- --- 8.7 NNW 0.14 10.4 -15.0 --- --- 731.3 0.019 0.000 9.1 8 1
02/03/06 9:20 a -8.4 -8.4 -8.4 --- --- 9.6 NNW 0.16 11.3 -15.3 --- --- 731.3 0.019 0.000 9.1 8 1
02/03/06 9:21 a -8.4 -8.3 -8.4 --- --- 10.4 NNW 0.17 11.3 -15.7 --- --- 731.3 0.019 0.000 9.1 8 1
02/03/06 9:22 a -8.3 -8.3 -8.4 --- --- 8.7 NNW 0.14 10.4 -14.9 --- --- 731.3 0.019 0.000 9.1 8 1
02/03/06 9:23 a -8.3 -8.3 -8.3 --- --- 8.7 NNW 0.14 10.4 -14.8 --- --- 731.3 0.018 0.000 9.1 8 1
02/03/06 9:24 a -8.2 -8.1 -8.3 --- --- 11.3 NNW 0.19 12.2 -15.8 --- --- 731.2 0.018 0.000 9.1 8 1
02/03/06 9:25 a -8.1 -8.1 -8.1 --- --- 9.6 NNW 0.16 10.4 -15.0 --- --- 731.3 0.018 0.000 9.1 8 1
02/03/06 9:26 a -8.1 -8.1 -8.1 --- --- 10.4 NNW 0.17 11.3 -15.3 --- --- 731.3 0.018 0.000 9.1 8 1
02/03/06 9:27 a -8.1 -8.1 -8.1 --- --- 11.3 NNW 0.19 12.2 -15.6 --- --- 731.2 0.018 0.000 9.1 8 1
02/03/06 9:28 a -8.0 -8.0 -8.1 --- --- 11.3 NNW 0.19 13.0 -15.5 --- --- 731.2 0.018 0.000 9.1 8 1
02/03/06 9:29 a -8.0 -7.9 -8.0 --- --- 13.0 NNW 0.22 15.7 -16.1 --- --- 731.2 0.018 0.000 9.1 8 1
02/03/06 9:30 a -7.9 -7.9 -8.0 --- --- 12.2 NNW 0.20 13.9 -15.7 --- --- 731.2 0.018 0.000 9.1 8 1
02/03/06 9:31 a -8.0 -8.0 -8.1 --- --- 11.3 NNW 0.19 13.0 -15.5 --- --- 731.2 0.018 0.000 9.1 8 1
02/03/06 9:32 a -8.1 -8.1 -8.1 --- --- 11.3 NNW 0.19 12.2 -15.6 --- --- 731.2 0.018 0.000 9.1 8 1
02/03/06 9:33 a -8.0 -8.0 -8.0 --- --- 10.4 NNW 0.17 13.0 -15.2 --- --- 731.3 0.018 0.000 9.1 8 1
02/03/06 9:34 a -7.9 -7.9 -8.0 --- --- 12.2 NNW 0.20 13.9 -15.7 --- --- 731.2 0.018 0.000 9.1 8 1
02/03/06 9:35 a -7.9 -7.9 -7.9 --- --- 10.4 NNW 0.17 12.2 -15.1 --- --- 731.2 0.018 0.000 9.1 8 1
02/03/06 9:36 a -7.9 -7.9 -7.9 --- --- 13.0 NNW 0.22 14.8 -15.9 --- --- 731.2 0.018 0.000 9.1 8 1
02/03/06 9:37 a -7.9 -7.9 -7.9 --- --- 11.3 NW 0.19 13.0 -15.4 --- --- 731.3 0.018 0.000 9.1 8 1
02/03/06 9:38 a -7.9 -7.8 -7.9 --- --- 10.4 NNW 0.17 12.2 -15.1 --- --- 731.2 0.018 0.000 9.1 8 1
02/03/06 9:39 a -7.8 -7.8 -7.8 --- --- 9.6 NW 0.16 10.4 -14.7 --- --- 731.2 0.018 0.000 9.1 8 1
02/03/06 9:40 a -7.9 -7.8 -7.9 --- --- 9.6 NNW 0.16 12.2 -14.7 --- --- 731.2 0.018 0.000 9.1 8 1
02/03/06 9:41 a -7.9 -7.9 -8.0 --- --- 10.4 NNW 0.17 12.2 -15.1 --- --- 731.3 0.018 0.000 9.1 8 1
02/03/06 9:42 a -8.0 -7.9 -8.0 --- --- 10.4 NNW 0.17 11.3 -15.2 --- --- 731.2 0.018 0.000 9.1 8 1
02/03/06 9:43 a -7.9 -7.9 -7.9 --- --- 10.4 NNW 0.17 12.2 -15.1 --- --- 731.2 0.018 0.000 9.1 8 1
02/03/06 9:44 a -7.9 -7.9 -8.0 --- --- 11.3 NNW 0.19 12.2 -15.4 --- --- 731.2 0.018 0.000 9.1 8 1
02/03/06 9:45 a -8.0 -8.0 -8.0 --- --- 10.4 NNW 0.17 11.3 -15.2 --- --- 731.2 0.018 0.000 9.1 8 1
02/03/06 9:46 a -8.1 -8.0 -8.1 --- --- 11.3 NNW 0.19 12.2 -15.6 --- --- 731.2 0.018 0.000 9.1 8 1
02/03/06 9:47 a -8.0 -8.0 -8.1 --- --- 11.3 NNW 0.19 13.9 -15.5 --- --- 731.2 0.018 0.000 9.1 8 1
02/03/06 9:48 a -8.1 -8.0 -8.1 --- --- 11.3 NNW 0.19 13.9 -15.6 --- --- 731.2 0.018 0.000 9.1 8 1
02/03/06 9:49 a -8.0 -7.9 -8.0 --- --- 11.3 NNW 0.19 13.0 -15.5 --- --- 731.2 0.018 0.000 9.1 8 1
02/03/06 9:50 a -7.9 -7.9 -7.9 --- --- 12.2 NNW 0.20 13.9 -15.6 --- --- 731.2 0.018 0.000 9.1 8 1
02/03/06 9:51 a -7.9 -7.9 -7.9 --- --- 12.2 NNW 0.20 13.9 -15.6 --- --- 731.2 0.018 0.000 9.1 8 1
02/03/06 9:52 a -7.9 -7.8 -7.9 --- --- 12.2 NNW 0.20 14.8 -15.6 --- --- 731.2 0.018 0.000 9.1 8 1
02/03/06 9:53 a -7.8 -7.8 -7.8 --- --- 12.2 NNW 0.20 13.9 -15.5 --- --- 731.2 0.018 0.000 9.1 8 1
02/03/06 9:54 a -7.9 -7.8 -7.9 --- --- 11.3 NNW 0.19 13.0 -15.3 --- --- 731.3 0.018 0.000 9.1 8 1
02/03/06 9:55 a -7.9 -7.9 -7.9 --- --- 8.7 NNW 0.14 9.6 -14.4 --- --- 731.2 0.018 0.000 9.1 8 1
02/03/06 9:56 a -7.9 -7.9 -8.0 --- --- 10.4 NNW 0.17 12.2 -15.1 --- --- 731.2 0.018 0.000 9.1 8 1
02/03/06 9:57 a -8.0 -8.0 -8.1 --- --- 10.4 NNW 0.17 12.2 -15.2 --- --- 731.2 0.018 0.000 9.1 8 1
02/03/06 9:58 a -8.0 -7.9 -8.0 --- --- 11.3 NNW 0.19 13.0 -15.5 --- --- 731.2 0.018 0.000 9.1 8 1
02/03/06 9:59 a -7.9 -7.9 -7.9 --- --- 10.4 NNW 0.17 11.3 -15.1 --- --- 731.2 0.018 0.000 9.1 8 1
02/03/06 10:00 a -8.0 -8.0 -8.0 --- --- 10.4 NNW 0.17 12.2 -15.2 --- --- 731.2 0.018 0.000 9.1 8 1
02/03/06 10:02 a -8.1 -8.1 -8.2 --- --- 10.4 NNW 0.17 12.2 -15.3 --- --- 731.2 0.018 0.000 9.1 8 1
02/03/06 10:03 a -8.2 -8.1 -8.2 --- --- 10.4 NNW 0.17 11.3 -15.4 --- --- 731.2 0.018 0.000 9.1 8 1
02/03/06 10:04 a -8.1 -8.1 -8.1 --- --- 10.4 NNW 0.17 12.2 -15.3 --- --- 731.3 0.018 0.000 9.1 8 1
02/03/06 10:05 a -8.1 -8.1 -8.2 --- --- 10.4 NNW 0.17 13.0 -15.3 --- --- 731.3 0.018 0.000 9.0 8 1
02/03/06 10:06 a -8.2 -8.1 -8.2 --- --- 11.3 NNW 0.19 13.0 -15.7 --- --- 731.2 0.018 0.000 9.0 8 1
02/03/06 10:07 a -8.2 -8.2 -8.2 --- --- 9.6 NNW 0.16 11.3 -15.1 --- --- 731.3 0.018 0.000 9.0 8 1
02/03/06 10:08 a -8.2 -8.2 -8.2 --- --- 8.7 NNW 0.14 10.4 -14.8 --- --- 731.2 0.018 0.000 9.0 8 1
02/03/06 10:09 a -8.2 -8.2 -8.2 --- --- 10.4 NNW 0.17 12.2 -15.4 --- --- 731.2 0.018 0.000 9.0 7 1
02/03/06 10:10 a -8.2 -8.2 -8.2 --- --- 8.7 NW 0.14 10.4 -14.8 --- --- 731.1 0.018 0.000 9.0 8 1
02/03/06 10:11 a -8.2 -8.2 -8.2 --- --- 9.6 NNW 0.16 11.3 -15.1 --- --- 731.2 0.018 0.000 9.0 8 1
02/03/06 10:12 a -8.3 -8.3 -8.3 --- --- 10.4 NNW 0.17 11.3 -15.6 --- --- 731.2 0.018 0.000 9.0 7 1
02/03/06 10:13 a -8.2 -8.2 -8.2 --- --- 11.3 NNW 0.19 13.0 -15.8 --- --- 731.3 0.018 0.000 9.0 7 1
02/03/06 10:14 a -8.1 -8.0 -8.1 --- --- 11.3 NNW 0.19 13.9 -15.6 --- --- 731.2 0.018 0.000 9.0 7 1
02/03/06 10:15 a -8.0 -8.0 -8.0 --- --- 11.3 NNW 0.19 12.2 -15.5 --- --- 731.2 0.018 0.000 9.0 8 1
02/03/06 10:16 a -8.1 -8.1 -8.1 --- --- 10.4 NNW 0.17 11.3 -15.3 --- --- 731.1 0.018 0.000 9.0 7 1
02/03/06 10:17 a -8.0 -7.9 -8.1 --- --- 12.2 NNW 0.20 15.7 -15.8 --- --- 731.2 0.018 0.000 9.0 8 1
02/03/06 10:18 a -7.9 -7.9 -7.9 --- --- 11.3 NNW 0.19 13.9 -15.3 --- --- 731.2 0.018 0.000 9.0 8 1
02/03/06 10:19 a -7.9 -7.9 -7.9 --- --- 12.2 NNW 0.20 13.0 -15.6 --- --- 731.2 0.018 0.000 9.0 7 1
02/03/06 10:20 a -7.9 -7.9 -7.9 --- --- 11.3 NNW 0.19 13.0 -15.4 --- --- 731.2 0.018 0.000 9.0 8 1
02/03/06 10:21 a -7.8 -7.8 -7.9 --- --- 10.4 NNW 0.17 11.3 -15.0 --- --- 731.2 0.018 0.000 9.0 7 1
02/03/06 10:22 a -7.8 -7.8 -7.8 --- --- 9.6 NNW 0.16 11.3 -14.6 --- --- 731.1 0.018 0.000 9.0 7 1
02/03/06 10:23 a -7.8 -7.8 -7.8 --- --- 10.4 NNW 0.17 13.0 -14.9 --- --- 731.2 0.018 0.000 9.0 8 1
02/03/06 10:24 a -7.8 -7.8 -7.8 --- --- 10.4 NNW 0.17 12.2 -15.0 --- --- 731.2 0.018 0.000 9.0 8 1
02/03/06 10:25 a -7.8 -7.8 -7.8 --- --- 10.4 NNW 0.17 12.2 -14.9 --- --- 731.2 0.018 0.000 9.0 8 1
02/03/06 10:26 a -7.7 -7.7 -7.7 --- --- 11.3 NW 0.19 13.0 -15.1 --- --- 731.1 0.018 0.000 9.0 8 1
02/03/06 10:27 a -7.6 -7.6 -7.7 --- --- 11.3 NNW 0.19 13.0 -15.0 --- --- 731.1 0.018 0.000 9.0 8 1
02/03/06 10:28 a -7.7 -7.7 -7.8 --- --- 10.4 NNW 0.17 12.2 -14.8 --- --- 731.2 0.018 0.000 9.0 8 1
02/03/06 10:29 a -7.9 -7.8 -7.9 --- --- 9.6 NNW 0.16 12.2 -14.7 --- --- 731.1 0.018 0.000 9.0 8 1
02/03/06 10:30 a -8.0 -7.9 -8.0 --- --- 9.6 NNW 0.16 12.2 -14.8 --- --- 731.1 0.018 0.000 9.0 8 1
02/03/06 10:31 a -8.1 -8.0 -8.1 --- --- 10.4 NNW 0.17 11.3 -15.3 --- --- 731.1 0.018 0.000 9.0 7 1
02/03/06 10:32 a -8.1 -8.0 -8.1 --- --- 9.6 NNW 0.16 11.3 -14.9 --- --- 731.1 0.018 0.000 8.9 8 1
02/03/06 10:33 a -8.0 -8.0 -8.0 --- --- 10.4 NW 0.17 12.2 -15.2 --- --- 731.1 0.018 0.000 8.9 7 1
02/03/06 10:34 a -7.9 -7.9 -7.9 --- --- 8.7 NNW 0.14 10.4 -14.4 --- --- 731.2 0.018 0.000 8.9 7 1
02/03/06 10:35 a -7.9 -7.9 -7.9 --- --- 9.6 NNW 0.16 11.3 -14.7 --- --- 731.2 0.018 0.000 8.9 7 1
02/03/06 10:36 a -7.9 -7.9 -7.9 --- --- 7.8 NNW 0.13 8.7 -14.1 --- --- 731.3 0.018 0.000 8.9 7 1
02/03/06 10:37 a -7.9 -7.9 -7.9 --- --- 7.8 NNW 0.13 8.7 -14.1 --- --- 731.3 0.018 0.000 8.9 7 1
02/03/06 10:38 a -8.0 -7.9 -8.0 --- --- 7.8 NNW 0.13 10.4 -14.1 --- --- 731.2 0.018 0.000 8.9 8 1
02/03/06 10:39 a -8.0 -7.9 -8.0 --- --- 7.8 NNW 0.13 10.4 -14.1 --- --- 731.2 0.018 0.000 8.9 8 1
02/03/06 10:40 a -8.1 -8.0 -8.1 --- --- 7.0 NNW 0.12 7.8 -13.8 --- --- 731.2 0.018 0.000 8.9 7 1
02/03/06 10:41 a -8.1 -8.1 -8.2 --- --- 7.8 NNW 0.13 9.6 -14.3 --- --- 731.1 0.018 0.000 8.9 7 1
02/03/06 10:42 a -8.2 -8.2 -8.2 --- --- 7.0 NNW 0.12 9.6 -13.9 --- --- 731.2 0.018 0.000 8.9 8 1
02/03/06 10:43 a -8.2 -8.2 -8.2 --- --- 6.1 NNW 0.10 7.0 -13.4 --- --- 731.2 0.018 0.000 8.9 8 1
02/03/06 10:44 a -8.2 -8.2 -8.2 --- --- 5.2 N 0.09 7.8 -13.0 --- --- 731.2 0.018 0.000 8.9 7 1
02/03/06 10:45 a -8.2 -8.2 -8.2 --- --- 7.0 NNW 0.12 8.7 -14.0 --- --- 731.2 0.018 0.000 8.9 7 1
02/03/06 10:46 a -8.2 -8.2 -8.3 --- --- 7.0 NNW 0.12 7.8 -14.0 --- --- 731.2 0.018 0.000 8.9 8 1
02/03/06 10:47 a -8.2 -8.2 -8.2 --- --- 7.0 NNW 0.12 8.7 -14.0 --- --- 731.1 0.018 0.000 8.9 8 1
02/03/06 10:48 a -8.1 -8.1 -8.2 --- --- 7.0 NNW 0.12 8.7 -13.8 --- --- 731.2 0.018 0.000 8.9 7 1
02/03/06 10:49 a -8.1 -8.1 -8.1 --- --- 7.0 NNW 0.12 7.8 -13.8 --- --- 731.2 0.018 0.000 8.9 7 1
02/03/06 10:50 a -8.1 -8.1 -8.1 --- --- 7.0 NW 0.12 7.8 -13.8 --- --- 731.3 0.018 0.000 8.9 7 1
02/03/06 10:51 a -8.1 -8.1 -8.1 --- --- 5.2 NW 0.09 6.1 -12.8 --- --- 731.2 0.018 0.000 8.9 8 1
02/03/06 10:52 a -8.0 -8.0 -8.1 --- --- 5.2 NNW 0.09 6.1 -12.7 --- --- 731.2 0.018 0.000 8.9 8 1
02/03/06 10:53 a -8.1 -8.0 -8.1 --- --- 7.0 NNW 0.12 8.7 -13.8 --- --- 731.3 0.018 0.000 8.9 8 1
02/03/06 10:54 a -8.1 -8.1 -8.1 --- --- 6.1 NNW 0.10 7.8 -13.4 --- --- 731.2 0.018 0.000 8.9 7 1
02/03/06 10:55 a -8.1 -8.1 -8.2 --- --- 6.1 NNW 0.10 7.8 -13.4 --- --- 731.2 0.018 0.000 8.9 8 1
02/03/06 10:56 a -8.1 -8.1 -8.1 --- --- 7.8 NW 0.13 8.7 -14.3 --- --- 731.2 0.018 0.000 8.9 7 1
02/03/06 10:57 a -8.0 -7.9 -8.1 --- --- 7.0 NW 0.12 8.7 -13.7 --- --- 731.2 0.018 0.000 8.9 7 1
02/03/06 10:58 a -8.0 -7.9 -8.0 --- --- 7.0 NNW 0.12 7.8 -13.7 --- --- 731.2 0.018 0.000 8.9 8 1
02/03/06 10:59 a -8.1 -8.0 -8.1 --- --- 5.2 NW 0.09 7.0 -12.8 --- --- 731.2 0.018 0.000 8.9 7 1
02/03/06 11:00 a -8.1 -8.1 -8.1 --- --- 6.1 NW 0.10 7.0 -13.3 --- --- 731.2 0.018 0.000 8.9 7 1
02/03/06 11:01 a -8.1 -8.1 -8.2 --- --- 6.1 NNW 0.10 7.8 -13.4 --- --- 731.3 0.018 0.000 8.9 7 1
02/03/06 11:02 a -8.1 -8.1 -8.2 --- --- 7.0 NNW 0.12 7.8 -13.8 --- --- 731.3 0.018 0.000 8.9 7 1
02/03/06 11:03 a -8.1 -8.1 -8.1 --- --- 7.0 NNW 0.12 7.0 -13.8 --- --- 731.3 0.018 0.000 8.9 7 1
02/03/06 11:04 a -8.1 -8.1 -8.1 --- --- 7.0 NW 0.12 7.8 -13.8 --- --- 731.2 0.018 0.000 8.9 7 1
02/03/06 11:05 a -8.1 -8.1 -8.1 --- --- 5.2 NNW 0.09 6.1 -12.9 --- --- 731.2 0.018 0.000 8.9 7 1
02/03/06 11:06 a -8.1 -8.1 -8.1 --- --- 7.0 NNW 0.12 7.8 -13.8 --- --- 731.3 0.018 0.000 8.9 8 1
02/03/06 11:07 a -8.2 -8.1 -8.2 --- --- 6.1 NW 0.10 7.8 -13.4 --- --- 731.2 0.018 0.000 8.9 8 1
02/03/06 11:08 a -8.2 -8.2 -8.2 --- --- 6.1 NNW 0.10 7.8 -13.4 --- --- 731.3 0.018 0.000 8.9 7 1
02/03/06 11:09 a -8.2 -8.2 -8.2 --- --- 7.0 NNW 0.12 7.8 -14.0 --- --- 731.2 0.018 0.000 8.9 8 1
02/03/06 11:10 a -8.2 -8.2 -8.2 --- --- 6.1 NNW 0.10 7.0 -13.5 --- --- 731.2 0.018 0.000 8.8 7 1
02/03/06 11:11 a -8.2 -8.2 -8.3 --- --- 5.2 NNW 0.09 6.1 -13.0 --- --- 731.2 0.018 0.000 8.8 8 1
02/03/06 11:12 a -8.2 -8.2 -8.3 --- --- 5.2 NNW 0.09 7.0 -13.0 --- --- 731.2 0.018 0.000 8.8 7 1
02/03/06 11:13 a -8.2 -8.2 -8.2 --- --- 7.0 NNW 0.12 7.0 -14.0 --- --- 731.2 0.018 0.000 8.9 7 1
02/03/06 11:14 a -8.2 -8.2 -8.2 --- --- 6.1 NNW 0.10 7.0 -13.5 --- --- 731.1 0.018 0.000 8.9 8 1
02/03/06 11:15 a -8.2 -8.2 -8.2 --- --- 7.0 NNW 0.12 7.8 -14.0 --- --- 731.2 0.018 0.000 8.9 7 1
02/03/06 11:16 a -8.1 -8.0 -8.2 --- --- 6.1 NNW 0.10 7.8 -13.4 --- --- 731.2 0.018 0.000 8.9 7 1
02/03/06 11:17 a -7.9 -7.9 -7.9 --- --- 3.5 N 0.06 5.2 -11.3 --- --- 731.1 0.018 0.000 8.8 8 1
02/03/06 11:18 a -7.9 -7.9 -8.0 --- --- 4.3 NNW 0.07 5.2 -12.1 --- --- 731.2 0.018 0.000 8.8 7 1
02/03/06 11:19 a -8.1 -8.1 -8.1 --- --- 5.2 NNW 0.09 7.0 -12.9 --- --- 731.1 0.018 0.000 8.8 7 1
02/03/06 11:20 a -8.2 -8.1 -8.2 --- --- 5.2 NNW 0.09 6.1 -12.9 --- --- 731.3 0.018 0.000 8.8 7 1
02/03/06 11:21 a -8.2 -8.2 -8.2 --- --- 5.2 NNW 0.09 6.1 -13.0 --- --- 731.1 0.018 0.000 8.8 7 1
02/03/06 11:22 a -8.2 -8.2 -8.2 --- --- 5.2 NNW 0.09 7.0 -13.0 --- --- 731.3 0.018 0.000 8.8 7 1
02/03/06 11:23 a -8.2 -8.2 -8.2 --- --- 4.3 NNW 0.07 5.2 -12.4 --- --- 731.2 0.018 0.000 8.8 7 1
02/03/06 11:24 a -8.2 -8.1 -8.2 --- --- 5.2 NNW 0.09 6.1 -12.9 --- --- 731.3 0.018 0.000 8.8 7 1
02/03/06 11:25 a -8.1 -8.1 -8.1 --- --- 4.3 NW 0.07 5.2 -12.3 --- --- 731.2 0.018 0.000 8.8 7 1
02/03/06 11:26 a -8.1 -8.1 -8.1 --- --- 4.3 NW 0.07 5.2 -12.2 --- --- 731.2 0.018 0.000 8.8 7 1
02/03/06 11:27 a -8.1 -8.1 -8.1 --- --- 5.2 NW 0.09 6.1 -12.9 --- --- 731.2 0.018 0.000 8.8 7 1
02/03/06 11:28 a -8.1 -8.1 -8.1 --- --- 4.3 NW 0.07 6.1 -12.3 --- --- 731.2 0.018 0.000 8.8 7 1
02/03/06 11:29 a -8.1 -8.1 -8.1 --- --- 5.2 NW 0.09 6.1 -12.9 --- --- 731.2 0.018 0.000 8.8 7 1
02/03/06 11:30 a -8.1 -8.1 -8.1 --- --- 5.2 NW 0.09 6.1 -12.9 --- --- 731.2 0.018 0.000 8.8 7 1
02/03/06 11:31 a -8.1 -8.0 -8.1 --- --- 3.5 NW 0.06 5.2 -11.5 --- --- 731.3 0.018 0.000 8.8 7 1
02/03/06 11:32 a -7.9 -7.9 -7.9 --- --- 3.5 NW 0.06 5.2 -11.3 --- --- 731.2 0.018 0.000 8.8 7 1
02/03/06 11:33 a -7.9 -7.9 -8.0 --- --- 4.3 NW 0.07 4.3 -12.1 --- --- 731.3 0.018 0.000 8.8 7 1
02/03/06 11:34 a -8.0 -8.0 -8.1 --- --- 3.5 NW 0.06 5.2 -11.4 --- --- 731.2 0.018 0.000 8.8 7 1
02/03/06 11:35 a -8.1 -8.1 -8.1 --- --- 1.7 NW 0.03 2.6 -9.4 --- --- 731.2 0.018 0.000 8.8 7 1
02/03/06 11:36 a -8.0 -8.0 -8.1 --- --- 3.5 NW 0.06 5.2 -11.4 --- --- 731.3 0.018 0.000 8.8 7 1
02/03/06 11:37 a -8.0 -7.9 -8.0 --- --- 5.2 NW 0.09 6.1 -12.7 --- --- 731.2 0.018 0.000 8.8 7 1
02/03/06 11:38 a -8.1 -8.0 -8.1 --- --- 5.2 NNW 0.09 6.1 -12.8 --- --- 731.2 0.018 0.000 8.8 7 1
02/03/06 11:39 a -8.1 -8.1 -8.1 --- --- 4.3 NNW 0.07 5.2 -12.2 --- --- 731.3 0.018 0.000 8.8 7 1
02/03/06 11:40 a -8.1 -8.1 -8.1 --- --- 4.3 NNW 0.07 5.2 -12.3 --- --- 731.2 0.018 0.000 8.8 7 1
02/03/06 11:41 a -8.1 -8.1 -8.2 --- --- 5.2 NNW 0.09 7.0 -12.9 --- --- 731.3 0.018 0.000 8.8 7 1
02/03/06 11:42 a -8.3 -8.2 -8.4 --- --- 5.2 NNW 0.09 6.1 -13.1 --- --- 731.2 0.018 0.000 8.8 7 1
02/03/06 11:43 a -8.3 -8.3 -8.3 --- --- 5.2 NNW 0.09 7.0 -13.1 --- --- 731.2 0.019 0.000 8.8 7 1
02/03/06 11:44 a -8.3 -8.2 -8.3 --- --- 5.2 NNW 0.09 6.1 -13.1 --- --- 731.3 0.018 0.000 8.8 7 1
02/03/06 11:45 a -8.2 -8.2 -8.2 --- --- 5.2 NNW 0.09 6.1 -13.0 --- --- 731.3 0.018 0.000 8.8 7 1
02/03/06 11:46 a -8.2 -8.2 -8.3 --- --- 4.3 NNW 0.07 5.2 -12.4 --- --- 731.2 0.018 0.000 8.8 7 1
02/03/06 11:47 a -8.3 -8.2 -8.4 --- --- 5.2 NNW 0.09 7.0 -13.1 --- --- 731.2 0.019 0.000 8.8 7 1
02/03/06 11:48 a -8.4 -8.4 -8.4 --- --- 5.2 NNW 0.09 6.1 -13.2 --- --- 731.2 0.019 0.000 8.8 7 1
02/03/06 11:49 a -8.4 -8.4 -8.4 --- --- 6.1 NNW 0.10 7.0 -13.7 --- --- 731.2 0.019 0.000 8.8 7 1
02/03/06 11:50 a -8.3 -8.3 -8.4 --- --- 4.3 NNW 0.07 5.2 -12.5 --- --- 731.2 0.019 0.000 8.8 7 1
02/03/06 11:51 a -8.3 -8.3 -8.3 --- --- 4.3 NW 0.07 5.2 -12.5 --- --- 731.2 0.019 0.000 8.7 7 1
02/03/06 11:52 a -8.3 -8.3 -8.3 --- --- 4.3 NW 0.07 5.2 -12.4 --- --- 731.2 0.018 0.000 8.7 7 1
02/03/06 11:53 a -8.3 -8.3 -8.3 --- --- 4.3 NW 0.07 5.2 -12.4 --- --- 731.3 0.018 0.000 8.7 7 1
02/03/06 11:54 a -8.3 -8.3 -8.3 --- --- 5.2 NW 0.09 6.1 -13.1 --- --- 731.3 0.018 0.000 8.7 7 1
02/03/06 11:55 a -8.3 -8.3 -8.4 --- --- 3.5 NW 0.06 6.1 -11.7 --- --- 731.3 0.018 0.000 8.7 7 1
02/03/06 11:56 a -8.4 -8.4 -8.5 --- --- 6.1 NNW 0.10 7.8 -13.8 --- --- 731.3 0.019 0.000 8.7 7 1
02/03/06 11:57 a -8.3 -8.3 -8.4 --- --- 4.3 NNW 0.07 6.1 -12.5 --- --- 731.3 0.019 0.000 8.7 7 1
02/03/06 11:58 a -8.3 -8.3 -8.3 --- --- 4.3 NNW 0.07 5.2 -12.5 --- --- 731.2 0.019 0.000 8.7 7 1
02/03/06 11:59 a -8.3 -8.3 -8.4 --- --- 3.5 NNW 0.06 5.2 -11.8 --- --- 731.3 0.019 0.000 8.7 7 1
02/03/06 12:00 p -8.4 -8.4 -8.4 --- --- 1.7 NNW 0.03 2.6 -9.8 --- --- 731.3 0.019 0.000 8.7 7 1
02/03/06 12:02 p -8.6 -8.4 -8.6 --- --- 3.5 NNW 0.06 4.3 -12.1 --- --- 731.3 0.019 0.000 8.7 7 1
02/03/06 12:03 p -8.6 -8.6 -8.6 --- --- 3.5 NNW 0.06 3.5 -12.1 --- --- 731.3 0.019 0.000 8.7 7 1
02/03/06 12:04 p -8.6 -8.6 -8.7 --- --- 2.6 NNW 0.04 3.5 -11.2 --- --- 731.3 0.019 0.000 8.7 7 1
02/03/06 12:05 p -8.7 -8.7 -8.7 --- --- 2.6 NNW 0.04 3.5 -11.3 --- --- 731.3 0.019 0.000 8.7 7 1
02/03/06 12:06 p -8.7 -8.7 -8.7 --- --- 2.6 NNW 0.04 3.5 -11.3 --- --- 731.2 0.019 0.000 8.7 7 1
02/03/06 12:07 p -8.7 -8.7 -8.7 --- --- 2.6 NNW 0.04 3.5 -11.3 --- --- 731.3 0.019 0.000 8.7 7 1
02/03/06 12:08 p -8.6 -8.6 -8.7 --- --- 3.5 NNW 0.06 4.3 -12.1 --- --- 731.3 0.019 0.000 8.7 7 1
02/03/06 12:09 p -8.5 -8.4 -8.6 --- --- 5.2 N 0.09 5.2 -13.3 --- --- 731.2 0.019 0.000 8.7 7 1
02/03/06 12:10 p -8.4 -8.4 -8.5 --- --- 5.2 N 0.09 6.1 -13.3 --- --- 731.2 0.019 0.000 8.7 7 1
02/03/06 12:11 p -8.4 -8.4 -8.5 --- --- 5.2 NNW 0.09 6.1 -13.3 --- --- 731.3 0.019 0.000 8.7 7 1
02/03/06 12:12 p -8.4 -8.4 -8.4 --- --- 4.3 NNW 0.07 5.2 -12.7 --- --- 731.3 0.019 0.000 8.7 7 1
02/03/06 12:13 p -8.5 -8.5 -8.6 --- --- 6.1 NNW 0.10 7.0 -13.8 --- --- 731.3 0.019 0.000 8.7 7 1
02/03/06 12:14 p -8.6 -8.6 -8.6 --- --- 5.2 NNW 0.09 6.1 -13.4 --- --- 731.3 0.019 0.000 8.7 7 1
02/03/06 12:15 p -8.6 -8.5 -8.6 --- --- 7.0 NNW 0.12 8.7 -14.4 --- --- 731.2 0.019 0.000 8.7 7 1
02/03/06 12:16 p -8.4 -8.4 -8.5 --- --- 6.1 NNW 0.10 7.0 -13.8 --- --- 731.3 0.019 0.000 8.7 7 1
02/03/06 12:17 p -8.5 -8.4 -8.6 --- --- 6.1 NNW 0.10 7.0 -13.8 --- --- 731.2 0.019 0.000 8.7 7 1
02/03/06 12:18 p -8.6 -8.6 -8.6 --- --- 5.2 NNW 0.09 7.0 -13.4 --- --- 731.3 0.019 0.000 8.7 7 1
02/03/06 12:19 p -8.6 -8.6 -8.6 --- --- 7.0 NNW 0.12 7.8 -14.4 --- --- 731.2 0.019 0.000 8.7 7 1
02/03/06 12:20 p -8.6 -8.6 -8.6 --- --- 6.1 NNW 0.10 7.0 -13.9 --- --- 731.2 0.019 0.000 8.6 7 1
02/03/06 12:21 p -8.5 -8.5 -8.6 --- --- 5.2 NNW 0.09 6.1 -13.3 --- --- 731.2 0.019 0.000 8.6 7 1
02/03/06 12:22 p -8.5 -8.5 -8.5 --- --- 5.2 NNW 0.09 5.2 -13.3 --- --- 731.2 0.019 0.000 8.6 7 1
02/03/06 12:23 p -8.5 -8.5 -8.6 --- --- 6.1 NNW 0.10 7.0 -13.8 --- --- 731.3 0.019 0.000 8.6 7 1
02/03/06 12:24 p -8.5 -8.4 -8.5 --- --- 6.1 NNW 0.10 7.0 -13.8 --- --- 731.2 0.019 0.000 8.6 7 1
02/03/06 12:25 p -8.4 -8.4 -8.4 --- --- 6.1 NNW 0.10 7.0 -13.8 --- --- 731.2 0.019 0.000 8.6 7 1
02/03/06 12:26 p -8.3 -8.3 -8.3 --- --- 5.2 NNW 0.09 6.1 -13.1 --- --- 731.2 0.019 0.000 8.6 7 1
02/03/06 12:27 p -8.3 -8.3 -8.3 --- --- 5.2 NNW 0.09 7.0 -13.1 --- --- 731.3 0.019 0.000 8.6 7 1
02/03/06 12:28 p -8.3 -8.3 -8.4 --- --- 5.2 NNW 0.09 7.0 -13.1 --- --- 731.3 0.019 0.000 8.7 7 1
02/03/06 12:29 p -8.4 -8.4 -8.4 --- --- 4.3 N 0.07 6.1 -12.7 --- --- 731.3 0.019 0.000 8.6 7 1
02/03/06 12:30 p -8.4 -8.4 -8.5 --- --- 4.3 N 0.07 5.2 -12.7 --- --- 731.3 0.019 0.000 8.6 7 1
02/03/06 12:31 p -8.4 -8.4 -8.5 --- --- 4.3 N 0.07 5.2 -12.7 --- --- 731.2 0.019 0.000 8.6 7 1
02/03/06 12:32 p -8.5 -8.5 -8.6 --- --- 5.2 N 0.09 6.1 -13.3 --- --- 731.2 0.019 0.000 8.6 7 1
02/03/06 12:33 p -8.6 -8.6 -8.6 --- --- 4.3 N 0.07 6.1 -12.8 --- --- 731.3 0.019 0.000 8.7 7 1
02/03/06 12:34 p -8.5 -8.4 -8.5 --- --- 4.3 NNW 0.07 6.1 -12.7 --- --- 731.2 0.019 0.000 8.7 7 1
02/03/06 12:35 p -8.4 -8.4 -8.4 --- --- 3.5 NNW 0.06 5.2 -11.9 --- --- 731.3 0.019 0.000 8.7 7 1
02/03/06 12:36 p -8.4 -8.4 -8.4 --- --- 4.3 N 0.07 6.1 -12.6 --- --- 731.3 0.019 0.000 8.7 7 1
02/03/06 12:37 p -8.4 -8.4 -8.4 --- --- 5.2 N 0.09 6.1 -13.3 --- --- 731.3 0.019 0.000 8.7 7 1
02/03/06 12:38 p -8.5 -8.5 -8.6 --- --- 6.1 N 0.10 7.0 -13.8 --- --- 731.2 0.019 0.000 8.7 7 1
02/03/06 12:39 p -8.5 -8.5 -8.6 --- --- 6.1 NNW 0.10 7.0 -13.8 --- --- 731.4 0.019 0.000 8.7 7 1
02/03/06 12:40 p -8.4 -8.4 -8.5 --- --- 5.2 NNW 0.09 5.2 -13.3 --- --- 731.3 0.019 0.000 8.7 7 1
02/03/06 12:41 p -8.5 -8.4 -8.5 --- --- 4.3 N 0.07 5.2 -12.7 --- --- 731.3 0.019 0.000 8.7 7 1
02/03/06 12:42 p -8.4 -8.4 -8.4 --- --- 5.2 N 0.09 6.1 -13.3 --- --- 731.4 0.019 0.000 8.7 7 1
02/03/06 12:43 p -8.4 -8.4 -8.5 --- --- 6.1 NNW 0.10 7.8 -13.8 --- --- 731.3 0.019 0.000 8.7 7 1
02/03/06 12:44 p -8.5 -8.5 -8.6 --- --- 6.1 NNW 0.10 7.8 -13.8 --- --- 731.3 0.019 0.000 8.7 7 1
02/03/06 12:45 p -8.6 -8.6 -8.6 --- --- 5.2 N 0.09 7.0 -13.4 --- --- 731.3 0.019 0.000 8.7 7 1
02/03/06 12:46 p -8.6 -8.6 -8.6 --- --- 4.3 N 0.07 5.2 -12.8 --- --- 731.3 0.019 0.000 8.7 7 1
02/03/06 12:47 p -8.7 -8.7 -8.7 --- --- 4.3 N 0.07 5.2 -12.9 --- --- 731.3 0.019 0.000 8.7 7 1
02/03/06 12:48 p -8.7 -8.7 -8.8 --- --- 4.3 N 0.07 5.2 -13.0 --- --- 731.3 0.019 0.000 8.7 7 1
02/03/06 12:49 p -8.7 -8.7 -8.8 --- --- 4.3 N 0.07 6.1 -13.0 --- --- 731.2 0.019 0.000 8.7 7 1
02/03/06 12:50 p -8.7 -8.7 -8.8 --- --- 4.3 N 0.07 5.2 -13.0 --- --- 731.3 0.019 0.000 8.7 7 1
02/03/06 12:51 p -8.8 -8.8 -8.8 --- --- 4.3 N 0.07 6.1 -13.1 --- --- 731.3 0.019 0.000 8.7 7 1
02/03/06 12:52 p -8.8 -8.7 -8.8 --- --- 4.3 N 0.07 6.1 -13.1 --- --- 731.3 0.019 0.000 8.7 7 1
02/03/06 12:53 p -8.8 -8.7 -8.8 --- --- 5.2 N 0.09 5.2 -13.7 --- --- 731.3 0.019 0.000 8.7 7 1
02/03/06 12:54 p -8.8 -8.7 -8.8 --- --- 5.2 N 0.09 6.1 -13.7 --- --- 731.3 0.019 0.000 8.7 7 1
02/03/06 12:55 p -8.8 -8.8 -8.8 --- --- 4.3 N 0.07 6.1 -13.1 --- --- 731.3 0.019 0.000 8.7 7 1
02/03/06 12:56 p -8.8 -8.8 -8.8 --- --- 4.3 N 0.07 6.1 -13.1 --- --- 731.3 0.019 0.000 8.7 7 1
02/03/06 12:57 p -8.8 -8.8 -8.8 --- --- 5.2 N 0.09 6.1 -13.7 --- --- 731.3 0.019 0.000 8.7 7 1
02/03/06 12:58 p -8.8 -8.8 -8.8 --- --- 6.1 NNW 0.10 7.0 -14.3 --- --- 731.2 0.019 0.000 8.7 7 1
02/03/06 12:59 p -8.8 -8.8 -8.8 --- --- 4.3 N 0.07 6.1 -13.1 --- --- 731.2 0.019 0.000 8.7 7 1
02/03/06 1:00 p -8.8 -8.8 -8.8 --- --- 4.3 N 0.07 5.2 -13.1 --- --- 731.3 0.019 0.000 8.7 7 1
02/03/06 1:02 p -8.7 -8.6 -8.7 --- --- 5.2 NNW 0.09 7.0 -13.5 --- --- 731.2 0.019 0.000 8.7 7 1
02/03/06 1:03 p -8.7 -8.7 -8.7 --- --- 5.2 N 0.09 7.0 -13.5 --- --- 731.2 0.019 0.000 8.7 7 1
02/03/06 1:04 p -8.6 -8.6 -8.7 --- --- 6.1 NNW 0.10 7.0 -14.0 --- --- 731.2 0.019 0.000 8.6 7 1
02/03/06 1:05 p -8.6 -8.5 -8.6 --- --- 4.3 NNW 0.07 6.1 -12.8 --- --- 731.2 0.019 0.000 8.6 7 1
02/03/06 1:06 p -8.5 -8.5 -8.5 --- --- 3.5 N 0.06 5.2 -12.0 --- --- 731.3 0.019 0.000 8.6 7 1
02/03/06 1:07 p -8.6 -8.5 -8.6 --- --- 3.5 N 0.06 4.3 -12.1 --- --- 731.2 0.019 0.000 8.6 7 1
02/03/06 1:08 p -8.5 -8.5 -8.6 --- --- 2.6 N 0.04 3.5 -11.1 --- --- 731.2 0.019 0.000 8.6 7 1
02/03/06 1:09 p -8.6 -8.5 -8.6 --- --- 2.6 N 0.04 3.5 -11.2 --- --- 731.2 0.019 0.000 8.6 7 1
02/03/06 1:10 p -8.5 -8.4 -8.6 --- --- 2.6 N 0.04 3.5 -11.1 --- --- 731.2 0.019 0.000 8.6 7 1
02/03/06 1:11 p -8.4 -8.4 -8.5 --- --- 3.5 N 0.06 4.3 -11.9 --- --- 731.2 0.019 0.000 8.6 7 1
02/03/06 1:12 p -8.4 -8.4 -8.5 --- --- 4.3 N 0.07 6.1 -12.7 --- --- 731.3 0.019 0.000 8.6 7 1
02/03/06 1:13 p -8.5 -8.5 -8.5 --- --- 4.3 NNW 0.07 5.2 -12.7 --- --- 731.2 0.019 0.000 8.6 7 1
02/03/06 1:14 p -8.5 -8.4 -8.5 --- --- 4.3 NNW 0.07 5.2 -12.7 --- --- 731.2 0.019 0.000 8.6 7 1
02/03/06 1:15 p -8.4 -8.4 -8.4 --- --- 3.5 NNW 0.06 3.5 -11.9 --- --- 731.2 0.019 0.000 8.6 7 1
02/03/06 1:16 p -8.4 -8.4 -8.4 --- --- 3.5 NNW 0.06 4.3 -11.9 --- --- 731.2 0.019 0.000 8.6 7 1
02/03/06 1:17 p -8.4 -8.4 -8.4 --- --- 3.5 N 0.06 4.3 -11.9 --- --- 731.2 0.019 0.000 8.6 7 1
02/03/06 1:18 p -8.5 -8.4 -8.6 --- --- 3.5 N 0.06 4.3 -12.0 --- --- 731.2 0.019 0.000 8.6 7 1
02/03/06 1:19 p -8.6 -8.6 -8.6 --- --- 3.5 N 0.06 3.5 -12.1 --- --- 731.2 0.019 0.000 8.6 7 1
02/03/06 1:20 p -8.6 -8.6 -8.6 --- --- 3.5 N 0.06 4.3 -12.1 --- --- 731.2 0.019 0.000 8.6 7 1
02/03/06 1:21 p -8.6 -8.6 -8.6 --- --- 3.5 N 0.06 4.3 -12.1 --- --- 731.3 0.019 0.000 8.6 7 1
02/03/06 1:22 p -8.6 -8.6 -8.6 --- --- 3.5 N 0.06 3.5 -12.1 --- --- 731.2 0.019 0.000 8.6 7 1
02/03/06 1:23 p -8.6 -8.6 -8.7 --- --- 3.5 N 0.06 5.2 -12.1 --- --- 731.2 0.019 0.000 8.6 7 1
02/03/06 1:24 p -8.6 -8.6 -8.7 --- --- 3.5 N 0.06 4.3 -12.1 --- --- 731.3 0.019 0.000 8.6 7 1
02/03/06 1:25 p -8.6 -8.6 -8.7 --- --- 4.3 N 0.07 4.3 -12.8 --- --- 731.2 0.019 0.000 8.6 7 1
02/03/06 1:26 p -8.6 -8.6 -8.6 --- --- 5.2 N 0.09 6.1 -13.4 --- --- 731.2 0.019 0.000 8.6 7 1
02/03/06 1:27 p -8.6 -8.6 -8.6 --- --- 3.5 N 0.06 5.2 -12.1 --- --- 731.2 0.019 0.000 8.6 7 1
02/03/06 1:28 p -8.6 -8.6 -8.6 --- --- 5.2 N 0.09 6.1 -13.4 --- --- 731.3 0.019 0.000 8.6 7 1
02/03/06 1:29 p -8.6 -8.6 -8.6 --- --- 5.2 N 0.09 6.1 -13.4 --- --- 731.2 0.019 0.000 8.6 7 1
02/03/06 1:30 p -8.6 -8.6 -8.7 --- --- 4.3 N 0.07 6.1 -12.8 --- --- 731.2 0.019 0.000 8.6 7 1
02/03/06 1:31 p -8.7 -8.6 -8.7 --- --- 3.5 N 0.06 4.3 -12.2 --- --- 731.1 0.019 0.000 8.6 7 1
02/03/06 1:32 p -8.7 -8.7 -8.7 --- --- 4.3 N 0.07 5.2 -12.9 --- --- 731.2 0.019 0.000 8.6 7 1
02/03/06 1:33 p -8.6 -8.6 -8.7 --- --- 5.2 N 0.09 6.1 -13.4 --- --- 731.2 0.019 0.000 8.6 7 1
02/03/06 1:34 p -8.6 -8.6 -8.6 --- --- 5.2 N 0.09 6.1 -13.4 --- --- 731.1 0.019 0.000 8.6 7 1
02/03/06 1:35 p -8.6 -8.6 -8.6 --- --- 5.2 N 0.09 7.8 -13.4 --- --- 731.2 0.019 0.000 8.6 7 1
02/03/06 1:36 p -8.5 -8.5 -8.5 --- --- 5.2 N 0.09 7.0 -13.3 --- --- 731.1 0.019 0.000 8.6 7 1
02/03/06 1:37 p -8.5 -8.4 -8.5 --- --- 7.0 N 0.12 8.7 -14.3 --- --- 731.2 0.019 0.000 8.6 7 1
02/03/06 1:38 p -8.4 -8.4 -8.4 --- --- 6.1 N 0.10 7.0 -13.7 --- --- 731.2 0.019 0.000 8.6 7 1
02/03/06 1:39 p -8.4 -8.4 -8.5 --- --- 6.1 N 0.10 7.0 -13.8 --- --- 731.2 0.019 0.000 8.6 7 1
02/03/06 1:40 p -8.5 -8.5 -8.6 --- --- 6.1 NNW 0.10 7.8 -13.8 --- --- 731.2 0.019 0.000 8.6 7 1
02/03/06 1:41 p -8.6 -8.6 -8.6 --- --- 6.1 N 0.10 7.0 -14.0 --- --- 731.2 0.019 0.000 8.6 7 1
02/03/06 1:42 p -8.7 -8.7 -8.7 --- --- 5.2 N 0.09 7.0 -13.6 --- --- 731.1 0.019 0.000 8.6 7 1
02/03/06 1:43 p -8.7 -8.7 -8.7 --- --- 4.3 N 0.07 5.2 -13.0 --- --- 731.2 0.019 0.000 8.6 7 1
02/03/06 1:44 p -8.7 -8.7 -8.7 --- --- 4.3 N 0.07 5.2 -13.0 --- --- 731.1 0.019 0.000 8.6 7 1
02/03/06 1:45 p -8.7 -8.7 -8.7 --- --- 3.5 N 0.06 5.2 -12.3 --- --- 731.2 0.019 0.000 8.6 7 1
02/03/06 1:46 p -8.8 -8.7 -8.8 --- --- 3.5 N 0.06 4.3 -12.3 --- --- 731.1 0.019 0.000 8.7 7 1
02/03/06 1:47 p -8.8 -8.7 -8.8 --- --- 3.5 N 0.06 4.3 -12.3 --- --- 731.2 0.019 0.000 8.7 7 1
02/03/06 1:48 p -8.7 -8.7 -8.8 --- --- 3.5 N 0.06 4.3 -12.3 --- --- 731.2 0.019 0.000 8.7 7 1
02/03/06 1:49 p -8.8 -8.7 -8.8 --- --- 4.3 N 0.07 5.2 -13.1 --- --- 731.2 0.019 0.000 8.7 7 1
02/03/06 1:50 p -8.8 -8.7 -8.8 --- --- 4.3 N 0.07 5.2 -13.1 --- --- 731.2 0.019 0.000 8.7 7 1
02/03/06 1:51 p -8.7 -8.7 -8.7 --- --- 5.2 N 0.09 5.2 -13.6 --- --- 731.2 0.019 0.000 8.7 7 1
02/03/06 1:52 p -8.7 -8.7 -8.8 --- --- 4.3 N 0.07 5.2 -13.0 --- --- 731.1 0.019 0.000 8.7 7 1
02/03/06 1:53 p -8.8 -8.8 -8.8 --- --- 4.3 N 0.07 5.2 -13.1 --- --- 731.2 0.019 0.000 8.7 7 1
02/03/06 1:54 p -8.8 -8.8 -8.8 --- --- 4.3 N 0.07 5.2 -13.1 --- --- 731.2 0.019 0.000 8.7 7 1
02/03/06 1:55 p -8.8 -8.8 -8.8 --- --- 5.2 N 0.09 6.1 -13.7 --- --- 731.1 0.019 0.000 8.7 7 1
02/03/06 1:56 p -8.7 -8.6 -8.8 --- --- 5.2 N 0.09 6.1 -13.5 --- --- 731.1 0.019 0.000 8.7 7 1
02/03/06 1:57 p -8.6 -8.6 -8.7 --- --- 4.3 N 0.07 5.2 -12.8 --- --- 731.2 0.019 0.000 8.7 7 1
02/03/06 1:58 p -8.6 -8.6 -8.7 --- --- 4.3 N 0.07 6.1 -12.8 --- --- 731.0 0.019 0.000 8.7 7 1
02/03/06 1:59 p -8.5 -8.4 -8.5 --- --- 4.3 N 0.07 5.2 -12.7 --- --- 731.0 0.019 0.000 8.6 7 1
02/03/06 2:00 p -8.4 -8.4 -8.5 --- --- 3.5 N 0.06 5.2 -11.9 --- --- 731.1 0.019 0.000 8.6 7 1
02/03/06 2:01 p -8.5 -8.5 -8.6 --- --- 3.5 N 0.06 5.2 -12.0 --- --- 731.2 0.019 0.000 8.6 7 1
02/03/06 2:02 p -8.5 -8.5 -8.5 --- --- 3.5 N 0.06 4.3 -12.0 --- --- 731.1 0.019 0.000 8.6 7 1
02/03/06 2:03 p -8.5 -8.5 -8.5 --- --- 4.3 N 0.07 5.2 -12.7 --- --- 731.1 0.019 0.000 8.6 7 1
02/03/06 2:04 p -8.4 -8.4 -8.4 --- --- 4.3 N 0.07 5.2 -12.7 --- --- 731.1 0.019 0.000 8.6 7 1
02/03/06 2:05 p -8.4 -8.4 -8.4 --- --- 4.3 N 0.07 6.1 -12.6 --- --- 731.1 0.019 0.000 8.6 7 1
02/03/06 2:06 p -8.4 -8.4 -8.4 --- --- 4.3 N 0.07 6.1 -12.6 --- --- 731.1 0.019 0.000 8.6 7 1
02/03/06 2:07 p -8.4 -8.4 -8.5 --- --- 4.3 N 0.07 5.2 -12.7 --- --- 731.1 0.019 0.000 8.6 7 1
02/03/06 2:08 p -8.5 -8.5 -8.6 --- --- 4.3 N 0.07 5.2 -12.7 --- --- 731.1 0.019 0.000 8.6 7 1
02/03/06 2:09 p -8.6 -8.6 -8.6 --- --- 4.3 N 0.07 5.2 -12.8 --- --- 731.1 0.019 0.000 8.6 7 1
02/03/06 2:10 p -8.5 -8.5 -8.6 --- --- 3.5 N 0.06 4.3 -12.0 --- --- 731.2 0.019 0.000 8.6 7 1
02/03/06 2:11 p -8.6 -8.6 -8.6 --- --- 3.5 N 0.06 4.3 -12.1 --- --- 731.1 0.019 0.000 8.6 7 1
02/03/06 2:12 p -8.5 -8.5 -8.5 --- --- 3.5 N 0.06 5.2 -12.0 --- --- 731.2 0.019 0.000 8.6 7 1
02/03/06 2:13 p -8.4 -8.4 -8.5 --- --- 3.5 N 0.06 5.2 -11.9 --- --- 731.1 0.019 0.000 8.6 7 1
02/03/06 2:14 p -8.4 -8.4 -8.6 --- --- 4.3 N 0.07 5.2 -12.7 --- --- 731.1 0.019 0.000 8.6 7 1
02/03/06 2:15 p -8.5 -8.5 -8.6 --- --- 5.2 NNW 0.09 6.1 -13.3 --- --- 731.1 0.019 0.000 8.6 7 1
02/03/06 2:16 p -8.6 -8.6 -8.6 --- --- 5.2 NNW 0.09 6.1 -13.4 --- --- 731.1 0.019 0.000 8.6 7 1
02/03/06 2:17 p -8.6 -8.6 -8.6 --- --- 6.1 NNW 0.10 7.8 -13.9 --- --- 731.1 0.019 0.000 8.6 7 1
02/03/06 2:18 p -8.6 -8.6 -8.6 --- --- 4.3 NNW 0.07 5.2 -12.8 --- --- 731.2 0.019 0.000 8.6 7 1
02/03/06 2:19 p -8.6 -8.5 -8.6 --- --- 4.3 N 0.07 6.1 -12.8 --- --- 731.2 0.019 0.000 8.6 7 1
02/03/06 2:20 p -8.5 -8.5 -8.6 --- --- 4.3 N 0.07 5.2 -12.7 --- --- 731.0 0.019 0.000 8.6 7 1
02/03/06 2:21 p -8.5 -8.5 -8.5 --- --- 3.5 N 0.06 4.3 -12.0 --- --- 731.1 0.019 0.000 8.6 7 1
02/03/06 2:22 p -8.5 -8.4 -8.5 --- --- 2.6 N 0.04 3.5 -11.1 --- --- 731.1 0.019 0.000 8.6 7 1
02/03/06 2:23 p -8.5 -8.4 -8.5 --- --- 2.6 N 0.04 3.5 -11.1 --- --- 731.1 0.019 0.000 8.6 7 1
02/03/06 2:24 p -8.5 -8.5 -8.5 --- --- 2.6 N 0.04 4.3 -11.1 --- --- 731.0 0.019 0.000 8.6 7 1
02/03/06 2:25 p -8.4 -8.4 -8.5 --- --- 4.3 N 0.07 5.2 -12.7 --- --- 730.9 0.019 0.000 8.6 7 1
02/03/06 2:26 p -8.5 -8.5 -8.6 --- --- 3.5 N 0.06 4.3 -12.0 --- --- 731.1 0.019 0.000 8.6 7 1
02/03/06 2:27 p -8.6 -8.6 -8.6 --- --- 3.5 N 0.06 3.5 -12.1 --- --- 731.0 0.019 0.000 8.6 7 1
02/03/06 2:28 p -8.6 -8.6 -8.6 --- --- 3.5 N 0.06 4.3 -12.1 --- --- 731.0 0.019 0.000 8.7 7 1
02/03/06 2:29 p -8.6 -8.6 -8.6 --- --- 4.3 N 0.07 5.2 -12.8 --- --- 731.0 0.019 0.000 8.7 7 1
02/03/06 2:30 p -8.6 -8.6 -8.6 --- --- 3.5 N 0.06 4.3 -12.1 --- --- 731.1 0.019 0.000 8.7 7 1
02/03/06 2:31 p -8.6 -8.6 -8.6 --- --- 3.5 N 0.06 4.3 -12.1 --- --- 731.0 0.019 0.000 8.7 7 1
02/03/06 2:32 p -8.6 -8.6 -8.6 --- --- 3.5 N 0.06 4.3 -12.1 --- --- 731.0 0.019 0.000 8.7 7 1
02/03/06 2:33 p -8.7 -8.6 -8.7 --- --- 3.5 N 0.06 4.3 -12.2 --- --- 731.1 0.019 0.000 8.7 7 1
02/03/06 2:34 p -8.7 -8.6 -8.7 --- --- 4.3 N 0.07 4.3 -12.9 --- --- 731.1 0.019 0.000 8.7 7 1
02/03/06 2:35 p -8.5 -8.4 -8.6 --- --- 3.5 N 0.06 4.3 -12.0 --- --- 731.0 0.019 0.000 8.7 7 1
02/03/06 2:36 p -8.6 -8.5 -8.6 --- --- 2.6 N 0.04 3.5 -11.2 --- --- 731.0 0.019 0.000 8.7 7 1
02/03/06 2:37 p -8.6 -8.6 -8.6 --- --- 2.6 N 0.04 3.5 -11.2 --- --- 731.0 0.019 0.000 8.7 7 1
02/03/06 2:38 p -8.6 -8.6 -8.6 --- --- 2.6 N 0.04 2.6 -11.2 --- --- 731.0 0.019 0.000 8.7 7 1
02/03/06 2:39 p -8.7 -8.6 -8.7 --- --- 1.7 N 0.03 2.6 -10.1 --- --- 731.0 0.019 0.000 8.7 7 1
02/03/06 2:40 p -8.7 -8.7 -8.7 --- --- 0.9 N 0.01 1.7 -8.7 --- --- 731.0 0.019 0.000 8.7 7 1
02/03/06 2:41 p -8.7 -8.7 -8.7 --- --- 2.6 N 0.04 3.5 -11.3 --- --- 731.0 0.019 0.000 8.6 7 1
02/03/06 2:42 p -8.6 -8.6 -8.7 --- --- 0.9 N 0.01 1.7 -8.6 --- --- 731.0 0.019 0.000 8.6 7 1
02/03/06 2:43 p -8.6 -8.6 -8.6 --- --- 0.9 N 0.01 1.7 -8.6 --- --- 731.0 0.019 0.000 8.6 7 1
02/03/06 2:44 p -8.6 -8.6 -8.6 --- --- 1.7 N 0.03 1.7 -10.1 --- --- 731.0 0.019 0.000 8.6 7 1
02/03/06 2:45 p -8.6 -8.6 -8.6 --- --- 2.6 N 0.04 3.5 -11.2 --- --- 731.0 0.019 0.000 8.6 7 1
02/03/06 2:46 p -8.5 -8.4 -8.5 --- --- 3.5 N 0.06 5.2 -12.0 --- --- 731.0 0.019 0.000 8.6 7 1
02/03/06 2:47 p -8.3 -8.3 -8.4 --- --- 4.3 N 0.07 6.1 -12.5 --- --- 730.9 0.019 0.000 8.6 7 1
02/03/06 2:48 p -8.2 -8.2 -8.3 --- --- 3.5 N 0.06 5.2 -11.7 --- --- 731.0 0.018 0.000 8.6 7 1
02/03/06 2:49 p -8.2 -8.1 -8.2 --- --- 5.2 N 0.09 7.0 -12.9 --- --- 730.9 0.018 0.000 8.6 7 1
02/03/06 2:50 p -8.1 -8.1 -8.2 --- --- 5.2 N 0.09 6.1 -12.9 --- --- 730.9 0.018 0.000 8.6 7 1
02/03/06 2:51 p -8.1 -7.9 -8.1 --- --- 4.3 N 0.07 6.1 -12.2 --- --- 730.9 0.018 0.000 8.6 7 1
02/03/06 2:52 p -7.9 -7.8 -7.9 --- --- 5.2 N 0.09 6.1 -12.6 --- --- 731.0 0.018 0.000 8.6 7 1
02/03/06 2:53 p -7.8 -7.8 -7.9 --- --- 4.3 N 0.07 5.2 -11.9 --- --- 731.0 0.018 0.000 8.6 7 1
02/03/06 2:54 p -7.9 -7.8 -7.9 --- --- 4.3 N 0.07 5.2 -12.0 --- --- 731.0 0.018 0.000 8.6 7 1
02/03/06 2:55 p -7.9 -7.9 -7.9 --- --- 4.3 N 0.07 5.2 -12.0 --- --- 731.0 0.018 0.000 8.6 7 1
02/03/06 2:56 p -7.9 -7.9 -7.9 --- --- 4.3 N 0.07 5.2 -12.1 --- --- 731.0 0.018 0.000 8.5 7 1
02/03/06 2:57 p -7.9 -7.9 -7.9 --- --- 4.3 N 0.07 5.2 -12.1 --- --- 731.0 0.018 0.000 8.5 7 1
02/03/06 2:58 p -8.0 -8.0 -8.1 --- --- 3.5 N 0.06 4.3 -11.4 --- --- 731.0 0.018 0.000 8.5 7 1
02/03/06 2:59 p -8.1 -8.1 -8.1 --- --- 3.5 N 0.06 4.3 -11.5 --- --- 731.0 0.018 0.000 8.5 7 1
02/03/06 3:00 p -8.0 -8.0 -8.1 --- --- 3.5 N 0.06 4.3 -11.4 --- --- 731.0 0.018 0.000 8.5 7 1
02/03/06 3:02 p -8.0 -7.9 -8.0 --- --- 3.5 N 0.06 4.3 -11.4 --- --- 731.0 0.018 0.000 8.5 7 1
02/03/06 3:03 p -8.0 -7.9 -8.0 --- --- 3.5 N 0.06 4.3 -11.4 --- --- 731.1 0.018 0.000 8.5 7 1
02/03/06 3:04 p -7.9 -7.9 -7.9 --- --- 2.6 N 0.04 3.5 -10.5 --- --- 731.1 0.018 0.000 8.5 7 1
02/03/06 3:05 p -7.9 -7.9 -7.9 --- --- 2.6 N 0.04 3.5 -10.5 --- --- 731.0 0.018 0.000 8.5 7 1
02/03/06 3:06 p -7.9 -7.9 -7.9 --- --- 2.6 N 0.04 3.5 -10.4 --- --- 731.1 0.018 0.000 8.5 7 1
02/03/06 3:07 p -7.9 -7.9 -7.9 --- --- 2.6 N 0.04 3.5 -10.4 --- --- 731.1 0.018 0.000 8.5 7 1
02/03/06 3:08 p -7.9 -7.9 -7.9 --- --- 2.6 N 0.04 3.5 -10.4 --- --- 731.0 0.018 0.000 8.5 7 1
02/03/06 3:09 p -7.9 -7.9 -7.9 --- --- 2.6 N 0.04 3.5 -10.4 --- --- 731.0 0.018 0.000 8.5 7 1
02/03/06 3:10 p -7.9 -7.8 -7.9 --- --- 2.6 N 0.04 3.5 -10.4 --- --- 731.0 0.018 0.000 8.5 7 1
02/03/06 3:11 p -7.9 -7.9 -7.9 --- --- 3.5 N 0.06 3.5 -11.3 --- --- 731.0 0.018 0.000 8.5 7 1
02/03/06 3:12 p -7.9 -7.9 -7.9 --- --- 1.7 N 0.03 2.6 -9.2 --- --- 731.0 0.018 0.000 8.5 7 1
02/03/06 3:13 p -7.9 -7.9 -7.9 --- --- 2.6 N 0.04 3.5 -10.4 --- --- 731.0 0.018 0.000 8.5 7 1
02/03/06 3:14 p -7.9 -7.9 -7.9 --- --- 2.6 N 0.04 3.5 -10.4 --- --- 730.9 0.018 0.000 8.4 7 1
02/03/06 3:15 p -7.9 -7.9 -7.9 --- --- 2.6 N 0.04 4.3 -10.5 --- --- 731.0 0.018 0.000 8.4 7 1
02/03/06 3:16 p -7.9 -7.9 -7.9 --- --- 3.5 N 0.06 4.3 -11.3 --- --- 730.9 0.018 0.000 8.4 7 1
02/03/06 3:17 p -7.8 -7.8 -7.9 --- --- 4.3 N 0.07 5.2 -11.9 --- --- 731.0 0.018 0.000 8.4 7 1
02/03/06 3:18 p -7.9 -7.9 -8.0 --- --- 3.5 NNW 0.06 4.3 -11.3 --- --- 731.0 0.018 0.000 8.4 7 1
02/03/06 3:19 p -7.9 -7.9 -8.0 --- --- 3.5 NNW 0.06 5.2 -11.3 --- --- 730.9 0.018 0.000 8.4 7 1
02/03/06 3:20 p -7.9 -7.8 -7.9 --- --- 3.5 NNW 0.06 5.2 -11.3 --- --- 731.0 0.018 0.000 8.4 7 1
02/03/06 3:21 p -7.8 -7.8 -7.8 --- --- 2.6 NNW 0.04 3.5 -10.3 --- --- 731.0 0.018 0.000 8.4 7 1
02/03/06 3:22 p -7.8 -7.8 -7.8 --- --- 3.5 N 0.06 4.3 -11.2 --- --- 730.9 0.018 0.000 8.4 7 1
02/03/06 3:23 p -7.8 -7.8 -7.9 --- --- 2.6 N 0.04 3.5 -10.3 --- --- 731.0 0.018 0.000 8.4 7 1
02/03/06 3:24 p -7.9 -7.9 -7.9 --- --- 3.5 N 0.06 4.3 -11.3 --- --- 731.0 0.018 0.000 8.4 7 1
02/03/06 3:25 p -7.9 -7.9 -7.9 --- --- 3.5 N 0.06 4.3 -11.3 --- --- 731.0 0.018 0.000 8.4 7 1
02/03/06 3:26 p -7.8 -7.8 -7.9 --- --- 3.5 N 0.06 4.3 -11.2 --- --- 730.9 0.018 0.000 8.4 7 1
02/03/06 3:27 p -7.8 -7.8 -7.8 --- --- 3.5 N 0.06 4.3 -11.2 --- --- 730.9 0.018 0.000 8.4 7 1
02/03/06 3:28 p -7.8 -7.8 -7.8 --- --- 2.6 N 0.04 3.5 -10.3 --- --- 731.0 0.018 0.000 8.4 7 1
02/03/06 3:29 p -7.8 -7.8 -7.8 --- --- 2.6 N 0.04 3.5 -10.3 --- --- 731.0 0.018 0.000 8.4 7 1
02/03/06 3:30 p -7.8 -7.8 -7.8 --- --- 2.6 N 0.04 3.5 -10.3 --- --- 730.9 0.018 0.000 8.4 7 1
02/03/06 3:31 p -7.8 -7.8 -7.8 --- --- 2.6 N 0.04 3.5 -10.3 --- --- 731.1 0.018 0.000 8.4 7 1
02/03/06 3:32 p -7.8 -7.8 -7.8 --- --- 2.6 N 0.04 3.5 -10.3 --- --- 731.0 0.018 0.000 8.4 7 1
02/03/06 3:33 p -7.8 -7.7 -7.8 --- --- 3.5 N 0.06 3.5 -11.2 --- --- 731.0 0.018 0.000 8.4 7 1
02/03/06 3:34 p -7.8 -7.7 -7.8 --- --- 2.6 N 0.04 3.5 -10.3 --- --- 730.9 0.018 0.000 8.4 7 1
02/03/06 3:35 p -7.8 -7.8 -7.8 --- --- 1.7 N 0.03 2.6 -9.1 --- --- 731.0 0.018 0.000 8.4 7 1
02/03/06 3:36 p -7.8 -7.8 -7.8 --- --- 2.6 N 0.04 4.3 -10.3 --- --- 731.0 0.018 0.000 8.4 7 1
02/03/06 3:37 p -7.8 -7.8 -7.8 --- --- 2.6 N 0.04 3.5 -10.3 --- --- 731.0 0.018 0.000 8.4 7 1
02/03/06 3:38 p -7.8 -7.8 -7.8 --- --- 1.7 N 0.03 2.6 -9.2 --- --- 731.0 0.018 0.000 8.4 7 1
02/03/06 3:39 p -7.8 -7.8 -7.8 --- --- 1.7 N 0.03 2.6 -9.2 --- --- 731.1 0.018 0.000 8.4 7 1
02/03/06 3:40 p -7.8 -7.8 -7.8 --- --- 1.7 N 0.03 2.6 -9.1 --- --- 731.0 0.018 0.000 8.4 7 1
02/03/06 3:41 p -7.8 -7.8 -7.8 --- --- 2.6 N 0.04 3.5 -10.3 --- --- 731.0 0.018 0.000 8.4 7 1
02/03/06 3:42 p -7.8 -7.8 -7.8 --- --- 2.6 N 0.04 3.5 -10.3 --- --- 731.1 0.018 0.000 8.4 7 1
02/03/06 3:43 p -7.8 -7.8 -7.8 --- --- 2.6 N 0.04 2.6 -10.3 --- --- 731.0 0.018 0.000 8.5 7 1
02/03/06 3:44 p -7.8 -7.7 -7.8 --- --- 2.6 N 0.04 2.6 -10.3 --- --- 731.0 0.018 0.000 8.5 7 1
02/03/06 3:45 p -7.7 -7.7 -7.8 --- --- 1.7 N 0.03 2.6 -9.1 --- --- 731.0 0.018 0.000 8.5 7 1
02/03/06 3:46 p -7.7 -7.7 -7.7 --- --- 2.6 N 0.04 2.6 -10.2 --- --- 731.0 0.018 0.000 8.5 7 1
02/03/06 3:47 p -7.7 -7.7 -7.7 --- --- 2.6 N 0.04 3.5 -10.2 --- --- 730.9 0.018 0.000 8.5 7 1
02/03/06 3:48 p -7.7 -7.7 -7.8 --- --- 1.7 N 0.03 2.6 -9.1 --- --- 731.0 0.018 0.000 8.5 7 1
02/03/06 3:49 p -7.7 -7.7 -7.8 --- --- 2.6 N 0.04 4.3 -10.2 --- --- 730.9 0.018 0.000 8.6 7 1
02/03/06 3:50 p -7.7 -7.7 -7.7 --- --- 2.6 N 0.04 4.3 -10.2 --- --- 730.9 0.018 0.000 8.6 7 1
02/03/06 3:51 p -7.6 -7.6 -7.7 --- --- 2.6 N 0.04 3.5 -10.1 --- --- 731.0 0.018 0.000 8.6 7 1
02/03/06 3:52 p -7.6 -7.6 -7.6 --- --- 2.6 N 0.04 3.5 -10.1 --- --- 730.9 0.018 0.000 8.6 7 1
02/03/06 3:53 p -7.6 -7.6 -7.6 --- --- 3.5 N 0.06 4.3 -10.9 --- --- 730.9 0.018 0.000 8.6 7 1
02/03/06 3:54 p -7.6 -7.6 -7.6 --- --- 3.5 N 0.06 4.3 -10.9 --- --- 730.9 0.018 0.000 8.6 7 1
02/03/06 3:55 p -7.6 -7.6 -7.7 --- --- 2.6 N 0.04 4.3 -10.1 --- --- 730.9 0.018 0.000 8.6 8 1
02/03/06 3:56 p -7.6 -7.6 -7.7 --- --- 3.5 N 0.06 4.3 -10.9 --- --- 730.9 0.018 0.000 8.6 7 1
02/03/06 3:57 p -7.7 -7.6 -7.7 --- --- 3.5 N 0.06 5.2 -11.1 --- --- 731.0 0.018 0.000 8.6 7 1
02/03/06 3:58 p -7.6 -7.6 -7.6 --- --- 3.5 N 0.06 4.3 -10.9 --- --- 730.9 0.018 0.000 8.6 8 1
02/03/06 3:59 p -7.6 -7.6 -7.6 --- --- 2.6 N 0.04 3.5 -10.1 --- --- 731.0 0.018 0.000 8.6 7 1
02/03/06 4:00 p -7.6 -7.6 -7.6 --- --- 3.5 N 0.06 4.3 -10.9 --- --- 730.9 0.018 0.000 8.6 7 1
02/03/06 4:02 p -7.5 -7.5 -7.6 --- --- 3.5 N 0.06 4.3 -10.8 --- --- 730.9 0.018 0.000 8.6 7 1
02/03/06 4:03 p -7.4 -7.4 -7.5 --- --- 3.5 N 0.06 4.3 -10.8 --- --- 730.8 0.018 0.000 8.5 7 1
02/03/06 4:04 p -7.4 -7.4 -7.5 --- --- 3.5 N 0.06 5.2 -10.8 --- --- 730.9 0.018 0.000 8.5 7 1
02/03/06 4:05 p -7.4 -7.4 -7.4 --- --- 3.5 N 0.06 5.2 -10.8 --- --- 730.9 0.018 0.000 8.5 7 1
02/03/06 4:06 p -7.3 -7.3 -7.4 --- --- 4.3 N 0.07 5.2 -11.3 --- --- 730.8 0.018 0.000 8.6 7 1
02/03/06 4:07 p -7.3 -7.3 -7.3 --- --- 4.3 N 0.07 5.2 -11.3 --- --- 730.8 0.018 0.000 8.6 7 1
02/03/06 4:08 p -7.3 -7.3 -7.3 --- --- 4.3 N 0.07 5.2 -11.3 --- --- 730.9 0.018 0.000 8.5 7 1
02/03/06 4:09 p -7.3 -7.3 -7.4 --- --- 4.3 N 0.07 5.2 -11.3 --- --- 730.9 0.018 0.000 8.5 7 1
02/03/06 4:10 p -7.4 -7.4 -7.4 --- --- 4.3 N 0.07 5.2 -11.4 --- --- 730.8 0.018 0.000 8.5 7 1
02/03/06 4:11 p -7.3 -7.3 -7.4 --- --- 4.3 N 0.07 5.2 -11.3 --- --- 730.9 0.018 0.000 8.5 7 1
02/03/06 4:12 p -7.4 -7.4 -7.4 --- --- 3.5 N 0.06 5.2 -10.7 --- --- 730.9 0.018 0.000 8.5 7 1
02/03/06 4:13 p -7.4 -7.3 -7.4 --- --- 3.5 N 0.06 4.3 -10.7 --- --- 730.9 0.018 0.000 8.5 7 1
02/03/06 4:14 p -7.4 -7.4 -7.4 --- --- 3.5 N 0.06 4.3 -10.7 --- --- 730.9 0.018 0.000 8.5 7 1
02/03/06 4:15 p -7.5 -7.4 -7.5 --- --- 3.5 N 0.06 4.3 -10.8 --- --- 730.9 0.018 0.000 8.5 7 1
02/03/06 4:16 p -7.4 -7.4 -7.5 --- --- 3.5 N 0.06 5.2 -10.8 --- --- 730.8 0.018 0.000 8.5 7 1
02/03/06 4:17 p -7.3 -7.3 -7.3 --- --- 4.3 N 0.07 6.1 -11.3 --- --- 730.9 0.018 0.000 8.5 7 1
02/03/06 4:18 p -7.3 -7.3 -7.3 --- --- 4.3 N 0.07 5.2 -11.3 --- --- 730.9 0.018 0.000 8.5 7 1
02/03/06 4:19 p -7.2 -7.2 -7.3 --- --- 4.3 N 0.07 6.1 -11.2 --- --- 730.9 0.018 0.000 8.5 7 1
02/03/06 4:20 p -7.1 -7.1 -7.2 --- --- 5.2 N 0.09 7.0 -11.7 --- --- 730.9 0.018 0.000 8.5 7 1
02/03/06 4:21 p -7.1 -7.0 -7.1 --- --- 5.2 N 0.09 6.1 -11.6 --- --- 730.8 0.018 0.000 8.5 7 1
02/03/06 4:22 p -6.9 -6.9 -7.0 --- --- 5.2 N 0.09 7.0 -11.5 --- --- 730.9 0.018 0.000 8.5 7 1
02/03/06 4:23 p -6.9 -6.9 -6.9 --- --- 5.2 N 0.09 5.2 -11.5 --- --- 730.8 0.018 0.000 8.5 7 1
02/03/06 4:24 p -6.9 -6.8 -6.9 --- --- 5.2 N 0.09 6.1 -11.4 --- --- 730.9 0.018 0.000 8.4 7 1
02/03/06 4:25 p -6.8 -6.8 -6.8 --- --- 5.2 N 0.09 7.0 -11.3 --- --- 730.9 0.017 0.000 8.4 7 1
02/03/06 4:26 p -6.8 -6.8 -6.8 --- --- 5.2 N 0.09 6.1 -11.3 --- --- 730.9 0.017 0.000 8.4 7 1
02/03/06 4:27 p -6.8 -6.8 -6.8 --- --- 5.2 N 0.09 7.0 -11.3 --- --- 730.9 0.017 0.000 8.4 7 1
02/03/06 4:28 p -6.8 -6.8 -6.8 --- --- 5.2 N 0.09 7.0 -11.3 --- --- 730.9 0.017 0.000 8.4 7 1
02/03/06 4:29 p -6.8 -6.8 -6.8 --- --- 5.2 N 0.09 6.1 -11.3 --- --- 730.9 0.017 0.000 8.4 7 1
02/03/06 4:30 p -6.8 -6.7 -6.8 --- --- 5.2 N 0.09 7.0 -11.3 --- --- 730.9 0.017 0.000 8.4 7 1
02/03/06 4:31 p -6.7 -6.7 -6.7 --- --- 4.3 N 0.07 5.2 -10.6 --- --- 730.9 0.017 0.000 8.4 7 1
02/03/06 4:32 p -6.7 -6.7 -6.7 --- --- 3.5 N 0.06 4.3 -9.9 --- --- 730.9 0.017 0.000 8.4 7 1
02/03/06 4:33 p -6.7 -6.7 -6.7 --- --- 4.3 N 0.07 5.2 -10.6 --- --- 730.9 0.017 0.000 8.5 7 1
02/03/06 4:34 p -6.7 -6.6 -6.7 --- --- 3.5 N 0.06 5.2 -9.9 --- --- 730.9 0.017 0.000 8.4 7 1
02/03/06 4:35 p -6.6 -6.6 -6.7 --- --- 4.3 N 0.07 5.2 -10.5 --- --- 730.9 0.017 0.000 8.4 7 1
02/03/06 4:36 p -6.6 -6.6 -6.6 --- --- 4.3 N 0.07 6.1 -10.5 --- --- 730.8 0.017 0.000 8.4 7 1
02/03/06 4:37 p -6.6 -6.6 -6.6 --- --- 3.5 N 0.06 4.3 -9.8 --- --- 731.0 0.017 0.000 8.4 7 1
02/03/06 4:38 p -6.6 -6.5 -6.6 --- --- 4.3 N 0.07 5.2 -10.4 --- --- 731.0 0.017 0.000 8.4 7 1
02/03/06 4:39 p -6.4 -6.4 -6.5 --- --- 4.3 N 0.07 5.2 -10.3 --- --- 731.0 0.017 0.000 8.4 7 1
02/03/06 4:40 p -6.4 -6.4 -6.4 --- --- 4.3 N 0.07 6.1 -10.3 --- --- 730.9 0.017 0.000 8.4 7 1
02/03/06 4:41 p -6.4 -6.4 -6.4 --- --- 4.3 N 0.07 5.2 -10.3 --- --- 730.9 0.017 0.000 8.4 7 1
02/03/06 4:42 p -6.4 -6.4 -6.4 --- --- 4.3 N 0.07 6.1 -10.3 --- --- 730.9 0.017 0.000 8.4 7 1
02/03/06 4:43 p -6.4 -6.4 -6.4 --- --- 3.5 N 0.06 5.2 -9.6 --- --- 730.9 0.017 0.000 8.4 7 1
02/03/06 4:44 p -6.4 -6.4 -6.5 --- --- 4.3 N 0.07 5.2 -10.3 --- --- 730.9 0.017 0.000 8.4 7 1
02/03/06 4:45 p -6.5 -6.4 -6.5 --- --- 4.3 N 0.07 5.2 -10.4 --- --- 730.9 0.017 0.000 8.4 7 1
02/03/06 4:46 p -6.4 -6.4 -6.4 --- --- 4.3 N 0.07 5.2 -10.3 --- --- 730.9 0.017 0.000 8.4 8 1
02/03/06 4:47 p -6.4 -6.4 -6.4 --- --- 3.5 N 0.06 4.3 -9.6 --- --- 730.9 0.017 0.000 8.4 7 1
02/03/06 4:48 p -6.4 -6.4 -6.4 --- --- 4.3 N 0.07 5.2 -10.2 --- --- 730.9 0.017 0.000 8.4 7 1
02/03/06 4:49 p -6.3 -6.3 -6.4 --- --- 3.5 N 0.06 5.2 -9.5 --- --- 730.9 0.017 0.000 8.4 8 1
02/03/06 4:50 p -6.3 -6.3 -6.3 --- --- 3.5 N 0.06 4.3 -9.5 --- --- 730.8 0.017 0.000 8.4 8 1
02/03/06 4:51 p -6.3 -6.3 -6.3 --- --- 3.5 N 0.06 4.3 -9.5 --- --- 730.9 0.017 0.000 8.4 7 1
02/03/06 4:52 p -6.3 -6.3 -6.3 --- --- 3.5 N 0.06 4.3 -9.5 --- --- 730.9 0.017 0.000 8.4 7 1
02/03/06 4:53 p -6.3 -6.3 -6.3 --- --- 3.5 N 0.06 4.3 -9.5 --- --- 730.8 0.017 0.000 8.4 7 1
02/03/06 4:54 p -6.3 -6.3 -6.3 --- --- 2.6 N 0.04 3.5 -8.6 --- --- 730.9 0.017 0.000 8.4 7 1
02/03/06 4:55 p -6.3 -6.3 -6.3 --- --- 2.6 N 0.04 3.5 -8.6 --- --- 730.8 0.017 0.000 8.4 7 1
02/03/06 4:56 p -6.3 -6.3 -6.3 --- --- 2.6 N 0.04 3.5 -8.7 --- --- 730.8 0.017 0.000 8.4 7 1
02/03/06 4:57 p -6.3 -6.3 -6.3 --- --- 3.5 N 0.06 4.3 -9.5 --- --- 730.8 0.017 0.000 8.4 8 1
02/03/06 4:58 p -6.3 -6.3 -6.4 --- --- 3.5 N 0.06 4.3 -9.5 --- --- 731.0 0.017 0.000 8.4 7 1
02/03/06 4:59 p -6.4 -6.3 -6.4 --- --- 4.3 N 0.07 4.3 -10.2 --- --- 730.8 0.017 0.000 8.4 8 1
02/03/06 5:00 p -6.4 -6.3 -6.4 --- --- 4.3 N 0.07 5.2 -10.2 --- --- 730.9 0.017 0.000 8.4 8 1
02/03/06 5:02 p -6.3 -6.3 -6.4 --- --- 2.6 N 0.04 3.5 -8.7 --- --- 730.8 0.017 0.000 8.4 7 1
02/03/06 5:03 p -6.3 -6.3 -6.3 --- --- 3.5 N 0.06 4.3 -9.5 --- --- 730.9 0.017 0.000 8.4 8 1
02/03/06 5:04 p -6.3 -6.3 -6.4 --- --- 3.5 N 0.06 4.3 -9.5 --- --- 730.9 0.017 0.000 8.4 8 1
02/03/06 5:05 p -6.4 -6.3 -6.4 --- --- 2.6 N 0.04 3.5 -8.7 --- --- 730.9 0.017 0.000 8.4 7 1
02/03/06 5:06 p -6.3 -6.3 -6.4 --- --- 3.5 N 0.06 3.5 -9.5 --- --- 730.8 0.017 0.000 8.4 8 1
02/03/06 5:07 p -6.4 -6.4 -6.4 --- --- 4.3 N 0.07 5.2 -10.2 --- --- 730.9 0.017 0.000 8.4 7 1
02/03/06 5:08 p -6.4 -6.4 -6.4 --- --- 4.3 N 0.07 5.2 -10.2 --- --- 730.9 0.017 0.000 8.4 8 1
02/03/06 5:09 p -6.4 -6.4 -6.4 --- --- 2.6 N 0.04 4.3 -8.8 --- --- 730.8 0.017 0.000 8.5 8 1
02/03/06 5:10 p -6.4 -6.3 -6.4 --- --- 3.5 N 0.06 3.5 -9.6 --- --- 730.9 0.017 0.000 8.5 8 1
02/03/06 5:11 p -6.3 -6.3 -6.3 --- --- 3.5 N 0.06 5.2 -9.4 --- --- 730.8 0.017 0.000 8.5 7 1
02/03/06 5:12 p -6.3 -6.3 -6.3 --- --- 3.5 N 0.06 5.2 -9.4 --- --- 730.8 0.017 0.000 8.5 7 1
02/03/06 5:13 p -6.3 -6.3 -6.3 --- --- 3.5 N 0.06 5.2 -9.4 --- --- 730.9 0.017 0.000 8.5 8 1
02/03/06 5:14 p -6.3 -6.3 -6.3 --- --- 5.2 N 0.09 6.1 -10.7 --- --- 730.8 0.017 0.000 8.5 7 1
02/03/06 5:15 p -6.4 -6.3 -6.4 --- --- 5.2 NNW 0.09 6.1 -10.8 --- --- 730.9 0.017 0.000 8.5 8 1
02/03/06 5:16 p -6.4 -6.4 -6.6 --- --- 3.5 NNW 0.06 4.3 -9.6 --- --- 730.9 0.017 0.000 8.5 8 1
02/03/06 5:17 p -6.6 -6.6 -6.6 --- --- 3.5 NNW 0.06 3.5 -9.8 --- --- 730.8 0.017 0.000 8.6 8 1
02/03/06 5:18 p -6.6 -6.6 -6.7 --- --- 2.6 NNW 0.04 3.5 -8.9 --- --- 730.8 0.017 0.000 8.6 7 1
02/03/06 5:19 p -6.7 -6.6 -6.7 --- --- 2.6 NNW 0.04 3.5 -9.1 --- --- 730.9 0.017 0.000 8.5 8 1
02/03/06 5:20 p -6.6 -6.6 -6.6 --- --- 1.7 NNW 0.03 2.6 -7.8 --- --- 731.0 0.017 0.000 8.6 7 1
02/03/06 5:21 p -6.6 -6.5 -6.6 --- --- 1.7 NNW 0.03 2.6 -7.8 --- --- 730.9 0.017 0.000 8.5 8 1
02/03/06 5:22 p -6.4 -6.4 -6.5 --- --- 1.7 NNW 0.03 2.6 -7.7 --- --- 731.0 0.017 0.000 8.5 8 1
02/03/06 5:23 p -6.4 -6.3 -6.4 --- --- 1.7 NNW 0.03 2.6 -7.6 --- --- 731.0 0.017 0.000 8.5 8 1
02/03/06 5:24 p -6.3 -6.3 -6.3 --- --- 2.6 NNW 0.04 2.6 -8.7 --- --- 731.0 0.017 0.000 8.5 8 1
02/03/06 5:25 p -6.3 -6.3 -6.3 --- --- 2.6 NNW 0.04 3.5 -8.6 --- --- 731.0 0.017 0.000 8.5 8 1
02/03/06 5:26 p -6.3 -6.3 -6.3 --- --- 1.7 NNW 0.03 2.6 -7.5 --- --- 730.8 0.017 0.000 8.5 8 1
02/03/06 5:27 p -6.3 -6.3 -6.3 --- --- 1.7 NNW 0.03 2.6 -7.5 --- --- 730.9 0.017 0.000 8.5 7 1
02/03/06 5:28 p -6.3 -6.3 -6.3 --- --- 0.9 NNW 0.01 1.7 -6.3 --- --- 731.0 0.017 0.000 8.5 8 1
02/03/06 5:29 p -6.3 -6.3 -6.3 --- --- 1.7 NNW 0.03 2.6 -7.5 --- --- 731.0 0.017 0.000 8.5 7 1
02/03/06 5:30 p -6.3 -6.2 -6.3 --- --- 0.9 NNW 0.01 1.7 -6.3 --- --- 731.0 0.017 0.000 8.5 7 1
02/03/06 5:31 p -6.2 -6.2 -6.2 --- --- 0.9 NNW 0.01 1.7 -6.2 --- --- 731.0 0.017 0.000 8.5 8 1
02/03/06 5:32 p -6.2 -6.2 -6.2 --- --- 0.9 NNW 0.01 1.7 -6.2 --- --- 731.0 0.017 0.000 8.4 7 1
02/03/06 5:33 p -6.2 -6.1 -6.2 --- --- 0.0 --- 0.00 0.9 -6.2 --- --- 731.0 0.017 0.000 8.4 8 1
02/03/06 5:34 p -6.1 -6.1 -6.2 --- --- 0.0 NNW 0.00 0.9 -6.1 --- --- 731.0 0.017 0.000 8.4 7 1
02/03/06 5:35 p -6.2 -6.2 -6.2 --- --- 0.0 --- 0.00 0.9 -6.2 --- --- 731.0 0.017 0.000 8.4 8 1
02/03/06 5:36 p -6.2 -6.1 -6.2 --- --- 0.0 --- 0.00 0.0 -6.2 --- --- 731.0 0.017 0.000 8.4 7 1
02/03/06 5:37 p -6.1 -6.1 -6.1 --- --- 0.0 --- 0.00 0.0 -6.1 --- --- 731.0 0.017 0.000 8.4 8 1
02/03/06 5:38 p -6.1 -6.0 -6.1 --- --- 0.0 --- 0.00 0.0 -6.1 --- --- 730.9 0.017 0.000 8.4 8 1
02/03/06 5:39 p -6.0 -6.0 -6.0 --- --- 0.0 NNW 0.00 0.9 -6.0 --- --- 731.0 0.017 0.000 8.4 7 1
02/03/06 5:40 p -5.9 -5.9 -6.0 --- --- 0.0 NNW 0.00 0.9 -5.9 --- --- 730.9 0.017 0.000 8.4 8 1
02/03/06 5:41 p -5.9 -5.9 -5.9 --- --- 0.0 --- 0.00 0.0 -5.9 --- --- 730.9 0.017 0.000 8.4 8 1
02/03/06 5:42 p -5.9 -5.9 -5.9 --- --- 0.0 --- 0.00 0.0 -5.9 --- --- 731.0 0.017 0.000 8.4 8 1
02/03/06 5:43 p -5.9 -5.9 -5.9 --- --- 0.0 NNW 0.00 0.9 -5.9 --- --- 730.9 0.017 0.000 8.4 8 1
02/03/06 5:44 p -5.9 -5.9 -5.9 --- --- 0.0 NNW 0.00 0.9 -5.9 --- --- 731.0 0.017 0.000 8.4 8 1
02/03/06 5:45 p -6.0 -5.9 -6.1 --- --- 0.0 NNW 0.00 0.9 -6.0 --- --- 731.0 0.017 0.000 8.4 7 1
02/03/06 5:46 p -6.1 -6.0 -6.1 --- --- 0.0 --- 0.00 0.0 -6.1 --- --- 730.9 0.017 0.000 8.4 8 1
02/03/06 5:47 p -5.9 -5.9 -5.9 --- --- 0.0 NNW 0.00 0.9 -5.9 --- --- 730.9 0.017 0.000 8.4 8 1
02/03/06 5:48 p -5.9 -5.9 -5.9 --- --- 0.9 NNW 0.01 0.9 -5.9 --- --- 730.9 0.017 0.000 8.4 7 1
02/03/06 5:49 p -5.9 -5.9 -5.9 --- --- 0.0 NNW 0.00 0.9 -5.9 --- --- 731.0 0.017 0.000 8.4 8 1
02/03/06 5:50 p -5.9 -5.9 -5.9 --- --- 0.0 --- 0.00 0.0 -5.9 --- --- 730.9 0.017 0.000 8.4 7 1
02/03/06 5:51 p -5.9 -5.9 -5.9 --- --- 0.9 NNW 0.01 1.7 -5.9 --- --- 730.9 0.017 0.000 8.4 8 1
02/03/06 5:52 p -5.8 -5.8 -5.9 --- --- 0.9 NNW 0.01 1.7 -5.8 --- --- 730.9 0.017 0.000 8.4 7 1
02/03/06 5:53 p -5.9 -5.8 -5.9 --- --- 0.9 NNW 0.01 1.7 -5.9 --- --- 731.0 0.017 0.000 8.4 8 1
02/03/06 5:54 p -6.0 -5.9 -6.0 --- --- 0.9 NNW 0.01 1.7 -6.0 --- --- 731.0 0.017 0.000 8.4 8 1
02/03/06 5:55 p -6.0 -6.0 -6.1 --- --- 1.7 NNW 0.03 2.6 -7.2 --- --- 731.0 0.017 0.000 8.4 7 1
02/03/06 5:56 p -6.1 -6.0 -6.1 --- --- 1.7 NNW 0.03 3.5 -7.2 --- --- 731.0 0.017 0.000 8.4 8 1
02/03/06 5:57 p -6.1 -6.1 -6.1 --- --- 2.6 NNW 0.04 3.5 -8.3 --- --- 730.9 0.017 0.000 8.4 8 1
02/03/06 5:58 p -6.1 -6.1 -6.1 --- --- 2.6 NNW 0.04 4.3 -8.4 --- --- 731.0 0.017 0.000 8.4 8 1
02/03/06 5:59 p -6.1 -6.0 -6.1 --- --- 3.5 N 0.06 4.3 -9.2 --- --- 730.9 0.017 0.000 8.4 8 1
02/03/06 6:00 p -5.9 -5.9 -6.0 --- --- 3.5 N 0.06 4.3 -9.1 --- --- 731.0 0.017 0.000 8.4 8 1
02/03/06 6:02 p -6.1 -6.1 -6.1 --- --- 2.6 N 0.04 4.3 -8.3 --- --- 731.0 0.017 0.000 8.4 8 1
02/03/06 6:03 p -6.0 -5.9 -6.1 --- --- 2.6 N 0.04 3.5 -8.3 --- --- 730.9 0.017 0.000 8.4 7 1
02/03/06 6:04 p -5.8 -5.8 -5.9 --- --- 2.6 N 0.04 3.5 -8.1 --- --- 730.9 0.017 0.000 8.4 8 1
02/03/06 6:05 p -5.7 -5.6 -5.7 --- --- 3.5 N 0.06 4.3 -8.7 --- --- 731.1 0.017 0.000 8.4 8 1
02/03/06 6:06 p -5.6 -5.6 -5.6 --- --- 3.5 N 0.06 4.3 -8.6 --- --- 731.1 0.017 0.000 8.4 8 1
02/03/06 6:07 p -5.6 -5.6 -5.7 --- --- 3.5 N 0.06 4.3 -8.7 --- --- 731.0 0.017 0.000 8.4 8 1
02/03/06 6:08 p -5.7 -5.7 -5.7 --- --- 2.6 N 0.04 3.5 -7.9 --- --- 730.9 0.017 0.000 8.4 8 1
02/03/06 6:09 p -5.6 -5.6 -5.7 --- --- 2.6 N 0.04 3.5 -7.8 --- --- 730.9 0.017 0.000 8.4 8 1
02/03/06 6:10 p -5.6 -5.6 -5.6 --- --- 2.6 N 0.04 3.5 -7.8 --- --- 730.9 0.017 0.000 8.4 8 1
02/03/06 6:11 p -5.4 -5.4 -5.6 --- --- 3.5 N 0.06 3.5 -8.4 --- --- 731.0 0.017 0.000 8.4 8 1
02/03/06 6:12 p -5.4 -5.3 -5.4 --- --- 3.5 N 0.06 4.3 -8.4 --- --- 731.0 0.016 0.000 8.4 7 1
02/03/06 6:13 p -5.4 -5.4 -5.5 --- --- 3.5 N 0.06 4.3 -8.4 --- --- 731.0 0.017 0.000 8.4 8 1
02/03/06 6:14 p -5.4 -5.4 -5.4 --- --- 3.5 N 0.06 4.3 -8.4 --- --- 731.0 0.017 0.000 8.4 8 1
02/03/06 6:15 p -5.4 -5.3 -5.4 --- --- 3.5 N 0.06 4.3 -8.4 --- --- 731.0 0.016 0.000 8.4 7 1
02/03/06 6:16 p -5.3 -5.2 -5.3 --- --- 3.5 NNE 0.06 4.3 -8.3 --- --- 731.0 0.016 0.000 8.4 7 1
02/03/06 6:17 p -5.2 -5.1 -5.2 --- --- 3.5 NNE 0.06 3.5 -8.2 --- --- 731.0 0.016 0.000 8.4 8 1
02/03/06 6:18 p -5.0 -4.9 -5.1 --- --- 3.5 NE 0.06 5.2 -7.9 --- --- 730.9 0.016 0.000 8.4 8 1
02/03/06 6:19 p -4.8 -4.7 -4.9 --- --- 3.5 NE 0.06 4.3 -7.8 --- --- 730.9 0.016 0.000 8.4 8 1
02/03/06 6:20 p -4.7 -4.7 -4.7 --- --- 4.3 NE 0.07 4.3 -8.3 --- --- 731.0 0.016 0.000 8.4 7 1
02/03/06 6:21 p -4.7 -4.6 -4.7 --- --- 3.5 NNE 0.06 4.3 -7.6 --- --- 731.0 0.016 0.000 8.4 8 1
02/03/06 6:22 p -4.7 -4.7 -4.7 --- --- 2.6 NNE 0.04 3.5 -6.8 --- --- 730.9 0.016 0.000 8.4 8 1
02/03/06 6:23 p -4.7 -4.6 -4.7 --- --- 3.5 NNE 0.06 4.3 -7.6 --- --- 730.9 0.016 0.000 8.4 8 1
02/03/06 6:24 p -4.6 -4.6 -4.6 --- --- 3.5 NNE 0.06 4.3 -7.4 --- --- 731.0 0.016 0.000 8.4 8 1
02/03/06 6:25 p -4.6 -4.6 -4.6 --- --- 2.6 NNE 0.04 3.5 -6.7 --- --- 731.0 0.016 0.000 8.4 8 1
02/03/06 6:26 p -4.8 -4.6 -5.0 --- --- 1.7 NNE 0.03 2.6 -5.9 --- --- 730.9 0.016 0.000 8.4 8 1
02/03/06 6:27 p -5.2 -5.1 -5.3 --- --- 1.7 NNE 0.03 2.6 -6.3 --- --- 731.0 0.016 0.000 8.4 8 1
02/03/06 6:28 p -5.3 -5.3 -5.3 --- --- 1.7 NNE 0.03 1.7 -6.4 --- --- 731.0 0.016 0.000 8.4 8 1
02/03/06 6:29 p -5.3 -5.3 -5.3 --- --- 0.9 NNE 0.01 1.7 -5.3 --- --- 731.0 0.016 0.000 8.4 8 1
02/03/06 6:30 p -5.2 -5.1 -5.3 --- --- 1.7 NNE 0.03 2.6 -6.3 --- --- 731.0 0.016 0.000 8.4 8 1
02/03/06 6:31 p -4.9 -4.8 -5.0 --- --- 2.6 NNE 0.04 4.3 -7.0 --- --- 731.0 0.016 0.000 8.4 8 1
02/03/06 6:32 p -4.7 -4.6 -4.7 --- --- 2.6 NE 0.04 3.5 -6.8 --- --- 730.9 0.016 0.000 8.4 8 1
02/03/06 6:33 p -4.5 -4.4 -4.6 --- --- 2.6 NE 0.04 3.5 -6.6 --- --- 730.9 0.016 0.000 8.4 8 1
02/03/06 6:34 p -4.3 -4.3 -4.4 --- --- 3.5 NE 0.06 3.5 -7.2 --- --- 731.0 0.016 0.000 8.4 8 1
02/03/06 6:35 p -4.3 -4.2 -4.3 --- --- 2.6 NE 0.04 3.5 -6.3 --- --- 731.0 0.016 0.000 8.4 8 1
02/03/06 6:36 p -4.2 -4.1 -4.2 --- --- 2.6 NE 0.04 3.5 -6.2 --- --- 731.0 0.016 0.000 8.4 8 1
02/03/06 6:37 p -4.1 -4.1 -4.1 --- --- 2.6 NE 0.04 3.5 -6.1 --- --- 731.0 0.016 0.000 8.5 8 1
02/03/06 6:38 p -4.1 -4.0 -4.1 --- --- 3.5 NE 0.06 4.3 -6.9 --- --- 731.0 0.016 0.000 8.5 8 1
02/03/06 6:39 p -4.0 -4.0 -4.0 --- --- 3.5 NE 0.06 4.3 -6.8 --- --- 731.0 0.016 0.000 8.5 8 1
02/03/06 6:40 p -4.0 -3.9 -4.0 --- --- 2.6 NE 0.04 3.5 -6.0 --- --- 730.9 0.016 0.000 8.5 7 1
02/03/06 6:41 p -3.9 -3.9 -3.9 --- --- 3.5 NE 0.06 4.3 -6.7 --- --- 731.0 0.015 0.000 8.5 8 1
02/03/06 6:42 p -3.9 -3.9 -3.9 --- --- 4.3 NE 0.07 5.2 -7.3 --- --- 730.9 0.015 0.000 8.6 8 1
02/03/06 6:43 p -3.9 -3.9 -4.0 --- --- 4.3 NE 0.07 5.2 -7.4 --- --- 730.9 0.015 0.000 8.6 7 1
02/03/06 6:44 p -4.0 -4.0 -4.0 --- --- 4.3 NE 0.07 5.2 -7.4 --- --- 731.0 0.016 0.000 8.6 7 1
02/03/06 6:45 p -4.0 -4.0 -4.1 --- --- 5.2 NE 0.09 6.1 -7.9 --- --- 730.9 0.016 0.000 8.6 7 1
02/03/06 6:46 p -4.1 -4.1 -4.1 --- --- 6.1 NE 0.10 7.0 -8.5 --- --- 731.0 0.016 0.000 8.6 8 1
02/03/06 6:47 p -4.2 -4.1 -4.2 --- --- 6.1 NE 0.10 6.1 -8.6 --- --- 731.0 0.016 0.000 8.6 7 1
02/03/06 6:48 p -4.2 -4.1 -4.2 --- --- 5.2 NE 0.09 6.1 -8.2 --- --- 731.0 0.016 0.000 8.6 7 1
02/03/06 6:49 p -4.1 -4.0 -4.1 --- --- 5.2 NE 0.09 6.1 -8.1 --- --- 731.0 0.016 0.000 8.6 7 1
02/03/06 6:50 p -4.1 -4.1 -4.1 --- --- 5.2 NE 0.09 6.1 -8.1 --- --- 731.0 0.016 0.000 8.6 7 1
02/03/06 6:51 p -4.1 -4.0 -4.1 --- --- 4.3 NE 0.07 6.1 -7.5 --- --- 731.0 0.016 0.000 8.6 7 1
02/03/06 6:52 p -4.1 -4.1 -4.1 --- --- 6.1 NE 0.10 6.1 -8.5 --- --- 730.9 0.016 0.000 8.6 7 1
02/03/06 6:53 p -4.1 -4.1 -4.1 --- --- 5.2 NE 0.09 6.1 -8.1 --- --- 731.1 0.016 0.000 8.6 7 1
02/03/06 6:54 p -4.1 -4.1 -4.1 --- --- 4.3 NE 0.07 6.1 -7.6 --- --- 731.1 0.016 0.000 8.6 7 1
02/03/06 6:55 p -4.1 -4.1 -4.2 --- --- 5.2 ENE 0.09 6.1 -8.1 --- --- 731.1 0.016 0.000 8.5 7 1
02/03/06 6:56 p -4.2 -4.2 -4.2 --- --- 4.3 NE 0.07 5.2 -7.7 --- --- 731.0 0.016 0.000 8.5 7 1
02/03/06 6:57 p -4.2 -4.2 -4.3 --- --- 4.3 NE 0.07 5.2 -7.7 --- --- 731.0 0.016 0.000 8.5 7 1
02/03/06 6:58 p -4.3 -4.2 -4.3 --- --- 4.3 NE 0.07 7.0 -7.8 --- --- 731.1 0.016 0.000 8.5 7 1
02/03/06 6:59 p -4.4 -4.3 -4.5 --- --- 2.6 N 0.04 5.2 -6.5 --- --- 731.1 0.016 0.000 8.5 7 1
02/03/06 7:00 p -4.4 -4.4 -4.4 --- --- 4.3 NNE 0.07 5.2 -7.9 --- --- 731.0 0.016 0.000 8.5 7 1
02/03/06 7:01 p -4.4 -4.4 -4.5 --- --- 4.3 NE 0.07 5.2 -7.9 --- --- 731.1 0.016 0.000 8.5 7 1
02/03/06 7:02 p -4.4 -4.3 -4.5 --- --- 5.2 NE 0.09 6.1 -8.5 --- --- 731.0 0.016 0.000 8.5 7 1
02/03/06 7:03 p -4.3 -4.3 -4.4 --- --- 4.3 NE 0.07 5.2 -7.8 --- --- 731.0 0.016 0.000 8.5 7 1
02/03/06 7:04 p -4.3 -4.3 -4.4 --- --- 5.2 NE 0.09 6.1 -8.4 --- --- 731.0 0.016 0.000 8.4 7 1
02/03/06 7:05 p -4.3 -4.3 -4.4 --- --- 5.2 NE 0.09 6.1 -8.4 --- --- 731.1 0.016 0.000 8.5 7 1
02/03/06 7:06 p -4.4 -4.4 -4.4 --- --- 5.2 NE 0.09 6.1 -8.4 --- --- 731.0 0.016 0.000 8.5 7 1
02/03/06 7:07 p -4.4 -4.4 -4.4 --- --- 5.2 NE 0.09 6.1 -8.4 --- --- 730.9 0.016 0.000 8.5 7 1
02/03/06 7:08 p -4.4 -4.3 -4.4 --- --- 4.3 NE 0.07 6.1 -7.9 --- --- 731.0 0.016 0.000 8.5 7 1
02/03/06 7:09 p -4.3 -4.3 -4.3 --- --- 4.3 NE 0.07 5.2 -7.8 --- --- 731.1 0.016 0.000 8.5 7 1
02/03/06 7:10 p -4.3 -4.3 -4.3 --- --- 5.2 NE 0.09 6.1 -8.3 --- --- 731.0 0.016 0.000 8.5 7 1
02/03/06 7:11 p -4.4 -4.3 -4.4 --- --- 5.2 NE 0.09 6.1 -8.4 --- --- 731.0 0.016 0.000 8.5 7 1
02/03/06 7:12 p -4.4 -4.4 -4.4 --- --- 4.3 NE 0.07 5.2 -7.9 --- --- 731.0 0.016 0.000 8.5 7 1
02/03/06 7:13 p -4.4 -4.4 -4.4 --- --- 5.2 NE 0.09 6.1 -8.4 --- --- 731.1 0.016 0.000 8.5 7 1
02/03/06 7:14 p -4.4 -4.4 -4.4 --- --- 6.1 NE 0.10 7.8 -8.9 --- --- 731.1 0.016 0.000 8.5 7 1
02/03/06 7:15 p -4.4 -4.4 -4.5 --- --- 7.0 ENE 0.12 7.8 -9.4 --- --- 731.0 0.016 0.000 8.5 7 1
02/03/06 7:16 p -4.6 -4.6 -4.6 --- --- 6.1 ENE 0.10 7.8 -9.1 --- --- 731.1 0.016 0.000 8.5 7 1
02/03/06 7:17 p -4.6 -4.6 -4.6 --- --- 7.0 NE 0.12 7.8 -9.5 --- --- 731.0 0.016 0.000 8.4 7 1
02/03/06 7:18 p -4.6 -4.6 -4.6 --- --- 7.0 NE 0.12 7.8 -9.5 --- --- 731.0 0.016 0.000 8.4 7 1
02/03/06 7:19 p -4.6 -4.6 -4.6 --- --- 7.0 NE 0.12 7.0 -9.6 --- --- 731.1 0.016 0.000 8.4 7 1
02/03/06 7:20 p -4.7 -4.6 -4.7 --- --- 7.0 NE 0.12 7.8 -9.7 --- --- 731.0 0.016 0.000 8.4 7 1
02/03/06 7:21 p -4.7 -4.7 -4.7 --- --- 7.0 NE 0.12 7.8 -9.7 --- --- 731.1 0.016 0.000 8.5 7 1
02/03/06 7:22 p -4.7 -4.6 -4.7 --- --- 6.1 NE 0.10 7.0 -9.2 --- --- 731.1 0.016 0.000 8.5 7 1
02/03/06 7:23 p -4.6 -4.6 -4.7 --- --- 6.1 NE 0.10 7.0 -9.2 --- --- 731.1 0.016 0.000 8.5 7 1
02/03/06 7:24 p -4.6 -4.6 -4.6 --- --- 5.2 NE 0.09 7.0 -8.7 --- --- 731.0 0.016 0.000 8.5 7 1
02/03/06 7:25 p -4.6 -4.6 -4.6 --- --- 6.1 NE 0.10 6.1 -9.1 --- --- 731.0 0.016 0.000 8.5 7 1
02/03/06 7:26 p -4.5 -4.4 -4.5 --- --- 5.2 NE 0.09 6.1 -8.6 --- --- 731.1 0.016 0.000 8.5 7 1
02/03/06 7:27 p -4.4 -4.4 -4.4 --- --- 4.3 NE 0.07 5.2 -7.9 --- --- 731.1 0.016 0.000 8.5 7 1
02/03/06 7:28 p -4.6 -4.4 -4.7 --- --- 4.3 NNE 0.07 6.1 -8.1 --- --- 731.1 0.016 0.000 8.5 7 1
02/03/06 7:29 p -4.6 -4.6 -4.6 --- --- 6.1 NE 0.10 7.8 -9.2 --- --- 731.1 0.016 0.000 8.5 7 1
02/03/06 7:30 p -4.5 -4.5 -4.6 --- --- 7.0 NE 0.12 8.7 -9.4 --- --- 731.0 0.016 0.000 8.5 7 1
02/03/06 7:31 p -4.4 -4.4 -4.5 --- --- 4.3 NE 0.07 6.1 -7.9 --- --- 731.1 0.016 0.000 8.5 7 1
02/03/06 7:32 p -4.4 -4.4 -4.4 --- --- 6.1 NE 0.10 7.0 -8.9 --- --- 731.0 0.016 0.000 8.5 7 1
02/03/06 7:33 p -4.4 -4.3 -4.4 --- --- 5.2 NE 0.09 6.1 -8.4 --- --- 731.1 0.016 0.000 8.5 7 1
02/03/06 7:34 p -4.3 -4.3 -4.3 --- --- 4.3 NE 0.07 5.2 -7.8 --- --- 731.1 0.016 0.000 8.5 7 1
02/03/06 7:35 p -4.3 -4.3 -4.4 --- --- 3.5 NNE 0.06 5.2 -7.2 --- --- 731.1 0.016 0.000 8.5 7 1
02/03/06 7:36 p -4.3 -4.2 -4.3 --- --- 3.5 NNE 0.06 4.3 -7.1 --- --- 731.2 0.016 0.000 8.4 7 1
02/03/06 7:37 p -4.2 -4.2 -4.2 --- --- 4.3 NNE 0.07 6.1 -7.6 --- --- 731.1 0.016 0.000 8.4 7 1
02/03/06 7:38 p -4.1 -4.1 -4.2 --- --- 6.1 NE 0.10 7.0 -8.6 --- --- 731.1 0.016 0.000 8.5 7 1
02/03/06 7:39 p -4.1 -4.1 -4.1 --- --- 5.2 NE 0.09 6.1 -8.1 --- --- 731.1 0.016 0.000 8.5 7 1
02/03/06 7:40 p -4.1 -4.1 -4.2 --- --- 5.2 NNE 0.09 7.0 -8.1 --- --- 731.1 0.016 0.000 8.5 7 1
02/03/06 7:41 p -4.1 -4.1 -4.2 --- --- 5.2 NE 0.09 6.1 -8.1 --- --- 731.2 0.016 0.000 8.5 7 1
02/03/06 7:42 p -4.1 -4.1 -4.1 --- --- 5.2 NE 0.09 5.2 -8.1 --- --- 731.1 0.016 0.000 8.5 7 1
02/03/06 7:43 p -4.0 -4.0 -4.1 --- --- 4.3 NE 0.07 5.2 -7.4 --- --- 731.1 0.016 0.000 8.5 7 1
02/03/06 7:44 p -4.0 -3.9 -4.0 --- --- 6.1 NE 0.10 7.8 -8.4 --- --- 731.0 0.016 0.000 8.5 7 1
02/03/06 7:45 p -3.9 -3.9 -3.9 --- --- 6.1 NE 0.10 7.0 -8.3 --- --- 731.1 0.015 0.000 8.5 7 1
02/03/06 7:46 p -3.8 -3.8 -3.9 --- --- 6.1 NE 0.10 7.0 -8.2 --- --- 731.1 0.015 0.000 8.5 7 1
02/03/06 7:47 p -3.8 -3.8 -3.8 --- --- 6.1 NE 0.10 7.8 -8.2 --- --- 731.1 0.015 0.000 8.5 7 1
02/03/06 7:48 p -3.9 -3.8 -3.9 --- --- 5.2 NE 0.09 7.0 -7.8 --- --- 731.1 0.015 0.000 8.5 7 1
02/03/06 7:49 p -3.9 -3.9 -3.9 --- --- 4.3 NE 0.07 6.1 -7.4 --- --- 731.0 0.015 0.000 8.5 7 1
02/03/06 7:50 p -3.8 -3.8 -3.9 --- --- 4.3 NE 0.07 6.1 -7.2 --- --- 731.1 0.015 0.000 8.5 7 1
02/03/06 7:51 p -3.8 -3.8 -3.8 --- --- 5.2 NE 0.09 7.0 -7.7 --- --- 731.1 0.015 0.000 8.5 7 1
02/03/06 7:52 p -3.8 -3.8 -3.8 --- --- 6.1 NE 0.10 7.0 -8.2 --- --- 731.1 0.015 0.000 8.5 7 1
02/03/06 7:53 p -3.8 -3.8 -3.8 --- --- 6.1 NE 0.10 7.0 -8.2 --- --- 731.2 0.015 0.000 8.5 7 1
02/03/06 7:54 p -3.8 -3.7 -3.8 --- --- 6.1 NE 0.10 7.0 -8.2 --- --- 731.2 0.015 0.000 8.5 6 1
02/03/06 7:55 p -3.7 -3.7 -3.7 --- --- 5.2 NE 0.09 7.0 -7.6 --- --- 731.1 0.015 0.000 8.5 6 1
02/03/06 7:56 p -3.7 -3.7 -3.7 --- --- 5.2 NE 0.09 6.1 -7.6 --- --- 731.1 0.015 0.000 8.4 7 1
02/03/06 7:57 p -3.8 -3.7 -3.8 --- --- 3.5 NNE 0.06 6.1 -6.6 --- --- 731.2 0.015 0.000 8.4 6 1
02/03/06 7:58 p -3.7 -3.7 -3.7 --- --- 5.2 NNE 0.09 7.0 -7.6 --- --- 731.1 0.015 0.000 8.5 7 1
02/03/06 7:59 p -3.7 -3.7 -3.7 --- --- 5.2 NE 0.09 6.1 -7.6 --- --- 731.1 0.015 0.000 8.5 6 1
02/03/06 8:00 p -3.7 -3.7 -3.7 --- --- 5.2 NE 0.09 6.1 -7.6 --- --- 731.2 0.015 0.000 8.5 7 1
02/03/06 8:02 p -3.6 -3.6 -3.7 --- --- 4.3 NE 0.07 5.2 -7.0 --- --- 731.2 0.015 0.000 8.5 6 1
02/03/06 8:03 p -3.5 -3.5 -3.6 --- --- 5.2 NE 0.09 6.1 -7.4 --- --- 731.1 0.015 0.000 8.5 6 1
02/03/06 8:04 p -3.5 -3.5 -3.6 --- --- 6.1 NE 0.10 7.0 -7.8 --- --- 731.2 0.015 0.000 8.5 6 1
02/03/06 8:05 p -3.6 -3.5 -3.6 --- --- 5.2 NE 0.09 6.1 -7.4 --- --- 731.1 0.015 0.000 8.5 6 1
02/03/06 8:06 p -3.6 -3.5 -3.6 --- --- 4.3 NE 0.07 5.2 -6.9 --- --- 731.2 0.015 0.000 8.5 6 1
02/03/06 8:07 p -3.5 -3.5 -3.6 --- --- 4.3 NE 0.07 6.1 -6.8 --- --- 731.2 0.015 0.000 8.5 6 1
02/03/06 8:08 p -3.5 -3.5 -3.6 --- --- 4.3 NE 0.07 5.2 -6.8 --- --- 731.2 0.015 0.000 8.5 6 1
02/03/06 8:09 p -3.6 -3.5 -3.6 --- --- 5.2 NE 0.09 6.1 -7.4 --- --- 731.2 0.015 0.000 8.5 6 1
02/03/06 8:10 p -3.6 -3.6 -3.6 --- --- 5.2 NNE 0.09 6.1 -7.5 --- --- 731.3 0.015 0.000 8.5 6 1
02/03/06 8:11 p -3.7 -3.7 -3.7 --- --- 5.2 NNE 0.09 6.1 -7.6 --- --- 731.3 0.015 0.000 8.5 6 1
02/03/06 8:12 p -3.7 -3.7 -3.7 --- --- 5.2 NNE 0.09 7.0 -7.6 --- --- 731.2 0.015 0.000 8.5 6 1
02/03/06 8:13 p -3.8 -3.7 -3.9 --- --- 3.5 N 0.06 5.2 -6.6 --- --- 731.3 0.015 0.000 8.5 6 1
02/03/06 8:14 p -4.1 -3.9 -4.1 --- --- 1.7 N 0.03 2.6 -5.1 --- --- 731.2 0.016 0.000 8.5 6 1
02/03/06 8:15 p -4.1 -4.1 -4.2 --- --- 2.6 N 0.04 4.3 -6.2 --- --- 731.3 0.016 0.000 8.5 6 1
02/03/06 8:16 p -4.1 -4.1 -4.2 --- --- 2.6 N 0.04 2.6 -6.2 --- --- 731.3 0.016 0.000 8.5 6 1
02/03/06 8:17 p -4.2 -4.1 -4.3 --- --- 2.6 N 0.04 5.2 -6.2 --- --- 731.2 0.016 0.000 8.5 6 1
02/03/06 8:18 p -4.4 -4.3 -4.4 --- --- 2.6 N 0.04 3.5 -6.4 --- --- 731.2 0.016 0.000 8.5 6 1
02/03/06 8:19 p -4.4 -4.4 -4.5 --- --- 2.6 N 0.04 3.5 -6.5 --- --- 731.3 0.016 0.000 8.5 6 1
02/03/06 8:20 p -4.6 -4.5 -4.6 --- --- 2.6 N 0.04 3.5 -6.7 --- --- 731.2 0.016 0.000 8.5 6 1
02/03/06 8:21 p -4.5 -4.5 -4.6 --- --- 1.7 N 0.03 2.6 -5.5 --- --- 731.2 0.016 0.000 8.5 6 1
02/03/06 8:22 p -4.6 -4.5 -4.6 --- --- 1.7 N 0.03 2.6 -5.6 --- --- 731.3 0.016 0.000 8.6 6 1
02/03/06 8:23 p -4.6 -4.5 -4.6 --- --- 2.6 N 0.04 3.5 -6.7 --- --- 731.3 0.016 0.000 8.6 6 1
02/03/06 8:24 p -4.6 -4.4 -4.6 --- --- 2.6 N 0.04 3.5 -6.7 --- --- 731.2 0.016 0.000 8.6 6 1
02/03/06 8:25 p -4.4 -4.3 -4.4 --- --- 2.6 N 0.04 3.5 -6.4 --- --- 731.2 0.016 0.000 8.6 6 1
02/03/06 8:26 p -4.2 -4.2 -4.3 --- --- 2.6 N 0.04 3.5 -6.3 --- --- 731.2 0.016 0.000 8.6 6 1
02/03/06 8:27 p -4.2 -4.1 -4.2 --- --- 2.6 N 0.04 3.5 -6.2 --- --- 731.4 0.016 0.000 8.6 6 1
02/03/06 8:28 p -4.1 -4.1 -4.1 --- --- 2.6 N 0.04 2.6 -6.1 --- --- 731.2 0.016 0.000 8.6 6 1
02/03/06 8:29 p -4.1 -4.1 -4.1 --- --- 2.6 N 0.04 3.5 -6.1 --- --- 731.3 0.016 0.000 8.7 6 1
02/03/06 8:30 p -4.2 -4.1 -4.2 --- --- 2.6 N 0.04 3.5 -6.2 --- --- 731.3 0.016 0.000 8.7 6 1
02/03/06 8:31 p -4.3 -4.2 -4.3 --- --- 1.7 N 0.03 3.5 -5.3 --- --- 731.3 0.016 0.000 8.7 6 1
02/03/06 8:32 p -4.3 -4.2 -4.3 --- --- 1.7 N 0.03 2.6 -5.3 --- --- 731.3 0.016 0.000 8.7 6 1
02/03/06 8:33 p -4.2 -4.2 -4.2 --- --- 1.7 N 0.03 2.6 -5.2 --- --- 731.4 0.016 0.000 8.7 6 1
02/03/06 8:34 p -4.2 -4.2 -4.2 --- --- 1.7 N 0.03 2.6 -5.2 --- --- 731.3 0.016 0.000 8.7 6 1
02/03/06 8:35 p -4.2 -4.2 -4.3 --- --- 1.7 N 0.03 2.6 -5.2 --- --- 731.3 0.016 0.000 8.7 6 1
02/03/06 8:36 p -4.2 -4.2 -4.2 --- --- 0.9 N 0.01 3.5 -4.2 --- --- 731.3 0.016 0.000 8.7 7 1
02/03/06 8:37 p -4.2 -4.2 -4.2 --- --- 3.5 N 0.06 4.3 -7.1 --- --- 731.2 0.016 0.000 8.7 7 1
02/03/06 8:38 p -4.3 -4.2 -4.3 --- --- 3.5 N 0.06 4.3 -7.1 --- --- 731.4 0.016 0.000 8.7 7 1
02/03/06 8:39 p -4.4 -4.3 -4.4 --- --- 3.5 N 0.06 5.2 -7.2 --- --- 731.3 0.016 0.000 8.7 7 1
02/03/06 8:40 p -4.7 -4.6 -4.9 --- --- 1.7 N 0.03 2.6 -5.8 --- --- 731.3 0.016 0.000 8.7 7 1
02/03/06 8:41 p -4.8 -4.8 -4.9 --- --- 2.6 N 0.04 3.5 -6.9 --- --- 731.3 0.016 0.000 8.7 7 1
02/03/06 8:42 p -4.8 -4.8 -4.8 --- --- 3.5 NNW 0.06 4.3 -7.7 --- --- 731.3 0.016 0.000 8.7 7 1
02/03/06 8:43 p -4.8 -4.8 -4.9 --- --- 3.5 NNW 0.06 4.3 -7.8 --- --- 731.3 0.016 0.000 8.7 7 1
02/03/06 8:44 p -4.9 -4.9 -4.9 --- --- 3.5 NNW 0.06 4.3 -7.8 --- --- 731.3 0.016 0.000 8.7 7 1
02/03/06 8:45 p -4.9 -4.9 -4.9 --- --- 2.6 NNW 0.04 3.5 -7.1 --- --- 731.3 0.016 0.000 8.7 7 1
02/03/06 8:46 p -5.1 -5.0 -5.2 --- --- 1.7 NNW 0.03 2.6 -6.2 --- --- 731.3 0.016 0.000 8.7 7 1
02/03/06 8:47 p -5.3 -5.2 -5.3 --- --- 0.0 NNW 0.00 0.9 -5.3 --- --- 731.3 0.016 0.000 8.7 7 1
02/03/06 8:48 p -5.2 -5.1 -5.3 --- --- 0.0 NNW 0.00 1.7 -5.2 --- --- 731.3 0.016 0.000 8.7 7 1
02/03/06 8:49 p -5.0 -4.9 -5.1 --- --- 0.0 --- 0.00 0.0 -5.0 --- --- 731.2 0.016 0.000 8.7 8 1
02/03/06 8:50 p -4.8 -4.7 -4.9 --- --- 0.0 --- 0.00 0.0 -4.8 --- --- 731.2 0.016 0.000 8.7 8 1
02/03/06 8:51 p -4.7 -4.7 -4.7 --- --- 0.0 --- 0.00 0.0 -4.7 --- --- 731.3 0.016 0.000 8.7 8 1
02/03/06 8:52 p -4.7 -4.6 -4.7 --- --- 0.0 NNW 0.00 0.9 -4.7 --- --- 731.3 0.016 0.000 8.7 8 1
02/03/06 8:53 p -4.6 -4.5 -4.6 --- --- 0.9 NNW 0.01 1.7 -4.6 --- --- 731.3 0.016 0.000 8.7 8 1
02/03/06 8:54 p -4.6 -4.5 -4.7 --- --- 0.9 NNW 0.01 1.7 -4.6 --- --- 731.3 0.016 0.000 8.7 8 1
02/03/06 8:55 p -4.7 -4.7 -4.8 --- --- 0.0 NNW 0.00 0.9 -4.7 --- --- 731.3 0.016 0.000 8.7 8 1
02/03/06 8:56 p -4.7 -4.6 -4.8 --- --- 0.0 --- 0.00 0.0 -4.7 --- --- 731.3 0.016 0.000 8.7 8 1
02/03/06 8:57 p -4.4 -4.4 -4.5 --- --- 0.0 --- 0.00 0.0 -4.4 --- --- 731.2 0.016 0.000 8.7 8 1
02/03/06 8:58 p -4.2 -4.2 -4.3 --- --- 0.0 --- 0.00 0.0 -4.2 --- --- 731.1 0.016 0.000 8.7 8 1
02/03/06 8:59 p -4.1 -4.1 -4.2 --- --- 0.0 --- 0.00 0.0 -4.1 --- --- 731.3 0.016 0.000 8.7 8 1
02/03/06 9:00 p -3.9 -3.9 -4.0 --- --- 0.0 --- 0.00 0.0 -3.9 --- --- 731.1 0.015 0.000 8.7 8 1
02/03/06 9:02 p -3.6 -3.4 -3.6 --- --- 1.7 NNW 0.03 2.6 -4.5 --- --- 731.2 0.015 0.000 8.7 8 1
02/03/06 9:03 p -3.4 -3.4 -3.4 --- --- 1.7 NE 0.03 3.5 -4.3 --- --- 731.2 0.015 0.000 8.7 8 1
02/03/06 9:04 p -3.2 -3.2 -3.3 --- --- 2.6 ENE 0.04 3.5 -5.1 --- --- 731.2 0.015 0.000 8.7 8 1
02/03/06 9:05 p -3.1 -3.1 -3.1 --- --- 1.7 ENE 0.03 2.6 -4.0 --- --- 731.2 0.015 0.000 8.7 8 1
02/03/06 9:06 p -2.9 -2.9 -3.1 --- --- 1.7 ENE 0.03 2.6 -3.8 --- --- 731.1 0.015 0.000 8.7 8 1
02/03/06 9:07 p -2.8 -2.8 -2.9 --- --- 2.6 ENE 0.04 2.6 -4.7 --- --- 731.1 0.015 0.000 8.7 8 1
02/03/06 9:08 p -2.7 -2.6 -2.7 --- --- 1.7 ENE 0.03 2.6 -3.5 --- --- 731.2 0.015 0.000 8.7 8 1
02/03/06 9:09 p -2.6 -2.5 -2.6 --- --- 1.7 ENE 0.03 2.6 -3.4 --- --- 731.2 0.015 0.000 8.7 8 1
02/03/06 9:10 p -2.5 -2.5 -2.6 --- --- 1.7 ENE 0.03 2.6 -3.3 --- --- 731.2 0.014 0.000 8.7 8 1
02/03/06 9:11 p -2.5 -2.4 -2.6 --- --- 1.7 ENE 0.03 2.6 -3.3 --- --- 731.2 0.014 0.000 8.7 8 1
02/03/06 9:12 p -2.4 -2.4 -2.4 --- --- 1.7 ENE 0.03 2.6 -3.3 --- --- 731.2 0.014 0.000 8.8 8 1
02/03/06 9:13 p -2.4 -2.3 -2.4 --- --- 1.7 ENE 0.03 2.6 -3.2 --- --- 731.2 0.014 0.000 8.8 8 1
02/03/06 9:14 p -2.3 -2.3 -2.3 --- --- 1.7 ENE 0.03 3.5 -3.1 --- --- 731.2 0.014 0.000 8.8 8 1
02/03/06 9:15 p -2.3 -2.3 -2.4 --- --- 2.6 ENE 0.04 3.5 -4.1 --- --- 731.1 0.014 0.000 8.8 8 1
02/03/06 9:16 p -2.4 -2.3 -2.4 --- --- 1.7 ENE 0.03 2.6 -3.2 --- --- 731.1 0.014 0.000 8.8 8 1
02/03/06 9:17 p -2.5 -2.4 -2.5 --- --- 1.7 ENE 0.03 3.5 -3.3 --- --- 731.1 0.014 0.000 8.8 8 1
02/03/06 9:18 p -2.5 -2.5 -2.5 --- --- 2.6 ENE 0.04 3.5 -4.3 --- --- 731.1 0.014 0.000 8.8 8 1
02/03/06 9:19 p -2.6 -2.5 -2.7 --- --- 1.7 ENE 0.03 2.6 -3.4 --- --- 731.1 0.015 0.000 8.8 8 1
02/03/06 9:20 p -2.7 -2.7 -2.7 --- --- 0.9 ENE 0.01 1.7 -2.7 --- --- 731.2 0.015 0.000 8.8 8 1
02/03/06 9:21 p -2.8 -2.8 -2.8 --- --- 0.9 ENE 0.01 2.6 -2.8 --- --- 731.1 0.015 0.000 8.8 8 1
02/03/06 9:22 p -2.8 -2.7 -2.8 --- --- 0.9 ENE 0.01 1.7 -2.8 --- --- 731.2 0.015 0.000 8.8 8 1
02/03/06 9:23 p -2.6 -2.6 -2.7 --- --- 1.7 ENE 0.03 2.6 -3.4 --- --- 731.1 0.015 0.000 8.8 8 1
02/03/06 9:24 p -2.6 -2.6 -2.6 --- --- 1.7 ENE 0.03 1.7 -3.4 --- --- 731.1 0.015 0.000 8.8 8 1
02/03/06 9:25 p -2.5 -2.4 -2.6 --- --- 0.9 ENE 0.01 2.6 -2.5 --- --- 731.0 0.014 0.000 8.8 8 1
02/03/06 9:26 p -2.4 -2.4 -2.4 --- --- 0.9 ENE 0.01 2.6 -2.4 --- --- 731.1 0.014 0.000 8.9 8 1
02/03/06 9:27 p -2.4 -2.4 -2.4 --- --- 1.7 ENE 0.03 2.6 -3.2 --- --- 731.1 0.014 0.000 8.8 8 1
02/03/06 9:28 p -2.3 -2.3 -2.4 --- --- 1.7 ENE 0.03 2.6 -3.1 --- --- 731.1 0.014 0.000 8.8 8 1
02/03/06 9:29 p -2.3 -2.2 -2.3 --- --- 1.7 ENE 0.03 3.5 -3.1 --- --- 731.1 0.014 0.000 8.9 8 1
02/03/06 9:30 p -2.2 -2.2 -2.2 --- --- 0.9 ENE 0.01 1.7 -2.2 --- --- 731.2 0.014 0.000 8.9 8 1
02/03/06 9:31 p -2.2 -2.2 -2.3 --- --- 1.7 ENE 0.03 2.6 -3.0 --- --- 731.1 0.014 0.000 8.9 8 1
02/03/06 9:32 p -2.3 -2.3 -2.3 --- --- 1.7 ENE 0.03 3.5 -3.1 --- --- 731.1 0.014 0.000 8.9 8 1
02/03/06 9:33 p -2.3 -2.3 -2.3 --- --- 1.7 ENE 0.03 2.6 -3.1 --- --- 731.1 0.014 0.000 8.9 8 1
02/03/06 9:34 p -2.3 -2.3 -2.4 --- --- 0.9 ENE 0.01 2.6 -2.3 --- --- 731.1 0.014 0.000 8.9 8 1
02/03/06 9:35 p -2.2 -2.2 -2.3 --- --- 1.7 ENE 0.03 2.6 -3.0 --- --- 731.1 0.014 0.000 8.9 8 1
02/03/06 9:36 p -2.2 -2.2 -2.2 --- --- 1.7 ENE 0.03 2.6 -3.0 --- --- 731.0 0.014 0.000 8.9 8 1
02/03/06 9:37 p -2.3 -2.2 -2.3 --- --- 2.6 ENE 0.04 3.5 -4.1 --- --- 731.0 0.014 0.000 8.9 8 1
02/03/06 9:38 p -2.2 -2.2 -2.3 --- --- 2.6 ENE 0.04 3.5 -4.0 --- --- 731.0 0.014 0.000 8.9 8 1
02/03/06 9:39 p -2.0 -1.8 -2.2 --- --- 1.7 ENE 0.03 2.6 -2.8 --- --- 731.0 0.014 0.000 8.9 8 1
02/03/06 9:40 p -1.7 -1.7 -1.8 --- --- 1.7 ENE 0.03 2.6 -2.4 --- --- 731.0 0.014 0.000 8.9 8 1
02/03/06 9:41 p -1.6 -1.4 -1.7 --- --- 0.9 ENE 0.01 2.6 -1.6 --- --- 731.0 0.014 0.000 8.9 8 1
02/03/06 9:42 p -1.3 -1.3 -1.3 --- --- 1.7 ENE 0.03 3.5 -2.1 --- --- 731.1 0.014 0.000 8.9 8 1
02/03/06 9:43 p -1.2 -1.2 -1.3 --- --- 2.6 ENE 0.04 3.5 -2.9 --- --- 731.1 0.014 0.000 8.9 8 1
02/03/06 9:44 p -1.2 -1.1 -1.2 --- --- 2.6 ENE 0.04 3.5 -2.8 --- --- 731.0 0.014 0.000 8.9 8 1
02/03/06 9:45 p -1.1 -1.1 -1.1 --- --- 2.6 ENE 0.04 4.3 -2.7 --- --- 731.1 0.014 0.000 8.9 8 1
02/03/06 9:46 p -1.1 -1.1 -1.2 --- --- 2.6 ENE 0.04 3.5 -2.7 --- --- 731.0 0.014 0.000 8.9 8 1
02/03/06 9:47 p -1.1 -1.1 -1.1 --- --- 3.5 ENE 0.06 4.3 -3.4 --- --- 731.0 0.014 0.000 8.9 8 1
02/03/06 9:48 p -1.1 -1.1 -1.2 --- --- 2.6 E 0.04 3.5 -2.7 --- --- 731.0 0.014 0.000 8.9 8 1
02/03/06 9:49 p -1.1 -1.1 -1.2 --- --- 2.6 E 0.04 4.3 -2.7 --- --- 731.0 0.014 0.000 8.9 8 1
02/03/06 9:50 p -1.3 -1.2 -1.4 --- --- 2.6 SE 0.04 3.5 -2.9 --- --- 731.0 0.014 0.000 8.9 8 1
02/03/06 9:51 p -1.3 -1.2 -1.4 --- --- 2.6 SE 0.04 4.3 -2.9 --- --- 731.0 0.014 0.000 8.9 8 1
02/03/06 9:52 p -1.2 -1.1 -1.2 --- --- 3.5 SE 0.06 3.5 -3.5 --- --- 731.0 0.014 0.000 8.9 8 1
02/03/06 9:53 p -1.1 -0.9 -1.1 --- --- 2.6 SE 0.04 3.5 -2.7 --- --- 731.0 0.013 0.000 8.9 8 1
02/03/06 9:54 p -0.9 -0.9 -1.1 --- --- 2.6 SE 0.04 3.5 -2.6 --- --- 731.1 0.013 0.000 8.9 8 1
02/03/06 9:55 p -1.0 -0.9 -1.1 --- --- 2.6 SE 0.04 3.5 -2.6 --- --- 731.0 0.013 0.000 8.9 8 1
02/03/06 9:56 p -0.9 -0.8 -0.9 --- --- 2.6 SE 0.04 4.3 -2.5 --- --- 731.0 0.013 0.000 8.9 8 1
02/03/06 9:57 p -0.8 -0.8 -0.8 --- --- 2.6 SE 0.04 3.5 -2.4 --- --- 731.0 0.013 0.000 9.0 8 1
02/03/06 9:58 p -0.9 -0.8 -0.9 --- --- 2.6 SE 0.04 3.5 -2.5 --- --- 731.0 0.013 0.000 9.0 8 1
02/03/06 9:59 p -0.9 -0.9 -1.0 --- --- 2.6 SE 0.04 3.5 -2.6 --- --- 731.0 0.013 0.000 9.0 8 1
02/03/06 10:00 p -1.1 -1.0 -1.1 --- --- 3.5 ESE 0.06 4.3 -3.4 --- --- 731.0 0.013 0.000 9.0 8 1
02/03/06 10:02 p -1.1 -1.0 -1.1 --- --- 2.6 ESE 0.04 3.5 -2.7 --- --- 731.0 0.013 0.000 9.0 8 1
02/03/06 10:03 p -1.0 -1.0 -1.1 --- --- 1.7 ESE 0.03 2.6 -1.7 --- --- 731.0 0.013 0.000 9.0 8 1
02/03/06 10:04 p -0.9 -0.8 -0.9 --- --- 2.6 ESE 0.04 3.5 -2.5 --- --- 731.0 0.013 0.000 9.0 8 1
02/03/06 10:05 p -1.1 -1.1 -1.1 --- --- 2.6 ESE 0.04 4.3 -2.7 --- --- 731.0 0.013 0.000 9.0 8 1
02/03/06 10:06 p -1.2 -1.1 -1.2 --- --- 3.5 ESE 0.06 4.3 -3.5 --- --- 731.0 0.014 0.000 9.0 8 1
02/03/06 10:07 p -1.1 -1.1 -1.1 --- --- 3.5 ESE 0.06 5.2 -3.4 --- --- 731.0 0.014 0.000 9.0 8 1
02/03/06 10:08 p -1.1 -1.0 -1.1 --- --- 2.6 ESE 0.04 3.5 -2.7 --- --- 731.0 0.013 0.000 9.1 8 1
02/03/06 10:09 p -0.9 -0.8 -0.9 --- --- 2.6 ESE 0.04 4.3 -2.5 --- --- 731.0 0.013 0.000 9.1 8 1
02/03/06 10:10 p -0.9 -0.8 -0.9 --- --- 2.6 ESE 0.04 3.5 -2.5 --- --- 731.0 0.013 0.000 9.1 8 1
02/03/06 10:11 p -0.8 -0.8 -0.8 --- --- 1.7 ESE 0.03 2.6 -1.5 --- --- 730.9 0.013 0.000 9.1 8 1
02/03/06 10:12 p -0.9 -0.9 -0.9 --- --- 2.6 ESE 0.04 3.5 -2.5 --- --- 731.0 0.013 0.000 9.1 8 1
02/03/06 10:13 p -0.8 -0.8 -0.8 --- --- 1.7 ESE 0.03 2.6 -1.5 --- --- 731.0 0.013 0.000 9.1 8 1
02/03/06 10:14 p -0.7 -0.7 -0.7 --- --- 2.6 ESE 0.04 3.5 -2.2 --- --- 730.9 0.013 0.000 9.1 8 1
02/03/06 10:15 p -0.7 -0.7 -0.7 --- --- 2.6 ESE 0.04 3.5 -2.2 --- --- 731.0 0.013 0.000 9.1 8 1
02/03/06 10:16 p -0.6 -0.6 -0.7 --- --- 2.6 ESE 0.04 3.5 -2.2 --- --- 731.0 0.013 0.000 9.1 8 1
02/03/06 10:17 p -0.7 -0.6 -0.8 --- --- 2.6 ESE 0.04 3.5 -2.2 --- --- 731.0 0.013 0.000 9.1 8 1
02/03/06 10:18 p -0.7 -0.7 -0.8 --- --- 2.6 ESE 0.04 3.5 -2.3 --- --- 731.0 0.013 0.000 9.1 8 1
02/03/06 10:19 p -0.8 -0.8 -0.8 --- --- 3.5 ESE 0.06 4.3 -3.2 --- --- 731.0 0.013 0.000 9.1 8 1
02/03/06 10:20 p -0.8 -0.8 -0.9 --- --- 2.6 ESE 0.04 4.3 -2.4 --- --- 731.0 0.013 0.000 9.1 8 1
02/03/06 10:21 p -0.9 -0.9 -0.9 --- --- 1.7 ESE 0.03 3.5 -1.6 --- --- 731.0 0.013 0.000 9.1 8 1
02/03/06 10:22 p -0.8 -0.7 -0.8 --- --- 2.6 ESE 0.04 3.5 -2.4 --- --- 731.0 0.013 0.000 9.1 8 1
02/03/06 10:23 p -0.8 -0.8 -0.9 --- --- 2.6 ESE 0.04 3.5 -2.4 --- --- 731.0 0.013 0.000 9.1 8 1
02/03/06 10:24 p -0.9 -0.8 -0.9 --- --- 1.7 ESE 0.03 2.6 -1.6 --- --- 731.0 0.013 0.000 9.1 8 1
02/03/06 10:25 p -0.8 -0.8 -0.8 --- --- 1.7 ESE 0.03 3.5 -1.4 --- --- 731.0 0.013 0.000 9.2 8 1
02/03/06 10:26 p -0.7 -0.7 -0.8 --- --- 3.5 ESE 0.06 6.1 -3.0 --- --- 731.0 0.013 0.000 9.2 8 1
02/03/06 10:27 p -0.7 -0.7 -0.7 --- --- 2.6 E 0.04 4.3 -2.2 --- --- 731.0 0.013 0.000 9.2 8 1
02/03/06 10:28 p -0.7 -0.7 -0.8 --- --- 2.6 E 0.04 4.3 -2.3 --- --- 730.9 0.013 0.000 9.1 8 1
02/03/06 10:29 p -1.0 -0.9 -1.1 --- --- 2.6 E 0.04 4.3 -2.6 --- --- 731.0 0.013 0.000 9.1 8 1
02/03/06 10:30 p -1.1 -1.1 -1.2 --- --- 3.5 E 0.06 5.2 -3.4 --- --- 731.0 0.014 0.000 9.1 8 1
02/03/06 10:31 p -1.2 -1.2 -1.3 --- --- 3.5 E 0.06 4.3 -3.6 --- --- 731.0 0.014 0.000 9.2 8 1
02/03/06 10:32 p -1.5 -1.4 -1.6 --- --- 0.9 E 0.01 2.6 -1.5 --- --- 730.9 0.014 0.000 9.1 8 1
02/03/06 10:33 p -1.4 -1.4 -1.4 --- --- 3.5 ENE 0.06 5.2 -3.8 --- --- 731.0 0.014 0.000 9.2 8 1
02/03/06 10:34 p -1.7 -1.6 -2.0 --- --- 3.5 NNE 0.06 6.1 -4.1 --- --- 731.0 0.014 0.000 9.1 8 1
02/03/06 10:35 p -2.3 -2.3 -2.5 --- --- 0.9 NNE 0.01 1.7 -2.3 --- --- 730.9 0.014 0.000 9.2 8 1
02/03/06 10:36 p -2.6 -2.4 -2.7 --- --- 3.5 N 0.06 4.3 -5.1 --- --- 731.0 0.015 0.000 9.1 8 1
02/03/06 10:37 p -2.7 -2.7 -2.7 --- --- 2.6 N 0.04 3.5 -4.6 --- --- 731.0 0.015 0.000 9.2 8 1
02/03/06 10:38 p -2.8 -2.7 -2.8 --- --- 1.7 N 0.03 3.5 -3.6 --- --- 731.1 0.015 0.000 9.2 7 1
02/03/06 10:39 p -2.8 -2.8 -2.9 --- --- 0.0 N 0.00 1.7 -2.8 --- --- 731.0 0.015 0.000 9.2 8 1
02/03/06 10:40 p -2.7 -2.7 -2.8 --- --- 0.9 N 0.01 2.6 -2.7 --- --- 731.0 0.015 0.000 9.2 8 1
02/03/06 10:41 p -2.7 -2.7 -2.8 --- --- 1.7 N 0.03 2.6 -3.6 --- --- 731.0 0.015 0.000 9.2 7 1
02/03/06 10:42 p -2.9 -2.8 -2.9 --- --- 2.6 N 0.04 2.6 -4.8 --- --- 731.0 0.015 0.000 9.2 7 1
02/03/06 10:43 p -3.0 -2.9 -3.0 --- --- 2.6 N 0.04 3.5 -4.9 --- --- 731.0 0.015 0.000 9.2 8 1
02/03/06 10:44 p -3.0 -3.0 -3.0 --- --- 1.7 N 0.03 2.6 -3.9 --- --- 731.0 0.015 0.000 9.3 7 1
02/03/06 10:45 p -3.1 -3.0 -3.1 --- --- 2.6 N 0.04 3.5 -4.9 --- --- 730.9 0.015 0.000 9.3 8 1
02/03/06 10:46 p -3.1 -3.1 -3.2 --- --- 2.6 N 0.04 3.5 -5.0 --- --- 731.1 0.015 0.000 9.2 8 1
02/03/06 10:47 p -3.2 -3.2 -3.2 --- --- 3.5 NW 0.06 4.3 -5.9 --- --- 731.0 0.015 0.000 9.3 7 1
02/03/06 10:48 p -3.2 -3.2 -3.3 --- --- 3.5 NW 0.06 4.3 -5.9 --- --- 731.0 0.015 0.000 9.3 8 1
02/03/06 10:49 p -3.4 -3.3 -3.6 --- --- 2.6 NW 0.04 3.5 -5.4 --- --- 731.0 0.015 0.000 9.3 8 1
02/03/06 10:50 p -3.6 -3.6 -3.7 --- --- 2.6 NW 0.04 3.5 -5.6 --- --- 731.0 0.015 0.000 9.3 8 1
02/03/06 10:51 p -3.7 -3.6 -3.7 --- --- 2.6 NW 0.04 3.5 -5.6 --- --- 731.0 0.015 0.000 9.3 8 1
02/03/06 10:52 p -3.6 -3.5 -3.6 --- --- 2.6 NW 0.04 4.3 -5.5 --- --- 730.9 0.015 0.000 9.3 8 1
02/03/06 10:53 p -3.5 -3.5 -3.5 --- --- 3.5 NW 0.06 4.3 -6.2 --- --- 730.9 0.015 0.000 9.3 8 1
02/03/06 10:54 p -3.5 -3.5 -3.6 --- --- 3.5 NW 0.06 4.3 -6.2 --- --- 731.0 0.015 0.000 9.3 8 1
02/03/06 10:55 p -3.6 -3.6 -3.6 --- --- 3.5 NW 0.06 4.3 -6.3 --- --- 731.1 0.015 0.000 9.3 8 1
02/03/06 10:56 p -3.6 -3.6 -3.7 --- --- 2.6 NW 0.04 3.5 -5.6 --- --- 731.0 0.015 0.000 9.3 8 1
02/03/06 10:57 p -3.7 -3.7 -3.8 --- --- 3.5 NW 0.06 4.3 -6.5 --- --- 730.9 0.015 0.000 9.3 8 1
02/03/06 10:58 p -3.9 -3.8 -4.0 --- --- 3.5 NW 0.06 4.3 -6.7 --- --- 731.0 0.015 0.000 9.3 8 1
02/03/06 10:59 p -4.0 -4.0 -4.1 --- --- 2.6 NW 0.04 3.5 -6.0 --- --- 730.9 0.016 0.000 9.3 8 1
02/03/06 11:00 p -4.0 -3.9 -4.1 --- --- 2.6 NW 0.04 3.5 -6.0 --- --- 730.9 0.016 0.000 9.3 8 1
02/03/06 11:02 p -3.9 -3.9 -3.9 --- --- 2.6 NW 0.04 3.5 -5.9 --- --- 731.0 0.015 0.000 9.3 8 1
02/03/06 11:03 p -3.9 -3.9 -4.0 --- --- 2.6 NW 0.04 4.3 -5.9 --- --- 730.9 0.015 0.000 9.3 8 1
02/03/06 11:04 p -4.1 -4.0 -4.1 --- --- 2.6 NW 0.04 3.5 -6.1 --- --- 730.9 0.016 0.000 9.3 8 1
02/03/06 11:05 p -4.0 -3.9 -4.1 --- --- 0.9 NW 0.01 1.7 -4.0 --- --- 731.0 0.016 0.000 9.3 8 1
02/03/06 11:06 p -3.6 -3.5 -3.7 --- --- 0.9 NW 0.01 1.7 -3.6 --- --- 731.0 0.015 0.000 9.3 8 1
02/03/06 11:07 p -3.4 -3.3 -3.5 --- --- 0.0 NW 0.00 0.9 -3.4 --- --- 731.0 0.015 0.000 9.3 8 1
02/03/06 11:08 p -3.2 -3.2 -3.3 --- --- 0.0 NW 0.00 0.9 -3.2 --- --- 731.1 0.015 0.000 9.3 8 1
02/03/06 11:09 p -3.2 -3.1 -3.2 --- --- 1.7 NW 0.03 3.5 -4.1 --- --- 731.0 0.015 0.000 9.3 8 1
02/03/06 11:10 p -3.2 -3.2 -3.3 --- --- 2.6 NW 0.04 3.5 -5.1 --- --- 731.0 0.015 0.000 9.3 8 1
02/03/06 11:11 p -3.3 -3.3 -3.4 --- --- 2.6 NW 0.04 3.5 -5.3 --- --- 731.0 0.015 0.000 9.3 8 1
02/03/06 11:12 p -3.4 -3.4 -3.5 --- --- 0.9 NW 0.01 2.6 -3.4 --- --- 731.0 0.015 0.000 9.3 8 1
02/03/06 11:13 p -3.5 -3.5 -3.6 --- --- 0.0 NW 0.00 0.9 -3.5 --- --- 731.0 0.015 0.000 9.3 8 1
02/03/06 11:14 p -3.5 -3.4 -3.6 --- --- 0.9 NW 0.01 1.7 -3.5 --- --- 731.0 0.015 0.000 9.3 8 1
02/03/06 11:15 p -3.4 -3.4 -3.5 --- --- 0.0 NW 0.00 0.9 -3.4 --- --- 731.0 0.015 0.000 9.3 8 1
02/03/06 11:16 p -3.4 -3.3 -3.5 --- --- 0.0 --- 0.00 0.9 -3.4 --- --- 731.1 0.015 0.000 9.3 8 1
02/03/06 11:17 p -3.2 -3.2 -3.3 --- --- 0.0 --- 0.00 0.0 -3.2 --- --- 731.0 0.015 0.000 9.3 8 1
02/03/06 11:18 p -3.1 -3.0 -3.1 --- --- 0.9 NW 0.01 1.7 -3.1 --- --- 731.0 0.015 0.000 9.3 8 1
02/03/06 11:19 p -3.0 -3.0 -3.1 --- --- 1.7 NW 0.03 2.6 -3.9 --- --- 731.0 0.015 0.000 9.3 8 1
02/03/06 11:20 p -3.2 -3.1 -3.4 --- --- 0.9 NW 0.01 1.7 -3.2 --- --- 731.0 0.015 0.000 9.3 8 1
02/03/06 11:21 p -3.4 -3.4 -3.5 --- --- 1.7 NW 0.03 2.6 -4.3 --- --- 731.1 0.015 0.000 9.3 8 1
02/03/06 11:22 p -3.5 -3.4 -3.5 --- --- 0.9 NW 0.01 2.6 -3.5 --- --- 731.0 0.015 0.000 9.4 8 1
02/03/06 11:23 p -3.3 -3.3 -3.4 --- --- 0.0 --- 0.00 0.0 -3.3 --- --- 731.0 0.015 0.000 9.4 8 1
02/03/06 11:24 p -3.1 -3.0 -3.1 --- --- 0.0 --- 0.00 0.0 -3.1 --- --- 731.0 0.015 0.000 9.4 8 1
02/03/06 11:25 p -3.1 -2.9 -3.1 --- --- 0.0 NW 0.00 0.9 -3.1 --- --- 731.0 0.015 0.000 9.4 8 1
02/03/06 11:26 p -2.9 -2.9 -3.0 --- --- 0.0 --- 0.00 0.0 -2.9 --- --- 731.1 0.015 0.000 9.3 8 1
02/03/06 11:27 p -2.9 -2.9 -2.9 --- --- 0.0 --- 0.00 0.9 -2.9 --- --- 731.1 0.015 0.000 9.4 8 1
02/03/06 11:28 p -2.9 -2.9 -3.0 --- --- 0.0 NW 0.00 0.9 -2.9 --- --- 731.1 0.015 0.000 9.4 8 1
02/03/06 11:29 p -2.6 -2.4 -2.9 --- --- 0.0 NW 0.00 0.9 -2.6 --- --- 731.0 0.015 0.000 9.4 8 1
02/03/06 11:30 p -2.3 -2.2 -2.4 --- --- 0.0 NW 0.00 0.9 -2.3 --- --- 731.1 0.014 0.000 9.4 8 1
02/03/06 11:31 p -2.3 -2.2 -2.3 --- --- 0.0 --- 0.00 0.0 -2.3 --- --- 731.0 0.014 0.000 9.4 8 1
02/03/06 11:32 p -2.3 -2.3 -2.3 --- --- 0.0 --- 0.00 0.9 -2.3 --- --- 731.1 0.014 0.000 9.4 8 1
02/03/06 11:33 p -2.4 -2.3 -2.4 --- --- 0.0 NW 0.00 0.9 -2.4 --- --- 731.1 0.014 0.000 9.4 8 1
02/03/06 11:34 p -2.4 -2.4 -2.4 --- --- 0.0 --- 0.00 0.0 -2.4 --- --- 731.1 0.014 0.000 9.4 8 1
02/03/06 11:35 p -2.4 -2.4 -2.4 --- --- 0.0 NW 0.00 1.7 -2.4 --- --- 731.1 0.014 0.000 9.4 8 1
02/03/06 11:36 p -2.3 -2.2 -2.4 --- --- 0.9 NW 0.01 1.7 -2.3 --- --- 731.1 0.014 0.000 9.4 8 1
02/03/06 11:37 p -1.9 -1.7 -2.2 --- --- 0.9 NW 0.01 1.7 -1.9 --- --- 731.1 0.014 0.000 9.4 8 1
02/03/06 11:38 p -1.6 -1.5 -1.7 --- --- 0.9 NW 0.01 1.7 -1.6 --- --- 731.1 0.014 0.000 9.5 8 1
02/03/06 11:39 p -1.4 -1.3 -1.5 --- --- 0.0 NW 0.00 0.9 -1.4 --- --- 731.2 0.014 0.000 9.4 8 1
02/03/06 11:40 p -1.3 -1.3 -1.3 --- --- 0.0 NW 0.00 0.9 -1.3 --- --- 731.0 0.014 0.000 9.4 8 1
02/03/06 11:41 p -1.3 -1.2 -1.6 --- --- 0.0 NW 0.00 0.9 -1.3 --- --- 731.1 0.014 0.000 9.4 8 1
02/03/06 11:42 p -1.8 -1.6 -1.9 --- --- 0.0 NW 0.00 0.9 -1.8 --- --- 731.1 0.014 0.000 9.4 8 1
02/03/06 11:43 p -1.6 -1.3 -1.7 --- --- 0.0 --- 0.00 0.0 -1.6 --- --- 731.1 0.014 0.000 9.4 8 1
02/03/06 11:44 p -1.2 -1.0 -1.3 --- --- 0.0 --- 0.00 0.0 -1.2 --- --- 731.0 0.014 0.000 9.5 8 1
02/03/06 11:45 p -0.9 -0.8 -1.0 --- --- 0.0 --- 0.00 0.0 -0.9 --- --- 731.1 0.013 0.000 9.5 8 1
02/03/06 11:46 p -0.7 -0.6 -0.8 --- --- 0.0 NW 0.00 0.9 -0.7 --- --- 731.0 0.013 0.000 9.5 8 1
02/03/06 11:47 p -0.4 -0.3 -0.6 --- --- 0.0 NW 0.00 0.9 -0.4 --- --- 731.0 0.013 0.000 9.5 8 1
02/03/06 11:48 p -0.1 -0.1 -0.2 --- --- 0.0 NW 0.00 0.9 -0.1 --- --- 731.1 0.013 0.000 9.5 8 1
02/03/06 11:49 p -0.2 -0.2 -0.3 --- --- 1.7 NW 0.03 2.6 -0.8 --- --- 731.1 0.013 0.000 9.5 8 1
02/03/06 11:50 p -0.9 -0.6 -1.4 --- --- 1.7 NW 0.03 2.6 -1.6 --- --- 731.1 0.013 0.000 9.5 8 1
02/03/06 11:51 p -1.4 -1.3 -1.4 --- --- 1.7 NNW 0.03 4.3 -2.1 --- --- 731.0 0.014 0.000 9.5 8 1
02/03/06 11:52 p -2.1 -1.7 -2.5 --- --- 2.6 NNW 0.04 4.3 -3.9 --- --- 731.0 0.014 0.000 9.5 8 1
02/03/06 11:53 p -2.5 -2.4 -2.7 --- --- 4.3 NNW 0.07 5.2 -5.7 --- --- 731.1 0.014 0.000 9.5 8 1
02/03/06 11:54 p -2.6 -2.6 -2.7 --- --- 4.3 NNW 0.07 5.2 -5.8 --- --- 731.1 0.015 0.000 9.5 8 1
02/03/06 11:55 p -2.8 -2.7 -2.9 --- --- 4.3 NNW 0.07 6.1 -6.1 --- --- 731.1 0.015 0.000 9.5 8 1
02/03/06 11:56 p -2.6 -2.4 -2.7 --- --- 3.5 NNW 0.06 5.2 -5.1 --- --- 731.1 0.015 0.000 9.5 8 1
02/03/06 11:57 p -2.4 -2.4 -2.4 --- --- 3.5 NNW 0.06 4.3 -5.0 --- --- 731.0 0.014 0.000 9.5 8 1
02/03/06 11:58 p -2.5 -2.5 -2.5 --- --- 2.6 NNW 0.04 4.3 -4.3 --- --- 731.0 0.014 0.000 9.5 8 1
02/03/06 11:59 p -2.4 -2.3 -2.5 --- --- 2.6 NNW 0.04 3.5 -4.2 --- --- 731.0 0.014 0.000 9.5 8 1
02/04/06 12:00 a -2.4 -2.3 -2.6 --- --- 1.7 NNW 0.03 4.3 -3.2 --- --- 731.1 0.014 0.000 9.5 8 1
02/04/06 12:02 a -2.7 -2.6 -2.7 --- --- 2.6 NNW 0.04 4.3 -4.5 --- --- 731.0 0.015 0.000 9.6 8 1
02/04/06 12:03 a -2.6 -2.5 -2.9 --- --- 3.5 NNW 0.06 6.1 -5.2 --- --- 731.0 0.015 0.000 9.6 8 1
02/04/06 12:04 a -2.9 -2.9 -3.1 --- --- 2.6 NNW 0.04 3.5 -4.8 --- --- 731.0 0.015 0.000 9.5 8 1
02/04/06 12:05 a -3.1 -3.0 -3.2 --- --- 2.6 NNW 0.04 4.3 -5.0 --- --- 731.0 0.015 0.000 9.5 8 1
02/04/06 12:06 a -2.9 -2.9 -3.1 --- --- 2.6 NNW 0.04 3.5 -4.8 --- --- 731.0 0.015 0.000 9.5 8 1
02/04/06 12:07 a -3.2 -3.1 -3.2 --- --- 1.7 NNW 0.03 2.6 -4.1 --- --- 731.0 0.015 0.000 9.6 8 1
02/04/06 12:08 a -3.2 -3.2 -3.3 --- --- 1.7 NNW 0.03 2.6 -4.1 --- --- 731.0 0.015 0.000 9.6 8 1
02/04/06 12:09 a -3.3 -3.3 -3.4 --- --- 1.7 NNW 0.03 3.5 -4.2 --- --- 731.0 0.015 0.000 9.6 8 1
02/04/06 12:10 a -3.3 -3.2 -3.4 --- --- 2.6 NNW 0.04 3.5 -5.3 --- --- 731.0 0.015 0.000 9.6 8 1
02/04/06 12:11 a -3.3 -3.2 -3.4 --- --- 3.5 NNW 0.06 4.3 -5.9 --- --- 731.0 0.015 0.000 9.6 8 1
02/04/06 12:12 a -3.5 -3.4 -3.6 --- --- 2.6 NNW 0.04 4.3 -5.4 --- --- 731.0 0.015 0.000 9.6 9 1
02/04/06 12:13 a -3.3 -3.1 -3.5 --- --- 4.3 NNW 0.07 6.1 -6.6 --- --- 731.0 0.015 0.000 9.6 9 1
02/04/06 12:14 a -3.2 -3.1 -3.3 --- --- 3.5 NNW 0.06 5.2 -5.8 --- --- 731.1 0.015 0.000 9.6 9 1
02/04/06 12:15 a -3.6 -3.3 -3.7 --- --- 3.5 NNW 0.06 5.2 -6.3 --- --- 731.0 0.015 0.000 9.6 9 1
02/04/06 12:16 a -3.7 -3.5 -3.7 --- --- 3.5 NNW 0.06 4.3 -6.4 --- --- 731.1 0.015 0.000 9.6 9 1
02/04/06 12:17 a -3.4 -3.4 -3.5 --- --- 4.3 NNW 0.07 5.2 -6.8 --- --- 731.0 0.015 0.000 9.6 9 1
02/04/06 12:18 a -3.6 -3.5 -3.8 --- --- 2.6 NNW 0.04 4.3 -5.6 --- --- 731.0 0.015 0.000 9.6 9 1
02/04/06 12:19 a -3.8 -3.6 -3.8 --- --- 3.5 NNW 0.06 4.3 -6.6 --- --- 731.0 0.015 0.000 9.6 9 1
02/04/06 12:20 a -3.7 -3.6 -3.8 --- --- 2.6 NNW 0.04 4.3 -5.6 --- --- 731.0 0.015 0.000 9.6 9 1
02/04/06 12:21 a -3.8 -3.8 -3.9 --- --- 1.7 NNW 0.03 3.5 -4.8 --- --- 731.0 0.015 0.000 9.6 9 1
02/04/06 12:22 a -3.9 -3.8 -3.9 --- --- 2.6 NNW 0.04 2.6 -5.9 --- --- 730.9 0.015 0.000 9.6 9 1
02/04/06 12:23 a -3.8 -3.8 -3.9 --- --- 2.6 NNW 0.04 4.3 -5.8 --- --- 731.0 0.015 0.000 9.6 9 1
02/04/06 12:24 a -3.9 -3.9 -3.9 --- --- 3.5 NNW 0.06 4.3 -6.7 --- --- 731.0 0.015 0.000 9.6 9 1
02/04/06 12:25 a -3.8 -3.8 -3.9 --- --- 3.5 NNW 0.06 4.3 -6.6 --- --- 731.0 0.015 0.000 9.6 9 1
02/04/06 12:26 a -3.7 -3.6 -3.8 --- --- 2.6 NNW 0.04 3.5 -5.7 --- --- 731.0 0.015 0.000 9.6 9 1
02/04/06 12:27 a -3.7 -3.6 -3.7 --- --- 3.5 NNW 0.06 3.5 -6.4 --- --- 731.0 0.015 0.000 9.6 9 1
02/04/06 12:28 a -3.7 -3.6 -3.7 --- --- 2.6 NNW 0.04 4.3 -5.6 --- --- 731.0 0.015 0.000 9.6 9 1
02/04/06 12:29 a -3.6 -3.6 -3.7 --- --- 4.3 NNW 0.07 5.2 -7.0 --- --- 731.0 0.015 0.000 9.6 9 1
02/04/06 12:30 a -3.7 -3.6 -3.7 --- --- 4.3 NNW 0.07 5.2 -7.1 --- --- 731.1 0.015 0.000 9.6 9 1
02/04/06 12:31 a -3.6 -3.6 -3.7 --- --- 3.5 NNW 0.06 4.3 -6.3 --- --- 731.0 0.015 0.000 9.6 9 1
02/04/06 12:32 a -3.6 -3.6 -3.6 --- --- 3.5 NNW 0.06 4.3 -6.3 --- --- 731.1 0.015 0.000 9.6 9 1
02/04/06 12:33 a -3.6 -3.6 -3.6 --- --- 3.5 NNW 0.06 4.3 -6.3 --- --- 731.1 0.015 0.000 9.6 9 1
02/04/06 12:34 a -3.8 -3.8 -3.9 --- --- 1.7 NNW 0.03 3.5 -4.8 --- --- 731.0 0.015 0.000 9.6 9 1
02/04/06 12:35 a -3.9 -3.8 -3.9 --- --- 0.9 NNW 0.01 1.7 -3.9 --- --- 731.0 0.015 0.000 9.6 9 1
02/04/06 12:36 a -3.7 -3.6 -3.8 --- --- 0.0 NNW 0.00 0.9 -3.7 --- --- 731.0 0.015 0.000 9.6 9 1
02/04/06 12:37 a -3.6 -3.6 -3.6 --- --- 0.0 NNW 0.00 0.9 -3.6 --- --- 731.1 0.015 0.000 9.7 9 1
02/04/06 12:38 a -3.4 -3.4 -3.5 --- --- 0.9 NNW 0.01 1.7 -3.4 --- --- 731.0 0.015 0.000 9.6 9 1
02/04/06 12:39 a -3.4 -3.4 -3.5 --- --- 2.6 NNW 0.04 5.2 -5.4 --- --- 731.1 0.015 0.000 9.6 9 1
02/04/06 12:40 a -3.6 -3.5 -3.7 --- --- 3.5 NNW 0.06 4.3 -6.3 --- --- 731.0 0.015 0.000 9.6 9 1
02/04/06 12:41 a -3.8 -3.7 -3.9 --- --- 3.5 NNW 0.06 4.3 -6.6 --- --- 731.0 0.015 0.000 9.6 9 1
02/04/06 12:42 a -3.9 -3.8 -3.9 --- --- 3.5 NNW 0.06 4.3 -6.7 --- --- 731.0 0.015 0.000 9.6 9 1
02/04/06 12:43 a -3.8 -3.8 -3.9 --- --- 2.6 NNW 0.04 3.5 -5.8 --- --- 731.0 0.015 0.000 9.6 9 1
02/04/06 12:44 a -3.9 -3.9 -3.9 --- --- 1.7 NNW 0.03 2.6 -4.8 --- --- 731.1 0.015 0.000 9.6 9 1
02/04/06 12:45 a -3.9 -3.9 -4.0 --- --- 1.7 NNW 0.03 2.6 -4.9 --- --- 731.0 0.015 0.000 9.6 9 1
02/04/06 12:46 a -3.9 -3.9 -4.0 --- --- 2.6 NNW 0.04 3.5 -5.9 --- --- 731.0 0.015 0.000 9.6 9 1
02/04/06 12:47 a -3.9 -3.9 -3.9 --- --- 2.6 NNW 0.04 3.5 -5.9 --- --- 731.0 0.015 0.000 9.6 9 1
02/04/06 12:48 a -3.8 -3.8 -3.9 --- --- 2.6 NNW 0.04 4.3 -5.8 --- --- 731.1 0.015 0.000 9.6 9 1
02/04/06 12:49 a -3.7 -3.7 -3.8 --- --- 2.6 NNW 0.04 3.5 -5.7 --- --- 731.1 0.015 0.000 9.6 9 1
02/04/06 12:50 a -3.7 -3.7 -3.8 --- --- 3.5 NNW 0.06 3.5 -6.5 --- --- 730.9 0.015 0.000 9.6 9 1
02/04/06 12:51 a -3.8 -3.8 -3.8 --- --- 3.5 NNW 0.06 5.2 -6.6 --- --- 731.0 0.015 0.000 9.7 9 1
02/04/06 12:52 a -3.9 -3.8 -4.1 --- --- 2.6 NNW 0.04 4.3 -5.9 --- --- 731.0 0.015 0.000 9.7 9 1
02/04/06 12:53 a -4.1 -4.0 -4.1 --- --- 2.6 NNW 0.04 3.5 -6.1 --- --- 730.9 0.016 0.000 9.7 9 1
02/04/06 12:54 a -4.1 -4.1 -4.1 --- --- 2.6 NNW 0.04 3.5 -6.1 --- --- 730.9 0.016 0.000 9.7 9 1
02/04/06 12:55 a -4.0 -3.9 -4.0 --- --- 2.6 NNW 0.04 3.5 -6.0 --- --- 731.0 0.016 0.000 9.7 9 1
02/04/06 12:56 a -3.9 -3.9 -4.1 --- --- 1.7 NNW 0.03 3.5 -4.9 --- --- 731.1 0.015 0.000 9.7 9 1
02/04/06 12:57 a -4.2 -4.2 -4.2 --- --- 2.6 NNW 0.04 2.6 -6.2 --- --- 730.9 0.016 0.000 9.7 9 1
02/04/06 12:58 a -4.0 -4.0 -4.1 --- --- 1.7 NNW 0.03 2.6 -4.9 --- --- 731.0 0.016 0.000 9.7 9 1
02/04/06 12:59 a -4.0 -4.0 -4.0 --- --- 0.9 NNW 0.01 1.7 -4.0 --- --- 731.0 0.016 0.000 9.7 9 1
02/04/06 1:00 a -3.8 -3.8 -3.8 --- --- 0.9 NNW 0.01 2.6 -3.8 --- --- 731.0 0.015 0.000 9.7 9 1
02/04/06 1:01 a -3.9 -3.9 -4.1 --- --- 2.6 NNW 0.04 2.6 -5.9 --- --- 731.0 0.015 0.000 9.7 9 1
02/04/06 1:02 a -4.0 -3.9 -4.0 --- --- 2.6 NNW 0.04 3.5 -6.0 --- --- 731.0 0.016 0.000 9.7 9 1
02/04/06 1:03 a -3.9 -3.8 -3.9 --- --- 2.6 NNW 0.04 3.5 -5.9 --- --- 731.0 0.015 0.000 9.7 9 1
02/04/06 1:04 a -3.7 -3.7 -3.8 --- --- 2.6 NNW 0.04 3.5 -5.7 --- --- 730.9 0.015 0.000 9.7 9 1
02/04/06 1:05 a -3.7 -3.7 -3.7 --- --- 2.6 NNW 0.04 3.5 -5.7 --- --- 731.0 0.015 0.000 9.7 9 1
02/04/06 1:06 a -3.7 -3.6 -3.7 --- --- 2.6 NNW 0.04 2.6 -5.6 --- --- 731.0 0.015 0.000 9.7 9 1
02/04/06 1:07 a -3.7 -3.6 -3.7 --- --- 0.9 NNW 0.01 2.6 -3.7 --- --- 730.9 0.015 0.000 9.7 9 1
02/04/06 1:08 a -3.7 -3.7 -3.8 --- --- 0.0 NNW 0.00 0.9 -3.7 --- --- 731.0 0.015 0.000 9.7 9 1
02/04/06 1:09 a -3.8 -3.7 -3.8 --- --- 0.0 NNW 0.00 0.9 -3.8 --- --- 731.0 0.015 0.000 9.7 9 1
02/04/06 1:10 a -3.6 -3.6 -3.7 --- --- 0.9 NNW 0.01 2.6 -3.6 --- --- 730.9 0.015 0.000 9.7 9 1
02/04/06 1:11 a -3.6 -3.6 -3.6 --- --- 4.3 NNW 0.07 5.2 -7.0 --- --- 730.9 0.015 0.000 9.7 9 1
02/04/06 1:12 a -3.6 -3.6 -3.7 --- --- 3.5 NNW 0.06 5.2 -6.3 --- --- 730.9 0.015 0.000 9.7 9 1
02/04/06 1:13 a -3.8 -3.8 -3.9 --- --- 3.5 NNW 0.06 5.2 -6.6 --- --- 730.9 0.015 0.000 9.7 9 1
02/04/06 1:14 a -4.1 -4.0 -4.1 --- --- 2.6 NNW 0.04 3.5 -6.1 --- --- 731.0 0.016 0.000 9.7 9 1
02/04/06 1:15 a -4.1 -4.1 -4.2 --- --- 2.6 NNW 0.04 3.5 -6.2 --- --- 730.9 0.016 0.000 9.7 9 1
02/04/06 1:16 a -4.2 -4.2 -4.2 --- --- 2.6 NNW 0.04 4.3 -6.3 --- --- 730.9 0.016 0.000 9.7 9 1
02/04/06 1:17 a -4.2 -4.1 -4.2 --- --- 2.6 NNW 0.04 3.5 -6.2 --- --- 730.9 0.016 0.000 9.7 9 1
02/04/06 1:18 a -4.1 -4.1 -4.2 --- --- 2.6 NNW 0.04 5.2 -6.2 --- --- 731.0 0.016 0.000 9.7 9 1
02/04/06 1:19 a -4.2 -4.2 -4.2 --- --- 3.5 NNW 0.06 4.3 -7.0 --- --- 730.9 0.016 0.000 9.7 9 1
02/04/06 1:20 a -4.2 -4.2 -4.2 --- --- 3.5 NNW 0.06 4.3 -7.1 --- --- 731.0 0.016 0.000 9.7 9 1
02/04/06 1:21 a -4.2 -4.1 -4.2 --- --- 5.2 NNW 0.09 6.1 -8.2 --- --- 731.0 0.016 0.000 9.7 9 1
02/04/06 1:22 a -4.1 -4.0 -4.1 --- --- 4.3 NNW 0.07 5.2 -7.5 --- --- 731.0 0.016 0.000 9.7 9 1
02/04/06 1:23 a -4.1 -4.0 -4.2 --- --- 4.3 NNW 0.07 5.2 -7.6 --- --- 730.9 0.016 0.000 9.7 9 1
02/04/06 1:24 a -4.2 -4.2 -4.2 --- --- 4.3 NNW 0.07 5.2 -7.6 --- --- 731.0 0.016 0.000 9.7 9 1
02/04/06 1:25 a -4.2 -4.1 -4.2 --- --- 4.3 NNW 0.07 5.2 -7.6 --- --- 731.0 0.016 0.000 9.7 9 1
02/04/06 1:26 a -4.1 -4.0 -4.1 --- --- 4.3 NNW 0.07 5.2 -7.5 --- --- 730.9 0.016 0.000 9.7 9 1
02/04/06 1:27 a -3.9 -3.8 -4.0 --- --- 5.2 NNW 0.09 6.1 -7.9 --- --- 731.0 0.015 0.000 9.7 9 1
02/04/06 1:28 a -3.8 -3.8 -3.8 --- --- 6.1 NNW 0.10 7.0 -8.2 --- --- 731.0 0.015 0.000 9.7 10 1
02/04/06 1:29 a -3.9 -3.8 -3.9 --- --- 4.3 NNW 0.07 5.2 -7.3 --- --- 731.0 0.015 0.000 9.8 9 1
02/04/06 1:30 a -4.1 -3.9 -4.2 --- --- 2.6 NNW 0.04 3.5 -6.1 --- --- 730.9 0.016 0.000 9.8 9 1
02/04/06 1:31 a -4.2 -4.2 -4.3 --- --- 2.6 NNW 0.04 4.3 -6.3 --- --- 731.0 0.016 0.000 9.8 9 1
02/04/06 1:32 a -4.3 -4.2 -4.3 --- --- 4.3 NNW 0.07 5.2 -7.8 --- --- 730.9 0.016 0.000 9.8 9 1
02/04/06 1:33 a -4.2 -4.1 -4.2 --- --- 4.3 NNW 0.07 5.2 -7.6 --- --- 730.9 0.016 0.000 9.8 10 1
02/04/06 1:34 a -4.1 -4.1 -4.1 --- --- 4.3 NNW 0.07 5.2 -7.6 --- --- 730.9 0.016 0.000 9.7 10 1
02/04/06 1:35 a -4.1 -4.1 -4.1 --- --- 2.6 NNW 0.04 3.5 -6.1 --- --- 730.9 0.016 0.000 9.7 9 1
02/04/06 1:36 a -3.9 -3.9 -4.0 --- --- 4.3 NNW 0.07 5.2 -7.4 --- --- 730.9 0.015 0.000 9.7 10 1
02/04/06 1:37 a -3.8 -3.8 -3.9 --- --- 4.3 NNW 0.07 5.2 -7.2 --- --- 730.9 0.015 0.000 9.7 10 1
02/04/06 1:38 a -3.9 -3.9 -4.0 --- --- 4.3 NNW 0.07 5.2 -7.4 --- --- 730.9 0.015 0.000 9.7 10 1
02/04/06 1:39 a -3.9 -3.9 -4.0 --- --- 4.3 NNW 0.07 5.2 -7.4 --- --- 730.9 0.015 0.000 9.7 10 1
02/04/06 1:40 a -4.0 -3.9 -4.1 --- --- 4.3 NNW 0.07 6.1 -7.4 --- --- 730.9 0.016 0.000 9.7 10 1
02/04/06 1:41 a -4.0 -4.0 -4.0 --- --- 4.3 NNW 0.07 5.2 -7.4 --- --- 730.9 0.016 0.000 9.7 10 1
02/04/06 1:42 a -3.9 -3.9 -4.0 --- --- 4.3 NNW 0.07 5.2 -7.4 --- --- 731.0 0.015 0.000 9.7 10 1
02/04/06 1:43 a -3.9 -3.9 -4.0 --- --- 4.3 NNW 0.07 6.1 -7.4 --- --- 730.9 0.015 0.000 9.7 10 1
02/04/06 1:44 a -4.0 -4.0 -4.0 --- --- 4.3 NNW 0.07 5.2 -7.4 --- --- 731.0 0.016 0.000 9.7 10 1
02/04/06 1:45 a -4.1 -4.1 -4.1 --- --- 4.3 NNW 0.07 6.1 -7.6 --- --- 730.9 0.016 0.000 9.7 10 1
02/04/06 1:46 a -4.1 -4.0 -4.1 --- --- 3.5 NNW 0.06 5.2 -6.9 --- --- 731.0 0.016 0.000 9.8 10 1
02/04/06 1:47 a -4.1 -4.1 -4.2 --- --- 4.3 NNW 0.07 6.1 -7.6 --- --- 730.9 0.016 0.000 9.8 10 1
02/04/06 1:48 a -4.2 -4.1 -4.2 --- --- 4.3 NNW 0.07 6.1 -7.6 --- --- 730.9 0.016 0.000 9.8 10 1
02/04/06 1:49 a -4.1 -4.1 -4.2 --- --- 3.5 NNW 0.06 4.3 -6.9 --- --- 730.9 0.016 0.000 9.8 10 1
02/04/06 1:50 a -4.1 -4.0 -4.1 --- --- 4.3 NNW 0.07 5.2 -7.5 --- --- 730.9 0.016 0.000 9.8 10 1
02/04/06 1:51 a -4.1 -4.1 -4.1 --- --- 4.3 NNW 0.07 5.2 -7.5 --- --- 730.9 0.016 0.000 9.8 10 1
02/04/06 1:52 a -4.0 -3.9 -4.0 --- --- 5.2 NNW 0.09 5.2 -7.9 --- --- 730.9 0.016 0.000 9.8 10 1
02/04/06 1:53 a -3.9 -3.9 -4.0 --- --- 4.3 NNW 0.07 5.2 -7.4 --- --- 730.9 0.015 0.000 9.8 10 1
02/04/06 1:54 a -4.0 -3.9 -4.0 --- --- 4.3 NNW 0.07 6.1 -7.4 --- --- 730.9 0.016 0.000 9.8 10 1
02/04/06 1:55 a -3.9 -3.9 -3.9 --- --- 4.3 NNW 0.07 6.1 -7.4 --- --- 730.9 0.015 0.000 9.8 10 1
02/04/06 1:56 a -4.1 -4.0 -4.2 --- --- 4.3 NNW 0.07 5.2 -7.6 --- --- 731.0 0.016 0.000 9.8 10 1
02/04/06 1:57 a -4.2 -4.2 -4.2 --- --- 4.3 NNW 0.07 4.3 -7.6 --- --- 730.9 0.016 0.000 9.8 10 1
02/04/06 1:58 a -4.2 -4.2 -4.3 --- --- 4.3 NNW 0.07 5.2 -7.7 --- --- 731.0 0.016 0.000 9.8 10 1
02/04/06 1:59 a -4.2 -4.2 -4.2 --- --- 4.3 NNW 0.07 5.2 -7.7 --- --- 731.0 0.016 0.000 9.8 10 1
02/04/06 2:00 a -4.2 -4.2 -4.2 --- --- 4.3 NNW 0.07 5.2 -7.7 --- --- 730.9 0.016 0.000 9.8 10 1
02/04/06 2:02 a -4.1 -4.1 -4.1 --- --- 4.3 NNW 0.07 5.2 -7.5 --- --- 730.9 0.016 0.000 9.8 10 1
02/04/06 2:03 a -4.2 -4.1 -4.4 --- --- 3.5 NNW 0.06 4.3 -7.1 --- --- 730.9 0.016 0.000 9.8 10 1
02/04/06 2:04 a -4.4 -4.3 -4.4 --- --- 4.3 NNW 0.07 5.2 -7.9 --- --- 730.9 0.016 0.000 9.8 10 1
02/04/06 2:05 a -4.3 -4.2 -4.3 --- --- 3.5 NNW 0.06 5.2 -7.1 --- --- 730.9 0.016 0.000 9.8 10 1
02/04/06 2:06 a -4.2 -4.2 -4.2 --- --- 4.3 NNW 0.07 5.2 -7.7 --- --- 730.9 0.016 0.000 9.8 10 1
02/04/06 2:07 a -4.2 -4.2 -4.2 --- --- 4.3 NNW 0.07 5.2 -7.6 --- --- 730.9 0.016 0.000 9.8 10 1
02/04/06 2:08 a -4.2 -4.2 -4.2 --- --- 4.3 NNW 0.07 5.2 -7.7 --- --- 730.9 0.016 0.000 9.8 10 1
02/04/06 2:09 a -4.1 -4.0 -4.2 --- --- 5.2 NNW 0.09 6.1 -8.1 --- --- 730.9 0.016 0.000 9.8 10 1
02/04/06 2:10 a -4.1 -4.0 -4.1 --- --- 5.2 NNW 0.09 5.2 -8.1 --- --- 730.9 0.016 0.000 9.8 10 1
02/04/06 2:11 a -4.1 -4.1 -4.2 --- --- 5.2 NNW 0.09 5.2 -8.1 --- --- 730.9 0.016 0.000 9.8 10 1
02/04/06 2:12 a -4.3 -4.2 -4.3 --- --- 4.3 NNW 0.07 5.2 -7.8 --- --- 730.9 0.016 0.000 9.8 10 1
02/04/06 2:13 a -4.3 -4.3 -4.4 --- --- 4.3 NNW 0.07 6.1 -7.8 --- --- 730.9 0.016 0.000 9.8 10 1
02/04/06 2:14 a -4.4 -4.3 -4.4 --- --- 4.3 NNW 0.07 5.2 -7.9 --- --- 730.9 0.016 0.000 9.8 10 1
02/04/06 2:15 a -4.5 -4.4 -4.6 --- --- 3.5 NNW 0.06 5.2 -7.4 --- --- 730.9 0.016 0.000 9.8 10 1
02/04/06 2:16 a -4.6 -4.6 -4.6 --- --- 4.3 NNW 0.07 5.2 -8.1 --- --- 730.9 0.016 0.000 9.8 10 1
02/04/06 2:17 a -4.6 -4.6 -4.6 --- --- 4.3 NNW 0.07 5.2 -8.1 --- --- 731.0 0.016 0.000 9.8 10 1
02/04/06 2:18 a -4.6 -4.6 -4.6 --- --- 5.2 NNW 0.09 6.1 -8.6 --- --- 730.9 0.016 0.000 9.8 10 1
02/04/06 2:19 a -4.5 -4.5 -4.6 --- --- 5.2 NNW 0.09 6.1 -8.6 --- --- 731.0 0.016 0.000 9.8 10 1
02/04/06 2:20 a -4.4 -4.4 -4.5 --- --- 5.2 NNW 0.09 6.1 -8.5 --- --- 730.9 0.016 0.000 9.8 10 1
02/04/06 2:21 a -4.4 -4.4 -4.4 --- --- 5.2 NNW 0.09 6.1 -8.4 --- --- 730.9 0.016 0.000 9.8 10 1
02/04/06 2:22 a -4.4 -4.4 -4.4 --- --- 6.1 NNW 0.10 7.0 -8.9 --- --- 730.9 0.016 0.000 9.8 10 1
02/04/06 2:23 a -4.4 -4.4 -4.4 --- --- 5.2 NNW 0.09 6.1 -8.4 --- --- 731.0 0.016 0.000 9.8 10 1
02/04/06 2:24 a -4.2 -4.1 -4.3 --- --- 6.1 NNW 0.10 7.8 -8.6 --- --- 730.9 0.016 0.000 9.8 10 1
02/04/06 2:25 a -4.2 -4.2 -4.2 --- --- 6.1 NNW 0.10 7.0 -8.6 --- --- 730.8 0.016 0.000 9.8 10 1
02/04/06 2:26 a -4.1 -4.1 -4.1 --- --- 7.0 NNW 0.12 8.7 -9.0 --- --- 730.9 0.016 0.000 9.9 10 1
02/04/06 2:27 a -3.9 -3.9 -3.9 --- --- 6.1 NNW 0.10 7.0 -8.4 --- --- 730.9 0.015 0.000 9.9 10 1
02/04/06 2:28 a -4.1 -3.9 -4.3 --- --- 5.2 N 0.09 6.1 -8.1 --- --- 730.9 0.016 0.000 9.9 10 1
02/04/06 2:29 a -4.3 -4.3 -4.4 --- --- 5.2 N 0.09 6.1 -8.4 --- --- 730.9 0.016 0.000 9.9 10 1
02/04/06 2:30 a -4.4 -4.4 -4.4 --- --- 5.2 N 0.09 7.0 -8.4 --- --- 730.8 0.016 0.000 9.9 10 1
02/04/06 2:31 a -4.4 -4.4 -4.4 --- --- 4.3 N 0.07 5.2 -7.9 --- --- 730.9 0.016 0.000 9.8 10 1
02/04/06 2:32 a -4.3 -4.3 -4.4 --- --- 5.2 N 0.09 6.1 -8.4 --- --- 730.9 0.016 0.000 9.9 10 1
02/04/06 2:33 a -4.3 -4.2 -4.3 --- --- 5.2 N 0.09 6.1 -8.3 --- --- 731.0 0.016 0.000 9.9 10 1
02/04/06 2:34 a -4.3 -4.3 -4.3 --- --- 4.3 N 0.07 6.1 -7.8 --- --- 731.0 0.016 0.000 9.8 10 1
02/04/06 2:35 a -4.3 -4.3 -4.3 --- --- 5.2 N 0.09 6.1 -8.4 --- --- 730.9 0.016 0.000 9.9 10 1
02/04/06 2:36 a -4.3 -4.3 -4.4 --- --- 6.1 N 0.10 7.8 -8.8 --- --- 730.9 0.016 0.000 9.8 10 1
02/04/06 2:37 a -4.3 -4.3 -4.3 --- --- 5.2 NNW 0.09 7.0 -8.4 --- --- 730.9 0.016 0.000 9.9 10 1
02/04/06 2:38 a -4.3 -4.3 -4.3 --- --- 5.2 NNW 0.09 7.0 -8.4 --- --- 730.9 0.016 0.000 9.9 10 1
02/04/06 2:39 a -4.2 -4.2 -4.2 --- --- 4.3 NNW 0.07 6.1 -7.7 --- --- 730.9 0.016 0.000 9.9 10 1
02/04/06 2:40 a -4.3 -4.2 -4.3 --- --- 5.2 N 0.09 7.0 -8.3 --- --- 730.9 0.016 0.000 9.9 10 1
02/04/06 2:41 a -4.3 -4.2 -4.3 --- --- 5.2 N 0.09 7.0 -8.3 --- --- 730.8 0.016 0.000 9.9 10 1
02/04/06 2:42 a -4.2 -4.2 -4.2 --- --- 6.1 N 0.10 7.0 -8.7 --- --- 730.8 0.016 0.000 9.9 10 1
02/04/06 2:43 a -4.2 -4.1 -4.2 --- --- 7.8 NNW 0.13 8.7 -9.4 --- --- 730.8 0.016 0.000 9.9 10 1
02/04/06 2:44 a -4.1 -4.1 -4.1 --- --- 7.0 NNW 0.12 7.8 -8.9 --- --- 730.8 0.016 0.000 9.9 10 1
02/04/06 2:45 a -4.1 -4.1 -4.1 --- --- 7.8 NNW 0.13 9.6 -9.3 --- --- 730.8 0.016 0.000 9.9 10 1
02/04/06 2:46 a -4.1 -4.1 -4.1 --- --- 7.8 NNW 0.13 8.7 -9.3 --- --- 730.8 0.016 0.000 9.9 10 1
02/04/06 2:47 a -4.1 -4.1 -4.1 --- --- 7.8 NNW 0.13 8.7 -9.3 --- --- 730.8 0.016 0.000 9.9 10 1
02/04/06 2:48 a -4.1 -4.1 -4.1 --- --- 7.0 NNW 0.12 7.8 -8.9 --- --- 730.8 0.016 0.000 9.9 10 1
02/04/06 2:49 a -4.1 -4.1 -4.2 --- --- 7.0 NNW 0.12 7.8 -9.0 --- --- 730.8 0.016 0.000 9.9 10 1
02/04/06 2:50 a -4.0 -4.0 -4.1 --- --- 7.0 NNW 0.12 7.8 -8.8 --- --- 730.8 0.016 0.000 9.9 10 1
02/04/06 2:51 a -4.0 -3.9 -4.1 --- --- 7.0 NNW 0.12 7.8 -8.8 --- --- 730.8 0.016 0.000 9.9 10 1
02/04/06 2:52 a -4.1 -4.1 -4.2 --- --- 6.1 NNW 0.10 7.0 -8.5 --- --- 730.8 0.016 0.000 9.9 10 1
02/04/06 2:53 a -4.1 -4.1 -4.2 --- --- 6.1 NNW 0.10 7.8 -8.6 --- --- 730.8 0.016 0.000 9.9 10 1
02/04/06 2:54 a -4.2 -4.1 -4.2 --- --- 6.1 N 0.10 7.0 -8.6 --- --- 730.8 0.016 0.000 9.9 10 1
02/04/06 2:55 a -4.1 -4.1 -4.1 --- --- 6.1 N 0.10 7.0 -8.6 --- --- 730.9 0.016 0.000 9.9 10 1
02/04/06 2:56 a -4.2 -4.1 -4.2 --- --- 6.1 NNW 0.10 7.8 -8.6 --- --- 730.8 0.016 0.000 9.9 10 1
02/04/06 2:57 a -4.1 -4.1 -4.2 --- --- 6.1 NNW 0.10 7.8 -8.6 --- --- 730.7 0.016 0.000 9.9 10 1
02/04/06 2:58 a -4.1 -4.1 -4.1 --- --- 6.1 NNW 0.10 7.8 -8.6 --- --- 730.9 0.016 0.000 10.0 10 1
02/04/06 2:59 a -4.0 -3.9 -4.1 --- --- 7.0 NNW 0.12 7.8 -8.8 --- --- 730.8 0.016 0.000 10.0 10 1
02/04/06 3:00 a -3.9 -3.9 -3.9 --- --- 7.0 NNW 0.12 7.8 -8.8 --- --- 730.7 0.015 0.000 10.0 10 1
02/04/06 3:02 a -3.9 -3.9 -4.0 --- --- 6.1 NNW 0.10 7.8 -8.4 --- --- 730.8 0.015 0.000 10.0 10 1
02/04/06 3:03 a -4.0 -3.9 -4.0 --- --- 7.0 NNW 0.12 7.8 -8.8 --- --- 730.7 0.016 0.000 10.0 10 1
02/04/06 3:04 a -4.0 -3.9 -4.0 --- --- 5.2 NNW 0.09 7.0 -7.9 --- --- 730.8 0.016 0.000 10.0 10 1
02/04/06 3:05 a -3.9 -3.8 -4.0 --- --- 5.2 NNW 0.09 7.8 -7.8 --- --- 730.8 0.015 0.000 9.9 10 1
02/04/06 3:06 a -3.9 -3.9 -3.9 --- --- 6.1 NNW 0.10 7.0 -8.3 --- --- 730.7 0.015 0.000 9.9 10 1
02/04/06 3:07 a -3.9 -3.9 -3.9 --- --- 6.1 NNW 0.10 7.0 -8.4 --- --- 730.8 0.015 0.000 9.9 10 1
02/04/06 3:08 a -4.1 -4.0 -4.1 --- --- 5.2 NNW 0.09 6.1 -8.1 --- --- 730.7 0.016 0.000 9.9 10 1
02/04/06 3:09 a -4.1 -4.0 -4.2 --- --- 5.2 NNW 0.09 6.1 -8.1 --- --- 730.8 0.016 0.000 9.9 10 1
02/04/06 3:10 a -4.0 -4.0 -4.1 --- --- 5.2 NNW 0.09 7.0 -7.9 --- --- 730.8 0.016 0.000 9.9 10 1
02/04/06 3:11 a -4.1 -4.1 -4.1 --- --- 5.2 NNW 0.09 6.1 -8.1 --- --- 730.8 0.016 0.000 9.9 10 1
02/04/06 3:12 a -4.0 -4.0 -4.0 --- --- 4.3 NNW 0.07 5.2 -7.4 --- --- 730.8 0.016 0.000 10.0 10 1
02/04/06 3:13 a -3.9 -3.8 -3.9 --- --- 4.3 NNW 0.07 5.2 -7.3 --- --- 730.8 0.015 0.000 10.0 10 1
02/04/06 3:14 a -3.8 -3.8 -3.8 --- --- 4.3 NNW 0.07 5.2 -7.2 --- --- 730.8 0.015 0.000 10.0 10 1
02/04/06 3:15 a -3.8 -3.8 -3.8 --- --- 4.3 NNW 0.07 5.2 -7.2 --- --- 730.8 0.015 0.000 10.0 10 1
02/04/06 3:16 a -3.8 -3.7 -3.8 --- --- 5.2 NNW 0.09 6.1 -7.7 --- --- 730.8 0.015 0.000 9.9 10 1
02/04/06 3:17 a -3.8 -3.7 -3.8 --- --- 5.2 NNW 0.09 6.1 -7.7 --- --- 730.9 0.015 0.000 10.0 10 1
02/04/06 3:18 a -3.7 -3.6 -3.7 --- --- 4.3 NNW 0.07 5.2 -7.1 --- --- 730.9 0.015 0.000 10.0 10 1
02/04/06 3:19 a -3.6 -3.6 -3.7 --- --- 4.3 NNW 0.07 5.2 -7.0 --- --- 730.8 0.015 0.000 10.0 10 1
02/04/06 3:20 a -3.7 -3.6 -3.7 --- --- 4.3 NNW 0.07 6.1 -7.1 --- --- 730.7 0.015 0.000 10.0 10 1
02/04/06 3:21 a -3.7 -3.6 -3.8 --- --- 4.3 NNW 0.07 5.2 -7.1 --- --- 730.8 0.015 0.000 10.0 10 1
02/04/06 3:22 a -3.9 -3.8 -3.9 --- --- 3.5 NNW 0.06 4.3 -6.7 --- --- 730.8 0.015 0.000 10.0 10 1
02/04/06 3:23 a -3.8 -3.8 -3.9 --- --- 3.5 NNW 0.06 5.2 -6.6 --- --- 730.8 0.015 0.000 10.1 10 1
02/04/06 3:24 a -3.8 -3.8 -3.8 --- --- 3.5 NNW 0.06 4.3 -6.6 --- --- 730.7 0.015 0.000 10.1 10 1
02/04/06 3:25 a -3.7 -3.6 -3.8 --- --- 3.5 NNW 0.06 4.3 -6.5 --- --- 730.8 0.015 0.000 10.1 10 1
02/04/06 3:26 a -3.6 -3.6 -3.7 --- --- 2.6 NNW 0.04 3.5 -5.6 --- --- 730.8 0.015 0.000 10.0 10 1
02/04/06 3:27 a -3.6 -3.6 -3.6 --- --- 3.5 NNW 0.06 4.3 -6.3 --- --- 730.7 0.015 0.000 10.0 10 1
02/04/06 3:28 a -3.6 -3.6 -3.6 --- --- 2.6 NNW 0.04 3.5 -5.6 --- --- 730.8 0.015 0.000 10.0 10 1
02/04/06 3:29 a -3.6 -3.6 -3.6 --- --- 3.5 NNW 0.06 4.3 -6.3 --- --- 730.7 0.015 0.000 10.0 10 1
02/04/06 3:30 a -3.6 -3.5 -3.6 --- --- 4.3 NNW 0.07 5.2 -6.9 --- --- 730.7 0.015 0.000 10.0 10 1
02/04/06 3:31 a -3.6 -3.5 -3.6 --- --- 4.3 NNW 0.07 6.1 -6.9 --- --- 730.8 0.015 0.000 10.1 10 1
02/04/06 3:32 a -3.7 -3.6 -3.8 --- --- 4.3 NNW 0.07 5.2 -7.1 --- --- 730.7 0.015 0.000 10.1 10 1
02/04/06 3:33 a -3.7 -3.7 -3.8 --- --- 3.5 NNW 0.06 5.2 -6.5 --- --- 730.7 0.015 0.000 10.1 10 1
02/04/06 3:34 a -3.7 -3.6 -3.7 --- --- 2.6 NNW 0.04 2.6 -5.6 --- --- 730.8 0.015 0.000 10.1 10 1
02/04/06 3:35 a -3.6 -3.6 -3.7 --- --- 1.7 NNW 0.03 2.6 -4.5 --- --- 730.7 0.015 0.000 10.1 10 1
02/04/06 3:36 a -3.7 -3.7 -3.7 --- --- 2.6 NNW 0.04 4.3 -5.6 --- --- 730.7 0.015 0.000 10.1 10 1
02/04/06 3:37 a -3.8 -3.7 -3.8 --- --- 1.7 NNW 0.03 3.5 -4.7 --- --- 730.7 0.015 0.000 10.1 10 1
02/04/06 3:38 a -3.7 -3.7 -3.8 --- --- 3.5 NNW 0.06 5.2 -6.5 --- --- 730.7 0.015 0.000 10.1 10 1
02/04/06 3:39 a -3.8 -3.7 -3.9 --- --- 4.3 N 0.07 7.0 -7.2 --- --- 730.8 0.015 0.000 10.1 10 1
02/04/06 3:40 a -3.8 -3.8 -3.8 --- --- 7.0 NNW 0.12 9.6 -8.6 --- --- 730.7 0.015 0.000 10.1 10 1
02/04/06 3:41 a -3.8 -3.7 -3.8 --- --- 5.2 NNW 0.09 7.0 -7.7 --- --- 730.6 0.015 0.000 10.1 10 1
02/04/06 3:42 a -3.7 -3.7 -3.7 --- --- 4.3 NNW 0.07 6.1 -7.1 --- --- 730.7 0.015 0.000 10.1 10 1
02/04/06 3:43 a -3.8 -3.7 -3.9 --- --- 4.3 N 0.07 6.1 -7.2 --- --- 730.7 0.015 0.000 10.1 10 1
02/04/06 3:44 a -3.9 -3.9 -4.0 --- --- 5.2 N 0.09 6.1 -7.9 --- --- 730.7 0.015 0.000 10.1 10 1
02/04/06 3:45 a -4.0 -3.9 -4.0 --- --- 5.2 N 0.09 6.1 -7.9 --- --- 730.7 0.016 0.000 10.1 10 1
02/04/06 3:46 a -3.9 -3.9 -3.9 --- --- 4.3 NNW 0.07 5.2 -7.4 --- --- 730.7 0.015 0.000 10.1 10 1
02/04/06 3:47 a -3.9 -3.9 -4.0 --- --- 5.2 N 0.09 6.1 -7.9 --- --- 730.8 0.015 0.000 10.1 10 1
02/04/06 3:48 a -4.0 -4.0 -4.0 --- --- 5.2 N 0.09 6.1 -7.9 --- --- 730.8 0.016 0.000 10.1 10 1
02/04/06 3:49 a -4.0 -4.0 -4.1 --- --- 3.5 N 0.06 5.2 -6.8 --- --- 730.7 0.016 0.000 10.1 10 1
02/04/06 3:50 a -4.1 -4.1 -4.1 --- --- 2.6 N 0.04 3.5 -6.2 --- --- 730.8 0.016 0.000 10.1 10 1
02/04/06 3:51 a -4.1 -3.9 -4.1 --- --- 4.3 N 0.07 6.1 -7.5 --- --- 730.8 0.016 0.000 10.1 10 1
02/04/06 3:52 a -3.9 -3.9 -3.9 --- --- 5.2 NNW 0.09 6.1 -7.8 --- --- 730.8 0.015 0.000 10.1 10 1
02/04/06 3:53 a -3.8 -3.8 -3.9 --- --- 5.2 NNW 0.09 7.0 -7.8 --- --- 730.8 0.015 0.000 10.1 10 1
02/04/06 3:54 a -3.8 -3.8 -3.8 --- --- 4.3 NNW 0.07 5.2 -7.2 --- --- 730.8 0.015 0.000 10.1 10 1
02/04/06 3:55 a -3.7 -3.7 -3.8 --- --- 5.2 NNW 0.09 6.1 -7.6 --- --- 730.8 0.015 0.000 10.1 10 1
02/04/06 3:56 a -3.7 -3.7 -3.8 --- --- 3.5 NNW 0.06 4.3 -6.5 --- --- 730.8 0.015 0.000 10.1 10 1
02/04/06 3:57 a -3.8 -3.8 -3.9 --- --- 2.6 N 0.04 4.3 -5.8 --- --- 730.7 0.015 0.000 10.1 10 1
02/04/06 3:58 a -3.9 -3.9 -3.9 --- --- 2.6 N 0.04 3.5 -5.9 --- --- 730.7 0.015 0.000 10.1 10 1
02/04/06 3:59 a -3.8 -3.8 -3.8 --- --- 3.5 N 0.06 5.2 -6.6 --- --- 730.8 0.015 0.000 10.1 10 1
02/04/06 4:00 a -3.8 -3.8 -3.8 --- --- 3.5 N 0.06 5.2 -6.6 --- --- 730.7 0.015 0.000 10.1 10 1
02/04/06 4:01 a -3.8 -3.8 -3.8 --- --- 5.2 NNW 0.09 7.0 -7.8 --- --- 730.6 0.015 0.000 10.1 10 1
02/04/06 4:02 a -3.8 -3.7 -3.8 --- --- 6.1 NNW 0.10 7.8 -8.2 --- --- 730.7 0.015 0.000 10.1 10 1
02/04/06 4:03 a -3.6 -3.6 -3.7 --- --- 5.2 NNW 0.09 6.1 -7.5 --- --- 730.7 0.015 0.000 10.1 10 1
02/04/06 4:04 a -3.7 -3.7 -3.7 --- --- 6.1 NNW 0.10 6.1 -8.1 --- --- 730.7 0.015 0.000 10.1 10 1
02/04/06 4:05 a -3.7 -3.7 -3.7 --- --- 5.2 NNW 0.09 6.1 -7.6 --- --- 730.7 0.015 0.000 10.1 10 1
02/04/06 4:06 a -3.7 -3.6 -3.7 --- --- 4.3 NNW 0.07 6.1 -7.1 --- --- 730.7 0.015 0.000 10.1 10 1
02/04/06 4:07 a -3.7 -3.6 -3.8 --- --- 4.3 NNW 0.07 5.2 -7.1 --- --- 730.8 0.015 0.000 10.1 10 1
02/04/06 4:08 a -3.7 -3.7 -3.8 --- --- 4.3 NNW 0.07 5.2 -7.1 --- --- 730.7 0.015 0.000 10.1 10 1
02/04/06 4:09 a -3.8 -3.7 -3.8 --- --- 3.5 NNW 0.06 4.3 -6.6 --- --- 730.7 0.015 0.000 10.1 10 1
02/04/06 4:10 a -3.8 -3.8 -3.8 --- --- 2.6 NNW 0.04 4.3 -5.8 --- --- 730.7 0.015 0.000 10.1 10 1
02/04/06 4:11 a -3.9 -3.8 -3.9 --- --- 3.5 NNW 0.06 5.2 -6.7 --- --- 730.7 0.015 0.000 10.1 10 1
02/04/06 4:12 a -3.9 -3.8 -3.9 --- --- 4.3 NNW 0.07 5.2 -7.3 --- --- 730.7 0.015 0.000 10.1 10 1
02/04/06 4:13 a -3.7 -3.7 -3.8 --- --- 4.3 NNW 0.07 6.1 -7.1 --- --- 730.7 0.015 0.000 10.1 10 1
02/04/06 4:14 a -3.7 -3.6 -3.7 --- --- 4.3 NNW 0.07 5.2 -7.1 --- --- 730.7 0.015 0.000 10.1 10 1
02/04/06 4:15 a -3.6 -3.6 -3.7 --- --- 4.3 NNW 0.07 5.2 -7.0 --- --- 730.7 0.015 0.000 10.1 10 1
02/04/06 4:16 a -3.7 -3.7 -3.8 --- --- 2.6 NNW 0.04 3.5 -5.7 --- --- 730.7 0.015 0.000 10.1 10 1
02/04/06 4:17 a -3.7 -3.7 -3.8 --- --- 2.6 NNW 0.04 4.3 -5.7 --- --- 730.7 0.015 0.000 10.1 10 1
02/04/06 4:18 a -3.7 -3.7 -3.8 --- --- 1.7 NNW 0.03 2.6 -4.7 --- --- 730.7 0.015 0.000 10.1 10 1
02/04/06 4:19 a -3.8 -3.8 -3.8 --- --- 1.7 NNW 0.03 3.5 -4.8 --- --- 730.7 0.015 0.000 10.1 10 1
02/04/06 4:20 a -3.7 -3.7 -3.7 --- --- 2.6 NNW 0.04 6.1 -5.7 --- --- 730.7 0.015 0.000 10.1 10 1
02/04/06 4:21 a -3.7 -3.7 -3.8 --- --- 4.3 N 0.07 5.2 -7.1 --- --- 730.7 0.015 0.000 10.1 10 1
02/04/06 4:22 a -3.8 -3.8 -3.8 --- --- 4.3 N 0.07 5.2 -7.2 --- --- 730.7 0.015 0.000 10.1 10 1
02/04/06 4:23 a -3.8 -3.8 -3.8 --- --- 4.3 N 0.07 5.2 -7.2 --- --- 730.7 0.015 0.000 10.1 10 1
02/04/06 4:24 a -3.6 -3.6 -3.6 --- --- 3.5 N 0.06 5.2 -6.3 --- --- 730.7 0.015 0.000 10.1 10 1
02/04/06 4:25 a -3.6 -3.6 -3.6 --- --- 4.3 N 0.07 5.2 -6.9 --- --- 730.7 0.015 0.000 10.1 10 1
02/04/06 4:26 a -3.7 -3.7 -3.7 --- --- 4.3 N 0.07 6.1 -7.1 --- --- 730.7 0.015 0.000 10.1 10 1
02/04/06 4:27 a -3.7 -3.7 -3.8 --- --- 4.3 N 0.07 7.0 -7.1 --- --- 730.7 0.015 0.000 10.1 10 1
02/04/06 4:28 a -3.7 -3.7 -3.7 --- --- 4.3 N 0.07 5.2 -7.1 --- --- 730.7 0.015 0.000 10.1 10 1
02/04/06 4:29 a -3.7 -3.7 -3.7 --- --- 4.3 N 0.07 6.1 -7.1 --- --- 730.7 0.015 0.000 10.1 10 1
02/04/06 4:30 a -3.7 -3.6 -3.7 --- --- 4.3 N 0.07 6.1 -7.1 --- --- 730.7 0.015 0.000 10.1 10 1
02/04/06 4:31 a -3.7 -3.6 -3.8 --- --- 5.2 N 0.09 6.1 -7.6 --- --- 730.7 0.015 0.000 10.1 10 1
02/04/06 4:32 a -3.8 -3.7 -3.8 --- --- 4.3 NNW 0.07 5.2 -7.2 --- --- 730.6 0.015 0.000 10.1 10 1
02/04/06 4:33 a -3.8 -3.7 -3.8 --- --- 5.2 N 0.09 7.8 -7.7 --- --- 730.7 0.015 0.000 10.2 10 1
02/04/06 4:34 a -3.9 -3.8 -3.9 --- --- 4.3 N 0.07 6.1 -7.3 --- --- 730.7 0.015 0.000 10.2 10 1
02/04/06 4:35 a -4.0 -3.9 -4.1 --- --- 3.5 N 0.06 4.3 -6.8 --- --- 730.6 0.016 0.000 10.1 10 1
02/04/06 4:36 a -4.0 -3.9 -4.1 --- --- 3.5 N 0.06 4.3 -6.8 --- --- 730.7 0.016 0.000 10.1 10 1
02/04/06 4:37 a -3.8 -3.8 -3.9 --- --- 4.3 N 0.07 5.2 -7.2 --- --- 730.7 0.015 0.000 10.1 10 1
02/04/06 4:38 a -3.8 -3.8 -3.8 --- --- 4.3 N 0.07 6.1 -7.2 --- --- 730.7 0.015 0.000 10.1 10 1
02/04/06 4:39 a -3.7 -3.7 -3.8 --- --- 6.1 N 0.10 7.8 -8.1 --- --- 730.7 0.015 0.000 10.1 10 1
02/04/06 4:40 a -3.7 -3.6 -3.7 --- --- 5.2 N 0.09 7.0 -7.6 --- --- 730.7 0.015 0.000 10.1 10 1
02/04/06 4:41 a -3.6 -3.5 -3.6 --- --- 3.5 N 0.06 5.2 -6.3 --- --- 730.7 0.015 0.000 10.1 10 1
02/04/06 4:42 a -3.7 -3.6 -3.7 --- --- 6.1 NNW 0.10 7.0 -8.1 --- --- 730.7 0.015 0.000 10.1 10 1
02/04/06 4:43 a -3.7 -3.7 -3.7 --- --- 6.1 NNW 0.10 7.8 -8.1 --- --- 730.7 0.015 0.000 10.1 10 1
02/04/06 4:44 a -3.8 -3.7 -3.8 --- --- 4.3 N 0.07 6.1 -7.2 --- --- 730.7 0.015 0.000 10.1 10 1
02/04/06 4:45 a -3.8 -3.8 -3.9 --- --- 5.2 N 0.09 5.2 -7.8 --- --- 730.8 0.015 0.000 10.1 10 1
02/04/06 4:46 a -3.9 -3.9 -3.9 --- --- 5.2 N 0.09 6.1 -7.8 --- --- 730.7 0.015 0.000 10.1 10 1
02/04/06 4:47 a -3.9 -3.9 -3.9 --- --- 5.2 N 0.09 6.1 -7.8 --- --- 730.7 0.015 0.000 10.2 10 1
02/04/06 4:48 a -3.9 -3.9 -4.0 --- --- 4.3 N 0.07 5.2 -7.4 --- --- 730.7 0.015 0.000 10.2 10 1
02/04/06 4:49 a -4.0 -3.9 -4.1 --- --- 4.3 N 0.07 7.0 -7.4 --- --- 730.7 0.016 0.000 10.1 10 1
02/04/06 4:50 a -4.0 -3.9 -4.1 --- --- 5.2 N 0.09 7.0 -7.9 --- --- 730.7 0.016 0.000 10.1 10 1
02/04/06 4:51 a -3.9 -3.9 -4.0 --- --- 4.3 N 0.07 6.1 -7.4 --- --- 730.8 0.015 0.000 10.2 10 1
02/04/06 4:52 a -3.9 -3.9 -4.0 --- --- 4.3 N 0.07 5.2 -7.4 --- --- 730.8 0.015 0.000 10.2 10 1
02/04/06 4:53 a -3.9 -3.9 -3.9 --- --- 4.3 N 0.07 5.2 -7.4 --- --- 730.7 0.015 0.000 10.2 10 1
02/04/06 4:54 a -3.9 -3.8 -3.9 --- --- 4.3 N 0.07 5.2 -7.3 --- --- 730.7 0.015 0.000 10.2 10 1
02/04/06 4:55 a -3.8 -3.8 -3.9 --- --- 3.5 N 0.06 6.1 -6.6 --- --- 730.7 0.015 0.000 10.2 10 1
02/04/06 4:56 a -3.9 -3.9 -3.9 --- --- 4.3 N 0.07 6.1 -7.4 --- --- 730.7 0.015 0.000 10.2 10 1
02/04/06 4:57 a -3.9 -3.9 -3.9 --- --- 4.3 N 0.07 5.2 -7.3 --- --- 730.7 0.015 0.000 10.2 10 1
02/04/06 4:58 a -3.9 -3.9 -3.9 --- --- 4.3 N 0.07 5.2 -7.3 --- --- 730.7 0.015 0.000 10.2 10 1
02/04/06 4:59 a -3.9 -3.9 -3.9 --- --- 4.3 N 0.07 6.1 -7.3 --- --- 730.8 0.015 0.000 10.2 10 1
02/04/06 5:00 a -3.9 -3.9 -3.9 --- --- 5.2 N 0.09 7.0 -7.8 --- --- 730.8 0.015 0.000 10.2 10 1
02/04/06 5:02 a -3.9 -3.8 -3.9 --- --- 5.2 N 0.09 7.0 -7.8 --- --- 730.8 0.015 0.000 10.1 10 1
02/04/06 5:03 a -3.8 -3.8 -3.8 --- --- 6.1 N 0.10 7.8 -8.2 --- --- 730.8 0.015 0.000 10.1 10 1
02/04/06 5:04 a -3.8 -3.8 -3.8 --- --- 5.2 N 0.09 7.0 -7.8 --- --- 730.7 0.015 0.000 10.1 10 1
02/04/06 5:05 a -3.9 -3.8 -3.9 --- --- 5.2 N 0.09 6.1 -7.8 --- --- 730.7 0.015 0.000 10.2 10 1
02/04/06 5:06 a -3.8 -3.8 -3.9 --- --- 6.1 N 0.10 7.8 -8.2 --- --- 730.7 0.015 0.000 10.2 10 1
02/04/06 5:07 a -3.8 -3.8 -3.9 --- --- 6.1 N 0.10 7.8 -8.2 --- --- 730.7 0.015 0.000 10.2 10 1
02/04/06 5:08 a -3.9 -3.9 -3.9 --- --- 4.3 N 0.07 5.2 -7.4 --- --- 730.7 0.015 0.000 10.2 10 1
02/04/06 5:09 a -3.9 -3.9 -3.9 --- --- 7.0 N 0.12 7.8 -8.8 --- --- 730.7 0.015 0.000 10.2 11 1
02/04/06 5:10 a -3.9 -3.9 -4.0 --- --- 6.1 N 0.10 7.0 -8.4 --- --- 730.8 0.015 0.000 10.2 10 1
02/04/06 5:11 a -4.1 -4.0 -4.1 --- --- 6.1 N 0.10 7.8 -8.5 --- --- 730.7 0.016 0.000 10.2 10 1
02/04/06 5:12 a -4.1 -4.0 -4.1 --- --- 6.1 N 0.10 7.8 -8.5 --- --- 730.7 0.016 0.000 10.2 10 1
02/04/06 5:13 a -4.1 -4.0 -4.1 --- --- 5.2 N 0.09 7.0 -8.1 --- --- 730.8 0.016 0.000 10.2 10 1
02/04/06 5:14 a -4.1 -4.0 -4.1 --- --- 6.1 N 0.10 7.0 -8.5 --- --- 730.6 0.016 0.000 10.2 10 1
02/04/06 5:15 a -4.0 -4.0 -4.0 --- --- 4.3 NNW 0.07 6.1 -7.4 --- --- 730.7 0.016 0.000 10.2 10 1
02/04/06 5:16 a -4.0 -3.9 -4.0 --- --- 5.2 N 0.09 6.1 -7.9 --- --- 730.7 0.016 0.000 10.2 10 1
02/04/06 5:17 a -3.9 -3.9 -3.9 --- --- 5.2 N 0.09 7.0 -7.9 --- --- 730.7 0.015 0.000 10.2 10 1
02/04/06 5:18 a -3.9 -3.9 -3.9 --- --- 4.3 N 0.07 5.2 -7.4 --- --- 730.7 0.015 0.000 10.2 11 1
02/04/06 5:19 a -3.9 -3.8 -3.9 --- --- 3.5 N 0.06 4.3 -6.7 --- --- 730.7 0.015 0.000 10.2 11 1
02/04/06 5:20 a -3.7 -3.7 -3.8 --- --- 4.3 N 0.07 5.2 -7.1 --- --- 730.6 0.015 0.000 10.2 10 1
02/04/06 5:21 a -3.7 -3.6 -3.7 --- --- 4.3 N 0.07 5.2 -7.1 --- --- 730.7 0.015 0.000 10.2 10 1
02/04/06 5:22 a -3.7 -3.7 -3.7 --- --- 3.5 N 0.06 5.2 -6.5 --- --- 730.7 0.015 0.000 10.2 10 1
02/04/06 5:23 a -3.7 -3.7 -3.7 --- --- 4.3 N 0.07 7.0 -7.1 --- --- 730.7 0.015 0.000 10.2 10 1
02/04/06 5:24 a -3.8 -3.7 -3.8 --- --- 4.3 N 0.07 7.0 -7.2 --- --- 730.7 0.015 0.000 10.2 10 1
02/04/06 5:25 a -3.8 -3.7 -3.8 --- --- 5.2 N 0.09 7.0 -7.7 --- --- 730.7 0.015 0.000 10.2 11 1
02/04/06 5:26 a -3.7 -3.7 -3.8 --- --- 5.2 N 0.09 6.1 -7.6 --- --- 730.7 0.015 0.000 10.2 11 1
02/04/06 5:27 a -3.7 -3.7 -3.7 --- --- 4.3 N 0.07 5.2 -7.1 --- --- 730.7 0.015 0.000 10.2 10 1
02/04/06 5:28 a -3.7 -3.7 -3.8 --- --- 4.3 N 0.07 5.2 -7.1 --- --- 730.7 0.015 0.000 10.2 10 1
02/04/06 5:29 a -3.8 -3.8 -3.9 --- --- 5.2 N 0.09 6.1 -7.8 --- --- 730.7 0.015 0.000 10.2 10 1
02/04/06 5:30 a -3.8 -3.8 -3.9 --- --- 4.3 N 0.07 5.2 -7.2 --- --- 730.8 0.015 0.000 10.2 10 1
02/04/06 5:31 a -3.8 -3.8 -3.8 --- --- 5.2 N 0.09 6.1 -7.8 --- --- 730.7 0.015 0.000 10.2 11 1
02/04/06 5:32 a -3.8 -3.8 -3.8 --- --- 6.1 N 0.10 7.0 -8.2 --- --- 730.7 0.015 0.000 10.2 10 1
02/04/06 5:33 a -3.8 -3.8 -3.8 --- --- 5.2 N 0.09 6.1 -7.8 --- --- 730.7 0.015 0.000 10.2 11 1
02/04/06 5:34 a -3.8 -3.8 -3.9 --- --- 4.3 N 0.07 5.2 -7.2 --- --- 730.7 0.015 0.000 10.2 10 1
02/04/06 5:35 a -3.9 -3.8 -3.9 --- --- 5.2 N 0.09 6.1 -7.8 --- --- 730.8 0.015 0.000 10.2 11 1
02/04/06 5:36 a -3.8 -3.8 -3.8 --- --- 6.1 N 0.10 7.8 -8.2 --- --- 730.7 0.015 0.000 10.2 11 1
02/04/06 5:37 a -3.6 -3.4 -3.8 --- --- 7.0 N 0.12 7.8 -8.4 --- --- 730.7 0.015 0.000 10.2 11 1
02/04/06 5:38 a -3.5 -3.4 -3.6 --- --- 4.3 N 0.07 6.1 -6.8 --- --- 730.7 0.015 0.000 10.2 10 1
02/04/06 5:39 a -3.5 -3.4 -3.6 --- --- 6.1 N 0.10 7.8 -7.8 --- --- 730.7 0.015 0.000 10.2 10 1
02/04/06 5:40 a -3.6 -3.5 -3.6 --- --- 6.1 N 0.10 7.8 -7.9 --- --- 730.7 0.015 0.000 10.2 10 1
02/04/06 5:41 a -3.6 -3.6 -3.7 --- --- 5.2 N 0.09 6.1 -7.5 --- --- 730.8 0.015 0.000 10.2 11 1
02/04/06 5:42 a -3.8 -3.7 -3.8 --- --- 6.1 N 0.10 7.8 -8.2 --- --- 730.7 0.015 0.000 10.2 11 1
02/04/06 5:43 a -3.8 -3.8 -3.8 --- --- 6.1 N 0.10 7.0 -8.2 --- --- 730.7 0.015 0.000 10.2 10 1
02/04/06 5:44 a -3.8 -3.8 -3.9 --- --- 6.1 N 0.10 7.8 -8.2 --- --- 730.7 0.015 0.000 10.2 11 1
02/04/06 5:45 a -3.9 -3.9 -3.9 --- --- 6.1 N 0.10 7.8 -8.3 --- --- 730.7 0.015 0.000 10.2 11 1
02/04/06 5:46 a -3.9 -3.9 -3.9 --- --- 6.1 N 0.10 7.8 -8.4 --- --- 730.7 0.015 0.000 10.2 11 1
02/04/06 5:47 a -3.8 -3.8 -3.9 --- --- 5.2 N 0.09 7.0 -7.7 --- --- 730.7 0.015 0.000 10.2 11 1
02/04/06 5:48 a -3.7 -3.7 -3.8 --- --- 5.2 N 0.09 7.0 -7.6 --- --- 730.7 0.015 0.000 10.2 11 1
02/04/06 5:49 a -3.7 -3.7 -3.8 --- --- 6.1 N 0.10 7.8 -8.1 --- --- 730.7 0.015 0.000 10.2 10 1
02/04/06 5:50 a -3.7 -3.7 -3.8 --- --- 6.1 N 0.10 7.0 -8.1 --- --- 730.7 0.015 0.000 10.2 10 1
02/04/06 5:51 a -3.8 -3.7 -3.8 --- --- 6.1 N 0.10 7.0 -8.2 --- --- 730.7 0.015 0.000 10.2 11 1
02/04/06 5:52 a -3.7 -3.7 -3.8 --- --- 5.2 N 0.09 7.8 -7.6 --- --- 730.6 0.015 0.000 10.2 11 1
02/04/06 5:53 a -3.7 -3.7 -3.8 --- --- 5.2 N 0.09 7.8 -7.6 --- --- 730.7 0.015 0.000 10.2 11 1
02/04/06 5:54 a -3.7 -3.7 -3.7 --- --- 7.0 N 0.12 7.8 -8.4 --- --- 730.7 0.015 0.000 10.2 10 1
02/04/06 5:55 a -3.7 -3.7 -3.7 --- --- 6.1 N 0.10 7.8 -8.1 --- --- 730.7 0.015 0.000 10.2 11 1
02/04/06 5:56 a -3.8 -3.7 -3.8 --- --- 6.1 N 0.10 7.8 -8.2 --- --- 730.8 0.015 0.000 10.2 11 1
02/04/06 5:57 a -3.7 -3.7 -3.8 --- --- 6.1 N 0.10 7.8 -8.1 --- --- 730.7 0.015 0.000 10.2 10 1
02/04/06 5:58 a -3.7 -3.7 -3.7 --- --- 6.1 N 0.10 8.7 -8.1 --- --- 730.7 0.015 0.000 10.2 11 1
02/04/06 5:59 a -3.6 -3.6 -3.7 --- --- 7.0 N 0.12 7.8 -8.4 --- --- 730.7 0.015 0.000 10.2 11 1
02/04/06 6:00 a -3.7 -3.7 -3.7 --- --- 7.0 N 0.12 7.8 -8.4 --- --- 730.7 0.015 0.000 10.2 11 1
02/04/06 6:02 a -3.7 -3.7 -3.8 --- --- 6.1 N 0.10 7.8 -8.1 --- --- 730.8 0.015 0.000 10.2 11 1
02/04/06 6:03 a -3.8 -3.7 -3.8 --- --- 6.1 N 0.10 7.8 -8.2 --- --- 730.7 0.015 0.000 10.2 11 1
02/04/06 6:04 a -3.8 -3.8 -3.8 --- --- 6.1 N 0.10 7.8 -8.2 --- --- 730.7 0.015 0.000 10.2 11 1
02/04/06 6:05 a -3.8 -3.8 -3.8 --- --- 7.0 NNW 0.12 8.7 -8.6 --- --- 730.7 0.015 0.000 10.2 11 1
02/04/06 6:06 a -3.8 -3.8 -3.8 --- --- 7.0 N 0.12 8.7 -8.6 --- --- 730.7 0.015 0.000 10.2 11 1
02/04/06 6:07 a -3.8 -3.7 -3.8 --- --- 7.0 N 0.12 8.7 -8.6 --- --- 730.7 0.015 0.000 10.2 11 1
02/04/06 6:08 a -3.7 -3.7 -3.7 --- --- 7.8 NNW 0.13 8.7 -8.9 --- --- 730.7 0.015 0.000 10.2 11 1
02/04/06 6:09 a -3.8 -3.7 -3.8 --- --- 7.0 NNW 0.12 8.7 -8.6 --- --- 730.8 0.015 0.000 10.2 11 1
02/04/06 6:10 a -3.7 -3.7 -3.7 --- --- 6.1 NNW 0.10 8.7 -8.1 --- --- 730.7 0.015 0.000 10.2 11 1
02/04/06 6:11 a -3.7 -3.7 -3.7 --- --- 7.0 NNW 0.12 8.7 -8.5 --- --- 730.7 0.015 0.000 10.2 11 1
02/04/06 6:12 a -3.7 -3.7 -3.7 --- --- 7.0 NNW 0.12 8.7 -8.4 --- --- 730.8 0.015 0.000 10.2 11 1
02/04/06 6:13 a -3.8 -3.7 -3.8 --- --- 7.0 NNW 0.12 8.7 -8.6 --- --- 730.7 0.015 0.000 10.2 11 1
02/04/06 6:14 a -3.8 -3.8 -3.8 --- --- 6.1 NNW 0.10 8.7 -8.2 --- --- 730.7 0.015 0.000 10.2 11 1
02/04/06 6:15 a -3.8 -3.7 -3.8 --- --- 7.8 NNW 0.13 7.8 -8.9 --- --- 730.7 0.015 0.000 10.2 11 1
02/04/06 6:16 a -3.7 -3.7 -3.8 --- --- 7.0 NNW 0.12 8.7 -8.5 --- --- 730.8 0.015 0.000 10.2 11 1
02/04/06 6:17 a -3.7 -3.7 -3.8 --- --- 7.0 NNW 0.12 8.7 -8.5 --- --- 730.7 0.015 0.000 10.2 11 1
02/04/06 6:18 a -3.7 -3.7 -3.7 --- --- 7.8 NNW 0.13 8.7 -8.9 --- --- 730.8 0.015 0.000 10.2 11 1
02/04/06 6:19 a -3.7 -3.7 -3.7 --- --- 6.1 NNW 0.10 8.7 -8.1 --- --- 730.7 0.015 0.000 10.2 11 1
02/04/06 6:20 a -3.7 -3.7 -3.7 --- --- 7.0 NNW 0.12 8.7 -8.4 --- --- 730.7 0.015 0.000 10.2 11 1
02/04/06 6:21 a -3.6 -3.6 -3.7 --- --- 6.1 NNW 0.10 8.7 -7.9 --- --- 730.7 0.015 0.000 10.2 11 1
02/04/06 6:22 a -3.7 -3.6 -3.7 --- --- 6.1 NNW 0.10 7.0 -8.1 --- --- 730.7 0.015 0.000 10.2 11 1
02/04/06 6:23 a -3.7 -3.6 -3.7 --- --- 6.1 NNW 0.10 7.8 -8.1 --- --- 730.8 0.015 0.000 10.2 11 1
02/04/06 6:24 a -3.6 -3.6 -3.7 --- --- 7.0 NNW 0.12 7.8 -8.4 --- --- 730.7 0.015 0.000 10.2 11 1
02/04/06 6:25 a -3.6 -3.5 -3.6 --- --- 6.1 NNW 0.10 7.8 -7.9 --- --- 730.7 0.015 0.000 10.2 11 1
02/04/06 6:26 a -3.6 -3.5 -3.7 --- --- 6.1 N 0.10 7.0 -7.9 --- --- 730.6 0.015 0.000 10.2 11 1
02/04/06 6:27 a -3.7 -3.7 -3.7 --- --- 5.2 NNW 0.09 7.0 -7.6 --- --- 730.7 0.015 0.000 10.2 11 1
02/04/06 6:28 a -3.7 -3.7 -3.7 --- --- 6.1 NNW 0.10 7.0 -8.1 --- --- 730.8 0.015 0.000 10.2 11 1
02/04/06 6:29 a -3.7 -3.7 -3.7 --- --- 5.2 NNW 0.09 6.1 -7.6 --- --- 730.7 0.015 0.000 10.2 11 1
02/04/06 6:30 a -3.8 -3.8 -3.8 --- --- 4.3 NNW 0.07 6.1 -7.2 --- --- 730.8 0.015 0.000 10.2 11 1
02/04/06 6:31 a -3.8 -3.8 -3.8 --- --- 4.3 NNW 0.07 5.2 -7.2 --- --- 730.7 0.015 0.000 10.2 11 1
02/04/06 6:32 a -3.8 -3.8 -3.8 --- --- 4.3 NNW 0.07 6.1 -7.2 --- --- 730.7 0.015 0.000 10.2 11 1
02/04/06 6:33 a -3.7 -3.7 -3.7 --- --- 5.2 NNW 0.09 7.0 -7.6 --- --- 730.7 0.015 0.000 10.2 11 1
02/04/06 6:34 a -3.7 -3.7 -3.8 --- --- 6.1 NNW 0.10 7.0 -8.1 --- --- 730.8 0.015 0.000 10.2 11 1
02/04/06 6:35 a -3.8 -3.8 -3.8 --- --- 5.2 NNW 0.09 5.2 -7.7 --- --- 730.8 0.015 0.000 10.2 11 1
02/04/06 6:36 a -3.7 -3.7 -3.8 --- --- 5.2 NNW 0.09 6.1 -7.6 --- --- 730.7 0.015 0.000 10.2 11 1
02/04/06 6:37 a -3.8 -3.8 -3.8 --- --- 3.5 NNW 0.06 5.2 -6.6 --- --- 730.8 0.015 0.000 10.2 11 1
02/04/06 6:38 a -3.8 -3.8 -3.8 --- --- 4.3 NNW 0.07 6.1 -7.2 --- --- 730.7 0.015 0.000 10.2 11 1
02/04/06 6:39 a -3.8 -3.8 -3.8 --- --- 3.5 NNW 0.06 5.2 -6.6 --- --- 730.7 0.015 0.000 10.2 11 1
02/04/06 6:40 a -3.8 -3.8 -3.8 --- --- 2.6 NNW 0.04 3.5 -5.8 --- --- 730.7 0.015 0.000 10.2 11 1
02/04/06 6:41 a -3.8 -3.8 -3.9 --- --- 2.6 NNW 0.04 2.6 -5.8 --- --- 730.8 0.015 0.000 10.2 11 1
02/04/06 6:42 a -3.9 -3.9 -3.9 --- --- 2.6 NNW 0.04 3.5 -5.9 --- --- 730.8 0.015 0.000 10.2 11 1
02/04/06 6:43 a -3.9 -3.9 -3.9 --- --- 3.5 NNW 0.06 5.2 -6.7 --- --- 730.8 0.015 0.000 10.2 11 1
02/04/06 6:44 a -3.9 -3.9 -3.9 --- --- 3.5 NNW 0.06 4.3 -6.7 --- --- 730.8 0.015 0.000 10.2 11 1
02/04/06 6:45 a -4.0 -3.9 -4.0 --- --- 2.6 NNW 0.04 4.3 -6.0 --- --- 730.7 0.016 0.000 10.2 11 1
02/04/06 6:46 a -4.1 -4.0 -4.1 --- --- 2.6 NNW 0.04 3.5 -6.1 --- --- 730.8 0.016 0.000 10.2 11 1
02/04/06 6:47 a -4.1 -4.0 -4.1 --- --- 2.6 NNW 0.04 3.5 -6.1 --- --- 730.7 0.016 0.000 10.2 11 1
02/04/06 6:48 a -4.1 -4.0 -4.1 --- --- 3.5 NNW 0.06 5.2 -6.9 --- --- 730.7 0.016 0.000 10.2 11 1
02/04/06 6:49 a -3.9 -3.9 -4.0 --- --- 2.6 NNW 0.04 3.5 -5.9 --- --- 730.8 0.015 0.000 10.2 11 1
02/04/06 6:50 a -3.9 -3.9 -3.9 --- --- 1.7 NNW 0.03 3.5 -4.8 --- --- 730.8 0.015 0.000 10.2 11 1
02/04/06 6:51 a -3.8 -3.8 -3.9 --- --- 1.7 NNW 0.03 3.5 -4.8 --- --- 730.9 0.015 0.000 10.2 11 1
02/04/06 6:52 a -3.8 -3.8 -3.9 --- --- 3.5 NNW 0.06 5.2 -6.6 --- --- 730.8 0.015 0.000 10.2 11 1
02/04/06 6:53 a -3.9 -3.9 -3.9 --- --- 3.5 NNW 0.06 4.3 -6.7 --- --- 730.7 0.015 0.000 10.2 11 1
02/04/06 6:54 a -4.0 -3.9 -4.1 --- --- 3.5 NNW 0.06 4.3 -6.8 --- --- 730.8 0.016 0.000 10.2 11 1
02/04/06 6:55 a -4.1 -4.1 -4.2 --- --- 2.6 NNW 0.04 3.5 -6.2 --- --- 730.8 0.016 0.000 10.2 11 1
02/04/06 6:56 a -4.2 -4.2 -4.2 --- --- 3.5 NNW 0.06 5.2 -7.1 --- --- 730.8 0.016 0.000 10.2 11 1
02/04/06 6:57 a -4.2 -4.2 -4.2 --- --- 5.2 NNW 0.09 6.1 -8.2 --- --- 730.9 0.016 0.000 10.2 11 1
02/04/06 6:58 a -4.1 -4.1 -4.2 --- --- 3.5 NNW 0.06 5.2 -6.9 --- --- 730.8 0.016 0.000 10.2 11 1
02/04/06 6:59 a -4.1 -4.0 -4.1 --- --- 3.5 NNW 0.06 5.2 -6.9 --- --- 730.8 0.016 0.000 10.2 11 1
02/04/06 7:00 a -3.9 -3.9 -4.0 --- --- 4.3 N 0.07 7.0 -7.4 --- --- 730.8 0.015 0.000 10.2 11 1
02/04/06 7:01 a -3.9 -3.8 -3.9 --- --- 5.2 N 0.09 6.1 -7.8 --- --- 730.8 0.015 0.000 10.3 11 1
02/04/06 7:02 a -3.9 -3.8 -3.9 --- --- 5.2 N 0.09 6.1 -7.8 --- --- 730.8 0.015 0.000 10.3 11 1
02/04/06 7:03 a -3.9 -3.9 -3.9 --- --- 6.1 N 0.10 8.7 -8.4 --- --- 730.8 0.015 0.000 10.3 11 1
02/04/06 7:04 a -3.9 -3.9 -3.9 --- --- 5.2 N 0.09 7.0 -7.8 --- --- 730.8 0.015 0.000 10.3 11 1
02/04/06 7:05 a -3.9 -3.9 -3.9 --- --- 5.2 N 0.09 7.8 -7.9 --- --- 730.8 0.015 0.000 10.3 11 1
02/04/06 7:06 a -3.9 -3.9 -3.9 --- --- 5.2 N 0.09 7.8 -7.9 --- --- 730.7 0.015 0.000 10.2 11 1
02/04/06 7:07 a -3.9 -3.8 -3.9 --- --- 5.2 N 0.09 7.0 -7.8 --- --- 730.8 0.015 0.000 10.2 11 1
02/04/06 7:08 a -3.8 -3.8 -3.8 --- --- 5.2 N 0.09 6.1 -7.7 --- --- 730.7 0.015 0.000 10.2 11 1
02/04/06 7:09 a -3.8 -3.8 -3.9 --- --- 5.2 N 0.09 6.1 -7.8 --- --- 730.8 0.015 0.000 10.2 11 1
02/04/06 7:10 a -3.9 -3.9 -3.9 --- --- 4.3 N 0.07 5.2 -7.3 --- --- 730.8 0.015 0.000 10.2 10 1
02/04/06 7:11 a -3.9 -3.9 -3.9 --- --- 4.3 N 0.07 6.1 -7.3 --- --- 730.8 0.015 0.000 10.2 10 1
02/04/06 7:12 a -3.9 -3.8 -3.9 --- --- 4.3 N 0.07 5.2 -7.3 --- --- 730.8 0.015 0.000 10.3 11 1
02/04/06 7:13 a -3.8 -3.7 -3.8 --- --- 6.1 N 0.10 7.0 -8.2 --- --- 730.9 0.015 0.000 10.3 10 1
02/04/06 7:14 a -3.8 -3.7 -3.8 --- --- 5.2 N 0.09 6.1 -7.7 --- --- 730.8 0.015 0.000 10.3 10 1
02/04/06 7:15 a -3.8 -3.8 -3.8 --- --- 5.2 N 0.09 7.0 -7.8 --- --- 730.8 0.015 0.000 10.3 10 1
02/04/06 7:16 a -3.8 -3.8 -3.9 --- --- 5.2 N 0.09 7.0 -7.8 --- --- 730.9 0.015 0.000 10.3 11 1
02/04/06 7:17 a -3.9 -3.9 -3.9 --- --- 6.1 N 0.10 8.7 -8.3 --- --- 730.8 0.015 0.000 10.3 10 1
02/04/06 7:18 a -3.9 -3.9 -3.9 --- --- 4.3 N 0.07 6.1 -7.4 --- --- 730.8 0.015 0.000 10.3 10 1
02/04/06 7:19 a -4.0 -3.9 -4.1 --- --- 5.2 N 0.09 7.0 -7.9 --- --- 730.8 0.016 0.000 10.3 10 1
02/04/06 7:20 a -4.0 -4.0 -4.1 --- --- 5.2 N 0.09 7.0 -7.9 --- --- 730.8 0.016 0.000 10.3 10 1
02/04/06 7:21 a -4.0 -3.9 -4.0 --- --- 4.3 N 0.07 5.2 -7.4 --- --- 730.8 0.016 0.000 10.3 10 1
02/04/06 7:22 a -4.0 -3.9 -4.1 --- --- 3.5 N 0.06 5.2 -6.8 --- --- 730.8 0.016 0.000 10.2 10 1
02/04/06 7:23 a -4.1 -4.1 -4.1 --- --- 4.3 N 0.07 6.1 -7.5 --- --- 730.8 0.016 0.000 10.2 10 1
02/04/06 7:24 a -4.1 -4.0 -4.1 --- --- 4.3 N 0.07 5.2 -7.5 --- --- 730.8 0.016 0.000 10.2 10 1
02/04/06 7:25 a -4.0 -4.0 -4.0 --- --- 4.3 N 0.07 6.1 -7.4 --- --- 730.8 0.016 0.000 10.2 10 1
02/04/06 7:26 a -4.0 -4.0 -4.1 --- --- 4.3 N 0.07 6.1 -7.4 --- --- 730.7 0.016 0.000 10.2 10 1
02/04/06 7:27 a -4.1 -4.1 -4.1 --- --- 3.5 N 0.06 5.2 -6.9 --- --- 730.8 0.016 0.000 10.2 10 1
02/04/06 7:28 a -4.0 -3.9 -4.0 --- --- 5.2 N 0.09 6.1 -7.9 --- --- 730.9 0.016 0.000 10.2 10 1
02/04/06 7:29 a -3.9 -3.9 -4.0 --- --- 3.5 N 0.06 5.2 -6.7 --- --- 730.9 0.015 0.000 10.2 10 1
02/04/06 7:30 a -3.9 -3.9 -4.0 --- --- 4.3 N 0.07 6.1 -7.4 --- --- 730.8 0.015 0.000 10.2 10 1
02/04/06 7:31 a -4.0 -3.9 -4.0 --- --- 5.2 N 0.09 7.0 -7.9 --- --- 730.8 0.016 0.000 10.2 10 1
02/04/06 7:32 a -4.0 -3.9 -4.0 --- --- 5.2 N 0.09 7.0 -7.9 --- --- 730.8 0.016 0.000 10.2 10 1
02/04/06 7:33 a -4.0 -4.0 -4.0 --- --- 6.1 N 0.10 7.8 -8.4 --- --- 730.8 0.016 0.000 10.2 10 1
02/04/06 7:34 a -4.1 -4.0 -4.1 --- --- 5.2 N 0.09 7.8 -8.1 --- --- 730.9 0.016 0.000 10.2 10 1
02/04/06 7:35 a -4.1 -4.1 -4.2 --- --- 4.3 N 0.07 6.1 -7.6 --- --- 730.9 0.016 0.000 10.2 10 1
02/04/06 7:36 a -4.2 -4.1 -4.2 --- --- 4.3 N 0.07 6.1 -7.6 --- --- 730.8 0.016 0.000 10.2 10 1
02/04/06 7:37 a -4.2 -4.2 -4.2 --- --- 4.3 N 0.07 6.1 -7.7 --- --- 730.8 0.016 0.000 10.2 10 1
02/04/06 7:38 a -4.2 -4.2 -4.3 --- --- 3.5 N 0.06 5.2 -7.1 --- --- 730.7 0.016 0.000 10.2 10 1
02/04/06 7:39 a -4.3 -4.3 -4.3 --- --- 4.3 N 0.07 5.2 -7.8 --- --- 730.9 0.016 0.000 10.2 10 1
02/04/06 7:40 a -4.3 -4.3 -4.3 --- --- 5.2 N 0.09 6.1 -8.3 --- --- 730.8 0.016 0.000 10.2 10 1
02/04/06 7:41 a -4.3 -4.3 -4.3 --- --- 5.2 N 0.09 6.1 -8.3 --- --- 730.8 0.016 0.000 10.2 10 1
02/04/06 7:42 a -4.2 -4.2 -4.3 --- --- 5.2 N 0.09 7.0 -8.2 --- --- 730.9 0.016 0.000 10.2 10 1
02/04/06 7:43 a -4.2 -4.2 -4.3 --- --- 4.3 N 0.07 6.1 -7.7 --- --- 730.8 0.016 0.000 10.2 10 1
02/04/06 7:44 a -4.3 -4.3 -4.3 --- --- 3.5 N 0.06 4.3 -7.1 --- --- 730.8 0.016 0.000 10.2 10 1
02/04/06 7:45 a -4.3 -4.3 -4.3 --- --- 3.5 N 0.06 4.3 -7.2 --- --- 730.8 0.016 0.000 10.2 10 1
02/04/06 7:46 a -4.3 -4.3 -4.3 --- --- 3.5 N 0.06 4.3 -7.2 --- --- 730.9 0.016 0.000 10.2 10 1
02/04/06 7:47 a -4.4 -4.3 -4.4 --- --- 2.6 N 0.04 4.3 -6.4 --- --- 730.8 0.016 0.000 10.2 10 1
02/04/06 7:48 a -4.4 -4.3 -4.4 --- --- 4.3 N 0.07 6.1 -7.9 --- --- 730.8 0.016 0.000 10.2 10 1
02/04/06 7:49 a -4.3 -4.3 -4.3 --- --- 4.3 N 0.07 5.2 -7.8 --- --- 730.8 0.016 0.000 10.2 10 1
02/04/06 7:50 a -4.3 -4.3 -4.3 --- --- 4.3 N 0.07 7.0 -7.8 --- --- 730.9 0.016 0.000 10.2 10 1
02/04/06 7:51 a -4.3 -4.3 -4.3 --- --- 3.5 N 0.06 4.3 -7.2 --- --- 730.8 0.016 0.000 10.2 10 1
02/04/06 7:52 a -4.3 -4.3 -4.3 --- --- 2.6 N 0.04 3.5 -6.4 --- --- 730.8 0.016 0.000 10.2 10 1
02/04/06 7:53 a -4.3 -4.3 -4.3 --- --- 2.6 N 0.04 4.3 -6.3 --- --- 730.7 0.016 0.000 10.2 10 1
02/04/06 7:54 a -4.3 -4.2 -4.3 --- --- 2.6 N 0.04 4.3 -6.3 --- --- 730.8 0.016 0.000 10.2 10 1
02/04/06 7:55 a -4.3 -4.2 -4.3 --- --- 3.5 N 0.06 4.3 -7.1 --- --- 730.8 0.016 0.000 10.2 10 1
02/04/06 7:56 a -4.2 -4.2 -4.2 --- --- 2.6 N 0.04 4.3 -6.3 --- --- 730.8 0.016 0.000 10.2 10 1
02/04/06 7:57 a -4.2 -4.2 -4.2 --- --- 3.5 N 0.06 5.2 -7.0 --- --- 730.8 0.016 0.000 10.2 10 1
02/04/06 7:58 a -4.2 -4.2 -4.2 --- --- 4.3 N 0.07 6.1 -7.7 --- --- 730.8 0.016 0.000 10.2 10 1
02/04/06 7:59 a -4.3 -4.2 -4.3 --- --- 5.2 NNW 0.09 6.1 -8.3 --- --- 730.7 0.016 0.000 10.2 10 1
02/04/06 8:00 a -4.2 -4.2 -4.3 --- --- 3.5 N 0.06 4.3 -7.1 --- --- 730.8 0.016 0.000 10.2 10 1
02/04/06 8:01 a -4.3 -4.3 -4.3 --- --- 4.3 N 0.07 5.2 -7.8 --- --- 730.8 0.016 0.000 10.2 10 1
02/04/06 8:02 a -4.3 -4.3 -4.3 --- --- 3.5 N 0.06 4.3 -7.1 --- --- 730.8 0.016 0.000 10.2 10 1
02/04/06 8:03 a -4.3 -4.3 -4.3 --- --- 4.3 N 0.07 5.2 -7.8 --- --- 730.8 0.016 0.000 10.2 10 1
02/04/06 8:04 a -4.3 -4.3 -4.3 --- --- 3.5 N 0.06 5.2 -7.1 --- --- 730.8 0.016 0.000 10.2 10 1
02/04/06 8:05 a -4.3 -4.3 -4.3 --- --- 2.6 N 0.04 3.5 -6.4 --- --- 730.8 0.016 0.000 10.2 10 1
02/04/06 8:06 a -4.3 -4.2 -4.3 --- --- 2.6 N 0.04 4.3 -6.3 --- --- 730.9 0.016 0.000 10.2 10 1
02/04/06 8:07 a -4.2 -4.2 -4.2 --- --- 4.3 N 0.07 5.2 -7.7 --- --- 730.8 0.016 0.000 10.2 10 1
02/04/06 8:08 a -4.2 -4.2 -4.3 --- --- 3.5 N 0.06 4.3 -7.1 --- --- 730.8 0.016 0.000 10.2 10 1
02/04/06 8:09 a -4.3 -4.3 -4.3 --- --- 3.5 N 0.06 5.2 -7.1 --- --- 730.8 0.016 0.000 10.2 10 1
02/04/06 8:10 a -4.3 -4.3 -4.3 --- --- 3.5 N 0.06 4.3 -7.1 --- --- 730.8 0.016 0.000 10.2 10 1
02/04/06 8:11 a -4.3 -4.3 -4.3 --- --- 3.5 N 0.06 4.3 -7.2 --- --- 730.7 0.016 0.000 10.2 10 1
02/04/06 8:12 a -4.3 -4.2 -4.3 --- --- 2.6 N 0.04 3.5 -6.3 --- --- 730.8 0.016 0.000 10.2 10 1
02/04/06 8:13 a -4.2 -4.2 -4.2 --- --- 3.5 N 0.06 5.2 -7.1 --- --- 730.7 0.016 0.000 10.2 10 1
02/04/06 8:14 a -4.2 -4.2 -4.2 --- --- 2.6 N 0.04 3.5 -6.3 --- --- 730.7 0.016 0.000 10.2 10 1
02/04/06 8:15 a -4.2 -4.2 -4.2 --- --- 2.6 N 0.04 3.5 -6.3 --- --- 730.7 0.016 0.000 10.2 10 1
02/04/06 8:16 a -4.2 -4.2 -4.2 --- --- 3.5 N 0.06 5.2 -7.1 --- --- 730.8 0.016 0.000 10.2 10 1
02/04/06 8:17 a -4.2 -4.2 -4.2 --- --- 4.3 N 0.07 5.2 -7.7 --- --- 730.8 0.016 0.000 10.2 10 1
02/04/06 8:18 a -4.3 -4.2 -4.3 --- --- 3.5 N 0.06 4.3 -7.1 --- --- 730.7 0.016 0.000 10.2 10 1
02/04/06 8:19 a -4.3 -4.2 -4.3 --- --- 2.6 N 0.04 4.3 -6.3 --- --- 730.8 0.016 0.000 10.2 10 1
02/04/06 8:20 a -4.2 -4.2 -4.3 --- --- 2.6 N 0.04 3.5 -6.3 --- --- 730.8 0.016 0.000 10.2 10 1
02/04/06 8:21 a -4.2 -4.2 -4.3 --- --- 2.6 N 0.04 3.5 -6.3 --- --- 730.8 0.016 0.000 10.2 10 1
02/04/06 8:22 a -4.2 -4.2 -4.2 --- --- 2.6 N 0.04 3.5 -6.3 --- --- 730.8 0.016 0.000 10.2 10 1
02/04/06 8:23 a -4.2 -4.2 -4.3 --- --- 3.5 N 0.06 3.5 -7.1 --- --- 730.8 0.016 0.000 10.2 10 1
02/04/06 8:24 a -4.3 -4.3 -4.3 --- --- 2.6 N 0.04 3.5 -6.3 --- --- 730.8 0.016 0.000 10.2 10 1
02/04/06 8:25 a -4.2 -4.1 -4.3 --- --- 2.6 N 0.04 4.3 -6.3 --- --- 730.8 0.016 0.000 10.2 10 1
02/04/06 8:26 a -4.1 -4.1 -4.1 --- --- 2.6 N 0.04 3.5 -6.1 --- --- 730.8 0.016 0.000 10.2 10 1
02/04/06 8:27 a -4.1 -4.1 -4.1 --- --- 2.6 N 0.04 3.5 -6.1 --- --- 730.8 0.016 0.000 10.2 10 1
02/04/06 8:28 a -4.1 -4.1 -4.1 --- --- 1.7 N 0.03 3.5 -5.1 --- --- 730.9 0.016 0.000 10.2 10 1
02/04/06 8:29 a -4.2 -4.1 -4.2 --- --- 3.5 N 0.06 4.3 -7.0 --- --- 730.8 0.016 0.000 10.2 10 1
02/04/06 8:30 a -4.2 -4.2 -4.2 --- --- 2.6 N 0.04 4.3 -6.3 --- --- 730.8 0.016 0.000 10.2 10 1
02/04/06 8:31 a -4.2 -4.2 -4.2 --- --- 3.5 N 0.06 5.2 -7.1 --- --- 730.8 0.016 0.000 10.2 10 1
02/04/06 8:32 a -4.2 -4.2 -4.2 --- --- 3.5 N 0.06 5.2 -7.0 --- --- 730.8 0.016 0.000 10.2 10 1
02/04/06 8:33 a -4.2 -4.2 -4.2 --- --- 4.3 N 0.07 5.2 -7.6 --- --- 730.7 0.016 0.000 10.2 10 1
02/04/06 8:34 a -4.2 -4.2 -4.2 --- --- 3.5 NNW 0.06 5.2 -7.0 --- --- 730.8 0.016 0.000 10.2 10 1
02/04/06 8:35 a -4.1 -4.1 -4.2 --- --- 3.5 NNW 0.06 4.3 -6.9 --- --- 730.8 0.016 0.000 10.2 10 1
02/04/06 8:36 a -4.2 -4.1 -4.2 --- --- 3.5 N 0.06 4.3 -7.0 --- --- 730.7 0.016 0.000 10.2 10 1
02/04/06 8:37 a -4.1 -4.1 -4.1 --- --- 2.6 N 0.04 2.6 -6.2 --- --- 730.8 0.016 0.000 10.2 10 1
02/04/06 8:38 a -4.1 -4.1 -4.1 --- --- 3.5 N 0.06 5.2 -6.9 --- --- 730.8 0.016 0.000 10.2 10 1
02/04/06 8:39 a -4.1 -4.1 -4.1 --- --- 4.3 N 0.07 6.1 -7.5 --- --- 730.8 0.016 0.000 10.2 10 1
02/04/06 8:40 a -4.1 -4.1 -4.2 --- --- 4.3 N 0.07 4.3 -7.6 --- --- 730.8 0.016 0.000 10.2 10 1
02/04/06 8:41 a -4.1 -4.1 -4.1 --- --- 4.3 NNW 0.07 5.2 -7.6 --- --- 730.8 0.016 0.000 10.2 10 1
02/04/06 8:42 a -4.2 -4.1 -4.2 --- --- 2.6 N 0.04 4.3 -6.2 --- --- 730.8 0.016 0.000 10.2 10 1
02/04/06 8:43 a -4.2 -4.2 -4.2 --- --- 2.6 N 0.04 4.3 -6.2 --- --- 730.7 0.016 0.000 10.2 10 1
02/04/06 8:44 a -4.1 -4.1 -4.2 --- --- 3.5 N 0.06 4.3 -6.9 --- --- 730.9 0.016 0.000 10.2 10 1
02/04/06 8:45 a -4.2 -4.1 -4.2 --- --- 2.6 N 0.04 4.3 -6.2 --- --- 730.8 0.016 0.000 10.2 10 1
02/04/06 8:46 a -4.3 -4.2 -4.3 --- --- 3.5 N 0.06 4.3 -7.1 --- --- 730.8 0.016 0.000 10.2 10 1
02/04/06 8:47 a -4.3 -4.3 -4.3 --- --- 2.6 N 0.04 3.5 -6.3 --- --- 730.7 0.016 0.000 10.2 10 1
02/04/06 8:48 a -4.3 -4.3 -4.3 --- --- 3.5 N 0.06 4.3 -7.1 --- --- 730.8 0.016 0.000 10.2 10 1
02/04/06 8:49 a -4.3 -4.3 -4.3 --- --- 3.5 N 0.06 4.3 -7.1 --- --- 730.7 0.016 0.000 10.2 10 1
02/04/06 8:50 a -4.3 -4.3 -4.3 --- --- 2.6 N 0.04 3.5 -6.3 --- --- 730.8 0.016 0.000 10.2 10 1
02/04/06 8:51 a -4.3 -4.2 -4.3 --- --- 2.6 N 0.04 4.3 -6.3 --- --- 730.8 0.016 0.000 10.2 10 1
02/04/06 8:52 a -4.3 -4.3 -4.3 --- --- 3.5 N 0.06 4.3 -7.1 --- --- 730.8 0.016 0.000 10.2 10 1
02/04/06 8:53 a -4.3 -4.3 -4.3 --- --- 3.5 N 0.06 4.3 -7.1 --- --- 730.8 0.016 0.000 10.2 10 1
02/04/06 8:54 a -4.3 -4.3 -4.3 --- --- 2.6 N 0.04 3.5 -6.3 --- --- 730.8 0.016 0.000 10.2 10 1
02/04/06 8:55 a -4.3 -4.3 -4.3 --- --- 3.5 N 0.06 4.3 -7.2 --- --- 730.8 0.016 0.000 10.2 10 1
02/04/06 8:56 a -4.3 -4.3 -4.3 --- --- 4.3 N 0.07 5.2 -7.8 --- --- 730.8 0.016 0.000 10.2 10 1
02/04/06 8:57 a -4.3 -4.3 -4.4 --- --- 3.5 N 0.06 4.3 -7.2 --- --- 730.8 0.016 0.000 10.2 10 1
02/04/06 8:58 a -4.4 -4.3 -4.4 --- --- 2.6 N 0.04 3.5 -6.4 --- --- 730.8 0.016 0.000 10.2 10 1
02/04/06 8:59 a -4.3 -4.3 -4.3 --- --- 4.3 N 0.07 5.2 -7.8 --- --- 730.8 0.016 0.000 10.2 10 1
02/04/06 9:00 a -4.3 -4.3 -4.3 --- --- 3.5 N 0.06 4.3 -7.2 --- --- 730.8 0.016 0.000 10.2 10 1
02/04/06 9:01 a -4.3 -4.3 -4.3 --- --- 3.5 N 0.06 5.2 -7.2 --- --- 730.8 0.016 0.000 10.2 10 1
02/04/06 9:02 a -4.3 -4.3 -4.4 --- --- 2.6 N 0.04 4.3 -6.4 --- --- 730.8 0.016 0.000 10.2 10 1
02/04/06 9:03 a -4.4 -4.3 -4.4 --- --- 0.9 N 0.01 2.6 -4.4 --- --- 730.8 0.016 0.000 10.2 10 1
02/04/06 9:04 a -4.3 -4.3 -4.4 --- --- 2.6 N 0.04 3.5 -6.4 --- --- 730.7 0.016 0.000 10.2 10 1
02/04/06 9:05 a -4.3 -4.3 -4.4 --- --- 0.9 N 0.01 2.6 -4.3 --- --- 730.8 0.016 0.000 10.2 10 1
02/04/06 9:06 a -4.3 -4.3 -4.3 --- --- 1.7 N 0.03 3.5 -5.3 --- --- 730.8 0.016 0.000 10.2 10 1
02/04/06 9:07 a -4.3 -4.3 -4.3 --- --- 1.7 N 0.03 2.6 -5.3 --- --- 730.8 0.016 0.000 10.2 10 1
02/04/06 9:08 a -4.3 -4.3 -4.3 --- --- 0.9 N 0.01 1.7 -4.3 --- --- 730.8 0.016 0.000 10.2 10 1
02/04/06 9:09 a -4.3 -4.3 -4.3 --- --- 1.7 N 0.03 2.6 -5.3 --- --- 730.8 0.016 0.000 10.2 10 1
02/04/06 9:10 a -4.3 -4.3 -4.3 --- --- 0.9 N 0.01 1.7 -4.3 --- --- 730.7 0.016 0.000 10.2 10 1
02/04/06 9:11 a -4.3 -4.3 -4.3 --- --- 0.0 N 0.00 0.9 -4.3 --- --- 730.8 0.016 0.000 10.2 10 1
02/04/06 9:12 a -4.3 -4.3 -4.3 --- --- 1.7 N 0.03 3.5 -5.3 --- --- 730.8 0.016 0.000 10.2 10 1
02/04/06 9:13 a -4.3 -4.2 -4.3 --- --- 2.6 N 0.04 4.3 -6.3 --- --- 730.8 0.016 0.000 10.2 10 1
02/04/06 9:14 a -4.3 -4.2 -4.3 --- --- 2.6 N 0.04 2.6 -6.3 --- --- 730.8 0.016 0.000 10.2 10 1
02/04/06 9:15 a -4.3 -4.3 -4.4 --- --- 2.6 N 0.04 3.5 -6.4 --- --- 730.8 0.016 0.000 10.2 10 1
02/04/06 9:16 a -4.4 -4.4 -4.4 --- --- 1.7 N 0.03 2.6 -5.4 --- --- 730.7 0.016 0.000 10.2 10 1
02/04/06 9:17 a -4.4 -4.4 -4.4 --- --- 0.9 N 0.01 2.6 -4.4 --- --- 730.8 0.016 0.000 10.2 10 1
02/04/06 9:18 a -4.4 -4.4 -4.4 --- --- 1.7 N 0.03 1.7 -5.4 --- --- 730.7 0.016 0.000 10.2 10 1
02/04/06 9:19 a -4.4 -4.4 -4.4 --- --- 1.7 N 0.03 2.6 -5.4 --- --- 730.8 0.016 0.000 10.2 10 1
02/04/06 9:20 a -4.4 -4.4 -4.4 --- --- 2.6 N 0.04 3.5 -6.4 --- --- 730.8 0.016 0.000 10.2 10 1
02/04/06 9:21 a -4.4 -4.4 -4.4 --- --- 1.7 N 0.03 3.5 -5.4 --- --- 730.8 0.016 0.000 10.2 10 1
02/04/06 9:22 a -4.4 -4.4 -4.4 --- --- 2.6 N 0.04 2.6 -6.5 --- --- 730.8 0.016 0.000 10.2 10 1
02/04/06 9:23 a -4.4 -4.4 -4.4 --- --- 1.7 N 0.03 2.6 -5.4 --- --- 730.8 0.016 0.000 10.2 10 1
02/04/06 9:24 a -4.4 -4.4 -4.4 --- --- 1.7 N 0.03 2.6 -5.4 --- --- 730.8 0.016 0.000 10.2 11 1
02/04/06 9:25 a -4.4 -4.4 -4.4 --- --- 1.7 N 0.03 3.5 -5.4 --- --- 730.8 0.016 0.000 10.2 10 1
02/04/06 9:26 a -4.4 -4.4 -4.4 --- --- 1.7 N 0.03 2.6 -5.4 --- --- 730.8 0.016 0.000 10.2 10 1
02/04/06 9:27 a -4.4 -4.4 -4.4 --- --- 2.6 N 0.04 3.5 -6.5 --- --- 730.8 0.016 0.000 10.2 10 1
02/04/06 9:28 a -4.4 -4.4 -4.4 --- --- 2.6 N 0.04 3.5 -6.5 --- --- 730.8 0.016 0.000 10.2 10 1
02/04/06 9:29 a -4.4 -4.4 -4.4 --- --- 2.6 N 0.04 2.6 -6.5 --- --- 730.7 0.016 0.000 10.2 10 1
02/04/06 9:30 a -4.4 -4.4 -4.4 --- --- 2.6 N 0.04 3.5 -6.5 --- --- 730.8 0.016 0.000 10.2 10 1
02/04/06 9:31 a -4.4 -4.4 -4.4 --- --- 2.6 N 0.04 3.5 -6.5 --- --- 730.7 0.016 0.000 10.2 10 1
02/04/06 9:32 a -4.4 -4.4 -4.5 --- --- 2.6 N 0.04 3.5 -6.5 --- --- 730.8 0.016 0.000 10.2 10 1
02/04/06 9:33 a -4.5 -4.4 -4.5 --- --- 1.7 N 0.03 2.6 -5.5 --- --- 730.7 0.016 0.000 10.2 10 1
02/04/06 9:34 a -4.5 -4.5 -4.5 --- --- 2.6 N 0.04 3.5 -6.6 --- --- 730.8 0.016 0.000 10.2 10 1
02/04/06 9:35 a -4.5 -4.5 -4.5 --- --- 3.5 N 0.06 4.3 -7.4 --- --- 730.7 0.016 0.000 10.2 10 1
02/04/06 9:36 a -4.5 -4.5 -4.6 --- --- 2.6 N 0.04 3.5 -6.6 --- --- 730.8 0.016 0.000 10.2 11 1
02/04/06 9:37 a -4.6 -4.6 -4.6 --- --- 2.6 N 0.04 3.5 -6.7 --- --- 730.7 0.016 0.000 10.2 10 1
02/04/06 9:38 a -4.6 -4.6 -4.6 --- --- 2.6 N 0.04 3.5 -6.7 --- --- 730.7 0.016 0.000 10.2 10 1
02/04/06 9:39 a -4.5 -4.5 -4.6 --- --- 2.6 N 0.04 3.5 -6.6 --- --- 730.8 0.016 0.000 10.2 10 1
02/04/06 9:40 a -4.6 -4.6 -4.6 --- --- 2.6 N 0.04 3.5 -6.7 --- --- 730.7 0.016 0.000 10.2 11 1
02/04/06 9:41 a -4.6 -4.5 -4.6 --- --- 2.6 N 0.04 3.5 -6.7 --- --- 730.8 0.016 0.000 10.2 11 1
02/04/06 9:42 a -4.6 -4.5 -4.6 --- --- 2.6 N 0.04 3.5 -6.7 --- --- 730.7 0.016 0.000 10.2 10 1
02/04/06 9:43 a -4.5 -4.5 -4.6 --- --- 3.5 N 0.06 4.3 -7.4 --- --- 730.7 0.016 0.000 10.2 11 1
02/04/06 9:44 a -4.5 -4.5 -4.5 --- --- 3.5 N 0.06 4.3 -7.4 --- --- 730.8 0.016 0.000 10.2 11 1
02/04/06 9:45 a -4.5 -4.5 -4.5 --- --- 2.6 N 0.04 4.3 -6.6 --- --- 730.8 0.016 0.000 10.2 11 1
02/04/06 9:46 a -4.5 -4.5 -4.5 --- --- 2.6 N 0.04 2.6 -6.6 --- --- 730.8 0.016 0.000 10.2 11 1
02/04/06 9:47 a -4.5 -4.5 -4.6 --- --- 2.6 N 0.04 3.5 -6.6 --- --- 730.7 0.016 0.000 10.2 11 1
02/04/06 9:48 a -4.6 -4.6 -4.6 --- --- 3.5 N 0.06 4.3 -7.4 --- --- 730.7 0.016 0.000 10.2 11 1
02/04/06 9:49 a -4.6 -4.6 -4.6 --- --- 3.5 N 0.06 4.3 -7.4 --- --- 730.7 0.016 0.000 10.2 11 1
02/04/06 9:50 a -4.6 -4.6 -4.6 --- --- 4.3 N 0.07 5.2 -8.1 --- --- 730.7 0.016 0.000 10.2 11 1
02/04/06 9:51 a -4.6 -4.6 -4.6 --- --- 4.3 N 0.07 4.3 -8.1 --- --- 730.8 0.016 0.000 10.2 11 1
02/04/06 9:52 a -4.6 -4.6 -4.6 --- --- 4.3 N 0.07 4.3 -8.1 --- --- 730.8 0.016 0.000 10.2 11 1
02/04/06 9:53 a -4.6 -4.6 -4.6 --- --- 4.3 N 0.07 5.2 -8.1 --- --- 730.8 0.016 0.000 10.2 11 1
02/04/06 9:54 a -4.6 -4.6 -4.6 --- --- 3.5 N 0.06 4.3 -7.5 --- --- 730.8 0.016 0.000 10.2 10 1
02/04/06 9:55 a -4.6 -4.6 -4.6 --- --- 4.3 N 0.07 4.3 -8.2 --- --- 730.7 0.016 0.000 10.2 11 1
02/04/06 9:56 a -4.7 -4.6 -4.7 --- --- 3.5 N 0.06 4.3 -7.6 --- --- 730.7 0.016 0.000 10.2 11 1
02/04/06 9:57 a -4.7 -4.7 -4.7 --- --- 3.5 N 0.06 4.3 -7.6 --- --- 730.8 0.016 0.000 10.2 11 1
02/04/06 9:58 a -4.6 -4.6 -4.6 --- --- 3.5 N 0.06 4.3 -7.5 --- --- 730.8 0.016 0.000 10.2 11 1
02/04/06 9:59 a -4.7 -4.6 -4.7 --- --- 3.5 N 0.06 4.3 -7.6 --- --- 730.8 0.016 0.000 10.2 11 1
02/04/06 10:00 a -4.7 -4.7 -4.7 --- --- 3.5 N 0.06 4.3 -7.6 --- --- 730.8 0.016 0.000 10.2 10 1
02/04/06 10:02 a -4.7 -4.7 -4.7 --- --- 2.6 N 0.04 3.5 -6.8 --- --- 730.6 0.016 0.000 10.2 11 1
02/04/06 10:03 a -4.7 -4.7 -4.7 --- --- 2.6 N 0.04 3.5 -6.8 --- --- 730.7 0.016 0.000 10.2 11 1
02/04/06 10:04 a -4.7 -4.7 -4.7 --- --- 2.6 N 0.04 3.5 -6.8 --- --- 730.8 0.016 0.000 10.2 11 1
02/04/06 10:05 a -4.7 -4.7 -4.7 --- --- 3.5 N 0.06 3.5 -7.6 --- --- 730.8 0.016 0.000 10.2 11 1
02/04/06 10:06 a -4.7 -4.7 -4.7 --- --- 2.6 N 0.04 3.5 -6.8 --- --- 730.7 0.016 0.000 10.2 11 1
02/04/06 10:07 a -4.7 -4.7 -4.7 --- --- 2.6 N 0.04 3.5 -6.8 --- --- 730.7 0.016 0.000 10.2 11 1
02/04/06 10:08 a -4.7 -4.7 -4.7 --- --- 2.6 N 0.04 2.6 -6.8 --- --- 730.7 0.016 0.000 10.2 11 1
02/04/06 10:09 a -4.7 -4.7 -4.7 --- --- 2.6 N 0.04 2.6 -6.8 --- --- 730.8 0.016 0.000 10.2 11 1
02/04/06 10:10 a -4.7 -4.7 -4.8 --- --- 1.7 N 0.03 2.6 -5.8 --- --- 730.7 0.016 0.000 10.2 10 1
02/04/06 10:11 a -4.8 -4.8 -4.8 --- --- 1.7 N 0.03 2.6 -5.8 --- --- 730.7 0.016 0.000 10.2 11 1
02/04/06 10:12 a -4.8 -4.8 -4.8 --- --- 0.9 N 0.01 1.7 -4.8 --- --- 730.7 0.016 0.000 10.2 11 1
02/04/06 10:13 a -4.8 -4.8 -4.8 --- --- 0.9 N 0.01 1.7 -4.8 --- --- 730.8 0.016 0.000 10.2 11 1
02/04/06 10:14 a -4.8 -4.8 -4.8 --- --- 0.9 N 0.01 1.7 -4.8 --- --- 730.8 0.016 0.000 10.1 11 1
02/04/06 10:15 a -4.8 -4.8 -4.8 --- --- 1.7 N 0.03 3.5 -5.8 --- --- 730.7 0.016 0.000 10.2 11 1
02/04/06 10:16 a -4.8 -4.8 -4.8 --- --- 3.5 N 0.06 4.3 -7.7 --- --- 730.7 0.016 0.000 10.2 11 1
02/04/06 10:17 a -4.8 -4.8 -4.8 --- --- 2.6 N 0.04 3.5 -6.9 --- --- 730.7 0.016 0.000 10.2 11 1
02/04/06 10:18 a -4.7 -4.7 -4.7 --- --- 1.7 N 0.03 3.5 -5.8 --- --- 730.8 0.016 0.000 10.2 11 1
02/04/06 10:19 a -4.7 -4.7 -4.8 --- --- 1.7 N 0.03 2.6 -5.8 --- --- 730.7 0.016 0.000 10.2 10 1
02/04/06 10:20 a -4.8 -4.8 -4.8 --- --- 2.6 N 0.04 3.5 -6.9 --- --- 730.6 0.016 0.000 10.2 11 1
02/04/06 10:21 a -4.8 -4.8 -4.8 --- --- 2.6 N 0.04 3.5 -6.9 --- --- 730.6 0.016 0.000 10.2 11 1
02/04/06 10:22 a -4.7 -4.7 -4.8 --- --- 2.6 N 0.04 3.5 -6.8 --- --- 730.7 0.016 0.000 10.2 11 1
02/04/06 10:23 a -4.7 -4.7 -4.7 --- --- 2.6 N 0.04 3.5 -6.8 --- --- 730.7 0.016 0.000 10.2 11 1
02/04/06 10:24 a -4.7 -4.7 -4.7 --- --- 2.6 N 0.04 3.5 -6.8 --- --- 730.7 0.016 0.000 10.2 11 1
02/04/06 10:25 a -4.7 -4.7 -4.7 --- --- 2.6 N 0.04 4.3 -6.8 --- --- 730.8 0.016 0.000 10.2 11 1
02/04/06 10:26 a -4.7 -4.7 -4.7 --- --- 3.5 N 0.06 4.3 -7.6 --- --- 730.6 0.016 0.000 10.2 11 1
02/04/06 10:27 a -4.7 -4.7 -4.7 --- --- 3.5 N 0.06 5.2 -7.6 --- --- 730.6 0.016 0.000 10.2 11 1
02/04/06 10:28 a -4.7 -4.7 -4.7 --- --- 3.5 N 0.06 4.3 -7.6 --- --- 730.7 0.016 0.000 10.2 11 1
02/04/06 10:29 a -4.7 -4.7 -4.7 --- --- 3.5 N 0.06 5.2 -7.6 --- --- 730.7 0.016 0.000 10.2 11 1
02/04/06 10:30 a -4.7 -4.7 -4.7 --- --- 5.2 N 0.09 6.1 -8.8 --- --- 730.6 0.016 0.000 10.2 11 1
02/04/06 10:31 a -4.7 -4.7 -4.7 --- --- 5.2 NNW 0.09 6.1 -8.8 --- --- 730.7 0.016 0.000 10.2 11 1
02/04/06 10:32 a -4.6 -4.6 -4.7 --- --- 5.2 NNW 0.09 7.0 -8.7 --- --- 730.7 0.016 0.000 10.2 11 1
02/04/06 10:33 a -4.6 -4.6 -4.6 --- --- 5.2 NNW 0.09 6.1 -8.7 --- --- 730.7 0.016 0.000 10.2 11 1
02/04/06 10:34 a -4.7 -4.6 -4.7 --- --- 4.3 NNW 0.07 6.1 -8.2 --- --- 730.6 0.016 0.000 10.2 11 1
02/04/06 10:35 a -4.6 -4.6 -4.6 --- --- 4.3 NNW 0.07 4.3 -8.2 --- --- 730.6 0.016 0.000 10.2 11 1
02/04/06 10:36 a -4.6 -4.6 -4.6 --- --- 4.3 NNW 0.07 5.2 -8.2 --- --- 730.7 0.016 0.000 10.2 11 1
02/04/06 10:37 a -4.7 -4.7 -4.7 --- --- 3.5 NNW 0.06 4.3 -7.6 --- --- 730.7 0.016 0.000 10.2 11 1
02/04/06 10:38 a -4.7 -4.7 -4.8 --- --- 3.5 NNW 0.06 5.2 -7.6 --- --- 730.7 0.016 0.000 10.2 11 1
02/04/06 10:39 a -4.8 -4.8 -4.8 --- --- 4.3 NNW 0.07 5.2 -8.3 --- --- 730.7 0.016 0.000 10.1 11 1
02/04/06 10:40 a -4.8 -4.7 -4.8 --- --- 3.5 NNW 0.06 4.3 -7.7 --- --- 730.8 0.016 0.000 10.1 10 1
02/04/06 10:41 a -4.8 -4.8 -4.8 --- --- 5.2 NNW 0.09 6.1 -8.9 --- --- 730.8 0.016 0.000 10.1 11 1
02/04/06 10:42 a -4.7 -4.7 -4.7 --- --- 5.2 NNW 0.09 5.2 -8.8 --- --- 730.7 0.016 0.000 10.2 11 1
02/04/06 10:43 a -4.7 -4.6 -4.7 --- --- 5.2 NNW 0.09 6.1 -8.8 --- --- 730.7 0.016 0.000 10.2 11 1
02/04/06 10:44 a -4.6 -4.6 -4.6 --- --- 5.2 NNW 0.09 6.1 -8.7 --- --- 730.7 0.016 0.000 10.2 10 1
02/04/06 10:45 a -4.6 -4.6 -4.7 --- --- 4.3 NNW 0.07 5.2 -8.2 --- --- 730.7 0.016 0.000 10.2 11 1
02/04/06 10:46 a -4.6 -4.6 -4.7 --- --- 5.2 NNW 0.09 6.1 -8.7 --- --- 730.7 0.016 0.000 10.2 11 1
02/04/06 10:47 a -4.7 -4.7 -4.7 --- --- 5.2 NNW 0.09 6.1 -8.8 --- --- 730.7 0.016 0.000 10.2 11 1
02/04/06 10:48 a -4.7 -4.7 -4.7 --- --- 5.2 NNW 0.09 7.0 -8.8 --- --- 730.7 0.016 0.000 10.2 11 1
02/04/06 10:49 a -4.7 -4.7 -4.8 --- --- 6.1 NNW 0.10 7.0 -9.3 --- --- 730.7 0.016 0.000 10.2 11 1
02/04/06 10:50 a -4.8 -4.8 -4.8 --- --- 6.1 NNW 0.10 7.0 -9.4 --- --- 730.7 0.016 0.000 10.2 11 1
02/04/06 10:51 a -4.8 -4.8 -4.8 --- --- 5.2 NNW 0.09 6.1 -8.9 --- --- 730.7 0.016 0.000 10.1 11 1
02/04/06 10:52 a -4.8 -4.8 -4.8 --- --- 4.3 NNW 0.07 5.2 -8.4 --- --- 730.7 0.016 0.000 10.1 11 1
02/04/06 10:53 a -4.8 -4.8 -4.8 --- --- 4.3 NNW 0.07 5.2 -8.3 --- --- 730.6 0.016 0.000 10.2 11 1
02/04/06 10:54 a -4.8 -4.8 -4.8 --- --- 4.3 NNW 0.07 5.2 -8.3 --- --- 730.7 0.016 0.000 10.2 11 1
02/04/06 10:55 a -4.8 -4.8 -4.8 --- --- 4.3 NNW 0.07 5.2 -8.3 --- --- 730.7 0.016 0.000 10.1 11 1
02/04/06 10:56 a -4.8 -4.8 -4.8 --- --- 3.5 NNW 0.06 4.3 -7.8 --- --- 730.7 0.016 0.000 10.1 11 1
02/04/06 10:57 a -4.8 -4.8 -4.9 --- --- 3.5 NNW 0.06 4.3 -7.8 --- --- 730.7 0.016 0.000 10.1 11 1
02/04/06 10:58 a -4.9 -4.9 -4.9 --- --- 3.5 NNW 0.06 4.3 -7.8 --- --- 730.6 0.016 0.000 10.1 11 1
02/04/06 10:59 a -4.8 -4.8 -4.9 --- --- 2.6 NNW 0.04 3.5 -6.9 --- --- 730.6 0.016 0.000 10.1 11 1
02/04/06 11:00 a -4.9 -4.8 -4.9 --- --- 2.6 NNW 0.04 3.5 -7.0 --- --- 730.7 0.016 0.000 10.1 11 1
02/04/06 11:01 a -4.9 -4.9 -4.9 --- --- 3.5 NNW 0.06 4.3 -7.8 --- --- 730.7 0.016 0.000 10.1 11 1
02/04/06 11:02 a -4.9 -4.9 -4.9 --- --- 4.3 NNW 0.07 6.1 -8.5 --- --- 730.7 0.016 0.000 10.2 11 1
02/04/06 11:03 a -4.9 -4.9 -4.9 --- --- 4.3 NNW 0.07 5.2 -8.5 --- --- 730.7 0.016 0.000 10.2 11 1
02/04/06 11:04 a -4.9 -4.9 -4.9 --- --- 4.3 NNW 0.07 5.2 -8.5 --- --- 730.6 0.016 0.000 10.2 11 1
02/04/06 11:05 a -4.9 -4.9 -4.9 --- --- 4.3 NNW 0.07 4.3 -8.6 --- --- 730.7 0.016 0.000 10.1 11 1
02/04/06 11:06 a -4.9 -4.9 -4.9 --- --- 3.5 NNW 0.06 4.3 -7.8 --- --- 730.7 0.016 0.000 10.2 11 1
02/04/06 11:07 a -4.9 -4.9 -4.9 --- --- 3.5 NNW 0.06 4.3 -7.8 --- --- 730.6 0.016 0.000 10.2 11 1
02/04/06 11:08 a -4.9 -4.9 -4.9 --- --- 4.3 NNW 0.07 5.2 -8.6 --- --- 730.6 0.016 0.000 10.2 11 1
02/04/06 11:09 a -4.9 -4.9 -4.9 --- --- 4.3 NNW 0.07 5.2 -8.6 --- --- 730.7 0.016 0.000 10.2 11 1
02/04/06 11:10 a -4.9 -4.9 -4.9 --- --- 3.5 NNW 0.06 4.3 -7.9 --- --- 730.7 0.016 0.000 10.2 11 1
02/04/06 11:11 a -4.9 -4.9 -4.9 --- --- 2.6 NNW 0.04 3.5 -7.1 --- --- 730.6 0.016 0.000 10.1 11 1
02/04/06 11:12 a -4.9 -4.9 -4.9 --- --- 3.5 NNW 0.06 4.3 -7.9 --- --- 730.7 0.016 0.000 10.1 11 1
02/04/06 11:13 a -4.9 -4.9 -4.9 --- --- 5.2 NNW 0.09 5.2 -9.1 --- --- 730.6 0.016 0.000 10.1 11 1
02/04/06 11:14 a -4.9 -4.9 -5.0 --- --- 3.5 NNW 0.06 5.2 -7.9 --- --- 730.6 0.016 0.000 10.1 11 1
02/04/06 11:15 a -5.0 -5.0 -5.0 --- --- 4.3 NNW 0.07 4.3 -8.6 --- --- 730.7 0.016 0.000 10.1 11 1
02/04/06 11:16 a -4.9 -4.9 -5.0 --- --- 2.6 NNW 0.04 3.5 -7.1 --- --- 730.7 0.016 0.000 10.2 11 1
02/04/06 11:17 a -5.0 -5.0 -5.0 --- --- 3.5 NNW 0.06 5.2 -7.9 --- --- 730.7 0.016 0.000 10.2 11 1
02/04/06 11:18 a -4.9 -4.9 -5.0 --- --- 4.3 NNW 0.07 5.2 -8.6 --- --- 730.7 0.016 0.000 10.2 11 1
02/04/06 11:19 a -4.9 -4.9 -4.9 --- --- 3.5 NNW 0.06 4.3 -7.9 --- --- 730.7 0.016 0.000 10.2 11 1
02/04/06 11:20 a -4.9 -4.9 -4.9 --- --- 3.5 NNW 0.06 4.3 -7.9 --- --- 730.6 0.016 0.000 10.2 11 1
02/04/06 11:21 a -4.9 -4.9 -4.9 --- --- 4.3 NNW 0.07 5.2 -8.6 --- --- 730.6 0.016 0.000 10.2 11 1
02/04/06 11:22 a -4.9 -4.8 -4.9 --- --- 7.0 NNW 0.12 8.7 -9.9 --- --- 730.6 0.016 0.000 10.2 11 1
02/04/06 11:23 a -4.8 -4.8 -4.8 --- --- 7.0 NNW 0.12 8.7 -9.8 --- --- 730.6 0.016 0.000 10.2 11 1
02/04/06 11:24 a -4.8 -4.8 -4.8 --- --- 7.0 NNW 0.12 7.8 -9.8 --- --- 730.7 0.016 0.000 10.1 11 1
02/04/06 11:25 a -4.8 -4.8 -4.9 --- --- 7.0 NNW 0.12 8.7 -9.8 --- --- 730.6 0.016 0.000 10.1 11 1
02/04/06 11:26 a -4.9 -4.9 -4.9 --- --- 6.1 NNW 0.10 7.0 -9.5 --- --- 730.6 0.016 0.000 10.1 11 1
02/04/06 11:27 a -4.9 -4.9 -4.9 --- --- 6.1 NNW 0.10 7.0 -9.5 --- --- 730.6 0.016 0.000 10.1 11 1
02/04/06 11:28 a -4.9 -4.9 -4.9 --- --- 7.0 NNW 0.12 10.4 -9.9 --- --- 730.5 0.016 0.000 10.1 11 1
02/04/06 11:29 a -4.9 -4.8 -4.9 --- --- 7.8 NW 0.13 9.6 -10.3 --- --- 730.6 0.016 0.000 10.1 11 1
02/04/06 11:30 a -4.8 -4.8 -4.8 --- --- 5.2 NW 0.09 7.0 -8.9 --- --- 730.6 0.016 0.000 10.1 11 1
02/04/06 11:31 a -4.8 -4.8 -4.8 --- --- 7.0 NNW 0.12 7.8 -9.8 --- --- 730.6 0.016 0.000 10.1 11 1
02/04/06 11:32 a -4.8 -4.8 -4.8 --- --- 7.0 NNW 0.12 7.8 -9.8 --- --- 730.6 0.016 0.000 10.1 11 1
02/04/06 11:33 a -4.9 -4.8 -4.9 --- --- 7.0 NNW 0.12 7.8 -9.9 --- --- 730.6 0.016 0.000 10.1 11 1
02/04/06 11:34 a -4.9 -4.9 -4.9 --- --- 6.1 NNW 0.10 8.7 -9.6 --- --- 730.6 0.016 0.000 10.2 11 1
02/04/06 11:35 a -5.0 -4.9 -5.0 --- --- 7.8 NNW 0.13 8.7 -10.4 --- --- 730.5 0.016 0.000 10.2 11 1
02/04/06 11:36 a -5.0 -4.9 -5.0 --- --- 7.8 NNW 0.13 10.4 -10.4 --- --- 730.7 0.016 0.000 10.2 11 1
02/04/06 11:37 a -4.9 -4.9 -4.9 --- --- 7.0 NNW 0.12 8.7 -10.0 --- --- 730.5 0.016 0.000 10.2 11 1
02/04/06 11:38 a -4.9 -4.9 -4.9 --- --- 7.0 NNW 0.12 7.8 -10.0 --- --- 730.6 0.016 0.000 10.2 11 1
02/04/06 11:39 a -4.9 -4.9 -4.9 --- --- 6.1 NNW 0.10 7.8 -9.6 --- --- 730.6 0.016 0.000 10.2 11 1
02/04/06 11:40 a -4.9 -4.9 -4.9 --- --- 5.2 NNW 0.09 7.0 -9.1 --- --- 730.6 0.016 0.000 10.2 11 1
02/04/06 11:41 a -4.9 -4.9 -4.9 --- --- 7.0 NNW 0.12 8.7 -10.0 --- --- 730.6 0.016 0.000 10.2 11 1
02/04/06 11:42 a -4.9 -4.9 -4.9 --- --- 7.0 NNW 0.12 8.7 -10.0 --- --- 730.6 0.016 0.000 10.2 11 1
02/04/06 11:43 a -4.9 -4.9 -5.0 --- --- 6.1 NW 0.10 7.0 -9.6 --- --- 730.6 0.016 0.000 10.2 11 1
02/04/06 11:44 a -5.0 -5.0 -5.0 --- --- 5.2 NW 0.09 6.1 -9.2 --- --- 730.6 0.016 0.000 10.2 11 1
02/04/06 11:45 a -5.0 -5.0 -5.0 --- --- 6.1 NW 0.10 7.8 -9.6 --- --- 730.6 0.016 0.000 10.2 11 1
02/04/06 11:46 a -5.1 -5.0 -5.1 --- --- 7.0 NW 0.12 7.8 -10.1 --- --- 730.7 0.016 0.000 10.2 11 1
02/04/06 11:47 a -5.1 -5.1 -5.1 --- --- 5.2 NW 0.09 7.0 -9.3 --- --- 730.6 0.016 0.000 10.1 11 1
02/04/06 11:48 a -5.1 -5.1 -5.1 --- --- 3.5 NW 0.06 4.3 -8.1 --- --- 730.6 0.016 0.000 10.1 11 1
02/04/06 11:49 a -5.2 -5.1 -5.2 --- --- 2.6 NW 0.04 3.5 -7.3 --- --- 730.6 0.016 0.000 10.1 11 1
02/04/06 11:50 a -5.2 -5.2 -5.2 --- --- 3.5 NW 0.06 4.3 -8.2 --- --- 730.7 0.016 0.000 10.1 11 1
02/04/06 11:51 a -5.2 -5.2 -5.2 --- --- 3.5 NW 0.06 4.3 -8.2 --- --- 730.7 0.016 0.000 10.2 11 1
02/04/06 11:52 a -5.2 -5.2 -5.2 --- --- 4.3 NW 0.07 5.2 -8.9 --- --- 730.6 0.016 0.000 10.2 11 1
02/04/06 11:53 a -5.2 -5.2 -5.2 --- --- 5.2 NNW 0.09 6.1 -9.4 --- --- 730.6 0.016 0.000 10.1 11 1
02/04/06 11:54 a -5.2 -5.2 -5.2 --- --- 4.3 NNW 0.07 5.2 -8.9 --- --- 730.6 0.016 0.000 10.1 11 1
02/04/06 11:55 a -5.3 -5.3 -5.3 --- --- 3.5 NNW 0.06 4.3 -8.3 --- --- 730.6 0.016 0.000 10.1 11 1
02/04/06 11:56 a -5.3 -5.3 -5.3 --- --- 3.5 NNW 0.06 4.3 -8.3 --- --- 730.6 0.016 0.000 10.2 11 1
02/04/06 11:57 a -5.3 -5.2 -5.3 --- --- 4.3 NNW 0.07 6.1 -8.9 --- --- 730.6 0.016 0.000 10.2 11 1
02/04/06 11:58 a -5.2 -5.2 -5.2 --- --- 6.1 NW 0.10 7.0 -9.9 --- --- 730.6 0.016 0.000 10.2 11 1
02/04/06 11:59 a -5.2 -5.2 -5.2 --- --- 6.1 NW 0.10 7.8 -9.9 --- --- 730.6 0.016 0.000 10.1 11 1
02/04/06 12:00 p -5.2 -5.2 -5.3 --- --- 5.2 NW 0.09 6.1 -9.4 --- --- 730.6 0.016 0.000 10.1 11 1
02/04/06 12:02 p -5.3 -5.3 -5.3 --- --- 5.2 NW 0.09 6.1 -9.5 --- --- 730.7 0.016 0.000 10.1 11 1
02/04/06 12:03 p -5.3 -5.3 -5.3 --- --- 7.0 NNW 0.12 9.6 -10.4 --- --- 730.7 0.016 0.000 10.1 11 1
02/04/06 12:04 p -5.2 -5.2 -5.3 --- --- 9.6 NNW 0.16 12.2 -11.4 --- --- 730.6 0.016 0.000 10.1 11 1
02/04/06 12:05 p -5.2 -5.2 -5.2 --- --- 7.0 NNW 0.12 9.6 -10.3 --- --- 730.7 0.016 0.000 10.1 11 1
02/04/06 12:06 p -5.2 -5.1 -5.2 --- --- 7.0 NNW 0.12 8.7 -10.3 --- --- 730.6 0.016 0.000 10.1 11 1
02/04/06 12:07 p -5.1 -5.1 -5.1 --- --- 7.8 NNW 0.13 8.7 -10.6 --- --- 730.7 0.016 0.000 10.1 11 1
02/04/06 12:08 p -5.2 -5.2 -5.2 --- --- 7.0 NNW 0.12 8.7 -10.3 --- --- 730.7 0.016 0.000 10.1 11 1
02/04/06 12:09 p -5.2 -5.2 -5.3 --- --- 7.0 NNW 0.12 7.8 -10.3 --- --- 730.6 0.016 0.000 10.1 11 1
02/04/06 12:10 p -5.3 -5.3 -5.3 --- --- 6.1 NNW 0.10 7.8 -10.0 --- --- 730.7 0.016 0.000 10.1 11 1
02/04/06 12:11 p -5.3 -5.2 -5.3 --- --- 6.1 NNW 0.10 7.0 -10.0 --- --- 730.7 0.016 0.000 10.1 11 1
02/04/06 12:12 p -5.2 -5.2 -5.2 --- --- 6.1 NNW 0.10 7.0 -9.9 --- --- 730.6 0.016 0.000 10.1 11 1
02/04/06 12:13 p -5.2 -5.2 -5.2 --- --- 7.0 NNW 0.12 7.8 -10.3 --- --- 730.7 0.016 0.000 10.1 11 1
02/04/06 12:14 p -5.3 -5.2 -5.3 --- --- 5.2 NNW 0.09 7.0 -9.5 --- --- 730.7 0.016 0.000 10.1 11 1
02/04/06 12:15 p -5.3 -5.3 -5.3 --- --- 6.1 NNW 0.10 7.0 -10.0 --- --- 730.7 0.016 0.000 10.1 11 1
02/04/06 12:16 p -5.3 -5.3 -5.3 --- --- 6.1 NNW 0.10 7.0 -10.1 --- --- 730.7 0.016 0.000 10.2 11 1
02/04/06 12:17 p -5.3 -5.3 -5.3 --- --- 6.1 NNW 0.10 7.0 -10.0 --- --- 730.7 0.016 0.000 10.1 11 1
02/04/06 12:18 p -5.3 -5.3 -5.3 --- --- 6.1 NNW 0.10 7.0 -10.1 --- --- 730.7 0.016 0.000 10.1 11 1
02/04/06 12:19 p -5.3 -5.3 -5.3 --- --- 6.1 NNW 0.10 7.0 -10.1 --- --- 730.7 0.016 0.000 10.1 11 1
02/04/06 12:20 p -5.3 -5.3 -5.3 --- --- 6.1 NNW 0.10 7.0 -10.0 --- --- 730.7 0.016 0.000 10.1 11 1
02/04/06 12:21 p -5.3 -5.3 -5.3 --- --- 7.0 NNW 0.12 7.8 -10.4 --- --- 730.7 0.016 0.000 10.1 11 1
02/04/06 12:22 p -5.3 -5.3 -5.3 --- --- 6.1 NNW 0.10 7.8 -10.1 --- --- 730.7 0.016 0.000 10.1 11 1
02/04/06 12:23 p -5.3 -5.3 -5.3 --- --- 7.0 NNW 0.12 7.0 -10.4 --- --- 730.7 0.016 0.000 10.1 11 1
02/04/06 12:24 p -5.4 -5.3 -5.4 --- --- 6.1 NNW 0.10 7.0 -10.1 --- --- 730.7 0.016 0.000 10.1 11 1
02/04/06 12:25 p -5.4 -5.4 -5.4 --- --- 6.1 NNW 0.10 7.0 -10.1 --- --- 730.7 0.016 0.000 10.1 11 1
02/04/06 12:26 p -5.3 -5.3 -5.4 --- --- 5.2 NNW 0.09 6.1 -9.6 --- --- 730.7 0.016 0.000 10.1 11 1
02/04/06 12:27 p -5.3 -5.3 -5.3 --- --- 5.2 NNW 0.09 7.0 -9.6 --- --- 730.7 0.016 0.000 10.1 11 1
02/04/06 12:28 p -5.3 -5.3 -5.3 --- --- 6.1 NNW 0.10 6.1 -10.1 --- --- 730.7 0.016 0.000 10.1 11 1
02/04/06 12:29 p -5.3 -5.3 -5.3 --- --- 5.2 NNW 0.09 6.1 -9.6 --- --- 730.7 0.016 0.000 10.1 11 1
02/04/06 12:30 p -5.3 -5.3 -5.3 --- --- 5.2 NNW 0.09 6.1 -9.6 --- --- 730.6 0.016 0.000 10.1 11 1
02/04/06 12:31 p -5.3 -5.3 -5.3 --- --- 6.1 NNW 0.10 7.0 -10.1 --- --- 730.7 0.016 0.000 10.1 11 1
02/04/06 12:32 p -5.3 -5.3 -5.3 --- --- 5.2 NNW 0.09 7.0 -9.6 --- --- 730.7 0.016 0.000 10.1 11 1
02/04/06 12:33 p -5.3 -5.3 -5.3 --- --- 5.2 NNW 0.09 7.0 -9.6 --- --- 730.7 0.016 0.000 10.1 11 1
02/04/06 12:34 p -5.3 -5.3 -5.3 --- --- 6.1 NNW 0.10 7.0 -10.1 --- --- 730.6 0.016 0.000 10.1 11 1
02/04/06 12:35 p -5.3 -5.3 -5.3 --- --- 6.1 NNW 0.10 7.0 -10.0 --- --- 730.7 0.016 0.000 10.1 11 1
02/04/06 12:36 p -5.3 -5.3 -5.3 --- --- 6.1 NNW 0.10 7.0 -10.0 --- --- 730.8 0.016 0.000 10.1 11 1
02/04/06 12:37 p -5.2 -5.2 -5.3 --- --- 7.0 NNW 0.12 7.8 -10.3 --- --- 730.7 0.016 0.000 10.1 11 1
02/04/06 12:38 p -5.3 -5.2 -5.3 --- --- 7.0 NNW 0.12 7.8 -10.4 --- --- 730.8 0.016 0.000 10.1 11 1
02/04/06 12:39 p -5.2 -5.2 -5.3 --- --- 7.0 NNW 0.12 8.7 -10.3 --- --- 730.7 0.016 0.000 10.1 11 1
02/04/06 12:40 p -5.2 -5.2 -5.3 --- --- 7.0 NNW 0.12 8.7 -10.3 --- --- 730.7 0.016 0.000 10.1 11 1
02/04/06 12:41 p -5.3 -5.3 -5.3 --- --- 7.0 NNW 0.12 7.8 -10.4 --- --- 730.7 0.016 0.000 10.1 11 1
02/04/06 12:42 p -5.3 -5.3 -5.3 --- --- 6.1 NNW 0.10 7.0 -10.0 --- --- 730.7 0.016 0.000 10.1 11 1
02/04/06 12:43 p -5.3 -5.3 -5.3 --- --- 7.8 NNW 0.13 9.6 -10.8 --- --- 730.6 0.016 0.000 10.1 11 1
02/04/06 12:44 p -5.2 -5.2 -5.3 --- --- 7.8 NNW 0.13 8.7 -10.7 --- --- 730.7 0.016 0.000 10.1 11 1
02/04/06 12:45 p -5.3 -5.2 -5.3 --- --- 7.0 NNW 0.12 7.8 -10.4 --- --- 730.7 0.016 0.000 10.1 11 1
02/04/06 12:46 p -5.2 -5.2 -5.2 --- --- 7.0 NNW 0.12 8.7 -10.3 --- --- 730.7 0.016 0.000 10.1 11 1
02/04/06 12:47 p -5.3 -5.3 -5.3 --- --- 6.1 NNW 0.10 7.0 -10.0 --- --- 730.7 0.016 0.000 10.1 11 1
02/04/06 12:48 p -5.3 -5.3 -5.3 --- --- 6.1 NNW 0.10 7.0 -10.1 --- --- 730.7 0.016 0.000 10.1 11 1
02/04/06 12:49 p -5.3 -5.3 -5.3 --- --- 6.1 NNW 0.10 7.0 -10.1 --- --- 730.6 0.016 0.000 10.1 11 1
02/04/06 12:50 p -5.3 -5.3 -5.3 --- --- 5.2 NNW 0.09 6.1 -9.6 --- --- 730.5 0.016 0.000 10.1 11 1
02/04/06 12:51 p -5.3 -5.3 -5.3 --- --- 5.2 NNW 0.09 6.1 -9.6 --- --- 730.6 0.016 0.000 10.1 11 1
02/04/06 12:52 p -5.3 -5.3 -5.3 --- --- 5.2 NNW 0.09 6.1 -9.6 --- --- 730.6 0.016 0.000 10.1 11 1
02/04/06 12:53 p -5.3 -5.3 -5.3 --- --- 6.1 NNW 0.10 7.0 -10.1 --- --- 730.6 0.016 0.000 10.1 11 1
02/04/06 12:54 p -5.3 -5.3 -5.3 --- --- 6.1 NNW 0.10 7.0 -10.0 --- --- 730.7 0.016 0.000 10.1 11 1
02/04/06 12:55 p -5.3 -5.3 -5.3 --- --- 6.1 NNW 0.10 7.0 -10.0 --- --- 730.7 0.016 0.000 10.1 11 1
02/04/06 12:56 p -5.3 -5.3 -5.3 --- --- 7.0 NNW 0.12 7.0 -10.4 --- --- 730.7 0.016 0.000 10.1 11 1
02/04/06 12:57 p -5.3 -5.3 -5.3 --- --- 7.0 NNW 0.12 7.8 -10.4 --- --- 730.7 0.016 0.000 10.1 11 1
02/04/06 12:58 p -5.3 -5.3 -5.3 --- --- 5.2 NNW 0.09 7.0 -9.5 --- --- 730.7 0.016 0.000 10.1 11 1
02/04/06 12:59 p -5.3 -5.3 -5.3 --- --- 5.2 NNW 0.09 6.1 -9.5 --- --- 730.8 0.016 0.000 10.1 11 1
02/04/06 1:00 p -5.2 -5.2 -5.3 --- --- 7.0 NNW 0.12 7.8 -10.3 --- --- 730.7 0.016 0.000 10.1 11 1
02/04/06 1:02 p -5.3 -5.2 -5.3 --- --- 7.8 NNW 0.13 9.6 -10.8 --- --- 730.6 0.016 0.000 10.1 11 1
02/04/06 1:03 p -5.3 -5.2 -5.3 --- --- 7.0 NNW 0.12 7.8 -10.4 --- --- 730.7 0.016 0.000 10.1 11 1
02/04/06 1:04 p -5.2 -5.2 -5.2 --- --- 6.1 NNW 0.10 7.0 -9.9 --- --- 730.6 0.016 0.000 10.1 11 1
02/04/06 1:05 p -5.2 -5.2 -5.2 --- --- 7.0 NNW 0.12 7.8 -10.3 --- --- 730.7 0.016 0.000 10.1 11 1
02/04/06 1:06 p -5.2 -5.2 -5.2 --- --- 7.8 NNW 0.13 8.7 -10.7 --- --- 730.7 0.016 0.000 10.1 11 1
02/04/06 1:07 p -5.2 -5.2 -5.3 --- --- 7.8 NNW 0.13 8.7 -10.7 --- --- 730.6 0.016 0.000 10.1 11 1
02/04/06 1:08 p -5.2 -5.2 -5.2 --- --- 7.8 NNW 0.13 9.6 -10.7 --- --- 730.6 0.016 0.000 10.1 11 1
02/04/06 1:09 p -5.2 -5.2 -5.3 --- --- 9.6 NNW 0.16 10.4 -11.4 --- --- 730.7 0.016 0.000 10.1 11 1
02/04/06 1:10 p -5.3 -5.3 -5.3 --- --- 9.6 NNW 0.16 11.3 -11.4 --- --- 730.6 0.016 0.000 10.1 11 1
02/04/06 1:11 p -5.2 -5.2 -5.3 --- --- 8.7 NNW 0.14 12.2 -11.1 --- --- 730.7 0.016 0.000 10.1 11 1
02/04/06 1:12 p -5.2 -5.2 -5.2 --- --- 9.6 NNW 0.16 12.2 -11.3 --- --- 730.7 0.016 0.000 10.1 11 1
02/04/06 1:13 p -5.2 -5.2 -5.2 --- --- 10.4 NNW 0.17 12.2 -11.6 --- --- 730.6 0.016 0.000 10.1 11 1
02/04/06 1:14 p -5.2 -5.2 -5.2 --- --- 9.6 NNW 0.16 11.3 -11.4 --- --- 730.7 0.016 0.000 10.1 11 1
02/04/06 1:15 p -5.2 -5.2 -5.2 --- --- 9.6 NNW 0.16 12.2 -11.4 --- --- 730.7 0.016 0.000 10.1 11 1
02/04/06 1:16 p -5.2 -5.2 -5.2 --- --- 8.7 NNW 0.14 10.4 -11.1 --- --- 730.7 0.016 0.000 10.1 11 1
02/04/06 1:17 p -5.2 -5.2 -5.2 --- --- 8.7 NNW 0.14 9.6 -11.0 --- --- 730.7 0.016 0.000 10.1 11 1
02/04/06 1:18 p -5.2 -5.2 -5.2 --- --- 9.6 NNW 0.16 11.3 -11.4 --- --- 730.6 0.016 0.000 10.0 11 1
02/04/06 1:19 p -5.2 -5.2 -5.2 --- --- 9.6 NNW 0.16 10.4 -11.4 --- --- 730.7 0.016 0.000 10.0 11 1
02/04/06 1:20 p -5.2 -5.2 -5.2 --- --- 7.8 NNW 0.13 8.7 -10.7 --- --- 730.7 0.016 0.000 10.0 11 1
02/04/06 1:21 p -5.2 -5.2 -5.2 --- --- 7.8 NNW 0.13 8.7 -10.7 --- --- 730.6 0.016 0.000 10.0 11 1
02/04/06 1:22 p -5.2 -5.2 -5.2 --- --- 7.8 NNW 0.13 8.7 -10.7 --- --- 730.7 0.016 0.000 10.0 11 1
02/04/06 1:23 p -5.2 -5.2 -5.2 --- --- 7.0 NNW 0.12 7.8 -10.3 --- --- 730.7 0.016 0.000 10.0 11 1
02/04/06 1:24 p -5.2 -5.2 -5.2 --- --- 7.0 NNW 0.12 7.8 -10.3 --- --- 730.7 0.016 0.000 10.0 11 1
02/04/06 1:25 p -5.2 -5.2 -5.2 --- --- 7.0 NNW 0.12 7.8 -10.3 --- --- 730.7 0.016 0.000 10.0 11 1
02/04/06 1:26 p -5.2 -5.2 -5.2 --- --- 6.1 NNW 0.10 7.0 -9.9 --- --- 730.6 0.016 0.000 10.0 11 1
02/04/06 1:27 p -5.2 -5.2 -5.2 --- --- 6.1 NNW 0.10 8.7 -9.9 --- --- 730.8 0.016 0.000 10.0 11 1
02/04/06 1:28 p -5.2 -5.2 -5.2 --- --- 7.8 NNW 0.13 8.7 -10.7 --- --- 730.7 0.016 0.000 10.0 11 1
02/04/06 1:29 p -5.2 -5.2 -5.2 --- --- 7.0 NNW 0.12 7.8 -10.3 --- --- 730.7 0.016 0.000 10.0 11 1
02/04/06 1:30 p -5.2 -5.2 -5.2 --- --- 6.1 NNW 0.10 7.0 -9.8 --- --- 730.7 0.016 0.000 10.0 11 1
02/04/06 1:31 p -5.2 -5.2 -5.2 --- --- 5.2 N 0.09 6.1 -9.3 --- --- 730.7 0.016 0.000 10.0 11 1
02/04/06 1:32 p -5.2 -5.2 -5.2 --- --- 6.1 N 0.10 7.8 -9.8 --- --- 730.7 0.016 0.000 10.1 11 1
02/04/06 1:33 p -5.2 -5.2 -5.2 --- --- 6.1 N 0.10 7.8 -9.8 --- --- 730.7 0.016 0.000 10.1 11 1
02/04/06 1:34 p -5.2 -5.2 -5.2 --- --- 5.2 N 0.09 7.0 -9.3 --- --- 730.7 0.016 0.000 10.1 11 1
02/04/06 1:35 p -5.2 -5.1 -5.2 --- --- 4.3 N 0.07 5.2 -8.8 --- --- 730.7 0.016 0.000 10.1 11 1
02/04/06 1:36 p -5.1 -5.1 -5.1 --- --- 5.2 N 0.09 6.1 -9.3 --- --- 730.6 0.016 0.000 10.1 11 1
02/04/06 1:37 p -5.1 -5.1 -5.1 --- --- 5.2 N 0.09 7.8 -9.3 --- --- 730.6 0.016 0.000 10.1 11 1
02/04/06 1:38 p -5.1 -5.1 -5.2 --- --- 5.2 N 0.09 6.1 -9.3 --- --- 730.6 0.016 0.000 10.1 11 1
02/04/06 1:39 p -5.1 -5.1 -5.1 --- --- 4.3 N 0.07 6.1 -8.7 --- --- 730.6 0.016 0.000 10.1 11 1
02/04/06 1:40 p -5.1 -5.1 -5.1 --- --- 4.3 N 0.07 5.2 -8.7 --- --- 730.6 0.016 0.000 10.1 11 1
02/04/06 1:41 p -5.1 -5.1 -5.1 --- --- 4.3 N 0.07 5.2 -8.7 --- --- 730.6 0.016 0.000 10.1 11 1
02/04/06 1:42 p -5.2 -5.2 -5.2 --- --- 4.3 N 0.07 5.2 -8.8 --- --- 730.6 0.016 0.000 10.1 11 1
02/04/06 1:43 p -5.2 -5.2 -5.2 --- --- 4.3 N 0.07 5.2 -8.9 --- --- 730.7 0.016 0.000 10.1 11 1
02/04/06 1:44 p -5.2 -5.2 -5.2 --- --- 3.5 N 0.06 4.3 -8.2 --- --- 730.7 0.016 0.000 10.1 11 1
02/04/06 1:45 p -5.2 -5.2 -5.2 --- --- 4.3 N 0.07 5.2 -8.8 --- --- 730.6 0.016 0.000 10.1 11 1
02/04/06 1:46 p -5.2 -5.2 -5.2 --- --- 4.3 N 0.07 6.1 -8.8 --- --- 730.7 0.016 0.000 10.1 11 1
02/04/06 1:47 p -5.2 -5.2 -5.2 --- --- 4.3 N 0.07 5.2 -8.8 --- --- 730.7 0.016 0.000 10.1 11 1
02/04/06 1:48 p -5.2 -5.2 -5.2 --- --- 3.5 N 0.06 4.3 -8.2 --- --- 730.7 0.016 0.000 10.1 11 1
02/04/06 1:49 p -5.2 -5.2 -5.2 --- --- 4.3 N 0.07 4.3 -8.8 --- --- 730.7 0.016 0.000 10.1 11 1
02/04/06 1:50 p -5.2 -5.2 -5.2 --- --- 3.5 N 0.06 5.2 -8.2 --- --- 730.7 0.016 0.000 10.1 11 1
02/04/06 1:51 p -5.2 -5.2 -5.2 --- --- 2.6 N 0.04 4.3 -7.3 --- --- 730.7 0.016 0.000 10.1 11 1
02/04/06 1:52 p -5.1 -5.1 -5.1 --- --- 4.3 N 0.07 7.0 -8.7 --- --- 730.6 0.016 0.000 10.1 11 1
02/04/06 1:53 p -5.1 -5.1 -5.1 --- --- 5.2 N 0.09 6.1 -9.3 --- --- 730.6 0.016 0.000 10.1 11 1
02/04/06 1:54 p -5.1 -5.1 -5.1 --- --- 4.3 N 0.07 6.1 -8.7 --- --- 730.6 0.016 0.000 10.1 11 1
02/04/06 1:55 p -5.1 -5.1 -5.1 --- --- 4.3 N 0.07 5.2 -8.7 --- --- 730.7 0.016 0.000 10.1 11 1
02/04/06 1:56 p -5.1 -5.1 -5.1 --- --- 4.3 N 0.07 5.2 -8.7 --- --- 730.6 0.016 0.000 10.1 11 1
02/04/06 1:57 p -5.1 -5.1 -5.2 --- --- 4.3 N 0.07 5.2 -8.7 --- --- 730.7 0.016 0.000 10.1 11 1
02/04/06 1:58 p -5.1 -5.1 -5.1 --- --- 4.3 N 0.07 5.2 -8.7 --- --- 730.7 0.016 0.000 10.1 11 1
02/04/06 1:59 p -5.1 -5.1 -5.2 --- --- 5.2 N 0.09 6.1 -9.3 --- --- 730.6 0.016 0.000 10.1 11 1
02/04/06 2:00 p -5.1 -5.1 -5.2 --- --- 5.2 N 0.09 6.1 -9.3 --- --- 730.7 0.016 0.000 10.1 11 1
02/04/06 2:02 p -5.1 -5.1 -5.1 --- --- 6.1 N 0.10 7.0 -9.8 --- --- 730.7 0.016 0.000 10.1 11 1
02/04/06 2:03 p -5.1 -5.1 -5.1 --- --- 3.5 N 0.06 5.2 -8.0 --- --- 730.7 0.016 0.000 10.1 11 1
02/04/06 2:04 p -5.1 -5.1 -5.1 --- --- 4.3 N 0.07 6.1 -8.7 --- --- 730.7 0.016 0.000 10.1 11 1
02/04/06 2:05 p -5.1 -5.1 -5.1 --- --- 4.3 N 0.07 6.1 -8.7 --- --- 730.6 0.016 0.000 10.2 11 1
02/04/06 2:06 p -5.1 -5.1 -5.1 --- --- 4.3 N 0.07 6.1 -8.7 --- --- 730.6 0.016 0.000 10.2 11 1
02/04/06 2:07 p -5.1 -5.1 -5.1 --- --- 5.2 N 0.09 6.1 -9.3 --- --- 730.6 0.016 0.000 10.2 11 1
02/04/06 2:08 p -5.1 -5.1 -5.2 --- --- 4.3 N 0.07 6.1 -8.7 --- --- 730.7 0.016 0.000 10.2 11 1
02/04/06 2:09 p -5.1 -5.1 -5.1 --- --- 3.5 N 0.06 5.2 -8.1 --- --- 730.7 0.016 0.000 10.2 11 1
02/04/06 2:10 p -5.1 -5.1 -5.1 --- --- 4.3 N 0.07 5.2 -8.7 --- --- 730.6 0.016 0.000 10.2 11 1
02/04/06 2:11 p -5.1 -5.1 -5.1 --- --- 4.3 N 0.07 5.2 -8.7 --- --- 730.6 0.016 0.000 10.1 11 1
02/04/06 2:12 p -5.1 -5.1 -5.1 --- --- 5.2 N 0.09 6.1 -9.3 --- --- 730.6 0.016 0.000 10.1 11 1
02/04/06 2:13 p -5.1 -5.1 -5.1 --- --- 5.2 N 0.09 7.0 -9.3 --- --- 730.6 0.016 0.000 10.2 11 1
02/04/06 2:14 p -5.2 -5.2 -5.2 --- --- 6.1 NNW 0.10 7.0 -9.8 --- --- 730.7 0.016 0.000 10.2 11 1
02/04/06 2:15 p -5.2 -5.2 -5.2 --- --- 6.1 NNW 0.10 7.0 -9.8 --- --- 730.6 0.016 0.000 10.2 11 1
02/04/06 2:16 p -5.2 -5.2 -5.2 --- --- 5.2 NNW 0.09 6.1 -9.3 --- --- 730.6 0.016 0.000 10.2 11 1
02/04/06 2:17 p -5.2 -5.2 -5.2 --- --- 5.2 N 0.09 7.0 -9.3 --- --- 730.7 0.016 0.000 10.2 11 1
02/04/06 2:18 p -5.1 -5.1 -5.1 --- --- 5.2 N 0.09 7.0 -9.3 --- --- 730.6 0.016 0.000 10.2 11 1
02/04/06 2:19 p -5.1 -5.1 -5.1 --- --- 5.2 N 0.09 7.0 -9.2 --- --- 730.6 0.016 0.000 10.2 11 1
02/04/06 2:20 p -5.1 -5.1 -5.1 --- --- 5.2 N 0.09 6.1 -9.3 --- --- 730.7 0.016 0.000 10.1 11 1
02/04/06 2:21 p -5.1 -5.1 -5.1 --- --- 6.1 N 0.10 7.8 -9.8 --- --- 730.7 0.016 0.000 10.1 11 1
02/04/06 2:22 p -5.1 -5.1 -5.1 --- --- 7.8 NNW 0.13 9.6 -10.6 --- --- 730.6 0.016 0.000 10.1 11 1
02/04/06 2:23 p -5.1 -5.1 -5.2 --- --- 7.0 NNW 0.12 8.7 -10.2 --- --- 730.6 0.016 0.000 10.1 11 1
02/04/06 2:24 p -5.2 -5.2 -5.2 --- --- 7.0 NNW 0.12 7.8 -10.3 --- --- 730.5 0.016 0.000 10.1 11 1
02/04/06 2:25 p -5.2 -5.2 -5.2 --- --- 6.1 NNW 0.10 7.8 -9.8 --- --- 730.6 0.016 0.000 10.1 11 1
02/04/06 2:26 p -5.2 -5.2 -5.2 --- --- 7.8 NNW 0.13 9.6 -10.7 --- --- 730.6 0.016 0.000 10.1 11 1
02/04/06 2:27 p -5.2 -5.2 -5.2 --- --- 6.1 NNW 0.10 8.7 -9.8 --- --- 730.6 0.016 0.000 10.1 11 1
02/04/06 2:28 p -5.2 -5.2 -5.2 --- --- 7.8 NNW 0.13 8.7 -10.7 --- --- 730.6 0.016 0.000 10.1 11 1
02/04/06 2:29 p -5.2 -5.2 -5.2 --- --- 7.0 NNW 0.12 8.7 -10.3 --- --- 730.5 0.016 0.000 10.1 11 1
02/04/06 2:30 p -5.2 -5.1 -5.2 --- --- 7.0 NNW 0.12 7.8 -10.3 --- --- 730.6 0.016 0.000 10.1 11 1
02/04/06 2:31 p -5.2 -5.1 -5.2 --- --- 7.0 NNW 0.12 7.8 -10.3 --- --- 730.6 0.016 0.000 10.1 11 1
02/04/06 2:32 p -5.2 -5.2 -5.2 --- --- 7.0 N 0.12 8.7 -10.3 --- --- 730.6 0.016 0.000 10.1 11 1
02/04/06 2:33 p -5.2 -5.2 -5.2 --- --- 7.8 NNW 0.13 10.4 -10.7 --- --- 730.6 0.016 0.000 10.1 11 1
02/04/06 2:34 p -5.2 -5.2 -5.2 --- --- 9.6 NNW 0.16 10.4 -11.3 --- --- 730.7 0.016 0.000 10.1 11 1
02/04/06 2:35 p -5.2 -5.2 -5.2 --- --- 7.8 NNW 0.13 9.6 -10.7 --- --- 730.6 0.016 0.000 10.2 11 1
02/04/06 2:36 p -5.2 -5.2 -5.2 --- --- 7.8 NNW 0.13 8.7 -10.7 --- --- 730.5 0.016 0.000 10.1 11 1
02/04/06 2:37 p -5.2 -5.2 -5.2 --- --- 7.0 NNW 0.12 7.8 -10.3 --- --- 730.7 0.016 0.000 10.1 11 1
02/04/06 2:38 p -5.2 -5.2 -5.3 --- --- 7.0 NNW 0.12 8.7 -10.3 --- --- 730.6 0.016 0.000 10.1 11 1
02/04/06 2:39 p -5.2 -5.2 -5.2 --- --- 7.0 NNW 0.12 7.8 -10.3 --- --- 730.7 0.016 0.000 10.1 11 1
02/04/06 2:40 p -5.2 -5.2 -5.2 --- --- 7.0 NNW 0.12 8.7 -10.3 --- --- 730.6 0.016 0.000 10.1 11 1
02/04/06 2:41 p -5.2 -5.2 -5.2 --- --- 7.0 NNW 0.12 8.7 -10.3 --- --- 730.6 0.016 0.000 10.1 11 1
02/04/06 2:42 p -5.2 -5.2 -5.2 --- --- 7.0 NNW 0.12 8.7 -10.3 --- --- 730.7 0.016 0.000 10.1 11 1
02/04/06 2:43 p -5.2 -5.2 -5.2 --- --- 7.0 NNW 0.12 8.7 -10.3 --- --- 730.6 0.016 0.000 10.2 11 1
02/04/06 2:44 p -5.2 -5.2 -5.2 --- --- 6.1 NNW 0.10 7.0 -9.9 --- --- 730.6 0.016 0.000 10.2 11 1
02/04/06 2:45 p -5.2 -5.2 -5.2 --- --- 6.1 NNW 0.10 7.8 -9.9 --- --- 730.6 0.016 0.000 10.2 11 1
02/04/06 2:46 p -5.2 -5.2 -5.2 --- --- 7.0 NNW 0.12 7.8 -10.3 --- --- 730.6 0.016 0.000 10.2 11 1
02/04/06 2:47 p -5.2 -5.2 -5.2 --- --- 7.0 NNW 0.12 7.8 -10.3 --- --- 730.7 0.016 0.000 10.1 11 1
02/04/06 2:48 p -5.3 -5.2 -5.3 --- --- 6.1 NNW 0.10 7.0 -10.0 --- --- 730.7 0.016 0.000 10.2 11 1
02/04/06 2:49 p -5.3 -5.3 -5.3 --- --- 5.2 NNW 0.09 7.0 -9.5 --- --- 730.7 0.016 0.000 10.1 11 1
02/04/06 2:50 p -5.3 -5.3 -5.3 --- --- 5.2 NNW 0.09 7.0 -9.5 --- --- 730.7 0.016 0.000 10.1 11 1
02/04/06 2:51 p -5.3 -5.3 -5.3 --- --- 6.1 NNW 0.10 7.8 -10.0 --- --- 730.7 0.016 0.000 10.1 11 1
02/04/06 2:52 p -5.3 -5.3 -5.3 --- --- 7.0 NNW 0.12 7.8 -10.4 --- --- 730.7 0.016 0.000 10.1 11 1
02/04/06 2:53 p -5.3 -5.3 -5.3 --- --- 6.1 NNW 0.10 7.8 -10.0 --- --- 730.6 0.016 0.000 10.1 11 1
02/04/06 2:54 p -5.3 -5.2 -5.3 --- --- 6.1 N 0.10 7.0 -10.0 --- --- 730.7 0.016 0.000 10.1 11 1
02/04/06 2:55 p -5.2 -5.2 -5.2 --- --- 7.0 NNW 0.12 7.8 -10.3 --- --- 730.6 0.016 0.000 10.2 11 1
02/04/06 2:56 p -5.2 -5.1 -5.2 --- --- 6.1 N 0.10 7.8 -9.8 --- --- 730.7 0.016 0.000 10.2 11 1
02/04/06 2:57 p -5.2 -5.2 -5.2 --- --- 5.2 N 0.09 6.1 -9.3 --- --- 730.7 0.016 0.000 10.2 11 1
02/04/06 2:58 p -5.2 -5.2 -5.2 --- --- 6.1 N 0.10 7.0 -9.8 --- --- 730.6 0.016 0.000 10.1 11 1
02/04/06 2:59 p -5.2 -5.2 -5.2 --- --- 6.1 N 0.10 7.0 -9.8 --- --- 730.6 0.016 0.000 10.1 11 1
02/04/06 3:00 p -5.2 -5.2 -5.2 --- --- 7.0 NNW 0.12 7.8 -10.3 --- --- 730.6 0.016 0.000 10.1 11 1
02/04/06 3:01 p -5.2 -5.2 -5.2 --- --- 7.8 NNW 0.13 9.6 -10.7 --- --- 730.5 0.016 0.000 10.1 11 1
02/04/06 3:02 p -5.2 -5.2 -5.2 --- --- 7.8 NNW 0.13 8.7 -10.7 --- --- 730.6 0.016 0.000 10.1 11 1
02/04/06 3:03 p -5.1 -5.1 -5.2 --- --- 8.7 NNW 0.14 10.4 -10.9 --- --- 730.6 0.016 0.000 10.1 11 1
02/04/06 3:04 p -5.2 -5.2 -5.2 --- --- 8.7 NNW 0.14 9.6 -11.0 --- --- 730.6 0.016 0.000 10.1 11 1
02/04/06 3:05 p -5.2 -5.2 -5.2 --- --- 7.8 NNW 0.13 8.7 -10.7 --- --- 730.6 0.016 0.000 10.1 11 1
02/04/06 3:06 p -5.2 -5.2 -5.2 --- --- 7.8 NNW 0.13 9.6 -10.7 --- --- 730.6 0.016 0.000 10.1 11 1
02/04/06 3:07 p -5.2 -5.2 -5.2 --- --- 7.0 NNW 0.12 7.8 -10.3 --- --- 730.6 0.016 0.000 10.1 11 1
02/04/06 3:08 p -5.2 -5.2 -5.2 --- --- 6.1 NNW 0.10 7.8 -9.9 --- --- 730.7 0.016 0.000 10.1 11 1
02/04/06 3:09 p -5.2 -5.2 -5.2 --- --- 7.0 NNW 0.12 7.8 -10.3 --- --- 730.6 0.016 0.000 10.1 11 1
02/04/06 3:10 p -5.2 -5.2 -5.2 --- --- 7.0 NNW 0.12 7.8 -10.3 --- --- 730.6 0.016 0.000 10.1 11 1
02/04/06 3:11 p -5.1 -5.1 -5.2 --- --- 7.8 NNW 0.13 9.6 -10.6 --- --- 730.7 0.016 0.000 10.1 11 1
02/04/06 3:12 p -5.2 -5.1 -5.2 --- --- 7.0 NNW 0.12 7.8 -10.3 --- --- 730.7 0.016 0.000 10.1 11 1
02/04/06 3:13 p -5.2 -5.2 -5.2 --- --- 7.0 NNW 0.12 7.0 -10.3 --- --- 730.7 0.016 0.000 10.1 11 1
02/04/06 3:14 p -5.2 -5.2 -5.2 --- --- 6.1 NNW 0.10 7.0 -9.9 --- --- 730.7 0.016 0.000 10.1 11 1
02/04/06 3:15 p -5.2 -5.2 -5.2 --- --- 5.2 N 0.09 6.1 -9.3 --- --- 730.6 0.016 0.000 10.1 11 1
02/04/06 3:16 p -5.2 -5.2 -5.2 --- --- 5.2 N 0.09 6.1 -9.3 --- --- 730.6 0.016 0.000 10.1 11 1
02/04/06 3:17 p -5.2 -5.2 -5.2 --- --- 5.2 N 0.09 6.1 -9.3 --- --- 730.7 0.016 0.000 10.1 11 1
02/04/06 3:18 p -5.2 -5.1 -5.2 --- --- 5.2 NNW 0.09 7.0 -9.3 --- --- 730.6 0.016 0.000 10.1 11 1
02/04/06 3:19 p -5.1 -5.1 -5.2 --- --- 7.0 NNW 0.12 7.8 -10.2 --- --- 730.6 0.016 0.000 10.1 11 1
02/04/06 3:20 p -5.2 -5.1 -5.2 --- --- 6.1 NNW 0.10 7.0 -9.8 --- --- 730.7 0.016 0.000 10.1 11 1
02/04/06 3:21 p -5.1 -5.1 -5.1 --- --- 5.2 NNW 0.09 6.1 -9.3 --- --- 730.6 0.016 0.000 10.1 11 1
02/04/06 3:22 p -5.1 -5.1 -5.1 --- --- 5.2 N 0.09 6.1 -9.3 --- --- 730.7 0.016 0.000 10.1 11 1
02/04/06 3:23 p -5.1 -5.1 -5.1 --- --- 5.2 N 0.09 7.0 -9.2 --- --- 730.7 0.016 0.000 10.1 11 1
02/04/06 3:24 p -5.1 -5.1 -5.1 --- --- 4.3 N 0.07 5.2 -8.7 --- --- 730.7 0.016 0.000 10.1 11 1
02/04/06 3:25 p -5.1 -5.1 -5.1 --- --- 4.3 N 0.07 5.2 -8.7 --- --- 730.7 0.016 0.000 10.1 11 1
02/04/06 3:26 p -5.1 -5.1 -5.1 --- --- 5.2 N 0.09 6.1 -9.3 --- --- 730.6 0.016 0.000 10.1 11 1
02/04/06 3:27 p -5.1 -5.1 -5.1 --- --- 4.3 N 0.07 5.2 -8.7 --- --- 730.6 0.016 0.000 10.1 11 1
02/04/06 3:28 p -5.1 -5.1 -5.1 --- --- 4.3 N 0.07 5.2 -8.7 --- --- 730.6 0.016 0.000 10.1 11 1
02/04/06 3:29 p -5.1 -5.1 -5.1 --- --- 4.3 N 0.07 6.1 -8.7 --- --- 730.6 0.016 0.000 10.1 11 1
02/04/06 3:30 p -5.1 -5.1 -5.1 --- --- 4.3 N 0.07 6.1 -8.7 --- --- 730.7 0.016 0.000 10.1 11 1
02/04/06 3:31 p -5.1 -5.1 -5.1 --- --- 5.2 N 0.09 6.1 -9.2 --- --- 730.6 0.016 0.000 10.1 11 1
02/04/06 3:32 p -5.1 -5.0 -5.1 --- --- 5.2 N 0.09 6.1 -9.2 --- --- 730.6 0.016 0.000 10.1 11 1
02/04/06 3:33 p -5.1 -5.1 -5.1 --- --- 5.2 N 0.09 6.1 -9.2 --- --- 730.6 0.016 0.000 10.1 11 1
02/04/06 3:34 p -5.0 -5.0 -5.1 --- --- 5.2 N 0.09 6.1 -9.2 --- --- 730.7 0.016 0.000 10.1 11 1
02/04/06 3:35 p -5.0 -5.0 -5.0 --- --- 5.2 N 0.09 7.0 -9.2 --- --- 730.6 0.016 0.000 10.1 11 1
02/04/06 3:36 p -5.0 -5.0 -5.0 --- --- 5.2 N 0.09 6.1 -9.2 --- --- 730.6 0.016 0.000 10.0 11 1
02/04/06 3:37 p -4.9 -4.9 -5.0 --- --- 5.2 N 0.09 7.0 -9.1 --- --- 730.6 0.016 0.000 10.0 11 1
02/04/06 3:38 p -4.9 -4.9 -4.9 --- --- 5.2 N 0.09 6.1 -9.1 --- --- 730.7 0.016 0.000 10.1 11 1
02/04/06 3:39 p -4.9 -4.9 -5.0 --- --- 5.2 N 0.09 6.1 -9.1 --- --- 730.6 0.016 0.000 10.1 11 1
02/04/06 3:40 p -5.0 -5.0 -5.0 --- --- 5.2 N 0.09 6.1 -9.2 --- --- 730.7 0.016 0.000 10.1 11 1
02/04/06 3:41 p -5.0 -4.9 -5.0 --- --- 5.2 N 0.09 6.1 -9.2 --- --- 730.7 0.016 0.000 10.1 11 1
02/04/06 3:42 p -4.9 -4.9 -5.0 --- --- 5.2 N 0.09 6.1 -9.1 --- --- 730.7 0.016 0.000 10.1 11 1
02/04/06 3:43 p -4.9 -4.9 -5.0 --- --- 6.1 N 0.10 7.0 -9.6 --- --- 730.7 0.016 0.000 10.1 11 1
02/04/06 3:44 p -4.9 -4.9 -4.9 --- --- 8.7 NNW 0.14 9.6 -10.7 --- --- 730.7 0.016 0.000 10.1 11 1
02/04/06 3:45 p -4.9 -4.9 -5.0 --- --- 6.1 NNW 0.10 7.0 -9.6 --- --- 730.6 0.016 0.000 10.1 11 1
02/04/06 3:46 p -5.0 -4.9 -5.0 --- --- 5.2 N 0.09 7.0 -9.2 --- --- 730.7 0.016 0.000 10.1 11 1
02/04/06 3:47 p -4.9 -4.9 -5.0 --- --- 5.2 N 0.09 6.1 -9.1 --- --- 730.7 0.016 0.000 10.1 11 1
02/04/06 3:48 p -5.0 -5.0 -5.0 --- --- 5.2 N 0.09 6.1 -9.2 --- --- 730.7 0.016 0.000 10.1 11 1
02/04/06 3:49 p -5.0 -5.0 -5.0 --- --- 4.3 N 0.07 5.2 -8.6 --- --- 730.7 0.016 0.000 10.1 11 1
02/04/06 3:50 p -4.9 -4.9 -5.0 --- --- 4.3 N 0.07 5.2 -8.6 --- --- 730.6 0.016 0.000 10.1 11 1
02/04/06 3:51 p -4.9 -4.9 -4.9 --- --- 4.3 N 0.07 6.1 -8.6 --- --- 730.7 0.016 0.000 10.1 11 1
02/04/06 3:52 p -4.9 -4.9 -4.9 --- --- 4.3 N 0.07 5.2 -8.5 --- --- 730.6 0.016 0.000 10.1 11 1
02/04/06 3:53 p -4.9 -4.9 -4.9 --- --- 4.3 N 0.07 6.1 -8.5 --- --- 730.7 0.016 0.000 10.1 11 1
02/04/06 3:54 p -4.9 -4.9 -4.9 --- --- 6.1 N 0.10 7.0 -9.5 --- --- 730.6 0.016 0.000 10.1 11 1
02/04/06 3:55 p -4.9 -4.9 -4.9 --- --- 6.1 N 0.10 7.0 -9.5 --- --- 730.7 0.016 0.000 10.1 11 1
02/04/06 3:56 p -4.9 -4.9 -4.9 --- --- 5.2 N 0.09 6.1 -9.1 --- --- 730.7 0.016 0.000 10.1 11 1
02/04/06 3:57 p -4.9 -4.9 -4.9 --- --- 5.2 NNW 0.09 7.0 -9.1 --- --- 730.6 0.016 0.000 10.1 11 1
02/04/06 3:58 p -4.9 -4.9 -4.9 --- --- 4.3 N 0.07 6.1 -8.6 --- --- 730.6 0.016 0.000 10.1 11 1
02/04/06 3:59 p -4.9 -4.9 -4.9 --- --- 6.1 N 0.10 7.0 -9.5 --- --- 730.7 0.016 0.000 10.1 11 1
02/04/06 4:00 p -4.9 -4.9 -4.9 --- --- 6.1 NNW 0.10 7.0 -9.5 --- --- 730.6 0.016 0.000 10.1 11 1
02/04/06 4:01 p -4.9 -4.9 -4.9 --- --- 5.2 N 0.09 6.1 -9.1 --- --- 730.7 0.016 0.000 10.1 11 1
02/04/06 4:02 p -4.9 -4.9 -4.9 --- --- 3.5 N 0.06 4.3 -7.9 --- --- 730.7 0.016 0.000 10.1 11 1
02/04/06 4:03 p -4.9 -4.9 -4.9 --- --- 3.5 N 0.06 5.2 -7.9 --- --- 730.7 0.016 0.000 10.1 11 1
02/04/06 4:04 p -4.9 -4.9 -4.9 --- --- 3.5 N 0.06 4.3 -7.9 --- --- 730.7 0.016 0.000 10.0 11 1
02/04/06 4:05 p -4.9 -4.9 -4.9 --- --- 4.3 N 0.07 5.2 -8.6 --- --- 730.7 0.016 0.000 10.0 11 1
02/04/06 4:06 p -4.9 -4.9 -4.9 --- --- 3.5 N 0.06 5.2 -7.9 --- --- 730.7 0.016 0.000 10.1 11 1
02/04/06 4:07 p -4.9 -4.9 -5.0 --- --- 3.5 N 0.06 4.3 -7.9 --- --- 730.6 0.016 0.000 10.1 11 1
02/04/06 4:08 p -4.9 -4.9 -4.9 --- --- 4.3 N 0.07 6.1 -8.6 --- --- 730.7 0.016 0.000 10.1 11 1
02/04/06 4:09 p -4.9 -4.9 -4.9 --- --- 5.2 N 0.09 7.0 -9.1 --- --- 730.7 0.016 0.000 10.1 11 1
02/04/06 4:10 p -4.9 -4.9 -5.0 --- --- 6.1 N 0.10 8.7 -9.6 --- --- 730.7 0.016 0.000 10.1 11 1
02/04/06 4:11 p -4.9 -4.9 -4.9 --- --- 5.2 N 0.09 7.0 -9.1 --- --- 730.7 0.016 0.000 10.1 11 1
02/04/06 4:12 p -4.9 -4.9 -4.9 --- --- 5.2 N 0.09 6.1 -9.1 --- --- 730.7 0.016 0.000 10.0 11 1
02/04/06 4:13 p -4.9 -4.9 -4.9 --- --- 5.2 N 0.09 7.0 -9.1 --- --- 730.7 0.016 0.000 10.0 11 1
02/04/06 4:14 p -4.9 -4.9 -4.9 --- --- 4.3 N 0.07 5.2 -8.6 --- --- 730.6 0.016 0.000 10.0 11 1
02/04/06 4:15 p -4.9 -4.9 -4.9 --- --- 5.2 N 0.09 6.1 -9.1 --- --- 730.7 0.016 0.000 10.0 11 1
02/04/06 4:16 p -4.9 -4.9 -4.9 --- --- 4.3 N 0.07 4.3 -8.6 --- --- 730.6 0.016 0.000 10.0 11 1
02/04/06 4:17 p -4.9 -4.9 -4.9 --- --- 3.5 N 0.06 5.2 -7.9 --- --- 730.7 0.016 0.000 10.0 11 1
02/04/06 4:18 p -4.9 -4.9 -4.9 --- --- 4.3 N 0.07 5.2 -8.6 --- --- 730.7 0.016 0.000 10.0 11 1
02/04/06 4:19 p -4.9 -4.9 -4.9 --- --- 4.3 N 0.07 5.2 -8.6 --- --- 730.7 0.016 0.000 10.0 11 1
02/04/06 4:20 p -4.9 -4.9 -4.9 --- --- 3.5 N 0.06 4.3 -7.8 --- --- 730.6 0.016 0.000 10.0 11 1
02/04/06 4:21 p -4.9 -4.9 -4.9 --- --- 4.3 N 0.07 5.2 -8.6 --- --- 730.8 0.016 0.000 10.0 11 1
02/04/06 4:22 p -4.9 -4.9 -4.9 --- --- 4.3 N 0.07 5.2 -8.6 --- --- 730.8 0.016 0.000 10.0 11 1
02/04/06 4:23 p -4.9 -4.9 -4.9 --- --- 5.2 N 0.09 6.1 -9.1 --- --- 730.7 0.016 0.000 10.0 11 1
02/04/06 4:24 p -4.9 -4.9 -4.9 --- --- 5.2 NNW 0.09 6.1 -9.1 --- --- 730.7 0.016 0.000 10.0 11 1
02/04/06 4:25 p -4.9 -4.9 -5.0 --- --- 3.5 NNW 0.06 4.3 -7.9 --- --- 730.7 0.016 0.000 10.0 11 1
02/04/06 4:26 p -5.0 -4.9 -5.0 --- --- 4.3 NNW 0.07 4.3 -8.6 --- --- 730.7 0.016 0.000 10.0 11 1
02/04/06 4:27 p -4.9 -4.9 -5.0 --- --- 4.3 NNW 0.07 5.2 -8.6 --- --- 730.7 0.016 0.000 10.0 11 1
02/04/06 4:28 p -4.9 -4.9 -5.0 --- --- 5.2 NNW 0.09 6.1 -9.1 --- --- 730.6 0.016 0.000 10.0 11 1
02/04/06 4:29 p -4.9 -4.9 -5.0 --- --- 4.3 NNW 0.07 5.2 -8.6 --- --- 730.6 0.016 0.000 10.0 11 1
02/04/06 4:30 p -4.9 -4.9 -4.9 --- --- 4.3 NNW 0.07 5.2 -8.6 --- --- 730.7 0.016 0.000 10.0 11 1
02/04/06 4:31 p -4.9 -4.9 -4.9 --- --- 4.3 NNW 0.07 6.1 -8.6 --- --- 730.6 0.016 0.000 10.0 11 1
02/04/06 4:32 p -4.9 -4.9 -4.9 --- --- 4.3 NNW 0.07 5.2 -8.6 --- --- 730.6 0.016 0.000 10.0 11 1
02/04/06 4:33 p -5.0 -4.9 -5.0 --- --- 3.5 N 0.06 5.2 -7.9 --- --- 730.7 0.016 0.000 10.0 11 1
02/04/06 4:34 p -5.0 -5.0 -5.0 --- --- 3.5 N 0.06 5.2 -7.9 --- --- 730.8 0.016 0.000 10.0 11 1
02/04/06 4:35 p -5.0 -5.0 -5.0 --- --- 3.5 N 0.06 4.3 -7.9 --- --- 730.7 0.016 0.000 10.0 11 1
02/04/06 4:36 p -5.0 -5.0 -5.0 --- --- 2.6 N 0.04 2.6 -7.2 --- --- 730.7 0.016 0.000 9.9 11 1
02/04/06 4:37 p -5.0 -4.9 -5.0 --- --- 2.6 N 0.04 4.3 -7.2 --- --- 730.8 0.016 0.000 9.9 11 1
02/04/06 4:38 p -4.9 -4.9 -4.9 --- --- 2.6 N 0.04 3.5 -7.1 --- --- 730.7 0.016 0.000 9.9 11 1
02/04/06 4:39 p -4.9 -4.9 -4.9 --- --- 2.6 N 0.04 3.5 -7.1 --- --- 730.8 0.016 0.000 9.9 11 1
02/04/06 4:40 p -4.9 -4.9 -4.9 --- --- 2.6 N 0.04 2.6 -7.1 --- --- 730.7 0.016 0.000 9.9 11 1
02/04/06 4:41 p -4.9 -4.9 -5.0 --- --- 2.6 N 0.04 3.5 -7.1 --- --- 730.7 0.016 0.000 9.9 11 1
02/04/06 4:42 p -5.0 -4.9 -5.0 --- --- 2.6 N 0.04 3.5 -7.2 --- --- 730.8 0.016 0.000 9.9 11 1
02/04/06 4:43 p -5.0 -5.0 -5.0 --- --- 2.6 N 0.04 3.5 -7.2 --- --- 730.7 0.016 0.000 10.0 11 1
02/04/06 4:44 p -5.0 -5.0 -5.0 --- --- 2.6 N 0.04 2.6 -7.2 --- --- 730.8 0.016 0.000 10.0 11 1
02/04/06 4:45 p -5.0 -5.0 -5.0 --- --- 2.6 N 0.04 3.5 -7.2 --- --- 730.7 0.016 0.000 10.0 11 1
02/04/06 4:46 p -5.0 -5.0 -5.0 --- --- 2.6 N 0.04 3.5 -7.2 --- --- 730.7 0.016 0.000 10.0 11 1
02/04/06 4:47 p -5.0 -5.0 -5.0 --- --- 1.7 N 0.03 2.6 -6.1 --- --- 730.7 0.016 0.000 10.0 11 1
02/04/06 4:48 p -5.0 -5.0 -5.0 --- --- 2.6 N 0.04 3.5 -7.2 --- --- 730.7 0.016 0.000 10.0 11 1
02/04/06 4:49 p -5.0 -5.0 -5.0 --- --- 2.6 N 0.04 4.3 -7.2 --- --- 730.7 0.016 0.000 10.0 11 1
02/04/06 4:50 p -5.0 -5.0 -5.0 --- --- 3.5 N 0.06 4.3 -7.9 --- --- 730.8 0.016 0.000 9.9 11 1
02/04/06 4:51 p -4.9 -4.9 -4.9 --- --- 3.5 N 0.06 4.3 -7.9 --- --- 730.8 0.016 0.000 9.9 11 1
02/04/06 4:52 p -4.9 -4.9 -4.9 --- --- 3.5 N 0.06 4.3 -7.8 --- --- 730.8 0.016 0.000 10.0 11 1
02/04/06 4:53 p -4.8 -4.8 -4.9 --- --- 3.5 N 0.06 4.3 -7.8 --- --- 730.7 0.016 0.000 10.0 11 1
02/04/06 4:54 p -4.8 -4.7 -4.8 --- --- 3.5 N 0.06 4.3 -7.7 --- --- 730.7 0.016 0.000 10.0 11 1
02/04/06 4:55 p -4.7 -4.7 -4.8 --- --- 3.5 N 0.06 4.3 -7.6 --- --- 730.8 0.016 0.000 10.0 11 1
02/04/06 4:56 p -4.7 -4.7 -4.8 --- --- 2.6 N 0.04 4.3 -6.8 --- --- 730.8 0.016 0.000 10.0 11 1
02/04/06 4:57 p -4.7 -4.7 -4.8 --- --- 4.3 N 0.07 5.2 -8.3 --- --- 730.8 0.016 0.000 10.0 11 1
02/04/06 4:58 p -4.8 -4.8 -4.8 --- --- 3.5 N 0.06 5.2 -7.8 --- --- 730.7 0.016 0.000 9.9 11 1
02/04/06 4:59 p -4.8 -4.8 -4.9 --- --- 3.5 N 0.06 4.3 -7.8 --- --- 730.7 0.016 0.000 9.9 11 1
02/04/06 5:00 p -4.8 -4.8 -4.8 --- --- 3.5 N 0.06 5.2 -7.8 --- --- 730.8 0.016 0.000 9.9 11 1
02/04/06 5:02 p -4.8 -4.8 -4.8 --- --- 3.5 N 0.06 4.3 -7.8 --- --- 730.7 0.016 0.000 9.9 11 1
02/04/06 5:03 p -4.8 -4.8 -4.8 --- --- 3.5 N 0.06 4.3 -7.8 --- --- 730.7 0.016 0.000 9.9 11 1
02/04/06 5:04 p -4.8 -4.8 -4.8 --- --- 3.5 N 0.06 5.2 -7.7 --- --- 730.7 0.016 0.000 9.9 11 1
02/04/06 5:05 p -4.9 -4.8 -4.9 --- --- 3.5 N 0.06 4.3 -7.8 --- --- 730.8 0.016 0.000 9.9 11 1
02/04/06 5:06 p -4.9 -4.9 -4.9 --- --- 3.5 N 0.06 5.2 -7.8 --- --- 730.7 0.016 0.000 9.9 11 1
02/04/06 5:07 p -4.9 -4.8 -4.9 --- --- 4.3 N 0.07 4.3 -8.5 --- --- 730.8 0.016 0.000 10.0 11 1
02/04/06 5:08 p -4.8 -4.8 -4.8 --- --- 3.5 N 0.06 4.3 -7.7 --- --- 730.7 0.016 0.000 10.0 11 1
02/04/06 5:09 p -4.8 -4.7 -4.8 --- --- 3.5 N 0.06 4.3 -7.7 --- --- 730.7 0.016 0.000 10.0 11 1
02/04/06 5:10 p -4.7 -4.7 -4.7 --- --- 3.5 NNE 0.06 4.3 -7.6 --- --- 730.7 0.016 0.000 10.0 11 1
02/04/06 5:11 p -4.7 -4.7 -4.7 --- --- 2.6 NNE 0.04 3.5 -6.8 --- --- 730.8 0.016 0.000 10.0 11 1
02/04/06 5:12 p -4.7 -4.7 -4.7 --- --- 2.6 N 0.04 4.3 -6.8 --- --- 730.7 0.016 0.000 10.0 11 1
02/04/06 5:13 p -4.8 -4.7 -4.8 --- --- 3.5 N 0.06 4.3 -7.7 --- --- 730.7 0.016 0.000 10.0 11 1
02/04/06 5:14 p -4.8 -4.8 -4.9 --- --- 2.6 N 0.04 3.5 -6.9 --- --- 730.8 0.016 0.000 10.0 11 1
02/04/06 5:15 p -4.9 -4.9 -4.9 --- --- 2.6 N 0.04 3.5 -7.1 --- --- 730.7 0.016 0.000 10.0 11 1
02/04/06 5:16 p -4.9 -4.9 -4.9 --- --- 1.7 N 0.03 2.6 -6.0 --- --- 730.7 0.016 0.000 10.0 11 1
02/04/06 5:17 p -4.9 -4.9 -4.9 --- --- 2.6 N 0.04 4.3 -7.0 --- --- 730.7 0.016 0.000 10.0 11 1
02/04/06 5:18 p -4.9 -4.9 -5.0 --- --- 3.5 N 0.06 4.3 -7.9 --- --- 730.8 0.016 0.000 10.0 11 1
02/04/06 5:19 p -5.1 -5.0 -5.1 --- --- 3.5 NNE 0.06 6.1 -8.0 --- --- 730.8 0.016 0.000 10.0 11 1
02/04/06 5:20 p -5.0 -5.0 -5.1 --- --- 5.2 NNE 0.09 7.0 -9.2 --- --- 730.8 0.016 0.000 10.0 11 1
02/04/06 5:21 p -5.0 -4.9 -5.0 --- --- 4.3 NNE 0.07 5.2 -8.6 --- --- 730.8 0.016 0.000 10.0 11 1
02/04/06 5:22 p -4.9 -4.9 -4.9 --- --- 4.3 N 0.07 6.1 -8.6 --- --- 730.7 0.016 0.000 10.0 11 1
02/04/06 5:23 p -5.1 -4.9 -5.1 --- --- 3.5 N 0.06 4.3 -8.0 --- --- 730.7 0.016 0.000 9.9 11 1
02/04/06 5:24 p -5.1 -5.1 -5.1 --- --- 2.6 N 0.04 4.3 -7.3 --- --- 730.7 0.016 0.000 9.9 11 1
02/04/06 5:25 p -5.1 -5.1 -5.1 --- --- 4.3 N 0.07 5.2 -8.7 --- --- 730.8 0.016 0.000 9.9 11 1
02/04/06 5:26 p -5.1 -5.1 -5.1 --- --- 4.3 N 0.07 5.2 -8.7 --- --- 730.7 0.016 0.000 9.9 11 1
02/04/06 5:27 p -5.0 -5.0 -5.1 --- --- 2.6 N 0.04 3.5 -7.2 --- --- 730.7 0.016 0.000 9.9 11 1
02/04/06 5:28 p -5.0 -4.9 -5.0 --- --- 0.9 N 0.01 1.7 -5.0 --- --- 730.7 0.016 0.000 9.9 11 1
02/04/06 5:29 p -4.9 -4.9 -4.9 --- --- 0.9 N 0.01 1.7 -4.9 --- --- 730.7 0.016 0.000 9.9 11 1
02/04/06 5:30 p -4.9 -4.9 -4.9 --- --- 1.7 N 0.03 2.6 -6.0 --- --- 730.7 0.016 0.000 9.9 11 1
02/04/06 5:31 p -4.9 -4.9 -5.0 --- --- 1.7 N 0.03 2.6 -6.0 --- --- 730.7 0.016 0.000 9.9 11 1
02/04/06 5:32 p -5.1 -5.1 -5.1 --- --- 0.9 N 0.01 1.7 -5.1 --- --- 730.7 0.016 0.000 9.9 11 1
02/04/06 5:33 p -5.1 -5.1 -5.1 --- --- 2.6 N 0.04 3.5 -7.2 --- --- 730.7 0.016 0.000 9.9 11 1
02/04/06 5:34 p -5.1 -5.1 -5.1 --- --- 2.6 N 0.04 4.3 -7.2 --- --- 730.7 0.016 0.000 9.9 11 1
02/04/06 5:35 p -5.1 -5.1 -5.1 --- --- 1.7 N 0.03 2.6 -6.1 --- --- 730.7 0.016 0.000 9.9 11 1
02/04/06 5:36 p -5.1 -5.1 -5.1 --- --- 1.7 N 0.03 2.6 -6.2 --- --- 730.7 0.016 0.000 9.9 11 1
02/04/06 5:37 p -5.1 -5.1 -5.1 --- --- 0.9 N 0.01 1.7 -5.1 --- --- 730.7 0.016 0.000 9.9 11 1
02/04/06 5:38 p -5.1 -5.1 -5.1 --- --- 0.9 N 0.01 3.5 -5.1 --- --- 730.8 0.016 0.000 9.9 11 1
02/04/06 5:39 p -5.2 -5.1 -5.2 --- --- 1.7 N 0.03 2.6 -6.3 --- --- 730.8 0.016 0.000 9.9 11 1
02/04/06 5:40 p -5.2 -5.1 -5.2 --- --- 1.7 N 0.03 2.6 -6.3 --- --- 730.7 0.016 0.000 9.9 11 1
02/04/06 5:41 p -5.2 -5.2 -5.2 --- --- 2.6 N 0.04 3.5 -7.3 --- --- 730.8 0.016 0.000 9.9 11 1
02/04/06 5:42 p -5.1 -5.1 -5.1 --- --- 3.5 N 0.06 5.2 -8.1 --- --- 730.8 0.016 0.000 9.9 11 1
02/04/06 5:43 p -5.1 -4.9 -5.1 --- --- 5.2 N 0.09 6.1 -9.2 --- --- 730.7 0.016 0.000 9.9 11 1
02/04/06 5:44 p -4.9 -4.8 -4.9 --- --- 4.3 N 0.07 7.8 -8.5 --- --- 730.7 0.016 0.000 9.9 11 1
02/04/06 5:45 p -4.8 -4.8 -4.9 --- --- 5.2 N 0.09 7.8 -8.9 --- --- 730.7 0.016 0.000 9.9 11 1
02/04/06 5:46 p -4.9 -4.9 -5.0 --- --- 5.2 NNW 0.09 7.0 -9.1 --- --- 730.8 0.016 0.000 9.9 11 1
02/04/06 5:47 p -5.1 -5.1 -5.1 --- --- 1.7 NNW 0.03 2.6 -6.1 --- --- 730.7 0.016 0.000 9.9 11 1
02/04/06 5:48 p -5.1 -5.1 -5.1 --- --- 2.6 NNW 0.04 3.5 -7.3 --- --- 730.7 0.016 0.000 9.9 11 1
02/04/06 5:49 p -5.1 -5.1 -5.2 --- --- 2.6 NNW 0.04 3.5 -7.3 --- --- 730.7 0.016 0.000 9.9 11 1
02/04/06 5:50 p -5.1 -5.1 -5.1 --- --- 2.6 N 0.04 3.5 -7.3 --- --- 730.7 0.016 0.000 9.9 11 1
02/04/06 5:51 p -5.1 -5.1 -5.1 --- --- 3.5 N 0.06 5.2 -8.1 --- --- 730.6 0.016 0.000 9.9 11 1
02/04/06 5:52 p -5.1 -5.1 -5.1 --- --- 2.6 N 0.04 4.3 -7.3 --- --- 730.7 0.016 0.000 9.9 11 1
02/04/06 5:53 p -5.1 -4.9 -5.1 --- --- 3.5 NNE 0.06 5.2 -8.0 --- --- 730.7 0.016 0.000 9.9 11 1
02/04/06 5:54 p -4.9 -4.9 -4.9 --- --- 4.3 NNE 0.07 6.1 -8.6 --- --- 730.7 0.016 0.000 9.9 11 1
02/04/06 5:55 p -4.9 -4.8 -4.9 --- --- 4.3 NNE 0.07 5.2 -8.5 --- --- 730.7 0.016 0.000 9.9 11 1
02/04/06 5:56 p -4.8 -4.8 -4.8 --- --- 5.2 NNE 0.09 5.2 -8.9 --- --- 730.7 0.016 0.000 9.9 11 1
02/04/06 5:57 p -4.8 -4.7 -4.8 --- --- 4.3 N 0.07 5.2 -8.3 --- --- 730.7 0.016 0.000 9.9 11 1
02/04/06 5:58 p -4.8 -4.7 -4.8 --- --- 5.2 N 0.09 7.0 -8.9 --- --- 730.6 0.016 0.000 9.9 11 1
02/04/06 5:59 p -4.8 -4.8 -4.8 --- --- 4.3 N 0.07 6.1 -8.4 --- --- 730.7 0.016 0.000 9.9 11 1
02/04/06 6:00 p -4.8 -4.8 -4.8 --- --- 4.3 N 0.07 5.2 -8.4 --- --- 730.7 0.016 0.000 9.9 11 1
02/04/06 6:02 p -5.0 -5.0 -5.1 --- --- 4.3 NNW 0.07 5.2 -8.6 --- --- 730.7 0.016 0.000 9.9 11 1
02/04/06 6:03 p -5.1 -5.1 -5.1 --- --- 3.5 NNW 0.06 4.3 -8.0 --- --- 730.7 0.016 0.000 9.9 11 1
02/04/06 6:04 p -5.1 -5.1 -5.1 --- --- 3.5 NNW 0.06 4.3 -8.1 --- --- 730.7 0.016 0.000 9.9 11 1
02/04/06 6:05 p -5.2 -5.2 -5.2 --- --- 1.7 NNW 0.03 3.5 -6.3 --- --- 730.7 0.016 0.000 9.9 11 1
02/04/06 6:06 p -5.2 -5.2 -5.2 --- --- 2.6 NNW 0.04 4.3 -7.3 --- --- 730.8 0.016 0.000 9.9 11 1
02/04/06 6:07 p -5.2 -5.1 -5.2 --- --- 2.6 N 0.04 3.5 -7.3 --- --- 730.7 0.016 0.000 9.9 11 1
02/04/06 6:08 p -5.1 -4.9 -5.2 --- --- 5.2 N 0.09 7.0 -9.2 --- --- 730.7 0.016 0.000 9.9 11 1
02/04/06 6:09 p -4.9 -4.8 -4.9 --- --- 5.2 N 0.09 7.0 -9.0 --- --- 730.7 0.016 0.000 9.9 11 1
02/04/06 6:10 p -4.8 -4.8 -4.8 --- --- 6.1 N 0.10 7.0 -9.4 --- --- 730.7 0.016 0.000 9.9 11 1
02/04/06 6:11 p -4.8 -4.7 -4.8 --- --- 6.1 N 0.10 7.0 -9.4 --- --- 730.7 0.016 0.000 9.9 11 1
02/04/06 6:12 p -4.7 -4.7 -4.7 --- --- 6.1 N 0.10 7.0 -9.3 --- --- 730.7 0.016 0.000 9.9 11 1
02/04/06 6:13 p -4.7 -4.7 -4.7 --- --- 6.1 N 0.10 7.0 -9.2 --- --- 730.7 0.016 0.000 9.9 11 1
02/04/06 6:14 p -4.7 -4.6 -4.7 --- --- 5.2 N 0.09 6.1 -8.8 --- --- 730.8 0.016 0.000 9.9 11 1
02/04/06 6:15 p -4.6 -4.6 -4.6 --- --- 4.3 NNE 0.07 6.1 -8.2 --- --- 730.7 0.016 0.000 9.9 11 1
02/04/06 6:16 p -4.6 -4.6 -4.6 --- --- 7.0 N 0.12 7.8 -9.5 --- --- 730.7 0.016 0.000 9.9 11 1
02/04/06 6:17 p -4.5 -4.5 -4.5 --- --- 7.8 N 0.13 9.6 -9.8 --- --- 730.8 0.016 0.000 9.9 11 1
02/04/06 6:18 p -4.6 -4.5 -4.6 --- --- 5.2 N 0.09 7.8 -8.6 --- --- 730.7 0.016 0.000 9.9 11 1
02/04/06 6:19 p -4.6 -4.6 -4.6 --- --- 7.0 N 0.12 7.8 -9.5 --- --- 730.7 0.016 0.000 9.9 11 1
02/04/06 6:20 p -4.6 -4.6 -4.6 --- --- 7.0 N 0.12 7.8 -9.6 --- --- 730.7 0.016 0.000 9.9 11 1
02/04/06 6:21 p -4.6 -4.6 -4.6 --- --- 4.3 N 0.07 7.0 -8.2 --- --- 730.7 0.016 0.000 9.9 11 1
02/04/06 6:22 p -4.7 -4.7 -4.7 --- --- 3.5 N 0.06 4.3 -7.6 --- --- 730.7 0.016 0.000 9.9 11 1
02/04/06 6:23 p -4.7 -4.7 -4.7 --- --- 3.5 N 0.06 5.2 -7.6 --- --- 730.7 0.016 0.000 9.9 11 1
02/04/06 6:24 p -4.7 -4.7 -4.7 --- --- 4.3 N 0.07 5.2 -8.2 --- --- 730.7 0.016 0.000 9.9 11 1
02/04/06 6:25 p -4.7 -4.7 -4.8 --- --- 5.2 N 0.09 6.1 -8.8 --- --- 730.7 0.016 0.000 9.9 11 1
02/04/06 6:26 p -4.8 -4.8 -4.9 --- --- 4.3 N 0.07 5.2 -8.4 --- --- 730.8 0.016 0.000 9.9 11 1
02/04/06 6:27 p -4.9 -4.9 -4.9 --- --- 4.3 N 0.07 5.2 -8.5 --- --- 730.7 0.016 0.000 9.9 11 1
02/04/06 6:28 p -4.9 -4.9 -5.0 --- --- 4.3 N 0.07 5.2 -8.6 --- --- 730.7 0.016 0.000 9.9 11 1
02/04/06 6:29 p -4.9 -4.9 -5.0 --- --- 3.5 N 0.06 4.3 -7.9 --- --- 730.7 0.016 0.000 9.9 11 1
02/04/06 6:30 p -4.9 -4.9 -4.9 --- --- 3.5 N 0.06 5.2 -7.9 --- --- 730.8 0.016 0.000 9.9 11 1
02/04/06 6:31 p -5.0 -4.9 -5.1 --- --- 3.5 N 0.06 5.2 -7.9 --- --- 730.8 0.016 0.000 9.9 11 1
02/04/06 6:32 p -5.1 -5.1 -5.1 --- --- 2.6 N 0.04 4.3 -7.2 --- --- 730.8 0.016 0.000 9.9 11 1
02/04/06 6:33 p -5.1 -5.1 -5.1 --- --- 2.6 N 0.04 4.3 -7.3 --- --- 730.8 0.016 0.000 9.9 11 1
02/04/06 6:34 p -5.1 -5.1 -5.1 --- --- 2.6 N 0.04 3.5 -7.2 --- --- 730.7 0.016 0.000 9.9 11 1
02/04/06 6:35 p -5.1 -5.0 -5.1 --- --- 3.5 N 0.06 5.2 -8.0 --- --- 730.7 0.016 0.000 9.9 11 1
02/04/06 6:36 p -5.0 -5.0 -5.0 --- --- 3.5 N 0.06 4.3 -7.9 --- --- 730.7 0.016 0.000 9.9 11 1
02/04/06 6:37 p -5.0 -5.0 -5.0 --- --- 4.3 N 0.07 5.2 -8.6 --- --- 730.7 0.016 0.000 9.9 11 1
02/04/06 6:38 p -5.0 -5.0 -5.1 --- --- 5.2 N 0.09 6.1 -9.2 --- --- 730.8 0.016 0.000 9.9 11 1
02/04/06 6:39 p -5.1 -5.1 -5.2 --- --- 5.2 NNW 0.09 6.1 -9.3 --- --- 730.8 0.016 0.000 9.9 11 1
02/04/06 6:40 p -5.2 -5.2 -5.2 --- --- 4.3 NNW 0.07 4.3 -8.8 --- --- 730.7 0.016 0.000 9.9 11 1
02/04/06 6:41 p -5.2 -5.2 -5.2 --- --- 2.6 NNW 0.04 4.3 -7.4 --- --- 730.8 0.016 0.000 9.9 11 1
02/04/06 6:42 p -5.3 -5.3 -5.3 --- --- 2.6 NNW 0.04 3.5 -7.4 --- --- 730.8 0.016 0.000 9.9 11 1
02/04/06 6:43 p -5.3 -5.3 -5.3 --- --- 2.6 N 0.04 3.5 -7.5 --- --- 730.8 0.016 0.000 9.9 11 1
02/04/06 6:44 p -5.3 -5.3 -5.3 --- --- 3.5 N 0.06 4.3 -8.3 --- --- 730.8 0.016 0.000 9.9 11 1
02/04/06 6:45 p -5.3 -5.3 -5.3 --- --- 3.5 N 0.06 4.3 -8.3 --- --- 730.7 0.016 0.000 9.9 11 1
02/04/06 6:46 p -5.2 -5.2 -5.3 --- --- 4.3 N 0.07 5.2 -8.9 --- --- 730.8 0.016 0.000 9.9 11 1
02/04/06 6:47 p -5.2 -5.2 -5.2 --- --- 4.3 N 0.07 5.2 -8.8 --- --- 730.8 0.016 0.000 9.9 11 1
02/04/06 6:48 p -5.1 -5.1 -5.2 --- --- 3.5 N 0.06 5.2 -8.1 --- --- 730.8 0.016 0.000 9.8 11 1
02/04/06 6:49 p -5.1 -5.0 -5.1 --- --- 3.5 N 0.06 4.3 -8.0 --- --- 730.9 0.016 0.000 9.9 11 1
02/04/06 6:50 p -5.0 -5.0 -5.1 --- --- 4.3 N 0.07 6.1 -8.6 --- --- 730.8 0.016 0.000 9.8 11 1
02/04/06 6:51 p -5.1 -5.0 -5.1 --- --- 5.2 N 0.09 7.0 -9.2 --- --- 730.8 0.016 0.000 9.9 11 1
02/04/06 6:52 p -5.1 -5.1 -5.1 --- --- 7.0 NNW 0.12 7.8 -10.1 --- --- 730.8 0.016 0.000 9.9 11 1
02/04/06 6:53 p -5.1 -5.1 -5.1 --- --- 7.0 NNW 0.12 7.8 -10.2 --- --- 730.8 0.016 0.000 9.9 11 1
02/04/06 6:54 p -5.1 -5.1 -5.1 --- --- 7.8 NNW 0.13 8.7 -10.6 --- --- 730.8 0.016 0.000 9.9 11 1
02/04/06 6:55 p -5.2 -5.2 -5.2 --- --- 7.0 NNW 0.12 7.8 -10.3 --- --- 730.9 0.016 0.000 9.9 11 1
02/04/06 6:56 p -5.3 -5.2 -5.3 --- --- 5.2 NNW 0.09 7.8 -9.5 --- --- 730.9 0.016 0.000 9.9 11 1
02/04/06 6:57 p -5.3 -5.3 -5.3 --- --- 2.6 NNW 0.04 3.5 -7.5 --- --- 730.8 0.016 0.000 9.9 11 1
02/04/06 6:58 p -5.3 -5.3 -5.3 --- --- 2.6 NNW 0.04 3.5 -7.5 --- --- 730.8 0.016 0.000 9.9 11 1
02/04/06 6:59 p -5.3 -5.3 -5.4 --- --- 2.6 NNW 0.04 3.5 -7.5 --- --- 730.8 0.016 0.000 9.9 11 1
02/04/06 7:00 p -5.4 -5.4 -5.4 --- --- 2.6 NNW 0.04 3.5 -7.6 --- --- 730.8 0.016 0.000 9.9 11 1
02/04/06 7:01 p -5.4 -5.4 -5.4 --- --- 2.6 NNW 0.04 3.5 -7.7 --- --- 730.9 0.017 0.000 9.9 11 1
02/04/06 7:02 p -5.4 -5.4 -5.4 --- --- 2.6 NNW 0.04 4.3 -7.7 --- --- 730.9 0.017 0.000 9.9 11 1
02/04/06 7:03 p -5.4 -5.4 -5.4 --- --- 2.6 NNW 0.04 3.5 -7.7 --- --- 730.8 0.017 0.000 9.9 11 1
02/04/06 7:04 p -5.4 -5.4 -5.4 --- --- 1.7 NNW 0.03 2.6 -6.6 --- --- 730.9 0.017 0.000 9.9 11 1
02/04/06 7:05 p -5.5 -5.4 -5.6 --- --- 1.7 NNW 0.03 2.6 -6.6 --- --- 730.9 0.017 0.000 9.9 11 1
02/04/06 7:06 p -5.6 -5.5 -5.6 --- --- 1.7 NNW 0.03 2.6 -6.7 --- --- 730.9 0.017 0.000 9.9 11 1
02/04/06 7:07 p -5.5 -5.5 -5.5 --- --- 1.7 NNW 0.03 2.6 -6.6 --- --- 730.9 0.017 0.000 9.9 11 1
02/04/06 7:08 p -5.5 -5.4 -5.5 --- --- 0.9 NNW 0.01 1.7 -5.5 --- --- 730.9 0.017 0.000 9.9 11 1
02/04/06 7:09 p -5.4 -5.4 -5.4 --- --- 1.7 NNW 0.03 2.6 -6.6 --- --- 730.9 0.017 0.000 9.9 11 1
02/04/06 7:10 p -5.4 -5.4 -5.4 --- --- 2.6 NNW 0.04 4.3 -7.7 --- --- 730.9 0.017 0.000 9.9 11 1
02/04/06 7:11 p -5.4 -5.4 -5.4 --- --- 2.6 N 0.04 3.5 -7.7 --- --- 730.9 0.017 0.000 9.9 11 1
02/04/06 7:12 p -5.4 -5.4 -5.4 --- --- 2.6 N 0.04 4.3 -7.7 --- --- 730.9 0.017 0.000 9.9 11 1
02/04/06 7:13 p -5.4 -5.4 -5.4 --- --- 2.6 N 0.04 3.5 -7.7 --- --- 730.9 0.017 0.000 9.9 11 1
02/04/06 7:14 p -5.4 -5.4 -5.4 --- --- 2.6 N 0.04 3.5 -7.7 --- --- 730.9 0.017 0.000 9.9 11 1
02/04/06 7:15 p -5.4 -5.4 -5.4 --- --- 2.6 N 0.04 3.5 -7.7 --- --- 730.9 0.017 0.000 9.9 11 1
02/04/06 7:16 p -5.4 -5.4 -5.4 --- --- 2.6 N 0.04 4.3 -7.7 --- --- 731.0 0.017 0.000 9.9 11 1
02/04/06 7:17 p -5.4 -5.4 -5.4 --- --- 2.6 N 0.04 3.5 -7.7 --- --- 730.9 0.017 0.000 9.9 11 1
02/04/06 7:18 p -5.5 -5.4 -5.5 --- --- 1.7 N 0.03 2.6 -6.6 --- --- 730.9 0.017 0.000 9.9 11 1
02/04/06 7:19 p -5.5 -5.5 -5.5 --- --- 1.7 N 0.03 3.5 -6.6 --- --- 730.9 0.017 0.000 9.9 11 1
02/04/06 7:20 p -5.5 -5.4 -5.5 --- --- 1.7 N 0.03 3.5 -6.6 --- --- 730.9 0.017 0.000 9.9 11 1
02/04/06 7:21 p -5.4 -5.4 -5.4 --- --- 3.5 N 0.06 5.2 -8.4 --- --- 730.9 0.017 0.000 9.9 11 1
02/04/06 7:22 p -5.4 -5.4 -5.4 --- --- 2.6 NNW 0.04 4.3 -7.7 --- --- 730.9 0.017 0.000 9.9 11 1
02/04/06 7:23 p -5.4 -5.4 -5.4 --- --- 3.5 NNW 0.06 4.3 -8.4 --- --- 730.8 0.017 0.000 9.9 11 1
02/04/06 7:24 p -5.4 -5.4 -5.4 --- --- 3.5 NNW 0.06 4.3 -8.4 --- --- 730.9 0.017 0.000 9.9 11 1
02/04/06 7:25 p -5.4 -5.4 -5.5 --- --- 3.5 NNW 0.06 4.3 -8.4 --- --- 730.8 0.017 0.000 9.9 11 1
02/04/06 7:26 p -5.5 -5.4 -5.5 --- --- 3.5 NNW 0.06 5.2 -8.6 --- --- 730.9 0.017 0.000 9.9 11 1
02/04/06 7:27 p -5.5 -5.5 -5.5 --- --- 3.5 NNW 0.06 4.3 -8.6 --- --- 730.9 0.017 0.000 9.9 11 1
02/04/06 7:28 p -5.5 -5.5 -5.5 --- --- 3.5 NNW 0.06 4.3 -8.6 --- --- 730.9 0.017 0.000 9.9 11 1
02/04/06 7:29 p -5.5 -5.5 -5.6 --- --- 3.5 NNW 0.06 3.5 -8.6 --- --- 730.9 0.017 0.000 9.9 11 1
02/04/06 7:30 p -5.6 -5.5 -5.6 --- --- 2.6 NNW 0.04 3.5 -7.8 --- --- 730.9 0.017 0.000 9.9 11 1
02/04/06 7:31 p -5.5 -5.5 -5.6 --- --- 3.5 NNW 0.06 4.3 -8.6 --- --- 731.0 0.017 0.000 9.9 11 1
02/04/06 7:32 p -5.5 -5.5 -5.5 --- --- 3.5 NNW 0.06 4.3 -8.6 --- --- 730.9 0.017 0.000 9.9 11 1
02/04/06 7:33 p -5.5 -5.5 -5.5 --- --- 2.6 NNW 0.04 4.3 -7.7 --- --- 731.0 0.017 0.000 9.9 11 1
02/04/06 7:34 p -5.5 -5.5 -5.5 --- --- 3.5 NNW 0.06 5.2 -8.6 --- --- 731.0 0.017 0.000 9.9 11 1
02/04/06 7:35 p -5.5 -5.5 -5.5 --- --- 4.3 NNW 0.07 5.2 -9.2 --- --- 730.9 0.017 0.000 9.9 11 1
02/04/06 7:36 p -5.5 -5.5 -5.5 --- --- 3.5 NNW 0.06 3.5 -8.6 --- --- 731.0 0.017 0.000 9.9 11 1
02/04/06 7:37 p -5.6 -5.5 -5.6 --- --- 1.7 NNW 0.03 3.5 -6.7 --- --- 730.9 0.017 0.000 9.9 11 1
02/04/06 7:38 p -5.6 -5.6 -5.6 --- --- 0.9 NNW 0.01 2.6 -5.6 --- --- 731.0 0.017 0.000 9.9 11 1
02/04/06 7:39 p -5.6 -5.6 -5.6 --- --- 2.6 NNW 0.04 3.5 -7.8 --- --- 731.0 0.017 0.000 9.9 11 1
02/04/06 7:40 p -5.6 -5.6 -5.6 --- --- 2.6 NNW 0.04 3.5 -7.8 --- --- 730.9 0.017 0.000 9.9 11 1
02/04/06 7:41 p -5.6 -5.5 -5.6 --- --- 2.6 NNW 0.04 4.3 -7.8 --- --- 730.9 0.017 0.000 9.9 11 1
02/04/06 7:42 p -5.4 -5.4 -5.5 --- --- 2.6 NNW 0.04 4.3 -7.7 --- --- 731.1 0.017 0.000 9.9 11 1
02/04/06 7:43 p -5.4 -5.4 -5.4 --- --- 3.5 N 0.06 5.2 -8.4 --- --- 731.0 0.017 0.000 9.8 11 1
02/04/06 7:44 p -5.4 -5.4 -5.4 --- --- 2.6 N 0.04 3.5 -7.7 --- --- 731.1 0.017 0.000 9.8 11 1
02/04/06 7:45 p -5.4 -5.4 -5.4 --- --- 2.6 N 0.04 5.2 -7.7 --- --- 731.0 0.017 0.000 9.8 11 1
02/04/06 7:46 p -5.4 -5.4 -5.4 --- --- 2.6 N 0.04 4.3 -7.7 --- --- 731.0 0.017 0.000 9.8 11 1
02/04/06 7:47 p -5.4 -5.4 -5.4 --- --- 3.5 N 0.06 4.3 -8.4 --- --- 731.0 0.017 0.000 9.8 11 1
02/04/06 7:48 p -5.4 -5.4 -5.4 --- --- 2.6 N 0.04 3.5 -7.7 --- --- 731.1 0.017 0.000 9.8 11 1
02/04/06 7:49 p -5.4 -5.4 -5.4 --- --- 2.6 N 0.04 3.5 -7.7 --- --- 731.1 0.017 0.000 9.8 11 1
02/04/06 7:50 p -5.4 -5.4 -5.5 --- --- 1.7 N 0.03 3.5 -6.6 --- --- 731.0 0.017 0.000 9.8 11 1
02/04/06 7:51 p -5.5 -5.4 -5.5 --- --- 3.5 N 0.06 5.2 -8.6 --- --- 731.0 0.017 0.000 9.8 11 1
02/04/06 7:52 p -5.4 -5.4 -5.4 --- --- 2.6 N 0.04 3.5 -7.7 --- --- 731.1 0.017 0.000 9.8 11 1
02/04/06 7:53 p -5.4 -5.4 -5.4 --- --- 3.5 N 0.06 5.2 -8.4 --- --- 731.1 0.017 0.000 9.8 11 1
02/04/06 7:54 p -5.3 -5.3 -5.4 --- --- 2.6 N 0.04 3.5 -7.5 --- --- 731.0 0.016 0.000 9.8 11 1
02/04/06 7:55 p -5.2 -5.2 -5.3 --- --- 2.6 N 0.04 3.5 -7.4 --- --- 731.0 0.016 0.000 9.8 11 1
02/04/06 7:56 p -5.2 -5.2 -5.2 --- --- 0.9 N 0.01 1.7 -5.2 --- --- 731.0 0.016 0.000 9.9 11 1
02/04/06 7:57 p -5.3 -5.2 -5.3 --- --- 0.9 N 0.01 1.7 -5.3 --- --- 731.1 0.016 0.000 9.9 11 1
02/04/06 7:58 p -5.2 -5.2 -5.2 --- --- 1.7 N 0.03 2.6 -6.3 --- --- 731.0 0.016 0.000 9.9 11 1
02/04/06 7:59 p -5.3 -5.3 -5.3 --- --- 2.6 N 0.04 3.5 -7.4 --- --- 731.0 0.016 0.000 9.9 11 1
02/04/06 8:00 p -5.3 -5.3 -5.3 --- --- 3.5 N 0.06 4.3 -8.3 --- --- 731.1 0.016 0.000 9.9 11 1
02/04/06 8:02 p -5.4 -5.4 -5.4 --- --- 4.3 N 0.07 5.2 -9.1 --- --- 731.1 0.016 0.000 9.9 11 1
02/04/06 8:03 p -5.4 -5.4 -5.4 --- --- 3.5 N 0.06 4.3 -8.4 --- --- 731.1 0.017 0.000 9.9 11 1
02/04/06 8:04 p -5.4 -5.4 -5.4 --- --- 4.3 N 0.07 5.2 -9.1 --- --- 731.2 0.017 0.000 9.9 11 1
02/04/06 8:05 p -5.4 -5.4 -5.4 --- --- 3.5 N 0.06 5.2 -8.4 --- --- 731.1 0.017 0.000 9.9 11 1
02/04/06 8:06 p -5.4 -5.4 -5.4 --- --- 3.5 N 0.06 5.2 -8.4 --- --- 731.1 0.017 0.000 9.9 11 1
02/04/06 8:07 p -5.4 -5.4 -5.4 --- --- 3.5 N 0.06 4.3 -8.4 --- --- 731.1 0.016 0.000 9.9 11 1
02/04/06 8:08 p -5.4 -5.3 -5.4 --- --- 2.6 N 0.04 3.5 -7.6 --- --- 731.0 0.016 0.000 9.9 11 1
02/04/06 8:09 p -5.4 -5.3 -5.4 --- --- 1.7 N 0.03 3.5 -6.5 --- --- 731.1 0.016 0.000 9.9 11 1
02/04/06 8:10 p -5.3 -5.3 -5.4 --- --- 1.7 N 0.03 2.6 -6.4 --- --- 731.1 0.016 0.000 9.9 11 1
02/04/06 8:11 p -5.4 -5.3 -5.4 --- --- 1.7 N 0.03 3.5 -6.5 --- --- 731.0 0.016 0.000 9.9 11 1
02/04/06 8:12 p -5.4 -5.4 -5.5 --- --- 2.6 N 0.04 3.5 -7.7 --- --- 731.1 0.017 0.000 9.9 11 1
02/04/06 8:13 p -5.5 -5.5 -5.5 --- --- 1.7 N 0.03 2.6 -6.6 --- --- 731.0 0.017 0.000 9.9 11 1
02/04/06 8:14 p -5.4 -5.4 -5.5 --- --- 1.7 N 0.03 2.6 -6.6 --- --- 731.1 0.017 0.000 9.9 11 1
02/04/06 8:15 p -5.4 -5.4 -5.4 --- --- 2.6 N 0.04 2.6 -7.7 --- --- 731.0 0.017 0.000 9.9 11 1
02/04/06 8:16 p -5.4 -5.4 -5.4 --- --- 2.6 N 0.04 3.5 -7.6 --- --- 731.1 0.016 0.000 9.9 11 1
02/04/06 8:17 p -5.3 -5.3 -5.3 --- --- 1.7 N 0.03 2.6 -6.4 --- --- 731.1 0.016 0.000 9.9 11 1
02/04/06 8:18 p -5.4 -5.4 -5.4 --- --- 1.7 N 0.03 2.6 -6.5 --- --- 731.1 0.016 0.000 9.9 11 1
02/04/06 8:19 p -5.4 -5.4 -5.4 --- --- 1.7 N 0.03 1.7 -6.5 --- --- 731.1 0.016 0.000 9.9 11 1
02/04/06 8:20 p -5.4 -5.4 -5.4 --- --- 1.7 N 0.03 2.6 -6.6 --- --- 731.1 0.017 0.000 9.8 11 1
02/04/06 8:21 p -5.4 -5.4 -5.4 --- --- 2.6 N 0.04 3.5 -7.6 --- --- 731.1 0.016 0.000 9.8 11 1
02/04/06 8:22 p -5.4 -5.4 -5.4 --- --- 2.6 N 0.04 4.3 -7.7 --- --- 731.1 0.017 0.000 9.8 11 1
02/04/06 8:23 p -5.4 -5.3 -5.4 --- --- 3.5 N 0.06 4.3 -8.4 --- --- 731.2 0.016 0.000 9.8 11 1
02/04/06 8:24 p -5.3 -5.3 -5.3 --- --- 3.5 N 0.06 4.3 -8.3 --- --- 731.1 0.016 0.000 9.8 11 1
02/04/06 8:25 p -5.3 -5.3 -5.3 --- --- 2.6 N 0.04 3.5 -7.5 --- --- 731.1 0.016 0.000 9.8 11 1
02/04/06 8:26 p -5.3 -5.3 -5.3 --- --- 2.6 N 0.04 3.5 -7.5 --- --- 731.1 0.016 0.000 9.8 11 1
02/04/06 8:27 p -5.3 -5.3 -5.3 --- --- 3.5 N 0.06 5.2 -8.3 --- --- 731.1 0.016 0.000 9.8 11 1
02/04/06 8:28 p -5.3 -5.3 -5.3 --- --- 2.6 N 0.04 4.3 -7.5 --- --- 731.1 0.016 0.000 9.8 11 1
02/04/06 8:29 p -5.3 -5.3 -5.3 --- --- 3.5 N 0.06 5.2 -8.3 --- --- 731.1 0.016 0.000 9.8 11 1
02/04/06 8:30 p -5.3 -5.3 -5.4 --- --- 3.5 N 0.06 4.3 -8.3 --- --- 731.1 0.016 0.000 9.9 11 1
02/04/06 8:31 p -5.3 -5.3 -5.3 --- --- 3.5 N 0.06 4.3 -8.3 --- --- 731.1 0.016 0.000 9.9 11 1
02/04/06 8:32 p -5.3 -5.3 -5.3 --- --- 4.3 N 0.07 4.3 -8.9 --- --- 731.1 0.016 0.000 9.9 11 1
02/04/06 8:33 p -5.3 -5.3 -5.3 --- --- 4.3 N 0.07 5.2 -8.9 --- --- 731.1 0.016 0.000 9.9 11 1
02/04/06 8:34 p -5.3 -5.3 -5.3 --- --- 3.5 N 0.06 4.3 -8.3 --- --- 731.1 0.016 0.000 9.9 11 1
02/04/06 8:35 p -5.3 -5.3 -5.3 --- --- 2.6 N 0.04 4.3 -7.4 --- --- 731.1 0.016 0.000 9.9 11 1
02/04/06 8:36 p -5.3 -5.3 -5.3 --- --- 2.6 N 0.04 3.5 -7.5 --- --- 731.1 0.016 0.000 9.9 11 1
02/04/06 8:37 p -5.3 -5.3 -5.3 --- --- 2.6 N 0.04 3.5 -7.4 --- --- 731.1 0.016 0.000 9.9 11 1
02/04/06 8:38 p -5.3 -5.3 -5.3 --- --- 2.6 N 0.04 3.5 -7.4 --- --- 731.2 0.016 0.000 9.8 11 1
02/04/06 8:39 p -5.3 -5.3 -5.3 --- --- 3.5 N 0.06 4.3 -8.3 --- --- 731.1 0.016 0.000 9.9 11 1
02/04/06 8:40 p -5.3 -5.3 -5.3 --- --- 5.2 N 0.09 6.1 -9.6 --- --- 731.1 0.016 0.000 9.9 11 1
02/04/06 8:41 p -5.3 -5.3 -5.3 --- --- 4.3 N 0.07 5.2 -8.9 --- --- 731.1 0.016 0.000 9.9 11 1
02/04/06 8:42 p -5.3 -5.3 -5.3 --- --- 2.6 N 0.04 4.3 -7.5 --- --- 731.2 0.016 0.000 9.9 11 1
02/04/06 8:43 p -5.3 -5.3 -5.3 --- --- 1.7 N 0.03 2.6 -6.4 --- --- 731.1 0.016 0.000 9.9 11 1
02/04/06 8:44 p -5.3 -5.3 -5.3 --- --- 1.7 N 0.03 2.6 -6.4 --- --- 731.2 0.016 0.000 9.9 11 1
02/04/06 8:45 p -5.3 -5.3 -5.3 --- --- 0.9 N 0.01 1.7 -5.3 --- --- 731.2 0.016 0.000 9.9 11 1
02/04/06 8:46 p -5.3 -5.3 -5.3 --- --- 1.7 N 0.03 2.6 -6.4 --- --- 731.1 0.016 0.000 9.9 11 1
02/04/06 8:47 p -5.3 -5.3 -5.3 --- --- 3.5 N 0.06 4.3 -8.3 --- --- 731.1 0.016 0.000 9.9 11 1
02/04/06 8:48 p -5.2 -5.2 -5.3 --- --- 4.3 N 0.07 4.3 -8.9 --- --- 731.2 0.016 0.000 9.9 11 1
02/04/06 8:49 p -5.2 -5.2 -5.2 --- --- 2.6 N 0.04 3.5 -7.4 --- --- 731.2 0.016 0.000 9.9 11 1
02/04/06 8:50 p -5.2 -5.2 -5.2 --- --- 1.7 N 0.03 2.6 -6.3 --- --- 731.1 0.016 0.000 9.9 11 1
02/04/06 8:51 p -5.2 -5.2 -5.2 --- --- 1.7 N 0.03 2.6 -6.3 --- --- 731.2 0.016 0.000 9.9 11 1
02/04/06 8:52 p -5.2 -5.2 -5.2 --- --- 2.6 N 0.04 3.5 -7.3 --- --- 731.2 0.016 0.000 9.9 11 1
02/04/06 8:53 p -5.1 -5.1 -5.2 --- --- 3.5 N 0.06 5.2 -8.1 --- --- 731.2 0.016 0.000 9.8 11 1
02/04/06 8:54 p -5.1 -5.1 -5.1 --- --- 4.3 NNW 0.07 5.2 -8.7 --- --- 731.2 0.016 0.000 9.8 11 1
02/04/06 8:55 p -5.1 -5.1 -5.1 --- --- 3.5 NNW 0.06 4.3 -8.0 --- --- 731.2 0.016 0.000 9.9 11 1
02/04/06 8:56 p -5.1 -5.1 -5.1 --- --- 2.6 NNW 0.04 3.5 -7.3 --- --- 731.2 0.016 0.000 9.8 11 1
02/04/06 8:57 p -5.2 -5.1 -5.2 --- --- 1.7 NNW 0.03 2.6 -6.3 --- --- 731.2 0.016 0.000 9.8 11 1
02/04/06 8:58 p -5.2 -5.2 -5.2 --- --- 1.7 NNW 0.03 2.6 -6.3 --- --- 731.2 0.016 0.000 9.8 11 1
02/04/06 8:59 p -5.2 -5.2 -5.2 --- --- 2.6 NNW 0.04 3.5 -7.4 --- --- 731.2 0.016 0.000 9.8 11 1
02/04/06 9:00 p -5.2 -5.1 -5.2 --- --- 3.5 NNW 0.06 4.3 -8.2 --- --- 731.2 0.016 0.000 9.8 11 1
02/04/06 9:02 p -5.1 -5.1 -5.1 --- --- 2.6 NNW 0.04 3.5 -7.2 --- --- 731.2 0.016 0.000 9.8 11 1
02/04/06 9:03 p -5.1 -5.1 -5.1 --- --- 1.7 NNW 0.03 2.6 -6.1 --- --- 731.2 0.016 0.000 9.8 11 1
02/04/06 9:04 p -5.1 -5.1 -5.1 --- --- 1.7 NNW 0.03 2.6 -6.1 --- --- 731.3 0.016 0.000 9.8 11 1
02/04/06 9:05 p -5.1 -5.1 -5.1 --- --- 1.7 NNW 0.03 1.7 -6.1 --- --- 731.3 0.016 0.000 9.8 11 1
02/04/06 9:06 p -5.1 -5.1 -5.1 --- --- 0.9 NNW 0.01 1.7 -5.1 --- --- 731.2 0.016 0.000 9.8 11 1
02/04/06 9:07 p -5.1 -5.1 -5.2 --- --- 1.7 NNW 0.03 1.7 -6.2 --- --- 731.2 0.016 0.000 9.8 11 1
02/04/06 9:08 p -5.2 -5.2 -5.2 --- --- 0.9 NNW 0.01 1.7 -5.2 --- --- 731.3 0.016 0.000 9.8 11 1
02/04/06 9:09 p -5.2 -5.2 -5.2 --- --- 0.9 NNW 0.01 1.7 -5.2 --- --- 731.2 0.016 0.000 9.9 11 1
02/04/06 9:10 p -5.2 -5.2 -5.2 --- --- 0.0 NNW 0.00 0.9 -5.2 --- --- 731.3 0.016 0.000 9.8 11 1
02/04/06 9:11 p -5.2 -5.1 -5.2 --- --- 0.9 NNW 0.01 0.9 -5.2 --- --- 731.3 0.016 0.000 9.9 11 1
02/04/06 9:12 p -5.1 -5.1 -5.2 --- --- 0.9 NNW 0.01 1.7 -5.1 --- --- 731.3 0.016 0.000 9.9 11 1
02/04/06 9:13 p -5.1 -5.1 -5.1 --- --- 0.9 NNW 0.01 1.7 -5.1 --- --- 731.3 0.016 0.000 9.9 11 1
02/04/06 9:14 p -5.1 -5.0 -5.1 --- --- 1.7 NNW 0.03 2.6 -6.1 --- --- 731.3 0.016 0.000 9.9 11 1
02/04/06 9:15 p -5.1 -5.1 -5.1 --- --- 1.7 NNW 0.03 2.6 -6.1 --- --- 731.3 0.016 0.000 9.9 11 1
02/04/06 9:16 p -4.9 -4.9 -4.9 --- --- 2.6 N 0.04 4.3 -7.1 --- --- 731.3 0.016 0.000 9.9 11 1
02/04/06 9:17 p -4.9 -4.9 -4.9 --- --- 3.5 N 0.06 4.3 -7.9 --- --- 731.3 0.016 0.000 9.8 11 1
02/04/06 9:18 p -4.9 -4.9 -4.9 --- --- 4.3 N 0.07 6.1 -8.6 --- --- 731.3 0.016 0.000 9.8 11 1
02/04/06 9:19 p -4.9 -4.9 -4.9 --- --- 5.2 N 0.09 6.1 -9.1 --- --- 731.3 0.016 0.000 9.9 11 1
02/04/06 9:20 p -4.9 -4.9 -4.9 --- --- 4.3 N 0.07 5.2 -8.6 --- --- 731.4 0.016 0.000 9.9 11 1
02/04/06 9:21 p -4.9 -4.9 -4.9 --- --- 4.3 N 0.07 5.2 -8.5 --- --- 731.2 0.016 0.000 9.9 11 1
02/04/06 9:22 p -4.9 -4.8 -4.9 --- --- 4.3 NNW 0.07 5.2 -8.5 --- --- 731.3 0.016 0.000 9.9 11 1
02/04/06 9:23 p -4.9 -4.9 -4.9 --- --- 3.5 NNW 0.06 4.3 -7.8 --- --- 731.3 0.016 0.000 9.9 11 1
02/04/06 9:24 p -4.9 -4.9 -4.9 --- --- 3.5 NNW 0.06 4.3 -7.8 --- --- 731.3 0.016 0.000 9.9 11 1
02/04/06 9:25 p -4.9 -4.9 -4.9 --- --- 3.5 NNW 0.06 4.3 -7.8 --- --- 731.3 0.016 0.000 9.9 11 1
02/04/06 9:26 p -4.9 -4.9 -4.9 --- --- 3.5 NNW 0.06 3.5 -7.9 --- --- 731.3 0.016 0.000 9.9 11 1
02/04/06 9:27 p -4.9 -4.9 -4.9 --- --- 2.6 NNW 0.04 3.5 -7.1 --- --- 731.3 0.016 0.000 9.9 11 1
02/04/06 9:28 p -4.9 -4.9 -4.9 --- --- 2.6 NNW 0.04 3.5 -7.1 --- --- 731.3 0.016 0.000 9.9 11 1
02/04/06 9:29 p -4.9 -4.9 -4.9 --- --- 2.6 NNW 0.04 2.6 -7.1 --- --- 731.4 0.016 0.000 9.9 11 1
02/04/06 9:30 p -4.9 -4.9 -4.9 --- --- 2.6 NNW 0.04 3.5 -7.1 --- --- 731.4 0.016 0.000 9.9 11 1
02/04/06 9:31 p -4.9 -4.9 -4.9 --- --- 2.6 NNW 0.04 3.5 -7.1 --- --- 731.3 0.016 0.000 9.9 11 1
02/04/06 9:32 p -4.9 -4.8 -4.9 --- --- 2.6 NNW 0.04 2.6 -7.0 --- --- 731.4 0.016 0.000 9.9 11 1
02/04/06 9:33 p -4.8 -4.8 -4.9 --- --- 3.5 NNW 0.06 3.5 -7.8 --- --- 731.4 0.016 0.000 9.9 11 1
02/04/06 9:34 p -4.8 -4.8 -4.8 --- --- 2.6 NNW 0.04 3.5 -6.9 --- --- 731.4 0.016 0.000 9.9 11 1
02/04/06 9:35 p -4.9 -4.8 -4.9 --- --- 3.5 NNW 0.06 3.5 -7.8 --- --- 731.3 0.016 0.000 9.9 11 1
02/04/06 9:36 p -4.9 -4.9 -4.9 --- --- 2.6 NNW 0.04 3.5 -7.1 --- --- 731.3 0.016 0.000 9.9 11 1
02/04/06 9:37 p -4.9 -4.9 -4.9 --- --- 2.6 NNW 0.04 3.5 -7.0 --- --- 731.3 0.016 0.000 9.9 11 1
02/04/06 9:38 p -4.9 -4.9 -4.9 --- --- 3.5 NNW 0.06 4.3 -7.8 --- --- 731.3 0.016 0.000 9.9 11 1
02/04/06 9:39 p -4.8 -4.8 -4.9 --- --- 2.6 NNW 0.04 3.5 -6.9 --- --- 731.3 0.016 0.000 9.9 11 1
02/04/06 9:40 p -4.8 -4.8 -4.8 --- --- 2.6 NNW 0.04 3.5 -6.9 --- --- 731.3 0.016 0.000 9.9 11 1
02/04/06 9:41 p -4.8 -4.8 -4.8 --- --- 2.6 NNW 0.04 3.5 -6.9 --- --- 731.3 0.016 0.000 9.9 11 1
02/04/06 9:42 p -4.8 -4.8 -4.9 --- --- 3.5 NNW 0.06 4.3 -7.8 --- --- 731.3 0.016 0.000 9.9 11 1
02/04/06 9:43 p -4.8 -4.8 -4.9 --- --- 3.5 NNW 0.06 4.3 -7.8 --- --- 731.4 0.016 0.000 9.9 11 1
02/04/06 9:44 p -4.9 -4.8 -4.9 --- --- 2.6 NNW 0.04 3.5 -7.0 --- --- 731.4 0.016 0.000 9.9 11 1
02/04/06 9:45 p -4.8 -4.8 -4.9 --- --- 2.6 NNW 0.04 3.5 -6.9 --- --- 731.4 0.016 0.000 9.9 11 1
02/04/06 9:46 p -4.8 -4.8 -4.8 --- --- 3.5 NNW 0.06 4.3 -7.8 --- --- 731.3 0.016 0.000 9.9 11 1
02/04/06 9:47 p -4.8 -4.8 -4.8 --- --- 3.5 NNW 0.06 4.3 -7.8 --- --- 731.4 0.016 0.000 9.9 11 1
02/04/06 9:48 p -4.8 -4.8 -4.8 --- --- 2.6 NNW 0.04 3.5 -6.9 --- --- 731.4 0.016 0.000 9.9 11 1
02/04/06 9:49 p -4.9 -4.8 -4.9 --- --- 3.5 NNW 0.06 4.3 -7.8 --- --- 731.4 0.016 0.000 9.9 11 1
02/04/06 9:50 p -5.0 -4.9 -5.0 --- --- 2.6 NNW 0.04 3.5 -7.2 --- --- 731.4 0.016 0.000 9.9 11 1
02/04/06 9:51 p -5.0 -4.9 -5.0 --- --- 2.6 NNW 0.04 3.5 -7.2 --- --- 731.5 0.016 0.000 9.9 11 1
02/04/06 9:52 p -4.9 -4.9 -4.9 --- --- 2.6 NNW 0.04 3.5 -7.0 --- --- 731.4 0.016 0.000 9.9 11 1
02/04/06 9:53 p -4.9 -4.9 -4.9 --- --- 4.3 NNW 0.07 5.2 -8.6 --- --- 731.4 0.016 0.000 9.9 11 1
02/04/06 9:54 p -4.9 -4.9 -4.9 --- --- 3.5 NNW 0.06 4.3 -7.8 --- --- 731.4 0.016 0.000 9.9 11 1
02/04/06 9:55 p -4.9 -4.8 -4.9 --- --- 2.6 NNW 0.04 3.5 -7.0 --- --- 731.4 0.016 0.000 9.9 11 1
02/04/06 9:56 p -4.7 -4.6 -4.7 --- --- 1.7 NNW 0.03 2.6 -5.7 --- --- 731.4 0.016 0.000 9.9 11 1
02/04/06 9:57 p -4.6 -4.6 -4.7 --- --- 0.9 NNW 0.01 1.7 -4.6 --- --- 731.4 0.016 0.000 9.9 11 1
02/04/06 9:58 p -4.7 -4.7 -4.8 --- --- 2.6 NNW 0.04 3.5 -6.8 --- --- 731.3 0.016 0.000 9.9 11 1
02/04/06 9:59 p -4.7 -4.7 -4.7 --- --- 3.5 NNW 0.06 4.3 -7.6 --- --- 731.3 0.016 0.000 9.9 11 1
02/04/06 10:00 p -4.8 -4.8 -4.8 --- --- 3.5 NNW 0.06 5.2 -7.8 --- --- 731.3 0.016 0.000 9.9 11 1
02/04/06 10:02 p -4.7 -4.7 -4.8 --- --- 2.6 NNW 0.04 3.5 -6.8 --- --- 731.4 0.016 0.000 9.9 11 1
02/04/06 10:03 p -4.8 -4.7 -4.8 --- --- 3.5 NNW 0.06 5.2 -7.7 --- --- 731.5 0.016 0.000 9.9 11 1
02/04/06 10:04 p -4.8 -4.8 -4.8 --- --- 4.3 NNW 0.07 5.2 -8.4 --- --- 731.4 0.016 0.000 9.9 11 1
02/04/06 10:05 p -4.7 -4.7 -4.8 --- --- 3.5 NNW 0.06 4.3 -7.6 --- --- 731.4 0.016 0.000 9.9 11 1
02/04/06 10:06 p -4.6 -4.6 -4.7 --- --- 4.3 NNW 0.07 5.2 -8.2 --- --- 731.4 0.016 0.000 9.9 11 1
02/04/06 10:07 p -4.6 -4.6 -4.6 --- --- 4.3 NNW 0.07 5.2 -8.1 --- --- 731.4 0.016 0.000 9.9 11 1
02/04/06 10:08 p -4.6 -4.6 -4.6 --- --- 4.3 NNW 0.07 5.2 -8.2 --- --- 731.4 0.016 0.000 9.9 11 1
02/04/06 10:09 p -4.6 -4.6 -4.6 --- --- 4.3 NNW 0.07 4.3 -8.2 --- --- 731.4 0.016 0.000 9.9 11 1
02/04/06 10:10 p -4.5 -4.4 -4.6 --- --- 3.5 NNW 0.06 3.5 -7.4 --- --- 731.5 0.016 0.000 9.9 11 1
02/04/06 10:11 p -4.4 -4.3 -4.4 --- --- 3.5 NNW 0.06 3.5 -7.2 --- --- 731.4 0.016 0.000 9.9 11 1
02/04/06 10:12 p -4.3 -4.3 -4.4 --- --- 3.5 NNW 0.06 4.3 -7.2 --- --- 731.4 0.016 0.000 9.9 11 1
02/04/06 10:13 p -4.4 -4.4 -4.4 --- --- 4.3 NNW 0.07 5.2 -7.9 --- --- 731.4 0.016 0.000 9.9 11 1
02/04/06 10:14 p -4.4 -4.4 -4.5 --- --- 5.2 NNW 0.09 6.1 -8.5 --- --- 731.4 0.016 0.000 9.9 11 1
02/04/06 10:15 p -4.6 -4.5 -4.6 --- --- 5.2 NNW 0.09 6.1 -8.6 --- --- 731.5 0.016 0.000 9.9 11 1
02/04/06 10:16 p -4.6 -4.6 -4.6 --- --- 6.1 NNW 0.10 7.0 -9.2 --- --- 731.5 0.016 0.000 9.9 11 1
02/04/06 10:17 p -4.6 -4.5 -4.6 --- --- 5.2 NNW 0.09 6.1 -8.6 --- --- 731.4 0.016 0.000 9.9 11 1
02/04/06 10:18 p -4.6 -4.5 -4.6 --- --- 5.2 NNW 0.09 7.0 -8.6 --- --- 731.5 0.016 0.000 9.8 11 1
02/04/06 10:19 p -4.6 -4.6 -4.6 --- --- 5.2 NNW 0.09 7.0 -8.6 --- --- 731.5 0.016 0.000 9.9 11 1
02/04/06 10:20 p -4.6 -4.5 -4.6 --- --- 5.2 NNW 0.09 7.0 -8.6 --- --- 731.4 0.016 0.000 9.9 11 1
02/04/06 10:21 p -4.5 -4.5 -4.5 --- --- 5.2 NNW 0.09 7.0 -8.6 --- --- 731.4 0.016 0.000 9.9 11 1
02/04/06 10:22 p -4.5 -4.5 -4.6 --- --- 7.0 NNW 0.12 7.8 -9.4 --- --- 731.4 0.016 0.000 9.9 11 1
02/04/06 10:23 p -4.6 -4.5 -4.6 --- --- 6.1 NNW 0.10 7.0 -9.1 --- --- 731.5 0.016 0.000 9.9 11 1
02/04/06 10:24 p -4.7 -4.7 -4.7 --- --- 7.0 NNW 0.12 7.8 -9.7 --- --- 731.4 0.016 0.000 9.9 11 1
02/04/06 10:25 p -4.8 -4.8 -4.8 --- --- 7.0 NNW 0.12 8.7 -9.8 --- --- 731.5 0.016 0.000 9.9 11 1
02/04/06 10:26 p -4.8 -4.8 -4.9 --- --- 7.8 NNW 0.13 9.6 -10.2 --- --- 731.5 0.016 0.000 9.9 11 1
02/04/06 10:27 p -4.9 -4.9 -4.9 --- --- 7.0 NNW 0.12 7.8 -9.9 --- --- 731.4 0.016 0.000 9.9 11 1
02/04/06 10:28 p -4.9 -4.9 -4.9 --- --- 7.0 NNW 0.12 7.0 -10.0 --- --- 731.5 0.016 0.000 9.9 11 1
02/04/06 10:29 p -4.9 -4.9 -4.9 --- --- 6.1 NNW 0.10 6.1 -9.6 --- --- 731.5 0.016 0.000 9.9 11 1
02/04/06 10:30 p -4.9 -4.9 -4.9 --- --- 6.1 NNW 0.10 7.8 -9.5 --- --- 731.5 0.016 0.000 9.9 11 1
02/04/06 10:31 p -4.9 -4.9 -4.9 --- --- 7.0 NNW 0.12 7.8 -9.9 --- --- 731.5 0.016 0.000 9.9 11 1
02/04/06 10:32 p -4.8 -4.8 -4.9 --- --- 6.1 NNW 0.10 7.0 -9.4 --- --- 731.5 0.016 0.000 9.9 11 1
02/04/06 10:33 p -4.8 -4.7 -4.8 --- --- 6.1 NNW 0.10 7.0 -9.4 --- --- 731.4 0.016 0.000 9.9 11 1
02/04/06 10:34 p -4.8 -4.8 -4.8 --- --- 6.1 NNW 0.10 7.0 -9.4 --- --- 731.5 0.016 0.000 9.9 11 1
02/04/06 10:35 p -4.8 -4.8 -4.8 --- --- 5.2 NNW 0.09 7.0 -8.9 --- --- 731.5 0.016 0.000 9.9 11 1
02/04/06 10:36 p -4.8 -4.8 -4.8 --- --- 6.1 NNW 0.10 7.0 -9.4 --- --- 731.6 0.016 0.000 9.9 11 1
02/04/06 10:37 p -4.9 -4.8 -4.9 --- --- 6.1 NNW 0.10 7.0 -9.5 --- --- 731.5 0.016 0.000 9.9 11 1
02/04/06 10:38 p -4.9 -4.9 -4.9 --- --- 6.1 NNW 0.10 7.0 -9.5 --- --- 731.5 0.016 0.000 9.9 11 1
02/04/06 10:39 p -4.9 -4.9 -4.9 --- --- 6.1 NNW 0.10 7.0 -9.5 --- --- 731.5 0.016 0.000 9.9 11 1
02/04/06 10:40 p -4.9 -4.9 -4.9 --- --- 5.2 NNW 0.09 6.1 -9.0 --- --- 731.5 0.016 0.000 9.9 11 1
02/04/06 10:41 p -4.9 -4.9 -4.9 --- --- 7.0 NNW 0.12 7.0 -9.9 --- --- 731.5 0.016 0.000 9.9 11 1
02/04/06 10:42 p -4.9 -4.9 -4.9 --- --- 7.0 NNW 0.12 7.8 -9.9 --- --- 731.5 0.016 0.000 9.9 11 1
02/04/06 10:43 p -4.9 -4.9 -4.9 --- --- 6.1 NNW 0.10 7.0 -9.5 --- --- 731.5 0.016 0.000 9.9 11 1
02/04/06 10:44 p -4.8 -4.8 -4.9 --- --- 7.0 NNW 0.12 7.8 -9.8 --- --- 731.5 0.016 0.000 9.9 11 1
02/04/06 10:45 p -4.8 -4.8 -4.8 --- --- 7.0 NNW 0.12 7.0 -9.8 --- --- 731.5 0.016 0.000 9.9 11 1
02/04/06 10:46 p -4.8 -4.8 -4.9 --- --- 5.2 NNW 0.09 6.1 -8.9 --- --- 731.5 0.016 0.000 9.9 11 1
02/04/06 10:47 p -5.0 -5.0 -5.1 --- --- 5.2 NNW 0.09 6.1 -9.2 --- --- 731.5 0.016 0.000 9.9 11 1
02/04/06 10:48 p -5.1 -5.1 -5.1 --- --- 5.2 NNW 0.09 6.1 -9.2 --- --- 731.5 0.016 0.000 9.9 11 1
02/04/06 10:49 p -5.1 -5.1 -5.1 --- --- 6.1 NNW 0.10 7.0 -9.7 --- --- 731.5 0.016 0.000 10.0 11 1
02/04/06 10:50 p -5.1 -5.1 -5.1 --- --- 7.0 NNW 0.12 7.8 -10.2 --- --- 731.5 0.016 0.000 10.0 11 1
02/04/06 10:51 p -5.1 -5.1 -5.1 --- --- 6.1 NNW 0.10 7.0 -9.8 --- --- 731.5 0.016 0.000 10.0 11 1
02/04/06 10:52 p -5.1 -5.1 -5.1 --- --- 5.2 NNW 0.09 6.1 -9.2 --- --- 731.5 0.016 0.000 10.0 11 1
02/04/06 10:53 p -5.0 -5.0 -5.1 --- --- 5.2 NNW 0.09 7.0 -9.2 --- --- 731.5 0.016 0.000 10.0 11 1
02/04/06 10:54 p -5.0 -5.0 -5.0 --- --- 5.2 NNW 0.09 6.1 -9.2 --- --- 731.5 0.016 0.000 10.0 11 1
02/04/06 10:55 p -5.0 -5.0 -5.0 --- --- 6.1 NNW 0.10 7.0 -9.6 --- --- 731.6 0.016 0.000 10.0 11 1
02/04/06 10:56 p -5.0 -5.0 -5.1 --- --- 5.2 NNW 0.09 6.1 -9.2 --- --- 731.5 0.016 0.000 10.0 11 1
02/04/06 10:57 p -5.0 -5.0 -5.0 --- --- 5.2 NNW 0.09 6.1 -9.2 --- --- 731.5 0.016 0.000 10.0 11 1
02/04/06 10:58 p -5.0 -4.9 -5.0 --- --- 4.3 NNW 0.07 5.2 -8.6 --- --- 731.5 0.016 0.000 10.0 11 1
02/04/06 10:59 p -4.9 -4.9 -4.9 --- --- 4.3 NNW 0.07 5.2 -8.6 --- --- 731.6 0.016 0.000 10.0 11 1
02/04/06 11:00 p -4.9 -4.9 -4.9 --- --- 4.3 NNW 0.07 5.2 -8.5 --- --- 731.5 0.016 0.000 10.0 11 1
02/04/06 11:02 p -4.8 -4.8 -4.8 --- --- 4.3 NNW 0.07 5.2 -8.4 --- --- 731.5 0.016 0.000 10.0 11 1
02/04/06 11:03 p -4.8 -4.8 -4.8 --- --- 3.5 NNW 0.06 4.3 -7.7 --- --- 731.6 0.016 0.000 10.0 11 1
02/04/06 11:04 p -4.8 -4.7 -4.8 --- --- 2.6 NNW 0.04 3.5 -6.9 --- --- 731.5 0.016 0.000 10.0 11 1
02/04/06 11:05 p -4.7 -4.7 -4.7 --- --- 3.5 NNW 0.06 4.3 -7.6 --- --- 731.5 0.016 0.000 10.0 11 1
02/04/06 11:06 p -4.7 -4.6 -4.7 --- --- 5.2 NNW 0.09 6.1 -8.8 --- --- 731.5 0.016 0.000 10.0 11 1
02/04/06 11:07 p -4.6 -4.5 -4.6 --- --- 5.2 NNW 0.09 7.0 -8.6 --- --- 731.6 0.016 0.000 10.1 11 1
02/04/06 11:08 p -4.4 -4.4 -4.4 --- --- 6.1 NNW 0.10 7.0 -8.9 --- --- 731.6 0.016 0.000 10.1 11 1
02/04/06 11:09 p -4.4 -4.4 -4.4 --- --- 4.3 NNW 0.07 6.1 -7.9 --- --- 731.6 0.016 0.000 10.1 11 1
02/04/06 11:10 p -4.4 -4.4 -4.4 --- --- 3.5 NNW 0.06 4.3 -7.2 --- --- 731.5 0.016 0.000 10.1 11 1
02/04/06 11:11 p -4.3 -4.3 -4.4 --- --- 2.6 NNW 0.04 4.3 -6.4 --- --- 731.6 0.016 0.000 10.1 11 1
02/04/06 11:12 p -4.2 -4.2 -4.3 --- --- 2.6 NNW 0.04 2.6 -6.3 --- --- 731.5 0.016 0.000 10.1 11 1
02/04/06 11:13 p -4.1 -4.1 -4.2 --- --- 1.7 NNW 0.03 2.6 -5.1 --- --- 731.5 0.016 0.000 10.1 11 1
02/04/06 11:14 p -4.1 -4.1 -4.1 --- --- 2.6 NNW 0.04 3.5 -6.1 --- --- 731.6 0.016 0.000 10.1 11 1
02/04/06 11:15 p -4.0 -3.9 -4.1 --- --- 3.5 NNW 0.06 5.2 -6.8 --- --- 731.6 0.016 0.000 10.1 11 1
02/04/06 11:16 p -3.9 -3.9 -3.9 --- --- 4.3 NNW 0.07 6.1 -7.4 --- --- 731.5 0.015 0.000 10.1 11 1
02/04/06 11:17 p -3.9 -3.9 -3.9 --- --- 4.3 NNW 0.07 4.3 -7.3 --- --- 731.6 0.015 0.000 10.1 11 1
02/04/06 11:18 p -3.9 -3.9 -3.9 --- --- 4.3 NNW 0.07 5.2 -7.4 --- --- 731.5 0.015 0.000 10.1 11 1
02/04/06 11:19 p -3.8 -3.8 -3.9 --- --- 4.3 NNW 0.07 5.2 -7.2 --- --- 731.6 0.015 0.000 10.1 11 1
02/04/06 11:20 p -3.7 -3.7 -3.7 --- --- 4.3 NNW 0.07 4.3 -7.1 --- --- 731.6 0.015 0.000 10.1 11 1
02/04/06 11:21 p -3.7 -3.7 -3.7 --- --- 3.5 NNW 0.06 4.3 -6.4 --- --- 731.5 0.015 0.000 10.1 11 1
02/04/06 11:22 p -3.6 -3.5 -3.7 --- --- 3.5 NNW 0.06 4.3 -6.3 --- --- 731.5 0.015 0.000 10.1 11 1
02/04/06 11:23 p -3.5 -3.4 -3.5 --- --- 4.3 NNW 0.07 5.2 -6.8 --- --- 731.6 0.015 0.000 10.1 11 1
02/04/06 11:24 p -3.4 -3.4 -3.4 --- --- 4.3 NNW 0.07 5.2 -6.8 --- --- 731.5 0.015 0.000 10.1 11 1
02/04/06 11:25 p -3.4 -3.3 -3.4 --- --- 4.3 NNW 0.07 5.2 -6.7 --- --- 731.5 0.015 0.000 10.1 11 1
02/04/06 11:26 p -3.3 -3.3 -3.3 --- --- 4.3 NNW 0.07 5.2 -6.7 --- --- 731.5 0.015 0.000 10.1 11 1
02/04/06 11:27 p -3.3 -3.2 -3.3 --- --- 4.3 NNW 0.07 5.2 -6.6 --- --- 731.5 0.015 0.000 10.1 11 1
02/04/06 11:28 p -3.2 -3.2 -3.2 --- --- 4.3 NNW 0.07 5.2 -6.5 --- --- 731.5 0.015 0.000 10.1 11 1
02/04/06 11:29 p -3.2 -3.1 -3.2 --- --- 4.3 NNW 0.07 4.3 -6.4 --- --- 731.6 0.015 0.000 10.1 11 1
02/04/06 11:30 p -3.1 -3.0 -3.1 --- --- 4.3 NNW 0.07 4.3 -6.3 --- --- 731.6 0.015 0.000 10.1 11 1
02/04/06 11:31 p -3.0 -2.9 -3.0 --- --- 4.3 NNW 0.07 4.3 -6.3 --- --- 731.6 0.015 0.000 10.1 11 1
02/04/06 11:32 p -2.8 -2.8 -2.9 --- --- 3.5 NNW 0.06 4.3 -5.4 --- --- 731.5 0.015 0.000 10.1 11 1
02/04/06 11:33 p -2.7 -2.7 -2.7 --- --- 3.5 NNW 0.06 4.3 -5.3 --- --- 731.6 0.015 0.000 10.2 11 1
02/04/06 11:34 p -2.7 -2.6 -2.7 --- --- 3.5 NNW 0.06 4.3 -5.3 --- --- 731.6 0.015 0.000 10.2 11 1
02/04/06 11:35 p -2.5 -2.5 -2.5 --- --- 4.3 NNW 0.07 5.2 -5.7 --- --- 731.6 0.014 0.000 10.2 11 1
02/04/06 11:36 p -2.4 -2.4 -2.5 --- --- 4.3 NNW 0.07 5.2 -5.6 --- --- 731.6 0.014 0.000 10.2 11 1
02/04/06 11:37 p -2.4 -2.3 -2.4 --- --- 4.3 NNW 0.07 5.2 -5.6 --- --- 731.5 0.014 0.000 10.2 11 1
02/04/06 11:38 p -2.3 -2.3 -2.3 --- --- 4.3 NNW 0.07 4.3 -5.5 --- --- 731.5 0.014 0.000 10.1 11 1
02/04/06 11:39 p -2.3 -2.2 -2.3 --- --- 3.5 NNW 0.06 4.3 -4.8 --- --- 731.6 0.014 0.000 10.2 11 1
02/04/06 11:40 p -2.2 -2.1 -2.2 --- --- 3.5 NNW 0.06 3.5 -4.7 --- --- 731.6 0.014 0.000 10.2 11 1
02/04/06 11:41 p -2.0 -1.9 -2.1 --- --- 2.6 NNW 0.04 3.5 -3.8 --- --- 731.6 0.014 0.000 10.2 11 1
02/04/06 11:42 p -1.9 -1.8 -1.9 --- --- 3.5 NNW 0.06 4.3 -4.4 --- --- 731.6 0.014 0.000 10.2 11 1
02/04/06 11:43 p -1.8 -1.8 -1.9 --- --- 2.6 NNW 0.04 3.5 -3.6 --- --- 731.6 0.014 0.000 10.2 11 1
02/04/06 11:44 p -1.8 -1.8 -1.8 --- --- 2.6 NNW 0.04 3.5 -3.5 --- --- 731.6 0.014 0.000 10.2 11 1
02/04/06 11:45 p -1.8 -1.8 -1.8 --- --- 3.5 NNW 0.06 4.3 -4.2 --- --- 731.6 0.014 0.000 10.2 11 1
02/04/06 11:46 p -1.8 -1.8 -1.8 --- --- 3.5 NNW 0.06 4.3 -4.2 --- --- 731.7 0.014 0.000 10.2 11 1
02/04/06 11:47 p -1.8 -1.8 -1.8 --- --- 4.3 NNW 0.07 5.2 -4.8 --- --- 731.6 0.014 0.000 10.2 11 1
02/04/06 11:48 p -1.8 -1.8 -1.9 --- --- 5.2 NNW 0.09 6.1 -5.4 --- --- 731.7 0.014 0.000 10.1 11 1
02/04/06 11:49 p -2.0 -1.9 -2.1 --- --- 5.2 NNW 0.09 6.1 -5.6 --- --- 731.7 0.014 0.000 10.2 11 1
02/04/06 11:50 p -2.2 -2.2 -2.2 --- --- 4.3 NNW 0.07 5.2 -5.3 --- --- 731.7 0.014 0.000 10.2 11 1
02/04/06 11:51 p -2.2 -2.2 -2.2 --- --- 3.5 NNW 0.06 4.3 -4.7 --- --- 731.7 0.014 0.000 10.2 11 1
02/04/06 11:52 p -2.2 -2.2 -2.2 --- --- 3.5 NNW 0.06 4.3 -4.7 --- --- 731.6 0.014 0.000 10.2 11 1
02/04/06 11:53 p -2.2 -2.2 -2.2 --- --- 3.5 NNW 0.06 3.5 -4.7 --- --- 731.7 0.014 0.000 10.2 11 1
02/04/06 11:54 p -2.3 -2.3 -2.4 --- --- 3.5 NNW 0.06 4.3 -4.9 --- --- 731.7 0.014 0.000 10.2 11 1
02/04/06 11:55 p -2.4 -2.4 -2.4 --- --- 2.6 NNW 0.04 3.5 -4.3 --- --- 731.6 0.014 0.000 10.2 11 1
02/04/06 11:56 p -2.4 -2.4 -2.6 --- --- 2.6 NNW 0.04 3.5 -4.3 --- --- 731.6 0.014 0.000 10.2 11 1
02/04/06 11:57 p -2.6 -2.6 -2.6 --- --- 2.6 NNW 0.04 3.5 -4.4 --- --- 731.6 0.015 0.000 10.2 11 1
02/04/06 11:58 p -2.7 -2.7 -2.8 --- --- 3.5 NNW 0.06 3.5 -5.3 --- --- 731.6 0.015 0.000 10.2 11 1
02/04/06 11:59 p -2.8 -2.8 -2.8 --- --- 2.6 NNW 0.04 2.6 -4.7 --- --- 731.6 0.015 0.000 10.2 11 1
02/05/06 12:00 a -2.9 -2.8 -2.9 --- --- 2.6 NNW 0.04 3.5 -4.8 --- --- 731.6 0.015 0.000 10.2 11 1
02/05/06 12:02 a -2.9 -2.9 -2.9 --- --- 3.5 NNW 0.06 4.3 -5.5 --- --- 731.6 0.015 0.000 10.2 11 1
02/05/06 12:03 a -2.9 -2.9 -2.9 --- --- 3.5 NNW 0.06 4.3 -5.5 --- --- 731.7 0.015 0.000 10.2 11 1
02/05/06 12:04 a -2.9 -2.8 -2.9 --- --- 4.3 NNW 0.07 5.2 -6.1 --- --- 731.6 0.015 0.000 10.2 11 1
02/05/06 12:05 a -2.9 -2.9 -3.1 --- --- 3.5 NNW 0.06 4.3 -5.6 --- --- 731.7 0.015 0.000 10.2 11 1
02/05/06 12:06 a -3.1 -3.1 -3.3 --- --- 2.6 NNW 0.04 3.5 -5.0 --- --- 731.7 0.015 0.000 10.2 11 1
02/05/06 12:07 a -3.3 -3.3 -3.4 --- --- 2.6 NNW 0.04 3.5 -5.2 --- --- 731.7 0.015 0.000 10.2 11 1
02/05/06 12:08 a -3.4 -3.4 -3.6 --- --- 2.6 NNW 0.04 4.3 -5.4 --- --- 731.8 0.015 0.000 10.2 11 1
02/05/06 12:09 a -3.6 -3.6 -3.7 --- --- 2.6 N 0.04 3.5 -5.6 --- --- 731.6 0.015 0.000 10.2 11 1
02/05/06 12:10 a -3.8 -3.7 -3.8 --- --- 2.6 N 0.04 3.5 -5.8 --- --- 731.7 0.015 0.000 10.2 11 1
02/05/06 12:11 a -3.8 -3.8 -3.8 --- --- 3.5 N 0.06 4.3 -6.6 --- --- 731.8 0.015 0.000 10.2 11 1
02/05/06 12:12 a -3.8 -3.8 -3.8 --- --- 3.5 N 0.06 5.2 -6.6 --- --- 731.7 0.015 0.000 10.2 11 1
02/05/06 12:13 a -3.9 -3.8 -3.9 --- --- 3.5 N 0.06 4.3 -6.7 --- --- 731.7 0.015 0.000 10.2 11 1
02/05/06 12:14 a -3.8 -3.8 -3.8 --- --- 1.7 N 0.03 2.6 -4.7 --- --- 731.6 0.015 0.000 10.2 11 1
02/05/06 12:15 a -3.7 -3.7 -3.8 --- --- 1.7 N 0.03 2.6 -4.7 --- --- 731.7 0.015 0.000 10.2 11 1
02/05/06 12:16 a -3.7 -3.7 -3.7 --- --- 3.5 N 0.06 4.3 -6.4 --- --- 731.7 0.015 0.000 10.1 11 1
02/05/06 12:17 a -3.7 -3.7 -3.7 --- --- 4.3 N 0.07 5.2 -7.1 --- --- 731.6 0.015 0.000 10.1 11 1
02/05/06 12:18 a -3.7 -3.7 -3.7 --- --- 5.2 N 0.09 6.1 -7.6 --- --- 731.6 0.015 0.000 10.2 11 1
02/05/06 12:19 a -3.7 -3.7 -3.7 --- --- 5.2 NNW 0.09 6.1 -7.6 --- --- 731.7 0.015 0.000 10.2 11 1
02/05/06 12:20 a -3.7 -3.7 -3.7 --- --- 5.2 NNW 0.09 5.2 -7.6 --- --- 731.7 0.015 0.000 10.2 11 1
02/05/06 12:21 a -3.7 -3.6 -3.7 --- --- 3.5 NNW 0.06 4.3 -6.4 --- --- 731.7 0.015 0.000 10.2 11 1
02/05/06 12:22 a -3.6 -3.6 -3.6 --- --- 3.5 NNW 0.06 4.3 -6.3 --- --- 731.7 0.015 0.000 10.2 11 1
02/05/06 12:23 a -3.6 -3.5 -3.6 --- --- 2.6 NNW 0.04 3.5 -5.5 --- --- 731.7 0.015 0.000 10.2 11 1
02/05/06 12:24 a -3.4 -3.4 -3.5 --- --- 1.7 NNW 0.03 2.6 -4.3 --- --- 731.6 0.015 0.000 10.2 11 1
02/05/06 12:25 a -3.5 -3.4 -3.6 --- --- 2.6 NNW 0.04 3.5 -5.4 --- --- 731.7 0.015 0.000 10.2 11 1
02/05/06 12:26 a -3.6 -3.6 -3.6 --- --- 3.5 NNW 0.06 4.3 -6.3 --- --- 731.6 0.015 0.000 10.2 11 1
02/05/06 12:27 a -3.6 -3.6 -3.7 --- --- 4.3 NNW 0.07 6.1 -7.0 --- --- 731.7 0.015 0.000 10.2 11 1
02/05/06 12:28 a -3.7 -3.6 -3.7 --- --- 5.2 NNW 0.09 6.1 -7.6 --- --- 731.7 0.015 0.000 10.2 11 1
02/05/06 12:29 a -3.5 -3.4 -3.6 --- --- 4.3 NNW 0.07 6.1 -6.8 --- --- 731.8 0.015 0.000 10.2 11 1
02/05/06 12:30 a -3.4 -3.3 -3.4 --- --- 2.6 NNW 0.04 4.3 -5.3 --- --- 731.7 0.015 0.000 10.2 11 1
02/05/06 12:31 a -3.3 -3.3 -3.3 --- --- 1.7 NNW 0.03 2.6 -4.2 --- --- 731.7 0.015 0.000 10.2 11 1
02/05/06 12:32 a -3.2 -3.1 -3.3 --- --- 2.6 NNW 0.04 3.5 -5.1 --- --- 731.6 0.015 0.000 10.2 11 1
02/05/06 12:33 a -3.1 -3.1 -3.1 --- --- 3.5 NNW 0.06 3.5 -5.8 --- --- 731.7 0.015 0.000 10.2 11 1
02/05/06 12:34 a -2.9 -2.9 -2.9 --- --- 3.5 NNW 0.06 5.2 -5.6 --- --- 731.6 0.015 0.000 10.2 11 1
02/05/06 12:35 a -2.9 -2.9 -2.9 --- --- 4.3 NNW 0.07 5.2 -6.2 --- --- 731.6 0.015 0.000 10.2 11 1
02/05/06 12:36 a -2.9 -2.9 -2.9 --- --- 5.2 NNW 0.09 6.1 -6.7 --- --- 731.7 0.015 0.000 10.2 11 1
02/05/06 12:37 a -2.9 -2.9 -2.9 --- --- 5.2 NNW 0.09 6.1 -6.7 --- --- 731.7 0.015 0.000 10.2 11 1
02/05/06 12:38 a -2.9 -2.9 -2.9 --- --- 4.3 NNW 0.07 6.1 -6.2 --- --- 731.7 0.015 0.000 10.2 11 1
02/05/06 12:39 a -2.9 -2.9 -2.9 --- --- 3.5 NNW 0.06 4.3 -5.5 --- --- 731.6 0.015 0.000 10.2 11 1
02/05/06 12:40 a -2.8 -2.7 -2.8 --- --- 1.7 NNW 0.03 2.6 -3.6 --- --- 731.7 0.015 0.000 10.2 11 1
02/05/06 12:41 a -2.6 -2.6 -2.6 --- --- 1.7 NNW 0.03 2.6 -3.4 --- --- 731.7 0.015 0.000 10.2 11 1
02/05/06 12:42 a -2.4 -2.4 -2.5 --- --- 1.7 NNW 0.03 2.6 -3.3 --- --- 731.7 0.014 0.000 10.2 11 1
02/05/06 12:43 a -2.3 -2.3 -2.3 --- --- 1.7 NNW 0.03 2.6 -3.1 --- --- 731.7 0.014 0.000 10.2 11 1
02/05/06 12:44 a -2.3 -2.3 -2.3 --- --- 2.6 NNW 0.04 2.6 -4.1 --- --- 731.7 0.014 0.000 10.2 11 1
02/05/06 12:45 a -2.3 -2.3 -2.4 --- --- 3.5 NNW 0.06 5.2 -4.9 --- --- 731.7 0.014 0.000 10.2 11 1
02/05/06 12:46 a -2.4 -2.4 -2.5 --- --- 4.3 NNW 0.07 4.3 -5.6 --- --- 731.7 0.014 0.000 10.2 11 1
02/05/06 12:47 a -2.4 -2.4 -2.5 --- --- 2.6 NNW 0.04 4.3 -4.3 --- --- 731.6 0.014 0.000 10.2 11 1
02/05/06 12:48 a -2.4 -2.4 -2.4 --- --- 1.7 NNW 0.03 2.6 -3.3 --- --- 731.7 0.014 0.000 10.2 11 1
02/05/06 12:49 a -2.5 -2.4 -2.6 --- --- 1.7 NNW 0.03 3.5 -3.3 --- --- 731.7 0.014 0.000 10.2 11 1
02/05/06 12:50 a -2.6 -2.6 -2.7 --- --- 2.6 NNW 0.04 2.6 -4.4 --- --- 731.7 0.015 0.000 10.2 11 1
02/05/06 12:51 a -2.7 -2.7 -2.7 --- --- 1.7 NNW 0.03 3.5 -3.5 --- --- 731.7 0.015 0.000 10.2 12 1
02/05/06 12:52 a -2.6 -2.6 -2.7 --- --- 2.6 NNW 0.04 3.5 -4.4 --- --- 731.7 0.015 0.000 10.3 12 1
02/05/06 12:53 a -2.6 -2.6 -2.7 --- --- 2.6 NNW 0.04 4.3 -4.4 --- --- 731.8 0.015 0.000 10.3 11 1
02/05/06 12:54 a -2.8 -2.7 -2.8 --- --- 4.3 NNW 0.07 5.2 -6.0 --- --- 731.8 0.015 0.000 10.3 12 1
02/05/06 12:55 a -2.8 -2.7 -2.8 --- --- 4.3 NNW 0.07 5.2 -6.0 --- --- 731.7 0.015 0.000 10.3 11 1
02/05/06 12:56 a -2.7 -2.7 -2.7 --- --- 2.6 NNW 0.04 3.5 -4.6 --- --- 731.7 0.015 0.000 10.2 12 1
02/05/06 12:57 a -2.7 -2.7 -2.7 --- --- 2.6 NNW 0.04 3.5 -4.5 --- --- 731.7 0.015 0.000 10.2 11 1
02/05/06 12:58 a -2.7 -2.6 -2.7 --- --- 2.6 NNW 0.04 3.5 -4.5 --- --- 731.7 0.015 0.000 10.2 12 1
02/05/06 12:59 a -2.6 -2.5 -2.6 --- --- 1.7 NNW 0.03 2.6 -3.4 --- --- 731.7 0.015 0.000 10.2 12 1
02/05/06 1:00 a -2.3 -2.3 -2.4 --- --- 0.9 NNW 0.01 1.7 -2.3 --- --- 731.8 0.014 0.000 10.2 11 1
02/05/06 1:02 a -2.0 -1.9 -2.1 --- --- 0.0 NNW 0.00 0.9 -2.0 --- --- 731.7 0.014 0.000 10.3 12 1
02/05/06 1:03 a -1.8 -1.8 -1.8 --- --- 0.0 NNW 0.00 0.9 -1.8 --- --- 731.7 0.014 0.000 10.3 12 1
02/05/06 1:04 a -1.7 -1.6 -1.7 --- --- 0.0 NNW 0.00 0.9 -1.7 --- --- 731.7 0.014 0.000 10.3 12 1
02/05/06 1:05 a -1.6 -1.6 -1.7 --- --- 0.0 NNW 0.00 0.9 -1.6 --- --- 731.7 0.014 0.000 10.2 12 1
02/05/06 1:06 a -1.6 -1.6 -1.6 --- --- 0.0 NNW 0.00 0.9 -1.6 --- --- 731.7 0.014 0.000 10.2 12 1
02/05/06 1:07 a -1.4 -1.4 -1.6 --- --- 0.9 NNW 0.01 2.6 -1.4 --- --- 731.7 0.014 0.000 10.3 12 1
02/05/06 1:08 a -1.4 -1.4 -1.6 --- --- 2.6 NNW 0.04 5.2 -3.1 --- --- 731.8 0.014 0.000 10.2 12 1
02/05/06 1:09 a -1.7 -1.6 -1.8 --- --- 3.5 NNW 0.06 5.2 -4.1 --- --- 731.7 0.014 0.000 10.3 12 1
02/05/06 1:10 a -1.8 -1.8 -1.9 --- --- 1.7 NNW 0.03 2.6 -2.6 --- --- 731.8 0.014 0.000 10.3 12 1
02/05/06 1:11 a -1.9 -1.9 -1.9 --- --- 0.0 NNW 0.00 1.7 -1.9 --- --- 731.7 0.014 0.000 10.3 12 1
02/05/06 1:12 a -1.8 -1.8 -1.9 --- --- 0.0 NNW 0.00 0.9 -1.8 --- --- 731.7 0.014 0.000 10.3 12 1
02/05/06 1:13 a -1.7 -1.7 -1.8 --- --- 0.0 NNW 0.00 0.9 -1.7 --- --- 731.7 0.014 0.000 10.3 12 1
02/05/06 1:14 a -1.6 -1.6 -1.7 --- --- 0.0 NNW 0.00 0.9 -1.6 --- --- 731.7 0.014 0.000 10.3 12 1
02/05/06 1:15 a -1.4 -1.4 -1.6 --- --- 0.0 --- 0.00 0.0 -1.4 --- --- 731.7 0.014 0.000 10.3 12 1
02/05/06 1:16 a -1.3 -1.2 -1.3 --- --- 0.0 NNW 0.00 0.9 -1.3 --- --- 731.7 0.014 0.000 10.3 12 1
02/05/06 1:17 a -1.2 -1.2 -1.3 --- --- 0.9 NNW 0.01 0.9 -1.2 --- --- 731.7 0.014 0.000 10.3 12 1
02/05/06 1:18 a -1.4 -1.3 -1.5 --- --- 0.0 NNW 0.00 0.9 -1.4 --- --- 731.7 0.014 0.000 10.3 12 1
02/05/06 1:19 a -1.6 -1.6 -1.7 --- --- 0.9 NNW 0.01 1.7 -1.6 --- --- 731.8 0.014 0.000 10.3 12 1
02/05/06 1:20 a -1.7 -1.6 -1.7 --- --- 2.6 NNW 0.04 4.3 -3.4 --- --- 731.8 0.014 0.000 10.3 12 1
02/05/06 1:21 a -1.6 -1.6 -1.6 --- --- 2.6 NNW 0.04 3.5 -3.3 --- --- 731.8 0.014 0.000 10.3 12 1
02/05/06 1:22 a -1.6 -1.6 -1.7 --- --- 0.9 NNW 0.01 2.6 -1.6 --- --- 731.9 0.014 0.000 10.3 12 1
02/05/06 1:23 a -1.7 -1.7 -1.7 --- --- 0.0 NNW 0.00 0.9 -1.7 --- --- 731.8 0.014 0.000 10.3 12 1
02/05/06 1:24 a -1.7 -1.7 -1.7 --- --- 0.0 NNW 0.00 0.9 -1.7 --- --- 731.8 0.014 0.000 10.3 12 1
02/05/06 1:25 a -1.7 -1.7 -1.7 --- --- 0.9 NNW 0.01 1.7 -1.7 --- --- 731.7 0.014 0.000 10.3 12 1
02/05/06 1:26 a -1.6 -1.6 -1.7 --- --- 0.0 --- 0.00 0.0 -1.6 --- --- 731.8 0.014 0.000 10.3 12 1
02/05/06 1:27 a -1.5 -1.5 -1.6 --- --- 0.0 NNW 0.00 0.9 -1.5 --- --- 731.9 0.014 0.000 10.3 12 1
02/05/06 1:28 a -1.5 -1.4 -1.6 --- --- 0.0 --- 0.00 0.9 -1.5 --- --- 731.8 0.014 0.000 10.3 12 1
02/05/06 1:29 a -1.4 -1.3 -1.4 --- --- 0.0 --- 0.00 0.9 -1.4 --- --- 731.8 0.014 0.000 10.3 12 1
02/05/06 1:30 a -1.3 -1.3 -1.3 --- --- 0.9 NNW 0.01 2.6 -1.3 --- --- 731.8 0.014 0.000 10.3 12 1
02/05/06 1:31 a -1.4 -1.3 -1.6 --- --- 1.7 NNW 0.03 2.6 -2.1 --- --- 731.9 0.014 0.000 10.3 12 1
02/05/06 1:32 a -1.8 -1.7 -1.9 --- --- 2.6 NNW 0.04 2.6 -3.5 --- --- 731.8 0.014 0.000 10.3 12 1
02/05/06 1:33 a -1.9 -1.9 -2.1 --- --- 1.7 NNW 0.03 2.6 -2.7 --- --- 731.9 0.014 0.000 10.3 12 1
02/05/06 1:34 a -2.3 -2.2 -2.4 --- --- 0.9 NNW 0.01 1.7 -2.3 --- --- 731.9 0.014 0.000 10.3 12 1
02/05/06 1:35 a -2.5 -2.5 -2.5 --- --- 0.0 --- 0.00 0.9 -2.5 --- --- 731.8 0.014 0.000 10.3 12 1
02/05/06 1:36 a -2.5 -2.4 -2.5 --- --- 0.0 NNW 0.00 0.9 -2.5 --- --- 731.8 0.014 0.000 10.3 12 1
02/05/06 1:37 a -2.6 -2.6 -2.6 --- --- 0.0 NNW 0.00 0.9 -2.6 --- --- 731.8 0.015 0.000 10.3 12 1
02/05/06 1:38 a -2.6 -2.6 -2.6 --- --- 0.9 NNW 0.01 0.9 -2.6 --- --- 731.9 0.015 0.000 10.3 12 1
02/05/06 1:39 a -2.5 -2.5 -2.5 --- --- 0.0 NNW 0.00 1.7 -2.5 --- --- 731.9 0.014 0.000 10.3 12 1
02/05/06 1:40 a -2.6 -2.5 -2.7 --- --- 0.9 NNW 0.01 1.7 -2.6 --- --- 731.8 0.015 0.000 10.3 12 1
02/05/06 1:41 a -2.8 -2.8 -2.8 --- --- 0.0 NNW 0.00 0.9 -2.8 --- --- 731.9 0.015 0.000 10.3 12 1
02/05/06 1:42 a -2.8 -2.8 -2.8 --- --- 0.0 NNW 0.00 0.9 -2.8 --- --- 731.8 0.015 0.000 10.3 12 1
02/05/06 1:43 a -2.8 -2.8 -2.8 --- --- 0.0 NNW 0.00 0.9 -2.8 --- --- 731.9 0.015 0.000 10.3 12 1
02/05/06 1:44 a -2.7 -2.7 -2.8 --- --- 0.9 NNW 0.01 0.9 -2.7 --- --- 731.8 0.015 0.000 10.3 12 1
02/05/06 1:45 a -2.8 -2.8 -2.9 --- --- 0.9 NNW 0.01 0.9 -2.8 --- --- 731.8 0.015 0.000 10.3 12 1
02/05/06 1:46 a -2.9 -2.9 -3.0 --- --- 0.0 NNW 0.00 0.9 -2.9 --- --- 731.9 0.015 0.000 10.3 12 1
02/05/06 1:47 a -3.0 -3.0 -3.0 --- --- 0.0 NNW 0.00 0.9 -3.0 --- --- 731.9 0.015 0.000 10.3 12 1
02/05/06 1:48 a -2.9 -2.9 -2.9 --- --- 0.0 NNW 0.00 0.9 -2.9 --- --- 731.9 0.015 0.000 10.3 12 1
02/05/06 1:49 a -2.9 -2.9 -2.9 --- --- 0.9 NNW 0.01 1.7 -2.9 --- --- 731.8 0.015 0.000 10.3 12 1
02/05/06 1:50 a -3.0 -2.9 -3.1 --- --- 0.9 NNW 0.01 1.7 -3.0 --- --- 731.8 0.015 0.000 10.4 12 1
02/05/06 1:51 a -3.1 -3.1 -3.2 --- --- 0.9 NNW 0.01 1.7 -3.1 --- --- 731.9 0.015 0.000 10.3 12 1
02/05/06 1:52 a -3.2 -3.2 -3.3 --- --- 0.0 NNW 0.00 0.9 -3.2 --- --- 731.9 0.015 0.000 10.3 12 1
02/05/06 1:53 a -3.3 -3.3 -3.3 --- --- 0.0 NNW 0.00 0.9 -3.3 --- --- 731.9 0.015 0.000 10.3 12 1
02/05/06 1:54 a -3.3 -3.3 -3.3 --- --- 0.0 NNW 0.00 0.9 -3.3 --- --- 731.9 0.015 0.000 10.3 12 1
02/05/06 1:55 a -3.3 -3.3 -3.3 --- --- 0.9 NNW 0.01 1.7 -3.3 --- --- 731.8 0.015 0.000 10.3 12 1
02/05/06 1:56 a -3.3 -3.3 -3.3 --- --- 0.9 NNW 0.01 0.9 -3.3 --- --- 731.8 0.015 0.000 10.3 12 1
02/05/06 1:57 a -3.4 -3.3 -3.4 --- --- 0.0 NNW 0.00 0.9 -3.4 --- --- 731.8 0.015 0.000 10.3 12 1
02/05/06 1:58 a -3.4 -3.3 -3.4 --- --- 0.9 NNW 0.01 0.9 -3.4 --- --- 731.9 0.015 0.000 10.3 12 1
02/05/06 1:59 a -3.4 -3.4 -3.6 --- --- 1.7 NNW 0.03 2.6 -4.3 --- --- 731.9 0.015 0.000 10.3 12 1
02/05/06 2:00 a -3.7 -3.6 -3.7 --- --- 0.9 NNW 0.01 2.6 -3.7 --- --- 732.0 0.015 0.000 10.3 12 1
02/05/06 2:01 a -3.7 -3.7 -3.8 --- --- 1.7 NNW 0.03 2.6 -4.7 --- --- 731.8 0.015 0.000 10.3 12 1
02/05/06 2:02 a -3.8 -3.8 -3.9 --- --- 2.6 NNW 0.04 3.5 -5.8 --- --- 731.9 0.015 0.000 10.3 12 1
02/05/06 2:03 a -3.9 -3.9 -4.1 --- --- 2.6 NNW 0.04 3.5 -5.9 --- --- 731.9 0.015 0.000 10.3 12 1
02/05/06 2:04 a -4.1 -4.1 -4.2 --- --- 0.9 NNW 0.01 2.6 -4.1 --- --- 731.9 0.016 0.000 10.3 12 1
02/05/06 2:05 a -4.1 -4.1 -4.2 --- --- 0.9 NNW 0.01 1.7 -4.1 --- --- 731.9 0.016 0.000 10.3 12 1
02/05/06 2:06 a -4.1 -4.1 -4.1 --- --- 1.7 NNW 0.03 1.7 -5.1 --- --- 731.9 0.016 0.000 10.3 12 1
02/05/06 2:07 a -4.1 -4.1 -4.1 --- --- 1.7 NNW 0.03 2.6 -5.1 --- --- 731.9 0.016 0.000 10.3 12 1
02/05/06 2:08 a -4.1 -4.1 -4.2 --- --- 0.9 NNW 0.01 2.6 -4.1 --- --- 731.9 0.016 0.000 10.3 12 1
02/05/06 2:09 a -4.1 -4.1 -4.2 --- --- 0.0 NNW 0.00 0.9 -4.1 --- --- 732.0 0.016 0.000 10.3 12 1
02/05/06 2:10 a -4.0 -3.9 -4.1 --- --- 0.0 --- 0.00 0.0 -4.0 --- --- 731.9 0.016 0.000 10.3 12 1
02/05/06 2:11 a -3.8 -3.8 -3.9 --- --- 0.0 --- 0.00 0.0 -3.8 --- --- 731.9 0.015 0.000 10.3 12 1
02/05/06 2:12 a -3.7 -3.7 -3.7 --- --- 0.0 --- 0.00 0.0 -3.7 --- --- 731.9 0.015 0.000 10.3 12 1
02/05/06 2:13 a -3.6 -3.4 -3.6 --- --- 0.0 --- 0.00 0.0 -3.6 --- --- 731.8 0.015 0.000 10.3 12 1
02/05/06 2:14 a -3.4 -3.3 -3.4 --- --- 0.0 --- 0.00 0.0 -3.4 --- --- 731.8 0.015 0.000 10.3 12 1
02/05/06 2:15 a -3.2 -3.2 -3.3 --- --- 0.0 --- 0.00 0.0 -3.2 --- --- 731.9 0.015 0.000 10.3 12 1
02/05/06 2:16 a -3.1 -3.0 -3.1 --- --- 0.0 --- 0.00 0.0 -3.1 --- --- 731.9 0.015 0.000 10.3 12 1
02/05/06 2:17 a -2.9 -2.9 -2.9 --- --- 0.0 NNW 0.00 0.9 -2.9 --- --- 731.9 0.015 0.000 10.3 12 1
02/05/06 2:18 a -3.0 -2.9 -3.1 --- --- 0.0 NNW 0.00 1.7 -3.0 --- --- 731.9 0.015 0.000 10.3 12 1
02/05/06 2:19 a -3.2 -3.2 -3.2 --- --- 0.0 NNW 0.00 0.9 -3.2 --- --- 731.9 0.015 0.000 10.3 12 1
02/05/06 2:20 a -3.2 -3.2 -3.2 --- --- 0.0 --- 0.00 0.0 -3.2 --- --- 731.9 0.015 0.000 10.3 12 1
02/05/06 2:21 a -3.1 -3.0 -3.2 --- --- 0.0 --- 0.00 0.0 -3.1 --- --- 731.9 0.015 0.000 10.3 12 1
02/05/06 2:22 a -2.9 -2.9 -3.0 --- --- 0.0 --- 0.00 0.0 -2.9 --- --- 731.9 0.015 0.000 10.3 12 1
02/05/06 2:23 a -2.8 -2.7 -2.9 --- --- 0.0 --- 0.00 0.0 -2.8 --- --- 731.9 0.015 0.000 10.3 12 1
02/05/06 2:24 a -2.6 -2.6 -2.7 --- --- 0.0 --- 0.00 0.0 -2.6 --- --- 731.9 0.015 0.000 10.3 12 1
02/05/06 2:25 a -2.6 -2.5 -2.6 --- --- 0.0 --- 0.00 0.0 -2.6 --- --- 731.9 0.015 0.000 10.3 12 1
02/05/06 2:26 a -2.4 -2.4 -2.5 --- --- 0.0 --- 0.00 0.0 -2.4 --- --- 731.8 0.014 0.000 10.3 12 1
02/05/06 2:27 a -2.3 -2.2 -2.4 --- --- 0.0 --- 0.00 0.0 -2.3 --- --- 731.9 0.014 0.000 10.3 12 1
02/05/06 2:28 a -2.2 -2.1 -2.2 --- --- 0.0 --- 0.00 0.0 -2.2 --- --- 731.8 0.014 0.000 10.3 12 1
02/05/06 2:29 a -2.1 -2.1 -2.1 --- --- 0.0 NNW 0.00 0.9 -2.1 --- --- 731.9 0.014 0.000 10.3 12 1
02/05/06 2:30 a -2.1 -2.1 -2.1 --- --- 0.0 --- 0.00 0.0 -2.1 --- --- 731.8 0.014 0.000 10.4 12 1
02/05/06 2:31 a -2.1 -2.1 -2.1 --- --- 0.0 --- 0.00 0.0 -2.1 --- --- 731.8 0.014 0.000 10.3 12 1
02/05/06 2:32 a -2.1 -2.0 -2.1 --- --- 0.0 --- 0.00 0.0 -2.1 --- --- 731.8 0.014 0.000 10.3 12 1
02/05/06 2:33 a -1.9 -1.9 -2.0 --- --- 0.0 --- 0.00 0.0 -1.9 --- --- 731.9 0.014 0.000 10.3 12 1
02/05/06 2:34 a -1.8 -1.8 -1.8 --- --- 0.9 NNW 0.01 1.7 -1.8 --- --- 731.9 0.014 0.000 10.3 12 1
02/05/06 2:35 a -1.8 -1.7 -1.8 --- --- 0.9 NNW 0.01 2.6 -1.8 --- --- 731.8 0.014 0.000 10.3 12 1
02/05/06 2:36 a -1.7 -1.7 -1.8 --- --- 0.0 NNW 0.00 0.9 -1.7 --- --- 731.8 0.014 0.000 10.3 12 1
02/05/06 2:37 a -1.7 -1.7 -1.7 --- --- 0.9 NNW 0.01 1.7 -1.7 --- --- 731.9 0.014 0.000 10.3 12 1
02/05/06 2:38 a -1.6 -1.6 -1.7 --- --- 0.0 NNW 0.00 0.9 -1.6 --- --- 731.9 0.014 0.000 10.3 12 1
02/05/06 2:39 a -1.6 -1.5 -1.6 --- --- 0.9 NNW 0.01 2.6 -1.6 --- --- 731.9 0.014 0.000 10.4 12 1
02/05/06 2:40 a -1.5 -1.4 -1.5 --- --- 0.9 NNW 0.01 1.7 -1.5 --- --- 731.8 0.014 0.000 10.4 12 1
02/05/06 2:41 a -1.4 -1.4 -1.4 --- --- 0.9 NNW 0.01 1.7 -1.4 --- --- 731.8 0.014 0.000 10.4 12 1
02/05/06 2:42 a -1.4 -1.4 -1.4 --- --- 0.9 NNW 0.01 2.6 -1.4 --- --- 731.8 0.014 0.000 10.4 12 1
02/05/06 2:43 a -1.4 -1.4 -1.5 --- --- 0.9 NNW 0.01 2.6 -1.4 --- --- 731.8 0.014 0.000 10.4 12 1
02/05/06 2:44 a -1.4 -1.4 -1.4 --- --- 2.6 ENE 0.04 3.5 -3.1 --- --- 731.8 0.014 0.000 10.4 12 1
02/05/06 2:45 a -1.4 -1.4 -1.4 --- --- 2.6 ENE 0.04 4.3 -3.1 --- --- 731.7 0.014 0.000 10.4 12 1
02/05/06 2:46 a -1.3 -1.3 -1.4 --- --- 2.6 ENE 0.04 3.5 -3.0 --- --- 731.8 0.014 0.000 10.4 12 1
02/05/06 2:47 a -1.4 -1.3 -1.4 --- --- 1.7 ENE 0.03 3.5 -2.1 --- --- 731.7 0.014 0.000 10.4 12 1
02/05/06 2:48 a -1.3 -1.3 -1.3 --- --- 1.7 ENE 0.03 3.5 -2.0 --- --- 731.8 0.014 0.000 10.4 12 1
02/05/06 2:49 a -1.2 -1.1 -1.3 --- --- 2.6 ENE 0.04 3.5 -2.9 --- --- 731.9 0.014 0.000 10.4 12 1
02/05/06 2:50 a -1.1 -1.1 -1.1 --- --- 2.6 ENE 0.04 3.5 -2.7 --- --- 731.7 0.014 0.000 10.4 12 1
02/05/06 2:51 a -1.1 -1.0 -1.1 --- --- 2.6 E 0.04 4.3 -2.7 --- --- 731.7 0.013 0.000 10.4 12 1
02/05/06 2:52 a -0.9 -0.9 -1.0 --- --- 2.6 E 0.04 4.3 -2.6 --- --- 731.8 0.013 0.000 10.4 12 1
02/05/06 2:53 a -1.0 -0.9 -1.0 --- --- 4.3 E 0.07 5.2 -3.9 --- --- 731.8 0.013 0.000 10.4 12 1
02/05/06 2:54 a -1.0 -1.0 -1.0 --- --- 4.3 E 0.07 6.1 -3.9 --- --- 731.8 0.013 0.000 10.4 12 1
02/05/06 2:55 a -1.1 -1.0 -1.1 --- --- 6.1 E 0.10 7.8 -4.9 --- --- 731.7 0.013 0.000 10.4 12 1
02/05/06 2:56 a -1.1 -1.1 -1.1 --- --- 7.0 E 0.12 7.8 -5.3 --- --- 731.8 0.014 0.000 10.4 12 1
02/05/06 2:57 a -1.2 -1.1 -1.3 --- --- 4.3 E 0.07 7.0 -4.1 --- --- 731.8 0.014 0.000 10.4 12 1
02/05/06 2:58 a -1.3 -1.3 -1.4 --- --- 4.3 ESE 0.07 7.0 -4.3 --- --- 731.7 0.014 0.000 10.4 12 1
02/05/06 2:59 a -1.4 -1.4 -1.6 --- --- 7.0 E 0.12 9.6 -5.7 --- --- 731.7 0.014 0.000 10.4 12 1
02/05/06 3:00 a -1.7 -1.6 -1.8 --- --- 8.7 E 0.14 10.4 -6.7 --- --- 731.8 0.014 0.000 10.4 12 1
02/05/06 3:02 a -2.2 -2.1 -2.2 --- --- 7.8 E 0.13 9.6 -6.9 --- --- 731.7 0.014 0.000 10.4 12 1
02/05/06 3:03 a -2.3 -2.2 -2.4 --- --- 7.8 E 0.13 8.7 -7.2 --- --- 731.7 0.014 0.000 10.4 12 1
02/05/06 3:04 a -2.6 -2.5 -2.7 --- --- 7.0 E 0.12 10.4 -7.1 --- --- 731.7 0.015 0.000 10.4 12 1
02/05/06 3:05 a -2.8 -2.8 -2.8 --- --- 7.0 E 0.12 9.6 -7.3 --- --- 731.7 0.015 0.000 10.4 12 1
02/05/06 3:06 a -2.9 -2.8 -2.9 --- --- 8.7 E 0.14 10.4 -8.2 --- --- 731.8 0.015 0.000 10.4 12 1
02/05/06 3:07 a -3.1 -3.0 -3.1 --- --- 8.7 E 0.14 11.3 -8.4 --- --- 731.8 0.015 0.000 10.4 12 1
02/05/06 3:08 a -3.2 -3.2 -3.3 --- --- 7.0 E 0.12 9.6 -7.9 --- --- 731.7 0.015 0.000 10.4 12 1
02/05/06 3:09 a -3.3 -3.3 -3.4 --- --- 7.0 E 0.12 9.6 -8.1 --- --- 731.8 0.015 0.000 10.4 12 1
02/05/06 3:10 a -3.5 -3.4 -3.6 --- --- 7.8 E 0.13 10.4 -8.6 --- --- 731.7 0.015 0.000 10.4 12 1
02/05/06 3:11 a -3.7 -3.7 -3.7 --- --- 7.0 E 0.12 9.6 -8.4 --- --- 731.8 0.015 0.000 10.4 12 1
02/05/06 3:12 a -3.8 -3.7 -3.8 --- --- 7.0 E 0.12 8.7 -8.6 --- --- 731.7 0.015 0.000 10.4 12 1
02/05/06 3:13 a -3.9 -3.8 -3.9 --- --- 7.0 E 0.12 8.7 -8.7 --- --- 731.8 0.015 0.000 10.4 12 1
02/05/06 3:14 a -4.1 -3.9 -4.2 --- --- 7.8 E 0.13 9.6 -9.3 --- --- 731.7 0.016 0.000 10.4 12 1
02/05/06 3:15 a -4.3 -4.2 -4.5 --- --- 7.8 E 0.13 10.4 -9.6 --- --- 731.8 0.016 0.000 10.4 12 1
02/05/06 3:16 a -4.6 -4.5 -4.7 --- --- 7.0 E 0.12 9.6 -9.5 --- --- 731.7 0.016 0.000 10.4 12 1
02/05/06 3:17 a -4.7 -4.7 -4.8 --- --- 7.8 E 0.13 11.3 -10.1 --- --- 731.7 0.016 0.000 10.4 12 1
02/05/06 3:18 a -4.8 -4.7 -4.8 --- --- 8.7 ENE 0.14 9.6 -10.5 --- --- 731.7 0.016 0.000 10.4 12 1
02/05/06 3:19 a -4.8 -4.8 -4.8 --- --- 8.7 ENE 0.14 9.6 -10.5 --- --- 731.8 0.016 0.000 10.4 12 1
02/05/06 3:20 a -4.8 -4.8 -4.8 --- --- 8.7 ENE 0.14 9.6 -10.5 --- --- 731.8 0.016 0.000 10.4 12 1
02/05/06 3:21 a -4.8 -4.8 -4.8 --- --- 7.8 ENE 0.13 8.7 -10.2 --- --- 731.8 0.016 0.000 10.4 12 1
02/05/06 3:22 a -4.7 -4.7 -4.8 --- --- 8.7 ENE 0.14 9.6 -10.4 --- --- 731.8 0.016 0.000 10.4 12 1
02/05/06 3:23 a -4.7 -4.7 -4.7 --- --- 8.7 ENE 0.14 9.6 -10.4 --- --- 731.9 0.016 0.000 10.4 12 1
02/05/06 3:24 a -4.7 -4.7 -4.7 --- --- 7.0 ENE 0.12 8.7 -9.7 --- --- 731.8 0.016 0.000 10.4 12 1
02/05/06 3:25 a -4.7 -4.7 -4.7 --- --- 7.8 ENE 0.13 8.7 -10.1 --- --- 731.8 0.016 0.000 10.4 11 1
02/05/06 3:26 a -4.7 -4.7 -4.7 --- --- 7.8 ENE 0.13 8.7 -10.1 --- --- 731.9 0.016 0.000 10.4 11 1
02/05/06 3:27 a -4.7 -4.7 -4.7 --- --- 7.8 ENE 0.13 8.7 -10.1 --- --- 731.8 0.016 0.000 10.4 11 1
02/05/06 3:28 a -4.7 -4.7 -4.7 --- --- 8.7 NE 0.14 9.6 -10.4 --- --- 731.7 0.016 0.000 10.4 11 1
02/05/06 3:29 a -4.7 -4.7 -4.8 --- --- 7.0 NE 0.12 8.7 -9.7 --- --- 731.7 0.016 0.000 10.4 12 1
02/05/06 3:30 a -4.8 -4.7 -4.8 --- --- 7.8 NE 0.13 8.7 -10.2 --- --- 731.8 0.016 0.000 10.4 11 1
02/05/06 3:31 a -4.8 -4.8 -4.8 --- --- 8.7 NE 0.14 9.6 -10.5 --- --- 731.7 0.016 0.000 10.4 11 1
02/05/06 3:32 a -4.8 -4.8 -4.8 --- --- 8.7 NE 0.14 9.6 -10.5 --- --- 731.7 0.016 0.000 10.4 12 1
02/05/06 3:33 a -4.8 -4.8 -4.8 --- --- 7.8 ENE 0.13 8.7 -10.2 --- --- 731.7 0.016 0.000 10.4 12 1
02/05/06 3:34 a -4.8 -4.8 -4.8 --- --- 7.0 ENE 0.12 8.7 -9.8 --- --- 731.7 0.016 0.000 10.4 11 1
02/05/06 3:35 a -4.8 -4.8 -4.8 --- --- 8.7 ENE 0.14 10.4 -10.6 --- --- 731.7 0.016 0.000 10.4 11 1
02/05/06 3:36 a -4.9 -4.9 -4.9 --- --- 9.6 NE 0.16 10.4 -11.0 --- --- 731.7 0.016 0.000 10.4 11 1
02/05/06 3:37 a -5.1 -4.9 -5.1 --- --- 8.7 NE 0.14 9.6 -10.9 --- --- 731.7 0.016 0.000 10.4 11 1
02/05/06 3:38 a -5.1 -5.1 -5.2 --- --- 9.6 NE 0.16 10.4 -11.3 --- --- 731.8 0.016 0.000 10.4 11 1
02/05/06 3:39 a -5.2 -5.2 -5.2 --- --- 9.6 NE 0.16 10.4 -11.3 --- --- 731.7 0.016 0.000 10.4 11 1
02/05/06 3:40 a -5.2 -5.2 -5.2 --- --- 10.4 NE 0.17 11.3 -11.6 --- --- 731.8 0.016 0.000 10.4 11 1
02/05/06 3:41 a -5.2 -5.2 -5.2 --- --- 9.6 NE 0.16 9.6 -11.4 --- --- 731.7 0.016 0.000 10.4 11 1
02/05/06 3:42 a -5.2 -5.2 -5.2 --- --- 9.6 NE 0.16 10.4 -11.4 --- --- 731.7 0.016 0.000 10.4 11 1
02/05/06 3:43 a -5.2 -5.2 -5.2 --- --- 9.6 NE 0.16 11.3 -11.4 --- --- 731.8 0.016 0.000 10.4 11 1
02/05/06 3:44 a -5.2 -5.2 -5.3 --- --- 10.4 NE 0.17 11.3 -11.7 --- --- 731.7 0.016 0.000 10.4 11 1
02/05/06 3:45 a -5.3 -5.2 -5.3 --- --- 10.4 NE 0.17 11.3 -11.8 --- --- 731.7 0.016 0.000 10.4 11 1
02/05/06 3:46 a -5.2 -5.2 -5.2 --- --- 9.6 NE 0.16 10.4 -11.4 --- --- 731.8 0.016 0.000 10.4 11 1
02/05/06 3:47 a -5.2 -5.2 -5.2 --- --- 10.4 NE 0.17 11.3 -11.6 --- --- 731.7 0.016 0.000 10.4 11 1
02/05/06 3:48 a -5.2 -5.2 -5.2 --- --- 10.4 NE 0.17 11.3 -11.6 --- --- 731.7 0.016 0.000 10.4 11 1
02/05/06 3:49 a -5.2 -5.2 -5.2 --- --- 10.4 NE 0.17 11.3 -11.6 --- --- 731.7 0.016 0.000 10.4 11 1
02/05/06 3:50 a -5.3 -5.2 -5.3 --- --- 10.4 NE 0.17 12.2 -11.8 --- --- 731.7 0.016 0.000 10.4 11 1
02/05/06 3:51 a -5.3 -5.3 -5.3 --- --- 10.4 NE 0.17 11.3 -11.8 --- --- 731.6 0.016 0.000 10.4 11 1
02/05/06 3:52 a -5.3 -5.3 -5.3 --- --- 10.4 NE 0.17 11.3 -11.8 --- --- 731.7 0.016 0.000 10.4 11 1
02/05/06 3:53 a -5.3 -5.3 -5.3 --- --- 10.4 NE 0.17 11.3 -11.8 --- --- 731.6 0.016 0.000 10.4 11 1
02/05/06 3:54 a -5.3 -5.3 -5.4 --- --- 10.4 NE 0.17 11.3 -11.8 --- --- 731.7 0.016 0.000 10.4 11 1
02/05/06 3:55 a -5.4 -5.4 -5.4 --- --- 10.4 ENE 0.17 11.3 -11.9 --- --- 731.7 0.016 0.000 10.4 11 1
02/05/06 3:56 a -5.4 -5.4 -5.4 --- --- 11.3 ENE 0.19 12.2 -12.2 --- --- 731.7 0.017 0.000 10.4 11 1
02/05/06 3:57 a -5.4 -5.4 -5.4 --- --- 11.3 ENE 0.19 13.0 -12.2 --- --- 731.7 0.017 0.000 10.4 11 1
02/05/06 3:58 a -5.4 -5.4 -5.5 --- --- 12.2 ENE 0.20 13.9 -12.5 --- --- 731.6 0.017 0.000 10.4 11 1
02/05/06 3:59 a -5.6 -5.5 -5.6 --- --- 12.2 ENE 0.20 13.9 -12.7 --- --- 731.6 0.017 0.000 10.4 11 1
02/05/06 4:00 a -5.7 -5.7 -5.7 --- --- 12.2 ENE 0.20 13.9 -12.8 --- --- 731.6 0.017 0.000 10.4 11 1
02/05/06 4:02 a -5.8 -5.8 -5.8 --- --- 13.0 ENE 0.22 13.9 -13.3 --- --- 731.6 0.017 0.000 10.4 11 1
02/05/06 4:03 a -5.8 -5.8 -5.8 --- --- 13.0 ENE 0.22 13.9 -13.3 --- --- 731.6 0.017 0.000 10.4 11 1
02/05/06 4:04 a -5.8 -5.8 -5.9 --- --- 13.0 ENE 0.22 13.0 -13.3 --- --- 731.7 0.017 0.000 10.4 11 1
02/05/06 4:05 a -5.8 -5.8 -5.8 --- --- 13.0 ENE 0.22 13.9 -13.3 --- --- 731.7 0.017 0.000 10.4 11 1
02/05/06 4:06 a -5.8 -5.8 -5.9 --- --- 13.0 ENE 0.22 13.9 -13.3 --- --- 731.6 0.017 0.000 10.4 11 1
02/05/06 4:07 a -5.9 -5.9 -5.9 --- --- 13.0 ENE 0.22 13.9 -13.3 --- --- 731.6 0.017 0.000 10.4 11 1
02/05/06 4:08 a -5.9 -5.9 -6.0 --- --- 13.0 ENE 0.22 14.8 -13.4 --- --- 731.7 0.017 0.000 10.4 11 1
02/05/06 4:09 a -6.0 -6.0 -6.1 --- --- 13.0 ENE 0.22 14.8 -13.4 --- --- 731.6 0.017 0.000 10.4 11 1
02/05/06 4:10 a -6.1 -6.1 -6.1 --- --- 12.2 ENE 0.20 13.0 -13.3 --- --- 731.7 0.017 0.000 10.4 11 1
02/05/06 4:11 a -6.2 -6.1 -6.2 --- --- 13.0 ENE 0.22 13.9 -13.7 --- --- 731.7 0.017 0.000 10.4 11 1
02/05/06 4:12 a -6.2 -6.2 -6.2 --- --- 12.2 ENE 0.20 13.0 -13.4 --- --- 731.7 0.017 0.000 10.4 11 1
02/05/06 4:13 a -6.2 -6.2 -6.2 --- --- 12.2 NE 0.20 13.0 -13.4 --- --- 731.6 0.017 0.000 10.4 11 1
02/05/06 4:14 a -6.2 -6.2 -6.2 --- --- 12.2 NE 0.20 13.0 -13.5 --- --- 731.7 0.017 0.000 10.4 11 1
02/05/06 4:15 a -6.2 -6.2 -6.3 --- --- 12.2 NE 0.20 13.9 -13.5 --- --- 731.6 0.017 0.000 10.4 11 1
02/05/06 4:16 a -6.3 -6.3 -6.3 --- --- 12.2 NE 0.20 13.0 -13.6 --- --- 731.7 0.017 0.000 10.4 11 1
02/05/06 4:17 a -6.4 -6.4 -6.4 --- --- 11.3 NE 0.19 12.2 -13.4 --- --- 731.6 0.017 0.000 10.4 11 1
02/05/06 4:18 a -6.4 -6.4 -6.4 --- --- 10.4 NE 0.17 11.3 -13.2 --- --- 731.7 0.017 0.000 10.4 11 1
02/05/06 4:19 a -6.5 -6.4 -6.6 --- --- 11.3 NE 0.19 13.0 -13.6 --- --- 731.7 0.017 0.000 10.4 11 1
02/05/06 4:20 a -6.6 -6.5 -6.6 --- --- 11.3 NE 0.19 12.2 -13.7 --- --- 731.6 0.017 0.000 10.4 11 1
02/05/06 4:21 a -6.5 -6.5 -6.6 --- --- 12.2 NE 0.20 13.0 -13.8 --- --- 731.6 0.017 0.000 10.4 11 1
02/05/06 4:22 a -6.5 -6.5 -6.5 --- --- 13.0 NE 0.22 13.9 -14.1 --- --- 731.6 0.017 0.000 10.4 11 1
02/05/06 4:23 a -6.5 -6.4 -6.5 --- --- 13.0 NE 0.22 14.8 -14.1 --- --- 731.6 0.017 0.000 10.4 11 1
02/05/06 4:24 a -6.5 -6.5 -6.5 --- --- 13.0 NE 0.22 14.8 -14.1 --- --- 731.7 0.017 0.000 10.4 11 1
02/05/06 4:25 a -6.4 -6.4 -6.5 --- --- 13.9 NE 0.23 16.5 -14.3 --- --- 731.7 0.017 0.000 10.4 11 1
02/05/06 4:26 a -6.4 -6.4 -6.4 --- --- 15.7 NE 0.26 16.5 -14.7 --- --- 731.7 0.017 0.000 10.4 11 1
02/05/06 4:27 a -6.5 -6.4 -6.5 --- --- 14.8 NE 0.25 15.7 -14.6 --- --- 731.7 0.017 0.000 10.4 11 1
02/05/06 4:28 a -6.5 -6.4 -6.5 --- --- 14.8 ENE 0.25 14.8 -14.6 --- --- 731.7 0.017 0.000 10.4 11 1
02/05/06 4:29 a -6.5 -6.5 -6.5 --- --- 14.8 ENE 0.25 15.7 -14.6 --- --- 731.6 0.017 0.000 10.4 11 1
02/05/06 4:30 a -6.5 -6.5 -6.6 --- --- 15.7 NE 0.26 16.5 -14.8 --- --- 731.7 0.017 0.000 10.4 11 1
02/05/06 4:31 a -6.6 -6.6 -6.6 --- --- 14.8 NE 0.25 16.5 -14.7 --- --- 731.6 0.017 0.000 10.4 11 1
02/05/06 4:32 a -6.7 -6.6 -6.7 --- --- 13.9 NE 0.23 14.8 -14.6 --- --- 731.7 0.017 0.000 10.4 11 1
02/05/06 4:33 a -6.7 -6.7 -6.7 --- --- 14.8 NE 0.25 16.5 -14.9 --- --- 731.7 0.017 0.000 10.4 11 1
02/05/06 4:34 a -6.8 -6.7 -6.8 --- --- 13.9 NE 0.23 14.8 -14.7 --- --- 731.7 0.017 0.000 10.4 11 1
02/05/06 4:35 a -6.8 -6.8 -6.8 --- --- 12.2 NE 0.20 13.9 -14.3 --- --- 731.7 0.017 0.000 10.4 11 1
02/05/06 4:36 a -6.8 -6.8 -6.8 --- --- 14.8 NE 0.25 16.5 -15.0 --- --- 731.7 0.017 0.000 10.4 11 1
02/05/06 4:37 a -6.8 -6.8 -6.9 --- --- 13.9 NE 0.23 14.8 -14.8 --- --- 731.8 0.017 0.000 10.4 11 1
02/05/06 4:38 a -6.9 -6.9 -6.9 --- --- 13.9 NE 0.23 17.4 -14.9 --- --- 731.7 0.018 0.000 10.4 11 1
02/05/06 4:39 a -6.9 -6.9 -7.0 --- --- 16.5 NE 0.28 18.3 -15.6 --- --- 731.7 0.018 0.000 10.4 11 1
02/05/06 4:40 a -7.1 -7.1 -7.2 --- --- 14.8 NE 0.25 15.7 -15.4 --- --- 731.7 0.018 0.000 10.4 11 1
02/05/06 4:41 a -7.2 -7.2 -7.2 --- --- 13.0 ENE 0.22 15.7 -14.9 --- --- 731.7 0.018 0.000 10.4 10 1
02/05/06 4:42 a -7.2 -7.1 -7.2 --- --- 16.5 NE 0.28 17.4 -15.9 --- --- 731.7 0.018 0.000 10.3 11 1
02/05/06 4:43 a -7.3 -7.2 -7.3 --- --- 15.7 NE 0.26 16.5 -15.8 --- --- 731.9 0.018 0.000 10.4 11 1
02/05/06 4:44 a -7.3 -7.3 -7.3 --- --- 13.9 ENE 0.23 16.5 -15.4 --- --- 731.8 0.018 0.000 10.4 10 1
02/05/06 4:45 a -7.3 -7.3 -7.3 --- --- 13.0 ENE 0.22 13.9 -15.2 --- --- 731.8 0.018 0.000 10.4 10 1
02/05/06 4:46 a -7.3 -7.3 -7.4 --- --- 14.8 NE 0.25 17.4 -15.7 --- --- 731.7 0.018 0.000 10.4 10 1
02/05/06 4:47 a -7.4 -7.4 -7.5 --- --- 15.7 NE 0.26 17.4 -16.0 --- --- 731.8 0.018 0.000 10.3 10 1
02/05/06 4:48 a -7.5 -7.5 -7.5 --- --- 14.8 ENE 0.25 17.4 -15.9 --- --- 731.7 0.018 0.000 10.3 10 1
02/05/06 4:49 a -7.5 -7.5 -7.5 --- --- 14.8 NE 0.25 16.5 -15.9 --- --- 731.8 0.018 0.000 10.3 10 1
02/05/06 4:50 a -7.5 -7.5 -7.6 --- --- 14.8 NE 0.25 16.5 -15.9 --- --- 731.7 0.018 0.000 10.3 10 1
02/05/06 4:51 a -7.6 -7.6 -7.6 --- --- 15.7 ENE 0.26 16.5 -16.2 --- --- 731.8 0.018 0.000 10.3 10 1
02/05/06 4:52 a -7.6 -7.6 -7.6 --- --- 14.8 NE 0.25 16.5 -15.9 --- --- 731.8 0.018 0.000 10.3 10 1
02/05/06 4:53 a -7.6 -7.6 -7.7 --- --- 15.7 NE 0.26 16.5 -16.2 --- --- 731.8 0.018 0.000 10.3 10 1
02/05/06 4:54 a -7.7 -7.7 -7.7 --- --- 14.8 NE 0.25 16.5 -16.1 --- --- 731.8 0.018 0.000 10.3 10 1
02/05/06 4:55 a -7.7 -7.7 -7.7 --- --- 14.8 NE 0.25 16.5 -16.1 --- --- 731.9 0.018 0.000 10.3 10 1
02/05/06 4:56 a -7.7 -7.7 -7.7 --- --- 13.9 NE 0.23 14.8 -15.8 --- --- 731.8 0.018 0.000 10.3 10 1
02/05/06 4:57 a -7.7 -7.7 -7.7 --- --- 14.8 NE 0.25 16.5 -16.2 --- --- 731.9 0.018 0.000 10.3 10 1
02/05/06 4:58 a -7.7 -7.7 -7.8 --- --- 15.7 NE 0.26 16.5 -16.4 --- --- 731.7 0.018 0.000 10.3 10 1
02/05/06 4:59 a -7.8 -7.8 -7.8 --- --- 15.7 NE 0.26 17.4 -16.4 --- --- 731.8 0.018 0.000 10.3 10 1
02/05/06 5:00 a -7.8 -7.8 -7.8 --- --- 16.5 ENE 0.28 18.3 -16.7 --- --- 731.8 0.018 0.000 10.3 10 1
02/05/06 5:02 a -7.7 -7.7 -7.8 --- --- 15.7 ENE 0.26 17.4 -16.4 --- --- 731.8 0.018 0.000 10.3 10 1
02/05/06 5:03 a -7.7 -7.7 -7.8 --- --- 14.8 ENE 0.25 16.5 -16.2 --- --- 731.7 0.018 0.000 10.3 10 1
02/05/06 5:04 a -7.7 -7.7 -7.7 --- --- 14.8 ENE 0.25 17.4 -16.1 --- --- 731.8 0.018 0.000 10.3 10 1
02/05/06 5:05 a -7.6 -7.6 -7.7 --- --- 15.7 NE 0.26 16.5 -16.2 --- --- 731.8 0.018 0.000 10.3 10 1
02/05/06 5:06 a -7.5 -7.5 -7.6 --- --- 14.8 ENE 0.25 15.7 -15.9 --- --- 731.8 0.018 0.000 10.3 10 1
02/05/06 5:07 a -7.4 -7.4 -7.5 --- --- 14.8 ENE 0.25 16.5 -15.8 --- --- 731.9 0.018 0.000 10.3 10 1
02/05/06 5:08 a -7.3 -7.3 -7.4 --- --- 13.9 ENE 0.23 15.7 -15.4 --- --- 731.9 0.018 0.000 10.3 10 1
02/05/06 5:09 a -7.3 -7.3 -7.3 --- --- 14.8 ENE 0.25 16.5 -15.7 --- --- 731.8 0.018 0.000 10.2 10 1
02/05/06 5:10 a -7.3 -7.2 -7.3 --- --- 15.7 ENE 0.26 16.5 -15.8 --- --- 731.8 0.018 0.000 10.2 10 1
02/05/06 5:11 a -7.1 -6.8 -7.2 --- --- 15.7 ENE 0.26 17.4 -15.5 --- --- 731.8 0.018 0.000 10.3 10 1
02/05/06 5:12 a -6.6 -6.2 -6.8 --- --- 14.8 ENE 0.25 16.5 -14.7 --- --- 731.9 0.017 0.000 10.3 10 1
02/05/06 5:13 a -6.0 -5.9 -6.2 --- --- 14.8 ENE 0.25 15.7 -13.9 --- --- 731.9 0.017 0.000 10.3 10 1
02/05/06 5:14 a -5.9 -5.9 -6.0 --- --- 13.9 ENE 0.23 15.7 -13.6 --- --- 731.9 0.017 0.000 10.3 10 1
02/05/06 5:15 a -6.1 -6.0 -6.2 --- --- 14.8 ENE 0.25 16.5 -14.0 --- --- 731.8 0.017 0.000 10.3 10 1
02/05/06 5:16 a -6.2 -6.2 -6.3 --- --- 14.8 ENE 0.25 15.7 -14.2 --- --- 731.9 0.017 0.000 10.3 10 1
02/05/06 5:17 a -6.4 -6.3 -6.6 --- --- 14.8 ENE 0.25 16.5 -14.4 --- --- 731.9 0.017 0.000 10.3 10 1
02/05/06 5:18 a -6.6 -6.6 -6.6 --- --- 14.8 ENE 0.25 16.5 -14.7 --- --- 731.7 0.017 0.000 10.3 10 1
02/05/06 5:19 a -6.6 -6.6 -6.6 --- --- 15.7 ENE 0.26 17.4 -14.9 --- --- 731.7 0.017 0.000 10.3 10 1
02/05/06 5:20 a -6.6 -6.6 -6.6 --- --- 16.5 ENE 0.28 18.3 -15.1 --- --- 731.7 0.017 0.000 10.3 10 1
02/05/06 5:21 a -6.7 -6.6 -6.7 --- --- 16.5 ENE 0.28 18.3 -15.2 --- --- 731.8 0.017 0.000 10.3 10 1
02/05/06 5:22 a -6.7 -6.7 -6.7 --- --- 15.7 ENE 0.26 17.4 -15.1 --- --- 731.9 0.017 0.000 10.3 10 1
02/05/06 5:23 a -6.7 -6.7 -6.7 --- --- 14.8 ENE 0.25 17.4 -14.9 --- --- 731.9 0.017 0.000 10.3 10 1
02/05/06 5:24 a -6.7 -6.7 -6.7 --- --- 15.7 ENE 0.26 17.4 -15.0 --- --- 731.9 0.017 0.000 10.3 10 1
02/05/06 5:25 a -6.7 -6.7 -6.8 --- --- 16.5 ENE 0.28 19.1 -15.3 --- --- 731.9 0.017 0.000 10.3 10 1
02/05/06 5:26 a -6.8 -6.8 -6.8 --- --- 17.4 ENE 0.29 19.1 -15.6 --- --- 731.9 0.017 0.000 10.3 10 1
02/05/06 5:27 a -6.8 -6.8 -6.9 --- --- 15.7 ENE 0.26 16.5 -15.2 --- --- 731.9 0.017 0.000 10.3 10 1
02/05/06 5:28 a -6.8 -6.8 -6.9 --- --- 16.5 ENE 0.28 18.3 -15.4 --- --- 731.8 0.017 0.000 10.3 10 1
02/05/06 5:29 a -6.9 -6.9 -7.0 --- --- 16.5 ENE 0.28 18.3 -15.6 --- --- 731.8 0.018 0.000 10.3 10 1
02/05/06 5:30 a -7.0 -7.0 -7.0 --- --- 15.7 ENE 0.26 17.4 -15.4 --- --- 731.8 0.018 0.000 10.3 10 1
02/05/06 5:31 a -6.9 -6.8 -6.9 --- --- 15.7 ENE 0.26 18.3 -15.3 --- --- 731.7 0.018 0.000 10.3 10 1
02/05/06 5:32 a -6.8 -6.8 -6.9 --- --- 15.7 E 0.26 18.3 -15.2 --- --- 731.9 0.017 0.000 10.3 10 1
02/05/06 5:33 a -6.9 -6.9 -7.0 --- --- 14.8 ENE 0.25 17.4 -15.2 --- --- 731.8 0.018 0.000 10.3 10 1
02/05/06 5:34 a -7.1 -7.1 -7.1 --- --- 13.9 ENE 0.23 16.5 -15.1 --- --- 731.8 0.018 0.000 10.3 10 1
02/05/06 5:35 a -7.1 -7.1 -7.1 --- --- 15.7 ENE 0.26 17.4 -15.5 --- --- 731.8 0.018 0.000 10.3 10 1
02/05/06 5:36 a -7.1 -7.1 -7.1 --- --- 16.5 ENE 0.28 18.3 -15.8 --- --- 731.9 0.018 0.000 10.3 10 1
02/05/06 5:37 a -7.2 -7.1 -7.2 --- --- 15.7 ENE 0.26 18.3 -15.7 --- --- 731.9 0.018 0.000 10.3 10 1
02/05/06 5:38 a -7.2 -7.1 -7.2 --- --- 16.5 ENE 0.28 18.3 -15.9 --- --- 731.9 0.018 0.000 10.3 9 1
02/05/06 5:39 a -7.1 -7.1 -7.1 --- --- 16.5 ENE 0.28 18.3 -15.8 --- --- 731.9 0.018 0.000 10.3 10 1
02/05/06 5:40 a -7.0 -7.0 -7.0 --- --- 16.5 ENE 0.28 18.3 -15.7 --- --- 731.9 0.018 0.000 10.3 10 1
02/05/06 5:41 a -7.0 -7.0 -7.0 --- --- 17.4 ENE 0.29 19.1 -15.8 --- --- 732.0 0.018 0.000 10.3 9 1
02/05/06 5:42 a -7.0 -7.0 -7.1 --- --- 16.5 ENE 0.28 18.3 -15.7 --- --- 731.9 0.018 0.000 10.3 10 1
02/05/06 5:43 a -7.1 -7.0 -7.1 --- --- 13.9 ENE 0.23 16.5 -15.1 --- --- 732.0 0.018 0.000 10.3 9 1
02/05/06 5:44 a -7.1 -7.0 -7.1 --- --- 17.4 ENE 0.29 19.1 -15.9 --- --- 732.0 0.018 0.000 10.3 9 1
02/05/06 5:45 a -7.1 -7.1 -7.2 --- --- 18.3 ENE 0.30 19.1 -16.2 --- --- 731.9 0.018 0.000 10.3 9 1
02/05/06 5:46 a -7.2 -7.2 -7.2 --- --- 18.3 ENE 0.30 19.1 -16.3 --- --- 732.0 0.018 0.000 10.3 9 1
02/05/06 5:47 a -7.3 -7.2 -7.3 --- --- 16.5 ENE 0.28 18.3 -16.0 --- --- 731.9 0.018 0.000 10.3 9 1
02/05/06 5:48 a -7.2 -7.2 -7.3 --- --- 17.4 ENE 0.29 18.3 -16.2 --- --- 731.9 0.018 0.000 10.3 9 1
02/05/06 5:49 a -7.3 -7.3 -7.3 --- --- 18.3 ENE 0.30 20.0 -16.4 --- --- 731.9 0.018 0.000 10.3 9 1
02/05/06 5:50 a -7.4 -7.3 -7.4 --- --- 18.3 ENE 0.30 20.0 -16.6 --- --- 732.0 0.018 0.000 10.3 9 1
02/05/06 5:51 a -7.4 -7.4 -7.4 --- --- 16.5 ENE 0.28 19.1 -16.2 --- --- 731.9 0.018 0.000 10.2 9 1
02/05/06 5:52 a -7.4 -7.4 -7.4 --- --- 18.3 ENE 0.30 20.0 -16.6 --- --- 731.9 0.018 0.000 10.2 9 1
02/05/06 5:53 a -7.4 -7.4 -7.4 --- --- 19.1 ENE 0.32 20.9 -16.8 --- --- 731.9 0.018 0.000 10.3 9 1
02/05/06 5:54 a -7.4 -7.4 -7.4 --- --- 18.3 ENE 0.30 20.0 -16.6 --- --- 732.0 0.018 0.000 10.3 9 1
02/05/06 5:55 a -7.4 -7.4 -7.4 --- --- 14.8 ENE 0.25 16.5 -15.8 --- --- 732.0 0.018 0.000 10.3 9 1
02/05/06 5:56 a -7.4 -7.4 -7.4 --- --- 15.7 ENE 0.26 19.1 -15.9 --- --- 731.9 0.018 0.000 10.2 9 1
02/05/06 5:57 a -7.5 -7.5 -7.6 --- --- 17.4 ENE 0.29 19.1 -16.5 --- --- 731.9 0.018 0.000 10.2 9 1
02/05/06 5:58 a -7.6 -7.6 -7.7 --- --- 17.4 ENE 0.29 20.0 -16.7 --- --- 731.8 0.018 0.000 10.2 9 1
02/05/06 5:59 a -7.7 -7.7 -7.7 --- --- 17.4 ENE 0.29 19.1 -16.7 --- --- 732.0 0.018 0.000 10.2 9 1
02/05/06 6:00 a -7.7 -7.7 -7.7 --- --- 15.7 ENE 0.26 19.1 -16.3 --- --- 731.9 0.018 0.000 10.2 9 1
02/05/06 6:01 a -7.7 -7.7 -7.8 --- --- 18.3 ENE 0.30 20.0 -17.0 --- --- 731.9 0.018 0.000 10.2 9 1
02/05/06 6:02 a -7.8 -7.7 -7.8 --- --- 17.4 ENE 0.29 19.1 -16.9 --- --- 732.0 0.018 0.000 10.2 9 1
02/05/06 6:03 a -7.8 -7.8 -7.8 --- --- 17.4 ENE 0.29 19.1 -16.9 --- --- 732.0 0.018 0.000 10.2 9 1
02/05/06 6:04 a -7.8 -7.8 -7.8 --- --- 16.5 ENE 0.28 18.3 -16.7 --- --- 732.0 0.018 0.000 10.2 9 1
02/05/06 6:05 a -7.8 -7.8 -7.8 --- --- 17.4 ENE 0.29 19.1 -16.9 --- --- 731.9 0.018 0.000 10.2 9 1
02/05/06 6:06 a -7.9 -7.8 -7.9 --- --- 17.4 ENE 0.29 20.0 -17.0 --- --- 732.0 0.018 0.000 10.2 9 1
02/05/06 6:07 a -7.8 -7.8 -7.9 --- --- 17.4 ENE 0.29 20.0 -16.9 --- --- 731.9 0.018 0.000 10.2 9 1
02/05/06 6:08 a -7.9 -7.9 -7.9 --- --- 16.5 ENE 0.28 19.1 -16.8 --- --- 732.0 0.018 0.000 10.2 9 1
02/05/06 6:09 a -7.9 -7.8 -7.9 --- --- 15.7 ENE 0.26 18.3 -16.6 --- --- 732.0 0.018 0.000 10.2 9 1
02/05/06 6:10 a -7.8 -7.8 -7.8 --- --- 16.5 ENE 0.28 19.1 -16.7 --- --- 732.0 0.018 0.000 10.2 9 1
02/05/06 6:11 a -7.8 -7.8 -7.8 --- --- 15.7 ENE 0.26 18.3 -16.4 --- --- 732.0 0.018 0.000 10.1 9 1
02/05/06 6:12 a -7.8 -7.8 -7.8 --- --- 17.4 ENE 0.29 18.3 -16.9 --- --- 731.9 0.018 0.000 10.1 9 1
02/05/06 6:13 a -7.8 -7.8 -7.8 --- --- 17.4 ENE 0.29 19.1 -16.9 --- --- 731.9 0.018 0.000 10.2 9 1
02/05/06 6:14 a -7.8 -7.8 -7.8 --- --- 17.4 ENE 0.29 19.1 -16.9 --- --- 731.9 0.018 0.000 10.2 9 1
02/05/06 6:15 a -7.8 -7.8 -7.8 --- --- 15.7 E 0.26 19.1 -16.6 --- --- 732.0 0.018 0.000 10.2 9 1
02/05/06 6:16 a -7.8 -7.8 -7.9 --- --- 17.4 ENE 0.29 19.1 -16.9 --- --- 732.0 0.018 0.000 10.2 9 1
02/05/06 6:17 a -7.9 -7.9 -7.9 --- --- 16.5 ENE 0.28 18.3 -16.8 --- --- 732.0 0.018 0.000 10.2 9 1
02/05/06 6:18 a -7.9 -7.9 -7.9 --- --- 15.7 ENE 0.26 18.3 -16.6 --- --- 732.0 0.018 0.000 10.2 9 1
02/05/06 6:19 a -7.9 -7.9 -7.9 --- --- 14.8 E 0.25 18.3 -16.4 --- --- 732.0 0.018 0.000 10.1 9 1
02/05/06 6:20 a -8.0 -7.9 -8.0 --- --- 16.5 E 0.28 20.0 -16.9 --- --- 732.0 0.018 0.000 10.1 9 1
02/05/06 6:21 a -8.1 -8.0 -8.1 --- --- 16.5 ENE 0.28 18.3 -17.1 --- --- 732.0 0.018 0.000 10.1 9 1
02/05/06 6:22 a -8.1 -8.1 -8.1 --- --- 14.8 ENE 0.25 18.3 -16.6 --- --- 732.0 0.018 0.000 10.1 9 1
02/05/06 6:23 a -8.1 -8.1 -8.1 --- --- 16.5 ENE 0.28 18.3 -17.1 --- --- 732.0 0.018 0.000 10.1 9 1
02/05/06 6:24 a -8.1 -8.1 -8.1 --- --- 16.5 ENE 0.28 18.3 -17.1 --- --- 732.0 0.018 0.000 10.1 9 1
02/05/06 6:25 a -8.1 -8.1 -8.1 --- --- 16.5 ENE 0.28 19.1 -17.1 --- --- 731.9 0.018 0.000 10.1 9 1
02/05/06 6:26 a -8.1 -8.1 -8.1 --- --- 18.3 ENE 0.30 20.0 -17.5 --- --- 732.0 0.018 0.000 10.1 9 1
02/05/06 6:27 a -8.1 -8.1 -8.2 --- --- 17.4 ENE 0.29 19.1 -17.3 --- --- 732.1 0.018 0.000 10.1 9 1
02/05/06 6:28 a -8.2 -8.2 -8.2 --- --- 16.5 ENE 0.28 19.1 -17.2 --- --- 732.0 0.018 0.000 10.1 9 1
02/05/06 6:29 a -8.2 -8.1 -8.2 --- --- 15.7 ENE 0.26 19.1 -16.9 --- --- 732.0 0.018 0.000 10.1 9 1
02/05/06 6:30 a -8.2 -8.1 -8.2 --- --- 16.5 ENE 0.28 18.3 -17.2 --- --- 731.9 0.018 0.000 10.1 9 1
02/05/06 6:31 a -8.2 -8.2 -8.3 --- --- 16.5 ENE 0.28 20.0 -17.3 --- --- 732.0 0.018 0.000 10.1 9 1
02/05/06 6:32 a -8.3 -8.3 -8.4 --- --- 16.5 E 0.28 20.0 -17.4 --- --- 732.0 0.019 0.000 10.1 9 1
02/05/06 6:33 a -8.4 -8.4 -8.4 --- --- 15.7 E 0.26 19.1 -17.3 --- --- 732.0 0.019 0.000 10.1 9 1
02/05/06 6:34 a -8.4 -8.4 -8.4 --- --- 14.8 E 0.25 18.3 -17.1 --- --- 732.1 0.019 0.000 10.1 9 1
02/05/06 6:35 a -8.4 -8.4 -8.4 --- --- 16.5 ENE 0.28 19.1 -17.4 --- --- 732.1 0.019 0.000 10.1 9 1
02/05/06 6:36 a -8.4 -8.4 -8.4 --- --- 15.7 E 0.26 19.1 -17.3 --- --- 732.0 0.019 0.000 10.0 9 1
02/05/06 6:37 a -8.4 -8.4 -8.4 --- --- 15.7 E 0.26 18.3 -17.3 --- --- 732.1 0.019 0.000 10.1 9 1
02/05/06 6:38 a -8.4 -8.4 -8.4 --- --- 15.7 E 0.26 18.3 -17.3 --- --- 732.0 0.019 0.000 10.0 9 1
02/05/06 6:39 a -8.4 -8.4 -8.4 --- --- 16.5 ENE 0.28 20.0 -17.4 --- --- 732.1 0.019 0.000 10.0 9 1
02/05/06 6:40 a -8.3 -8.3 -8.4 --- --- 18.3 ENE 0.30 21.7 -17.8 --- --- 732.0 0.019 0.000 10.0 9 1
02/05/06 6:41 a -8.4 -8.4 -8.4 --- --- 16.5 E 0.28 19.1 -17.4 --- --- 732.1 0.019 0.000 10.0 9 1
02/05/06 6:42 a -8.4 -8.4 -8.4 --- --- 16.5 ENE 0.28 20.0 -17.4 --- --- 732.1 0.019 0.000 10.0 9 1
02/05/06 6:43 a -8.4 -8.4 -8.4 --- --- 16.5 ENE 0.28 19.1 -17.4 --- --- 732.1 0.019 0.000 10.0 9 1
02/05/06 6:44 a -8.4 -8.4 -8.4 --- --- 19.1 ENE 0.32 20.9 -18.0 --- --- 732.0 0.019 0.000 10.0 9 1
02/05/06 6:45 a -8.4 -8.4 -8.4 --- --- 19.1 ENE 0.32 20.9 -18.0 --- --- 732.1 0.019 0.000 10.0 9 1
02/05/06 6:46 a -8.4 -8.4 -8.5 --- --- 18.3 ENE 0.30 20.0 -17.9 --- --- 732.1 0.019 0.000 10.0 9 1
02/05/06 6:47 a -8.5 -8.5 -8.6 --- --- 15.7 ENE 0.26 18.3 -17.4 --- --- 732.2 0.019 0.000 10.0 9 1
02/05/06 6:48 a -8.6 -8.6 -8.6 --- --- 14.8 ENE 0.25 17.4 -17.2 --- --- 732.1 0.019 0.000 10.0 9 1
02/05/06 6:49 a -8.6 -8.6 -8.6 --- --- 15.7 ENE 0.26 17.4 -17.4 --- --- 732.1 0.019 0.000 10.0 9 1
02/05/06 6:50 a -8.6 -8.6 -8.7 --- --- 17.4 ENE 0.29 19.1 -17.9 --- --- 732.1 0.019 0.000 10.0 9 1
02/05/06 6:51 a -8.7 -8.6 -8.7 --- --- 18.3 ENE 0.30 20.0 -18.2 --- --- 732.1 0.019 0.000 9.9 9 1
02/05/06 6:52 a -8.7 -8.7 -8.7 --- --- 16.5 ENE 0.28 18.3 -17.8 --- --- 732.1 0.019 0.000 9.9 9 1
02/05/06 6:53 a -8.7 -8.7 -8.7 --- --- 17.4 ENE 0.29 19.1 -18.0 --- --- 732.1 0.019 0.000 9.9 9 1
02/05/06 6:54 a -8.7 -8.7 -8.7 --- --- 17.4 ENE 0.29 18.3 -18.0 --- --- 732.1 0.019 0.000 9.9 9 1
02/05/06 6:55 a -8.7 -8.7 -8.7 --- --- 17.4 ENE 0.29 19.1 -18.0 --- --- 732.1 0.019 0.000 9.9 9 1
02/05/06 6:56 a -8.7 -8.7 -8.7 --- --- 18.3 ENE 0.30 20.0 -18.2 --- --- 732.1 0.019 0.000 9.9 9 1
02/05/06 6:57 a -8.7 -8.7 -8.7 --- --- 19.1 ENE 0.32 20.9 -18.4 --- --- 732.1 0.019 0.000 9.9 9 1
02/05/06 6:58 a -8.7 -8.7 -8.7 --- --- 19.1 ENE 0.32 20.9 -18.4 --- --- 732.1 0.019 0.000 9.9 9 1
02/05/06 6:59 a -8.7 -8.7 -8.7 --- --- 18.3 ENE 0.30 20.0 -18.3 --- --- 732.1 0.019 0.000 9.9 9 1
02/05/06 7:00 a -8.7 -8.7 -8.7 --- --- 19.1 ENE 0.32 20.9 -18.4 --- --- 732.0 0.019 0.000 9.9 9 1
02/05/06 7:02 a -8.7 -8.7 -8.7 --- --- 16.5 ENE 0.28 19.1 -17.8 --- --- 732.1 0.019 0.000 9.9 9 1
02/05/06 7:03 a -8.7 -8.7 -8.7 --- --- 18.3 ENE 0.30 20.0 -18.3 --- --- 732.0 0.019 0.000 9.9 9 1
02/05/06 7:04 a -8.8 -8.7 -8.8 --- --- 19.1 ENE 0.32 20.9 -18.6 --- --- 732.0 0.019 0.000 9.9 9 1
02/05/06 7:05 a -8.8 -8.7 -8.8 --- --- 18.3 ENE 0.30 20.0 -18.3 --- --- 732.1 0.019 0.000 9.9 9 1
02/05/06 7:06 a -8.7 -8.7 -8.8 --- --- 17.4 ENE 0.29 20.0 -18.1 --- --- 732.0 0.019 0.000 9.9 9 1
02/05/06 7:07 a -8.8 -8.8 -8.8 --- --- 18.3 ENE 0.30 19.1 -18.4 --- --- 732.1 0.019 0.000 9.9 9 1
02/05/06 7:08 a -8.8 -8.8 -8.8 --- --- 17.4 ENE 0.29 20.0 -18.2 --- --- 732.0 0.019 0.000 9.9 9 1
02/05/06 7:09 a -8.8 -8.8 -8.8 --- --- 17.4 ENE 0.29 20.0 -18.2 --- --- 732.1 0.019 0.000 9.9 9 1
02/05/06 7:10 a -8.8 -8.8 -8.8 --- --- 17.4 ENE 0.29 19.1 -18.2 --- --- 732.1 0.019 0.000 9.8 9 1
02/05/06 7:11 a -8.8 -8.8 -8.8 --- --- 17.4 ENE 0.29 20.0 -18.2 --- --- 732.1 0.019 0.000 9.8 9 1
02/05/06 7:12 a -8.9 -8.8 -8.9 --- --- 18.3 ENE 0.30 19.1 -18.5 --- --- 732.1 0.019 0.000 9.8 9 1
02/05/06 7:13 a -8.9 -8.9 -8.9 --- --- 17.4 ENE 0.29 19.1 -18.3 --- --- 732.1 0.019 0.000 9.8 9 1
02/05/06 7:14 a -8.9 -8.9 -8.9 --- --- 18.3 ENE 0.30 20.0 -18.6 --- --- 732.2 0.019 0.000 9.8 9 1
02/05/06 7:15 a -8.9 -8.9 -9.0 --- --- 17.4 ENE 0.29 19.1 -18.3 --- --- 732.2 0.019 0.000 9.8 8 1
02/05/06 7:16 a -8.9 -8.9 -8.9 --- --- 17.4 ENE 0.29 19.1 -18.3 --- --- 732.1 0.019 0.000 9.8 8 1
02/05/06 7:17 a -8.9 -8.9 -8.9 --- --- 19.1 ENE 0.32 20.9 -18.8 --- --- 732.1 0.019 0.000 9.8 8 1
02/05/06 7:18 a -8.9 -8.9 -8.9 --- --- 19.1 ENE 0.32 20.0 -18.8 --- --- 732.1 0.019 0.000 9.8 9 1
02/05/06 7:19 a -8.9 -8.9 -8.9 --- --- 17.4 ENE 0.29 20.0 -18.3 --- --- 732.1 0.019 0.000 9.8 9 1
02/05/06 7:20 a -8.9 -8.9 -8.9 --- --- 18.3 ENE 0.30 20.9 -18.6 --- --- 732.1 0.019 0.000 9.8 9 1
02/05/06 7:21 a -8.9 -8.9 -8.9 --- --- 18.3 ENE 0.30 20.0 -18.5 --- --- 732.0 0.019 0.000 9.8 9 1
02/05/06 7:22 a -8.9 -8.9 -8.9 --- --- 18.3 ENE 0.30 20.9 -18.5 --- --- 732.1 0.019 0.000 9.8 8 1
02/05/06 7:23 a -8.9 -8.9 -8.9 --- --- 18.3 ENE 0.30 20.0 -18.5 --- --- 732.0 0.019 0.000 9.8 8 1
02/05/06 7:24 a -8.9 -8.9 -8.9 --- --- 18.3 ENE 0.30 20.0 -18.6 --- --- 732.1 0.019 0.000 9.8 8 1
02/05/06 7:25 a -8.9 -8.9 -8.9 --- --- 19.1 ENE 0.32 20.9 -18.8 --- --- 732.1 0.019 0.000 9.8 8 1
02/05/06 7:26 a -8.9 -8.9 -8.9 --- --- 18.3 ENE 0.30 20.9 -18.6 --- --- 732.1 0.019 0.000 9.8 8 1
02/05/06 7:27 a -8.9 -8.9 -8.9 --- --- 18.3 ENE 0.30 19.1 -18.6 --- --- 732.1 0.019 0.000 9.8 8 1
02/05/06 7:28 a -8.9 -8.9 -9.0 --- --- 16.5 ENE 0.28 20.0 -18.2 --- --- 732.1 0.019 0.000 9.7 8 1
02/05/06 7:29 a -8.9 -8.9 -8.9 --- --- 18.3 ENE 0.30 20.9 -18.6 --- --- 732.1 0.019 0.000 9.7 9 1
02/05/06 7:30 a -8.9 -8.9 -8.9 --- --- 19.1 ENE 0.32 21.7 -18.7 --- --- 732.0 0.019 0.000 9.7 8 1
02/05/06 7:31 a -8.9 -8.9 -8.9 --- --- 19.1 ENE 0.32 21.7 -18.7 --- --- 732.1 0.019 0.000 9.7 8 1
02/05/06 7:32 a -8.9 -8.9 -8.9 --- --- 19.1 ENE 0.32 21.7 -18.7 --- --- 732.1 0.019 0.000 9.7 8 1
02/05/06 7:33 a -8.9 -8.9 -8.9 --- --- 18.3 ENE 0.30 20.0 -18.5 --- --- 732.1 0.019 0.000 9.7 8 1
02/05/06 7:34 a -8.9 -8.9 -8.9 --- --- 18.3 ENE 0.30 20.9 -18.6 --- --- 732.1 0.019 0.000 9.7 8 1
02/05/06 7:35 a -8.9 -8.9 -8.9 --- --- 19.1 ENE 0.32 20.9 -18.7 --- --- 732.1 0.019 0.000 9.7 8 1
02/05/06 7:36 a -8.9 -8.9 -8.9 --- --- 20.0 ENE 0.33 22.6 -18.9 --- --- 732.0 0.019 0.000 9.7 8 1
02/05/06 7:37 a -8.9 -8.9 -8.9 --- --- 19.1 ENE 0.32 22.6 -18.7 --- --- 732.1 0.019 0.000 9.7 8 1
02/05/06 7:38 a -8.9 -8.9 -8.9 --- --- 20.0 ENE 0.33 21.7 -18.9 --- --- 732.1 0.019 0.000 9.7 8 1
02/05/06 7:39 a -8.9 -8.9 -8.9 --- --- 20.0 ENE 0.33 20.9 -18.9 --- --- 732.2 0.019 0.000 9.7 8 1
02/05/06 7:40 a -8.9 -8.9 -8.9 --- --- 19.1 ENE 0.32 21.7 -18.7 --- --- 732.1 0.019 0.000 9.7 8 1
02/05/06 7:41 a -8.9 -8.9 -8.9 --- --- 19.1 ENE 0.32 21.7 -18.7 --- --- 732.1 0.019 0.000 9.7 8 1
02/05/06 7:42 a -8.9 -8.9 -8.9 --- --- 17.4 ENE 0.29 20.0 -18.3 --- --- 732.1 0.019 0.000 9.7 8 1
02/05/06 7:43 a -8.8 -8.8 -8.9 --- --- 20.0 ENE 0.33 22.6 -18.8 --- --- 732.0 0.019 0.000 9.7 8 1
02/05/06 7:44 a -8.8 -8.8 -8.8 --- --- 20.0 ENE 0.33 22.6 -18.8 --- --- 732.1 0.019 0.000 9.7 8 1
02/05/06 7:45 a -8.8 -8.8 -8.8 --- --- 20.0 ENE 0.33 21.7 -18.8 --- --- 732.1 0.019 0.000 9.6 8 1
02/05/06 7:46 a -8.7 -8.7 -8.7 --- --- 18.3 ENE 0.30 20.9 -18.3 --- --- 732.1 0.019 0.000 9.6 8 1
02/05/06 7:47 a -8.7 -8.7 -8.7 --- --- 20.0 ENE 0.33 22.6 -18.6 --- --- 732.1 0.019 0.000 9.6 8 1
02/05/06 7:48 a -8.7 -8.7 -8.7 --- --- 19.1 ENE 0.32 22.6 -18.4 --- --- 732.1 0.019 0.000 9.6 8 1
02/05/06 7:49 a -8.7 -8.7 -8.7 --- --- 19.1 ENE 0.32 21.7 -18.4 --- --- 732.2 0.019 0.000 9.6 8 1
02/05/06 7:50 a -8.6 -8.6 -8.7 --- --- 18.3 ENE 0.30 20.0 -18.1 --- --- 732.2 0.019 0.000 9.6 8 1
02/05/06 7:51 a -8.6 -8.6 -8.6 --- --- 19.1 ENE 0.32 21.7 -18.3 --- --- 732.1 0.019 0.000 9.6 8 1
02/05/06 7:52 a -8.7 -8.7 -8.7 --- --- 20.0 ENE 0.33 22.6 -18.6 --- --- 732.1 0.019 0.000 9.6 8 1
02/05/06 7:53 a -8.8 -8.8 -8.8 --- --- 20.9 ENE 0.35 22.6 -18.9 --- --- 732.1 0.019 0.000 9.6 8 1
02/05/06 7:54 a -8.7 -8.7 -8.8 --- --- 19.1 ENE 0.32 20.9 -18.4 --- --- 732.1 0.019 0.000 9.6 8 1
02/05/06 7:55 a -8.7 -8.7 -8.7 --- --- 18.3 ENE 0.30 20.0 -18.3 --- --- 732.1 0.019 0.000 9.6 8 1
02/05/06 7:56 a -8.7 -8.7 -8.7 --- --- 19.1 ENE 0.32 20.9 -18.4 --- --- 732.1 0.019 0.000 9.6 8 1
02/05/06 7:57 a -8.7 -8.7 -8.7 --- --- 20.0 ENE 0.33 21.7 -18.6 --- --- 732.1 0.019 0.000 9.6 8 1
02/05/06 7:58 a -8.7 -8.7 -8.7 --- --- 19.1 ENE 0.32 20.9 -18.4 --- --- 732.1 0.019 0.000 9.6 8 1
02/05/06 7:59 a -8.7 -8.7 -8.7 --- --- 19.1 E 0.32 21.7 -18.4 --- --- 732.1 0.019 0.000 9.6 8 1
02/05/06 8:00 a -8.8 -8.7 -8.8 --- --- 20.0 ENE 0.33 23.5 -18.7 --- --- 732.1 0.019 0.000 9.6 8 1
02/05/06 8:02 a -8.7 -8.7 -8.8 --- --- 20.9 ENE 0.35 26.1 -18.8 --- --- 732.1 0.019 0.000 9.6 8 1
02/05/06 8:03 a -8.8 -8.8 -8.8 --- --- 18.3 ENE 0.30 22.6 -18.4 --- --- 732.2 0.019 0.000 9.6 8 1
02/05/06 8:04 a -8.8 -8.8 -8.8 --- --- 18.3 ENE 0.30 21.7 -18.3 --- --- 732.2 0.019 0.000 9.6 8 1
02/05/06 8:05 a -8.8 -8.8 -8.8 --- --- 19.1 ENE 0.32 22.6 -18.6 --- --- 732.1 0.019 0.000 9.6 8 1
02/05/06 8:06 a -8.9 -8.8 -8.9 --- --- 20.9 ENE 0.35 24.3 -19.1 --- --- 732.1 0.019 0.000 9.6 8 1
02/05/06 8:07 a -8.9 -8.9 -9.0 --- --- 20.0 E 0.33 23.5 -18.9 --- --- 732.2 0.019 0.000 9.6 8 1
02/05/06 8:08 a -9.0 -9.0 -9.0 --- --- 20.0 ENE 0.33 23.5 -19.0 --- --- 732.2 0.019 0.000 9.6 8 1
02/05/06 8:09 a -9.1 -9.1 -9.1 --- --- 20.0 ENE 0.33 22.6 -19.1 --- --- 732.2 0.019 0.000 9.5 8 1
02/05/06 8:10 a -9.0 -8.9 -9.0 --- --- 20.9 ENE 0.35 22.6 -19.2 --- --- 732.1 0.019 0.000 9.5 8 1
02/05/06 8:11 a -9.0 -9.0 -9.0 --- --- 20.9 ENE 0.35 23.5 -19.2 --- --- 732.2 0.019 0.000 9.5 8 1
02/05/06 8:12 a -9.1 -9.1 -9.1 --- --- 21.7 ENE 0.36 23.5 -19.4 --- --- 732.2 0.019 0.000 9.5 8 1
02/05/06 8:13 a -9.1 -9.1 -9.1 --- --- 20.9 ENE 0.35 23.5 -19.3 --- --- 732.2 0.019 0.000 9.4 8 1
02/05/06 8:14 a -9.1 -9.1 -9.1 --- --- 21.7 ENE 0.36 24.3 -19.5 --- --- 732.1 0.019 0.000 9.5 8 1
02/05/06 8:15 a -9.2 -9.2 -9.2 --- --- 22.6 ENE 0.38 26.1 -19.8 --- --- 732.2 0.019 0.000 9.5 8 1
02/05/06 8:16 a -9.2 -9.2 -9.3 --- --- 22.6 ENE 0.38 24.3 -19.8 --- --- 732.2 0.019 0.000 9.5 8 1
02/05/06 8:17 a -9.3 -9.3 -9.3 --- --- 20.0 ENE 0.33 23.5 -19.4 --- --- 732.2 0.019 0.000 9.5 8 1
02/05/06 8:18 a -9.3 -9.3 -9.3 --- --- 20.9 ENE 0.35 24.3 -19.6 --- --- 732.2 0.019 0.000 9.5 8 1
02/05/06 8:19 a -9.3 -9.3 -9.3 --- --- 20.9 ENE 0.35 25.2 -19.6 --- --- 732.1 0.019 0.000 9.5 8 1
02/05/06 8:20 a -9.3 -9.3 -9.3 --- --- 22.6 ENE 0.38 24.3 -20.0 --- --- 732.2 0.019 0.000 9.5 8 1
02/05/06 8:21 a -9.4 -9.3 -9.4 --- --- 20.9 ENE 0.35 23.5 -19.7 --- --- 732.2 0.019 0.000 9.4 8 1
02/05/06 8:22 a -9.4 -9.4 -9.4 --- --- 21.7 E 0.36 26.1 -19.9 --- --- 732.2 0.019 0.000 9.4 8 1
02/05/06 8:23 a -9.4 -9.4 -9.4 --- --- 20.0 E 0.33 23.5 -19.6 --- --- 732.2 0.019 0.000 9.4 8 1
02/05/06 8:24 a -9.5 -9.4 -9.5 --- --- 20.9 E 0.35 25.2 -19.9 --- --- 732.1 0.019 0.000 9.4 8 1
02/05/06 8:25 a -9.5 -9.5 -9.5 --- --- 22.6 ENE 0.38 24.3 -20.2 --- --- 732.2 0.019 0.000 9.4 8 1
02/05/06 8:26 a -9.6 -9.5 -9.6 --- --- 20.9 ENE 0.35 23.5 -19.9 --- --- 732.2 0.019 0.000 9.4 8 1
02/05/06 8:27 a -9.6 -9.6 -9.6 --- --- 21.7 ENE 0.36 24.3 -20.1 --- --- 732.3 0.019 0.000 9.4 8 1
02/05/06 8:28 a -9.6 -9.6 -9.6 --- --- 20.0 ENE 0.33 22.6 -19.8 --- --- 732.1 0.019 0.000 9.4 8 1
02/05/06 8:29 a -9.6 -9.6 -9.6 --- --- 20.9 ENE 0.35 23.5 -20.0 --- --- 732.2 0.019 0.000 9.4 8 1
02/05/06 8:30 a -9.6 -9.6 -9.6 --- --- 20.9 E 0.35 24.3 -20.0 --- --- 732.3 0.019 0.000 9.3 8 1
02/05/06 8:31 a -9.7 -9.7 -9.7 --- --- 20.0 E 0.33 23.5 -19.9 --- --- 732.2 0.019 0.000 9.3 8 1
02/05/06 8:32 a -9.7 -9.7 -9.7 --- --- 20.9 E 0.35 25.2 -20.1 --- --- 732.1 0.019 0.000 9.3 8 1
02/05/06 8:33 a -9.7 -9.7 -9.7 --- --- 20.9 ENE 0.35 24.3 -20.1 --- --- 732.2 0.019 0.000 9.3 8 1
02/05/06 8:34 a -9.7 -9.7 -9.7 --- --- 20.9 E 0.35 24.3 -20.2 --- --- 732.2 0.019 0.000 9.3 8 1
02/05/06 8:35 a -9.7 -9.7 -9.7 --- --- 18.3 E 0.30 25.2 -19.6 --- --- 732.3 0.019 0.000 9.3 8 1
02/05/06 8:36 a -9.7 -9.7 -9.8 --- --- 22.6 E 0.38 25.2 -20.5 --- --- 732.1 0.019 0.000 9.3 8 1
02/05/06 8:37 a -9.8 -9.8 -9.8 --- --- 20.9 E 0.35 24.3 -20.2 --- --- 732.2 0.020 0.000 9.3 8 1
02/05/06 8:38 a -9.8 -9.8 -9.8 --- --- 21.7 ENE 0.36 24.3 -20.4 --- --- 732.3 0.020 0.000 9.2 8 1
02/05/06 8:39 a -9.8 -9.8 -9.8 --- --- 21.7 ENE 0.36 24.3 -20.5 --- --- 732.2 0.020 0.000 9.2 8 1
02/05/06 8:40 a -9.8 -9.8 -9.8 --- --- 20.9 E 0.35 23.5 -20.3 --- --- 732.2 0.020 0.000 9.2 8 1
02/05/06 8:41 a -9.8 -9.8 -9.8 --- --- 20.9 ENE 0.35 24.3 -20.3 --- --- 732.3 0.020 0.000 9.2 8 1
02/05/06 8:42 a -9.9 -9.8 -9.9 --- --- 20.9 E 0.35 24.3 -20.4 --- --- 732.3 0.020 0.000 9.2 8 1
02/05/06 8:43 a -9.9 -9.9 -9.9 --- --- 23.5 ENE 0.39 25.2 -20.9 --- --- 732.3 0.020 0.000 9.2 8 1
02/05/06 8:44 a -9.9 -9.9 -9.9 --- --- 21.7 ENE 0.36 25.2 -20.6 --- --- 732.3 0.020 0.000 9.2 8 1
02/05/06 8:45 a -9.9 -9.9 -9.9 --- --- 20.9 ENE 0.35 24.3 -20.4 --- --- 732.3 0.020 0.000 9.2 8 1
02/05/06 8:46 a -9.9 -9.9 -9.9 --- --- 20.0 E 0.33 23.5 -20.3 --- --- 732.2 0.020 0.000 9.2 8 1
02/05/06 8:47 a -9.9 -9.9 -9.9 --- --- 21.7 E 0.36 25.2 -20.6 --- --- 732.3 0.020 0.000 9.2 8 1
02/05/06 8:48 a -9.9 -9.9 -9.9 --- --- 20.0 ENE 0.33 23.5 -20.3 --- --- 732.3 0.020 0.000 9.2 8 1
02/05/06 8:49 a -9.9 -9.9 -9.9 --- --- 20.9 ENE 0.35 23.5 -20.4 --- --- 732.2 0.020 0.000 9.2 8 1
02/05/06 8:50 a -9.9 -9.9 -9.9 --- --- 20.0 E 0.33 24.3 -20.3 --- --- 732.2 0.020 0.000 9.2 8 1
02/05/06 8:51 a -9.9 -9.9 -9.9 --- --- 20.9 E 0.35 25.2 -20.4 --- --- 732.2 0.020 0.000 9.2 8 1
02/05/06 8:52 a -10.0 -10.0 -10.0 --- --- 23.5 ENE 0.39 26.1 -21.1 --- --- 732.3 0.020 0.000 9.2 8 1
02/05/06 8:53 a -10.0 -10.0 -10.0 --- --- 22.6 ENE 0.38 26.1 -20.9 --- --- 732.2 0.020 0.000 9.2 8 1
02/05/06 8:54 a -10.1 -10.1 -10.1 --- --- 20.9 E 0.35 24.3 -20.6 --- --- 732.2 0.020 0.000 9.2 8 1
02/05/06 8:55 a -10.1 -10.1 -10.1 --- --- 21.7 ENE 0.36 25.2 -20.8 --- --- 732.2 0.020 0.000 9.1 8 1
02/05/06 8:56 a -10.1 -10.1 -10.1 --- --- 20.9 E 0.35 25.2 -20.6 --- --- 732.2 0.020 0.000 9.1 8 1
02/05/06 8:57 a -10.1 -10.1 -10.1 --- --- 21.7 E 0.36 24.3 -20.8 --- --- 732.2 0.020 0.000 9.1 8 1
02/05/06 8:58 a -10.1 -10.1 -10.1 --- --- 18.3 E 0.30 21.7 -20.1 --- --- 732.2 0.020 0.000 9.1 8 1
02/05/06 8:59 a -10.1 -10.1 -10.1 --- --- 20.0 E 0.33 23.5 -20.4 --- --- 732.2 0.020 0.000 9.1 8 1
02/05/06 9:00 a -10.1 -10.1 -10.1 --- --- 20.0 E 0.33 24.3 -20.4 --- --- 732.2 0.020 0.000 9.1 8 1
02/05/06 9:01 a -10.1 -10.1 -10.1 --- --- 20.0 E 0.33 24.3 -20.5 --- --- 732.2 0.020 0.000 9.1 8 1
02/05/06 9:02 a -10.1 -10.1 -10.2 --- --- 20.9 E 0.35 25.2 -20.7 --- --- 732.3 0.020 0.000 9.1 8 1
02/05/06 9:03 a -10.1 -10.1 -10.2 --- --- 20.0 E 0.33 24.3 -20.5 --- --- 732.2 0.020 0.000 9.1 8 1
02/05/06 9:04 a -10.2 -10.2 -10.2 --- --- 19.1 E 0.32 22.6 -20.4 --- --- 732.2 0.020 0.000 9.1 8 1
02/05/06 9:05 a -10.2 -10.2 -10.2 --- --- 20.0 E 0.33 26.1 -20.6 --- --- 732.3 0.020 0.000 9.1 8 1
02/05/06 9:06 a -10.2 -10.2 -10.2 --- --- 21.7 E 0.36 26.1 -20.9 --- --- 732.3 0.020 0.000 9.1 8 1
02/05/06 9:07 a -10.2 -10.2 -10.2 --- --- 21.7 E 0.36 26.1 -20.9 --- --- 732.2 0.020 0.000 9.1 8 1
02/05/06 9:08 a -10.2 -10.2 -10.2 --- --- 18.3 E 0.30 24.3 -20.2 --- --- 732.3 0.020 0.000 9.1 8 1
02/05/06 9:09 a -10.2 -10.2 -10.2 --- --- 20.0 E 0.33 25.2 -20.6 --- --- 732.2 0.020 0.000 9.1 8 1
02/05/06 9:10 a -10.2 -10.2 -10.2 --- --- 20.9 E 0.35 25.2 -20.8 --- --- 732.2 0.020 0.000 9.0 8 1
02/05/06 9:11 a -10.2 -10.2 -10.3 --- --- 20.0 E 0.33 24.3 -20.6 --- --- 732.3 0.020 0.000 9.0 8 1
02/05/06 9:12 a -10.3 -10.3 -10.3 --- --- 20.0 E 0.33 23.5 -20.7 --- --- 732.3 0.020 0.000 9.0 8 1
02/05/06 9:13 a -10.3 -10.3 -10.3 --- --- 19.1 E 0.32 24.3 -20.5 --- --- 732.2 0.020 0.000 9.0 8 1
02/05/06 9:14 a -10.3 -10.3 -10.3 --- --- 19.1 E 0.32 24.3 -20.5 --- --- 732.2 0.020 0.000 9.0 8 1
02/05/06 9:15 a -10.3 -10.3 -10.3 --- --- 21.7 E 0.36 27.0 -21.2 --- --- 732.3 0.020 0.000 8.9 8 1
02/05/06 9:16 a -10.3 -10.3 -10.3 --- --- 20.0 E 0.33 24.3 -20.8 --- --- 732.4 0.020 0.000 8.9 8 1
02/05/06 9:17 a -10.3 -10.3 -10.4 --- --- 21.7 E 0.36 28.7 -21.2 --- --- 732.2 0.020 0.000 8.9 8 1
02/05/06 9:18 a -10.4 -10.4 -10.4 --- --- 20.0 E 0.33 22.6 -20.8 --- --- 732.3 0.020 0.000 8.9 8 1
02/05/06 9:19 a -10.4 -10.4 -10.4 --- --- 20.0 E 0.33 22.6 -20.8 --- --- 732.3 0.020 0.000 8.9 8 1
02/05/06 9:20 a -10.4 -10.4 -10.4 --- --- 21.7 E 0.36 27.0 -21.2 --- --- 732.3 0.020 0.000 8.9 8 1
02/05/06 9:21 a -10.4 -10.4 -10.4 --- --- 16.5 E 0.28 27.0 -20.1 --- --- 732.2 0.020 0.000 8.9 8 1
02/05/06 9:22 a -10.4 -10.4 -10.5 --- --- 19.1 E 0.32 23.5 -20.7 --- --- 732.3 0.020 0.000 8.9 8 1
02/05/06 9:23 a -10.4 -10.4 -10.5 --- --- 20.0 E 0.33 23.5 -20.9 --- --- 732.4 0.020 0.000 8.9 8 1
02/05/06 9:24 a -10.5 -10.4 -10.5 --- --- 20.0 E 0.33 25.2 -21.0 --- --- 732.3 0.020 0.000 8.9 8 1
02/05/06 9:25 a -10.5 -10.5 -10.5 --- --- 18.3 E 0.30 23.5 -20.6 --- --- 732.2 0.020 0.000 8.9 8 1
02/05/06 9:26 a -10.5 -10.5 -10.5 --- --- 20.9 E 0.35 25.2 -21.2 --- --- 732.3 0.020 0.000 8.9 8 1
02/05/06 9:27 a -10.5 -10.5 -10.5 --- --- 20.0 E 0.33 25.2 -21.0 --- --- 732.2 0.020 0.000 8.9 8 1
02/05/06 9:28 a -10.5 -10.5 -10.6 --- --- 20.0 E 0.33 24.3 -21.0 --- --- 732.2 0.020 0.000 8.9 8 1
02/05/06 9:29 a -10.5 -10.5 -10.5 --- --- 21.7 E 0.36 23.5 -21.4 --- --- 732.3 0.020 0.000 8.9 8 1
02/05/06 9:30 a -10.5 -10.5 -10.6 --- --- 19.1 E 0.32 22.6 -20.8 --- --- 732.3 0.020 0.000 8.9 8 1
02/05/06 9:31 a -10.6 -10.6 -10.6 --- --- 20.9 E 0.35 26.1 -21.3 --- --- 732.2 0.020 0.000 8.9 8 1
02/05/06 9:32 a -10.6 -10.6 -10.6 --- --- 20.9 E 0.35 23.5 -21.3 --- --- 732.2 0.020 0.000 8.8 8 1
02/05/06 9:33 a -10.6 -10.6 -10.6 --- --- 22.6 E 0.38 27.0 -21.7 --- --- 732.2 0.020 0.000 8.8 8 1
02/05/06 9:34 a -10.6 -10.6 -10.7 --- --- 23.5 ENE 0.39 27.0 -21.9 --- --- 732.2 0.020 0.000 8.8 8 1
02/05/06 9:35 a -10.7 -10.6 -10.7 --- --- 22.6 E 0.38 26.1 -21.8 --- --- 732.2 0.020 0.000 8.8 8 1
02/05/06 9:36 a -10.7 -10.7 -10.7 --- --- 19.1 E 0.32 24.3 -21.1 --- --- 732.2 0.020 0.000 8.8 8 1
02/05/06 9:37 a -10.7 -10.7 -10.7 --- --- 20.0 E 0.33 27.0 -21.2 --- --- 732.1 0.020 0.000 8.8 8 1
02/05/06 9:38 a -10.7 -10.7 -10.7 --- --- 23.5 E 0.39 27.0 -21.9 --- --- 732.1 0.020 0.000 8.8 8 1
02/05/06 9:39 a -10.7 -10.7 -10.7 --- --- 21.7 E 0.36 25.2 -21.6 --- --- 732.1 0.020 0.000 8.8 8 1
02/05/06 9:40 a -10.7 -10.7 -10.7 --- --- 19.1 ENE 0.32 23.5 -21.1 --- --- 732.2 0.020 0.000 8.8 8 1
02/05/06 9:41 a -10.7 -10.7 -10.7 --- --- 17.4 E 0.29 22.6 -20.6 --- --- 732.2 0.020 0.000 8.8 8 1
02/05/06 9:42 a -10.7 -10.7 -10.7 --- --- 21.7 ENE 0.36 26.1 -21.6 --- --- 732.1 0.020 0.000 8.8 8 1
02/05/06 9:43 a -10.7 -10.7 -10.7 --- --- 21.7 E 0.36 27.0 -21.7 --- --- 732.2 0.020 0.000 8.8 8 1
02/05/06 9:44 a -10.7 -10.7 -10.7 --- --- 19.1 E 0.32 25.2 -21.1 --- --- 732.2 0.020 0.000 8.7 8 1
02/05/06 9:45 a -10.7 -10.7 -10.7 --- --- 20.0 E 0.33 25.2 -21.2 --- --- 732.3 0.020 0.000 8.7 8 1
02/05/06 9:46 a -10.7 -10.7 -10.7 --- --- 20.9 E 0.35 23.5 -21.5 --- --- 732.2 0.020 0.000 8.7 8 1
02/05/06 9:47 a -10.7 -10.7 -10.7 --- --- 22.6 E 0.38 27.0 -21.8 --- --- 732.1 0.020 0.000 8.7 8 1
02/05/06 9:48 a -10.7 -10.7 -10.7 --- --- 20.9 E 0.35 25.2 -21.5 --- --- 732.2 0.020 0.000 8.7 7 1
02/05/06 9:49 a -10.7 -10.7 -10.7 --- --- 20.0 E 0.33 24.3 -21.3 --- --- 732.2 0.020 0.000 8.7 8 1
02/05/06 9:50 a -10.7 -10.7 -10.7 --- --- 20.0 E 0.33 23.5 -21.3 --- --- 732.1 0.020 0.000 8.7 8 1
02/05/06 9:51 a -10.7 -10.7 -10.7 --- --- 20.9 E 0.35 24.3 -21.5 --- --- 732.1 0.020 0.000 8.7 8 1
02/05/06 9:52 a -10.7 -10.7 -10.7 --- --- 20.9 E 0.35 27.0 -21.5 --- --- 732.2 0.020 0.000 8.7 7 1
02/05/06 9:53 a -10.7 -10.7 -10.7 --- --- 18.3 E 0.30 21.7 -20.9 --- --- 732.1 0.020 0.000 8.7 8 1
02/05/06 9:54 a -10.7 -10.7 -10.7 --- --- 19.1 E 0.32 22.6 -21.1 --- --- 732.2 0.020 0.000 8.7 8 1
02/05/06 9:55 a -10.7 -10.7 -10.7 --- --- 22.6 E 0.38 26.1 -21.8 --- --- 732.2 0.020 0.000 8.7 8 1
02/05/06 9:56 a -10.7 -10.7 -10.7 --- --- 20.0 E 0.33 23.5 -21.3 --- --- 732.3 0.020 0.000 8.7 7 1
02/05/06 9:57 a -10.7 -10.7 -10.7 --- --- 20.0 E 0.33 23.5 -21.3 --- --- 732.3 0.020 0.000 8.7 8 1
02/05/06 9:58 a -10.7 -10.7 -10.7 --- --- 20.0 E 0.33 24.3 -21.2 --- --- 732.3 0.020 0.000 8.7 8 1
02/05/06 9:59 a -10.7 -10.7 -10.7 --- --- 21.7 E 0.36 25.2 -21.7 --- --- 732.2 0.020 0.000 8.8 7 1
02/05/06 10:00 a -10.7 -10.7 -10.7 --- --- 19.1 E 0.32 26.1 -21.1 --- --- 732.2 0.020 0.000 8.8 7 1
02/05/06 10:02 a -10.7 -10.7 -10.7 --- --- 21.7 ENE 0.36 24.3 -21.7 --- --- 732.2 0.020 0.000 8.7 8 1
02/05/06 10:03 a -10.7 -10.7 -10.7 --- --- 20.0 E 0.33 24.3 -21.3 --- --- 732.2 0.020 0.000 8.7 8 1
02/05/06 10:04 a -10.7 -10.7 -10.7 --- --- 19.1 E 0.32 21.7 -21.1 --- --- 732.2 0.020 0.000 8.7 8 1
02/05/06 10:05 a -10.7 -10.7 -10.7 --- --- 21.7 E 0.36 27.8 -21.7 --- --- 732.2 0.020 0.000 8.7 7 1
02/05/06 10:06 a -10.8 -10.7 -10.8 --- --- 24.3 E 0.41 27.8 -22.3 --- --- 732.2 0.020 0.000 8.7 7 1
02/05/06 10:07 a -10.8 -10.8 -10.8 --- --- 21.7 E 0.36 27.0 -21.7 --- --- 732.2 0.020 0.000 8.7 7 1
02/05/06 10:08 a -10.8 -10.8 -10.8 --- --- 25.2 ENE 0.42 27.0 -22.4 --- --- 732.2 0.020 0.000 8.7 7 1
02/05/06 10:09 a -10.8 -10.8 -10.8 --- --- 20.0 E 0.33 24.3 -21.4 --- --- 732.1 0.020 0.000 8.7 7 1
02/05/06 10:10 a -10.8 -10.8 -10.8 --- --- 20.9 E 0.35 26.1 -21.6 --- --- 732.1 0.020 0.000 8.7 7 1
02/05/06 10:11 a -10.8 -10.8 -10.8 --- --- 21.7 E 0.36 26.1 -21.8 --- --- 732.1 0.020 0.000 8.6 7 1
02/05/06 10:12 a -10.8 -10.8 -10.8 --- --- 22.6 E 0.38 26.1 -22.0 --- --- 732.1 0.020 0.000 8.6 8 1
02/05/06 10:13 a -10.8 -10.8 -10.9 --- --- 21.7 E 0.36 27.0 -21.8 --- --- 732.2 0.020 0.000 8.6 8 1
02/05/06 10:14 a -10.9 -10.8 -10.9 --- --- 24.3 E 0.41 27.0 -22.4 --- --- 732.1 0.020 0.000 8.6 7 1
02/05/06 10:15 a -10.9 -10.9 -10.9 --- --- 25.2 ENE 0.42 27.0 -22.6 --- --- 732.2 0.020 0.000 8.6 8 1
02/05/06 10:16 a -10.9 -10.8 -10.9 --- --- 23.5 E 0.39 27.8 -22.2 --- --- 732.2 0.020 0.000 8.6 7 1
02/05/06 10:17 a -10.8 -10.8 -10.9 --- --- 22.6 E 0.38 26.1 -22.0 --- --- 732.2 0.020 0.000 8.6 7 1
02/05/06 10:18 a -10.9 -10.8 -10.9 --- --- 19.1 E 0.32 25.2 -21.3 --- --- 732.1 0.020 0.000 8.6 7 1
02/05/06 10:19 a -10.9 -10.8 -10.9 --- --- 23.5 E 0.39 27.8 -22.2 --- --- 732.0 0.020 0.000 8.6 7 1
02/05/06 10:20 a -10.9 -10.9 -10.9 --- --- 23.5 E 0.39 27.8 -22.2 --- --- 732.2 0.020 0.000 8.6 7 1
02/05/06 10:21 a -10.9 -10.9 -10.9 --- --- 22.6 E 0.38 28.7 -22.1 --- --- 732.1 0.020 0.000 8.6 7 1
02/05/06 10:22 a -10.9 -10.9 -10.9 --- --- 19.1 E 0.32 23.5 -21.3 --- --- 732.1 0.020 0.000 8.6 7 1
02/05/06 10:23 a -10.9 -10.9 -10.9 --- --- 20.0 E 0.33 24.3 -21.5 --- --- 732.2 0.020 0.000 8.5 8 1
02/05/06 10:24 a -10.9 -10.9 -10.9 --- --- 22.6 E 0.38 26.1 -22.1 --- --- 732.2 0.020 0.000 8.5 7 1
02/05/06 10:25 a -10.9 -10.9 -10.9 --- --- 23.5 E 0.39 28.7 -22.2 --- --- 732.1 0.020 0.000 8.5 7 1
02/05/06 10:26 a -10.9 -10.9 -10.9 --- --- 25.2 ENE 0.42 29.6 -22.7 --- --- 732.1 0.020 0.000 8.4 7 1
02/05/06 10:27 a -10.9 -10.9 -10.9 --- --- 22.6 E 0.38 27.0 -22.2 --- --- 732.1 0.020 0.000 8.4 7 1
02/05/06 10:28 a -10.9 -10.9 -10.9 --- --- 22.6 E 0.38 25.2 -22.2 --- --- 732.2 0.020 0.000 8.4 7 1
02/05/06 10:29 a -10.9 -10.9 -10.9 --- --- 22.6 E 0.38 26.1 -22.2 --- --- 732.2 0.020 0.000 8.4 7 1
02/05/06 10:30 a -10.9 -10.9 -10.9 --- --- 21.7 E 0.36 27.0 -21.9 --- --- 732.1 0.020 0.000 8.4 8 1
02/05/06 10:31 a -10.9 -10.9 -10.9 --- --- 25.2 E 0.42 27.8 -22.7 --- --- 732.1 0.020 0.000 8.4 7 1
02/05/06 10:32 a -10.9 -10.9 -10.9 --- --- 26.1 ENE 0.43 29.6 -22.7 --- --- 732.1 0.020 0.000 8.4 7 1
02/05/06 10:33 a -10.9 -10.9 -10.9 --- --- 23.5 E 0.39 27.8 -22.3 --- --- 732.2 0.020 0.000 8.4 7 1
02/05/06 10:34 a -10.9 -10.9 -10.9 --- --- 24.3 E 0.41 27.8 -22.5 --- --- 732.1 0.020 0.000 8.4 7 1
02/05/06 10:35 a -10.9 -10.9 -10.9 --- --- 23.5 E 0.39 27.8 -22.3 --- --- 732.1 0.020 0.000 8.4 7 1
02/05/06 10:36 a -10.9 -10.9 -10.9 --- --- 23.5 E 0.39 27.8 -22.3 --- --- 732.1 0.020 0.000 8.3 7 1
02/05/06 10:37 a -10.9 -10.9 -11.0 --- --- 21.7 E 0.36 25.2 -21.9 --- --- 732.1 0.020 0.000 8.3 7 1
02/05/06 10:38 a -10.9 -10.9 -11.0 --- --- 22.6 E 0.38 27.8 -22.2 --- --- 732.1 0.020 0.000 8.3 7 1
02/05/06 10:39 a -10.9 -10.9 -11.0 --- --- 23.5 E 0.39 27.0 -22.3 --- --- 732.1 0.020 0.000 8.3 7 1
02/05/06 10:40 a -10.9 -10.9 -10.9 --- --- 23.5 E 0.39 28.7 -22.3 --- --- 732.1 0.020 0.000 8.3 7 1
02/05/06 10:41 a -10.9 -10.9 -10.9 --- --- 23.5 E 0.39 27.8 -22.3 --- --- 732.1 0.020 0.000 8.3 7 1
02/05/06 10:42 a -10.9 -10.9 -11.0 --- --- 23.5 E 0.39 26.1 -22.3 --- --- 732.1 0.020 0.000 8.3 7 1
02/05/06 10:43 a -10.9 -10.9 -10.9 --- --- 24.3 E 0.41 29.6 -22.5 --- --- 732.2 0.020 0.000 8.3 7 1
02/05/06 10:44 a -10.9 -10.9 -10.9 --- --- 20.9 E 0.35 25.2 -21.8 --- --- 732.2 0.020 0.000 8.3 7 1
02/05/06 10:45 a -10.9 -10.9 -10.9 --- --- 22.6 E 0.38 27.0 -22.2 --- --- 732.1 0.020 0.000 8.3 7 1
02/05/06 10:46 a -10.9 -10.9 -10.9 --- --- 26.1 ENE 0.43 30.4 -22.8 --- --- 732.1 0.020 0.000 8.3 7 1
02/05/06 10:47 a -10.9 -10.9 -10.9 --- --- 26.1 ENE 0.43 30.4 -22.8 --- --- 732.1 0.020 0.000 8.3 7 1
02/05/06 10:48 a -10.9 -10.9 -10.9 --- --- 24.3 E 0.41 28.7 -22.5 --- --- 732.2 0.020 0.000 8.3 7 1
02/05/06 10:49 a -10.9 -10.9 -10.9 --- --- 25.2 E 0.42 28.7 -22.7 --- --- 732.1 0.020 0.000 8.3 7 1
02/05/06 10:50 a -10.9 -10.9 -10.9 --- --- 24.3 ENE 0.41 28.7 -22.5 --- --- 732.1 0.020 0.000 8.3 7 1
02/05/06 10:51 a -10.9 -10.9 -10.9 --- --- 22.6 E 0.38 26.1 -22.2 --- --- 732.0 0.020 0.000 8.3 7 1
02/05/06 10:52 a -10.9 -10.9 -10.9 --- --- 22.6 E 0.38 27.8 -22.2 --- --- 732.0 0.020 0.000 8.3 7 1
02/05/06 10:53 a -10.9 -10.9 -10.9 --- --- 24.3 E 0.41 27.8 -22.5 --- --- 732.0 0.020 0.000 8.3 7 1
02/05/06 10:54 a -10.9 -10.9 -10.9 --- --- 25.2 E 0.42 28.7 -22.7 --- --- 732.1 0.020 0.000 8.3 7 1
02/05/06 10:55 a -10.9 -10.9 -10.9 --- --- 24.3 E 0.41 28.7 -22.5 --- --- 732.0 0.020 0.000 8.3 7 1
02/05/06 10:56 a -10.9 -10.9 -10.9 --- --- 23.5 E 0.39 27.8 -22.3 --- --- 732.1 0.020 0.000 8.3 7 1
02/05/06 10:57 a -10.9 -10.9 -10.9 --- --- 24.3 E 0.41 28.7 -22.5 --- --- 732.0 0.020 0.000 8.3 7 1
02/05/06 10:58 a -10.9 -10.9 -10.9 --- --- 25.2 E 0.42 30.4 -22.7 --- --- 732.0 0.020 0.000 8.2 7 1
02/05/06 10:59 a -10.9 -10.9 -10.9 --- --- 24.3 E 0.41 29.6 -22.5 --- --- 732.0 0.020 0.000 8.2 7 1
02/05/06 11:00 a -10.9 -10.9 -10.9 --- --- 22.6 E 0.38 27.0 -22.1 --- --- 732.0 0.020 0.000 8.2 7 1
02/05/06 11:02 a -10.9 -10.9 -10.9 --- --- 21.7 E 0.36 25.2 -21.9 --- --- 732.0 0.020 0.000 8.2 7 1
02/05/06 11:03 a -10.9 -10.9 -11.0 --- --- 25.2 E 0.42 28.7 -22.7 --- --- 732.0 0.020 0.000 8.2 7 1
02/05/06 11:04 a -11.0 -11.0 -11.0 --- --- 26.1 ENE 0.43 29.6 -22.9 --- --- 732.1 0.020 0.000 8.3 7 1
02/05/06 11:05 a -11.0 -11.0 -11.0 --- --- 21.7 E 0.36 27.0 -22.1 --- --- 732.1 0.020 0.000 8.3 7 1
02/05/06 11:06 a -11.1 -11.0 -11.1 --- --- 24.3 E 0.41 28.7 -22.7 --- --- 732.0 0.020 0.000 8.3 7 1
02/05/06 11:07 a -11.1 -11.0 -11.1 --- --- 25.2 E 0.42 27.8 -22.8 --- --- 732.0 0.020 0.000 8.2 7 1
02/05/06 11:08 a -11.0 -11.0 -11.0 --- --- 25.2 E 0.42 27.0 -22.7 --- --- 732.0 0.020 0.000 8.2 7 1
02/05/06 11:09 a -11.0 -11.0 -11.1 --- --- 25.2 E 0.42 28.7 -22.7 --- --- 732.1 0.020 0.000 8.2 7 1
02/05/06 11:10 a -11.0 -11.0 -11.1 --- --- 25.2 ENE 0.42 28.7 -22.7 --- --- 732.1 0.020 0.000 8.2 7 1
02/05/06 11:11 a -11.1 -11.0 -11.1 --- --- 26.1 E 0.43 29.6 -22.9 --- --- 732.0 0.020 0.000 8.2 7 1
02/05/06 11:12 a -11.1 -11.1 -11.1 --- --- 27.8 E 0.46 30.4 -23.3 --- --- 732.0 0.020 0.000 8.2 7 1
02/05/06 11:13 a -11.0 -11.0 -11.1 --- --- 24.3 E 0.41 28.7 -22.6 --- --- 732.1 0.020 0.000 8.2 7 1
02/05/06 11:14 a -11.0 -11.0 -11.1 --- --- 21.7 E 0.36 26.1 -22.1 --- --- 732.1 0.020 0.000 8.2 7 1
02/05/06 11:15 a -11.1 -11.0 -11.1 --- --- 26.1 E 0.43 29.6 -22.9 --- --- 732.0 0.020 0.000 8.2 7 1
02/05/06 11:16 a -11.0 -11.0 -11.1 --- --- 22.6 E 0.38 25.2 -22.2 --- --- 732.0 0.020 0.000 8.2 7 1
02/05/06 11:17 a -11.1 -11.1 -11.1 --- --- 25.2 E 0.42 30.4 -22.8 --- --- 732.0 0.020 0.000 8.2 7 1
02/05/06 11:18 a -11.1 -11.1 -11.1 --- --- 25.2 E 0.42 31.3 -22.8 --- --- 732.0 0.020 0.000 8.2 7 1
02/05/06 11:19 a -11.1 -11.1 -11.1 --- --- 26.1 E 0.43 30.4 -22.9 --- --- 732.0 0.020 0.000 8.1 7 1
02/05/06 11:20 a -11.0 -11.0 -11.1 --- --- 22.6 E 0.38 28.7 -22.2 --- --- 731.9 0.020 0.000 8.1 7 1
02/05/06 11:21 a -11.0 -11.0 -11.1 --- --- 25.2 E 0.42 30.4 -22.7 --- --- 732.0 0.020 0.000 8.1 7 1
02/05/06 11:22 a -11.1 -11.0 -11.1 --- --- 27.0 E 0.45 30.4 -23.1 --- --- 732.0 0.020 0.000 8.1 7 1
02/05/06 11:23 a -11.1 -11.1 -11.1 --- --- 23.5 E 0.39 27.8 -22.5 --- --- 732.0 0.020 0.000 8.1 7 1
02/05/06 11:24 a -11.0 -11.0 -11.1 --- --- 27.0 ENE 0.45 30.4 -23.1 --- --- 732.1 0.020 0.000 8.1 7 1
02/05/06 11:25 a -11.0 -11.0 -11.0 --- --- 25.2 E 0.42 31.3 -22.7 --- --- 732.0 0.020 0.000 8.1 7 1
02/05/06 11:26 a -11.0 -11.0 -11.0 --- --- 26.1 ENE 0.43 31.3 -22.9 --- --- 732.0 0.020 0.000 8.1 7 1
02/05/06 11:27 a -11.0 -11.0 -11.0 --- --- 22.6 E 0.38 29.6 -22.2 --- --- 732.0 0.020 0.000 8.1 7 1
02/05/06 11:28 a -11.0 -11.0 -11.0 --- --- 21.7 E 0.36 24.3 -22.1 --- --- 732.0 0.020 0.000 8.1 7 1
02/05/06 11:29 a -11.0 -10.9 -11.0 --- --- 25.2 E 0.42 30.4 -22.7 --- --- 732.0 0.020 0.000 8.0 7 1
02/05/06 11:30 a -10.9 -10.9 -11.0 --- --- 26.1 E 0.43 31.3 -22.8 --- --- 732.1 0.020 0.000 8.0 7 1
02/05/06 11:31 a -10.9 -10.9 -10.9 --- --- 26.1 E 0.43 31.3 -22.8 --- --- 732.0 0.020 0.000 8.0 7 1
02/05/06 11:32 a -10.9 -10.9 -10.9 --- --- 25.2 E 0.42 30.4 -22.7 --- --- 731.9 0.020 0.000 8.0 7 1
02/05/06 11:33 a -10.9 -10.9 -10.9 --- --- 26.1 E 0.43 33.9 -22.8 --- --- 732.0 0.020 0.000 8.0 7 1
02/05/06 11:34 a -10.9 -10.9 -10.9 --- --- 25.2 E 0.42 27.8 -22.7 --- --- 732.0 0.020 0.000 8.0 7 1
02/05/06 11:35 a -10.9 -10.9 -10.9 --- --- 26.1 E 0.43 30.4 -22.8 --- --- 732.0 0.020 0.000 8.0 7 1
02/05/06 11:36 a -10.9 -10.9 -10.9 --- --- 26.1 E 0.43 31.3 -22.8 --- --- 731.8 0.020 0.000 8.0 7 1
02/05/06 11:37 a -10.9 -10.9 -11.0 --- --- 27.0 E 0.45 31.3 -22.9 --- --- 732.0 0.020 0.000 7.9 7 1
02/05/06 11:38 a -11.0 -11.0 -11.0 --- --- 27.0 E 0.45 32.2 -23.1 --- --- 731.9 0.020 0.000 7.9 7 1
02/05/06 11:39 a -11.0 -10.9 -11.0 --- --- 27.8 E 0.46 32.2 -23.2 --- --- 731.9 0.020 0.000 7.9 7 1
02/05/06 11:40 a -10.9 -10.9 -11.0 --- --- 27.8 E 0.46 31.3 -23.1 --- --- 731.9 0.020 0.000 7.9 7 1
02/05/06 11:41 a -11.0 -10.9 -11.0 --- --- 27.8 E 0.46 32.2 -23.2 --- --- 731.9 0.020 0.000 7.9 7 1
02/05/06 11:42 a -11.0 -11.0 -11.0 --- --- 27.8 E 0.46 32.2 -23.2 --- --- 732.0 0.020 0.000 7.9 7 1
02/05/06 11:43 a -11.0 -11.0 -11.1 --- --- 27.8 E 0.46 31.3 -23.2 --- --- 731.9 0.020 0.000 7.9 7 1
02/05/06 11:44 a -11.0 -11.0 -11.1 --- --- 28.7 E 0.48 33.0 -23.3 --- --- 731.9 0.020 0.000 7.9 7 1
02/05/06 11:45 a -11.0 -11.0 -11.0 --- --- 27.8 E 0.46 31.3 -23.2 --- --- 732.0 0.020 0.000 7.9 7 1
02/05/06 11:46 a -11.1 -11.0 -11.1 --- --- 27.8 E 0.46 31.3 -23.3 --- --- 732.1 0.020 0.000 7.9 7 1
02/05/06 11:47 a -11.0 -11.0 -11.0 --- --- 26.1 E 0.43 30.4 -22.9 --- --- 731.9 0.020 0.000 7.9 7 1
02/05/06 11:48 a -11.1 -11.1 -11.1 --- --- 27.8 E 0.46 32.2 -23.3 --- --- 731.9 0.020 0.000 7.9 7 1
02/05/06 11:49 a -11.1 -11.1 -11.1 --- --- 28.7 E 0.48 31.3 -23.4 --- --- 731.9 0.020 0.000 7.9 7 1
02/05/06 11:50 a -11.1 -11.1 -11.1 --- --- 28.7 E 0.48 32.2 -23.4 --- --- 731.9 0.020 0.000 7.9 7 1
02/05/06 11:51 a -11.1 -11.1 -11.1 --- --- 26.1 E 0.43 31.3 -22.9 --- --- 731.9 0.020 0.000 7.9 7 1
02/05/06 11:52 a -11.1 -11.1 -11.1 --- --- 28.7 E 0.48 33.9 -23.4 --- --- 731.9 0.020 0.000 7.9 7 1
02/05/06 11:53 a -11.0 -11.0 -11.1 --- --- 27.8 E 0.46 33.9 -23.2 --- --- 731.9 0.020 0.000 7.9 7 1
02/05/06 11:54 a -11.1 -11.0 -11.1 --- --- 27.0 E 0.45 31.3 -23.1 --- --- 731.9 0.020 0.000 7.9 7 1
02/05/06 11:55 a -11.1 -11.1 -11.1 --- --- 29.6 E 0.49 33.9 -23.6 --- --- 731.9 0.020 0.000 7.9 7 1
02/05/06 11:56 a -11.0 -11.0 -11.1 --- --- 25.2 E 0.42 27.8 -22.7 --- --- 732.0 0.020 0.000 7.9 7 1
02/05/06 11:57 a -11.1 -11.1 -11.1 --- --- 27.8 E 0.46 33.9 -23.3 --- --- 731.9 0.020 0.000 7.8 7 1
02/05/06 11:58 a -11.1 -11.1 -11.1 --- --- 27.8 E 0.46 32.2 -23.3 --- --- 732.0 0.020 0.000 7.8 7 1
02/05/06 11:59 a -11.1 -11.1 -11.1 --- --- 28.7 E 0.48 32.2 -23.4 --- --- 732.1 0.020 0.000 7.8 7 1
02/05/06 12:00 p -11.1 -11.1 -11.1 --- --- 27.8 E 0.46 30.4 -23.3 --- --- 731.9 0.020 0.000 7.8 7 1
02/05/06 12:02 p -11.1 -11.1 -11.1 --- --- 28.7 E 0.48 32.2 -23.4 --- --- 732.0 0.020 0.000 7.8 7 1
02/05/06 12:03 p -11.1 -11.1 -11.1 --- --- 27.8 E 0.46 32.2 -23.3 --- --- 731.9 0.020 0.000 7.8 7 1
02/05/06 12:04 p -11.1 -11.1 -11.1 --- --- 27.0 E 0.45 32.2 -23.2 --- --- 732.0 0.020 0.000 7.8 7 1
02/05/06 12:05 p -11.1 -11.1 -11.1 --- --- 27.8 E 0.46 31.3 -23.3 --- --- 732.0 0.020 0.000 7.8 7 1
02/05/06 12:06 p -11.1 -11.1 -11.1 --- --- 26.1 E 0.43 31.3 -23.1 --- --- 731.9 0.020 0.000 7.8 7 1
02/05/06 12:07 p -11.1 -11.1 -11.1 --- --- 27.8 E 0.46 33.0 -23.3 --- --- 731.9 0.020 0.000 7.8 7 1
02/05/06 12:08 p -11.1 -11.1 -11.1 --- --- 28.7 E 0.48 33.9 -23.5 --- --- 732.0 0.020 0.000 7.8 7 1
02/05/06 12:09 p -11.1 -11.1 -11.1 --- --- 26.1 E 0.43 28.7 -23.1 --- --- 731.9 0.020 0.000 7.8 7 1
02/05/06 12:10 p -11.1 -11.1 -11.1 --- --- 26.1 E 0.43 31.3 -23.1 --- --- 732.0 0.020 0.000 7.8 7 1
02/05/06 12:11 p -11.1 -11.1 -11.1 --- --- 26.1 E 0.43 32.2 -23.1 --- --- 731.9 0.020 0.000 7.8 7 1
02/05/06 12:12 p -11.1 -11.1 -11.1 --- --- 27.0 E 0.45 29.6 -23.2 --- --- 731.9 0.020 0.000 7.8 7 1
02/05/06 12:13 p -11.1 -11.1 -11.1 --- --- 28.7 E 0.48 33.0 -23.5 --- --- 731.9 0.020 0.000 7.8 7 1
02/05/06 12:14 p -11.1 -11.1 -11.1 --- --- 26.1 E 0.43 30.4 -23.1 --- --- 731.9 0.020 0.000 7.8 7 1
02/05/06 12:15 p -11.1 -11.1 -11.1 --- --- 27.0 E 0.45 33.9 -23.2 --- --- 731.9 0.020 0.000 7.8 7 1
02/05/06 12:16 p -11.1 -11.1 -11.1 --- --- 24.3 E 0.41 31.3 -22.7 --- --- 732.0 0.020 0.000 7.8 7 1
02/05/06 12:17 p -11.1 -11.1 -11.1 --- --- 25.2 E 0.42 29.6 -22.9 --- --- 731.9 0.020 0.000 7.8 7 1
02/05/06 12:18 p -11.2 -11.2 -11.2 --- --- 27.8 E 0.46 31.3 -23.4 --- --- 731.9 0.020 0.000 7.8 7 1
02/05/06 12:19 p -11.2 -11.2 -11.2 --- --- 26.1 E 0.43 32.2 -23.1 --- --- 732.0 0.020 0.000 7.7 7 1
02/05/06 12:20 p -11.2 -11.2 -11.2 --- --- 25.2 E 0.42 29.6 -23.1 --- --- 731.9 0.021 0.000 7.7 7 1
02/05/06 12:21 p -11.2 -11.2 -11.2 --- --- 26.1 E 0.43 30.4 -23.1 --- --- 731.8 0.020 0.000 7.7 7 1
02/05/06 12:22 p -11.2 -11.2 -11.2 --- --- 24.3 E 0.41 27.8 -22.9 --- --- 732.0 0.021 0.000 7.7 7 1
02/05/06 12:23 p -11.2 -11.2 -11.2 --- --- 25.2 E 0.42 29.6 -23.1 --- --- 731.9 0.021 0.000 7.7 7 1
02/05/06 12:24 p -11.2 -11.2 -11.2 --- --- 27.0 E 0.45 30.4 -23.3 --- --- 731.9 0.021 0.000 7.7 7 1
02/05/06 12:25 p -11.2 -11.2 -11.3 --- --- 25.2 E 0.42 29.6 -23.1 --- --- 731.9 0.021 0.000 7.7 7 1
02/05/06 12:26 p -11.3 -11.2 -11.3 --- --- 24.3 E 0.41 30.4 -22.9 --- --- 731.9 0.021 0.000 7.7 7 1
02/05/06 12:27 p -11.3 -11.3 -11.3 --- --- 25.2 E 0.42 29.6 -23.1 --- --- 732.0 0.021 0.000 7.7 7 1
02/05/06 12:28 p -11.3 -11.3 -11.3 --- --- 25.2 E 0.42 29.6 -23.1 --- --- 732.0 0.021 0.000 7.7 7 1
02/05/06 12:29 p -11.3 -11.3 -11.3 --- --- 24.3 E 0.41 30.4 -22.9 --- --- 732.1 0.021 0.000 7.7 7 1
02/05/06 12:30 p -11.3 -11.3 -11.3 --- --- 25.2 E 0.42 29.6 -23.2 --- --- 732.1 0.021 0.000 7.7 7 1
02/05/06 12:31 p -11.3 -11.3 -11.3 --- --- 24.3 E 0.41 27.8 -23.0 --- --- 732.1 0.021 0.000 7.6 7 1
02/05/06 12:32 p -11.3 -11.3 -11.3 --- --- 23.5 E 0.39 27.8 -22.8 --- --- 732.1 0.021 0.000 7.7 7 1
02/05/06 12:33 p -11.3 -11.3 -11.4 --- --- 26.1 E 0.43 30.4 -23.3 --- --- 731.9 0.021 0.000 7.6 7 1
02/05/06 12:34 p -11.3 -11.3 -11.4 --- --- 27.8 E 0.46 31.3 -23.7 --- --- 732.1 0.021 0.000 7.6 7 1
02/05/06 12:35 p -11.4 -11.4 -11.4 --- --- 26.1 E 0.43 28.7 -23.4 --- --- 732.0 0.021 0.000 7.6 7 1
02/05/06 12:36 p -11.4 -11.4 -11.4 --- --- 24.3 E 0.41 31.3 -23.1 --- --- 732.0 0.021 0.000 7.6 7 1
02/05/06 12:37 p -11.4 -11.4 -11.4 --- --- 26.1 E 0.43 29.6 -23.4 --- --- 732.0 0.021 0.000 7.6 7 1
02/05/06 12:38 p -11.4 -11.4 -11.4 --- --- 24.3 E 0.41 27.8 -23.1 --- --- 732.1 0.021 0.000 7.6 7 1
02/05/06 12:39 p -11.4 -11.4 -11.4 --- --- 24.3 E 0.41 28.7 -23.2 --- --- 732.1 0.021 0.000 7.6 7 1
02/05/06 12:40 p -11.4 -11.4 -11.4 --- --- 25.2 E 0.42 30.4 -23.3 --- --- 732.1 0.021 0.000 7.6 7 1
02/05/06 12:41 p -11.4 -11.4 -11.4 --- --- 26.1 E 0.43 29.6 -23.5 --- --- 731.9 0.021 0.000 7.6 7 1
02/05/06 12:42 p -11.5 -11.4 -11.5 --- --- 25.2 E 0.42 28.7 -23.4 --- --- 731.9 0.021 0.000 7.6 7 1
02/05/06 12:43 p -11.5 -11.5 -11.5 --- --- 23.5 E 0.39 27.8 -23.1 --- --- 731.9 0.021 0.000 7.6 7 1
02/05/06 12:44 p -11.5 -11.4 -11.5 --- --- 24.3 E 0.41 30.4 -23.2 --- --- 731.9 0.021 0.000 7.6 7 1
02/05/06 12:45 p -11.5 -11.5 -11.6 --- --- 24.3 E 0.41 30.4 -23.2 --- --- 731.8 0.021 0.000 7.5 7 1
02/05/06 12:46 p -11.5 -11.5 -11.5 --- --- 25.2 E 0.42 31.3 -23.4 --- --- 731.9 0.021 0.000 7.5 7 1
02/05/06 12:47 p -11.5 -11.5 -11.5 --- --- 26.1 E 0.43 32.2 -23.6 --- --- 731.8 0.021 0.000 7.5 7 1
02/05/06 12:48 p -11.5 -11.5 -11.5 --- --- 26.1 E 0.43 29.6 -23.6 --- --- 731.9 0.021 0.000 7.5 7 1
02/05/06 12:49 p -11.5 -11.5 -11.6 --- --- 25.2 E 0.42 28.7 -23.4 --- --- 731.8 0.021 0.000 7.5 7 1
02/05/06 12:50 p -11.6 -11.5 -11.6 --- --- 26.1 E 0.43 30.4 -23.7 --- --- 731.9 0.021 0.000 7.5 7 1
02/05/06 12:51 p -11.6 -11.6 -11.6 --- --- 26.1 E 0.43 32.2 -23.7 --- --- 731.9 0.021 0.000 7.5 7 1
02/05/06 12:52 p -11.6 -11.6 -11.6 --- --- 27.0 E 0.45 30.4 -23.8 --- --- 731.8 0.021 0.000 7.5 7 1
02/05/06 12:53 p -11.6 -11.6 -11.6 --- --- 28.7 E 0.48 31.3 -24.1 --- --- 731.9 0.021 0.000 7.5 7 1
02/05/06 12:54 p -11.6 -11.6 -11.6 --- --- 27.0 E 0.45 29.6 -23.8 --- --- 731.8 0.021 0.000 7.4 7 1
02/05/06 12:55 p -11.6 -11.6 -11.6 --- --- 28.7 E 0.48 32.2 -24.1 --- --- 731.8 0.021 0.000 7.4 7 1
02/05/06 12:56 p -11.6 -11.6 -11.6 --- --- 27.8 E 0.46 32.2 -23.9 --- --- 731.8 0.021 0.000 7.4 7 1
02/05/06 12:57 p -11.6 -11.6 -11.6 --- --- 27.8 E 0.46 31.3 -23.9 --- --- 731.7 0.021 0.000 7.4 7 1
02/05/06 12:58 p -11.6 -11.6 -11.6 --- --- 31.3 E 0.52 35.7 -24.5 --- --- 731.7 0.021 0.000 7.4 7 1
02/05/06 12:59 p -11.6 -11.6 -11.6 --- --- 27.8 E 0.46 33.0 -24.0 --- --- 731.7 0.021 0.000 7.4 7 1
02/05/06 1:00 p -11.6 -11.6 -11.6 --- --- 28.7 E 0.48 33.0 -24.1 --- --- 731.7 0.021 0.000 7.4 7 1
02/05/06 1:01 p -11.6 -11.6 -11.6 --- --- 27.0 E 0.45 31.3 -23.8 --- --- 731.9 0.021 0.000 7.4 7 1
02/05/06 1:02 p -11.6 -11.6 -11.6 --- --- 27.8 E 0.46 32.2 -23.9 --- --- 731.8 0.021 0.000 7.4 7 1
02/05/06 1:03 p -11.6 -11.6 -11.6 --- --- 29.6 E 0.49 33.0 -24.2 --- --- 731.8 0.021 0.000 7.4 7 1
02/05/06 1:04 p -11.6 -11.6 -11.6 --- --- 28.7 E 0.48 33.0 -24.1 --- --- 731.9 0.021 0.000 7.4 7 1
02/05/06 1:05 p -11.6 -11.5 -11.6 --- --- 27.8 E 0.46 33.0 -23.9 --- --- 731.7 0.021 0.000 7.4 7 1
02/05/06 1:06 p -11.5 -11.5 -11.6 --- --- 27.8 E 0.46 32.2 -23.9 --- --- 731.8 0.021 0.000 7.4 7 1
02/05/06 1:07 p -11.6 -11.6 -11.6 --- --- 27.0 E 0.45 32.2 -23.8 --- --- 731.9 0.021 0.000 7.4 7 1
02/05/06 1:08 p -11.6 -11.6 -11.6 --- --- 27.8 E 0.46 31.3 -23.9 --- --- 731.8 0.021 0.000 7.4 7 1
02/05/06 1:09 p -11.6 -11.6 -11.6 --- --- 28.7 E 0.48 33.0 -24.1 --- --- 731.8 0.021 0.000 7.4 7 1
02/05/06 1:10 p -11.6 -11.6 -11.6 --- --- 28.7 E 0.48 35.7 -24.1 --- --- 731.8 0.021 0.000 7.4 7 1
02/05/06 1:11 p -11.6 -11.6 -11.6 --- --- 27.0 E 0.45 29.6 -23.8 --- --- 731.8 0.021 0.000 7.4 7 1
02/05/06 1:12 p -11.6 -11.6 -11.6 --- --- 27.8 E 0.46 31.3 -23.9 --- --- 731.7 0.021 0.000 7.4 7 1
02/05/06 1:13 p -11.6 -11.6 -11.6 --- --- 27.8 E 0.46 32.2 -23.9 --- --- 731.9 0.021 0.000 7.4 7 1
02/05/06 1:14 p -11.5 -11.5 -11.6 --- --- 29.6 E 0.49 33.9 -24.2 --- --- 731.8 0.021 0.000 7.4 7 1
02/05/06 1:15 p -11.6 -11.5 -11.6 --- --- 27.8 E 0.46 32.2 -23.9 --- --- 731.9 0.021 0.000 7.4 7 1
02/05/06 1:16 p -11.5 -11.5 -11.6 --- --- 27.8 E 0.46 32.2 -23.9 --- --- 731.8 0.021 0.000 7.4 7 1
02/05/06 1:17 p -11.5 -11.5 -11.6 --- --- 27.8 E 0.46 33.9 -23.9 --- --- 731.8 0.021 0.000 7.3 7 1
02/05/06 1:18 p -11.6 -11.5 -11.6 --- --- 27.0 E 0.45 31.3 -23.8 --- --- 731.7 0.021 0.000 7.3 7 1
02/05/06 1:19 p -11.5 -11.5 -11.6 --- --- 28.7 E 0.48 31.3 -24.0 --- --- 731.7 0.021 0.000 7.3 7 1
02/05/06 1:20 p -11.5 -11.5 -11.6 --- --- 27.0 E 0.45 30.4 -23.7 --- --- 731.9 0.021 0.000 7.3 7 1
02/05/06 1:21 p -11.5 -11.5 -11.6 --- --- 28.7 E 0.48 34.8 -24.0 --- --- 731.7 0.021 0.000 7.3 7 1
02/05/06 1:22 p -11.6 -11.6 -11.6 --- --- 27.0 E 0.45 32.2 -23.8 --- --- 731.7 0.021 0.000 7.3 7 1
02/05/06 1:23 p -11.6 -11.6 -11.6 --- --- 27.8 E 0.46 31.3 -23.9 --- --- 731.7 0.021 0.000 7.3 7 1
02/05/06 1:24 p -11.6 -11.6 -11.6 --- --- 28.7 E 0.48 32.2 -24.1 --- --- 731.7 0.021 0.000 7.3 7 1
02/05/06 1:25 p -11.6 -11.6 -11.6 --- --- 29.6 E 0.49 34.8 -24.2 --- --- 731.8 0.021 0.000 7.3 7 1
02/05/06 1:26 p -11.6 -11.5 -11.6 --- --- 27.8 E 0.46 33.0 -23.9 --- --- 731.8 0.021 0.000 7.3 7 1
02/05/06 1:27 p -11.5 -11.5 -11.6 --- --- 27.0 E 0.45 31.3 -23.7 --- --- 731.6 0.021 0.000 7.3 7 1
02/05/06 1:28 p -11.5 -11.5 -11.5 --- --- 27.8 E 0.46 33.0 -23.9 --- --- 731.7 0.021 0.000 7.3 7 1
02/05/06 1:29 p -11.5 -11.5 -11.5 --- --- 27.0 E 0.45 37.4 -23.7 --- --- 731.7 0.021 0.000 7.3 7 1
02/05/06 1:30 p -11.5 -11.4 -11.5 --- --- 28.7 E 0.48 33.9 -24.0 --- --- 731.7 0.021 0.000 7.2 7 1
02/05/06 1:31 p -11.4 -11.4 -11.4 --- --- 27.0 E 0.45 35.7 -23.7 --- --- 731.8 0.021 0.000 7.2 7 1
02/05/06 1:32 p -11.4 -11.4 -11.4 --- --- 28.7 E 0.48 33.0 -23.9 --- --- 731.7 0.021 0.000 7.2 7 1
02/05/06 1:33 p -11.4 -11.4 -11.4 --- --- 27.8 E 0.46 33.0 -23.8 --- --- 731.8 0.021 0.000 7.2 7 1
02/05/06 1:34 p -11.4 -11.4 -11.4 --- --- 28.7 E 0.48 32.2 -23.9 --- --- 731.7 0.021 0.000 7.2 7 1
02/05/06 1:35 p -11.4 -11.4 -11.4 --- --- 27.8 E 0.46 32.2 -23.7 --- --- 731.7 0.021 0.000 7.2 7 1
02/05/06 1:36 p -11.4 -11.4 -11.4 --- --- 29.6 E 0.49 33.9 -24.0 --- --- 731.7 0.021 0.000 7.3 7 1
02/05/06 1:37 p -11.3 -11.3 -11.4 --- --- 28.7 E 0.48 32.2 -23.8 --- --- 731.7 0.021 0.000 7.3 7 1
02/05/06 1:38 p -11.4 -11.3 -11.4 --- --- 27.0 E 0.45 32.2 -23.6 --- --- 731.7 0.021 0.000 7.3 7 1
02/05/06 1:39 p -11.3 -11.3 -11.3 --- --- 27.8 E 0.46 32.2 -23.7 --- --- 731.7 0.021 0.000 7.3 7 1
02/05/06 1:40 p -11.4 -11.3 -11.4 --- --- 26.1 E 0.43 30.4 -23.4 --- --- 731.7 0.021 0.000 7.3 7 1
02/05/06 1:41 p -11.3 -11.3 -11.3 --- --- 27.8 E 0.46 32.2 -23.7 --- --- 731.8 0.021 0.000 7.3 7 1
02/05/06 1:42 p -11.4 -11.3 -11.4 --- --- 27.0 E 0.45 31.3 -23.6 --- --- 731.8 0.021 0.000 7.3 7 1
02/05/06 1:43 p -11.3 -11.3 -11.3 --- --- 27.0 E 0.45 33.0 -23.5 --- --- 731.8 0.021 0.000 7.3 7 1
02/05/06 1:44 p -11.3 -11.3 -11.3 --- --- 29.6 E 0.49 32.2 -23.9 --- --- 731.7 0.021 0.000 7.3 7 1
02/05/06 1:45 p -11.3 -11.3 -11.3 --- --- 26.1 E 0.43 30.4 -23.3 --- --- 731.7 0.021 0.000 7.3 7 1
02/05/06 1:46 p -11.3 -11.3 -11.3 --- --- 27.8 E 0.46 31.3 -23.7 --- --- 731.8 0.021 0.000 7.3 7 1
02/05/06 1:47 p -11.3 -11.3 -11.3 --- --- 27.0 E 0.45 30.4 -23.4 --- --- 731.9 0.021 0.000 7.3 7 1
02/05/06 1:48 p -11.3 -11.3 -11.3 --- --- 27.8 E 0.46 30.4 -23.7 --- --- 731.7 0.021 0.000 7.3 7 1
02/05/06 1:49 p -11.3 -11.3 -11.3 --- --- 29.6 E 0.49 34.8 -23.8 --- --- 731.9 0.021 0.000 7.3 7 1
02/05/06 1:50 p -11.3 -11.3 -11.3 --- --- 27.0 E 0.45 30.4 -23.4 --- --- 731.9 0.021 0.000 7.3 7 1
02/05/06 1:51 p -11.3 -11.3 -11.3 --- --- 27.0 E 0.45 33.9 -23.4 --- --- 731.7 0.021 0.000 7.3 7 1
02/05/06 1:52 p -11.3 -11.3 -11.3 --- --- 26.1 E 0.43 30.4 -23.3 --- --- 731.8 0.021 0.000 7.3 7 1
02/05/06 1:53 p -11.3 -11.3 -11.3 --- --- 26.1 E 0.43 30.4 -23.3 --- --- 731.8 0.021 0.000 7.3 7 1
02/05/06 1:54 p -11.3 -11.2 -11.3 --- --- 26.1 E 0.43 30.4 -23.3 --- --- 731.8 0.021 0.000 7.3 7 1
02/05/06 1:55 p -11.2 -11.2 -11.3 --- --- 28.7 E 0.48 32.2 -23.7 --- --- 731.7 0.021 0.000 7.3 7 1
02/05/06 1:56 p -11.2 -11.2 -11.3 --- --- 27.8 E 0.46 33.0 -23.5 --- --- 731.7 0.021 0.000 7.3 7 1
02/05/06 1:57 p -11.2 -11.2 -11.2 --- --- 27.0 E 0.45 33.0 -23.3 --- --- 731.8 0.021 0.000 7.3 7 1
02/05/06 1:58 p -11.2 -11.2 -11.2 --- --- 27.0 E 0.45 33.0 -23.3 --- --- 731.7 0.021 0.000 7.3 7 1
02/05/06 1:59 p -11.2 -11.2 -11.2 --- --- 29.6 E 0.49 34.8 -23.8 --- --- 731.7 0.021 0.000 7.3 7 1
02/05/06 2:00 p -11.2 -11.2 -11.2 --- --- 29.6 E 0.49 33.9 -23.8 --- --- 731.8 0.021 0.000 7.3 7 1
02/05/06 2:02 p -11.2 -11.2 -11.2 --- --- 28.7 E 0.48 32.2 -23.6 --- --- 731.7 0.020 0.000 7.3 7 1
02/05/06 2:03 p -11.2 -11.2 -11.2 --- --- 30.4 E 0.51 33.9 -23.8 --- --- 731.7 0.020 0.000 7.3 7 1
02/05/06 2:04 p -11.2 -11.1 -11.2 --- --- 28.7 E 0.48 33.0 -23.6 --- --- 731.7 0.020 0.000 7.3 7 1
02/05/06 2:05 p -11.2 -11.1 -11.2 --- --- 27.8 E 0.46 33.0 -23.4 --- --- 731.7 0.020 0.000 7.3 7 1
02/05/06 2:06 p -11.1 -11.1 -11.2 --- --- 28.7 E 0.48 33.0 -23.5 --- --- 731.7 0.020 0.000 7.3 7 1
02/05/06 2:07 p -11.1 -11.1 -11.1 --- --- 25.2 E 0.42 33.0 -22.9 --- --- 731.7 0.020 0.000 7.3 7 1
02/05/06 2:08 p -11.1 -11.1 -11.1 --- --- 30.4 E 0.51 33.9 -23.8 --- --- 731.7 0.020 0.000 7.3 7 1
02/05/06 2:09 p -11.1 -11.1 -11.1 --- --- 31.3 E 0.52 33.9 -23.9 --- --- 731.8 0.020 0.000 7.3 7 1
02/05/06 2:10 p -11.1 -11.1 -11.1 --- --- 27.8 E 0.46 32.2 -23.3 --- --- 731.7 0.020 0.000 7.3 7 1
02/05/06 2:11 p -11.1 -11.1 -11.1 --- --- 27.0 E 0.45 33.0 -23.2 --- --- 731.8 0.020 0.000 7.3 7 1
02/05/06 2:12 p -11.1 -11.1 -11.1 --- --- 27.0 E 0.45 32.2 -23.2 --- --- 731.8 0.020 0.000 7.3 7 1
02/05/06 2:13 p -11.1 -11.1 -11.1 --- --- 27.0 E 0.45 33.0 -23.1 --- --- 731.8 0.020 0.000 7.3 7 1
02/05/06 2:14 p -11.1 -11.1 -11.1 --- --- 27.8 E 0.46 32.2 -23.3 --- --- 731.8 0.020 0.000 7.2 7 1
02/05/06 2:15 p -11.1 -11.1 -11.1 --- --- 26.1 E 0.43 30.4 -22.9 --- --- 731.9 0.020 0.000 7.2 7 1
02/05/06 2:16 p -11.1 -11.1 -11.1 --- --- 26.1 E 0.43 28.7 -23.1 --- --- 731.8 0.020 0.000 7.2 7 1
02/05/06 2:17 p -11.1 -11.1 -11.1 --- --- 27.8 E 0.46 30.4 -23.3 --- --- 731.8 0.020 0.000 7.2 7 1
02/05/06 2:18 p -11.1 -11.1 -11.1 --- --- 29.6 E 0.49 33.0 -23.6 --- --- 731.9 0.020 0.000 7.2 7 1
02/05/06 2:19 p -11.1 -11.1 -11.1 --- --- 27.0 E 0.45 30.4 -23.2 --- --- 731.9 0.020 0.000 7.2 7 1
02/05/06 2:20 p -11.1 -11.1 -11.1 --- --- 26.1 E 0.43 31.3 -23.1 --- --- 731.9 0.020 0.000 7.2 7 1
02/05/06 2:21 p -11.1 -11.1 -11.1 --- --- 27.0 E 0.45 30.4 -23.2 --- --- 731.9 0.020 0.000 7.2 7 1
02/05/06 2:22 p -11.1 -11.1 -11.1 --- --- 27.0 E 0.45 30.4 -23.2 --- --- 731.9 0.020 0.000 7.2 7 1
02/05/06 2:23 p -11.1 -11.1 -11.1 --- --- 26.1 E 0.43 27.8 -23.1 --- --- 731.9 0.020 0.000 7.2 7 1
02/05/06 2:24 p -11.1 -11.1 -11.1 --- --- 26.1 E 0.43 29.6 -23.1 --- --- 732.0 0.020 0.000 7.2 7 1
02/05/06 2:25 p -11.1 -11.1 -11.1 --- --- 26.1 E 0.43 31.3 -22.9 --- --- 731.9 0.020 0.000 7.2 7 1
02/05/06 2:26 p -11.1 -11.1 -11.1 --- --- 27.0 E 0.45 30.4 -23.2 --- --- 732.0 0.020 0.000 7.2 7 1
02/05/06 2:27 p -11.1 -11.1 -11.1 --- --- 27.0 E 0.45 30.4 -23.2 --- --- 732.0 0.020 0.000 7.2 7 1
02/05/06 2:28 p -11.1 -11.1 -11.1 --- --- 24.3 E 0.41 27.0 -22.7 --- --- 732.0 0.020 0.000 7.1 7 1
02/05/06 2:29 p -11.2 -11.2 -11.2 --- --- 26.1 E 0.43 28.7 -23.1 --- --- 732.1 0.020 0.000 7.1 7 1
02/05/06 2:30 p -11.2 -11.2 -11.2 --- --- 26.1 E 0.43 30.4 -23.1 --- --- 732.0 0.020 0.000 7.1 7 1
02/05/06 2:31 p -11.2 -11.2 -11.2 --- --- 26.1 E 0.43 29.6 -23.1 --- --- 732.0 0.020 0.000 7.1 7 1
02/05/06 2:32 p -11.2 -11.2 -11.2 --- --- 26.1 E 0.43 29.6 -23.1 --- --- 732.1 0.020 0.000 7.1 7 1
02/05/06 2:33 p -11.2 -11.2 -11.2 --- --- 25.2 E 0.42 29.6 -23.1 --- --- 732.1 0.021 0.000 7.1 7 1
02/05/06 2:34 p -11.2 -11.2 -11.3 --- --- 26.1 E 0.43 31.3 -23.2 --- --- 732.0 0.021 0.000 7.1 7 1
02/05/06 2:35 p -11.3 -11.2 -11.3 --- --- 24.3 E 0.41 29.6 -22.9 --- --- 732.1 0.021 0.000 7.1 7 1
02/05/06 2:36 p -11.2 -11.2 -11.3 --- --- 25.2 E 0.42 31.3 -23.1 --- --- 732.1 0.021 0.000 7.1 7 1
02/05/06 2:37 p -11.2 -11.2 -11.3 --- --- 26.1 E 0.43 29.6 -23.2 --- --- 732.1 0.021 0.000 7.1 7 1
02/05/06 2:38 p -11.3 -11.3 -11.3 --- --- 25.2 E 0.42 29.6 -23.1 --- --- 732.0 0.021 0.000 7.1 7 1
02/05/06 2:39 p -11.3 -11.3 -11.3 --- --- 26.1 E 0.43 30.4 -23.3 --- --- 732.1 0.021 0.000 7.1 7 1
02/05/06 2:40 p -11.3 -11.3 -11.3 --- --- 25.2 E 0.42 28.7 -23.1 --- --- 732.0 0.021 0.000 7.1 7 1
02/05/06 2:41 p -11.3 -11.3 -11.3 --- --- 27.0 E 0.45 30.4 -23.4 --- --- 732.1 0.021 0.000 7.1 7 1
02/05/06 2:42 p -11.3 -11.3 -11.3 --- --- 26.1 E 0.43 28.7 -23.3 --- --- 732.1 0.021 0.000 7.1 7 1
02/05/06 2:43 p -11.3 -11.3 -11.3 --- --- 26.1 E 0.43 31.3 -23.3 --- --- 732.0 0.021 0.000 7.0 7 1
02/05/06 2:44 p -11.3 -11.3 -11.3 --- --- 24.3 E 0.41 29.6 -23.0 --- --- 732.1 0.021 0.000 7.0 7 1
02/05/06 2:45 p -11.3 -11.3 -11.4 --- --- 27.0 E 0.45 30.4 -23.5 --- --- 732.0 0.021 0.000 7.0 7 1
02/05/06 2:46 p -11.3 -11.3 -11.3 --- --- 26.1 E 0.43 31.3 -23.3 --- --- 732.1 0.021 0.000 7.0 7 1
02/05/06 2:47 p -11.3 -11.3 -11.4 --- --- 26.1 E 0.43 30.4 -23.3 --- --- 732.1 0.021 0.000 7.0 7 1
02/05/06 2:48 p -11.3 -11.3 -11.4 --- --- 25.2 E 0.42 32.2 -23.2 --- --- 732.1 0.021 0.000 7.0 7 1
02/05/06 2:49 p -11.4 -11.4 -11.4 --- --- 25.2 E 0.42 29.6 -23.3 --- --- 732.0 0.021 0.000 7.0 7 1
02/05/06 2:50 p -11.4 -11.4 -11.4 --- --- 27.0 E 0.45 29.6 -23.6 --- --- 732.1 0.021 0.000 7.0 7 1
02/05/06 2:51 p -11.4 -11.4 -11.4 --- --- 24.3 E 0.41 27.0 -23.1 --- --- 732.1 0.021 0.000 7.0 7 1
02/05/06 2:52 p -11.4 -11.4 -11.4 --- --- 25.2 E 0.42 30.4 -23.3 --- --- 732.1 0.021 0.000 7.0 7 1
02/05/06 2:53 p -11.4 -11.4 -11.4 --- --- 25.2 E 0.42 27.8 -23.3 --- --- 732.1 0.021 0.000 7.0 7 1
02/05/06 2:54 p -11.4 -11.4 -11.4 --- --- 23.5 E 0.39 27.8 -22.9 --- --- 732.0 0.021 0.000 7.0 7 1
02/05/06 2:55 p -11.4 -11.4 -11.4 --- --- 26.1 E 0.43 30.4 -23.4 --- --- 732.0 0.021 0.000 7.0 7 1
02/05/06 2:56 p -11.4 -11.4 -11.4 --- --- 27.0 E 0.45 30.4 -23.6 --- --- 732.2 0.021 0.000 7.0 7 1
02/05/06 2:57 p -11.4 -11.4 -11.4 --- --- 25.2 E 0.42 29.6 -23.3 --- --- 732.1 0.021 0.000 7.0 7 1
02/05/06 2:58 p -11.4 -11.4 -11.4 --- --- 27.8 E 0.46 30.4 -23.8 --- --- 732.0 0.021 0.000 6.9 7 1
02/05/06 2:59 p -11.4 -11.4 -11.5 --- --- 27.8 E 0.46 31.3 -23.8 --- --- 731.9 0.021 0.000 6.9 7 1
02/05/06 3:00 p -11.5 -11.5 -11.5 --- --- 24.3 E 0.41 27.0 -23.2 --- --- 732.0 0.021 0.000 6.9 7 1
02/05/06 3:02 p -11.5 -11.4 -11.5 --- --- 26.1 E 0.43 29.6 -23.6 --- --- 732.0 0.021 0.000 6.9 7 1
02/05/06 3:03 p -11.5 -11.5 -11.5 --- --- 27.0 E 0.45 32.2 -23.7 --- --- 731.9 0.021 0.000 6.9 7 1
02/05/06 3:04 p -11.5 -11.5 -11.5 --- --- 28.7 E 0.48 32.2 -24.0 --- --- 731.9 0.021 0.000 6.9 7 1
02/05/06 3:05 p -11.5 -11.5 -11.6 --- --- 27.8 E 0.46 31.3 -23.9 --- --- 731.9 0.021 0.000 6.9 7 1
02/05/06 3:06 p -11.5 -11.5 -11.6 --- --- 27.8 E 0.46 33.9 -23.9 --- --- 731.9 0.021 0.000 6.9 7 1
02/05/06 3:07 p -11.5 -11.5 -11.5 --- --- 27.8 E 0.46 33.0 -23.9 --- --- 732.0 0.021 0.000 6.9 7 1
02/05/06 3:08 p -11.5 -11.5 -11.6 --- --- 27.8 E 0.46 30.4 -23.9 --- --- 732.0 0.021 0.000 6.9 7 1
02/05/06 3:09 p -11.6 -11.5 -11.6 --- --- 28.7 E 0.48 33.0 -24.1 --- --- 732.0 0.021 0.000 6.9 7 1
02/05/06 3:10 p -11.6 -11.6 -11.6 --- --- 27.0 E 0.45 30.4 -23.8 --- --- 731.9 0.021 0.000 6.9 7 1
02/05/06 3:11 p -11.6 -11.6 -11.6 --- --- 28.7 E 0.48 32.2 -24.1 --- --- 731.9 0.021 0.000 6.9 7 1
02/05/06 3:12 p -11.6 -11.6 -11.6 --- --- 28.7 E 0.48 32.2 -24.1 --- --- 731.9 0.021 0.000 6.9 7 1
02/05/06 3:13 p -11.6 -11.6 -11.6 --- --- 27.8 E 0.46 32.2 -23.9 --- --- 732.0 0.021 0.000 6.9 7 1
02/05/06 3:14 p -11.6 -11.5 -11.6 --- --- 26.1 E 0.43 30.4 -23.7 --- --- 732.0 0.021 0.000 6.9 7 1
02/05/06 3:15 p -11.5 -11.5 -11.6 --- --- 27.0 E 0.45 31.3 -23.7 --- --- 732.0 0.021 0.000 6.9 7 1
02/05/06 3:16 p -11.6 -11.5 -11.6 --- --- 26.1 E 0.43 30.4 -23.7 --- --- 731.9 0.021 0.000 6.9 7 1
02/05/06 3:17 p -11.6 -11.5 -11.6 --- --- 27.8 E 0.46 30.4 -23.9 --- --- 731.9 0.021 0.000 6.9 7 1
02/05/06 3:18 p -11.5 -11.5 -11.6 --- --- 27.0 E 0.45 30.4 -23.7 --- --- 731.9 0.021 0.000 6.9 7 1
02/05/06 3:19 p -11.5 -11.5 -11.6 --- --- 26.1 E 0.43 31.3 -23.6 --- --- 731.8 0.021 0.000 6.9 7 1
02/05/06 3:20 p -11.5 -11.5 -11.5 --- --- 27.8 E 0.46 33.0 -23.9 --- --- 731.9 0.021 0.000 6.9 7 1
02/05/06 3:21 p -11.5 -11.5 -11.5 --- --- 27.0 E 0.45 32.2 -23.7 --- --- 731.8 0.021 0.000 6.9 7 1
02/05/06 3:22 p -11.5 -11.5 -11.5 --- --- 27.0 E 0.45 31.3 -23.7 --- --- 731.7 0.021 0.000 6.8 7 1
02/05/06 3:23 p -11.6 -11.5 -11.6 --- --- 27.0 E 0.45 33.0 -23.8 --- --- 731.7 0.021 0.000 6.8 7 1
02/05/06 3:24 p -11.5 -11.5 -11.6 --- --- 28.7 E 0.48 33.0 -24.0 --- --- 731.8 0.021 0.000 6.8 7 1
02/05/06 3:25 p -11.5 -11.5 -11.5 --- --- 26.1 E 0.43 30.4 -23.6 --- --- 731.8 0.021 0.000 6.8 7 1
02/05/06 3:26 p -11.5 -11.5 -11.5 --- --- 26.1 E 0.43 30.4 -23.6 --- --- 731.9 0.021 0.000 6.9 7 1
02/05/06 3:27 p -11.5 -11.5 -11.5 --- --- 26.1 E 0.43 29.6 -23.6 --- --- 732.0 0.021 0.000 6.8 7 1
02/05/06 3:28 p -11.4 -11.4 -11.5 --- --- 26.1 E 0.43 29.6 -23.5 --- --- 731.9 0.021 0.000 6.8 7 1
02/05/06 3:29 p -11.5 -11.5 -11.5 --- --- 26.1 E 0.43 31.3 -23.6 --- --- 731.8 0.021 0.000 6.8 7 1
02/05/06 3:30 p -11.4 -11.4 -11.5 --- --- 27.8 E 0.46 33.0 -23.8 --- --- 731.8 0.021 0.000 6.8 7 1
02/05/06 3:31 p -11.4 -11.4 -11.5 --- --- 27.0 E 0.45 30.4 -23.7 --- --- 731.8 0.021 0.000 6.8 7 1
02/05/06 3:32 p -11.4 -11.4 -11.5 --- --- 26.1 E 0.43 31.3 -23.5 --- --- 731.8 0.021 0.000 6.8 7 1
02/05/06 3:33 p -11.5 -11.5 -11.5 --- --- 27.8 E 0.46 31.3 -23.9 --- --- 731.8 0.021 0.000 6.8 7 1
02/05/06 3:34 p -11.5 -11.5 -11.5 --- --- 26.1 E 0.43 32.2 -23.6 --- --- 731.7 0.021 0.000 6.8 7 1
02/05/06 3:35 p -11.5 -11.5 -11.5 --- --- 27.0 E 0.45 33.9 -23.7 --- --- 731.8 0.021 0.000 6.8 7 1
02/05/06 3:36 p -11.5 -11.5 -11.5 --- --- 27.0 E 0.45 30.4 -23.7 --- --- 731.9 0.021 0.000 6.8 7 1
02/05/06 3:37 p -11.5 -11.5 -11.5 --- --- 26.1 E 0.43 32.2 -23.6 --- --- 731.9 0.021 0.000 6.8 7 1
02/05/06 3:38 p -11.5 -11.5 -11.5 --- --- 27.0 E 0.45 31.3 -23.7 --- --- 731.9 0.021 0.000 6.8 7 1
02/05/06 3:39 p -11.5 -11.5 -11.5 --- --- 26.1 E 0.43 30.4 -23.6 --- --- 732.0 0.021 0.000 6.8 7 1
02/05/06 3:40 p -11.5 -11.5 -11.5 --- --- 27.8 E 0.46 30.4 -23.9 --- --- 731.9 0.021 0.000 6.8 7 1
02/05/06 3:41 p -11.5 -11.5 -11.5 --- --- 27.0 E 0.45 31.3 -23.7 --- --- 731.9 0.021 0.000 6.8 7 1
02/05/06 3:42 p -11.5 -11.5 -11.5 --- --- 25.2 E 0.42 29.6 -23.4 --- --- 731.8 0.021 0.000 6.8 7 1
02/05/06 3:43 p -11.5 -11.4 -11.5 --- --- 27.0 E 0.45 29.6 -23.7 --- --- 731.8 0.021 0.000 6.7 7 1
02/05/06 3:44 p -11.5 -11.4 -11.5 --- --- 27.0 E 0.45 31.3 -23.7 --- --- 731.8 0.021 0.000 6.7 7 1
02/05/06 3:45 p -11.5 -11.5 -11.5 --- --- 27.0 E 0.45 32.2 -23.7 --- --- 731.9 0.021 0.000 6.7 7 1
02/05/06 3:46 p -11.4 -11.4 -11.4 --- --- 27.0 E 0.45 31.3 -23.7 --- --- 731.9 0.021 0.000 6.7 7 1
02/05/06 3:47 p -11.4 -11.4 -11.4 --- --- 27.8 E 0.46 30.4 -23.8 --- --- 731.8 0.021 0.000 6.7 7 1
02/05/06 3:48 p -11.4 -11.4 -11.4 --- --- 27.8 E 0.46 33.0 -23.8 --- --- 731.7 0.021 0.000 6.7 7 1
02/05/06 3:49 p -11.4 -11.4 -11.4 --- --- 27.0 E 0.45 29.6 -23.7 --- --- 731.9 0.021 0.000 6.7 7 1
02/05/06 3:50 p -11.4 -11.4 -11.4 --- --- 27.0 E 0.45 31.3 -23.6 --- --- 731.7 0.021 0.000 6.7 7 1
02/05/06 3:51 p -11.4 -11.4 -11.4 --- --- 28.7 E 0.48 32.2 -23.9 --- --- 731.8 0.021 0.000 6.7 7 1
02/05/06 3:52 p -11.4 -11.4 -11.4 --- --- 27.8 E 0.46 33.0 -23.7 --- --- 731.8 0.021 0.000 6.7 7 1
02/05/06 3:53 p -11.4 -11.4 -11.4 --- --- 27.0 E 0.45 31.3 -23.6 --- --- 731.8 0.021 0.000 6.7 7 1
02/05/06 3:54 p -11.4 -11.4 -11.4 --- --- 25.2 E 0.42 31.3 -23.3 --- --- 731.7 0.021 0.000 6.7 7 1
02/05/06 3:55 p -11.4 -11.4 -11.4 --- --- 28.7 E 0.48 33.9 -23.9 --- --- 731.8 0.021 0.000 6.7 7 1
02/05/06 3:56 p -11.4 -11.4 -11.4 --- --- 27.0 E 0.45 32.2 -23.6 --- --- 731.9 0.021 0.000 6.7 7 1
02/05/06 3:57 p -11.4 -11.4 -11.4 --- --- 26.1 E 0.43 29.6 -23.4 --- --- 731.7 0.021 0.000 6.7 7 1
02/05/06 3:58 p -11.4 -11.4 -11.4 --- --- 28.7 E 0.48 33.9 -23.9 --- --- 731.8 0.021 0.000 6.7 7 1
02/05/06 3:59 p -11.4 -11.4 -11.4 --- --- 25.2 E 0.42 29.6 -23.3 --- --- 731.7 0.021 0.000 6.8 7 1
02/05/06 4:00 p -11.4 -11.4 -11.4 --- --- 28.7 E 0.48 33.9 -23.9 --- --- 731.7 0.021 0.000 6.8 7 1
02/05/06 4:02 p -11.4 -11.4 -11.4 --- --- 28.7 E 0.48 34.8 -23.9 --- --- 731.7 0.021 0.000 6.8 7 1
02/05/06 4:03 p -11.4 -11.4 -11.4 --- --- 27.0 E 0.45 29.6 -23.6 --- --- 731.8 0.021 0.000 6.8 7 1
02/05/06 4:04 p -11.4 -11.4 -11.4 --- --- 27.8 E 0.46 32.2 -23.8 --- --- 731.7 0.021 0.000 6.9 7 1
02/05/06 4:05 p -11.4 -11.4 -11.4 --- --- 28.7 E 0.48 33.0 -23.9 --- --- 731.7 0.021 0.000 6.9 7 1
02/05/06 4:06 p -11.4 -11.4 -11.4 --- --- 28.7 E 0.48 33.0 -23.9 --- --- 731.6 0.021 0.000 6.9 7 1
02/05/06 4:07 p -11.4 -11.4 -11.4 --- --- 28.7 E 0.48 33.0 -23.9 --- --- 731.7 0.021 0.000 6.9 7 1
02/05/06 4:08 p -11.4 -11.4 -11.4 --- --- 27.8 E 0.46 32.2 -23.8 --- --- 731.7 0.021 0.000 6.9 7 1
02/05/06 4:09 p -11.4 -11.4 -11.4 --- --- 27.0 E 0.45 33.0 -23.7 --- --- 731.7 0.021 0.000 7.0 7 1
02/05/06 4:10 p -11.4 -11.4 -11.4 --- --- 25.2 E 0.42 30.4 -23.3 --- --- 731.8 0.021 0.000 7.0 7 1
02/05/06 4:11 p -11.4 -11.4 -11.4 --- --- 27.0 E 0.45 31.3 -23.7 --- --- 731.8 0.021 0.000 7.0 7 1
02/05/06 4:12 p -11.4 -11.4 -11.4 --- --- 28.7 E 0.48 32.2 -23.9 --- --- 731.6 0.021 0.000 7.0 7 1
02/05/06 4:13 p -11.4 -11.4 -11.5 --- --- 27.8 E 0.46 32.2 -23.8 --- --- 731.7 0.021 0.000 7.0 7 1
02/05/06 4:14 p -11.4 -11.4 -11.5 --- --- 28.7 E 0.48 33.9 -23.9 --- --- 731.7 0.021 0.000 7.0 7 1
02/05/06 4:15 p -11.5 -11.4 -11.5 --- --- 27.8 E 0.46 31.3 -23.9 --- --- 731.7 0.021 0.000 6.9 7 1
02/05/06 4:16 p -11.5 -11.5 -11.5 --- --- 27.0 E 0.45 31.3 -23.7 --- --- 731.7 0.021 0.000 6.9 7 1
02/05/06 4:17 p -11.4 -11.4 -11.5 --- --- 27.8 E 0.46 33.0 -23.8 --- --- 731.7 0.021 0.000 6.9 7 1
02/05/06 4:18 p -11.5 -11.4 -11.5 --- --- 26.1 E 0.43 29.6 -23.6 --- --- 731.8 0.021 0.000 6.9 7 1
02/05/06 4:19 p -11.5 -11.5 -11.5 --- --- 27.8 E 0.46 32.2 -23.9 --- --- 731.6 0.021 0.000 6.9 7 1
02/05/06 4:20 p -11.5 -11.5 -11.5 --- --- 27.8 E 0.46 32.2 -23.9 --- --- 731.6 0.021 0.000 6.9 7 1
02/05/06 4:21 p -11.5 -11.5 -11.5 --- --- 27.0 E 0.45 31.3 -23.7 --- --- 731.9 0.021 0.000 6.9 7 1
02/05/06 4:22 p -11.5 -11.5 -11.5 --- --- 26.1 E 0.43 30.4 -23.6 --- --- 731.7 0.021 0.000 6.9 7 1
02/05/06 4:23 p -11.5 -11.5 -11.6 --- --- 27.8 E 0.46 33.0 -23.9 --- --- 731.7 0.021 0.000 6.9 7 1
02/05/06 4:24 p -11.5 -11.5 -11.6 --- --- 27.8 E 0.46 32.2 -23.9 --- --- 731.7 0.021 0.000 6.9 7 1
02/05/06 4:25 p -11.5 -11.5 -11.6 --- --- 27.8 E 0.46 31.3 -23.9 --- --- 731.7 0.021 0.000 6.9 7 1
02/05/06 4:26 p -11.6 -11.6 -11.6 --- --- 27.0 E 0.45 31.3 -23.8 --- --- 731.7 0.021 0.000 6.9 7 1
02/05/06 4:27 p -11.6 -11.6 -11.6 --- --- 28.7 E 0.48 31.3 -24.1 --- --- 731.7 0.021 0.000 6.9 7 1
02/05/06 4:28 p -11.6 -11.6 -11.6 --- --- 29.6 E 0.49 34.8 -24.2 --- --- 731.6 0.021 0.000 6.9 7 1
02/05/06 4:29 p -11.6 -11.6 -11.6 --- --- 27.8 E 0.46 31.3 -23.9 --- --- 731.8 0.021 0.000 6.8 7 1
02/05/06 4:30 p -11.6 -11.6 -11.6 --- --- 25.2 E 0.42 28.7 -23.5 --- --- 731.6 0.021 0.000 6.8 7 1
02/05/06 4:31 p -11.6 -11.6 -11.6 --- --- 29.6 E 0.49 35.7 -24.2 --- --- 731.7 0.021 0.000 6.8 7 1
02/05/06 4:32 p -11.6 -11.6 -11.6 --- --- 27.8 E 0.46 29.6 -23.9 --- --- 731.7 0.021 0.000 6.8 7 1
02/05/06 4:33 p -11.6 -11.6 -11.6 --- --- 27.8 E 0.46 32.2 -23.9 --- --- 731.6 0.021 0.000 6.8 7 1
02/05/06 4:34 p -11.6 -11.6 -11.6 --- --- 27.0 E 0.45 30.4 -23.8 --- --- 731.7 0.021 0.000 6.8 7 1
02/05/06 4:35 p -11.6 -11.6 -11.6 --- --- 30.4 E 0.51 34.8 -24.4 --- --- 731.5 0.021 0.000 6.8 7 1
02/05/06 4:36 p -11.6 -11.6 -11.6 --- --- 28.7 E 0.48 33.0 -24.1 --- --- 731.7 0.021 0.000 6.8 7 1
02/05/06 4:37 p -11.6 -11.6 -11.6 --- --- 29.6 E 0.49 33.0 -24.3 --- --- 731.4 0.021 0.000 6.7 7 1
02/05/06 4:38 p -11.6 -11.6 -11.6 --- --- 27.8 E 0.46 33.0 -24.0 --- --- 731.7 0.021 0.000 6.7 7 1
02/05/06 4:39 p -11.6 -11.6 -11.6 --- --- 28.7 E 0.48 33.0 -24.2 --- --- 731.5 0.021 0.000 6.8 7 1
02/05/06 4:40 p -11.6 -11.6 -11.6 --- --- 28.7 E 0.48 33.9 -24.2 --- --- 731.6 0.021 0.000 6.8 7 1
02/05/06 4:41 p -11.6 -11.6 -11.6 --- --- 30.4 E 0.51 32.2 -24.4 --- --- 731.5 0.021 0.000 6.8 7 1
02/05/06 4:42 p -11.6 -11.6 -11.6 --- --- 29.6 E 0.49 33.9 -24.3 --- --- 731.7 0.021 0.000 6.7 7 1
02/05/06 4:43 p -11.6 -11.6 -11.6 --- --- 27.0 E 0.45 33.0 -23.9 --- --- 731.4 0.021 0.000 6.7 7 1
02/05/06 4:44 p -11.6 -11.6 -11.6 --- --- 30.4 E 0.51 35.7 -24.4 --- --- 731.6 0.021 0.000 6.7 7 1
02/05/06 4:45 p -11.7 -11.7 -11.7 --- --- 27.0 E 0.45 29.6 -23.9 --- --- 731.5 0.021 0.000 6.7 7 1
02/05/06 4:46 p -11.6 -11.6 -11.7 --- --- 31.3 E 0.52 35.7 -24.6 --- --- 731.6 0.021 0.000 6.7 7 1
02/05/06 4:47 p -11.6 -11.6 -11.6 --- --- 28.7 E 0.48 34.8 -24.2 --- --- 731.8 0.021 0.000 6.7 7 1
02/05/06 4:48 p -11.6 -11.6 -11.7 --- --- 26.1 E 0.43 33.0 -23.7 --- --- 731.4 0.021 0.000 6.7 7 1
02/05/06 4:49 p -11.7 -11.7 -11.7 --- --- 29.6 E 0.49 34.8 -24.4 --- --- 731.7 0.021 0.000 6.7 7 1
02/05/06 4:50 p -11.6 -11.6 -11.7 --- --- 28.7 E 0.48 33.0 -24.2 --- --- 731.6 0.021 0.000 6.7 7 1
02/05/06 4:51 p -11.6 -11.6 -11.6 --- --- 27.8 E 0.46 33.9 -24.0 --- --- 731.5 0.021 0.000 6.6 7 1
02/05/06 4:52 p -11.6 -11.6 -11.6 --- --- 27.8 E 0.46 31.3 -24.0 --- --- 731.6 0.021 0.000 6.6 7 1
02/05/06 4:53 p -11.6 -11.6 -11.7 --- --- 27.8 E 0.46 32.2 -24.0 --- --- 731.6 0.021 0.000 6.6 7 1
02/05/06 4:54 p -11.6 -11.6 -11.6 --- --- 27.0 E 0.45 31.3 -23.9 --- --- 731.5 0.021 0.000 6.6 7 1
02/05/06 4:55 p -11.6 -11.6 -11.7 --- --- 30.4 E 0.51 33.9 -24.4 --- --- 731.6 0.021 0.000 6.6 7 1
02/05/06 4:56 p -11.6 -11.6 -11.6 --- --- 27.8 E 0.46 33.0 -24.0 --- --- 731.5 0.021 0.000 6.7 7 1
02/05/06 4:57 p -11.6 -11.6 -11.6 --- --- 27.0 E 0.45 33.9 -23.9 --- --- 731.6 0.021 0.000 6.7 7 1
02/05/06 4:58 p -11.6 -11.6 -11.6 --- --- 29.6 E 0.49 33.9 -24.3 --- --- 731.5 0.021 0.000 6.7 7 1
02/05/06 4:59 p -11.6 -11.6 -11.7 --- --- 29.6 E 0.49 33.9 -24.3 --- --- 731.6 0.021 0.000 6.7 7 1
02/05/06 5:00 p -11.6 -11.6 -11.7 --- --- 27.8 E 0.46 32.2 -24.0 --- --- 731.5 0.021 0.000 6.7 7 1
02/05/06 5:01 p -11.6 -11.6 -11.6 --- --- 30.4 E 0.51 33.9 -24.4 --- --- 731.6 0.021 0.000 6.7 7 1
02/05/06 5:02 p -11.6 -11.6 -11.6 --- --- 29.6 E 0.49 32.2 -24.3 --- --- 731.6 0.021 0.000 6.8 7 1
02/05/06 5:03 p -11.6 -11.6 -11.6 --- --- 27.8 E 0.46 31.3 -24.0 --- --- 731.6 0.021 0.000 6.8 7 1
02/05/06 5:04 p -11.6 -11.6 -11.7 --- --- 27.0 E 0.45 31.3 -23.9 --- --- 731.5 0.021 0.000 6.8 7 1
02/05/06 5:05 p -11.6 -11.6 -11.7 --- --- 27.8 E 0.46 33.9 -24.0 --- --- 731.6 0.021 0.000 6.8 7 1
02/05/06 5:06 p -11.6 -11.6 -11.6 --- --- 27.0 E 0.45 32.2 -23.9 --- --- 731.5 0.021 0.000 6.8 7 1
02/05/06 5:07 p -11.6 -11.6 -11.6 --- --- 29.6 E 0.49 33.0 -24.3 --- --- 731.6 0.021 0.000 6.8 7 1
02/05/06 5:08 p -11.6 -11.6 -11.7 --- --- 28.7 E 0.48 32.2 -24.2 --- --- 731.6 0.021 0.000 6.9 7 1
02/05/06 5:09 p -11.6 -11.6 -11.6 --- --- 26.1 E 0.43 31.3 -23.7 --- --- 731.6 0.021 0.000 6.9 7 1
02/05/06 5:10 p -11.6 -11.6 -11.6 --- --- 28.7 E 0.48 33.9 -24.2 --- --- 731.5 0.021 0.000 6.9 7 1
02/05/06 5:11 p -11.6 -11.6 -11.6 --- --- 29.6 E 0.49 33.9 -24.3 --- --- 731.5 0.021 0.000 6.9 7 1
02/05/06 5:12 p -11.6 -11.6 -11.6 --- --- 27.8 E 0.46 33.0 -24.0 --- --- 731.6 0.021 0.000 6.9 7 1
02/05/06 5:13 p -11.6 -11.6 -11.7 --- --- 27.0 E 0.45 31.3 -23.9 --- --- 731.5 0.021 0.000 6.9 7 1
02/05/06 5:14 p -11.6 -11.6 -11.6 --- --- 29.6 E 0.49 33.9 -24.3 --- --- 731.6 0.021 0.000 6.9 7 1
02/05/06 5:15 p -11.6 -11.6 -11.7 --- --- 27.0 E 0.45 30.4 -23.9 --- --- 731.6 0.021 0.000 6.8 7 1
02/05/06 5:16 p -11.7 -11.6 -11.7 --- --- 27.0 E 0.45 31.3 -23.9 --- --- 731.5 0.021 0.000 6.8 7 1
02/05/06 5:17 p -11.7 -11.7 -11.7 --- --- 28.7 E 0.48 34.8 -24.2 --- --- 731.8 0.021 0.000 6.8 7 1
02/05/06 5:18 p -11.7 -11.7 -11.7 --- --- 27.0 E 0.45 31.3 -23.9 --- --- 731.6 0.021 0.000 6.8 7 1
02/05/06 5:19 p -11.7 -11.7 -11.7 --- --- 27.8 E 0.46 32.2 -24.1 --- --- 731.5 0.021 0.000 6.8 7 1
02/05/06 5:20 p -11.7 -11.7 -11.7 --- --- 30.4 E 0.51 34.8 -24.6 --- --- 731.6 0.021 0.000 6.8 7 1
02/05/06 5:21 p -11.7 -11.7 -11.7 --- --- 27.8 E 0.46 30.4 -24.1 --- --- 731.6 0.021 0.000 6.8 7 1
02/05/06 5:22 p -11.7 -11.7 -11.7 --- --- 27.0 E 0.45 30.4 -24.0 --- --- 731.6 0.021 0.000 6.8 7 1
02/05/06 5:23 p -11.7 -11.7 -11.7 --- --- 27.8 E 0.46 31.3 -24.2 --- --- 731.7 0.021 0.000 6.8 7 1
02/05/06 5:24 p -11.7 -11.7 -11.7 --- --- 29.6 E 0.49 33.0 -24.4 --- --- 731.8 0.021 0.000 6.8 7 1
02/05/06 5:25 p -11.7 -11.7 -11.7 --- --- 27.0 E 0.45 31.3 -23.9 --- --- 731.7 0.021 0.000 6.8 7 1
02/05/06 5:26 p -11.7 -11.7 -11.7 --- --- 29.6 E 0.49 33.9 -24.4 --- --- 731.7 0.021 0.000 6.8 7 1
02/05/06 5:27 p -11.7 -11.7 -11.7 --- --- 29.6 E 0.49 32.2 -24.4 --- --- 731.6 0.021 0.000 6.7 7 1
02/05/06 5:28 p -11.7 -11.7 -11.7 --- --- 27.8 E 0.46 33.9 -24.2 --- --- 731.6 0.021 0.000 6.7 7 1
02/05/06 5:29 p -11.7 -11.7 -11.7 --- --- 28.7 E 0.48 33.0 -24.3 --- --- 731.6 0.021 0.000 6.7 7 1
02/05/06 5:30 p -11.7 -11.7 -11.7 --- --- 27.8 E 0.46 32.2 -24.2 --- --- 731.6 0.021 0.000 6.7 7 1
02/05/06 5:31 p -11.7 -11.7 -11.7 --- --- 27.8 E 0.46 33.0 -24.2 --- --- 731.6 0.021 0.000 6.7 7 1
02/05/06 5:32 p -11.7 -11.7 -11.7 --- --- 29.6 E 0.49 32.2 -24.4 --- --- 731.6 0.021 0.000 6.7 7 1
02/05/06 5:33 p -11.7 -11.7 -11.7 --- --- 28.7 E 0.48 32.2 -24.3 --- --- 731.5 0.021 0.000 6.7 7 1
02/05/06 5:34 p -11.7 -11.7 -11.7 --- --- 28.7 E 0.48 33.0 -24.3 --- --- 731.6 0.021 0.000 6.7 7 1
02/05/06 5:35 p -11.7 -11.7 -11.7 --- --- 29.6 E 0.49 33.0 -24.4 --- --- 731.7 0.021 0.000 6.7 7 1
02/05/06 5:36 p -11.7 -11.7 -11.7 --- --- 27.8 E 0.46 30.4 -24.2 --- --- 731.7 0.021 0.000 6.7 7 1
02/05/06 5:37 p -11.7 -11.7 -11.7 --- --- 27.8 E 0.46 32.2 -24.2 --- --- 731.6 0.021 0.000 6.7 7 1
02/05/06 5:38 p -11.7 -11.7 -11.7 --- --- 27.8 E 0.46 31.3 -24.2 --- --- 731.6 0.021 0.000 6.7 7 1
02/05/06 5:39 p -11.7 -11.7 -11.7 --- --- 27.8 E 0.46 30.4 -24.2 --- --- 731.5 0.021 0.000 6.7 7 1
02/05/06 5:40 p -11.7 -11.7 -11.8 --- --- 29.6 E 0.49 33.0 -24.4 --- --- 731.5 0.021 0.000 6.7 7 1
02/05/06 5:41 p -11.7 -11.7 -11.8 --- --- 28.7 E 0.48 33.0 -24.3 --- --- 731.7 0.021 0.000 6.7 7 1
02/05/06 5:42 p -11.7 -11.7 -11.7 --- --- 28.7 E 0.48 33.0 -24.3 --- --- 731.6 0.021 0.000 6.6 7 1
02/05/06 5:43 p -11.7 -11.7 -11.7 --- --- 27.0 E 0.45 31.3 -24.0 --- --- 731.6 0.021 0.000 6.6 7 1
02/05/06 5:44 p -11.7 -11.7 -11.7 --- --- 27.8 E 0.46 33.9 -24.2 --- --- 731.6 0.021 0.000 6.6 7 1
02/05/06 5:45 p -11.7 -11.7 -11.7 --- --- 27.8 E 0.46 33.0 -24.2 --- --- 731.6 0.021 0.000 6.6 7 1
02/05/06 5:46 p -11.7 -11.7 -11.7 --- --- 28.7 E 0.48 32.2 -24.3 --- --- 731.6 0.021 0.000 6.6 7 1
02/05/06 5:47 p -11.7 -11.7 -11.7 --- --- 28.7 E 0.48 32.2 -24.3 --- --- 731.6 0.021 0.000 6.6 7 1
02/05/06 5:48 p -11.7 -11.7 -11.8 --- --- 28.7 E 0.48 33.9 -24.3 --- --- 731.6 0.021 0.000 6.6 7 1
02/05/06 5:49 p -11.7 -11.7 -11.8 --- --- 27.8 E 0.46 33.0 -24.2 --- --- 731.7 0.021 0.000 6.6 7 1
02/05/06 5:50 p -11.7 -11.7 -11.7 --- --- 28.7 E 0.48 32.2 -24.3 --- --- 731.6 0.021 0.000 6.7 7 1
02/05/06 5:51 p -11.7 -11.7 -11.7 --- --- 27.0 E 0.45 33.0 -24.0 --- --- 731.6 0.021 0.000 6.7 7 1
02/05/06 5:52 p -11.7 -11.7 -11.7 --- --- 27.8 E 0.46 33.0 -24.2 --- --- 731.6 0.021 0.000 6.7 7 1
02/05/06 5:53 p -11.7 -11.7 -11.7 --- --- 29.6 E 0.49 33.0 -24.4 --- --- 731.6 0.021 0.000 6.7 7 1
02/05/06 5:54 p -11.7 -11.7 -11.7 --- --- 27.0 E 0.45 32.2 -24.0 --- --- 731.7 0.021 0.000 6.7 7 1
02/05/06 5:55 p -11.7 -11.7 -11.7 --- --- 27.0 ESE 0.45 31.3 -24.0 --- --- 731.6 0.021 0.000 6.8 7 1
02/05/06 5:56 p -11.7 -11.7 -11.7 --- --- 29.6 E 0.49 33.0 -24.4 --- --- 731.6 0.021 0.000 6.8 7 1
02/05/06 5:57 p -11.7 -11.7 -11.7 --- --- 29.6 E 0.49 33.9 -24.4 --- --- 731.6 0.021 0.000 6.8 7 1
02/05/06 5:58 p -11.7 -11.7 -11.7 --- --- 28.7 E 0.48 31.3 -24.3 --- --- 731.7 0.021 0.000 6.8 7 1
02/05/06 5:59 p -11.7 -11.7 -11.7 --- --- 28.7 E 0.48 33.0 -24.2 --- --- 731.6 0.021 0.000 6.8 7 1
02/05/06 6:00 p -11.7 -11.7 -11.7 --- --- 30.4 E 0.51 35.7 -24.6 --- --- 731.7 0.021 0.000 6.9 7 1
02/05/06 6:01 p -11.7 -11.7 -11.7 --- --- 27.8 E 0.46 33.0 -24.2 --- --- 731.7 0.021 0.000 6.9 7 1
02/05/06 6:02 p -11.7 -11.7 -11.7 --- --- 28.7 E 0.48 32.2 -24.2 --- --- 731.6 0.021 0.000 6.9 7 1
02/05/06 6:03 p -11.7 -11.7 -11.7 --- --- 27.8 E 0.46 33.0 -24.1 --- --- 731.6 0.021 0.000 6.9 7 1
02/05/06 6:04 p -11.7 -11.7 -11.7 --- --- 28.7 E 0.48 33.0 -24.2 --- --- 731.7 0.021 0.000 6.9 7 1
02/05/06 6:05 p -11.6 -11.6 -11.7 --- --- 27.8 E 0.46 32.2 -24.0 --- --- 731.6 0.021 0.000 6.9 7 1
02/05/06 6:06 p -11.7 -11.6 -11.7 --- --- 27.8 E 0.46 33.0 -24.1 --- --- 731.7 0.021 0.000 6.9 7 1
02/05/06 6:07 p -11.7 -11.7 -11.7 --- --- 27.8 E 0.46 33.9 -24.1 --- --- 731.6 0.021 0.000 6.9 7 1
02/05/06 6:08 p -11.7 -11.6 -11.7 --- --- 27.8 E 0.46 32.2 -24.1 --- --- 731.7 0.021 0.000 6.8 7 1
02/05/06 6:09 p -11.7 -11.6 -11.7 --- --- 27.8 E 0.46 32.2 -24.1 --- --- 731.6 0.021 0.000 6.9 7 1
02/05/06 6:10 p -11.6 -11.6 -11.6 --- --- 28.7 E 0.48 33.0 -24.2 --- --- 731.5 0.021 0.000 6.9 7 1
02/05/06 6:11 p -11.6 -11.6 -11.6 --- --- 30.4 E 0.51 33.9 -24.4 --- --- 731.7 0.021 0.000 6.8 7 1
02/05/06 6:12 p -11.6 -11.6 -11.6 --- --- 28.7 E 0.48 33.0 -24.2 --- --- 731.6 0.021 0.000 6.8 7 1
02/05/06 6:13 p -11.6 -11.6 -11.6 --- --- 29.6 E 0.49 34.8 -24.3 --- --- 731.7 0.021 0.000 6.8 7 1
02/05/06 6:14 p -11.6 -11.6 -11.6 --- --- 28.7 E 0.48 32.2 -24.1 --- --- 731.6 0.021 0.000 6.8 7 1
02/05/06 6:15 p -11.6 -11.6 -11.6 --- --- 28.7 E 0.48 31.3 -24.1 --- --- 731.7 0.021 0.000 6.8 7 1
02/05/06 6:16 p -11.6 -11.6 -11.6 --- --- 28.7 E 0.48 33.0 -24.1 --- --- 731.7 0.021 0.000 6.8 7 1
02/05/06 6:17 p -11.6 -11.6 -11.6 --- --- 27.0 E 0.45 30.4 -23.8 --- --- 731.7 0.021 0.000 6.8 7 1
02/05/06 6:18 p -11.6 -11.5 -11.6 --- --- 27.0 E 0.45 30.4 -23.8 --- --- 731.7 0.021 0.000 6.8 7 1
02/05/06 6:19 p -11.6 -11.5 -11.6 --- --- 27.8 E 0.46 33.0 -23.9 --- --- 731.6 0.021 0.000 6.8 7 1
02/05/06 6:20 p -11.5 -11.5 -11.6 --- --- 28.7 E 0.48 33.9 -24.0 --- --- 731.6 0.021 0.000 6.8 7 1
02/05/06 6:21 p -11.6 -11.5 -11.6 --- --- 27.8 E 0.46 33.9 -23.9 --- --- 731.7 0.021 0.000 6.8 7 1
02/05/06 6:22 p -11.5 -11.5 -11.5 --- --- 27.8 E 0.46 31.3 -23.9 --- --- 731.7 0.021 0.000 6.8 7 1
02/05/06 6:23 p -11.5 -11.4 -11.5 --- --- 28.7 E 0.48 35.7 -24.0 --- --- 731.6 0.021 0.000 6.7 7 1
02/05/06 6:24 p -11.5 -11.4 -11.5 --- --- 27.0 E 0.45 33.0 -23.7 --- --- 731.6 0.021 0.000 6.7 7 1
02/05/06 6:25 p -11.4 -11.4 -11.5 --- --- 29.6 E 0.49 35.7 -24.1 --- --- 731.7 0.021 0.000 6.7 7 1
02/05/06 6:26 p -11.5 -11.4 -11.5 --- --- 27.8 E 0.46 32.2 -23.9 --- --- 731.7 0.021 0.000 6.7 7 1
02/05/06 6:27 p -11.4 -11.4 -11.5 --- --- 28.7 E 0.48 31.3 -23.9 --- --- 731.6 0.021 0.000 6.7 7 1
02/05/06 6:28 p -11.4 -11.4 -11.5 --- --- 28.7 E 0.48 31.3 -23.9 --- --- 731.7 0.021 0.000 6.7 7 1
02/05/06 6:29 p -11.4 -11.4 -11.5 --- --- 28.7 E 0.48 33.0 -23.9 --- --- 731.9 0.021 0.000 6.7 7 1
02/05/06 6:30 p -11.4 -11.4 -11.4 --- --- 27.0 E 0.45 33.0 -23.7 --- --- 731.7 0.021 0.000 6.7 7 1
02/05/06 6:31 p -11.4 -11.4 -11.5 --- --- 27.8 E 0.46 31.3 -23.8 --- --- 731.7 0.021 0.000 6.7 7 1
02/05/06 6:32 p -11.4 -11.4 -11.4 --- --- 28.7 E 0.48 33.9 -23.9 --- --- 731.7 0.021 0.000 6.7 7 1
02/05/06 6:33 p -11.4 -11.4 -11.4 --- --- 28.7 E 0.48 33.0 -23.9 --- --- 731.8 0.021 0.000 6.7 7 1
02/05/06 6:34 p -11.4 -11.4 -11.4 --- --- 27.0 E 0.45 32.2 -23.7 --- --- 731.7 0.021 0.000 6.7 7 1
02/05/06 6:35 p -11.4 -11.4 -11.4 --- --- 28.7 E 0.48 33.0 -23.9 --- --- 731.7 0.021 0.000 6.7 7 1
02/05/06 6:36 p -11.4 -11.4 -11.4 --- --- 27.8 E 0.46 30.4 -23.8 --- --- 731.8 0.021 0.000 6.8 7 1
02/05/06 6:37 p -11.4 -11.4 -11.4 --- --- 28.7 E 0.48 30.4 -23.9 --- --- 731.8 0.021 0.000 6.8 7 1
02/05/06 6:38 p -11.4 -11.4 -11.4 --- --- 28.7 E 0.48 33.9 -23.9 --- --- 731.7 0.021 0.000 6.8 7 1
02/05/06 6:39 p -11.4 -11.4 -11.4 --- --- 28.7 E 0.48 32.2 -23.9 --- --- 731.8 0.021 0.000 6.8 7 1
02/05/06 6:40 p -11.4 -11.4 -11.4 --- --- 27.0 E 0.45 29.6 -23.7 --- --- 731.9 0.021 0.000 6.8 7 1
02/05/06 6:41 p -11.4 -11.4 -11.4 --- --- 27.8 E 0.46 31.3 -23.7 --- --- 731.8 0.021 0.000 6.9 7 1
02/05/06 6:42 p -11.4 -11.4 -11.4 --- --- 30.4 E 0.51 33.9 -24.2 --- --- 731.6 0.021 0.000 6.9 7 1
02/05/06 6:43 p -11.4 -11.4 -11.4 --- --- 28.7 E 0.48 33.0 -23.9 --- --- 732.0 0.021 0.000 6.9 7 1
02/05/06 6:44 p -11.4 -11.4 -11.4 --- --- 25.2 E 0.42 30.4 -23.3 --- --- 732.0 0.021 0.000 6.9 7 1
02/05/06 6:45 p -11.4 -11.4 -11.4 --- --- 27.8 E 0.46 33.0 -23.7 --- --- 731.9 0.021 0.000 6.9 7 1
02/05/06 6:46 p -11.4 -11.4 -11.4 --- --- 28.7 E 0.48 33.0 -23.9 --- --- 731.9 0.021 0.000 6.9 7 1
02/05/06 6:47 p -11.4 -11.4 -11.4 --- --- 27.0 E 0.45 33.9 -23.6 --- --- 731.9 0.021 0.000 6.9 7 1
02/05/06 6:48 p -11.4 -11.4 -11.4 --- --- 27.8 E 0.46 31.3 -23.7 --- --- 731.7 0.021 0.000 6.9 7 1
02/05/06 6:49 p -11.4 -11.4 -11.4 --- --- 30.4 E 0.51 33.9 -24.2 --- --- 731.8 0.021 0.000 6.9 7 1
02/05/06 6:50 p -11.4 -11.4 -11.4 --- --- 27.0 E 0.45 32.2 -23.6 --- --- 731.9 0.021 0.000 6.9 7 1
02/05/06 6:51 p -11.4 -11.4 -11.4 --- --- 27.0 E 0.45 31.3 -23.6 --- --- 731.8 0.021 0.000 6.9 7 1
02/05/06 6:52 p -11.4 -11.4 -11.4 --- --- 27.8 E 0.46 33.0 -23.7 --- --- 731.9 0.021 0.000 6.8 7 1
02/05/06 6:53 p -11.4 -11.4 -11.4 --- --- 27.8 E 0.46 31.3 -23.7 --- --- 731.8 0.021 0.000 6.8 7 1
02/05/06 6:54 p -11.4 -11.4 -11.4 --- --- 27.8 E 0.46 33.0 -23.7 --- --- 731.8 0.021 0.000 6.8 7 1
02/05/06 6:55 p -11.4 -11.4 -11.4 --- --- 30.4 E 0.51 34.8 -24.2 --- --- 731.7 0.021 0.000 6.8 7 1
02/05/06 6:56 p -11.4 -11.3 -11.4 --- --- 28.7 E 0.48 33.0 -23.9 --- --- 731.8 0.021 0.000 6.8 7 1
02/05/06 6:57 p -11.3 -11.3 -11.4 --- --- 28.7 E 0.48 33.0 -23.8 --- --- 731.9 0.021 0.000 6.8 7 1
02/05/06 6:58 p -11.3 -11.3 -11.3 --- --- 28.7 E 0.48 31.3 -23.8 --- --- 731.8 0.021 0.000 6.8 7 1
02/05/06 6:59 p -11.3 -11.3 -11.3 --- --- 28.7 E 0.48 35.7 -23.8 --- --- 731.9 0.021 0.000 6.8 7 1
02/05/06 7:00 p -11.3 -11.3 -11.3 --- --- 29.6 E 0.49 33.0 -23.9 --- --- 731.8 0.021 0.000 6.7 7 1
02/05/06 7:02 p -11.3 -11.3 -11.3 --- --- 27.8 E 0.46 33.9 -23.6 --- --- 731.9 0.021 0.000 6.7 7 1
02/05/06 7:03 p -11.3 -11.3 -11.3 --- --- 26.1 E 0.43 29.6 -23.3 --- --- 731.8 0.021 0.000 6.7 7 1
02/05/06 7:04 p -11.3 -11.3 -11.3 --- --- 28.7 E 0.48 33.9 -23.7 --- --- 731.7 0.021 0.000 6.7 7 1
02/05/06 7:05 p -11.3 -11.3 -11.3 --- --- 28.7 E 0.48 31.3 -23.7 --- --- 731.9 0.021 0.000 6.7 7 1
02/05/06 7:06 p -11.3 -11.3 -11.3 --- --- 27.8 E 0.46 32.2 -23.6 --- --- 731.9 0.021 0.000 6.7 7 1
02/05/06 7:07 p -11.3 -11.3 -11.3 --- --- 29.6 E 0.49 32.2 -23.8 --- --- 731.7 0.021 0.000 6.7 7 1
02/05/06 7:08 p -11.3 -11.2 -11.3 --- --- 29.6 E 0.49 33.0 -23.8 --- --- 731.7 0.021 0.000 6.6 7 1
02/05/06 7:09 p -11.2 -11.2 -11.3 --- --- 28.7 E 0.48 33.9 -23.7 --- --- 731.9 0.021 0.000 6.6 7 1
02/05/06 7:10 p -11.3 -11.3 -11.3 --- --- 28.7 E 0.48 33.0 -23.7 --- --- 731.7 0.021 0.000 6.6 7 1
02/05/06 7:11 p -11.3 -11.2 -11.3 --- --- 28.7 E 0.48 36.5 -23.7 --- --- 731.7 0.021 0.000 6.6 7 1
02/05/06 7:12 p -11.3 -11.2 -11.3 --- --- 29.6 E 0.49 33.9 -23.8 --- --- 731.7 0.021 0.000 6.6 7 1
02/05/06 7:13 p -11.3 -11.2 -11.3 --- --- 27.8 E 0.46 34.8 -23.6 --- --- 731.7 0.021 0.000 6.6 7 1
02/05/06 7:14 p -11.2 -11.2 -11.2 --- --- 28.7 E 0.48 33.0 -23.7 --- --- 731.7 0.021 0.000 6.6 7 1
02/05/06 7:15 p -11.2 -11.2 -11.2 --- --- 28.7 E 0.48 33.0 -23.7 --- --- 731.7 0.021 0.000 6.6 7 1
02/05/06 7:16 p -11.2 -11.2 -11.2 --- --- 28.7 E 0.48 33.9 -23.7 --- --- 731.7 0.021 0.000 6.6 7 1
02/05/06 7:17 p -11.2 -11.2 -11.2 --- --- 29.6 E 0.49 34.8 -23.8 --- --- 731.8 0.021 0.000 6.6 7 1
02/05/06 7:18 p -11.2 -11.2 -11.2 --- --- 30.4 E 0.51 33.0 -23.9 --- --- 731.7 0.021 0.000 6.6 7 1
02/05/06 7:19 p -11.2 -11.2 -11.2 --- --- 29.6 E 0.49 31.3 -23.8 --- --- 731.7 0.021 0.000 6.7 7 1
02/05/06 7:20 p -11.2 -11.2 -11.2 --- --- 27.8 E 0.46 31.3 -23.5 --- --- 731.8 0.021 0.000 6.7 7 1
02/05/06 7:21 p -11.2 -11.2 -11.2 --- --- 27.0 E 0.45 31.3 -23.3 --- --- 731.8 0.021 0.000 6.7 7 1
02/05/06 7:22 p -11.2 -11.2 -11.2 --- --- 28.7 E 0.48 33.0 -23.7 --- --- 731.8 0.021 0.000 6.7 7 1
02/05/06 7:23 p -11.2 -11.2 -11.2 --- --- 27.8 E 0.46 33.0 -23.5 --- --- 731.8 0.021 0.000 6.7 7 1
02/05/06 7:24 p -11.2 -11.2 -11.2 --- --- 29.6 E 0.49 33.9 -23.8 --- --- 731.7 0.021 0.000 6.8 7 1
02/05/06 7:25 p -11.2 -11.2 -11.2 --- --- 28.7 E 0.48 32.2 -23.7 --- --- 731.8 0.021 0.000 6.8 7 1
02/05/06 7:26 p -11.2 -11.2 -11.2 --- --- 27.8 E 0.46 31.3 -23.5 --- --- 731.9 0.021 0.000 6.8 7 1
02/05/06 7:27 p -11.2 -11.2 -11.2 --- --- 28.7 E 0.48 32.2 -23.6 --- --- 731.7 0.020 0.000 6.8 7 1
02/05/06 7:28 p -11.2 -11.2 -11.2 --- --- 28.7 E 0.48 33.9 -23.6 --- --- 731.8 0.020 0.000 6.9 7 1
02/05/06 7:29 p -11.2 -11.2 -11.2 --- --- 27.0 E 0.45 32.2 -23.3 --- --- 731.9 0.020 0.000 6.9 7 1
02/05/06 7:30 p -11.2 -11.2 -11.2 --- --- 27.8 E 0.46 32.2 -23.4 --- --- 731.9 0.020 0.000 6.9 7 1
02/05/06 7:31 p -11.2 -11.2 -11.2 --- --- 26.1 E 0.43 29.6 -23.1 --- --- 731.9 0.020 0.000 6.9 7 1
02/05/06 7:32 p -11.2 -11.2 -11.2 --- --- 28.7 E 0.48 31.3 -23.6 --- --- 731.9 0.020 0.000 6.9 7 1
02/05/06 7:33 p -11.2 -11.2 -11.2 --- --- 29.6 E 0.49 33.0 -23.7 --- --- 731.8 0.020 0.000 6.9 7 1
02/05/06 7:34 p -11.2 -11.2 -11.2 --- --- 27.8 E 0.46 32.2 -23.4 --- --- 731.8 0.020 0.000 6.9 7 1
02/05/06 7:35 p -11.2 -11.2 -11.2 --- --- 27.8 E 0.46 30.4 -23.4 --- --- 731.9 0.020 0.000 6.9 7 1
02/05/06 7:36 p -11.1 -11.1 -11.1 --- --- 29.6 E 0.49 33.9 -23.6 --- --- 731.7 0.020 0.000 6.9 7 1
02/05/06 7:37 p -11.1 -11.1 -11.1 --- --- 29.6 E 0.49 33.0 -23.6 --- --- 731.9 0.020 0.000 6.9 7 1
02/05/06 7:38 p -11.1 -11.1 -11.1 --- --- 27.0 E 0.45 29.6 -23.2 --- --- 731.9 0.020 0.000 6.9 7 1
02/05/06 7:39 p -11.1 -11.1 -11.1 --- --- 27.0 E 0.45 31.3 -23.2 --- --- 731.8 0.020 0.000 6.9 7 1
02/05/06 7:40 p -11.1 -11.1 -11.1 --- --- 29.6 E 0.49 33.0 -23.6 --- --- 732.0 0.020 0.000 6.8 7 1
02/05/06 7:41 p -11.1 -11.1 -11.1 --- --- 26.1 E 0.43 29.6 -23.1 --- --- 731.9 0.020 0.000 6.8 7 1
02/05/06 7:42 p -11.1 -11.1 -11.1 --- --- 28.7 E 0.48 31.3 -23.5 --- --- 731.9 0.020 0.000 6.8 7 1
02/05/06 7:43 p -11.1 -11.1 -11.1 --- --- 27.0 E 0.45 30.4 -23.2 --- --- 731.9 0.020 0.000 6.8 7 1
02/05/06 7:44 p -11.1 -11.1 -11.1 --- --- 27.0 E 0.45 31.3 -23.2 --- --- 731.9 0.020 0.000 6.8 7 1
02/05/06 7:45 p -11.1 -11.1 -11.1 --- --- 29.6 E 0.49 33.0 -23.6 --- --- 731.7 0.020 0.000 6.8 7 1
02/05/06 7:46 p -11.1 -11.1 -11.1 --- --- 27.8 E 0.46 34.8 -23.3 --- --- 731.9 0.020 0.000 6.8 7 1
02/05/06 7:47 p -11.1 -11.1 -11.1 --- --- 27.8 E 0.46 29.6 -23.3 --- --- 731.9 0.020 0.000 6.8 7 1
02/05/06 7:48 p -11.1 -11.1 -11.1 --- --- 27.8 E 0.46 33.0 -23.3 --- --- 731.8 0.020 0.000 6.8 7 1
02/05/06 7:49 p -11.1 -11.1 -11.1 --- --- 27.8 E 0.46 31.3 -23.3 --- --- 731.9 0.020 0.000 6.8 7 1
02/05/06 7:50 p -11.1 -11.1 -11.1 --- --- 29.6 E 0.49 33.0 -23.6 --- --- 731.9 0.020 0.000 6.7 7 1
02/05/06 7:51 p -11.1 -11.1 -11.1 --- --- 28.7 E 0.48 32.2 -23.4 --- --- 731.9 0.020 0.000 6.7 7 1
02/05/06 7:52 p -11.1 -11.1 -11.1 --- --- 27.0 E 0.45 30.4 -23.1 --- --- 732.0 0.020 0.000 6.7 7 1
02/05/06 7:53 p -11.1 -11.1 -11.1 --- --- 26.1 E 0.43 30.4 -22.9 --- --- 731.9 0.020 0.000 6.7 7 1
02/05/06 7:54 p -11.1 -11.1 -11.1 --- --- 28.7 E 0.48 35.7 -23.4 --- --- 732.1 0.020 0.000 6.7 7 1
02/05/06 7:55 p -11.1 -11.1 -11.1 --- --- 27.0 E 0.45 32.2 -23.1 --- --- 732.0 0.020 0.000 6.7 7 1
02/05/06 7:56 p -11.1 -11.1 -11.1 --- --- 25.2 E 0.42 30.4 -22.8 --- --- 732.1 0.020 0.000 6.7 7 1
02/05/06 7:57 p -11.0 -11.0 -11.1 --- --- 27.8 E 0.46 31.3 -23.2 --- --- 732.1 0.020 0.000 6.7 7 1
02/05/06 7:58 p -11.0 -11.0 -11.1 --- --- 25.2 E 0.42 29.6 -22.7 --- --- 732.1 0.020 0.000 6.7 7 1
02/05/06 7:59 p -11.1 -11.0 -11.1 --- --- 26.1 E 0.43 31.3 -22.9 --- --- 732.0 0.020 0.000 6.7 7 1
02/05/06 8:00 p -11.0 -11.0 -11.0 --- --- 27.0 E 0.45 29.6 -23.1 --- --- 732.1 0.020 0.000 6.7 7 1
02/05/06 8:02 p -11.0 -11.0 -11.0 --- --- 27.8 E 0.46 35.7 -23.2 --- --- 732.1 0.020 0.000 6.7 7 1
02/05/06 8:03 p -11.0 -10.9 -11.0 --- --- 28.7 E 0.48 35.7 -23.3 --- --- 732.0 0.020 0.000 6.7 7 1
02/05/06 8:04 p -10.9 -10.9 -10.9 --- --- 27.0 E 0.45 31.3 -22.9 --- --- 732.1 0.020 0.000 6.7 7 1
02/05/06 8:05 p -10.9 -10.9 -10.9 --- --- 27.0 E 0.45 31.3 -22.9 --- --- 732.0 0.020 0.000 6.7 7 1
02/05/06 8:06 p -10.9 -10.9 -10.9 --- --- 27.8 E 0.46 33.9 -23.1 --- --- 732.1 0.020 0.000 6.7 7 1
02/05/06 8:07 p -10.9 -10.9 -10.9 --- --- 24.3 E 0.41 30.4 -22.5 --- --- 732.1 0.020 0.000 6.7 7 1
02/05/06 8:08 p -10.9 -10.9 -10.9 --- --- 29.6 E 0.49 33.9 -23.4 --- --- 732.1 0.020 0.000 6.7 7 1
02/05/06 8:09 p -10.9 -10.9 -10.9 --- --- 28.7 E 0.48 33.0 -23.3 --- --- 732.1 0.020 0.000 6.7 7 1
02/05/06 8:10 p -10.9 -10.9 -10.9 --- --- 27.0 E 0.45 32.2 -22.9 --- --- 732.0 0.020 0.000 6.7 8 1
02/05/06 8:11 p -10.9 -10.9 -10.9 --- --- 28.7 E 0.48 32.2 -23.2 --- --- 732.0 0.020 0.000 6.8 8 1
02/05/06 8:12 p -10.9 -10.9 -10.9 --- --- 28.7 E 0.48 33.9 -23.2 --- --- 732.1 0.020 0.000 6.8 8 1
02/05/06 8:13 p -10.9 -10.9 -10.9 --- --- 27.8 E 0.46 33.0 -23.1 --- --- 732.0 0.020 0.000 6.8 8 1
02/05/06 8:14 p -10.9 -10.9 -10.9 --- --- 30.4 E 0.51 33.0 -23.4 --- --- 732.0 0.020 0.000 6.8 8 1
02/05/06 8:15 p -10.9 -10.9 -10.9 --- --- 28.7 E 0.48 32.2 -23.2 --- --- 732.0 0.020 0.000 6.8 8 1
02/05/06 8:16 p -10.9 -10.9 -10.9 --- --- 30.4 E 0.51 35.7 -23.4 --- --- 732.0 0.020 0.000 6.8 8 1
02/05/06 8:17 p -10.9 -10.9 -10.9 --- --- 31.3 E 0.52 33.9 -23.6 --- --- 732.0 0.020 0.000 6.8 8 1
02/05/06 8:18 p -10.9 -10.9 -10.9 --- --- 30.4 E 0.51 34.8 -23.4 --- --- 732.0 0.020 0.000 6.8 8 1
02/05/06 8:19 p -10.9 -10.9 -10.9 --- --- 29.6 E 0.49 35.7 -23.3 --- --- 731.9 0.020 0.000 6.8 8 1
02/05/06 8:20 p -10.9 -10.9 -10.9 --- --- 33.9 E 0.57 35.7 -24.0 --- --- 732.0 0.020 0.000 6.8 8 1
02/05/06 8:21 p -10.9 -10.9 -10.9 --- --- 31.3 E 0.52 34.8 -23.6 --- --- 731.9 0.020 0.000 6.8 8 1
02/05/06 8:22 p -10.9 -10.8 -10.9 --- --- 30.4 E 0.51 34.8 -23.4 --- --- 732.0 0.020 0.000 6.8 8 1
02/05/06 8:23 p -10.9 -10.8 -10.9 --- --- 30.4 E 0.51 33.9 -23.4 --- --- 732.0 0.020 0.000 6.7 8 1
02/05/06 8:24 p -10.8 -10.8 -10.9 --- --- 30.4 E 0.51 35.7 -23.4 --- --- 732.0 0.020 0.000 6.7 8 1
02/05/06 8:25 p -10.8 -10.8 -10.9 --- --- 31.3 E 0.52 34.8 -23.5 --- --- 731.9 0.020 0.000 6.7 8 1
02/05/06 8:26 p -10.8 -10.8 -10.9 --- --- 32.2 E 0.54 34.8 -23.7 --- --- 732.0 0.020 0.000 6.7 8 1
02/05/06 8:27 p -10.8 -10.8 -10.8 --- --- 32.2 E 0.54 35.7 -23.7 --- --- 731.9 0.020 0.000 6.7 8 1
02/05/06 8:28 p -10.8 -10.8 -10.8 --- --- 30.4 E 0.51 35.7 -23.4 --- --- 732.0 0.020 0.000 6.7 8 1
02/05/06 8:29 p -10.8 -10.8 -10.8 --- --- 31.3 E 0.52 35.7 -23.5 --- --- 732.0 0.020 0.000 6.7 8 1
02/05/06 8:30 p -10.8 -10.8 -10.8 --- --- 33.0 E 0.55 37.4 -23.8 --- --- 732.0 0.020 0.000 6.7 8 1
02/05/06 8:31 p -10.8 -10.8 -10.8 --- --- 34.8 E 0.58 36.5 -24.1 --- --- 731.9 0.020 0.000 6.7 8 1
02/05/06 8:32 p -10.8 -10.8 -10.8 --- --- 32.2 E 0.54 36.5 -23.7 --- --- 732.1 0.020 0.000 6.7 8 1
02/05/06 8:33 p -10.8 -10.8 -10.8 --- --- 33.9 E 0.57 36.5 -23.8 --- --- 732.0 0.020 0.000 6.7 8 1
02/05/06 8:34 p -10.8 -10.8 -10.8 --- --- 31.3 E 0.52 35.7 -23.4 --- --- 732.0 0.020 0.000 6.7 8 1
02/05/06 8:35 p -10.8 -10.8 -10.8 --- --- 33.9 ESE 0.57 36.5 -23.8 --- --- 732.0 0.020 0.000 6.7 8 1
02/05/06 8:36 p -10.8 -10.7 -10.8 --- --- 31.3 E 0.52 35.7 -23.4 --- --- 731.9 0.020 0.000 6.7 8 1
02/05/06 8:37 p -10.8 -10.8 -10.8 --- --- 33.9 E 0.57 38.3 -23.8 --- --- 732.0 0.020 0.000 6.7 8 1
02/05/06 8:38 p -10.8 -10.8 -10.8 --- --- 33.0 ESE 0.55 35.7 -23.7 --- --- 731.9 0.020 0.000 6.6 8 1
02/05/06 8:39 p -10.7 -10.7 -10.8 --- --- 33.0 E 0.55 38.3 -23.6 --- --- 731.9 0.020 0.000 6.6 8 1
02/05/06 8:40 p -10.8 -10.7 -10.8 --- --- 31.3 E 0.52 35.7 -23.4 --- --- 732.0 0.020 0.000 6.6 8 1
02/05/06 8:41 p -10.8 -10.8 -10.8 --- --- 33.9 E 0.57 37.4 -23.8 --- --- 732.0 0.020 0.000 6.7 8 1
02/05/06 8:42 p -10.8 -10.7 -10.8 --- --- 33.9 ESE 0.57 36.5 -23.8 --- --- 731.9 0.020 0.000 6.7 8 1
02/05/06 8:43 p -10.8 -10.7 -10.8 --- --- 35.7 E 0.59 38.3 -24.1 --- --- 731.9 0.020 0.000 6.7 8 1
02/05/06 8:44 p -10.8 -10.7 -10.8 --- --- 35.7 E 0.59 38.3 -24.1 --- --- 732.0 0.020 0.000 6.7 8 1
02/05/06 8:45 p -10.8 -10.8 -10.8 --- --- 33.9 E 0.57 37.4 -23.8 --- --- 732.0 0.020 0.000 6.7 8 1
02/05/06 8:46 p -10.8 -10.8 -10.8 --- --- 33.0 E 0.55 38.3 -23.7 --- --- 732.0 0.020 0.000 6.7 8 1
02/05/06 8:47 p -10.8 -10.8 -10.8 --- --- 33.0 E 0.55 37.4 -23.7 --- --- 731.9 0.020 0.000 6.6 8 1
02/05/06 8:48 p -10.8 -10.8 -10.8 --- --- 33.0 E 0.55 37.4 -23.7 --- --- 732.0 0.020 0.000 6.6 8 1
02/05/06 8:49 p -10.8 -10.8 -10.8 --- --- 32.2 E 0.54 37.4 -23.7 --- --- 731.7 0.020 0.000 6.7 8 1
02/05/06 8:50 p -10.8 -10.8 -10.8 --- --- 33.0 E 0.55 37.4 -23.8 --- --- 731.9 0.020 0.000 6.7 8 1
02/05/06 8:51 p -10.8 -10.8 -10.8 --- --- 32.2 E 0.54 35.7 -23.7 --- --- 731.9 0.020 0.000 6.7 8 1
02/05/06 8:52 p -10.8 -10.8 -10.8 --- --- 32.2 E 0.54 37.4 -23.7 --- --- 731.9 0.020 0.000 6.7 8 1
02/05/06 8:53 p -10.8 -10.8 -10.9 --- --- 33.9 E 0.57 38.3 -23.9 --- --- 731.8 0.020 0.000 6.7 8 1
02/05/06 8:54 p -10.9 -10.8 -10.9 --- --- 31.3 E 0.52 35.7 -23.6 --- --- 731.8 0.020 0.000 6.7 8 1
02/05/06 8:55 p -10.9 -10.9 -10.9 --- --- 31.3 E 0.52 33.9 -23.6 --- --- 731.8 0.020 0.000 6.7 8 1
02/05/06 8:56 p -10.9 -10.9 -10.9 --- --- 31.3 E 0.52 35.7 -23.7 --- --- 731.8 0.020 0.000 6.7 8 1
02/05/06 8:57 p -10.9 -10.9 -10.9 --- --- 32.2 E 0.54 34.8 -23.8 --- --- 731.8 0.020 0.000 6.8 8 1
02/05/06 8:58 p -10.9 -10.9 -10.9 --- --- 32.2 E 0.54 35.7 -23.8 --- --- 731.9 0.020 0.000 6.8 8 1
02/05/06 8:59 p -10.9 -10.9 -11.0 --- --- 30.4 E 0.51 33.9 -23.6 --- --- 731.7 0.020 0.000 6.8 8 1
02/05/06 9:00 p -11.0 -11.0 -11.0 --- --- 31.3 E 0.52 35.7 -23.8 --- --- 731.8 0.020 0.000 6.8 8 1
02/05/06 9:01 p -11.0 -11.0 -11.0 --- --- 31.3 E 0.52 34.8 -23.8 --- --- 731.8 0.020 0.000 6.9 8 1
02/05/06 9:02 p -11.0 -11.0 -11.0 --- --- 31.3 E 0.52 36.5 -23.8 --- --- 731.8 0.020 0.000 6.9 8 1
02/05/06 9:03 p -11.0 -11.0 -11.0 --- --- 32.2 E 0.54 38.3 -23.9 --- --- 731.8 0.020 0.000 6.9 8 1
02/05/06 9:04 p -11.0 -11.0 -11.1 --- --- 33.0 E 0.55 36.5 -24.0 --- --- 731.7 0.020 0.000 6.9 8 1
02/05/06 9:05 p -11.1 -11.1 -11.1 --- --- 33.9 E 0.57 36.5 -24.2 --- --- 731.7 0.020 0.000 6.9 8 1
02/05/06 9:06 p -11.1 -11.0 -11.1 --- --- 31.3 E 0.52 34.8 -23.8 --- --- 731.8 0.020 0.000 7.0 8 1
02/05/06 9:07 p -11.1 -11.1 -11.1 --- --- 32.2 E 0.54 34.8 -23.9 --- --- 731.7 0.020 0.000 7.0 8 1
02/05/06 9:08 p -11.1 -11.1 -11.1 --- --- 32.2 E 0.54 35.7 -23.9 --- --- 731.9 0.020 0.000 7.1 7 1
02/05/06 9:09 p -11.1 -11.1 -11.1 --- --- 31.3 E 0.52 35.7 -23.8 --- --- 731.8 0.020 0.000 7.1 7 1
02/05/06 9:10 p -11.1 -11.1 -11.1 --- --- 31.3 E 0.52 34.8 -23.9 --- --- 731.9 0.020 0.000 7.1 8 1
02/05/06 9:11 p -11.1 -11.1 -11.1 --- --- 30.4 E 0.51 33.9 -23.7 --- --- 731.9 0.020 0.000 7.1 7 1
02/05/06 9:12 p -11.1 -11.1 -11.1 --- --- 29.6 E 0.49 34.8 -23.6 --- --- 731.8 0.020 0.000 7.1 7 1
02/05/06 9:13 p -11.1 -11.1 -11.1 --- --- 31.3 E 0.52 34.8 -23.9 --- --- 731.8 0.020 0.000 7.1 7 1
02/05/06 9:14 p -11.1 -11.1 -11.2 --- --- 30.4 E 0.51 34.8 -23.8 --- --- 731.9 0.020 0.000 7.1 7 1
02/05/06 9:15 p -11.1 -11.1 -11.1 --- --- 32.2 E 0.54 37.4 -24.1 --- --- 731.9 0.020 0.000 7.1 7 1
02/05/06 9:16 p -11.1 -11.1 -11.2 --- --- 31.3 E 0.52 33.9 -23.9 --- --- 731.8 0.020 0.000 7.1 7 1
02/05/06 9:17 p -11.2 -11.2 -11.2 --- --- 31.3 ESE 0.52 33.9 -24.0 --- --- 731.8 0.020 0.000 7.1 7 1
02/05/06 9:18 p -11.1 -11.1 -11.2 --- --- 28.7 E 0.48 33.0 -23.5 --- --- 731.9 0.020 0.000 7.1 7 1
02/05/06 9:19 p -11.2 -11.1 -11.2 --- --- 29.6 E 0.49 33.0 -23.7 --- --- 731.8 0.020 0.000 7.1 7 1
02/05/06 9:20 p -11.2 -11.1 -11.2 --- --- 28.7 E 0.48 32.2 -23.6 --- --- 732.0 0.020 0.000 7.1 7 1
02/05/06 9:21 p -11.2 -11.2 -11.2 --- --- 29.6 E 0.49 35.7 -23.7 --- --- 731.7 0.020 0.000 7.1 7 1
02/05/06 9:22 p -11.2 -11.2 -11.2 --- --- 31.3 E 0.52 35.7 -24.0 --- --- 731.7 0.020 0.000 7.1 7 1
02/05/06 9:23 p -11.2 -11.2 -11.2 --- --- 30.4 E 0.51 34.8 -23.8 --- --- 731.7 0.020 0.000 7.1 7 1
02/05/06 9:24 p -11.2 -11.2 -11.2 --- --- 31.3 E 0.52 36.5 -24.0 --- --- 731.7 0.020 0.000 7.1 7 1
02/05/06 9:25 p -11.2 -11.2 -11.2 --- --- 29.6 E 0.49 34.8 -23.7 --- --- 731.6 0.020 0.000 7.0 7 1
02/05/06 9:26 p -11.2 -11.2 -11.2 --- --- 30.4 E 0.51 34.8 -23.8 --- --- 731.8 0.020 0.000 7.0 7 1
02/05/06 9:27 p -11.2 -11.2 -11.2 --- --- 28.7 E 0.48 33.9 -23.6 --- --- 731.7 0.020 0.000 6.9 7 1
02/05/06 9:28 p -11.2 -11.2 -11.2 --- --- 29.6 ESE 0.49 35.7 -23.8 --- --- 731.8 0.021 0.000 6.9 7 1
02/05/06 9:29 p -11.2 -11.2 -11.2 --- --- 28.7 E 0.48 34.8 -23.6 --- --- 731.7 0.020 0.000 6.9 7 1
02/05/06 9:30 p -11.2 -11.2 -11.2 --- --- 28.7 E 0.48 32.2 -23.6 --- --- 731.7 0.020 0.000 6.9 7 1
02/05/06 9:31 p -11.2 -11.2 -11.2 --- --- 29.6 E 0.49 34.8 -23.7 --- --- 731.6 0.020 0.000 6.8 7 1
02/05/06 9:32 p -11.2 -11.2 -11.2 --- --- 29.6 E 0.49 34.8 -23.8 --- --- 731.7 0.021 0.000 6.8 7 1
02/05/06 9:33 p -11.2 -11.2 -11.2 --- --- 28.7 E 0.48 33.0 -23.7 --- --- 731.7 0.021 0.000 6.8 7 1
02/05/06 9:34 p -11.2 -11.2 -11.2 --- --- 31.3 E 0.52 34.8 -24.0 --- --- 731.7 0.020 0.000 6.8 7 1
02/05/06 9:35 p -11.2 -11.2 -11.2 --- --- 28.7 E 0.48 33.9 -23.6 --- --- 731.7 0.020 0.000 6.8 7 1
02/05/06 9:36 p -11.2 -11.2 -11.2 --- --- 29.6 ESE 0.49 33.9 -23.7 --- --- 731.6 0.020 0.000 6.7 7 1
02/05/06 9:37 p -11.2 -11.2 -11.2 --- --- 29.6 E 0.49 33.9 -23.7 --- --- 731.7 0.020 0.000 6.7 7 1
02/05/06 9:38 p -11.2 -11.2 -11.2 --- --- 27.8 E 0.46 32.2 -23.4 --- --- 731.7 0.020 0.000 6.7 7 1
02/05/06 9:39 p -11.2 -11.2 -11.2 --- --- 28.7 E 0.48 34.8 -23.6 --- --- 731.6 0.020 0.000 6.7 7 1
02/05/06 9:40 p -11.2 -11.2 -11.2 --- --- 28.7 E 0.48 33.9 -23.6 --- --- 731.8 0.020 0.000 6.7 7 1
02/05/06 9:41 p -11.2 -11.1 -11.2 --- --- 29.6 E 0.49 35.7 -23.7 --- --- 731.7 0.020 0.000 6.7 7 1
02/05/06 9:42 p -11.2 -11.2 -11.2 --- --- 28.7 E 0.48 33.9 -23.6 --- --- 731.7 0.020 0.000 6.7 7 1
02/05/06 9:43 p -11.2 -11.1 -11.2 --- --- 28.7 E 0.48 33.0 -23.6 --- --- 731.7 0.020 0.000 6.7 7 1
02/05/06 9:44 p -11.1 -11.1 -11.2 --- --- 30.4 E 0.51 33.0 -23.8 --- --- 731.7 0.020 0.000 6.7 7 1
02/05/06 9:45 p -11.1 -11.1 -11.2 --- --- 27.0 E 0.45 32.2 -23.2 --- --- 731.7 0.020 0.000 6.7 7 1
02/05/06 9:46 p -11.1 -11.1 -11.2 --- --- 27.8 E 0.46 33.9 -23.3 --- --- 731.7 0.020 0.000 6.7 7 1
02/05/06 9:47 p -11.1 -11.1 -11.2 --- --- 27.8 E 0.46 32.2 -23.3 --- --- 731.7 0.020 0.000 6.7 7 1
02/05/06 9:48 p -11.2 -11.1 -11.2 --- --- 27.8 E 0.46 33.0 -23.4 --- --- 731.8 0.020 0.000 6.7 7 1
02/05/06 9:49 p -11.1 -11.1 -11.1 --- --- 29.6 E 0.49 33.0 -23.6 --- --- 731.6 0.020 0.000 6.7 7 1
02/05/06 9:50 p -11.1 -11.1 -11.1 --- --- 30.4 E 0.51 33.9 -23.8 --- --- 731.8 0.020 0.000 6.7 7 1
02/05/06 9:51 p -11.1 -11.1 -11.1 --- --- 28.7 E 0.48 33.9 -23.4 --- --- 731.7 0.020 0.000 6.7 7 1
02/05/06 9:52 p -11.1 -11.1 -11.1 --- --- 28.7 E 0.48 33.0 -23.4 --- --- 731.6 0.020 0.000 6.6 7 1
02/05/06 9:53 p -11.1 -11.1 -11.1 --- --- 28.7 E 0.48 33.0 -23.4 --- --- 731.7 0.020 0.000 6.6 7 1
02/05/06 9:54 p -11.1 -11.1 -11.1 --- --- 27.8 E 0.46 33.9 -23.3 --- --- 731.7 0.020 0.000 6.6 7 1
02/05/06 9:55 p -11.1 -11.1 -11.1 --- --- 29.6 E 0.49 33.9 -23.6 --- --- 731.7 0.020 0.000 6.7 7 1
02/05/06 9:56 p -11.0 -11.0 -11.1 --- --- 31.3 E 0.52 34.8 -23.8 --- --- 731.8 0.020 0.000 6.7 7 1
02/05/06 9:57 p -11.0 -11.0 -11.1 --- --- 28.7 E 0.48 33.0 -23.3 --- --- 731.7 0.020 0.000 6.7 7 1
02/05/06 9:58 p -11.0 -10.9 -11.0 --- --- 28.7 E 0.48 33.0 -23.3 --- --- 731.8 0.020 0.000 6.7 7 1
02/05/06 9:59 p -10.9 -10.9 -11.0 --- --- 27.0 E 0.45 29.6 -22.9 --- --- 731.8 0.020 0.000 6.7 7 1
02/05/06 10:00 p -10.9 -10.9 -10.9 --- --- 28.7 E 0.48 33.0 -23.3 --- --- 731.8 0.020 0.000 6.8 7 1
02/05/06 10:01 p -10.9 -10.9 -10.9 --- --- 27.0 ESE 0.45 32.2 -22.9 --- --- 732.0 0.020 0.000 6.8 7 1
02/05/06 10:03 p -10.9 -10.9 -10.9 --- --- 29.6 E 0.49 32.2 -23.3 --- --- 731.9 0.020 0.000 6.8 7 1
02/05/06 10:04 p -10.9 -10.9 -10.9 --- --- 27.8 E 0.46 31.3 -23.1 --- --- 731.9 0.020 0.000 6.8 7 1
02/05/06 10:05 p -10.9 -10.9 -10.9 --- --- 26.1 E 0.43 29.6 -22.7 --- --- 731.7 0.020 0.000 6.8 7 1
02/05/06 10:06 p -10.8 -10.8 -10.9 --- --- 28.7 E 0.48 36.5 -23.1 --- --- 731.9 0.020 0.000 6.8 7 1
02/05/06 10:07 p -10.8 -10.8 -10.8 --- --- 29.6 E 0.49 33.9 -23.2 --- --- 731.9 0.020 0.000 6.8 7 1
02/05/06 10:08 p -10.8 -10.8 -10.8 --- --- 28.7 E 0.48 33.9 -23.1 --- --- 731.7 0.020 0.000 6.9 7 1
02/05/06 10:09 p -10.8 -10.8 -10.8 --- --- 29.6 E 0.49 34.8 -23.2 --- --- 731.8 0.020 0.000 6.8 7 1
02/05/06 10:10 p -10.8 -10.7 -10.8 --- --- 29.6 E 0.49 33.9 -23.2 --- --- 731.8 0.020 0.000 6.9 7 1
02/05/06 10:11 p -10.8 -10.7 -10.8 --- --- 28.7 E 0.48 34.8 -23.1 --- --- 731.7 0.020 0.000 6.8 7 1
02/05/06 10:12 p -10.7 -10.7 -10.8 --- --- 28.7 E 0.48 33.0 -22.9 --- --- 731.8 0.020 0.000 6.8 7 1
02/05/06 10:13 p -10.7 -10.7 -10.7 --- --- 28.7 E 0.48 34.8 -22.9 --- --- 731.7 0.020 0.000 6.8 7 1
02/05/06 10:14 p -10.7 -10.7 -10.7 --- --- 30.4 E 0.51 34.8 -23.2 --- --- 731.7 0.020 0.000 6.8 7 1
02/05/06 10:15 p -10.7 -10.7 -10.7 --- --- 28.7 E 0.48 33.9 -22.9 --- --- 731.7 0.020 0.000 6.8 7 1
02/05/06 10:16 p -10.6 -10.6 -10.7 --- --- 27.8 E 0.46 31.3 -22.7 --- --- 731.8 0.020 0.000 6.8 7 1
02/05/06 10:17 p -10.6 -10.6 -10.7 --- --- 28.7 E 0.48 32.2 -22.8 --- --- 731.7 0.020 0.000 6.8 7 1
02/05/06 10:18 p -10.6 -10.6 -10.6 --- --- 29.6 E 0.49 33.0 -22.9 --- --- 731.8 0.020 0.000 6.8 7 1
02/05/06 10:19 p -10.6 -10.6 -10.6 --- --- 29.6 E 0.49 33.0 -22.9 --- --- 731.8 0.020 0.000 6.8 7 1
02/05/06 10:20 p -10.6 -10.6 -10.6 --- --- 27.0 ESE 0.45 32.2 -22.5 --- --- 731.8 0.020 0.000 6.7 7 1
02/05/06 10:21 p -10.6 -10.6 -10.6 --- --- 28.7 E 0.48 33.0 -22.8 --- --- 731.6 0.020 0.000 6.7 7 1
02/05/06 10:22 p -10.6 -10.6 -10.6 --- --- 29.6 E 0.49 32.2 -22.9 --- --- 731.7 0.020 0.000 6.7 7 1
02/05/06 10:23 p -10.6 -10.5 -10.6 --- --- 27.0 E 0.45 32.2 -22.4 --- --- 731.7 0.020 0.000 6.7 7 1
02/05/06 10:24 p -10.6 -10.6 -10.6 --- --- 27.8 E 0.46 32.2 -22.6 --- --- 731.7 0.020 0.000 6.7 7 1
02/05/06 10:25 p -10.6 -10.6 -10.6 --- --- 27.0 E 0.45 33.0 -22.4 --- --- 731.7 0.020 0.000 6.7 7 1
02/05/06 10:26 p -10.6 -10.6 -10.6 --- --- 28.7 E 0.48 32.2 -22.7 --- --- 731.7 0.020 0.000 6.7 7 1
02/05/06 10:27 p -10.6 -10.6 -10.6 --- --- 27.0 E 0.45 32.2 -22.4 --- --- 731.7 0.020 0.000 6.7 7 1
02/05/06 10:28 p -10.6 -10.6 -10.6 --- --- 28.7 E 0.48 31.3 -22.7 --- --- 731.5 0.020 0.000 6.7 7 1
02/05/06 10:29 p -10.6 -10.6 -10.6 --- --- 28.7 E 0.48 33.9 -22.7 --- --- 731.7 0.020 0.000 6.7 7 1
02/05/06 10:30 p -10.6 -10.6 -10.6 --- --- 27.8 E 0.46 32.2 -22.6 --- --- 731.7 0.020 0.000 6.7 7 1
02/05/06 10:31 p -10.6 -10.5 -10.6 --- --- 28.7 E 0.48 33.0 -22.7 --- --- 731.7 0.020 0.000 6.7 7 1
02/05/06 10:32 p -10.5 -10.5 -10.6 --- --- 25.2 E 0.42 30.4 -22.1 --- --- 731.7 0.020 0.000 6.7 7 1
02/05/06 10:33 p -10.6 -10.5 -10.6 --- --- 28.7 E 0.48 34.8 -22.7 --- --- 731.7 0.020 0.000 6.6 7 1
02/05/06 10:34 p -10.5 -10.5 -10.6 --- --- 27.8 E 0.46 33.9 -22.5 --- --- 731.7 0.020 0.000 6.6 7 1
02/05/06 10:35 p -10.5 -10.5 -10.5 --- --- 27.0 E 0.45 33.9 -22.3 --- --- 731.7 0.020 0.000 6.6 7 1
02/05/06 10:36 p -10.5 -10.5 -10.5 --- --- 28.7 E 0.48 32.2 -22.7 --- --- 731.7 0.020 0.000 6.6 7 1
02/05/06 10:37 p -10.5 -10.4 -10.5 --- --- 27.0 E 0.45 31.3 -22.3 --- --- 731.7 0.020 0.000 6.7 7 1
02/05/06 10:38 p -10.5 -10.4 -10.5 --- --- 28.7 E 0.48 34.8 -22.7 --- --- 731.9 0.020 0.000 6.7 7 1
02/05/06 10:39 p -10.5 -10.4 -10.5 --- --- 28.7 E 0.48 34.8 -22.7 --- --- 731.8 0.020 0.000 6.7 7 1
02/05/06 10:40 p -10.5 -10.4 -10.5 --- --- 30.4 E 0.51 33.9 -22.9 --- --- 731.7 0.020 0.000 6.7 7 1
02/05/06 10:41 p -10.5 -10.4 -10.5 --- --- 27.0 E 0.45 32.2 -22.3 --- --- 731.8 0.020 0.000 6.6 7 1
02/05/06 10:42 p -10.5 -10.5 -10.5 --- --- 27.0 E 0.45 32.2 -22.3 --- --- 731.8 0.020 0.000 6.6 7 1
02/05/06 10:43 p -10.5 -10.4 -10.5 --- --- 27.8 E 0.46 32.2 -22.5 --- --- 731.7 0.020 0.000 6.6 7 1
02/05/06 10:44 p -10.5 -10.4 -10.5 --- --- 28.7 E 0.48 33.9 -22.7 --- --- 731.7 0.020 0.000 6.6 7 1
02/05/06 10:45 p -10.5 -10.4 -10.5 --- --- 27.8 E 0.46 31.3 -22.5 --- --- 731.7 0.020 0.000 6.7 7 1
02/05/06 10:46 p -10.5 -10.4 -10.5 --- --- 28.7 E 0.48 33.9 -22.7 --- --- 731.7 0.020 0.000 6.7 7 1
02/05/06 10:47 p -10.4 -10.4 -10.4 --- --- 28.7 E 0.48 33.9 -22.6 --- --- 731.7 0.020 0.000 6.7 7 1
02/05/06 10:48 p -10.4 -10.4 -10.4 --- --- 27.8 E 0.46 32.2 -22.4 --- --- 731.8 0.020 0.000 6.7 7 1
02/05/06 10:49 p -10.4 -10.4 -10.5 --- --- 28.7 E 0.48 33.9 -22.6 --- --- 731.9 0.020 0.000 6.7 7 1
02/05/06 10:50 p -10.4 -10.4 -10.4 --- --- 29.6 E 0.49 33.9 -22.7 --- --- 731.8 0.020 0.000 6.7 7 1
02/05/06 10:51 p -10.4 -10.4 -10.4 --- --- 27.8 E 0.46 32.2 -22.3 --- --- 731.8 0.020 0.000 6.7 7 1
02/05/06 10:52 p -10.4 -10.4 -10.4 --- --- 29.6 E 0.49 33.9 -22.7 --- --- 731.7 0.020 0.000 6.7 7 1
02/05/06 10:53 p -10.4 -10.4 -10.4 --- --- 30.4 E 0.51 33.9 -22.8 --- --- 731.8 0.020 0.000 6.7 7 1
02/05/06 10:54 p -10.4 -10.4 -10.4 --- --- 31.3 E 0.52 35.7 -22.9 --- --- 731.7 0.020 0.000 6.7 7 1
02/05/06 10:55 p -10.4 -10.4 -10.4 --- --- 33.0 E 0.55 36.5 -23.2 --- --- 731.7 0.020 0.000 6.7 7 1
02/05/06 10:56 p -10.4 -10.4 -10.4 --- --- 33.0 E 0.55 36.5 -23.2 --- --- 731.8 0.020 0.000 6.7 7 1
02/05/06 10:57 p -10.4 -10.4 -10.4 --- --- 31.3 ESE 0.52 37.4 -22.9 --- --- 731.8 0.020 0.000 6.7 7 1
02/05/06 10:58 p -10.4 -10.4 -10.4 --- --- 33.9 ESE 0.57 37.4 -23.3 --- --- 731.7 0.020 0.000 6.7 7 1
02/05/06 10:59 p -10.4 -10.3 -10.4 --- --- 33.0 ESE 0.55 36.5 -23.2 --- --- 731.8 0.020 0.000 6.7 7 1
02/05/06 11:00 p -10.3 -10.3 -10.4 --- --- 31.3 ESE 0.52 34.8 -22.8 --- --- 731.7 0.020 0.000 6.7 7 1
02/05/06 11:01 p -10.3 -10.3 -10.4 --- --- 33.9 ESE 0.57 37.4 -23.2 --- --- 731.7 0.020 0.000 6.7 7 1
02/05/06 11:03 p -10.3 -10.3 -10.3 --- --- 34.8 ESE 0.58 37.4 -23.3 --- --- 731.7 0.020 0.000 6.6 7 1
02/05/06 11:04 p -10.3 -10.3 -10.3 --- --- 34.8 ESE 0.58 38.3 -23.3 --- --- 731.7 0.020 0.000 6.6 7 1
02/05/06 11:05 p -10.3 -10.3 -10.3 --- --- 33.9 ESE 0.57 36.5 -23.2 --- --- 731.8 0.020 0.000 6.6 7 1
02/05/06 11:06 p -10.3 -10.3 -10.3 --- --- 34.8 ESE 0.58 39.1 -23.3 --- --- 731.8 0.020 0.000 6.6 7 1
02/05/06 11:07 p -10.3 -10.3 -10.3 --- --- 33.0 ESE 0.55 37.4 -23.1 --- --- 731.8 0.020 0.000 6.6 7 1
02/05/06 11:08 p -10.3 -10.3 -10.3 --- --- 33.9 ESE 0.57 37.4 -23.2 --- --- 731.7 0.020 0.000 6.6 7 1
02/05/06 11:09 p -10.3 -10.3 -10.3 --- --- 33.0 ESE 0.55 37.4 -23.1 --- --- 731.7 0.020 0.000 6.6 7 1
02/05/06 11:10 p -10.3 -10.3 -10.3 --- --- 32.2 E 0.54 35.7 -22.9 --- --- 731.7 0.020 0.000 6.6 7 1
02/05/06 11:11 p -10.3 -10.3 -10.3 --- --- 33.9 ESE 0.57 36.5 -23.1 --- --- 731.7 0.020 0.000 6.6 7 1
02/05/06 11:12 p -10.3 -10.3 -10.3 --- --- 33.9 ESE 0.57 36.5 -23.2 --- --- 731.7 0.020 0.000 6.6 7 1
02/05/06 11:13 p -10.3 -10.3 -10.3 --- --- 33.0 ESE 0.55 35.7 -23.1 --- --- 731.8 0.020 0.000 6.6 7 1
02/05/06 11:14 p -10.3 -10.3 -10.3 --- --- 33.9 ESE 0.57 36.5 -23.2 --- --- 731.7 0.020 0.000 6.6 7 1
02/05/06 11:15 p -10.3 -10.3 -10.3 --- --- 34.8 ESE 0.58 37.4 -23.3 --- --- 731.7 0.020 0.000 6.6 7 1
02/05/06 11:16 p -10.3 -10.3 -10.4 --- --- 34.8 ESE 0.58 37.4 -23.3 --- --- 731.7 0.020 0.000 6.7 7 1
02/05/06 11:17 p -10.4 -10.4 -10.4 --- --- 33.9 ESE 0.57 36.5 -23.3 --- --- 731.6 0.020 0.000 6.7 7 1
02/05/06 11:18 p -10.4 -10.4 -10.4 --- --- 34.8 ESE 0.58 37.4 -23.4 --- --- 731.7 0.020 0.000 6.7 7 1
02/05/06 11:19 p -10.4 -10.4 -10.4 --- --- 33.0 E 0.55 36.5 -23.2 --- --- 731.7 0.020 0.000 6.7 7 1
02/05/06 11:20 p -10.4 -10.4 -10.4 --- --- 32.2 E 0.54 36.5 -23.1 --- --- 731.7 0.020 0.000 6.7 7 1
02/05/06 11:21 p -10.4 -10.4 -10.4 --- --- 32.2 E 0.54 36.5 -23.1 --- --- 731.7 0.020 0.000 6.8 7 1
02/05/06 11:22 p -10.5 -10.4 -10.5 --- --- 32.2 ESE 0.54 36.5 -23.2 --- --- 731.8 0.020 0.000 6.8 7 1
02/05/06 11:23 p -10.5 -10.4 -10.5 --- --- 30.4 E 0.51 33.0 -22.9 --- --- 731.7 0.020 0.000 6.8 7 1
02/05/06 11:24 p -10.5 -10.5 -10.5 --- --- 31.3 ESE 0.52 35.7 -23.1 --- --- 731.7 0.020 0.000 6.8 7 1
02/05/06 11:25 p -10.5 -10.5 -10.5 --- --- 31.3 E 0.52 35.7 -23.1 --- --- 731.7 0.020 0.000 6.8 7 1
02/05/06 11:26 p -10.5 -10.4 -10.5 --- --- 32.2 E 0.54 36.5 -23.2 --- --- 731.6 0.020 0.000 6.9 7 1
02/05/06 11:27 p -10.6 -10.5 -10.6 --- --- 33.0 E 0.55 35.7 -23.4 --- --- 731.7 0.020 0.000 6.9 7 1
02/05/06 11:28 p -10.6 -10.5 -10.6 --- --- 32.2 E 0.54 36.5 -23.3 --- --- 731.7 0.020 0.000 6.9 7 1
02/05/06 11:29 p -10.6 -10.5 -10.6 --- --- 30.4 E 0.51 36.5 -23.0 --- --- 731.6 0.020 0.000 6.9 7 1
02/05/06 11:30 p -10.6 -10.6 -10.6 --- --- 32.2 E 0.54 34.8 -23.3 --- --- 731.6 0.020 0.000 6.9 7 1
02/05/06 11:31 p -10.6 -10.6 -10.6 --- --- 33.0 E 0.55 36.5 -23.5 --- --- 731.7 0.020 0.000 6.9 7 1
02/05/06 11:32 p -10.6 -10.6 -10.6 --- --- 31.3 E 0.52 34.8 -23.2 --- --- 731.7 0.020 0.000 6.9 7 1
02/05/06 11:33 p -10.6 -10.6 -10.6 --- --- 28.7 E 0.48 34.8 -22.8 --- --- 731.7 0.020 0.000 6.9 7 1
02/05/06 11:34 p -10.6 -10.6 -10.7 --- --- 31.3 E 0.52 33.0 -23.2 --- --- 731.7 0.020 0.000 6.9 7 1
02/05/06 11:35 p -10.7 -10.6 -10.7 --- --- 29.6 E 0.49 34.8 -23.0 --- --- 731.7 0.020 0.000 6.8 7 1
02/05/06 11:36 p -10.7 -10.6 -10.7 --- --- 31.3 E 0.52 35.7 -23.3 --- --- 731.7 0.020 0.000 6.8 7 1
02/05/06 11:37 p -10.7 -10.7 -10.7 --- --- 29.6 ESE 0.49 33.9 -23.0 --- --- 731.6 0.020 0.000 6.8 7 1
02/05/06 11:38 p -10.7 -10.7 -10.7 --- --- 29.6 E 0.49 34.8 -23.1 --- --- 731.5 0.020 0.000 6.8 7 1
02/05/06 11:39 p -10.7 -10.7 -10.7 --- --- 28.7 E 0.48 33.0 -22.9 --- --- 731.7 0.020 0.000 6.8 7 1
02/05/06 11:40 p -10.7 -10.7 -10.7 --- --- 27.0 E 0.45 33.0 -22.7 --- --- 731.5 0.020 0.000 6.8 7 1
02/05/06 11:41 p -10.7 -10.7 -10.7 --- --- 29.6 E 0.49 33.9 -23.1 --- --- 731.6 0.020 0.000 6.8 7 1
02/05/06 11:42 p -10.7 -10.7 -10.8 --- --- 27.8 E 0.46 33.0 -22.8 --- --- 731.6 0.020 0.000 6.8 7 1
02/05/06 11:43 p -10.7 -10.7 -10.8 --- --- 27.8 E 0.46 34.8 -22.8 --- --- 731.6 0.020 0.000 6.8 7 1
02/05/06 11:44 p -10.8 -10.7 -10.8 --- --- 28.7 E 0.48 33.0 -23.1 --- --- 731.5 0.020 0.000 6.8 7 1
02/05/06 11:45 p -10.8 -10.7 -10.8 --- --- 28.7 E 0.48 33.9 -23.1 --- --- 731.5 0.020 0.000 6.7 7 1
02/05/06 11:46 p -10.7 -10.7 -10.8 --- --- 27.8 E 0.46 33.0 -22.8 --- --- 731.5 0.020 0.000 6.7 7 1
02/05/06 11:47 p -10.7 -10.7 -10.7 --- --- 28.7 E 0.48 32.2 -22.9 --- --- 731.6 0.020 0.000 6.7 7 1
02/05/06 11:48 p -10.7 -10.7 -10.7 --- --- 29.6 E 0.49 33.9 -23.1 --- --- 731.5 0.020 0.000 6.7 7 1
02/05/06 11:49 p -10.7 -10.7 -10.7 --- --- 30.4 E 0.51 33.9 -23.2 --- --- 731.5 0.020 0.000 6.7 7 1
02/05/06 11:50 p -10.7 -10.7 -10.7 --- --- 29.6 E 0.49 34.8 -23.1 --- --- 731.4 0.020 0.000 6.7 7 1
02/05/06 11:51 p -10.7 -10.7 -10.7 --- --- 29.6 E 0.49 34.8 -23.1 --- --- 731.4 0.020 0.000 6.7 7 1
02/05/06 11:52 p -10.7 -10.7 -10.7 --- --- 30.4 ESE 0.51 34.8 -23.2 --- --- 731.5 0.020 0.000 6.7 7 1
02/05/06 11:53 p -10.7 -10.7 -10.7 --- --- 30.4 E 0.51 34.8 -23.2 --- --- 731.5 0.020 0.000 6.7 7 1
02/05/06 11:54 p -10.7 -10.7 -10.7 --- --- 31.3 E 0.52 37.4 -23.4 --- --- 731.4 0.020 0.000 6.6 7 1
02/05/06 11:55 p -10.7 -10.7 -10.7 --- --- 28.7 E 0.48 34.8 -22.9 --- --- 731.4 0.020 0.000 6.6 7 1
02/05/06 11:56 p -10.7 -10.6 -10.7 --- --- 32.2 E 0.54 35.7 -23.4 --- --- 731.4 0.020 0.000 6.6 7 1
02/05/06 11:57 p -10.6 -10.6 -10.6 --- --- 31.3 E 0.52 36.5 -23.2 --- --- 731.3 0.020 0.000 6.6 7 1
02/05/06 11:58 p -10.6 -10.6 -10.6 --- --- 31.3 E 0.52 34.8 -23.2 --- --- 731.4 0.020 0.000 6.6 7 1
02/05/06 11:59 p -10.6 -10.6 -10.6 --- --- 32.2 E 0.54 35.7 -23.3 --- --- 731.4 0.020 0.000 6.6 7 1
02/06/06 12:00 a -10.6 -10.6 -10.6 --- --- 33.0 E 0.55 38.3 -23.5 --- --- 731.4 0.020 0.000 6.6 7 1
02/06/06 12:01 a -10.6 -10.6 -10.6 --- --- 33.9 E 0.57 37.4 -23.5 --- --- 731.3 0.020 0.000 6.6 7 1
02/06/06 12:02 a -10.6 -10.6 -10.6 --- --- 33.9 E 0.57 37.4 -23.5 --- --- 731.3 0.020 0.000 6.6 7 1
02/06/06 12:03 a -10.6 -10.6 -10.6 --- --- 31.3 E 0.52 36.5 -23.1 --- --- 731.4 0.020 0.000 6.6 7 1
02/06/06 12:04 a -10.6 -10.5 -10.6 --- --- 32.2 E 0.54 36.5 -23.3 --- --- 731.5 0.020 0.000 6.7 7 1
02/06/06 12:05 a -10.6 -10.6 -10.6 --- --- 33.0 E 0.55 37.4 -23.4 --- --- 731.5 0.020 0.000 6.7 7 1
02/06/06 12:06 a -10.6 -10.6 -10.6 --- --- 33.0 ESE 0.55 39.1 -23.4 --- --- 731.5 0.020 0.000 6.7 7 1
02/06/06 12:07 a -10.5 -10.5 -10.6 --- --- 31.3 E 0.52 37.4 -23.1 --- --- 731.4 0.020 0.000 6.7 7 1
02/06/06 12:08 a -10.6 -10.6 -10.6 --- --- 33.0 E 0.55 36.5 -23.4 --- --- 731.4 0.020 0.000 6.7 7 1
02/06/06 12:09 a -10.6 -10.6 -10.6 --- --- 32.2 E 0.54 35.7 -23.3 --- --- 731.5 0.020 0.000 6.8 7 1
02/06/06 12:10 a -10.6 -10.5 -10.6 --- --- 31.3 E 0.52 36.5 -23.1 --- --- 731.4 0.020 0.000 6.8 7 1
02/06/06 12:11 a -10.6 -10.6 -10.6 --- --- 30.4 E 0.51 35.7 -23.0 --- --- 731.5 0.020 0.000 6.8 7 1
02/06/06 12:12 a -10.6 -10.6 -10.6 --- --- 31.3 E 0.52 35.7 -23.1 --- --- 731.4 0.020 0.000 6.8 7 1
02/06/06 12:13 a -10.6 -10.5 -10.6 --- --- 31.3 E 0.52 34.8 -23.1 --- --- 731.5 0.020 0.000 6.9 7 1
02/06/06 12:14 a -10.6 -10.6 -10.6 --- --- 29.6 E 0.49 33.0 -22.9 --- --- 731.4 0.020 0.000 6.9 7 1
02/06/06 12:15 a -10.6 -10.6 -10.6 --- --- 32.2 E 0.54 37.4 -23.3 --- --- 731.4 0.020 0.000 6.9 7 1
02/06/06 12:16 a -10.6 -10.6 -10.6 --- --- 30.4 E 0.51 34.8 -23.0 --- --- 731.3 0.020 0.000 6.9 7 1
02/06/06 12:17 a -10.6 -10.6 -10.6 --- --- 28.7 E 0.48 33.0 -22.7 --- --- 731.5 0.020 0.000 6.9 7 1
02/06/06 12:18 a -10.6 -10.6 -10.6 --- --- 28.7 E 0.48 33.0 -22.8 --- --- 731.3 0.020 0.000 6.9 7 1
02/06/06 12:19 a -10.6 -10.6 -10.6 --- --- 31.3 E 0.52 35.7 -23.2 --- --- 731.4 0.020 0.000 6.9 7 1
02/06/06 12:20 a -10.6 -10.6 -10.6 --- --- 31.3 E 0.52 32.2 -23.2 --- --- 731.4 0.020 0.000 6.9 7 1
02/06/06 12:21 a -10.7 -10.6 -10.7 --- --- 28.7 E 0.48 33.9 -22.9 --- --- 731.3 0.020 0.000 6.9 7 1
02/06/06 12:22 a -10.7 -10.6 -10.7 --- --- 32.2 E 0.54 35.7 -23.4 --- --- 731.3 0.020 0.000 6.9 7 1
02/06/06 12:23 a -10.7 -10.7 -10.7 --- --- 30.4 E 0.51 34.8 -23.2 --- --- 731.3 0.020 0.000 6.9 7 1
02/06/06 12:24 a -10.7 -10.7 -10.7 --- --- 30.4 E 0.51 34.8 -23.2 --- --- 731.3 0.020 0.000 6.9 7 1
02/06/06 12:25 a -10.7 -10.7 -10.7 --- --- 33.0 E 0.55 37.4 -23.6 --- --- 731.2 0.020 0.000 6.9 7 1
02/06/06 12:26 a -10.7 -10.7 -10.7 --- --- 31.3 E 0.52 36.5 -23.4 --- --- 731.3 0.020 0.000 6.9 7 1
02/06/06 12:27 a -10.7 -10.7 -10.7 --- --- 31.3 E 0.52 36.5 -23.4 --- --- 731.2 0.020 0.000 6.9 7 1
02/06/06 12:28 a -10.7 -10.7 -10.8 --- --- 33.0 E 0.55 38.3 -23.6 --- --- 731.0 0.020 0.000 6.9 7 1
02/06/06 12:29 a -10.8 -10.8 -10.8 --- --- 34.8 ESE 0.58 39.1 -23.9 --- --- 731.2 0.020 0.000 6.9 7 1
02/06/06 12:30 a -10.8 -10.8 -10.8 --- --- 33.0 E 0.55 35.7 -23.7 --- --- 731.1 0.020 0.000 6.8 7 1
02/06/06 12:31 a -10.7 -10.7 -10.8 --- --- 32.2 E 0.54 35.7 -23.5 --- --- 731.1 0.020 0.000 6.9 7 1
02/06/06 12:32 a -10.8 -10.7 -10.8 --- --- 33.0 E 0.55 37.4 -23.7 --- --- 731.0 0.020 0.000 6.8 7 1
02/06/06 12:33 a -10.7 -10.7 -10.8 --- --- 33.0 E 0.55 35.7 -23.6 --- --- 731.1 0.020 0.000 6.8 7 1
02/06/06 12:34 a -10.8 -10.8 -10.8 --- --- 33.0 E 0.55 38.3 -23.7 --- --- 731.0 0.020 0.000 6.8 7 1
02/06/06 12:35 a -10.8 -10.8 -10.8 --- --- 35.7 E 0.59 39.1 -24.1 --- --- 731.0 0.020 0.000 6.8 7 1
02/06/06 12:36 a -10.8 -10.8 -10.8 --- --- 34.8 E 0.58 39.1 -23.9 --- --- 731.1 0.020 0.000 6.8 7 1
02/06/06 12:37 a -10.8 -10.8 -10.8 --- --- 36.5 E 0.61 40.0 -24.2 --- --- 731.0 0.020 0.000 6.8 7 1
02/06/06 12:38 a -10.8 -10.8 -10.8 --- --- 34.8 E 0.58 39.1 -24.1 --- --- 730.9 0.020 0.000 6.8 7 1
02/06/06 12:39 a -10.8 -10.8 -10.8 --- --- 34.8 E 0.58 40.9 -23.9 --- --- 730.9 0.020 0.000 6.8 7 1
02/06/06 12:40 a -10.8 -10.8 -10.8 --- --- 35.7 E 0.59 40.0 -24.1 --- --- 730.9 0.020 0.000 6.8 7 1
02/06/06 12:41 a -10.8 -10.8 -10.8 --- --- 35.7 E 0.59 39.1 -24.2 --- --- 730.9 0.020 0.000 6.7 7 1
02/06/06 12:42 a -10.8 -10.8 -10.8 --- --- 35.7 E 0.59 38.3 -24.1 --- --- 730.9 0.020 0.000 6.7 7 1
02/06/06 12:43 a -10.8 -10.8 -10.9 --- --- 35.7 E 0.59 39.1 -24.2 --- --- 730.9 0.020 0.000 6.7 7 1
02/06/06 12:44 a -10.9 -10.8 -10.9 --- --- 33.9 E 0.57 38.3 -24.0 --- --- 731.0 0.020 0.000 6.7 7 1
02/06/06 12:45 a -10.9 -10.9 -10.9 --- --- 33.9 E 0.57 37.4 -24.0 --- --- 730.9 0.020 0.000 6.7 7 1
02/06/06 12:46 a -10.9 -10.9 -10.9 --- --- 35.7 E 0.59 40.0 -24.3 --- --- 730.9 0.020 0.000 6.7 7 1
02/06/06 12:47 a -10.9 -10.9 -10.9 --- --- 35.7 E 0.59 38.3 -24.3 --- --- 731.0 0.020 0.000 6.7 7 1
02/06/06 12:48 a -10.9 -10.9 -11.0 --- --- 36.5 E 0.61 40.0 -24.4 --- --- 730.9 0.020 0.000 6.7 7 1
02/06/06 12:49 a -11.0 -11.0 -11.0 --- --- 37.4 E 0.62 41.7 -24.6 --- --- 730.9 0.020 0.000 6.7 7 1
02/06/06 12:50 a -11.0 -11.0 -11.1 --- --- 35.7 E 0.59 39.1 -24.4 --- --- 731.0 0.020 0.000 6.6 7 1
02/06/06 12:51 a -11.0 -11.0 -11.1 --- --- 35.7 E 0.59 39.1 -24.4 --- --- 730.9 0.020 0.000 6.6 7 1
02/06/06 12:52 a -11.1 -11.0 -11.1 --- --- 35.7 E 0.59 39.1 -24.4 --- --- 731.0 0.020 0.000 6.6 7 1
02/06/06 12:53 a -11.1 -11.1 -11.1 --- --- 34.8 E 0.58 37.4 -24.3 --- --- 730.9 0.020 0.000 6.6 7 1
02/06/06 12:54 a -11.1 -11.1 -11.1 --- --- 34.8 E 0.58 39.1 -24.4 --- --- 730.9 0.020 0.000 6.6 7 1
02/06/06 12:55 a -11.1 -11.1 -11.2 --- --- 34.8 E 0.58 40.0 -24.4 --- --- 731.0 0.020 0.000 6.6 7 1
02/06/06 12:56 a -11.1 -11.1 -11.1 --- --- 33.9 E 0.57 38.3 -24.3 --- --- 731.1 0.020 0.000 6.6 7 1
02/06/06 12:57 a -11.2 -11.1 -11.2 --- --- 33.9 E 0.57 39.1 -24.4 --- --- 730.9 0.020 0.000 6.6 7 1
02/06/06 12:58 a -11.2 -11.2 -11.2 --- --- 35.7 E 0.59 39.1 -24.6 --- --- 730.9 0.020 0.000 6.6 7 1
02/06/06 12:59 a -11.2 -11.2 -11.2 --- --- 34.8 E 0.58 39.1 -24.5 --- --- 731.0 0.020 0.000 6.6 7 1
02/06/06 1:00 a -11.2 -11.2 -11.2 --- --- 33.9 E 0.57 39.1 -24.4 --- --- 731.0 0.021 0.000 6.6 7 1
02/06/06 1:01 a -11.2 -11.2 -11.2 --- --- 34.8 E 0.58 37.4 -24.6 --- --- 730.9 0.021 0.000 6.7 7 1
02/06/06 1:02 a -11.2 -11.2 -11.3 --- --- 36.5 E 0.61 40.0 -24.8 --- --- 730.9 0.021 0.000 6.7 7 1
02/06/06 1:03 a -11.3 -11.2 -11.3 --- --- 35.7 E 0.59 38.3 -24.8 --- --- 730.9 0.021 0.000 6.7 7 1
02/06/06 1:04 a -11.2 -11.2 -11.3 --- --- 37.4 E 0.62 40.0 -24.9 --- --- 730.9 0.021 0.000 6.7 7 1
02/06/06 1:05 a -11.3 -11.3 -11.3 --- --- 39.1 E 0.65 40.9 -25.2 --- --- 730.8 0.021 0.000 6.7 7 1
02/06/06 1:06 a -11.3 -11.3 -11.3 --- --- 35.7 E 0.59 40.9 -24.8 --- --- 730.9 0.021 0.000 6.8 7 1
02/06/06 1:07 a -11.3 -11.3 -11.3 --- --- 38.3 E 0.64 40.0 -25.1 --- --- 730.9 0.021 0.000 6.8 7 1
02/06/06 1:08 a -11.3 -11.3 -11.3 --- --- 36.5 E 0.61 40.0 -24.9 --- --- 730.8 0.021 0.000 6.8 7 1
02/06/06 1:09 a -11.3 -11.3 -11.3 --- --- 36.5 E 0.61 39.1 -24.9 --- --- 730.9 0.021 0.000 6.8 7 1
02/06/06 1:10 a -11.3 -11.3 -11.3 --- --- 35.7 E 0.59 39.1 -24.8 --- --- 730.9 0.021 0.000 6.8 7 1
02/06/06 1:11 a -11.3 -11.2 -11.3 --- --- 34.8 ESE 0.58 40.0 -24.7 --- --- 730.9 0.021 0.000 6.8 7 1
02/06/06 1:12 a -11.3 -11.3 -11.3 --- --- 38.3 E 0.64 41.7 -25.1 --- --- 730.9 0.021 0.000 6.8 7 1
02/06/06 1:13 a -11.3 -11.3 -11.3 --- --- 38.3 E 0.64 40.9 -25.1 --- --- 730.8 0.021 0.000 6.8 7 1
02/06/06 1:14 a -11.3 -11.2 -11.3 --- --- 36.5 ESE 0.61 40.9 -24.9 --- --- 730.8 0.021 0.000 6.8 7 1
02/06/06 1:15 a -11.3 -11.2 -11.3 --- --- 38.3 ESE 0.64 41.7 -25.1 --- --- 730.7 0.021 0.000 6.7 7 1
02/06/06 1:16 a -11.3 -11.2 -11.3 --- --- 37.4 E 0.62 40.9 -25.0 --- --- 730.7 0.021 0.000 6.7 7 1
02/06/06 1:17 a -11.3 -11.2 -11.3 --- --- 37.4 ESE 0.62 40.9 -25.0 --- --- 730.9 0.021 0.000 6.7 7 1
02/06/06 1:18 a -11.3 -11.3 -11.3 --- --- 36.5 E 0.61 41.7 -24.9 --- --- 730.7 0.021 0.000 6.7 7 1
02/06/06 1:19 a -11.3 -11.3 -11.3 --- --- 39.1 E 0.65 43.5 -25.2 --- --- 730.7 0.021 0.000 6.7 7 1
02/06/06 1:20 a -11.3 -11.3 -11.3 --- --- 38.3 E 0.64 40.9 -25.1 --- --- 730.8 0.021 0.000 6.7 7 1
02/06/06 1:21 a -11.3 -11.3 -11.3 --- --- 39.1 E 0.65 42.6 -25.2 --- --- 730.8 0.021 0.000 6.7 7 1
02/06/06 1:22 a -11.3 -11.3 -11.3 --- --- 36.5 E 0.61 39.1 -24.9 --- --- 730.8 0.021 0.000 6.7 7 1
02/06/06 1:23 a -11.3 -11.3 -11.3 --- --- 37.4 E 0.62 41.7 -25.1 --- --- 730.8 0.021 0.000 6.7 7 1
02/06/06 1:24 a -11.3 -11.3 -11.3 --- --- 37.4 E 0.62 40.9 -25.1 --- --- 730.8 0.021 0.000 6.7 7 1
02/06/06 1:25 a -11.3 -11.3 -11.3 --- --- 36.5 E 0.61 41.7 -24.9 --- --- 730.7 0.021 0.000 6.7 7 1
02/06/06 1:26 a -11.3 -11.3 -11.3 --- --- 38.3 E 0.64 42.6 -25.2 --- --- 730.7 0.021 0.000 6.7 7 1
02/06/06 1:27 a -11.3 -11.3 -11.3 --- --- 37.4 E 0.62 40.9 -25.0 --- --- 730.8 0.021 0.000 6.7 7 1
02/06/06 1:28 a -11.3 -11.3 -11.3 --- --- 36.5 E 0.61 40.9 -24.9 --- --- 730.8 0.021 0.000 6.7 7 1
02/06/06 1:29 a -11.3 -11.3 -11.3 --- --- 38.3 E 0.64 42.6 -25.2 --- --- 730.8 0.021 0.000 6.7 7 1
02/06/06 1:30 a -11.3 -11.3 -11.3 --- --- 37.4 E 0.62 41.7 -25.1 --- --- 730.8 0.021 0.000 6.7 7 1
02/06/06 1:31 a -11.3 -11.3 -11.3 --- --- 36.5 E 0.61 41.7 -24.9 --- --- 730.8 0.021 0.000 6.6 7 1
02/06/06 1:32 a -11.3 -11.3 -11.3 --- --- 37.4 E 0.62 40.0 -25.1 --- --- 730.8 0.021 0.000 6.6 7 1
02/06/06 1:33 a -11.3 -11.3 -11.3 --- --- 37.4 E 0.62 41.7 -25.1 --- --- 730.8 0.021 0.000 6.6 7 1
02/06/06 1:34 a -11.3 -11.3 -11.3 --- --- 37.4 E 0.62 40.9 -25.1 --- --- 730.8 0.021 0.000 6.6 7 1
02/06/06 1:35 a -11.3 -11.3 -11.3 --- --- 36.5 E 0.61 40.0 -24.9 --- --- 730.8 0.021 0.000 6.6 7 1
02/06/06 1:36 a -11.3 -11.3 -11.3 --- --- 36.5 E 0.61 41.7 -24.9 --- --- 730.7 0.021 0.000 6.6 7 1
02/06/06 1:37 a -11.3 -11.3 -11.3 --- --- 38.3 E 0.64 40.9 -25.2 --- --- 730.8 0.021 0.000 6.6 7 1
02/06/06 1:38 a -11.3 -11.3 -11.3 --- --- 35.7 E 0.59 40.0 -24.8 --- --- 730.6 0.021 0.000 6.6 7 1
02/06/06 1:39 a -11.3 -11.3 -11.3 --- --- 38.3 E 0.64 42.6 -25.2 --- --- 730.6 0.021 0.000 6.6 7 1
02/06/06 1:40 a -11.3 -11.3 -11.3 --- --- 37.4 E 0.62 40.0 -25.0 --- --- 730.8 0.021 0.000 6.6 7 1
02/06/06 1:41 a -11.3 -11.3 -11.3 --- --- 37.4 E 0.62 42.6 -25.0 --- --- 730.7 0.021 0.000 6.7 7 1
02/06/06 1:42 a -11.3 -11.2 -11.3 --- --- 38.3 E 0.64 41.7 -25.1 --- --- 730.6 0.021 0.000 6.7 7 1
02/06/06 1:43 a -11.2 -11.2 -11.3 --- --- 37.4 E 0.62 40.9 -24.9 --- --- 730.7 0.021 0.000 6.7 7 1
02/06/06 1:44 a -11.2 -11.2 -11.2 --- --- 38.3 E 0.64 41.7 -25.1 --- --- 730.7 0.021 0.000 6.7 7 1
02/06/06 1:45 a -11.2 -11.2 -11.2 --- --- 37.4 E 0.62 40.9 -24.8 --- --- 730.7 0.020 0.000 6.8 7 1
02/06/06 1:46 a -11.2 -11.2 -11.2 --- --- 35.7 E 0.59 40.0 -24.6 --- --- 730.6 0.020 0.000 6.8 7 1
02/06/06 1:47 a -11.2 -11.2 -11.2 --- --- 36.5 E 0.61 41.7 -24.7 --- --- 730.7 0.020 0.000 6.8 7 1
02/06/06 1:48 a -11.2 -11.1 -11.2 --- --- 36.5 E 0.61 40.9 -24.7 --- --- 730.7 0.020 0.000 6.9 7 1
02/06/06 1:49 a -11.2 -11.1 -11.2 --- --- 36.5 E 0.61 41.7 -24.7 --- --- 730.6 0.020 0.000 6.9 7 1
02/06/06 1:50 a -11.1 -11.1 -11.2 --- --- 37.4 E 0.62 42.6 -24.8 --- --- 730.6 0.020 0.000 6.9 7 1
02/06/06 1:51 a -11.1 -11.1 -11.2 --- --- 34.8 E 0.58 37.4 -24.4 --- --- 730.6 0.020 0.000 6.9 7 1
02/06/06 1:52 a -11.1 -11.1 -11.2 --- --- 35.7 E 0.59 40.9 -24.6 --- --- 730.6 0.020 0.000 6.9 7 1
02/06/06 1:53 a -11.1 -11.1 -11.2 --- --- 36.5 E 0.61 41.7 -24.7 --- --- 730.5 0.020 0.000 6.9 7 1
02/06/06 1:54 a -11.1 -11.1 -11.2 --- --- 34.8 E 0.58 40.9 -24.4 --- --- 730.5 0.020 0.000 6.9 7 1
02/06/06 1:55 a -11.2 -11.2 -11.2 --- --- 37.4 E 0.62 40.9 -24.8 --- --- 730.4 0.020 0.000 6.9 7 1
02/06/06 1:56 a -11.1 -11.1 -11.2 --- --- 36.5 E 0.61 40.0 -24.7 --- --- 730.5 0.020 0.000 6.9 7 1
02/06/06 1:57 a -11.2 -11.2 -11.2 --- --- 36.5 ESE 0.61 41.7 -24.7 --- --- 730.5 0.020 0.000 6.9 7 1
02/06/06 1:58 a -11.2 -11.1 -11.2 --- --- 35.7 E 0.59 40.0 -24.6 --- --- 730.5 0.020 0.000 6.8 7 1
02/06/06 1:59 a -11.2 -11.2 -11.2 --- --- 37.4 E 0.62 40.9 -24.8 --- --- 730.5 0.020 0.000 6.8 7 1
02/06/06 2:00 a -11.2 -11.2 -11.2 --- --- 35.7 E 0.59 40.0 -24.6 --- --- 730.5 0.020 0.000 6.8 7 1
02/06/06 2:01 a -11.2 -11.2 -11.2 --- --- 35.7 E 0.59 39.1 -24.7 --- --- 730.5 0.021 0.000 6.8 7 1
02/06/06 2:02 a -11.2 -11.2 -11.3 --- --- 36.5 E 0.61 41.7 -24.8 --- --- 730.5 0.021 0.000 6.7 7 1
02/06/06 2:03 a -11.2 -11.2 -11.2 --- --- 35.7 E 0.59 40.0 -24.7 --- --- 730.5 0.021 0.000 6.7 7 1
02/06/06 2:04 a -11.3 -11.2 -11.3 --- --- 35.7 E 0.59 40.9 -24.8 --- --- 730.5 0.021 0.000 6.7 7 1
02/06/06 2:05 a -11.3 -11.3 -11.3 --- --- 35.7 E 0.59 40.0 -24.8 --- --- 730.6 0.021 0.000 6.7 7 1
02/06/06 2:06 a -11.3 -11.3 -11.3 --- --- 35.7 E 0.59 40.9 -24.8 --- --- 730.5 0.021 0.000 6.6 7 1
02/06/06 2:07 a -11.3 -11.3 -11.3 --- --- 34.8 E 0.58 40.9 -24.7 --- --- 730.4 0.021 0.000 6.6 7 1
02/06/06 2:08 a -11.3 -11.3 -11.4 --- --- 39.1 E 0.65 42.6 -25.3 --- --- 730.4 0.021 0.000 6.6 7 1
02/06/06 2:09 a -11.3 -11.3 -11.4 --- --- 35.7 E 0.59 40.9 -24.8 --- --- 730.6 0.021 0.000 6.6 7 1
02/06/06 2:10 a -11.4 -11.3 -11.4 --- --- 37.4 E 0.62 40.0 -25.2 --- --- 730.5 0.021 0.000 6.6 7 1
02/06/06 2:11 a -11.4 -11.3 -11.4 --- --- 35.7 E 0.59 40.0 -24.9 --- --- 730.5 0.021 0.000 6.6 7 1
02/06/06 2:12 a -11.4 -11.4 -11.4 --- --- 35.7 E 0.59 40.0 -24.9 --- --- 730.6 0.021 0.000 6.6 7 1
02/06/06 2:13 a -11.4 -11.4 -11.4 --- --- 35.7 E 0.59 39.1 -24.9 --- --- 730.7 0.021 0.000 6.6 7 1
02/06/06 2:14 a -11.4 -11.4 -11.4 --- --- 36.5 E 0.61 40.9 -25.1 --- --- 730.6 0.021 0.000 6.6 7 1
02/06/06 2:15 a -11.4 -11.4 -11.4 --- --- 35.7 ESE 0.59 40.9 -25.0 --- --- 730.6 0.021 0.000 6.6 7 1
02/06/06 2:16 a -11.4 -11.4 -11.5 --- --- 35.7 E 0.59 39.1 -25.0 --- --- 730.5 0.021 0.000 6.6 7 1
02/06/06 2:17 a -11.4 -11.4 -11.5 --- --- 34.8 E 0.58 39.1 -24.9 --- --- 730.6 0.021 0.000 6.6 7 1
02/06/06 2:18 a -11.4 -11.4 -11.5 --- --- 35.7 E 0.59 40.0 -25.0 --- --- 730.6 0.021 0.000 6.6 7 1
02/06/06 2:19 a -11.5 -11.4 -11.5 --- --- 36.5 E 0.61 40.0 -25.2 --- --- 730.5 0.021 0.000 6.6 7 1
02/06/06 2:20 a -11.5 -11.4 -11.5 --- --- 33.9 E 0.57 37.4 -24.8 --- --- 730.6 0.021 0.000 6.6 7 1
02/06/06 2:21 a -11.5 -11.5 -11.5 --- --- 35.7 E 0.59 40.9 -25.1 --- --- 730.5 0.021 0.000 6.5 7 1
02/06/06 2:22 a -11.5 -11.5 -11.6 --- --- 35.7 E 0.59 39.1 -25.1 --- --- 730.6 0.021 0.000 6.5 7 1
02/06/06 2:23 a -11.5 -11.5 -11.6 --- --- 35.7 E 0.59 39.1 -25.1 --- --- 730.5 0.021 0.000 6.5 7 1
02/06/06 2:24 a -11.5 -11.5 -11.5 --- --- 36.5 E 0.61 39.1 -25.2 --- --- 730.4 0.021 0.000 6.5 7 1
02/06/06 2:25 a -11.6 -11.5 -11.6 --- --- 37.4 E 0.62 40.9 -25.4 --- --- 730.5 0.021 0.000 6.5 7 1
02/06/06 2:26 a -11.6 -11.6 -11.6 --- --- 33.9 E 0.57 38.3 -24.9 --- --- 730.5 0.021 0.000 6.6 7 1
02/06/06 2:27 a -11.6 -11.6 -11.6 --- --- 36.5 E 0.61 40.9 -25.3 --- --- 730.5 0.021 0.000 6.6 7 1
02/06/06 2:28 a -11.6 -11.6 -11.6 --- --- 34.8 E 0.58 40.0 -25.1 --- --- 730.4 0.021 0.000 6.6 7 1
02/06/06 2:29 a -11.6 -11.6 -11.6 --- --- 36.5 E 0.61 41.7 -25.3 --- --- 730.4 0.021 0.000 6.6 7 1
02/06/06 2:30 a -11.6 -11.6 -11.6 --- --- 36.5 E 0.61 40.9 -25.3 --- --- 730.5 0.021 0.000 6.7 7 1
02/06/06 2:31 a -11.6 -11.6 -11.6 --- --- 36.5 E 0.61 40.0 -25.3 --- --- 730.4 0.021 0.000 6.7 7 1
02/06/06 2:32 a -11.6 -11.6 -11.6 --- --- 39.1 E 0.65 41.7 -25.7 --- --- 730.4 0.021 0.000 6.7 7 1
02/06/06 2:33 a -11.6 -11.6 -11.7 --- --- 38.3 E 0.64 41.7 -25.6 --- --- 730.4 0.021 0.000 6.7 7 1
02/06/06 2:34 a -11.7 -11.6 -11.7 --- --- 36.5 E 0.61 41.7 -25.4 --- --- 730.5 0.021 0.000 6.7 7 1
02/06/06 2:35 a -11.6 -11.6 -11.7 --- --- 36.5 E 0.61 40.0 -25.3 --- --- 730.4 0.021 0.000 6.7 7 1
02/06/06 2:36 a -11.7 -11.7 -11.7 --- --- 35.7 E 0.59 41.7 -25.3 --- --- 730.3 0.021 0.000 6.8 7 1
02/06/06 2:37 a -11.7 -11.7 -11.7 --- --- 38.3 E 0.64 40.9 -25.7 --- --- 730.4 0.021 0.000 6.8 7 1
02/06/06 2:38 a -11.7 -11.6 -11.7 --- --- 35.7 E 0.59 40.9 -25.3 --- --- 730.4 0.021 0.000 6.8 7 1
02/06/06 2:39 a -11.7 -11.7 -11.7 --- --- 34.8 ESE 0.58 38.3 -25.2 --- --- 730.3 0.021 0.000 6.8 7 1
02/06/06 2:40 a -11.7 -11.7 -11.7 --- --- 35.7 E 0.59 40.9 -25.4 --- --- 730.4 0.021 0.000 6.8 7 1
02/06/06 2:41 a -11.7 -11.6 -11.7 --- --- 37.4 ESE 0.62 40.9 -25.6 --- --- 730.5 0.021 0.000 6.8 7 1
02/06/06 2:42 a -11.7 -11.7 -11.7 --- --- 35.7 E 0.59 40.0 -25.3 --- --- 730.5 0.021 0.000 6.8 7 1
02/06/06 2:43 a -11.7 -11.7 -11.7 --- --- 37.4 E 0.62 40.9 -25.6 --- --- 730.4 0.021 0.000 6.8 7 1
02/06/06 2:44 a -11.7 -11.7 -11.7 --- --- 37.4 E 0.62 40.9 -25.6 --- --- 730.3 0.021 0.000 6.8 7 1
02/06/06 2:45 a -11.7 -11.7 -11.7 --- --- 35.7 E 0.59 38.3 -25.3 --- --- 730.4 0.021 0.000 6.8 7 1
02/06/06 2:46 a -11.7 -11.7 -11.7 --- --- 34.8 E 0.58 37.4 -25.2 --- --- 730.5 0.021 0.000 6.8 6 1
02/06/06 2:47 a -11.7 -11.6 -11.7 --- --- 36.5 E 0.61 40.9 -25.4 --- --- 730.4 0.021 0.000 6.8 7 1
02/06/06 2:48 a -11.7 -11.7 -11.7 --- --- 36.5 E 0.61 39.1 -25.4 --- --- 730.4 0.021 0.000 6.8 7 1
02/06/06 2:49 a -11.7 -11.6 -11.7 --- --- 36.5 E 0.61 39.1 -25.4 --- --- 730.5 0.021 0.000 6.8 6 1
02/06/06 2:50 a -11.7 -11.6 -11.7 --- --- 34.8 E 0.58 40.9 -25.2 --- --- 730.4 0.021 0.000 6.8 6 1
02/06/06 2:51 a -11.6 -11.6 -11.6 --- --- 37.4 E 0.62 40.9 -25.5 --- --- 730.6 0.021 0.000 6.8 6 1
02/06/06 2:52 a -11.6 -11.6 -11.6 --- --- 36.5 E 0.61 40.0 -25.3 --- --- 730.5 0.021 0.000 6.8 6 1
02/06/06 2:53 a -11.6 -11.6 -11.7 --- --- 34.8 E 0.58 38.3 -25.1 --- --- 730.6 0.021 0.000 6.8 6 1
02/06/06 2:54 a -11.6 -11.6 -11.6 --- --- 33.0 E 0.55 38.3 -24.8 --- --- 730.7 0.021 0.000 6.7 7 1
02/06/06 2:55 a -11.6 -11.6 -11.6 --- --- 35.7 E 0.59 40.0 -25.2 --- --- 730.4 0.021 0.000 6.7 6 1
02/06/06 2:56 a -11.6 -11.6 -11.6 --- --- 37.4 E 0.62 40.9 -25.5 --- --- 730.5 0.021 0.000 6.7 7 1
02/06/06 2:57 a -11.6 -11.6 -11.6 --- --- 34.8 E 0.58 39.1 -25.1 --- --- 730.5 0.021 0.000 6.7 7 1
02/06/06 2:58 a -11.6 -11.6 -11.6 --- --- 33.9 E 0.57 40.0 -25.0 --- --- 730.6 0.021 0.000 6.7 6 1
02/06/06 2:59 a -11.6 -11.6 -11.6 --- --- 35.7 E 0.59 38.3 -25.2 --- --- 730.5 0.021 0.000 6.7 6 1
02/06/06 3:00 a -11.6 -11.6 -11.6 --- --- 36.5 E 0.61 40.0 -25.3 --- --- 730.4 0.021 0.000 6.7 6 1
02/06/06 3:01 a -11.6 -11.6 -11.6 --- --- 35.7 E 0.59 40.0 -25.2 --- --- 730.5 0.021 0.000 6.7 6 1
02/06/06 3:02 a -11.6 -11.6 -11.6 --- --- 36.5 E 0.61 40.9 -25.3 --- --- 730.5 0.021 0.000 6.7 6 1
02/06/06 3:03 a -11.6 -11.6 -11.6 --- --- 36.5 E 0.61 40.9 -25.3 --- --- 730.5 0.021 0.000 6.7 7 1
02/06/06 3:04 a -11.6 -11.6 -11.6 --- --- 37.4 ESE 0.62 41.7 -25.5 --- --- 730.5 0.021 0.000 6.7 6 1
02/06/06 3:05 a -11.6 -11.6 -11.6 --- --- 36.5 ESE 0.61 38.3 -25.3 --- --- 730.6 0.021 0.000 6.7 6 1
02/06/06 3:06 a -11.6 -11.6 -11.6 --- --- 37.4 E 0.62 39.1 -25.5 --- --- 730.5 0.021 0.000 6.6 6 1
02/06/06 3:07 a -11.6 -11.6 -11.6 --- --- 35.7 ESE 0.59 39.1 -25.2 --- --- 730.6 0.021 0.000 6.6 6 1
02/06/06 3:08 a -11.6 -11.6 -11.6 --- --- 34.8 E 0.58 38.3 -25.1 --- --- 730.4 0.021 0.000 6.6 6 1
02/06/06 3:09 a -11.6 -11.5 -11.6 --- --- 37.4 ESE 0.62 39.1 -25.4 --- --- 730.4 0.021 0.000 6.6 6 1
02/06/06 3:10 a -11.6 -11.6 -11.6 --- --- 36.5 ESE 0.61 40.0 -25.3 --- --- 730.4 0.021 0.000 6.6 6 1
02/06/06 3:11 a -11.6 -11.6 -11.6 --- --- 36.5 ESE 0.61 40.0 -25.3 --- --- 730.4 0.021 0.000 6.6 6 1
02/06/06 3:12 a -11.6 -11.6 -11.6 --- --- 38.3 ESE 0.64 40.0 -25.5 --- --- 730.4 0.021 0.000 6.6 6 1
02/06/06 3:13 a -11.6 -11.6 -11.6 --- --- 36.5 ESE 0.61 40.9 -25.3 --- --- 730.6 0.021 0.000 6.6 6 1
02/06/06 3:14 a -11.6 -11.5 -11.6 --- --- 37.4 ESE 0.62 40.9 -25.4 --- --- 730.5 0.021 0.000 6.6 6 1
02/06/06 3:15 a -11.6 -11.6 -11.6 --- --- 37.4 ESE 0.62 40.0 -25.4 --- --- 730.5 0.021 0.000 6.6 6 1
02/06/06 3:16 a -11.6 -11.6 -11.6 --- --- 38.3 ESE 0.64 41.7 -25.5 --- --- 730.5 0.021 0.000 6.6 6 1
02/06/06 3:17 a -11.6 -11.6 -11.6 --- --- 35.7 E 0.59 40.0 -25.2 --- --- 730.5 0.021 0.000 6.6 6 1
02/06/06 3:18 a -11.6 -11.5 -11.6 --- --- 36.5 E 0.61 40.0 -25.3 --- --- 730.5 0.021 0.000 6.6 7 1
02/06/06 3:19 a -11.5 -11.5 -11.6 --- --- 37.4 E 0.62 40.0 -25.3 --- --- 730.4 0.021 0.000 6.6 7 1
02/06/06 3:20 a -11.6 -11.6 -11.6 --- --- 36.5 E 0.61 39.1 -25.3 --- --- 730.5 0.021 0.000 6.6 7 1
02/06/06 3:21 a -11.6 -11.6 -11.6 --- --- 36.5 E 0.61 40.0 -25.3 --- --- 730.4 0.021 0.000 6.6 6 1
02/06/06 3:22 a -11.6 -11.6 -11.6 --- --- 37.4 ESE 0.62 41.7 -25.4 --- --- 730.4 0.021 0.000 6.6 7 1
02/06/06 3:23 a -11.6 -11.6 -11.6 --- --- 37.4 ESE 0.62 40.9 -25.4 --- --- 730.3 0.021 0.000 6.6 6 1
02/06/06 3:24 a -11.6 -11.5 -11.6 --- --- 35.7 E 0.59 40.0 -25.2 --- --- 730.4 0.021 0.000 6.6 6 1
02/06/06 3:25 a -11.5 -11.5 -11.6 --- --- 35.7 E 0.59 40.9 -25.1 --- --- 730.5 0.021 0.000 6.6 7 1
02/06/06 3:26 a -11.5 -11.5 -11.6 --- --- 37.4 E 0.62 40.0 -25.3 --- --- 730.5 0.021 0.000 6.7 7 1
02/06/06 3:27 a -11.6 -11.5 -11.6 --- --- 36.5 ESE 0.61 38.3 -25.3 --- --- 730.4 0.021 0.000 6.7 7 1
02/06/06 3:28 a -11.6 -11.5 -11.6 --- --- 35.7 E 0.59 39.1 -25.2 --- --- 730.5 0.021 0.000 6.7 6 1
02/06/06 3:29 a -11.6 -11.5 -11.6 --- --- 36.5 ESE 0.61 39.1 -25.3 --- --- 730.4 0.021 0.000 6.7 6 1
02/06/06 3:30 a -11.6 -11.5 -11.6 --- --- 35.7 ESE 0.59 40.0 -25.2 --- --- 730.5 0.021 0.000 6.7 7 1
02/06/06 3:31 a -11.6 -11.6 -11.6 --- --- 34.8 ESE 0.58 37.4 -25.1 --- --- 730.5 0.021 0.000 6.7 7 1
02/06/06 3:32 a -11.6 -11.5 -11.6 --- --- 34.8 E 0.58 38.3 -25.1 --- --- 730.4 0.021 0.000 6.7 7 1
02/06/06 3:33 a -11.5 -11.5 -11.5 --- --- 33.0 E 0.55 37.4 -24.7 --- --- 730.5 0.021 0.000 6.7 7 1
02/06/06 3:34 a -11.5 -11.5 -11.6 --- --- 37.4 ESE 0.62 40.9 -25.3 --- --- 730.5 0.021 0.000 6.7 7 1
02/06/06 3:35 a -11.5 -11.5 -11.6 --- --- 35.7 ESE 0.59 37.4 -25.1 --- --- 730.4 0.021 0.000 6.6 7 1
02/06/06 3:36 a -11.5 -11.5 -11.6 --- --- 35.7 ESE 0.59 38.3 -25.1 --- --- 730.4 0.021 0.000 6.6 7 1
02/06/06 3:37 a -11.6 -11.6 -11.6 --- --- 34.8 ESE 0.58 38.3 -25.1 --- --- 730.5 0.021 0.000 6.6 7 1
02/06/06 3:38 a -11.6 -11.5 -11.6 --- --- 33.9 ESE 0.57 39.1 -24.9 --- --- 730.5 0.021 0.000 6.6 7 1
02/06/06 3:39 a -11.6 -11.6 -11.6 --- --- 34.8 E 0.58 39.1 -25.1 --- --- 730.4 0.021 0.000 6.6 6 1
02/06/06 3:40 a -11.6 -11.6 -11.6 --- --- 34.8 E 0.58 38.3 -25.1 --- --- 730.5 0.021 0.000 6.6 7 1
02/06/06 3:41 a -11.6 -11.6 -11.6 --- --- 35.7 E 0.59 37.4 -25.2 --- --- 730.5 0.021 0.000 6.6 7 1
02/06/06 3:42 a -11.6 -11.5 -11.6 --- --- 33.9 ESE 0.57 37.4 -24.9 --- --- 730.5 0.021 0.000 6.6 7 1
02/06/06 3:43 a -11.6 -11.5 -11.6 --- --- 33.0 ESE 0.55 36.5 -24.8 --- --- 730.6 0.021 0.000 6.6 7 1
02/06/06 3:44 a -11.6 -11.6 -11.6 --- --- 33.0 E 0.55 36.5 -24.8 --- --- 730.4 0.021 0.000 6.6 7 1
02/06/06 3:45 a -11.6 -11.6 -11.6 --- --- 33.0 E 0.55 36.5 -24.8 --- --- 730.5 0.021 0.000 6.6 7 1
02/06/06 3:46 a -11.6 -11.5 -11.6 --- --- 34.8 E 0.58 37.4 -25.1 --- --- 730.5 0.021 0.000 6.6 7 1
02/06/06 3:47 a -11.6 -11.6 -11.6 --- --- 33.0 E 0.55 37.4 -24.8 --- --- 730.4 0.021 0.000 6.6 7 1
02/06/06 3:48 a -11.6 -11.6 -11.6 --- --- 33.0 ESE 0.55 37.4 -24.8 --- --- 730.4 0.021 0.000 6.5 7 1
02/06/06 3:49 a -11.6 -11.6 -11.6 --- --- 33.9 E 0.57 36.5 -24.9 --- --- 730.4 0.021 0.000 6.5 7 1
02/06/06 3:50 a -11.6 -11.6 -11.6 --- --- 33.0 E 0.55 37.4 -24.8 --- --- 730.5 0.021 0.000 6.5 7 1
02/06/06 3:51 a -11.6 -11.6 -11.6 --- --- 33.9 E 0.57 36.5 -25.0 --- --- 730.4 0.021 0.000 6.5 7 1
02/06/06 3:52 a -11.6 -11.6 -11.6 --- --- 34.8 E 0.58 37.4 -25.1 --- --- 730.5 0.021 0.000 6.5 7 1
02/06/06 3:53 a -11.6 -11.6 -11.6 --- --- 33.9 E 0.57 39.1 -25.0 --- --- 730.4 0.021 0.000 6.5 7 1
02/06/06 3:54 a -11.6 -11.6 -11.6 --- --- 34.8 E 0.58 37.4 -25.1 --- --- 730.5 0.021 0.000 6.5 7 1
02/06/06 3:55 a -11.6 -11.6 -11.6 --- --- 33.9 E 0.57 37.4 -25.0 --- --- 730.5 0.021 0.000 6.5 7 1
02/06/06 3:56 a -11.6 -11.6 -11.6 --- --- 33.0 E 0.55 37.4 -24.8 --- --- 730.5 0.021 0.000 6.6 7 1
02/06/06 3:57 a -11.6 -11.6 -11.6 --- --- 33.9 E 0.57 37.4 -25.0 --- --- 730.6 0.021 0.000 6.6 7 1
02/06/06 3:58 a -11.6 -11.6 -11.6 --- --- 33.0 ESE 0.55 37.4 -24.8 --- --- 730.5 0.021 0.000 6.7 7 1
02/06/06 3:59 a -11.6 -11.6 -11.6 --- --- 33.0 ESE 0.55 35.7 -24.8 --- --- 730.6 0.021 0.000 6.7 7 1
02/06/06 4:00 a -11.6 -11.6 -11.6 --- --- 32.2 E 0.54 37.4 -24.7 --- --- 730.6 0.021 0.000 6.7 7 1
02/06/06 4:01 a -11.6 -11.6 -11.6 --- --- 32.2 ESE 0.54 35.7 -24.7 --- --- 730.5 0.021 0.000 6.7 7 1
02/06/06 4:02 a -11.6 -11.6 -11.6 --- --- 33.0 E 0.55 36.5 -24.8 --- --- 730.5 0.021 0.000 6.7 7 1
02/06/06 4:03 a -11.6 -11.6 -11.6 --- --- 33.0 E 0.55 36.5 -24.8 --- --- 730.5 0.021 0.000 6.8 7 1
02/06/06 4:04 a -11.6 -11.6 -11.7 --- --- 33.9 E 0.57 36.5 -25.0 --- --- 730.6 0.021 0.000 6.8 7 1
02/06/06 4:05 a -11.6 -11.6 -11.7 --- --- 34.8 E 0.58 36.5 -25.1 --- --- 730.5 0.021 0.000 6.8 7 1
02/06/06 4:06 a -11.6 -11.6 -11.7 --- --- 33.0 ESE 0.55 35.7 -24.8 --- --- 730.5 0.021 0.000 6.8 7 1
02/06/06 4:07 a -11.6 -11.6 -11.7 --- --- 33.0 ESE 0.55 35.7 -24.8 --- --- 730.6 0.021 0.000 6.8 7 1
02/06/06 4:08 a -11.6 -11.6 -11.7 --- --- 32.2 ESE 0.54 34.8 -24.7 --- --- 730.6 0.021 0.000 6.8 7 1
02/06/06 4:09 a -11.6 -11.6 -11.6 --- --- 33.0 E 0.55 35.7 -24.8 --- --- 730.7 0.021 0.000 6.8 7 1
02/06/06 4:10 a -11.6 -11.6 -11.7 --- --- 33.0 ESE 0.55 35.7 -24.8 --- --- 730.5 0.021 0.000 6.7 7 1
02/06/06 4:11 a -11.6 -11.6 -11.7 --- --- 32.2 ESE 0.54 34.8 -24.7 --- --- 730.6 0.021 0.000 6.7 7 1
02/06/06 4:12 a -11.6 -11.6 -11.6 --- --- 33.0 ESE 0.55 36.5 -24.8 --- --- 730.5 0.021 0.000 6.7 7 1
02/06/06 4:13 a -11.6 -11.6 -11.7 --- --- 33.9 ESE 0.57 36.5 -25.0 --- --- 730.6 0.021 0.000 6.7 7 1
02/06/06 4:14 a -11.6 -11.6 -11.7 --- --- 33.0 ESE 0.55 36.5 -24.8 --- --- 730.7 0.021 0.000 6.7 7 1
02/06/06 4:15 a -11.6 -11.6 -11.6 --- --- 33.0 ESE 0.55 35.7 -24.8 --- --- 730.6 0.021 0.000 6.7 7 1
02/06/06 4:16 a -11.6 -11.6 -11.6 --- --- 31.3 ESE 0.52 35.7 -24.6 --- --- 730.7 0.021 0.000 6.7 7 1
02/06/06 4:17 a -11.6 -11.6 -11.6 --- --- 31.3 ESE 0.52 33.9 -24.6 --- --- 730.6 0.021 0.000 6.7 7 1
02/06/06 4:18 a -11.6 -11.6 -11.6 --- --- 32.2 ESE 0.54 35.7 -24.7 --- --- 730.6 0.021 0.000 6.7 7 1
02/06/06 4:19 a -11.6 -11.6 -11.6 --- --- 33.9 E 0.57 35.7 -25.0 --- --- 730.7 0.021 0.000 6.6 7 1
02/06/06 4:20 a -11.6 -11.6 -11.6 --- --- 31.3 E 0.52 34.8 -24.6 --- --- 730.6 0.021 0.000 6.6 7 1
02/06/06 4:21 a -11.6 -11.6 -11.6 --- --- 31.3 ESE 0.52 34.8 -24.6 --- --- 730.6 0.021 0.000 6.6 7 1
02/06/06 4:22 a -11.6 -11.6 -11.6 --- --- 32.2 ESE 0.54 34.8 -24.7 --- --- 730.7 0.021 0.000 6.6 7 1
02/06/06 4:23 a -11.6 -11.6 -11.6 --- --- 32.2 E 0.54 34.8 -24.7 --- --- 730.8 0.021 0.000 6.6 7 1
02/06/06 4:24 a -11.6 -11.6 -11.6 --- --- 32.2 ESE 0.54 35.7 -24.7 --- --- 730.7 0.021 0.000 6.6 7 1
02/06/06 4:25 a -11.6 -11.6 -11.6 --- --- 33.0 E 0.55 35.7 -24.8 --- --- 730.7 0.021 0.000 6.6 7 1
02/06/06 4:26 a -11.6 -11.6 -11.6 --- --- 32.2 ESE 0.54 35.7 -24.7 --- --- 730.7 0.021 0.000 6.6 7 1
02/06/06 4:27 a -11.6 -11.6 -11.6 --- --- 33.0 ESE 0.55 34.8 -24.8 --- --- 730.8 0.021 0.000 6.6 7 1
02/06/06 4:28 a -11.6 -11.6 -11.6 --- --- 32.2 ESE 0.54 35.7 -24.7 --- --- 730.7 0.021 0.000 6.6 7 1
02/06/06 4:29 a -11.6 -11.6 -11.6 --- --- 32.2 ESE 0.54 36.5 -24.7 --- --- 730.7 0.021 0.000 6.5 7 1
02/06/06 4:30 a -11.6 -11.6 -11.6 --- --- 31.3 E 0.52 33.9 -24.6 --- --- 730.7 0.021 0.000 6.5 7 1
02/06/06 4:31 a -11.6 -11.6 -11.6 --- --- 30.4 ESE 0.51 33.0 -24.4 --- --- 730.7 0.021 0.000 6.5 7 1
02/06/06 4:32 a -11.6 -11.6 -11.6 --- --- 32.2 ESE 0.54 35.7 -24.7 --- --- 730.7 0.021 0.000 6.4 7 1
02/06/06 4:33 a -11.6 -11.6 -11.6 --- --- 31.3 ESE 0.52 33.9 -24.6 --- --- 730.8 0.021 0.000 6.4 7 1
02/06/06 4:34 a -11.6 -11.6 -11.6 --- --- 31.3 ESE 0.52 33.0 -24.6 --- --- 730.7 0.021 0.000 6.4 7 1
02/06/06 4:35 a -11.6 -11.6 -11.6 --- --- 32.2 ESE 0.54 33.9 -24.7 --- --- 730.8 0.021 0.000 6.4 7 1
02/06/06 4:36 a -11.6 -11.6 -11.6 --- --- 30.4 ESE 0.51 33.0 -24.4 --- --- 730.8 0.021 0.000 6.4 7 1
02/06/06 4:37 a -11.6 -11.6 -11.6 --- --- 31.3 ESE 0.52 33.0 -24.5 --- --- 730.8 0.021 0.000 6.4 7 1
02/06/06 4:38 a -11.6 -11.6 -11.6 --- --- 30.4 ESE 0.51 33.9 -24.4 --- --- 730.7 0.021 0.000 6.4 7 1
02/06/06 4:39 a -11.6 -11.6 -11.6 --- --- 30.4 ESE 0.51 33.9 -24.4 --- --- 730.8 0.021 0.000 6.4 7 1
02/06/06 4:40 a -11.6 -11.6 -11.6 --- --- 31.3 ESE 0.52 33.9 -24.6 --- --- 730.8 0.021 0.000 6.4 7 1
02/06/06 4:41 a -11.6 -11.6 -11.6 --- --- 31.3 ESE 0.52 35.7 -24.5 --- --- 730.9 0.021 0.000 6.5 7 1
02/06/06 4:42 a -11.6 -11.6 -11.6 --- --- 29.6 ESE 0.49 33.9 -24.2 --- --- 730.9 0.021 0.000 6.6 7 1
02/06/06 4:43 a -11.6 -11.6 -11.6 --- --- 30.4 ESE 0.51 33.0 -24.4 --- --- 730.8 0.021 0.000 6.6 7 1
02/06/06 4:44 a -11.6 -11.6 -11.6 --- --- 28.7 ESE 0.48 32.2 -24.1 --- --- 730.9 0.021 0.000 6.6 7 1
02/06/06 4:45 a -11.6 -11.6 -11.6 --- --- 30.4 ESE 0.51 32.2 -24.4 --- --- 730.9 0.021 0.000 6.6 7 1
02/06/06 4:46 a -11.6 -11.6 -11.6 --- --- 29.6 ESE 0.49 33.9 -24.2 --- --- 730.8 0.021 0.000 6.7 7 1
02/06/06 4:47 a -11.6 -11.6 -11.6 --- --- 30.4 ESE 0.51 33.0 -24.4 --- --- 730.8 0.021 0.000 6.7 7 1
02/06/06 4:48 a -11.6 -11.6 -11.6 --- --- 29.6 ESE 0.49 31.3 -24.3 --- --- 730.8 0.021 0.000 6.7 7 1
02/06/06 4:49 a -11.6 -11.6 -11.6 --- --- 30.4 ESE 0.51 32.2 -24.4 --- --- 730.7 0.021 0.000 6.7 7 1
02/06/06 4:50 a -11.6 -11.6 -11.6 --- --- 31.3 ESE 0.52 35.7 -24.6 --- --- 730.7 0.021 0.000 6.7 7 1
02/06/06 4:51 a -11.6 -11.6 -11.6 --- --- 33.0 ESE 0.55 35.7 -24.8 --- --- 730.7 0.021 0.000 6.7 7 1
02/06/06 4:52 a -11.6 -11.6 -11.6 --- --- 33.0 ESE 0.55 33.9 -24.8 --- --- 730.5 0.021 0.000 6.7 7 1
02/06/06 4:53 a -11.6 -11.6 -11.6 --- --- 32.2 ESE 0.54 34.8 -24.7 --- --- 730.6 0.021 0.000 6.7 7 1
02/06/06 4:54 a -11.6 -11.6 -11.6 --- --- 32.2 ESE 0.54 34.8 -24.7 --- --- 730.5 0.021 0.000 6.7 7 1
02/06/06 4:55 a -11.6 -11.6 -11.6 --- --- 33.0 ESE 0.55 34.8 -24.8 --- --- 730.6 0.021 0.000 6.7 7 1
02/06/06 4:56 a -11.6 -11.6 -11.7 --- --- 31.3 ESE 0.52 34.8 -24.6 --- --- 730.6 0.021 0.000 6.7 7 1
02/06/06 4:57 a -11.7 -11.6 -11.7 --- --- 32.2 ESE 0.54 34.8 -24.8 --- --- 730.6 0.021 0.000 6.7 7 1
02/06/06 4:58 a -11.7 -11.6 -11.7 --- --- 33.0 ESE 0.55 36.5 -24.9 --- --- 730.6 0.021 0.000 6.7 7 1
02/06/06 4:59 a -11.6 -11.6 -11.7 --- --- 33.0 ESE 0.55 35.7 -24.8 --- --- 730.5 0.021 0.000 6.7 7 1
02/06/06 5:00 a -11.6 -11.6 -11.7 --- --- 33.9 ESE 0.57 36.5 -25.0 --- --- 730.5 0.021 0.000 6.7 6 1
02/06/06 5:01 a -11.7 -11.7 -11.7 --- --- 34.8 ESE 0.58 36.5 -25.2 --- --- 730.5 0.021 0.000 6.7 7 1
02/06/06 5:02 a -11.7 -11.7 -11.7 --- --- 33.9 ESE 0.57 35.7 -25.1 --- --- 730.5 0.021 0.000 6.6 7 1
02/06/06 5:03 a -11.7 -11.7 -11.7 --- --- 34.8 ESE 0.58 36.5 -25.2 --- --- 730.5 0.021 0.000 6.6 6 1
02/06/06 5:04 a -11.7 -11.7 -11.7 --- --- 35.7 ESE 0.59 38.3 -25.3 --- --- 730.5 0.021 0.000 6.6 6 1
02/06/06 5:05 a -11.7 -11.7 -11.7 --- --- 33.0 ESE 0.55 36.5 -24.9 --- --- 730.5 0.021 0.000 6.6 7 1
02/06/06 5:06 a -11.7 -11.7 -11.7 --- --- 33.9 E 0.57 37.4 -25.1 --- --- 730.4 0.021 0.000 6.6 7 1
02/06/06 5:07 a -11.7 -11.7 -11.7 --- --- 33.0 ESE 0.55 36.5 -24.9 --- --- 730.5 0.021 0.000 6.6 7 1
02/06/06 5:08 a -11.7 -11.7 -11.7 --- --- 33.9 ESE 0.57 37.4 -25.2 --- --- 730.3 0.021 0.000 6.6 7 1
02/06/06 5:09 a -11.7 -11.7 -11.8 --- --- 32.2 E 0.54 36.5 -24.9 --- --- 730.5 0.021 0.000 6.6 7 1
02/06/06 5:10 a -11.7 -11.7 -11.8 --- --- 33.9 E 0.57 36.5 -25.2 --- --- 730.5 0.021 0.000 6.6 7 1
02/06/06 5:11 a -11.7 -11.7 -11.8 --- --- 34.8 E 0.58 37.4 -25.3 --- --- 730.4 0.021 0.000 6.6 7 1
02/06/06 5:12 a -11.7 -11.7 -11.8 --- --- 32.2 ESE 0.54 35.7 -24.9 --- --- 730.4 0.021 0.000 6.6 7 1
02/06/06 5:13 a -11.8 -11.7 -11.8 --- --- 33.0 E 0.55 37.4 -25.1 --- --- 730.5 0.021 0.000 6.6 7 1
02/06/06 5:14 a -11.8 -11.7 -11.8 --- --- 32.2 E 0.54 36.5 -24.9 --- --- 730.5 0.021 0.000 6.6 7 1
02/06/06 5:15 a -11.8 -11.8 -11.8 --- --- 33.0 E 0.55 38.3 -25.1 --- --- 730.5 0.021 0.000 6.6 7 1
02/06/06 5:16 a -11.8 -11.8 -11.8 --- --- 32.2 E 0.54 37.4 -24.9 --- --- 730.4 0.021 0.000 6.6 7 1
02/06/06 5:17 a -11.8 -11.8 -11.8 --- --- 32.2 E 0.54 37.4 -24.9 --- --- 730.5 0.021 0.000 6.6 7 1
02/06/06 5:18 a -11.8 -11.8 -11.8 --- --- 31.3 E 0.52 33.9 -24.9 --- --- 730.5 0.021 0.000 6.5 7 1
02/06/06 5:19 a -11.8 -11.8 -11.8 --- --- 32.2 E 0.54 35.7 -25.1 --- --- 730.4 0.021 0.000 6.5 7 1
02/06/06 5:20 a -11.8 -11.8 -11.8 --- --- 32.2 E 0.54 35.7 -25.1 --- --- 730.5 0.021 0.000 6.5 7 1
02/06/06 5:21 a -11.8 -11.8 -11.9 --- --- 31.3 E 0.52 36.5 -24.9 --- --- 730.5 0.021 0.000 6.5 7 1
02/06/06 5:22 a -11.9 -11.8 -11.9 --- --- 30.4 E 0.51 35.7 -24.8 --- --- 730.5 0.021 0.000 6.6 7 1
02/06/06 5:23 a -11.9 -11.9 -11.9 --- --- 32.2 ESE 0.54 35.7 -25.1 --- --- 730.5 0.021 0.000 6.6 7 1
02/06/06 5:24 a -11.9 -11.9 -11.9 --- --- 32.2 E 0.54 35.7 -25.1 --- --- 730.6 0.021 0.000 6.6 7 1
02/06/06 5:25 a -11.9 -11.9 -11.9 --- --- 31.3 E 0.52 34.8 -25.0 --- --- 730.6 0.021 0.000 6.6 7 1
02/06/06 5:26 a -11.9 -11.9 -11.9 --- --- 30.4 E 0.51 33.9 -24.8 --- --- 730.6 0.021 0.000 6.7 7 1
02/06/06 5:27 a -11.9 -11.9 -12.0 --- --- 31.3 E 0.52 35.7 -25.1 --- --- 730.5 0.021 0.000 6.7 7 1
02/06/06 5:28 a -11.9 -11.9 -11.9 --- --- 29.6 E 0.49 33.0 -24.8 --- --- 730.6 0.021 0.000 6.7 7 1
02/06/06 5:29 a -11.9 -11.9 -12.0 --- --- 28.7 ESE 0.48 33.0 -24.6 --- --- 730.7 0.021 0.000 6.7 7 1
02/06/06 5:30 a -11.9 -11.9 -12.0 --- --- 28.7 E 0.48 33.9 -24.6 --- --- 730.6 0.021 0.000 6.7 7 1
02/06/06 5:31 a -12.0 -11.9 -12.0 --- --- 28.7 E 0.48 32.2 -24.7 --- --- 730.6 0.021 0.000 6.7 7 1
02/06/06 5:32 a -11.9 -11.9 -11.9 --- --- 28.7 E 0.48 33.0 -24.6 --- --- 730.7 0.021 0.000 6.8 7 1
02/06/06 5:33 a -12.0 -11.9 -12.0 --- --- 28.7 E 0.48 32.2 -24.7 --- --- 730.6 0.021 0.000 6.8 7 1
02/06/06 5:34 a -12.0 -11.9 -12.0 --- --- 28.7 E 0.48 33.9 -24.7 --- --- 730.6 0.021 0.000 6.8 7 1
02/06/06 5:35 a -11.9 -11.9 -12.0 --- --- 28.7 E 0.48 31.3 -24.6 --- --- 730.7 0.021 0.000 6.8 7 1
02/06/06 5:36 a -11.9 -11.9 -12.0 --- --- 28.7 E 0.48 33.9 -24.6 --- --- 730.6 0.021 0.000 6.8 7 1
02/06/06 5:37 a -11.9 -11.9 -12.0 --- --- 27.8 E 0.46 33.0 -24.5 --- --- 730.6 0.021 0.000 6.8 7 1
02/06/06 5:38 a -12.0 -11.9 -12.1 --- --- 27.0 E 0.45 33.0 -24.4 --- --- 730.5 0.021 0.000 6.8 7 1
02/06/06 5:39 a -12.0 -12.0 -12.0 --- --- 28.7 E 0.48 31.3 -24.7 --- --- 730.5 0.021 0.000 6.8 7 1
02/06/06 5:40 a -12.0 -12.0 -12.0 --- --- 25.2 E 0.42 30.4 -24.1 --- --- 730.6 0.021 0.000 6.8 7 1
02/06/06 5:41 a -12.0 -12.0 -12.1 --- --- 27.0 E 0.45 31.3 -24.4 --- --- 730.5 0.021 0.000 6.8 7 1
02/06/06 5:42 a -12.0 -12.0 -12.1 --- --- 27.8 E 0.46 31.3 -24.6 --- --- 730.5 0.021 0.000 6.7 7 1
02/06/06 5:43 a -12.0 -12.0 -12.0 --- --- 26.1 E 0.43 32.2 -24.2 --- --- 730.5 0.021 0.000 6.7 7 1
02/06/06 5:44 a -12.0 -12.0 -12.1 --- --- 26.1 E 0.43 33.0 -24.2 --- --- 730.6 0.021 0.000 6.7 6 1
02/06/06 5:45 a -12.0 -12.0 -12.1 --- --- 25.2 E 0.42 29.6 -24.1 --- --- 730.5 0.021 0.000 6.7 7 1
02/06/06 5:46 a -12.0 -12.0 -12.1 --- --- 27.0 E 0.45 32.2 -24.4 --- --- 730.5 0.021 0.000 6.7 6 1
02/06/06 5:47 a -12.0 -12.0 -12.0 --- --- 27.0 E 0.45 30.4 -24.4 --- --- 730.6 0.021 0.000 6.7 6 1
02/06/06 5:48 a -12.0 -12.0 -12.1 --- --- 26.1 E 0.43 28.7 -24.2 --- --- 730.5 0.021 0.000 6.6 7 1
02/06/06 5:49 a -12.0 -12.0 -12.1 --- --- 26.1 E 0.43 30.4 -24.2 --- --- 730.5 0.021 0.000 6.6 7 1
02/06/06 5:50 a -12.0 -12.0 -12.1 --- --- 26.1 E 0.43 29.6 -24.2 --- --- 730.4 0.021 0.000 6.6 6 1
02/06/06 5:51 a -12.0 -12.0 -12.1 --- --- 27.0 E 0.45 32.2 -24.4 --- --- 730.5 0.021 0.000 6.6 7 1
02/06/06 5:52 a -12.0 -12.0 -12.1 --- --- 27.0 E 0.45 32.2 -24.4 --- --- 730.5 0.021 0.000 6.6 7 1
02/06/06 5:53 a -12.0 -12.0 -12.1 --- --- 27.0 E 0.45 32.2 -24.4 --- --- 730.4 0.021 0.000 6.6 7 1
02/06/06 5:54 a -12.0 -12.0 -12.1 --- --- 27.0 E 0.45 31.3 -24.4 --- --- 730.4 0.021 0.000 6.6 6 1
02/06/06 5:55 a -12.0 -12.0 -12.1 --- --- 26.1 E 0.43 32.2 -24.2 --- --- 730.6 0.021 0.000 6.6 7 1
02/06/06 5:56 a -12.0 -12.0 -12.1 --- --- 28.7 E 0.48 33.0 -24.7 --- --- 730.5 0.021 0.000 6.5 6 1
02/06/06 5:57 a -12.1 -12.0 -12.1 --- --- 26.1 E 0.43 32.2 -24.3 --- --- 730.5 0.021 0.000 6.5 6 1
02/06/06 5:58 a -12.0 -12.0 -12.1 --- --- 27.0 E 0.45 31.3 -24.4 --- --- 730.4 0.021 0.000 6.5 7 1
02/06/06 5:59 a -12.0 -12.0 -12.1 --- --- 27.0 E 0.45 34.8 -24.4 --- --- 730.4 0.021 0.000 6.5 6 1
02/06/06 6:00 a -12.1 -12.0 -12.1 --- --- 29.6 E 0.49 35.7 -24.9 --- --- 730.5 0.021 0.000 6.5 6 1
02/06/06 6:01 a -12.0 -12.0 -12.1 --- --- 26.1 E 0.43 30.4 -24.2 --- --- 730.6 0.021 0.000 6.5 7 1
02/06/06 6:02 a -12.1 -12.1 -12.1 --- --- 27.0 E 0.45 30.4 -24.5 --- --- 730.6 0.021 0.000 6.5 6 1
02/06/06 6:03 a -12.1 -12.0 -12.1 --- --- 26.1 E 0.43 29.6 -24.3 --- --- 730.5 0.021 0.000 6.5 7 1
02/06/06 6:04 a -12.1 -12.0 -12.1 --- --- 26.1 E 0.43 28.7 -24.3 --- --- 730.6 0.021 0.000 6.5 6 1
02/06/06 6:05 a -12.1 -12.0 -12.1 --- --- 26.1 E 0.43 30.4 -24.3 --- --- 730.6 0.021 0.000 6.4 7 1
02/06/06 6:06 a -12.1 -12.0 -12.1 --- --- 27.0 E 0.45 30.4 -24.5 --- --- 730.6 0.021 0.000 6.4 7 1
02/06/06 6:07 a -12.1 -12.0 -12.1 --- --- 26.1 E 0.43 28.7 -24.3 --- --- 730.6 0.021 0.000 6.4 7 1
02/06/06 6:08 a -12.1 -12.1 -12.1 --- --- 26.1 E 0.43 30.4 -24.3 --- --- 730.6 0.021 0.000 6.4 7 1
02/06/06 6:09 a -12.1 -12.1 -12.1 --- --- 25.2 E 0.42 31.3 -24.2 --- --- 730.6 0.021 0.000 6.4 6 1
02/06/06 6:10 a -12.1 -12.0 -12.1 --- --- 27.0 E 0.45 31.3 -24.5 --- --- 730.5 0.021 0.000 6.5 7 1
02/06/06 6:11 a -12.1 -12.0 -12.1 --- --- 27.0 E 0.45 32.2 -24.5 --- --- 730.5 0.021 0.000 6.5 7 1
02/06/06 6:12 a -12.1 -12.1 -12.1 --- --- 27.8 E 0.46 32.2 -24.6 --- --- 730.6 0.021 0.000 6.6 6 1
02/06/06 6:13 a -12.1 -12.0 -12.1 --- --- 27.0 E 0.45 30.4 -24.5 --- --- 730.7 0.021 0.000 6.6 7 1
02/06/06 6:14 a -12.1 -12.0 -12.1 --- --- 27.0 ESE 0.45 30.4 -24.5 --- --- 730.7 0.021 0.000 6.6 7 1
02/06/06 6:15 a -12.0 -12.0 -12.1 --- --- 27.0 E 0.45 31.3 -24.4 --- --- 730.7 0.021 0.000 6.6 6 1
02/06/06 6:16 a -12.1 -12.0 -12.1 --- --- 27.8 ESE 0.46 29.6 -24.6 --- --- 730.7 0.021 0.000 6.7 7 1
02/06/06 6:17 a -12.1 -12.0 -12.1 --- --- 26.1 ESE 0.43 30.4 -24.3 --- --- 730.7 0.021 0.000 6.7 7 1
02/06/06 6:18 a -12.0 -12.0 -12.1 --- --- 26.1 ESE 0.43 28.7 -24.2 --- --- 730.7 0.021 0.000 6.7 7 1
02/06/06 6:19 a -12.0 -12.0 -12.1 --- --- 26.1 ESE 0.43 28.7 -24.2 --- --- 730.7 0.021 0.000 6.7 7 1
02/06/06 6:20 a -12.0 -12.0 -12.1 --- --- 26.1 E 0.43 30.4 -24.2 --- --- 730.6 0.021 0.000 6.7 6 1
02/06/06 6:21 a -12.0 -12.0 -12.0 --- --- 24.3 E 0.41 27.8 -23.9 --- --- 730.8 0.021 0.000 6.7 7 1
02/06/06 6:22 a -12.0 -12.0 -12.1 --- --- 25.2 E 0.42 28.7 -24.1 --- --- 730.7 0.021 0.000 6.8 6 1
02/06/06 6:23 a -12.0 -12.0 -12.0 --- --- 25.2 E 0.42 28.7 -24.1 --- --- 730.6 0.021 0.000 6.8 7 1
02/06/06 6:24 a -12.0 -12.0 -12.0 --- --- 27.8 E 0.46 29.6 -24.6 --- --- 730.7 0.021 0.000 6.8 7 1
02/06/06 6:25 a -12.0 -11.9 -12.0 --- --- 25.2 ESE 0.42 28.7 -24.1 --- --- 730.6 0.021 0.000 6.8 6 1
02/06/06 6:26 a -11.9 -11.9 -11.9 --- --- 25.2 E 0.42 27.8 -24.0 --- --- 730.7 0.021 0.000 6.8 6 1
02/06/06 6:27 a -11.9 -11.9 -11.9 --- --- 24.3 E 0.41 27.8 -23.8 --- --- 730.6 0.021 0.000 6.8 6 1
02/06/06 6:28 a -11.9 -11.9 -11.9 --- --- 25.2 E 0.42 28.7 -24.0 --- --- 730.6 0.021 0.000 6.7 7 1
02/06/06 6:29 a -11.9 -11.9 -11.9 --- --- 24.3 E 0.41 27.0 -23.8 --- --- 730.5 0.021 0.000 6.7 7 1
02/06/06 6:30 a -11.9 -11.9 -11.9 --- --- 25.2 E 0.42 27.0 -24.0 --- --- 730.5 0.021 0.000 6.7 7 1
02/06/06 6:31 a -11.9 -11.9 -11.9 --- --- 24.3 E 0.41 28.7 -23.8 --- --- 730.4 0.021 0.000 6.7 7 1
02/06/06 6:32 a -11.9 -11.9 -11.9 --- --- 24.3 E 0.41 27.8 -23.8 --- --- 730.5 0.021 0.000 6.7 7 1
02/06/06 6:33 a -11.9 -11.9 -11.9 --- --- 23.5 E 0.39 28.7 -23.6 --- --- 730.4 0.021 0.000 6.7 6 1
02/06/06 6:34 a -11.9 -11.9 -11.9 --- --- 24.3 E 0.41 29.6 -23.8 --- --- 730.3 0.021 0.000 6.7 7 1
02/06/06 6:35 a -11.9 -11.8 -11.9 --- --- 24.3 E 0.41 27.0 -23.8 --- --- 730.4 0.021 0.000 6.7 6 1
02/06/06 6:36 a -11.9 -11.8 -11.9 --- --- 26.1 E 0.43 30.4 -24.1 --- --- 730.3 0.021 0.000 6.7 7 1
02/06/06 6:37 a -11.9 -11.8 -11.9 --- --- 24.3 E 0.41 28.7 -23.8 --- --- 730.3 0.021 0.000 6.7 6 1
02/06/06 6:38 a -11.9 -11.8 -11.9 --- --- 22.6 E 0.38 27.8 -23.4 --- --- 730.3 0.021 0.000 6.7 6 1
02/06/06 6:39 a -11.9 -11.8 -11.9 --- --- 25.2 E 0.42 29.6 -23.9 --- --- 730.3 0.021 0.000 6.7 6 1
02/06/06 6:40 a -11.9 -11.8 -11.9 --- --- 21.7 E 0.36 27.0 -23.2 --- --- 730.3 0.021 0.000 6.6 6 1
02/06/06 6:41 a -11.9 -11.8 -11.9 --- --- 22.6 E 0.38 28.7 -23.4 --- --- 730.3 0.021 0.000 6.6 6 1
02/06/06 6:42 a -11.9 -11.8 -11.9 --- --- 22.6 E 0.38 28.7 -23.4 --- --- 730.2 0.021 0.000 6.6 6 1
02/06/06 6:43 a -11.8 -11.8 -11.9 --- --- 26.1 E 0.43 29.6 -24.0 --- --- 730.2 0.021 0.000 6.6 6 1
02/06/06 6:44 a -11.9 -11.8 -11.9 --- --- 24.3 E 0.41 29.6 -23.8 --- --- 730.2 0.021 0.000 6.6 6 1
02/06/06 6:45 a -11.8 -11.8 -11.9 --- --- 26.1 E 0.43 31.3 -24.0 --- --- 730.1 0.021 0.000 6.6 6 1
02/06/06 6:46 a -11.8 -11.8 -11.9 --- --- 24.3 E 0.41 27.8 -23.7 --- --- 730.2 0.021 0.000 6.6 7 1
02/06/06 6:47 a -11.8 -11.8 -11.9 --- --- 25.2 ESE 0.42 29.6 -23.8 --- --- 730.1 0.021 0.000 6.6 6 1
02/06/06 6:48 a -11.9 -11.9 -11.9 --- --- 27.8 E 0.46 30.4 -24.4 --- --- 730.2 0.021 0.000 6.6 7 1
02/06/06 6:49 a -11.9 -11.8 -11.9 --- --- 23.5 E 0.39 27.0 -23.6 --- --- 730.2 0.021 0.000 6.6 6 1
02/06/06 6:50 a -11.8 -11.8 -11.9 --- --- 26.1 E 0.43 30.4 -24.0 --- --- 730.3 0.021 0.000 6.6 6 1
02/06/06 6:51 a -11.9 -11.8 -11.9 --- --- 23.5 E 0.39 26.1 -23.6 --- --- 730.4 0.021 0.000 6.6 6 1
02/06/06 6:52 a -11.8 -11.8 -11.9 --- --- 24.3 E 0.41 27.8 -23.7 --- --- 730.3 0.021 0.000 6.6 7 1
02/06/06 6:53 a -11.9 -11.9 -11.9 --- --- 24.3 ESE 0.41 27.0 -23.8 --- --- 730.1 0.021 0.000 6.6 6 1
02/06/06 6:54 a -11.9 -11.8 -11.9 --- --- 27.0 E 0.45 33.0 -24.3 --- --- 730.1 0.021 0.000 6.6 7 1
02/06/06 6:55 a -11.9 -11.8 -11.9 --- --- 24.3 E 0.41 28.7 -23.8 --- --- 730.2 0.021 0.000 6.6 6 1
02/06/06 6:56 a -11.8 -11.8 -11.9 --- --- 24.3 E 0.41 28.7 -23.7 --- --- 730.3 0.021 0.000 6.6 6 1
02/06/06 6:57 a -11.9 -11.8 -11.9 --- --- 22.6 E 0.38 26.1 -23.4 --- --- 730.3 0.021 0.000 6.6 6 1
02/06/06 6:58 a -11.9 -11.9 -11.9 --- --- 24.3 E 0.41 29.6 -23.8 --- --- 730.2 0.021 0.000 6.5 7 1
02/06/06 6:59 a -11.9 -11.8 -11.9 --- --- 24.3 E 0.41 28.7 -23.8 --- --- 730.1 0.021 0.000 6.5 6 1
02/06/06 7:00 a -11.9 -11.8 -11.9 --- --- 26.1 E 0.43 30.4 -24.1 --- --- 730.1 0.021 0.000 6.6 7 1
02/06/06 7:01 a -11.9 -11.9 -11.9 --- --- 24.3 ESE 0.41 28.7 -23.8 --- --- 730.2 0.021 0.000 6.5 7 1
02/06/06 7:02 a -11.9 -11.8 -11.9 --- --- 23.5 E 0.39 27.8 -23.6 --- --- 730.1 0.021 0.000 6.5 6 1
02/06/06 7:03 a -11.9 -11.9 -11.9 --- --- 24.3 E 0.41 28.7 -23.8 --- --- 730.3 0.021 0.000 6.5 6 1
02/06/06 7:04 a -11.9 -11.9 -11.9 --- --- 24.3 E 0.41 27.8 -23.8 --- --- 730.2 0.021 0.000 6.5 6 1
02/06/06 7:05 a -11.9 -11.9 -11.9 --- --- 24.3 ESE 0.41 27.8 -23.8 --- --- 730.1 0.021 0.000 6.5 6 1
02/06/06 7:06 a -11.9 -11.9 -11.9 --- --- 25.2 E 0.42 28.7 -23.9 --- --- 730.2 0.021 0.000 6.5 7 1
02/06/06 7:07 a -11.9 -11.9 -11.9 --- --- 26.1 E 0.43 30.4 -24.1 --- --- 730.1 0.021 0.000 6.5 7 1
02/06/06 7:08 a -11.9 -11.9 -11.9 --- --- 24.3 E 0.41 28.7 -23.8 --- --- 730.1 0.021 0.000 6.6 6 1
02/06/06 7:09 a -11.9 -11.9 -11.9 --- --- 24.3 E 0.41 29.6 -23.8 --- --- 730.2 0.021 0.000 6.6 6 1
02/06/06 7:10 a -11.9 -11.9 -11.9 --- --- 26.1 E 0.43 29.6 -24.1 --- --- 730.1 0.021 0.000 6.6 6 1
02/06/06 7:11 a -11.9 -11.9 -11.9 --- --- 26.1 E 0.43 30.4 -24.1 --- --- 730.3 0.021 0.000 6.6 7 1
02/06/06 7:12 a -11.9 -11.9 -11.9 --- --- 24.3 E 0.41 28.7 -23.8 --- --- 730.3 0.021 0.000 6.6 6 1
02/06/06 7:13 a -11.9 -11.9 -11.9 --- --- 23.5 E 0.39 27.8 -23.6 --- --- 730.4 0.021 0.000 6.6 6 1
02/06/06 7:14 a -11.9 -11.9 -11.9 --- --- 24.3 E 0.41 27.0 -23.8 --- --- 730.4 0.021 0.000 6.6 7 1
02/06/06 7:15 a -11.9 -11.9 -11.9 --- --- 25.2 E 0.42 30.4 -23.9 --- --- 730.3 0.021 0.000 6.6 7 1
02/06/06 7:16 a -11.9 -11.9 -11.9 --- --- 27.8 E 0.46 29.6 -24.4 --- --- 730.2 0.021 0.000 6.6 6 1
02/06/06 7:17 a -11.9 -11.8 -11.9 --- --- 27.8 E 0.46 29.6 -24.4 --- --- 730.3 0.021 0.000 6.6 6 1
02/06/06 7:18 a -11.9 -11.8 -11.9 --- --- 23.5 E 0.39 27.8 -23.6 --- --- 730.3 0.021 0.000 6.6 7 1
02/06/06 7:19 a -11.9 -11.8 -11.9 --- --- 22.6 E 0.38 27.8 -23.4 --- --- 730.4 0.021 0.000 6.6 7 1
02/06/06 7:20 a -11.9 -11.9 -11.9 --- --- 23.5 E 0.39 27.8 -23.6 --- --- 730.3 0.021 0.000 6.6 6 1
02/06/06 7:21 a -11.9 -11.8 -11.9 --- --- 25.2 E 0.42 27.8 -23.9 --- --- 730.4 0.021 0.000 6.6 7 1
02/06/06 7:22 a -11.9 -11.8 -11.9 --- --- 23.5 E 0.39 27.0 -23.6 --- --- 730.3 0.021 0.000 6.6 6 1
02/06/06 7:23 a -11.8 -11.8 -11.9 --- --- 25.2 E 0.42 28.7 -23.8 --- --- 730.3 0.021 0.000 6.6 6 1
02/06/06 7:24 a -11.8 -11.8 -11.8 --- --- 24.3 E 0.41 27.0 -23.7 --- --- 730.3 0.021 0.000 6.6 6 1
02/06/06 7:25 a -11.8 -11.8 -11.9 --- --- 24.3 E 0.41 28.7 -23.7 --- --- 730.3 0.021 0.000 6.6 7 1
02/06/06 7:26 a -11.8 -11.8 -11.9 --- --- 24.3 E 0.41 27.8 -23.7 --- --- 730.4 0.021 0.000 6.6 7 1
02/06/06 7:27 a -11.8 -11.8 -11.9 --- --- 22.6 E 0.38 25.2 -23.3 --- --- 730.3 0.021 0.000 6.5 6 1
02/06/06 7:28 a -11.8 -11.8 -11.9 --- --- 25.2 E 0.42 26.1 -23.8 --- --- 730.3 0.021 0.000 6.5 6 1
02/06/06 7:29 a -11.8 -11.8 -11.9 --- --- 22.6 E 0.38 28.7 -23.3 --- --- 730.4 0.021 0.000 6.5 7 1
02/06/06 7:30 a -11.9 -11.8 -11.9 --- --- 22.6 E 0.38 26.1 -23.4 --- --- 730.3 0.021 0.000 6.5 6 1
02/06/06 7:31 a -11.8 -11.8 -11.8 --- --- 22.6 E 0.38 27.0 -23.3 --- --- 730.3 0.021 0.000 6.5 7 1
02/06/06 7:32 a -11.8 -11.8 -11.9 --- --- 21.7 E 0.36 24.3 -23.2 --- --- 730.3 0.021 0.000 6.5 6 1
02/06/06 7:33 a -11.8 -11.8 -11.9 --- --- 23.5 E 0.39 27.8 -23.5 --- --- 730.4 0.021 0.000 6.5 6 1
02/06/06 7:34 a -11.8 -11.8 -11.9 --- --- 21.7 E 0.36 25.2 -23.2 --- --- 730.3 0.021 0.000 6.5 7 1
02/06/06 7:35 a -11.8 -11.8 -11.9 --- --- 22.6 E 0.38 25.2 -23.3 --- --- 730.3 0.021 0.000 6.5 7 1
02/06/06 7:36 a -11.9 -11.8 -11.9 --- --- 21.7 ESE 0.36 26.1 -23.2 --- --- 730.2 0.021 0.000 6.5 7 1
02/06/06 7:37 a -11.9 -11.8 -11.9 --- --- 23.5 E 0.39 27.0 -23.6 --- --- 730.4 0.021 0.000 6.5 7 1
02/06/06 7:38 a -11.9 -11.8 -11.9 --- --- 22.6 E 0.38 25.2 -23.4 --- --- 730.3 0.021 0.000 6.5 7 1
02/06/06 7:39 a -11.9 -11.8 -11.9 --- --- 23.5 E 0.39 26.1 -23.6 --- --- 730.3 0.021 0.000 6.4 7 1
02/06/06 7:40 a -11.9 -11.8 -11.9 --- --- 22.6 E 0.38 26.1 -23.4 --- --- 730.3 0.021 0.000 6.5 6 1
02/06/06 7:41 a -11.9 -11.8 -11.9 --- --- 22.6 E 0.38 28.7 -23.4 --- --- 730.1 0.021 0.000 6.5 6 1
02/06/06 7:42 a -11.9 -11.9 -11.9 --- --- 20.9 E 0.35 25.2 -23.1 --- --- 730.2 0.021 0.000 6.5 6 1
02/06/06 7:43 a -11.9 -11.9 -11.9 --- --- 21.7 E 0.36 25.2 -23.2 --- --- 730.2 0.021 0.000 6.6 6 1
02/06/06 7:44 a -11.9 -11.9 -11.9 --- --- 23.5 E 0.39 30.4 -23.6 --- --- 729.9 0.021 0.000 6.6 6 1
02/06/06 7:45 a -11.9 -11.9 -11.9 --- --- 31.3 E 0.52 36.5 -25.0 --- --- 730.0 0.021 0.000 6.6 6 1
02/06/06 7:46 a -11.9 -11.9 -11.9 --- --- 26.1 ESE 0.43 27.8 -24.1 --- --- 730.0 0.021 0.000 6.6 7 1
02/06/06 7:47 a -11.9 -11.9 -11.9 --- --- 26.1 E 0.43 30.4 -24.2 --- --- 729.9 0.021 0.000 6.7 6 1
02/06/06 7:48 a -11.9 -11.9 -12.0 --- --- 29.6 E 0.49 33.0 -24.8 --- --- 729.9 0.021 0.000 6.7 6 1
02/06/06 7:49 a -11.9 -11.9 -12.0 --- --- 30.4 E 0.51 35.7 -24.9 --- --- 729.8 0.021 0.000 6.7 6 1
02/06/06 7:50 a -11.9 -11.9 -12.0 --- --- 27.8 E 0.46 31.3 -24.5 --- --- 730.0 0.021 0.000 6.7 6 1
02/06/06 7:51 a -11.9 -11.9 -11.9 --- --- 26.1 E 0.43 33.0 -24.2 --- --- 730.0 0.021 0.000 6.8 6 1
02/06/06 7:52 a -11.9 -11.9 -12.0 --- --- 27.0 E 0.45 32.2 -24.3 --- --- 730.0 0.021 0.000 6.8 6 1
02/06/06 7:53 a -12.0 -11.9 -12.0 --- --- 27.8 E 0.46 32.2 -24.6 --- --- 730.0 0.021 0.000 6.8 6 1
02/06/06 7:54 a -12.0 -12.0 -12.0 --- --- 27.8 E 0.46 33.0 -24.6 --- --- 730.0 0.021 0.000 6.8 6 1
02/06/06 7:55 a -12.0 -12.0 -12.1 --- --- 25.2 E 0.42 29.6 -24.1 --- --- 730.1 0.021 0.000 6.8 6 1
02/06/06 7:56 a -12.0 -12.0 -12.0 --- --- 25.2 E 0.42 30.4 -24.1 --- --- 730.0 0.021 0.000 6.8 6 1
02/06/06 7:57 a -12.0 -12.0 -12.1 --- --- 28.7 E 0.48 30.4 -24.7 --- --- 730.0 0.021 0.000 6.8 6 1
02/06/06 7:58 a -12.0 -12.0 -12.1 --- --- 26.1 E 0.43 31.3 -24.2 --- --- 730.0 0.021 0.000 6.8 7 1
02/06/06 7:59 a -12.1 -12.0 -12.1 --- --- 24.3 E 0.41 27.8 -24.0 --- --- 730.1 0.021 0.000 6.8 6 1
02/06/06 8:00 a -12.1 -12.0 -12.1 --- --- 24.3 E 0.41 27.0 -24.0 --- --- 730.1 0.021 0.000 6.8 6 1
02/06/06 8:01 a -12.1 -12.1 -12.1 --- --- 26.1 E 0.43 28.7 -24.3 --- --- 730.0 0.021 0.000 6.8 6 1
02/06/06 8:02 a -12.1 -12.1 -12.1 --- --- 25.2 E 0.42 27.8 -24.2 --- --- 730.0 0.021 0.000 6.8 6 1
02/06/06 8:03 a -12.1 -12.1 -12.1 --- --- 25.2 E 0.42 30.4 -24.2 --- --- 730.0 0.021 0.000 6.7 7 1
02/06/06 8:04 a -12.1 -12.1 -12.1 --- --- 26.1 ESE 0.43 29.6 -24.4 --- --- 730.0 0.021 0.000 6.7 7 1
02/06/06 8:05 a -12.1 -12.1 -12.1 --- --- 26.1 E 0.43 30.4 -24.4 --- --- 730.0 0.021 0.000 6.7 6 1
02/06/06 8:06 a -12.1 -12.1 -12.1 --- --- 27.8 E 0.46 31.3 -24.7 --- --- 730.1 0.021 0.000 6.7 6 1
02/06/06 8:07 a -12.1 -12.1 -12.2 --- --- 26.1 E 0.43 31.3 -24.4 --- --- 730.1 0.021 0.000 6.7 6 1
02/06/06 8:08 a -12.1 -12.1 -12.2 --- --- 27.0 E 0.45 30.4 -24.6 --- --- 730.1 0.021 0.000 6.7 6 1
02/06/06 8:09 a -12.2 -12.1 -12.2 --- --- 26.1 E 0.43 30.4 -24.4 --- --- 730.1 0.021 0.000 6.7 6 1
02/06/06 8:10 a -12.2 -12.2 -12.2 --- --- 27.0 E 0.45 30.4 -24.6 --- --- 730.1 0.021 0.000 6.6 6 1
02/06/06 8:11 a -12.2 -12.2 -12.2 --- --- 27.0 E 0.45 31.3 -24.6 --- --- 730.1 0.021 0.000 6.6 6 1
02/06/06 8:12 a -12.2 -12.2 -12.2 --- --- 28.7 E 0.48 32.2 -24.9 --- --- 730.0 0.021 0.000 6.6 6 1
02/06/06 8:13 a -12.2 -12.2 -12.2 --- --- 25.2 E 0.42 27.8 -24.4 --- --- 730.2 0.021 0.000 6.6 6 1
02/06/06 8:14 a -12.2 -12.2 -12.2 --- --- 21.7 E 0.36 27.8 -23.7 --- --- 730.3 0.021 0.000 6.6 6 1
02/06/06 8:15 a -12.2 -12.2 -12.2 --- --- 24.3 E 0.41 27.8 -24.2 --- --- 730.2 0.021 0.000 6.6 6 1
02/06/06 8:16 a -12.2 -12.2 -12.3 --- --- 27.0 E 0.45 30.4 -24.7 --- --- 730.1 0.021 0.000 6.6 6 1
02/06/06 8:17 a -12.2 -12.2 -12.2 --- --- 26.1 E 0.43 30.4 -24.6 --- --- 730.1 0.021 0.000 6.6 6 1
02/06/06 8:18 a -12.2 -12.2 -12.3 --- --- 24.3 E 0.41 27.8 -24.2 --- --- 730.1 0.021 0.000 6.5 6 1
02/06/06 8:19 a -12.3 -12.2 -12.3 --- --- 23.5 E 0.39 27.0 -24.1 --- --- 730.2 0.021 0.000 6.5 6 1
02/06/06 8:20 a -12.3 -12.2 -12.3 --- --- 25.2 E 0.42 28.7 -24.4 --- --- 730.1 0.021 0.000 6.5 6 1
02/06/06 8:21 a -12.2 -12.2 -12.3 --- --- 25.2 E 0.42 31.3 -24.4 --- --- 730.1 0.021 0.000 6.5 6 1
02/06/06 8:22 a -12.3 -12.3 -12.3 --- --- 27.0 E 0.45 30.4 -24.8 --- --- 730.1 0.021 0.000 6.5 6 1
02/06/06 8:23 a -12.3 -12.2 -12.3 --- --- 25.2 E 0.42 29.6 -24.4 --- --- 730.0 0.021 0.000 6.5 6 1
02/06/06 8:24 a -12.3 -12.3 -12.3 --- --- 24.3 E 0.41 31.3 -24.3 --- --- 730.0 0.021 0.000 6.4 6 1
02/06/06 8:25 a -12.3 -12.3 -12.3 --- --- 23.5 E 0.39 28.7 -24.1 --- --- 730.1 0.021 0.000 6.4 6 1
02/06/06 8:26 a -12.3 -12.3 -12.3 --- --- 22.6 E 0.38 28.7 -23.9 --- --- 730.1 0.021 0.000 6.4 6 1
02/06/06 8:27 a -12.3 -12.3 -12.3 --- --- 24.3 E 0.41 27.8 -24.3 --- --- 730.0 0.021 0.000 6.4 6 1
02/06/06 8:28 a -12.3 -12.3 -12.3 --- --- 26.1 E 0.43 30.4 -24.6 --- --- 730.1 0.021 0.000 6.4 6 1
02/06/06 8:29 a -12.3 -12.3 -12.3 --- --- 23.5 E 0.39 27.0 -24.1 --- --- 730.1 0.021 0.000 6.4 6 1
02/06/06 8:30 a -12.3 -12.3 -12.3 --- --- 25.2 E 0.42 29.6 -24.4 --- --- 730.1 0.021 0.000 6.4 6 1
02/06/06 8:31 a -12.3 -12.3 -12.3 --- --- 25.2 E 0.42 29.6 -24.4 --- --- 730.0 0.021 0.000 6.4 6 1
02/06/06 8:32 a -12.3 -12.3 -12.3 --- --- 25.2 E 0.42 28.7 -24.4 --- --- 730.1 0.021 0.000 6.4 6 1
02/06/06 8:33 a -12.3 -12.3 -12.3 --- --- 24.3 E 0.41 27.8 -24.3 --- --- 730.0 0.021 0.000 6.5 6 1
02/06/06 8:34 a -12.3 -12.3 -12.3 --- --- 25.2 E 0.42 28.7 -24.6 --- --- 730.1 0.021 0.000 6.5 6 1
02/06/06 8:35 a -12.3 -12.3 -12.3 --- --- 25.2 E 0.42 29.6 -24.6 --- --- 730.0 0.021 0.000 6.5 6 1
02/06/06 8:36 a -12.3 -12.3 -12.3 --- --- 25.2 E 0.42 28.7 -24.6 --- --- 730.0 0.021 0.000 6.6 6 1
02/06/06 8:37 a -12.3 -12.3 -12.3 --- --- 24.3 E 0.41 30.4 -24.4 --- --- 729.9 0.021 0.000 6.6 6 1
02/06/06 8:38 a -12.3 -12.3 -12.3 --- --- 25.2 E 0.42 29.6 -24.6 --- --- 730.1 0.021 0.000 6.6 6 1
02/06/06 8:39 a -12.3 -12.3 -12.3 --- --- 25.2 E 0.42 29.6 -24.6 --- --- 730.1 0.021 0.000 6.6 6 1
02/06/06 8:40 a -12.3 -12.3 -12.4 --- --- 25.2 E 0.42 30.4 -24.6 --- --- 730.0 0.021 0.000 6.7 6 1
02/06/06 8:41 a -12.3 -12.3 -12.3 --- --- 26.1 E 0.43 30.4 -24.7 --- --- 730.0 0.021 0.000 6.7 6 1
02/06/06 8:42 a -12.3 -12.3 -12.4 --- --- 26.1 E 0.43 31.3 -24.7 --- --- 729.9 0.021 0.000 6.7 6 1
02/06/06 8:43 a -12.3 -12.3 -12.3 --- --- 25.2 E 0.42 28.7 -24.6 --- --- 730.0 0.021 0.000 6.7 6 1
02/06/06 8:44 a -12.3 -12.3 -12.3 --- --- 24.3 E 0.41 29.6 -24.4 --- --- 730.0 0.021 0.000 6.7 6 1
02/06/06 8:45 a -12.3 -12.3 -12.4 --- --- 26.1 E 0.43 28.7 -24.7 --- --- 730.1 0.021 0.000 6.7 6 1
02/06/06 8:46 a -12.3 -12.3 -12.4 --- --- 27.0 E 0.45 29.6 -24.8 --- --- 730.0 0.021 0.000 6.7 6 1
02/06/06 8:47 a -12.3 -12.3 -12.4 --- --- 25.2 E 0.42 29.6 -24.6 --- --- 729.9 0.021 0.000 6.7 6 1
02/06/06 8:48 a -12.3 -12.3 -12.4 --- --- 26.1 E 0.43 29.6 -24.7 --- --- 730.0 0.021 0.000 6.7 6 1
02/06/06 8:49 a -12.4 -12.3 -12.4 --- --- 24.3 E 0.41 28.7 -24.4 --- --- 730.0 0.021 0.000 6.7 6 1
02/06/06 8:50 a -12.4 -12.3 -12.4 --- --- 25.2 E 0.42 28.7 -24.6 --- --- 730.0 0.021 0.000 6.7 6 1
02/06/06 8:51 a -12.4 -12.3 -12.4 --- --- 26.1 E 0.43 29.6 -24.8 --- --- 730.0 0.021 0.000 6.7 6 1
02/06/06 8:52 a -12.4 -12.3 -12.4 --- --- 27.8 E 0.46 31.3 -25.1 --- --- 730.0 0.021 0.000 6.7 6 1
02/06/06 8:53 a -12.4 -12.4 -12.4 --- --- 24.3 E 0.41 27.8 -24.4 --- --- 730.1 0.021 0.000 6.7 6 1
02/06/06 8:54 a -12.4 -12.3 -12.4 --- --- 24.3 E 0.41 32.2 -24.4 --- --- 729.8 0.021 0.000 6.7 6 1
02/06/06 8:55 a -12.4 -12.4 -12.4 --- --- 27.8 E 0.46 31.3 -25.1 --- --- 729.9 0.021 0.000 6.7 6 1
02/06/06 8:56 a -12.4 -12.3 -12.4 --- --- 26.1 E 0.43 31.3 -24.8 --- --- 730.0 0.021 0.000 6.6 6 1
02/06/06 8:57 a -12.4 -12.4 -12.4 --- --- 27.0 E 0.45 30.4 -24.9 --- --- 730.0 0.021 0.000 6.6 6 1
02/06/06 8:58 a -12.4 -12.4 -12.4 --- --- 23.5 E 0.39 27.0 -24.3 --- --- 729.9 0.021 0.000 6.6 6 1
02/06/06 8:59 a -12.4 -12.4 -12.4 --- --- 25.2 E 0.42 30.4 -24.6 --- --- 729.8 0.021 0.000 6.6 6 1
02/06/06 9:00 a -12.4 -12.4 -12.4 --- --- 26.1 E 0.43 32.2 -24.8 --- --- 729.9 0.021 0.000 6.6 6 1
02/06/06 9:01 a -12.4 -12.4 -12.4 --- --- 27.8 E 0.46 30.4 -25.1 --- --- 729.9 0.021 0.000 6.6 6 1
02/06/06 9:02 a -12.4 -12.4 -12.4 --- --- 25.2 E 0.42 31.3 -24.6 --- --- 729.8 0.021 0.000 6.6 6 1
02/06/06 9:03 a -12.4 -12.4 -12.4 --- --- 27.0 E 0.45 30.4 -25.0 --- --- 729.8 0.021 0.000 6.6 6 1
02/06/06 9:04 a -12.4 -12.4 -12.4 --- --- 27.0 E 0.45 32.2 -25.0 --- --- 729.9 0.021 0.000 6.6 6 1
02/06/06 9:05 a -12.4 -12.4 -12.4 --- --- 27.8 E 0.46 31.3 -25.2 --- --- 729.8 0.021 0.000 6.6 6 1
02/06/06 9:06 a -12.4 -12.4 -12.4 --- --- 24.3 E 0.41 29.6 -24.5 --- --- 729.8 0.021 0.000 6.6 6 1
02/06/06 9:07 a -12.4 -12.4 -12.5 --- --- 25.2 E 0.42 30.4 -24.7 --- --- 729.8 0.021 0.000 6.6 6 1
02/06/06 9:08 a -12.4 -12.4 -12.5 --- --- 27.8 E 0.46 30.4 -25.2 --- --- 729.9 0.021 0.000 6.6 6 1
02/06/06 9:09 a -12.4 -12.4 -12.5 --- --- 27.0 E 0.45 32.2 -25.0 --- --- 729.9 0.021 0.000 6.6 6 1
02/06/06 9:10 a -12.5 -12.4 -12.5 --- --- 23.5 E 0.39 29.6 -24.4 --- --- 729.9 0.021 0.000 6.6 6 1
02/06/06 9:11 a -12.5 -12.5 -12.5 --- --- 26.1 E 0.43 31.3 -24.9 --- --- 729.8 0.021 0.000 6.5 6 1
02/06/06 9:12 a -12.5 -12.4 -12.6 --- --- 26.1 E 0.43 30.4 -24.9 --- --- 729.9 0.021 0.000 6.5 6 1
02/06/06 9:13 a -12.5 -12.5 -12.5 --- --- 25.2 E 0.42 28.7 -24.8 --- --- 729.9 0.021 0.000 6.5 6 1
02/06/06 9:14 a -12.5 -12.5 -12.5 --- --- 25.2 E 0.42 29.6 -24.8 --- --- 729.9 0.021 0.000 6.5 6 1
02/06/06 9:15 a -12.5 -12.5 -12.5 --- --- 27.0 E 0.45 31.3 -25.1 --- --- 729.9 0.021 0.000 6.5 6 1
02/06/06 9:16 a -12.5 -12.5 -12.6 --- --- 27.8 E 0.46 33.0 -25.2 --- --- 729.8 0.021 0.000 6.5 6 1
02/06/06 9:17 a -12.5 -12.5 -12.6 --- --- 28.7 E 0.48 31.3 -25.4 --- --- 729.9 0.021 0.000 6.5 6 1
02/06/06 9:18 a -12.6 -12.5 -12.6 --- --- 25.2 E 0.42 29.6 -24.8 --- --- 730.0 0.021 0.000 6.5 6 1
02/06/06 9:19 a -12.6 -12.6 -12.6 --- --- 24.3 E 0.41 27.8 -24.7 --- --- 729.9 0.021 0.000 6.5 6 1
02/06/06 9:20 a -12.6 -12.5 -12.6 --- --- 26.1 E 0.43 30.4 -25.0 --- --- 729.8 0.021 0.000 6.4 6 1
02/06/06 9:21 a -12.6 -12.5 -12.6 --- --- 27.8 E 0.46 32.2 -25.3 --- --- 729.8 0.021 0.000 6.5 6 1
02/06/06 9:22 a -12.6 -12.6 -12.6 --- --- 27.8 E 0.46 31.3 -25.3 --- --- 729.9 0.021 0.000 6.5 6 1
02/06/06 9:23 a -12.6 -12.6 -12.6 --- --- 25.2 E 0.42 27.8 -24.8 --- --- 730.0 0.021 0.000 6.6 6 1
02/06/06 9:24 a -12.6 -12.6 -12.6 --- --- 25.2 E 0.42 30.4 -24.8 --- --- 730.0 0.021 0.000 6.6 6 1
02/06/06 9:25 a -12.6 -12.6 -12.6 --- --- 25.2 E 0.42 30.4 -24.8 --- --- 729.8 0.021 0.000 6.6 6 1
02/06/06 9:26 a -12.6 -12.6 -12.6 --- --- 26.1 E 0.43 29.6 -25.0 --- --- 729.8 0.021 0.000 6.6 6 1
02/06/06 9:27 a -12.6 -12.6 -12.6 --- --- 26.1 E 0.43 30.4 -25.1 --- --- 729.9 0.021 0.000 6.7 6 1
02/06/06 9:28 a -12.6 -12.6 -12.6 --- --- 24.3 E 0.41 28.7 -24.7 --- --- 729.8 0.021 0.000 6.7 6 1
02/06/06 9:29 a -12.6 -12.6 -12.6 --- --- 27.0 E 0.45 31.3 -25.2 --- --- 729.9 0.021 0.000 6.7 6 1
02/06/06 9:30 a -12.6 -12.6 -12.7 --- --- 28.7 E 0.48 32.2 -25.6 --- --- 729.9 0.021 0.000 6.7 6 1
02/06/06 9:31 a -12.6 -12.6 -12.6 --- --- 27.8 E 0.46 30.4 -25.4 --- --- 729.8 0.021 0.000 6.7 6 1
02/06/06 9:32 a -12.6 -12.6 -12.7 --- --- 25.2 E 0.42 28.7 -24.9 --- --- 729.8 0.021 0.000 6.8 6 1
02/06/06 9:33 a -12.6 -12.6 -12.7 --- --- 25.2 E 0.42 28.7 -24.9 --- --- 729.9 0.021 0.000 6.8 6 1
02/06/06 9:34 a -12.6 -12.6 -12.7 --- --- 27.0 E 0.45 30.4 -25.2 --- --- 729.8 0.021 0.000 6.8 6 1
02/06/06 9:35 a -12.7 -12.6 -12.7 --- --- 27.8 E 0.46 32.2 -25.4 --- --- 729.9 0.022 0.000 6.8 6 1
02/06/06 9:36 a -12.7 -12.6 -12.7 --- --- 27.8 E 0.46 31.3 -25.4 --- --- 729.8 0.022 0.000 6.8 6 1
02/06/06 9:37 a -12.7 -12.7 -12.7 --- --- 26.1 E 0.43 30.4 -25.2 --- --- 729.8 0.022 0.000 6.8 6 1
02/06/06 9:38 a -12.7 -12.7 -12.7 --- --- 26.1 E 0.43 29.6 -25.2 --- --- 729.8 0.022 0.000 6.8 6 1
02/06/06 9:39 a -12.7 -12.7 -12.7 --- --- 24.3 E 0.41 28.7 -24.8 --- --- 729.8 0.022 0.000 6.8 6 1
02/06/06 9:40 a -12.7 -12.7 -12.7 --- --- 27.8 ESE 0.46 30.4 -25.6 --- --- 729.7 0.022 0.000 6.8 6 1
02/06/06 9:41 a -12.7 -12.7 -12.7 --- --- 27.8 E 0.46 30.4 -25.6 --- --- 729.7 0.022 0.000 6.8 6 1
02/06/06 9:42 a -12.7 -12.7 -12.8 --- --- 26.1 E 0.43 30.4 -25.2 --- --- 729.8 0.022 0.000 6.8 6 1
02/06/06 9:43 a -12.7 -12.7 -12.7 --- --- 28.7 E 0.48 31.3 -25.7 --- --- 729.7 0.022 0.000 6.8 6 1
02/06/06 9:44 a -12.7 -12.7 -12.8 --- --- 26.1 E 0.43 31.3 -25.2 --- --- 729.7 0.022 0.000 6.7 6 1
02/06/06 9:45 a -12.8 -12.7 -12.8 --- --- 26.1 E 0.43 32.2 -25.3 --- --- 729.8 0.022 0.000 6.7 6 1
02/06/06 9:46 a -12.8 -12.7 -12.8 --- --- 25.2 E 0.42 29.6 -25.1 --- --- 729.9 0.022 0.000 6.7 6 1
02/06/06 9:47 a -12.7 -12.7 -12.8 --- --- 26.1 E 0.43 31.3 -25.2 --- --- 729.7 0.022 0.000 6.7 6 1
02/06/06 9:48 a -12.8 -12.8 -12.8 --- --- 27.0 E 0.45 31.3 -25.4 --- --- 729.7 0.022 0.000 6.7 6 1
02/06/06 9:49 a -12.8 -12.8 -12.8 --- --- 27.0 E 0.45 31.3 -25.4 --- --- 729.8 0.022 0.000 6.7 6 1
02/06/06 9:50 a -12.8 -12.8 -12.8 --- --- 26.1 E 0.43 31.3 -25.3 --- --- 729.8 0.022 0.000 6.7 6 1
02/06/06 9:51 a -12.8 -12.8 -12.8 --- --- 26.1 E 0.43 31.3 -25.3 --- --- 729.8 0.022 0.000 6.7 6 1
02/06/06 9:52 a -12.8 -12.8 -12.8 --- --- 25.2 E 0.42 28.7 -25.1 --- --- 729.8 0.022 0.000 6.7 6 1
02/06/06 9:53 a -12.8 -12.8 -12.8 --- --- 26.1 E 0.43 30.4 -25.4 --- --- 729.7 0.022 0.000 6.7 6 1
02/06/06 9:54 a -12.8 -12.8 -12.8 --- --- 27.0 ESE 0.45 30.4 -25.6 --- --- 729.7 0.022 0.000 6.7 6 1
02/06/06 9:55 a -12.8 -12.8 -12.8 --- --- 25.2 E 0.42 31.3 -25.2 --- --- 729.7 0.022 0.000 6.7 6 1
02/06/06 9:56 a -12.8 -12.8 -12.8 --- --- 26.1 E 0.43 31.3 -25.4 --- --- 729.7 0.022 0.000 6.7 6 1
02/06/06 9:57 a -12.8 -12.8 -12.8 --- --- 26.1 E 0.43 32.2 -25.4 --- --- 729.7 0.022 0.000 6.7 6 1
02/06/06 9:58 a -12.9 -12.8 -12.9 --- --- 25.2 E 0.42 28.7 -25.3 --- --- 729.7 0.022 0.000 6.6 6 1
02/06/06 9:59 a -12.9 -12.9 -12.9 --- --- 24.3 E 0.41 27.8 -25.1 --- --- 729.7 0.022 0.000 6.6 6 1
02/06/06 10:00 a -12.9 -12.8 -12.9 --- --- 27.8 E 0.46 32.2 -25.8 --- --- 729.5 0.022 0.000 6.6 6 1
02/06/06 10:01 a -12.9 -12.9 -12.9 --- --- 27.8 E 0.46 31.3 -25.8 --- --- 729.6 0.022 0.000 6.6 6 1
02/06/06 10:02 a -12.9 -12.9 -12.9 --- --- 26.1 E 0.43 31.3 -25.5 --- --- 729.7 0.022 0.000 6.6 6 1
02/06/06 10:03 a -12.9 -12.9 -12.9 --- --- 23.5 E 0.39 27.0 -25.0 --- --- 729.8 0.022 0.000 6.6 6 1
02/06/06 10:04 a -12.9 -12.9 -12.9 --- --- 26.1 E 0.43 27.8 -25.5 --- --- 729.7 0.022 0.000 6.6 6 1
02/06/06 10:05 a -12.9 -12.9 -12.9 --- --- 27.8 E 0.46 30.4 -25.8 --- --- 729.6 0.022 0.000 6.6 6 1
02/06/06 10:06 a -12.9 -12.9 -13.0 --- --- 26.1 E 0.43 32.2 -25.5 --- --- 729.7 0.022 0.000 6.6 6 1
02/06/06 10:07 a -12.9 -12.9 -12.9 --- --- 25.2 E 0.42 28.7 -25.4 --- --- 729.7 0.022 0.000 6.6 6 1
02/06/06 10:08 a -13.0 -12.9 -13.0 --- --- 23.5 E 0.39 29.6 -25.1 --- --- 729.7 0.022 0.000 6.6 6 1
02/06/06 10:09 a -13.0 -13.0 -13.1 --- --- 25.2 E 0.42 28.7 -25.4 --- --- 729.9 0.022 0.000 6.6 6 1
02/06/06 10:10 a -13.0 -13.0 -13.1 --- --- 23.5 E 0.39 27.0 -25.1 --- --- 729.8 0.022 0.000 6.6 6 1
02/06/06 10:11 a -13.0 -12.9 -13.1 --- --- 22.6 E 0.38 28.7 -24.9 --- --- 729.7 0.022 0.000 6.6 6 1
02/06/06 10:12 a -13.0 -12.9 -13.1 --- --- 27.0 E 0.45 30.4 -25.8 --- --- 729.7 0.022 0.000 6.6 6 1
02/06/06 10:13 a -13.1 -12.9 -13.1 --- --- 27.0 E 0.45 30.4 -25.8 --- --- 729.6 0.022 0.000 6.6 6 1
02/06/06 10:14 a -13.0 -13.0 -13.1 --- --- 27.0 E 0.45 31.3 -25.8 --- --- 729.6 0.022 0.000 6.6 6 1
02/06/06 10:15 a -13.1 -13.0 -13.1 --- --- 27.0 E 0.45 31.3 -25.8 --- --- 729.6 0.022 0.000 6.6 6 1
02/06/06 10:16 a -13.1 -13.1 -13.1 --- --- 26.1 E 0.43 29.6 -25.7 --- --- 729.7 0.022 0.000 6.6 6 1
02/06/06 10:17 a -13.1 -13.1 -13.1 --- --- 23.5 E 0.39 27.0 -25.2 --- --- 729.7 0.022 0.000 6.6 6 1
02/06/06 10:18 a -13.1 -13.1 -13.1 --- --- 23.5 E 0.39 26.1 -25.2 --- --- 729.7 0.022 0.000 6.6 6 1
02/06/06 10:19 a -13.1 -13.0 -13.1 --- --- 27.0 E 0.45 34.8 -25.8 --- --- 729.4 0.022 0.000 6.6 6 1
02/06/06 10:20 a -13.1 -13.1 -13.1 --- --- 29.6 E 0.49 35.7 -26.3 --- --- 729.5 0.022 0.000 6.6 6 1
02/06/06 10:21 a -13.1 -13.1 -13.1 --- --- 27.0 E 0.45 33.9 -25.8 --- --- 729.8 0.022 0.000 6.7 6 1
02/06/06 10:22 a -13.1 -13.1 -13.1 --- --- 22.6 E 0.38 27.0 -25.0 --- --- 729.8 0.022 0.000 6.7 6 1
02/06/06 10:23 a -13.1 -13.1 -13.1 --- --- 26.1 E 0.43 32.2 -25.7 --- --- 729.7 0.022 0.000 6.7 6 1
02/06/06 10:24 a -13.1 -13.1 -13.1 --- --- 27.0 E 0.45 31.3 -25.8 --- --- 729.5 0.022 0.000 6.7 6 1
02/06/06 10:25 a -13.1 -13.1 -13.1 --- --- 26.1 E 0.43 29.6 -25.7 --- --- 729.7 0.022 0.000 6.7 6 1
02/06/06 10:26 a -13.1 -13.1 -13.1 --- --- 25.2 E 0.42 28.7 -25.5 --- --- 729.7 0.022 0.000 6.7 6 1
02/06/06 10:27 a -13.1 -13.1 -13.1 --- --- 25.2 E 0.42 28.7 -25.5 --- --- 729.7 0.022 0.000 6.7 6 1
02/06/06 10:28 a -13.1 -13.1 -13.1 --- --- 23.5 E 0.39 27.0 -25.2 --- --- 729.7 0.022 0.000 6.8 6 1
02/06/06 10:29 a -13.1 -13.1 -13.1 --- --- 24.3 E 0.41 28.7 -25.4 --- --- 729.5 0.022 0.000 6.8 6 1
02/06/06 10:30 a -13.1 -13.1 -13.1 --- --- 26.1 E 0.43 29.6 -25.8 --- --- 729.5 0.022 0.000 6.8 6 1
02/06/06 10:31 a -13.1 -13.1 -13.2 --- --- 25.2 E 0.42 28.7 -25.6 --- --- 729.8 0.022 0.000 6.7 6 1
02/06/06 10:32 a -13.1 -13.1 -13.1 --- --- 20.9 E 0.35 26.1 -24.7 --- --- 729.7 0.022 0.000 6.8 6 1
02/06/06 10:33 a -13.1 -13.1 -13.2 --- --- 23.5 E 0.39 28.7 -25.2 --- --- 729.6 0.022 0.000 6.8 6 1
02/06/06 10:34 a -13.1 -13.1 -13.2 --- --- 26.1 E 0.43 30.4 -25.8 --- --- 729.6 0.022 0.000 6.8 6 1
02/06/06 10:35 a -13.1 -13.1 -13.2 --- --- 25.2 E 0.42 28.7 -25.6 --- --- 729.6 0.022 0.000 6.8 6 1
02/06/06 10:36 a -13.1 -13.1 -13.1 --- --- 25.2 E 0.42 28.7 -25.6 --- --- 729.6 0.022 0.000 6.8 6 1
02/06/06 10:37 a -13.1 -13.1 -13.2 --- --- 25.2 E 0.42 28.7 -25.6 --- --- 729.8 0.022 0.000 6.8 6 1
02/06/06 10:38 a -13.1 -13.1 -13.1 --- --- 22.6 E 0.38 26.1 -25.1 --- --- 729.9 0.022 0.000 6.8 6 1
02/06/06 10:39 a -13.1 -13.1 -13.2 --- --- 21.7 E 0.36 26.1 -24.9 --- --- 729.6 0.022 0.000 6.7 6 1
02/06/06 10:40 a -13.1 -13.1 -13.2 --- --- 24.3 E 0.41 27.0 -25.4 --- --- 729.5 0.022 0.000 6.7 6 1
02/06/06 10:41 a -13.1 -13.1 -13.2 --- --- 27.0 E 0.45 29.6 -25.9 --- --- 729.6 0.022 0.000 6.7 6 1
02/06/06 10:42 a -13.2 -13.1 -13.2 --- --- 27.8 E 0.46 32.2 -26.2 --- --- 729.7 0.022 0.000 6.7 6 1
02/06/06 10:43 a -13.1 -13.1 -13.2 --- --- 24.3 E 0.41 28.7 -25.4 --- --- 729.7 0.022 0.000 6.7 6 1
02/06/06 10:44 a -13.1 -13.1 -13.2 --- --- 23.5 E 0.39 27.0 -25.2 --- --- 729.6 0.022 0.000 6.7 6 1
02/06/06 10:45 a -13.1 -13.1 -13.2 --- --- 25.2 E 0.42 28.7 -25.6 --- --- 729.6 0.022 0.000 6.7 6 1
02/06/06 10:46 a -13.1 -13.1 -13.2 --- --- 26.1 E 0.43 30.4 -25.8 --- --- 729.5 0.022 0.000 6.7 6 1
02/06/06 10:47 a -13.1 -13.1 -13.2 --- --- 25.2 E 0.42 31.3 -25.6 --- --- 729.6 0.022 0.000 6.6 6 1
02/06/06 10:48 a -13.1 -13.1 -13.2 --- --- 23.5 E 0.39 28.7 -25.2 --- --- 729.8 0.022 0.000 6.6 6 1
02/06/06 10:49 a -13.2 -13.1 -13.2 --- --- 20.9 E 0.35 25.2 -24.7 --- --- 729.7 0.022 0.000 6.6 6 1
02/06/06 10:50 a -13.1 -13.1 -13.2 --- --- 27.0 E 0.45 30.4 -25.9 --- --- 729.5 0.022 0.000 6.6 6 1
02/06/06 10:51 a -13.1 -13.1 -13.2 --- --- 27.8 E 0.46 33.0 -26.1 --- --- 729.5 0.022 0.000 6.6 6 1
02/06/06 10:52 a -13.2 -13.1 -13.2 --- --- 25.2 E 0.42 27.8 -25.7 --- --- 729.8 0.022 0.000 6.6 6 1
02/06/06 10:53 a -13.1 -13.1 -13.2 --- --- 20.9 E 0.35 24.3 -24.7 --- --- 729.8 0.022 0.000 6.6 6 1
02/06/06 10:54 a -13.1 -13.1 -13.2 --- --- 20.0 E 0.33 25.2 -24.4 --- --- 729.6 0.022 0.000 6.6 6 1
02/06/06 10:55 a -13.1 -13.1 -13.1 --- --- 26.1 E 0.43 28.7 -25.8 --- --- 729.4 0.022 0.000 6.6 6 1
02/06/06 10:56 a -13.1 -13.1 -13.2 --- --- 25.2 E 0.42 28.7 -25.6 --- --- 729.7 0.022 0.000 6.6 6 1
02/06/06 10:57 a -13.1 -13.1 -13.2 --- --- 24.3 E 0.41 28.7 -25.4 --- --- 729.6 0.022 0.000 6.6 6 1
02/06/06 10:58 a -13.1 -13.1 -13.1 --- --- 25.2 E 0.42 28.7 -25.6 --- --- 729.6 0.022 0.000 6.6 6 1
02/06/06 10:59 a -13.1 -13.1 -13.2 --- --- 24.3 E 0.41 27.0 -25.4 --- --- 729.7 0.022 0.000 6.6 6 1
02/06/06 11:00 a -13.1 -13.1 -13.2 --- --- 22.6 E 0.38 26.1 -25.1 --- --- 729.7 0.022 0.000 6.6 6 1
02/06/06 11:01 a -13.1 -13.1 -13.2 --- --- 24.3 E 0.41 28.7 -25.4 --- --- 729.5 0.022 0.000 6.6 6 1
02/06/06 11:02 a -13.1 -13.1 -13.1 --- --- 24.3 E 0.41 28.7 -25.4 --- --- 729.6 0.022 0.000 6.6 6 1
02/06/06 11:03 a -13.1 -13.1 -13.2 --- --- 23.5 E 0.39 27.0 -25.2 --- --- 729.7 0.022 0.000 6.6 6 1
02/06/06 11:04 a -13.1 -13.1 -13.2 --- --- 22.6 E 0.38 25.2 -25.1 --- --- 729.7 0.022 0.000 6.6 6 1
02/06/06 11:05 a -13.1 -13.1 -13.1 --- --- 27.8 E 0.46 33.0 -26.1 --- --- 729.3 0.022 0.000 6.6 6 1
02/06/06 11:06 a -13.1 -13.1 -13.1 --- --- 30.4 E 0.51 34.8 -26.5 --- --- 729.4 0.022 0.000 6.5 6 1
02/06/06 11:07 a -13.1 -13.1 -13.1 --- --- 25.2 E 0.42 30.4 -25.6 --- --- 729.8 0.022 0.000 6.5 6 1
02/06/06 11:08 a -13.1 -13.1 -13.1 --- --- 20.9 E 0.35 24.3 -24.7 --- --- 729.9 0.022 0.000 6.5 6 1
02/06/06 11:09 a -13.1 -13.1 -13.1 --- --- 21.7 E 0.36 26.1 -24.9 --- --- 729.6 0.022 0.000 6.5 6 1
02/06/06 11:10 a -13.1 -13.1 -13.1 --- --- 26.1 E 0.43 28.7 -25.8 --- --- 729.5 0.022 0.000 6.5 6 1
02/06/06 11:11 a -13.1 -13.1 -13.1 --- --- 25.2 E 0.42 29.6 -25.6 --- --- 729.6 0.022 0.000 6.5 6 1
02/06/06 11:12 a -13.1 -13.1 -13.1 --- --- 24.3 E 0.41 28.7 -25.3 --- --- 729.6 0.022 0.000 6.5 6 1
02/06/06 11:13 a -13.1 -13.1 -13.1 --- --- 25.2 E 0.42 30.4 -25.6 --- --- 729.7 0.022 0.000 6.5 6 1
02/06/06 11:14 a -13.1 -13.1 -13.1 --- --- 23.5 E 0.39 26.1 -25.2 --- --- 729.6 0.022 0.000 6.5 6 1
02/06/06 11:15 a -13.1 -13.0 -13.1 --- --- 23.5 E 0.39 27.8 -25.2 --- --- 729.6 0.022 0.000 6.5 6 1
02/06/06 11:16 a -13.1 -13.1 -13.1 --- --- 25.2 E 0.42 28.7 -25.5 --- --- 729.6 0.022 0.000 6.5 6 1
02/06/06 11:17 a -13.1 -13.1 -13.1 --- --- 26.1 E 0.43 28.7 -25.7 --- --- 729.6 0.022 0.000 6.5 6 1
02/06/06 11:18 a -13.1 -13.1 -13.1 --- --- 26.1 E 0.43 30.4 -25.7 --- --- 729.5 0.022 0.000 6.4 6 1
02/06/06 11:19 a -13.1 -13.0 -13.1 --- --- 25.2 E 0.42 28.7 -25.5 --- --- 729.5 0.022 0.000 6.5 6 1
02/06/06 11:20 a -13.1 -13.1 -13.1 --- --- 26.1 E 0.43 27.8 -25.7 --- --- 729.5 0.022 0.000 6.5 6 1
02/06/06 11:21 a -13.1 -13.0 -13.1 --- --- 26.1 E 0.43 31.3 -25.7 --- --- 729.5 0.022 0.000 6.5 6 1
02/06/06 11:22 a -13.1 -13.0 -13.1 --- --- 24.3 E 0.41 27.8 -25.3 --- --- 729.5 0.022 0.000 6.6 6 1
02/06/06 11:23 a -13.0 -12.9 -13.0 --- --- 21.7 E 0.36 27.8 -24.7 --- --- 729.7 0.022 0.000 6.6 6 1
02/06/06 11:24 a -13.1 -13.0 -13.1 --- --- 23.5 E 0.39 27.8 -25.2 --- --- 729.5 0.022 0.000 6.6 6 1
02/06/06 11:25 a -13.0 -12.9 -13.0 --- --- 24.3 E 0.41 28.7 -25.3 --- --- 729.4 0.022 0.000 6.6 6 1
02/06/06 11:26 a -12.9 -12.9 -13.0 --- --- 25.2 E 0.42 29.6 -25.4 --- --- 729.4 0.022 0.000 6.6 6 1
02/06/06 11:27 a -13.0 -12.9 -13.0 --- --- 26.1 E 0.43 29.6 -25.6 --- --- 729.5 0.022 0.000 6.7 6 1
02/06/06 11:28 a -12.9 -12.9 -13.0 --- --- 24.3 E 0.41 27.8 -25.2 --- --- 729.6 0.022 0.000 6.7 6 1
02/06/06 11:29 a -12.9 -12.9 -12.9 --- --- 25.2 E 0.42 31.3 -25.4 --- --- 729.4 0.022 0.000 6.7 6 1
02/06/06 11:30 a -12.9 -12.9 -12.9 --- --- 26.1 E 0.43 28.7 -25.5 --- --- 729.5 0.022 0.000 6.7 6 1
02/06/06 11:31 a -12.9 -12.9 -12.9 --- --- 25.2 E 0.42 27.8 -25.4 --- --- 729.7 0.022 0.000 6.8 6 1
02/06/06 11:32 a -12.9 -12.9 -12.9 --- --- 21.7 E 0.36 26.1 -24.6 --- --- 729.7 0.022 0.000 6.8 6 1
02/06/06 11:33 a -12.9 -12.9 -12.9 --- --- 22.6 E 0.38 28.7 -24.8 --- --- 729.4 0.022 0.000 6.8 6 1
02/06/06 11:34 a -12.9 -12.9 -12.9 --- --- 30.4 E 0.51 36.5 -26.2 --- --- 729.2 0.022 0.000 6.8 6 1
02/06/06 11:35 a -12.9 -12.9 -12.9 --- --- 31.3 E 0.52 35.7 -26.3 --- --- 729.6 0.022 0.000 6.8 6 1
02/06/06 11:36 a -12.9 -12.8 -12.9 --- --- 28.7 E 0.48 33.0 -25.9 --- --- 729.9 0.022 0.000 6.8 6 1
02/06/06 11:37 a -12.9 -12.8 -12.9 --- --- 22.6 E 0.38 27.8 -24.8 --- --- 729.9 0.022 0.000 6.8 6 1
02/06/06 11:38 a -12.8 -12.8 -12.9 --- --- 20.9 E 0.35 23.5 -24.3 --- --- 729.9 0.022 0.000 6.8 6 1
02/06/06 11:39 a -12.8 -12.8 -12.8 --- --- 20.9 E 0.35 22.6 -24.3 --- --- 729.8 0.022 0.000 6.8 6 1
02/06/06 11:40 a -12.8 -12.8 -12.8 --- --- 21.7 E 0.36 27.0 -24.5 --- --- 729.4 0.022 0.000 6.7 6 1
02/06/06 11:41 a -12.8 -12.8 -12.8 --- --- 24.3 E 0.41 29.6 -25.1 --- --- 729.3 0.022 0.000 6.7 6 1
02/06/06 11:42 a -12.8 -12.8 -12.9 --- --- 31.3 E 0.52 35.7 -26.3 --- --- 729.4 0.022 0.000 6.7 6 1
02/06/06 11:43 a -12.8 -12.8 -12.8 --- --- 29.6 E 0.49 33.0 -26.0 --- --- 729.4 0.022 0.000 6.7 6 1
02/06/06 11:44 a -12.8 -12.8 -12.8 --- --- 27.0 E 0.45 33.0 -25.6 --- --- 729.5 0.022 0.000 6.7 6 1
02/06/06 11:45 a -12.8 -12.8 -12.8 --- --- 24.3 E 0.41 27.8 -25.1 --- --- 729.7 0.022 0.000 6.7 6 1
02/06/06 11:46 a -12.8 -12.8 -12.8 --- --- 23.5 E 0.39 25.2 -24.9 --- --- 729.7 0.022 0.000 6.7 6 1
02/06/06 11:47 a -12.8 -12.8 -12.8 --- --- 20.9 E 0.35 25.2 -24.3 --- --- 729.8 0.022 0.000 6.6 6 1
02/06/06 11:48 a -12.8 -12.8 -12.8 --- --- 20.9 E 0.35 23.5 -24.3 --- --- 729.8 0.022 0.000 6.6 6 1
02/06/06 11:49 a -12.8 -12.8 -12.8 --- --- 22.6 E 0.38 25.2 -24.6 --- --- 729.5 0.022 0.000 6.6 6 1
02/06/06 11:50 a -12.8 -12.8 -12.8 --- --- 25.2 E 0.42 29.6 -25.2 --- --- 729.5 0.022 0.000 6.6 6 1
02/06/06 11:51 a -12.8 -12.8 -12.8 --- --- 24.3 E 0.41 27.8 -24.9 --- --- 729.6 0.022 0.000 6.6 6 1
02/06/06 11:52 a -12.8 -12.8 -12.8 --- --- 22.6 E 0.38 25.2 -24.6 --- --- 729.6 0.022 0.000 6.6 6 1
02/06/06 11:53 a -12.8 -12.8 -12.8 --- --- 22.6 E 0.38 26.1 -24.6 --- --- 729.6 0.022 0.000 6.5 6 1
02/06/06 11:54 a -12.8 -12.8 -12.8 --- --- 22.6 E 0.38 27.8 -24.7 --- --- 729.5 0.022 0.000 6.5 6 1
02/06/06 11:55 a -12.8 -12.8 -12.8 --- --- 22.6 E 0.38 27.8 -24.6 --- --- 729.5 0.022 0.000 6.5 6 1
02/06/06 11:56 a -12.8 -12.8 -12.8 --- --- 23.5 E 0.39 27.8 -24.9 --- --- 729.5 0.022 0.000 6.5 6 1
02/06/06 11:57 a -12.8 -12.8 -12.8 --- --- 26.1 E 0.43 28.7 -25.3 --- --- 729.5 0.022 0.000 6.6 6 1
02/06/06 11:58 a -12.8 -12.8 -12.8 --- --- 26.1 E 0.43 28.7 -25.4 --- --- 729.5 0.022 0.000 6.5 6 1
02/06/06 11:59 a -12.8 -12.8 -12.8 --- --- 23.5 E 0.39 27.8 -24.8 --- --- 729.6 0.022 0.000 6.6 6 1
02/06/06 12:00 p -12.8 -12.8 -12.8 --- --- 22.6 E 0.38 27.0 -24.7 --- --- 729.7 0.022 0.000 6.5 6 1
02/06/06 12:01 p -12.8 -12.8 -12.8 --- --- 20.0 E 0.33 25.2 -24.1 --- --- 729.7 0.022 0.000 6.5 6 1
02/06/06 12:02 p -12.8 -12.7 -12.8 --- --- 21.7 E 0.36 28.7 -24.4 --- --- 729.5 0.022 0.000 6.5 6 1
02/06/06 12:03 p -12.8 -12.8 -12.8 --- --- 23.5 E 0.39 27.0 -24.8 --- --- 729.4 0.022 0.000 6.5 6 1
02/06/06 12:04 p -12.8 -12.7 -12.8 --- --- 27.8 E 0.46 30.4 -25.6 --- --- 729.4 0.022 0.000 6.5 6 1
02/06/06 12:05 p -12.8 -12.7 -12.8 --- --- 26.1 E 0.43 31.3 -25.3 --- --- 729.5 0.022 0.000 6.5 6 1
02/06/06 12:06 p -12.8 -12.7 -12.8 --- --- 23.5 E 0.39 27.8 -24.8 --- --- 729.7 0.022 0.000 6.5 6 1
02/06/06 12:07 p -12.8 -12.7 -12.8 --- --- 20.0 E 0.33 27.0 -24.1 --- --- 729.8 0.022 0.000 6.5 6 1
02/06/06 12:08 p -12.7 -12.7 -12.8 --- --- 19.1 E 0.32 21.7 -23.7 --- --- 729.7 0.022 0.000 6.4 6 1
02/06/06 12:09 p -12.8 -12.7 -12.8 --- --- 21.7 E 0.36 25.2 -24.4 --- --- 729.5 0.022 0.000 6.4 6 1
02/06/06 12:10 p -12.7 -12.7 -12.8 --- --- 23.5 E 0.39 28.7 -24.7 --- --- 729.3 0.022 0.000 6.5 6 1
02/06/06 12:11 p -12.7 -12.7 -12.8 --- --- 27.0 E 0.45 32.2 -25.4 --- --- 729.2 0.022 0.000 6.4 6 1
02/06/06 12:12 p -12.7 -12.7 -12.7 --- --- 25.2 E 0.42 32.2 -25.1 --- --- 729.4 0.022 0.000 6.5 6 1
02/06/06 12:13 p -12.7 -12.7 -12.8 --- --- 23.5 E 0.39 27.0 -24.7 --- --- 729.6 0.022 0.000 6.5 6 1
02/06/06 12:14 p -12.7 -12.7 -12.7 --- --- 20.9 E 0.35 24.3 -24.2 --- --- 729.8 0.022 0.000 6.4 6 1
02/06/06 12:15 p -12.7 -12.7 -12.7 --- --- 20.0 E 0.33 24.3 -23.9 --- --- 729.5 0.022 0.000 6.5 6 1
02/06/06 12:16 p -12.7 -12.7 -12.7 --- --- 24.3 E 0.41 27.8 -24.9 --- --- 729.4 0.022 0.000 6.4 6 1
02/06/06 12:17 p -12.7 -12.7 -12.7 --- --- 26.1 E 0.43 30.4 -25.2 --- --- 729.3 0.022 0.000 6.4 6 1
02/06/06 12:18 p -12.7 -12.7 -12.7 --- --- 26.1 E 0.43 29.6 -25.2 --- --- 729.3 0.022 0.000 6.4 6 1
02/06/06 12:19 p -12.7 -12.7 -12.7 --- --- 25.2 E 0.42 28.7 -25.1 --- --- 729.6 0.022 0.000 6.4 6 1
02/06/06 12:20 p -12.7 -12.7 -12.7 --- --- 20.9 E 0.35 24.3 -24.2 --- --- 729.7 0.022 0.000 6.4 6 1
02/06/06 12:21 p -12.7 -12.7 -12.7 --- --- 20.9 E 0.35 25.2 -24.1 --- --- 729.5 0.022 0.000 6.4 6 1
02/06/06 12:22 p -12.7 -12.7 -12.7 --- --- 23.5 E 0.39 27.0 -24.7 --- --- 729.4 0.022 0.000 6.4 6 1
02/06/06 12:23 p -12.7 -12.7 -12.7 --- --- 22.6 E 0.38 27.0 -24.6 --- --- 729.5 0.022 0.000 6.4 6 1
02/06/06 12:24 p -12.7 -12.6 -12.7 --- --- 22.6 E 0.38 26.1 -24.4 --- --- 729.4 0.022 0.000 6.4 6 1
02/06/06 12:25 p -12.7 -12.6 -12.7 --- --- 25.2 E 0.42 31.3 -25.0 --- --- 729.3 0.022 0.000 6.5 6 1
02/06/06 12:26 p -12.7 -12.6 -12.7 --- --- 26.1 E 0.43 29.6 -25.2 --- --- 729.4 0.022 0.000 6.6 6 1
02/06/06 12:27 p -12.7 -12.6 -12.7 --- --- 22.6 E 0.38 26.1 -24.4 --- --- 729.3 0.022 0.000 6.6 6 1
02/06/06 12:28 p -12.7 -12.6 -12.7 --- --- 27.0 E 0.45 30.4 -25.3 --- --- 729.1 0.022 0.000 6.6 6 1
02/06/06 12:29 p -12.7 -12.6 -12.7 --- --- 27.8 E 0.46 33.9 -25.4 --- --- 729.2 0.022 0.000 6.6 6 1
02/06/06 12:30 p -12.7 -12.6 -12.7 --- --- 25.2 E 0.42 27.8 -25.0 --- --- 729.3 0.022 0.000 6.6 6 1
02/06/06 12:31 p -12.7 -12.6 -12.7 --- --- 23.5 E 0.39 28.7 -24.7 --- --- 729.3 0.022 0.000 6.7 6 1
02/06/06 12:32 p -12.7 -12.6 -12.7 --- --- 25.2 E 0.42 28.7 -25.0 --- --- 729.3 0.022 0.000 6.7 6 1
02/06/06 12:33 p -12.7 -12.7 -12.7 --- --- 25.2 E 0.42 29.6 -25.0 --- --- 729.2 0.022 0.000 6.7 6 1
02/06/06 12:34 p -12.7 -12.7 -12.7 --- --- 25.2 E 0.42 28.7 -25.0 --- --- 729.3 0.022 0.000 6.7 6 1
02/06/06 12:35 p -12.7 -12.6 -12.7 --- --- 24.3 E 0.41 28.7 -24.8 --- --- 729.4 0.022 0.000 6.8 6 1
02/06/06 12:36 p -12.7 -12.6 -12.7 --- --- 23.5 E 0.39 29.6 -24.7 --- --- 729.4 0.022 0.000 6.8 6 1
02/06/06 12:37 p -12.6 -12.6 -12.7 --- --- 23.5 E 0.39 27.0 -24.6 --- --- 729.4 0.021 0.000 6.8 6 1
02/06/06 12:38 p -12.6 -12.6 -12.7 --- --- 22.6 E 0.38 26.1 -24.4 --- --- 729.4 0.021 0.000 6.8 6 1
02/06/06 12:39 p -12.6 -12.6 -12.7 --- --- 26.1 E 0.43 29.6 -25.1 --- --- 729.3 0.021 0.000 6.8 6 1
02/06/06 12:40 p -12.7 -12.6 -12.7 --- --- 27.0 E 0.45 30.4 -25.3 --- --- 729.2 0.022 0.000 6.8 6 1
02/06/06 12:41 p -12.7 -12.6 -12.7 --- --- 27.8 E 0.46 30.4 -25.4 --- --- 729.3 0.022 0.000 6.8 6 1
02/06/06 12:42 p -12.6 -12.6 -12.7 --- --- 24.3 E 0.41 27.8 -24.7 --- --- 729.3 0.021 0.000 6.8 6 1
02/06/06 12:43 p -12.7 -12.6 -12.7 --- --- 24.3 E 0.41 27.0 -24.8 --- --- 729.3 0.022 0.000 6.8 6 1
02/06/06 12:44 p -12.6 -12.6 -12.6 --- --- 25.2 E 0.42 29.6 -24.9 --- --- 729.3 0.021 0.000 6.8 6 1
02/06/06 12:45 p -12.6 -12.6 -12.6 --- --- 22.6 E 0.38 25.2 -24.4 --- --- 729.5 0.021 0.000 6.8 6 1
02/06/06 12:46 p -12.6 -12.6 -12.7 --- --- 21.7 E 0.36 26.1 -24.2 --- --- 729.4 0.021 0.000 6.8 6 1
02/06/06 12:47 p -12.6 -12.6 -12.7 --- --- 23.5 E 0.39 27.0 -24.6 --- --- 729.2 0.021 0.000 6.8 6 1
02/06/06 12:48 p -12.6 -12.6 -12.7 --- --- 25.2 E 0.42 29.6 -24.9 --- --- 729.2 0.021 0.000 6.8 6 1
02/06/06 12:49 p -12.6 -12.6 -12.7 --- --- 24.3 E 0.41 28.7 -24.7 --- --- 729.3 0.021 0.000 6.8 6 1
02/06/06 12:50 p -12.6 -12.6 -12.6 --- --- 24.3 E 0.41 28.7 -24.7 --- --- 729.2 0.021 0.000 6.8 6 1
02/06/06 12:51 p -12.6 -12.6 -12.6 --- --- 24.3 E 0.41 28.7 -24.7 --- --- 729.4 0.021 0.000 6.8 6 1
02/06/06 12:52 p -12.6 -12.6 -12.6 --- --- 23.5 E 0.39 27.0 -24.6 --- --- 729.4 0.021 0.000 6.7 6 1
02/06/06 12:53 p -12.6 -12.6 -12.6 --- --- 22.6 E 0.38 26.1 -24.4 --- --- 729.4 0.021 0.000 6.7 6 1
02/06/06 12:54 p -12.6 -12.6 -12.6 --- --- 20.9 E 0.35 25.2 -24.0 --- --- 729.5 0.021 0.000 6.7 6 1
02/06/06 12:55 p -12.6 -12.6 -12.6 --- --- 20.0 E 0.33 23.5 -23.8 --- --- 729.3 0.021 0.000 6.7 6 1
02/06/06 12:56 p -12.6 -12.6 -12.6 --- --- 22.6 E 0.38 27.8 -24.4 --- --- 729.1 0.021 0.000 6.7 6 1
02/06/06 12:57 p -12.6 -12.6 -12.6 --- --- 27.8 E 0.46 33.0 -25.4 --- --- 729.3 0.021 0.000 6.7 6 1
02/06/06 12:58 p -12.6 -12.6 -12.6 --- --- 24.3 E 0.41 27.8 -24.7 --- --- 729.5 0.021 0.000 6.7 6 1
02/06/06 12:59 p -12.6 -12.6 -12.6 --- --- 21.7 E 0.36 24.3 -24.2 --- --- 729.5 0.021 0.000 6.7 6 1
02/06/06 1:00 p -12.6 -12.6 -12.7 --- --- 20.9 E 0.35 25.2 -24.0 --- --- 729.6 0.021 0.000 6.7 6 1
02/06/06 1:01 p -12.6 -12.6 -12.7 --- --- 20.0 E 0.33 21.7 -23.8 --- --- 729.6 0.021 0.000 6.6 6 1
02/06/06 1:02 p -12.6 -12.6 -12.6 --- --- 19.1 E 0.32 21.7 -23.6 --- --- 729.4 0.021 0.000 6.6 6 1
02/06/06 1:03 p -12.6 -12.6 -12.6 --- --- 22.6 E 0.38 28.7 -24.4 --- --- 729.2 0.021 0.000 6.6 6 1
02/06/06 1:04 p -12.6 -12.6 -12.7 --- --- 25.2 E 0.42 29.6 -24.9 --- --- 729.3 0.021 0.000 6.6 6 1
02/06/06 1:05 p -12.6 -12.6 -12.6 --- --- 25.2 E 0.42 28.7 -24.9 --- --- 729.4 0.021 0.000 6.6 6 1
02/06/06 1:06 p -12.6 -12.6 -12.6 --- --- 21.7 E 0.36 26.1 -24.2 --- --- 729.6 0.021 0.000 6.6 6 1
02/06/06 1:07 p -12.6 -12.6 -12.6 --- --- 20.0 E 0.33 23.5 -23.8 --- --- 729.5 0.021 0.000 6.6 6 1
02/06/06 1:08 p -12.6 -12.6 -12.6 --- --- 20.9 E 0.35 25.2 -24.0 --- --- 729.4 0.021 0.000 6.6 6 1
02/06/06 1:09 p -12.6 -12.6 -12.6 --- --- 22.6 E 0.38 26.1 -24.4 --- --- 729.4 0.021 0.000 6.6 6 1
02/06/06 1:10 p -12.6 -12.6 -12.6 --- --- 23.5 E 0.39 28.7 -24.6 --- --- 729.2 0.021 0.000 6.6 6 1
02/06/06 1:11 p -12.6 -12.6 -12.6 --- --- 24.3 E 0.41 29.6 -24.7 --- --- 729.2 0.021 0.000 6.6 6 1
02/06/06 1:12 p -12.6 -12.6 -12.6 --- --- 20.9 E 0.35 25.2 -24.0 --- --- 729.3 0.021 0.000 6.6 6 1
02/06/06 1:13 p -12.6 -12.6 -12.6 --- --- 20.9 E 0.35 24.3 -23.9 --- --- 729.2 0.021 0.000 6.6 6 1
02/06/06 1:14 p -12.6 -12.6 -12.6 --- --- 23.5 E 0.39 28.7 -24.6 --- --- 729.1 0.021 0.000 6.5 6 1
02/06/06 1:15 p -12.6 -12.6 -12.6 --- --- 24.3 E 0.41 27.0 -24.7 --- --- 729.1 0.021 0.000 6.5 6 1
02/06/06 1:16 p -12.6 -12.6 -12.6 --- --- 23.5 E 0.39 28.7 -24.5 --- --- 729.4 0.021 0.000 6.5 6 1
02/06/06 1:17 p -12.6 -12.6 -12.6 --- --- 20.0 E 0.33 24.3 -23.8 --- --- 729.3 0.021 0.000 6.5 6 1
02/06/06 1:18 p -12.6 -12.6 -12.6 --- --- 22.6 E 0.38 27.8 -24.4 --- --- 729.1 0.021 0.000 6.5 6 1
02/06/06 1:19 p -12.6 -12.6 -12.6 --- --- 25.2 E 0.42 29.6 -24.9 --- --- 729.1 0.021 0.000 6.5 6 1
02/06/06 1:20 p -12.6 -12.6 -12.6 --- --- 23.5 E 0.39 27.8 -24.6 --- --- 729.3 0.021 0.000 6.5 6 1
02/06/06 1:21 p -12.6 -12.6 -12.6 --- --- 20.9 E 0.35 24.3 -24.0 --- --- 729.4 0.021 0.000 6.5 6 1
02/06/06 1:22 p -12.6 -12.6 -12.6 --- --- 20.9 E 0.35 26.1 -24.0 --- --- 729.3 0.021 0.000 6.5 6 1
02/06/06 1:23 p -12.6 -12.6 -12.6 --- --- 24.3 E 0.41 27.8 -24.7 --- --- 729.2 0.021 0.000 6.5 6 1
02/06/06 1:24 p -12.6 -12.6 -12.6 --- --- 24.3 E 0.41 27.0 -24.7 --- --- 729.1 0.021 0.000 6.5 6 1
02/06/06 1:25 p -12.6 -12.6 -12.6 --- --- 23.5 E 0.39 26.1 -24.6 --- --- 729.3 0.021 0.000 6.5 6 1
02/06/06 1:26 p -12.6 -12.6 -12.6 --- --- 20.9 E 0.35 24.3 -24.0 --- --- 729.4 0.021 0.000 6.5 6 1
02/06/06 1:27 p -12.6 -12.6 -12.6 --- --- 21.7 E 0.36 24.3 -24.2 --- --- 729.3 0.021 0.000 6.5 6 1
02/06/06 1:28 p -12.6 -12.6 -12.6 --- --- 21.7 E 0.36 26.1 -24.2 --- --- 729.4 0.021 0.000 6.5 6 1
02/06/06 1:29 p -12.6 -12.6 -12.6 --- --- 21.7 E 0.36 24.3 -24.2 --- --- 729.3 0.021 0.000 6.5 6 1
02/06/06 1:30 p -12.6 -12.6 -12.6 --- --- 21.7 E 0.36 25.2 -24.2 --- --- 729.3 0.021 0.000 6.5 6 1
02/06/06 1:31 p -12.6 -12.6 -12.6 --- --- 24.3 E 0.41 27.0 -24.7 --- --- 729.3 0.021 0.000 6.5 6 1
02/06/06 1:32 p -12.6 -12.6 -12.6 --- --- 27.8 ESE 0.46 30.4 -25.4 --- --- 729.2 0.021 0.000 6.5 6 1
02/06/06 1:33 p -12.6 -12.6 -12.6 --- --- 28.7 ESE 0.48 31.3 -25.6 --- --- 729.2 0.021 0.000 6.5 6 1
02/06/06 1:34 p -12.6 -12.6 -12.6 --- --- 27.8 E 0.46 32.2 -25.4 --- --- 729.1 0.021 0.000 6.6 6 1
02/06/06 1:35 p -12.6 -12.6 -12.6 --- --- 26.1 E 0.43 30.4 -25.1 --- --- 729.2 0.021 0.000 6.6 6 1
02/06/06 1:36 p -12.6 -12.6 -12.6 --- --- 24.3 E 0.41 27.0 -24.7 --- --- 729.3 0.021 0.000 6.6 6 1
02/06/06 1:37 p -12.6 -12.6 -12.7 --- --- 23.5 E 0.39 26.1 -24.6 --- --- 729.5 0.021 0.000 6.6 6 1
02/06/06 1:38 p -12.6 -12.6 -12.6 --- --- 23.5 E 0.39 26.1 -24.6 --- --- 729.4 0.021 0.000 6.6 6 1
02/06/06 1:39 p -12.6 -12.6 -12.6 --- --- 26.1 E 0.43 27.8 -25.1 --- --- 729.3 0.021 0.000 6.6 6 1
02/06/06 1:40 p -12.6 -12.6 -12.6 --- --- 28.7 ESE 0.48 30.4 -25.6 --- --- 729.0 0.021 0.000 6.6 6 1
02/06/06 1:41 p -12.6 -12.6 -12.6 --- --- 27.8 E 0.46 30.4 -25.4 --- --- 729.1 0.021 0.000 6.6 6 1
02/06/06 1:42 p -12.6 -12.6 -12.6 --- --- 29.6 E 0.49 33.9 -25.7 --- --- 729.1 0.021 0.000 6.6 6 1
02/06/06 1:43 p -12.6 -12.6 -12.6 --- --- 27.8 E 0.46 33.0 -25.4 --- --- 729.2 0.021 0.000 6.6 6 1
02/06/06 1:44 p -12.6 -12.6 -12.7 --- --- 28.7 E 0.48 32.2 -25.6 --- --- 729.3 0.021 0.000 6.6 6 1
02/06/06 1:45 p -12.6 -12.6 -12.7 --- --- 27.0 E 0.45 29.6 -25.2 --- --- 729.2 0.021 0.000 6.6 6 1
02/06/06 1:46 p -12.6 -12.6 -12.7 --- --- 27.0 E 0.45 29.6 -25.2 --- --- 729.2 0.021 0.000 6.6 6 1
02/06/06 1:47 p -12.7 -12.6 -12.7 --- --- 27.8 E 0.46 30.4 -25.4 --- --- 729.2 0.022 0.000 6.6 6 1
02/06/06 1:48 p -12.7 -12.6 -12.7 --- --- 28.7 E 0.48 32.2 -25.6 --- --- 729.1 0.022 0.000 6.6 6 1
02/06/06 1:49 p -12.6 -12.6 -12.7 --- --- 29.6 E 0.49 33.0 -25.7 --- --- 729.1 0.021 0.000 6.6 6 1
02/06/06 1:50 p -12.7 -12.6 -12.7 --- --- 28.7 ESE 0.48 32.2 -25.6 --- --- 729.2 0.022 0.000 6.6 6 1
02/06/06 1:51 p -12.7 -12.6 -12.7 --- --- 28.7 E 0.48 31.3 -25.6 --- --- 729.2 0.022 0.000 6.6 6 1
02/06/06 1:52 p -12.7 -12.7 -12.7 --- --- 27.0 E 0.45 28.7 -25.3 --- --- 729.2 0.022 0.000 6.6 6 1
02/06/06 1:53 p -12.7 -12.7 -12.7 --- --- 27.0 E 0.45 28.7 -25.3 --- --- 729.1 0.022 0.000 6.6 6 1
02/06/06 1:54 p -12.7 -12.7 -12.7 --- --- 28.7 ESE 0.48 32.2 -25.7 --- --- 729.0 0.022 0.000 6.6 6 1
02/06/06 1:55 p -12.7 -12.7 -12.7 --- --- 28.7 E 0.48 31.3 -25.7 --- --- 729.0 0.022 0.000 6.6 6 1
02/06/06 1:56 p -12.7 -12.7 -12.8 --- --- 27.8 E 0.46 32.2 -25.6 --- --- 729.1 0.022 0.000 6.6 6 1
02/06/06 1:57 p -12.7 -12.7 -12.8 --- --- 24.3 E 0.41 29.6 -24.9 --- --- 729.2 0.022 0.000 6.6 6 1
02/06/06 1:58 p -12.7 -12.7 -12.8 --- --- 25.2 E 0.42 29.6 -25.1 --- --- 729.0 0.022 0.000 6.6 6 1
02/06/06 1:59 p -12.7 -12.7 -12.8 --- --- 29.6 E 0.49 32.2 -25.8 --- --- 729.0 0.022 0.000 6.6 6 1
02/06/06 2:00 p -12.8 -12.7 -12.8 --- --- 30.4 E 0.51 33.9 -26.1 --- --- 729.1 0.022 0.000 6.6 6 1
02/06/06 2:01 p -12.8 -12.7 -12.8 --- --- 28.7 E 0.48 31.3 -25.8 --- --- 729.1 0.022 0.000 6.6 6 1
02/06/06 2:02 p -12.8 -12.8 -12.8 --- --- 26.1 E 0.43 28.7 -25.3 --- --- 729.1 0.022 0.000 6.6 6 1
02/06/06 2:03 p -12.8 -12.7 -12.8 --- --- 27.8 E 0.46 32.2 -25.6 --- --- 729.0 0.022 0.000 6.6 6 1
02/06/06 2:04 p -12.8 -12.8 -12.8 --- --- 29.6 E 0.49 33.0 -25.9 --- --- 729.0 0.022 0.000 6.6 6 1
02/06/06 2:05 p -12.8 -12.8 -12.8 --- --- 27.0 ESE 0.45 29.6 -25.6 --- --- 729.1 0.022 0.000 6.6 6 1
02/06/06 2:06 p -12.8 -12.8 -12.8 --- --- 26.1 ESE 0.43 29.6 -25.3 --- --- 729.1 0.022 0.000 6.6 6 1
02/06/06 2:07 p -12.8 -12.8 -12.8 --- --- 28.7 E 0.48 31.3 -25.8 --- --- 729.0 0.022 0.000 6.6 6 1
02/06/06 2:08 p -12.8 -12.8 -12.8 --- --- 27.8 E 0.46 29.6 -25.7 --- --- 729.1 0.022 0.000 6.6 6 1
02/06/06 2:09 p -12.8 -12.8 -12.8 --- --- 28.7 E 0.48 31.3 -25.8 --- --- 729.1 0.022 0.000 6.6 6 1
02/06/06 2:10 p -12.8 -12.8 -12.8 --- --- 27.8 E 0.46 30.4 -25.7 --- --- 729.3 0.022 0.000 6.6 6 1
02/06/06 2:11 p -12.8 -12.8 -12.8 --- --- 26.1 E 0.43 28.7 -25.4 --- --- 729.2 0.022 0.000 6.6 6 1
02/06/06 2:12 p -12.8 -12.8 -12.8 --- --- 27.8 ESE 0.46 30.4 -25.7 --- --- 729.1 0.022 0.000 6.6 6 1
02/06/06 2:13 p -12.8 -12.8 -12.9 --- --- 28.7 E 0.48 32.2 -25.8 --- --- 729.1 0.022 0.000 6.6 6 1
02/06/06 2:14 p -12.9 -12.8 -12.9 --- --- 26.1 E 0.43 28.7 -25.4 --- --- 729.1 0.022 0.000 6.6 6 1
02/06/06 2:15 p -12.9 -12.9 -12.9 --- --- 25.2 E 0.42 29.6 -25.3 --- --- 729.1 0.022 0.000 6.6 6 1
02/06/06 2:16 p -12.9 -12.9 -12.9 --- --- 27.8 ESE 0.46 31.3 -25.8 --- --- 729.1 0.022 0.000 6.5 6 1
02/06/06 2:17 p -12.9 -12.9 -12.9 --- --- 29.6 E 0.49 32.2 -26.1 --- --- 729.1 0.022 0.000 6.5 6 1
02/06/06 2:18 p -12.9 -12.9 -12.9 --- --- 27.8 E 0.46 30.4 -25.8 --- --- 729.1 0.022 0.000 6.5 6 1
02/06/06 2:19 p -12.9 -12.9 -12.9 --- --- 27.0 E 0.45 29.6 -25.7 --- --- 729.1 0.022 0.000 6.5 6 1
02/06/06 2:20 p -12.9 -12.9 -12.9 --- --- 25.2 E 0.42 29.6 -25.4 --- --- 729.2 0.022 0.000 6.5 6 1
02/06/06 2:21 p -12.9 -12.9 -12.9 --- --- 25.2 E 0.42 27.8 -25.4 --- --- 729.2 0.022 0.000 6.5 6 1
02/06/06 2:22 p -12.9 -12.9 -13.0 --- --- 25.2 ESE 0.42 27.8 -25.4 --- --- 729.3 0.022 0.000 6.4 6 1
02/06/06 2:23 p -13.0 -12.9 -13.0 --- --- 25.2 ESE 0.42 26.1 -25.4 --- --- 729.2 0.022 0.000 6.4 6 1
02/06/06 2:24 p -13.0 -13.0 -13.0 --- --- 27.0 ESE 0.45 28.7 -25.8 --- --- 729.1 0.022 0.000 6.4 6 1
02/06/06 2:25 p -13.0 -12.9 -13.1 --- --- 27.8 E 0.46 32.2 -25.9 --- --- 729.0 0.022 0.000 6.4 6 1
02/06/06 2:26 p -13.0 -12.9 -13.1 --- --- 26.1 E 0.43 30.4 -25.6 --- --- 729.1 0.022 0.000 6.4 6 1
02/06/06 2:27 p -13.0 -13.0 -13.1 --- --- 28.7 E 0.48 31.3 -26.1 --- --- 729.1 0.022 0.000 6.4 6 1
02/06/06 2:28 p -13.1 -13.0 -13.1 --- --- 27.8 E 0.46 31.3 -26.0 --- --- 728.9 0.022 0.000 6.4 6 1
02/06/06 2:29 p -13.1 -13.0 -13.1 --- --- 28.7 E 0.48 32.2 -26.2 --- --- 729.0 0.022 0.000 6.4 6 1
02/06/06 2:30 p -13.0 -13.0 -13.1 --- --- 27.0 E 0.45 28.7 -25.8 --- --- 729.2 0.022 0.000 6.4 6 1
02/06/06 2:31 p -13.1 -13.0 -13.1 --- --- 27.0 E 0.45 28.7 -25.8 --- --- 729.1 0.022 0.000 6.4 6 1
02/06/06 2:32 p -13.1 -13.1 -13.1 --- --- 27.0 E 0.45 28.7 -25.8 --- --- 729.0 0.022 0.000 6.4 6 1
02/06/06 2:33 p -13.1 -13.1 -13.1 --- --- 27.8 E 0.46 31.3 -26.0 --- --- 728.9 0.022 0.000 6.4 6 1
02/06/06 2:34 p -13.1 -13.0 -13.1 --- --- 27.8 E 0.46 31.3 -26.0 --- --- 729.0 0.022 0.000 6.4 6 1
02/06/06 2:35 p -13.1 -13.1 -13.1 --- --- 27.0 E 0.45 31.3 -25.9 --- --- 729.1 0.022 0.000 6.4 6 1
02/06/06 2:36 p -13.1 -13.1 -13.1 --- --- 27.8 E 0.46 28.7 -26.0 --- --- 729.1 0.022 0.000 6.4 6 1
02/06/06 2:37 p -13.1 -13.1 -13.1 --- --- 26.1 ESE 0.43 28.7 -25.8 --- --- 729.1 0.022 0.000 6.4 6 1
02/06/06 2:38 p -13.1 -13.1 -13.1 --- --- 27.8 ESE 0.46 29.6 -26.1 --- --- 729.1 0.022 0.000 6.4 6 1
02/06/06 2:39 p -13.1 -13.1 -13.1 --- --- 28.7 E 0.48 31.3 -26.2 --- --- 728.9 0.022 0.000 6.4 6 1
02/06/06 2:40 p -13.1 -13.1 -13.2 --- --- 27.8 E 0.46 32.2 -26.1 --- --- 729.0 0.022 0.000 6.4 6 1
02/06/06 2:41 p -13.1 -13.1 -13.2 --- --- 26.1 E 0.43 29.6 -25.8 --- --- 729.0 0.022 0.000 6.4 6 1
02/06/06 2:42 p -13.2 -13.1 -13.2 --- --- 26.1 E 0.43 28.7 -25.8 --- --- 729.1 0.022 0.000 6.4 6 1
02/06/06 2:43 p -13.2 -13.1 -13.2 --- --- 27.0 ESE 0.45 29.6 -26.0 --- --- 729.1 0.022 0.000 6.4 6 1
02/06/06 2:44 p -13.2 -13.2 -13.2 --- --- 27.8 E 0.46 30.4 -26.2 --- --- 729.0 0.022 0.000 6.5 6 1
02/06/06 2:45 p -13.2 -13.1 -13.2 --- --- 27.8 E 0.46 31.3 -26.2 --- --- 728.9 0.022 0.000 6.6 6 1
02/06/06 2:46 p -13.2 -13.2 -13.2 --- --- 27.0 E 0.45 30.4 -26.0 --- --- 729.1 0.022 0.000 6.6 6 1
02/06/06 2:47 p -13.2 -13.2 -13.2 --- --- 27.0 E 0.45 29.6 -26.0 --- --- 729.1 0.022 0.000 6.6 6 1
02/06/06 2:48 p -13.2 -13.2 -13.2 --- --- 25.2 E 0.42 29.6 -25.7 --- --- 729.1 0.022 0.000 6.6 6 1
02/06/06 2:49 p -13.2 -13.2 -13.2 --- --- 21.7 ESE 0.36 25.2 -24.9 --- --- 729.2 0.022 0.000 6.7 6 1
02/06/06 2:50 p -13.2 -13.2 -13.3 --- --- 23.5 E 0.39 29.6 -25.4 --- --- 728.8 0.022 0.000 6.7 6 1
02/06/06 2:51 p -13.2 -13.2 -13.2 --- --- 27.8 E 0.46 31.3 -26.2 --- --- 728.9 0.022 0.000 6.7 6 1
02/06/06 2:52 p -13.2 -13.2 -13.2 --- --- 22.6 E 0.38 27.0 -25.2 --- --- 729.1 0.022 0.000 6.7 6 1
02/06/06 2:53 p -13.2 -13.2 -13.2 --- --- 20.9 E 0.35 25.2 -24.8 --- --- 729.2 0.022 0.000 6.8 6 1
02/06/06 2:54 p -13.3 -13.3 -13.3 --- --- 23.5 E 0.39 26.1 -25.4 --- --- 729.0 0.022 0.000 6.8 6 1
02/06/06 2:55 p -13.3 -13.3 -13.3 --- --- 24.3 ESE 0.41 26.1 -25.7 --- --- 728.9 0.022 0.000 6.8 6 1
02/06/06 2:56 p -13.3 -13.3 -13.3 --- --- 23.5 E 0.39 26.1 -25.6 --- --- 728.9 0.022 0.000 6.8 6 1
02/06/06 2:57 p -13.3 -13.3 -13.3 --- --- 24.3 E 0.41 28.7 -25.7 --- --- 728.9 0.022 0.000 6.8 6 1
02/06/06 2:58 p -13.3 -13.3 -13.3 --- --- 27.0 E 0.45 29.6 -26.2 --- --- 728.9 0.022 0.000 6.8 6 1
02/06/06 2:59 p -13.3 -13.3 -13.3 --- --- 23.5 E 0.39 27.0 -25.6 --- --- 729.0 0.022 0.000 6.8 6 1
02/06/06 3:00 p -13.3 -13.3 -13.4 --- --- 22.6 E 0.38 28.7 -25.3 --- --- 728.8 0.022 0.000 6.8 6 1
02/06/06 3:01 p -13.3 -13.3 -13.4 --- --- 27.0 E 0.45 30.4 -26.2 --- --- 728.8 0.022 0.000 6.8 6 1
02/06/06 3:02 p -13.3 -13.3 -13.4 --- --- 25.2 E 0.42 27.8 -25.9 --- --- 729.0 0.022 0.000 6.8 6 1
02/06/06 3:03 p -13.3 -13.3 -13.4 --- --- 22.6 E 0.38 25.2 -25.3 --- --- 729.1 0.022 0.000 6.8 6 1
02/06/06 3:04 p -13.3 -13.3 -13.4 --- --- 21.7 E 0.36 23.5 -25.2 --- --- 729.0 0.022 0.000 6.8 6 1
02/06/06 3:05 p -13.3 -13.3 -13.4 --- --- 21.7 E 0.36 26.1 -25.2 --- --- 728.8 0.022 0.000 6.8 6 1
02/06/06 3:06 p -13.4 -13.4 -13.4 --- --- 23.5 E 0.39 27.8 -25.6 --- --- 728.8 0.022 0.000 6.8 6 1
02/06/06 3:07 p -13.4 -13.3 -13.4 --- --- 22.6 E 0.38 26.1 -25.4 --- --- 729.1 0.022 0.000 6.8 6 1
02/06/06 3:08 p -13.4 -13.4 -13.4 --- --- 20.0 E 0.33 26.1 -24.8 --- --- 728.9 0.022 0.000 6.8 6 1
02/06/06 3:09 p -13.4 -13.4 -13.4 --- --- 23.5 E 0.39 27.8 -25.6 --- --- 728.8 0.022 0.000 6.8 6 1
02/06/06 3:10 p -13.4 -13.4 -13.4 --- --- 22.6 E 0.38 26.1 -25.5 --- --- 729.0 0.022 0.000 6.8 6 1
02/06/06 3:11 p -13.4 -13.4 -13.4 --- --- 22.6 E 0.38 26.1 -25.5 --- --- 729.0 0.022 0.000 6.8 6 1
02/06/06 3:12 p -13.4 -13.4 -13.4 --- --- 23.5 ESE 0.39 27.0 -25.6 --- --- 728.9 0.022 0.000 6.8 6 1
02/06/06 3:13 p -13.4 -13.4 -13.4 --- --- 22.6 E 0.38 26.1 -25.5 --- --- 728.9 0.022 0.000 6.7 6 1
02/06/06 3:14 p -13.4 -13.4 -13.4 --- --- 22.6 E 0.38 27.0 -25.5 --- --- 728.8 0.022 0.000 6.7 6 1
02/06/06 3:15 p -13.4 -13.4 -13.4 --- --- 26.1 E 0.43 28.7 -26.2 --- --- 728.8 0.022 0.000 6.7 6 1
02/06/06 3:16 p -13.4 -13.4 -13.4 --- --- 23.5 E 0.39 27.8 -25.7 --- --- 729.1 0.022 0.000 6.7 6 1
02/06/06 3:17 p -13.4 -13.4 -13.5 --- --- 20.9 E 0.35 25.2 -25.1 --- --- 729.0 0.022 0.000 6.7 6 1
02/06/06 3:18 p -13.4 -13.4 -13.5 --- --- 20.0 E 0.33 26.1 -24.9 --- --- 729.0 0.022 0.000 6.7 6 1
02/06/06 3:19 p -13.4 -13.4 -13.5 --- --- 20.0 E 0.33 23.5 -24.9 --- --- 729.0 0.022 0.000 6.7 6 1
02/06/06 3:20 p -13.4 -13.4 -13.5 --- --- 20.9 ESE 0.35 24.3 -25.1 --- --- 728.8 0.022 0.000 6.7 6 1
02/06/06 3:21 p -13.4 -13.4 -13.5 --- --- 22.6 E 0.38 27.0 -25.5 --- --- 728.6 0.022 0.000 6.7 6 1
02/06/06 3:22 p -13.5 -13.4 -13.5 --- --- 24.3 E 0.41 27.0 -25.9 --- --- 728.6 0.022 0.000 6.7 6 1
02/06/06 3:23 p -13.5 -13.5 -13.5 --- --- 22.6 E 0.38 27.8 -25.6 --- --- 728.7 0.022 0.000 6.6 6 1
02/06/06 3:24 p -13.5 -13.5 -13.5 --- --- 21.7 E 0.36 25.2 -25.4 --- --- 728.7 0.022 0.000 6.6 6 1
02/06/06 3:25 p -13.5 -13.4 -13.5 --- --- 21.7 E 0.36 26.1 -25.4 --- --- 728.8 0.022 0.000 6.6 6 1
02/06/06 3:26 p -13.5 -13.5 -13.5 --- --- 24.3 E 0.41 28.7 -25.9 --- --- 728.7 0.022 0.000 6.6 6 1
02/06/06 3:27 p -13.5 -13.5 -13.5 --- --- 23.5 E 0.39 26.1 -25.8 --- --- 728.7 0.022 0.000 6.6 6 1
02/06/06 3:28 p -13.5 -13.5 -13.6 --- --- 23.5 ESE 0.39 27.0 -25.8 --- --- 728.7 0.022 0.000 6.6 6 1
02/06/06 3:29 p -13.5 -13.5 -13.5 --- --- 24.3 E 0.41 27.0 -25.9 --- --- 728.6 0.022 0.000 6.6 6 1
02/06/06 3:30 p -13.6 -13.5 -13.6 --- --- 24.3 E 0.41 27.8 -26.0 --- --- 728.6 0.022 0.000 6.6 6 1
02/06/06 3:31 p -13.6 -13.5 -13.6 --- --- 27.8 E 0.46 30.4 -26.7 --- --- 728.4 0.022 0.000 6.6 6 1
02/06/06 3:32 p -13.6 -13.5 -13.6 --- --- 27.8 E 0.46 28.7 -26.7 --- --- 728.8 0.022 0.000 6.6 6 1
02/06/06 3:33 p -13.6 -13.5 -13.6 --- --- 25.2 ESE 0.42 27.8 -26.2 --- --- 728.7 0.022 0.000 6.6 6 1
02/06/06 3:34 p -13.6 -13.6 -13.6 --- --- 21.7 ESE 0.36 27.0 -25.4 --- --- 728.7 0.022 0.000 6.6 6 1
02/06/06 3:35 p -13.6 -13.6 -13.6 --- --- 21.7 E 0.36 26.1 -25.4 --- --- 728.7 0.022 0.000 6.6 6 1
02/06/06 3:36 p -13.6 -13.5 -13.6 --- --- 23.5 E 0.39 27.8 -25.8 --- --- 728.6 0.022 0.000 6.6 6 1
02/06/06 3:37 p -13.6 -13.6 -13.6 --- --- 25.2 ESE 0.42 29.6 -26.2 --- --- 728.6 0.022 0.000 6.6 6 1
02/06/06 3:38 p -13.6 -13.5 -13.6 --- --- 22.6 E 0.38 27.0 -25.7 --- --- 728.6 0.022 0.000 6.6 6 1
02/06/06 3:39 p -13.5 -13.5 -13.6 --- --- 25.2 E 0.42 28.7 -26.1 --- --- 728.4 0.022 0.000 6.6 6 1
02/06/06 3:40 p -13.6 -13.5 -13.6 --- --- 24.3 E 0.41 29.6 -26.0 --- --- 728.6 0.022 0.000 6.6 6 1
02/06/06 3:41 p -13.6 -13.5 -13.6 --- --- 23.5 E 0.39 27.8 -25.8 --- --- 728.5 0.022 0.000 6.6 6 1
02/06/06 3:42 p -13.6 -13.5 -13.6 --- --- 25.2 E 0.42 29.6 -26.2 --- --- 728.6 0.022 0.000 6.6 6 1
02/06/06 3:43 p -13.6 -13.6 -13.6 --- --- 26.1 E 0.43 28.7 -26.3 --- --- 728.6 0.022 0.000 6.6 6 1
02/06/06 3:44 p -13.6 -13.6 -13.6 --- --- 26.1 E 0.43 29.6 -26.3 --- --- 728.4 0.022 0.000 6.6 6 1
02/06/06 3:45 p -13.6 -13.5 -13.6 --- --- 26.1 E 0.43 29.6 -26.3 --- --- 728.5 0.022 0.000 6.5 6 1
02/06/06 3:46 p -13.6 -13.5 -13.6 --- --- 25.2 E 0.42 27.8 -26.2 --- --- 728.7 0.022 0.000 6.5 6 1
02/06/06 3:47 p -13.6 -13.6 -13.6 --- --- 20.9 E 0.35 24.3 -25.3 --- --- 728.8 0.022 0.000 6.5 6 1
02/06/06 3:48 p -13.6 -13.5 -13.6 --- --- 19.1 E 0.32 21.7 -24.8 --- --- 728.9 0.022 0.000 6.5 6 1
02/06/06 3:49 p -13.6 -13.6 -13.6 --- --- 20.9 E 0.35 23.5 -25.3 --- --- 728.6 0.022 0.000 6.6 6 1
02/06/06 3:50 p -13.6 -13.6 -13.6 --- --- 21.7 E 0.36 26.1 -25.4 --- --- 728.2 0.022 0.000 6.5 6 1
02/06/06 3:51 p -13.6 -13.6 -13.6 --- --- 26.1 E 0.43 28.7 -26.3 --- --- 728.3 0.022 0.000 6.5 6 1
02/06/06 3:52 p -13.6 -13.6 -13.6 --- --- 26.1 E 0.43 29.6 -26.3 --- --- 728.3 0.022 0.000 6.5 6 1
02/06/06 3:53 p -13.6 -13.5 -13.6 --- --- 26.1 E 0.43 30.4 -26.3 --- --- 728.4 0.022 0.000 6.5 6 1
02/06/06 3:54 p -13.6 -13.6 -13.6 --- --- 23.5 E 0.39 27.8 -25.8 --- --- 728.5 0.022 0.000 6.5 6 1
02/06/06 3:55 p -13.6 -13.6 -13.6 --- --- 23.5 E 0.39 26.1 -25.8 --- --- 728.6 0.022 0.000 6.5 6 1
02/06/06 3:56 p -13.6 -13.5 -13.6 --- --- 21.7 E 0.36 25.2 -25.4 --- --- 728.5 0.022 0.000 6.5 6 1
02/06/06 3:57 p -13.6 -13.5 -13.6 --- --- 23.5 E 0.39 27.0 -25.8 --- --- 728.4 0.022 0.000 6.4 6 1
02/06/06 3:58 p -13.6 -13.5 -13.6 --- --- 24.3 E 0.41 27.8 -26.0 --- --- 728.5 0.022 0.000 6.5 6 1
02/06/06 3:59 p -13.5 -13.5 -13.6 --- --- 22.6 E 0.38 26.1 -25.6 --- --- 728.6 0.022 0.000 6.6 6 1
02/06/06 4:00 p -13.5 -13.5 -13.6 --- --- 20.9 E 0.35 25.2 -25.2 --- --- 728.6 0.022 0.000 6.6 6 1
02/06/06 4:01 p -13.6 -13.5 -13.6 --- --- 22.6 E 0.38 26.1 -25.7 --- --- 728.6 0.022 0.000 6.6 6 1
02/06/06 4:02 p -13.5 -13.5 -13.5 --- --- 22.6 E 0.38 26.1 -25.6 --- --- 728.5 0.022 0.000 6.6 6 1
02/06/06 4:03 p -13.5 -13.4 -13.5 --- --- 23.5 E 0.39 26.1 -25.8 --- --- 728.5 0.022 0.000 6.6 6 1
02/06/06 4:04 p -13.4 -13.4 -13.5 --- --- 24.3 E 0.41 27.0 -25.9 --- --- 728.5 0.022 0.000 6.7 6 1
02/06/06 4:05 p -13.5 -13.4 -13.5 --- --- 23.5 E 0.39 27.0 -25.8 --- --- 728.5 0.022 0.000 6.7 6 1
02/06/06 4:06 p -13.5 -13.5 -13.5 --- --- 23.5 E 0.39 26.1 -25.8 --- --- 728.5 0.022 0.000 6.7 6 1
02/06/06 4:07 p -13.5 -13.4 -13.5 --- --- 24.3 E 0.41 27.8 -25.9 --- --- 728.5 0.022 0.000 6.8 6 1
02/06/06 4:08 p -13.5 -13.4 -13.5 --- --- 23.5 E 0.39 26.1 -25.8 --- --- 728.5 0.022 0.000 6.8 6 1
02/06/06 4:09 p -13.5 -13.4 -13.5 --- --- 20.9 ESE 0.35 25.2 -25.2 --- --- 728.6 0.022 0.000 6.8 6 1
02/06/06 4:10 p -13.4 -13.4 -13.5 --- --- 21.7 E 0.36 26.1 -25.3 --- --- 728.6 0.022 0.000 6.8 6 1
02/06/06 4:11 p -13.4 -13.4 -13.4 --- --- 22.6 E 0.38 25.2 -25.5 --- --- 728.5 0.022 0.000 6.8 6 1
02/06/06 4:12 p -13.4 -13.4 -13.5 --- --- 22.6 E 0.38 27.0 -25.5 --- --- 728.4 0.022 0.000 6.8 6 1
02/06/06 4:13 p -13.4 -13.4 -13.4 --- --- 23.5 E 0.39 27.8 -25.7 --- --- 728.5 0.022 0.000 6.8 6 1
02/06/06 4:14 p -13.4 -13.4 -13.5 --- --- 20.0 E 0.33 23.5 -24.9 --- --- 728.5 0.022 0.000 6.8 6 1
02/06/06 4:15 p -13.4 -13.4 -13.5 --- --- 20.9 ESE 0.35 23.5 -25.1 --- --- 728.4 0.022 0.000 6.9 6 1
02/06/06 4:16 p -13.4 -13.4 -13.5 --- --- 22.6 E 0.38 27.0 -25.5 --- --- 728.4 0.022 0.000 6.8 6 1
02/06/06 4:17 p -13.4 -13.4 -13.4 --- --- 22.6 E 0.38 25.2 -25.5 --- --- 728.4 0.022 0.000 6.8 6 1
02/06/06 4:18 p -13.4 -13.4 -13.4 --- --- 20.9 E 0.35 25.2 -25.1 --- --- 728.5 0.022 0.000 6.8 6 1
02/06/06 4:19 p -13.4 -13.4 -13.4 --- --- 21.7 E 0.36 27.8 -25.3 --- --- 728.5 0.022 0.000 6.8 6 1
02/06/06 4:20 p -13.4 -13.4 -13.5 --- --- 26.1 E 0.43 29.6 -26.2 --- --- 728.3 0.022 0.000 6.8 6 1
02/06/06 4:21 p -13.4 -13.4 -13.5 --- --- 26.1 E 0.43 33.0 -26.2 --- --- 728.5 0.022 0.000 6.8 6 1
02/06/06 4:22 p -13.4 -13.4 -13.4 --- --- 20.0 E 0.33 23.5 -24.9 --- --- 728.6 0.022 0.000 6.8 6 1
02/06/06 4:23 p -13.4 -13.4 -13.4 --- --- 20.0 E 0.33 25.2 -24.9 --- --- 728.5 0.022 0.000 6.7 6 1
02/06/06 4:24 p -13.4 -13.4 -13.4 --- --- 23.5 E 0.39 26.1 -25.7 --- --- 728.3 0.022 0.000 6.7 6 1
02/06/06 4:25 p -13.4 -13.4 -13.4 --- --- 25.2 E 0.42 29.6 -26.1 --- --- 728.6 0.022 0.000 6.7 6 1
02/06/06 4:26 p -13.4 -13.4 -13.4 --- --- 22.6 E 0.38 25.2 -25.5 --- --- 728.4 0.022 0.000 6.7 6 1
02/06/06 4:27 p -13.4 -13.4 -13.5 --- --- 21.7 E 0.36 26.1 -25.3 --- --- 728.4 0.022 0.000 6.7 6 1
02/06/06 4:28 p -13.4 -13.4 -13.5 --- --- 21.7 E 0.36 27.0 -25.3 --- --- 728.4 0.022 0.000 6.7 6 1
02/06/06 4:29 p -13.4 -13.4 -13.4 --- --- 23.5 E 0.39 27.8 -25.7 --- --- 728.3 0.022 0.000 6.6 6 1
02/06/06 4:30 p -13.4 -13.4 -13.4 --- --- 23.5 E 0.39 27.8 -25.7 --- --- 728.3 0.022 0.000 6.6 6 1
02/06/06 4:31 p -13.4 -13.4 -13.4 --- --- 22.6 E 0.38 26.1 -25.5 --- --- 728.4 0.022 0.000 6.6 6 1
02/06/06 4:32 p -13.4 -13.4 -13.4 --- --- 23.5 E 0.39 27.8 -25.7 --- --- 728.4 0.022 0.000 6.6 6 1
02/06/06 4:33 p -13.4 -13.4 -13.4 --- --- 25.2 E 0.42 27.8 -26.1 --- --- 728.3 0.022 0.000 6.6 6 1
02/06/06 4:34 p -13.4 -13.4 -13.5 --- --- 22.6 E 0.38 27.0 -25.5 --- --- 728.2 0.022 0.000 6.6 6 1
02/06/06 4:35 p -13.4 -13.4 -13.4 --- --- 25.2 ESE 0.42 27.8 -26.1 --- --- 728.2 0.022 0.000 6.6 6 1
02/06/06 4:36 p -13.4 -13.4 -13.4 --- --- 24.3 E 0.41 27.8 -25.9 --- --- 728.4 0.022 0.000 6.6 6 1
02/06/06 4:37 p -13.4 -13.4 -13.4 --- --- 23.5 E 0.39 26.1 -25.7 --- --- 728.4 0.022 0.000 6.6 5 1
02/06/06 4:38 p -13.4 -13.4 -13.4 --- --- 26.1 E 0.43 29.6 -26.2 --- --- 728.3 0.022 0.000 6.6 6 1
02/06/06 4:39 p -13.4 -13.4 -13.4 --- --- 27.0 E 0.45 29.6 -26.4 --- --- 728.3 0.022 0.000 6.6 6 1
02/06/06 4:40 p -13.4 -13.4 -13.5 --- --- 24.3 ESE 0.41 29.6 -25.9 --- --- 728.3 0.022 0.000 6.5 6 1
02/06/06 4:41 p -13.4 -13.4 -13.4 --- --- 25.2 E 0.42 29.6 -26.1 --- --- 728.3 0.022 0.000 6.5 6 1
02/06/06 4:42 p -13.4 -13.4 -13.4 --- --- 24.3 E 0.41 28.7 -25.9 --- --- 728.2 0.022 0.000 6.5 6 1
02/06/06 4:43 p -13.4 -13.4 -13.4 --- --- 22.6 E 0.38 27.8 -25.5 --- --- 728.5 0.022 0.000 6.5 6 1
02/06/06 4:44 p -13.4 -13.4 -13.4 --- --- 21.7 E 0.36 26.1 -25.3 --- --- 728.3 0.022 0.000 6.5 6 1
02/06/06 4:45 p -13.4 -13.4 -13.4 --- --- 26.1 E 0.43 29.6 -26.2 --- --- 728.3 0.022 0.000 6.5 6 1
02/06/06 4:46 p -13.4 -13.4 -13.4 --- --- 23.5 E 0.39 26.1 -25.7 --- --- 728.3 0.022 0.000 6.5 6 1
02/06/06 4:47 p -13.4 -13.4 -13.4 --- --- 22.6 E 0.38 26.1 -25.5 --- --- 728.3 0.022 0.000 6.5 6 1
02/06/06 4:48 p -13.4 -13.4 -13.4 --- --- 26.1 E 0.43 28.7 -26.2 --- --- 728.3 0.022 0.000 6.5 6 1
02/06/06 4:49 p -13.4 -13.4 -13.4 --- --- 26.1 E 0.43 28.7 -26.2 --- --- 728.3 0.022 0.000 6.5 6 1
02/06/06 4:50 p -13.4 -13.4 -13.4 --- --- 26.1 E 0.43 28.7 -26.2 --- --- 728.4 0.022 0.000 6.5 5 1
02/06/06 4:51 p -13.4 -13.4 -13.4 --- --- 23.5 E 0.39 26.1 -25.7 --- --- 728.3 0.022 0.000 6.5 6 1
02/06/06 4:52 p -13.4 -13.4 -13.4 --- --- 27.8 E 0.46 32.2 -26.6 --- --- 728.2 0.022 0.000 6.5 6 1
02/06/06 4:53 p -13.4 -13.4 -13.5 --- --- 28.7 E 0.48 33.0 -26.7 --- --- 728.2 0.022 0.000 6.5 5 1
02/06/06 4:54 p -13.4 -13.4 -13.4 --- --- 26.1 E 0.43 30.4 -26.2 --- --- 728.2 0.022 0.000 6.4 6 1
02/06/06 4:55 p -13.4 -13.4 -13.4 --- --- 26.1 E 0.43 29.6 -26.2 --- --- 728.3 0.022 0.000 6.5 5 1
02/06/06 4:56 p -13.4 -13.4 -13.4 --- --- 26.1 E 0.43 28.7 -26.2 --- --- 728.4 0.022 0.000 6.5 6 1
02/06/06 4:57 p -13.4 -13.4 -13.4 --- --- 26.1 E 0.43 28.7 -26.2 --- --- 728.4 0.022 0.000 6.5 6 1
02/06/06 4:58 p -13.4 -13.4 -13.4 --- --- 25.2 E 0.42 29.6 -26.1 --- --- 728.4 0.022 0.000 6.5 6 1
02/06/06 4:59 p -13.4 -13.4 -13.4 --- --- 25.2 E 0.42 28.7 -26.1 --- --- 728.4 0.022 0.000 6.4 6 1
02/06/06 5:00 p -13.4 -13.4 -13.4 --- --- 28.7 E 0.48 30.4 -26.7 --- --- 728.2 0.022 0.000 6.4 6 1
02/06/06 5:01 p -13.4 -13.4 -13.4 --- --- 26.1 E 0.43 30.4 -26.2 --- --- 728.3 0.022 0.000 6.4 6 1
02/06/06 5:02 p -13.4 -13.4 -13.4 --- --- 24.3 E 0.41 28.7 -25.8 --- --- 728.4 0.022 0.000 6.4 6 1
02/06/06 5:03 p -13.4 -13.4 -13.4 --- --- 23.5 E 0.39 27.8 -25.7 --- --- 728.2 0.022 0.000 6.4 5 1
02/06/06 5:04 p -13.4 -13.4 -13.4 --- --- 27.8 E 0.46 31.3 -26.4 --- --- 728.1 0.022 0.000 6.4 6 1
02/06/06 5:05 p -13.4 -13.4 -13.4 --- --- 27.8 E 0.46 32.2 -26.4 --- --- 728.3 0.022 0.000 6.4 6 1
02/06/06 5:06 p -13.4 -13.4 -13.4 --- --- 22.6 E 0.38 25.2 -25.4 --- --- 728.4 0.022 0.000 6.4 6 1
02/06/06 5:07 p -13.4 -13.4 -13.4 --- --- 21.7 E 0.36 27.8 -25.2 --- --- 728.4 0.022 0.000 6.4 6 1
02/06/06 5:08 p -13.4 -13.4 -13.4 --- --- 26.1 E 0.43 29.6 -26.1 --- --- 728.2 0.022 0.000 6.5 6 1
02/06/06 5:09 p -13.4 -13.4 -13.4 --- --- 27.8 E 0.46 31.3 -26.4 --- --- 728.2 0.022 0.000 6.5 6 1
02/06/06 5:10 p -13.4 -13.4 -13.4 --- --- 22.6 E 0.38 27.0 -25.4 --- --- 728.3 0.022 0.000 6.5 6 1
02/06/06 5:11 p -13.4 -13.4 -13.4 --- --- 21.7 E 0.36 26.1 -25.2 --- --- 728.3 0.022 0.000 6.6 6 1
02/06/06 5:12 p -13.4 -13.4 -13.4 --- --- 26.1 E 0.43 31.3 -26.1 --- --- 728.1 0.022 0.000 6.6 6 1
02/06/06 5:13 p -13.4 -13.3 -13.4 --- --- 25.2 E 0.42 27.8 -25.9 --- --- 728.6 0.022 0.000 6.6 6 1
02/06/06 5:14 p -13.4 -13.3 -13.4 --- --- 24.3 E 0.41 27.0 -25.8 --- --- 728.5 0.022 0.000 6.7 5 1
02/06/06 5:15 p -13.4 -13.3 -13.4 --- --- 25.2 E 0.42 30.4 -25.9 --- --- 728.2 0.022 0.000 6.7 5 1
02/06/06 5:16 p -13.4 -13.4 -13.4 --- --- 26.1 E 0.43 29.6 -26.1 --- --- 728.5 0.022 0.000 6.7 5 1
02/06/06 5:17 p -13.4 -13.3 -13.4 --- --- 26.1 E 0.43 29.6 -26.1 --- --- 728.2 0.022 0.000 6.7 6 1
02/06/06 5:18 p -13.4 -13.3 -13.4 --- --- 27.0 E 0.45 31.3 -26.3 --- --- 728.3 0.022 0.000 6.7 6 1
02/06/06 5:19 p -13.4 -13.3 -13.4 --- --- 27.0 E 0.45 29.6 -26.3 --- --- 728.4 0.022 0.000 6.7 6 1
02/06/06 5:20 p -13.4 -13.3 -13.4 --- --- 27.0 ESE 0.45 29.6 -26.3 --- --- 728.3 0.022 0.000 6.7 5 1
02/06/06 5:21 p -13.3 -13.3 -13.4 --- --- 27.0 ESE 0.45 29.6 -26.2 --- --- 728.3 0.022 0.000 6.7 6 1
02/06/06 5:22 p -13.4 -13.3 -13.4 --- --- 28.7 E 0.48 31.3 -26.6 --- --- 728.1 0.022 0.000 6.7 5 1
02/06/06 5:23 p -13.3 -13.3 -13.4 --- --- 29.6 E 0.49 35.7 -26.7 --- --- 728.1 0.022 0.000 6.7 6 1
02/06/06 5:24 p -13.4 -13.3 -13.4 --- --- 28.7 E 0.48 30.4 -26.6 --- --- 728.1 0.022 0.000 6.7 5 1
02/06/06 5:25 p -13.3 -13.3 -13.4 --- --- 29.6 E 0.49 33.0 -26.7 --- --- 728.1 0.022 0.000 6.7 5 1
02/06/06 5:26 p -13.3 -13.3 -13.4 --- --- 27.0 E 0.45 31.3 -26.2 --- --- 728.3 0.022 0.000 6.7 5 1
02/06/06 5:27 p -13.3 -13.3 -13.4 --- --- 24.3 E 0.41 28.7 -25.7 --- --- 728.2 0.022 0.000 6.7 5 1
02/06/06 5:28 p -13.4 -13.3 -13.4 --- --- 27.0 E 0.45 32.2 -26.3 --- --- 728.1 0.022 0.000 6.7 5 1
02/06/06 5:29 p -13.3 -13.3 -13.4 --- --- 25.2 E 0.42 28.7 -25.9 --- --- 728.1 0.022 0.000 6.7 5 1
02/06/06 5:30 p -13.4 -13.4 -13.4 --- --- 26.1 E 0.43 29.6 -26.1 --- --- 728.2 0.022 0.000 6.6 5 1
02/06/06 5:31 p -13.4 -13.4 -13.4 --- --- 26.1 ESE 0.43 31.3 -26.1 --- --- 728.2 0.022 0.000 6.6 5 1
02/06/06 5:32 p -13.4 -13.3 -13.4 --- --- 27.0 ESE 0.45 30.4 -26.3 --- --- 728.3 0.022 0.000 6.6 5 1
02/06/06 5:33 p -13.4 -13.4 -13.4 --- --- 27.8 E 0.46 32.2 -26.4 --- --- 728.1 0.022 0.000 6.6 5 1
02/06/06 5:34 p -13.4 -13.3 -13.4 --- --- 27.8 E 0.46 31.3 -26.4 --- --- 728.1 0.022 0.000 6.6 5 1
02/06/06 5:35 p -13.4 -13.3 -13.4 --- --- 27.0 ESE 0.45 31.3 -26.3 --- --- 728.0 0.022 0.000 6.6 5 1
02/06/06 5:36 p -13.4 -13.3 -13.4 --- --- 28.7 E 0.48 32.2 -26.6 --- --- 728.3 0.022 0.000 6.6 5 1
02/06/06 5:37 p -13.4 -13.3 -13.4 --- --- 27.8 E 0.46 32.2 -26.4 --- --- 728.0 0.022 0.000 6.6 5 1
02/06/06 5:38 p -13.4 -13.3 -13.4 --- --- 28.7 E 0.48 33.9 -26.6 --- --- 728.1 0.022 0.000 6.5 5 1
02/06/06 5:39 p -13.4 -13.4 -13.4 --- --- 27.0 E 0.45 33.0 -26.3 --- --- 728.1 0.022 0.000 6.5 5 1
02/06/06 5:40 p -13.4 -13.4 -13.4 --- --- 27.8 E 0.46 32.2 -26.4 --- --- 728.0 0.022 0.000 6.5 5 1
02/06/06 5:41 p -13.4 -13.4 -13.4 --- --- 33.0 E 0.55 36.5 -27.3 --- --- 727.9 0.022 0.000 6.5 5 1
02/06/06 5:42 p -13.4 -13.4 -13.4 --- --- 28.7 E 0.48 33.0 -26.6 --- --- 728.1 0.022 0.000 6.5 5 1
02/06/06 5:43 p -13.4 -13.4 -13.4 --- --- 26.1 E 0.43 31.3 -26.1 --- --- 728.0 0.022 0.000 6.5 5 1
02/06/06 5:44 p -13.4 -13.4 -13.4 --- --- 27.8 E 0.46 33.0 -26.4 --- --- 727.9 0.022 0.000 6.4 5 1
02/06/06 5:45 p -13.4 -13.4 -13.4 --- --- 30.4 E 0.51 35.7 -26.9 --- --- 727.9 0.022 0.000 6.4 5 1
02/06/06 5:46 p -13.4 -13.4 -13.4 --- --- 27.8 E 0.46 33.0 -26.4 --- --- 728.0 0.022 0.000 6.4 5 1
02/06/06 5:47 p -13.4 -13.4 -13.4 --- --- 26.1 E 0.43 28.7 -26.1 --- --- 728.2 0.022 0.000 6.4 5 1
02/06/06 5:48 p -13.4 -13.4 -13.4 --- --- 27.0 E 0.45 28.7 -26.3 --- --- 728.1 0.022 0.000 6.4 5 1
02/06/06 5:49 p -13.4 -13.4 -13.4 --- --- 27.0 E 0.45 33.0 -26.3 --- --- 727.9 0.022 0.000 6.4 5 1
02/06/06 5:50 p -13.4 -13.4 -13.4 --- --- 27.8 E 0.46 30.4 -26.4 --- --- 728.0 0.022 0.000 6.4 5 1
02/06/06 5:51 p -13.4 -13.4 -13.4 --- --- 25.2 E 0.42 28.7 -25.9 --- --- 728.3 0.022 0.000 6.4 5 1
02/06/06 5:52 p -13.4 -13.4 -13.4 --- --- 24.3 E 0.41 28.7 -25.8 --- --- 728.3 0.022 0.000 6.4 5 1
02/06/06 5:53 p -13.4 -13.4 -13.4 --- --- 25.2 E 0.42 29.6 -25.9 --- --- 728.0 0.022 0.000 6.4 5 1
02/06/06 5:54 p -13.4 -13.4 -13.4 --- --- 29.6 E 0.49 32.2 -26.8 --- --- 728.0 0.022 0.000 6.4 5 1
02/06/06 5:55 p -13.4 -13.4 -13.4 --- --- 25.2 E 0.42 27.8 -25.9 --- --- 728.1 0.022 0.000 6.4 5 1
02/06/06 5:56 p -13.4 -13.4 -13.4 --- --- 25.2 E 0.42 30.4 -26.1 --- --- 728.1 0.022 0.000 6.4 5 1
02/06/06 5:57 p -13.4 -13.4 -13.4 --- --- 25.2 E 0.42 28.7 -26.1 --- --- 728.1 0.022 0.000 6.4 5 1
02/06/06 5:58 p -13.4 -13.4 -13.4 --- --- 24.3 E 0.41 28.7 -25.9 --- --- 728.2 0.022 0.000 6.4 5 1
02/06/06 5:59 p -13.4 -13.4 -13.4 --- --- 25.2 E 0.42 31.3 -26.1 --- --- 728.1 0.022 0.000 6.4 5 1
02/06/06 6:00 p -13.4 -13.4 -13.4 --- --- 23.5 E 0.39 27.8 -25.7 --- --- 728.2 0.022 0.000 6.4 5 1
02/06/06 6:01 p -13.4 -13.4 -13.4 --- --- 23.5 E 0.39 27.8 -25.7 --- --- 728.2 0.022 0.000 6.4 5 1
02/06/06 6:02 p -13.4 -13.4 -13.4 --- --- 23.5 E 0.39 27.8 -25.7 --- --- 728.2 0.022 0.000 6.4 5 1
02/06/06 6:03 p -13.4 -13.4 -13.4 --- --- 23.5 E 0.39 28.7 -25.7 --- --- 728.3 0.022 0.000 6.4 5 1
02/06/06 6:04 p -13.4 -13.4 -13.4 --- --- 25.2 E 0.42 27.8 -26.1 --- --- 728.2 0.022 0.000 6.4 5 1
02/06/06 6:05 p -13.4 -13.4 -13.4 --- --- 24.3 E 0.41 29.6 -25.9 --- --- 728.2 0.022 0.000 6.4 5 1
02/06/06 6:06 p -13.4 -13.4 -13.4 --- --- 22.6 E 0.38 25.2 -25.5 --- --- 728.3 0.022 0.000 6.4 5 1
02/06/06 6:07 p -13.4 -13.4 -13.4 --- --- 22.6 E 0.38 27.8 -25.5 --- --- 728.2 0.022 0.000 6.4 5 1
02/06/06 6:08 p -13.4 -13.4 -13.4 --- --- 24.3 E 0.41 29.6 -25.9 --- --- 728.2 0.022 0.000 6.4 5 1
02/06/06 6:09 p -13.4 -13.4 -13.4 --- --- 23.5 E 0.39 27.8 -25.7 --- --- 728.2 0.022 0.000 6.4 5 1
02/06/06 6:10 p -13.4 -13.4 -13.5 --- --- 25.2 E 0.42 30.4 -26.1 --- --- 728.2 0.022 0.000 6.5 5 1
02/06/06 6:11 p -13.4 -13.4 -13.4 --- --- 23.5 E 0.39 27.0 -25.7 --- --- 728.3 0.022 0.000 6.5 5 1
02/06/06 6:12 p -13.4 -13.4 -13.4 --- --- 24.3 E 0.41 29.6 -25.9 --- --- 728.3 0.022 0.000 6.6 5 1
02/06/06 6:13 p -13.5 -13.5 -13.5 --- --- 23.5 E 0.39 28.7 -25.8 --- --- 728.0 0.022 0.000 6.6 5 1
02/06/06 6:14 p -13.4 -13.4 -13.5 --- --- 27.8 E 0.46 31.3 -26.6 --- --- 728.0 0.022 0.000 6.6 5 1
02/06/06 6:15 p -13.5 -13.4 -13.5 --- --- 26.1 E 0.43 31.3 -26.3 --- --- 728.3 0.022 0.000 6.6 5 1
02/06/06 6:16 p -13.5 -13.4 -13.5 --- --- 21.7 E 0.36 27.8 -25.4 --- --- 728.3 0.022 0.000 6.7 5 1
02/06/06 6:17 p -13.5 -13.5 -13.5 --- --- 22.6 E 0.38 26.1 -25.6 --- --- 728.1 0.022 0.000 6.7 5 1
02/06/06 6:18 p -13.5 -13.4 -13.5 --- --- 24.3 E 0.41 28.7 -25.9 --- --- 728.0 0.022 0.000 6.7 5 1
02/06/06 6:19 p -13.5 -13.5 -13.6 --- --- 26.1 E 0.43 29.6 -26.3 --- --- 728.1 0.022 0.000 6.7 5 1
02/06/06 6:20 p -13.5 -13.5 -13.5 --- --- 27.0 E 0.45 29.6 -26.4 --- --- 728.0 0.022 0.000 6.7 5 1
02/06/06 6:21 p -13.5 -13.5 -13.6 --- --- 26.1 E 0.43 31.3 -26.3 --- --- 728.1 0.022 0.000 6.7 5 1
02/06/06 6:22 p -13.5 -13.5 -13.5 --- --- 26.1 E 0.43 30.4 -26.3 --- --- 728.3 0.022 0.000 6.8 5 1
02/06/06 6:23 p -13.5 -13.5 -13.6 --- --- 23.5 E 0.39 27.8 -25.8 --- --- 728.3 0.022 0.000 6.8 5 1
02/06/06 6:24 p -13.6 -13.5 -13.6 --- --- 20.9 E 0.35 24.3 -25.3 --- --- 728.1 0.022 0.000 6.8 5 1
02/06/06 6:25 p -13.5 -13.5 -13.6 --- --- 28.7 E 0.48 35.7 -26.8 --- --- 728.0 0.022 0.000 6.8 5 1
02/06/06 6:26 p -13.5 -13.5 -13.5 --- --- 29.6 E 0.49 33.9 -26.9 --- --- 728.2 0.022 0.000 6.8 5 1
02/06/06 6:27 p -13.6 -13.5 -13.6 --- --- 26.1 E 0.43 29.6 -26.3 --- --- 728.3 0.022 0.000 6.7 5 1
02/06/06 6:28 p -13.6 -13.5 -13.6 --- --- 21.7 E 0.36 26.1 -25.4 --- --- 728.3 0.022 0.000 6.7 5 1
02/06/06 6:29 p -13.6 -13.5 -13.6 --- --- 23.5 E 0.39 27.8 -25.8 --- --- 728.0 0.022 0.000 6.7 5 1
02/06/06 6:30 p -13.6 -13.5 -13.6 --- --- 28.7 E 0.48 34.8 -26.8 --- --- 728.2 0.022 0.000 6.7 5 1
02/06/06 6:31 p -13.5 -13.5 -13.6 --- --- 24.3 E 0.41 29.6 -25.9 --- --- 728.4 0.022 0.000 6.7 5 1
02/06/06 6:32 p -13.6 -13.6 -13.6 --- --- 20.0 E 0.33 25.2 -25.1 --- --- 728.1 0.022 0.000 6.7 5 1
02/06/06 6:33 p -13.6 -13.6 -13.6 --- --- 23.5 E 0.39 27.8 -25.8 --- --- 728.1 0.022 0.000 6.7 5 1
02/06/06 6:34 p -13.6 -13.5 -13.6 --- --- 25.2 E 0.42 29.6 -26.2 --- --- 728.1 0.022 0.000 6.7 5 1
02/06/06 6:35 p -13.6 -13.6 -13.6 --- --- 24.3 E 0.41 29.6 -26.0 --- --- 728.0 0.022 0.000 6.7 5 1
02/06/06 6:36 p -13.6 -13.6 -13.6 --- --- 27.0 E 0.45 30.4 -26.5 --- --- 728.2 0.022 0.000 6.7 5 1
02/06/06 6:37 p -13.6 -13.6 -13.6 --- --- 23.5 E 0.39 27.0 -25.8 --- --- 728.4 0.022 0.000 6.7 5 1
02/06/06 6:38 p -13.6 -13.6 -13.6 --- --- 20.0 E 0.33 24.3 -25.1 --- --- 728.3 0.022 0.000 6.7 5 1
02/06/06 6:39 p -13.6 -13.6 -13.6 --- --- 21.7 E 0.36 28.7 -25.6 --- --- 728.1 0.022 0.000 6.7 5 1
02/06/06 6:40 p -13.6 -13.6 -13.6 --- --- 25.2 E 0.42 30.4 -26.3 --- --- 728.0 0.022 0.000 6.6 5 1
02/06/06 6:41 p -13.6 -13.6 -13.6 --- --- 24.3 E 0.41 28.7 -26.0 --- --- 728.1 0.022 0.000 6.6 5 1
02/06/06 6:42 p -13.6 -13.6 -13.6 --- --- 24.3 E 0.41 27.8 -26.1 --- --- 728.3 0.022 0.000 6.6 5 1
02/06/06 6:43 p -13.6 -13.6 -13.6 --- --- 20.9 E 0.35 26.1 -25.3 --- --- 728.2 0.022 0.000 6.6 5 1
02/06/06 6:44 p -13.6 -13.5 -13.6 --- --- 21.7 E 0.36 27.8 -25.4 --- --- 728.0 0.022 0.000 6.6 5 1
02/06/06 6:45 p -13.6 -13.6 -13.6 --- --- 25.2 E 0.42 30.4 -26.3 --- --- 728.0 0.022 0.000 6.6 5 1
02/06/06 6:46 p -13.6 -13.6 -13.6 --- --- 27.0 E 0.45 29.6 -26.6 --- --- 728.0 0.022 0.000 6.6 5 1
02/06/06 6:47 p -13.6 -13.6 -13.6 --- --- 24.3 E 0.41 30.4 -26.1 --- --- 728.2 0.022 0.000 6.6 5 1
02/06/06 6:48 p -13.6 -13.6 -13.6 --- --- 22.6 E 0.38 27.8 -25.7 --- --- 728.2 0.022 0.000 6.6 5 1
02/06/06 6:49 p -13.6 -13.6 -13.6 --- --- 25.2 E 0.42 31.3 -26.3 --- --- 727.9 0.022 0.000 6.6 5 1
02/06/06 6:50 p -13.6 -13.6 -13.6 --- --- 27.0 E 0.45 31.3 -26.6 --- --- 728.1 0.022 0.000 6.6 5 1
02/06/06 6:51 p -13.6 -13.6 -13.7 --- --- 25.2 E 0.42 29.6 -26.3 --- --- 728.1 0.022 0.000 6.6 5 1
02/06/06 6:52 p -13.6 -13.6 -13.7 --- --- 24.3 E 0.41 27.8 -26.1 --- --- 728.2 0.022 0.000 6.5 5 1
02/06/06 6:53 p -13.7 -13.6 -13.7 --- --- 22.6 E 0.38 28.7 -25.8 --- --- 728.0 0.022 0.000 6.5 5 1
02/06/06 6:54 p -13.7 -13.6 -13.7 --- --- 24.3 E 0.41 27.8 -26.2 --- --- 728.0 0.022 0.000 6.5 5 1
02/06/06 6:55 p -13.7 -13.6 -13.7 --- --- 26.1 E 0.43 30.4 -26.5 --- --- 728.0 0.022 0.000 6.4 5 1
02/06/06 6:56 p -13.7 -13.6 -13.7 --- --- 26.1 E 0.43 29.6 -26.5 --- --- 728.1 0.022 0.000 6.5 5 1
02/06/06 6:57 p -13.7 -13.6 -13.7 --- --- 21.7 E 0.36 27.0 -25.6 --- --- 728.1 0.022 0.000 6.5 5 1
02/06/06 6:58 p -13.7 -13.7 -13.7 --- --- 26.1 E 0.43 29.6 -26.5 --- --- 728.1 0.022 0.000 6.4 5 1
02/06/06 6:59 p -13.6 -13.6 -13.7 --- --- 25.2 E 0.42 28.7 -26.3 --- --- 728.1 0.022 0.000 6.4 5 1
02/06/06 7:00 p -13.7 -13.7 -13.7 --- --- 21.7 E 0.36 27.0 -25.6 --- --- 728.2 0.022 0.000 6.4 5 1
02/06/06 7:01 p -13.7 -13.6 -13.7 --- --- 24.3 E 0.41 27.0 -26.2 --- --- 728.1 0.022 0.000 6.4 5 1
02/06/06 7:02 p -13.7 -13.7 -13.7 --- --- 25.2 E 0.42 29.6 -26.3 --- --- 728.0 0.022 0.000 6.4 5 1
02/06/06 7:03 p -13.7 -13.6 -13.7 --- --- 27.0 E 0.45 31.3 -26.7 --- --- 728.0 0.022 0.000 6.4 5 1
02/06/06 7:04 p -13.7 -13.7 -13.7 --- --- 27.8 E 0.46 31.3 -26.8 --- --- 728.1 0.022 0.000 6.4 5 1
02/06/06 7:05 p -13.7 -13.7 -13.7 --- --- 24.3 E 0.41 27.8 -26.2 --- --- 728.1 0.022 0.000 6.4 5 1
02/06/06 7:06 p -13.7 -13.7 -13.7 --- --- 23.5 E 0.39 27.8 -26.0 --- --- 728.0 0.022 0.000 6.4 5 1
02/06/06 7:07 p -13.7 -13.6 -13.7 --- --- 25.2 E 0.42 31.3 -26.3 --- --- 728.1 0.022 0.000 6.4 5 1
02/06/06 7:08 p -13.7 -13.7 -13.7 --- --- 26.1 E 0.43 30.4 -26.5 --- --- 727.9 0.022 0.000 6.5 5 1
02/06/06 7:09 p -13.7 -13.7 -13.7 --- --- 22.6 E 0.38 28.7 -25.8 --- --- 728.0 0.022 0.000 6.5 5 1
02/06/06 7:10 p -13.7 -13.7 -13.7 --- --- 24.3 E 0.41 27.8 -26.2 --- --- 728.0 0.022 0.000 6.5 5 1
02/06/06 7:11 p -13.7 -13.7 -13.7 --- --- 26.1 E 0.43 31.3 -26.5 --- --- 728.0 0.022 0.000 6.6 5 1
02/06/06 7:12 p -13.7 -13.7 -13.7 --- --- 24.3 E 0.41 28.7 -26.2 --- --- 728.0 0.022 0.000 6.6 5 1
02/06/06 7:13 p -13.7 -13.6 -13.7 --- --- 23.5 E 0.39 26.1 -26.0 --- --- 728.0 0.022 0.000 6.6 5 1
02/06/06 7:14 p -13.7 -13.7 -13.7 --- --- 23.5 E 0.39 29.6 -26.0 --- --- 727.9 0.022 0.000 6.6 5 1
02/06/06 7:15 p -13.7 -13.7 -13.7 --- --- 25.2 E 0.42 29.6 -26.3 --- --- 727.9 0.022 0.000 6.7 5 1
02/06/06 7:16 p -13.7 -13.7 -13.7 --- --- 27.8 E 0.46 31.3 -26.8 --- --- 727.9 0.022 0.000 6.7 5 1
02/06/06 7:17 p -13.7 -13.7 -13.7 --- --- 23.5 E 0.39 27.8 -26.0 --- --- 727.9 0.022 0.000 6.7 5 1
02/06/06 7:18 p -13.7 -13.7 -13.7 --- --- 28.7 E 0.48 31.3 -27.0 --- --- 727.9 0.022 0.000 6.7 5 1
02/06/06 7:19 p -13.7 -13.7 -13.7 --- --- 24.3 E 0.41 30.4 -26.2 --- --- 728.0 0.022 0.000 6.7 5 1
02/06/06 7:20 p -13.7 -13.7 -13.7 --- --- 26.1 E 0.43 31.3 -26.5 --- --- 728.0 0.022 0.000 6.7 5 1
02/06/06 7:21 p -13.7 -13.7 -13.7 --- --- 27.0 E 0.45 31.3 -26.7 --- --- 728.0 0.022 0.000 6.7 5 1
02/06/06 7:22 p -13.7 -13.7 -13.7 --- --- 22.6 E 0.38 27.8 -25.8 --- --- 728.0 0.022 0.000 6.7 5 1
02/06/06 7:23 p -13.7 -13.6 -13.7 --- --- 27.0 E 0.45 33.0 -26.7 --- --- 727.8 0.022 0.000 6.8 5 1
02/06/06 7:24 p -13.7 -13.7 -13.7 --- --- 27.8 E 0.46 31.3 -26.8 --- --- 727.9 0.022 0.000 6.8 5 1
02/06/06 7:25 p -13.7 -13.7 -13.7 --- --- 27.8 E 0.46 31.3 -26.8 --- --- 728.0 0.022 0.000 6.7 5 1
02/06/06 7:26 p -13.7 -13.7 -13.7 --- --- 26.1 E 0.43 29.6 -26.5 --- --- 727.9 0.022 0.000 6.7 5 1
02/06/06 7:27 p -13.7 -13.7 -13.7 --- --- 28.7 E 0.48 32.2 -27.0 --- --- 728.0 0.022 0.000 6.7 5 1
02/06/06 7:28 p -13.7 -13.7 -13.7 --- --- 27.8 E 0.46 31.3 -26.8 --- --- 728.0 0.022 0.000 6.7 5 1
02/06/06 7:29 p -13.7 -13.7 -13.7 --- --- 27.8 E 0.46 30.4 -26.8 --- --- 728.0 0.022 0.000 6.7 5 1
02/06/06 7:30 p -13.7 -13.7 -13.7 --- --- 27.8 E 0.46 32.2 -26.8 --- --- 727.9 0.022 0.000 6.7 5 1
02/06/06 7:31 p -13.7 -13.7 -13.7 --- --- 27.8 E 0.46 31.3 -26.9 --- --- 728.0 0.022 0.000 6.7 5 1
02/06/06 7:32 p -13.7 -13.7 -13.7 --- --- 25.2 E 0.42 30.4 -26.4 --- --- 728.1 0.022 0.000 6.7 5 1
02/06/06 7:33 p -13.7 -13.7 -13.7 --- --- 21.7 E 0.36 25.2 -25.7 --- --- 727.9 0.022 0.000 6.7 5 1
02/06/06 7:34 p -13.7 -13.7 -13.7 --- --- 24.3 E 0.41 30.4 -26.2 --- --- 727.8 0.022 0.000 6.7 5 1
02/06/06 7:35 p -13.7 -13.7 -13.7 --- --- 27.8 E 0.46 32.2 -26.9 --- --- 727.9 0.022 0.000 6.7 5 1
02/06/06 7:36 p -13.7 -13.7 -13.7 --- --- 25.2 E 0.42 28.7 -26.4 --- --- 728.0 0.022 0.000 6.6 5 1
02/06/06 7:37 p -13.7 -13.7 -13.7 --- --- 28.7 E 0.48 31.3 -27.0 --- --- 728.0 0.022 0.000 6.6 5 1
02/06/06 7:38 p -13.7 -13.7 -13.7 --- --- 27.0 E 0.45 31.3 -26.7 --- --- 728.0 0.022 0.000 6.6 5 1
02/06/06 7:39 p -13.7 -13.7 -13.7 --- --- 24.3 E 0.41 27.8 -26.2 --- --- 727.9 0.022 0.000 6.6 5 1
02/06/06 7:40 p -13.7 -13.7 -13.7 --- --- 26.1 E 0.43 29.6 -26.5 --- --- 727.9 0.022 0.000 6.6 5 1
02/06/06 7:41 p -13.7 -13.7 -13.7 --- --- 28.7 E 0.48 32.2 -27.1 --- --- 727.9 0.022 0.000 6.6 5 1
02/06/06 7:42 p -13.7 -13.7 -13.7 --- --- 28.7 E 0.48 32.2 -27.1 --- --- 728.0 0.022 0.000 6.6 5 1
02/06/06 7:43 p -13.7 -13.7 -13.7 --- --- 25.2 E 0.42 28.7 -26.4 --- --- 728.0 0.022 0.000 6.6 5 1
02/06/06 7:44 p -13.7 -13.7 -13.7 --- --- 28.7 E 0.48 30.4 -27.1 --- --- 727.9 0.022 0.000 6.6 5 1
02/06/06 7:45 p -13.7 -13.7 -13.7 --- --- 31.3 ENE 0.52 34.8 -27.5 --- --- 728.1 0.022 0.000 6.6 5 1
02/06/06 7:46 p -13.7 -13.7 -13.7 --- --- 26.1 E 0.43 30.4 -26.6 --- --- 728.0 0.022 0.000 6.6 5 1
02/06/06 7:47 p -13.7 -13.7 -13.7 --- --- 27.0 E 0.45 29.6 -26.7 --- --- 728.0 0.022 0.000 6.6 5 1
02/06/06 7:48 p -13.7 -13.7 -13.7 --- --- 29.6 E 0.49 33.9 -27.2 --- --- 728.2 0.022 0.000 6.6 5 1
02/06/06 7:49 p -13.7 -13.7 -13.7 --- --- 22.6 ENE 0.38 27.0 -25.8 --- --- 728.0 0.022 0.000 6.6 5 1
02/06/06 7:50 p -13.7 -13.7 -13.7 --- --- 27.8 E 0.46 36.5 -26.9 --- --- 727.9 0.022 0.000 6.5 5 1
02/06/06 7:51 p -13.7 -13.7 -13.7 --- --- 28.7 ENE 0.48 33.9 -27.1 --- --- 728.0 0.022 0.000 6.5 5 1
02/06/06 7:52 p -13.7 -13.7 -13.7 --- --- 24.3 E 0.41 29.6 -26.2 --- --- 728.0 0.022 0.000 6.5 5 1
02/06/06 7:53 p -13.7 -13.7 -13.7 --- --- 27.8 E 0.46 32.2 -26.8 --- --- 728.0 0.022 0.000 6.5 5 1
02/06/06 7:54 p -13.7 -13.7 -13.7 --- --- 25.2 E 0.42 29.6 -26.4 --- --- 728.1 0.022 0.000 6.5 5 1
02/06/06 7:55 p -13.7 -13.7 -13.7 --- --- 23.5 E 0.39 27.0 -26.0 --- --- 728.0 0.022 0.000 6.5 5 1
02/06/06 7:56 p -13.7 -13.7 -13.7 --- --- 27.0 E 0.45 33.0 -26.7 --- --- 728.1 0.022 0.000 6.5 5 1
02/06/06 7:57 p -13.7 -13.7 -13.7 --- --- 28.7 E 0.48 33.9 -27.0 --- --- 728.1 0.022 0.000 6.5 5 1
02/06/06 7:58 p -13.7 -13.7 -13.7 --- --- 27.0 E 0.45 29.6 -26.7 --- --- 728.0 0.022 0.000 6.6 5 1
02/06/06 7:59 p -13.7 -13.7 -13.7 --- --- 24.3 E 0.41 27.0 -26.2 --- --- 728.0 0.022 0.000 6.6 5 1
02/06/06 8:00 p -13.7 -13.7 -13.7 --- --- 27.8 E 0.46 33.9 -26.8 --- --- 728.1 0.022 0.000 6.6 5 1
02/06/06 8:01 p -13.7 -13.7 -13.7 --- --- 27.0 E 0.45 28.7 -26.7 --- --- 728.2 0.022 0.000 6.7 5 1
02/06/06 8:02 p -13.7 -13.7 -13.7 --- --- 27.0 E 0.45 30.4 -26.7 --- --- 728.1 0.022 0.000 6.7 5 1
02/06/06 8:03 p -13.7 -13.7 -13.7 --- --- 27.8 E 0.46 34.8 -26.8 --- --- 728.0 0.022 0.000 6.7 5 1
02/06/06 8:04 p -13.7 -13.7 -13.7 --- --- 22.6 E 0.38 27.8 -25.8 --- --- 728.2 0.022 0.000 6.7 5 1
02/06/06 8:05 p -13.7 -13.6 -13.7 --- --- 25.2 E 0.42 33.0 -26.3 --- --- 727.9 0.022 0.000 6.7 5 1
02/06/06 8:06 p -13.7 -13.6 -13.7 --- --- 26.1 E 0.43 35.7 -26.5 --- --- 728.2 0.022 0.000 6.7 5 1
02/06/06 8:07 p -13.6 -13.6 -13.7 --- --- 20.0 E 0.33 23.5 -25.1 --- --- 728.1 0.022 0.000 6.7 5 1
02/06/06 8:08 p -13.6 -13.6 -13.7 --- --- 27.8 E 0.46 33.0 -26.8 --- --- 728.0 0.022 0.000 6.7 5 1
02/06/06 8:09 p -13.6 -13.6 -13.7 --- --- 29.6 E 0.49 33.0 -27.1 --- --- 728.0 0.022 0.000 6.7 5 1
02/06/06 8:10 p -13.6 -13.6 -13.7 --- --- 26.1 ENE 0.43 30.4 -26.4 --- --- 728.2 0.022 0.000 6.6 5 1
02/06/06 8:11 p -13.6 -13.6 -13.6 --- --- 24.3 E 0.41 31.3 -26.1 --- --- 728.0 0.022 0.000 6.7 5 1
02/06/06 8:12 p -13.6 -13.6 -13.6 --- --- 27.0 E 0.45 32.2 -26.6 --- --- 728.0 0.022 0.000 6.6 5 1
02/06/06 8:13 p -13.6 -13.6 -13.6 --- --- 28.7 E 0.48 33.0 -26.9 --- --- 728.0 0.022 0.000 6.6 5 1
02/06/06 8:14 p -13.6 -13.6 -13.6 --- --- 28.7 E 0.48 33.0 -26.9 --- --- 728.0 0.022 0.000 6.6 5 1
02/06/06 8:15 p -13.6 -13.6 -13.6 --- --- 28.7 ENE 0.48 32.2 -26.9 --- --- 728.0 0.022 0.000 6.6 5 1
02/06/06 8:16 p -13.6 -13.6 -13.6 --- --- 28.7 E 0.48 32.2 -26.8 --- --- 728.1 0.022 0.000 6.6 5 1
02/06/06 8:17 p -13.6 -13.6 -13.6 --- --- 26.1 E 0.43 28.7 -26.3 --- --- 728.1 0.022 0.000 6.6 5 1
02/06/06 8:18 p -13.6 -13.5 -13.6 --- --- 25.2 ENE 0.42 27.8 -26.2 --- --- 727.9 0.022 0.000 6.6 5 1
02/06/06 8:19 p -13.6 -13.5 -13.6 --- --- 26.1 E 0.43 30.4 -26.3 --- --- 727.8 0.022 0.000 6.5 5 1
02/06/06 8:20 p -13.6 -13.6 -13.6 --- --- 30.4 ENE 0.51 34.8 -27.1 --- --- 728.1 0.022 0.000 6.5 5 1
02/06/06 8:21 p -13.6 -13.5 -13.6 --- --- 25.2 ENE 0.42 30.4 -26.2 --- --- 728.0 0.022 0.000 6.5 5 1
02/06/06 8:22 p -13.6 -13.6 -13.6 --- --- 26.1 E 0.43 30.4 -26.3 --- --- 728.0 0.022 0.000 6.4 5 1
02/06/06 8:23 p -13.6 -13.5 -13.6 --- --- 26.1 ENE 0.43 30.4 -26.3 --- --- 728.2 0.022 0.000 6.4 5 1
02/06/06 8:24 p -13.6 -13.6 -13.6 --- --- 25.2 ENE 0.42 28.7 -26.2 --- --- 728.1 0.022 0.000 6.4 5 1
02/06/06 8:25 p -13.6 -13.5 -13.6 --- --- 29.6 ENE 0.49 35.7 -27.0 --- --- 727.8 0.022 0.000 6.4 5 1
02/06/06 8:26 p -13.5 -13.5 -13.6 --- --- 27.8 E 0.46 32.2 -26.6 --- --- 728.1 0.022 0.000 6.4 5 1
02/06/06 8:27 p -13.5 -13.5 -13.6 --- --- 30.4 E 0.51 32.2 -27.1 --- --- 728.0 0.022 0.000 6.4 5 1
02/06/06 8:28 p -13.6 -13.5 -13.6 --- --- 27.8 E 0.46 32.2 -26.7 --- --- 728.1 0.022 0.000 6.4 5 1
02/06/06 8:29 p -13.5 -13.5 -13.5 --- --- 26.1 ENE 0.43 29.6 -26.3 --- --- 728.3 0.022 0.000 6.4 5 1
02/06/06 8:30 p -13.5 -13.4 -13.5 --- --- 26.1 ENE 0.43 29.6 -26.3 --- --- 728.0 0.022 0.000 6.4 5 1
02/06/06 8:31 p -13.4 -13.4 -13.5 --- --- 29.6 ENE 0.49 33.9 -26.8 --- --- 727.8 0.022 0.000 6.4 5 1
02/06/06 8:32 p -13.5 -13.5 -13.5 --- --- 30.4 ENE 0.51 33.9 -27.1 --- --- 728.1 0.022 0.000 6.4 5 1
02/06/06 8:33 p -13.4 -13.4 -13.4 --- --- 27.8 E 0.46 30.4 -26.6 --- --- 728.2 0.022 0.000 6.4 5 1
02/06/06 8:34 p -13.4 -13.4 -13.5 --- --- 23.5 E 0.39 27.0 -25.7 --- --- 728.0 0.022 0.000 6.4 5 1
02/06/06 8:35 p -13.4 -13.4 -13.4 --- --- 28.7 E 0.48 33.9 -26.7 --- --- 727.9 0.022 0.000 6.4 5 1
02/06/06 8:36 p -13.4 -13.4 -13.4 --- --- 29.6 ENE 0.49 33.0 -26.8 --- --- 728.1 0.022 0.000 6.4 5 1
02/06/06 8:37 p -13.4 -13.4 -13.4 --- --- 26.1 ENE 0.43 29.6 -26.2 --- --- 728.1 0.022 0.000 6.4 5 1
02/06/06 8:38 p -13.4 -13.4 -13.4 --- --- 27.8 ENE 0.46 29.6 -26.4 --- --- 728.1 0.022 0.000 6.4 5 1
02/06/06 8:39 p -13.4 -13.4 -13.4 --- --- 30.4 E 0.51 34.8 -27.0 --- --- 727.8 0.022 0.000 6.5 5 1
02/06/06 8:40 p -13.4 -13.4 -13.4 --- --- 28.7 ENE 0.48 35.7 -26.7 --- --- 728.2 0.022 0.000 6.5 5 1
02/06/06 8:41 p -13.4 -13.4 -13.4 --- --- 23.5 ENE 0.39 31.3 -25.6 --- --- 728.1 0.022 0.000 6.6 5 1
02/06/06 8:42 p -13.4 -13.4 -13.4 --- --- 27.8 ENE 0.46 33.0 -26.4 --- --- 728.1 0.022 0.000 6.6 5 1
02/06/06 8:43 p -13.4 -13.3 -13.4 --- --- 28.7 ENE 0.48 33.9 -26.6 --- --- 727.8 0.022 0.000 6.7 5 1
02/06/06 8:44 p -13.4 -13.4 -13.4 --- --- 29.6 ENE 0.49 33.0 -26.8 --- --- 728.0 0.022 0.000 6.7 5 1
02/06/06 8:45 p -13.4 -13.3 -13.4 --- --- 25.2 E 0.42 29.6 -25.9 --- --- 728.0 0.022 0.000 6.7 5 1
02/06/06 8:46 p -13.3 -13.3 -13.4 --- --- 26.1 E 0.43 32.2 -26.1 --- --- 728.1 0.022 0.000 6.8 5 1
02/06/06 8:47 p -13.3 -13.3 -13.4 --- --- 28.7 ENE 0.48 33.9 -26.6 --- --- 727.9 0.022 0.000 6.8 5 1
02/06/06 8:48 p -13.3 -13.3 -13.3 --- --- 26.1 ENE 0.43 31.3 -26.1 --- --- 728.1 0.022 0.000 6.8 6 1
02/06/06 8:49 p -13.3 -13.3 -13.4 --- --- 25.2 E 0.42 28.7 -25.9 --- --- 728.1 0.022 0.000 6.8 5 1
02/06/06 8:50 p -13.3 -13.3 -13.4 --- --- 23.5 ENE 0.39 27.8 -25.6 --- --- 728.1 0.022 0.000 6.8 5 1
02/06/06 8:51 p -13.3 -13.3 -13.3 --- --- 28.7 E 0.48 32.2 -26.6 --- --- 728.0 0.022 0.000 6.8 6 1
02/06/06 8:52 p -13.3 -13.3 -13.3 --- --- 27.8 ENE 0.46 31.3 -26.3 --- --- 728.1 0.022 0.000 6.8 5 1
02/06/06 8:53 p -13.3 -13.3 -13.3 --- --- 26.1 ENE 0.43 29.6 -26.0 --- --- 728.2 0.022 0.000 6.8 5 1
02/06/06 8:54 p -13.3 -13.3 -13.3 --- --- 27.0 ENE 0.45 28.7 -26.2 --- --- 728.1 0.022 0.000 6.8 6 1
02/06/06 8:55 p -13.3 -13.3 -13.3 --- --- 24.3 ENE 0.41 28.7 -25.7 --- --- 728.1 0.022 0.000 6.8 6 1
02/06/06 8:56 p -13.3 -13.3 -13.3 --- --- 30.4 ENE 0.51 33.9 -26.8 --- --- 727.9 0.022 0.000 6.8 5 1
02/06/06 8:57 p -13.3 -13.2 -13.3 --- --- 31.3 ENE 0.52 34.8 -26.9 --- --- 728.0 0.022 0.000 6.8 5 1
02/06/06 8:58 p -13.3 -13.2 -13.3 --- --- 27.0 E 0.45 30.4 -26.2 --- --- 727.9 0.022 0.000 6.8 5 1
02/06/06 8:59 p -13.3 -13.2 -13.3 --- --- 27.8 E 0.46 31.3 -26.3 --- --- 728.0 0.022 0.000 6.7 5 1
02/06/06 9:00 p -13.2 -13.2 -13.3 --- --- 27.0 E 0.45 31.3 -26.1 --- --- 728.0 0.022 0.000 6.7 6 1
02/06/06 9:01 p -13.2 -13.2 -13.3 --- --- 28.7 E 0.48 33.0 -26.4 --- --- 727.9 0.022 0.000 6.7 5 1
02/06/06 9:02 p -13.2 -13.2 -13.3 --- --- 30.4 E 0.51 34.8 -26.7 --- --- 728.0 0.022 0.000 6.7 6 1
02/06/06 9:05 p -13.3 -13.2 -13.3 --- --- 27.8 E 0.46 30.4 -26.3 --- --- 728.1 0.022 0.000 6.7 5 1
02/06/06 9:06 p -13.2 -13.2 -13.2 --- --- 26.1 ENE 0.43 28.7 -25.9 --- --- 728.1 0.022 0.000 6.7 5 1
02/06/06 9:07 p -13.2 -13.2 -13.3 --- --- 25.2 E 0.42 28.7 -25.7 --- --- 727.9 0.022 0.000 6.7 5 1
02/06/06 9:08 p -13.2 -13.2 -13.2 --- --- 27.0 E 0.45 31.3 -26.1 --- --- 728.0 0.022 0.000 6.7 5 1
02/06/06 9:09 p -13.2 -13.2 -13.2 --- --- 29.6 ENE 0.49 32.2 -26.4 --- --- 727.9 0.022 0.000 6.7 5 1
02/06/06 9:10 p -13.2 -13.2 -13.2 --- --- 27.8 ENE 0.46 31.3 -26.2 --- --- 728.0 0.022 0.000 6.7 5 1
02/06/06 9:11 p -13.2 -13.2 -13.2 --- --- 25.2 E 0.42 28.7 -25.7 --- --- 727.9 0.022 0.000 6.7 5 1
02/06/06 9:12 p -13.2 -13.2 -13.2 --- --- 27.0 E 0.45 30.4 -26.0 --- --- 728.0 0.022 0.000 6.7 5 1
02/06/06 9:13 p -13.2 -13.2 -13.2 --- --- 24.3 E 0.41 29.6 -25.5 --- --- 728.0 0.022 0.000 6.7 5 1
02/06/06 9:14 p -13.2 -13.2 -13.2 --- --- 27.8 E 0.46 31.3 -26.2 --- --- 727.9 0.022 0.000 6.7 5 1
02/06/06 9:15 p -13.2 -13.2 -13.2 --- --- 24.3 E 0.41 28.7 -25.5 --- --- 728.0 0.022 0.000 6.7 5 1
02/06/06 9:16 p -13.2 -13.2 -13.2 --- --- 27.0 E 0.45 35.7 -26.0 --- --- 727.9 0.022 0.000 6.6 5 1
02/06/06 9:17 p -13.2 -13.2 -13.2 --- --- 27.8 ENE 0.46 33.0 -26.2 --- --- 728.1 0.022 0.000 6.6 5 1
02/06/06 9:18 p -13.2 -13.2 -13.2 --- --- 25.2 E 0.42 27.8 -25.7 --- --- 728.0 0.022 0.000 6.7 5 1
02/06/06 9:19 p -13.2 -13.2 -13.2 --- --- 28.7 E 0.48 32.2 -26.3 --- --- 728.0 0.022 0.000 6.7 5 1
02/06/06 9:20 p -13.2 -13.2 -13.2 --- --- 27.8 ENE 0.46 31.3 -26.2 --- --- 728.1 0.022 0.000 6.7 6 1
02/06/06 9:21 p -13.2 -13.2 -13.2 --- --- 23.5 E 0.39 29.6 -25.3 --- --- 728.1 0.022 0.000 6.7 6 1
02/06/06 9:22 p -13.2 -13.2 -13.2 --- --- 29.6 E 0.49 33.9 -26.4 --- --- 727.9 0.022 0.000 6.7 5 1
02/06/06 9:23 p -13.2 -13.2 -13.2 --- --- 27.8 E 0.46 33.0 -26.2 --- --- 728.0 0.022 0.000 6.8 6 1
02/06/06 9:24 p -13.2 -13.2 -13.2 --- --- 22.6 E 0.38 30.4 -25.1 --- --- 728.1 0.022 0.000 6.8 5 1
02/06/06 9:25 p -13.2 -13.2 -13.2 --- --- 25.2 E 0.42 29.6 -25.7 --- --- 727.9 0.022 0.000 6.8 5 1
02/06/06 9:26 p -13.2 -13.2 -13.2 --- --- 27.0 E 0.45 32.2 -26.0 --- --- 727.9 0.022 0.000 6.8 5 1
02/06/06 9:27 p -13.2 -13.2 -13.2 --- --- 24.3 E 0.41 29.6 -25.5 --- --- 728.0 0.022 0.000 6.9 5 1
02/06/06 9:28 p -13.2 -13.2 -13.2 --- --- 27.8 E 0.46 33.0 -26.2 --- --- 728.1 0.022 0.000 6.9 5 1
02/06/06 9:29 p -13.2 -13.2 -13.2 --- --- 22.6 E 0.38 27.0 -25.1 --- --- 728.2 0.022 0.000 6.9 5 1
02/06/06 9:30 p -13.2 -13.2 -13.2 --- --- 24.3 E 0.41 33.0 -25.5 --- --- 727.9 0.022 0.000 6.9 5 1
02/06/06 9:31 p -13.2 -13.2 -13.2 --- --- 30.4 E 0.51 33.9 -26.6 --- --- 728.0 0.022 0.000 6.9 5 1
02/06/06 9:32 p -13.2 -13.2 -13.2 --- --- 25.2 ENE 0.42 32.2 -25.7 --- --- 728.2 0.022 0.000 6.8 5 1
02/06/06 9:33 p -13.2 -13.2 -13.2 --- --- 24.3 E 0.41 30.4 -25.6 --- --- 728.0 0.022 0.000 6.8 5 1
02/06/06 9:34 p -13.2 -13.2 -13.2 --- --- 25.2 E 0.42 28.7 -25.7 --- --- 728.0 0.022 0.000 6.8 5 1
02/06/06 9:35 p -13.2 -13.2 -13.2 --- --- 26.1 E 0.43 30.4 -25.8 --- --- 728.1 0.022 0.000 6.8 5 1
02/06/06 9:36 p -13.2 -13.2 -13.2 --- --- 25.2 ENE 0.42 30.4 -25.7 --- --- 728.1 0.022 0.000 6.8 5 1
02/06/06 9:37 p -13.2 -13.2 -13.2 --- --- 24.3 E 0.41 28.7 -25.5 --- --- 728.0 0.022 0.000 6.8 5 1
02/06/06 9:38 p -13.2 -13.2 -13.2 --- --- 27.0 E 0.45 33.0 -26.0 --- --- 727.8 0.022 0.000 6.8 5 1
02/06/06 9:39 p -13.2 -13.2 -13.2 --- --- 30.4 ENE 0.51 36.5 -26.7 --- --- 728.1 0.022 0.000 6.7 5 1
02/06/06 9:40 p -13.2 -13.2 -13.2 --- --- 22.6 E 0.38 27.8 -25.2 --- --- 728.0 0.022 0.000 6.7 5 1
02/06/06 9:41 p -13.2 -13.2 -13.2 --- --- 21.7 E 0.36 27.8 -25.0 --- --- 727.9 0.022 0.000 6.7 5 1
02/06/06 9:42 p -13.2 -13.2 -13.2 --- --- 27.0 E 0.45 31.3 -26.1 --- --- 728.0 0.022 0.000 6.7 5 1
02/06/06 9:43 p -13.2 -13.2 -13.2 --- --- 28.7 E 0.48 30.4 -26.3 --- --- 728.1 0.022 0.000 6.7 5 1
02/06/06 9:44 p -13.2 -13.2 -13.2 --- --- 24.3 E 0.41 29.6 -25.6 --- --- 728.2 0.022 0.000 6.7 5 1
02/06/06 9:45 p -13.2 -13.2 -13.2 --- --- 20.9 E 0.35 26.1 -24.8 --- --- 728.1 0.022 0.000 6.7 5 1
02/06/06 9:46 p -13.2 -13.2 -13.2 --- --- 23.5 E 0.39 30.4 -25.4 --- --- 728.0 0.022 0.000 6.7 5 1
02/06/06 9:47 p -13.2 -13.2 -13.2 --- --- 26.1 E 0.43 31.3 -25.9 --- --- 728.1 0.022 0.000 6.7 5 1
02/06/06 9:48 p -13.2 -13.2 -13.2 --- --- 24.3 E 0.41 29.6 -25.6 --- --- 728.0 0.022 0.000 6.7 5 1
02/06/06 9:49 p -13.3 -13.2 -13.3 --- --- 24.3 E 0.41 27.0 -25.7 --- --- 727.9 0.022 0.000 6.7 5 1
02/06/06 9:50 p -13.2 -13.2 -13.3 --- --- 26.1 E 0.43 28.7 -25.9 --- --- 728.1 0.022 0.000 6.7 5 1
02/06/06 9:51 p -13.3 -13.2 -13.3 --- --- 21.7 E 0.36 25.2 -25.1 --- --- 728.2 0.022 0.000 6.7 5 1
02/06/06 9:52 p -13.2 -13.2 -13.3 --- --- 22.6 E 0.38 26.1 -25.2 --- --- 727.9 0.022 0.000 6.7 5 1
02/06/06 9:53 p -13.3 -13.2 -13.3 --- --- 24.3 E 0.41 28.7 -25.7 --- --- 727.8 0.022 0.000 6.6 5 1
02/06/06 9:54 p -13.3 -13.2 -13.3 --- --- 27.0 E 0.45 31.3 -26.2 --- --- 728.0 0.022 0.000 6.6 5 1
02/06/06 9:55 p -13.3 -13.2 -13.3 --- --- 24.3 E 0.41 28.7 -25.7 --- --- 728.1 0.022 0.000 6.6 5 1
02/06/06 9:56 p -13.2 -13.2 -13.3 --- --- 24.3 E 0.41 27.8 -25.6 --- --- 728.0 0.022 0.000 6.6 5 1
02/06/06 9:57 p -13.2 -13.2 -13.2 --- --- 22.6 E 0.38 26.1 -25.2 --- --- 727.9 0.022 0.000 6.6 5 1
02/06/06 9:58 p -13.3 -13.2 -13.3 --- --- 22.6 E 0.38 26.1 -25.3 --- --- 727.8 0.022 0.000 6.5 5 1
02/06/06 9:59 p -13.3 -13.2 -13.3 --- --- 25.2 E 0.42 30.4 -25.8 --- --- 727.8 0.022 0.000 6.5 5 1
02/06/06 10:00 p -13.2 -13.2 -13.3 --- --- 26.1 E 0.43 29.6 -25.9 --- --- 727.9 0.022 0.000 6.5 5 1
02/06/06 10:01 p -13.2 -13.2 -13.3 --- --- 23.5 E 0.39 27.0 -25.4 --- --- 727.8 0.022 0.000 6.5 5 1
02/06/06 10:02 p -13.2 -13.2 -13.2 --- --- 21.7 E 0.36 27.8 -25.0 --- --- 727.8 0.022 0.000 6.5 5 1
02/06/06 10:03 p -13.2 -13.2 -13.2 --- --- 25.2 E 0.42 28.7 -25.7 --- --- 727.8 0.022 0.000 6.5 5 1
02/06/06 10:04 p -13.2 -13.2 -13.3 --- --- 23.5 E 0.39 27.0 -25.4 --- --- 727.8 0.022 0.000 6.5 5 1
02/06/06 10:05 p -13.2 -13.2 -13.2 --- --- 25.2 E 0.42 30.4 -25.7 --- --- 727.6 0.022 0.000 6.5 5 1
02/06/06 10:06 p -13.2 -13.2 -13.3 --- --- 26.1 E 0.43 30.4 -25.9 --- --- 727.7 0.022 0.000 6.5 5 1
02/06/06 10:07 p -13.3 -13.2 -13.3 --- --- 30.4 E 0.51 33.9 -26.8 --- --- 727.6 0.022 0.000 6.5 5 1
02/06/06 10:08 p -13.2 -13.2 -13.3 --- --- 28.7 E 0.48 32.2 -26.4 --- --- 727.8 0.022 0.000 6.5 5 1
02/06/06 10:09 p -13.3 -13.2 -13.3 --- --- 27.0 E 0.45 32.2 -26.2 --- --- 727.8 0.022 0.000 6.6 5 1
02/06/06 10:10 p -13.3 -13.2 -13.3 --- --- 24.3 E 0.41 29.6 -25.7 --- --- 727.7 0.022 0.000 6.6 5 1
02/06/06 10:11 p -13.3 -13.3 -13.3 --- --- 24.3 E 0.41 26.1 -25.7 --- --- 727.8 0.022 0.000 6.6 5 1
02/06/06 10:12 p -13.3 -13.2 -13.3 --- --- 23.5 E 0.39 27.8 -25.4 --- --- 727.7 0.022 0.000 6.6 5 1
02/06/06 10:13 p -13.3 -13.2 -13.3 --- --- 27.0 E 0.45 29.6 -26.2 --- --- 727.7 0.022 0.000 6.6 5 1
02/06/06 10:14 p -13.3 -13.2 -13.3 --- --- 27.8 E 0.46 31.3 -26.3 --- --- 727.7 0.022 0.000 6.6 5 1
02/06/06 10:15 p -13.3 -13.2 -13.3 --- --- 23.5 E 0.39 27.0 -25.4 --- --- 727.8 0.022 0.000 6.6 5 1
02/06/06 10:16 p -13.3 -13.3 -13.3 --- --- 23.5 E 0.39 27.0 -25.4 --- --- 727.8 0.022 0.000 6.6 5 1
02/06/06 10:17 p -13.3 -13.3 -13.3 --- --- 23.5 E 0.39 30.4 -25.4 --- --- 727.8 0.022 0.000 6.6 5 1
02/06/06 10:18 p -13.3 -13.2 -13.3 --- --- 24.3 E 0.41 29.6 -25.7 --- --- 727.8 0.022 0.000 6.6 5 1
02/06/06 10:19 p -13.3 -13.2 -13.3 --- --- 25.2 E 0.42 29.6 -25.8 --- --- 727.8 0.022 0.000 6.7 5 1
02/06/06 10:20 p -13.3 -13.2 -13.3 --- --- 24.3 E 0.41 28.7 -25.7 --- --- 727.7 0.022 0.000 6.7 5 1
02/06/06 10:21 p -13.3 -13.2 -13.3 --- --- 23.5 E 0.39 28.7 -25.4 --- --- 727.9 0.022 0.000 6.7 5 1
02/06/06 10:22 p -13.3 -13.2 -13.3 --- --- 22.6 E 0.38 27.0 -25.3 --- --- 727.8 0.022 0.000 6.7 5 1
02/06/06 10:23 p -13.3 -13.3 -13.3 --- --- 21.7 E 0.36 25.2 -25.1 --- --- 727.7 0.022 0.000 6.7 5 1
02/06/06 10:24 p -13.3 -13.2 -13.3 --- --- 23.5 E 0.39 27.0 -25.4 --- --- 727.9 0.022 0.000 6.7 5 1
02/06/06 10:25 p -13.3 -13.3 -13.3 --- --- 21.7 E 0.36 27.8 -25.1 --- --- 727.9 0.022 0.000 6.7 5 1
02/06/06 10:26 p -13.3 -13.2 -13.3 --- --- 23.5 E 0.39 27.8 -25.4 --- --- 727.8 0.022 0.000 6.7 5 1
02/06/06 10:27 p -13.3 -13.2 -13.3 --- --- 24.3 E 0.41 28.7 -25.7 --- --- 727.6 0.022 0.000 6.7 5 1
02/06/06 10:28 p -13.2 -13.2 -13.3 --- --- 26.1 E 0.43 30.4 -25.9 --- --- 727.8 0.022 0.000 6.7 5 1
02/06/06 10:29 p -13.2 -13.2 -13.3 --- --- 24.3 E 0.41 28.7 -25.6 --- --- 727.8 0.022 0.000 6.7 5 1
02/06/06 10:30 p -13.3 -13.2 -13.3 --- --- 23.5 ENE 0.39 28.7 -25.4 --- --- 727.9 0.022 0.000 6.7 5 1
02/06/06 10:31 p -13.2 -13.2 -13.2 --- --- 20.0 E 0.33 23.5 -24.6 --- --- 727.8 0.022 0.000 6.7 5 1
02/06/06 10:32 p -13.2 -13.2 -13.3 --- --- 29.6 E 0.49 36.5 -26.6 --- --- 727.6 0.022 0.000 6.7 5 1
02/06/06 10:33 p -13.3 -13.2 -13.3 --- --- 29.6 ENE 0.49 33.9 -26.6 --- --- 727.8 0.022 0.000 6.7 5 1
02/06/06 10:34 p -13.2 -13.2 -13.2 --- --- 22.6 E 0.38 29.6 -25.2 --- --- 728.0 0.022 0.000 6.7 5 1
02/06/06 10:35 p -13.2 -13.2 -13.2 --- --- 21.7 E 0.36 26.1 -25.0 --- --- 727.8 0.022 0.000 6.7 5 1
02/06/06 10:36 p -13.2 -13.2 -13.3 --- --- 22.6 E 0.38 28.7 -25.2 --- --- 727.7 0.022 0.000 6.7 5 1
02/06/06 10:37 p -13.2 -13.2 -13.3 --- --- 26.1 E 0.43 29.6 -25.9 --- --- 727.7 0.022 0.000 6.7 5 1
02/06/06 10:38 p -13.2 -13.2 -13.3 --- --- 27.0 ENE 0.45 29.6 -26.1 --- --- 727.8 0.022 0.000 6.7 5 1
02/06/06 10:39 p -13.2 -13.2 -13.3 --- --- 25.2 E 0.42 28.7 -25.7 --- --- 727.7 0.022 0.000 6.7 5 1
02/06/06 10:40 p -13.2 -13.2 -13.2 --- --- 27.0 ENE 0.45 31.3 -26.1 --- --- 727.8 0.022 0.000 6.7 5 1
02/06/06 10:41 p -13.2 -13.2 -13.2 --- --- 24.3 E 0.41 27.8 -25.6 --- --- 727.7 0.022 0.000 6.7 5 1
02/06/06 10:42 p -13.2 -13.2 -13.2 --- --- 27.0 E 0.45 33.0 -26.1 --- --- 727.6 0.022 0.000 6.7 5 1
02/06/06 10:43 p -13.2 -13.2 -13.2 --- --- 25.2 E 0.42 28.7 -25.7 --- --- 727.7 0.022 0.000 6.7 5 1
02/06/06 10:44 p -13.2 -13.2 -13.2 --- --- 26.1 E 0.43 29.6 -25.9 --- --- 727.6 0.022 0.000 6.7 5 1
02/06/06 10:45 p -13.2 -13.2 -13.2 --- --- 28.7 ENE 0.48 32.2 -26.4 --- --- 727.6 0.022 0.000 6.7 5 1
02/06/06 10:46 p -13.2 -13.2 -13.2 --- --- 27.8 ENE 0.46 31.3 -26.2 --- --- 727.7 0.022 0.000 6.7 5 1
02/06/06 10:47 p -13.2 -13.2 -13.2 --- --- 26.1 E 0.43 31.3 -25.9 --- --- 727.6 0.022 0.000 6.7 5 1
02/06/06 10:48 p -13.2 -13.2 -13.2 --- --- 28.7 E 0.48 30.4 -26.4 --- --- 727.5 0.022 0.000 6.7 5 1
02/06/06 10:49 p -13.2 -13.2 -13.2 --- --- 26.1 E 0.43 31.3 -25.9 --- --- 727.7 0.022 0.000 6.7 5 1
02/06/06 10:50 p -13.2 -13.2 -13.2 --- --- 26.1 E 0.43 30.4 -25.9 --- --- 727.6 0.022 0.000 6.7 5 1
02/06/06 10:51 p -13.2 -13.2 -13.2 --- --- 26.1 E 0.43 31.3 -25.9 --- --- 727.8 0.022 0.000 6.7 5 1
02/06/06 10:52 p -13.2 -13.2 -13.3 --- --- 21.7 E 0.36 25.2 -25.0 --- --- 727.6 0.022 0.000 6.7 5 1
02/06/06 10:53 p -13.2 -13.2 -13.2 --- --- 26.1 E 0.43 31.3 -25.9 --- --- 727.5 0.022 0.000 6.7 5 1
02/06/06 10:54 p -13.2 -13.2 -13.2 --- --- 29.6 E 0.49 33.9 -26.6 --- --- 727.6 0.022 0.000 6.7 5 1
02/06/06 10:55 p -13.2 -13.2 -13.2 --- --- 27.8 E 0.46 33.9 -26.2 --- --- 727.7 0.022 0.000 6.7 5 1
02/06/06 10:56 p -13.2 -13.2 -13.2 --- --- 27.0 ENE 0.45 29.6 -26.1 --- --- 727.8 0.022 0.000 6.7 5 1
02/06/06 10:57 p -13.2 -13.2 -13.3 --- --- 25.2 ENE 0.42 31.3 -25.7 --- --- 727.6 0.022 0.000 6.7 5 1
02/06/06 10:58 p -13.2 -13.2 -13.2 --- --- 26.1 E 0.43 32.2 -25.9 --- --- 727.6 0.022 0.000 6.7 5 1
02/06/06 10:59 p -13.2 -13.2 -13.2 --- --- 23.5 E 0.39 30.4 -25.4 --- --- 727.9 0.022 0.000 6.8 5 1
02/06/06 11:00 p -13.2 -13.2 -13.2 --- --- 26.1 E 0.43 33.0 -25.9 --- --- 727.6 0.022 0.000 6.8 5 1
02/06/06 11:01 p -13.2 -13.2 -13.3 --- --- 29.6 ENE 0.49 32.2 -26.6 --- --- 727.7 0.022 0.000 6.8 5 1
02/06/06 11:02 p -13.2 -13.2 -13.2 --- --- 26.1 E 0.43 31.3 -25.9 --- --- 727.9 0.022 0.000 6.8 5 1
02/06/06 11:03 p -13.2 -13.2 -13.2 --- --- 25.2 E 0.42 31.3 -25.7 --- --- 727.7 0.022 0.000 6.8 5 1
02/06/06 11:04 p -13.2 -13.2 -13.3 --- --- 29.6 E 0.49 32.2 -26.6 --- --- 727.8 0.022 0.000 6.7 5 1
02/06/06 11:05 p -13.2 -13.2 -13.3 --- --- 24.3 ENE 0.41 28.7 -25.6 --- --- 727.7 0.022 0.000 6.7 5 1
02/06/06 11:06 p -13.3 -13.2 -13.3 --- --- 29.6 E 0.49 33.9 -26.6 --- --- 727.6 0.022 0.000 6.7 5 1
02/06/06 11:07 p -13.3 -13.2 -13.3 --- --- 26.1 E 0.43 29.6 -26.0 --- --- 727.7 0.022 0.000 6.7 5 1
02/06/06 11:08 p -13.3 -13.2 -13.3 --- --- 25.2 E 0.42 28.7 -25.8 --- --- 727.7 0.022 0.000 6.7 5 1
02/06/06 11:09 p -13.3 -13.2 -13.3 --- --- 26.1 E 0.43 30.4 -26.0 --- --- 727.7 0.022 0.000 6.7 5 1
02/06/06 11:10 p -13.3 -13.2 -13.3 --- --- 27.8 E 0.46 32.2 -26.3 --- --- 727.7 0.022 0.000 6.7 5 1
02/06/06 11:11 p -13.3 -13.3 -13.3 --- --- 23.5 E 0.39 27.0 -25.4 --- --- 727.7 0.022 0.000 6.7 5 1
02/06/06 11:12 p -13.3 -13.3 -13.3 --- --- 26.1 E 0.43 28.7 -26.0 --- --- 727.7 0.022 0.000 6.7 5 1
02/06/06 11:13 p -13.3 -13.3 -13.3 --- --- 26.1 E 0.43 29.6 -26.1 --- --- 727.7 0.022 0.000 6.7 5 1
02/06/06 11:14 p -13.3 -13.3 -13.3 --- --- 26.1 E 0.43 31.3 -26.0 --- --- 727.6 0.022 0.000 6.7 5 1
02/06/06 11:15 p -13.3 -13.3 -13.3 --- --- 27.0 E 0.45 32.2 -26.2 --- --- 727.6 0.022 0.000 6.7 5 1
02/06/06 11:16 p -13.3 -13.3 -13.3 --- --- 27.0 E 0.45 32.2 -26.2 --- --- 727.6 0.022 0.000 6.7 5 1
02/06/06 11:17 p -13.3 -13.3 -13.3 --- --- 23.5 E 0.39 30.4 -25.6 --- --- 727.6 0.022 0.000 6.7 5 1
02/06/06 11:18 p -13.3 -13.3 -13.3 --- --- 25.2 E 0.42 32.2 -25.9 --- --- 727.6 0.022 0.000 6.7 5 1
02/06/06 11:19 p -13.3 -13.3 -13.3 --- --- 27.0 E 0.45 30.4 -26.2 --- --- 727.7 0.022 0.000 6.7 5 1
02/06/06 11:20 p -13.3 -13.3 -13.3 --- --- 27.8 E 0.46 31.3 -26.4 --- --- 727.6 0.022 0.000 6.7 5 1
02/06/06 11:21 p -13.3 -13.3 -13.3 --- --- 27.0 E 0.45 31.3 -26.2 --- --- 727.8 0.022 0.000 6.7 5 1
02/06/06 11:22 p -13.3 -13.3 -13.3 --- --- 25.2 E 0.42 30.4 -25.9 --- --- 727.6 0.022 0.000 6.8 5 1
02/06/06 11:23 p -13.3 -13.3 -13.3 --- --- 25.2 E 0.42 32.2 -25.9 --- --- 727.6 0.022 0.000 6.8 5 1
02/06/06 11:24 p -13.3 -13.3 -13.4 --- --- 26.1 E 0.43 30.4 -26.1 --- --- 727.9 0.022 0.000 6.8 5 1
02/06/06 11:25 p -13.3 -13.3 -13.3 --- --- 22.6 E 0.38 26.1 -25.3 --- --- 727.8 0.022 0.000 6.8 5 1
02/06/06 11:26 p -13.3 -13.3 -13.3 --- --- 26.1 E 0.43 30.4 -26.1 --- --- 727.9 0.022 0.000 6.8 5 1
02/06/06 11:27 p -13.3 -13.3 -13.3 --- --- 23.5 E 0.39 28.7 -25.6 --- --- 727.6 0.022 0.000 6.8 5 1
02/06/06 11:28 p -13.3 -13.3 -13.4 --- --- 27.0 E 0.45 33.9 -26.2 --- --- 727.7 0.022 0.000 6.8 5 1
02/06/06 11:29 p -13.3 -13.3 -13.4 --- --- 28.7 ENE 0.48 32.2 -26.6 --- --- 727.9 0.022 0.000 6.8 5 1
02/06/06 11:30 p -13.3 -13.3 -13.4 --- --- 23.5 E 0.39 27.0 -25.6 --- --- 727.8 0.022 0.000 6.8 5 1
02/06/06 11:31 p -13.4 -13.3 -13.4 --- --- 26.1 E 0.43 29.6 -26.1 --- --- 727.7 0.022 0.000 6.7 5 1
02/06/06 11:32 p -13.3 -13.3 -13.4 --- --- 27.8 E 0.46 32.2 -26.4 --- --- 727.4 0.022 0.000 6.7 5 1
02/06/06 11:33 p -13.3 -13.3 -13.3 --- --- 29.6 E 0.49 33.0 -26.7 --- --- 727.5 0.022 0.000 6.7 5 1
02/06/06 11:34 p -13.3 -13.3 -13.4 --- --- 27.0 E 0.45 33.0 -26.2 --- --- 727.7 0.022 0.000 6.7 5 1
02/06/06 11:35 p -13.4 -13.3 -13.4 --- --- 21.7 E 0.36 25.2 -25.2 --- --- 727.4 0.022 0.000 6.7 5 1
02/06/06 11:36 p -13.3 -13.3 -13.4 --- --- 24.3 E 0.41 29.6 -25.7 --- --- 727.4 0.022 0.000 6.7 5 1
02/06/06 11:37 p -13.4 -13.3 -13.4 --- --- 26.1 E 0.43 31.3 -26.1 --- --- 727.7 0.022 0.000 6.7 5 1
02/06/06 11:38 p -13.3 -13.3 -13.4 --- --- 20.0 E 0.33 23.5 -24.8 --- --- 727.7 0.022 0.000 6.7 5 1
02/06/06 11:39 p -13.4 -13.3 -13.4 --- --- 24.3 E 0.41 27.0 -25.8 --- --- 727.5 0.022 0.000 6.6 5 1
02/06/06 11:40 p -13.3 -13.3 -13.4 --- --- 22.6 E 0.38 27.8 -25.3 --- --- 727.8 0.022 0.000 6.6 5 1
02/06/06 11:41 p -13.4 -13.3 -13.4 --- --- 21.7 E 0.36 26.1 -25.2 --- --- 727.7 0.022 0.000 6.6 5 1
02/06/06 11:42 p -13.4 -13.3 -13.4 --- --- 21.7 E 0.36 27.8 -25.2 --- --- 727.6 0.022 0.000 6.6 5 1
02/06/06 11:43 p -13.4 -13.3 -13.4 --- --- 22.6 E 0.38 27.0 -25.4 --- --- 727.5 0.022 0.000 6.6 5 1
02/06/06 11:44 p -13.4 -13.4 -13.4 --- --- 24.3 E 0.41 27.8 -25.8 --- --- 727.3 0.022 0.000 6.6 5 1
02/06/06 11:45 p -13.3 -13.3 -13.4 --- --- 26.1 E 0.43 31.3 -26.1 --- --- 727.5 0.022 0.000 6.6 5 1
02/06/06 11:46 p -13.4 -13.3 -13.4 --- --- 23.5 E 0.39 28.7 -25.6 --- --- 727.6 0.022 0.000 6.7 5 1
02/06/06 11:47 p -13.4 -13.4 -13.4 --- --- 22.6 E 0.38 28.7 -25.4 --- --- 727.5 0.022 0.000 6.7 5 1
02/06/06 11:48 p -13.4 -13.4 -13.4 --- --- 27.0 E 0.45 32.2 -26.3 --- --- 727.7 0.022 0.000 6.7 5 1
02/06/06 11:49 p -13.4 -13.4 -13.4 --- --- 24.3 E 0.41 31.3 -25.8 --- --- 727.5 0.022 0.000 6.7 5 1
02/06/06 11:50 p -13.4 -13.4 -13.4 --- --- 26.1 E 0.43 29.6 -26.1 --- --- 727.6 0.022 0.000 6.7 5 1
02/06/06 11:51 p -13.4 -13.4 -13.4 --- --- 25.2 E 0.42 28.7 -25.9 --- --- 727.7 0.022 0.000 6.7 5 1
02/06/06 11:52 p -13.4 -13.4 -13.4 --- --- 21.7 E 0.36 26.1 -25.3 --- --- 727.7 0.022 0.000 6.7 5 1
02/06/06 11:53 p -13.4 -13.4 -13.4 --- --- 20.9 E 0.35 25.2 -25.1 --- --- 727.6 0.022 0.000 6.7 5 1
02/06/06 11:54 p -13.4 -13.4 -13.4 --- --- 24.3 E 0.41 30.4 -25.9 --- --- 727.4 0.022 0.000 6.7 5 1
02/06/06 11:55 p -13.4 -13.4 -13.5 --- --- 29.6 E 0.49 34.8 -26.8 --- --- 727.6 0.022 0.000 6.7 5 1
02/06/06 11:56 p -13.5 -13.5 -13.5 --- --- 24.3 E 0.41 29.6 -25.9 --- --- 727.6 0.022 0.000 6.7 5 1
02/06/06 11:57 p -13.5 -13.5 -13.5 --- --- 26.1 E 0.43 29.6 -26.3 --- --- 727.6 0.022 0.000 6.7 5 1
02/06/06 11:58 p -13.5 -13.4 -13.5 --- --- 23.5 E 0.39 27.8 -25.8 --- --- 727.6 0.022 0.000 6.7 5 1
02/06/06 11:59 p -13.5 -13.4 -13.5 --- --- 24.3 E 0.41 28.7 -25.9 --- --- 727.7 0.022 0.000 6.7 5 1
02/07/06 12:00 a -13.5 -13.4 -13.5 --- --- 21.7 E 0.36 25.2 -25.4 --- --- 727.7 0.022 0.000 6.7 5 1
02/07/06 12:01 a -13.5 -13.5 -13.6 --- --- 21.7 E 0.36 26.1 -25.4 --- --- 727.5 0.022 0.000 6.7 5 1
02/07/06 12:02 a -13.5 -13.5 -13.6 --- --- 27.0 E 0.45 30.4 -26.4 --- --- 727.6 0.022 0.000 6.7 5 1
02/07/06 12:03 a -13.6 -13.5 -13.6 --- --- 25.2 E 0.42 30.4 -26.2 --- --- 727.6 0.022 0.000 6.7 5 1
02/07/06 12:04 a -13.6 -13.5 -13.6 --- --- 20.9 E 0.35 24.3 -25.3 --- --- 727.7 0.022 0.000 6.7 5 1
02/07/06 12:05 a -13.6 -13.6 -13.6 --- --- 22.6 E 0.38 26.1 -25.7 --- --- 727.5 0.022 0.000 6.7 5 1
02/07/06 12:06 a -13.6 -13.5 -13.6 --- --- 23.5 E 0.39 27.0 -25.8 --- --- 727.6 0.022 0.000 6.6 5 1
02/07/06 12:07 a -13.6 -13.6 -13.6 --- --- 21.7 ESE 0.36 26.1 -25.4 --- --- 727.5 0.022 0.000 6.6 5 1
02/07/06 12:08 a -13.6 -13.6 -13.6 --- --- 23.5 E 0.39 28.7 -25.8 --- --- 727.4 0.022 0.000 6.6 5 1
02/07/06 12:09 a -13.6 -13.6 -13.6 --- --- 25.2 E 0.42 28.7 -26.2 --- --- 727.5 0.022 0.000 6.6 5 1
02/07/06 12:10 a -13.6 -13.6 -13.6 --- --- 23.5 E 0.39 28.7 -25.8 --- --- 727.6 0.022 0.000 6.6 5 1
02/07/06 12:11 a -13.6 -13.6 -13.6 --- --- 22.6 E 0.38 27.0 -25.7 --- --- 727.4 0.022 0.000 6.7 5 1
02/07/06 12:12 a -13.6 -13.6 -13.6 --- --- 21.7 E 0.36 25.2 -25.6 --- --- 727.6 0.022 0.000 6.7 5 1
02/07/06 12:13 a -13.6 -13.6 -13.6 --- --- 22.6 E 0.38 27.8 -25.7 --- --- 727.6 0.022 0.000 6.7 5 1
02/07/06 12:14 a -13.6 -13.6 -13.6 --- --- 22.6 E 0.38 27.8 -25.7 --- --- 727.5 0.022 0.000 6.7 5 1
02/07/06 12:15 a -13.6 -13.6 -13.6 --- --- 25.2 E 0.42 30.4 -26.3 --- --- 727.5 0.022 0.000 6.7 5 1
02/07/06 12:16 a -13.6 -13.6 -13.6 --- --- 24.3 E 0.41 30.4 -26.1 --- --- 727.5 0.022 0.000 6.7 5 1
02/07/06 12:17 a -13.6 -13.6 -13.6 --- --- 22.6 E 0.38 27.8 -25.7 --- --- 727.4 0.022 0.000 6.7 5 1
02/07/06 12:18 a -13.6 -13.6 -13.6 --- --- 22.6 E 0.38 26.1 -25.7 --- --- 727.4 0.022 0.000 6.7 5 1
02/07/06 12:19 a -13.6 -13.6 -13.6 --- --- 20.9 E 0.35 26.1 -25.3 --- --- 727.7 0.022 0.000 6.7 5 1
02/07/06 12:20 a -13.6 -13.6 -13.6 --- --- 20.9 E 0.35 25.2 -25.3 --- --- 727.6 0.022 0.000 6.7 5 1
02/07/06 12:21 a -13.6 -13.6 -13.6 --- --- 22.6 E 0.38 27.8 -25.7 --- --- 727.6 0.022 0.000 6.7 5 1
02/07/06 12:22 a -13.6 -13.6 -13.6 --- --- 21.7 E 0.36 27.0 -25.6 --- --- 727.5 0.022 0.000 6.8 5 1
02/07/06 12:23 a -13.6 -13.6 -13.6 --- --- 23.5 E 0.39 28.7 -25.8 --- --- 727.6 0.022 0.000 6.8 5 1
02/07/06 12:24 a -13.6 -13.6 -13.6 --- --- 24.3 E 0.41 28.7 -26.0 --- --- 727.6 0.022 0.000 6.7 5 1
02/07/06 12:25 a -13.6 -13.6 -13.6 --- --- 23.5 E 0.39 27.8 -25.8 --- --- 727.6 0.022 0.000 6.7 5 1
02/07/06 12:26 a -13.6 -13.6 -13.6 --- --- 22.6 E 0.38 27.0 -25.7 --- --- 727.6 0.022 0.000 6.7 5 1
02/07/06 12:27 a -13.6 -13.5 -13.6 --- --- 24.3 E 0.41 29.6 -26.0 --- --- 727.5 0.022 0.000 6.7 5 1
02/07/06 12:28 a -13.6 -13.5 -13.6 --- --- 27.0 E 0.45 31.3 -26.5 --- --- 727.5 0.022 0.000 6.7 5 1
02/07/06 12:29 a -13.6 -13.5 -13.6 --- --- 21.7 E 0.36 25.2 -25.4 --- --- 727.6 0.022 0.000 6.7 5 1
02/07/06 12:30 a -13.6 -13.6 -13.6 --- --- 22.6 E 0.38 30.4 -25.7 --- --- 727.2 0.022 0.000 6.7 5 1
02/07/06 12:31 a -13.5 -13.5 -13.6 --- --- 27.0 E 0.45 33.9 -26.4 --- --- 727.6 0.022 0.000 6.6 5 1
02/07/06 12:32 a -13.5 -13.5 -13.6 --- --- 25.2 E 0.42 28.7 -26.1 --- --- 727.5 0.022 0.000 6.6 5 1
02/07/06 12:33 a -13.6 -13.6 -13.6 --- --- 22.6 E 0.38 27.0 -25.7 --- --- 727.5 0.022 0.000 6.6 5 1
02/07/06 12:34 a -13.6 -13.5 -13.6 --- --- 23.5 E 0.39 27.0 -25.8 --- --- 727.4 0.022 0.000 6.6 5 1
02/07/06 12:35 a -13.6 -13.6 -13.6 --- --- 25.2 E 0.42 30.4 -26.2 --- --- 727.4 0.022 0.000 6.6 5 1
02/07/06 12:36 a -13.6 -13.6 -13.6 --- --- 21.7 E 0.36 24.3 -25.4 --- --- 727.4 0.022 0.000 6.6 5 1
02/07/06 12:37 a -13.6 -13.5 -13.6 --- --- 22.6 E 0.38 27.0 -25.7 --- --- 727.5 0.022 0.000 6.6 5 1
02/07/06 12:38 a -13.6 -13.6 -13.6 --- --- 23.5 E 0.39 29.6 -25.8 --- --- 727.4 0.022 0.000 6.6 5 1
02/07/06 12:39 a -13.6 -13.6 -13.6 --- --- 24.3 E 0.41 27.8 -26.0 --- --- 727.5 0.022 0.000 6.6 5 1
02/07/06 12:40 a -13.6 -13.6 -13.6 --- --- 21.7 E 0.36 27.8 -25.4 --- --- 727.3 0.022 0.000 6.6 5 1
02/07/06 12:41 a -13.6 -13.6 -13.6 --- --- 25.2 E 0.42 30.4 -26.2 --- --- 727.5 0.022 0.000 6.6 5 1
02/07/06 12:42 a -13.6 -13.6 -13.6 --- --- 22.6 E 0.38 28.7 -25.7 --- --- 727.4 0.022 0.000 6.7 5 1
02/07/06 12:43 a -13.6 -13.6 -13.6 --- --- 22.6 E 0.38 26.1 -25.7 --- --- 727.3 0.022 0.000 6.6 5 1
02/07/06 12:44 a -13.6 -13.6 -13.6 --- --- 25.2 E 0.42 28.7 -26.3 --- --- 727.4 0.022 0.000 6.6 5 1
02/07/06 12:45 a -13.6 -13.6 -13.6 --- --- 23.5 E 0.39 27.0 -25.8 --- --- 727.3 0.022 0.000 6.6 5 1
02/07/06 12:46 a -13.6 -13.6 -13.6 --- --- 25.2 E 0.42 29.6 -26.2 --- --- 727.4 0.022 0.000 6.7 5 1
02/07/06 12:47 a -13.6 -13.6 -13.6 --- --- 22.6 E 0.38 27.0 -25.7 --- --- 727.3 0.022 0.000 6.7 5 1
02/07/06 12:48 a -13.6 -13.6 -13.6 --- --- 27.0 E 0.45 29.6 -26.5 --- --- 727.3 0.022 0.000 6.7 5 1
02/07/06 12:49 a -13.6 -13.6 -13.6 --- --- 22.6 E 0.38 30.4 -25.7 --- --- 727.4 0.022 0.000 6.7 5 1
02/07/06 12:50 a -13.6 -13.6 -13.6 --- --- 20.9 E 0.35 24.3 -25.3 --- --- 727.6 0.022 0.000 6.7 5 1
02/07/06 12:51 a -13.6 -13.6 -13.6 --- --- 21.7 E 0.36 26.1 -25.6 --- --- 727.3 0.022 0.000 6.7 5 1
02/07/06 12:52 a -13.6 -13.6 -13.6 --- --- 27.0 E 0.45 30.4 -26.5 --- --- 727.3 0.022 0.000 6.7 5 1
02/07/06 12:53 a -13.6 -13.6 -13.6 --- --- 25.2 ENE 0.42 30.4 -26.2 --- --- 727.4 0.022 0.000 6.7 5 1
02/07/06 12:54 a -13.6 -13.6 -13.6 --- --- 25.2 E 0.42 28.7 -26.2 --- --- 727.4 0.022 0.000 6.7 5 1
02/07/06 12:55 a -13.6 -13.6 -13.6 --- --- 22.6 E 0.38 26.1 -25.7 --- --- 727.5 0.022 0.000 6.7 5 1
02/07/06 12:56 a -13.6 -13.6 -13.6 --- --- 19.1 E 0.32 23.5 -24.8 --- --- 727.4 0.022 0.000 6.7 5 1
02/07/06 12:57 a -13.6 -13.6 -13.6 --- --- 27.0 E 0.45 31.3 -26.5 --- --- 727.4 0.022 0.000 6.7 5 1
02/07/06 12:58 a -13.6 -13.6 -13.6 --- --- 23.5 E 0.39 26.1 -25.8 --- --- 727.4 0.022 0.000 6.7 5 1
02/07/06 12:59 a -13.6 -13.6 -13.6 --- --- 25.2 E 0.42 29.6 -26.2 --- --- 727.3 0.022 0.000 6.6 5 1
02/07/06 1:00 a -13.6 -13.5 -13.6 --- --- 24.3 E 0.41 28.7 -26.0 --- --- 727.3 0.022 0.000 6.6 5 1
02/07/06 1:01 a -13.6 -13.5 -13.6 --- --- 22.6 E 0.38 27.0 -25.7 --- --- 727.4 0.022 0.000 6.6 5 1
02/07/06 1:03 a -13.6 -13.6 -13.6 --- --- 25.2 E 0.42 27.8 -26.2 --- --- 727.3 0.022 0.000 6.6 5 1
02/07/06 1:04 a -13.6 -13.6 -13.6 --- --- 27.0 E 0.45 30.4 -26.5 --- --- 727.3 0.022 0.000 6.6 5 1
02/07/06 1:05 a -13.6 -13.6 -13.6 --- --- 25.2 E 0.42 29.6 -26.2 --- --- 727.3 0.022 0.000 6.6 5 1
02/07/06 1:06 a -13.6 -13.5 -13.6 --- --- 23.5 E 0.39 30.4 -25.8 --- --- 727.0 0.022 0.000 6.6 5 1
02/07/06 1:07 a -13.6 -13.6 -13.6 --- --- 29.6 E 0.49 34.8 -27.0 --- --- 727.3 0.022 0.000 6.6 5 1
02/07/06 1:08 a -13.6 -13.5 -13.6 --- --- 27.8 E 0.46 31.3 -26.7 --- --- 727.2 0.022 0.000 6.7 5 1
02/07/06 1:09 a -13.6 -13.6 -13.6 --- --- 27.8 ENE 0.46 32.2 -26.7 --- --- 727.1 0.022 0.000 6.7 5 1
02/07/06 1:10 a -13.6 -13.6 -13.6 --- --- 23.5 E 0.39 29.6 -25.8 --- --- 727.4 0.022 0.000 6.7 5 1
02/07/06 1:11 a -13.6 -13.6 -13.6 --- --- 21.7 E 0.36 25.2 -25.4 --- --- 727.3 0.022 0.000 6.7 5 1
02/07/06 1:12 a -13.6 -13.6 -13.6 --- --- 23.5 E 0.39 29.6 -25.8 --- --- 727.0 0.022 0.000 6.7 5 1
02/07/06 1:13 a -13.6 -13.6 -13.6 --- --- 27.8 E 0.46 30.4 -26.7 --- --- 727.0 0.022 0.000 6.7 5 1
02/07/06 1:14 a -13.6 -13.6 -13.6 --- --- 25.2 E 0.42 29.6 -26.2 --- --- 727.3 0.022 0.000 6.7 5 1
02/07/06 1:15 a -13.6 -13.6 -13.6 --- --- 21.7 E 0.36 29.6 -25.4 --- --- 727.3 0.022 0.000 6.7 5 1
02/07/06 1:16 a -13.6 -13.6 -13.6 --- --- 26.1 E 0.43 30.4 -26.4 --- --- 727.2 0.022 0.000 6.7 5 1
02/07/06 1:17 a -13.6 -13.6 -13.6 --- --- 25.2 E 0.42 28.7 -26.3 --- --- 727.4 0.022 0.000 6.7 5 1
02/07/06 1:18 a -13.6 -13.6 -13.6 --- --- 23.5 E 0.39 27.0 -25.9 --- --- 727.2 0.022 0.000 6.7 5 1
02/07/06 1:19 a -13.6 -13.6 -13.6 --- --- 25.2 E 0.42 27.8 -26.2 --- --- 727.3 0.022 0.000 6.7 5 1
02/07/06 1:20 a -13.6 -13.6 -13.6 --- --- 24.3 E 0.41 29.6 -26.1 --- --- 727.4 0.022 0.000 6.7 5 1
02/07/06 1:21 a -13.6 -13.6 -13.6 --- --- 22.6 E 0.38 27.8 -25.7 --- --- 727.4 0.022 0.000 6.7 5 1
02/07/06 1:22 a -13.6 -13.6 -13.6 --- --- 24.3 E 0.41 27.0 -26.1 --- --- 727.3 0.022 0.000 6.7 5 1
02/07/06 1:23 a -13.6 -13.6 -13.6 --- --- 24.3 E 0.41 29.6 -26.0 --- --- 727.3 0.022 0.000 6.7 5 1
02/07/06 1:24 a -13.6 -13.6 -13.6 --- --- 28.7 E 0.48 32.2 -26.8 --- --- 727.3 0.022 0.000 6.7 5 1
02/07/06 1:25 a -13.6 -13.6 -13.6 --- --- 24.3 E 0.41 27.0 -26.0 --- --- 727.3 0.022 0.000 6.7 5 1
02/07/06 1:26 a -13.6 -13.6 -13.6 --- --- 27.0 E 0.45 31.3 -26.6 --- --- 727.1 0.022 0.000 6.7 5 1
02/07/06 1:27 a -13.6 -13.6 -13.6 --- --- 27.0 E 0.45 32.2 -26.5 --- --- 727.1 0.022 0.000 6.7 5 1
02/07/06 1:28 a -13.6 -13.6 -13.6 --- --- 27.8 E 0.46 31.3 -26.8 --- --- 727.2 0.022 0.000 6.6 5 1
02/07/06 1:29 a -13.6 -13.6 -13.6 --- --- 23.5 E 0.39 27.0 -25.9 --- --- 727.2 0.022 0.000 6.6 5 1
02/07/06 1:30 a -13.6 -13.6 -13.6 --- --- 23.5 E 0.39 28.7 -25.9 --- --- 727.2 0.022 0.000 6.6 5 1
02/07/06 1:31 a -13.6 -13.6 -13.6 --- --- 25.2 E 0.42 29.6 -26.3 --- --- 727.1 0.022 0.000 6.6 5 1
02/07/06 1:32 a -13.6 -13.6 -13.6 --- --- 26.1 E 0.43 29.6 -26.4 --- --- 727.1 0.022 0.000 6.6 5 1
02/07/06 1:33 a -13.6 -13.6 -13.6 --- --- 27.0 E 0.45 29.6 -26.6 --- --- 727.1 0.022 0.000 6.6 5 1
02/07/06 1:34 a -13.6 -13.6 -13.6 --- --- 24.3 E 0.41 28.7 -26.1 --- --- 727.2 0.022 0.000 6.6 5 1
02/07/06 1:35 a -13.6 -13.6 -13.6 --- --- 23.5 E 0.39 27.0 -25.9 --- --- 727.0 0.022 0.000 6.6 5 1
02/07/06 1:36 a -13.6 -13.6 -13.6 --- --- 26.1 E 0.43 30.4 -26.4 --- --- 727.1 0.022 0.000 6.6 5 1
02/07/06 1:37 a -13.6 -13.6 -13.6 --- --- 22.6 E 0.38 25.2 -25.7 --- --- 727.2 0.022 0.000 6.6 5 1
02/07/06 1:38 a -13.6 -13.6 -13.6 --- --- 23.5 E 0.39 26.1 -25.9 --- --- 727.0 0.022 0.000 6.7 5 1
02/07/06 1:39 a -13.6 -13.6 -13.6 --- --- 24.3 E 0.41 28.7 -26.1 --- --- 727.0 0.022 0.000 6.7 5 1
02/07/06 1:40 a -13.6 -13.6 -13.6 --- --- 25.2 E 0.42 29.6 -26.3 --- --- 727.1 0.022 0.000 6.7 5 1
02/07/06 1:41 a -13.6 -13.6 -13.6 --- --- 22.6 E 0.38 26.1 -25.7 --- --- 727.1 0.022 0.000 6.7 5 1
02/07/06 1:42 a -13.6 -13.6 -13.6 --- --- 19.1 E 0.32 24.3 -24.8 --- --- 727.1 0.022 0.000 6.7 5 1
02/07/06 1:43 a -13.6 -13.6 -13.6 --- --- 23.5 E 0.39 27.8 -25.8 --- --- 727.1 0.022 0.000 6.7 5 1
02/07/06 1:44 a -13.6 -13.6 -13.6 --- --- 27.0 E 0.45 29.6 -26.5 --- --- 727.3 0.022 0.000 6.7 5 1
02/07/06 1:45 a -13.6 -13.6 -13.6 --- --- 21.7 E 0.36 27.8 -25.4 --- --- 727.2 0.022 0.000 6.7 5 1
02/07/06 1:46 a -13.6 -13.6 -13.6 --- --- 23.5 E 0.39 27.8 -25.8 --- --- 727.2 0.022 0.000 6.7 5 1
02/07/06 1:47 a -13.6 -13.6 -13.6 --- --- 24.3 E 0.41 27.8 -26.0 --- --- 727.3 0.022 0.000 6.7 5 1
02/07/06 1:48 a -13.6 -13.5 -13.6 --- --- 20.9 E 0.35 24.3 -25.3 --- --- 727.2 0.022 0.000 6.7 5 1
02/07/06 1:49 a -13.6 -13.5 -13.6 --- --- 21.7 E 0.36 24.3 -25.4 --- --- 727.1 0.022 0.000 6.7 5 1
02/07/06 1:50 a -13.5 -13.5 -13.6 --- --- 26.1 E 0.43 29.6 -26.3 --- --- 727.1 0.022 0.000 6.7 5 1
02/07/06 1:51 a -13.4 -13.4 -13.5 --- --- 27.8 E 0.46 30.4 -26.6 --- --- 726.9 0.022 0.000 6.7 5 1
02/07/06 1:52 a -13.5 -13.4 -13.5 --- --- 25.2 E 0.42 30.4 -26.1 --- --- 727.0 0.022 0.000 6.7 5 1
02/07/06 1:53 a -13.4 -13.4 -13.5 --- --- 22.6 E 0.38 25.2 -25.5 --- --- 727.3 0.022 0.000 6.7 5 1
02/07/06 1:54 a -13.4 -13.4 -13.5 --- --- 19.1 E 0.32 21.7 -24.7 --- --- 727.1 0.022 0.000 6.6 5 1
02/07/06 1:55 a -13.4 -13.4 -13.4 --- --- 27.0 E 0.45 33.0 -26.4 --- --- 726.7 0.022 0.000 6.6 5 1
02/07/06 1:56 a -13.4 -13.4 -13.4 --- --- 28.7 E 0.48 33.9 -26.7 --- --- 727.1 0.022 0.000 6.6 5 1
02/07/06 1:57 a -13.4 -13.4 -13.4 --- --- 19.1 E 0.32 25.2 -24.7 --- --- 727.1 0.022 0.000 6.6 5 1
02/07/06 1:58 a -13.4 -13.4 -13.4 --- --- 23.5 E 0.39 28.7 -25.7 --- --- 727.1 0.022 0.000 6.6 5 1
02/07/06 1:59 a -13.4 -13.4 -13.4 --- --- 27.0 E 0.45 30.4 -26.4 --- --- 727.0 0.022 0.000 6.6 5 1
02/07/06 2:00 a -13.4 -13.4 -13.4 --- --- 23.5 E 0.39 27.8 -25.7 --- --- 726.9 0.022 0.000 6.6 5 1
02/07/06 2:01 a -13.4 -13.4 -13.4 --- --- 26.1 E 0.43 28.7 -26.2 --- --- 727.1 0.022 0.000 6.7 5 1
02/07/06 2:02 a -13.4 -13.4 -13.4 --- --- 26.1 E 0.43 30.4 -26.2 --- --- 727.0 0.022 0.000 6.7 5 1
02/07/06 2:03 a -13.4 -13.4 -13.4 --- --- 23.5 E 0.39 27.8 -25.7 --- --- 727.2 0.022 0.000 6.7 5 1
02/07/06 2:04 a -13.4 -13.4 -13.4 --- --- 22.6 E 0.38 24.3 -25.5 --- --- 727.2 0.022 0.000 6.7 5 1
02/07/06 2:05 a -13.4 -13.4 -13.4 --- --- 21.7 E 0.36 27.0 -25.3 --- --- 726.9 0.022 0.000 6.7 5 1
02/07/06 2:06 a -13.4 -13.4 -13.4 --- --- 27.0 E 0.45 31.3 -26.3 --- --- 726.6 0.022 0.000 6.7 5 1
02/07/06 2:07 a -13.4 -13.4 -13.4 --- --- 31.3 E 0.52 36.5 -27.1 --- --- 727.0 0.022 0.000 6.7 5 1
02/07/06 2:08 a -13.4 -13.4 -13.4 --- --- 23.5 E 0.39 27.0 -25.6 --- --- 727.2 0.022 0.000 6.7 5 1
02/07/06 2:09 a -13.4 -13.4 -13.4 --- --- 17.4 E 0.29 22.6 -24.2 --- --- 727.3 0.022 0.000 6.7 5 1
02/07/06 2:10 a -13.4 -13.4 -13.4 --- --- 20.9 E 0.35 27.8 -25.1 --- --- 727.1 0.022 0.000 6.7 5 1
02/07/06 2:11 a -13.4 -13.3 -13.4 --- --- 26.1 E 0.43 30.4 -26.1 --- --- 726.8 0.022 0.000 6.7 5 1
02/07/06 2:12 a -13.4 -13.3 -13.4 --- --- 27.0 E 0.45 31.3 -26.3 --- --- 727.0 0.022 0.000 6.7 5 1
02/07/06 2:13 a -13.4 -13.3 -13.4 --- --- 21.7 E 0.36 25.2 -25.2 --- --- 727.3 0.022 0.000 6.7 5 1
02/07/06 2:14 a -13.3 -13.3 -13.4 --- --- 20.0 E 0.33 24.3 -24.8 --- --- 727.3 0.022 0.000 6.7 5 1
02/07/06 2:15 a -13.3 -13.3 -13.4 --- --- 20.0 E 0.33 23.5 -24.8 --- --- 727.1 0.022 0.000 6.7 5 1
02/07/06 2:16 a -13.3 -13.3 -13.3 --- --- 24.3 E 0.41 30.4 -25.7 --- --- 726.9 0.022 0.000 6.7 5 1
02/07/06 2:17 a -13.3 -13.3 -13.3 --- --- 27.0 E 0.45 30.4 -26.2 --- --- 727.0 0.022 0.000 6.7 5 1
02/07/06 2:18 a -13.3 -13.3 -13.4 --- --- 25.2 E 0.42 28.7 -25.9 --- --- 727.0 0.022 0.000 6.7 5 1
02/07/06 2:19 a -13.3 -13.3 -13.4 --- --- 20.9 E 0.35 23.5 -24.9 --- --- 727.1 0.022 0.000 6.7 5 1
02/07/06 2:20 a -13.3 -13.3 -13.4 --- --- 21.7 E 0.36 27.0 -25.2 --- --- 726.8 0.022 0.000 6.7 5 1
02/07/06 2:21 a -13.3 -13.3 -13.4 --- --- 24.3 E 0.41 28.7 -25.7 --- --- 726.9 0.022 0.000 6.6 5 1
02/07/06 2:22 a -13.3 -13.3 -13.3 --- --- 22.6 E 0.38 26.1 -25.3 --- --- 727.1 0.022 0.000 6.6 5 1
02/07/06 2:23 a -13.3 -13.3 -13.3 --- --- 22.6 E 0.38 24.3 -25.3 --- --- 727.1 0.022 0.000 6.6 5 1
02/07/06 2:24 a -13.3 -13.3 -13.3 --- --- 20.9 E 0.35 25.2 -24.9 --- --- 727.0 0.022 0.000 6.6 5 1
02/07/06 2:25 a -13.3 -13.3 -13.3 --- --- 22.6 E 0.38 26.1 -25.3 --- --- 726.9 0.022 0.000 6.6 5 1
02/07/06 2:26 a -13.3 -13.3 -13.3 --- --- 23.5 E 0.39 27.0 -25.4 --- --- 726.9 0.022 0.000 6.6 5 1
02/07/06 2:27 a -13.3 -13.3 -13.3 --- --- 23.5 E 0.39 28.7 -25.4 --- --- 727.0 0.022 0.000 6.7 5 1
02/07/06 2:28 a -13.3 -13.3 -13.3 --- --- 23.5 E 0.39 27.0 -25.6 --- --- 727.0 0.022 0.000 6.7 5 1
02/07/06 2:29 a -13.3 -13.3 -13.3 --- --- 22.6 E 0.38 27.0 -25.3 --- --- 727.2 0.022 0.000 6.7 5 1
02/07/06 2:30 a -13.3 -13.3 -13.3 --- --- 20.0 E 0.33 23.5 -24.7 --- --- 726.9 0.022 0.000 6.7 5 1
02/07/06 2:31 a -13.3 -13.3 -13.3 --- --- 24.3 E 0.41 28.7 -25.7 --- --- 726.7 0.022 0.000 6.7 5 1
02/07/06 2:32 a -13.3 -13.2 -13.3 --- --- 25.2 E 0.42 29.6 -25.8 --- --- 727.0 0.022 0.000 6.7 5 1
02/07/06 2:33 a -13.3 -13.3 -13.3 --- --- 20.9 E 0.35 25.2 -24.9 --- --- 727.2 0.022 0.000 6.7 5 1
02/07/06 2:34 a -13.3 -13.3 -13.3 --- --- 21.7 E 0.36 25.2 -25.1 --- --- 726.9 0.022 0.000 6.7 5 1
02/07/06 2:35 a -13.3 -13.2 -13.3 --- --- 23.5 E 0.39 26.1 -25.4 --- --- 727.0 0.022 0.000 6.7 5 1
02/07/06 2:36 a -13.3 -13.3 -13.3 --- --- 20.9 E 0.35 24.3 -24.9 --- --- 727.0 0.022 0.000 6.7 5 1
02/07/06 2:37 a -13.3 -13.3 -13.3 --- --- 25.2 E 0.42 27.8 -25.8 --- --- 727.2 0.022 0.000 6.7 5 1
02/07/06 2:38 a -13.2 -13.2 -13.3 --- --- 23.5 E 0.39 27.8 -25.4 --- --- 727.0 0.022 0.000 6.7 5 1
02/07/06 2:39 a -13.3 -13.3 -13.3 --- --- 26.1 E 0.43 28.7 -26.0 --- --- 727.0 0.022 0.000 6.7 5 1
02/07/06 2:40 a -13.2 -13.2 -13.3 --- --- 23.5 E 0.39 27.8 -25.4 --- --- 727.1 0.022 0.000 6.7 5 1
02/07/06 2:41 a -13.3 -13.3 -13.3 --- --- 22.6 E 0.38 24.3 -25.3 --- --- 727.2 0.022 0.000 6.7 5 1
02/07/06 2:42 a -13.3 -13.2 -13.3 --- --- 23.5 E 0.39 27.8 -25.4 --- --- 727.0 0.022 0.000 6.7 5 1
02/07/06 2:43 a -13.2 -13.2 -13.2 --- --- 21.7 E 0.36 27.0 -25.0 --- --- 727.2 0.022 0.000 6.6 5 1
02/07/06 2:44 a -13.2 -13.2 -13.3 --- --- 24.3 E 0.41 27.8 -25.6 --- --- 726.8 0.022 0.000 6.6 5 1
02/07/06 2:45 a -13.2 -13.2 -13.3 --- --- 26.1 E 0.43 30.4 -25.9 --- --- 726.8 0.022 0.000 6.6 5 1
02/07/06 2:46 a -13.2 -13.2 -13.2 --- --- 22.6 E 0.38 26.1 -25.2 --- --- 727.0 0.022 0.000 6.6 5 1
02/07/06 2:47 a -13.2 -13.2 -13.2 --- --- 22.6 E 0.38 26.1 -25.2 --- --- 726.9 0.022 0.000 6.6 5 1
02/07/06 2:48 a -13.2 -13.2 -13.2 --- --- 23.5 E 0.39 28.7 -25.4 --- --- 726.8 0.022 0.000 6.6 5 1
02/07/06 2:49 a -13.2 -13.2 -13.3 --- --- 25.2 E 0.42 29.6 -25.7 --- --- 726.7 0.022 0.000 6.6 5 1
02/07/06 2:50 a -13.3 -13.3 -13.3 --- --- 25.2 E 0.42 31.3 -25.8 --- --- 727.0 0.022 0.000 6.6 5 1
02/07/06 2:51 a -13.2 -13.2 -13.3 --- --- 21.7 E 0.36 25.2 -25.0 --- --- 727.0 0.022 0.000 6.6 5 1
02/07/06 2:52 a -13.3 -13.2 -13.3 --- --- 21.7 E 0.36 27.0 -25.1 --- --- 727.0 0.022 0.000 6.6 5 1
02/07/06 2:53 a -13.3 -13.3 -13.3 --- --- 24.3 E 0.41 30.4 -25.7 --- --- 727.0 0.022 0.000 6.6 5 1
02/07/06 2:54 a -13.3 -13.3 -13.3 --- --- 24.3 E 0.41 27.8 -25.7 --- --- 727.0 0.022 0.000 6.6 5 1
02/07/06 2:55 a -13.3 -13.3 -13.3 --- --- 22.6 E 0.38 26.1 -25.3 --- --- 726.9 0.022 0.000 6.6 5 1
02/07/06 2:56 a -13.3 -13.2 -13.3 --- --- 21.7 E 0.36 25.2 -25.1 --- --- 727.0 0.022 0.000 6.6 5 1
02/07/06 2:57 a -13.3 -13.2 -13.3 --- --- 21.7 E 0.36 27.0 -25.1 --- --- 726.5 0.022 0.000 6.7 5 1
02/07/06 2:58 a -13.3 -13.3 -13.3 --- --- 29.6 E 0.49 34.8 -26.6 --- --- 726.8 0.022 0.000 6.7 5 1
02/07/06 2:59 a -13.3 -13.3 -13.3 --- --- 24.3 E 0.41 27.8 -25.7 --- --- 726.8 0.022 0.000 6.7 5 1
02/07/06 3:00 a -13.3 -13.2 -13.3 --- --- 23.5 E 0.39 29.6 -25.4 --- --- 726.9 0.022 0.000 6.7 5 1
02/07/06 3:01 a -13.3 -13.3 -13.3 --- --- 26.1 E 0.43 29.6 -26.1 --- --- 727.1 0.022 0.000 6.7 5 1
02/07/06 3:02 a -13.3 -13.3 -13.3 --- --- 23.5 E 0.39 25.2 -25.4 --- --- 727.2 0.022 0.000 6.7 5 1
02/07/06 3:03 a -13.3 -13.3 -13.3 --- --- 20.9 E 0.35 26.1 -24.9 --- --- 727.2 0.022 0.000 6.7 5 1
02/07/06 3:04 a -13.3 -13.3 -13.3 --- --- 21.7 E 0.36 28.7 -25.1 --- --- 726.9 0.022 0.000 6.7 5 1
02/07/06 3:05 a -13.3 -13.3 -13.3 --- --- 26.1 E 0.43 30.4 -26.0 --- --- 726.9 0.022 0.000 6.7 5 1
02/07/06 3:06 a -13.3 -13.3 -13.3 --- --- 23.5 E 0.39 27.8 -25.4 --- --- 726.9 0.022 0.000 6.7 5 1
02/07/06 3:07 a -13.3 -13.2 -13.3 --- --- 23.5 E 0.39 27.0 -25.4 --- --- 726.9 0.022 0.000 6.7 5 1
02/07/06 3:08 a -13.3 -13.3 -13.3 --- --- 23.5 E 0.39 26.1 -25.6 --- --- 726.9 0.022 0.000 6.7 5 1
02/07/06 3:09 a -13.3 -13.3 -13.3 --- --- 22.6 E 0.38 26.1 -25.3 --- --- 727.0 0.022 0.000 6.7 5 1
02/07/06 3:10 a -13.3 -13.3 -13.3 --- --- 23.5 E 0.39 26.1 -25.4 --- --- 727.0 0.022 0.000 6.7 5 1
02/07/06 3:11 a -13.3 -13.3 -13.3 --- --- 25.2 E 0.42 27.8 -25.8 --- --- 726.9 0.022 0.000 6.7 5 1
02/07/06 3:12 a -13.3 -13.3 -13.3 --- --- 23.5 E 0.39 27.8 -25.4 --- --- 726.8 0.022 0.000 6.7 4 1
02/07/06 3:13 a -13.3 -13.2 -13.3 --- --- 23.5 E 0.39 27.0 -25.4 --- --- 726.8 0.022 0.000 6.7 5 1
02/07/06 3:14 a -13.3 -13.3 -13.3 --- --- 25.2 E 0.42 27.0 -25.8 --- --- 726.7 0.022 0.000 6.6 5 1
02/07/06 3:15 a -13.2 -13.2 -13.3 --- --- 25.2 E 0.42 27.8 -25.7 --- --- 726.8 0.022 0.000 6.7 5 1
02/07/06 3:16 a -13.3 -13.3 -13.3 --- --- 21.7 ESE 0.36 25.2 -25.1 --- --- 726.8 0.022 0.000 6.6 5 1
02/07/06 3:17 a -13.3 -13.2 -13.3 --- --- 24.3 E 0.41 28.7 -25.7 --- --- 726.6 0.022 0.000 6.7 5 1
02/07/06 3:18 a -13.3 -13.2 -13.3 --- --- 24.3 E 0.41 28.7 -25.7 --- --- 726.7 0.022 0.000 6.7 5 1
02/07/06 3:19 a -13.2 -13.2 -13.3 --- --- 24.3 E 0.41 27.8 -25.6 --- --- 726.9 0.022 0.000 6.7 4 1
02/07/06 3:20 a -13.3 -13.2 -13.3 --- --- 25.2 E 0.42 27.8 -25.8 --- --- 726.7 0.022 0.000 6.7 5 1
02/07/06 3:21 a -13.2 -13.2 -13.3 --- --- 26.1 E 0.43 28.7 -25.9 --- --- 726.8 0.022 0.000 6.7 5 1
02/07/06 3:22 a -13.2 -13.2 -13.3 --- --- 23.5 E 0.39 26.1 -25.4 --- --- 726.9 0.022 0.000 6.7 5 1
02/07/06 3:23 a -13.2 -13.2 -13.2 --- --- 23.5 E 0.39 26.1 -25.4 --- --- 726.8 0.022 0.000 6.7 5 1
02/07/06 3:24 a -13.2 -13.2 -13.3 --- --- 27.0 E 0.45 32.2 -26.1 --- --- 726.6 0.022 0.000 6.7 5 1
02/07/06 3:25 a -13.2 -13.2 -13.2 --- --- 27.0 E 0.45 29.6 -26.1 --- --- 726.6 0.022 0.000 6.7 5 1
02/07/06 3:26 a -13.2 -13.2 -13.3 --- --- 24.3 E 0.41 27.8 -25.6 --- --- 726.8 0.022 0.000 6.7 5 1
02/07/06 3:27 a -13.2 -13.2 -13.2 --- --- 25.2 E 0.42 30.4 -25.7 --- --- 726.7 0.022 0.000 6.7 4 1
02/07/06 3:28 a -13.2 -13.2 -13.2 --- --- 27.0 E 0.45 29.6 -26.1 --- --- 726.7 0.022 0.000 6.7 5 1
02/07/06 3:29 a -13.2 -13.2 -13.3 --- --- 23.5 E 0.39 27.0 -25.4 --- --- 727.0 0.022 0.000 6.7 5 1
02/07/06 3:30 a -13.2 -13.2 -13.2 --- --- 23.5 E 0.39 27.8 -25.4 --- --- 726.7 0.022 0.000 6.7 4 1
02/07/06 3:31 a -13.2 -13.2 -13.3 --- --- 27.8 E 0.46 31.3 -26.2 --- --- 726.7 0.022 0.000 6.7 5 1
02/07/06 3:32 a -13.3 -13.2 -13.3 --- --- 24.3 E 0.41 28.7 -25.7 --- --- 726.8 0.022 0.000 6.7 4 1
02/07/06 3:33 a -13.2 -13.2 -13.3 --- --- 26.1 E 0.43 30.4 -25.9 --- --- 726.7 0.022 0.000 6.6 4 1
02/07/06 3:34 a -13.3 -13.3 -13.3 --- --- 24.3 E 0.41 27.8 -25.7 --- --- 726.9 0.022 0.000 6.6 5 1
02/07/06 3:35 a -13.3 -13.3 -13.3 --- --- 23.5 ESE 0.39 26.1 -25.6 --- --- 727.0 0.022 0.000 6.6 4 1
02/07/06 3:36 a -13.3 -13.3 -13.3 --- --- 24.3 ESE 0.41 28.7 -25.7 --- --- 726.8 0.022 0.000 6.6 4 1
02/07/06 3:37 a -13.3 -13.3 -13.3 --- --- 29.6 E 0.49 32.2 -26.6 --- --- 726.5 0.022 0.000 6.6 4 1
02/07/06 3:38 a -13.3 -13.3 -13.3 --- --- 27.8 E 0.46 32.2 -26.4 --- --- 726.6 0.022 0.000 6.6 4 1
02/07/06 3:39 a -13.3 -13.3 -13.4 --- --- 23.5 E 0.39 29.6 -25.6 --- --- 726.8 0.022 0.000 6.6 4 1
02/07/06 3:40 a -13.3 -13.3 -13.3 --- --- 21.7 E 0.36 25.2 -25.2 --- --- 726.8 0.022 0.000 6.6 4 1
02/07/06 3:41 a -13.3 -13.3 -13.4 --- --- 24.3 E 0.41 27.0 -25.7 --- --- 726.7 0.022 0.000 6.5 4 1
02/07/06 3:42 a -13.3 -13.3 -13.4 --- --- 23.5 E 0.39 27.8 -25.6 --- --- 726.6 0.022 0.000 6.5 5 1
02/07/06 3:43 a -13.3 -13.3 -13.4 --- --- 23.5 E 0.39 27.8 -25.6 --- --- 726.8 0.022 0.000 6.4 4 1
02/07/06 3:44 a -13.3 -13.3 -13.3 --- --- 21.7 E 0.36 24.3 -25.2 --- --- 726.8 0.022 0.000 6.4 4 1
02/07/06 3:45 a -13.3 -13.3 -13.4 --- --- 23.5 E 0.39 26.1 -25.6 --- --- 726.6 0.022 0.000 6.4 5 1
02/07/06 3:46 a -13.4 -13.3 -13.4 --- --- 23.5 E 0.39 27.0 -25.6 --- --- 726.6 0.022 0.000 6.4 4 1
02/07/06 3:47 a -13.4 -13.4 -13.4 --- --- 24.3 E 0.41 27.0 -25.8 --- --- 726.6 0.022 0.000 6.4 5 1
02/07/06 3:48 a -13.4 -13.4 -13.4 --- --- 23.5 E 0.39 27.0 -25.6 --- --- 726.7 0.022 0.000 6.5 4 1
02/07/06 3:49 a -13.4 -13.4 -13.4 --- --- 24.3 E 0.41 28.7 -25.8 --- --- 726.5 0.022 0.000 6.5 4 1
02/07/06 3:50 a -13.4 -13.4 -13.4 --- --- 22.6 E 0.38 27.8 -25.4 --- --- 726.8 0.022 0.000 6.5 5 1
02/07/06 3:51 a -13.4 -13.4 -13.4 --- --- 20.0 E 0.33 24.3 -24.8 --- --- 726.8 0.022 0.000 6.6 4 1
02/07/06 3:52 a -13.4 -13.4 -13.4 --- --- 24.3 E 0.41 27.0 -25.8 --- --- 726.5 0.022 0.000 6.6 4 1
02/07/06 3:53 a -13.4 -13.4 -13.4 --- --- 26.1 E 0.43 28.7 -26.1 --- --- 726.6 0.022 0.000 6.6 4 1
02/07/06 3:54 a -13.4 -13.4 -13.4 --- --- 20.9 E 0.35 26.1 -25.1 --- --- 726.8 0.022 0.000 6.6 4 1
02/07/06 3:55 a -13.4 -13.4 -13.4 --- --- 21.7 E 0.36 27.0 -25.2 --- --- 726.5 0.022 0.000 6.6 4 1
02/07/06 3:56 a -13.4 -13.4 -13.4 --- --- 22.6 E 0.38 27.0 -25.5 --- --- 726.6 0.022 0.000 6.6 4 1
02/07/06 3:57 a -13.4 -13.4 -13.4 --- --- 20.9 E 0.35 26.1 -25.1 --- --- 726.7 0.022 0.000 6.6 5 1
02/07/06 3:58 a -13.4 -13.4 -13.4 --- --- 20.0 E 0.33 24.3 -24.9 --- --- 726.8 0.022 0.000 6.6 4 1
02/07/06 3:59 a -13.4 -13.4 -13.4 --- --- 20.0 E 0.33 23.5 -24.9 --- --- 726.8 0.022 0.000 6.6 4 1
02/07/06 4:00 a -13.4 -13.4 -13.4 --- --- 19.1 E 0.32 21.7 -24.7 --- --- 726.7 0.022 0.000 6.6 4 1
02/07/06 4:01 a -13.4 -13.4 -13.4 --- --- 25.2 E 0.42 31.3 -26.1 --- --- 726.6 0.022 0.000 6.6 4 1
02/07/06 4:02 a -13.4 -13.4 -13.4 --- --- 24.3 E 0.41 32.2 -25.8 --- --- 726.8 0.022 0.000 6.7 5 1
02/07/06 4:03 a -13.4 -13.4 -13.4 --- --- 20.9 E 0.35 23.5 -25.1 --- --- 726.9 0.022 0.000 6.7 4 1
02/07/06 4:04 a -13.4 -13.4 -13.4 --- --- 19.1 E 0.32 24.3 -24.6 --- --- 726.8 0.022 0.000 6.6 5 1
02/07/06 4:05 a -13.4 -13.4 -13.4 --- --- 23.5 E 0.39 28.7 -25.6 --- --- 726.5 0.022 0.000 6.6 4 1
02/07/06 4:06 a -13.4 -13.4 -13.4 --- --- 25.2 E 0.42 27.8 -25.9 --- --- 726.6 0.022 0.000 6.6 4 1
02/07/06 4:07 a -13.4 -13.4 -13.4 --- --- 24.3 E 0.41 27.8 -25.8 --- --- 726.7 0.022 0.000 6.6 5 1
02/07/06 4:08 a -13.4 -13.4 -13.4 --- --- 20.9 E 0.35 23.5 -25.1 --- --- 726.7 0.022 0.000 6.6 5 1
02/07/06 4:09 a -13.4 -13.4 -13.4 --- --- 22.6 E 0.38 25.2 -25.4 --- --- 726.6 0.022 0.000 6.6 5 1
02/07/06 4:10 a -13.4 -13.4 -13.4 --- --- 20.9 E 0.35 24.3 -25.1 --- --- 726.7 0.022 0.000 6.6 4 1
02/07/06 4:11 a -13.4 -13.3 -13.4 --- --- 19.1 E 0.32 21.7 -24.6 --- --- 726.8 0.022 0.000 6.6 4 1
02/07/06 4:12 a -13.4 -13.3 -13.4 --- --- 20.9 E 0.35 23.5 -25.1 --- --- 726.6 0.022 0.000 6.6 5 1
02/07/06 4:13 a -13.4 -13.3 -13.4 --- --- 24.3 E 0.41 27.8 -25.8 --- --- 726.4 0.022 0.000 6.6 4 1
02/07/06 4:14 a -13.4 -13.3 -13.4 --- --- 24.3 E 0.41 27.8 -25.8 --- --- 726.6 0.022 0.000 6.6 5 1
02/07/06 4:15 a -13.4 -13.3 -13.4 --- --- 24.3 E 0.41 27.0 -25.8 --- --- 726.4 0.022 0.000 6.6 4 1
02/07/06 4:16 a -13.3 -13.3 -13.4 --- --- 23.5 E 0.39 27.0 -25.6 --- --- 726.7 0.022 0.000 6.6 4 1
02/07/06 4:17 a -13.4 -13.3 -13.4 --- --- 20.9 E 0.35 24.3 -25.1 --- --- 726.5 0.022 0.000 6.6 4 1
02/07/06 4:18 a -13.4 -13.3 -13.4 --- --- 24.3 E 0.41 28.7 -25.8 --- --- 726.5 0.022 0.000 6.6 5 1
02/07/06 4:19 a -13.4 -13.3 -13.4 --- --- 22.6 E 0.38 26.1 -25.4 --- --- 726.6 0.022 0.000 6.6 4 1
02/07/06 4:20 a -13.4 -13.3 -13.4 --- --- 20.9 E 0.35 25.2 -25.1 --- --- 726.5 0.022 0.000 6.7 4 1
02/07/06 4:21 a -13.4 -13.3 -13.4 --- --- 24.3 E 0.41 27.8 -25.8 --- --- 726.6 0.022 0.000 6.7 4 1
02/07/06 4:22 a -13.4 -13.4 -13.4 --- --- 21.7 E 0.36 26.1 -25.2 --- --- 726.7 0.022 0.000 6.7 5 1
02/07/06 4:23 a -13.4 -13.4 -13.4 --- --- 22.6 E 0.38 26.1 -25.4 --- --- 726.5 0.022 0.000 6.7 4 1
02/07/06 4:24 a -13.4 -13.4 -13.4 --- --- 23.5 E 0.39 28.7 -25.6 --- --- 726.8 0.022 0.000 6.7 5 1
02/07/06 4:25 a -13.4 -13.3 -13.4 --- --- 21.7 E 0.36 26.1 -25.2 --- --- 726.8 0.022 0.000 6.7 4 1
02/07/06 4:26 a -13.4 -13.4 -13.4 --- --- 23.5 E 0.39 27.8 -25.7 --- --- 726.5 0.022 0.000 6.7 4 1
02/07/06 4:27 a -13.4 -13.4 -13.4 --- --- 23.5 E 0.39 27.8 -25.7 --- --- 726.8 0.022 0.000 6.7 5 1
02/07/06 4:28 a -13.4 -13.4 -13.4 --- --- 19.1 ESE 0.32 24.3 -24.7 --- --- 726.7 0.022 0.000 6.7 4 1
02/07/06 4:29 a -13.4 -13.4 -13.4 --- --- 21.7 E 0.36 24.3 -25.3 --- --- 726.6 0.022 0.000 6.7 4 1
02/07/06 4:30 a -13.4 -13.4 -13.4 --- --- 24.3 E 0.41 27.0 -25.9 --- --- 726.5 0.022 0.000 6.6 4 1
02/07/06 4:31 a -13.4 -13.4 -13.5 --- --- 22.6 E 0.38 27.8 -25.5 --- --- 726.7 0.022 0.000 6.6 4 1
02/07/06 4:32 a -13.4 -13.4 -13.5 --- --- 20.0 E 0.33 26.1 -24.9 --- --- 726.7 0.022 0.000 6.6 4 1
02/07/06 4:33 a -13.5 -13.4 -13.5 --- --- 22.6 E 0.38 30.4 -25.6 --- --- 726.3 0.022 0.000 6.6 4 1
02/07/06 4:34 a -13.5 -13.4 -13.5 --- --- 26.1 E 0.43 28.7 -26.3 --- --- 726.5 0.022 0.000 6.6 4 1
02/07/06 4:35 a -13.5 -13.4 -13.5 --- --- 20.0 E 0.33 23.5 -25.0 --- --- 726.5 0.022 0.000 6.6 4 1
02/07/06 4:36 a -13.5 -13.5 -13.6 --- --- 25.2 ESE 0.42 30.4 -26.1 --- --- 726.3 0.022 0.000 6.5 4 1
02/07/06 4:37 a -13.6 -13.5 -13.6 --- --- 24.3 E 0.41 27.8 -26.0 --- --- 726.6 0.022 0.000 6.5 4 1
02/07/06 4:38 a -13.5 -13.5 -13.6 --- --- 21.7 E 0.36 25.2 -25.4 --- --- 726.5 0.022 0.000 6.5 4 1
02/07/06 4:39 a -13.6 -13.5 -13.6 --- --- 23.5 E 0.39 27.0 -25.8 --- --- 726.4 0.022 0.000 6.5 4 1
02/07/06 4:40 a -13.5 -13.5 -13.6 --- --- 24.3 E 0.41 28.7 -25.9 --- --- 726.4 0.022 0.000 6.5 4 1
02/07/06 4:41 a -13.6 -13.5 -13.6 --- --- 24.3 E 0.41 27.0 -26.0 --- --- 726.5 0.022 0.000 6.5 4 1
02/07/06 4:42 a -13.6 -13.6 -13.6 --- --- 22.6 E 0.38 27.8 -25.7 --- --- 726.5 0.022 0.000 6.5 4 1
02/07/06 4:43 a -13.6 -13.6 -13.6 --- --- 21.7 E 0.36 27.8 -25.4 --- --- 726.4 0.022 0.000 6.5 4 1
02/07/06 4:44 a -13.6 -13.6 -13.6 --- --- 26.1 E 0.43 27.8 -26.3 --- --- 726.4 0.022 0.000 6.5 4 1
02/07/06 4:45 a -13.6 -13.6 -13.6 --- --- 23.5 E 0.39 27.8 -25.8 --- --- 726.3 0.022 0.000 6.5 4 1
02/07/06 4:46 a -13.6 -13.6 -13.6 --- --- 23.5 E 0.39 27.8 -25.9 --- --- 726.5 0.022 0.000 6.5 4 1
02/07/06 4:47 a -13.6 -13.6 -13.6 --- --- 23.5 E 0.39 27.8 -25.8 --- --- 726.4 0.022 0.000 6.6 4 1
02/07/06 4:48 a -13.6 -13.6 -13.6 --- --- 23.5 E 0.39 27.8 -25.8 --- --- 726.4 0.022 0.000 6.5 4 1
02/07/06 4:49 a -13.6 -13.6 -13.6 --- --- 22.6 E 0.38 27.8 -25.7 --- --- 726.6 0.022 0.000 6.6 4 1
02/07/06 4:50 a -13.6 -13.6 -13.6 --- --- 22.6 E 0.38 27.0 -25.7 --- --- 726.6 0.022 0.000 6.6 4 1
02/07/06 4:51 a -13.6 -13.6 -13.6 --- --- 22.6 E 0.38 26.1 -25.7 --- --- 726.4 0.022 0.000 6.6 4 1
02/07/06 4:52 a -13.6 -13.6 -13.6 --- --- 21.7 E 0.36 27.0 -25.6 --- --- 726.4 0.022 0.000 6.6 4 1
02/07/06 4:53 a -13.6 -13.6 -13.7 --- --- 23.5 E 0.39 28.7 -25.9 --- --- 726.6 0.022 0.000 6.6 4 1
02/07/06 4:54 a -13.6 -13.6 -13.7 --- --- 21.7 E 0.36 24.3 -25.6 --- --- 726.6 0.022 0.000 6.6 4 1
02/07/06 4:55 a -13.6 -13.6 -13.6 --- --- 20.9 E 0.35 25.2 -25.3 --- --- 726.5 0.022 0.000 6.6 4 1
02/07/06 4:56 a -13.6 -13.6 -13.7 --- --- 24.3 E 0.41 27.8 -26.1 --- --- 726.5 0.022 0.000 6.6 4 1
02/07/06 4:57 a -13.6 -13.6 -13.7 --- --- 21.7 E 0.36 27.0 -25.6 --- --- 726.6 0.022 0.000 6.6 4 1
02/07/06 4:58 a -13.7 -13.6 -13.7 --- --- 21.7 E 0.36 25.2 -25.6 --- --- 726.5 0.022 0.000 6.6 4 1
02/07/06 4:59 a -13.7 -13.7 -13.7 --- --- 22.6 E 0.38 26.1 -25.8 --- --- 726.5 0.022 0.000 6.6 4 1
02/07/06 5:00 a -13.7 -13.7 -13.7 --- --- 22.6 ESE 0.38 26.1 -25.8 --- --- 726.5 0.022 0.000 6.6 4 1
02/07/06 5:01 a -13.7 -13.7 -13.7 --- --- 22.6 E 0.38 26.1 -25.8 --- --- 726.6 0.022 0.000 6.6 4 1
02/07/06 5:02 a -13.7 -13.7 -13.7 --- --- 22.6 E 0.38 27.0 -25.8 --- --- 726.5 0.022 0.000 6.6 4 1
02/07/06 5:03 a -13.7 -13.7 -13.7 --- --- 24.3 E 0.41 28.7 -26.2 --- --- 726.4 0.022 0.000 6.6 4 1
02/07/06 5:04 a -13.7 -13.7 -13.7 --- --- 22.6 E 0.38 25.2 -25.8 --- --- 726.5 0.022 0.000 6.5 4 1
02/07/06 5:05 a -13.7 -13.7 -13.7 --- --- 22.6 E 0.38 27.0 -25.8 --- --- 726.4 0.022 0.000 6.5 4 1
02/07/06 5:06 a -13.7 -13.7 -13.7 --- --- 21.7 E 0.36 26.1 -25.7 --- --- 726.3 0.022 0.000 6.5 4 1
02/07/06 5:07 a -13.7 -13.7 -13.7 --- --- 24.3 E 0.41 27.8 -26.2 --- --- 726.3 0.022 0.000 6.5 4 1
02/07/06 5:08 a -13.7 -13.7 -13.7 --- --- 21.7 E 0.36 26.1 -25.6 --- --- 726.5 0.022 0.000 6.5 4 1
02/07/06 5:09 a -13.7 -13.7 -13.7 --- --- 21.7 E 0.36 25.2 -25.6 --- --- 726.4 0.022 0.000 6.6 4 1
02/07/06 5:10 a -13.7 -13.7 -13.7 --- --- 24.3 E 0.41 27.0 -26.2 --- --- 726.4 0.022 0.000 6.6 4 1
02/07/06 5:11 a -13.7 -13.7 -13.7 --- --- 24.3 E 0.41 27.8 -26.2 --- --- 726.4 0.022 0.000 6.6 4 1
02/07/06 5:12 a -13.7 -13.7 -13.7 --- --- 22.6 E 0.38 26.1 -25.9 --- --- 726.5 0.022 0.000 6.6 4 1
02/07/06 5:13 a -13.7 -13.7 -13.7 --- --- 20.9 E 0.35 24.3 -25.5 --- --- 726.4 0.022 0.000 6.6 4 1
02/07/06 5:14 a -13.7 -13.7 -13.7 --- --- 25.2 E 0.42 28.7 -26.4 --- --- 726.3 0.022 0.000 6.6 4 1
02/07/06 5:15 a -13.7 -13.7 -13.7 --- --- 25.2 E 0.42 29.6 -26.4 --- --- 726.5 0.022 0.000 6.6 4 1
02/07/06 5:16 a -13.7 -13.7 -13.8 --- --- 21.7 E 0.36 24.3 -25.7 --- --- 726.6 0.022 0.000 6.6 4 1
02/07/06 5:17 a -13.7 -13.7 -13.8 --- --- 21.7 E 0.36 26.1 -25.7 --- --- 726.3 0.022 0.000 6.7 4 1
02/07/06 5:18 a -13.8 -13.8 -13.8 --- --- 24.3 E 0.41 27.0 -26.3 --- --- 726.4 0.022 0.000 6.6 4 1
02/07/06 5:19 a -13.7 -13.7 -13.8 --- --- 24.3 E 0.41 27.0 -26.2 --- --- 726.4 0.022 0.000 6.6 4 1
02/07/06 5:20 a -13.8 -13.7 -13.8 --- --- 23.5 E 0.39 27.8 -26.1 --- --- 726.7 0.022 0.000 6.7 4 1
02/07/06 5:21 a -13.8 -13.7 -13.8 --- --- 20.9 E 0.35 24.3 -25.6 --- --- 726.6 0.022 0.000 6.7 4 1
02/07/06 5:22 a -13.8 -13.8 -13.8 --- --- 22.6 E 0.38 27.0 -25.9 --- --- 726.5 0.022 0.000 6.7 4 1
02/07/06 5:23 a -13.8 -13.7 -13.8 --- --- 22.6 E 0.38 27.0 -25.9 --- --- 726.6 0.022 0.000 6.7 4 1
02/07/06 5:24 a -13.8 -13.8 -13.8 --- --- 22.6 E 0.38 25.2 -25.9 --- --- 726.7 0.022 0.000 6.7 4 1
02/07/06 5:25 a -13.8 -13.8 -13.8 --- --- 24.3 E 0.41 27.8 -26.3 --- --- 726.4 0.022 0.000 6.6 4 1
02/07/06 5:26 a -13.8 -13.8 -13.8 --- --- 24.3 E 0.41 27.8 -26.4 --- --- 726.5 0.022 0.000 6.6 4 1
02/07/06 5:27 a -13.8 -13.8 -13.8 --- --- 23.5 E 0.39 27.0 -26.2 --- --- 726.6 0.022 0.000 6.6 4 1
02/07/06 5:28 a -13.8 -13.8 -13.8 --- --- 22.6 E 0.38 26.1 -26.0 --- --- 726.5 0.022 0.000 6.6 4 1
02/07/06 5:29 a -13.8 -13.8 -13.9 --- --- 21.7 E 0.36 25.2 -25.8 --- --- 726.6 0.022 0.000 6.6 4 1
02/07/06 5:30 a -13.8 -13.8 -13.9 --- --- 22.6 E 0.38 25.2 -26.0 --- --- 726.5 0.022 0.000 6.6 4 1
02/07/06 5:31 a -13.9 -13.8 -13.9 --- --- 23.5 E 0.39 27.8 -26.3 --- --- 726.4 0.022 0.000 6.5 4 1
02/07/06 5:32 a -13.9 -13.8 -13.9 --- --- 24.3 E 0.41 28.7 -26.4 --- --- 726.3 0.022 0.000 6.5 4 1
02/07/06 5:33 a -13.9 -13.8 -13.9 --- --- 25.2 E 0.42 30.4 -26.7 --- --- 726.2 0.022 0.000 6.5 4 1
02/07/06 5:34 a -13.9 -13.9 -13.9 --- --- 25.2 E 0.42 28.7 -26.7 --- --- 726.3 0.022 0.000 6.5 4 1
02/07/06 5:35 a -13.9 -13.8 -13.9 --- --- 24.3 E 0.41 28.7 -26.4 --- --- 726.3 0.022 0.000 6.5 4 1
02/07/06 5:36 a -13.9 -13.9 -13.9 --- --- 23.5 E 0.39 27.0 -26.3 --- --- 726.5 0.022 0.000 6.5 4 1
02/07/06 5:37 a -13.9 -13.9 -13.9 --- --- 23.5 E 0.39 27.0 -26.3 --- --- 726.4 0.022 0.000 6.5 4 1
02/07/06 5:38 a -13.9 -13.9 -13.9 --- --- 23.5 E 0.39 27.0 -26.3 --- --- 726.3 0.022 0.000 6.5 4 1
02/07/06 5:39 a -13.9 -13.9 -13.9 --- --- 24.3 E 0.41 27.8 -26.6 --- --- 726.4 0.022 0.000 6.5 4 1
02/07/06 5:40 a -13.9 -13.9 -13.9 --- --- 24.3 E 0.41 27.0 -26.6 --- --- 726.4 0.022 0.000 6.5 4 1
02/07/06 5:41 a -13.9 -13.9 -13.9 --- --- 22.6 ESE 0.38 25.2 -26.2 --- --- 726.5 0.022 0.000 6.5 4 1
02/07/06 5:42 a -13.9 -13.9 -13.9 --- --- 21.7 E 0.36 25.2 -26.0 --- --- 726.4 0.022 0.000 6.5 4 1
02/07/06 5:43 a -13.9 -13.9 -13.9 --- --- 23.5 E 0.39 27.0 -26.3 --- --- 726.3 0.022 0.000 6.5 4 1
02/07/06 5:44 a -13.9 -13.9 -13.9 --- --- 22.6 E 0.38 28.7 -26.2 --- --- 726.4 0.022 0.000 6.5 4 1
02/07/06 5:45 a -13.9 -13.9 -13.9 --- --- 21.7 E 0.36 24.3 -26.0 --- --- 726.5 0.022 0.000 6.5 4 1
02/07/06 5:46 a -13.9 -13.9 -13.9 --- --- 22.6 E 0.38 27.0 -26.2 --- --- 726.3 0.022 0.000 6.5 4 1
02/07/06 5:47 a -13.9 -13.9 -13.9 --- --- 25.2 E 0.42 27.0 -26.7 --- --- 726.3 0.022 0.000 6.5 4 1
02/07/06 5:48 a -13.9 -13.9 -13.9 --- --- 22.6 E 0.38 26.1 -26.2 --- --- 726.5 0.022 0.000 6.6 4 1
02/07/06 5:49 a -13.9 -13.9 -13.9 --- --- 20.9 E 0.35 25.2 -25.8 --- --- 726.5 0.022 0.000 6.6 4 1
02/07/06 5:50 a -13.9 -13.9 -13.9 --- --- 23.5 E 0.39 26.1 -26.3 --- --- 726.4 0.022 0.000 6.6 4 1
02/07/06 5:51 a -13.9 -13.9 -13.9 --- --- 24.3 E 0.41 27.0 -26.4 --- --- 726.4 0.022 0.000 6.6 4 1
02/07/06 5:52 a -13.9 -13.9 -13.9 --- --- 23.5 E 0.39 27.0 -26.3 --- --- 726.6 0.022 0.000 6.6 4 1
02/07/06 5:53 a -13.9 -13.9 -13.9 --- --- 21.7 E 0.36 25.2 -25.9 --- --- 726.5 0.022 0.000 6.6 4 1
02/07/06 5:54 a -13.9 -13.9 -13.9 --- --- 24.3 E 0.41 28.7 -26.4 --- --- 726.3 0.022 0.000 6.6 4 1
02/07/06 5:55 a -13.9 -13.9 -13.9 --- --- 26.1 E 0.43 31.3 -26.8 --- --- 726.4 0.022 0.000 6.6 4 1
02/07/06 5:56 a -13.9 -13.9 -13.9 --- --- 22.6 E 0.38 27.8 -26.1 --- --- 726.6 0.022 0.000 6.6 4 1
02/07/06 5:57 a -13.9 -13.9 -13.9 --- --- 20.9 E 0.35 22.6 -25.8 --- --- 726.4 0.022 0.000 6.6 4 1
02/07/06 5:58 a -13.9 -13.9 -13.9 --- --- 21.7 E 0.36 26.1 -25.9 --- --- 726.3 0.022 0.000 6.6 4 1
02/07/06 5:59 a -13.9 -13.9 -13.9 --- --- 24.3 E 0.41 27.0 -26.4 --- --- 726.3 0.022 0.000 6.5 4 1
02/07/06 6:00 a -13.9 -13.9 -13.9 --- --- 21.7 E 0.36 26.1 -26.0 --- --- 726.4 0.022 0.000 6.5 4 1
02/07/06 6:01 a -13.9 -13.9 -13.9 --- --- 21.7 ENE 0.36 26.1 -26.0 --- --- 726.4 0.022 0.000 6.5 4 1
02/07/06 6:03 a -13.9 -13.9 -13.9 --- --- 27.0 E 0.45 29.6 -27.1 --- --- 726.3 0.022 0.000 6.5 4 1
02/07/06 6:04 a -13.9 -13.9 -13.9 --- --- 23.5 E 0.39 27.0 -26.3 --- --- 726.5 0.022 0.000 6.6 4 1
02/07/06 6:05 a -13.9 -13.9 -13.9 --- --- 19.1 E 0.32 21.7 -25.4 --- --- 726.5 0.022 0.000 6.6 4 1
02/07/06 6:06 a -13.9 -13.9 -13.9 --- --- 20.0 E 0.33 23.5 -25.6 --- --- 726.4 0.022 0.000 6.6 4 1
02/07/06 6:07 a -13.9 -13.9 -13.9 --- --- 22.6 E 0.38 27.0 -26.1 --- --- 726.2 0.022 0.000 6.6 4 1
02/07/06 6:08 a -13.9 -13.9 -13.9 --- --- 25.2 E 0.42 29.6 -26.7 --- --- 726.3 0.022 0.000 6.6 4 1
02/07/06 6:09 a -13.9 -13.8 -13.9 --- --- 25.2 E 0.42 29.6 -26.7 --- --- 726.4 0.022 0.000 6.6 4 1
02/07/06 6:10 a -13.9 -13.9 -13.9 --- --- 21.7 E 0.36 27.0 -25.9 --- --- 726.4 0.022 0.000 6.6 4 1
02/07/06 6:11 a -13.9 -13.9 -13.9 --- --- 23.5 E 0.39 29.6 -26.3 --- --- 726.5 0.022 0.000 6.6 4 1
02/07/06 6:12 a -13.9 -13.9 -13.9 --- --- 18.3 E 0.30 22.6 -25.1 --- --- 726.6 0.022 0.000 6.6 4 1
02/07/06 6:13 a -13.9 -13.8 -13.9 --- --- 20.0 E 0.33 25.2 -25.5 --- --- 726.4 0.022 0.000 6.6 4 1
02/07/06 6:14 a -13.9 -13.8 -13.9 --- --- 24.3 E 0.41 27.8 -26.4 --- --- 726.4 0.022 0.000 6.6 4 1
02/07/06 6:15 a -13.8 -13.8 -13.9 --- --- 22.6 E 0.38 26.1 -26.0 --- --- 726.6 0.022 0.000 6.6 4 1
02/07/06 6:16 a -13.9 -13.8 -13.9 --- --- 21.7 E 0.36 25.2 -25.9 --- --- 726.6 0.022 0.000 6.7 4 1
02/07/06 6:17 a -13.8 -13.8 -13.9 --- --- 20.0 E 0.33 23.5 -25.4 --- --- 726.5 0.022 0.000 6.7 4 1
02/07/06 6:18 a -13.8 -13.8 -13.8 --- --- 22.6 E 0.38 23.5 -26.0 --- --- 726.5 0.022 0.000 6.7 4 1
02/07/06 6:19 a -13.9 -13.8 -13.9 --- --- 22.6 E 0.38 26.1 -26.1 --- --- 726.6 0.022 0.000 6.6 4 1
02/07/06 6:20 a -13.9 -13.8 -13.9 --- --- 21.7 E 0.36 24.3 -25.9 --- --- 726.6 0.022 0.000 6.6 4 1
02/07/06 6:21 a -13.8 -13.8 -13.9 --- --- 21.7 E 0.36 25.2 -25.8 --- --- 726.5 0.022 0.000 6.6 4 1
02/07/06 6:22 a -13.9 -13.8 -13.9 --- --- 23.5 E 0.39 26.1 -26.3 --- --- 726.5 0.022 0.000 6.6 4 1
02/07/06 6:23 a -13.9 -13.8 -13.9 --- --- 24.3 E 0.41 26.1 -26.4 --- --- 726.3 0.022 0.000 6.6 4 1
02/07/06 6:24 a -13.8 -13.8 -13.9 --- --- 24.3 E 0.41 27.8 -26.4 --- --- 726.5 0.022 0.000 6.6 4 1
02/07/06 6:25 a -13.9 -13.8 -13.9 --- --- 20.0 E 0.33 23.5 -25.5 --- --- 726.6 0.022 0.000 6.6 4 1
02/07/06 6:26 a -13.9 -13.9 -13.9 --- --- 20.0 E 0.33 22.6 -25.5 --- --- 726.5 0.022 0.000 6.5 4 1
02/07/06 6:27 a -13.9 -13.9 -13.9 --- --- 22.6 E 0.38 27.0 -26.1 --- --- 726.2 0.022 0.000 6.5 4 1
02/07/06 6:28 a -13.9 -13.9 -13.9 --- --- 23.5 E 0.39 27.0 -26.3 --- --- 726.5 0.022 0.000 6.5 4 1
02/07/06 6:29 a -13.9 -13.9 -13.9 --- --- 20.0 E 0.33 23.5 -25.5 --- --- 726.5 0.022 0.000 6.5 4 1
02/07/06 6:30 a -13.9 -13.9 -13.9 --- --- 20.9 E 0.35 24.3 -25.8 --- --- 726.4 0.022 0.000 6.5 4 1
02/07/06 6:31 a -13.9 -13.9 -13.9 --- --- 20.9 E 0.35 23.5 -25.8 --- --- 726.4 0.022 0.000 6.5 4 1
02/07/06 6:32 a -13.9 -13.9 -13.9 --- --- 21.7 E 0.36 27.0 -26.0 --- --- 726.5 0.022 0.000 6.5 4 1
02/07/06 6:33 a -13.9 -13.9 -13.9 --- --- 20.0 E 0.33 22.6 -25.6 --- --- 726.6 0.022 0.000 6.5 4 1
02/07/06 6:34 a -13.9 -13.9 -13.9 --- --- 20.9 E 0.35 24.3 -25.8 --- --- 726.3 0.022 0.000 6.5 4 1
02/07/06 6:35 a -13.9 -13.9 -13.9 --- --- 21.7 E 0.36 24.3 -26.0 --- --- 726.5 0.022 0.000 6.5 4 1
02/07/06 6:36 a -13.9 -13.9 -13.9 --- --- 20.0 E 0.33 23.5 -25.6 --- --- 726.4 0.022 0.000 6.6 4 1
02/07/06 6:37 a -13.9 -13.9 -13.9 --- --- 22.6 E 0.38 26.1 -26.2 --- --- 726.4 0.022 0.000 6.6 4 1
02/07/06 6:38 a -13.9 -13.9 -13.9 --- --- 20.9 E 0.35 25.2 -25.8 --- --- 726.4 0.022 0.000 6.6 4 1
02/07/06 6:39 a -13.9 -13.9 -13.9 --- --- 21.7 E 0.36 25.2 -26.0 --- --- 726.4 0.022 0.000 6.6 4 1
02/07/06 6:40 a -13.9 -13.9 -14.0 --- --- 22.6 E 0.38 25.2 -26.2 --- --- 726.4 0.022 0.000 6.6 4 1
02/07/06 6:41 a -13.9 -13.9 -14.0 --- --- 20.9 E 0.35 23.5 -25.8 --- --- 726.3 0.022 0.000 6.6 4 1
02/07/06 6:42 a -13.9 -13.9 -14.0 --- --- 21.7 E 0.36 24.3 -26.0 --- --- 726.3 0.022 0.000 6.6 4 1
02/07/06 6:43 a -13.9 -13.9 -14.0 --- --- 22.6 E 0.38 27.0 -26.2 --- --- 726.2 0.022 0.000 6.6 4 1
02/07/06 6:44 a -13.9 -13.9 -14.0 --- --- 20.9 E 0.35 23.5 -25.8 --- --- 726.5 0.022 0.000 6.6 4 1
02/07/06 6:45 a -13.9 -13.9 -13.9 --- --- 21.7 E 0.36 25.2 -26.0 --- --- 726.3 0.022 0.000 6.6 4 1
02/07/06 6:46 a -13.9 -13.9 -13.9 --- --- 22.6 E 0.38 26.1 -26.2 --- --- 726.4 0.022 0.000 6.6 4 1
02/07/06 6:47 a -13.9 -13.9 -13.9 --- --- 20.9 E 0.35 25.2 -25.8 --- --- 726.4 0.022 0.000 6.6 4 1
02/07/06 6:48 a -13.9 -13.9 -13.9 --- --- 20.0 E 0.33 22.6 -25.6 --- --- 726.6 0.022 0.000 6.6 4 1
02/07/06 6:49 a -13.9 -13.9 -13.9 --- --- 21.7 E 0.36 25.2 -26.0 --- --- 726.4 0.022 0.000 6.6 4 1
02/07/06 6:50 a -13.9 -13.9 -13.9 --- --- 20.9 E 0.35 24.3 -25.8 --- --- 726.5 0.022 0.000 6.6 4 1
02/07/06 6:51 a -13.9 -13.9 -13.9 --- --- 17.4 E 0.29 21.7 -24.9 --- --- 726.6 0.022 0.000 6.6 4 1
02/07/06 6:52 a -13.9 -13.9 -13.9 --- --- 18.3 E 0.30 21.7 -25.1 --- --- 726.4 0.022 0.000 6.5 4 1
02/07/06 6:53 a -13.9 -13.9 -13.9 --- --- 19.1 E 0.32 23.5 -25.4 --- --- 726.3 0.022 0.000 6.5 4 1
02/07/06 6:54 a -13.9 -13.9 -13.9 --- --- 20.0 E 0.33 22.6 -25.5 --- --- 726.3 0.022 0.000 6.5 4 1
02/07/06 6:55 a -13.9 -13.9 -13.9 --- --- 20.0 E 0.33 23.5 -25.5 --- --- 726.5 0.022 0.000 6.5 4 1
02/07/06 6:56 a -13.9 -13.9 -13.9 --- --- 19.1 E 0.32 21.7 -25.3 --- --- 726.4 0.022 0.000 6.5 4 1
02/07/06 6:57 a -13.9 -13.9 -13.9 --- --- 21.7 E 0.36 26.1 -25.9 --- --- 726.4 0.022 0.000 6.5 4 1
02/07/06 6:58 a -13.9 -13.9 -13.9 --- --- 20.0 E 0.33 22.6 -25.6 --- --- 726.6 0.022 0.000 6.5 4 1
02/07/06 6:59 a -13.9 -13.9 -13.9 --- --- 19.1 E 0.32 22.6 -25.3 --- --- 726.4 0.022 0.000 6.5 4 1
02/07/06 7:00 a -13.9 -13.9 -13.9 --- --- 20.0 E 0.33 21.7 -25.5 --- --- 726.4 0.022 0.000 6.5 4 1
02/07/06 7:01 a -13.9 -13.9 -13.9 --- --- 19.1 E 0.32 22.6 -25.3 --- --- 726.4 0.022 0.000 6.5 4 1
02/07/06 7:02 a -13.9 -13.8 -13.9 --- --- 20.9 E 0.35 23.5 -25.7 --- --- 726.3 0.022 0.000 6.6 4 1
02/07/06 7:03 a -13.9 -13.8 -13.9 --- --- 21.7 E 0.36 24.3 -25.9 --- --- 726.3 0.022 0.000 6.6 4 1
02/07/06 7:04 a -13.9 -13.8 -13.9 --- --- 18.3 E 0.30 22.6 -25.1 --- --- 726.4 0.022 0.000 6.6 4 1
02/07/06 7:05 a -13.9 -13.8 -13.9 --- --- 19.1 E 0.32 23.5 -25.3 --- --- 726.4 0.022 0.000 6.6 4 1
02/07/06 7:06 a -13.8 -13.8 -13.9 --- --- 20.0 E 0.33 22.6 -25.4 --- --- 726.4 0.022 0.000 6.6 4 1
02/07/06 7:07 a -13.9 -13.9 -13.9 --- --- 19.1 E 0.32 20.9 -25.3 --- --- 726.4 0.022 0.000 6.6 4 1
02/07/06 7:08 a -13.9 -13.8 -13.9 --- --- 19.1 E 0.32 21.7 -25.3 --- --- 726.4 0.022 0.000 6.6 4 1
02/07/06 7:09 a -13.8 -13.8 -13.8 --- --- 20.0 E 0.33 22.6 -25.4 --- --- 726.4 0.022 0.000 6.6 4 1
02/07/06 7:10 a -13.9 -13.8 -13.9 --- --- 19.1 E 0.32 23.5 -25.3 --- --- 726.4 0.022 0.000 6.6 4 1
02/07/06 7:11 a -13.9 -13.8 -13.9 --- --- 19.1 E 0.32 21.7 -25.3 --- --- 726.3 0.022 0.000 6.7 4 1
02/07/06 7:12 a -13.9 -13.8 -13.9 --- --- 19.1 E 0.32 22.6 -25.3 --- --- 726.4 0.022 0.000 6.6 4 1
02/07/06 7:13 a -13.8 -13.8 -13.9 --- --- 19.1 E 0.32 21.7 -25.2 --- --- 726.4 0.022 0.000 6.7 4 1
02/07/06 7:14 a -13.8 -13.8 -13.9 --- --- 18.3 E 0.30 23.5 -25.0 --- --- 726.3 0.022 0.000 6.6 4 1
02/07/06 7:15 a -13.8 -13.8 -13.8 --- --- 20.9 E 0.35 23.5 -25.6 --- --- 726.4 0.022 0.000 6.6 4 1
02/07/06 7:16 a -13.8 -13.8 -13.9 --- --- 18.3 E 0.30 22.6 -25.0 --- --- 726.5 0.022 0.000 6.6 4 1
02/07/06 7:17 a -13.8 -13.8 -13.8 --- --- 18.3 E 0.30 22.6 -25.0 --- --- 726.4 0.022 0.000 6.6 4 1
02/07/06 7:18 a -13.8 -13.8 -13.8 --- --- 20.0 E 0.33 23.5 -25.4 --- --- 726.3 0.022 0.000 6.6 4 1
02/07/06 7:19 a -13.8 -13.8 -13.8 --- --- 20.0 E 0.33 25.2 -25.4 --- --- 726.3 0.022 0.000 6.6 4 1
02/07/06 7:20 a -13.9 -13.8 -13.9 --- --- 20.0 E 0.33 21.7 -25.5 --- --- 726.3 0.022 0.000 6.6 4 1
02/07/06 7:21 a -13.9 -13.9 -13.9 --- --- 20.0 E 0.33 23.5 -25.5 --- --- 726.3 0.022 0.000 6.5 4 1
02/07/06 7:22 a -13.9 -13.9 -13.9 --- --- 19.1 E 0.32 20.9 -25.3 --- --- 726.3 0.022 0.000 6.5 4 1
02/07/06 7:23 a -13.9 -13.8 -13.9 --- --- 18.3 E 0.30 20.9 -25.1 --- --- 726.4 0.022 0.000 6.5 4 1
02/07/06 7:24 a -13.8 -13.8 -13.9 --- --- 18.3 E 0.30 20.9 -25.0 --- --- 726.3 0.022 0.000 6.6 4 1
02/07/06 7:25 a -13.9 -13.8 -13.9 --- --- 20.0 E 0.33 23.5 -25.5 --- --- 726.3 0.022 0.000 6.6 4 1
02/07/06 7:26 a -13.9 -13.8 -13.9 --- --- 19.1 E 0.32 23.5 -25.3 --- --- 726.4 0.022 0.000 6.6 4 1
02/07/06 7:27 a -13.9 -13.9 -13.9 --- --- 19.1 E 0.32 23.5 -25.3 --- --- 726.4 0.022 0.000 6.6 4 1
02/07/06 7:28 a -13.9 -13.9 -13.9 --- --- 20.0 E 0.33 22.6 -25.5 --- --- 726.4 0.022 0.000 6.6 4 1
02/07/06 7:29 a -13.9 -13.9 -13.9 --- --- 20.0 E 0.33 22.6 -25.5 --- --- 726.4 0.022 0.000 6.6 4 1
02/07/06 7:30 a -13.9 -13.9 -13.9 --- --- 19.1 E 0.32 22.6 -25.3 --- --- 726.4 0.022 0.000 6.6 4 1
02/07/06 7:31 a -13.9 -13.9 -13.9 --- --- 18.3 E 0.30 20.9 -25.2 --- --- 726.4 0.022 0.000 6.6 4 1
02/07/06 7:32 a -13.9 -13.9 -13.9 --- --- 17.4 E 0.29 20.9 -24.9 --- --- 726.4 0.022 0.000 6.5 4 1
02/07/06 7:33 a -13.9 -13.9 -13.9 --- --- 20.0 E 0.33 22.6 -25.5 --- --- 726.4 0.022 0.000 6.6 4 1
02/07/06 7:34 a -13.9 -13.9 -13.9 --- --- 17.4 E 0.29 20.0 -24.9 --- --- 726.4 0.022 0.000 6.6 4 1
02/07/06 7:35 a -13.9 -13.9 -13.9 --- --- 18.3 E 0.30 22.6 -25.2 --- --- 726.4 0.022 0.000 6.6 4 1
02/07/06 7:36 a -13.9 -13.9 -13.9 --- --- 19.1 E 0.32 22.6 -25.3 --- --- 726.4 0.022 0.000 6.6 4 1
02/07/06 7:37 a -13.9 -13.9 -13.9 --- --- 20.0 E 0.33 22.6 -25.6 --- --- 726.5 0.022 0.000 6.6 4 1
02/07/06 7:38 a -13.9 -13.9 -14.0 --- --- 18.3 E 0.30 21.7 -25.2 --- --- 726.7 0.022 0.000 6.6 4 1
02/07/06 7:39 a -13.9 -13.9 -14.0 --- --- 15.7 E 0.26 18.3 -24.4 --- --- 726.5 0.022 0.000 6.6 4 1
02/07/06 7:40 a -14.0 -14.0 -14.0 --- --- 18.3 E 0.30 20.9 -25.2 --- --- 726.5 0.022 0.000 6.6 4 1
02/07/06 7:41 a -14.0 -13.9 -14.0 --- --- 20.0 E 0.33 21.7 -25.7 --- --- 726.4 0.022 0.000 6.6 4 1
02/07/06 7:42 a -13.9 -13.9 -14.0 --- --- 20.9 E 0.35 24.3 -25.8 --- --- 726.5 0.022 0.000 6.6 4 1
02/07/06 7:43 a -14.0 -14.0 -14.1 --- --- 18.3 E 0.30 20.9 -25.2 --- --- 726.5 0.022 0.000 6.6 4 1
02/07/06 7:44 a -14.0 -13.9 -14.1 --- --- 16.5 E 0.28 18.3 -24.7 --- --- 726.7 0.022 0.000 6.6 4 1
02/07/06 7:45 a -14.1 -14.0 -14.1 --- --- 17.4 E 0.29 20.9 -25.1 --- --- 726.6 0.022 0.000 6.5 4 1
02/07/06 7:46 a -14.1 -14.0 -14.1 --- --- 16.5 E 0.28 21.7 -24.8 --- --- 726.5 0.022 0.000 6.5 4 1
02/07/06 7:47 a -14.1 -14.0 -14.1 --- --- 18.3 E 0.30 22.6 -25.3 --- --- 726.4 0.022 0.000 6.5 4 1
02/07/06 7:48 a -14.1 -14.1 -14.1 --- --- 20.9 E 0.35 25.2 -25.9 --- --- 726.3 0.022 0.000 6.5 4 1
02/07/06 7:49 a -14.1 -14.1 -14.1 --- --- 21.7 E 0.36 25.2 -26.1 --- --- 726.3 0.022 0.000 6.4 4 1
02/07/06 7:50 a -14.1 -14.1 -14.1 --- --- 20.9 E 0.35 23.5 -25.9 --- --- 726.4 0.022 0.000 6.4 4 1
02/07/06 7:51 a -14.1 -14.1 -14.1 --- --- 20.0 E 0.33 23.5 -25.7 --- --- 726.5 0.022 0.000 6.4 4 1
02/07/06 7:52 a -14.1 -14.1 -14.1 --- --- 20.9 E 0.35 23.5 -26.0 --- --- 726.4 0.023 0.000 6.4 4 1
02/07/06 7:53 a -14.1 -14.1 -14.1 --- --- 21.7 ESE 0.36 23.5 -26.2 --- --- 726.4 0.023 0.000 6.4 4 1
02/07/06 7:54 a -14.1 -14.1 -14.1 --- --- 21.7 ESE 0.36 25.2 -26.2 --- --- 726.5 0.023 0.000 6.4 4 1
02/07/06 7:55 a -14.1 -14.1 -14.1 --- --- 20.9 E 0.35 23.5 -26.0 --- --- 726.4 0.023 0.000 6.4 4 1
02/07/06 7:56 a -14.1 -14.1 -14.2 --- --- 19.1 E 0.32 21.7 -25.6 --- --- 726.5 0.023 0.000 6.5 4 1
02/07/06 7:57 a -14.1 -14.1 -14.2 --- --- 19.1 E 0.32 23.5 -25.6 --- --- 726.5 0.023 0.000 6.5 4 1
02/07/06 7:58 a -14.2 -14.1 -14.2 --- --- 19.1 E 0.32 23.5 -25.7 --- --- 726.4 0.023 0.000 6.5 4 1
02/07/06 7:59 a -14.2 -14.2 -14.2 --- --- 21.7 E 0.36 24.3 -26.3 --- --- 726.4 0.023 0.000 6.5 4 1
02/07/06 8:00 a -14.2 -14.2 -14.2 --- --- 20.0 E 0.33 23.5 -25.9 --- --- 726.5 0.023 0.000 6.5 4 1
02/07/06 8:01 a -14.2 -14.2 -14.2 --- --- 19.1 E 0.32 20.9 -25.7 --- --- 726.6 0.023 0.000 6.5 4 1
02/07/06 8:03 a -14.2 -14.2 -14.2 --- --- 21.7 E 0.36 25.2 -26.3 --- --- 726.3 0.023 0.000 6.6 4 1
02/07/06 8:04 a -14.2 -14.2 -14.2 --- --- 20.9 E 0.35 23.5 -26.1 --- --- 726.4 0.023 0.000 6.6 4 1
02/07/06 8:05 a -14.2 -14.2 -14.2 --- --- 21.7 E 0.36 25.2 -26.3 --- --- 726.3 0.023 0.000 6.6 4 1
02/07/06 8:06 a -14.2 -14.2 -14.2 --- --- 23.5 E 0.39 26.1 -26.7 --- --- 726.4 0.023 0.000 6.6 4 1
02/07/06 8:07 a -14.2 -14.2 -14.2 --- --- 20.9 E 0.35 23.5 -26.2 --- --- 726.5 0.023 0.000 6.6 4 1
02/07/06 8:08 a -14.2 -14.2 -14.2 --- --- 18.3 E 0.30 22.6 -25.5 --- --- 726.5 0.023 0.000 6.6 4 1
02/07/06 8:09 a -14.2 -14.2 -14.2 --- --- 21.7 E 0.36 25.2 -26.3 --- --- 726.4 0.023 0.000 6.6 4 1
02/07/06 8:10 a -14.2 -14.2 -14.2 --- --- 20.9 E 0.35 25.2 -26.2 --- --- 726.5 0.023 0.000 6.6 4 1
02/07/06 8:11 a -14.2 -14.2 -14.2 --- --- 20.0 E 0.33 23.5 -25.9 --- --- 726.6 0.023 0.000 6.6 4 1
02/07/06 8:12 a -14.2 -14.2 -14.2 --- --- 20.9 E 0.35 23.5 -26.2 --- --- 726.4 0.023 0.000 6.6 4 1
02/07/06 8:13 a -14.2 -14.2 -14.2 --- --- 20.9 E 0.35 23.5 -26.2 --- --- 726.4 0.023 0.000 6.6 4 1
02/07/06 8:14 a -14.2 -14.2 -14.2 --- --- 20.9 E 0.35 22.6 -26.2 --- --- 726.6 0.023 0.000 6.6 4 1
02/07/06 8:15 a -14.2 -14.2 -14.2 --- --- 20.9 E 0.35 22.6 -26.2 --- --- 726.6 0.023 0.000 6.6 4 1
02/07/06 8:16 a -14.2 -14.2 -14.2 --- --- 20.0 E 0.33 23.5 -25.9 --- --- 726.5 0.023 0.000 6.6 4 1
02/07/06 8:17 a -14.2 -14.2 -14.2 --- --- 20.0 E 0.33 22.6 -25.9 --- --- 726.5 0.023 0.000 6.6 4 1
02/07/06 8:18 a -14.2 -14.2 -14.2 --- --- 17.4 E 0.29 21.7 -25.3 --- --- 726.6 0.023 0.000 6.6 4 1
02/07/06 8:19 a -14.2 -14.2 -14.2 --- --- 18.3 E 0.30 21.7 -25.5 --- --- 726.5 0.023 0.000 6.5 4 1
02/07/06 8:20 a -14.2 -14.2 -14.2 --- --- 19.1 ESE 0.32 21.7 -25.7 --- --- 726.7 0.023 0.000 6.5 4 1
02/07/06 8:21 a -14.2 -14.2 -14.2 --- --- 19.1 E 0.32 21.7 -25.7 --- --- 726.6 0.023 0.000 6.5 4 1
02/07/06 8:22 a -14.2 -14.2 -14.2 --- --- 20.0 E 0.33 23.5 -25.9 --- --- 726.4 0.023 0.000 6.5 4 1
02/07/06 8:23 a -14.2 -14.2 -14.2 --- --- 20.9 ESE 0.35 24.3 -26.2 --- --- 726.4 0.023 0.000 6.5 4 1
02/07/06 8:24 a -14.2 -14.2 -14.2 --- --- 20.0 E 0.33 23.5 -25.9 --- --- 726.4 0.023 0.000 6.5 4 1
02/07/06 8:25 a -14.2 -14.2 -14.2 --- --- 18.3 E 0.30 20.9 -25.5 --- --- 726.6 0.023 0.000 6.5 4 1
02/07/06 8:26 a -14.2 -14.2 -14.2 --- --- 19.1 E 0.32 21.7 -25.7 --- --- 726.6 0.023 0.000 6.5 4 1
02/07/06 8:27 a -14.2 -14.2 -14.2 --- --- 17.4 E 0.29 20.0 -25.3 --- --- 726.4 0.023 0.000 6.6 4 1
02/07/06 8:28 a -14.2 -14.2 -14.2 --- --- 20.0 E 0.33 23.5 -25.9 --- --- 726.3 0.023 0.000 6.6 4 1
02/07/06 8:29 a -14.2 -14.2 -14.2 --- --- 20.9 E 0.35 25.2 -26.2 --- --- 726.5 0.023 0.000 6.6 4 1
02/07/06 8:30 a -14.2 -14.2 -14.2 --- --- 20.0 E 0.33 22.6 -25.9 --- --- 726.6 0.023 0.000 6.6 4 1
02/07/06 8:31 a -14.2 -14.2 -14.2 --- --- 19.1 E 0.32 22.6 -25.7 --- --- 726.5 0.023 0.000 6.6 4 1
02/07/06 8:32 a -14.2 -14.2 -14.2 --- --- 20.0 E 0.33 22.6 -25.9 --- --- 726.5 0.023 0.000 6.6 4 1
02/07/06 8:33 a -14.2 -14.2 -14.2 --- --- 20.9 E 0.35 23.5 -26.2 --- --- 726.5 0.023 0.000 6.6 4 1
02/07/06 8:34 a -14.2 -14.2 -14.2 --- --- 21.7 E 0.36 24.3 -26.3 --- --- 726.4 0.023 0.000 6.6 4 1
02/07/06 8:35 a -14.2 -14.2 -14.2 --- --- 20.9 ESE 0.35 24.3 -26.2 --- --- 726.4 0.023 0.000 6.6 4 1
02/07/06 8:36 a -14.2 -14.2 -14.2 --- --- 20.0 E 0.33 24.3 -25.9 --- --- 726.5 0.023 0.000 6.6 4 1
02/07/06 8:37 a -14.2 -14.2 -14.2 --- --- 19.1 E 0.32 21.7 -25.7 --- --- 726.5 0.023 0.000 6.6 4 1
02/07/06 8:38 a -14.2 -14.2 -14.2 --- --- 19.1 E 0.32 21.7 -25.7 --- --- 726.6 0.023 0.000 6.6 4 1
02/07/06 8:39 a -14.2 -14.2 -14.2 --- --- 20.0 E 0.33 22.6 -25.9 --- --- 726.5 0.023 0.000 6.6 4 1
02/07/06 8:40 a -14.2 -14.2 -14.2 --- --- 20.0 E 0.33 23.5 -25.9 --- --- 726.5 0.023 0.000 6.6 4 1
02/07/06 8:41 a -14.2 -14.2 -14.2 --- --- 20.9 E 0.35 23.5 -26.2 --- --- 726.4 0.023 0.000 6.6 4 1
02/07/06 8:42 a -14.2 -14.2 -14.2 --- --- 20.0 E 0.33 23.5 -25.9 --- --- 726.4 0.023 0.000 6.6 4 1
02/07/06 8:43 a -14.2 -14.2 -14.2 --- --- 20.9 E 0.35 23.5 -26.2 --- --- 726.6 0.023 0.000 6.6 4 1
02/07/06 8:44 a -14.2 -14.2 -14.2 --- --- 20.0 E 0.33 23.5 -25.9 --- --- 726.5 0.023 0.000 6.6 4 1
02/07/06 8:45 a -14.2 -14.2 -14.3 --- --- 17.4 E 0.29 20.9 -25.3 --- --- 726.5 0.023 0.000 6.6 4 1
02/07/06 8:46 a -14.2 -14.2 -14.3 --- --- 20.9 E 0.35 23.5 -26.2 --- --- 726.4 0.023 0.000 6.5 4 1
02/07/06 8:47 a -14.2 -14.2 -14.2 --- --- 21.7 E 0.36 24.3 -26.3 --- --- 726.5 0.023 0.000 6.5 4 1
02/07/06 8:48 a -14.2 -14.2 -14.2 --- --- 20.9 E 0.35 22.6 -26.2 --- --- 726.4 0.023 0.000 6.5 4 1
02/07/06 8:49 a -14.2 -14.2 -14.2 --- --- 20.0 E 0.33 24.3 -25.9 --- --- 726.5 0.023 0.000 6.5 4 1
02/07/06 8:50 a -14.2 -14.2 -14.2 --- --- 19.1 E 0.32 22.6 -25.7 --- --- 726.4 0.023 0.000 6.4 4 1
02/07/06 8:51 a -14.2 -14.2 -14.2 --- --- 18.3 E 0.30 20.9 -25.5 --- --- 726.5 0.023 0.000 6.4 4 1
02/07/06 8:52 a -14.2 -14.2 -14.3 --- --- 20.0 E 0.33 21.7 -25.9 --- --- 726.3 0.023 0.000 6.4 4 1
02/07/06 8:53 a -14.3 -14.2 -14.3 --- --- 19.1 E 0.32 23.5 -25.8 --- --- 726.4 0.023 0.000 6.4 4 1
02/07/06 8:54 a -14.3 -14.3 -14.3 --- --- 18.3 ESE 0.30 21.7 -25.6 --- --- 726.4 0.023 0.000 6.4 4 1
02/07/06 8:55 a -14.3 -14.3 -14.3 --- --- 19.1 ESE 0.32 22.6 -25.8 --- --- 726.3 0.023 0.000 6.4 4 1
02/07/06 8:56 a -14.3 -14.3 -14.3 --- --- 20.0 E 0.33 23.5 -26.0 --- --- 726.4 0.023 0.000 6.4 4 1
02/07/06 8:57 a -14.3 -14.3 -14.3 --- --- 19.1 E 0.32 22.6 -25.8 --- --- 726.5 0.023 0.000 6.4 4 1
02/07/06 8:58 a -14.3 -14.3 -14.3 --- --- 20.0 E 0.33 22.6 -26.0 --- --- 726.4 0.023 0.000 6.4 4 1
02/07/06 8:59 a -14.3 -14.3 -14.3 --- --- 20.0 E 0.33 21.7 -26.0 --- --- 726.4 0.023 0.000 6.4 4 1
02/07/06 9:00 a -14.3 -14.3 -14.3 --- --- 20.9 E 0.35 23.5 -26.2 --- --- 726.3 0.023 0.000 6.4 4 1
02/07/06 9:01 a -14.3 -14.3 -14.3 --- --- 19.1 E 0.32 22.6 -25.8 --- --- 726.4 0.023 0.000 6.5 4 1
02/07/06 9:02 a -14.3 -14.3 -14.3 --- --- 19.1 E 0.32 21.7 -25.8 --- --- 726.4 0.023 0.000 6.5 4 1
02/07/06 9:03 a -14.3 -14.3 -14.3 --- --- 18.3 E 0.30 23.5 -25.6 --- --- 726.3 0.023 0.000 6.5 4 1
02/07/06 9:04 a -14.3 -14.3 -14.3 --- --- 20.0 E 0.33 22.6 -26.0 --- --- 726.5 0.023 0.000 6.6 4 1
02/07/06 9:05 a -14.3 -14.3 -14.3 --- --- 21.7 E 0.36 24.3 -26.4 --- --- 726.3 0.023 0.000 6.6 4 1
02/07/06 9:06 a -14.3 -14.3 -14.3 --- --- 21.7 ESE 0.36 25.2 -26.4 --- --- 726.4 0.023 0.000 6.6 4 1
02/07/06 9:07 a -14.3 -14.3 -14.3 --- --- 18.3 E 0.30 23.5 -25.6 --- --- 726.4 0.023 0.000 6.6 4 1
02/07/06 9:08 a -14.3 -14.3 -14.3 --- --- 20.0 E 0.33 23.5 -26.0 --- --- 726.4 0.023 0.000 6.6 4 1
02/07/06 9:09 a -14.3 -14.3 -14.3 --- --- 20.9 E 0.35 24.3 -26.2 --- --- 726.5 0.023 0.000 6.6 4 1
02/07/06 9:10 a -14.3 -14.3 -14.3 --- --- 21.7 E 0.36 25.2 -26.4 --- --- 726.3 0.023 0.000 6.6 4 1
02/07/06 9:11 a -14.3 -14.3 -14.3 --- --- 22.6 E 0.38 25.2 -26.6 --- --- 726.4 0.023 0.000 6.6 4 1
02/07/06 9:12 a -14.3 -14.3 -14.3 --- --- 20.0 E 0.33 23.5 -26.0 --- --- 726.5 0.023 0.000 6.6 4 1
02/07/06 9:13 a -14.3 -14.3 -14.3 --- --- 18.3 E 0.30 22.6 -25.6 --- --- 726.7 0.023 0.000 6.6 4 1
02/07/06 9:14 a -14.3 -14.3 -14.3 --- --- 18.3 E 0.30 20.9 -25.6 --- --- 726.6 0.023 0.000 6.6 4 1
02/07/06 9:15 a -14.3 -14.3 -14.3 --- --- 19.1 E 0.32 20.0 -25.8 --- --- 726.5 0.023 0.000 6.6 4 1
02/07/06 9:16 a -14.3 -14.3 -14.3 --- --- 20.0 E 0.33 22.6 -26.0 --- --- 726.4 0.023 0.000 6.6 4 1
02/07/06 9:17 a -14.3 -14.3 -14.3 --- --- 19.1 E 0.32 20.9 -25.8 --- --- 726.3 0.023 0.000 6.5 4 1
02/07/06 9:18 a -14.3 -14.3 -14.3 --- --- 20.9 E 0.35 24.3 -26.2 --- --- 726.3 0.023 0.000 6.5 4 1
02/07/06 9:19 a -14.3 -14.3 -14.3 --- --- 20.9 E 0.35 24.3 -26.2 --- --- 726.3 0.023 0.000 6.5 4 1
02/07/06 9:20 a -14.3 -14.3 -14.3 --- --- 20.0 E 0.33 23.5 -26.0 --- --- 726.3 0.023 0.000 6.5 4 1
02/07/06 9:21 a -14.3 -14.3 -14.3 --- --- 21.7 E 0.36 27.0 -26.4 --- --- 726.4 0.023 0.000 6.5 4 1
02/07/06 9:22 a -14.3 -14.3 -14.3 --- --- 21.7 E 0.36 24.3 -26.4 --- --- 726.4 0.023 0.000 6.5 4 1
02/07/06 9:23 a -14.3 -14.3 -14.3 --- --- 20.0 E 0.33 24.3 -26.0 --- --- 726.5 0.023 0.000 6.5 4 1
02/07/06 9:24 a -14.3 -14.3 -14.3 --- --- 19.1 E 0.32 21.7 -25.8 --- --- 726.6 0.023 0.000 6.5 4 1
02/07/06 9:25 a -14.3 -14.3 -14.3 --- --- 19.1 E 0.32 22.6 -25.8 --- --- 726.6 0.023 0.000 6.5 4 1
02/07/06 9:26 a -14.3 -14.3 -14.3 --- --- 19.1 E 0.32 21.7 -25.8 --- --- 726.5 0.023 0.000 6.6 4 1
02/07/06 9:27 a -14.3 -14.3 -14.3 --- --- 19.1 E 0.32 21.7 -25.8 --- --- 726.6 0.023 0.000 6.6 4 1
02/07/06 9:28 a -14.3 -14.3 -14.3 --- --- 17.4 E 0.29 21.7 -25.3 --- --- 726.5 0.023 0.000 6.6 4 1
02/07/06 9:29 a -14.3 -14.3 -14.3 --- --- 18.3 E 0.30 20.9 -25.6 --- --- 726.5 0.023 0.000 6.6 4 1
02/07/06 9:30 a -14.3 -14.3 -14.3 --- --- 18.3 E 0.30 21.7 -25.6 --- --- 726.4 0.023 0.000 6.6 4 1
02/07/06 9:31 a -14.3 -14.3 -14.3 --- --- 20.9 E 0.35 25.2 -26.2 --- --- 726.3 0.023 0.000 6.6 4 1
02/07/06 9:32 a -14.3 -14.3 -14.3 --- --- 19.1 E 0.32 24.3 -25.8 --- --- 726.5 0.023 0.000 6.6 4 1
02/07/06 9:33 a -14.3 -14.3 -14.3 --- --- 18.3 E 0.30 21.7 -25.6 --- --- 726.5 0.023 0.000 6.6 4 1
02/07/06 9:34 a -14.3 -14.3 -14.3 --- --- 19.1 E 0.32 21.7 -25.8 --- --- 726.6 0.023 0.000 6.6 4 1
02/07/06 9:35 a -14.3 -14.3 -14.3 --- --- 17.4 E 0.29 20.0 -25.4 --- --- 726.5 0.023 0.000 6.6 4 1
02/07/06 9:36 a -14.3 -14.3 -14.3 --- --- 17.4 E 0.29 20.9 -25.4 --- --- 726.6 0.023 0.000 6.6 4 1
02/07/06 9:37 a -14.3 -14.3 -14.3 --- --- 17.4 E 0.29 20.0 -25.3 --- --- 726.6 0.023 0.000 6.6 4 1
02/07/06 9:38 a -14.3 -14.3 -14.3 --- --- 18.3 E 0.30 22.6 -25.7 --- --- 726.4 0.023 0.000 6.6 4 1
02/07/06 9:39 a -14.3 -14.3 -14.3 --- --- 20.9 E 0.35 23.5 -26.3 --- --- 726.5 0.023 0.000 6.6 4 1
02/07/06 9:40 a -14.3 -14.3 -14.3 --- --- 19.1 E 0.32 22.6 -25.9 --- --- 726.6 0.023 0.000 6.6 4 1
02/07/06 9:41 a -14.3 -14.3 -14.3 --- --- 16.5 E 0.28 19.1 -25.2 --- --- 726.4 0.023 0.000 6.6 4 1
02/07/06 9:42 a -14.3 -14.3 -14.3 --- --- 18.3 E 0.30 24.3 -25.7 --- --- 726.3 0.023 0.000 6.6 4 1
02/07/06 9:43 a -14.3 -14.3 -14.3 --- --- 20.0 E 0.33 24.3 -26.1 --- --- 726.5 0.023 0.000 6.5 4 1
02/07/06 9:44 a -14.3 -14.3 -14.4 --- --- 17.4 E 0.29 20.9 -25.4 --- --- 726.5 0.023 0.000 6.5 4 1
02/07/06 9:45 a -14.3 -14.3 -14.4 --- --- 17.4 E 0.29 20.0 -25.4 --- --- 726.4 0.023 0.000 6.4 4 1
02/07/06 9:46 a -14.4 -14.3 -14.4 --- --- 19.1 E 0.32 22.6 -25.9 --- --- 726.7 0.023 0.000 6.4 4 1
02/07/06 9:47 a -14.4 -14.4 -14.4 --- --- 16.5 E 0.28 19.1 -25.3 --- --- 726.6 0.023 0.000 6.4 4 1
02/07/06 9:48 a -14.4 -14.3 -14.4 --- --- 16.5 E 0.28 22.6 -25.3 --- --- 726.4 0.023 0.000 6.5 4 1
02/07/06 9:49 a -14.4 -14.3 -14.4 --- --- 19.1 E 0.32 24.3 -25.9 --- --- 726.4 0.023 0.000 6.5 4 1
02/07/06 9:50 a -14.4 -14.4 -14.4 --- --- 21.7 E 0.36 24.3 -26.6 --- --- 726.5 0.023 0.000 6.5 4 1
02/07/06 9:51 a -14.4 -14.4 -14.4 --- --- 19.1 E 0.32 23.5 -25.9 --- --- 726.5 0.023 0.000 6.5 4 1
02/07/06 9:52 a -14.4 -14.4 -14.4 --- --- 15.7 E 0.26 19.1 -25.0 --- --- 726.6 0.023 0.000 6.5 4 1
02/07/06 9:53 a -14.4 -14.4 -14.4 --- --- 12.2 E 0.20 15.7 -23.8 --- --- 726.5 0.023 0.000 6.5 4 1
02/07/06 9:54 a -14.4 -14.4 -14.4 --- --- 16.5 E 0.28 20.9 -25.3 --- --- 726.4 0.023 0.000 6.5 4 1
02/07/06 9:55 a -14.4 -14.4 -14.4 --- --- 20.9 E 0.35 24.3 -26.4 --- --- 726.4 0.023 0.000 6.5 4 1
02/07/06 9:56 a -14.4 -14.4 -14.4 --- --- 21.7 E 0.36 25.2 -26.6 --- --- 726.5 0.023 0.000 6.5 4 1
02/07/06 9:57 a -14.4 -14.4 -14.4 --- --- 20.0 E 0.33 23.5 -26.2 --- --- 726.6 0.023 0.000 6.5 4 1
02/07/06 9:58 a -14.4 -14.4 -14.4 --- --- 15.7 E 0.26 20.0 -25.1 --- --- 726.6 0.023 0.000 6.5 4 1
02/07/06 9:59 a -14.4 -14.4 -14.4 --- --- 11.3 E 0.19 17.4 -23.6 --- --- 726.6 0.023 0.000 6.6 4 1
02/07/06 10:00 a -14.4 -14.4 -14.4 --- --- 17.4 E 0.29 20.9 -25.6 --- --- 726.3 0.023 0.000 6.6 4 1
02/07/06 10:01 a -14.4 -14.4 -14.4 --- --- 21.7 E 0.36 26.1 -26.7 --- --- 726.3 0.023 0.000 6.6 4 1
02/07/06 10:02 a -14.4 -14.4 -14.4 --- --- 21.7 E 0.36 25.2 -26.7 --- --- 726.5 0.023 0.000 6.6 4 1
02/07/06 10:03 a -14.4 -14.4 -14.4 --- --- 17.4 E 0.29 20.9 -25.6 --- --- 726.6 0.023 0.000 6.6 4 1
02/07/06 10:04 a -14.4 -14.4 -14.4 --- --- 15.7 E 0.26 18.3 -25.1 --- --- 726.6 0.023 0.000 6.6 4 1
02/07/06 10:05 a -14.4 -14.4 -14.4 --- --- 18.3 E 0.30 20.9 -25.8 --- --- 726.6 0.023 0.000 6.6 4 1
02/07/06 10:06 a -14.4 -14.4 -14.4 --- --- 20.0 E 0.33 22.6 -26.2 --- --- 726.6 0.023 0.000 6.6 4 1
02/07/06 10:07 a -14.4 -14.4 -14.4 --- --- 18.3 E 0.30 23.5 -25.8 --- --- 726.7 0.023 0.000 6.6 4 1
02/07/06 10:08 a -14.4 -14.4 -14.5 --- --- 14.8 E 0.25 20.0 -24.8 --- --- 726.6 0.023 0.000 6.6 4 1
02/07/06 10:09 a -14.4 -14.4 -14.4 --- --- 18.3 E 0.30 20.0 -25.8 --- --- 726.5 0.023 0.000 6.6 4 1
02/07/06 10:10 a -14.4 -14.4 -14.5 --- --- 18.3 E 0.30 22.6 -25.8 --- --- 726.5 0.023 0.000 6.6 4 1
02/07/06 10:11 a -14.4 -14.4 -14.5 --- --- 20.0 E 0.33 21.7 -26.2 --- --- 726.4 0.023 0.000 6.6 4 1
02/07/06 10:12 a -14.5 -14.4 -14.5 --- --- 18.3 E 0.30 21.7 -25.9 --- --- 726.5 0.023 0.000 6.6 4 1
02/07/06 10:13 a -14.4 -14.4 -14.4 --- --- 20.9 E 0.35 24.3 -26.4 --- --- 726.5 0.023 0.000 6.5 4 1
02/07/06 10:14 a -14.4 -14.4 -14.4 --- --- 16.5 E 0.28 20.0 -25.3 --- --- 726.6 0.023 0.000 6.5 4 1
02/07/06 10:15 a -14.4 -14.4 -14.5 --- --- 16.5 E 0.28 20.0 -25.3 --- --- 726.5 0.023 0.000 6.6 4 1
02/07/06 10:16 a -14.4 -14.4 -14.5 --- --- 18.3 E 0.30 21.7 -25.8 --- --- 726.5 0.023 0.000 6.6 4 1
02/07/06 10:17 a -14.4 -14.4 -14.5 --- --- 18.3 E 0.30 21.7 -25.8 --- --- 726.4 0.023 0.000 6.6 4 1
02/07/06 10:18 a -14.4 -14.4 -14.4 --- --- 16.5 E 0.28 20.9 -25.3 --- --- 726.5 0.023 0.000 6.6 4 1
02/07/06 10:19 a -14.4 -14.4 -14.4 --- --- 19.1 E 0.32 21.7 -26.0 --- --- 726.6 0.023 0.000 6.6 4 1
02/07/06 10:20 a -14.4 -14.4 -14.4 --- --- 16.5 E 0.28 19.1 -25.3 --- --- 726.6 0.023 0.000 6.6 4 1
02/07/06 10:21 a -14.4 -14.3 -14.4 --- --- 13.9 E 0.23 17.4 -24.4 --- --- 726.6 0.023 0.000 6.6 4 1
02/07/06 10:22 a -14.3 -14.3 -14.4 --- --- 17.4 E 0.29 22.6 -25.4 --- --- 726.4 0.023 0.000 6.6 4 1
02/07/06 10:23 a -14.3 -14.3 -14.3 --- --- 20.9 E 0.35 24.3 -26.3 --- --- 726.4 0.023 0.000 6.6 4 1
02/07/06 10:24 a -14.3 -14.2 -14.3 --- --- 20.0 E 0.33 21.7 -26.0 --- --- 726.6 0.023 0.000 6.6 4 1
02/07/06 10:25 a -14.3 -14.2 -14.3 --- --- 15.7 E 0.26 19.1 -24.8 --- --- 726.8 0.023 0.000 6.6 4 1
02/07/06 10:26 a -14.2 -14.2 -14.2 --- --- 13.0 E 0.22 14.8 -23.9 --- --- 726.7 0.023 0.000 6.6 4 1
02/07/06 10:27 a -14.2 -14.2 -14.2 --- --- 14.8 E 0.25 18.3 -24.4 --- --- 726.5 0.023 0.000 6.7 4 1
02/07/06 10:28 a -14.2 -14.2 -14.2 --- --- 19.1 E 0.32 21.7 -25.7 --- --- 726.7 0.023 0.000 6.7 4 1
02/07/06 10:29 a -14.2 -14.2 -14.2 --- --- 19.1 E 0.32 23.5 -25.7 --- --- 726.7 0.023 0.000 6.7 4 1
02/07/06 10:30 a -14.2 -14.2 -14.2 --- --- 19.1 E 0.32 22.6 -25.7 --- --- 726.7 0.023 0.000 6.7 4 1
02/07/06 10:31 a -14.2 -14.2 -14.2 --- --- 17.4 E 0.29 19.1 -25.2 --- --- 726.8 0.023 0.000 6.7 4 1
02/07/06 10:32 a -14.2 -14.2 -14.2 --- --- 14.8 E 0.25 19.1 -24.4 --- --- 726.7 0.023 0.000 6.7 4 1
02/07/06 10:33 a -14.1 -14.1 -14.2 --- --- 15.7 E 0.26 19.1 -24.6 --- --- 726.7 0.023 0.000 6.7 4 1
02/07/06 10:34 a -14.1 -14.1 -14.1 --- --- 15.7 E 0.26 18.3 -24.6 --- --- 726.7 0.023 0.000 6.7 4 1
02/07/06 10:35 a -14.1 -14.1 -14.1 --- --- 16.5 E 0.28 19.1 -24.9 --- --- 726.7 0.023 0.000 6.6 4 1
02/07/06 10:36 a -14.1 -14.0 -14.1 --- --- 17.4 E 0.29 20.9 -25.1 --- --- 726.4 0.022 0.000 6.6 4 1
02/07/06 10:37 a -13.9 -13.9 -14.0 --- --- 18.3 E 0.30 20.9 -25.2 --- --- 726.5 0.022 0.000 6.6 4 1
02/07/06 10:38 a -13.9 -13.9 -13.9 --- --- 19.1 E 0.32 20.9 -25.3 --- --- 726.6 0.022 0.000 6.6 4 1
02/07/06 10:39 a -13.9 -13.9 -13.9 --- --- 15.7 E 0.26 20.0 -24.3 --- --- 726.5 0.022 0.000 6.6 4 1
02/07/06 10:40 a -13.9 -13.8 -13.9 --- --- 15.7 E 0.26 17.4 -24.3 --- --- 726.6 0.022 0.000 6.6 4 1
02/07/06 10:41 a -13.8 -13.8 -13.8 --- --- 15.7 E 0.26 20.0 -24.3 --- --- 726.5 0.022 0.000 6.6 4 1
02/07/06 10:42 a -13.8 -13.8 -13.8 --- --- 17.4 E 0.29 20.0 -24.7 --- --- 726.5 0.022 0.000 6.5 4 1
02/07/06 10:43 a -13.7 -13.7 -13.8 --- --- 14.8 E 0.25 17.4 -23.9 --- --- 726.5 0.022 0.000 6.6 4 1
02/07/06 10:44 a -13.7 -13.7 -13.7 --- --- 15.7 E 0.26 18.3 -24.1 --- --- 726.5 0.022 0.000 6.6 4 1
02/07/06 10:45 a -13.7 -13.7 -13.7 --- --- 19.1 E 0.32 23.5 -25.1 --- --- 726.3 0.022 0.000 6.5 4 1
02/07/06 10:46 a -13.7 -13.6 -13.7 --- --- 20.9 E 0.35 24.3 -25.4 --- --- 726.6 0.022 0.000 6.5 4 1
02/07/06 10:47 a -13.6 -13.6 -13.6 --- --- 12.2 E 0.20 15.7 -22.8 --- --- 726.7 0.022 0.000 6.5 4 1
02/07/06 10:48 a -13.6 -13.6 -13.6 --- --- 12.2 E 0.20 15.7 -22.8 --- --- 726.5 0.022 0.000 6.6 4 1
02/07/06 10:49 a -13.6 -13.6 -13.6 --- --- 15.7 E 0.26 20.0 -23.9 --- --- 726.5 0.022 0.000 6.6 4 1
02/07/06 10:50 a -13.6 -13.5 -13.6 --- --- 17.4 E 0.29 21.7 -24.4 --- --- 726.5 0.022 0.000 6.6 4 1
02/07/06 10:51 a -13.5 -13.5 -13.6 --- --- 19.1 E 0.32 22.6 -24.8 --- --- 726.5 0.022 0.000 6.6 4 1
02/07/06 10:52 a -13.5 -13.5 -13.6 --- --- 17.4 E 0.29 20.9 -24.3 --- --- 726.5 0.022 0.000 6.6 4 1
02/07/06 10:53 a -13.6 -13.6 -13.6 --- --- 16.5 E 0.28 20.0 -24.2 --- --- 726.5 0.022 0.000 6.6 4 1
02/07/06 10:54 a -13.6 -13.6 -13.6 --- --- 16.5 E 0.28 20.9 -24.2 --- --- 726.4 0.022 0.000 6.6 4 1
02/07/06 10:55 a -13.6 -13.6 -13.6 --- --- 16.5 E 0.28 19.1 -24.2 --- --- 726.5 0.022 0.000 6.6 4 1
02/07/06 10:56 a -13.6 -13.6 -13.6 --- --- 18.3 E 0.30 21.7 -24.7 --- --- 726.5 0.022 0.000 6.6 4 1
02/07/06 10:57 a -13.6 -13.6 -13.7 --- --- 17.4 E 0.29 21.7 -24.5 --- --- 726.4 0.022 0.000 6.6 4 1
02/07/06 10:58 a -13.7 -13.6 -13.7 --- --- 17.4 E 0.29 20.9 -24.6 --- --- 726.6 0.022 0.000 6.6 4 1
02/07/06 10:59 a -13.7 -13.7 -13.7 --- --- 18.3 E 0.30 20.9 -24.8 --- --- 726.6 0.022 0.000 6.6 4 1
02/07/06 11:00 a -13.7 -13.7 -13.8 --- --- 20.0 E 0.33 21.7 -25.3 --- --- 726.7 0.022 0.000 6.6 4 1
02/07/06 11:01 a -13.8 -13.8 -13.8 --- --- 16.5 E 0.28 22.6 -24.4 --- --- 726.8 0.022 0.000 6.6 4 1
02/07/06 11:03 a -13.9 -13.9 -13.9 --- --- 14.8 E 0.25 19.1 -24.2 --- --- 726.6 0.022 0.000 6.6 4 1
02/07/06 11:04 a -13.9 -13.9 -13.9 --- --- 21.7 E 0.36 26.1 -26.0 --- --- 726.5 0.022 0.000 6.6 4 1
02/07/06 11:05 a -14.0 -14.0 -14.1 --- --- 22.6 ENE 0.38 24.3 -26.2 --- --- 726.7 0.022 0.000 6.6 4 1
02/07/06 11:06 a -14.0 -14.0 -14.1 --- --- 20.9 ENE 0.35 24.3 -25.8 --- --- 726.6 0.022 0.000 6.6 4 1
02/07/06 11:07 a -14.1 -14.1 -14.1 --- --- 18.3 E 0.30 21.7 -25.4 --- --- 726.7 0.023 0.000 6.6 4 1
02/07/06 11:08 a -14.1 -14.1 -14.2 --- --- 16.5 E 0.28 19.1 -24.9 --- --- 726.6 0.023 0.000 6.6 4 1
02/07/06 11:09 a -14.2 -14.2 -14.2 --- --- 16.5 E 0.28 20.9 -24.9 --- --- 726.6 0.023 0.000 6.6 4 1
02/07/06 11:10 a -14.2 -14.2 -14.2 --- --- 15.7 E 0.26 17.4 -24.8 --- --- 726.5 0.023 0.000 6.6 4 1
02/07/06 11:11 a -14.2 -14.2 -14.3 --- --- 15.7 E 0.26 20.0 -24.8 --- --- 726.6 0.023 0.000 6.5 4 1
02/07/06 11:12 a -14.3 -14.3 -14.3 --- --- 18.3 E 0.30 23.5 -25.6 --- --- 726.6 0.023 0.000 6.5 4 1
02/07/06 11:13 a -14.3 -14.3 -14.3 --- --- 21.7 E 0.36 24.3 -26.5 --- --- 726.6 0.023 0.000 6.5 4 1
02/07/06 11:14 a -14.4 -14.3 -14.4 --- --- 18.3 E 0.30 21.7 -25.7 --- --- 726.8 0.023 0.000 6.5 4 1
02/07/06 11:15 a -14.4 -14.4 -14.4 --- --- 13.0 E 0.22 15.7 -24.2 --- --- 726.7 0.023 0.000 6.6 4 1
02/07/06 11:16 a -14.4 -14.4 -14.4 --- --- 13.9 E 0.23 16.5 -24.5 --- --- 726.6 0.023 0.000 6.6 4 1
02/07/06 11:17 a -14.4 -14.4 -14.5 --- --- 13.9 E 0.23 16.5 -24.5 --- --- 726.6 0.023 0.000 6.6 4 1
02/07/06 11:18 a -14.5 -14.5 -14.5 --- --- 19.1 ENE 0.32 23.5 -26.1 --- --- 726.6 0.023 0.000 6.6 4 1
02/07/06 11:19 a -14.5 -14.5 -14.6 --- --- 18.3 E 0.30 21.7 -25.9 --- --- 726.5 0.023 0.000 6.6 4 1
02/07/06 11:20 a -14.6 -14.6 -14.6 --- --- 16.5 E 0.28 20.0 -25.4 --- --- 726.6 0.023 0.000 6.6 4 1
02/07/06 11:21 a -14.6 -14.6 -14.6 --- --- 18.3 E 0.30 20.9 -26.0 --- --- 726.6 0.023 0.000 6.6 4 1
02/07/06 11:22 a -14.6 -14.6 -14.7 --- --- 14.8 E 0.25 16.5 -25.0 --- --- 726.7 0.023 0.000 6.6 4 1
02/07/06 11:23 a -14.7 -14.7 -14.7 --- --- 14.8 E 0.25 18.3 -25.1 --- --- 726.6 0.023 0.000 6.6 4 1
02/07/06 11:24 a -14.7 -14.7 -14.7 --- --- 17.4 E 0.29 20.0 -25.8 --- --- 726.6 0.023 0.000 6.6 4 1
02/07/06 11:25 a -14.7 -14.7 -14.7 --- --- 21.7 ENE 0.36 23.5 -27.0 --- --- 726.7 0.023 0.000 6.7 4 1
02/07/06 11:26 a -14.7 -14.7 -14.8 --- --- 20.9 ENE 0.35 22.6 -26.8 --- --- 726.7 0.023 0.000 6.7 4 1
02/07/06 11:27 a -14.8 -14.8 -14.8 --- --- 17.4 E 0.29 19.1 -26.0 --- --- 726.7 0.023 0.000 6.7 4 1
02/07/06 11:28 a -14.8 -14.8 -14.8 --- --- 13.9 E 0.23 18.3 -24.9 --- --- 726.8 0.023 0.000 6.7 4 1
02/07/06 11:29 a -14.8 -14.8 -14.8 --- --- 13.9 E 0.23 17.4 -25.0 --- --- 726.7 0.023 0.000 6.7 4 1
02/07/06 11:30 a -14.8 -14.8 -14.8 --- --- 19.1 E 0.32 21.7 -26.6 --- --- 726.6 0.023 0.000 6.7 4 1
02/07/06 11:31 a -14.9 -14.8 -14.9 --- --- 20.0 ENE 0.33 21.7 -26.8 --- --- 726.8 0.023 0.000 6.7 4 1
02/07/06 11:32 a -14.9 -14.9 -14.9 --- --- 16.5 ENE 0.28 20.0 -25.9 --- --- 727.0 0.023 0.000 6.6 4 1
02/07/06 11:33 a -14.9 -14.9 -14.9 --- --- 13.0 ENE 0.22 14.8 -24.9 --- --- 726.9 0.023 0.000 6.6 4 1
02/07/06 11:34 a -14.9 -14.9 -14.9 --- --- 10.4 E 0.17 13.0 -23.8 --- --- 726.8 0.023 0.000 6.6 4 1
02/07/06 11:35 a -15.0 -15.0 -15.0 --- --- 15.7 ENE 0.26 20.0 -25.8 --- --- 726.8 0.023 0.000 6.6 4 1
02/07/06 11:36 a -15.0 -15.0 -15.0 --- --- 18.3 ENE 0.30 20.0 -26.6 --- --- 726.7 0.023 0.000 6.6 4 1
02/07/06 11:37 a -15.1 -15.0 -15.1 --- --- 19.1 ENE 0.32 20.0 -26.8 --- --- 726.8 0.023 0.000 6.6 4 1
02/07/06 11:38 a -15.1 -15.1 -15.1 --- --- 16.5 ENE 0.28 18.3 -26.1 --- --- 726.9 0.023 0.000 6.6 4 1
02/07/06 11:39 a -15.1 -15.1 -15.1 --- --- 13.9 ENE 0.23 15.7 -25.4 --- --- 727.0 0.023 0.000 6.6 4 1
02/07/06 11:40 a -15.2 -15.1 -15.2 --- --- 11.3 E 0.19 13.9 -24.5 --- --- 726.9 0.023 0.000 6.6 4 1
02/07/06 11:41 a -15.2 -15.1 -15.2 --- --- 11.3 E 0.19 13.9 -24.5 --- --- 726.9 0.023 0.000 6.6 4 1
02/07/06 11:42 a -15.2 -15.2 -15.2 --- --- 14.8 E 0.25 18.3 -25.7 --- --- 726.8 0.023 0.000 6.6 4 1
02/07/06 11:43 a -15.2 -15.2 -15.3 --- --- 18.3 E 0.30 20.9 -26.8 --- --- 726.7 0.023 0.000 6.6 4 1
02/07/06 11:44 a -15.3 -15.3 -15.3 --- --- 18.3 E 0.30 20.9 -26.9 --- --- 726.7 0.023 0.000 6.6 4 1
02/07/06 11:45 a -15.3 -15.3 -15.3 --- --- 16.5 E 0.28 20.0 -26.5 --- --- 726.9 0.023 0.000 6.6 4 1
02/07/06 11:46 a -15.3 -15.3 -15.3 --- --- 13.0 E 0.22 14.8 -25.4 --- --- 727.0 0.023 0.000 6.6 4 1
02/07/06 11:47 a -15.3 -15.3 -15.4 --- --- 11.3 E 0.19 13.0 -24.7 --- --- 727.0 0.023 0.000 6.6 4 1
02/07/06 11:48 a -15.4 -15.4 -15.4 --- --- 10.4 E 0.17 12.2 -24.4 --- --- 726.9 0.023 0.000 6.6 4 1
02/07/06 11:49 a -15.4 -15.4 -15.4 --- --- 11.3 E 0.19 12.2 -24.8 --- --- 726.9 0.023 0.000 6.6 4 1
02/07/06 11:50 a -15.4 -15.4 -15.4 --- --- 11.3 E 0.19 12.2 -24.8 --- --- 727.0 0.023 0.000 6.6 4 1
02/07/06 11:51 a -15.4 -15.4 -15.5 --- --- 13.0 E 0.22 14.8 -25.5 --- --- 726.8 0.023 0.000 6.6 4 1
02/07/06 11:52 a -15.5 -15.5 -15.5 --- --- 15.7 E 0.26 20.0 -26.4 --- --- 726.8 0.023 0.000 6.6 4 1
02/07/06 11:53 a -15.6 -15.6 -15.6 --- --- 22.6 ENE 0.38 25.2 -28.3 --- --- 726.7 0.024 0.000 6.6 4 1
02/07/06 11:54 a -15.6 -15.6 -15.6 --- --- 21.7 ENE 0.36 22.6 -28.1 --- --- 726.9 0.024 0.000 6.6 4 1
02/07/06 11:55 a -15.6 -15.6 -15.6 --- --- 18.3 ENE 0.30 20.9 -27.3 --- --- 726.9 0.024 0.000 6.6 4 1
02/07/06 11:56 a -15.6 -15.6 -15.6 --- --- 18.3 E 0.30 20.0 -27.3 --- --- 727.0 0.024 0.000 6.6 4 1
02/07/06 11:57 a -15.6 -15.6 -15.6 --- --- 14.8 E 0.25 17.4 -26.2 --- --- 727.1 0.024 0.000 6.6 4 1
02/07/06 11:58 a -15.6 -15.6 -15.6 --- --- 11.3 E 0.19 13.0 -25.0 --- --- 727.1 0.024 0.000 6.6 4 1
02/07/06 11:59 a -15.6 -15.6 -15.6 --- --- 9.6 E 0.16 12.2 -24.2 --- --- 727.2 0.024 0.000 6.6 4 1
02/07/06 12:00 p -15.6 -15.6 -15.6 --- --- 9.6 E 0.16 12.2 -24.2 --- --- 727.1 0.024 0.000 6.6 4 1
02/07/06 12:01 p -15.5 -15.5 -15.5 --- --- 13.0 E 0.22 15.7 -25.6 --- --- 727.0 0.023 0.000 6.6 4 1
02/07/06 12:02 p -15.5 -15.5 -15.6 --- --- 16.5 E 0.28 19.1 -26.7 --- --- 726.9 0.023 0.000 6.6 4 1
02/07/06 12:03 p -15.5 -15.5 -15.6 --- --- 18.3 E 0.30 20.9 -27.2 --- --- 726.8 0.023 0.000 6.6 4 1
02/07/06 12:04 p -15.5 -15.5 -15.5 --- --- 20.9 E 0.35 23.5 -27.8 --- --- 726.8 0.023 0.000 6.6 4 1
02/07/06 12:05 p -15.4 -15.4 -15.5 --- --- 19.1 E 0.32 21.7 -27.3 --- --- 726.7 0.023 0.000 6.6 4 1
02/07/06 12:06 p -15.4 -15.4 -15.4 --- --- 17.4 E 0.29 20.0 -26.9 --- --- 726.8 0.023 0.000 6.6 4 1
02/07/06 12:07 p -15.4 -15.4 -15.4 --- --- 16.5 E 0.28 18.3 -26.6 --- --- 726.9 0.023 0.000 6.5 4 1
02/07/06 12:08 p -15.4 -15.4 -15.4 --- --- 14.8 E 0.25 16.5 -26.0 --- --- 726.8 0.023 0.000 6.5 4 1
02/07/06 12:09 p -15.4 -15.3 -15.4 --- --- 13.0 E 0.22 16.5 -25.4 --- --- 727.0 0.023 0.000 6.6 4 1
02/07/06 12:10 p -15.4 -15.3 -15.4 --- --- 12.2 E 0.20 13.9 -25.1 --- --- 726.9 0.023 0.000 6.6 4 1
02/07/06 12:11 p -15.3 -15.3 -15.4 --- --- 13.9 E 0.23 17.4 -25.7 --- --- 726.8 0.023 0.000 6.6 4 1
02/07/06 12:12 p -15.3 -15.3 -15.3 --- --- 15.7 E 0.26 19.1 -26.2 --- --- 726.8 0.023 0.000 6.6 4 1
02/07/06 12:13 p -15.3 -15.3 -15.3 --- --- 13.9 E 0.23 16.5 -25.7 --- --- 726.8 0.023 0.000 6.6 4 1
02/07/06 12:14 p -15.3 -15.3 -15.3 --- --- 13.9 E 0.23 16.5 -25.7 --- --- 726.8 0.023 0.000 6.6 4 1
02/07/06 12:15 p -15.3 -15.3 -15.3 --- --- 16.5 E 0.28 21.7 -26.4 --- --- 726.6 0.023 0.000 6.6 4 1
02/07/06 12:16 p -15.3 -15.2 -15.3 --- --- 20.0 E 0.33 21.7 -27.3 --- --- 726.7 0.023 0.000 6.6 4 1
02/07/06 12:17 p -15.3 -15.3 -15.3 --- --- 19.1 E 0.32 22.6 -27.1 --- --- 726.7 0.023 0.000 6.6 4 1
02/07/06 12:18 p -15.3 -15.2 -15.3 --- --- 19.1 E 0.32 20.0 -27.1 --- --- 726.8 0.023 0.000 6.6 4 1
02/07/06 12:19 p -15.2 -15.2 -15.2 --- --- 17.4 E 0.29 20.9 -26.6 --- --- 726.8 0.023 0.000 6.6 4 1
02/07/06 12:20 p -15.2 -15.2 -15.2 --- --- 14.8 E 0.25 16.5 -25.7 --- --- 726.8 0.023 0.000 6.6 4 1
02/07/06 12:21 p -15.2 -15.2 -15.2 --- --- 13.9 E 0.23 15.7 -25.4 --- --- 726.9 0.023 0.000 6.6 4 1
02/07/06 12:22 p -15.1 -15.1 -15.2 --- --- 12.2 E 0.20 14.8 -24.8 --- --- 726.9 0.023 0.000 6.7 4 1
02/07/06 12:23 p -15.1 -15.1 -15.1 --- --- 11.3 E 0.19 14.8 -24.4 --- --- 726.9 0.023 0.000 6.7 4 1
02/07/06 12:24 p -15.1 -15.1 -15.1 --- --- 13.0 E 0.22 17.4 -25.1 --- --- 726.8 0.023 0.000 6.7 4 1
02/07/06 12:25 p -15.1 -15.1 -15.1 --- --- 16.5 E 0.28 20.9 -26.1 --- --- 726.7 0.023 0.000 6.7 4 1
02/07/06 12:26 p -15.1 -15.0 -15.1 --- --- 19.1 E 0.32 23.5 -26.8 --- --- 726.7 0.023 0.000 6.7 4 1
02/07/06 12:27 p -15.0 -15.0 -15.1 --- --- 21.7 ENE 0.36 23.5 -27.4 --- --- 726.7 0.023 0.000 6.7 4 1
02/07/06 12:28 p -15.0 -15.0 -15.1 --- --- 19.1 E 0.32 22.6 -26.8 --- --- 726.8 0.023 0.000 6.7 4 1
02/07/06 12:29 p -15.0 -15.0 -15.0 --- --- 15.7 E 0.26 20.0 -25.8 --- --- 726.8 0.023 0.000 6.6 4 1
02/07/06 12:30 p -14.9 -14.9 -14.9 --- --- 15.7 E 0.26 19.1 -25.7 --- --- 726.8 0.023 0.000 6.6 4 1
02/07/06 12:31 p -14.9 -14.9 -14.9 --- --- 16.5 E 0.28 18.3 -26.0 --- --- 726.8 0.023 0.000 6.6 4 1
02/07/06 12:32 p -14.9 -14.9 -14.9 --- --- 14.8 E 0.25 17.4 -25.4 --- --- 726.8 0.023 0.000 6.6 4 1
02/07/06 12:33 p -14.9 -14.9 -14.9 --- --- 14.8 E 0.25 17.4 -25.4 --- --- 726.8 0.023 0.000 6.6 4 1
02/07/06 12:34 p -14.9 -14.9 -14.9 --- --- 13.9 E 0.23 16.5 -25.1 --- --- 726.7 0.023 0.000 6.6 4 1
02/07/06 12:35 p -14.9 -14.9 -14.9 --- --- 13.9 E 0.23 17.4 -25.1 --- --- 726.7 0.023 0.000 6.6 4 1
02/07/06 12:36 p -14.8 -14.8 -14.9 --- --- 17.4 E 0.29 20.9 -26.1 --- --- 726.6 0.023 0.000 6.6 4 1
02/07/06 12:37 p -14.8 -14.8 -14.9 --- --- 18.3 E 0.30 20.9 -26.3 --- --- 726.7 0.023 0.000 6.6 4 1
02/07/06 12:38 p -14.8 -14.8 -14.8 --- --- 17.4 E 0.29 20.0 -26.1 --- --- 726.8 0.023 0.000 6.6 4 1
02/07/06 12:39 p -14.8 -14.8 -14.8 --- --- 15.7 ENE 0.26 17.4 -25.6 --- --- 726.7 0.023 0.000 6.6 4 1
02/07/06 12:40 p -14.8 -14.8 -14.8 --- --- 15.7 E 0.26 18.3 -25.5 --- --- 726.6 0.023 0.000 6.6 4 1
02/07/06 12:41 p -14.8 -14.8 -14.8 --- --- 16.5 E 0.28 19.1 -25.8 --- --- 726.6 0.023 0.000 6.6 4 1
02/07/06 12:42 p -14.8 -14.8 -14.8 --- --- 17.4 E 0.29 20.0 -26.0 --- --- 726.7 0.023 0.000 6.6 4 1
02/07/06 12:43 p -14.8 -14.8 -14.8 --- --- 13.9 E 0.23 17.4 -24.9 --- --- 726.7 0.023 0.000 6.6 4 1
02/07/06 12:44 p -14.8 -14.8 -14.8 --- --- 13.9 E 0.23 18.3 -24.9 --- --- 726.6 0.023 0.000 6.6 4 1
02/07/06 12:45 p -14.8 -14.8 -14.8 --- --- 16.5 ENE 0.28 18.3 -25.8 --- --- 726.7 0.023 0.000 6.6 4 1
02/07/06 12:46 p -14.8 -14.7 -14.8 --- --- 16.5 ENE 0.28 18.3 -25.8 --- --- 726.8 0.023 0.000 6.6 4 1
02/07/06 12:47 p -14.8 -14.7 -14.8 --- --- 15.7 E 0.26 18.3 -25.5 --- --- 726.6 0.023 0.000 6.6 4 1
02/07/06 12:48 p -14.8 -14.8 -14.8 --- --- 18.3 E 0.30 20.0 -26.2 --- --- 726.6 0.023 0.000 6.6 4 1
02/07/06 12:49 p -14.8 -14.7 -14.8 --- --- 17.4 ENE 0.29 20.0 -26.0 --- --- 726.6 0.023 0.000 6.6 4 1
02/07/06 12:50 p -14.8 -14.7 -14.8 --- --- 15.7 ENE 0.26 17.4 -25.5 --- --- 726.7 0.023 0.000 6.6 4 1
02/07/06 12:51 p -14.8 -14.7 -14.8 --- --- 14.8 E 0.25 16.5 -25.2 --- --- 726.7 0.023 0.000 6.6 4 1
02/07/06 12:52 p -14.8 -14.7 -14.8 --- --- 13.9 E 0.23 16.5 -24.9 --- --- 726.7 0.023 0.000 6.6 4 1
02/07/06 12:53 p -14.8 -14.7 -14.8 --- --- 13.0 E 0.22 14.8 -24.7 --- --- 726.6 0.023 0.000 6.6 4 1
02/07/06 12:54 p -14.8 -14.7 -14.8 --- --- 16.5 E 0.28 19.1 -25.8 --- --- 726.6 0.023 0.000 6.6 4 1
02/07/06 12:55 p -14.8 -14.8 -14.8 --- --- 18.3 ENE 0.30 20.9 -26.2 --- --- 726.8 0.023 0.000 6.6 4 1
02/07/06 12:56 p -14.8 -14.8 -14.8 --- --- 18.3 ENE 0.30 20.9 -26.2 --- --- 726.8 0.023 0.000 6.6 4 1
02/07/06 12:57 p -14.8 -14.8 -14.8 --- --- 17.4 E 0.29 19.1 -26.1 --- --- 726.7 0.023 0.000 6.6 4 1
02/07/06 12:58 p -14.8 -14.8 -14.8 --- --- 15.7 E 0.26 18.3 -25.6 --- --- 726.7 0.023 0.000 6.6 4 1
02/07/06 12:59 p -14.8 -14.8 -14.9 --- --- 18.3 E 0.30 20.9 -26.3 --- --- 726.6 0.023 0.000 6.6 4 1
02/07/06 1:00 p -14.8 -14.8 -14.8 --- --- 18.3 ENE 0.30 20.9 -26.3 --- --- 726.7 0.023 0.000 6.6 4 1
02/07/06 1:01 p -14.8 -14.8 -14.9 --- --- 18.3 ENE 0.30 19.1 -26.3 --- --- 726.7 0.023 0.000 6.6 4 1
02/07/06 1:02 p -14.8 -14.8 -14.8 --- --- 18.3 ENE 0.30 19.1 -26.3 --- --- 726.7 0.023 0.000 6.6 4 1
02/07/06 1:03 p -14.8 -14.8 -14.8 --- --- 16.5 ENE 0.28 18.3 -25.8 --- --- 726.6 0.023 0.000 6.6 4 1
02/07/06 1:04 p -14.9 -14.8 -14.9 --- --- 17.4 E 0.29 20.0 -26.2 --- --- 726.6 0.023 0.000 6.6 4 1
02/07/06 1:05 p -14.9 -14.9 -14.9 --- --- 17.4 E 0.29 21.7 -26.2 --- --- 726.6 0.023 0.000 6.6 4 1
02/07/06 1:06 p -14.9 -14.9 -14.9 --- --- 20.0 E 0.33 21.7 -26.8 --- --- 726.6 0.023 0.000 6.5 4 1
02/07/06 1:07 p -14.9 -14.9 -14.9 --- --- 19.1 ENE 0.32 20.9 -26.6 --- --- 726.6 0.023 0.000 6.5 4 1
02/07/06 1:08 p -14.9 -14.9 -14.9 --- --- 19.1 ENE 0.32 20.9 -26.6 --- --- 726.6 0.023 0.000 6.5 4 1
02/07/06 1:09 p -14.9 -14.9 -14.9 --- --- 16.5 ENE 0.28 18.3 -26.0 --- --- 726.7 0.023 0.000 6.6 4 1
02/07/06 1:10 p -14.9 -14.9 -14.9 --- --- 15.7 ENE 0.26 17.4 -25.7 --- --- 726.7 0.023 0.000 6.6 4 1
02/07/06 1:11 p -14.9 -14.9 -14.9 --- --- 16.5 ENE 0.28 18.3 -26.0 --- --- 726.5 0.023 0.000 6.6 4 1
02/07/06 1:12 p -14.9 -14.9 -14.9 --- --- 18.3 ENE 0.30 20.9 -26.4 --- --- 726.6 0.023 0.000 6.6 4 1
02/07/06 1:13 p -14.9 -14.9 -14.9 --- --- 16.5 E 0.28 20.0 -26.0 --- --- 726.5 0.023 0.000 6.6 4 1
02/07/06 1:14 p -14.9 -14.9 -14.9 --- --- 17.4 E 0.29 20.0 -26.2 --- --- 726.6 0.023 0.000 6.6 4 1
02/07/06 1:15 p -14.9 -14.9 -14.9 --- --- 17.4 E 0.29 20.0 -26.2 --- --- 726.6 0.023 0.000 6.6 4 1
02/07/06 1:16 p -15.0 -14.9 -15.0 --- --- 17.4 ENE 0.29 19.1 -26.3 --- --- 726.6 0.023 0.000 6.6 4 1
02/07/06 1:17 p -15.0 -15.0 -15.0 --- --- 16.5 ENE 0.28 19.1 -26.1 --- --- 726.6 0.023 0.000 6.6 4 1
02/07/06 1:18 p -15.0 -15.0 -15.1 --- --- 15.7 ENE 0.26 16.5 -25.8 --- --- 726.7 0.023 0.000 6.6 4 1
02/07/06 1:19 p -15.1 -15.1 -15.1 --- --- 16.5 ENE 0.28 17.4 -26.1 --- --- 726.6 0.023 0.000 6.6 4 1
02/07/06 1:20 p -15.1 -15.1 -15.1 --- --- 16.5 ENE 0.28 18.3 -26.1 --- --- 726.6 0.023 0.000 6.7 4 1
02/07/06 1:21 p -15.1 -15.1 -15.1 --- --- 16.5 ENE 0.28 17.4 -26.2 --- --- 726.8 0.023 0.000 6.7 4 1
02/07/06 1:22 p -15.1 -15.1 -15.1 --- --- 16.5 ENE 0.28 17.4 -26.2 --- --- 726.7 0.023 0.000 6.7 4 1
02/07/06 1:23 p -15.2 -15.2 -15.2 --- --- 17.4 ENE 0.29 18.3 -26.5 --- --- 726.7 0.023 0.000 6.7 4 1
02/07/06 1:24 p -15.2 -15.2 -15.2 --- --- 17.4 ENE 0.29 19.1 -26.5 --- --- 726.6 0.023 0.000 6.7 4 1
02/07/06 1:25 p -15.2 -15.2 -15.2 --- --- 17.4 ENE 0.29 19.1 -26.6 --- --- 726.7 0.023 0.000 6.7 4 1
02/07/06 1:26 p -15.2 -15.2 -15.3 --- --- 17.4 ENE 0.29 19.1 -26.6 --- --- 726.7 0.023 0.000 6.7 4 1
02/07/06 1:27 p -15.3 -15.3 -15.3 --- --- 17.4 ENE 0.29 18.3 -26.7 --- --- 726.7 0.023 0.000 6.7 4 1
02/07/06 1:28 p -15.3 -15.3 -15.3 --- --- 16.5 ENE 0.28 17.4 -26.5 --- --- 726.7 0.023 0.000 6.7 4 1
02/07/06 1:29 p -15.3 -15.3 -15.4 --- --- 17.4 ENE 0.29 18.3 -26.7 --- --- 726.6 0.023 0.000 6.7 4 1
02/07/06 1:30 p -15.4 -15.4 -15.4 --- --- 18.3 E 0.30 19.1 -27.1 --- --- 726.6 0.023 0.000 6.7 4 1
02/07/06 1:31 p -15.4 -15.4 -15.4 --- --- 17.4 ENE 0.29 19.1 -26.9 --- --- 726.6 0.023 0.000 6.7 4 1
02/07/06 1:32 p -15.4 -15.4 -15.5 --- --- 16.5 ENE 0.28 17.4 -26.6 --- --- 726.6 0.023 0.000 6.7 4 1
02/07/06 1:33 p -15.5 -15.5 -15.6 --- --- 14.8 E 0.25 16.5 -26.2 --- --- 726.5 0.023 0.000 6.7 4 1
02/07/06 1:34 p -15.6 -15.5 -15.6 --- --- 16.5 ENE 0.28 18.3 -26.8 --- --- 726.6 0.024 0.000 6.6 4 1
02/07/06 1:35 p -15.6 -15.6 -15.6 --- --- 16.5 ENE 0.28 18.3 -26.8 --- --- 726.5 0.024 0.000 6.6 4 1
02/07/06 1:36 p -15.6 -15.6 -15.6 --- --- 17.4 ENE 0.29 19.1 -27.1 --- --- 726.5 0.024 0.000 6.7 4 1
02/07/06 1:37 p -15.6 -15.6 -15.7 --- --- 17.4 ENE 0.29 18.3 -27.1 --- --- 726.5 0.024 0.000 6.7 4 1
02/07/06 1:38 p -15.7 -15.7 -15.7 --- --- 16.5 ENE 0.28 18.3 -26.9 --- --- 726.6 0.024 0.000 6.7 4 1
02/07/06 1:39 p -15.7 -15.7 -15.7 --- --- 17.4 ENE 0.29 18.3 -27.2 --- --- 726.6 0.024 0.000 6.7 4 1
02/07/06 1:40 p -15.7 -15.7 -15.7 --- --- 16.5 ENE 0.28 18.3 -27.0 --- --- 726.6 0.024 0.000 6.7 4 1
02/07/06 1:41 p -15.7 -15.7 -15.8 --- --- 16.5 ENE 0.28 17.4 -27.0 --- --- 726.6 0.024 0.000 6.7 4 1
02/07/06 1:42 p -15.8 -15.7 -15.8 --- --- 16.5 ENE 0.28 17.4 -27.1 --- --- 726.5 0.024 0.000 6.7 4 1
02/07/06 1:43 p -15.8 -15.8 -15.8 --- --- 17.4 ENE 0.29 18.3 -27.3 --- --- 726.6 0.024 0.000 6.7 4 1
02/07/06 1:44 p -15.8 -15.8 -15.8 --- --- 15.7 ENE 0.26 16.5 -26.8 --- --- 726.8 0.024 0.000 6.7 4 1
02/07/06 1:45 p -15.8 -15.8 -15.8 --- --- 13.9 ENE 0.23 15.7 -26.3 --- --- 726.8 0.024 0.000 6.7 4 1
02/07/06 1:46 p -15.8 -15.8 -15.9 --- --- 13.0 ENE 0.22 14.8 -26.0 --- --- 726.7 0.024 0.000 6.7 4 1
02/07/06 1:47 p -15.9 -15.9 -15.9 --- --- 13.9 ENE 0.23 14.8 -26.4 --- --- 726.6 0.024 0.000 6.7 4 1
02/07/06 1:48 p -15.9 -15.9 -15.9 --- --- 15.7 ENE 0.26 17.4 -27.0 --- --- 726.6 0.024 0.000 6.7 4 1
02/07/06 1:49 p -15.9 -15.9 -15.9 --- --- 16.5 ENE 0.28 17.4 -27.3 --- --- 726.6 0.024 0.000 6.7 4 1
02/07/06 1:50 p -15.9 -15.9 -16.0 --- --- 15.7 ENE 0.26 16.5 -27.0 --- --- 726.6 0.024 0.000 6.7 4 1
02/07/06 1:51 p -16.0 -16.0 -16.0 --- --- 14.8 ENE 0.25 16.5 -26.8 --- --- 726.6 0.024 0.000 6.7 4 1
02/07/06 1:52 p -16.0 -16.0 -16.0 --- --- 14.8 ENE 0.25 15.7 -26.8 --- --- 726.6 0.024 0.000 6.7 4 1
02/07/06 1:53 p -16.0 -16.0 -16.1 --- --- 15.7 ENE 0.26 16.5 -27.1 --- --- 726.5 0.024 0.000 6.6 4 1
02/07/06 1:54 p -16.0 -16.0 -16.1 --- --- 15.7 ENE 0.26 16.5 -27.1 --- --- 726.5 0.024 0.000 6.6 4 1
02/07/06 1:55 p -16.1 -16.0 -16.1 --- --- 15.7 ENE 0.26 16.5 -27.2 --- --- 726.6 0.024 0.000 6.6 4 1
02/07/06 1:56 p -16.1 -16.1 -16.1 --- --- 15.7 ENE 0.26 16.5 -27.2 --- --- 726.5 0.024 0.000 6.6 4 1
02/07/06 1:57 p -16.1 -16.1 -16.1 --- --- 15.7 ENE 0.26 16.5 -27.2 --- --- 726.5 0.024 0.000 6.6 4 1
02/07/06 1:58 p -16.1 -16.1 -16.1 --- --- 15.7 ENE 0.26 16.5 -27.2 --- --- 726.5 0.024 0.000 6.6 3 1
02/07/06 1:59 p -16.1 -16.1 -16.1 --- --- 15.7 ENE 0.26 16.5 -27.2 --- --- 726.5 0.024 0.000 6.6 4 1
02/07/06 2:00 p -16.1 -16.1 -16.1 --- --- 16.5 ENE 0.28 17.4 -27.5 --- --- 726.5 0.024 0.000 6.6 4 1
02/07/06 2:01 p -16.1 -16.1 -16.1 --- --- 16.5 ENE 0.28 18.3 -27.5 --- --- 726.5 0.024 0.000 6.6 4 1
02/07/06 2:03 p -16.1 -16.1 -16.1 --- --- 14.8 ENE 0.25 16.5 -26.9 --- --- 726.6 0.024 0.000 6.7 4 1
02/07/06 2:04 p -16.1 -16.1 -16.1 --- --- 13.9 ENE 0.23 14.8 -26.6 --- --- 726.6 0.024 0.000 6.7 4 1
02/07/06 2:05 p -16.1 -16.1 -16.1 --- --- 13.9 ENE 0.23 15.7 -26.6 --- --- 726.5 0.024 0.000 6.7 4 1
02/07/06 2:06 p -16.1 -16.1 -16.1 --- --- 14.8 ENE 0.25 15.7 -26.9 --- --- 726.5 0.024 0.000 6.7 4 1
02/07/06 2:07 p -16.1 -16.1 -16.1 --- --- 14.8 ENE 0.25 15.7 -26.9 --- --- 726.5 0.024 0.000 6.7 4 1
02/07/06 2:08 p -16.1 -16.1 -16.1 --- --- 14.8 ENE 0.25 15.7 -26.9 --- --- 726.5 0.024 0.000 6.7 4 1
02/07/06 2:09 p -16.1 -16.1 -16.1 --- --- 15.7 ENE 0.26 16.5 -27.2 --- --- 726.6 0.024 0.000 6.7 4 1
02/07/06 2:10 p -16.1 -16.1 -16.2 --- --- 16.5 ENE 0.28 17.4 -27.5 --- --- 726.6 0.024 0.000 6.7 4 1
02/07/06 2:11 p -16.1 -16.1 -16.1 --- --- 16.5 ENE 0.28 18.3 -27.5 --- --- 726.6 0.024 0.000 6.7 4 1
02/07/06 2:12 p -16.1 -16.1 -16.1 --- --- 15.7 ENE 0.26 16.5 -27.2 --- --- 726.6 0.024 0.000 6.7 4 1
02/07/06 2:13 p -16.1 -16.1 -16.1 --- --- 16.5 ENE 0.28 17.4 -27.5 --- --- 726.6 0.024 0.000 6.7 4 1
02/07/06 2:14 p -16.1 -16.1 -16.1 --- --- 14.8 ENE 0.25 15.7 -26.9 --- --- 726.6 0.024 0.000 6.7 4 1
02/07/06 2:15 p -16.1 -16.1 -16.1 --- --- 14.8 ENE 0.25 15.7 -26.9 --- --- 726.6 0.024 0.000 6.7 4 1
02/07/06 2:16 p -16.1 -16.1 -16.2 --- --- 15.7 ENE 0.26 16.5 -27.2 --- --- 726.5 0.024 0.000 6.7 4 1
02/07/06 2:17 p -16.1 -16.1 -16.1 --- --- 15.7 ENE 0.26 16.5 -27.2 --- --- 726.5 0.024 0.000 6.7 4 1
02/07/06 2:18 p -16.1 -16.1 -16.1 --- --- 14.8 ENE 0.25 15.7 -26.9 --- --- 726.5 0.024 0.000 6.7 4 1
02/07/06 2:19 p -16.1 -16.1 -16.2 --- --- 13.9 ENE 0.23 14.8 -26.7 --- --- 726.5 0.024 0.000 6.7 4 1
02/07/06 2:20 p -16.2 -16.1 -16.2 --- --- 13.9 ENE 0.23 14.8 -26.7 --- --- 726.6 0.024 0.000 6.7 3 1
02/07/06 2:21 p -16.2 -16.2 -16.2 --- --- 14.8 ENE 0.25 15.7 -27.1 --- --- 726.5 0.024 0.000 6.7 4 1
02/07/06 2:22 p -16.2 -16.2 -16.2 --- --- 15.7 ENE 0.26 16.5 -27.3 --- --- 726.5 0.024 0.000 6.7 4 1
02/07/06 2:23 p -16.2 -16.2 -16.2 --- --- 14.8 ENE 0.25 16.5 -27.1 --- --- 726.5 0.024 0.000 6.7 3 1
02/07/06 2:24 p -16.2 -16.2 -16.2 --- --- 14.8 ENE 0.25 16.5 -27.1 --- --- 726.5 0.024 0.000 6.7 4 1
02/07/06 2:25 p -16.2 -16.2 -16.2 --- --- 14.8 ENE 0.25 15.7 -27.1 --- --- 726.6 0.024 0.000 6.7 4 1
02/07/06 2:26 p -16.2 -16.2 -16.3 --- --- 13.9 ENE 0.23 14.8 -26.8 --- --- 726.5 0.024 0.000 6.7 4 1
02/07/06 2:27 p -16.3 -16.2 -16.3 --- --- 14.8 ENE 0.25 16.5 -27.2 --- --- 726.6 0.024 0.000 6.7 4 1
02/07/06 2:28 p -16.3 -16.3 -16.3 --- --- 14.8 ENE 0.25 15.7 -27.2 --- --- 726.5 0.024 0.000 6.7 4 1
02/07/06 2:29 p -16.3 -16.3 -16.3 --- --- 13.9 ENE 0.23 14.8 -26.9 --- --- 726.5 0.024 0.000 6.7 4 1
02/07/06 2:30 p -16.3 -16.3 -16.3 --- --- 13.9 ENE 0.23 14.8 -26.9 --- --- 726.4 0.024 0.000 6.7 4 1
02/07/06 2:31 p -16.3 -16.3 -16.3 --- --- 14.8 ENE 0.25 15.7 -27.2 --- --- 726.6 0.024 0.000 6.7 4 1
02/07/06 2:32 p -16.3 -16.3 -16.4 --- --- 15.7 ENE 0.26 15.7 -27.5 --- --- 726.5 0.024 0.000 6.7 4 1
02/07/06 2:33 p -16.4 -16.3 -16.4 --- --- 14.8 ENE 0.25 15.7 -27.3 --- --- 726.6 0.024 0.000 6.8 4 1
02/07/06 2:34 p -16.4 -16.4 -16.4 --- --- 15.7 ENE 0.26 15.7 -27.6 --- --- 726.6 0.024 0.000 6.8 4 1
02/07/06 2:35 p -16.4 -16.4 -16.4 --- --- 15.7 ENE 0.26 15.7 -27.6 --- --- 726.5 0.024 0.000 6.8 4 1
02/07/06 2:36 p -16.4 -16.4 -16.4 --- --- 14.8 NE 0.25 16.5 -27.4 --- --- 726.6 0.024 0.000 6.7 4 1
02/07/06 2:37 p -16.4 -16.4 -16.4 --- --- 15.7 ENE 0.26 16.5 -27.7 --- --- 726.5 0.024 0.000 6.7 4 1
02/07/06 2:38 p -16.4 -16.4 -16.4 --- --- 13.9 ENE 0.23 15.7 -27.1 --- --- 726.5 0.024 0.000 6.7 4 1
02/07/06 2:39 p -16.4 -16.4 -16.4 --- --- 13.9 ENE 0.23 14.8 -27.1 --- --- 726.6 0.024 0.000 6.7 3 1
02/07/06 2:40 p -16.4 -16.4 -16.4 --- --- 14.8 ENE 0.25 16.5 -27.4 --- --- 726.5 0.024 0.000 6.7 3 1
02/07/06 2:41 p -16.4 -16.4 -16.4 --- --- 15.7 ENE 0.26 16.5 -27.6 --- --- 726.5 0.024 0.000 6.7 3 1
02/07/06 2:42 p -16.4 -16.4 -16.4 --- --- 14.8 ENE 0.25 15.7 -27.4 --- --- 726.5 0.024 0.000 6.7 3 1
02/07/06 2:43 p -16.4 -16.4 -16.4 --- --- 13.9 ENE 0.23 14.8 -27.1 --- --- 726.5 0.024 0.000 6.6 3 1
02/07/06 2:44 p -16.4 -16.4 -16.4 --- --- 13.9 ENE 0.23 14.8 -27.1 --- --- 726.5 0.024 0.000 6.6 3 1
02/07/06 2:45 p -16.4 -16.4 -16.4 --- --- 13.9 ENE 0.23 14.8 -27.1 --- --- 726.5 0.024 0.000 6.6 4 1
02/07/06 2:46 p -16.3 -16.3 -16.4 --- --- 14.8 NE 0.25 15.7 -27.2 --- --- 726.5 0.024 0.000 6.6 3 1
02/07/06 2:47 p -16.3 -16.3 -16.3 --- --- 15.7 ENE 0.26 15.7 -27.5 --- --- 726.5 0.024 0.000 6.6 4 1
02/07/06 2:48 p -16.3 -16.3 -16.3 --- --- 14.8 ENE 0.25 15.7 -27.2 --- --- 726.6 0.024 0.000 6.6 4 1
02/07/06 2:49 p -16.3 -16.3 -16.3 --- --- 15.7 ENE 0.26 15.7 -27.5 --- --- 726.5 0.024 0.000 6.6 4 1
02/07/06 2:50 p -16.3 -16.3 -16.3 --- --- 14.8 ENE 0.25 14.8 -27.2 --- --- 726.5 0.024 0.000 6.6 4 1
02/07/06 2:51 p -16.3 -16.2 -16.3 --- --- 13.9 ENE 0.23 14.8 -26.9 --- --- 726.5 0.024 0.000 6.6 3 1
02/07/06 2:52 p -16.2 -16.2 -16.3 --- --- 13.9 ENE 0.23 14.8 -26.8 --- --- 726.5 0.024 0.000 6.6 4 1
02/07/06 2:53 p -16.2 -16.2 -16.2 --- --- 14.8 ENE 0.25 14.8 -27.1 --- --- 726.5 0.024 0.000 6.6 4 1
02/07/06 2:54 p -16.2 -16.2 -16.2 --- --- 13.9 ENE 0.23 14.8 -26.8 --- --- 726.5 0.024 0.000 6.7 4 1
02/07/06 2:55 p -16.2 -16.2 -16.2 --- --- 14.8 ENE 0.25 15.7 -27.1 --- --- 726.5 0.024 0.000 6.7 4 1
02/07/06 2:56 p -16.2 -16.2 -16.2 --- --- 14.8 ENE 0.25 15.7 -27.1 --- --- 726.5 0.024 0.000 6.7 4 1
02/07/06 2:57 p -16.2 -16.2 -16.2 --- --- 13.9 ENE 0.23 14.8 -26.7 --- --- 726.5 0.024 0.000 6.7 4 1
02/07/06 2:58 p -16.2 -16.1 -16.2 --- --- 14.8 ENE 0.25 14.8 -27.1 --- --- 726.6 0.024 0.000 6.7 4 1
02/07/06 2:59 p -16.1 -16.1 -16.2 --- --- 13.9 ENE 0.23 14.8 -26.7 --- --- 726.7 0.024 0.000 6.7 4 1
02/07/06 3:00 p -16.1 -16.1 -16.1 --- --- 13.9 ENE 0.23 14.8 -26.7 --- --- 726.6 0.024 0.000 6.7 4 1
02/07/06 3:01 p -16.1 -16.1 -16.1 --- --- 13.0 ENE 0.22 14.8 -26.4 --- --- 726.6 0.024 0.000 6.7 4 1
02/07/06 3:02 p -16.1 -16.1 -16.1 --- --- 13.0 ENE 0.22 13.9 -26.3 --- --- 726.6 0.024 0.000 6.7 4 1
02/07/06 3:03 p -16.1 -16.1 -16.1 --- --- 13.0 ENE 0.22 13.9 -26.3 --- --- 726.6 0.024 0.000 6.7 4 1
02/07/06 3:04 p -16.0 -16.0 -16.1 --- --- 13.0 ENE 0.22 13.9 -26.2 --- --- 726.6 0.024 0.000 6.7 4 1
02/07/06 3:05 p -16.0 -16.0 -16.1 --- --- 13.0 ENE 0.22 13.9 -26.2 --- --- 726.6 0.024 0.000 6.7 4 1
02/07/06 3:06 p -16.0 -16.0 -16.0 --- --- 12.2 ENE 0.20 13.0 -25.9 --- --- 726.6 0.024 0.000 6.7 3 1
02/07/06 3:07 p -15.9 -15.9 -16.0 --- --- 12.2 ENE 0.20 13.0 -25.8 --- --- 726.6 0.024 0.000 6.7 4 1
02/07/06 3:08 p -15.9 -15.9 -15.9 --- --- 12.2 ENE 0.20 13.0 -25.8 --- --- 726.7 0.024 0.000 6.6 3 1
02/07/06 3:09 p -15.9 -15.9 -15.9 --- --- 12.2 ENE 0.20 13.0 -25.8 --- --- 726.5 0.024 0.000 6.6 3 1
02/07/06 3:10 p -15.9 -15.9 -15.9 --- --- 11.3 ENE 0.19 13.0 -25.4 --- --- 726.5 0.024 0.000 6.6 3 1
02/07/06 3:11 p -15.9 -15.8 -15.9 --- --- 12.2 ENE 0.20 13.0 -25.8 --- --- 726.5 0.024 0.000 6.6 3 1
02/07/06 3:12 p -15.8 -15.8 -15.8 --- --- 13.0 ENE 0.22 13.9 -26.0 --- --- 726.5 0.024 0.000 6.6 3 1
02/07/06 3:13 p -15.8 -15.8 -15.8 --- --- 12.2 ENE 0.20 13.0 -25.7 --- --- 726.6 0.024 0.000 6.6 3 1
02/07/06 3:14 p -15.8 -15.8 -15.8 --- --- 12.2 ENE 0.20 13.0 -25.6 --- --- 726.5 0.024 0.000 6.6 4 1
02/07/06 3:15 p -15.8 -15.8 -15.8 --- --- 12.2 ENE 0.20 12.2 -25.6 --- --- 726.4 0.024 0.000 6.6 4 1
02/07/06 3:16 p -15.8 -15.8 -15.8 --- --- 12.2 ENE 0.20 13.0 -25.6 --- --- 726.5 0.024 0.000 6.6 4 1
02/07/06 3:17 p -15.8 -15.8 -15.8 --- --- 12.2 ENE 0.20 13.0 -25.6 --- --- 726.6 0.024 0.000 6.7 3 1
02/07/06 3:18 p -15.7 -15.7 -15.8 --- --- 11.3 ENE 0.19 12.2 -25.2 --- --- 726.6 0.024 0.000 6.7 3 1
02/07/06 3:19 p -15.7 -15.7 -15.8 --- --- 11.3 NE 0.19 11.3 -25.2 --- --- 726.5 0.024 0.000 6.7 3 1
02/07/06 3:20 p -15.7 -15.7 -15.7 --- --- 11.3 NE 0.19 12.2 -25.2 --- --- 726.5 0.024 0.000 6.7 4 1
02/07/06 3:21 p -15.7 -15.7 -15.7 --- --- 11.3 ENE 0.19 12.2 -25.1 --- --- 726.5 0.024 0.000 6.7 4 1
02/07/06 3:22 p -15.7 -15.7 -15.7 --- --- 10.4 NE 0.17 11.3 -24.8 --- --- 726.5 0.024 0.000 6.7 4 1
02/07/06 3:23 p -15.7 -15.6 -15.7 --- --- 11.3 NE 0.19 12.2 -25.1 --- --- 726.5 0.024 0.000 6.7 4 1
02/07/06 3:24 p -15.6 -15.6 -15.6 --- --- 10.4 NE 0.17 11.3 -24.7 --- --- 726.6 0.024 0.000 6.7 4 1
02/07/06 3:25 p -15.6 -15.6 -15.6 --- --- 10.4 NE 0.17 12.2 -24.7 --- --- 726.6 0.024 0.000 6.7 4 1
02/07/06 3:26 p -15.6 -15.6 -15.6 --- --- 11.3 NE 0.19 11.3 -25.0 --- --- 726.6 0.024 0.000 6.7 4 1
02/07/06 3:27 p -15.6 -15.6 -15.6 --- --- 10.4 NE 0.17 11.3 -24.6 --- --- 726.6 0.024 0.000 6.7 3 1
02/07/06 3:28 p -15.5 -15.5 -15.5 --- --- 10.4 NE 0.17 11.3 -24.6 --- --- 726.7 0.023 0.000 6.7 4 1
02/07/06 3:29 p -15.5 -15.4 -15.5 --- --- 9.6 NE 0.16 11.3 -24.2 --- --- 726.7 0.023 0.000 6.7 4 1
02/07/06 3:30 p -15.4 -15.4 -15.4 --- --- 9.6 NE 0.16 10.4 -24.1 --- --- 726.7 0.023 0.000 6.7 4 1
02/07/06 3:31 p -15.4 -15.4 -15.4 --- --- 10.4 NE 0.17 11.3 -24.5 --- --- 726.7 0.023 0.000 6.7 4 1
02/07/06 3:32 p -15.4 -15.4 -15.4 --- --- 10.4 NE 0.17 11.3 -24.4 --- --- 726.7 0.023 0.000 6.7 4 1
02/07/06 3:33 p -15.3 -15.3 -15.4 --- --- 10.4 NE 0.17 11.3 -24.3 --- --- 726.6 0.023 0.000 6.7 4 1
02/07/06 3:34 p -15.3 -15.3 -15.3 --- --- 10.4 NE 0.17 11.3 -24.3 --- --- 726.7 0.023 0.000 6.7 4 1
02/07/06 3:35 p -15.3 -15.3 -15.3 --- --- 10.4 NE 0.17 11.3 -24.3 --- --- 726.6 0.023 0.000 6.7 4 1
02/07/06 3:36 p -15.3 -15.3 -15.3 --- --- 10.4 NE 0.17 11.3 -24.3 --- --- 726.6 0.023 0.000 6.7 4 1
02/07/06 3:37 p -15.2 -15.2 -15.3 --- --- 9.6 NE 0.16 10.4 -23.8 --- --- 726.6 0.023 0.000 6.7 3 1
02/07/06 3:38 p -15.2 -15.2 -15.2 --- --- 9.6 NE 0.16 10.4 -23.8 --- --- 726.5 0.023 0.000 6.6 4 1
02/07/06 3:39 p -15.2 -15.2 -15.2 --- --- 9.6 NE 0.16 10.4 -23.8 --- --- 726.6 0.023 0.000 6.6 4 1
02/07/06 3:40 p -15.2 -15.1 -15.2 --- --- 8.7 NE 0.14 10.4 -23.3 --- --- 726.6 0.023 0.000 6.6 4 1
02/07/06 3:41 p -15.1 -15.1 -15.2 --- --- 8.7 NE 0.14 9.6 -23.3 --- --- 726.6 0.023 0.000 6.6 4 1
02/07/06 3:42 p -15.1 -15.1 -15.1 --- --- 8.7 NE 0.14 9.6 -23.3 --- --- 726.6 0.023 0.000 6.6 4 1
02/07/06 3:43 p -15.1 -15.1 -15.1 --- --- 8.7 NE 0.14 9.6 -23.2 --- --- 726.6 0.023 0.000 6.6 4 1
02/07/06 3:44 p -15.1 -15.1 -15.1 --- --- 9.6 NE 0.16 10.4 -23.6 --- --- 726.6 0.023 0.000 6.6 4 1
02/07/06 3:45 p -15.0 -15.0 -15.0 --- --- 9.6 NE 0.16 10.4 -23.6 --- --- 726.6 0.023 0.000 6.6 4 1
02/07/06 3:46 p -15.0 -15.0 -15.0 --- --- 9.6 NE 0.16 10.4 -23.6 --- --- 726.7 0.023 0.000 6.7 4 1
02/07/06 3:47 p -15.0 -14.9 -15.0 --- --- 8.7 NE 0.14 9.6 -23.1 --- --- 726.6 0.023 0.000 6.7 4 1
02/07/06 3:48 p -14.9 -14.9 -14.9 --- --- 9.6 NE 0.16 10.4 -23.5 --- --- 726.6 0.023 0.000 6.7 4 1
02/07/06 3:49 p -14.9 -14.9 -14.9 --- --- 8.7 NE 0.14 9.6 -23.1 --- --- 726.5 0.023 0.000 6.7 4 1
02/07/06 3:50 p -14.9 -14.9 -14.9 --- --- 8.7 NE 0.14 9.6 -23.0 --- --- 726.4 0.023 0.000 6.7 4 1
02/07/06 3:51 p -14.9 -14.9 -14.9 --- --- 10.4 NE 0.17 10.4 -23.8 --- --- 726.5 0.023 0.000 6.7 4 1
02/07/06 3:52 p -14.9 -14.9 -14.9 --- --- 9.6 NE 0.16 9.6 -23.4 --- --- 726.6 0.023 0.000 6.7 4 1
02/07/06 3:53 p -14.8 -14.8 -14.9 --- --- 8.7 NE 0.14 9.6 -22.9 --- --- 726.6 0.023 0.000 6.7 4 1
02/07/06 3:54 p -14.8 -14.8 -14.8 --- --- 8.7 NE 0.14 9.6 -22.9 --- --- 726.6 0.023 0.000 6.7 4 1
02/07/06 3:55 p -14.8 -14.8 -14.8 --- --- 8.7 NE 0.14 9.6 -22.9 --- --- 726.6 0.023 0.000 6.7 4 1
02/07/06 3:56 p -14.8 -14.8 -14.8 --- --- 8.7 NE 0.14 9.6 -22.8 --- --- 726.6 0.023 0.000 6.7 4 1
02/07/06 3:57 p -14.8 -14.7 -14.8 --- --- 8.7 NE 0.14 10.4 -22.8 --- --- 726.6 0.023 0.000 6.7 4 1
02/07/06 3:58 p -14.7 -14.7 -14.8 --- --- 8.7 NE 0.14 10.4 -22.8 --- --- 726.5 0.023 0.000 6.7 4 1
02/07/06 3:59 p -14.7 -14.7 -14.7 --- --- 7.8 NNE 0.13 9.6 -22.3 --- --- 726.6 0.023 0.000 6.7 4 1
02/07/06 4:00 p -14.7 -14.7 -14.7 --- --- 7.0 NNE 0.12 7.8 -21.8 --- --- 726.5 0.023 0.000 6.7 4 1
02/07/06 4:01 p -14.7 -14.7 -14.7 --- --- 7.8 NE 0.13 9.6 -22.3 --- --- 726.5 0.023 0.000 6.7 4 1
02/07/06 4:02 p -14.6 -14.6 -14.7 --- --- 7.8 NE 0.13 8.7 -22.2 --- --- 726.7 0.023 0.000 6.6 4 1
02/07/06 4:03 p -14.6 -14.6 -14.6 --- --- 7.8 NE 0.13 8.7 -22.1 --- --- 726.6 0.023 0.000 6.6 4 1
02/07/06 4:04 p -14.6 -14.5 -14.6 --- --- 7.8 NE 0.13 8.7 -22.1 --- --- 726.6 0.023 0.000 6.6 4 1
02/07/06 4:05 p -14.5 -14.5 -14.5 --- --- 8.7 NE 0.14 9.6 -22.5 --- --- 726.6 0.023 0.000 6.6 4 1
02/07/06 4:06 p -14.4 -14.4 -14.4 --- --- 7.8 NE 0.13 8.7 -22.0 --- --- 726.7 0.023 0.000 6.6 4 1
02/07/06 4:07 p -14.4 -14.4 -14.4 --- --- 7.0 NE 0.12 7.8 -21.5 --- --- 726.6 0.023 0.000 6.6 4 1
02/07/06 4:08 p -14.4 -14.3 -14.4 --- --- 7.0 NE 0.12 7.8 -21.4 --- --- 726.6 0.023 0.000 6.6 4 1
02/07/06 4:09 p -14.3 -14.3 -14.3 --- --- 6.1 NE 0.10 7.8 -20.8 --- --- 726.6 0.023 0.000 6.6 4 1
02/07/06 4:10 p -14.3 -14.3 -14.3 --- --- 7.0 NE 0.12 7.8 -21.3 --- --- 726.7 0.023 0.000 6.6 4 1
02/07/06 4:11 p -14.2 -14.2 -14.3 --- --- 7.0 NE 0.12 7.8 -21.2 --- --- 726.6 0.023 0.000 6.6 4 1
02/07/06 4:12 p -14.2 -14.2 -14.2 --- --- 7.0 NE 0.12 7.8 -21.2 --- --- 726.6 0.023 0.000 6.6 4 1
02/07/06 4:13 p -14.2 -14.2 -14.2 --- --- 7.0 NE 0.12 7.8 -21.2 --- --- 726.6 0.023 0.000 6.6 4 1
02/07/06 4:14 p -14.2 -14.1 -14.2 --- --- 7.0 NNE 0.12 7.8 -21.2 --- --- 726.6 0.023 0.000 6.6 4 1
02/07/06 4:15 p -14.1 -14.1 -14.1 --- --- 5.2 NNE 0.09 6.1 -19.9 --- --- 726.6 0.023 0.000 6.5 4 1
02/07/06 4:16 p -14.1 -14.1 -14.1 --- --- 5.2 NNE 0.09 6.1 -19.9 --- --- 726.5 0.022 0.000 6.5 4 1
02/07/06 4:17 p -14.0 -14.0 -14.1 --- --- 4.3 NNE 0.07 6.1 -19.1 --- --- 726.5 0.022 0.000 6.5 4 1
02/07/06 4:18 p -14.0 -13.9 -14.0 --- --- 4.3 NNE 0.07 4.3 -19.1 --- --- 726.5 0.022 0.000 6.5 4 1
02/07/06 4:19 p -13.9 -13.9 -13.9 --- --- 4.3 NNE 0.07 5.2 -19.1 --- --- 726.5 0.022 0.000 6.5 4 1
02/07/06 4:20 p -13.9 -13.9 -13.9 --- --- 3.5 NNE 0.06 4.3 -18.2 --- --- 726.5 0.022 0.000 6.6 4 1
02/07/06 4:21 p -13.9 -13.8 -13.9 --- --- 3.5 NNE 0.06 4.3 -18.2 --- --- 726.5 0.022 0.000 6.6 4 1
02/07/06 4:22 p -13.8 -13.8 -13.8 --- --- 3.5 NNE 0.06 4.3 -18.1 --- --- 726.5 0.022 0.000 6.6 4 1
02/07/06 4:23 p -13.8 -13.8 -13.8 --- --- 3.5 NNE 0.06 5.2 -18.1 --- --- 726.6 0.022 0.000 6.6 4 1
02/07/06 4:24 p -13.8 -13.7 -13.8 --- --- 3.5 NNE 0.06 4.3 -18.1 --- --- 726.5 0.022 0.000 6.6 4 1
02/07/06 4:25 p -13.7 -13.7 -13.7 --- --- 5.2 NNE 0.09 7.0 -19.5 --- --- 726.5 0.022 0.000 6.6 4 1
02/07/06 4:26 p -13.7 -13.7 -13.7 --- --- 7.0 NE 0.12 7.8 -20.6 --- --- 726.6 0.022 0.000 6.6 4 1
02/07/06 4:27 p -13.6 -13.6 -13.7 --- --- 7.0 NE 0.12 7.0 -20.5 --- --- 726.4 0.022 0.000 6.7 4 1
02/07/06 4:28 p -13.7 -13.6 -13.7 --- --- 6.1 NE 0.10 7.0 -20.0 --- --- 726.5 0.022 0.000 6.7 4 1
02/07/06 4:29 p -13.6 -13.6 -13.6 --- --- 5.2 NE 0.09 6.1 -19.3 --- --- 726.5 0.022 0.000 6.7 4 1
02/07/06 4:30 p -13.6 -13.6 -13.6 --- --- 5.2 NE 0.09 6.1 -19.3 --- --- 726.6 0.022 0.000 6.7 4 1
02/07/06 4:31 p -13.6 -13.5 -13.6 --- --- 5.2 NE 0.09 7.0 -19.3 --- --- 726.5 0.022 0.000 6.7 4 1
02/07/06 4:32 p -13.5 -13.5 -13.5 --- --- 7.0 NE 0.12 7.8 -20.3 --- --- 726.6 0.022 0.000 6.7 4 1
02/07/06 4:33 p -13.5 -13.5 -13.5 --- --- 7.0 NE 0.12 7.0 -20.3 --- --- 726.6 0.022 0.000 6.7 4 1
02/07/06 4:34 p -13.5 -13.4 -13.5 --- --- 6.1 NE 0.10 7.0 -19.8 --- --- 726.6 0.022 0.000 6.7 4 1
02/07/06 4:35 p -13.4 -13.4 -13.5 --- --- 5.2 NE 0.09 6.1 -19.2 --- --- 726.6 0.022 0.000 6.7 4 1
02/07/06 4:36 p -13.4 -13.4 -13.5 --- --- 5.2 NE 0.09 5.2 -19.2 --- --- 726.6 0.022 0.000 6.7 4 1
02/07/06 4:37 p -13.4 -13.4 -13.4 --- --- 4.3 NE 0.07 5.2 -18.4 --- --- 726.6 0.022 0.000 6.7 4 1
02/07/06 4:38 p -13.4 -13.4 -13.4 --- --- 4.3 NE 0.07 5.2 -18.4 --- --- 726.6 0.022 0.000 6.7 4 1
02/07/06 4:39 p -13.4 -13.4 -13.4 --- --- 3.5 NE 0.06 4.3 -17.7 --- --- 726.6 0.022 0.000 6.7 4 1
02/07/06 4:40 p -13.4 -13.4 -13.4 --- --- 3.5 NE 0.06 4.3 -17.7 --- --- 726.6 0.022 0.000 6.7 4 1
02/07/06 4:41 p -13.4 -13.4 -13.4 --- --- 2.6 NE 0.04 3.5 -16.6 --- --- 726.7 0.022 0.000 6.7 4 1
02/07/06 4:42 p -13.4 -13.4 -13.4 --- --- 2.6 NE 0.04 3.5 -16.6 --- --- 726.6 0.022 0.000 6.7 4 1
02/07/06 4:43 p -13.3 -13.3 -13.3 --- --- 2.6 NE 0.04 3.5 -16.6 --- --- 726.6 0.022 0.000 6.6 4 1
02/07/06 4:44 p -13.3 -13.3 -13.3 --- --- 2.6 NE 0.04 3.5 -16.6 --- --- 726.6 0.022 0.000 6.6 4 1
02/07/06 4:45 p -13.3 -13.3 -13.3 --- --- 2.6 NE 0.04 3.5 -16.5 --- --- 726.6 0.022 0.000 6.6 4 1
02/07/06 4:46 p -13.2 -13.2 -13.3 --- --- 2.6 NE 0.04 2.6 -16.4 --- --- 726.6 0.022 0.000 6.6 4 1
02/07/06 4:47 p -13.2 -13.2 -13.2 --- --- 2.6 NE 0.04 3.5 -16.4 --- --- 726.6 0.022 0.000 6.6 4 1
02/07/06 4:48 p -13.2 -13.2 -13.2 --- --- 1.7 NE 0.03 2.6 -15.1 --- --- 726.5 0.022 0.000 6.6 4 1
02/07/06 4:49 p -13.2 -13.1 -13.2 --- --- 1.7 NE 0.03 2.6 -15.1 --- --- 726.6 0.022 0.000 6.6 4 1
02/07/06 4:50 p -13.1 -13.1 -13.1 --- --- 1.7 NE 0.03 2.6 -15.0 --- --- 726.6 0.022 0.000 6.6 4 1
02/07/06 4:51 p -13.1 -13.1 -13.1 --- --- 0.9 NE 0.01 2.6 -13.1 --- --- 726.6 0.022 0.000 6.5 4 1
02/07/06 4:52 p -13.1 -13.0 -13.1 --- --- 1.7 NE 0.03 2.6 -14.9 --- --- 726.6 0.022 0.000 6.5 4 1
02/07/06 4:53 p -13.0 -13.0 -13.0 --- --- 0.0 NE 0.00 0.9 -13.0 --- --- 726.7 0.022 0.000 6.5 4 1
02/07/06 4:54 p -12.9 -12.9 -13.0 --- --- 1.7 NE 0.03 3.5 -14.8 --- --- 726.7 0.022 0.000 6.4 4 1
02/07/06 4:55 p -12.9 -12.9 -12.9 --- --- 4.3 NE 0.07 5.2 -17.9 --- --- 726.7 0.022 0.000 6.4 4 1
02/07/06 4:56 p -12.9 -12.9 -12.9 --- --- 5.2 NE 0.09 6.1 -18.5 --- --- 726.6 0.022 0.000 6.4 4 1
02/07/06 4:57 p -12.9 -12.9 -12.9 --- --- 6.1 NE 0.10 7.8 -19.1 --- --- 726.7 0.022 0.000 6.4 4 1
02/07/06 4:58 p -12.8 -12.8 -12.9 --- --- 5.2 NNE 0.09 7.0 -18.4 --- --- 726.7 0.022 0.000 6.4 4 1
02/07/06 4:59 p -12.8 -12.8 -12.9 --- --- 5.2 NE 0.09 7.0 -18.4 --- --- 726.7 0.022 0.000 6.4 4 1
02/07/06 5:00 p -12.8 -12.8 -12.8 --- --- 5.2 NE 0.09 6.1 -18.4 --- --- 726.7 0.022 0.000 6.4 4 1
02/07/06 5:01 p -12.8 -12.8 -12.8 --- --- 4.3 NE 0.07 5.2 -17.7 --- --- 726.7 0.022 0.000 6.4 4 1
02/07/06 5:02 p -12.8 -12.8 -12.8 --- --- 3.5 NNE 0.06 4.3 -16.9 --- --- 726.7 0.022 0.000 6.4 4 1
02/07/06 5:03 p -12.8 -12.7 -12.8 --- --- 4.3 NNE 0.07 6.1 -17.7 --- --- 726.8 0.022 0.000 6.4 4 1
02/07/06 5:04 p -12.7 -12.7 -12.8 --- --- 5.2 N 0.09 6.1 -18.3 --- --- 726.7 0.022 0.000 6.4 4 1
02/07/06 5:05 p -12.7 -12.7 -12.7 --- --- 5.2 N 0.09 6.1 -18.3 --- --- 726.7 0.022 0.000 6.4 4 1
02/07/06 5:06 p -12.7 -12.7 -12.7 --- --- 6.1 N 0.10 6.1 -18.8 --- --- 726.7 0.022 0.000 6.4 4 1
02/07/06 5:07 p -12.7 -12.7 -12.7 --- --- 6.1 N 0.10 7.0 -18.8 --- --- 726.7 0.022 0.000 6.4 4 1
02/07/06 5:08 p -12.6 -12.6 -12.7 --- --- 7.8 N 0.13 8.7 -19.7 --- --- 726.8 0.021 0.000 6.4 4 1
02/07/06 5:09 p -12.6 -12.6 -12.7 --- --- 7.8 N 0.13 8.7 -19.7 --- --- 726.8 0.021 0.000 6.4 4 1
02/07/06 5:10 p -12.6 -12.6 -12.7 --- --- 7.0 N 0.12 7.8 -19.3 --- --- 726.7 0.021 0.000 6.4 4 1
02/07/06 5:11 p -12.6 -12.6 -12.6 --- --- 7.0 N 0.12 7.8 -19.3 --- --- 726.7 0.021 0.000 6.4 4 1
02/07/06 5:12 p -12.6 -12.6 -12.6 --- --- 6.1 N 0.10 7.0 -18.8 --- --- 726.7 0.021 0.000 6.4 4 1
02/07/06 5:13 p -12.6 -12.6 -12.6 --- --- 7.0 N 0.12 7.8 -19.3 --- --- 726.7 0.021 0.000 6.4 4 1
02/07/06 5:14 p -12.6 -12.6 -12.6 --- --- 7.0 N 0.12 7.8 -19.3 --- --- 726.7 0.021 0.000 6.4 4 1
02/07/06 5:15 p -12.6 -12.6 -12.6 --- --- 7.8 N 0.13 8.7 -19.7 --- --- 726.7 0.021 0.000 6.4 4 1
02/07/06 5:16 p -12.6 -12.6 -12.6 --- --- 7.0 N 0.12 7.8 -19.2 --- --- 726.7 0.021 0.000 6.4 4 1
02/07/06 5:17 p -12.6 -12.6 -12.6 --- --- 7.0 N 0.12 7.8 -19.2 --- --- 726.6 0.021 0.000 6.4 4 1
02/07/06 5:18 p -12.6 -12.6 -12.6 --- --- 6.1 N 0.10 6.1 -18.7 --- --- 726.7 0.021 0.000 6.4 4 1
02/07/06 5:19 p -12.6 -12.5 -12.6 --- --- 5.2 NNE 0.09 6.1 -18.1 --- --- 726.7 0.021 0.000 6.4 4 1
02/07/06 5:20 p -12.6 -12.5 -12.6 --- --- 5.2 NNE 0.09 6.1 -18.1 --- --- 726.7 0.021 0.000 6.4 4 1
02/07/06 5:21 p -12.5 -12.5 -12.5 --- --- 5.2 NNE 0.09 6.1 -18.1 --- --- 726.6 0.021 0.000 6.4 4 1
02/07/06 5:22 p -12.5 -12.4 -12.5 --- --- 5.2 NNE 0.09 6.1 -18.1 --- --- 726.6 0.021 0.000 6.4 4 1
02/07/06 5:23 p -12.4 -12.4 -12.4 --- --- 6.1 NNE 0.10 7.0 -18.6 --- --- 726.5 0.021 0.000 6.5 4 1
02/07/06 5:24 p -12.4 -12.4 -12.4 --- --- 7.0 NNE 0.12 7.8 -19.1 --- --- 726.6 0.021 0.000 6.5 4 1
02/07/06 5:25 p -12.4 -12.4 -12.4 --- --- 6.1 NNE 0.10 7.0 -18.5 --- --- 726.6 0.021 0.000 6.6 4 1
02/07/06 5:26 p -12.4 -12.3 -12.4 --- --- 6.1 NNE 0.10 7.0 -18.5 --- --- 726.6 0.021 0.000 6.6 4 1
02/07/06 5:27 p -12.3 -12.3 -12.3 --- --- 6.1 NNE 0.10 7.8 -18.4 --- --- 726.6 0.021 0.000 6.6 4 1
02/07/06 5:28 p -12.3 -12.3 -12.3 --- --- 6.1 NNE 0.10 7.0 -18.4 --- --- 726.6 0.021 0.000 6.6 4 1
02/07/06 5:29 p -12.3 -12.3 -12.3 --- --- 6.1 NNE 0.10 7.0 -18.3 --- --- 726.6 0.021 0.000 6.6 4 1
02/07/06 5:30 p -12.3 -12.2 -12.3 --- --- 6.1 NNE 0.10 7.0 -18.3 --- --- 726.6 0.021 0.000 6.6 4 1
02/07/06 5:31 p -12.2 -12.2 -12.2 --- --- 5.2 NNE 0.09 7.0 -17.8 --- --- 726.7 0.021 0.000 6.6 4 1
02/07/06 5:32 p -12.2 -12.2 -12.2 --- --- 5.2 NNE 0.09 5.2 -17.7 --- --- 726.7 0.021 0.000 6.6 4 1
02/07/06 5:33 p -12.2 -12.2 -12.2 --- --- 4.3 NNE 0.07 5.2 -17.0 --- --- 726.7 0.021 0.000 6.7 4 1
02/07/06 5:34 p -12.1 -12.1 -12.2 --- --- 3.5 N 0.06 4.3 -16.2 --- --- 726.8 0.021 0.000 6.7 4 1
02/07/06 5:35 p -12.1 -12.1 -12.1 --- --- 4.3 N 0.07 5.2 -16.9 --- --- 726.7 0.021 0.000 6.7 4 1
02/07/06 5:36 p -12.1 -12.1 -12.1 --- --- 3.5 NNW 0.06 5.2 -16.2 --- --- 726.8 0.021 0.000 6.7 4 1
02/07/06 5:37 p -12.1 -12.1 -12.1 --- --- 3.5 NNW 0.06 5.2 -16.1 --- --- 726.7 0.021 0.000 6.6 4 1
02/07/06 5:38 p -12.1 -12.1 -12.1 --- --- 3.5 N 0.06 4.3 -16.1 --- --- 726.7 0.021 0.000 6.6 4 1
02/07/06 5:39 p -12.1 -12.1 -12.1 --- --- 3.5 N 0.06 4.3 -16.1 --- --- 726.7 0.021 0.000 6.6 4 1
02/07/06 5:40 p -12.1 -12.0 -12.1 --- --- 5.2 N 0.09 7.0 -17.6 --- --- 726.7 0.021 0.000 6.6 4 1
02/07/06 5:41 p -12.1 -12.0 -12.1 --- --- 5.2 N 0.09 6.1 -17.6 --- --- 726.7 0.021 0.000 6.6 4 1
02/07/06 5:42 p -12.0 -12.0 -12.1 --- --- 4.3 N 0.07 5.2 -16.8 --- --- 726.7 0.021 0.000 6.6 4 1
02/07/06 5:43 p -12.1 -12.1 -12.1 --- --- 4.3 N 0.07 5.2 -16.9 --- --- 726.7 0.021 0.000 6.6 4 1
02/07/06 5:44 p -12.1 -12.1 -12.1 --- --- 4.3 N 0.07 5.2 -16.9 --- --- 726.7 0.021 0.000 6.5 4 1
02/07/06 5:45 p -12.1 -12.1 -12.1 --- --- 4.3 N 0.07 5.2 -16.9 --- --- 726.7 0.021 0.000 6.5 4 1
02/07/06 5:46 p -12.1 -12.1 -12.1 --- --- 5.2 N 0.09 6.1 -17.6 --- --- 726.7 0.021 0.000 6.5 4 1
02/07/06 5:47 p -12.1 -12.1 -12.1 --- --- 5.2 N 0.09 7.0 -17.6 --- --- 726.7 0.021 0.000 6.5 4 1
02/07/06 5:48 p -12.1 -12.1 -12.1 --- --- 6.1 N 0.10 7.0 -18.1 --- --- 726.8 0.021 0.000 6.4 4 1
02/07/06 5:49 p -12.1 -12.1 -12.1 --- --- 7.0 N 0.12 7.8 -18.7 --- --- 726.7 0.021 0.000 6.4 4 1
02/07/06 5:50 p -12.1 -12.1 -12.1 --- --- 7.0 N 0.12 7.8 -18.7 --- --- 726.7 0.021 0.000 6.4 4 1
02/07/06 5:51 p -12.1 -12.1 -12.2 --- --- 7.0 N 0.12 8.7 -18.7 --- --- 726.8 0.021 0.000 6.4 4 1
02/07/06 5:52 p -12.2 -12.2 -12.2 --- --- 7.8 N 0.13 7.8 -19.2 --- --- 726.7 0.021 0.000 6.4 4 1
02/07/06 5:53 p -12.2 -12.2 -12.2 --- --- 7.0 N 0.12 7.8 -18.7 --- --- 726.8 0.021 0.000 6.4 4 1
02/07/06 5:54 p -12.2 -12.2 -12.2 --- --- 7.8 N 0.13 8.7 -19.2 --- --- 726.8 0.021 0.000 6.4 4 1
02/07/06 5:55 p -12.2 -12.2 -12.3 --- --- 7.0 N 0.12 7.8 -18.8 --- --- 726.8 0.021 0.000 6.4 4 1
02/07/06 5:56 p -12.2 -12.2 -12.3 --- --- 7.0 N 0.12 7.8 -18.8 --- --- 726.7 0.021 0.000 6.4 4 1
02/07/06 5:57 p -12.3 -12.2 -12.3 --- --- 7.0 N 0.12 7.8 -18.9 --- --- 726.8 0.021 0.000 6.4 4 1
02/07/06 5:58 p -12.3 -12.3 -12.3 --- --- 7.0 N 0.12 7.0 -18.9 --- --- 726.8 0.021 0.000 6.4 4 1
02/07/06 5:59 p -12.3 -12.3 -12.3 --- --- 7.0 N 0.12 7.0 -18.9 --- --- 726.8 0.021 0.000 6.4 4 1
02/07/06 6:00 p -12.3 -12.3 -12.3 --- --- 6.1 N 0.10 7.0 -18.4 --- --- 726.8 0.021 0.000 6.4 4 1
02/07/06 6:01 p -12.3 -12.3 -12.3 --- --- 5.2 N 0.09 6.1 -17.8 --- --- 726.8 0.021 0.000 6.4 4 1
02/07/06 6:03 p -12.3 -12.3 -12.3 --- --- 5.2 N 0.09 6.1 -17.8 --- --- 726.8 0.021 0.000 6.4 4 1
02/07/06 6:04 p -12.3 -12.3 -12.3 --- --- 5.2 N 0.09 6.1 -17.8 --- --- 726.8 0.021 0.000 6.4 4 1
02/07/06 6:05 p -12.3 -12.3 -12.3 --- --- 5.2 N 0.09 7.0 -17.8 --- --- 726.8 0.021 0.000 6.4 4 1
02/07/06 6:06 p -12.3 -12.3 -12.3 --- --- 6.1 N 0.10 7.8 -18.3 --- --- 726.8 0.021 0.000 6.4 4 1
02/07/06 6:07 p -12.3 -12.3 -12.3 --- --- 6.1 N 0.10 7.8 -18.3 --- --- 726.8 0.021 0.000 6.4 4 1
02/07/06 6:08 p -12.3 -12.3 -12.3 --- --- 5.2 N 0.09 7.0 -17.8 --- --- 726.9 0.021 0.000 6.4 4 1
02/07/06 6:09 p -12.3 -12.3 -12.3 --- --- 6.1 N 0.10 7.0 -18.3 --- --- 726.9 0.021 0.000 6.4 4 1
02/07/06 6:10 p -12.3 -12.3 -12.3 --- --- 6.1 N 0.10 7.8 -18.3 --- --- 726.8 0.021 0.000 6.4 4 1
02/07/06 6:11 p -12.3 -12.2 -12.3 --- --- 7.0 NNE 0.12 7.8 -18.9 --- --- 726.8 0.021 0.000 6.4 4 1
02/07/06 6:12 p -12.2 -12.2 -12.3 --- --- 7.8 NNE 0.13 8.7 -19.3 --- --- 726.9 0.021 0.000 6.4 4 1
02/07/06 6:13 p -12.2 -12.2 -12.2 --- --- 7.0 NNE 0.12 8.7 -18.8 --- --- 726.9 0.021 0.000 6.4 4 1
02/07/06 6:14 p -12.2 -12.2 -12.2 --- --- 6.1 NNE 0.10 7.0 -18.2 --- --- 726.8 0.021 0.000 6.3 4 1
02/07/06 6:15 p -12.2 -12.2 -12.2 --- --- 6.1 NNE 0.10 7.8 -18.2 --- --- 726.9 0.021 0.000 6.3 4 1
02/07/06 6:16 p -12.2 -12.2 -12.2 --- --- 6.1 N 0.10 7.0 -18.2 --- --- 726.9 0.021 0.000 6.3 4 1
02/07/06 6:17 p -12.1 -12.1 -12.2 --- --- 7.8 N 0.13 9.6 -19.1 --- --- 726.9 0.021 0.000 6.3 4 1
02/07/06 6:18 p -12.1 -12.1 -12.2 --- --- 8.7 N 0.14 9.6 -19.6 --- --- 726.9 0.021 0.000 6.3 4 1
02/07/06 6:19 p -12.1 -12.1 -12.1 --- --- 7.8 NNE 0.13 9.6 -19.1 --- --- 726.9 0.021 0.000 6.3 4 1
02/07/06 6:20 p -12.1 -12.1 -12.1 --- --- 7.0 NNE 0.12 8.7 -18.7 --- --- 726.8 0.021 0.000 6.3 4 1
02/07/06 6:21 p -12.1 -12.1 -12.1 --- --- 8.7 NNE 0.14 9.6 -19.6 --- --- 726.8 0.021 0.000 6.3 4 1
02/07/06 6:22 p -12.1 -12.1 -12.1 --- --- 7.0 NNE 0.12 8.7 -18.6 --- --- 726.9 0.021 0.000 6.3 4 1
02/07/06 6:23 p -12.1 -12.1 -12.1 --- --- 6.1 NNE 0.10 7.0 -18.1 --- --- 726.8 0.021 0.000 6.3 4 1
02/07/06 6:24 p -12.1 -12.0 -12.1 --- --- 6.1 NNE 0.10 7.0 -18.1 --- --- 726.8 0.021 0.000 6.3 4 1
02/07/06 6:25 p -12.0 -12.0 -12.0 --- --- 6.1 NNE 0.10 7.0 -18.0 --- --- 726.8 0.021 0.000 6.3 4 1
02/07/06 6:26 p -11.9 -11.9 -12.0 --- --- 6.1 NNE 0.10 7.0 -17.9 --- --- 726.9 0.021 0.000 6.3 4 1
02/07/06 6:27 p -11.9 -11.9 -11.9 --- --- 7.0 NNE 0.12 7.8 -18.4 --- --- 726.8 0.021 0.000 6.3 4 1
02/07/06 6:28 p -11.9 -11.9 -11.9 --- --- 6.1 NNE 0.10 7.0 -17.9 --- --- 726.8 0.021 0.000 6.3 4 1
02/07/06 6:29 p -11.9 -11.9 -11.9 --- --- 5.2 NNE 0.09 7.0 -17.4 --- --- 726.8 0.021 0.000 6.3 4 1
02/07/06 6:30 p -11.9 -11.8 -11.9 --- --- 5.2 N 0.09 7.0 -17.4 --- --- 726.8 0.021 0.000 6.3 4 1
02/07/06 6:31 p -11.8 -11.8 -11.9 --- --- 5.2 NNE 0.09 6.1 -17.3 --- --- 726.8 0.021 0.000 6.3 4 1
02/07/06 6:32 p -11.8 -11.8 -11.8 --- --- 5.2 NNE 0.09 6.1 -17.3 --- --- 726.8 0.021 0.000 6.3 4 1
02/07/06 6:33 p -11.8 -11.8 -11.8 --- --- 5.2 NNE 0.09 6.1 -17.2 --- --- 726.9 0.021 0.000 6.3 4 1
02/07/06 6:34 p -11.8 -11.7 -11.8 --- --- 5.2 NNE 0.09 6.1 -17.2 --- --- 726.8 0.021 0.000 6.3 4 1
02/07/06 6:35 p -11.7 -11.7 -11.7 --- --- 5.2 N 0.09 6.1 -17.2 --- --- 726.8 0.021 0.000 6.4 4 1
02/07/06 6:36 p -11.7 -11.7 -11.7 --- --- 3.5 NNE 0.06 5.2 -15.7 --- --- 726.8 0.021 0.000 6.4 4 1
02/07/06 6:37 p -11.7 -11.6 -11.7 --- --- 5.2 N 0.09 6.1 -17.1 --- --- 726.8 0.021 0.000 6.4 4 1
02/07/06 6:38 p -11.7 -11.6 -11.7 --- --- 4.3 N 0.07 5.2 -16.4 --- --- 726.8 0.021 0.000 6.4 4 1
02/07/06 6:39 p -11.6 -11.6 -11.7 --- --- 4.3 N 0.07 5.2 -16.4 --- --- 726.8 0.021 0.000 6.4 4 1
02/07/06 6:40 p -11.6 -11.6 -11.6 --- --- 4.3 NNE 0.07 5.2 -16.4 --- --- 726.9 0.021 0.000 6.5 4 1
02/07/06 6:41 p -11.6 -11.6 -11.6 --- --- 4.3 NNE 0.07 5.2 -16.3 --- --- 726.8 0.021 0.000 6.5 4 1
02/07/06 6:42 p -11.6 -11.5 -11.6 --- --- 4.3 N 0.07 5.2 -16.3 --- --- 726.8 0.021 0.000 6.6 4 1
02/07/06 6:43 p -11.5 -11.5 -11.6 --- --- 4.3 N 0.07 5.2 -16.2 --- --- 726.9 0.021 0.000 6.6 4 1
02/07/06 6:44 p -11.5 -11.5 -11.5 --- --- 3.5 NNE 0.06 4.3 -15.4 --- --- 726.9 0.021 0.000 6.6 4 1
02/07/06 6:45 p -11.4 -11.4 -11.5 --- --- 3.5 NNE 0.06 4.3 -15.4 --- --- 726.8 0.021 0.000 6.6 4 1
02/07/06 6:46 p -11.4 -11.4 -11.4 --- --- 3.5 NNE 0.06 4.3 -15.4 --- --- 726.9 0.021 0.000 6.6 4 1
02/07/06 6:47 p -11.4 -11.4 -11.4 --- --- 3.5 NNE 0.06 4.3 -15.3 --- --- 726.9 0.021 0.000 6.6 4 1
02/07/06 6:48 p -11.4 -11.4 -11.4 --- --- 3.5 N 0.06 4.3 -15.3 --- --- 726.8 0.021 0.000 6.7 4 1
02/07/06 6:49 p -11.4 -11.4 -11.4 --- --- 3.5 N 0.06 5.2 -15.3 --- --- 726.8 0.021 0.000 6.7 4 1
02/07/06 6:50 p -11.4 -11.4 -11.4 --- --- 5.2 N 0.09 6.1 -16.8 --- --- 726.7 0.021 0.000 6.7 4 1
02/07/06 6:51 p -11.4 -11.3 -11.4 --- --- 4.3 N 0.07 5.2 -16.1 --- --- 726.8 0.021 0.000 6.7 4 1
02/07/06 6:52 p -11.4 -11.4 -11.4 --- --- 4.3 N 0.07 5.2 -16.1 --- --- 726.8 0.021 0.000 6.6 4 1
02/07/06 6:53 p -11.4 -11.4 -11.4 --- --- 5.2 N 0.09 6.1 -16.8 --- --- 726.8 0.021 0.000 6.6 4 1
02/07/06 6:54 p -11.4 -11.4 -11.4 --- --- 3.5 N 0.06 5.2 -15.3 --- --- 726.8 0.021 0.000 6.6 4 1
02/07/06 6:55 p -11.4 -11.4 -11.4 --- --- 3.5 N 0.06 4.3 -15.3 --- --- 726.8 0.021 0.000 6.6 4 1
02/07/06 6:56 p -11.4 -11.4 -11.4 --- --- 3.5 N 0.06 5.2 -15.4 --- --- 726.9 0.021 0.000 6.6 4 1
02/07/06 6:57 p -11.4 -11.4 -11.4 --- --- 5.2 N 0.09 6.1 -16.8 --- --- 726.8 0.021 0.000 6.6 4 1
02/07/06 6:58 p -11.4 -11.4 -11.4 --- --- 5.2 N 0.09 6.1 -16.8 --- --- 726.9 0.021 0.000 6.6 4 1
02/07/06 6:59 p -11.4 -11.4 -11.4 --- --- 5.2 N 0.09 6.1 -16.8 --- --- 726.8 0.021 0.000 6.6 4 1
02/07/06 7:00 p -11.5 -11.4 -11.5 --- --- 6.1 N 0.10 7.8 -17.4 --- --- 726.8 0.021 0.000 6.6 4 1
02/07/06 7:01 p -11.5 -11.4 -11.5 --- --- 6.1 N 0.10 7.0 -17.4 --- --- 726.8 0.021 0.000 6.6 4 1
02/07/06 7:02 p -11.6 -11.6 -11.6 --- --- 6.1 N 0.10 7.0 -17.6 --- --- 726.8 0.021 0.000 6.5 4 1
02/07/06 7:03 p -11.6 -11.5 -11.6 --- --- 5.2 NNE 0.09 6.1 -16.9 --- --- 726.7 0.021 0.000 6.5 4 1
02/07/06 7:04 p -11.6 -11.6 -11.6 --- --- 4.3 NNE 0.07 5.2 -16.3 --- --- 726.7 0.021 0.000 6.4 4 1
02/07/06 7:05 p -11.6 -11.5 -11.6 --- --- 4.3 NNE 0.07 5.2 -16.3 --- --- 726.8 0.021 0.000 6.4 4 1
02/07/06 7:06 p -11.6 -11.5 -11.6 --- --- 4.3 NNE 0.07 5.2 -16.3 --- --- 726.8 0.021 0.000 6.4 4 1
02/07/06 7:07 p -11.6 -11.5 -11.6 --- --- 5.2 NE 0.09 6.1 -16.9 --- --- 726.8 0.021 0.000 6.4 4 1
02/07/06 7:08 p -11.6 -11.5 -11.6 --- --- 5.2 NNE 0.09 6.1 -16.9 --- --- 726.7 0.021 0.000 6.4 4 1
02/07/06 7:09 p -11.5 -11.5 -11.6 --- --- 4.3 NNE 0.07 5.2 -16.2 --- --- 726.8 0.021 0.000 6.4 4 1
02/07/06 7:10 p -11.5 -11.5 -11.5 --- --- 5.2 NNE 0.09 6.1 -16.9 --- --- 726.8 0.021 0.000 6.4 4 1
02/07/06 7:11 p -11.5 -11.4 -11.5 --- --- 4.3 NNE 0.07 5.2 -16.2 --- --- 726.8 0.021 0.000 6.4 4 1
02/07/06 7:12 p -11.5 -11.4 -11.5 --- --- 4.3 NNE 0.07 4.3 -16.2 --- --- 726.8 0.021 0.000 6.4 4 1
02/07/06 7:13 p -11.4 -11.4 -11.5 --- --- 3.5 NNE 0.06 4.3 -15.4 --- --- 726.8 0.021 0.000 6.4 4 1
02/07/06 7:14 p -11.5 -11.4 -11.5 --- --- 3.5 NNE 0.06 4.3 -15.4 --- --- 726.8 0.021 0.000 6.4 4 1
02/07/06 7:15 p -11.4 -11.4 -11.5 --- --- 3.5 NNE 0.06 4.3 -15.4 --- --- 726.7 0.021 0.000 6.4 4 1
02/07/06 7:16 p -11.4 -11.4 -11.5 --- --- 1.7 NNE 0.03 2.6 -13.2 --- --- 726.8 0.021 0.000 6.4 4 1
02/07/06 7:17 p -11.4 -11.4 -11.5 --- --- 1.7 NNE 0.03 3.5 -13.2 --- --- 726.7 0.021 0.000 6.4 4 1
02/07/06 7:18 p -11.4 -11.4 -11.4 --- --- 2.6 NNE 0.04 3.5 -14.4 --- --- 726.8 0.021 0.000 6.4 4 1
02/07/06 7:19 p -11.4 -11.4 -11.4 --- --- 3.5 N 0.06 4.3 -15.4 --- --- 726.8 0.021 0.000 6.4 4 1
02/07/06 7:20 p -11.4 -11.4 -11.5 --- --- 3.5 N 0.06 4.3 -15.4 --- --- 726.8 0.021 0.000 6.4 4 1
02/07/06 7:21 p -11.4 -11.4 -11.4 --- --- 4.3 N 0.07 7.0 -16.2 --- --- 726.8 0.021 0.000 6.4 4 1
02/07/06 7:22 p -11.4 -11.4 -11.5 --- --- 6.1 NNW 0.10 7.0 -17.4 --- --- 726.8 0.021 0.000 6.4 4 1
02/07/06 7:23 p -11.4 -11.4 -11.5 --- --- 5.2 NNW 0.09 6.1 -16.8 --- --- 726.7 0.021 0.000 6.4 4 1
02/07/06 7:24 p -11.5 -11.4 -11.5 --- --- 5.2 NNW 0.09 7.0 -16.9 --- --- 726.8 0.021 0.000 6.4 4 1
02/07/06 7:25 p -11.5 -11.5 -11.5 --- --- 5.2 NNW 0.09 6.1 -16.9 --- --- 726.8 0.021 0.000 6.4 4 1
02/07/06 7:26 p -11.5 -11.5 -11.5 --- --- 4.3 NNW 0.07 5.2 -16.2 --- --- 726.8 0.021 0.000 6.4 4 1
02/07/06 7:27 p -11.6 -11.5 -11.6 --- --- 5.2 N 0.09 7.8 -16.9 --- --- 726.8 0.021 0.000 6.4 4 1
02/07/06 7:28 p -11.6 -11.6 -11.6 --- --- 5.2 N 0.09 6.1 -16.9 --- --- 726.9 0.021 0.000 6.4 4 1
02/07/06 7:29 p -11.6 -11.6 -11.6 --- --- 5.2 N 0.09 7.0 -17.1 --- --- 726.9 0.021 0.000 6.4 4 1
02/07/06 7:30 p -11.7 -11.6 -11.7 --- --- 6.1 N 0.10 7.8 -17.7 --- --- 726.9 0.021 0.000 6.4 4 1
02/07/06 7:31 p -11.7 -11.7 -11.7 --- --- 6.1 NNW 0.10 7.8 -17.7 --- --- 726.8 0.021 0.000 6.4 4 1
02/07/06 7:32 p -11.7 -11.7 -11.7 --- --- 5.2 NNW 0.09 6.1 -17.1 --- --- 726.9 0.021 0.000 6.4 4 1
02/07/06 7:33 p -11.7 -11.7 -11.7 --- --- 4.3 NNW 0.07 5.2 -16.4 --- --- 726.9 0.021 0.000 6.4 4 1
02/07/06 7:34 p -11.7 -11.7 -11.7 --- --- 4.3 NNW 0.07 5.2 -16.5 --- --- 726.8 0.021 0.000 6.4 4 1
02/07/06 7:35 p -11.7 -11.7 -11.7 --- --- 4.3 N 0.07 5.2 -16.5 --- --- 726.8 0.021 0.000 6.4 4 1
02/07/06 7:36 p -11.7 -11.7 -11.8 --- --- 4.3 N 0.07 5.2 -16.5 --- --- 726.8 0.021 0.000 6.4 4 1
02/07/06 7:37 p -11.8 -11.7 -11.8 --- --- 4.3 N 0.07 5.2 -16.6 --- --- 726.8 0.021 0.000 6.4 4 1
02/07/06 7:38 p -11.8 -11.8 -11.8 --- --- 3.5 N 0.06 4.3 -15.8 --- --- 726.8 0.021 0.000 6.4 4 1
02/07/06 7:39 p -11.8 -11.8 -11.8 --- --- 3.5 N 0.06 4.3 -15.8 --- --- 726.8 0.021 0.000 6.4 4 1
02/07/06 7:40 p -11.8 -11.8 -11.8 --- --- 5.2 N 0.09 6.1 -17.2 --- --- 726.8 0.021 0.000 6.4 4 1
02/07/06 7:41 p -11.8 -11.8 -11.8 --- --- 5.2 N 0.09 7.0 -17.2 --- --- 726.8 0.021 0.000 6.4 4 1
02/07/06 7:42 p -11.8 -11.8 -11.8 --- --- 5.2 N 0.09 6.1 -17.3 --- --- 726.8 0.021 0.000 6.4 4 1
02/07/06 7:43 p -11.8 -11.8 -11.8 --- --- 6.1 N 0.10 7.0 -17.8 --- --- 726.7 0.021 0.000 6.4 4 1
02/07/06 7:44 p -11.8 -11.8 -11.8 --- --- 7.0 N 0.12 7.8 -18.3 --- --- 726.8 0.021 0.000 6.4 4 1
02/07/06 7:45 p -11.8 -11.8 -11.8 --- --- 6.1 N 0.10 7.8 -17.8 --- --- 726.8 0.021 0.000 6.4 4 1
02/07/06 7:46 p -11.8 -11.8 -11.8 --- --- 7.0 N 0.12 7.8 -18.3 --- --- 726.9 0.021 0.000 6.4 4 1
02/07/06 7:47 p -11.8 -11.8 -11.8 --- --- 6.1 N 0.10 7.8 -17.8 --- --- 726.9 0.021 0.000 6.4 4 1
02/07/06 7:48 p -11.8 -11.8 -11.9 --- --- 5.2 N 0.09 7.8 -17.3 --- --- 726.8 0.021 0.000 6.4 4 1
02/07/06 7:49 p -11.8 -11.8 -11.9 --- --- 7.0 N 0.12 8.7 -18.3 --- --- 726.8 0.021 0.000 6.4 5 1
02/07/06 7:50 p -11.9 -11.9 -11.9 --- --- 7.8 N 0.13 7.8 -18.8 --- --- 726.8 0.021 0.000 6.4 4 1
02/07/06 7:51 p -11.9 -11.9 -11.9 --- --- 7.0 N 0.12 8.7 -18.4 --- --- 726.9 0.021 0.000 6.4 4 1
02/07/06 7:52 p -11.9 -11.9 -11.9 --- --- 7.0 N 0.12 7.8 -18.4 --- --- 726.9 0.021 0.000 6.4 4 1
02/07/06 7:53 p -11.9 -11.9 -12.0 --- --- 7.0 N 0.12 7.8 -18.4 --- --- 727.0 0.021 0.000 6.4 5 1
02/07/06 7:54 p -12.0 -11.9 -12.0 --- --- 7.0 N 0.12 7.8 -18.6 --- --- 726.8 0.021 0.000 6.4 5 1
02/07/06 7:55 p -12.0 -12.0 -12.1 --- --- 7.0 N 0.12 7.8 -18.6 --- --- 726.9 0.021 0.000 6.4 4 1
02/07/06 7:56 p -12.1 -12.0 -12.1 --- --- 7.0 N 0.12 7.8 -18.6 --- --- 726.9 0.021 0.000 6.4 5 1
02/07/06 7:57 p -12.1 -12.1 -12.1 --- --- 7.8 N 0.13 8.7 -19.1 --- --- 726.9 0.021 0.000 6.4 5 1
02/07/06 7:58 p -12.1 -12.1 -12.1 --- --- 7.8 N 0.13 8.7 -19.1 --- --- 726.9 0.021 0.000 6.4 4 1
02/07/06 7:59 p -12.2 -12.2 -12.2 --- --- 7.8 N 0.13 9.6 -19.2 --- --- 726.8 0.021 0.000 6.4 4 1
02/07/06 8:00 p -12.2 -12.2 -12.2 --- --- 8.7 N 0.14 8.7 -19.6 --- --- 726.8 0.021 0.000 6.4 5 1
02/07/06 8:01 p -12.2 -12.2 -12.2 --- --- 7.8 N 0.13 8.7 -19.3 --- --- 726.8 0.021 0.000 6.4 4 1
02/07/06 8:02 p -12.2 -12.2 -12.2 --- --- 7.8 N 0.13 8.7 -19.3 --- --- 726.8 0.021 0.000 6.4 5 1
02/07/06 8:03 p -12.2 -12.2 -12.3 --- --- 7.8 N 0.13 9.6 -19.3 --- --- 726.8 0.021 0.000 6.4 5 1
02/07/06 8:04 p -12.3 -12.2 -12.3 --- --- 7.8 N 0.13 9.6 -19.3 --- --- 726.7 0.021 0.000 6.4 4 1
02/07/06 8:05 p -12.3 -12.3 -12.3 --- --- 8.7 N 0.14 9.6 -19.8 --- --- 726.7 0.021 0.000 6.4 4 1
02/07/06 8:06 p -12.3 -12.3 -12.3 --- --- 8.7 N 0.14 10.4 -19.8 --- --- 726.7 0.021 0.000 6.4 4 1
02/07/06 8:07 p -12.3 -12.3 -12.3 --- --- 8.7 N 0.14 10.4 -19.8 --- --- 726.7 0.021 0.000 6.4 5 1
02/07/06 8:08 p -12.3 -12.3 -12.3 --- --- 7.8 N 0.13 8.7 -19.3 --- --- 726.7 0.021 0.000 6.4 5 1
02/07/06 8:09 p -12.3 -12.3 -12.3 --- --- 7.8 N 0.13 8.7 -19.4 --- --- 726.7 0.021 0.000 6.4 5 1
02/07/06 8:10 p -12.3 -12.3 -12.3 --- --- 8.7 N 0.14 10.4 -19.8 --- --- 726.7 0.021 0.000 6.4 5 1
02/07/06 8:11 p -12.3 -12.3 -12.3 --- --- 7.0 N 0.12 7.8 -18.9 --- --- 726.6 0.021 0.000 6.4 5 1
02/07/06 8:12 p -12.3 -12.3 -12.3 --- --- 7.0 N 0.12 7.8 -18.9 --- --- 726.7 0.021 0.000 6.4 5 1
02/07/06 8:13 p -12.3 -12.3 -12.3 --- --- 7.8 N 0.13 9.6 -19.4 --- --- 726.7 0.021 0.000 6.4 5 1
02/07/06 8:14 p -12.3 -12.3 -12.4 --- --- 7.8 N 0.13 9.6 -19.4 --- --- 726.7 0.021 0.000 6.4 5 1
02/07/06 8:15 p -12.3 -12.3 -12.3 --- --- 7.8 N 0.13 8.7 -19.4 --- --- 726.7 0.021 0.000 6.4 5 1
02/07/06 8:16 p -12.3 -12.3 -12.4 --- --- 8.7 N 0.14 9.6 -19.8 --- --- 726.7 0.021 0.000 6.4 5 1
02/07/06 8:17 p -12.4 -12.3 -12.4 --- --- 7.8 N 0.13 8.7 -19.4 --- --- 726.7 0.021 0.000 6.4 5 1
02/07/06 8:18 p -12.4 -12.4 -12.4 --- --- 7.0 N 0.12 7.8 -19.0 --- --- 726.7 0.021 0.000 6.4 5 1
02/07/06 8:19 p -12.4 -12.4 -12.4 --- --- 7.8 N 0.13 7.8 -19.4 --- --- 726.7 0.021 0.000 6.4 5 1
02/07/06 8:20 p -12.4 -12.4 -12.4 --- --- 6.1 N 0.10 8.7 -18.5 --- --- 726.7 0.021 0.000 6.4 5 1
02/07/06 8:21 p -12.4 -12.4 -12.4 --- --- 8.7 N 0.14 9.6 -19.9 --- --- 726.7 0.021 0.000 6.4 5 1
02/07/06 8:22 p -12.4 -12.4 -12.4 --- --- 7.0 N 0.12 8.7 -19.0 --- --- 726.7 0.021 0.000 6.5 5 1
02/07/06 8:23 p -12.4 -12.4 -12.4 --- --- 6.1 N 0.10 7.8 -18.5 --- --- 726.6 0.021 0.000 6.5 5 1
02/07/06 8:24 p -12.4 -12.4 -12.4 --- --- 7.0 N 0.12 7.8 -19.1 --- --- 726.7 0.021 0.000 6.6 5 1
02/07/06 8:25 p -12.4 -12.4 -12.4 --- --- 7.0 N 0.12 10.4 -19.1 --- --- 726.7 0.021 0.000 6.6 5 1
02/07/06 8:26 p -12.4 -12.4 -12.4 --- --- 9.6 N 0.16 10.4 -20.3 --- --- 726.7 0.021 0.000 6.6 5 1
02/07/06 8:27 p -12.4 -12.4 -12.5 --- --- 8.7 N 0.14 10.4 -19.9 --- --- 726.7 0.021 0.000 6.6 5 1
02/07/06 8:28 p -12.4 -12.4 -12.5 --- --- 8.7 N 0.14 10.4 -19.9 --- --- 726.8 0.021 0.000 6.6 5 1
02/07/06 8:29 p -12.4 -12.4 -12.5 --- --- 7.8 N 0.13 9.6 -19.6 --- --- 726.8 0.021 0.000 6.6 5 1
02/07/06 8:30 p -12.5 -12.4 -12.5 --- --- 7.8 N 0.13 8.7 -19.6 --- --- 726.8 0.021 0.000 6.6 5 1
02/07/06 8:31 p -12.5 -12.4 -12.5 --- --- 9.6 N 0.16 10.4 -20.4 --- --- 726.7 0.021 0.000 6.6 5 1
02/07/06 8:32 p -12.5 -12.5 -12.6 --- --- 8.7 N 0.14 10.4 -20.1 --- --- 726.7 0.021 0.000 6.7 5 1
02/07/06 8:33 p -12.6 -12.5 -12.6 --- --- 8.7 N 0.14 9.6 -20.1 --- --- 726.8 0.021 0.000 6.7 5 1
02/07/06 8:34 p -12.5 -12.5 -12.6 --- --- 9.6 N 0.16 10.4 -20.4 --- --- 726.8 0.021 0.000 6.7 5 1
02/07/06 8:35 p -12.6 -12.6 -12.6 --- --- 7.8 N 0.13 9.6 -19.7 --- --- 726.7 0.021 0.000 6.7 5 1
02/07/06 8:36 p -12.6 -12.5 -12.6 --- --- 7.8 N 0.13 8.7 -19.7 --- --- 726.6 0.021 0.000 6.7 5 1
02/07/06 8:37 p -12.6 -12.6 -12.6 --- --- 7.8 N 0.13 8.7 -19.7 --- --- 726.8 0.021 0.000 6.7 5 1
02/07/06 8:38 p -12.6 -12.6 -12.6 --- --- 7.8 N 0.13 9.6 -19.7 --- --- 726.7 0.021 0.000 6.7 5 1
02/07/06 8:39 p -12.6 -12.6 -12.6 --- --- 8.7 N 0.14 10.4 -20.1 --- --- 726.8 0.021 0.000 6.7 5 1
02/07/06 8:40 p -12.6 -12.6 -12.6 --- --- 8.7 N 0.14 10.4 -20.1 --- --- 726.7 0.021 0.000 6.7 5 1
02/07/06 8:41 p -12.6 -12.6 -12.6 --- --- 8.7 N 0.14 10.4 -20.1 --- --- 726.7 0.021 0.000 6.7 5 1
02/07/06 8:42 p -12.6 -12.6 -12.6 --- --- 7.8 N 0.13 8.7 -19.7 --- --- 726.7 0.021 0.000 6.7 5 1
02/07/06 8:43 p -12.6 -12.6 -12.6 --- --- 7.0 N 0.12 8.7 -19.3 --- --- 726.7 0.021 0.000 6.7 5 1
02/07/06 8:44 p -12.6 -12.6 -12.6 --- --- 7.0 N 0.12 10.4 -19.3 --- --- 726.7 0.021 0.000 6.7 5 1
02/07/06 8:45 p -12.6 -12.6 -12.6 --- --- 7.8 N 0.13 9.6 -19.7 --- --- 726.8 0.021 0.000 6.7 5 1
02/07/06 8:46 p -12.6 -12.6 -12.6 --- --- 7.0 N 0.12 9.6 -19.3 --- --- 726.7 0.021 0.000 6.7 5 1
02/07/06 8:47 p -12.7 -12.6 -12.7 --- --- 8.7 N 0.14 10.4 -20.2 --- --- 726.8 0.022 0.000 6.7 5 1
02/07/06 8:48 p -12.7 -12.7 -12.7 --- --- 9.6 N 0.16 10.4 -20.6 --- --- 726.8 0.022 0.000 6.7 5 1
02/07/06 8:49 p -12.7 -12.7 -12.7 --- --- 9.6 N 0.16 11.3 -20.7 --- --- 726.8 0.022 0.000 6.7 5 1
02/07/06 8:50 p -12.7 -12.7 -12.7 --- --- 8.7 N 0.14 9.6 -20.3 --- --- 726.7 0.022 0.000 6.7 5 1
02/07/06 8:51 p -12.7 -12.7 -12.8 --- --- 9.6 N 0.16 11.3 -20.7 --- --- 726.8 0.022 0.000 6.7 5 1
02/07/06 8:52 p -12.8 -12.8 -12.8 --- --- 9.6 N 0.16 12.2 -20.8 --- --- 726.8 0.022 0.000 6.7 5 1
02/07/06 8:53 p -12.8 -12.8 -12.8 --- --- 8.7 N 0.14 11.3 -20.4 --- --- 726.8 0.022 0.000 6.7 5 1
02/07/06 8:54 p -12.8 -12.8 -12.8 --- --- 9.6 N 0.16 11.3 -20.8 --- --- 726.8 0.022 0.000 6.7 5 1
02/07/06 8:55 p -12.8 -12.8 -12.8 --- --- 8.7 N 0.14 9.6 -20.4 --- --- 726.8 0.022 0.000 6.7 5 1
02/07/06 8:56 p -12.9 -12.8 -12.9 --- --- 8.7 N 0.14 10.4 -20.5 --- --- 726.7 0.022 0.000 6.7 5 1
02/07/06 8:57 p -12.9 -12.9 -12.9 --- --- 7.8 N 0.13 11.3 -20.1 --- --- 726.7 0.022 0.000 6.7 5 1
02/07/06 8:58 p -12.9 -12.9 -12.9 --- --- 7.0 N 0.12 9.6 -19.7 --- --- 726.8 0.022 0.000 6.7 5 1
02/07/06 8:59 p -12.9 -12.9 -12.9 --- --- 7.0 N 0.12 8.7 -19.7 --- --- 726.8 0.022 0.000 6.7 5 1
02/07/06 9:00 p -12.9 -12.9 -13.0 --- --- 7.0 N 0.12 8.7 -19.7 --- --- 726.8 0.022 0.000 6.7 5 1
02/07/06 9:01 p -12.9 -12.9 -12.9 --- --- 7.8 N 0.13 9.6 -20.2 --- --- 726.7 0.022 0.000 6.7 5 1
02/07/06 9:02 p -12.9 -12.9 -12.9 --- --- 7.8 N 0.13 9.6 -20.2 --- --- 726.8 0.022 0.000 6.7 5 1
02/07/06 9:03 p -12.9 -12.9 -12.9 --- --- 7.0 N 0.12 8.7 -19.7 --- --- 726.8 0.022 0.000 6.8 5 1
02/07/06 9:04 p -12.9 -12.9 -12.9 --- --- 7.0 N 0.12 9.6 -19.7 --- --- 726.8 0.022 0.000 6.8 5 1
02/07/06 9:05 p -12.9 -12.9 -12.9 --- --- 7.0 N 0.12 10.4 -19.7 --- --- 726.8 0.022 0.000 6.8 5 1
02/07/06 9:06 p -12.9 -12.9 -12.9 --- --- 6.1 N 0.10 8.7 -19.2 --- --- 726.8 0.022 0.000 6.8 5 1
02/07/06 9:07 p -12.9 -12.9 -12.9 --- --- 6.1 N 0.10 8.7 -19.2 --- --- 726.7 0.022 0.000 6.8 5 1
02/07/06 9:08 p -12.9 -12.9 -12.9 --- --- 6.1 N 0.10 7.8 -19.2 --- --- 726.8 0.022 0.000 6.8 5 1
02/07/06 9:09 p -12.9 -12.9 -12.9 --- --- 6.1 N 0.10 8.7 -19.2 --- --- 726.7 0.022 0.000 6.9 5 1
02/07/06 9:10 p -12.9 -12.9 -12.9 --- --- 7.8 NNW 0.13 9.6 -20.1 --- --- 726.8 0.022 0.000 6.9 5 1
02/07/06 9:11 p -12.9 -12.9 -12.9 --- --- 7.8 NNW 0.13 8.7 -20.1 --- --- 726.8 0.022 0.000 6.9 5 1
02/07/06 9:12 p -12.9 -12.9 -12.9 --- --- 7.0 NNW 0.12 8.7 -19.6 --- --- 726.8 0.022 0.000 6.9 5 1
02/07/06 9:13 p -12.9 -12.9 -12.9 --- --- 7.0 NNW 0.12 8.7 -19.6 --- --- 726.7 0.022 0.000 6.9 5 1
02/07/06 9:14 p -12.9 -12.9 -12.9 --- --- 5.2 N 0.09 7.0 -18.6 --- --- 726.8 0.022 0.000 6.9 5 1
02/07/06 9:15 p -12.9 -12.9 -13.0 --- --- 5.2 N 0.09 6.1 -18.6 --- --- 726.8 0.022 0.000 6.9 5 1
02/07/06 9:16 p -13.0 -13.0 -13.1 --- --- 5.2 N 0.09 6.1 -18.6 --- --- 726.8 0.022 0.000 6.9 5 1
02/07/06 9:17 p -13.1 -13.1 -13.1 --- --- 5.2 N 0.09 7.0 -18.7 --- --- 726.9 0.022 0.000 6.9 5 1
02/07/06 9:18 p -13.1 -13.1 -13.1 --- --- 4.3 N 0.07 6.1 -18.1 --- --- 726.8 0.022 0.000 6.9 5 1
02/07/06 9:19 p -13.2 -13.1 -13.2 --- --- 5.2 N 0.09 6.1 -18.8 --- --- 726.8 0.022 0.000 6.8 5 1
02/07/06 9:20 p -13.2 -13.2 -13.2 --- --- 5.2 N 0.09 7.0 -18.8 --- --- 726.8 0.022 0.000 6.8 5 1
02/07/06 9:21 p -13.2 -13.2 -13.2 --- --- 5.2 N 0.09 7.0 -18.8 --- --- 726.8 0.022 0.000 6.8 6 1
02/07/06 9:22 p -13.2 -13.2 -13.2 --- --- 6.1 NNW 0.10 7.0 -19.4 --- --- 726.8 0.022 0.000 6.8 5 1
02/07/06 9:23 p -13.2 -13.2 -13.2 --- --- 4.3 N 0.07 5.2 -18.2 --- --- 726.8 0.022 0.000 6.8 5 1
02/07/06 9:24 p -13.2 -13.2 -13.2 --- --- 4.3 N 0.07 6.1 -18.2 --- --- 726.8 0.022 0.000 6.7 5 1
02/07/06 9:25 p -13.2 -13.2 -13.2 --- --- 6.1 NNW 0.10 7.8 -19.5 --- --- 726.8 0.022 0.000 6.7 6 1
02/07/06 9:26 p -13.2 -13.2 -13.2 --- --- 6.1 NNW 0.10 7.8 -19.5 --- --- 726.9 0.022 0.000 6.7 6 1
02/07/06 9:27 p -13.2 -13.2 -13.2 --- --- 6.1 NNW 0.10 7.0 -19.5 --- --- 726.8 0.022 0.000 6.7 5 1
02/07/06 9:28 p -13.2 -13.2 -13.2 --- --- 4.3 N 0.07 6.1 -18.2 --- --- 726.9 0.022 0.000 6.7 5 1
02/07/06 9:29 p -13.2 -13.2 -13.2 --- --- 5.2 N 0.09 7.0 -18.9 --- --- 726.9 0.022 0.000 6.7 5 1
02/07/06 9:30 p -13.2 -13.2 -13.2 --- --- 5.2 NNW 0.09 7.0 -18.9 --- --- 726.8 0.022 0.000 6.7 5 1
02/07/06 9:31 p -13.3 -13.3 -13.3 --- --- 5.2 NNW 0.09 6.1 -18.9 --- --- 726.8 0.022 0.000 6.7 5 1
02/07/06 9:32 p -13.3 -13.2 -13.3 --- --- 5.2 NNW 0.09 6.1 -18.9 --- --- 726.8 0.022 0.000 6.7 6 1
02/07/06 9:33 p -13.3 -13.3 -13.3 --- --- 4.3 N 0.07 5.2 -18.3 --- --- 726.8 0.022 0.000 6.7 5 1
02/07/06 9:34 p -13.3 -13.3 -13.3 --- --- 5.2 N 0.09 7.0 -18.9 --- --- 726.8 0.022 0.000 6.7 5 1
02/07/06 9:35 p -13.3 -13.3 -13.3 --- --- 5.2 NNW 0.09 7.0 -18.9 --- --- 726.9 0.022 0.000 6.7 5 1
02/07/06 9:36 p -13.3 -13.3 -13.3 --- --- 5.2 NNW 0.09 6.1 -18.9 --- --- 726.8 0.022 0.000 6.7 5 1
02/07/06 9:37 p -13.3 -13.3 -13.3 --- --- 4.3 N 0.07 5.2 -18.3 --- --- 726.8 0.022 0.000 6.7 5 1
02/07/06 9:38 p -13.3 -13.3 -13.3 --- --- 3.5 N 0.06 4.3 -17.6 --- --- 726.8 0.022 0.000 6.7 5 1
02/07/06 9:39 p -13.3 -13.3 -13.3 --- --- 4.3 N 0.07 5.2 -18.3 --- --- 726.9 0.022 0.000 6.7 5 1
02/07/06 9:40 p -13.3 -13.3 -13.3 --- --- 4.3 N 0.07 5.2 -18.3 --- --- 726.8 0.022 0.000 6.6 5 1
02/07/06 9:41 p -13.3 -13.3 -13.3 --- --- 5.2 NNW 0.09 7.0 -18.9 --- --- 726.8 0.022 0.000 6.6 5 1
02/07/06 9:42 p -13.3 -13.3 -13.3 --- --- 5.2 NNW 0.09 6.1 -18.9 --- --- 726.8 0.022 0.000 6.6 5 1
02/07/06 9:43 p -13.3 -13.3 -13.3 --- --- 4.3 NNW 0.07 6.1 -18.3 --- --- 726.9 0.022 0.000 6.6 5 1
02/07/06 9:44 p -13.2 -13.2 -13.3 --- --- 4.3 NNW 0.07 5.2 -18.2 --- --- 726.9 0.022 0.000 6.6 5 1
02/07/06 9:45 p -13.2 -13.2 -13.2 --- --- 4.3 NNW 0.07 5.2 -18.2 --- --- 726.9 0.022 0.000 6.6 5 1
02/07/06 9:46 p -13.2 -13.2 -13.2 --- --- 3.5 NNW 0.06 5.2 -17.4 --- --- 726.9 0.022 0.000 6.6 5 1
02/07/06 9:47 p -13.2 -13.2 -13.2 --- --- 5.2 NNW 0.09 6.1 -18.9 --- --- 726.8 0.022 0.000 6.6 5 1
02/07/06 9:48 p -13.2 -13.2 -13.2 --- --- 5.2 NNW 0.09 5.2 -18.8 --- --- 726.9 0.022 0.000 6.6 5 1
02/07/06 9:49 p -13.2 -13.2 -13.2 --- --- 4.3 NNW 0.07 5.2 -18.2 --- --- 726.9 0.022 0.000 6.6 5 1
02/07/06 9:50 p -13.2 -13.1 -13.2 --- --- 3.5 N 0.06 4.3 -17.4 --- --- 727.0 0.022 0.000 6.6 5 1
02/07/06 9:51 p -13.1 -13.1 -13.1 --- --- 3.5 N 0.06 5.2 -17.3 --- --- 726.9 0.022 0.000 6.6 5 1
02/07/06 9:52 p -13.1 -13.1 -13.1 --- --- 4.3 N 0.07 5.2 -18.1 --- --- 726.8 0.022 0.000 6.6 5 1
02/07/06 9:53 p -13.1 -13.1 -13.1 --- --- 5.2 N 0.09 6.1 -18.8 --- --- 726.9 0.022 0.000 6.6 5 1
02/07/06 9:54 p -13.1 -13.1 -13.1 --- --- 5.2 N 0.09 6.1 -18.8 --- --- 727.0 0.022 0.000 6.6 5 1
02/07/06 9:55 p -13.1 -13.0 -13.1 --- --- 4.3 N 0.07 5.2 -18.0 --- --- 726.9 0.022 0.000 6.6 5 1
02/07/06 9:56 p -13.0 -13.0 -13.0 --- --- 2.6 N 0.04 5.2 -16.2 --- --- 727.0 0.022 0.000 6.6 5 1
02/07/06 9:57 p -13.0 -12.9 -13.0 --- --- 3.5 N 0.06 5.2 -17.2 --- --- 726.9 0.022 0.000 6.6 5 1
02/07/06 9:58 p -12.9 -12.9 -12.9 --- --- 4.3 N 0.07 7.0 -17.9 --- --- 726.9 0.022 0.000 6.6 5 1
02/07/06 9:59 p -12.9 -12.8 -12.9 --- --- 5.2 N 0.09 6.1 -18.5 --- --- 726.9 0.022 0.000 6.6 5 1
02/07/06 10:00 p -12.8 -12.8 -12.8 --- --- 3.5 N 0.06 5.2 -17.0 --- --- 726.9 0.022 0.000 6.6 5 1
02/07/06 10:01 p -12.8 -12.8 -12.8 --- --- 4.3 N 0.07 5.2 -17.8 --- --- 726.8 0.022 0.000 6.6 5 1
02/07/06 10:02 p -12.7 -12.7 -12.8 --- --- 4.3 N 0.07 5.2 -17.7 --- --- 726.9 0.022 0.000 6.6 5 1
02/07/06 10:03 p -12.7 -12.7 -12.7 --- --- 4.3 N 0.07 6.1 -17.7 --- --- 726.8 0.022 0.000 6.6 5 1
02/07/06 10:04 p -12.7 -12.7 -12.7 --- --- 4.3 N 0.07 6.1 -17.6 --- --- 726.8 0.022 0.000 6.6 5 1
02/07/06 10:05 p -12.7 -12.6 -12.7 --- --- 4.3 N 0.07 5.2 -17.6 --- --- 726.8 0.022 0.000 6.6 5 1
02/07/06 10:06 p -12.6 -12.6 -12.6 --- --- 3.5 N 0.06 4.3 -16.7 --- --- 726.9 0.021 0.000 6.6 5 1
02/07/06 10:07 p -12.6 -12.6 -12.6 --- --- 4.3 N 0.07 5.2 -17.5 --- --- 726.9 0.021 0.000 6.6 5 1
02/07/06 10:08 p -12.4 -12.4 -12.5 --- --- 4.3 N 0.07 6.1 -17.3 --- --- 726.9 0.021 0.000 6.6 5 1
02/07/06 10:09 p -12.4 -12.4 -12.5 --- --- 4.3 N 0.07 5.2 -17.3 --- --- 726.8 0.021 0.000 6.6 5 1
02/07/06 10:10 p -12.4 -12.4 -12.4 --- --- 2.6 N 0.04 4.3 -15.5 --- --- 726.9 0.021 0.000 6.6 5 1
02/07/06 10:11 p -12.4 -12.3 -12.4 --- --- 1.7 N 0.03 2.6 -14.2 --- --- 726.8 0.021 0.000 6.6 5 1
02/07/06 10:12 p -12.3 -12.3 -12.3 --- --- 0.9 N 0.01 1.7 -12.3 --- --- 726.8 0.021 0.000 6.6 5 1
02/07/06 10:13 p -12.2 -12.2 -12.2 --- --- 1.7 N 0.03 3.5 -14.0 --- --- 726.9 0.021 0.000 6.6 5 1
02/07/06 10:14 p -12.2 -12.1 -12.2 --- --- 1.7 N 0.03 3.5 -13.9 --- --- 726.8 0.021 0.000 6.6 5 1
02/07/06 10:15 p -12.1 -12.1 -12.1 --- --- 0.0 N 0.00 0.9 -12.1 --- --- 726.8 0.021 0.000 6.6 5 1
02/07/06 10:16 p -12.1 -12.1 -12.1 --- --- 0.0 N 0.00 0.9 -12.1 --- --- 726.8 0.021 0.000 6.6 5 1
02/07/06 10:17 p -12.0 -11.9 -12.0 --- --- 0.0 N 0.00 0.9 -12.0 --- --- 726.8 0.021 0.000 6.6 5 1
02/07/06 10:18 p -11.9 -11.9 -11.9 --- --- 0.9 N 0.01 0.9 -11.9 --- --- 726.8 0.021 0.000 6.6 5 1
02/07/06 10:19 p -11.9 -11.8 -11.9 --- --- 0.0 N 0.00 0.9 -11.9 --- --- 726.8 0.021 0.000 6.5 5 1
02/07/06 10:20 p -11.8 -11.8 -11.8 --- --- 2.6 WNW 0.04 3.5 -14.9 --- --- 726.7 0.021 0.000 6.5 5 1
02/07/06 10:21 p -11.7 -11.7 -11.7 --- --- 1.7 WSW 0.03 2.6 -13.4 --- --- 726.7 0.021 0.000 6.5 5 1
02/07/06 10:22 p -11.7 -11.6 -11.7 --- --- 1.7 WSW 0.03 2.6 -13.4 --- --- 726.8 0.021 0.000 6.5 5 1
02/07/06 10:23 p -11.6 -11.6 -11.6 --- --- 1.7 WSW 0.03 2.6 -13.3 --- --- 726.8 0.021 0.000 6.5 5 1
02/07/06 10:24 p -11.6 -11.5 -11.6 --- --- 0.9 SSW 0.01 1.7 -11.6 --- --- 726.8 0.021 0.000 6.5 5 1
02/07/06 10:25 p -11.4 -11.4 -11.4 --- --- 0.9 SSW 0.01 2.6 -11.4 --- --- 726.8 0.021 0.000 6.5 5 1
02/07/06 10:26 p -11.4 -11.3 -11.4 --- --- 0.9 S 0.01 1.7 -11.4 --- --- 726.8 0.021 0.000 6.4 5 1
02/07/06 10:27 p -11.3 -11.3 -11.3 --- --- 0.9 S 0.01 1.7 -11.3 --- --- 726.8 0.021 0.000 6.4 5 1
02/07/06 10:28 p -11.2 -11.2 -11.3 --- --- 1.7 S 0.03 2.6 -12.9 --- --- 726.8 0.021 0.000 6.4 5 1
02/07/06 10:29 p -11.2 -11.1 -11.2 --- --- 1.7 W 0.03 2.6 -12.8 --- --- 726.8 0.020 0.000 6.4 5 1
02/07/06 10:30 p -11.1 -11.1 -11.1 --- --- 0.0 W 0.00 1.7 -11.1 --- --- 726.8 0.020 0.000 6.4 5 1
02/07/06 10:31 p -11.1 -11.1 -11.1 --- --- 2.6 W 0.04 3.5 -14.0 --- --- 726.8 0.020 0.000 6.4 5 1
02/07/06 10:32 p -11.0 -11.0 -11.0 --- --- 1.7 W 0.03 2.6 -12.7 --- --- 726.9 0.020 0.000 6.4 5 1
02/07/06 10:33 p -11.0 -10.9 -11.0 --- --- 0.9 W 0.01 1.7 -11.0 --- --- 726.8 0.020 0.000 6.4 5 1
02/07/06 10:34 p -10.9 -10.9 -10.9 --- --- 2.6 W 0.04 3.5 -13.9 --- --- 726.9 0.020 0.000 6.4 5 1
02/07/06 10:35 p -10.9 -10.8 -10.9 --- --- 0.9 ESE 0.01 3.5 -10.9 --- --- 726.8 0.020 0.000 6.4 5 1
02/07/06 10:36 p -10.8 -10.8 -10.8 --- --- 0.0 ESE 0.00 0.9 -10.8 --- --- 726.8 0.020 0.000 6.4 5 1
02/07/06 10:37 p -10.7 -10.7 -10.8 --- --- 0.9 ESE 0.01 2.6 -10.7 --- --- 726.7 0.020 0.000 6.4 5 1
02/07/06 10:38 p -10.7 -10.7 -10.7 --- --- 3.5 WNW 0.06 4.3 -14.6 --- --- 726.7 0.020 0.000 6.4 5 1
02/07/06 10:39 p -10.7 -10.7 -10.7 --- --- 0.9 WNW 0.01 2.6 -10.7 --- --- 726.8 0.020 0.000 6.4 5 1
02/07/06 10:40 p -10.6 -10.6 -10.7 --- --- 0.9 W 0.01 2.6 -10.6 --- --- 726.8 0.020 0.000 6.4 5 1
02/07/06 10:41 p -10.6 -10.6 -10.6 --- --- 1.7 WNW 0.03 3.5 -12.2 --- --- 726.9 0.020 0.000 6.4 5 1
02/07/06 10:42 p -10.6 -10.6 -10.6 --- --- 2.6 WNW 0.04 4.3 -13.4 --- --- 726.7 0.020 0.000 6.4 5 1
02/07/06 10:43 p -10.6 -10.5 -10.6 --- --- 3.5 WNW 0.06 4.3 -14.4 --- --- 726.8 0.020 0.000 6.4 5 1
02/07/06 10:44 p -10.5 -10.5 -10.5 --- --- 2.6 W 0.04 3.5 -13.4 --- --- 726.8 0.020 0.000 6.4 5 1
02/07/06 10:45 p -10.5 -10.4 -10.5 --- --- 2.6 W 0.04 4.3 -13.4 --- --- 726.8 0.020 0.000 6.4 5 1
02/07/06 10:46 p -10.4 -10.4 -10.5 --- --- 0.9 WSW 0.01 1.7 -10.4 --- --- 726.8 0.020 0.000 6.4 5 1
02/07/06 10:47 p -10.4 -10.4 -10.4 --- --- 1.7 WSW 0.03 4.3 -12.1 --- --- 726.8 0.020 0.000 6.4 5 1
02/07/06 10:48 p -10.4 -10.4 -10.4 --- --- 0.0 SSW 0.00 1.7 -10.4 --- --- 726.8 0.020 0.000 6.4 5 1
02/07/06 10:49 p -10.4 -10.4 -10.4 --- --- 0.9 SSW 0.01 2.6 -10.4 --- --- 726.7 0.020 0.000 6.4 5 1
02/07/06 10:50 p -10.4 -10.4 -10.4 --- --- 0.0 --- 0.00 0.9 -10.4 --- --- 726.8 0.020 0.000 6.4 5 1
02/07/06 10:51 p -10.4 -10.3 -10.4 --- --- 0.0 --- 0.00 0.0 -10.4 --- --- 726.8 0.020 0.000 6.4 5 1
02/07/06 10:52 p -10.3 -10.3 -10.3 --- --- 1.7 SSW 0.03 2.6 -11.9 --- --- 726.8 0.020 0.000 6.4 5 1
02/07/06 10:53 p -10.3 -10.3 -10.3 --- --- 2.6 WSW 0.04 4.3 -13.1 --- --- 726.8 0.020 0.000 6.4 5 1
02/07/06 10:54 p -10.3 -10.3 -10.3 --- --- 3.5 WSW 0.06 4.3 -14.1 --- --- 726.7 0.020 0.000 6.4 5 1
02/07/06 10:55 p -10.3 -10.3 -10.3 --- --- 1.7 WSW 0.03 3.5 -11.9 --- --- 726.8 0.020 0.000 6.4 5 1
02/07/06 10:56 p -10.2 -10.2 -10.3 --- --- 1.7 WSW 0.03 2.6 -11.8 --- --- 726.8 0.020 0.000 6.4 5 1
02/07/06 10:57 p -10.2 -10.2 -10.3 --- --- 1.7 WSW 0.03 2.6 -11.8 --- --- 726.7 0.020 0.000 6.4 5 1
02/07/06 10:58 p -10.2 -10.1 -10.2 --- --- 1.7 WSW 0.03 2.6 -11.7 --- --- 726.7 0.020 0.000 6.4 5 1
02/07/06 10:59 p -10.1 -10.0 -10.1 --- --- 1.7 WSW 0.03 2.6 -11.6 --- --- 726.8 0.020 0.000 6.4 5 1
02/07/06 11:00 p -9.9 -9.9 -10.0 --- --- 1.7 WSW 0.03 2.6 -11.5 --- --- 726.7 0.020 0.000 6.4 5 1
02/07/06 11:01 p -9.9 -9.9 -9.9 --- --- 1.7 WSW 0.03 2.6 -11.5 --- --- 726.8 0.020 0.000 6.4 5 1
02/07/06 11:03 p -9.8 -9.7 -9.8 --- --- 3.5 WSW 0.06 4.3 -13.5 --- --- 726.8 0.020 0.000 6.4 5 1
02/07/06 11:04 p -9.7 -9.7 -9.7 --- --- 2.6 WSW 0.04 3.5 -12.5 --- --- 726.7 0.019 0.000 6.4 5 1
02/07/06 11:05 p -9.7 -9.7 -9.7 --- --- 2.6 WSW 0.04 3.5 -12.4 --- --- 726.7 0.019 0.000 6.4 5 1
02/07/06 11:06 p -9.6 -9.6 -9.6 --- --- 2.6 WSW 0.04 3.5 -12.4 --- --- 726.8 0.019 0.000 6.4 5 1
02/07/06 11:07 p -9.6 -9.6 -9.6 --- --- 2.6 WSW 0.04 3.5 -12.4 --- --- 726.7 0.019 0.000 6.4 5 1
02/07/06 11:08 p -9.6 -9.6 -9.6 --- --- 1.7 WSW 0.03 2.6 -11.1 --- --- 726.8 0.019 0.000 6.4 5 1
02/07/06 11:09 p -9.6 -9.5 -9.6 --- --- 1.7 WSW 0.03 2.6 -11.1 --- --- 726.8 0.019 0.000 6.4 5 1
02/07/06 11:10 p -9.4 -9.4 -9.5 --- --- 1.7 WSW 0.03 2.6 -10.9 --- --- 726.9 0.019 0.000 6.4 5 1
02/07/06 11:11 p -9.4 -9.4 -9.4 --- --- 1.7 WSW 0.03 2.6 -10.9 --- --- 726.8 0.019 0.000 6.4 5 1
02/07/06 11:12 p -9.4 -9.3 -9.4 --- --- 2.6 WSW 0.04 3.5 -12.1 --- --- 726.8 0.019 0.000 6.4 5 1
02/07/06 11:13 p -9.3 -9.3 -9.3 --- --- 2.6 WNW 0.04 3.5 -12.1 --- --- 726.7 0.019 0.000 6.4 5 1
02/07/06 11:14 p -9.3 -9.2 -9.3 --- --- 1.7 WNW 0.03 2.6 -10.8 --- --- 726.7 0.019 0.000 6.4 5 1
02/07/06 11:15 p -9.2 -9.2 -9.2 --- --- 2.6 WNW 0.04 3.5 -11.8 --- --- 726.7 0.019 0.000 6.4 5 1
02/07/06 11:16 p -9.1 -9.1 -9.2 --- --- 2.6 WNW 0.04 3.5 -11.8 --- --- 726.7 0.019 0.000 6.4 5 1
02/07/06 11:17 p -9.0 -9.0 -9.1 --- --- 2.6 WNW 0.04 3.5 -11.7 --- --- 726.7 0.019 0.000 6.4 5 1
02/07/06 11:18 p -8.9 -8.9 -9.0 --- --- 1.7 WNW 0.03 2.6 -10.4 --- --- 726.7 0.019 0.000 6.4 5 1
02/07/06 11:19 p -8.8 -8.8 -8.8 --- --- 2.6 WNW 0.04 3.5 -11.5 --- --- 726.7 0.019 0.000 6.4 5 1
02/07/06 11:20 p -8.7 -8.7 -8.8 --- --- 0.9 WNW 0.01 1.7 -8.7 --- --- 726.8 0.019 0.000 6.4 5 1
02/07/06 11:21 p -8.6 -8.6 -8.7 --- --- 0.9 WNW 0.01 2.6 -8.6 --- --- 726.8 0.019 0.000 6.4 5 1
02/07/06 11:22 p -8.5 -8.5 -8.6 --- --- 0.9 WNW 0.01 2.6 -8.5 --- --- 726.7 0.019 0.000 6.4 5 1
02/07/06 11:23 p -8.4 -8.4 -8.5 --- --- 1.7 WNW 0.03 3.5 -9.8 --- --- 726.7 0.019 0.000 6.4 5 1
02/07/06 11:24 p -8.3 -8.3 -8.4 --- --- 0.0 --- 0.00 0.0 -8.3 --- --- 726.7 0.019 0.000 6.4 5 1
02/07/06 11:25 p -8.3 -8.2 -8.3 --- --- 0.9 WNW 0.01 2.6 -8.3 --- --- 726.8 0.018 0.000 6.4 5 1
02/07/06 11:26 p -8.2 -8.2 -8.2 --- --- 1.7 WNW 0.03 3.5 -9.6 --- --- 726.8 0.018 0.000 6.4 5 1
02/07/06 11:27 p -8.1 -8.1 -8.2 --- --- 3.5 WNW 0.06 4.3 -11.6 --- --- 726.8 0.018 0.000 6.4 5 1
02/07/06 11:28 p -8.1 -8.1 -8.1 --- --- 2.6 WNW 0.04 3.5 -10.6 --- --- 726.9 0.018 0.000 6.4 5 1
02/07/06 11:29 p -8.1 -8.1 -8.1 --- --- 2.6 WNW 0.04 3.5 -10.6 --- --- 726.8 0.018 0.000 6.4 5 1
02/07/06 11:30 p -8.1 -8.1 -8.1 --- --- 2.6 WNW 0.04 4.3 -10.6 --- --- 726.8 0.018 0.000 6.4 5 1
02/07/06 11:31 p -8.0 -8.0 -8.1 --- --- 1.7 WNW 0.03 3.5 -9.4 --- --- 726.8 0.018 0.000 6.4 5 1
02/07/06 11:32 p -7.9 -7.9 -8.0 --- --- 1.7 WNW 0.03 3.5 -9.3 --- --- 726.7 0.018 0.000 6.4 5 1
02/07/06 11:33 p -7.9 -7.9 -7.9 --- --- 1.7 WNW 0.03 3.5 -9.3 --- --- 726.7 0.018 0.000 6.4 5 1
02/07/06 11:34 p -7.9 -7.8 -7.9 --- --- 2.6 WNW 0.04 3.5 -10.4 --- --- 726.8 0.018 0.000 6.4 5 1
02/07/06 11:35 p -7.8 -7.8 -7.8 --- --- 3.5 WNW 0.06 3.5 -11.2 --- --- 726.8 0.018 0.000 6.4 5 1
02/07/06 11:36 p -7.8 -7.7 -7.8 --- --- 2.6 WNW 0.04 3.5 -10.3 --- --- 726.7 0.018 0.000 6.4 5 1
02/07/06 11:37 p -7.7 -7.7 -7.7 --- --- 2.6 WNW 0.04 3.5 -10.2 --- --- 726.8 0.018 0.000 6.3 5 1
02/07/06 11:38 p -7.7 -7.6 -7.7 --- --- 1.7 WNW 0.03 2.6 -9.0 --- --- 726.8 0.018 0.000 6.3 5 1
02/07/06 11:39 p -7.6 -7.6 -7.6 --- --- 1.7 WNW 0.03 2.6 -8.9 --- --- 726.8 0.018 0.000 6.3 5 1
02/07/06 11:40 p -7.6 -7.6 -7.6 --- --- 1.7 WNW 0.03 2.6 -8.9 --- --- 726.7 0.018 0.000 6.3 5 1
02/07/06 11:41 p -7.5 -7.4 -7.6 --- --- 2.6 WNW 0.04 3.5 -10.0 --- --- 726.8 0.018 0.000 6.3 5 1
02/07/06 11:42 p -7.4 -7.4 -7.4 --- --- 1.7 WNW 0.03 3.5 -8.7 --- --- 726.8 0.018 0.000 6.3 5 1
02/07/06 11:43 p -7.4 -7.3 -7.4 --- --- 2.6 WNW 0.04 3.5 -9.8 --- --- 726.8 0.018 0.000 6.4 5 1
02/07/06 11:44 p -7.3 -7.2 -7.3 --- --- 0.9 WNW 0.01 2.6 -7.3 --- --- 726.9 0.018 0.000 6.4 5 1
02/07/06 11:45 p -7.2 -7.2 -7.2 --- --- 0.9 WNW 0.01 2.6 -7.2 --- --- 726.9 0.018 0.000 6.4 5 1
02/07/06 11:46 p -7.1 -7.1 -7.2 --- --- 0.9 WNW 0.01 1.7 -7.1 --- --- 726.9 0.018 0.000 6.4 5 1
02/07/06 11:47 p -7.1 -7.0 -7.1 --- --- 1.7 WNW 0.03 2.6 -8.3 --- --- 726.9 0.018 0.000 6.4 5 1
02/07/06 11:48 p -6.9 -6.9 -7.0 --- --- 1.7 WNW 0.03 2.6 -8.2 --- --- 726.8 0.018 0.000 6.4 5 1
02/07/06 11:49 p -6.9 -6.9 -6.9 --- --- 1.7 WNW 0.03 2.6 -8.2 --- --- 726.9 0.018 0.000 6.4 5 1
02/07/06 11:50 p -6.8 -6.8 -6.9 --- --- 0.0 WNW 0.00 0.9 -6.8 --- --- 726.8 0.017 0.000 6.4 5 1
02/07/06 11:51 p -6.8 -6.8 -6.8 --- --- 0.9 WNW 0.01 0.9 -6.8 --- --- 726.9 0.017 0.000 6.4 5 1
02/07/06 11:52 p -6.7 -6.7 -6.8 --- --- 0.0 WNW 0.00 1.7 -6.7 --- --- 726.9 0.017 0.000 6.4 5 1
02/07/06 11:53 p -6.7 -6.7 -6.7 --- --- 0.9 WNW 0.01 1.7 -6.7 --- --- 726.8 0.017 0.000 6.4 5 1
02/07/06 11:54 p -6.7 -6.6 -6.7 --- --- 0.0 WNW 0.00 0.9 -6.7 --- --- 726.8 0.017 0.000 6.4 5 1
02/07/06 11:55 p -6.6 -6.6 -6.6 --- --- 0.0 WNW 0.00 0.9 -6.6 --- --- 726.9 0.017 0.000 6.4 5 1
02/07/06 11:56 p -6.6 -6.6 -6.6 --- --- 0.0 WNW 0.00 0.9 -6.6 --- --- 726.8 0.017 0.000 6.4 5 1
02/07/06 11:57 p -6.5 -6.4 -6.6 --- --- 0.9 WNW 0.01 1.7 -6.5 --- --- 726.9 0.017 0.000 6.4 5 1
02/07/06 11:58 p -6.4 -6.3 -6.4 --- --- 0.0 NW 0.00 1.7 -6.4 --- --- 726.9 0.017 0.000 6.4 5 1
02/07/06 11:59 p -6.3 -6.2 -6.3 --- --- 0.9 NW 0.01 1.7 -6.3 --- --- 727.0 0.017 0.000 6.4 5 1
02/08/06 12:00 a -6.2 -6.2 -6.2 --- --- 0.0 NW 0.00 0.9 -6.2 --- --- 726.8 0.017 0.000 6.4 5 1
02/08/06 12:01 a -6.2 -6.1 -6.2 --- --- 0.9 NW 0.01 0.9 -6.2 --- --- 726.8 0.017 0.000 6.4 5 1
02/08/06 12:02 a -6.1 -6.1 -6.1 --- --- 0.0 NW 0.00 0.9 -6.1 --- --- 726.8 0.017 0.000 6.4 5 1
02/08/06 12:03 a -6.0 -5.9 -6.1 --- --- 0.0 --- 0.00 0.0 -6.0 --- --- 726.8 0.017 0.000 6.4 5 1
02/08/06 12:04 a -5.9 -5.9 -5.9 --- --- 0.0 --- 0.00 0.0 -5.9 --- --- 726.9 0.017 0.000 6.4 5 1
02/08/06 12:05 a -5.9 -5.9 -5.9 --- --- 0.9 NW 0.01 1.7 -5.9 --- --- 726.9 0.017 0.000 6.4 5 1
02/08/06 12:06 a -5.8 -5.8 -5.8 --- --- 0.9 NW 0.01 1.7 -5.8 --- --- 726.9 0.017 0.000 6.4 5 1
02/08/06 12:07 a -5.8 -5.8 -5.8 --- --- 0.0 NW 0.00 0.9 -5.8 --- --- 726.8 0.017 0.000 6.4 5 1
02/08/06 12:08 a -5.8 -5.8 -5.8 --- --- 0.9 NW 0.01 2.6 -5.8 --- --- 726.9 0.017 0.000 6.4 5 1
02/08/06 12:09 a -5.8 -5.7 -5.8 --- --- 1.7 NW 0.03 2.6 -6.9 --- --- 726.8 0.017 0.000 6.4 5 1
02/08/06 12:10 a -5.7 -5.7 -5.7 --- --- 1.7 NW 0.03 2.6 -6.9 --- --- 726.9 0.017 0.000 6.4 5 1
02/08/06 12:11 a -5.7 -5.7 -5.7 --- --- 0.9 NW 0.01 2.6 -5.7 --- --- 726.8 0.017 0.000 6.5 5 1
02/08/06 12:12 a -5.7 -5.7 -5.7 --- --- 1.7 NW 0.03 3.5 -6.8 --- --- 726.8 0.017 0.000 6.5 5 1
02/08/06 12:13 a -5.7 -5.7 -5.7 --- --- 1.7 NW 0.03 2.6 -6.8 --- --- 726.8 0.017 0.000 6.5 5 1
02/08/06 12:14 a -5.6 -5.6 -5.7 --- --- 1.7 NW 0.03 2.6 -6.7 --- --- 726.8 0.017 0.000 6.5 5 1
02/08/06 12:15 a -5.6 -5.6 -5.6 --- --- 1.7 NW 0.03 2.6 -6.7 --- --- 726.7 0.017 0.000 6.5 5 1
02/08/06 12:16 a -5.6 -5.5 -5.6 --- --- 1.7 NW 0.03 2.6 -6.7 --- --- 726.9 0.017 0.000 6.5 5 1
02/08/06 12:17 a -5.5 -5.4 -5.5 --- --- 0.9 NW 0.01 2.6 -5.5 --- --- 726.8 0.017 0.000 6.5 5 1
02/08/06 12:18 a -5.4 -5.4 -5.4 --- --- 1.7 NW 0.03 2.6 -6.6 --- --- 726.8 0.017 0.000 6.5 5 1
02/08/06 12:19 a -5.4 -5.4 -5.4 --- --- 1.7 NW 0.03 1.7 -6.5 --- --- 726.8 0.016 0.000 6.5 5 1
02/08/06 12:20 a -5.3 -5.3 -5.3 --- --- 1.7 NW 0.03 2.6 -6.4 --- --- 726.8 0.016 0.000 6.5 5 1
02/08/06 12:21 a -5.3 -5.3 -5.3 --- --- 1.7 NW 0.03 2.6 -6.4 --- --- 726.8 0.016 0.000 6.5 5 1
02/08/06 12:22 a -5.3 -5.3 -5.3 --- --- 2.6 NW 0.04 3.5 -7.4 --- --- 726.7 0.016 0.000 6.5 5 1
02/08/06 12:23 a -5.3 -5.2 -5.3 --- --- 2.6 NW 0.04 4.3 -7.4 --- --- 726.8 0.016 0.000 6.5 5 1
02/08/06 12:24 a -5.3 -5.2 -5.3 --- --- 3.5 NW 0.06 3.5 -8.3 --- --- 726.7 0.016 0.000 6.5 5 1
02/08/06 12:25 a -5.2 -5.2 -5.2 --- --- 1.7 NW 0.03 3.5 -6.3 --- --- 726.8 0.016 0.000 6.5 5 1
02/08/06 12:26 a -5.2 -5.2 -5.2 --- --- 0.9 NW 0.01 2.6 -5.2 --- --- 726.8 0.016 0.000 6.5 5 1
02/08/06 12:27 a -5.2 -5.2 -5.2 --- --- 0.9 NW 0.01 1.7 -5.2 --- --- 726.7 0.016 0.000 6.5 5 1
02/08/06 12:28 a -5.2 -5.2 -5.2 --- --- 1.7 NW 0.03 2.6 -6.3 --- --- 726.8 0.016 0.000 6.5 5 1
02/08/06 12:29 a -5.2 -5.2 -5.2 --- --- 1.7 NW 0.03 2.6 -6.3 --- --- 726.8 0.016 0.000 6.5 5 1
02/08/06 12:30 a -5.2 -5.2 -5.2 --- --- 0.9 NW 0.01 2.6 -5.2 --- --- 726.8 0.016 0.000 6.5 5 1
02/08/06 12:31 a -5.2 -5.2 -5.2 --- --- 1.7 NW 0.03 2.6 -6.3 --- --- 726.8 0.016 0.000 6.5 5 1
02/08/06 12:32 a -5.1 -5.1 -5.2 --- --- 3.5 NW 0.06 4.3 -8.1 --- --- 726.7 0.016 0.000 6.5 5 1
02/08/06 12:33 a -5.1 -5.1 -5.1 --- --- 2.6 NNW 0.04 4.3 -7.3 --- --- 726.7 0.016 0.000 6.5 5 1
02/08/06 12:34 a -5.1 -5.1 -5.1 --- --- 2.6 N 0.04 4.3 -7.3 --- --- 726.7 0.016 0.000 6.4 5 1
02/08/06 12:35 a -5.1 -5.1 -5.2 --- --- 2.6 N 0.04 3.5 -7.3 --- --- 726.7 0.016 0.000 6.5 5 1
02/08/06 12:36 a -5.2 -5.2 -5.2 --- --- 2.6 N 0.04 3.5 -7.3 --- --- 726.6 0.016 0.000 6.4 5 1
02/08/06 12:37 a -5.2 -5.2 -5.2 --- --- 0.9 N 0.01 2.6 -5.2 --- --- 726.6 0.016 0.000 6.5 5 1
02/08/06 12:38 a -5.2 -5.2 -5.2 --- --- 1.7 N 0.03 3.5 -6.3 --- --- 726.6 0.016 0.000 6.4 5 1
02/08/06 12:39 a -5.3 -5.3 -5.3 --- --- 1.7 N 0.03 1.7 -6.4 --- --- 726.7 0.016 0.000 6.4 5 1
02/08/06 12:40 a -5.3 -5.2 -5.3 --- --- 1.7 N 0.03 2.6 -6.4 --- --- 726.6 0.016 0.000 6.4 5 1
02/08/06 12:41 a -5.3 -5.3 -5.3 --- --- 0.0 N 0.00 0.9 -5.3 --- --- 726.6 0.016 0.000 6.4 5 1
02/08/06 12:42 a -5.3 -5.3 -5.3 --- --- 0.9 N 0.01 1.7 -5.3 --- --- 726.6 0.016 0.000 6.4 5 1
02/08/06 12:43 a -5.3 -5.3 -5.3 --- --- 0.0 N 0.00 0.9 -5.3 --- --- 726.6 0.016 0.000 6.4 5 1
02/08/06 12:44 a -5.3 -5.2 -5.3 --- --- 1.7 N 0.03 3.5 -6.4 --- --- 726.5 0.016 0.000 6.4 5 1
02/08/06 12:45 a -5.2 -5.2 -5.2 --- --- 2.6 N 0.04 2.6 -7.4 --- --- 726.6 0.016 0.000 6.4 5 1
02/08/06 12:46 a -5.2 -5.2 -5.2 --- --- 1.7 N 0.03 2.6 -6.3 --- --- 726.6 0.016 0.000 6.5 5 1
02/08/06 12:47 a -5.2 -5.1 -5.2 --- --- 1.7 N 0.03 2.6 -6.3 --- --- 726.6 0.016 0.000 6.5 5 1
02/08/06 12:48 a -5.1 -5.1 -5.1 --- --- 1.7 N 0.03 2.6 -6.2 --- --- 726.6 0.016 0.000 6.5 5 1
02/08/06 12:49 a -5.1 -5.0 -5.1 --- --- 0.9 N 0.01 2.6 -5.1 --- --- 726.6 0.016 0.000 6.5 5 1
02/08/06 12:50 a -5.0 -5.0 -5.0 --- --- 0.9 N 0.01 2.6 -5.0 --- --- 726.6 0.016 0.000 6.5 5 1
02/08/06 12:51 a -4.9 -4.9 -5.0 --- --- 0.9 N 0.01 1.7 -4.9 --- --- 726.6 0.016 0.000 6.5 5 1
02/08/06 12:52 a -4.9 -4.8 -4.9 --- --- 0.9 N 0.01 1.7 -4.9 --- --- 726.5 0.016 0.000 6.5 5 1
02/08/06 12:53 a -4.8 -4.8 -4.8 --- --- 1.7 N 0.03 3.5 -5.9 --- --- 726.6 0.016 0.000 6.6 5 1
02/08/06 12:54 a -4.8 -4.7 -4.8 --- --- 1.7 N 0.03 2.6 -5.8 --- --- 726.5 0.016 0.000 6.6 5 1
02/08/06 12:55 a -4.7 -4.7 -4.7 --- --- 1.7 N 0.03 2.6 -5.8 --- --- 726.5 0.016 0.000 6.6 5 1
02/08/06 12:56 a -4.7 -4.6 -4.7 --- --- 0.9 N 0.01 1.7 -4.7 --- --- 726.5 0.016 0.000 6.6 5 1
02/08/06 12:57 a -4.6 -4.6 -4.6 --- --- 1.7 N 0.03 3.5 -5.6 --- --- 726.6 0.016 0.000 6.6 5 1
02/08/06 12:58 a -4.6 -4.6 -4.6 --- --- 0.9 N 0.01 2.6 -4.6 --- --- 726.5 0.016 0.000 6.6 5 1
02/08/06 12:59 a -4.5 -4.4 -4.6 --- --- 0.0 --- 0.00 0.0 -4.5 --- --- 726.5 0.016 0.000 6.6 5 1
02/08/06 1:00 a -4.4 -4.4 -4.4 --- --- 0.0 N 0.00 0.9 -4.4 --- --- 726.5 0.016 0.000 6.6 5 1
02/08/06 1:01 a -4.3 -4.3 -4.4 --- --- 0.0 N 0.00 0.9 -4.3 --- --- 726.5 0.016 0.000 6.6 5 1
02/08/06 1:02 a -4.2 -4.2 -4.3 --- --- 0.9 N 0.01 1.7 -4.2 --- --- 726.5 0.016 0.000 6.6 5 1
02/08/06 1:03 a -4.2 -4.1 -4.2 --- --- 0.0 --- 0.00 0.0 -4.2 --- --- 726.5 0.016 0.000 6.6 5 1
02/08/06 1:04 a -4.1 -4.1 -4.1 --- --- 0.9 N 0.01 0.9 -4.1 --- --- 726.6 0.016 0.000 6.6 5 1
02/08/06 1:05 a -4.0 -3.9 -4.1 --- --- 0.9 N 0.01 1.7 -4.0 --- --- 726.5 0.016 0.000 6.6 5 1
02/08/06 1:06 a -3.9 -3.8 -3.9 --- --- 0.9 N 0.01 2.6 -3.9 --- --- 726.5 0.015 0.000 6.6 5 1
02/08/06 1:07 a -3.8 -3.8 -3.8 --- --- 0.9 N 0.01 0.9 -3.8 --- --- 726.4 0.015 0.000 6.7 5 1
02/08/06 1:08 a -3.7 -3.7 -3.8 --- --- 0.0 N 0.00 1.7 -3.7 --- --- 726.5 0.015 0.000 6.7 5 1
02/08/06 1:09 a -3.7 -3.6 -3.7 --- --- 0.9 N 0.01 1.7 -3.7 --- --- 726.5 0.015 0.000 6.7 5 1
02/08/06 1:10 a -3.6 -3.6 -3.6 --- --- 0.9 N 0.01 1.7 -3.6 --- --- 726.4 0.015 0.000 6.7 5 1
02/08/06 1:11 a -3.5 -3.4 -3.5 --- --- 0.9 N 0.01 1.7 -3.5 --- --- 726.4 0.015 0.000 6.7 5 1
02/08/06 1:12 a -3.4 -3.3 -3.4 --- --- 0.0 N 0.00 0.9 -3.4 --- --- 726.4 0.015 0.000 6.7 5 1
02/08/06 1:13 a -3.3 -3.3 -3.3 --- --- 0.0 N 0.00 0.9 -3.3 --- --- 726.4 0.015 0.000 6.7 5 1
02/08/06 1:14 a -3.2 -3.2 -3.2 --- --- 0.0 --- 0.00 0.0 -3.2 --- --- 726.3 0.015 0.000 6.7 5 1
02/08/06 1:15 a -3.1 -3.1 -3.1 --- --- 0.0 N 0.00 0.9 -3.1 --- --- 726.3 0.015 0.000 6.7 5 1
02/08/06 1:16 a -3.0 -3.0 -3.1 --- --- 0.0 --- 0.00 0.9 -3.0 --- --- 726.3 0.015 0.000 6.7 5 1
02/08/06 1:17 a -3.0 -2.9 -3.0 --- --- 0.0 N 0.00 0.9 -3.0 --- --- 726.3 0.015 0.000 6.7 5 1
02/08/06 1:18 a -2.9 -2.9 -2.9 --- --- 0.0 --- 0.00 0.0 -2.9 --- --- 726.4 0.015 0.000 6.7 5 1
02/08/06 1:19 a -2.8 -2.8 -2.8 --- --- 0.0 N 0.00 0.9 -2.8 --- --- 726.4 0.015 0.000 6.7 5 1
02/08/06 1:20 a -2.7 -2.7 -2.8 --- --- 0.0 N 0.00 0.9 -2.7 --- --- 726.3 0.015 0.000 6.7 5 1
02/08/06 1:21 a -2.7 -2.6 -2.7 --- --- 0.9 N 0.01 1.7 -2.7 --- --- 726.4 0.015 0.000 6.7 5 1
02/08/06 1:22 a -2.6 -2.5 -2.6 --- --- 0.0 N 0.00 1.7 -2.6 --- --- 726.3 0.015 0.000 6.7 5 1
02/08/06 1:23 a -2.4 -2.4 -2.4 --- --- 0.0 N 0.00 0.9 -2.4 --- --- 726.3 0.014 0.000 6.7 5 1
02/08/06 1:24 a -2.4 -2.3 -2.4 --- --- 0.0 N 0.00 0.9 -2.4 --- --- 726.3 0.014 0.000 6.7 5 1
02/08/06 1:25 a -2.3 -2.2 -2.3 --- --- 0.0 N 0.00 0.9 -2.3 --- --- 726.4 0.014 0.000 6.7 5 1
02/08/06 1:26 a -2.2 -2.2 -2.2 --- --- 0.9 N 0.01 1.7 -2.2 --- --- 726.4 0.014 0.000 6.7 5 1
02/08/06 1:27 a -2.2 -2.2 -2.2 --- --- 0.0 N 0.00 0.9 -2.2 --- --- 726.3 0.014 0.000 6.7 5 1
02/08/06 1:28 a -2.2 -2.2 -2.2 --- --- 0.9 N 0.01 1.7 -2.2 --- --- 726.3 0.014 0.000 6.7 5 1
02/08/06 1:29 a -2.2 -2.2 -2.2 --- --- 0.0 N 0.00 1.7 -2.2 --- --- 726.3 0.014 0.000 6.7 5 1
02/08/06 1:30 a -2.2 -2.2 -2.3 --- --- 0.9 N 0.01 1.7 -2.2 --- --- 726.3 0.014 0.000 6.7 5 1
02/08/06 1:31 a -2.2 -2.2 -2.2 --- --- 0.0 N 0.00 0.9 -2.2 --- --- 726.3 0.014 0.000 6.7 5 1
02/08/06 1:32 a -2.2 -2.2 -2.2 --- --- 0.0 N 0.00 1.7 -2.2 --- --- 726.3 0.014 0.000 6.7 5 1
02/08/06 1:33 a -2.2 -2.2 -2.2 --- --- 0.0 N 0.00 0.9 -2.2 --- --- 726.3 0.014 0.000 6.7 5 1
02/08/06 1:34 a -2.2 -2.2 -2.2 --- --- 0.9 N 0.01 1.7 -2.2 --- --- 726.2 0.014 0.000 6.7 5 1
02/08/06 1:35 a -2.2 -2.2 -2.2 --- --- 0.9 N 0.01 1.7 -2.2 --- --- 726.3 0.014 0.000 6.7 5 1
02/08/06 1:36 a -2.2 -2.2 -2.2 --- --- 1.7 N 0.03 2.6 -2.9 --- --- 726.3 0.014 0.000 6.7 5 1
02/08/06 1:37 a -2.2 -2.1 -2.2 --- --- 0.9 N 0.01 2.6 -2.2 --- --- 726.3 0.014 0.000 6.7 5 1
02/08/06 1:38 a -2.1 -2.1 -2.1 --- --- 2.6 N 0.04 3.5 -3.8 --- --- 726.4 0.014 0.000 6.7 5 1
02/08/06 1:39 a -2.1 -2.0 -2.1 --- --- 2.6 ENE 0.04 3.5 -3.8 --- --- 726.4 0.014 0.000 6.7 5 1
02/08/06 1:40 a -2.0 -2.0 -2.0 --- --- 2.6 SE 0.04 4.3 -3.8 --- --- 726.3 0.014 0.000 6.7 5 1
02/08/06 1:41 a -2.0 -2.0 -2.0 --- --- 2.6 SE 0.04 3.5 -3.8 --- --- 726.3 0.014 0.000 6.7 5 1
02/08/06 1:42 a -2.0 -2.0 -2.1 --- --- 1.7 SE 0.03 3.5 -2.8 --- --- 726.2 0.014 0.000 6.7 5 1
02/08/06 1:43 a -2.0 -1.9 -2.1 --- --- 2.6 SE 0.04 3.5 -3.8 --- --- 726.3 0.014 0.000 6.7 5 1
02/08/06 1:44 a -1.9 -1.9 -1.9 --- --- 2.6 SE 0.04 3.5 -3.7 --- --- 726.2 0.014 0.000 6.7 5 1
02/08/06 1:45 a -1.9 -1.9 -1.9 --- --- 2.6 SE 0.04 2.6 -3.6 --- --- 726.2 0.014 0.000 6.7 5 1
02/08/06 1:46 a -1.8 -1.8 -1.9 --- --- 1.7 SE 0.03 3.5 -2.6 --- --- 726.3 0.014 0.000 6.7 5 1
02/08/06 1:47 a -1.8 -1.7 -1.8 --- --- 2.6 SE 0.04 3.5 -3.5 --- --- 726.3 0.014 0.000 6.7 5 1
02/08/06 1:48 a -1.7 -1.7 -1.7 --- --- 2.6 SE 0.04 2.6 -3.4 --- --- 726.3 0.014 0.000 6.7 5 1
02/08/06 1:49 a -1.7 -1.6 -1.7 --- --- 3.5 SE 0.06 3.5 -4.1 --- --- 726.3 0.014 0.000 6.7 5 1
02/08/06 1:50 a -1.6 -1.5 -1.6 --- --- 2.6 SE 0.04 3.5 -3.3 --- --- 726.2 0.014 0.000 6.7 5 1
02/08/06 1:51 a -1.4 -1.4 -1.5 --- --- 0.9 SE 0.01 1.7 -1.4 --- --- 726.3 0.014 0.000 6.7 5 1
02/08/06 1:52 a -1.4 -1.4 -1.4 --- --- 0.0 SE 0.00 1.7 -1.4 --- --- 726.3 0.014 0.000 6.7 5 1
02/08/06 1:53 a -1.4 -1.4 -1.4 --- --- 0.9 SE 0.01 1.7 -1.4 --- --- 726.2 0.014 0.000 6.7 5 1
02/08/06 1:54 a -1.4 -1.4 -1.4 --- --- 0.0 SE 0.00 0.9 -1.4 --- --- 726.2 0.014 0.000 6.7 5 1
02/08/06 1:55 a -1.4 -1.4 -1.4 --- --- 0.9 SE 0.01 1.7 -1.4 --- --- 726.3 0.014 0.000 6.8 5 1
02/08/06 1:56 a -1.4 -1.4 -1.4 --- --- 0.0 SE 0.00 0.9 -1.4 --- --- 726.2 0.014 0.000 6.8 5 1
02/08/06 1:57 a -1.4 -1.4 -1.4 --- --- 0.0 --- 0.00 0.0 -1.4 --- --- 726.2 0.014 0.000 6.8 5 1
02/08/06 1:58 a -1.4 -1.4 -1.4 --- --- 0.9 SE 0.01 1.7 -1.4 --- --- 726.3 0.014 0.000 6.8 5 1
02/08/06 1:59 a -1.4 -1.4 -1.4 --- --- 1.7 SE 0.03 3.5 -2.1 --- --- 726.2 0.014 0.000 6.8 5 1
02/08/06 2:00 a -1.4 -1.4 -1.4 --- --- 1.7 SE 0.03 3.5 -2.2 --- --- 726.2 0.014 0.000 6.8 5 1
02/08/06 2:01 a -1.4 -1.4 -1.4 --- --- 3.5 SE 0.06 4.3 -3.8 --- --- 726.3 0.014 0.000 6.8 5 1
02/08/06 2:03 a -1.4 -1.4 -1.4 --- --- 3.5 E 0.06 4.3 -3.8 --- --- 726.2 0.014 0.000 6.8 5 1
02/08/06 2:04 a -1.4 -1.4 -1.4 --- --- 2.6 E 0.04 3.5 -3.1 --- --- 726.2 0.014 0.000 6.9 5 1
02/08/06 2:05 a -1.4 -1.4 -1.4 --- --- 3.5 E 0.06 4.3 -3.8 --- --- 726.2 0.014 0.000 6.8 5 1
02/08/06 2:06 a -1.4 -1.4 -1.4 --- --- 2.6 E 0.04 4.3 -3.1 --- --- 726.2 0.014 0.000 6.9 5 1
02/08/06 2:07 a -1.4 -1.4 -1.4 --- --- 1.7 E 0.03 3.5 -2.2 --- --- 726.1 0.014 0.000 6.9 5 1
02/08/06 2:08 a -1.4 -1.4 -1.4 --- --- 2.6 E 0.04 4.3 -3.1 --- --- 726.2 0.014 0.000 6.9 5 1
02/08/06 2:09 a -1.4 -1.3 -1.4 --- --- 2.6 E 0.04 2.6 -3.1 --- --- 726.2 0.014 0.000 6.9 5 1
02/08/06 2:10 a -1.3 -1.2 -1.3 --- --- 2.6 E 0.04 3.5 -2.9 --- --- 726.2 0.014 0.000 6.9 5 1
02/08/06 2:11 a -1.2 -1.2 -1.2 --- --- 1.7 E 0.03 3.5 -1.9 --- --- 726.2 0.014 0.000 6.9 5 1
02/08/06 2:12 a -1.1 -1.1 -1.2 --- --- 1.7 E 0.03 3.5 -1.8 --- --- 726.2 0.014 0.000 6.9 5 1
02/08/06 2:13 a -1.1 -1.0 -1.1 --- --- 2.6 E 0.04 3.5 -2.7 --- --- 726.1 0.013 0.000 6.9 5 1
02/08/06 2:14 a -0.9 -0.9 -0.9 --- --- 2.6 E 0.04 3.5 -2.5 --- --- 726.2 0.013 0.000 6.9 5 1
02/08/06 2:15 a -0.8 -0.8 -0.8 --- --- 3.5 E 0.06 4.3 -3.2 --- --- 726.1 0.013 0.000 6.9 5 1
02/08/06 2:16 a -0.7 -0.7 -0.8 --- --- 2.6 E 0.04 4.3 -2.3 --- --- 726.1 0.013 0.000 6.9 5 1
02/08/06 2:17 a -0.7 -0.7 -0.7 --- --- 2.6 E 0.04 4.3 -2.2 --- --- 726.1 0.013 0.000 6.9 5 1
02/08/06 2:18 a -0.6 -0.6 -0.6 --- --- 2.6 E 0.04 4.3 -2.2 --- --- 726.2 0.013 0.000 6.9 5 1
02/08/06 2:19 a -0.6 -0.5 -0.6 --- --- 3.5 E 0.06 4.3 -2.8 --- --- 726.2 0.013 0.000 6.9 5 1
02/08/06 2:20 a -0.5 -0.5 -0.5 --- --- 2.6 E 0.04 4.3 -2.1 --- --- 726.2 0.013 0.000 6.9 5 1
02/08/06 2:21 a -0.4 -0.4 -0.5 --- --- 1.7 E 0.03 3.5 -1.1 --- --- 726.1 0.013 0.000 6.9 5 1
02/08/06 2:22 a -0.4 -0.4 -0.4 --- --- 2.6 E 0.04 4.3 -1.9 --- --- 726.1 0.013 0.000 6.9 5 1
02/08/06 2:23 a -0.4 -0.4 -0.4 --- --- 1.7 E 0.03 3.5 -1.0 --- --- 726.2 0.013 0.000 6.9 5 1
02/08/06 2:24 a -0.3 -0.3 -0.3 --- --- 2.6 E 0.04 3.5 -1.9 --- --- 726.2 0.013 0.000 6.9 5 1
02/08/06 2:25 a -0.3 -0.3 -0.3 --- --- 1.7 E 0.03 2.6 -0.9 --- --- 726.2 0.013 0.000 6.9 5 1
02/08/06 2:26 a -0.3 -0.3 -0.3 --- --- 1.7 E 0.03 3.5 -0.9 --- --- 726.2 0.013 0.000 6.9 5 1
02/08/06 2:27 a -0.3 -0.3 -0.3 --- --- 3.5 E 0.06 5.2 -2.5 --- --- 726.2 0.013 0.000 6.9 5 1
02/08/06 2:28 a -0.2 -0.2 -0.2 --- --- 4.3 E 0.07 6.1 -3.0 --- --- 726.2 0.013 0.000 6.9 5 1
02/08/06 2:29 a -0.2 -0.2 -0.2 --- --- 4.3 E 0.07 5.2 -2.9 --- --- 726.2 0.013 0.000 6.9 5 1
02/08/06 2:30 a -0.2 -0.2 -0.2 --- --- 3.5 E 0.06 6.1 -2.4 --- --- 726.2 0.013 0.000 6.9 5 1
02/08/06 2:31 a -0.2 -0.2 -0.2 --- --- 2.6 E 0.04 4.3 -1.7 --- --- 726.2 0.013 0.000 6.9 5 1
02/08/06 2:32 a -0.2 -0.2 -0.2 --- --- 3.5 E 0.06 5.2 -2.4 --- --- 726.2 0.013 0.000 6.9 5 1
02/08/06 2:33 a -0.2 -0.2 -0.2 --- --- 3.5 E 0.06 6.1 -2.4 --- --- 726.2 0.013 0.000 6.9 5 1
02/08/06 2:34 a -0.2 -0.2 -0.2 --- --- 2.6 E 0.04 4.3 -1.7 --- --- 726.2 0.013 0.000 6.9 5 1
02/08/06 2:35 a -0.2 -0.2 -0.2 --- --- 1.7 E 0.03 3.5 -0.8 --- --- 726.1 0.013 0.000 6.9 5 1
02/08/06 2:36 a -0.2 -0.1 -0.2 --- --- 2.6 E 0.04 3.5 -1.7 --- --- 726.1 0.013 0.000 6.9 5 1
02/08/06 2:37 a -0.1 -0.1 -0.2 --- --- 1.7 E 0.03 2.6 -0.7 --- --- 726.1 0.013 0.000 6.9 5 1
02/08/06 2:38 a -0.1 -0.1 -0.1 --- --- 1.7 E 0.03 2.6 -0.7 --- --- 726.1 0.013 0.000 6.9 5 1
02/08/06 2:39 a -0.1 0.0 -0.1 --- --- 2.6 E 0.04 3.5 -1.6 --- --- 726.2 0.013 0.000 6.9 5 1
02/08/06 2:40 a 0.0 0.0 0.0 --- --- 2.6 E 0.04 3.5 -1.5 --- --- 726.2 0.013 0.000 6.9 5 1
02/08/06 2:41 a 0.0 0.1 0.0 --- --- 1.7 E 0.03 3.5 -0.6 --- --- 726.1 0.013 0.000 6.9 5 1
02/08/06 2:42 a 0.1 0.1 0.1 --- --- 2.6 E 0.04 3.5 -1.4 --- --- 726.2 0.013 0.000 6.9 5 1
02/08/06 2:43 a 0.1 0.1 0.1 --- --- 2.6 E 0.04 3.5 -1.4 --- --- 726.1 0.013 0.000 6.9 5 1
02/08/06 2:44 a 0.1 0.2 0.1 --- --- 2.6 E 0.04 4.3 -1.4 --- --- 726.1 0.013 0.000 6.9 5 1
02/08/06 2:45 a 0.2 0.2 0.2 --- --- 2.6 E 0.04 4.3 -1.3 --- --- 726.2 0.013 0.000 6.9 6 1
02/08/06 2:46 a 0.2 0.2 0.2 --- --- 2.6 E 0.04 3.5 -1.2 --- --- 726.2 0.013 0.000 6.9 5 1
02/08/06 2:47 a 0.2 0.2 0.2 --- --- 3.5 E 0.06 4.3 -1.9 --- --- 726.2 0.013 0.000 6.9 5 1
02/08/06 2:48 a 0.2 0.2 0.2 --- --- 2.6 E 0.04 3.5 -1.2 --- --- 726.1 0.013 0.000 6.9 5 1
02/08/06 2:49 a 0.2 0.3 0.2 --- --- 2.6 E 0.04 4.3 -1.2 --- --- 726.1 0.013 0.000 7.0 5 1
02/08/06 2:50 a 0.3 0.3 0.2 --- --- 3.5 E 0.06 4.3 -1.8 --- --- 726.0 0.013 0.000 7.0 5 1
02/08/06 2:51 a 0.3 0.3 0.3 --- --- 2.6 E 0.04 4.3 -1.2 --- --- 726.1 0.013 0.000 7.0 5 1
02/08/06 2:52 a 0.3 0.3 0.3 --- --- 2.6 E 0.04 4.3 -1.2 --- --- 726.0 0.013 0.000 7.0 5 1
02/08/06 2:53 a 0.3 0.3 0.3 --- --- 2.6 E 0.04 4.3 -1.1 --- --- 726.1 0.013 0.000 7.0 5 1
02/08/06 2:54 a 0.3 0.3 0.3 --- --- 2.6 E 0.04 3.5 -1.1 --- --- 726.1 0.013 0.000 7.0 5 1
02/08/06 2:55 a 0.3 0.4 0.3 --- --- 1.7 E 0.03 2.6 -0.2 --- --- 726.0 0.013 0.000 7.0 5 1
02/08/06 2:56 a 0.4 0.4 0.4 --- --- 1.7 E 0.03 2.6 -0.1 --- --- 726.1 0.012 0.000 7.0 5 1
02/08/06 2:57 a 0.4 0.5 0.4 --- --- 1.7 E 0.03 2.6 -0.1 --- --- 726.1 0.012 0.000 7.0 5 1
02/08/06 2:58 a 0.6 0.6 0.5 --- --- 1.7 E 0.03 2.6 0.1 --- --- 726.0 0.012 0.000 7.0 5 1
02/08/06 2:59 a 0.6 0.6 0.6 --- --- 1.7 E 0.03 2.6 0.1 --- --- 726.0 0.012 0.000 7.0 5 1
02/08/06 3:00 a 0.6 0.6 0.6 --- --- 1.7 E 0.03 3.5 0.1 --- --- 726.0 0.012 0.000 7.0 5 1
02/08/06 3:01 a 0.6 0.7 0.6 --- --- 2.6 E 0.04 3.5 -0.8 --- --- 726.0 0.012 0.000 7.0 6 1
02/08/06 3:02 a 0.7 0.7 0.7 --- --- 2.6 E 0.04 3.5 -0.7 --- --- 726.0 0.012 0.000 7.0 5 1
02/08/06 3:03 a 0.7 0.7 0.7 --- --- 1.7 E 0.03 2.6 0.2 --- --- 725.9 0.012 0.000 7.0 5 1
02/08/06 3:04 a 0.8 0.8 0.8 --- --- 2.6 E 0.04 3.5 -0.6 --- --- 725.9 0.012 0.000 7.0 6 1
02/08/06 3:05 a 0.8 0.9 0.8 --- --- 2.6 E 0.04 3.5 -0.6 --- --- 726.0 0.012 0.000 7.0 6 1
02/08/06 3:06 a 0.9 0.9 0.9 --- --- 2.6 E 0.04 3.5 -0.5 --- --- 725.9 0.012 0.000 7.0 5 1
02/08/06 3:07 a 0.9 0.9 0.9 --- --- 1.7 E 0.03 3.5 0.4 --- --- 725.9 0.012 0.000 7.0 6 1
02/08/06 3:08 a 0.9 0.9 0.9 --- --- 2.6 E 0.04 3.5 -0.4 --- --- 725.9 0.012 0.000 7.0 6 1
02/08/06 3:09 a 0.9 0.9 0.9 --- --- 2.6 E 0.04 4.3 -0.4 --- --- 725.9 0.012 0.000 7.0 6 1
02/08/06 3:10 a 1.0 1.0 0.9 --- --- 2.6 E 0.04 3.5 -0.3 --- --- 725.9 0.012 0.000 7.1 5 1
02/08/06 3:11 a 1.0 1.0 1.0 --- --- 2.6 E 0.04 3.5 -0.3 --- --- 725.9 0.012 0.000 7.1 5 1
02/08/06 3:12 a 1.0 1.0 1.0 --- --- 2.6 E 0.04 3.5 -0.3 --- --- 725.8 0.012 0.000 7.1 5 1
02/08/06 3:13 a 1.0 1.0 0.9 --- --- 4.3 E 0.07 5.2 -1.6 --- --- 725.9 0.012 0.000 7.1 6 1
02/08/06 3:14 a 1.0 1.0 0.9 --- --- 4.3 E 0.07 4.3 -1.6 --- --- 725.8 0.012 0.000 7.1 6 1
02/08/06 3:15 a 1.0 1.0 1.0 --- --- 4.3 E 0.07 5.2 -1.6 --- --- 725.9 0.012 0.000 7.1 5 1
02/08/06 3:16 a 1.0 1.0 1.0 --- --- 3.5 E 0.06 4.3 -1.0 --- --- 725.9 0.012 0.000 7.2 5 1
02/08/06 3:17 a 1.0 1.0 1.0 --- --- 2.6 E 0.04 3.5 -0.3 --- --- 725.8 0.012 0.000 7.2 5 1
02/08/06 3:18 a 1.0 1.0 1.0 --- --- 1.7 E 0.03 2.6 0.5 --- --- 725.9 0.012 0.000 7.2 5 1
02/08/06 3:19 a 1.0 1.1 1.0 --- --- 0.9 E 0.01 2.6 1.0 --- --- 725.8 0.012 0.000 7.2 6 1
02/08/06 3:20 a 1.1 1.1 1.1 --- --- 0.9 E 0.01 2.6 1.1 --- --- 725.8 0.012 0.000 7.2 6 1
02/08/06 3:21 a 1.1 1.1 1.1 --- --- 1.7 E 0.03 2.6 0.7 --- --- 725.8 0.012 0.000 7.2 6 1
02/08/06 3:22 a 1.2 1.2 1.1 --- --- 1.7 E 0.03 2.6 0.7 --- --- 725.8 0.012 0.000 7.2 5 1
02/08/06 3:23 a 1.2 1.2 1.2 --- --- 1.7 E 0.03 2.6 0.8 --- --- 725.8 0.012 0.000 7.2 6 1
02/08/06 3:24 a 1.3 1.3 1.2 --- --- 1.7 E 0.03 3.5 0.8 --- --- 725.9 0.012 0.000 7.3 6 1
02/08/06 3:25 a 1.3 1.3 1.3 --- --- 2.6 E 0.04 3.5 -0.1 --- --- 725.9 0.012 0.000 7.3 5 1
02/08/06 3:26 a 1.3 1.3 1.3 --- --- 2.6 E 0.04 4.3 0.0 --- --- 725.8 0.012 0.000 7.3 6 1
02/08/06 3:27 a 1.3 1.3 1.3 --- --- 2.6 E 0.04 4.3 0.0 --- --- 725.8 0.012 0.000 7.3 5 1
02/08/06 3:28 a 1.3 1.3 1.3 --- --- 2.6 E 0.04 4.3 0.0 --- --- 725.7 0.012 0.000 7.3 5 1
02/08/06 3:29 a 1.3 1.4 1.3 --- --- 2.6 E 0.04 4.3 0.0 --- --- 725.8 0.012 0.000 7.3 5 1
02/08/06 3:30 a 1.4 1.4 1.4 --- --- 2.6 E 0.04 4.3 0.1 --- --- 725.8 0.012 0.000 7.3 5 1
02/08/06 3:31 a 1.4 1.4 1.4 --- --- 2.6 E 0.04 3.5 0.1 --- --- 725.8 0.012 0.000 7.3 6 1
02/08/06 3:32 a 1.4 1.4 1.4 --- --- 3.5 E 0.06 3.5 -0.5 --- --- 725.8 0.012 0.000 7.3 5 1
02/08/06 3:33 a 1.4 1.5 1.4 --- --- 4.3 E 0.07 5.2 -1.1 --- --- 725.9 0.012 0.000 7.4 5 1
02/08/06 3:34 a 1.5 1.5 1.5 --- --- 5.2 E 0.09 6.1 -1.4 --- --- 725.7 0.012 0.000 7.4 5 1
02/08/06 3:35 a 1.5 1.5 1.4 --- --- 5.2 E 0.09 7.0 -1.4 --- --- 725.8 0.012 0.000 7.4 5 1
02/08/06 3:36 a 1.4 1.4 1.4 --- --- 5.2 E 0.09 6.1 -1.5 --- --- 725.9 0.012 0.000 7.4 5 1
02/08/06 3:37 a 1.4 1.4 1.4 --- --- 5.2 ENE 0.09 6.1 -1.5 --- --- 725.9 0.012 0.000 7.4 5 1
02/08/06 3:38 a 1.4 1.4 1.4 --- --- 4.3 ENE 0.07 5.2 -1.1 --- --- 725.9 0.012 0.000 7.4 5 1
02/08/06 3:39 a 1.4 1.4 1.4 --- --- 3.5 ENE 0.06 6.1 -0.5 --- --- 725.9 0.012 0.000 7.4 5 1
02/08/06 3:40 a 1.4 1.4 1.4 --- --- 5.2 ENE 0.09 7.0 -1.5 --- --- 725.9 0.012 0.000 7.4 5 1
02/08/06 3:41 a 1.4 1.4 1.4 --- --- 5.2 ENE 0.09 7.0 -1.5 --- --- 725.8 0.012 0.000 7.4 5 1
02/08/06 3:42 a 1.4 1.4 1.4 --- --- 6.1 ENE 0.10 7.0 -1.9 --- --- 725.8 0.012 0.000 7.4 5 1
02/08/06 3:43 a 1.4 1.4 1.4 --- --- 5.2 ENE 0.09 6.1 -1.5 --- --- 725.9 0.012 0.000 7.4 5 1
02/08/06 3:44 a 1.4 1.4 1.4 --- --- 3.5 ENE 0.06 4.3 -0.5 --- --- 725.9 0.012 0.000 7.4 5 1
02/08/06 3:45 a 1.4 1.4 1.4 --- --- 3.5 ENE 0.06 5.2 -0.5 --- --- 725.9 0.012 0.000 7.5 5 1
02/08/06 3:46 a 1.5 1.5 1.4 --- --- 3.5 ENE 0.06 4.3 -0.4 --- --- 725.9 0.012 0.000 7.5 5 1
02/08/06 3:47 a 1.5 1.6 1.5 --- --- 3.5 ENE 0.06 4.3 -0.4 --- --- 725.9 0.012 0.000 7.4 5 1
02/08/06 3:48 a 1.6 1.6 1.6 --- --- 4.3 ENE 0.07 5.2 -0.9 --- --- 725.9 0.012 0.000 7.4 5 1
02/08/06 3:49 a 1.6 1.6 1.6 --- --- 5.2 ENE 0.09 6.1 -1.3 --- --- 725.9 0.012 0.000 7.4 5 1
02/08/06 3:50 a 1.6 1.6 1.6 --- --- 6.1 E 0.10 7.8 -1.7 --- --- 726.0 0.012 0.000 7.4 5 1
02/08/06 3:51 a 1.6 1.6 1.6 --- --- 5.2 E 0.09 7.0 -1.3 --- --- 726.1 0.012 0.000 7.4 5 1
02/08/06 3:52 a 1.6 1.6 1.6 --- --- 5.2 ENE 0.09 6.1 -1.3 --- --- 726.0 0.012 0.000 7.4 5 1
02/08/06 3:53 a 1.6 1.6 1.6 --- --- 4.3 ENE 0.07 5.2 -0.8 --- --- 725.9 0.012 0.000 7.4 5 1
02/08/06 3:54 a 1.6 1.6 1.6 --- --- 3.5 ENE 0.06 5.2 -0.4 --- --- 726.0 0.012 0.000 7.4 5 1
02/08/06 3:55 a 1.6 1.6 1.6 --- --- 5.2 ENE 0.09 6.1 -1.3 --- --- 725.9 0.012 0.000 7.4 5 1
02/08/06 3:56 a 1.6 1.6 1.6 --- --- 4.3 ENE 0.07 6.1 -0.8 --- --- 726.0 0.012 0.000 7.4 5 1
02/08/06 3:57 a 1.6 1.6 1.6 --- --- 6.1 NE 0.10 7.0 -1.7 --- --- 726.0 0.012 0.000 7.4 5 1
02/08/06 3:58 a 1.5 1.6 1.5 --- --- 5.2 NE 0.09 7.0 -1.4 --- --- 725.9 0.012 0.000 7.5 5 1
02/08/06 3:59 a 1.4 1.5 1.4 --- --- 5.2 NE 0.09 6.1 -1.5 --- --- 725.9 0.012 0.000 7.5 5 1
02/08/06 4:00 a 1.5 1.5 1.4 --- --- 5.2 NE 0.09 6.1 -1.4 --- --- 725.9 0.012 0.000 7.5 5 1
02/08/06 4:01 a 1.5 1.5 1.4 --- --- 5.2 NE 0.09 6.1 -1.4 --- --- 725.8 0.012 0.000 7.5 5 1
02/08/06 4:03 a 1.5 1.5 1.5 --- --- 5.2 NE 0.09 6.1 -1.4 --- --- 725.9 0.012 0.000 7.5 5 1
02/08/06 4:04 a 1.5 1.5 1.5 --- --- 5.2 NE 0.09 6.1 -1.4 --- --- 725.9 0.012 0.000 7.5 5 1
02/08/06 4:05 a 1.5 1.5 1.5 --- --- 6.1 NE 0.10 7.0 -1.8 --- --- 725.9 0.012 0.000 7.5 5 1
02/08/06 4:06 a 1.5 1.5 1.5 --- --- 6.1 NE 0.10 6.1 -1.8 --- --- 725.9 0.012 0.000 7.5 5 1
02/08/06 4:07 a 1.5 1.5 1.4 --- --- 5.2 NE 0.09 6.1 -1.4 --- --- 725.9 0.012 0.000 7.6 5 1
02/08/06 4:08 a 1.5 1.5 1.4 --- --- 5.2 NE 0.09 6.1 -1.4 --- --- 725.9 0.012 0.000 7.6 5 1
02/08/06 4:09 a 1.4 1.5 1.4 --- --- 5.2 NE 0.09 6.1 -1.5 --- --- 725.8 0.012 0.000 7.6 5 1
02/08/06 4:10 a 1.4 1.4 1.4 --- --- 6.1 NE 0.10 7.0 -1.9 --- --- 725.8 0.012 0.000 7.6 5 1
02/08/06 4:11 a 1.4 1.4 1.4 --- --- 6.1 NE 0.10 7.0 -1.9 --- --- 725.9 0.012 0.000 7.6 5 1
02/08/06 4:12 a 1.4 1.4 1.3 --- --- 5.2 NE 0.09 7.0 -1.6 --- --- 725.9 0.012 0.000 7.6 5 1
02/08/06 4:13 a 1.2 1.3 1.2 --- --- 6.1 NE 0.10 7.0 -2.2 --- --- 725.8 0.012 0.000 7.6 5 1
02/08/06 4:14 a 1.2 1.2 1.2 --- --- 6.1 NE 0.10 7.0 -2.2 --- --- 725.8 0.012 0.000 7.6 5 1
02/08/06 4:15 a 1.2 1.2 1.1 --- --- 6.1 NE 0.10 7.0 -2.2 --- --- 725.7 0.012 0.000 7.6 5 1
02/08/06 4:16 a 1.1 1.2 1.1 --- --- 6.1 NE 0.10 7.0 -2.3 --- --- 725.8 0.012 0.000 7.6 5 1
02/08/06 4:17 a 1.2 1.2 1.2 --- --- 6.1 NE 0.10 7.0 -2.2 --- --- 725.8 0.012 0.000 7.6 5 1
02/08/06 4:18 a 1.2 1.2 1.2 --- --- 6.1 NE 0.10 7.0 -2.2 --- --- 725.7 0.012 0.000 7.6 5 1
02/08/06 4:19 a 1.2 1.2 1.2 --- --- 7.0 NE 0.12 7.8 -2.5 --- --- 725.8 0.012 0.000 7.6 5 1
02/08/06 4:20 a 1.2 1.2 1.2 --- --- 6.1 NE 0.10 7.0 -2.2 --- --- 725.8 0.012 0.000 7.6 5 1
02/08/06 4:21 a 1.2 1.2 1.2 --- --- 6.1 NE 0.10 7.0 -2.2 --- --- 725.8 0.012 0.000 7.6 5 1
02/08/06 4:22 a 1.2 1.2 1.2 --- --- 7.0 NE 0.12 7.8 -2.6 --- --- 725.8 0.012 0.000 7.6 5 1
02/08/06 4:23 a 1.2 1.2 1.2 --- --- 6.1 NE 0.10 7.0 -2.2 --- --- 725.7 0.012 0.000 7.6 5 1
02/08/06 4:24 a 1.2 1.2 1.2 --- --- 6.1 ENE 0.10 7.8 -2.2 --- --- 725.8 0.012 0.000 7.6 5 1
02/08/06 4:25 a 1.2 1.2 1.2 --- --- 6.1 ENE 0.10 7.8 -2.2 --- --- 725.8 0.012 0.000 7.7 5 1
02/08/06 4:26 a 1.2 1.2 1.2 --- --- 6.1 ENE 0.10 7.0 -2.2 --- --- 725.8 0.012 0.000 7.7 5 1
02/08/06 4:27 a 1.2 1.2 1.2 --- --- 6.1 ENE 0.10 7.0 -2.2 --- --- 725.8 0.012 0.000 7.7 5 1
02/08/06 4:28 a 1.2 1.2 1.2 --- --- 6.1 ENE 0.10 7.0 -2.2 --- --- 725.7 0.012 0.000 7.7 5 1
02/08/06 4:29 a 1.2 1.2 1.2 --- --- 6.1 ENE 0.10 7.0 -2.2 --- --- 725.7 0.012 0.000 7.7 5 1
02/08/06 4:30 a 1.2 1.2 1.2 --- --- 5.2 ENE 0.09 7.0 -1.7 --- --- 725.7 0.012 0.000 7.7 5 1
02/08/06 4:31 a 1.2 1.2 1.2 --- --- 5.2 ENE 0.09 6.1 -1.7 --- --- 725.7 0.012 0.000 7.7 5 1
02/08/06 4:32 a 1.2 1.2 1.2 --- --- 6.1 ENE 0.10 7.0 -2.2 --- --- 725.7 0.012 0.000 7.7 5 1
02/08/06 4:33 a 1.2 1.2 1.2 --- --- 5.2 ENE 0.09 6.1 -1.7 --- --- 725.8 0.012 0.000 7.7 5 1
02/08/06 4:34 a 1.2 1.2 1.2 --- --- 5.2 ENE 0.09 6.1 -1.7 --- --- 725.7 0.012 0.000 7.7 5 1
02/08/06 4:35 a 1.2 1.3 1.2 --- --- 5.2 ENE 0.09 5.2 -1.7 --- --- 725.6 0.012 0.000 7.7 5 1
02/08/06 4:36 a 1.3 1.3 1.2 --- --- 5.2 ENE 0.09 6.1 -1.7 --- --- 725.7 0.012 0.000 7.7 5 1
02/08/06 4:37 a 1.3 1.3 1.3 --- --- 5.2 ENE 0.09 7.0 -1.7 --- --- 725.7 0.012 0.000 7.7 5 1
02/08/06 4:38 a 1.2 1.2 1.2 --- --- 5.2 ENE 0.09 6.1 -1.7 --- --- 725.7 0.012 0.000 7.7 5 1
02/08/06 4:39 a 1.2 1.2 1.2 --- --- 4.3 ENE 0.07 5.2 -1.3 --- --- 725.7 0.012 0.000 7.7 5 1
02/08/06 4:40 a 1.2 1.2 1.2 --- --- 4.3 ENE 0.07 5.2 -1.3 --- --- 725.7 0.012 0.000 7.7 5 1
02/08/06 4:41 a 1.2 1.2 1.2 --- --- 5.2 ENE 0.09 5.2 -1.7 --- --- 725.7 0.012 0.000 7.7 5 1
02/08/06 4:42 a 1.3 1.3 1.2 --- --- 5.2 ENE 0.09 6.1 -1.7 --- --- 725.7 0.012 0.000 7.7 5 1
02/08/06 4:43 a 1.3 1.3 1.2 --- --- 5.2 ENE 0.09 6.1 -1.7 --- --- 725.8 0.012 0.000 7.7 5 1
02/08/06 4:44 a 1.3 1.3 1.3 --- --- 5.2 ENE 0.09 6.1 -1.7 --- --- 725.7 0.012 0.000 7.7 5 1
02/08/06 4:45 a 1.2 1.2 1.2 --- --- 5.2 ENE 0.09 6.1 -1.7 --- --- 725.8 0.012 0.000 7.7 5 1
02/08/06 4:46 a 1.2 1.2 1.1 --- --- 6.1 ENE 0.10 7.0 -2.2 --- --- 725.7 0.012 0.000 7.7 5 1
02/08/06 4:47 a 1.1 1.1 1.1 --- --- 5.2 ENE 0.09 6.1 -1.9 --- --- 725.7 0.012 0.000 7.7 5 1
02/08/06 4:48 a 1.1 1.1 1.1 --- --- 5.2 ENE 0.09 7.0 -1.9 --- --- 725.7 0.012 0.000 7.7 5 1
02/08/06 4:49 a 1.1 1.1 1.1 --- --- 6.1 ENE 0.10 7.0 -2.3 --- --- 725.7 0.012 0.000 7.7 5 1
02/08/06 4:50 a 1.1 1.1 1.1 --- --- 5.2 ENE 0.09 6.1 -1.9 --- --- 725.7 0.012 0.000 7.7 5 1
02/08/06 4:51 a 1.1 1.1 1.0 --- --- 5.2 E 0.09 7.0 -1.9 --- --- 725.8 0.012 0.000 7.7 5 1
02/08/06 4:52 a 1.1 1.1 1.1 --- --- 5.2 E 0.09 7.8 -1.9 --- --- 725.7 0.012 0.000 7.8 5 1
02/08/06 4:53 a 1.1 1.1 1.1 --- --- 6.1 E 0.10 7.0 -2.3 --- --- 725.7 0.012 0.000 7.8 5 1
02/08/06 4:54 a 1.0 1.1 1.0 --- --- 5.2 E 0.09 6.1 -2.0 --- --- 725.7 0.012 0.000 7.8 5 1
02/08/06 4:55 a 1.0 1.0 0.9 --- --- 4.3 E 0.07 7.8 -1.6 --- --- 725.7 0.012 0.000 7.8 5 1
02/08/06 4:56 a 0.9 0.9 0.9 --- --- 5.2 E 0.09 6.1 -2.2 --- --- 725.6 0.012 0.000 7.8 5 1
02/08/06 4:57 a 0.8 0.8 0.8 --- --- 5.2 E 0.09 7.0 -2.2 --- --- 725.6 0.012 0.000 7.8 5 1
02/08/06 4:58 a 0.8 0.8 0.8 --- --- 5.2 E 0.09 7.8 -2.2 --- --- 725.7 0.012 0.000 7.8 5 1
02/08/06 4:59 a 0.8 0.8 0.7 --- --- 5.2 E 0.09 7.8 -2.3 --- --- 725.6 0.012 0.000 7.8 5 1
02/08/06 5:00 a 0.7 0.7 0.6 --- --- 6.1 E 0.10 7.8 -2.8 --- --- 725.6 0.012 0.000 7.8 5 1
02/08/06 5:01 a 0.6 0.6 0.6 --- --- 5.2 E 0.09 7.0 -2.5 --- --- 725.7 0.012 0.000 7.8 5 1
02/08/06 5:02 a 0.5 0.6 0.4 --- --- 5.2 E 0.09 7.8 -2.6 --- --- 725.7 0.012 0.000 7.8 5 1
02/08/06 5:03 a 0.4 0.4 0.4 --- --- 6.1 E 0.10 7.8 -3.1 --- --- 725.7 0.012 0.000 7.8 5 1
02/08/06 5:04 a 0.4 0.4 0.3 --- --- 6.1 E 0.10 7.8 -3.2 --- --- 725.6 0.012 0.000 7.8 5 1
02/08/06 5:05 a 0.3 0.3 0.3 --- --- 6.1 E 0.10 7.8 -3.2 --- --- 725.6 0.013 0.000 7.8 5 1
02/08/06 5:06 a 0.3 0.3 0.2 --- --- 6.1 E 0.10 7.8 -3.3 --- --- 725.6 0.013 0.000 7.8 5 1
02/08/06 5:07 a 0.2 0.2 0.2 --- --- 7.0 E 0.12 7.8 -3.7 --- --- 725.7 0.013 0.000 7.8 5 1
02/08/06 5:08 a 0.2 0.2 0.1 --- --- 7.0 E 0.12 7.8 -3.8 --- --- 725.6 0.013 0.000 7.8 5 1
02/08/06 5:09 a 0.1 0.1 0.1 --- --- 7.0 E 0.12 7.8 -3.8 --- --- 725.6 0.013 0.000 7.8 5 1
02/08/06 5:10 a 0.1 0.1 0.1 --- --- 7.0 ENE 0.12 8.7 -3.8 --- --- 725.6 0.013 0.000 7.8 5 1
02/08/06 5:11 a 0.1 0.1 0.1 --- --- 7.8 ENE 0.13 8.7 -4.2 --- --- 725.7 0.013 0.000 7.8 5 1
02/08/06 5:12 a 0.1 0.1 0.0 --- --- 7.8 E 0.13 8.7 -4.2 --- --- 725.6 0.013 0.000 7.9 5 1
02/08/06 5:13 a -0.1 -0.1 -0.1 --- --- 7.8 ENE 0.13 8.7 -4.4 --- --- 725.6 0.013 0.000 7.8 5 1
02/08/06 5:14 a -0.2 -0.1 -0.2 --- --- 7.0 E 0.12 8.7 -4.2 --- --- 725.5 0.013 0.000 7.9 5 1
02/08/06 5:15 a -0.2 -0.2 -0.3 --- --- 7.8 E 0.13 8.7 -4.6 --- --- 725.6 0.013 0.000 7.9 5 1
02/08/06 5:16 a -0.3 -0.3 -0.3 --- --- 7.8 E 0.13 8.7 -4.7 --- --- 725.6 0.013 0.000 7.9 5 1
02/08/06 5:17 a -0.3 -0.3 -0.4 --- --- 7.0 E 0.12 8.7 -4.4 --- --- 725.6 0.013 0.000 7.9 5 1
02/08/06 5:18 a -0.4 -0.4 -0.5 --- --- 8.7 ENE 0.14 8.7 -5.2 --- --- 725.6 0.013 0.000 7.9 5 1
02/08/06 5:19 a -0.5 -0.5 -0.6 --- --- 7.8 E 0.13 9.6 -4.9 --- --- 725.6 0.013 0.000 7.9 5 1
02/08/06 5:20 a -0.5 -0.5 -0.5 --- --- 7.8 ENE 0.13 8.7 -4.9 --- --- 725.6 0.013 0.000 7.9 5 1
02/08/06 5:21 a -0.6 -0.5 -0.6 --- --- 7.8 E 0.13 9.6 -5.0 --- --- 725.5 0.013 0.000 7.9 5 1
02/08/06 5:22 a -0.6 -0.6 -0.7 --- --- 7.8 E 0.13 8.7 -5.1 --- --- 725.5 0.013 0.000 7.9 5 1
02/08/06 5:23 a -0.7 -0.7 -0.7 --- --- 7.8 ENE 0.13 8.7 -5.1 --- --- 725.6 0.013 0.000 7.9 5 1
02/08/06 5:24 a -0.7 -0.7 -0.7 --- --- 7.8 ENE 0.13 8.7 -5.2 --- --- 725.6 0.013 0.000 7.9 5 1
02/08/06 5:25 a -0.7 -0.7 -0.8 --- --- 7.8 ENE 0.13 8.7 -5.2 --- --- 725.6 0.013 0.000 7.9 5 1
02/08/06 5:26 a -0.8 -0.8 -0.8 --- --- 7.8 ENE 0.13 8.7 -5.3 --- --- 725.6 0.013 0.000 7.9 5 1
02/08/06 5:27 a -0.8 -0.8 -0.8 --- --- 7.8 ENE 0.13 8.7 -5.3 --- --- 725.6 0.013 0.000 7.9 5 1
02/08/06 5:28 a -0.8 -0.8 -0.8 --- --- 8.7 ENE 0.14 9.6 -5.6 --- --- 725.6 0.013 0.000 7.9 5 1
02/08/06 5:29 a -0.9 -0.9 -0.9 --- --- 8.7 ENE 0.14 9.6 -5.7 --- --- 725.6 0.013 0.000 7.9 5 1
02/08/06 5:30 a -0.9 -0.9 -0.9 --- --- 7.8 ENE 0.13 8.7 -5.4 --- --- 725.6 0.013 0.000 7.9 5 1
02/08/06 5:31 a -0.9 -0.9 -0.9 --- --- 7.8 ENE 0.13 8.7 -5.4 --- --- 725.7 0.013 0.000 7.9 5 1
02/08/06 5:32 a -0.9 -0.9 -0.9 --- --- 7.0 ENE 0.12 7.8 -5.1 --- --- 725.7 0.013 0.000 7.9 5 1
02/08/06 5:33 a -0.9 -0.9 -0.9 --- --- 7.8 ENE 0.13 8.7 -5.4 --- --- 725.6 0.013 0.000 8.0 5 1
02/08/06 5:34 a -0.9 -0.9 -0.9 --- --- 7.8 ENE 0.13 8.7 -5.4 --- --- 725.7 0.013 0.000 8.0 5 1
02/08/06 5:35 a -0.9 -0.9 -0.9 --- --- 7.8 ENE 0.13 7.8 -5.4 --- --- 725.7 0.013 0.000 8.0 5 1
02/08/06 5:36 a -0.9 -0.9 -1.0 --- --- 7.8 ENE 0.13 8.7 -5.4 --- --- 725.7 0.013 0.000 8.0 5 1
02/08/06 5:37 a -1.0 -1.0 -1.0 --- --- 8.7 ENE 0.14 9.6 -5.8 --- --- 725.7 0.013 0.000 8.0 5 1
02/08/06 5:38 a -1.1 -1.1 -1.1 --- --- 7.8 ENE 0.13 8.7 -5.6 --- --- 725.7 0.013 0.000 8.0 5 1
02/08/06 5:39 a -1.1 -1.1 -1.1 --- --- 7.8 ENE 0.13 7.8 -5.6 --- --- 725.7 0.013 0.000 8.0 5 1
02/08/06 5:40 a -1.1 -1.1 -1.1 --- --- 7.0 ENE 0.12 7.8 -5.3 --- --- 725.7 0.014 0.000 8.0 5 1
02/08/06 5:41 a -1.1 -1.1 -1.1 --- --- 7.8 ENE 0.13 8.7 -5.7 --- --- 725.6 0.014 0.000 8.0 5 1
02/08/06 5:42 a -1.2 -1.2 -1.2 --- --- 7.0 ENE 0.12 8.7 -5.4 --- --- 725.6 0.014 0.000 8.0 5 1
02/08/06 5:43 a -1.2 -1.2 -1.2 --- --- 7.8 ENE 0.13 8.7 -5.7 --- --- 725.7 0.014 0.000 8.0 5 1
02/08/06 5:44 a -1.2 -1.2 -1.3 --- --- 7.0 E 0.12 8.7 -5.4 --- --- 725.6 0.014 0.000 8.0 5 1
02/08/06 5:45 a -1.3 -1.3 -1.4 --- --- 7.0 E 0.12 7.8 -5.6 --- --- 725.7 0.014 0.000 8.0 5 1
02/08/06 5:46 a -1.4 -1.4 -1.5 --- --- 7.8 E 0.13 9.6 -6.1 --- --- 725.6 0.014 0.000 8.0 5 1
02/08/06 5:47 a -1.6 -1.6 -1.7 --- --- 7.8 E 0.13 9.6 -6.2 --- --- 725.7 0.014 0.000 8.0 5 1
02/08/06 5:48 a -1.7 -1.7 -1.8 --- --- 7.8 E 0.13 9.6 -6.4 --- --- 725.7 0.014 0.000 8.1 5 1
02/08/06 5:49 a -1.8 -1.8 -1.9 --- --- 7.8 E 0.13 9.6 -6.6 --- --- 725.7 0.014 0.000 8.1 5 1
02/08/06 5:50 a -2.0 -1.9 -2.1 --- --- 8.7 ENE 0.14 9.6 -7.1 --- --- 725.7 0.014 0.000 8.1 5 1
02/08/06 5:51 a -2.1 -2.1 -2.1 --- --- 8.7 ENE 0.14 10.4 -7.2 --- --- 725.6 0.014 0.000 8.1 5 1
02/08/06 5:52 a -2.2 -2.2 -2.3 --- --- 9.6 ENE 0.16 11.3 -7.7 --- --- 725.6 0.014 0.000 8.1 5 1
02/08/06 5:53 a -2.3 -2.3 -2.3 --- --- 10.4 ENE 0.17 11.3 -8.0 --- --- 725.7 0.014 0.000 8.1 5 1
02/08/06 5:54 a -2.4 -2.4 -2.5 --- --- 10.4 ENE 0.17 12.2 -8.2 --- --- 725.6 0.014 0.000 8.1 5 1
02/08/06 5:55 a -2.6 -2.5 -2.6 --- --- 10.4 ENE 0.17 12.2 -8.3 --- --- 725.6 0.015 0.000 8.1 5 1
02/08/06 5:56 a -2.6 -2.6 -2.7 --- --- 10.4 ENE 0.17 12.2 -8.4 --- --- 725.6 0.015 0.000 8.1 5 1
02/08/06 5:57 a -2.7 -2.7 -2.8 --- --- 11.3 ENE 0.19 13.0 -8.8 --- --- 725.6 0.015 0.000 8.1 5 1
02/08/06 5:58 a -2.8 -2.8 -2.9 --- --- 12.2 ENE 0.20 13.0 -9.2 --- --- 725.6 0.015 0.000 8.1 5 1
02/08/06 5:59 a -3.0 -2.9 -3.1 --- --- 10.4 ENE 0.17 12.2 -8.9 --- --- 725.5 0.015 0.000 8.1 5 1
02/08/06 6:00 a -3.2 -3.1 -3.2 --- --- 11.3 ENE 0.19 13.0 -9.4 --- --- 725.6 0.015 0.000 8.1 5 1
02/08/06 6:01 a -3.3 -3.2 -3.4 --- --- 11.3 ENE 0.19 12.2 -9.6 --- --- 725.7 0.015 0.000 8.1 5 1
02/08/06 6:02 a -3.5 -3.4 -3.6 --- --- 10.4 ENE 0.17 13.0 -9.5 --- --- 725.5 0.015 0.000 8.1 5 1
02/08/06 6:03 a -3.7 -3.7 -3.7 --- --- 11.3 ENE 0.19 12.2 -10.0 --- --- 725.5 0.015 0.000 8.2 5 1
02/08/06 6:04 a -3.8 -3.8 -3.9 --- --- 10.4 ENE 0.17 12.2 -9.9 --- --- 725.5 0.015 0.000 8.2 5 1
02/08/06 6:05 a -3.9 -3.9 -4.0 --- --- 11.3 ENE 0.19 12.2 -10.3 --- --- 725.4 0.015 0.000 8.2 5 1
02/08/06 6:06 a -4.1 -4.0 -4.2 --- --- 10.4 E 0.17 12.2 -10.2 --- --- 725.5 0.016 0.000 8.2 5 1
02/08/06 6:07 a -4.2 -4.2 -4.3 --- --- 10.4 E 0.17 11.3 -10.4 --- --- 725.5 0.016 0.000 8.2 5 1
02/08/06 6:08 a -4.3 -4.3 -4.4 --- --- 10.4 ENE 0.17 12.2 -10.6 --- --- 725.5 0.016 0.000 8.2 5 1
02/08/06 6:09 a -4.5 -4.5 -4.5 --- --- 10.4 ENE 0.17 12.2 -10.8 --- --- 725.6 0.016 0.000 8.2 5 1
02/08/06 6:10 a -4.6 -4.6 -4.7 --- --- 10.4 ENE 0.17 12.2 -10.9 --- --- 725.5 0.016 0.000 8.2 5 1
02/08/06 6:11 a -4.7 -4.7 -4.7 --- --- 10.4 E 0.17 12.2 -11.0 --- --- 725.5 0.016 0.000 8.2 5 1
02/08/06 6:12 a -4.8 -4.8 -4.8 --- --- 10.4 ENE 0.17 13.0 -11.1 --- --- 725.6 0.016 0.000 8.3 5 1
02/08/06 6:13 a -4.8 -4.8 -4.8 --- --- 10.4 ENE 0.17 11.3 -11.1 --- --- 725.5 0.016 0.000 8.3 5 1
02/08/06 6:14 a -4.9 -4.9 -4.9 --- --- 10.4 ENE 0.17 12.2 -11.3 --- --- 725.5 0.016 0.000 8.3 5 1
02/08/06 6:15 a -4.9 -4.9 -5.0 --- --- 11.3 ENE 0.19 13.0 -11.6 --- --- 725.5 0.016 0.000 8.3 5 1
02/08/06 6:16 a -5.0 -5.0 -5.1 --- --- 11.3 E 0.19 13.0 -11.7 --- --- 725.6 0.016 0.000 8.3 5 1
02/08/06 6:17 a -5.1 -5.1 -5.1 --- --- 11.3 E 0.19 13.9 -11.8 --- --- 725.5 0.016 0.000 8.3 5 1
02/08/06 6:18 a -5.2 -5.2 -5.3 --- --- 11.3 E 0.19 13.0 -11.9 --- --- 725.5 0.016 0.000 8.3 5 1
02/08/06 6:19 a -5.3 -5.3 -5.3 --- --- 11.3 E 0.19 13.0 -12.1 --- --- 725.5 0.016 0.000 8.3 5 1
02/08/06 6:20 a -5.4 -5.4 -5.4 --- --- 11.3 E 0.19 13.0 -12.2 --- --- 725.6 0.016 0.000 8.3 5 1
02/08/06 6:21 a -5.4 -5.4 -5.5 --- --- 12.2 ENE 0.20 13.9 -12.5 --- --- 725.5 0.017 0.000 8.3 5 1
02/08/06 6:22 a -5.6 -5.6 -5.6 --- --- 12.2 ENE 0.20 13.0 -12.7 --- --- 725.5 0.017 0.000 8.3 5 1
02/08/06 6:23 a -5.6 -5.6 -5.7 --- --- 11.3 E 0.19 13.9 -12.4 --- --- 725.4 0.017 0.000 8.3 5 1
02/08/06 6:24 a -5.7 -5.7 -5.7 --- --- 10.4 E 0.17 13.0 -12.3 --- --- 725.4 0.017 0.000 8.3 5 1
02/08/06 6:25 a -5.7 -5.7 -5.8 --- --- 10.4 E 0.17 13.0 -12.3 --- --- 725.4 0.017 0.000 8.3 5 1
02/08/06 6:26 a -5.8 -5.8 -5.8 --- --- 12.2 E 0.20 13.0 -12.9 --- --- 725.4 0.017 0.000 8.3 5 1
02/08/06 6:27 a -5.8 -5.8 -5.9 --- --- 12.2 E 0.20 13.9 -13.0 --- --- 725.5 0.017 0.000 8.4 5 1
02/08/06 6:28 a -5.9 -5.9 -5.9 --- --- 11.3 ENE 0.19 13.0 -12.9 --- --- 725.5 0.017 0.000 8.4 5 1
02/08/06 6:29 a -5.9 -5.9 -5.9 --- --- 10.4 E 0.17 12.2 -12.6 --- --- 725.6 0.017 0.000 8.4 5 1
02/08/06 6:30 a -5.9 -5.9 -5.9 --- --- 9.6 E 0.16 12.2 -12.3 --- --- 725.5 0.017 0.000 8.4 5 1
02/08/06 6:31 a -5.9 -5.9 -5.9 --- --- 11.3 E 0.19 12.2 -12.9 --- --- 725.4 0.017 0.000 8.4 5 1
02/08/06 6:32 a -6.0 -5.9 -6.0 --- --- 11.3 E 0.19 12.2 -12.9 --- --- 725.5 0.017 0.000 8.4 5 1
02/08/06 6:33 a -6.0 -6.0 -6.1 --- --- 9.6 E 0.16 11.3 -12.4 --- --- 725.4 0.017 0.000 8.4 5 1
02/08/06 6:34 a -6.1 -6.0 -6.1 --- --- 10.4 E 0.17 11.3 -12.7 --- --- 725.5 0.017 0.000 8.4 5 1
02/08/06 6:35 a -6.0 -6.0 -6.0 --- --- 9.6 E 0.16 11.3 -12.4 --- --- 725.5 0.017 0.000 8.4 5 1
02/08/06 6:36 a -6.0 -6.0 -6.1 --- --- 10.4 E 0.17 12.2 -12.7 --- --- 725.5 0.017 0.000 8.4 5 1
02/08/06 6:37 a -6.1 -6.1 -6.1 --- --- 9.6 E 0.16 11.3 -12.4 --- --- 725.5 0.017 0.000 8.4 5 1
02/08/06 6:38 a -6.1 -6.1 -6.1 --- --- 9.6 E 0.16 11.3 -12.5 --- --- 725.5 0.017 0.000 8.4 5 1
02/08/06 6:39 a -6.1 -6.1 -6.1 --- --- 8.7 E 0.14 11.3 -12.2 --- --- 725.5 0.017 0.000 8.4 5 1
02/08/06 6:40 a -6.1 -6.1 -6.2 --- --- 8.7 E 0.14 11.3 -12.2 --- --- 725.6 0.017 0.000 8.4 5 1
02/08/06 6:41 a -6.2 -6.2 -6.2 --- --- 9.6 E 0.16 11.3 -12.6 --- --- 725.5 0.017 0.000 8.4 5 1
02/08/06 6:42 a -6.2 -6.2 -6.2 --- --- 9.6 E 0.16 11.3 -12.6 --- --- 725.5 0.017 0.000 8.4 5 1
02/08/06 6:43 a -6.2 -6.2 -6.2 --- --- 9.6 E 0.16 11.3 -12.6 --- --- 725.6 0.017 0.000 8.4 5 1
02/08/06 6:44 a -6.2 -6.2 -6.2 --- --- 9.6 E 0.16 11.3 -12.6 --- --- 725.6 0.017 0.000 8.4 5 1
02/08/06 6:45 a -6.2 -6.2 -6.2 --- --- 9.6 E 0.16 11.3 -12.6 --- --- 725.5 0.017 0.000 8.4 5 1
02/08/06 6:46 a -6.2 -6.2 -6.2 --- --- 8.7 E 0.14 9.6 -12.2 --- --- 725.6 0.017 0.000 8.4 5 1
02/08/06 6:47 a -6.2 -6.2 -6.2 --- --- 7.8 E 0.13 9.6 -11.9 --- --- 725.6 0.017 0.000 8.4 5 1
02/08/06 6:48 a -6.2 -6.2 -6.2 --- --- 7.8 E 0.13 10.4 -11.9 --- --- 725.6 0.017 0.000 8.4 5 1
02/08/06 6:49 a -6.2 -6.2 -6.2 --- --- 7.0 E 0.12 8.7 -11.5 --- --- 725.5 0.017 0.000 8.4 5 1
02/08/06 6:50 a -6.2 -6.1 -6.2 --- --- 7.8 E 0.13 10.4 -11.9 --- --- 725.6 0.017 0.000 8.4 5 1
02/08/06 6:51 a -6.1 -6.1 -6.1 --- --- 7.8 E 0.13 9.6 -11.8 --- --- 725.5 0.017 0.000 8.4 5 1
02/08/06 6:52 a -6.1 -6.1 -6.1 --- --- 8.7 E 0.14 11.3 -12.1 --- --- 725.6 0.017 0.000 8.4 5 1
02/08/06 6:53 a -6.1 -6.1 -6.1 --- --- 8.7 E 0.14 10.4 -12.1 --- --- 725.5 0.017 0.000 8.4 5 1
02/08/06 6:54 a -6.0 -6.0 -6.1 --- --- 9.6 E 0.16 11.3 -12.4 --- --- 725.5 0.017 0.000 8.4 5 1
02/08/06 6:55 a -6.0 -6.0 -6.0 --- --- 8.7 E 0.14 9.6 -12.1 --- --- 725.5 0.017 0.000 8.4 5 1
02/08/06 6:56 a -6.1 -6.0 -6.1 --- --- 9.6 E 0.16 12.2 -12.4 --- --- 725.5 0.017 0.000 8.4 5 1
02/08/06 6:57 a -6.1 -6.1 -6.1 --- --- 9.6 E 0.16 11.3 -12.4 --- --- 725.5 0.017 0.000 8.4 5 1
02/08/06 6:58 a -6.1 -6.1 -6.1 --- --- 9.6 E 0.16 11.3 -12.5 --- --- 725.5 0.017 0.000 8.4 5 1
02/08/06 6:59 a -6.1 -6.1 -6.1 --- --- 9.6 E 0.16 11.3 -12.5 --- --- 725.6 0.017 0.000 8.4 5 1
02/08/06 7:00 a -6.2 -6.2 -6.2 --- --- 8.7 E 0.14 11.3 -12.2 --- --- 725.6 0.017 0.000 8.4 5 1
02/08/06 7:01 a -6.2 -6.2 -6.2 --- --- 8.7 E 0.14 10.4 -12.3 --- --- 725.6 0.017 0.000 8.4 5 1
02/08/06 7:02 a -6.2 -6.2 -6.3 --- --- 9.6 E 0.16 11.3 -12.7 --- --- 725.5 0.017 0.000 8.4 5 1
02/08/06 7:03 a -6.3 -6.3 -6.3 --- --- 8.7 E 0.14 11.3 -12.4 --- --- 725.6 0.017 0.000 8.4 5 1
02/08/06 7:04 a -6.3 -6.3 -6.3 --- --- 8.7 E 0.14 10.4 -12.4 --- --- 725.5 0.017 0.000 8.4 5 1
02/08/06 7:05 a -6.3 -6.3 -6.3 --- --- 8.7 E 0.14 11.3 -12.4 --- --- 725.6 0.017 0.000 8.4 5 1
02/08/06 7:06 a -6.3 -6.3 -6.3 --- --- 7.8 E 0.13 10.4 -12.1 --- --- 725.6 0.017 0.000 8.4 5 1
02/08/06 7:07 a -6.3 -6.2 -6.3 --- --- 8.7 E 0.14 10.4 -12.4 --- --- 725.5 0.017 0.000 8.4 5 1
02/08/06 7:08 a -6.2 -6.2 -6.2 --- --- 8.7 E 0.14 10.4 -12.2 --- --- 725.6 0.017 0.000 8.4 5 1
02/08/06 7:09 a -6.2 -6.1 -6.2 --- --- 9.6 E 0.16 12.2 -12.6 --- --- 725.5 0.017 0.000 8.4 5 1
02/08/06 7:10 a -6.1 -6.0 -6.1 --- --- 9.6 E 0.16 11.3 -12.4 --- --- 725.6 0.017 0.000 8.4 5 1
02/08/06 7:11 a -6.0 -6.0 -6.0 --- --- 9.6 E 0.16 12.2 -12.4 --- --- 725.5 0.017 0.000 8.4 5 1
02/08/06 7:12 a -6.0 -5.9 -6.0 --- --- 10.4 E 0.17 11.3 -12.7 --- --- 725.5 0.017 0.000 8.3 5 1
02/08/06 7:13 a -6.0 -5.9 -6.0 --- --- 10.4 E 0.17 11.3 -12.7 --- --- 725.5 0.017 0.000 8.3 5 1
02/08/06 7:14 a -6.0 -6.0 -6.0 --- --- 9.6 E 0.16 11.3 -12.4 --- --- 725.5 0.017 0.000 8.3 5 1
02/08/06 7:15 a -6.0 -6.0 -6.0 --- --- 9.6 E 0.16 11.3 -12.4 --- --- 725.5 0.017 0.000 8.3 5 1
02/08/06 7:16 a -6.0 -6.0 -6.0 --- --- 10.4 E 0.17 12.2 -12.7 --- --- 725.6 0.017 0.000 8.3 5 1
02/08/06 7:17 a -6.1 -6.0 -6.1 --- --- 10.4 E 0.17 12.2 -12.7 --- --- 725.6 0.017 0.000 8.3 5 1
02/08/06 7:18 a -6.1 -6.1 -6.1 --- --- 9.6 E 0.16 11.3 -12.5 --- --- 725.4 0.017 0.000 8.3 5 1
02/08/06 7:19 a -6.1 -6.1 -6.1 --- --- 9.6 E 0.16 13.0 -12.5 --- --- 725.5 0.017 0.000 8.3 5 1
02/08/06 7:20 a -6.2 -6.2 -6.3 --- --- 10.4 E 0.17 12.2 -12.9 --- --- 725.4 0.017 0.000 8.2 5 1
02/08/06 7:21 a -6.3 -6.3 -6.3 --- --- 11.3 E 0.19 13.9 -13.3 --- --- 725.4 0.017 0.000 8.2 5 1
02/08/06 7:22 a -6.3 -6.3 -6.3 --- --- 12.2 E 0.20 13.9 -13.7 --- --- 725.6 0.017 0.000 8.2 5 1
02/08/06 7:23 a -6.3 -6.3 -6.4 --- --- 12.2 E 0.20 13.9 -13.7 --- --- 725.5 0.017 0.000 8.2 5 1
02/08/06 7:24 a -6.3 -6.3 -6.4 --- --- 12.2 E 0.20 13.9 -13.7 --- --- 725.4 0.017 0.000 8.2 5 1
02/08/06 7:25 a -6.4 -6.4 -6.6 --- --- 12.2 E 0.20 14.8 -13.8 --- --- 725.4 0.017 0.000 8.2 5 1
02/08/06 7:26 a -6.6 -6.6 -6.7 --- --- 13.0 E 0.22 14.8 -14.3 --- --- 725.5 0.017 0.000 8.2 5 1
02/08/06 7:27 a -6.7 -6.7 -6.7 --- --- 12.2 E 0.20 14.8 -14.1 --- --- 725.4 0.017 0.000 8.2 5 1
02/08/06 7:28 a -6.8 -6.7 -6.9 --- --- 13.0 E 0.22 14.8 -14.4 --- --- 725.4 0.017 0.000 8.1 5 1
02/08/06 7:29 a -7.0 -6.9 -7.1 --- --- 13.0 E 0.22 15.7 -14.7 --- --- 725.5 0.018 0.000 8.1 5 1
02/08/06 7:30 a -7.1 -7.1 -7.2 --- --- 13.9 E 0.23 15.7 -15.1 --- --- 725.5 0.018 0.000 8.1 5 1
02/08/06 7:31 a -7.0 -7.0 -7.0 --- --- 13.0 E 0.22 13.9 -14.7 --- --- 725.6 0.018 0.000 8.1 5 1
02/08/06 7:32 a -7.0 -6.9 -7.0 --- --- 12.2 E 0.20 13.9 -14.5 --- --- 725.4 0.018 0.000 8.1 5 1
02/08/06 7:33 a -7.1 -7.0 -7.1 --- --- 12.2 E 0.20 13.9 -14.6 --- --- 725.5 0.018 0.000 8.1 5 1
02/08/06 7:34 a -7.0 -6.9 -7.0 --- --- 12.2 E 0.20 13.9 -14.5 --- --- 725.4 0.018 0.000 8.1 5 1
02/08/06 7:35 a -7.1 -7.0 -7.2 --- --- 12.2 E 0.20 13.9 -14.6 --- --- 725.5 0.018 0.000 8.1 5 1
02/08/06 7:36 a -7.1 -7.1 -7.2 --- --- 12.2 E 0.20 13.9 -14.6 --- --- 725.5 0.018 0.000 8.1 5 1
02/08/06 7:37 a -7.2 -7.2 -7.2 --- --- 12.2 E 0.20 13.9 -14.7 --- --- 725.5 0.018 0.000 8.0 5 1
02/08/06 7:38 a -7.2 -7.2 -7.2 --- --- 12.2 E 0.20 13.9 -14.7 --- --- 725.4 0.018 0.000 8.0 5 1
02/08/06 7:39 a -7.2 -7.2 -7.3 --- --- 12.2 E 0.20 13.9 -14.8 --- --- 725.4 0.018 0.000 8.0 5 1
02/08/06 7:40 a -7.3 -7.2 -7.4 --- --- 12.2 E 0.20 13.9 -14.9 --- --- 725.4 0.018 0.000 8.0 5 1
02/08/06 7:41 a -7.4 -7.4 -7.5 --- --- 12.2 E 0.20 13.9 -15.1 --- --- 725.3 0.018 0.000 8.0 5 1
02/08/06 7:42 a -7.6 -7.5 -7.8 --- --- 13.0 E 0.22 13.9 -15.6 --- --- 725.5 0.018 0.000 7.9 5 1
02/08/06 7:43 a -7.8 -7.7 -7.8 --- --- 13.0 E 0.22 14.8 -15.7 --- --- 725.5 0.018 0.000 8.0 5 1
02/08/06 7:44 a -7.8 -7.8 -7.8 --- --- 12.2 E 0.20 14.8 -15.5 --- --- 725.3 0.018 0.000 7.9 5 1
02/08/06 7:45 a -7.9 -7.8 -8.1 --- --- 13.0 E 0.22 15.7 -15.9 --- --- 725.4 0.018 0.000 7.9 5 1
02/08/06 7:46 a -8.0 -7.9 -8.1 --- --- 13.0 E 0.22 15.7 -16.1 --- --- 725.4 0.018 0.000 7.9 5 1
02/08/06 7:47 a -7.9 -7.9 -7.9 --- --- 12.2 E 0.20 14.8 -15.7 --- --- 725.4 0.018 0.000 7.9 5 1
02/08/06 7:48 a -7.9 -7.9 -7.9 --- --- 11.3 E 0.19 13.9 -15.4 --- --- 725.4 0.018 0.000 7.9 5 1
02/08/06 7:49 a -7.9 -7.9 -7.9 --- --- 12.2 E 0.20 13.9 -15.6 --- --- 725.4 0.018 0.000 7.9 5 1
02/08/06 7:50 a -7.9 -7.9 -7.9 --- --- 13.0 E 0.22 14.8 -15.9 --- --- 725.4 0.018 0.000 7.9 5 1
02/08/06 7:51 a -8.0 -8.0 -8.0 --- --- 12.2 E 0.20 14.8 -15.8 --- --- 725.4 0.018 0.000 7.9 5 1
02/08/06 7:52 a -8.1 -8.1 -8.1 --- --- 13.0 E 0.22 14.8 -16.1 --- --- 725.4 0.018 0.000 7.9 5 1
02/08/06 7:53 a -8.1 -8.1 -8.1 --- --- 13.0 E 0.22 15.7 -16.2 --- --- 725.4 0.018 0.000 7.9 5 1
02/08/06 7:54 a -8.2 -8.1 -8.3 --- --- 13.9 E 0.23 15.7 -16.6 --- --- 725.4 0.018 0.000 7.9 5 1
02/08/06 7:55 a -8.4 -8.3 -8.4 --- --- 13.9 E 0.23 16.5 -16.8 --- --- 725.3 0.019 0.000 7.9 5 1
02/08/06 7:56 a -8.4 -8.4 -8.4 --- --- 13.9 E 0.23 17.4 -16.8 --- --- 725.3 0.019 0.000 7.9 5 1
02/08/06 7:57 a -8.5 -8.4 -8.5 --- --- 14.8 E 0.25 17.4 -17.2 --- --- 725.3 0.019 0.000 7.9 5 1
02/08/06 7:58 a -8.5 -8.5 -8.5 --- --- 14.8 E 0.25 16.5 -17.2 --- --- 725.3 0.019 0.000 7.9 5 1
02/08/06 7:59 a -8.6 -8.5 -8.7 --- --- 14.8 E 0.25 15.7 -17.2 --- --- 725.3 0.019 0.000 7.9 5 1
02/08/06 8:00 a -8.6 -8.6 -8.7 --- --- 14.8 E 0.25 17.4 -17.3 --- --- 725.4 0.019 0.000 7.9 5 1
02/08/06 8:01 a -8.7 -8.7 -8.8 --- --- 13.9 E 0.23 16.5 -17.2 --- --- 725.2 0.019 0.000 7.9 5 1
02/08/06 8:02 a -8.8 -8.7 -8.8 --- --- 14.8 E 0.25 17.4 -17.5 --- --- 725.2 0.019 0.000 7.9 5 1
02/08/06 8:03 a -8.8 -8.8 -8.9 --- --- 15.7 E 0.26 18.3 -17.8 --- --- 725.3 0.019 0.000 7.9 5 1
02/08/06 8:04 a -8.9 -8.9 -9.0 --- --- 15.7 E 0.26 18.3 -17.9 --- --- 725.3 0.019 0.000 7.9 5 1
02/08/06 8:05 a -9.1 -9.1 -9.1 --- --- 16.5 E 0.28 18.3 -18.3 --- --- 725.3 0.019 0.000 7.9 5 1
02/08/06 8:06 a -9.2 -9.1 -9.2 --- --- 15.7 E 0.26 18.3 -18.2 --- --- 725.2 0.019 0.000 7.8 5 1
02/08/06 8:07 a -9.1 -9.1 -9.1 --- --- 15.7 E 0.26 18.3 -18.1 --- --- 725.3 0.019 0.000 7.8 5 1
02/08/06 8:08 a -9.1 -9.1 -9.2 --- --- 15.7 E 0.26 18.3 -18.1 --- --- 725.3 0.019 0.000 7.8 5 1
02/08/06 8:09 a -9.2 -9.2 -9.2 --- --- 16.5 E 0.28 18.3 -18.4 --- --- 725.2 0.019 0.000 7.8 5 1
02/08/06 8:10 a -9.3 -9.3 -9.3 --- --- 15.7 E 0.26 19.1 -18.3 --- --- 725.3 0.019 0.000 7.8 5 1
02/08/06 8:11 a -9.3 -9.3 -9.3 --- --- 15.7 ESE 0.26 17.4 -18.4 --- --- 725.2 0.019 0.000 7.8 5 1
02/08/06 8:12 a -9.3 -9.3 -9.3 --- --- 17.4 E 0.29 19.1 -18.9 --- --- 725.2 0.019 0.000 7.8 5 1
02/08/06 8:13 a -9.3 -9.3 -9.3 --- --- 16.5 E 0.28 19.1 -18.7 --- --- 725.2 0.019 0.000 7.8 5 1
02/08/06 8:14 a -9.3 -9.3 -9.3 --- --- 17.4 E 0.29 19.1 -18.8 --- --- 725.2 0.019 0.000 7.8 5 1
02/08/06 8:15 a -9.4 -9.4 -9.4 --- --- 17.4 E 0.29 19.1 -18.9 --- --- 725.3 0.019 0.000 7.8 5 1
02/08/06 8:16 a -9.4 -9.4 -9.4 --- --- 17.4 E 0.29 19.1 -19.0 --- --- 725.3 0.019 0.000 7.8 5 1
02/08/06 8:17 a -9.5 -9.5 -9.6 --- --- 17.4 E 0.29 20.0 -19.1 --- --- 725.3 0.019 0.000 7.7 5 1
02/08/06 8:18 a -9.6 -9.6 -9.7 --- --- 18.3 E 0.30 20.0 -19.4 --- --- 725.2 0.019 0.000 7.8 5 1
02/08/06 8:19 a -9.7 -9.7 -9.7 --- --- 18.3 E 0.30 20.0 -19.5 --- --- 725.2 0.019 0.000 7.7 5 1
02/08/06 8:20 a -9.7 -9.7 -9.8 --- --- 17.4 E 0.29 20.0 -19.4 --- --- 725.2 0.019 0.000 7.7 5 1
02/08/06 8:21 a -9.7 -9.7 -9.8 --- --- 17.4 E 0.29 18.3 -19.4 --- --- 725.3 0.019 0.000 7.7 5 1
02/08/06 8:22 a -9.7 -9.7 -9.7 --- --- 17.4 E 0.29 19.1 -19.3 --- --- 725.2 0.019 0.000 7.7 5 1
02/08/06 8:23 a -9.6 -9.6 -9.7 --- --- 17.4 E 0.29 19.1 -19.2 --- --- 725.3 0.019 0.000 7.7 5 1
02/08/06 8:24 a -9.6 -9.6 -9.7 --- --- 18.3 E 0.30 20.0 -19.4 --- --- 725.3 0.019 0.000 7.7 5 1
02/08/06 8:25 a -9.7 -9.7 -9.8 --- --- 17.4 E 0.29 20.0 -19.4 --- --- 725.3 0.019 0.000 7.7 5 1
02/08/06 8:26 a -9.9 -9.9 -9.9 --- --- 17.4 E 0.29 20.0 -19.6 --- --- 725.2 0.020 0.000 7.7 5 1
02/08/06 8:27 a -9.9 -9.9 -9.9 --- --- 19.1 E 0.32 20.9 -20.1 --- --- 725.3 0.020 0.000 7.7 5 1
02/08/06 8:28 a -10.0 -10.0 -10.1 --- --- 18.3 E 0.30 20.9 -19.9 --- --- 725.3 0.020 0.000 7.7 5 1
02/08/06 8:29 a -10.1 -10.1 -10.2 --- --- 19.1 E 0.32 20.9 -20.3 --- --- 725.2 0.020 0.000 7.7 5 1
02/08/06 8:30 a -10.1 -10.1 -10.2 --- --- 17.4 E 0.29 20.0 -19.9 --- --- 725.3 0.020 0.000 7.7 5 1
02/08/06 8:31 a -10.1 -10.1 -10.2 --- --- 18.3 E 0.30 20.9 -20.1 --- --- 725.3 0.020 0.000 7.7 5 1
02/08/06 8:32 a -10.1 -10.1 -10.2 --- --- 17.4 E 0.29 20.0 -19.9 --- --- 725.3 0.020 0.000 7.6 5 1
02/08/06 8:33 a -10.2 -10.2 -10.2 --- --- 18.3 E 0.30 20.9 -20.2 --- --- 725.2 0.020 0.000 7.6 5 1
02/08/06 8:34 a -10.2 -10.2 -10.2 --- --- 18.3 E 0.30 20.0 -20.2 --- --- 725.3 0.020 0.000 7.6 5 1
02/08/06 8:35 a -10.2 -10.2 -10.3 --- --- 19.1 E 0.32 20.9 -20.4 --- --- 725.3 0.020 0.000 7.6 5 1
02/08/06 8:36 a -10.3 -10.3 -10.3 --- --- 18.3 E 0.30 20.9 -20.3 --- --- 725.3 0.020 0.000 7.6 5 1
02/08/06 8:37 a -10.3 -10.3 -10.3 --- --- 18.3 E 0.30 20.9 -20.4 --- --- 725.2 0.020 0.000 7.6 5 1
02/08/06 8:38 a -10.3 -10.3 -10.4 --- --- 19.1 E 0.32 20.9 -20.6 --- --- 725.2 0.020 0.000 7.6 5 1
02/08/06 8:39 a -10.4 -10.4 -10.4 --- --- 18.3 E 0.30 20.0 -20.4 --- --- 725.2 0.020 0.000 7.6 5 1
02/08/06 8:40 a -10.4 -10.4 -10.4 --- --- 17.4 E 0.29 20.0 -20.2 --- --- 725.2 0.020 0.000 7.6 5 1
02/08/06 8:41 a -10.4 -10.4 -10.4 --- --- 19.1 E 0.32 20.9 -20.7 --- --- 725.3 0.020 0.000 7.6 5 1
02/08/06 8:42 a -10.5 -10.4 -10.5 --- --- 19.1 E 0.32 20.9 -20.8 --- --- 725.2 0.020 0.000 7.5 5 1
02/08/06 8:43 a -10.4 -10.4 -10.5 --- --- 18.3 E 0.30 20.0 -20.6 --- --- 725.2 0.020 0.000 7.5 5 1
02/08/06 8:44 a -10.5 -10.5 -10.5 --- --- 19.1 E 0.32 21.7 -20.8 --- --- 725.3 0.020 0.000 7.5 5 1
02/08/06 8:45 a -10.5 -10.4 -10.5 --- --- 18.3 E 0.30 20.9 -20.6 --- --- 725.3 0.020 0.000 7.5 5 1
02/08/06 8:46 a -10.5 -10.5 -10.6 --- --- 19.1 E 0.32 20.9 -20.8 --- --- 725.4 0.020 0.000 7.5 5 1
02/08/06 8:47 a -10.6 -10.5 -10.6 --- --- 19.1 E 0.32 20.9 -20.9 --- --- 725.3 0.020 0.000 7.4 5 1
02/08/06 8:48 a -10.6 -10.5 -10.6 --- --- 19.1 E 0.32 21.7 -20.9 --- --- 725.3 0.020 0.000 7.4 5 1
02/08/06 8:49 a -10.5 -10.4 -10.6 --- --- 18.3 E 0.30 20.0 -20.6 --- --- 725.3 0.020 0.000 7.4 5 1
02/08/06 8:50 a -10.5 -10.5 -10.6 --- --- 19.1 E 0.32 21.7 -20.8 --- --- 725.3 0.020 0.000 7.4 5 1
02/08/06 8:51 a -10.6 -10.6 -10.6 --- --- 19.1 E 0.32 20.0 -20.9 --- --- 725.3 0.020 0.000 7.4 5 1
02/08/06 8:52 a -10.6 -10.6 -10.6 --- --- 18.3 E 0.30 20.9 -20.8 --- --- 725.3 0.020 0.000 7.4 5 1
02/08/06 8:53 a -10.6 -10.6 -10.6 --- --- 18.3 E 0.30 20.9 -20.8 --- --- 725.4 0.020 0.000 7.4 5 1
02/08/06 8:54 a -10.7 -10.6 -10.7 --- --- 19.1 E 0.32 20.9 -21.1 --- --- 725.3 0.020 0.000 7.5 5 1
02/08/06 8:55 a -10.7 -10.7 -10.7 --- --- 18.3 E 0.30 20.0 -20.9 --- --- 725.3 0.020 0.000 7.6 4 1
02/08/06 8:56 a -10.7 -10.6 -10.7 --- --- 17.4 E 0.29 20.0 -20.6 --- --- 725.3 0.020 0.000 7.6 5 1
02/08/06 8:57 a -10.6 -10.6 -10.6 --- --- 18.3 E 0.30 20.0 -20.8 --- --- 725.4 0.020 0.000 7.6 5 1
02/08/06 8:58 a -10.6 -10.6 -10.6 --- --- 16.5 E 0.28 18.3 -20.3 --- --- 725.3 0.020 0.000 7.6 5 1
02/08/06 8:59 a -10.6 -10.6 -10.6 --- --- 17.4 E 0.29 19.1 -20.6 --- --- 725.4 0.020 0.000 7.6 5 1
02/08/06 9:00 a -10.6 -10.6 -10.7 --- --- 18.3 E 0.30 20.0 -20.8 --- --- 725.4 0.020 0.000 7.6 4 1
02/08/06 9:01 a -10.6 -10.6 -10.6 --- --- 18.3 E 0.30 20.9 -20.7 --- --- 725.3 0.020 0.000 7.6 5 1
02/08/06 9:03 a -10.6 -10.6 -10.7 --- --- 18.3 E 0.30 20.0 -20.8 --- --- 725.4 0.020 0.000 7.6 4 1
02/08/06 9:04 a -10.6 -10.5 -10.6 --- --- 17.4 E 0.29 19.1 -20.4 --- --- 725.5 0.020 0.000 7.6 5 1
02/08/06 9:05 a -10.5 -10.4 -10.5 --- --- 16.5 E 0.28 18.3 -20.2 --- --- 725.5 0.020 0.000 7.6 4 1
02/08/06 9:06 a -10.5 -10.4 -10.6 --- --- 17.4 E 0.29 20.0 -20.4 --- --- 725.4 0.020 0.000 7.6 5 1
02/08/06 9:07 a -10.6 -10.6 -10.7 --- --- 18.3 E 0.30 20.9 -20.8 --- --- 725.5 0.020 0.000 7.6 5 1
02/08/06 9:08 a -10.7 -10.7 -10.8 --- --- 17.4 E 0.29 20.0 -20.7 --- --- 725.4 0.020 0.000 7.5 4 1
02/08/06 9:09 a -10.8 -10.8 -10.8 --- --- 18.3 E 0.30 19.1 -21.1 --- --- 725.5 0.020 0.000 7.5 4 1
02/08/06 9:10 a -10.8 -10.8 -10.8 --- --- 18.3 E 0.30 19.1 -21.1 --- --- 725.4 0.020 0.000 7.5 5 1
02/08/06 9:11 a -10.8 -10.8 -10.8 --- --- 18.3 E 0.30 20.0 -20.9 --- --- 725.5 0.020 0.000 7.5 5 1
02/08/06 9:12 a -10.8 -10.8 -10.8 --- --- 17.4 E 0.29 19.1 -20.8 --- --- 725.4 0.020 0.000 7.5 5 1
02/08/06 9:13 a -10.7 -10.7 -10.8 --- --- 17.4 E 0.29 19.1 -20.7 --- --- 725.4 0.020 0.000 7.4 5 1
02/08/06 9:14 a -10.8 -10.8 -10.8 --- --- 17.4 E 0.29 19.1 -20.8 --- --- 725.5 0.020 0.000 7.4 4 1
02/08/06 9:15 a -10.8 -10.8 -10.9 --- --- 16.5 ESE 0.28 18.3 -20.6 --- --- 725.4 0.020 0.000 7.4 5 1
02/08/06 9:16 a -10.8 -10.8 -10.8 --- --- 17.4 E 0.29 19.1 -20.8 --- --- 725.4 0.020 0.000 7.4 5 1
02/08/06 9:17 a -10.9 -10.8 -10.9 --- --- 17.4 E 0.29 19.1 -20.9 --- --- 725.4 0.020 0.000 7.4 5 1
02/08/06 9:18 a -10.9 -10.9 -10.9 --- --- 17.4 E 0.29 19.1 -20.9 --- --- 725.4 0.020 0.000 7.4 5 1
02/08/06 9:19 a -11.0 -10.9 -11.1 --- --- 17.4 E 0.29 19.1 -21.1 --- --- 725.4 0.020 0.000 7.4 5 1
02/08/06 9:20 a -11.1 -11.1 -11.1 --- --- 17.4 E 0.29 19.1 -21.1 --- --- 725.4 0.020 0.000 7.4 5 1
02/08/06 9:21 a -11.1 -11.1 -11.1 --- --- 17.4 E 0.29 20.0 -21.1 --- --- 725.4 0.020 0.000 7.3 5 1
02/08/06 9:22 a -11.2 -11.1 -11.2 --- --- 17.4 E 0.29 19.1 -21.3 --- --- 725.4 0.020 0.000 7.3 4 1
02/08/06 9:23 a -11.2 -11.1 -11.2 --- --- 16.5 E 0.28 18.3 -21.1 --- --- 725.3 0.020 0.000 7.3 5 1
02/08/06 9:24 a -11.2 -11.1 -11.2 --- --- 16.5 E 0.28 17.4 -21.1 --- --- 725.3 0.020 0.000 7.3 5 1
02/08/06 9:25 a -11.2 -11.1 -11.2 --- --- 16.5 E 0.28 19.1 -21.1 --- --- 725.4 0.020 0.000 7.3 5 1
02/08/06 9:26 a -11.1 -11.1 -11.1 --- --- 16.5 E 0.28 18.3 -20.9 --- --- 725.4 0.020 0.000 7.3 5 1
02/08/06 9:27 a -11.1 -11.0 -11.1 --- --- 15.7 E 0.26 17.4 -20.7 --- --- 725.4 0.020 0.000 7.3 4 1
02/08/06 9:28 a -11.0 -10.9 -11.0 --- --- 14.8 E 0.25 17.4 -20.3 --- --- 725.4 0.020 0.000 7.3 5 1
02/08/06 9:29 a -10.9 -10.9 -10.9 --- --- 15.7 E 0.26 17.4 -20.4 --- --- 725.3 0.020 0.000 7.3 5 1
02/08/06 9:30 a -10.9 -10.9 -10.9 --- --- 14.8 E 0.25 17.4 -20.3 --- --- 725.4 0.020 0.000 7.3 5 1
02/08/06 9:31 a -10.9 -10.9 -11.0 --- --- 15.7 E 0.26 17.4 -20.5 --- --- 725.3 0.020 0.000 7.2 5 1
02/08/06 9:32 a -11.0 -11.0 -11.0 --- --- 14.8 E 0.25 15.7 -20.3 --- --- 725.4 0.020 0.000 7.2 5 1
02/08/06 9:33 a -11.0 -11.0 -11.0 --- --- 14.8 E 0.25 16.5 -20.3 --- --- 725.3 0.020 0.000 7.2 5 1
02/08/06 9:34 a -11.0 -11.0 -11.0 --- --- 14.8 E 0.25 16.5 -20.3 --- --- 725.4 0.020 0.000 7.2 4 1
02/08/06 9:35 a -11.0 -11.0 -11.1 --- --- 13.9 E 0.23 15.7 -20.1 --- --- 725.4 0.020 0.000 7.2 5 1
02/08/06 9:36 a -11.1 -11.0 -11.1 --- --- 13.9 E 0.23 16.5 -20.2 --- --- 725.4 0.020 0.000 7.2 4 1
02/08/06 9:37 a -11.1 -11.1 -11.1 --- --- 13.9 E 0.23 16.5 -20.2 --- --- 725.4 0.020 0.000 7.2 4 1
02/08/06 9:38 a -11.1 -11.1 -11.2 --- --- 13.9 E 0.23 16.5 -20.2 --- --- 725.3 0.020 0.000 7.2 5 1
02/08/06 9:39 a -11.2 -11.2 -11.2 --- --- 14.8 E 0.25 16.5 -20.6 --- --- 725.4 0.021 0.000 7.2 5 1
02/08/06 9:40 a -11.3 -11.2 -11.3 --- --- 14.8 E 0.25 16.5 -20.7 --- --- 725.4 0.021 0.000 7.2 5 1
02/08/06 9:41 a -11.3 -11.3 -11.3 --- --- 15.7 E 0.26 16.5 -20.9 --- --- 725.4 0.021 0.000 7.2 5 1
02/08/06 9:42 a -11.3 -11.3 -11.3 --- --- 15.7 E 0.26 18.3 -21.0 --- --- 725.4 0.021 0.000 7.1 5 1
02/08/06 9:43 a -11.4 -11.3 -11.4 --- --- 15.7 E 0.26 18.3 -21.1 --- --- 725.3 0.021 0.000 7.1 5 1
02/08/06 9:44 a -11.4 -11.4 -11.5 --- --- 16.5 E 0.28 17.4 -21.4 --- --- 725.4 0.021 0.000 7.1 5 1
02/08/06 9:45 a -11.4 -11.4 -11.5 --- --- 15.7 E 0.26 17.4 -21.2 --- --- 725.5 0.021 0.000 7.1 5 1
02/08/06 9:46 a -11.4 -11.4 -11.4 --- --- 16.5 E 0.28 17.4 -21.3 --- --- 725.4 0.021 0.000 7.1 5 1
02/08/06 9:47 a -11.4 -11.4 -11.4 --- --- 15.7 E 0.26 17.4 -21.1 --- --- 725.4 0.021 0.000 7.1 5 1
02/08/06 9:48 a -11.4 -11.4 -11.4 --- --- 15.7 E 0.26 17.4 -21.1 --- --- 725.4 0.021 0.000 7.1 5 1
02/08/06 9:49 a -11.4 -11.4 -11.5 --- --- 16.5 E 0.28 17.4 -21.4 --- --- 725.4 0.021 0.000 7.1 5 1
02/08/06 9:50 a -11.5 -11.5 -11.5 --- --- 15.7 E 0.26 17.4 -21.2 --- --- 725.3 0.021 0.000 7.1 5 1
02/08/06 9:51 a -11.5 -11.5 -11.6 --- --- 15.7 E 0.26 17.4 -21.2 --- --- 725.4 0.021 0.000 7.1 5 1
02/08/06 9:52 a -11.5 -11.5 -11.6 --- --- 16.5 E 0.28 17.4 -21.5 --- --- 725.4 0.021 0.000 7.1 5 1
02/08/06 9:53 a -11.6 -11.6 -11.7 --- --- 15.7 E 0.26 16.5 -21.3 --- --- 725.4 0.021 0.000 7.1 5 1
02/08/06 9:54 a -11.6 -11.6 -11.7 --- --- 15.7 E 0.26 16.5 -21.4 --- --- 725.5 0.021 0.000 7.1 5 1
02/08/06 9:55 a -11.6 -11.6 -11.7 --- --- 16.5 E 0.28 17.4 -21.6 --- --- 725.5 0.021 0.000 7.1 5 1
02/08/06 9:56 a -11.7 -11.7 -11.8 --- --- 15.7 ESE 0.26 17.4 -21.6 --- --- 725.5 0.021 0.000 7.1 5 1
02/08/06 9:57 a -11.7 -11.7 -11.7 --- --- 16.5 ESE 0.28 17.4 -21.8 --- --- 725.6 0.021 0.000 7.1 5 1
02/08/06 9:58 a -11.7 -11.7 -11.7 --- --- 16.5 E 0.28 17.4 -21.7 --- --- 725.5 0.021 0.000 7.1 5 1
02/08/06 9:59 a -11.7 -11.7 -11.7 --- --- 16.5 E 0.28 17.4 -21.7 --- --- 725.5 0.021 0.000 7.1 5 1
02/08/06 10:00 a -11.7 -11.6 -11.7 --- --- 16.5 E 0.28 17.4 -21.7 --- --- 725.4 0.021 0.000 7.1 5 1
02/08/06 10:01 a -11.6 -11.6 -11.6 --- --- 16.5 E 0.28 17.4 -21.6 --- --- 725.5 0.021 0.000 7.1 5 1
02/08/06 10:02 a -11.7 -11.7 -11.8 --- --- 16.5 E 0.28 17.4 -21.8 --- --- 725.5 0.021 0.000 7.1 5 1
02/08/06 10:03 a -11.8 -11.8 -11.8 --- --- 16.5 E 0.28 17.4 -21.8 --- --- 725.4 0.021 0.000 7.1 5 1
02/08/06 10:04 a -11.8 -11.8 -11.9 --- --- 16.5 E 0.28 18.3 -21.9 --- --- 725.5 0.021 0.000 7.1 5 1
02/08/06 10:05 a -11.9 -11.8 -11.9 --- --- 16.5 ESE 0.28 18.3 -22.0 --- --- 725.5 0.021 0.000 7.1 5 1
02/08/06 10:06 a -11.9 -11.9 -11.9 --- --- 16.5 ESE 0.28 17.4 -22.1 --- --- 725.5 0.021 0.000 7.1 5 1
02/08/06 10:07 a -12.0 -11.9 -12.1 --- --- 16.5 E 0.28 18.3 -22.1 --- --- 725.5 0.021 0.000 7.1 5 1
02/08/06 10:08 a -12.1 -12.0 -12.1 --- --- 16.5 E 0.28 17.4 -22.2 --- --- 725.4 0.021 0.000 7.1 5 1
02/08/06 10:09 a -12.0 -12.0 -12.1 --- --- 16.5 ESE 0.28 18.3 -22.1 --- --- 725.5 0.021 0.000 7.1 4 1
02/08/06 10:10 a -12.2 -12.1 -12.2 --- --- 17.4 ESE 0.29 18.3 -22.6 --- --- 725.5 0.021 0.000 7.1 5 1
02/08/06 10:11 a -12.2 -12.2 -12.2 --- --- 17.4 ESE 0.29 18.3 -22.6 --- --- 725.5 0.021 0.000 7.1 5 1
02/08/06 10:12 a -12.2 -12.2 -12.2 --- --- 17.4 ESE 0.29 18.3 -22.7 --- --- 725.5 0.021 0.000 7.1 5 1
02/08/06 10:13 a -12.3 -12.2 -12.3 --- --- 17.4 ESE 0.29 18.3 -22.7 --- --- 725.6 0.021 0.000 7.1 4 1
02/08/06 10:14 a -12.3 -12.3 -12.3 --- --- 17.4 ESE 0.29 18.3 -22.8 --- --- 725.4 0.021 0.000 7.1 4 1
02/08/06 10:15 a -12.4 -12.3 -12.5 --- --- 17.4 ESE 0.29 18.3 -22.9 --- --- 725.4 0.021 0.000 7.1 5 1
02/08/06 10:16 a -12.6 -12.5 -12.6 --- --- 17.4 ESE 0.29 18.3 -23.1 --- --- 725.4 0.021 0.000 7.1 5 1
02/08/06 10:17 a -12.5 -12.4 -12.6 --- --- 17.4 E 0.29 18.3 -23.0 --- --- 725.5 0.021 0.000 7.1 5 1
02/08/06 10:18 a -12.4 -12.4 -12.5 --- --- 16.5 E 0.28 17.4 -22.7 --- --- 725.4 0.021 0.000 7.1 5 1
02/08/06 10:19 a -12.4 -12.4 -12.4 --- --- 15.7 E 0.26 17.4 -22.4 --- --- 725.4 0.021 0.000 7.1 5 1
02/08/06 10:20 a -12.4 -12.4 -12.4 --- --- 16.5 E 0.28 18.3 -22.7 --- --- 725.4 0.021 0.000 7.0 4 1
02/08/06 10:21 a -12.5 -12.4 -12.5 --- --- 16.5 E 0.28 18.3 -22.8 --- --- 725.5 0.021 0.000 7.0 5 1
02/08/06 10:22 a -12.5 -12.4 -12.6 --- --- 17.4 E 0.29 18.3 -23.0 --- --- 725.5 0.021 0.000 7.0 5 1
02/08/06 10:23 a -12.6 -12.6 -12.6 --- --- 16.5 E 0.28 18.3 -22.8 --- --- 725.4 0.021 0.000 7.0 4 1
02/08/06 10:24 a -12.6 -12.5 -12.6 --- --- 16.5 ESE 0.28 18.3 -22.8 --- --- 725.4 0.021 0.000 7.0 5 1
02/08/06 10:25 a -12.6 -12.6 -12.7 --- --- 17.4 ESE 0.29 18.3 -23.2 --- --- 725.5 0.021 0.000 7.0 4 1
02/08/06 10:26 a -12.7 -12.7 -12.7 --- --- 18.3 E 0.30 19.1 -23.4 --- --- 725.4 0.022 0.000 6.9 5 1
02/08/06 10:27 a -12.7 -12.7 -12.7 --- --- 18.3 ESE 0.30 19.1 -23.6 --- --- 725.5 0.022 0.000 6.9 4 1
02/08/06 10:28 a -12.8 -12.7 -12.8 --- --- 18.3 ESE 0.30 19.1 -23.6 --- --- 725.4 0.022 0.000 6.9 5 1
02/08/06 10:29 a -12.8 -12.8 -12.8 --- --- 17.4 E 0.29 18.3 -23.4 --- --- 725.5 0.022 0.000 6.9 4 1
02/08/06 10:30 a -12.8 -12.8 -12.8 --- --- 17.4 E 0.29 18.3 -23.4 --- --- 725.5 0.022 0.000 6.9 4 1
02/08/06 10:31 a -12.9 -12.8 -12.9 --- --- 17.4 ESE 0.29 19.1 -23.6 --- --- 725.4 0.022 0.000 6.9 5 1
02/08/06 10:32 a -12.9 -12.9 -12.9 --- --- 17.4 ESE 0.29 18.3 -23.6 --- --- 725.5 0.022 0.000 6.9 5 1
02/08/06 10:33 a -12.9 -12.9 -13.0 --- --- 17.4 ESE 0.29 18.3 -23.6 --- --- 725.4 0.022 0.000 6.9 5 1
02/08/06 10:34 a -13.0 -12.9 -13.0 --- --- 17.4 E 0.29 18.3 -23.7 --- --- 725.5 0.022 0.000 6.9 5 1
02/08/06 10:35 a -12.9 -12.9 -13.0 --- --- 17.4 E 0.29 18.3 -23.6 --- --- 725.4 0.022 0.000 6.9 4 1
02/08/06 10:36 a -13.1 -13.0 -13.1 --- --- 17.4 E 0.29 18.3 -23.7 --- --- 725.4 0.022 0.000 6.9 4 1
02/08/06 10:37 a -13.1 -13.1 -13.1 --- --- 17.4 ESE 0.29 18.3 -23.7 --- --- 725.5 0.022 0.000 6.8 4 1
02/08/06 10:38 a -13.1 -13.0 -13.1 --- --- 16.5 ESE 0.28 18.3 -23.5 --- --- 725.4 0.022 0.000 6.8 5 1
02/08/06 10:39 a -13.1 -13.0 -13.1 --- --- 16.5 E 0.28 17.4 -23.5 --- --- 725.5 0.022 0.000 6.8 4 1
02/08/06 10:40 a -13.1 -13.1 -13.1 --- --- 17.4 ESE 0.29 18.3 -23.7 --- --- 725.5 0.022 0.000 6.8 4 1
02/08/06 10:41 a -13.1 -13.1 -13.2 --- --- 17.4 ESE 0.29 17.4 -23.8 --- --- 725.4 0.022 0.000 6.8 5 1
02/08/06 10:42 a -13.2 -13.2 -13.2 --- --- 16.5 ESE 0.28 18.3 -23.7 --- --- 725.5 0.022 0.000 6.8 4 1
02/08/06 10:43 a -13.2 -13.1 -13.2 --- --- 16.5 E 0.28 18.3 -23.7 --- --- 725.5 0.022 0.000 6.8 5 1
02/08/06 10:44 a -13.1 -13.1 -13.1 --- --- 17.4 E 0.29 18.3 -23.8 --- --- 725.4 0.022 0.000 6.8 4 1
02/08/06 10:45 a -13.1 -13.1 -13.1 --- --- 16.5 E 0.28 18.3 -23.6 --- --- 725.5 0.022 0.000 6.8 4 1
02/08/06 10:46 a -13.2 -13.1 -13.2 --- --- 16.5 E 0.28 18.3 -23.7 --- --- 725.4 0.022 0.000 6.8 4 1
02/08/06 10:47 a -13.2 -13.2 -13.2 --- --- 15.7 E 0.26 17.4 -23.4 --- --- 725.4 0.022 0.000 6.8 4 1
02/08/06 10:48 a -13.2 -13.2 -13.2 --- --- 16.5 E 0.28 17.4 -23.7 --- --- 725.5 0.022 0.000 6.8 4 1
02/08/06 10:49 a -13.2 -13.2 -13.2 --- --- 16.5 E 0.28 17.4 -23.7 --- --- 725.5 0.022 0.000 6.8 4 1
02/08/06 10:50 a -13.2 -13.2 -13.2 --- --- 15.7 E 0.26 17.4 -23.5 --- --- 725.5 0.022 0.000 6.8 4 1
02/08/06 10:51 a -13.2 -13.2 -13.2 --- --- 16.5 E 0.28 17.4 -23.7 --- --- 725.4 0.022 0.000 6.8 4 1
02/08/06 10:52 a -13.2 -13.2 -13.2 --- --- 15.7 E 0.26 18.3 -23.5 --- --- 725.4 0.022 0.000 6.8 4 1
02/08/06 10:53 a -13.3 -13.2 -13.3 --- --- 16.5 E 0.28 18.3 -23.8 --- --- 725.5 0.022 0.000 6.8 4 1
02/08/06 10:54 a -13.3 -13.3 -13.4 --- --- 16.5 E 0.28 17.4 -23.9 --- --- 725.5 0.022 0.000 6.8 4 1
02/08/06 10:55 a -13.4 -13.3 -13.4 --- --- 16.5 E 0.28 17.4 -23.9 --- --- 725.5 0.022 0.000 6.8 4 1
02/08/06 10:56 a -13.4 -13.4 -13.5 --- --- 17.4 E 0.29 18.3 -24.3 --- --- 725.5 0.022 0.000 6.8 4 1
02/08/06 10:57 a -13.6 -13.5 -13.6 --- --- 16.5 E 0.28 18.3 -24.2 --- --- 725.6 0.022 0.000 6.8 4 1
02/08/06 10:58 a -13.7 -13.7 -13.7 --- --- 16.5 E 0.28 17.4 -24.3 --- --- 725.5 0.022 0.000 6.8 4 1
02/08/06 10:59 a -13.8 -13.7 -13.8 --- --- 15.7 E 0.26 17.4 -24.2 --- --- 725.5 0.022 0.000 6.8 4 1
02/08/06 11:00 a -13.8 -13.8 -13.9 --- --- 16.5 E 0.28 17.4 -24.5 --- --- 725.5 0.022 0.000 6.8 4 1
02/08/06 11:01 a -13.9 -13.9 -13.9 --- --- 15.7 E 0.26 17.4 -24.4 --- --- 725.6 0.022 0.000 6.8 4 1
02/08/06 11:02 a -14.0 -14.0 -14.1 --- --- 14.8 E 0.25 16.5 -24.2 --- --- 725.5 0.022 0.000 6.8 4 1
02/08/06 11:03 a -14.1 -14.1 -14.1 --- --- 15.7 E 0.26 17.4 -24.6 --- --- 725.5 0.023 0.000 6.8 4 1
02/08/06 11:04 a -14.2 -14.2 -14.2 --- --- 15.7 E 0.26 17.4 -24.7 --- --- 725.5 0.023 0.000 6.8 4 1
02/08/06 11:05 a -14.2 -14.2 -14.2 --- --- 14.8 E 0.25 16.5 -24.5 --- --- 725.4 0.023 0.000 6.8 4 1
02/08/06 11:06 a -14.3 -14.3 -14.3 --- --- 14.8 E 0.25 17.4 -24.6 --- --- 725.5 0.023 0.000 6.8 4 1
02/08/06 11:07 a -14.3 -14.3 -14.4 --- --- 14.8 E 0.25 17.4 -24.7 --- --- 725.4 0.023 0.000 6.8 4 1
02/08/06 11:08 a -14.4 -14.4 -14.4 --- --- 15.7 E 0.26 16.5 -25.1 --- --- 725.4 0.023 0.000 6.8 4 1
02/08/06 11:09 a -14.4 -14.4 -14.4 --- --- 14.8 E 0.25 16.5 -24.8 --- --- 725.4 0.023 0.000 6.8 4 1
02/08/06 11:10 a -14.5 -14.5 -14.5 --- --- 14.8 E 0.25 16.5 -24.9 --- --- 725.4 0.023 0.000 6.8 4 1
02/08/06 11:11 a -14.6 -14.6 -14.6 --- --- 14.8 E 0.25 16.5 -24.9 --- --- 725.5 0.023 0.000 6.8 4 1
02/08/06 11:12 a -14.6 -14.6 -14.6 --- --- 16.5 E 0.28 17.4 -25.6 --- --- 725.6 0.023 0.000 6.8 4 1
02/08/06 11:13 a -14.6 -14.6 -14.6 --- --- 15.7 E 0.26 18.3 -25.3 --- --- 725.5 0.023 0.000 6.8 4 1
02/08/06 11:14 a -14.7 -14.7 -14.7 --- --- 15.7 E 0.26 17.4 -25.3 --- --- 725.5 0.023 0.000 6.8 4 1
02/08/06 11:15 a -14.7 -14.7 -14.7 --- --- 15.7 E 0.26 17.4 -25.3 --- --- 725.5 0.023 0.000 6.8 4 1
02/08/06 11:16 a -14.7 -14.7 -14.8 --- --- 14.8 E 0.25 16.5 -25.2 --- --- 725.5 0.023 0.000 6.8 4 1
02/08/06 11:17 a -14.8 -14.8 -14.8 --- --- 14.8 E 0.25 16.5 -25.2 --- --- 725.4 0.023 0.000 6.8 4 1
02/08/06 11:18 a -14.8 -14.8 -14.8 --- --- 14.8 E 0.25 16.5 -25.2 --- --- 725.5 0.023 0.000 6.8 4 1
02/08/06 11:19 a -14.8 -14.8 -14.8 --- --- 14.8 E 0.25 15.7 -25.3 --- --- 725.4 0.023 0.000 6.8 4 1
02/08/06 11:20 a -14.8 -14.8 -14.8 --- --- 13.9 E 0.23 15.7 -25.0 --- --- 725.5 0.023 0.000 6.7 4 1
02/08/06 11:21 a -14.9 -14.8 -14.9 --- --- 14.8 E 0.25 16.5 -25.4 --- --- 725.6 0.023 0.000 6.7 4 1
02/08/06 11:22 a -14.9 -14.9 -14.9 --- --- 13.9 E 0.23 15.7 -25.1 --- --- 725.6 0.023 0.000 6.7 4 1
02/08/06 11:23 a -14.9 -14.9 -14.9 --- --- 13.9 E 0.23 16.5 -25.2 --- --- 725.5 0.023 0.000 6.7 4 1
02/08/06 11:24 a -14.9 -14.9 -15.0 --- --- 14.8 E 0.25 16.5 -25.4 --- --- 725.5 0.023 0.000 6.7 4 1
02/08/06 11:25 a -15.0 -15.0 -15.1 --- --- 14.8 E 0.25 16.5 -25.5 --- --- 725.4 0.023 0.000 6.7 4 1
02/08/06 11:26 a -15.1 -15.1 -15.1 --- --- 15.7 E 0.26 17.4 -25.9 --- --- 725.5 0.023 0.000 6.7 4 1
02/08/06 11:27 a -15.1 -15.1 -15.1 --- --- 14.8 E 0.25 16.5 -25.7 --- --- 725.5 0.023 0.000 6.7 4 1
02/08/06 11:28 a -15.1 -15.1 -15.1 --- --- 13.9 E 0.23 15.7 -25.4 --- --- 725.6 0.023 0.000 6.7 4 1
02/08/06 11:29 a -15.2 -15.1 -15.2 --- --- 13.9 E 0.23 15.7 -25.4 --- --- 725.5 0.023 0.000 6.6 4 1
02/08/06 11:30 a -15.2 -15.2 -15.2 --- --- 14.8 E 0.25 15.7 -25.7 --- --- 725.6 0.023 0.000 6.6 4 1
02/08/06 11:31 a -15.2 -15.2 -15.2 --- --- 13.9 E 0.23 15.7 -25.4 --- --- 725.6 0.023 0.000 6.6 4 1
02/08/06 11:32 a -15.2 -15.2 -15.2 --- --- 13.9 E 0.23 15.7 -25.4 --- --- 725.6 0.023 0.000 6.6 4 1
02/08/06 11:33 a -15.2 -15.2 -15.2 --- --- 13.9 E 0.23 15.7 -25.5 --- --- 725.5 0.023 0.000 6.6 4 1
02/08/06 11:34 a -15.2 -15.2 -15.2 --- --- 13.9 E 0.23 15.7 -25.5 --- --- 725.6 0.023 0.000 6.6 4 1
02/08/06 11:35 a -15.2 -15.2 -15.2 --- --- 13.9 E 0.23 15.7 -25.5 --- --- 725.6 0.023 0.000 6.6 4 1
02/08/06 11:36 a -15.2 -15.2 -15.2 --- --- 14.8 E 0.25 16.5 -25.8 --- --- 725.6 0.023 0.000 6.6 4 1
02/08/06 11:37 a -15.2 -15.2 -15.2 --- --- 14.8 E 0.25 16.5 -25.7 --- --- 725.6 0.023 0.000 6.6 4 1
02/08/06 11:38 a -15.2 -15.2 -15.2 --- --- 13.9 E 0.23 15.7 -25.5 --- --- 725.6 0.023 0.000 6.6 4 1
02/08/06 11:39 a -15.2 -15.2 -15.2 --- --- 14.8 E 0.25 15.7 -25.8 --- --- 725.6 0.023 0.000 6.5 4 1
02/08/06 11:40 a -15.2 -15.2 -15.2 --- --- 13.9 E 0.23 15.7 -25.5 --- --- 725.6 0.023 0.000 6.5 4 1
02/08/06 11:41 a -15.2 -15.2 -15.2 --- --- 14.8 E 0.25 15.7 -25.7 --- --- 725.5 0.023 0.000 6.5 4 1
02/08/06 11:42 a -15.2 -15.2 -15.2 --- --- 14.8 E 0.25 15.7 -25.7 --- --- 725.6 0.023 0.000 6.5 4 1
02/08/06 11:43 a -15.2 -15.2 -15.2 --- --- 13.9 E 0.23 14.8 -25.4 --- --- 725.6 0.023 0.000 6.6 4 1
02/08/06 11:44 a -15.1 -15.1 -15.2 --- --- 13.9 E 0.23 14.8 -25.4 --- --- 725.5 0.023 0.000 6.6 4 1
02/08/06 11:45 a -15.2 -15.1 -15.2 --- --- 13.9 E 0.23 15.7 -25.4 --- --- 725.5 0.023 0.000 6.6 4 1
02/08/06 11:46 a -15.2 -15.1 -15.2 --- --- 14.8 E 0.25 15.7 -25.7 --- --- 725.5 0.023 0.000 6.6 4 1
02/08/06 11:47 a -15.1 -15.1 -15.2 --- --- 13.9 E 0.23 15.7 -25.4 --- --- 725.5 0.023 0.000 6.6 4 1
02/08/06 11:48 a -15.2 -15.2 -15.2 --- --- 14.8 E 0.25 16.5 -25.7 --- --- 725.5 0.023 0.000 6.6 4 1
02/08/06 11:49 a -15.2 -15.2 -15.2 --- --- 14.8 E 0.25 16.5 -25.7 --- --- 725.4 0.023 0.000 6.6 4 1
02/08/06 11:50 a -15.2 -15.2 -15.2 --- --- 14.8 E 0.25 16.5 -25.7 --- --- 725.5 0.023 0.000 6.6 4 1
02/08/06 11:51 a -15.2 -15.2 -15.2 --- --- 14.8 E 0.25 16.5 -25.7 --- --- 725.4 0.023 0.000 6.6 4 1
02/08/06 11:52 a -15.2 -15.2 -15.2 --- --- 14.8 E 0.25 15.7 -25.7 --- --- 725.5 0.023 0.000 6.6 4 1
02/08/06 11:53 a -15.2 -15.2 -15.2 --- --- 14.8 E 0.25 16.5 -25.7 --- --- 725.4 0.023 0.000 6.6 4 1
02/08/06 11:54 a -15.2 -15.2 -15.2 --- --- 14.8 E 0.25 16.5 -25.7 --- --- 725.4 0.023 0.000 6.7 4 1
02/08/06 11:55 a -15.2 -15.2 -15.2 --- --- 14.8 E 0.25 15.7 -25.7 --- --- 725.6 0.023 0.000 6.7 4 1
02/08/06 11:56 a -15.2 -15.2 -15.2 --- --- 14.8 E 0.25 16.5 -25.8 --- --- 725.4 0.023 0.000 6.7 4 1
02/08/06 11:57 a -15.2 -15.2 -15.2 --- --- 14.8 E 0.25 16.5 -25.7 --- --- 725.5 0.023 0.000 6.7 4 1
02/08/06 11:58 a -15.2 -15.2 -15.2 --- --- 15.7 E 0.26 16.5 -26.0 --- --- 725.5 0.023 0.000 6.7 4 1
02/08/06 11:59 a -15.2 -15.2 -15.2 --- --- 15.7 ESE 0.26 16.5 -26.0 --- --- 725.5 0.023 0.000 6.7 4 1
02/08/06 12:00 p -15.2 -15.2 -15.2 --- --- 15.7 ESE 0.26 16.5 -26.0 --- --- 725.6 0.023 0.000 6.8 4 1
02/08/06 12:01 p -15.2 -15.2 -15.2 --- --- 15.7 E 0.26 16.5 -26.1 --- --- 725.6 0.023 0.000 6.8 4 1
02/08/06 12:03 p -15.2 -15.2 -15.2 --- --- 15.7 E 0.26 16.5 -26.1 --- --- 725.6 0.023 0.000 6.8 4 1
02/08/06 12:04 p -15.2 -15.2 -15.3 --- --- 14.8 E 0.25 17.4 -25.8 --- --- 725.6 0.023 0.000 6.8 4 1
02/08/06 12:05 p -15.3 -15.2 -15.3 --- --- 15.7 E 0.26 17.4 -26.2 --- --- 725.6 0.023 0.000 6.8 4 1
02/08/06 12:06 p -15.3 -15.3 -15.3 --- --- 15.7 E 0.26 17.4 -26.2 --- --- 725.6 0.023 0.000 6.8 4 1
02/08/06 12:07 p -15.3 -15.3 -15.3 --- --- 15.7 E 0.26 17.4 -26.2 --- --- 725.6 0.023 0.000 6.8 4 1
02/08/06 12:08 p -15.3 -15.3 -15.3 --- --- 15.7 E 0.26 17.4 -26.2 --- --- 725.6 0.023 0.000 6.8 4 1
02/08/06 12:09 p -15.3 -15.3 -15.3 --- --- 14.8 E 0.25 17.4 -25.9 --- --- 725.6 0.023 0.000 6.8 4 1
02/08/06 12:10 p -15.3 -15.3 -15.3 --- --- 14.8 E 0.25 16.5 -25.9 --- --- 725.6 0.023 0.000 6.8 4 1
02/08/06 12:11 p -15.3 -15.3 -15.3 --- --- 15.7 E 0.26 17.4 -26.2 --- --- 725.6 0.023 0.000 6.8 4 1
02/08/06 12:12 p -15.4 -15.4 -15.4 --- --- 14.8 E 0.25 16.5 -26.0 --- --- 725.6 0.023 0.000 6.8 4 1
02/08/06 12:13 p -15.4 -15.4 -15.4 --- --- 14.8 E 0.25 16.5 -26.0 --- --- 725.6 0.023 0.000 6.7 4 1
02/08/06 12:14 p -15.4 -15.4 -15.4 --- --- 13.9 E 0.23 15.7 -25.8 --- --- 725.6 0.023 0.000 6.7 4 1
02/08/06 12:15 p -15.4 -15.4 -15.5 --- --- 13.9 E 0.23 15.7 -25.8 --- --- 725.6 0.023 0.000 6.7 4 1
02/08/06 12:16 p -15.5 -15.5 -15.5 --- --- 13.9 E 0.23 15.7 -25.9 --- --- 725.6 0.023 0.000 6.7 4 1
02/08/06 12:17 p -15.5 -15.5 -15.6 --- --- 13.9 E 0.23 16.5 -25.9 --- --- 725.6 0.023 0.000 6.7 4 1
02/08/06 12:18 p -15.6 -15.5 -15.6 --- --- 14.8 E 0.25 16.5 -26.2 --- --- 725.6 0.024 0.000 6.7 4 1
02/08/06 12:19 p -15.6 -15.6 -15.6 --- --- 14.8 E 0.25 16.5 -26.2 --- --- 725.6 0.024 0.000 6.7 4 1
02/08/06 12:20 p -15.6 -15.6 -15.6 --- --- 13.9 E 0.23 15.7 -26.0 --- --- 725.6 0.024 0.000 6.6 4 1
02/08/06 12:21 p -15.6 -15.6 -15.6 --- --- 13.9 E 0.23 15.7 -26.0 --- --- 725.6 0.024 0.000 6.6 4 1
02/08/06 12:22 p -15.6 -15.6 -15.6 --- --- 13.9 E 0.23 15.7 -26.0 --- --- 725.6 0.024 0.000 6.6 4 1
02/08/06 12:23 p -15.6 -15.6 -15.6 --- --- 13.0 E 0.22 15.7 -25.7 --- --- 725.7 0.024 0.000 6.6 4 1
02/08/06 12:24 p -15.6 -15.6 -15.6 --- --- 13.9 E 0.23 15.7 -26.0 --- --- 725.7 0.024 0.000 6.6 4 1
02/08/06 12:25 p -15.6 -15.6 -15.6 --- --- 13.9 E 0.23 16.5 -26.0 --- --- 725.6 0.024 0.000 6.6 4 1
02/08/06 12:26 p -15.6 -15.6 -15.6 --- --- 13.0 E 0.22 14.8 -25.7 --- --- 725.6 0.024 0.000 6.6 4 1
02/08/06 12:27 p -15.6 -15.6 -15.6 --- --- 13.9 E 0.23 15.7 -26.0 --- --- 725.6 0.024 0.000 6.6 4 1
02/08/06 12:28 p -15.6 -15.6 -15.6 --- --- 13.9 E 0.23 15.7 -25.9 --- --- 725.6 0.024 0.000 6.6 4 1
02/08/06 12:29 p -15.6 -15.6 -15.6 --- --- 13.0 E 0.22 15.7 -25.7 --- --- 725.6 0.024 0.000 6.6 4 1
02/08/06 12:30 p -15.6 -15.6 -15.6 --- --- 13.0 E 0.22 14.8 -25.7 --- --- 725.6 0.024 0.000 6.5 4 1
02/08/06 12:31 p -15.6 -15.6 -15.6 --- --- 13.9 E 0.23 15.7 -26.0 --- --- 725.6 0.024 0.000 6.5 4 1
02/08/06 12:32 p -15.6 -15.6 -15.6 --- --- 13.0 E 0.22 15.7 -25.7 --- --- 725.6 0.024 0.000 6.5 4 1
02/08/06 12:33 p -15.6 -15.6 -15.7 --- --- 12.2 E 0.20 13.9 -25.4 --- --- 725.7 0.024 0.000 6.5 4 1
02/08/06 12:34 p -15.6 -15.6 -15.6 --- --- 13.0 E 0.22 14.8 -25.7 --- --- 725.6 0.024 0.000 6.5 4 1
02/08/06 12:35 p -15.6 -15.6 -15.6 --- --- 13.0 E 0.22 13.9 -25.7 --- --- 725.6 0.024 0.000 6.5 4 1
02/08/06 12:36 p -15.6 -15.6 -15.6 --- --- 13.0 E 0.22 14.8 -25.7 --- --- 725.6 0.024 0.000 6.5 4 1
02/08/06 12:37 p -15.6 -15.6 -15.6 --- --- 12.2 E 0.20 13.9 -25.4 --- --- 725.6 0.024 0.000 6.5 4 1
02/08/06 12:38 p -15.6 -15.6 -15.7 --- --- 13.0 E 0.22 13.9 -25.7 --- --- 725.6 0.024 0.000 6.5 4 1
02/08/06 12:39 p -15.7 -15.7 -15.7 --- --- 13.0 E 0.22 14.8 -25.8 --- --- 725.5 0.024 0.000 6.5 4 1
02/08/06 12:40 p -15.7 -15.7 -15.7 --- --- 14.8 E 0.25 15.7 -26.4 --- --- 725.6 0.024 0.000 6.5 4 1
02/08/06 12:41 p -15.7 -15.7 -15.7 --- --- 13.9 E 0.23 15.7 -26.1 --- --- 725.6 0.024 0.000 6.5 4 1
02/08/06 12:42 p -15.7 -15.7 -15.7 --- --- 13.9 E 0.23 16.5 -26.1 --- --- 725.6 0.024 0.000 6.5 4 1
02/08/06 12:43 p -15.7 -15.7 -15.7 --- --- 14.8 E 0.25 15.7 -26.4 --- --- 725.6 0.024 0.000 6.5 4 1
02/08/06 12:44 p -15.7 -15.7 -15.7 --- --- 14.8 E 0.25 16.5 -26.4 --- --- 725.6 0.024 0.000 6.5 4 1
02/08/06 12:45 p -15.7 -15.7 -15.7 --- --- 13.9 E 0.23 16.5 -26.2 --- --- 725.6 0.024 0.000 6.5 4 1
02/08/06 12:46 p -15.7 -15.7 -15.7 --- --- 15.7 E 0.26 17.4 -26.7 --- --- 725.6 0.024 0.000 6.5 4 1
02/08/06 12:47 p -15.7 -15.7 -15.7 --- --- 14.8 E 0.25 16.5 -26.4 --- --- 725.6 0.024 0.000 6.5 4 1
02/08/06 12:48 p -15.7 -15.7 -15.7 --- --- 14.8 E 0.25 16.5 -26.4 --- --- 725.5 0.024 0.000 6.5 4 1
02/08/06 12:49 p -15.7 -15.7 -15.7 --- --- 14.8 E 0.25 16.5 -26.4 --- --- 725.5 0.024 0.000 6.5 4 1
02/08/06 12:50 p -15.7 -15.7 -15.7 --- --- 13.9 E 0.23 16.5 -26.2 --- --- 725.4 0.024 0.000 6.5 4 1
02/08/06 12:51 p -15.7 -15.7 -15.8 --- --- 14.8 E 0.25 16.5 -26.4 --- --- 725.5 0.024 0.000 6.5 4 1
02/08/06 12:52 p -15.8 -15.8 -15.8 --- --- 14.8 E 0.25 16.5 -26.6 --- --- 725.5 0.024 0.000 6.5 4 1
02/08/06 12:53 p -15.8 -15.8 -15.8 --- --- 13.9 E 0.23 16.5 -26.2 --- --- 725.5 0.024 0.000 6.5 4 1
02/08/06 12:54 p -15.8 -15.8 -15.8 --- --- 14.8 E 0.25 15.7 -26.6 --- --- 725.5 0.024 0.000 6.5 4 1
02/08/06 12:55 p -15.8 -15.8 -15.8 --- --- 14.8 E 0.25 16.5 -26.6 --- --- 725.5 0.024 0.000 6.6 4 1
02/08/06 12:56 p -15.8 -15.8 -15.8 --- --- 15.7 E 0.26 16.5 -26.8 --- --- 725.5 0.024 0.000 6.6 4 1
02/08/06 12:57 p -15.8 -15.8 -15.8 --- --- 14.8 E 0.25 16.5 -26.6 --- --- 725.4 0.024 0.000 6.6 4 1
02/08/06 12:58 p -15.8 -15.8 -15.8 --- --- 13.9 E 0.23 15.7 -26.2 --- --- 725.4 0.024 0.000 6.6 4 1
02/08/06 12:59 p -15.8 -15.7 -15.8 --- --- 14.8 E 0.25 16.5 -26.6 --- --- 725.5 0.024 0.000 6.6 4 1
02/08/06 1:00 p -15.8 -15.7 -15.8 --- --- 15.7 E 0.26 17.4 -26.8 --- --- 725.4 0.024 0.000 6.6 4 1
02/08/06 1:01 p -15.8 -15.7 -15.8 --- --- 15.7 E 0.26 16.5 -26.8 --- --- 725.4 0.024 0.000 6.6 4 1
02/08/06 1:02 p -15.7 -15.7 -15.7 --- --- 15.7 E 0.26 17.4 -26.7 --- --- 725.5 0.024 0.000 6.7 4 1
02/08/06 1:03 p -15.7 -15.7 -15.7 --- --- 15.7 E 0.26 17.4 -26.7 --- --- 725.5 0.024 0.000 6.7 4 1
02/08/06 1:04 p -15.7 -15.7 -15.7 --- --- 15.7 E 0.26 16.5 -26.7 --- --- 725.5 0.024 0.000 6.7 4 1
02/08/06 1:05 p -15.7 -15.7 -15.7 --- --- 15.7 E 0.26 17.4 -26.7 --- --- 725.6 0.024 0.000 6.7 4 1
02/08/06 1:06 p -15.7 -15.7 -15.7 --- --- 15.7 E 0.26 16.5 -26.7 --- --- 725.6 0.024 0.000 6.7 4 1
02/08/06 1:07 p -15.7 -15.7 -15.7 --- --- 14.8 E 0.25 16.5 -26.4 --- --- 725.6 0.024 0.000 6.7 4 1
02/08/06 1:08 p -15.7 -15.7 -15.7 --- --- 15.7 E 0.26 17.4 -26.7 --- --- 725.6 0.024 0.000 6.7 4 1
02/08/06 1:09 p -15.7 -15.7 -15.7 --- --- 15.7 E 0.26 16.5 -26.7 --- --- 725.6 0.024 0.000 6.7 4 1
02/08/06 1:10 p -15.7 -15.7 -15.7 --- --- 14.8 E 0.25 16.5 -26.4 --- --- 725.7 0.024 0.000 6.7 4 1
02/08/06 1:11 p -15.7 -15.7 -15.7 --- --- 13.9 E 0.23 16.5 -26.1 --- --- 725.5 0.024 0.000 6.7 4 1
02/08/06 1:12 p -15.7 -15.7 -15.7 --- --- 15.7 E 0.26 17.4 -26.7 --- --- 725.5 0.024 0.000 6.7 4 1
02/08/06 1:13 p -15.7 -15.7 -15.8 --- --- 15.7 E 0.26 16.5 -26.7 --- --- 725.5 0.024 0.000 6.7 4 1
02/08/06 1:14 p -15.8 -15.7 -15.8 --- --- 15.7 E 0.26 16.5 -26.8 --- --- 725.5 0.024 0.000 6.7 4 1
02/08/06 1:15 p -15.8 -15.8 -15.8 --- --- 15.7 E 0.26 17.4 -26.8 --- --- 725.5 0.024 0.000 6.7 4 1
02/08/06 1:16 p -15.8 -15.8 -15.8 --- --- 14.8 E 0.25 17.4 -26.6 --- --- 725.6 0.024 0.000 6.7 4 1
02/08/06 1:17 p -15.8 -15.8 -15.8 --- --- 13.9 E 0.23 17.4 -26.2 --- --- 725.4 0.024 0.000 6.6 4 1
02/08/06 1:18 p -15.8 -15.8 -15.8 --- --- 16.5 E 0.28 18.3 -27.1 --- --- 725.5 0.024 0.000 6.6 4 1
02/08/06 1:19 p -15.8 -15.8 -15.8 --- --- 17.4 E 0.29 18.3 -27.4 --- --- 725.6 0.024 0.000 6.6 4 1
02/08/06 1:20 p -15.8 -15.8 -15.8 --- --- 17.4 E 0.29 19.1 -27.4 --- --- 725.6 0.024 0.000 6.6 4 1
02/08/06 1:21 p -15.8 -15.8 -15.9 --- --- 19.1 ESE 0.32 20.0 -27.9 --- --- 725.6 0.024 0.000 6.6 4 1
02/08/06 1:22 p -15.8 -15.8 -15.8 --- --- 18.3 ESE 0.30 20.0 -27.6 --- --- 725.5 0.024 0.000 6.6 4 1
02/08/06 1:23 p -15.8 -15.8 -15.8 --- --- 19.1 ESE 0.32 20.9 -27.9 --- --- 725.6 0.024 0.000 6.5 4 1
02/08/06 1:24 p -15.8 -15.8 -15.8 --- --- 16.5 ESE 0.28 18.3 -27.1 --- --- 725.6 0.024 0.000 6.5 4 1
02/08/06 1:25 p -15.8 -15.8 -15.8 --- --- 20.0 ESE 0.33 20.9 -28.0 --- --- 725.5 0.024 0.000 6.5 4 1
02/08/06 1:26 p -15.8 -15.8 -15.8 --- --- 19.1 ESE 0.32 20.9 -27.9 --- --- 725.6 0.024 0.000 6.5 4 1
02/08/06 1:27 p -15.8 -15.8 -15.8 --- --- 18.3 E 0.30 20.0 -27.6 --- --- 725.5 0.024 0.000 6.5 4 1
02/08/06 1:28 p -15.8 -15.8 -15.8 --- --- 16.5 E 0.28 20.0 -27.2 --- --- 725.5 0.024 0.000 6.5 4 1
02/08/06 1:29 p -15.8 -15.8 -15.8 --- --- 18.3 E 0.30 20.9 -27.6 --- --- 725.5 0.024 0.000 6.5 4 1
02/08/06 1:30 p -15.9 -15.9 -15.9 --- --- 18.3 E 0.30 20.9 -27.7 --- --- 725.5 0.024 0.000 6.5 4 1
02/08/06 1:31 p -15.9 -15.9 -15.9 --- --- 18.3 E 0.30 20.0 -27.7 --- --- 725.6 0.024 0.000 6.5 4 1
02/08/06 1:32 p -15.9 -15.9 -15.9 --- --- 17.4 E 0.29 20.9 -27.6 --- --- 725.5 0.024 0.000 6.5 4 1
02/08/06 1:33 p -15.9 -15.9 -15.9 --- --- 17.4 E 0.29 19.1 -27.6 --- --- 725.5 0.024 0.000 6.5 4 1
02/08/06 1:34 p -16.0 -16.0 -16.0 --- --- 18.3 E 0.30 20.9 -27.8 --- --- 725.5 0.024 0.000 6.5 4 1
02/08/06 1:35 p -16.0 -16.0 -16.0 --- --- 16.5 E 0.28 18.3 -27.3 --- --- 725.6 0.024 0.000 6.5 4 1
02/08/06 1:36 p -16.0 -16.0 -16.1 --- --- 17.4 E 0.29 20.0 -27.6 --- --- 725.5 0.024 0.000 6.5 3 1
02/08/06 1:37 p -16.0 -16.0 -16.1 --- --- 16.5 E 0.28 18.3 -27.3 --- --- 725.5 0.024 0.000 6.6 4 1
02/08/06 1:38 p -16.1 -16.1 -16.1 --- --- 15.7 E 0.26 18.3 -27.2 --- --- 725.6 0.024 0.000 6.6 4 1
02/08/06 1:39 p -16.1 -16.1 -16.1 --- --- 15.7 E 0.26 18.3 -27.2 --- --- 725.5 0.024 0.000 6.6 4 1
02/08/06 1:40 p -16.2 -16.2 -16.2 --- --- 16.5 E 0.28 18.3 -27.6 --- --- 725.5 0.024 0.000 6.6 4 1
02/08/06 1:41 p -16.2 -16.2 -16.3 --- --- 15.7 E 0.26 19.1 -27.4 --- --- 725.5 0.024 0.000 6.6 4 1
02/08/06 1:42 p -16.3 -16.3 -16.3 --- --- 18.3 E 0.30 21.7 -28.2 --- --- 725.5 0.024 0.000 6.6 4 1
02/08/06 1:43 p -16.3 -16.3 -16.3 --- --- 16.5 E 0.28 19.1 -27.7 --- --- 725.5 0.024 0.000 6.6 4 1
02/08/06 1:44 p -16.3 -16.3 -16.3 --- --- 17.4 E 0.29 20.0 -28.1 --- --- 725.6 0.024 0.000 6.6 4 1
02/08/06 1:45 p -16.3 -16.3 -16.4 --- --- 15.7 E 0.26 17.4 -27.5 --- --- 725.4 0.024 0.000 6.6 3 1
02/08/06 1:46 p -16.4 -16.4 -16.4 --- --- 14.8 E 0.25 16.5 -27.3 --- --- 725.4 0.024 0.000 6.6 4 1
02/08/06 1:47 p -16.4 -16.4 -16.4 --- --- 15.7 E 0.26 18.3 -27.7 --- --- 725.4 0.024 0.000 6.6 4 1
02/08/06 1:48 p -16.4 -16.4 -16.5 --- --- 15.7 E 0.26 18.3 -27.7 --- --- 725.5 0.024 0.000 6.6 4 1
02/08/06 1:49 p -16.5 -16.4 -16.5 --- --- 16.5 E 0.28 18.3 -28.0 --- --- 725.5 0.024 0.000 6.6 4 1
02/08/06 1:50 p -16.5 -16.4 -16.5 --- --- 15.7 E 0.26 17.4 -27.7 --- --- 725.5 0.024 0.000 6.6 4 1
02/08/06 1:51 p -16.5 -16.5 -16.6 --- --- 16.5 E 0.28 18.3 -28.0 --- --- 725.5 0.024 0.000 6.6 4 1
02/08/06 1:52 p -16.6 -16.6 -16.6 --- --- 18.3 E 0.30 20.9 -28.6 --- --- 725.5 0.024 0.000 6.6 4 1
02/08/06 1:53 p -16.6 -16.5 -16.6 --- --- 17.4 E 0.29 20.0 -28.3 --- --- 725.5 0.024 0.000 6.6 4 1
02/08/06 1:54 p -16.6 -16.6 -16.6 --- --- 15.7 E 0.26 19.1 -27.8 --- --- 725.5 0.024 0.000 6.6 4 1
02/08/06 1:55 p -16.6 -16.6 -16.6 --- --- 16.5 E 0.28 20.9 -28.1 --- --- 725.5 0.024 0.000 6.6 4 1
02/08/06 1:56 p -16.6 -16.6 -16.6 --- --- 16.5 E 0.28 21.7 -28.1 --- --- 725.6 0.024 0.000 6.6 3 1
02/08/06 1:57 p -16.6 -16.6 -16.6 --- --- 16.5 E 0.28 18.3 -28.1 --- --- 725.5 0.024 0.000 6.6 3 1
02/08/06 1:58 p -16.6 -16.6 -16.6 --- --- 15.7 E 0.26 19.1 -27.8 --- --- 725.5 0.024 0.000 6.5 4 1
02/08/06 1:59 p -16.6 -16.6 -16.6 --- --- 17.4 E 0.29 20.9 -28.3 --- --- 725.5 0.024 0.000 6.5 4 1
02/08/06 2:00 p -16.6 -16.6 -16.6 --- --- 17.4 E 0.29 20.9 -28.3 --- --- 725.4 0.024 0.000 6.5 4 1
02/08/06 2:01 p -16.5 -16.5 -16.6 --- --- 17.4 E 0.29 20.9 -28.3 --- --- 725.4 0.024 0.000 6.5 3 1
02/08/06 2:02 p -16.5 -16.5 -16.6 --- --- 17.4 E 0.29 20.9 -28.3 --- --- 725.4 0.024 0.000 6.5 4 1
02/08/06 2:03 p -16.5 -16.5 -16.5 --- --- 20.0 E 0.33 22.6 -28.9 --- --- 725.3 0.024 0.000 6.5 3 1
02/08/06 2:04 p -16.5 -16.4 -16.5 --- --- 18.3 E 0.30 22.6 -28.5 --- --- 725.4 0.024 0.000 6.5 4 1
02/08/06 2:05 p -16.4 -16.4 -16.4 --- --- 16.5 E 0.28 18.3 -27.9 --- --- 725.4 0.024 0.000 6.5 3 1
02/08/06 2:06 p -16.4 -16.4 -16.4 --- --- 15.7 E 0.26 20.0 -27.6 --- --- 725.4 0.024 0.000 6.5 3 1
02/08/06 2:07 p -16.4 -16.4 -16.4 --- --- 16.5 E 0.28 19.1 -27.9 --- --- 725.4 0.024 0.000 6.6 4 1
02/08/06 2:08 p -16.4 -16.4 -16.4 --- --- 17.4 E 0.29 19.1 -28.1 --- --- 725.4 0.024 0.000 6.6 4 1
02/08/06 2:09 p -16.4 -16.4 -16.4 --- --- 16.5 E 0.28 19.1 -27.9 --- --- 725.4 0.024 0.000 6.6 3 1
02/08/06 2:10 p -16.4 -16.4 -16.4 --- --- 17.4 E 0.29 23.5 -28.1 --- --- 725.4 0.024 0.000 6.6 3 1
02/08/06 2:11 p -16.4 -16.4 -16.4 --- --- 17.4 E 0.29 20.9 -28.1 --- --- 725.4 0.024 0.000 6.6 4 1
02/08/06 2:12 p -16.4 -16.3 -16.4 --- --- 16.5 E 0.28 20.0 -27.9 --- --- 725.4 0.024 0.000 6.6 4 1
02/08/06 2:13 p -16.3 -16.3 -16.3 --- --- 15.7 E 0.26 18.3 -27.5 --- --- 725.4 0.024 0.000 6.6 3 1
02/08/06 2:14 p -16.3 -16.3 -16.3 --- --- 16.5 E 0.28 19.1 -27.8 --- --- 725.4 0.024 0.000 6.6 3 1
02/08/06 2:15 p -16.3 -16.3 -16.3 --- --- 17.4 E 0.29 20.0 -28.1 --- --- 725.3 0.024 0.000 6.6 3 1
02/08/06 2:16 p -16.3 -16.3 -16.3 --- --- 17.4 E 0.29 20.0 -28.1 --- --- 725.5 0.024 0.000 6.6 3 1
02/08/06 2:17 p -16.4 -16.4 -16.4 --- --- 16.5 E 0.28 19.1 -27.9 --- --- 725.5 0.024 0.000 6.6 4 1
02/08/06 2:18 p -16.4 -16.4 -16.4 --- --- 16.5 E 0.28 20.0 -27.9 --- --- 725.5 0.024 0.000 6.6 3 1
02/08/06 2:19 p -16.3 -16.3 -16.3 --- --- 16.5 E 0.28 19.1 -27.8 --- --- 725.6 0.024 0.000 6.6 3 1
02/08/06 2:20 p -16.3 -16.3 -16.3 --- --- 16.5 E 0.28 19.1 -27.8 --- --- 725.6 0.024 0.000 6.7 3 1
02/08/06 2:21 p -16.3 -16.3 -16.3 --- --- 16.5 E 0.28 19.1 -27.8 --- --- 725.6 0.024 0.000 6.7 4 1
02/08/06 2:22 p -16.3 -16.3 -16.4 --- --- 15.7 E 0.26 18.3 -27.5 --- --- 725.5 0.024 0.000 6.6 4 1
02/08/06 2:23 p -16.4 -16.4 -16.4 --- --- 15.7 E 0.26 17.4 -27.6 --- --- 725.5 0.024 0.000 6.6 4 1
02/08/06 2:24 p -16.4 -16.4 -16.4 --- --- 16.5 E 0.28 19.1 -27.9 --- --- 725.5 0.024 0.000 6.6 4 1
02/08/06 2:25 p -16.4 -16.4 -16.4 --- --- 16.5 E 0.28 19.1 -27.9 --- --- 725.5 0.024 0.000 6.6 4 1
02/08/06 2:26 p -16.4 -16.4 -16.4 --- --- 16.5 E 0.28 20.0 -27.9 --- --- 725.5 0.024 0.000 6.6 3 1
02/08/06 2:27 p -16.4 -16.4 -16.4 --- --- 16.5 E 0.28 19.1 -27.9 --- --- 725.5 0.024 0.000 6.6 4 1
02/08/06 2:28 p -16.4 -16.4 -16.4 --- --- 15.7 E 0.26 18.3 -27.6 --- --- 725.5 0.024 0.000 6.6 3 1
02/08/06 2:29 p -16.4 -16.4 -16.4 --- --- 15.7 E 0.26 17.4 -27.6 --- --- 725.6 0.024 0.000 6.6 3 1
02/08/06 2:30 p -16.4 -16.4 -16.4 --- --- 16.5 E 0.28 18.3 -27.9 --- --- 725.5 0.024 0.000 6.6 3 1
02/08/06 2:31 p -16.5 -16.5 -16.5 --- --- 17.4 E 0.29 19.1 -28.3 --- --- 725.5 0.024 0.000 6.5 3 1
02/08/06 2:32 p -16.5 -16.5 -16.6 --- --- 17.4 E 0.29 19.1 -28.3 --- --- 725.4 0.024 0.000 6.5 3 1
02/08/06 2:33 p -16.6 -16.6 -16.6 --- --- 17.4 E 0.29 20.0 -28.3 --- --- 725.4 0.024 0.000 6.5 4 1
02/08/06 2:34 p -16.6 -16.6 -16.6 --- --- 18.3 E 0.30 20.0 -28.6 --- --- 725.4 0.024 0.000 6.5 3 1
02/08/06 2:35 p -16.6 -16.6 -16.6 --- --- 17.4 E 0.29 20.0 -28.3 --- --- 725.4 0.024 0.000 6.5 3 1
02/08/06 2:36 p -16.6 -16.6 -16.6 --- --- 18.3 E 0.30 20.9 -28.7 --- --- 725.5 0.024 0.000 6.5 4 1
02/08/06 2:37 p -16.6 -16.6 -16.7 --- --- 17.4 E 0.29 20.9 -28.4 --- --- 725.3 0.024 0.000 6.5 4 1
02/08/06 2:38 p -16.7 -16.7 -16.7 --- --- 17.4 E 0.29 21.7 -28.5 --- --- 725.3 0.024 0.000 6.6 3 1
02/08/06 2:39 p -16.7 -16.7 -16.7 --- --- 18.3 E 0.30 20.0 -28.8 --- --- 725.4 0.024 0.000 6.6 4 1
02/08/06 2:40 p -16.7 -16.7 -16.8 --- --- 17.4 E 0.29 20.9 -28.6 --- --- 725.5 0.024 0.000 6.6 4 1
02/08/06 2:41 p -16.8 -16.8 -16.8 --- --- 17.4 E 0.29 20.9 -28.6 --- --- 725.4 0.024 0.000 6.6 3 1
02/08/06 2:42 p -16.8 -16.8 -16.8 --- --- 19.1 E 0.32 20.9 -29.1 --- --- 725.3 0.024 0.000 6.6 4 1
02/08/06 2:43 p -16.8 -16.8 -16.8 --- --- 17.4 E 0.29 20.0 -28.6 --- --- 725.4 0.024 0.000 6.6 4 1
02/08/06 2:44 p -16.8 -16.8 -16.8 --- --- 16.5 E 0.28 20.0 -28.4 --- --- 725.5 0.024 0.000 6.6 3 1
02/08/06 2:45 p -16.8 -16.8 -16.9 --- --- 17.4 E 0.29 20.0 -28.7 --- --- 725.4 0.024 0.000 6.6 3 1
02/08/06 2:46 p -16.9 -16.9 -16.9 --- --- 17.4 E 0.29 19.1 -28.8 --- --- 725.5 0.024 0.000 6.7 3 1
02/08/06 2:47 p -16.9 -16.9 -16.9 --- --- 17.4 E 0.29 20.0 -28.8 --- --- 725.6 0.024 0.000 6.7 4 1
02/08/06 2:48 p -16.9 -16.9 -16.9 --- --- 17.4 E 0.29 20.0 -28.8 --- --- 725.7 0.024 0.000 6.7 3 1
02/08/06 2:49 p -16.9 -16.9 -16.9 --- --- 17.4 E 0.29 20.0 -28.8 --- --- 725.6 0.024 0.000 6.7 4 1
02/08/06 2:50 p -16.9 -16.9 -16.9 --- --- 17.4 E 0.29 20.9 -28.8 --- --- 725.6 0.024 0.000 6.7 4 1
02/08/06 2:51 p -16.9 -16.9 -16.9 --- --- 19.1 E 0.32 20.0 -29.3 --- --- 725.5 0.024 0.000 6.7 4 1
02/08/06 2:52 p -16.9 -16.9 -16.9 --- --- 17.4 E 0.29 19.1 -28.8 --- --- 725.5 0.024 0.000 6.7 4 1
02/08/06 2:53 p -16.9 -16.9 -16.9 --- --- 17.4 E 0.29 20.0 -28.8 --- --- 725.5 0.024 0.000 6.7 3 1
02/08/06 2:54 p -16.9 -16.9 -16.9 --- --- 19.1 ENE 0.32 20.9 -29.3 --- --- 725.6 0.024 0.000 6.7 4 1
02/08/06 2:55 p -16.9 -16.8 -16.9 --- --- 17.4 E 0.29 19.1 -28.8 --- --- 725.6 0.024 0.000 6.7 4 1
02/08/06 2:56 p -16.8 -16.8 -16.8 --- --- 16.5 E 0.28 20.0 -28.4 --- --- 725.5 0.024 0.000 6.6 3 1
02/08/06 2:57 p -16.8 -16.8 -16.8 --- --- 18.3 E 0.30 20.0 -28.9 --- --- 725.6 0.024 0.000 6.6 3 1
02/08/06 2:58 p -16.8 -16.8 -16.8 --- --- 17.4 E 0.29 19.1 -28.6 --- --- 725.5 0.024 0.000 6.6 3 1
02/08/06 2:59 p -16.8 -16.8 -16.8 --- --- 18.3 E 0.30 20.0 -28.9 --- --- 725.6 0.024 0.000 6.6 3 1
02/08/06 3:00 p -16.8 -16.7 -16.8 --- --- 19.1 E 0.32 21.7 -29.1 --- --- 725.5 0.024 0.000 6.6 3 1
02/08/06 3:01 p -16.7 -16.7 -16.8 --- --- 17.4 E 0.29 20.0 -28.6 --- --- 725.5 0.024 0.000 6.6 3 1
02/08/06 3:02 p -16.7 -16.7 -16.7 --- --- 19.1 E 0.32 20.9 -29.1 --- --- 725.4 0.024 0.000 6.6 3 1
02/08/06 3:03 p -16.7 -16.7 -16.7 --- --- 18.3 E 0.30 20.9 -28.8 --- --- 725.5 0.024 0.000 6.6 3 1
02/08/06 3:04 p -16.7 -16.7 -16.7 --- --- 18.3 E 0.30 20.9 -28.7 --- --- 725.4 0.024 0.000 6.6 3 1
02/08/06 3:05 p -16.7 -16.7 -16.7 --- --- 18.3 E 0.30 21.7 -28.7 --- --- 725.5 0.024 0.000 6.6 3 1
02/08/06 3:06 p -16.7 -16.6 -16.7 --- --- 17.4 E 0.29 19.1 -28.5 --- --- 725.5 0.024 0.000 6.6 3 1
02/08/06 3:07 p -16.6 -16.6 -16.6 --- --- 18.3 E 0.30 20.0 -28.7 --- --- 725.4 0.024 0.000 6.6 3 1
02/08/06 3:08 p -16.6 -16.6 -16.6 --- --- 18.3 E 0.30 20.0 -28.7 --- --- 725.4 0.024 0.000 6.6 3 1
02/08/06 3:09 p -16.6 -16.6 -16.6 --- --- 18.3 E 0.30 20.9 -28.6 --- --- 725.6 0.024 0.000 6.6 3 1
02/08/06 3:10 p -16.6 -16.6 -16.6 --- --- 18.3 E 0.30 22.6 -28.6 --- --- 725.5 0.024 0.000 6.6 3 1
02/08/06 3:11 p -16.6 -16.6 -16.6 --- --- 18.3 E 0.30 20.9 -28.6 --- --- 725.5 0.024 0.000 6.6 3 1
02/08/06 3:12 p -16.6 -16.6 -16.6 --- --- 17.4 E 0.29 22.6 -28.3 --- --- 725.5 0.024 0.000 6.6 3 1
02/08/06 3:13 p -16.6 -16.6 -16.6 --- --- 20.9 E 0.35 29.6 -29.3 --- --- 725.4 0.024 0.000 6.6 3 1
02/08/06 3:14 p -16.6 -16.6 -16.6 --- --- 19.1 E 0.32 24.3 -28.8 --- --- 725.4 0.024 0.000 6.7 3 1
02/08/06 3:15 p -16.6 -16.5 -16.6 --- --- 20.0 E 0.33 22.6 -29.1 --- --- 725.4 0.024 0.000 6.7 3 1
02/08/06 3:16 p -16.5 -16.5 -16.5 --- --- 17.4 E 0.29 20.0 -28.3 --- --- 725.4 0.024 0.000 6.7 3 1
02/08/06 3:17 p -16.5 -16.4 -16.5 --- --- 17.4 E 0.29 20.9 -28.3 --- --- 725.7 0.024 0.000 6.7 3 1
02/08/06 3:18 p -16.4 -16.4 -16.4 --- --- 17.4 E 0.29 20.0 -28.2 --- --- 725.6 0.024 0.000 6.7 3 1
02/08/06 3:19 p -16.4 -16.4 -16.4 --- --- 17.4 E 0.29 20.0 -28.1 --- --- 725.4 0.024 0.000 6.7 3 1
02/08/06 3:20 p -16.4 -16.4 -16.4 --- --- 17.4 E 0.29 22.6 -28.1 --- --- 725.5 0.024 0.000 6.7 3 1
02/08/06 3:21 p -16.3 -16.3 -16.3 --- --- 17.4 E 0.29 20.0 -28.1 --- --- 725.6 0.024 0.000 6.7 3 1
02/08/06 3:22 p -16.3 -16.3 -16.3 --- --- 18.3 E 0.30 21.7 -28.3 --- --- 725.6 0.024 0.000 6.7 3 1
02/08/06 3:23 p -16.3 -16.3 -16.3 --- --- 18.3 E 0.30 20.9 -28.3 --- --- 725.5 0.024 0.000 6.6 3 1
02/08/06 3:24 p -16.3 -16.3 -16.3 --- --- 18.3 E 0.30 21.7 -28.2 --- --- 725.5 0.024 0.000 6.6 3 1
02/08/06 3:25 p -16.3 -16.3 -16.3 --- --- 18.3 E 0.30 26.1 -28.2 --- --- 725.4 0.024 0.000 6.6 3 1
02/08/06 3:26 p -16.3 -16.3 -16.3 --- --- 20.0 E 0.33 24.3 -28.7 --- --- 725.5 0.024 0.000 6.6 3 1
02/08/06 3:27 p -16.2 -16.2 -16.2 --- --- 20.0 E 0.33 26.1 -28.6 --- --- 725.4 0.024 0.000 6.6 3 1
02/08/06 3:28 p -16.2 -16.2 -16.2 --- --- 19.1 E 0.32 22.6 -28.3 --- --- 725.4 0.024 0.000 6.6 3 1
02/08/06 3:29 p -16.1 -16.1 -16.2 --- --- 18.3 E 0.30 21.7 -28.0 --- --- 725.5 0.024 0.000 6.6 3 1
02/08/06 3:30 p -16.1 -16.1 -16.1 --- --- 17.4 E 0.29 22.6 -27.7 --- --- 725.4 0.024 0.000 6.5 3 1
02/08/06 3:31 p -16.1 -16.1 -16.1 --- --- 20.0 E 0.33 24.3 -28.4 --- --- 725.5 0.024 0.000 6.5 3 1
02/08/06 3:32 p -16.1 -16.1 -16.1 --- --- 20.0 E 0.33 25.2 -28.4 --- --- 725.6 0.024 0.000 6.5 3 1
02/08/06 3:33 p -16.1 -16.1 -16.1 --- --- 17.4 E 0.29 21.7 -27.7 --- --- 725.6 0.024 0.000 6.5 3 1
02/08/06 3:34 p -16.1 -16.1 -16.1 --- --- 18.3 E 0.30 21.7 -27.9 --- --- 725.5 0.024 0.000 6.5 3 1
02/08/06 3:35 p -16.1 -16.0 -16.1 --- --- 20.0 E 0.33 22.6 -28.4 --- --- 725.5 0.024 0.000 6.4 3 1
02/08/06 3:36 p -16.0 -15.9 -16.0 --- --- 19.1 E 0.32 22.6 -28.1 --- --- 725.6 0.024 0.000 6.5 3 1
02/08/06 3:37 p -15.9 -15.9 -16.0 --- --- 18.3 E 0.30 21.7 -27.8 --- --- 725.7 0.024 0.000 6.5 3 1
02/08/06 3:38 p -15.9 -15.9 -16.0 --- --- 15.7 E 0.26 21.7 -27.0 --- --- 725.6 0.024 0.000 6.5 3 1
02/08/06 3:39 p -16.0 -15.9 -16.0 --- --- 20.0 E 0.33 26.1 -28.3 --- --- 725.5 0.024 0.000 6.5 3 1
02/08/06 3:40 p -15.9 -15.9 -16.0 --- --- 20.9 E 0.35 25.2 -28.4 --- --- 725.6 0.024 0.000 6.5 3 1
02/08/06 3:41 p -16.0 -15.9 -16.0 --- --- 17.4 E 0.29 20.0 -27.6 --- --- 725.6 0.024 0.000 6.5 3 1
02/08/06 3:42 p -16.0 -16.0 -16.0 --- --- 16.5 E 0.28 24.3 -27.3 --- --- 725.7 0.024 0.000 6.6 3 1
02/08/06 3:43 p -16.0 -16.0 -16.0 --- --- 20.0 ESE 0.33 24.3 -28.3 --- --- 725.7 0.024 0.000 6.6 3 1
02/08/06 3:44 p -16.0 -15.9 -16.0 --- --- 22.6 E 0.38 26.1 -28.9 --- --- 725.6 0.024 0.000 6.6 3 1
02/08/06 3:45 p -15.9 -15.9 -15.9 --- --- 20.0 E 0.33 25.2 -28.2 --- --- 725.6 0.024 0.000 6.6 3 1
02/08/06 3:46 p -15.9 -15.9 -15.9 --- --- 20.0 E 0.33 23.5 -28.2 --- --- 725.6 0.024 0.000 6.6 3 1
02/08/06 3:47 p -15.8 -15.8 -15.9 --- --- 18.3 E 0.30 20.9 -27.6 --- --- 725.5 0.024 0.000 6.6 3 1
02/08/06 3:48 p -15.8 -15.8 -15.8 --- --- 20.0 E 0.33 22.6 -28.0 --- --- 725.7 0.024 0.000 6.6 3 1
02/08/06 3:49 p -15.8 -15.8 -15.8 --- --- 19.1 E 0.32 21.7 -27.8 --- --- 725.7 0.024 0.000 6.6 3 1
02/08/06 3:50 p -15.7 -15.7 -15.8 --- --- 20.9 ESE 0.35 24.3 -28.1 --- --- 725.7 0.024 0.000 6.6 3 1
02/08/06 3:51 p -15.6 -15.6 -15.7 --- --- 19.1 E 0.32 22.6 -27.6 --- --- 725.8 0.024 0.000 6.6 3 1
02/08/06 3:52 p -15.6 -15.6 -15.6 --- --- 18.3 E 0.30 23.5 -27.3 --- --- 725.7 0.024 0.000 6.6 3 1
02/08/06 3:53 p -15.6 -15.6 -15.6 --- --- 19.1 E 0.32 24.3 -27.6 --- --- 725.7 0.024 0.000 6.6 3 1
02/08/06 3:54 p -15.6 -15.6 -15.6 --- --- 20.9 E 0.35 24.3 -28.0 --- --- 725.7 0.024 0.000 6.6 3 1
02/08/06 3:55 p -15.6 -15.5 -15.6 --- --- 21.7 ESE 0.36 26.1 -28.1 --- --- 725.8 0.024 0.000 6.6 3 1
02/08/06 3:56 p -15.4 -15.4 -15.5 --- --- 20.9 ESE 0.35 23.5 -27.8 --- --- 725.7 0.023 0.000 6.6 3 1
02/08/06 3:57 p -15.4 -15.4 -15.4 --- --- 21.7 ESE 0.36 27.8 -28.0 --- --- 725.8 0.023 0.000 6.6 3 1
02/08/06 3:58 p -15.3 -15.3 -15.4 --- --- 20.9 ESE 0.35 24.3 -27.6 --- --- 725.8 0.023 0.000 6.6 3 1
02/08/06 3:59 p -15.3 -15.3 -15.3 --- --- 20.0 E 0.33 23.5 -27.4 --- --- 725.8 0.023 0.000 6.6 3 1
02/08/06 4:00 p -15.3 -15.3 -15.3 --- --- 21.7 ESE 0.36 25.2 -27.8 --- --- 725.9 0.023 0.000 6.6 3 1
02/08/06 4:01 p -15.3 -15.3 -15.3 --- --- 21.7 ESE 0.36 23.5 -27.8 --- --- 725.8 0.023 0.000 6.6 3 1
02/08/06 4:02 p -15.3 -15.3 -15.3 --- --- 22.6 ESE 0.38 26.1 -27.9 --- --- 725.8 0.023 0.000 6.6 3 1
02/08/06 4:03 p -15.3 -15.3 -15.3 --- --- 21.7 ESE 0.36 23.5 -27.8 --- --- 725.8 0.023 0.000 6.6 3 1
02/08/06 4:04 p -15.3 -15.3 -15.3 --- --- 21.7 ESE 0.36 23.5 -27.8 --- --- 725.7 0.023 0.000 6.5 3 1
02/08/06 4:05 p -15.3 -15.3 -15.3 --- --- 22.6 ESE 0.38 25.2 -27.9 --- --- 725.8 0.023 0.000 6.5 3 1
02/08/06 4:06 p -15.3 -15.3 -15.3 --- --- 20.0 ESE 0.33 21.7 -27.3 --- --- 725.8 0.023 0.000 6.5 3 1
02/08/06 4:07 p -15.3 -15.3 -15.3 --- --- 20.9 ESE 0.35 24.3 -27.6 --- --- 725.8 0.023 0.000 6.5 3 1
02/08/06 4:08 p -15.3 -15.3 -15.3 --- --- 20.9 ESE 0.35 25.2 -27.6 --- --- 725.8 0.023 0.000 6.5 3 1
02/08/06 4:09 p -15.3 -15.3 -15.3 --- --- 20.9 ESE 0.35 23.5 -27.6 --- --- 725.8 0.023 0.000 6.5 3 1
02/08/06 4:10 p -15.3 -15.3 -15.3 --- --- 21.7 ESE 0.36 27.8 -27.8 --- --- 725.7 0.023 0.000 6.5 3 1
02/08/06 4:11 p -15.3 -15.3 -15.3 --- --- 22.6 SE 0.38 26.1 -28.1 --- --- 725.7 0.023 0.000 6.4 3 1
02/08/06 4:12 p -15.3 -15.3 -15.3 --- --- 21.7 ESE 0.36 23.5 -27.8 --- --- 725.8 0.023 0.000 6.4 3 1
02/08/06 4:13 p -15.2 -15.2 -15.2 --- --- 21.7 ESE 0.36 24.3 -27.7 --- --- 725.7 0.023 0.000 6.4 3 1
02/08/06 4:14 p -15.2 -15.2 -15.2 --- --- 20.9 ESE 0.35 23.5 -27.5 --- --- 725.7 0.023 0.000 6.4 3 1
02/08/06 4:15 p -15.2 -15.2 -15.2 --- --- 20.0 ESE 0.33 21.7 -27.3 --- --- 725.7 0.023 0.000 6.4 3 1
02/08/06 4:16 p -15.2 -15.2 -15.2 --- --- 22.6 ESE 0.38 25.2 -27.9 --- --- 725.6 0.023 0.000 6.4 3 1
02/08/06 4:17 p -15.2 -15.2 -15.2 --- --- 21.7 ESE 0.36 24.3 -27.7 --- --- 725.7 0.023 0.000 6.4 3 1
02/08/06 4:18 p -15.2 -15.2 -15.3 --- --- 20.9 ESE 0.35 24.3 -27.5 --- --- 725.7 0.023 0.000 6.4 3 1
02/08/06 4:19 p -15.3 -15.3 -15.3 --- --- 20.9 ESE 0.35 23.5 -27.6 --- --- 725.8 0.023 0.000 6.4 3 1
02/08/06 4:20 p -15.3 -15.3 -15.3 --- --- 21.7 ESE 0.36 24.3 -27.8 --- --- 725.7 0.023 0.000 6.4 3 1
02/08/06 4:21 p -15.3 -15.3 -15.3 --- --- 23.5 ESE 0.39 27.0 -28.2 --- --- 725.7 0.023 0.000 6.4 3 1
02/08/06 4:22 p -15.3 -15.3 -15.4 --- --- 23.5 ESE 0.39 27.8 -28.2 --- --- 725.7 0.023 0.000 6.4 3 1
02/08/06 4:23 p -15.3 -15.3 -15.3 --- --- 21.7 ESE 0.36 25.2 -27.8 --- --- 725.7 0.023 0.000 6.4 3 1
02/08/06 4:24 p -15.3 -15.3 -15.4 --- --- 23.5 ESE 0.39 27.0 -28.2 --- --- 725.6 0.023 0.000 6.4 3 1
02/08/06 4:25 p -15.3 -15.3 -15.3 --- --- 21.7 ESE 0.36 23.5 -27.8 --- --- 725.8 0.023 0.000 6.4 3 1
02/08/06 4:26 p -15.3 -15.3 -15.3 --- --- 22.6 ESE 0.38 24.3 -28.1 --- --- 725.7 0.023 0.000 6.4 3 1
02/08/06 4:27 p -15.4 -15.3 -15.4 --- --- 22.6 ESE 0.38 25.2 -28.1 --- --- 725.8 0.023 0.000 6.4 3 1
02/08/06 4:28 p -15.4 -15.3 -15.4 --- --- 21.7 ESE 0.36 25.2 -27.9 --- --- 725.7 0.023 0.000 6.5 3 1
02/08/06 4:29 p -15.4 -15.4 -15.4 --- --- 22.6 ESE 0.38 24.3 -28.2 --- --- 725.7 0.023 0.000 6.4 3 1
02/08/06 4:30 p -15.4 -15.4 -15.4 --- --- 22.6 ESE 0.38 25.2 -28.2 --- --- 725.6 0.023 0.000 6.5 3 1
02/08/06 4:31 p -15.4 -15.4 -15.4 --- --- 21.7 ESE 0.36 24.3 -28.0 --- --- 725.7 0.023 0.000 6.5 3 1
02/08/06 4:32 p -15.4 -15.4 -15.4 --- --- 21.7 ESE 0.36 26.1 -28.0 --- --- 725.7 0.023 0.000 6.5 3 1
02/08/06 4:33 p -15.4 -15.4 -15.4 --- --- 20.9 ESE 0.35 23.5 -27.8 --- --- 725.8 0.023 0.000 6.5 3 1
02/08/06 4:34 p -15.4 -15.4 -15.4 --- --- 21.7 ESE 0.36 24.3 -28.0 --- --- 725.9 0.023 0.000 6.5 3 1
02/08/06 4:35 p -15.4 -15.4 -15.4 --- --- 20.9 ESE 0.35 24.3 -27.8 --- --- 725.9 0.023 0.000 6.5 3 1
02/08/06 4:36 p -15.4 -15.4 -15.4 --- --- 22.6 ESE 0.38 24.3 -28.1 --- --- 725.9 0.023 0.000 6.5 3 1
02/08/06 4:37 p -15.4 -15.4 -15.4 --- --- 19.1 ESE 0.32 22.6 -27.3 --- --- 725.9 0.023 0.000 6.5 3 1
02/08/06 4:38 p -15.4 -15.4 -15.4 --- --- 19.1 ESE 0.32 20.9 -27.3 --- --- 726.0 0.023 0.000 6.5 3 1
02/08/06 4:39 p -15.4 -15.4 -15.4 --- --- 20.9 ESE 0.35 24.3 -27.7 --- --- 725.9 0.023 0.000 6.5 3 1
02/08/06 4:40 p -15.4 -15.4 -15.4 --- --- 20.0 ESE 0.33 22.6 -27.5 --- --- 725.9 0.023 0.000 6.5 3 1
02/08/06 4:41 p -15.4 -15.4 -15.4 --- --- 19.1 ESE 0.32 21.7 -27.3 --- --- 725.9 0.023 0.000 6.5 3 1
02/08/06 4:42 p -15.4 -15.4 -15.4 --- --- 20.0 ESE 0.33 22.6 -27.5 --- --- 725.8 0.023 0.000 6.4 3 1
02/08/06 4:43 p -15.4 -15.4 -15.4 --- --- 20.9 ESE 0.35 22.6 -27.8 --- --- 725.9 0.023 0.000 6.4 3 1
02/08/06 4:44 p -15.4 -15.4 -15.4 --- --- 19.1 ESE 0.32 21.7 -27.3 --- --- 725.9 0.023 0.000 6.4 3 1
02/08/06 4:45 p -15.4 -15.4 -15.4 --- --- 21.7 ESE 0.36 24.3 -28.0 --- --- 725.9 0.023 0.000 6.4 3 1
02/08/06 4:46 p -15.4 -15.4 -15.4 --- --- 20.9 ESE 0.35 24.3 -27.8 --- --- 725.9 0.023 0.000 6.4 3 1
02/08/06 4:47 p -15.4 -15.4 -15.4 --- --- 22.6 ESE 0.38 26.1 -28.2 --- --- 725.7 0.023 0.000 6.4 3 1
02/08/06 4:48 p -15.4 -15.4 -15.4 --- --- 21.7 ESE 0.36 25.2 -27.9 --- --- 725.8 0.023 0.000 6.4 3 1
02/08/06 4:49 p -15.4 -15.3 -15.4 --- --- 21.7 ESE 0.36 22.6 -27.9 --- --- 725.8 0.023 0.000 6.4 3 1
02/08/06 4:50 p -15.4 -15.3 -15.4 --- --- 22.6 ESE 0.38 27.8 -28.1 --- --- 725.8 0.023 0.000 6.4 3 1
02/08/06 4:51 p -15.3 -15.3 -15.3 --- --- 21.7 ESE 0.36 26.1 -27.8 --- --- 725.9 0.023 0.000 6.4 3 1
02/08/06 4:52 p -15.3 -15.3 -15.3 --- --- 21.7 ESE 0.36 25.2 -27.8 --- --- 725.7 0.023 0.000 6.4 3 1
02/08/06 4:53 p -15.3 -15.3 -15.3 --- --- 21.7 ESE 0.36 23.5 -27.8 --- --- 725.8 0.023 0.000 6.4 3 1
02/08/06 4:54 p -15.4 -15.3 -15.4 --- --- 21.7 ESE 0.36 23.5 -27.9 --- --- 725.8 0.023 0.000 6.3 3 1
02/08/06 4:55 p -15.4 -15.4 -15.4 --- --- 21.7 ESE 0.36 23.5 -27.9 --- --- 725.7 0.023 0.000 6.3 3 1
02/08/06 4:56 p -15.4 -15.4 -15.4 --- --- 22.6 ESE 0.38 27.8 -28.1 --- --- 725.6 0.023 0.000 6.3 3 1
02/08/06 4:57 p -15.4 -15.4 -15.4 --- --- 22.6 ESE 0.38 24.3 -28.1 --- --- 725.6 0.023 0.000 6.3 3 1
02/08/06 4:58 p -15.3 -15.3 -15.3 --- --- 21.7 ESE 0.36 24.3 -27.8 --- --- 725.6 0.023 0.000 6.3 3 1
02/08/06 4:59 p -15.3 -15.3 -15.3 --- --- 25.2 ESE 0.42 31.3 -28.6 --- --- 725.4 0.023 0.000 6.3 3 1
02/08/06 5:00 p -15.3 -15.2 -15.3 --- --- 24.3 ESE 0.41 28.7 -28.3 --- --- 725.6 0.023 0.000 6.3 3 1
02/08/06 5:01 p -15.2 -15.2 -15.2 --- --- 23.5 ESE 0.39 26.1 -28.1 --- --- 725.6 0.023 0.000 6.4 3 1
02/08/06 5:03 p -15.2 -15.2 -15.2 --- --- 23.5 ESE 0.39 26.1 -28.0 --- --- 725.5 0.023 0.000 6.4 3 1
02/08/06 5:04 p -15.2 -15.2 -15.2 --- --- 23.5 ESE 0.39 25.2 -28.0 --- --- 725.5 0.023 0.000 6.4 3 1
02/08/06 5:05 p -15.2 -15.2 -15.2 --- --- 21.7 ESE 0.36 24.3 -27.6 --- --- 725.6 0.023 0.000 6.4 3 1
02/08/06 5:06 p -15.2 -15.2 -15.2 --- --- 22.6 ESE 0.38 25.2 -27.8 --- --- 725.5 0.023 0.000 6.4 3 1
02/08/06 5:07 p -15.2 -15.2 -15.2 --- --- 22.6 ESE 0.38 25.2 -27.8 --- --- 725.5 0.023 0.000 6.4 3 1
02/08/06 5:08 p -15.2 -15.2 -15.2 --- --- 23.5 E 0.39 26.1 -28.0 --- --- 725.5 0.023 0.000 6.5 3 1
02/08/06 5:09 p -15.2 -15.2 -15.2 --- --- 21.7 ESE 0.36 24.3 -27.6 --- --- 725.5 0.023 0.000 6.5 3 1
02/08/06 5:10 p -15.2 -15.2 -15.2 --- --- 24.3 ESE 0.41 26.1 -28.3 --- --- 725.5 0.023 0.000 6.5 3 1
02/08/06 5:11 p -15.2 -15.2 -15.2 --- --- 24.3 ESE 0.41 27.8 -28.2 --- --- 725.6 0.023 0.000 6.5 3 1
02/08/06 5:12 p -15.2 -15.1 -15.2 --- --- 24.3 ESE 0.41 28.7 -28.2 --- --- 725.5 0.023 0.000 6.5 3 1
02/08/06 5:13 p -15.1 -15.1 -15.1 --- --- 25.2 ESE 0.42 27.8 -28.3 --- --- 725.5 0.023 0.000 6.5 3 1
02/08/06 5:14 p -15.1 -15.0 -15.1 --- --- 23.5 ESE 0.39 28.7 -27.8 --- --- 725.5 0.023 0.000 6.5 3 1
02/08/06 5:15 p -15.0 -14.9 -15.0 --- --- 26.1 ESE 0.43 27.8 -28.3 --- --- 725.6 0.023 0.000 6.5 3 1
02/08/06 5:16 p -14.9 -14.9 -15.0 --- --- 24.3 ESE 0.41 27.0 -27.9 --- --- 725.5 0.023 0.000 6.5 3 1
02/08/06 5:17 p -14.9 -14.9 -14.9 --- --- 25.2 ESE 0.42 28.7 -28.1 --- --- 725.6 0.023 0.000 6.5 3 1
02/08/06 5:18 p -14.9 -14.9 -14.9 --- --- 23.5 ESE 0.39 26.1 -27.6 --- --- 725.7 0.023 0.000 6.5 3 1
02/08/06 5:19 p -14.9 -14.9 -14.9 --- --- 23.5 ESE 0.39 28.7 -27.6 --- --- 725.6 0.023 0.000 6.5 3 1
02/08/06 5:20 p -14.9 -14.8 -14.9 --- --- 24.3 ESE 0.41 27.8 -27.8 --- --- 725.6 0.023 0.000 6.5 3 1
02/08/06 5:21 p -14.8 -14.8 -14.8 --- --- 23.5 ESE 0.39 26.1 -27.6 --- --- 725.7 0.023 0.000 6.5 3 1
02/08/06 5:22 p -14.8 -14.8 -14.8 --- --- 24.3 ESE 0.41 26.1 -27.7 --- --- 725.6 0.023 0.000 6.5 3 1
02/08/06 5:23 p -14.8 -14.8 -14.8 --- --- 24.3 ESE 0.41 28.7 -27.7 --- --- 725.7 0.023 0.000 6.5 3 1
02/08/06 5:24 p -14.9 -14.8 -14.9 --- --- 22.6 ESE 0.38 24.3 -27.4 --- --- 725.7 0.023 0.000 6.4 3 1
02/08/06 5:25 p -14.9 -14.8 -14.9 --- --- 21.7 ESE 0.36 24.3 -27.2 --- --- 725.7 0.023 0.000 6.4 3 1
02/08/06 5:26 p -14.9 -14.9 -14.9 --- --- 23.5 SE 0.39 25.2 -27.6 --- --- 725.6 0.023 0.000 6.4 3 1
02/08/06 5:27 p -14.8 -14.8 -14.9 --- --- 23.5 ESE 0.39 28.7 -27.6 --- --- 725.7 0.023 0.000 6.4 3 1
02/08/06 5:28 p -14.8 -14.7 -14.8 --- --- 20.9 ESE 0.35 21.7 -26.9 --- --- 725.6 0.023 0.000 6.4 3 1
02/08/06 5:29 p -14.7 -14.7 -14.8 --- --- 22.6 ESE 0.38 26.1 -27.2 --- --- 725.7 0.023 0.000 6.4 3 1
02/08/06 5:30 p -14.7 -14.7 -14.7 --- --- 24.3 ESE 0.41 27.0 -27.6 --- --- 725.7 0.023 0.000 6.4 3 1
02/08/06 5:31 p -14.7 -14.7 -14.8 --- --- 24.3 ESE 0.41 27.8 -27.6 --- --- 725.7 0.023 0.000 6.4 3 1
02/08/06 5:32 p -14.8 -14.8 -14.8 --- --- 22.6 SE 0.38 25.2 -27.3 --- --- 725.6 0.023 0.000 6.4 3 1
02/08/06 5:33 p -14.8 -14.8 -14.8 --- --- 21.7 ESE 0.36 25.2 -27.1 --- --- 725.7 0.023 0.000 6.4 3 1
02/08/06 5:34 p -14.8 -14.8 -14.8 --- --- 22.6 ESE 0.38 24.3 -27.4 --- --- 725.6 0.023 0.000 6.4 3 1
02/08/06 5:35 p -14.8 -14.8 -14.9 --- --- 24.3 ESE 0.41 28.7 -27.7 --- --- 725.6 0.023 0.000 6.4 3 1
02/08/06 5:36 p -14.9 -14.9 -14.9 --- --- 21.7 ESE 0.36 26.1 -27.3 --- --- 725.6 0.023 0.000 6.4 3 1
02/08/06 5:37 p -15.0 -14.9 -15.0 --- --- 22.6 ESE 0.38 25.2 -27.6 --- --- 725.7 0.023 0.000 6.4 3 1
02/08/06 5:38 p -15.0 -15.0 -15.0 --- --- 20.9 ESE 0.35 22.6 -27.2 --- --- 725.7 0.023 0.000 6.4 3 1
02/08/06 5:39 p -15.0 -15.0 -15.1 --- --- 21.7 ESE 0.36 23.5 -27.4 --- --- 725.7 0.023 0.000 6.4 3 1
02/08/06 5:40 p -15.1 -15.1 -15.1 --- --- 21.7 ESE 0.36 23.5 -27.4 --- --- 725.7 0.023 0.000 6.4 3 1
02/08/06 5:41 p -15.1 -15.1 -15.1 --- --- 20.9 ESE 0.35 24.3 -27.3 --- --- 725.7 0.023 0.000 6.4 3 1
02/08/06 5:42 p -15.2 -15.1 -15.2 --- --- 20.9 ESE 0.35 23.5 -27.4 --- --- 725.7 0.023 0.000 6.4 3 1
02/08/06 5:43 p -15.2 -15.2 -15.2 --- --- 20.0 ESE 0.33 22.6 -27.3 --- --- 725.7 0.023 0.000 6.4 3 1
02/08/06 5:44 p -15.2 -15.2 -15.3 --- --- 19.1 ESE 0.32 21.7 -27.1 --- --- 725.7 0.023 0.000 6.4 3 1
02/08/06 5:45 p -15.3 -15.2 -15.3 --- --- 20.0 ESE 0.33 21.7 -27.3 --- --- 725.7 0.023 0.000 6.4 3 1
02/08/06 5:46 p -15.3 -15.3 -15.3 --- --- 20.0 ESE 0.33 23.5 -27.4 --- --- 725.7 0.023 0.000 6.4 3 1
02/08/06 5:47 p -15.3 -15.3 -15.4 --- --- 20.9 ESE 0.35 21.7 -27.6 --- --- 725.6 0.023 0.000 6.4 3 1
02/08/06 5:48 p -15.4 -15.4 -15.4 --- --- 20.0 ESE 0.33 21.7 -27.5 --- --- 725.7 0.023 0.000 6.4 3 1
02/08/06 5:49 p -15.4 -15.4 -15.4 --- --- 20.0 ESE 0.33 22.6 -27.5 --- --- 725.8 0.023 0.000 6.4 3 1
02/08/06 5:50 p -15.4 -15.4 -15.4 --- --- 20.0 ESE 0.33 23.5 -27.5 --- --- 725.7 0.023 0.000 6.5 3 1
02/08/06 5:51 p -15.3 -15.3 -15.4 --- --- 20.9 ESE 0.35 22.6 -27.6 --- --- 725.7 0.023 0.000 6.4 3 1
02/08/06 5:52 p -15.3 -15.3 -15.3 --- --- 20.9 ESE 0.35 21.7 -27.6 --- --- 725.7 0.023 0.000 6.4 3 1
02/08/06 5:53 p -15.2 -15.2 -15.3 --- --- 20.0 ESE 0.33 21.7 -27.3 --- --- 725.8 0.023 0.000 6.4 3 1
02/08/06 5:54 p -15.2 -15.2 -15.2 --- --- 20.0 ESE 0.33 22.6 -27.3 --- --- 725.7 0.023 0.000 6.4 3 1
02/08/06 5:55 p -15.2 -15.2 -15.2 --- --- 20.0 ESE 0.33 22.6 -27.2 --- --- 725.8 0.023 0.000 6.4 3 1
02/08/06 5:56 p -15.2 -15.2 -15.2 --- --- 19.1 ESE 0.32 20.0 -27.0 --- --- 725.8 0.023 0.000 6.4 3 1
02/08/06 5:57 p -15.2 -15.1 -15.2 --- --- 19.1 ESE 0.32 22.6 -27.0 --- --- 725.8 0.023 0.000 6.4 3 1
02/08/06 5:58 p -15.1 -15.1 -15.1 --- --- 18.3 ESE 0.30 20.9 -26.7 --- --- 725.9 0.023 0.000 6.4 3 1
02/08/06 5:59 p -15.1 -15.1 -15.1 --- --- 19.1 ESE 0.32 20.9 -26.8 --- --- 725.9 0.023 0.000 6.4 3 1
02/08/06 6:00 p -15.1 -15.0 -15.1 --- --- 19.1 ESE 0.32 20.0 -26.8 --- --- 725.8 0.023 0.000 6.4 3 1
02/08/06 6:01 p -15.0 -15.0 -15.1 --- --- 18.3 E 0.30 20.9 -26.6 --- --- 725.9 0.023 0.000 6.4 3 1
02/08/06 6:02 p -15.0 -15.0 -15.1 --- --- 16.5 ESE 0.28 20.0 -26.1 --- --- 725.9 0.023 0.000 6.4 3 1
02/08/06 6:03 p -14.9 -14.9 -15.0 --- --- 16.5 ESE 0.28 18.3 -26.0 --- --- 725.9 0.023 0.000 6.4 3 1
02/08/06 6:04 p -14.9 -14.9 -14.9 --- --- 16.5 ESE 0.28 19.1 -26.0 --- --- 725.9 0.023 0.000 6.3 3 1
02/08/06 6:05 p -14.9 -14.9 -14.9 --- --- 18.3 ESE 0.30 20.9 -26.4 --- --- 725.8 0.023 0.000 6.3 3 1
02/08/06 6:06 p -14.9 -14.9 -14.9 --- --- 20.0 ESE 0.33 21.7 -26.8 --- --- 725.8 0.023 0.000 6.3 3 1
02/08/06 6:07 p -14.9 -14.8 -14.9 --- --- 20.9 ESE 0.35 23.5 -27.1 --- --- 725.7 0.023 0.000 6.3 3 1
02/08/06 6:08 p -14.8 -14.8 -14.8 --- --- 21.7 ESE 0.36 26.1 -27.2 --- --- 725.7 0.023 0.000 6.3 3 1
02/08/06 6:09 p -14.8 -14.7 -14.8 --- --- 21.7 SE 0.36 24.3 -27.1 --- --- 725.7 0.023 0.000 6.3 3 1
02/08/06 6:10 p -14.7 -14.7 -14.7 --- --- 18.3 SE 0.30 21.7 -26.1 --- --- 725.8 0.023 0.000 6.3 3 1
02/08/06 6:11 p -14.7 -14.6 -14.7 --- --- 16.5 SE 0.28 19.1 -25.6 --- --- 725.9 0.023 0.000 6.3 3 1
02/08/06 6:12 p -14.6 -14.5 -14.6 --- --- 18.3 SE 0.30 20.0 -25.9 --- --- 725.8 0.023 0.000 6.4 3 1
02/08/06 6:13 p -14.5 -14.5 -14.5 --- --- 18.3 ESE 0.30 22.6 -25.9 --- --- 725.7 0.023 0.000 6.4 3 1
02/08/06 6:14 p -14.4 -14.4 -14.4 --- --- 20.0 SE 0.33 22.6 -26.2 --- --- 725.8 0.023 0.000 6.4 3 1
02/08/06 6:15 p -14.4 -14.4 -14.4 --- --- 20.0 SE 0.33 24.3 -26.2 --- --- 725.8 0.023 0.000 6.4 3 1
02/08/06 6:16 p -14.3 -14.3 -14.4 --- --- 20.9 SE 0.35 23.5 -26.3 --- --- 725.7 0.023 0.000 6.4 3 1
02/08/06 6:17 p -14.3 -14.3 -14.3 --- --- 21.7 ESE 0.36 24.3 -26.5 --- --- 725.7 0.023 0.000 6.4 3 1
02/08/06 6:18 p -14.3 -14.3 -14.3 --- --- 20.0 ESE 0.33 24.3 -26.0 --- --- 725.7 0.023 0.000 6.4 3 1
02/08/06 6:19 p -14.3 -14.3 -14.3 --- --- 20.9 SE 0.35 24.3 -26.3 --- --- 725.8 0.023 0.000 6.4 3 1
02/08/06 6:20 p -14.3 -14.3 -14.3 --- --- 20.9 SE 0.35 22.6 -26.2 --- --- 725.7 0.023 0.000 6.4 3 1
02/08/06 6:21 p -14.3 -14.3 -14.3 --- --- 21.7 SE 0.36 25.2 -26.4 --- --- 725.7 0.023 0.000 6.4 3 1
02/08/06 6:22 p -14.3 -14.3 -14.3 --- --- 23.5 SE 0.39 26.1 -26.8 --- --- 725.7 0.023 0.000 6.4 3 1
02/08/06 6:23 p -14.2 -14.2 -14.3 --- --- 21.7 SE 0.36 24.3 -26.3 --- --- 725.8 0.023 0.000 6.5 3 1
02/08/06 6:24 p -14.2 -14.2 -14.2 --- --- 21.7 SE 0.36 24.3 -26.3 --- --- 725.8 0.023 0.000 6.5 3 1
02/08/06 6:25 p -14.2 -14.2 -14.2 --- --- 20.9 ESE 0.35 25.2 -26.1 --- --- 725.8 0.023 0.000 6.5 3 1
02/08/06 6:26 p -14.1 -14.1 -14.2 --- --- 21.7 SE 0.36 24.3 -26.2 --- --- 725.8 0.023 0.000 6.5 3 1
02/08/06 6:27 p -14.1 -14.1 -14.1 --- --- 21.7 SE 0.36 29.6 -26.2 --- --- 725.8 0.023 0.000 6.5 3 1
02/08/06 6:28 p -14.1 -14.1 -14.1 --- --- 23.5 SE 0.39 27.0 -26.5 --- --- 725.8 0.022 0.000 6.5 3 1
02/08/06 6:29 p -14.0 -14.0 -14.1 --- --- 21.7 SE 0.36 23.5 -26.1 --- --- 725.8 0.022 0.000 6.5 3 1
02/08/06 6:30 p -13.9 -13.9 -13.9 --- --- 22.6 SE 0.38 26.1 -26.2 --- --- 725.9 0.022 0.000 6.5 3 1
02/08/06 6:31 p -13.9 -13.8 -13.9 --- --- 22.6 SE 0.38 30.4 -26.1 --- --- 725.8 0.022 0.000 6.5 3 1
02/08/06 6:32 p -13.8 -13.8 -13.8 --- --- 25.2 SE 0.42 29.6 -26.6 --- --- 725.8 0.022 0.000 6.4 3 1
02/08/06 6:33 p -13.7 -13.7 -13.7 --- --- 24.3 SE 0.41 29.6 -26.2 --- --- 725.7 0.022 0.000 6.4 3 1
02/08/06 6:34 p -13.6 -13.6 -13.7 --- --- 25.2 SE 0.42 27.0 -26.3 --- --- 725.6 0.022 0.000 6.4 3 1
02/08/06 6:35 p -13.6 -13.6 -13.6 --- --- 24.3 SE 0.41 26.1 -26.1 --- --- 725.7 0.022 0.000 6.4 3 1
02/08/06 6:36 p -13.6 -13.6 -13.6 --- --- 24.3 SE 0.41 27.8 -26.1 --- --- 725.7 0.022 0.000 6.4 3 1
02/08/06 6:37 p -13.6 -13.6 -13.6 --- --- 23.5 SE 0.39 25.2 -25.8 --- --- 725.8 0.022 0.000 6.4 3 1
02/08/06 6:38 p -13.6 -13.6 -13.6 --- --- 24.3 SE 0.41 26.1 -26.0 --- --- 725.7 0.022 0.000 6.4 3 1
02/08/06 6:39 p -13.6 -13.6 -13.6 --- --- 24.3 SE 0.41 27.0 -26.0 --- --- 725.8 0.022 0.000 6.4 3 1
02/08/06 6:40 p -13.6 -13.6 -13.6 --- --- 21.7 SE 0.36 24.3 -25.4 --- --- 725.8 0.022 0.000 6.3 3 1
02/08/06 6:41 p -13.6 -13.6 -13.6 --- --- 20.9 SE 0.35 22.6 -25.3 --- --- 725.7 0.022 0.000 6.3 3 1
02/08/06 6:42 p -13.6 -13.6 -13.6 --- --- 23.5 SE 0.39 27.0 -25.8 --- --- 725.8 0.022 0.000 6.3 3 1
02/08/06 6:43 p -13.6 -13.6 -13.6 --- --- 21.7 SE 0.36 24.3 -25.4 --- --- 725.8 0.022 0.000 6.3 3 1
02/08/06 6:44 p -13.6 -13.6 -13.6 --- --- 22.6 SE 0.38 25.2 -25.7 --- --- 725.8 0.022 0.000 6.3 3 1
02/08/06 6:45 p -13.6 -13.6 -13.6 --- --- 26.1 SE 0.43 27.8 -26.3 --- --- 725.7 0.022 0.000 6.3 3 1
02/08/06 6:46 p -13.5 -13.5 -13.5 --- --- 23.5 SE 0.39 27.0 -25.8 --- --- 725.6 0.022 0.000 6.3 3 1
02/08/06 6:47 p -13.5 -13.4 -13.5 --- --- 23.5 SE 0.39 27.8 -25.8 --- --- 725.6 0.022 0.000 6.3 3 1
02/08/06 6:48 p -13.4 -13.4 -13.4 --- --- 24.3 SSE 0.41 27.8 -25.9 --- --- 725.5 0.022 0.000 6.3 3 1
02/08/06 6:49 p -13.4 -13.4 -13.4 --- --- 23.5 SE 0.39 24.3 -25.6 --- --- 725.6 0.022 0.000 6.3 3 1
02/08/06 6:50 p -13.3 -13.3 -13.4 --- --- 23.5 SE 0.39 26.1 -25.6 --- --- 725.6 0.022 0.000 6.3 3 1
02/08/06 6:51 p -13.3 -13.3 -13.3 --- --- 23.5 SE 0.39 26.1 -25.6 --- --- 725.5 0.022 0.000 6.3 3 1
02/08/06 6:52 p -13.3 -13.3 -13.3 --- --- 24.3 SE 0.41 27.8 -25.7 --- --- 725.6 0.022 0.000 6.3 3 1
02/08/06 6:53 p -13.3 -13.3 -13.3 --- --- 24.3 SSE 0.41 28.7 -25.7 --- --- 725.6 0.022 0.000 6.3 3 1
02/08/06 6:54 p -13.3 -13.3 -13.3 --- --- 22.6 SE 0.38 26.1 -25.3 --- --- 725.5 0.022 0.000 6.3 3 1
02/08/06 6:55 p -13.3 -13.3 -13.3 --- --- 24.3 SE 0.41 27.0 -25.7 --- --- 725.4 0.022 0.000 6.3 3 1
02/08/06 6:56 p -13.3 -13.3 -13.3 --- --- 23.5 SE 0.39 27.8 -25.4 --- --- 725.4 0.022 0.000 6.4 3 1
02/08/06 6:57 p -13.3 -13.3 -13.3 --- --- 26.1 SE 0.43 27.8 -26.0 --- --- 725.4 0.022 0.000 6.4 3 1
02/08/06 6:58 p -13.3 -13.3 -13.3 --- --- 28.7 SE 0.48 32.2 -26.4 --- --- 725.3 0.022 0.000 6.4 3 1
02/08/06 6:59 p -13.3 -13.3 -13.3 --- --- 28.7 SE 0.48 30.4 -26.4 --- --- 725.4 0.022 0.000 6.4 3 1
02/08/06 7:00 p -13.2 -13.2 -13.2 --- --- 31.3 SE 0.52 33.9 -26.8 --- --- 725.2 0.022 0.000 6.4 3 1
02/08/06 7:01 p -13.2 -13.2 -13.2 --- --- 29.6 SE 0.49 33.9 -26.4 --- --- 725.2 0.022 0.000 6.4 3 1
02/08/06 7:03 p -13.1 -13.1 -13.1 --- --- 27.0 SE 0.45 29.6 -25.8 --- --- 725.4 0.022 0.000 6.4 3 1
02/08/06 7:04 p -13.1 -13.1 -13.1 --- --- 26.1 ESE 0.43 28.7 -25.8 --- --- 725.4 0.022 0.000 6.4 3 1
02/08/06 7:05 p -13.2 -13.1 -13.2 --- --- 25.2 ESE 0.42 28.7 -25.7 --- --- 725.3 0.022 0.000 6.5 3 1
02/08/06 7:06 p -13.4 -13.3 -13.5 --- --- 26.1 ESE 0.43 27.8 -26.1 --- --- 725.5 0.022 0.000 6.5 3 1
02/08/06 7:07 p -13.6 -13.5 -13.7 --- --- 26.1 ESE 0.43 27.8 -26.3 --- --- 725.4 0.022 0.000 6.5 3 1
02/08/06 7:08 p -13.8 -13.7 -13.8 --- --- 26.1 ESE 0.43 27.8 -26.7 --- --- 725.4 0.022 0.000 6.5 3 1
02/08/06 7:09 p -13.9 -13.8 -14.0 --- --- 27.0 ESE 0.45 28.7 -27.0 --- --- 725.5 0.022 0.000 6.5 3 1
02/08/06 7:10 p -14.1 -14.0 -14.2 --- --- 26.1 ESE 0.43 27.8 -27.1 --- --- 725.5 0.022 0.000 6.5 3 1
02/08/06 7:11 p -14.2 -14.2 -14.3 --- --- 27.0 ESE 0.45 29.6 -27.4 --- --- 725.5 0.023 0.000 6.5 3 1
02/08/06 7:12 p -14.3 -14.3 -14.4 --- --- 26.1 ESE 0.43 27.8 -27.4 --- --- 725.6 0.023 0.000 6.5 3 1
02/08/06 7:13 p -14.4 -14.4 -14.4 --- --- 24.3 ESE 0.41 25.2 -27.2 --- --- 725.6 0.023 0.000 6.5 3 1
02/08/06 7:14 p -14.4 -14.4 -14.5 --- --- 24.3 ESE 0.41 27.8 -27.2 --- --- 725.6 0.023 0.000 6.5 3 1
02/08/06 7:15 p -14.6 -14.5 -14.6 --- --- 26.1 ESE 0.43 27.8 -27.7 --- --- 725.6 0.023 0.000 6.5 3 1
02/08/06 7:16 p -14.6 -14.6 -14.6 --- --- 27.0 ESE 0.45 27.8 -27.9 --- --- 725.6 0.023 0.000 6.4 3 1
02/08/06 7:17 p -14.6 -14.6 -14.7 --- --- 25.2 ESE 0.42 27.8 -27.6 --- --- 725.6 0.023 0.000 6.4 3 1
02/08/06 7:18 p -14.7 -14.7 -14.7 --- --- 24.3 E 0.41 26.1 -27.5 --- --- 725.6 0.023 0.000 6.4 3 1
02/08/06 7:19 p -14.7 -14.7 -14.7 --- --- 24.3 E 0.41 27.8 -27.6 --- --- 725.6 0.023 0.000 6.4 3 1
02/08/06 7:20 p -14.8 -14.7 -14.8 --- --- 22.6 E 0.38 26.1 -27.3 --- --- 725.6 0.023 0.000 6.4 3 1
02/08/06 7:21 p -14.7 -14.7 -14.7 --- --- 26.1 ESE 0.43 30.4 -27.9 --- --- 725.6 0.023 0.000 6.4 3 1
02/08/06 7:22 p -14.7 -14.7 -14.7 --- --- 24.3 ESE 0.41 27.8 -27.5 --- --- 725.6 0.023 0.000 6.4 3 1
02/08/06 7:23 p -14.6 -14.6 -14.7 --- --- 20.9 E 0.35 26.1 -26.7 --- --- 725.6 0.023 0.000 6.4 3 1
02/08/06 7:24 p -14.6 -14.6 -14.6 --- --- 21.7 E 0.36 25.2 -26.9 --- --- 725.6 0.023 0.000 6.4 3 1
02/08/06 7:25 p -14.7 -14.6 -14.8 --- --- 21.7 E 0.36 24.3 -26.9 --- --- 725.5 0.023 0.000 6.4 3 1
02/08/06 7:26 p -14.8 -14.8 -14.8 --- --- 20.0 E 0.33 22.6 -26.7 --- --- 725.6 0.023 0.000 6.4 3 1
02/08/06 7:27 p -14.8 -14.8 -14.8 --- --- 20.9 E 0.35 24.3 -26.9 --- --- 725.6 0.023 0.000 6.4 3 1
02/08/06 7:28 p -14.8 -14.8 -14.8 --- --- 20.9 E 0.35 25.2 -26.9 --- --- 725.6 0.023 0.000 6.4 3 1
02/08/06 7:29 p -14.8 -14.8 -14.8 --- --- 20.0 E 0.33 25.2 -26.8 --- --- 725.6 0.023 0.000 6.4 3 1
02/08/06 7:30 p -14.8 -14.8 -14.8 --- --- 21.7 E 0.36 24.3 -27.2 --- --- 725.6 0.023 0.000 6.4 3 1
02/08/06 7:31 p -14.8 -14.8 -14.8 --- --- 20.9 E 0.35 24.3 -26.9 --- --- 725.6 0.023 0.000 6.4 3 1
02/08/06 7:32 p -14.8 -14.8 -14.8 --- --- 20.9 E 0.35 23.5 -26.9 --- --- 725.6 0.023 0.000 6.4 3 1
02/08/06 7:33 p -14.8 -14.8 -14.8 --- --- 21.7 E 0.36 27.0 -27.2 --- --- 725.6 0.023 0.000 6.4 3 1
02/08/06 7:34 p -14.8 -14.8 -14.9 --- --- 20.9 E 0.35 27.8 -26.9 --- --- 725.5 0.023 0.000 6.4 3 1
02/08/06 7:35 p -14.8 -14.8 -14.8 --- --- 21.7 E 0.36 28.7 -27.2 --- --- 725.6 0.023 0.000 6.4 3 1
02/08/06 7:36 p -14.8 -14.8 -14.8 --- --- 22.6 E 0.38 27.0 -27.3 --- --- 725.7 0.023 0.000 6.4 3 1
02/08/06 7:37 p -14.8 -14.8 -14.8 --- --- 22.6 E 0.38 27.8 -27.3 --- --- 725.6 0.023 0.000 6.4 3 1
02/08/06 7:38 p -14.7 -14.7 -14.8 --- --- 23.5 E 0.39 28.7 -27.4 --- --- 725.6 0.023 0.000 6.4 3 1
02/08/06 7:39 p -14.8 -14.7 -14.8 --- --- 23.5 E 0.39 29.6 -27.5 --- --- 725.6 0.023 0.000 6.5 3 1
02/08/06 7:40 p -14.8 -14.8 -14.8 --- --- 21.7 E 0.36 25.2 -27.1 --- --- 725.6 0.023 0.000 6.5 3 1
02/08/06 7:41 p -14.8 -14.7 -14.8 --- --- 24.3 ENE 0.41 27.0 -27.7 --- --- 725.6 0.023 0.000 6.5 3 1
02/08/06 7:42 p -14.8 -14.7 -14.8 --- --- 20.9 E 0.35 26.1 -26.9 --- --- 725.6 0.023 0.000 6.5 3 1
02/08/06 7:43 p -14.7 -14.7 -14.8 --- --- 21.7 E 0.36 27.0 -27.0 --- --- 725.7 0.023 0.000 6.5 3 1
02/08/06 7:44 p -14.7 -14.7 -14.7 --- --- 22.6 E 0.38 26.1 -27.2 --- --- 725.6 0.023 0.000 6.5 3 1
02/08/06 7:45 p -14.6 -14.6 -14.7 --- --- 20.9 E 0.35 26.1 -26.7 --- --- 725.7 0.023 0.000 6.5 3 1
02/08/06 7:46 p -14.6 -14.6 -14.6 --- --- 21.7 E 0.36 25.2 -26.9 --- --- 725.6 0.023 0.000 6.5 3 1
02/08/06 7:47 p -14.6 -14.6 -14.6 --- --- 20.9 E 0.35 24.3 -26.7 --- --- 725.7 0.023 0.000 6.5 3 1
02/08/06 7:48 p -14.6 -14.6 -14.6 --- --- 24.3 ENE 0.41 28.7 -27.4 --- --- 725.7 0.023 0.000 6.5 3 1
02/08/06 7:49 p -14.6 -14.6 -14.6 --- --- 24.3 E 0.41 27.8 -27.4 --- --- 725.6 0.023 0.000 6.4 3 1
02/08/06 7:50 p -14.6 -14.6 -14.6 --- --- 26.1 ENE 0.43 28.7 -27.7 --- --- 725.6 0.023 0.000 6.4 3 1
02/08/06 7:51 p -14.5 -14.5 -14.6 --- --- 23.5 E 0.39 27.8 -27.1 --- --- 725.6 0.023 0.000 6.4 3 1
02/08/06 7:52 p -14.5 -14.5 -14.5 --- --- 20.9 E 0.35 24.3 -26.5 --- --- 725.8 0.023 0.000 6.4 3 1
02/08/06 7:53 p -14.4 -14.4 -14.4 --- --- 22.6 E 0.38 27.0 -26.8 --- --- 725.5 0.023 0.000 6.4 3 1
02/08/06 7:54 p -14.4 -14.4 -14.4 --- --- 26.1 ENE 0.43 31.3 -27.6 --- --- 725.4 0.023 0.000 6.4 3 1
02/08/06 7:55 p -14.4 -14.4 -14.4 --- --- 26.1 ENE 0.43 28.7 -27.6 --- --- 725.6 0.023 0.000 6.4 3 1
02/08/06 7:56 p -14.4 -14.4 -14.4 --- --- 23.5 E 0.39 27.0 -27.1 --- --- 725.5 0.023 0.000 6.4 3 1
02/08/06 7:57 p -14.4 -14.4 -14.4 --- --- 23.5 E 0.39 27.0 -27.1 --- --- 725.5 0.023 0.000 6.4 3 1
02/08/06 7:58 p -14.4 -14.4 -14.4 --- --- 26.1 E 0.43 29.6 -27.6 --- --- 725.5 0.023 0.000 6.4 3 1
02/08/06 7:59 p -14.4 -14.4 -14.4 --- --- 24.3 ENE 0.41 28.7 -27.2 --- --- 725.5 0.023 0.000 6.4 3 1
02/08/06 8:00 p -14.4 -14.4 -14.4 --- --- 26.1 ENE 0.43 31.3 -27.5 --- --- 725.5 0.023 0.000 6.4 3 1
02/08/06 8:01 p -14.4 -14.4 -14.4 --- --- 20.9 E 0.35 24.3 -26.4 --- --- 725.5 0.023 0.000 6.4 3 1
02/08/06 8:02 p -14.4 -14.3 -14.4 --- --- 19.1 E 0.32 21.7 -25.9 --- --- 725.6 0.023 0.000 6.5 3 1
02/08/06 8:03 p -14.3 -14.3 -14.4 --- --- 21.7 E 0.36 26.1 -26.5 --- --- 725.6 0.023 0.000 6.5 3 1
02/08/06 8:04 p -14.3 -14.3 -14.3 --- --- 25.2 ENE 0.42 29.6 -27.2 --- --- 725.6 0.023 0.000 6.5 3 1
02/08/06 8:05 p -14.3 -14.2 -14.3 --- --- 22.6 E 0.38 30.4 -26.6 --- --- 725.7 0.023 0.000 6.5 3 1
02/08/06 8:06 p -14.2 -14.2 -14.2 --- --- 20.9 E 0.35 26.1 -26.2 --- --- 725.5 0.023 0.000 6.5 3 1
02/08/06 8:07 p -14.2 -14.2 -14.2 --- --- 23.5 E 0.39 30.4 -26.7 --- --- 725.5 0.023 0.000 6.5 3 1
02/08/06 8:08 p -14.1 -14.1 -14.1 --- --- 22.6 E 0.38 25.2 -26.4 --- --- 725.6 0.023 0.000 6.6 3 1
02/08/06 8:09 p -14.1 -14.0 -14.1 --- --- 21.7 E 0.36 25.2 -26.1 --- --- 725.7 0.022 0.000 6.6 3 1
02/08/06 8:10 p -14.0 -13.9 -14.0 --- --- 19.1 E 0.32 26.1 -25.4 --- --- 725.7 0.022 0.000 6.6 3 1
02/08/06 8:11 p -13.9 -13.9 -13.9 --- --- 19.1 E 0.32 23.5 -25.4 --- --- 725.7 0.022 0.000 6.6 3 1
02/08/06 8:12 p -13.9 -13.8 -13.9 --- --- 20.9 E 0.35 24.3 -25.7 --- --- 725.7 0.022 0.000 6.6 3 1
02/08/06 8:13 p -13.8 -13.8 -13.8 --- --- 21.7 E 0.36 25.2 -25.8 --- --- 725.6 0.022 0.000 6.6 3 1
02/08/06 8:14 p -13.7 -13.7 -13.7 --- --- 22.6 E 0.38 27.8 -25.9 --- --- 725.7 0.022 0.000 6.5 3 1
02/08/06 8:15 p -13.7 -13.6 -13.7 --- --- 21.7 E 0.36 27.8 -25.6 --- --- 725.7 0.022 0.000 6.5 3 1
02/08/06 8:16 p -13.6 -13.6 -13.6 --- --- 20.0 E 0.33 23.5 -25.1 --- --- 725.7 0.022 0.000 6.5 3 1
02/08/06 8:17 p -13.5 -13.4 -13.6 --- --- 20.0 E 0.33 24.3 -25.0 --- --- 725.8 0.022 0.000 6.5 3 1
02/08/06 8:18 p -13.4 -13.4 -13.4 --- --- 15.7 E 0.26 18.3 -23.8 --- --- 725.7 0.022 0.000 6.5 3 1
02/08/06 8:19 p -13.4 -13.4 -13.4 --- --- 19.1 E 0.32 23.5 -24.6 --- --- 725.7 0.022 0.000 6.5 3 1
02/08/06 8:20 p -13.4 -13.3 -13.4 --- --- 20.9 ENE 0.35 24.3 -25.1 --- --- 725.6 0.022 0.000 6.4 3 1
02/08/06 8:21 p -13.3 -13.3 -13.3 --- --- 21.7 E 0.36 27.0 -25.2 --- --- 725.6 0.022 0.000 6.4 3 1
02/08/06 8:22 p -13.3 -13.3 -13.3 --- --- 20.9 ENE 0.35 23.5 -24.9 --- --- 725.6 0.022 0.000 6.4 3 1
02/08/06 8:23 p -13.3 -13.3 -13.3 --- --- 20.0 E 0.33 24.3 -24.8 --- --- 725.6 0.022 0.000 6.4 3 1
02/08/06 8:24 p -13.3 -13.3 -13.3 --- --- 20.0 E 0.33 24.3 -24.8 --- --- 725.6 0.022 0.000 6.4 3 1
02/08/06 8:25 p -13.3 -13.3 -13.3 --- --- 19.1 E 0.32 22.6 -24.6 --- --- 725.6 0.022 0.000 6.4 3 1
02/08/06 8:26 p -13.3 -13.3 -13.4 --- --- 20.9 ENE 0.35 25.2 -24.9 --- --- 725.7 0.022 0.000 6.5 3 1
02/08/06 8:27 p -13.4 -13.4 -13.4 --- --- 20.9 ENE 0.35 25.2 -25.1 --- --- 725.7 0.022 0.000 6.5 3 1
02/08/06 8:28 p -13.4 -13.4 -13.4 --- --- 18.3 E 0.30 23.5 -24.4 --- --- 725.6 0.022 0.000 6.5 3 1
02/08/06 8:29 p -13.4 -13.4 -13.4 --- --- 14.8 E 0.25 20.0 -23.4 --- --- 725.7 0.022 0.000 6.5 3 1
02/08/06 8:30 p -13.3 -13.3 -13.4 --- --- 17.4 E 0.29 21.7 -24.1 --- --- 725.6 0.022 0.000 6.5 3 1
02/08/06 8:31 p -13.2 -13.2 -13.3 --- --- 17.4 E 0.29 23.5 -23.9 --- --- 725.7 0.022 0.000 6.5 3 1
02/08/06 8:32 p -13.2 -13.2 -13.2 --- --- 19.1 E 0.32 21.7 -24.3 --- --- 725.6 0.022 0.000 6.5 3 1
02/08/06 8:33 p -13.1 -13.1 -13.2 --- --- 17.4 E 0.29 22.6 -23.8 --- --- 725.7 0.022 0.000 6.6 3 1
02/08/06 8:34 p -13.1 -13.1 -13.1 --- --- 20.9 E 0.35 23.5 -24.6 --- --- 725.6 0.022 0.000 6.6 3 1
02/08/06 8:35 p -13.0 -13.0 -13.1 --- --- 22.6 E 0.38 26.1 -24.9 --- --- 725.6 0.022 0.000 6.6 3 1
02/08/06 8:36 p -13.1 -13.0 -13.1 --- --- 22.6 E 0.38 26.1 -25.0 --- --- 725.8 0.022 0.000 6.6 3 1
02/08/06 8:37 p -13.1 -13.1 -13.2 --- --- 22.6 E 0.38 26.1 -25.1 --- --- 725.8 0.022 0.000 6.6 3 1
02/08/06 8:38 p -13.2 -13.2 -13.2 --- --- 22.6 E 0.38 25.2 -25.2 --- --- 725.8 0.022 0.000 6.6 3 1
02/08/06 8:39 p -13.3 -13.2 -13.4 --- --- 22.6 E 0.38 27.0 -25.3 --- --- 725.8 0.022 0.000 6.6 3 1
02/08/06 8:40 p -13.4 -13.4 -13.4 --- --- 23.5 E 0.39 26.1 -25.6 --- --- 725.7 0.022 0.000 6.6 4 1
02/08/06 8:41 p -13.4 -13.4 -13.4 --- --- 23.5 E 0.39 27.8 -25.6 --- --- 725.8 0.022 0.000 6.5 3 1
02/08/06 8:42 p -13.5 -13.4 -13.5 --- --- 18.3 E 0.30 23.5 -24.6 --- --- 725.8 0.022 0.000 6.5 4 1
02/08/06 8:43 p -13.5 -13.5 -13.5 --- --- 20.9 E 0.35 27.8 -25.2 --- --- 725.9 0.022 0.000 6.5 3 1
02/08/06 8:44 p -13.5 -13.5 -13.5 --- --- 21.7 ENE 0.36 27.0 -25.4 --- --- 725.8 0.022 0.000 6.5 3 1
02/08/06 8:45 p -13.5 -13.5 -13.5 --- --- 22.6 E 0.38 27.8 -25.6 --- --- 725.9 0.022 0.000 6.4 3 1
02/08/06 8:46 p -13.5 -13.5 -13.5 --- --- 19.1 E 0.32 24.3 -24.8 --- --- 725.8 0.022 0.000 6.4 3 1
02/08/06 8:47 p -13.5 -13.5 -13.5 --- --- 22.6 E 0.38 26.1 -25.6 --- --- 725.9 0.022 0.000 6.4 4 1
02/08/06 8:48 p -13.5 -13.5 -13.5 --- --- 18.3 E 0.30 22.6 -24.6 --- --- 725.9 0.022 0.000 6.4 3 1
02/08/06 8:49 p -13.5 -13.5 -13.5 --- --- 17.4 E 0.29 21.7 -24.3 --- --- 725.8 0.022 0.000 6.4 3 1
02/08/06 8:50 p -13.5 -13.5 -13.5 --- --- 21.7 E 0.36 27.8 -25.4 --- --- 725.9 0.022 0.000 6.4 4 1
02/08/06 8:51 p -13.5 -13.5 -13.5 --- --- 21.7 ENE 0.36 27.8 -25.4 --- --- 725.7 0.022 0.000 6.4 4 1
02/08/06 8:52 p -13.5 -13.5 -13.5 --- --- 23.5 ENE 0.39 27.8 -25.8 --- --- 725.9 0.022 0.000 6.4 3 1
02/08/06 8:53 p -13.5 -13.5 -13.5 --- --- 20.0 E 0.33 23.5 -25.0 --- --- 725.9 0.022 0.000 6.4 4 1
02/08/06 8:54 p -13.5 -13.5 -13.5 --- --- 19.1 E 0.32 22.6 -24.8 --- --- 725.9 0.022 0.000 6.4 3 1
02/08/06 8:55 p -13.5 -13.5 -13.5 --- --- 21.7 E 0.36 24.3 -25.4 --- --- 725.9 0.022 0.000 6.4 4 1
02/08/06 8:56 p -13.5 -13.5 -13.6 --- --- 20.0 E 0.33 25.2 -25.0 --- --- 725.8 0.022 0.000 6.4 4 1
02/08/06 8:57 p -13.6 -13.6 -13.6 --- --- 18.3 E 0.30 20.9 -24.6 --- --- 725.9 0.022 0.000 6.4 4 1
02/08/06 8:58 p -13.6 -13.5 -13.6 --- --- 20.0 E 0.33 24.3 -25.1 --- --- 725.8 0.022 0.000 6.4 3 1
02/08/06 8:59 p -13.5 -13.5 -13.6 --- --- 20.9 E 0.35 25.2 -25.2 --- --- 725.8 0.022 0.000 6.5 3 1
02/08/06 9:00 p -13.5 -13.4 -13.5 --- --- 20.0 E 0.33 24.3 -25.0 --- --- 725.9 0.022 0.000 6.5 3 1
02/08/06 9:01 p -13.4 -13.4 -13.4 --- --- 20.9 E 0.35 25.2 -25.1 --- --- 725.8 0.022 0.000 6.5 3 1
02/08/06 9:02 p -13.4 -13.4 -13.4 --- --- 18.3 E 0.30 24.3 -24.5 --- --- 725.8 0.022 0.000 6.5 3 1
02/08/06 9:03 p -13.4 -13.4 -13.4 --- --- 20.9 ENE 0.35 23.5 -25.1 --- --- 725.8 0.022 0.000 6.5 3 1
02/08/06 9:04 p -13.4 -13.4 -13.4 --- --- 22.6 ENE 0.38 26.1 -25.4 --- --- 725.9 0.022 0.000 6.5 3 1
02/08/06 9:05 p -13.4 -13.3 -13.4 --- --- 20.0 E 0.33 22.6 -24.8 --- --- 725.9 0.022 0.000 6.6 3 1
02/08/06 9:06 p -13.3 -13.3 -13.3 --- --- 20.9 E 0.35 24.3 -24.9 --- --- 725.9 0.022 0.000 6.6 4 1
02/08/06 9:07 p -13.3 -13.3 -13.3 --- --- 19.1 E 0.32 25.2 -24.6 --- --- 725.9 0.022 0.000 6.6 4 1
02/08/06 9:08 p -13.3 -13.3 -13.3 --- --- 17.4 E 0.29 23.5 -24.1 --- --- 725.9 0.022 0.000 6.6 4 1
02/08/06 9:09 p -13.3 -13.2 -13.3 --- --- 17.4 E 0.29 22.6 -24.1 --- --- 726.0 0.022 0.000 6.6 3 1
02/08/06 9:10 p -13.2 -13.2 -13.3 --- --- 15.7 E 0.26 20.9 -23.5 --- --- 725.9 0.022 0.000 6.6 3 1
02/08/06 9:11 p -13.2 -13.2 -13.2 --- --- 18.3 E 0.30 24.3 -24.1 --- --- 725.9 0.022 0.000 6.5 4 1
02/08/06 9:12 p -13.1 -13.1 -13.2 --- --- 16.5 E 0.28 20.9 -23.6 --- --- 726.0 0.022 0.000 6.5 4 1
02/08/06 9:13 p -13.1 -13.1 -13.1 --- --- 17.4 E 0.29 20.9 -23.8 --- --- 725.9 0.022 0.000 6.5 4 1
02/08/06 9:14 p -13.1 -13.1 -13.1 --- --- 19.1 E 0.32 23.5 -24.2 --- --- 726.0 0.022 0.000 6.5 4 1
02/08/06 9:15 p -13.0 -12.9 -13.1 --- --- 16.5 E 0.28 19.1 -23.4 --- --- 726.0 0.022 0.000 6.5 4 1
02/08/06 9:16 p -12.9 -12.9 -12.9 --- --- 17.4 E 0.29 19.1 -23.6 --- --- 726.0 0.022 0.000 6.5 4 1
02/08/06 9:17 p -12.9 -12.8 -12.9 --- --- 17.4 E 0.29 20.9 -23.6 --- --- 726.0 0.022 0.000 6.5 4 1
02/08/06 9:18 p -12.8 -12.8 -12.9 --- --- 16.5 E 0.28 20.0 -23.2 --- --- 725.9 0.022 0.000 6.5 4 1
02/08/06 9:19 p -12.8 -12.8 -12.8 --- --- 19.1 E 0.32 21.7 -23.9 --- --- 725.9 0.022 0.000 6.4 3 1
02/08/06 9:20 p -12.8 -12.8 -12.8 --- --- 18.3 E 0.30 20.9 -23.6 --- --- 726.0 0.022 0.000 6.4 3 1
02/08/06 9:21 p -12.7 -12.7 -12.8 --- --- 17.4 E 0.29 23.5 -23.3 --- --- 725.9 0.022 0.000 6.4 4 1
02/08/06 9:22 p -12.7 -12.6 -12.7 --- --- 18.3 E 0.30 22.6 -23.4 --- --- 725.9 0.022 0.000 6.4 4 1
02/08/06 9:23 p -12.6 -12.6 -12.6 --- --- 15.7 E 0.26 18.3 -22.6 --- --- 725.8 0.021 0.000 6.4 4 1
02/08/06 9:24 p -12.5 -12.5 -12.5 --- --- 14.8 E 0.25 17.4 -22.3 --- --- 725.9 0.021 0.000 6.4 4 1
02/08/06 9:25 p -12.4 -12.4 -12.5 --- --- 16.5 E 0.28 19.1 -22.7 --- --- 725.8 0.021 0.000 6.4 4 1
02/08/06 9:26 p -12.4 -12.4 -12.4 --- --- 16.5 E 0.28 20.0 -22.7 --- --- 725.8 0.021 0.000 6.4 4 1
02/08/06 9:27 p -12.3 -12.3 -12.4 --- --- 16.5 E 0.28 20.0 -22.6 --- --- 725.9 0.021 0.000 6.4 3 1
02/08/06 9:28 p -12.3 -12.3 -12.3 --- --- 15.7 E 0.26 18.3 -22.3 --- --- 725.9 0.021 0.000 6.5 4 1
02/08/06 9:29 p -12.2 -12.2 -12.3 --- --- 16.5 E 0.28 20.0 -22.4 --- --- 725.8 0.021 0.000 6.5 4 1
02/08/06 9:30 p -12.2 -12.2 -12.2 --- --- 14.8 E 0.25 20.0 -21.9 --- --- 725.8 0.021 0.000 6.5 3 1
02/08/06 9:31 p -12.2 -12.1 -12.2 --- --- 17.4 E 0.29 21.7 -22.6 --- --- 725.8 0.021 0.000 6.5 4 1
02/08/06 9:32 p -12.1 -12.1 -12.1 --- --- 15.7 E 0.26 20.9 -22.1 --- --- 725.8 0.021 0.000 6.6 4 1
02/08/06 9:33 p -12.1 -12.0 -12.1 --- --- 16.5 E 0.28 20.9 -22.2 --- --- 725.8 0.021 0.000 6.6 4 1
02/08/06 9:34 p -11.9 -11.9 -12.0 --- --- 16.5 E 0.28 20.9 -22.1 --- --- 725.8 0.021 0.000 6.6 4 1
02/08/06 9:35 p -11.9 -11.9 -11.9 --- --- 16.5 E 0.28 19.1 -22.1 --- --- 725.8 0.021 0.000 6.6 4 1
02/08/06 9:36 p -11.9 -11.9 -11.9 --- --- 17.4 E 0.29 20.9 -22.2 --- --- 725.9 0.021 0.000 6.6 4 1
02/08/06 9:37 p -11.8 -11.8 -11.9 --- --- 16.5 E 0.28 19.1 -21.9 --- --- 726.0 0.021 0.000 6.6 4 1
02/08/06 9:38 p -11.8 -11.7 -11.8 --- --- 15.7 E 0.26 19.1 -21.6 --- --- 725.9 0.021 0.000 6.6 4 1
02/08/06 9:39 p -11.7 -11.7 -11.7 --- --- 16.5 E 0.28 20.0 -21.8 --- --- 725.9 0.021 0.000 6.6 4 1
02/08/06 9:40 p -11.7 -11.7 -11.7 --- --- 14.8 E 0.25 17.4 -21.2 --- --- 725.9 0.021 0.000 6.6 4 1
02/08/06 9:41 p -11.7 -11.6 -11.7 --- --- 18.3 E 0.30 23.5 -22.2 --- --- 725.9 0.021 0.000 6.6 4 1
02/08/06 9:42 p -11.7 -11.6 -11.7 --- --- 17.4 E 0.29 25.2 -21.9 --- --- 725.8 0.021 0.000 6.6 4 1
02/08/06 9:43 p -11.6 -11.6 -11.7 --- --- 19.1 E 0.32 24.3 -22.3 --- --- 725.9 0.021 0.000 6.6 4 1
02/08/06 9:44 p -11.6 -11.6 -11.7 --- --- 18.3 E 0.30 30.4 -22.1 --- --- 725.9 0.021 0.000 6.5 4 1
02/08/06 9:45 p -11.6 -11.6 -11.6 --- --- 17.4 E 0.29 20.9 -21.8 --- --- 726.0 0.021 0.000 6.5 4 1
02/08/06 9:46 p -11.6 -11.6 -11.6 --- --- 16.5 E 0.28 25.2 -21.6 --- --- 725.9 0.021 0.000 6.5 4 1
02/08/06 9:47 p -11.6 -11.6 -11.6 --- --- 21.7 ESE 0.36 28.7 -22.9 --- --- 725.9 0.021 0.000 6.4 4 1
02/08/06 9:48 p -11.6 -11.6 -11.6 --- --- 20.9 ESE 0.35 24.3 -22.7 --- --- 726.0 0.021 0.000 6.4 4 1
02/08/06 9:49 p -11.6 -11.6 -11.6 --- --- 20.0 ESE 0.33 23.5 -22.4 --- --- 725.9 0.021 0.000 6.4 4 1
02/08/06 9:50 p -11.5 -11.4 -11.5 --- --- 19.1 ESE 0.32 23.5 -22.1 --- --- 725.9 0.021 0.000 6.4 4 1
02/08/06 9:51 p -11.4 -11.4 -11.4 --- --- 18.3 ESE 0.30 20.0 -21.8 --- --- 725.9 0.021 0.000 6.4 4 1
02/08/06 9:52 p -11.4 -11.4 -11.4 --- --- 18.3 E 0.30 20.9 -21.8 --- --- 725.9 0.021 0.000 6.4 4 1
02/08/06 9:53 p -11.5 -11.5 -11.5 --- --- 19.1 ESE 0.32 21.7 -22.1 --- --- 725.9 0.021 0.000 6.4 4 1
02/08/06 9:54 p -11.5 -11.5 -11.6 --- --- 20.0 ESE 0.33 22.6 -22.3 --- --- 725.9 0.021 0.000 6.4 4 1
02/08/06 9:55 p -11.6 -11.6 -11.6 --- --- 20.9 ESE 0.35 21.7 -22.7 --- --- 725.9 0.021 0.000 6.4 4 1
02/08/06 9:56 p -11.6 -11.6 -11.7 --- --- 20.0 ESE 0.33 23.5 -22.5 --- --- 725.9 0.021 0.000 6.4 4 1
02/08/06 9:57 p -11.6 -11.6 -11.7 --- --- 18.3 ESE 0.30 21.7 -22.1 --- --- 725.9 0.021 0.000 6.4 4 1
02/08/06 9:58 p -11.7 -11.6 -11.7 --- --- 19.1 ESE 0.32 22.6 -22.3 --- --- 725.9 0.021 0.000 6.4 4 1
02/08/06 9:59 p -11.6 -11.6 -11.7 --- --- 18.3 ESE 0.30 20.0 -22.1 --- --- 725.9 0.021 0.000 6.4 4 1
02/08/06 10:00 p -11.6 -11.6 -11.7 --- --- 16.5 E 0.28 19.1 -21.6 --- --- 725.9 0.021 0.000 6.4 4 1
02/08/06 10:01 p -11.6 -11.6 -11.7 --- --- 16.5 E 0.28 19.1 -21.6 --- --- 725.8 0.021 0.000 6.5 4 1
02/08/06 10:03 p -11.6 -11.6 -11.6 --- --- 16.5 E 0.28 18.3 -21.6 --- --- 725.9 0.021 0.000 6.5 4 1
02/08/06 10:04 p -11.6 -11.6 -11.6 --- --- 15.7 E 0.26 19.1 -21.4 --- --- 725.9 0.021 0.000 6.5 4 1
02/08/06 10:05 p -11.6 -11.6 -11.7 --- --- 16.5 E 0.28 19.1 -21.6 --- --- 726.0 0.021 0.000 6.5 3 1
02/08/06 10:06 p -11.7 -11.7 -11.7 --- --- 19.1 ESE 0.32 21.7 -22.4 --- --- 725.9 0.021 0.000 6.6 4 1
02/08/06 10:07 p -11.8 -11.7 -11.8 --- --- 17.4 E 0.29 21.7 -22.1 --- --- 726.0 0.021 0.000 6.6 4 1
02/08/06 10:08 p -11.7 -11.7 -11.7 --- --- 16.5 E 0.28 19.1 -21.8 --- --- 726.0 0.021 0.000 6.6 3 1
02/08/06 10:09 p -11.7 -11.7 -11.7 --- --- 15.7 E 0.26 21.7 -21.6 --- --- 726.1 0.021 0.000 6.6 4 1
02/08/06 10:10 p -11.7 -11.7 -11.7 --- --- 16.5 E 0.28 20.0 -21.7 --- --- 726.1 0.021 0.000 6.6 4 1
02/08/06 10:11 p -11.7 -11.7 -11.7 --- --- 15.7 E 0.26 19.1 -21.6 --- --- 726.1 0.021 0.000 6.6 4 1
02/08/06 10:12 p -11.7 -11.7 -11.7 --- --- 14.8 E 0.25 17.4 -21.3 --- --- 726.0 0.021 0.000 6.6 4 1
02/08/06 10:13 p -11.7 -11.7 -11.7 --- --- 16.5 E 0.28 20.9 -21.8 --- --- 726.0 0.021 0.000 6.6 4 1
02/08/06 10:14 p -11.8 -11.7 -11.8 --- --- 15.7 E 0.26 18.3 -21.6 --- --- 726.0 0.021 0.000 6.6 4 1
02/08/06 10:15 p -11.8 -11.8 -11.8 --- --- 16.5 E 0.28 20.9 -21.8 --- --- 726.1 0.021 0.000 6.5 4 1
02/08/06 10:16 p -11.8 -11.8 -11.8 --- --- 13.9 E 0.23 16.5 -21.2 --- --- 726.1 0.021 0.000 6.5 4 1
02/08/06 10:17 p -11.8 -11.8 -11.9 --- --- 15.7 E 0.26 17.4 -21.7 --- --- 726.1 0.021 0.000 6.5 4 1
02/08/06 10:18 p -11.9 -11.9 -11.9 --- --- 18.3 E 0.30 20.9 -22.4 --- --- 726.1 0.021 0.000 6.5 4 1
02/08/06 10:19 p -11.9 -11.9 -11.9 --- --- 17.4 E 0.29 20.0 -22.2 --- --- 726.0 0.021 0.000 6.5 4 1
02/08/06 10:20 p -11.9 -11.9 -11.9 --- --- 15.7 E 0.26 19.1 -21.7 --- --- 726.0 0.021 0.000 6.5 4 1
02/08/06 10:21 p -11.9 -11.9 -11.9 --- --- 14.8 E 0.25 19.1 -21.5 --- --- 726.0 0.021 0.000 6.5 4 1
02/08/06 10:22 p -11.9 -11.9 -11.9 --- --- 15.7 E 0.26 18.3 -21.8 --- --- 726.1 0.021 0.000 6.4 4 1
02/08/06 10:23 p -11.9 -11.9 -11.9 --- --- 17.4 E 0.29 23.5 -22.3 --- --- 726.0 0.021 0.000 6.4 4 1
02/08/06 10:24 p -12.0 -11.9 -12.0 --- --- 19.1 E 0.32 24.3 -22.8 --- --- 725.9 0.021 0.000 6.4 4 1
02/08/06 10:25 p -12.0 -12.0 -12.1 --- --- 18.3 E 0.30 23.5 -22.6 --- --- 726.0 0.021 0.000 6.4 4 1
02/08/06 10:26 p -12.1 -12.0 -12.1 --- --- 15.7 E 0.26 17.4 -21.9 --- --- 726.0 0.021 0.000 6.4 4 1
02/08/06 10:27 p -12.1 -12.0 -12.1 --- --- 15.7 E 0.26 18.3 -21.9 --- --- 726.0 0.021 0.000 6.4 4 1
02/08/06 10:28 p -12.0 -12.0 -12.1 --- --- 15.7 E 0.26 19.1 -21.9 --- --- 726.0 0.021 0.000 6.4 4 1
02/08/06 10:29 p -12.0 -12.0 -12.0 --- --- 16.5 E 0.28 18.3 -22.1 --- --- 725.9 0.021 0.000 6.4 4 1
02/08/06 10:30 p -12.0 -12.0 -12.1 --- --- 17.4 E 0.29 20.0 -22.4 --- --- 725.9 0.021 0.000 6.4 4 1
02/08/06 10:31 p -12.0 -12.0 -12.0 --- --- 16.5 E 0.28 20.9 -22.1 --- --- 725.8 0.021 0.000 6.4 4 1
02/08/06 10:32 p -12.0 -12.0 -12.1 --- --- 18.3 E 0.30 21.7 -22.6 --- --- 725.9 0.021 0.000 6.4 4 1
02/08/06 10:33 p -12.0 -12.0 -12.1 --- --- 15.7 E 0.26 20.0 -21.9 --- --- 725.8 0.021 0.000 6.4 4 1
02/08/06 10:34 p -12.0 -12.0 -12.0 --- --- 16.5 E 0.28 20.0 -22.1 --- --- 725.9 0.021 0.000 6.4 4 1
02/08/06 10:35 p -11.9 -11.9 -12.0 --- --- 15.7 E 0.26 20.0 -21.8 --- --- 725.9 0.021 0.000 6.5 4 1
02/08/06 10:36 p -11.9 -11.9 -11.9 --- --- 15.7 E 0.26 25.2 -21.8 --- --- 725.8 0.021 0.000 6.5 4 1
02/08/06 10:37 p -11.9 -11.9 -11.9 --- --- 17.4 E 0.29 20.9 -22.3 --- --- 725.9 0.021 0.000 6.5 4 1
02/08/06 10:38 p -11.9 -11.9 -11.9 --- --- 15.7 E 0.26 19.1 -21.7 --- --- 725.9 0.021 0.000 6.5 4 1
02/08/06 10:39 p -11.9 -11.9 -11.9 --- --- 15.7 E 0.26 20.9 -21.8 --- --- 725.9 0.021 0.000 6.6 4 1
02/08/06 10:40 p -11.9 -11.9 -11.9 --- --- 16.5 E 0.28 19.1 -22.1 --- --- 725.9 0.021 0.000 6.6 4 1
02/08/06 10:41 p -11.9 -11.9 -11.9 --- --- 16.5 E 0.28 19.1 -22.0 --- --- 725.8 0.021 0.000 6.6 4 1
02/08/06 10:42 p -11.9 -11.9 -11.9 --- --- 16.5 E 0.28 19.1 -22.0 --- --- 725.9 0.021 0.000 6.6 4 1
02/08/06 10:43 p -11.9 -11.9 -11.9 --- --- 18.3 E 0.30 24.3 -22.4 --- --- 725.9 0.021 0.000 6.6 4 1
02/08/06 10:44 p -11.9 -11.9 -11.9 --- --- 17.4 E 0.29 20.9 -22.2 --- --- 725.8 0.021 0.000 6.6 4 1
02/08/06 10:45 p -11.9 -11.9 -11.9 --- --- 18.3 E 0.30 20.9 -22.4 --- --- 725.9 0.021 0.000 6.6 4 1
02/08/06 10:46 p -11.8 -11.8 -11.9 --- --- 17.4 E 0.29 21.7 -22.2 --- --- 725.9 0.021 0.000 6.6 4 1
02/08/06 10:47 p -11.8 -11.8 -11.9 --- --- 17.4 E 0.29 21.7 -22.2 --- --- 725.9 0.021 0.000 6.6 4 1
02/08/06 10:48 p -11.8 -11.8 -11.8 --- --- 14.8 E 0.25 20.0 -21.4 --- --- 725.8 0.021 0.000 6.6 4 1
02/08/06 10:49 p -11.8 -11.8 -11.8 --- --- 16.5 E 0.28 20.0 -21.9 --- --- 725.8 0.021 0.000 6.6 4 1
02/08/06 10:50 p -11.8 -11.8 -11.8 --- --- 18.3 E 0.30 20.9 -22.4 --- --- 725.9 0.021 0.000 6.6 4 1
02/08/06 10:51 p -11.8 -11.8 -11.8 --- --- 18.3 E 0.30 25.2 -22.4 --- --- 725.8 0.021 0.000 6.5 4 1
02/08/06 10:52 p -11.7 -11.7 -11.8 --- --- 18.3 E 0.30 23.5 -22.2 --- --- 725.9 0.021 0.000 6.5 4 1
02/08/06 10:53 p -11.7 -11.6 -11.7 --- --- 22.6 E 0.38 25.2 -23.1 --- --- 725.8 0.021 0.000 6.5 4 1
02/08/06 10:54 p -11.6 -11.5 -11.6 --- --- 19.1 E 0.32 21.7 -22.2 --- --- 725.8 0.021 0.000 6.5 4 1
02/08/06 10:55 p -11.4 -11.4 -11.4 --- --- 18.3 E 0.30 21.7 -21.8 --- --- 725.9 0.021 0.000 6.5 4 1
02/08/06 10:56 p -11.3 -11.2 -11.3 --- --- 18.3 E 0.30 21.7 -21.6 --- --- 725.9 0.021 0.000 6.5 4 1
02/08/06 10:57 p -11.1 -11.0 -11.1 --- --- 17.4 E 0.29 22.6 -21.2 --- --- 725.8 0.020 0.000 6.4 4 1
02/08/06 10:58 p -10.9 -10.8 -11.0 --- --- 17.4 E 0.29 20.9 -20.9 --- --- 725.8 0.020 0.000 6.4 4 1
02/08/06 10:59 p -10.7 -10.6 -10.7 --- --- 18.3 E 0.30 20.9 -20.8 --- --- 725.9 0.020 0.000 6.4 4 1
02/08/06 11:00 p -10.6 -10.5 -10.6 --- --- 18.3 E 0.30 23.5 -20.7 --- --- 725.8 0.020 0.000 6.4 4 1
02/08/06 11:01 p -10.4 -10.4 -10.5 --- --- 20.0 E 0.33 23.5 -20.9 --- --- 725.8 0.020 0.000 6.4 4 1
02/08/06 11:02 p -10.3 -10.3 -10.4 --- --- 20.0 E 0.33 22.6 -20.8 --- --- 725.9 0.020 0.000 6.4 4 1
02/08/06 11:03 p -10.2 -10.2 -10.3 --- --- 20.0 E 0.33 20.9 -20.6 --- --- 725.9 0.020 0.000 6.4 4 1
02/08/06 11:04 p -10.2 -10.1 -10.2 --- --- 20.0 ESE 0.33 23.5 -20.6 --- --- 725.9 0.020 0.000 6.4 4 1
02/08/06 11:05 p -10.1 -10.1 -10.1 --- --- 21.7 ESE 0.36 23.5 -20.8 --- --- 725.8 0.020 0.000 6.4 4 1
02/08/06 11:06 p -9.9 -9.9 -10.0 --- --- 18.3 E 0.30 21.7 -19.9 --- --- 725.8 0.020 0.000 6.3 4 1
02/08/06 11:07 p -9.8 -9.8 -9.8 --- --- 20.0 ESE 0.33 22.6 -20.1 --- --- 725.8 0.020 0.000 6.3 4 1
02/08/06 11:08 p -9.8 -9.7 -9.8 --- --- 20.9 ESE 0.35 22.6 -20.2 --- --- 725.8 0.020 0.000 6.3 4 1
02/08/06 11:09 p -9.7 -9.7 -9.7 --- --- 19.1 E 0.32 21.7 -19.8 --- --- 725.8 0.019 0.000 6.3 4 1
02/08/06 11:10 p -9.6 -9.6 -9.7 --- --- 19.1 E 0.32 20.9 -19.6 --- --- 725.9 0.019 0.000 6.3 4 1
02/08/06 11:11 p -9.6 -9.6 -9.6 --- --- 19.1 ESE 0.32 21.7 -19.6 --- --- 725.7 0.019 0.000 6.3 4 1
02/08/06 11:12 p -9.6 -9.6 -9.6 --- --- 20.9 E 0.35 22.6 -20.0 --- --- 725.8 0.019 0.000 6.3 4 1
02/08/06 11:13 p -9.7 -9.6 -9.7 --- --- 20.9 ESE 0.35 23.5 -20.1 --- --- 725.7 0.019 0.000 6.3 4 1
02/08/06 11:14 p -9.7 -9.6 -9.7 --- --- 20.9 ESE 0.35 22.6 -20.1 --- --- 725.8 0.019 0.000 6.3 4 1
02/08/06 11:15 p -9.6 -9.6 -9.6 --- --- 21.7 ESE 0.36 23.5 -20.2 --- --- 725.8 0.019 0.000 6.3 4 1
02/08/06 11:16 p -9.6 -9.5 -9.6 --- --- 20.9 E 0.35 23.5 -19.9 --- --- 725.8 0.019 0.000 6.3 4 1
02/08/06 11:17 p -9.5 -9.5 -9.6 --- --- 21.7 E 0.36 23.5 -20.1 --- --- 725.8 0.019 0.000 6.3 4 1
02/08/06 11:18 p -9.6 -9.5 -9.6 --- --- 20.9 E 0.35 22.6 -19.9 --- --- 725.7 0.019 0.000 6.3 4 1
02/08/06 11:19 p -9.5 -9.4 -9.5 --- --- 20.0 E 0.33 24.3 -19.7 --- --- 725.9 0.019 0.000 6.3 4 1
02/08/06 11:20 p -9.6 -9.5 -9.6 --- --- 20.0 E 0.33 22.6 -19.8 --- --- 725.8 0.019 0.000 6.3 4 1
02/08/06 11:21 p -9.6 -9.6 -9.6 --- --- 18.3 E 0.30 23.5 -19.4 --- --- 725.8 0.019 0.000 6.3 4 1
02/08/06 11:22 p -9.6 -9.6 -9.6 --- --- 20.0 E 0.33 22.6 -19.8 --- --- 725.9 0.019 0.000 6.3 4 1
02/08/06 11:23 p -9.6 -9.6 -9.6 --- --- 18.3 E 0.30 21.7 -19.4 --- --- 725.8 0.019 0.000 6.3 4 1
02/08/06 11:24 p -9.6 -9.6 -9.7 --- --- 19.1 E 0.32 21.7 -19.6 --- --- 725.8 0.019 0.000 6.3 4 1
02/08/06 11:25 p -9.7 -9.7 -9.7 --- --- 18.3 E 0.30 20.9 -19.5 --- --- 725.8 0.019 0.000 6.3 4 1
02/08/06 11:26 p -9.6 -9.6 -9.7 --- --- 18.3 E 0.30 21.7 -19.4 --- --- 725.9 0.019 0.000 6.3 4 1
02/08/06 11:27 p -9.6 -9.6 -9.6 --- --- 17.4 E 0.29 20.0 -19.2 --- --- 725.8 0.019 0.000 6.3 4 1
02/08/06 11:28 p -9.6 -9.6 -9.6 --- --- 17.4 E 0.29 20.9 -19.2 --- --- 725.7 0.019 0.000 6.3 4 1
02/08/06 11:29 p -9.6 -9.6 -9.6 --- --- 19.1 E 0.32 21.7 -19.6 --- --- 725.8 0.019 0.000 6.3 4 1
02/08/06 11:30 p -9.6 -9.6 -9.6 --- --- 18.3 E 0.30 20.0 -19.4 --- --- 725.8 0.019 0.000 6.3 4 1
02/08/06 11:31 p -9.6 -9.6 -9.6 --- --- 22.6 ESE 0.38 25.2 -20.3 --- --- 725.7 0.019 0.000 6.3 4 1
02/08/06 11:32 p -9.6 -9.6 -9.6 --- --- 20.9 ESE 0.35 24.3 -20.0 --- --- 725.8 0.019 0.000 6.3 4 1
02/08/06 11:33 p -9.6 -9.6 -9.6 --- --- 16.5 E 0.28 20.9 -18.9 --- --- 725.8 0.019 0.000 6.3 4 1
02/08/06 11:34 p -9.5 -9.5 -9.6 --- --- 19.1 ESE 0.32 23.5 -19.5 --- --- 725.8 0.019 0.000 6.3 4 1
02/08/06 11:35 p -9.5 -9.5 -9.5 --- --- 20.0 E 0.33 24.3 -19.7 --- --- 725.8 0.019 0.000 6.3 4 1
02/08/06 11:36 p -9.6 -9.5 -9.6 --- --- 19.1 E 0.32 22.6 -19.6 --- --- 725.7 0.019 0.000 6.4 4 1
02/08/06 11:37 p -9.6 -9.6 -9.6 --- --- 20.9 E 0.35 22.6 -20.0 --- --- 725.8 0.019 0.000 6.4 4 1
02/08/06 11:38 p -9.6 -9.6 -9.6 --- --- 20.0 E 0.33 23.5 -19.8 --- --- 725.9 0.019 0.000 6.4 4 1
02/08/06 11:39 p -9.6 -9.6 -9.6 --- --- 19.1 E 0.32 25.2 -19.6 --- --- 725.8 0.019 0.000 6.4 4 1
02/08/06 11:40 p -9.7 -9.6 -9.7 --- --- 19.1 E 0.32 22.6 -19.7 --- --- 725.7 0.019 0.000 6.4 4 1
02/08/06 11:41 p -9.7 -9.7 -9.7 --- --- 20.0 ESE 0.33 24.3 -20.0 --- --- 725.7 0.019 0.000 6.4 4 1
02/08/06 11:42 p -9.6 -9.6 -9.7 --- --- 20.9 ESE 0.35 25.2 -20.0 --- --- 725.8 0.019 0.000 6.4 4 1
02/08/06 11:43 p -9.6 -9.6 -9.7 --- --- 19.1 E 0.32 21.7 -19.6 --- --- 725.7 0.019 0.000 6.4 4 1
02/08/06 11:44 p -9.7 -9.6 -9.7 --- --- 17.4 E 0.29 19.1 -19.3 --- --- 725.7 0.019 0.000 6.5 4 1
02/08/06 11:45 p -9.7 -9.7 -9.7 --- --- 18.3 E 0.30 20.9 -19.5 --- --- 725.9 0.019 0.000 6.5 4 1
02/08/06 11:46 p -9.7 -9.7 -9.7 --- --- 17.4 E 0.29 19.1 -19.3 --- --- 725.8 0.019 0.000 6.5 4 1
02/08/06 11:47 p -9.6 -9.6 -9.6 --- --- 17.4 E 0.29 23.5 -19.2 --- --- 725.9 0.019 0.000 6.6 4 1
02/08/06 11:48 p -9.7 -9.7 -9.7 --- --- 17.4 E 0.29 21.7 -19.3 --- --- 725.8 0.019 0.000 6.5 4 1
02/08/06 11:49 p -9.7 -9.7 -9.7 --- --- 16.5 E 0.28 20.0 -19.1 --- --- 725.9 0.019 0.000 6.5 4 1
02/08/06 11:50 p -9.8 -9.8 -9.9 --- --- 16.5 E 0.28 20.0 -19.3 --- --- 726.0 0.020 0.000 6.5 4 1
02/08/06 11:51 p -9.9 -9.8 -9.9 --- --- 19.1 ESE 0.32 24.3 -20.0 --- --- 725.8 0.020 0.000 6.5 4 1
02/08/06 11:52 p -9.8 -9.8 -9.8 --- --- 20.0 ESE 0.33 22.6 -20.1 --- --- 725.9 0.020 0.000 6.5 4 1
02/08/06 11:53 p -9.7 -9.7 -9.8 --- --- 17.4 ESE 0.29 19.1 -19.4 --- --- 725.9 0.019 0.000 6.5 4 1
02/08/06 11:54 p -9.6 -9.6 -9.6 --- --- 18.3 ESE 0.30 20.9 -19.4 --- --- 725.8 0.019 0.000 6.4 4 1
02/08/06 11:55 p -9.6 -9.6 -9.6 --- --- 18.3 E 0.30 20.9 -19.4 --- --- 725.9 0.019 0.000 6.4 4 1
02/08/06 11:56 p -9.5 -9.4 -9.5 --- --- 17.4 E 0.29 25.2 -19.1 --- --- 725.9 0.019 0.000 6.4 4 1
02/08/06 11:57 p -9.4 -9.4 -9.4 --- --- 18.3 E 0.30 25.2 -19.2 --- --- 726.0 0.019 0.000 6.4 4 1
02/08/06 11:58 p -9.4 -9.4 -9.4 --- --- 16.5 E 0.28 20.9 -18.8 --- --- 725.9 0.019 0.000 6.4 4 1
02/08/06 11:59 p -9.3 -9.3 -9.4 --- --- 17.4 E 0.29 22.6 -18.9 --- --- 725.8 0.019 0.000 6.4 4 1
02/09/06 12:00 a -9.2 -9.2 -9.3 --- --- 17.4 E 0.29 20.9 -18.7 --- --- 725.8 0.019 0.000 6.4 4 1
02/09/06 12:01 a -9.1 -9.1 -9.1 --- --- 16.5 E 0.28 22.6 -18.3 --- --- 726.0 0.019 0.000 6.4 4 1
02/09/06 12:02 a -9.1 -9.0 -9.1 --- --- 18.3 E 0.30 23.5 -18.7 --- --- 725.9 0.019 0.000 6.4 4 1
02/09/06 12:03 a -9.0 -9.0 -9.0 --- --- 15.7 E 0.26 20.9 -18.0 --- --- 725.9 0.019 0.000 6.3 4 1
02/09/06 12:04 a -8.9 -8.9 -8.9 --- --- 19.1 E 0.32 22.6 -18.8 --- --- 725.9 0.019 0.000 6.3 4 1
02/09/06 12:05 a -9.0 -8.9 -9.0 --- --- 18.3 ESE 0.30 22.6 -18.6 --- --- 726.0 0.019 0.000 6.3 4 1
02/09/06 12:06 a -8.9 -8.9 -9.0 --- --- 18.3 ESE 0.30 20.9 -18.6 --- --- 725.9 0.019 0.000 6.3 4 1
02/09/06 12:07 a -8.9 -8.9 -9.0 --- --- 16.5 E 0.28 18.3 -18.2 --- --- 726.0 0.019 0.000 6.3 4 1
02/09/06 12:08 a -8.9 -8.8 -8.9 --- --- 15.7 E 0.26 19.1 -17.8 --- --- 725.9 0.019 0.000 6.3 4 1
02/09/06 12:09 a -8.7 -8.7 -8.8 --- --- 17.4 E 0.29 19.1 -18.1 --- --- 725.9 0.019 0.000 6.3 4 1
02/09/06 12:10 a -8.7 -8.7 -8.7 --- --- 16.5 E 0.28 18.3 -17.8 --- --- 726.0 0.019 0.000 6.3 4 1
02/09/06 12:11 a -8.6 -8.5 -8.7 --- --- 15.7 E 0.26 19.1 -17.4 --- --- 725.8 0.019 0.000 6.3 4 1
02/09/06 12:12 a -8.4 -8.4 -8.5 --- --- 17.4 ESE 0.29 20.0 -17.8 --- --- 725.8 0.019 0.000 6.3 4 1
02/09/06 12:13 a -8.4 -8.4 -8.5 --- --- 17.4 ESE 0.29 19.1 -17.8 --- --- 725.9 0.019 0.000 6.3 4 1
02/09/06 12:14 a -8.4 -8.4 -8.4 --- --- 17.4 ESE 0.29 19.1 -17.8 --- --- 725.9 0.019 0.000 6.3 4 1
02/09/06 12:15 a -8.4 -8.3 -8.4 --- --- 19.1 ESE 0.32 21.7 -18.0 --- --- 725.8 0.019 0.000 6.3 4 1
02/09/06 12:16 a -8.3 -8.2 -8.3 --- --- 16.5 E 0.28 20.0 -17.3 --- --- 725.8 0.018 0.000 6.3 4 1
02/09/06 12:17 a -8.2 -8.1 -8.2 --- --- 16.5 E 0.28 18.3 -17.2 --- --- 725.9 0.018 0.000 6.3 4 1
02/09/06 12:18 a -8.0 -7.9 -8.1 --- --- 17.4 E 0.29 19.1 -17.2 --- --- 725.8 0.018 0.000 6.4 4 1
02/09/06 12:19 a -7.9 -7.9 -8.0 --- --- 18.3 E 0.30 20.0 -17.3 --- --- 725.8 0.018 0.000 6.4 4 1
02/09/06 12:20 a -8.0 -7.9 -8.0 --- --- 16.5 E 0.28 20.0 -16.9 --- --- 725.8 0.018 0.000 6.4 4 1
02/09/06 12:21 a -7.9 -7.9 -8.0 --- --- 18.3 E 0.30 20.9 -17.3 --- --- 725.9 0.018 0.000 6.4 4 1
02/09/06 12:22 a -7.9 -7.9 -7.9 --- --- 16.5 ESE 0.28 18.3 -16.9 --- --- 725.9 0.018 0.000 6.4 4 1
02/09/06 12:23 a -7.9 -7.9 -7.9 --- --- 17.4 ESE 0.29 23.5 -17.0 --- --- 725.8 0.018 0.000 6.4 4 1
02/09/06 12:24 a -7.9 -7.8 -7.9 --- --- 16.5 E 0.28 18.3 -16.8 --- --- 725.8 0.018 0.000 6.5 4 1
02/09/06 12:25 a -7.8 -7.8 -7.8 --- --- 17.4 E 0.29 20.9 -16.9 --- --- 725.8 0.018 0.000 6.5 4 1
02/09/06 12:26 a -7.8 -7.8 -7.9 --- --- 17.4 E 0.29 20.0 -16.9 --- --- 725.8 0.018 0.000 6.6 4 1
02/09/06 12:27 a -7.8 -7.8 -7.9 --- --- 16.5 E 0.28 20.0 -16.7 --- --- 725.8 0.018 0.000 6.6 4 1
02/09/06 12:28 a -7.7 -7.6 -7.8 --- --- 17.4 ESE 0.29 19.1 -16.8 --- --- 725.9 0.018 0.000 6.6 4 1
02/09/06 12:29 a -7.6 -7.5 -7.6 --- --- 16.5 E 0.28 19.1 -16.4 --- --- 726.0 0.018 0.000 6.6 4 1
02/09/06 12:30 a -7.5 -7.4 -7.6 --- --- 18.3 ESE 0.30 20.0 -16.7 --- --- 725.9 0.018 0.000 6.6 4 1
02/09/06 12:31 a -7.6 -7.4 -7.6 --- --- 16.5 ESE 0.28 19.1 -16.4 --- --- 726.0 0.018 0.000 6.7 4 1
02/09/06 12:32 a -7.6 -7.5 -7.6 --- --- 16.5 E 0.28 21.7 -16.4 --- --- 725.9 0.018 0.000 6.7 4 1
02/09/06 12:33 a -7.4 -7.4 -7.4 --- --- 16.5 E 0.28 19.1 -16.2 --- --- 725.9 0.018 0.000 6.7 4 1
02/09/06 12:34 a -7.3 -7.2 -7.4 --- --- 15.7 E 0.26 18.3 -15.9 --- --- 726.1 0.018 0.000 6.7 4 1
02/09/06 12:35 a -7.2 -7.1 -7.2 --- --- 17.4 E 0.29 20.0 -16.1 --- --- 726.0 0.018 0.000 6.7 4 1
02/09/06 12:36 a -7.2 -7.1 -7.2 --- --- 16.5 ESE 0.28 18.3 -15.9 --- --- 726.0 0.018 0.000 6.6 4 1
02/09/06 12:37 a -7.2 -7.2 -7.2 --- --- 16.5 ESE 0.28 20.0 -15.9 --- --- 726.0 0.018 0.000 6.6 4 1
02/09/06 12:38 a -7.1 -7.1 -7.1 --- --- 17.4 ESE 0.29 20.9 -15.9 --- --- 726.0 0.018 0.000 6.6 4 1
02/09/06 12:39 a -7.1 -7.1 -7.1 --- --- 16.5 ESE 0.28 18.3 -15.7 --- --- 726.0 0.018 0.000 6.6 4 1
02/09/06 12:40 a -7.1 -7.1 -7.1 --- --- 16.5 E 0.28 17.4 -15.7 --- --- 726.0 0.018 0.000 6.6 4 1
02/09/06 12:41 a -6.9 -6.9 -6.9 --- --- 15.7 E 0.26 18.3 -15.4 --- --- 726.0 0.018 0.000 6.6 4 1
02/09/06 12:42 a -6.9 -6.9 -6.9 --- --- 16.5 E 0.28 20.0 -15.5 --- --- 726.0 0.018 0.000 6.6 4 1
02/09/06 12:43 a -6.8 -6.8 -6.8 --- --- 15.7 E 0.26 17.4 -15.2 --- --- 726.0 0.017 0.000 6.6 4 1
02/09/06 12:44 a -6.8 -6.7 -6.8 --- --- 17.4 ESE 0.29 20.0 -15.6 --- --- 726.1 0.017 0.000 6.6 4 1
02/09/06 12:45 a -6.8 -6.7 -6.8 --- --- 16.5 ESE 0.28 18.3 -15.4 --- --- 726.1 0.017 0.000 6.6 4 1
02/09/06 12:46 a -6.8 -6.7 -6.8 --- --- 14.8 E 0.25 18.3 -14.9 --- --- 726.0 0.017 0.000 6.6 4 1
02/09/06 12:47 a -6.7 -6.7 -6.8 --- --- 16.5 E 0.28 18.3 -15.3 --- --- 726.0 0.017 0.000 6.6 4 1
02/09/06 12:48 a -6.8 -6.8 -6.9 --- --- 17.4 ESE 0.29 19.1 -15.7 --- --- 725.9 0.017 0.000 6.6 4 1
02/09/06 12:49 a -6.9 -6.8 -6.9 --- --- 16.5 ESE 0.28 17.4 -15.5 --- --- 725.9 0.018 0.000 6.6 4 1
02/09/06 12:50 a -6.8 -6.7 -6.8 --- --- 15.7 ESE 0.26 17.4 -15.2 --- --- 725.9 0.017 0.000 6.6 4 1
02/09/06 12:51 a -6.7 -6.7 -6.7 --- --- 15.7 ESE 0.26 16.5 -15.1 --- --- 725.9 0.017 0.000 6.6 4 1
02/09/06 12:52 a -6.7 -6.6 -6.7 --- --- 15.7 ESE 0.26 16.5 -15.0 --- --- 726.0 0.017 0.000 6.6 4 1
02/09/06 12:53 a -6.6 -6.6 -6.7 --- --- 15.7 ESE 0.26 17.4 -14.9 --- --- 726.0 0.017 0.000 6.6 4 1
02/09/06 12:54 a -6.6 -6.5 -6.7 --- --- 15.7 ESE 0.26 17.4 -14.9 --- --- 726.0 0.017 0.000 6.6 4 1
02/09/06 12:55 a -6.5 -6.5 -6.5 --- --- 15.7 ESE 0.26 16.5 -14.8 --- --- 726.0 0.017 0.000 6.6 4 1
02/09/06 12:56 a -6.4 -6.4 -6.4 --- --- 15.7 ESE 0.26 16.5 -14.7 --- --- 726.0 0.017 0.000 6.6 4 1
02/09/06 12:57 a -6.4 -6.4 -6.5 --- --- 15.7 E 0.26 17.4 -14.7 --- --- 726.1 0.017 0.000 6.7 4 1
02/09/06 12:58 a -6.5 -6.5 -6.6 --- --- 14.8 E 0.25 16.5 -14.6 --- --- 726.0 0.017 0.000 6.7 4 1
02/09/06 12:59 a -6.4 -6.4 -6.5 --- --- 13.9 E 0.23 15.7 -14.3 --- --- 726.0 0.017 0.000 6.7 4 1
02/09/06 1:00 a -6.4 -6.4 -6.5 --- --- 12.2 E 0.20 15.7 -13.8 --- --- 726.1 0.017 0.000 6.7 4 1
02/09/06 1:01 a -6.3 -6.2 -6.4 --- --- 11.3 E 0.19 13.0 -13.3 --- --- 726.0 0.017 0.000 6.7 4 1
02/09/06 1:02 a -6.3 -6.3 -6.3 --- --- 10.4 E 0.17 13.0 -13.0 --- --- 726.1 0.017 0.000 6.7 4 1
02/09/06 1:03 a -6.3 -6.3 -6.3 --- --- 11.3 E 0.19 13.0 -13.4 --- --- 726.1 0.017 0.000 6.7 5 1
02/09/06 1:04 a -6.2 -6.1 -6.3 --- --- 11.3 E 0.19 13.9 -13.2 --- --- 726.2 0.017 0.000 6.7 4 1
02/09/06 1:05 a -6.1 -6.0 -6.1 --- --- 12.2 E 0.20 14.8 -13.3 --- --- 726.2 0.017 0.000 6.8 5 1
02/09/06 1:06 a -5.9 -5.9 -5.9 --- --- 12.2 E 0.20 15.7 -13.2 --- --- 726.1 0.017 0.000 6.8 4 1
02/09/06 1:07 a -5.9 -5.9 -5.9 --- --- 13.0 E 0.22 14.8 -13.4 --- --- 726.1 0.017 0.000 6.8 5 1
02/09/06 1:08 a -6.0 -5.9 -6.0 --- --- 12.2 E 0.20 14.8 -13.2 --- --- 726.1 0.017 0.000 6.9 4 1
02/09/06 1:09 a -6.1 -6.0 -6.1 --- --- 11.3 E 0.19 13.0 -13.0 --- --- 726.0 0.017 0.000 6.9 5 1
02/09/06 1:10 a -6.1 -6.1 -6.1 --- --- 12.2 E 0.20 14.8 -13.3 --- --- 726.1 0.017 0.000 6.9 5 1
02/09/06 1:11 a -6.2 -6.1 -6.2 --- --- 12.2 E 0.20 15.7 -13.4 --- --- 726.1 0.017 0.000 6.9 5 1
02/09/06 1:12 a -6.2 -6.2 -6.2 --- --- 12.2 E 0.20 14.8 -13.4 --- --- 726.0 0.017 0.000 6.9 5 1
02/09/06 1:13 a -6.2 -6.2 -6.2 --- --- 13.0 E 0.22 14.8 -13.8 --- --- 726.1 0.017 0.000 7.0 5 1
02/09/06 1:14 a -6.3 -6.3 -6.3 --- --- 13.0 E 0.22 14.8 -13.8 --- --- 726.0 0.017 0.000 7.0 5 1
02/09/06 1:15 a -6.4 -6.4 -6.4 --- --- 13.0 E 0.22 15.7 -13.9 --- --- 726.1 0.017 0.000 7.0 5 1
02/09/06 1:16 a -6.4 -6.4 -6.4 --- --- 13.0 E 0.22 15.7 -13.9 --- --- 726.0 0.017 0.000 7.1 5 1
02/09/06 1:17 a -6.4 -6.4 -6.4 --- --- 13.0 E 0.22 15.7 -14.1 --- --- 726.0 0.017 0.000 7.1 5 1
02/09/06 1:18 a -6.4 -6.4 -6.4 --- --- 13.0 E 0.22 15.7 -14.1 --- --- 726.0 0.017 0.000 7.1 5 1
02/09/06 1:19 a -6.4 -6.4 -6.4 --- --- 13.0 E 0.22 16.5 -14.1 --- --- 726.1 0.017 0.000 7.1 4 1
02/09/06 1:20 a -6.4 -6.4 -6.4 --- --- 13.0 E 0.22 15.7 -14.1 --- --- 726.0 0.017 0.000 7.1 5 1
02/09/06 1:21 a -6.4 -6.4 -6.4 --- --- 14.8 E 0.25 16.5 -14.5 --- --- 726.0 0.017 0.000 7.1 5 1
02/09/06 1:22 a -6.4 -6.4 -6.4 --- --- 13.9 E 0.23 16.5 -14.3 --- --- 726.0 0.017 0.000 7.2 5 1
02/09/06 1:23 a -6.4 -6.4 -6.4 --- --- 13.9 E 0.23 16.5 -14.3 --- --- 725.9 0.017 0.000 7.2 5 1
02/09/06 1:24 a -6.4 -6.4 -6.4 --- --- 13.9 E 0.23 16.5 -14.3 --- --- 726.0 0.017 0.000 7.2 5 1
02/09/06 1:25 a -6.4 -6.4 -6.4 --- --- 13.0 E 0.22 15.7 -14.1 --- --- 726.0 0.017 0.000 7.2 5 1
02/09/06 1:26 a -6.4 -6.4 -6.4 --- --- 12.2 E 0.20 14.8 -13.8 --- --- 725.9 0.017 0.000 7.2 5 1
02/09/06 1:27 a -6.4 -6.4 -6.4 --- --- 13.9 E 0.23 15.7 -14.3 --- --- 725.9 0.017 0.000 7.2 5 1
02/09/06 1:28 a -6.4 -6.4 -6.4 --- --- 13.9 E 0.23 16.5 -14.3 --- --- 725.9 0.017 0.000 7.2 5 1
02/09/06 1:29 a -6.4 -6.4 -6.4 --- --- 13.0 E 0.22 15.7 -14.1 --- --- 726.0 0.017 0.000 7.2 5 1
02/09/06 1:30 a -6.4 -6.4 -6.4 --- --- 12.2 E 0.20 13.9 -13.7 --- --- 725.9 0.017 0.000 7.2 5 1
02/09/06 1:31 a -6.4 -6.3 -6.4 --- --- 13.0 E 0.22 15.7 -13.9 --- --- 725.9 0.017 0.000 7.2 5 1
02/09/06 1:32 a -6.3 -6.3 -6.4 --- --- 13.0 E 0.22 15.7 -13.9 --- --- 726.0 0.017 0.000 7.2 5 1
02/09/06 1:33 a -6.3 -6.3 -6.3 --- --- 13.0 E 0.22 15.7 -13.9 --- --- 725.9 0.017 0.000 7.2 5 1
02/09/06 1:34 a -6.3 -6.3 -6.4 --- --- 13.0 E 0.22 15.7 -13.9 --- --- 725.9 0.017 0.000 7.2 5 1
02/09/06 1:35 a -6.3 -6.3 -6.3 --- --- 13.0 E 0.22 14.8 -13.9 --- --- 725.9 0.017 0.000 7.2 5 1
02/09/06 1:36 a -6.4 -6.3 -6.4 --- --- 13.9 E 0.23 16.5 -14.2 --- --- 725.9 0.017 0.000 7.2 5 1
02/09/06 1:37 a -6.4 -6.4 -6.4 --- --- 13.9 ENE 0.23 16.5 -14.2 --- --- 725.9 0.017 0.000 7.2 5 1
02/09/06 1:38 a -6.4 -6.3 -6.4 --- --- 13.0 E 0.22 15.7 -13.9 --- --- 725.9 0.017 0.000 7.2 5 1
02/09/06 1:39 a -6.3 -6.3 -6.3 --- --- 13.0 E 0.22 14.8 -13.8 --- --- 726.0 0.017 0.000 7.2 5 1
02/09/06 1:40 a -6.3 -6.3 -6.3 --- --- 12.2 E 0.20 13.9 -13.6 --- --- 725.9 0.017 0.000 7.2 5 1
02/09/06 1:41 a -6.2 -6.2 -6.2 --- --- 13.0 E 0.22 15.7 -13.8 --- --- 725.9 0.017 0.000 7.2 5 1
02/09/06 1:42 a -6.2 -6.2 -6.2 --- --- 13.0 E 0.22 15.7 -13.8 --- --- 725.9 0.017 0.000 7.1 5 1
02/09/06 1:43 a -6.2 -6.2 -6.2 --- --- 13.0 E 0.22 15.7 -13.8 --- --- 725.9 0.017 0.000 7.1 4 1
02/09/06 1:44 a -6.2 -6.2 -6.2 --- --- 12.2 E 0.20 16.5 -13.5 --- --- 726.0 0.017 0.000 7.1 5 1
02/09/06 1:45 a -6.2 -6.2 -6.3 --- --- 13.9 ENE 0.23 16.5 -14.0 --- --- 725.9 0.017 0.000 7.1 5 1
02/09/06 1:46 a -6.3 -6.3 -6.3 --- --- 14.8 E 0.25 16.5 -14.3 --- --- 725.9 0.017 0.000 7.1 5 1
02/09/06 1:47 a -6.2 -6.2 -6.3 --- --- 13.0 E 0.22 17.4 -13.8 --- --- 725.9 0.017 0.000 7.1 5 1
02/09/06 1:48 a -6.3 -6.3 -6.3 --- --- 13.9 E 0.23 17.4 -14.1 --- --- 725.9 0.017 0.000 7.1 5 1
02/09/06 1:49 a -6.3 -6.3 -6.3 --- --- 14.8 E 0.25 16.5 -14.3 --- --- 725.9 0.017 0.000 7.1 5 1
02/09/06 1:50 a -6.3 -6.3 -6.3 --- --- 13.0 E 0.22 15.7 -13.9 --- --- 726.0 0.017 0.000 7.1 5 1
02/09/06 1:51 a -6.3 -6.3 -6.3 --- --- 12.2 E 0.20 14.8 -13.7 --- --- 726.0 0.017 0.000 7.1 5 1
02/09/06 1:52 a -6.3 -6.3 -6.3 --- --- 13.9 E 0.23 16.5 -14.1 --- --- 725.9 0.017 0.000 7.1 5 1
02/09/06 1:53 a -6.4 -6.3 -6.4 --- --- 14.8 ENE 0.25 16.5 -14.4 --- --- 725.8 0.017 0.000 7.1 5 1
02/09/06 1:54 a -6.4 -6.4 -6.4 --- --- 14.8 ENE 0.25 17.4 -14.4 --- --- 725.8 0.017 0.000 7.1 5 1
02/09/06 1:55 a -6.4 -6.3 -6.4 --- --- 14.8 ENE 0.25 17.4 -14.4 --- --- 725.8 0.017 0.000 7.1 5 1
02/09/06 1:56 a -6.3 -6.3 -6.3 --- --- 15.7 E 0.26 18.3 -14.6 --- --- 725.7 0.017 0.000 7.1 5 1
02/09/06 1:57 a -6.3 -6.3 -6.4 --- --- 15.7 ENE 0.26 18.3 -14.6 --- --- 725.8 0.017 0.000 7.1 5 1
02/09/06 1:58 a -6.4 -6.4 -6.4 --- --- 15.7 ENE 0.26 18.3 -14.7 --- --- 725.8 0.017 0.000 7.1 5 1
02/09/06 1:59 a -6.4 -6.4 -6.4 --- --- 14.8 ENE 0.25 18.3 -14.4 --- --- 725.8 0.017 0.000 7.1 5 1
02/09/06 2:00 a -6.4 -6.4 -6.4 --- --- 15.7 ENE 0.26 19.1 -14.7 --- --- 725.8 0.017 0.000 7.1 5 1
02/09/06 2:01 a -6.3 -6.3 -6.3 --- --- 13.0 E 0.22 15.7 -13.9 --- --- 725.8 0.017 0.000 7.1 5 1
02/09/06 2:03 a -6.4 -6.4 -6.4 --- --- 14.8 E 0.25 19.1 -14.4 --- --- 725.8 0.017 0.000 7.0 5 1
02/09/06 2:04 a -6.4 -6.4 -6.4 --- --- 13.9 E 0.23 16.5 -14.3 --- --- 725.8 0.017 0.000 7.0 5 1
02/09/06 2:05 a -6.4 -6.4 -6.4 --- --- 13.9 E 0.23 17.4 -14.3 --- --- 725.8 0.017 0.000 7.0 5 1
02/09/06 2:06 a -6.4 -6.4 -6.5 --- --- 18.3 ENE 0.30 20.9 -15.3 --- --- 725.8 0.017 0.000 7.0 5 1
02/09/06 2:07 a -6.6 -6.5 -6.6 --- --- 16.5 E 0.28 20.9 -15.1 --- --- 725.8 0.017 0.000 7.0 5 1
02/09/06 2:08 a -6.6 -6.5 -6.6 --- --- 16.5 ENE 0.28 19.1 -15.1 --- --- 725.8 0.017 0.000 7.0 5 1
02/09/06 2:09 a -6.6 -6.5 -6.6 --- --- 18.3 ENE 0.30 20.9 -15.4 --- --- 725.8 0.017 0.000 7.0 5 1
02/09/06 2:10 a -6.5 -6.5 -6.6 --- --- 16.5 ENE 0.28 18.3 -15.0 --- --- 725.9 0.017 0.000 7.0 5 1
02/09/06 2:11 a -6.4 -6.4 -6.5 --- --- 15.7 E 0.26 17.4 -14.7 --- --- 725.8 0.017 0.000 7.0 5 1
02/09/06 2:12 a -6.4 -6.4 -6.4 --- --- 17.4 ENE 0.29 19.1 -15.1 --- --- 725.8 0.017 0.000 6.9 5 1
02/09/06 2:13 a -6.4 -6.4 -6.5 --- --- 18.3 ENE 0.30 21.7 -15.3 --- --- 725.8 0.017 0.000 6.9 5 1
02/09/06 2:14 a -6.6 -6.5 -6.6 --- --- 16.5 E 0.28 20.0 -15.1 --- --- 725.8 0.017 0.000 6.9 5 1
02/09/06 2:15 a -6.5 -6.5 -6.6 --- --- 16.5 E 0.28 20.0 -15.0 --- --- 725.9 0.017 0.000 6.9 5 1
02/09/06 2:16 a -6.5 -6.5 -6.5 --- --- 13.9 E 0.23 16.5 -14.3 --- --- 725.8 0.017 0.000 6.9 5 1
02/09/06 2:17 a -6.5 -6.4 -6.5 --- --- 14.8 E 0.25 18.3 -14.6 --- --- 725.8 0.017 0.000 6.9 5 1
02/09/06 2:18 a -6.5 -6.4 -6.5 --- --- 13.9 E 0.23 17.4 -14.3 --- --- 725.8 0.017 0.000 6.9 5 1
02/09/06 2:19 a -6.4 -6.4 -6.4 --- --- 14.8 E 0.25 19.1 -14.5 --- --- 725.7 0.017 0.000 6.9 5 1
02/09/06 2:20 a -6.4 -6.4 -6.4 --- --- 14.8 E 0.25 18.3 -14.5 --- --- 725.7 0.017 0.000 6.9 5 1
02/09/06 2:21 a -6.4 -6.4 -6.5 --- --- 14.8 E 0.25 18.3 -14.5 --- --- 725.7 0.017 0.000 6.9 5 1
02/09/06 2:22 a -6.5 -6.5 -6.5 --- --- 13.0 E 0.22 16.5 -14.1 --- --- 725.8 0.017 0.000 6.9 5 1
02/09/06 2:23 a -6.5 -6.5 -6.5 --- --- 14.8 E 0.25 17.4 -14.6 --- --- 725.8 0.017 0.000 6.9 5 1
02/09/06 2:24 a -6.5 -6.5 -6.5 --- --- 15.7 E 0.26 17.4 -14.8 --- --- 725.8 0.017 0.000 6.9 5 1
02/09/06 2:25 a -6.5 -6.4 -6.5 --- --- 13.9 E 0.23 17.4 -14.3 --- --- 725.8 0.017 0.000 6.9 5 1
02/09/06 2:26 a -6.5 -6.4 -6.5 --- --- 13.9 E 0.23 16.5 -14.3 --- --- 725.8 0.017 0.000 6.9 5 1
02/09/06 2:27 a -6.4 -6.4 -6.5 --- --- 14.8 E 0.25 17.4 -14.5 --- --- 725.8 0.017 0.000 6.9 5 1
02/09/06 2:28 a -6.5 -6.4 -6.5 --- --- 14.8 E 0.25 17.4 -14.6 --- --- 725.8 0.017 0.000 6.9 5 1
02/09/06 2:29 a -6.4 -6.4 -6.4 --- --- 15.7 E 0.26 18.3 -14.7 --- --- 725.8 0.017 0.000 6.9 5 1
02/09/06 2:30 a -6.4 -6.4 -6.4 --- --- 14.8 E 0.25 17.4 -14.4 --- --- 725.8 0.017 0.000 6.9 4 1
02/09/06 2:31 a -6.4 -6.3 -6.4 --- --- 14.8 E 0.25 18.3 -14.4 --- --- 725.9 0.017 0.000 6.9 5 1
02/09/06 2:32 a -6.3 -6.3 -6.3 --- --- 14.8 E 0.25 17.4 -14.4 --- --- 725.8 0.017 0.000 6.9 4 1
02/09/06 2:33 a -6.3 -6.3 -6.3 --- --- 15.7 E 0.26 18.3 -14.6 --- --- 725.8 0.017 0.000 6.9 4 1
02/09/06 2:34 a -6.3 -6.3 -6.3 --- --- 15.7 ENE 0.26 18.3 -14.6 --- --- 725.7 0.017 0.000 6.9 5 1
02/09/06 2:35 a -6.4 -6.3 -6.4 --- --- 16.5 ENE 0.28 19.1 -14.8 --- --- 725.8 0.017 0.000 6.9 5 1
02/09/06 2:36 a -6.4 -6.3 -6.4 --- --- 13.9 E 0.23 17.4 -14.2 --- --- 725.8 0.017 0.000 6.9 4 1
02/09/06 2:37 a -6.3 -6.3 -6.3 --- --- 13.9 E 0.23 16.5 -14.1 --- --- 725.8 0.017 0.000 6.9 5 1
02/09/06 2:38 a -6.3 -6.2 -6.3 --- --- 13.9 E 0.23 17.4 -14.1 --- --- 725.8 0.017 0.000 6.9 5 1
02/09/06 2:39 a -6.2 -6.2 -6.2 --- --- 15.7 ENE 0.26 17.4 -14.4 --- --- 725.8 0.017 0.000 6.9 4 1
02/09/06 2:40 a -6.2 -6.2 -6.2 --- --- 16.5 ENE 0.28 20.0 -14.7 --- --- 725.9 0.017 0.000 6.9 4 1
02/09/06 2:41 a -6.2 -6.2 -6.2 --- --- 13.0 E 0.22 16.5 -13.7 --- --- 725.8 0.017 0.000 6.9 4 1
02/09/06 2:42 a -6.2 -6.2 -6.2 --- --- 14.8 E 0.25 17.4 -14.2 --- --- 725.8 0.017 0.000 6.9 5 1
02/09/06 2:43 a -6.2 -6.1 -6.2 --- --- 12.2 E 0.20 16.5 -13.4 --- --- 725.8 0.017 0.000 6.9 5 1
02/09/06 2:44 a -6.1 -6.1 -6.1 --- --- 13.9 E 0.23 15.7 -13.8 --- --- 725.8 0.017 0.000 6.9 4 1
02/09/06 2:45 a -6.1 -6.1 -6.1 --- --- 14.8 E 0.25 17.4 -14.0 --- --- 725.8 0.017 0.000 6.9 5 1
02/09/06 2:46 a -6.1 -6.1 -6.1 --- --- 14.8 ENE 0.25 17.4 -14.1 --- --- 725.7 0.017 0.000 6.9 5 1
02/09/06 2:47 a -6.1 -6.1 -6.1 --- --- 13.0 E 0.22 15.7 -13.6 --- --- 725.7 0.017 0.000 6.9 4 1
02/09/06 2:48 a -6.1 -6.1 -6.1 --- --- 15.7 ENE 0.26 17.4 -14.2 --- --- 725.8 0.017 0.000 6.9 5 1
02/09/06 2:49 a -6.0 -5.9 -6.1 --- --- 15.7 ENE 0.26 17.4 -14.2 --- --- 725.7 0.017 0.000 6.9 5 1
02/09/06 2:50 a -5.9 -5.9 -5.9 --- --- 13.9 E 0.23 15.7 -13.6 --- --- 725.8 0.017 0.000 6.9 5 1
02/09/06 2:51 a -5.9 -5.8 -5.9 --- --- 12.2 E 0.20 14.8 -13.2 --- --- 725.7 0.017 0.000 6.9 5 1
02/09/06 2:52 a -5.9 -5.8 -5.9 --- --- 13.9 ENE 0.23 17.4 -13.6 --- --- 725.7 0.017 0.000 6.9 5 1
02/09/06 2:53 a -5.9 -5.9 -5.9 --- --- 14.8 E 0.25 16.5 -13.8 --- --- 725.6 0.017 0.000 6.9 5 1
02/09/06 2:54 a -5.9 -5.8 -5.9 --- --- 13.0 E 0.22 15.7 -13.3 --- --- 725.7 0.017 0.000 6.9 5 1
02/09/06 2:55 a -5.8 -5.8 -5.8 --- --- 13.9 E 0.23 17.4 -13.5 --- --- 725.7 0.017 0.000 6.9 5 1
02/09/06 2:56 a -5.9 -5.8 -5.9 --- --- 14.8 E 0.25 17.4 -13.8 --- --- 725.7 0.017 0.000 7.0 5 1
02/09/06 2:57 a -5.9 -5.9 -5.9 --- --- 16.5 ENE 0.28 17.4 -14.2 --- --- 725.6 0.017 0.000 7.0 5 1
02/09/06 2:58 a -5.9 -5.9 -6.0 --- --- 16.5 ENE 0.28 18.3 -14.3 --- --- 725.7 0.017 0.000 7.0 5 1
02/09/06 2:59 a -5.9 -5.9 -6.0 --- --- 14.8 ENE 0.25 17.4 -13.8 --- --- 725.7 0.017 0.000 7.0 5 1
02/09/06 3:00 a -5.9 -5.9 -5.9 --- --- 12.2 E 0.20 14.8 -13.2 --- --- 725.8 0.017 0.000 7.1 5 1
02/09/06 3:01 a -5.9 -5.8 -5.9 --- --- 13.9 ENE 0.23 16.5 -13.6 --- --- 725.8 0.017 0.000 7.1 5 1
02/09/06 3:02 a -5.8 -5.8 -5.9 --- --- 14.8 ENE 0.25 17.4 -13.7 --- --- 725.8 0.017 0.000 7.1 5 1
02/09/06 3:03 a -5.8 -5.8 -5.8 --- --- 13.9 E 0.23 16.5 -13.5 --- --- 725.7 0.017 0.000 7.1 5 1
02/09/06 3:04 a -5.8 -5.8 -5.8 --- --- 15.7 E 0.26 17.4 -13.9 --- --- 725.7 0.017 0.000 7.1 5 1
02/09/06 3:05 a -5.9 -5.8 -5.9 --- --- 15.7 ENE 0.26 17.4 -14.0 --- --- 725.6 0.017 0.000 7.1 5 1
02/09/06 3:06 a -5.9 -5.8 -5.9 --- --- 16.5 ENE 0.28 18.3 -14.2 --- --- 725.7 0.017 0.000 7.1 5 1
02/09/06 3:07 a -5.8 -5.8 -5.8 --- --- 14.8 ENE 0.25 16.5 -13.7 --- --- 725.6 0.017 0.000 7.1 5 1
02/09/06 3:08 a -5.8 -5.8 -5.8 --- --- 16.5 ENE 0.28 22.6 -14.1 --- --- 725.6 0.017 0.000 7.1 5 1
02/09/06 3:09 a -5.8 -5.8 -5.9 --- --- 12.2 E 0.20 16.5 -13.0 --- --- 725.8 0.017 0.000 7.1 5 1
02/09/06 3:10 a -5.7 -5.7 -5.8 --- --- 12.2 E 0.20 15.7 -12.9 --- --- 725.7 0.017 0.000 7.1 5 1
02/09/06 3:11 a -5.7 -5.7 -5.7 --- --- 14.8 E 0.25 16.5 -13.5 --- --- 725.7 0.017 0.000 7.1 5 1
02/09/06 3:12 a -5.7 -5.7 -5.7 --- --- 14.8 E 0.25 16.5 -13.5 --- --- 725.5 0.017 0.000 7.1 5 1
02/09/06 3:13 a -5.7 -5.7 -5.7 --- --- 13.0 E 0.22 15.7 -13.1 --- --- 725.6 0.017 0.000 7.1 5 1
02/09/06 3:14 a -5.7 -5.7 -5.7 --- --- 14.8 E 0.25 16.5 -13.6 --- --- 725.6 0.017 0.000 7.1 5 1
02/09/06 3:15 a -5.7 -5.7 -5.8 --- --- 15.7 ENE 0.26 17.4 -13.8 --- --- 725.5 0.017 0.000 7.1 5 1
02/09/06 3:16 a -5.8 -5.8 -5.8 --- --- 16.5 ENE 0.28 18.3 -14.1 --- --- 725.5 0.017 0.000 7.1 5 1
02/09/06 3:17 a -5.8 -5.8 -5.8 --- --- 16.5 ENE 0.28 18.3 -14.1 --- --- 725.6 0.017 0.000 7.1 5 1
02/09/06 3:18 a -5.8 -5.8 -5.8 --- --- 14.8 ENE 0.25 18.3 -13.7 --- --- 725.6 0.017 0.000 7.1 5 1
02/09/06 3:19 a -5.7 -5.7 -5.8 --- --- 13.9 E 0.23 17.4 -13.3 --- --- 725.7 0.017 0.000 7.1 5 1
02/09/06 3:20 a -5.7 -5.7 -5.8 --- --- 14.8 ENE 0.25 17.4 -13.6 --- --- 725.6 0.017 0.000 7.1 5 1
02/09/06 3:21 a -5.7 -5.7 -5.7 --- --- 12.2 ENE 0.20 15.7 -12.8 --- --- 725.7 0.017 0.000 7.1 5 1
02/09/06 3:22 a -5.6 -5.6 -5.6 --- --- 13.0 E 0.22 16.5 -12.9 --- --- 725.6 0.017 0.000 7.1 5 1
02/09/06 3:23 a -5.5 -5.5 -5.6 --- --- 12.2 E 0.20 14.8 -12.6 --- --- 725.6 0.017 0.000 7.1 5 1
02/09/06 3:24 a -5.5 -5.5 -5.6 --- --- 13.9 ENE 0.23 16.5 -13.1 --- --- 725.7 0.017 0.000 7.1 5 1
02/09/06 3:25 a -5.5 -5.4 -5.5 --- --- 14.8 ENE 0.25 15.7 -13.3 --- --- 725.6 0.017 0.000 7.1 5 1
02/09/06 3:26 a -5.4 -5.4 -5.4 --- --- 13.9 ENE 0.23 16.5 -13.0 --- --- 725.6 0.017 0.000 7.1 5 1
02/09/06 3:27 a -5.4 -5.4 -5.4 --- --- 15.7 ENE 0.26 17.4 -13.3 --- --- 725.7 0.016 0.000 7.1 5 1
02/09/06 3:28 a -5.3 -5.3 -5.4 --- --- 13.9 ENE 0.23 15.7 -12.8 --- --- 725.7 0.016 0.000 7.1 5 1
02/09/06 3:29 a -5.4 -5.3 -5.4 --- --- 13.0 ENE 0.22 14.8 -12.7 --- --- 725.7 0.016 0.000 7.1 5 1
02/09/06 3:30 a -5.8 -5.7 -6.2 --- --- 12.2 E 0.20 13.9 -13.0 --- --- 725.7 0.017 0.000 7.1 5 1
02/09/06 3:31 a -6.3 -6.2 -6.5 --- --- 11.3 E 0.19 13.0 -13.4 --- --- 725.8 0.017 0.000 7.1 5 1
02/09/06 3:32 a -6.6 -6.5 -6.8 --- --- 11.3 E 0.19 13.0 -13.7 --- --- 725.8 0.017 0.000 7.1 5 1
02/09/06 3:33 a -7.0 -6.8 -7.2 --- --- 10.4 E 0.17 13.9 -13.9 --- --- 725.8 0.018 0.000 7.1 5 1
02/09/06 3:34 a -7.3 -7.2 -7.4 --- --- 13.0 ENE 0.22 14.8 -15.2 --- --- 725.8 0.018 0.000 7.1 5 1
02/09/06 3:35 a -7.4 -7.4 -7.4 --- --- 13.9 ENE 0.23 15.7 -15.5 --- --- 725.7 0.018 0.000 7.1 5 1
02/09/06 3:36 a -7.5 -7.4 -7.6 --- --- 13.9 ENE 0.23 15.7 -15.6 --- --- 725.7 0.018 0.000 7.1 5 1
02/09/06 3:37 a -7.6 -7.6 -7.7 --- --- 13.0 ENE 0.22 14.8 -15.6 --- --- 725.7 0.018 0.000 7.1 5 1
02/09/06 3:38 a -7.7 -7.6 -7.7 --- --- 14.8 ENE 0.25 15.7 -16.1 --- --- 725.7 0.018 0.000 7.1 5 1
02/09/06 3:39 a -7.5 -7.4 -7.6 --- --- 13.9 ENE 0.23 15.7 -15.6 --- --- 725.8 0.018 0.000 7.1 5 1
02/09/06 3:40 a -7.3 -7.3 -7.4 --- --- 13.9 ENE 0.23 14.8 -15.4 --- --- 725.8 0.018 0.000 7.1 5 1
02/09/06 3:41 a -7.2 -7.2 -7.3 --- --- 13.0 ENE 0.22 14.8 -14.9 --- --- 725.8 0.018 0.000 7.0 4 1
02/09/06 3:42 a -7.3 -7.3 -7.4 --- --- 13.0 ENE 0.22 14.8 -15.2 --- --- 725.7 0.018 0.000 7.0 5 1
02/09/06 3:43 a -7.4 -7.4 -7.6 --- --- 13.0 ENE 0.22 16.5 -15.3 --- --- 725.6 0.018 0.000 7.0 4 1
02/09/06 3:44 a -7.6 -7.6 -7.7 --- --- 13.0 ENE 0.22 15.7 -15.6 --- --- 725.7 0.018 0.000 7.0 4 1
02/09/06 3:45 a -7.7 -7.7 -7.8 --- --- 13.9 ENE 0.23 16.5 -15.9 --- --- 725.7 0.018 0.000 7.0 5 1
02/09/06 3:46 a -7.8 -7.8 -7.8 --- --- 13.9 ENE 0.23 15.7 -16.0 --- --- 725.7 0.018 0.000 7.0 4 1
02/09/06 3:47 a -7.8 -7.8 -7.9 --- --- 13.0 ENE 0.22 15.7 -15.8 --- --- 725.7 0.018 0.000 7.0 4 1
02/09/06 3:48 a -7.9 -7.9 -7.9 --- --- 11.3 ENE 0.19 13.0 -15.3 --- --- 725.7 0.018 0.000 6.9 4 1
02/09/06 3:49 a -7.9 -7.9 -7.9 --- --- 12.2 ENE 0.20 14.8 -15.6 --- --- 725.7 0.018 0.000 6.9 4 1
02/09/06 3:50 a -7.9 -7.9 -7.9 --- --- 12.2 ENE 0.20 13.0 -15.6 --- --- 725.7 0.018 0.000 6.9 4 1
02/09/06 3:51 a -7.9 -7.9 -7.9 --- --- 12.2 ENE 0.20 13.0 -15.6 --- --- 725.7 0.018 0.000 6.9 4 1
02/09/06 3:52 a -7.9 -7.8 -7.9 --- --- 12.2 ENE 0.20 13.9 -15.6 --- --- 725.7 0.018 0.000 6.9 4 1
02/09/06 3:53 a -7.8 -7.8 -7.8 --- --- 11.3 NE 0.19 13.0 -15.2 --- --- 725.7 0.018 0.000 6.9 4 1
02/09/06 3:54 a -7.7 -7.6 -7.8 --- --- 11.3 ENE 0.19 12.2 -15.1 --- --- 725.6 0.018 0.000 6.9 4 1
02/09/06 3:55 a -7.1 -6.8 -7.6 --- --- 11.3 ENE 0.19 13.9 -14.3 --- --- 725.7 0.018 0.000 6.9 4 1
02/09/06 3:56 a -6.6 -6.4 -6.8 --- --- 10.4 ENE 0.17 14.8 -13.4 --- --- 725.7 0.017 0.000 6.9 4 1
02/09/06 3:57 a -6.1 -5.7 -6.4 --- --- 11.3 ENE 0.19 14.8 -13.0 --- --- 725.7 0.017 0.000 6.9 4 1
02/09/06 3:58 a -5.6 -5.6 -5.7 --- --- 10.4 ENE 0.17 13.0 -12.2 --- --- 725.7 0.017 0.000 6.9 4 1
02/09/06 3:59 a -5.5 -5.3 -5.6 --- --- 12.2 ENE 0.20 13.9 -12.6 --- --- 725.6 0.017 0.000 6.9 4 1
02/09/06 4:00 a -5.3 -5.2 -5.3 --- --- 9.6 E 0.16 11.3 -11.4 --- --- 725.6 0.016 0.000 6.9 4 1
02/09/06 4:01 a -4.9 -4.7 -5.2 --- --- 9.6 ENE 0.16 12.2 -11.1 --- --- 725.6 0.016 0.000 6.9 4 1
02/09/06 4:02 a -4.6 -4.4 -4.7 --- --- 7.8 E 0.13 11.3 -9.9 --- --- 725.6 0.016 0.000 6.9 4 1
02/09/06 4:03 a -4.6 -4.6 -4.7 --- --- 8.7 E 0.14 12.2 -10.3 --- --- 725.6 0.016 0.000 6.9 4 1
02/09/06 4:04 a -4.9 -4.8 -5.2 --- --- 11.3 ENE 0.19 13.9 -11.6 --- --- 725.6 0.016 0.000 6.9 4 1
02/09/06 4:05 a -5.3 -5.3 -5.3 --- --- 8.7 E 0.14 11.3 -11.1 --- --- 725.7 0.016 0.000 6.9 4 1
02/09/06 4:06 a -5.6 -5.5 -5.7 --- --- 9.6 ENE 0.16 11.3 -11.8 --- --- 725.6 0.017 0.000 6.9 4 1
02/09/06 4:07 a -5.8 -5.7 -5.9 --- --- 9.6 ENE 0.16 11.3 -12.2 --- --- 725.6 0.017 0.000 6.9 4 1
02/09/06 4:08 a -6.1 -5.9 -6.2 --- --- 9.6 E 0.16 12.2 -12.4 --- --- 725.6 0.017 0.000 6.9 5 1
02/09/06 4:09 a -6.3 -6.2 -6.4 --- --- 9.6 ENE 0.16 11.3 -12.7 --- --- 725.7 0.017 0.000 6.9 4 1
02/09/06 4:10 a -6.5 -6.4 -6.6 --- --- 7.8 E 0.13 9.6 -12.3 --- --- 725.6 0.017 0.000 7.0 5 1
02/09/06 4:11 a -6.6 -6.6 -6.7 --- --- 6.1 E 0.10 9.6 -11.6 --- --- 725.6 0.017 0.000 7.0 5 1
02/09/06 4:12 a -6.8 -6.7 -6.8 --- --- 8.7 E 0.14 10.4 -13.0 --- --- 725.7 0.017 0.000 7.0 5 1
02/09/06 4:13 a -6.9 -6.8 -6.9 --- --- 7.8 E 0.13 11.3 -12.8 --- --- 725.8 0.018 0.000 7.1 4 1
02/09/06 4:14 a -6.9 -6.9 -7.0 --- --- 5.2 E 0.09 8.7 -11.5 --- --- 725.8 0.018 0.000 7.1 4 1
02/09/06 4:15 a -7.0 -7.0 -7.0 --- --- 7.8 ESE 0.13 10.4 -12.9 --- --- 725.7 0.018 0.000 7.1 4 1
02/09/06 4:16 a -7.1 -7.0 -7.1 --- --- 7.8 ENE 0.13 10.4 -12.9 --- --- 725.7 0.018 0.000 7.1 4 1
02/09/06 4:17 a -7.1 -7.1 -7.2 --- --- 11.3 ENE 0.19 13.0 -14.3 --- --- 725.7 0.018 0.000 7.1 4 1
02/09/06 4:18 a -7.2 -7.2 -7.3 --- --- 8.7 E 0.14 13.0 -13.6 --- --- 725.7 0.018 0.000 7.1 4 1
02/09/06 4:19 a -7.4 -7.4 -7.4 --- --- 7.0 E 0.12 10.4 -13.0 --- --- 725.7 0.018 0.000 7.1 4 1
02/09/06 4:20 a -7.4 -7.4 -7.4 --- --- 10.4 ENE 0.17 15.7 -14.5 --- --- 725.7 0.018 0.000 7.1 4 1
02/09/06 4:21 a -7.6 -7.4 -7.6 --- --- 7.0 ENE 0.12 11.3 -13.2 --- --- 725.8 0.018 0.000 7.1 4 1
02/09/06 4:22 a -7.6 -7.6 -7.7 --- --- 8.7 E 0.14 13.0 -14.1 --- --- 725.9 0.018 0.000 7.1 4 1
02/09/06 4:23 a -7.7 -7.7 -7.7 --- --- 7.8 E 0.13 9.6 -13.7 --- --- 725.8 0.018 0.000 7.1 4 1
02/09/06 4:24 a -7.7 -7.7 -7.7 --- --- 7.8 E 0.13 9.6 -13.7 --- --- 725.7 0.018 0.000 7.1 4 1
02/09/06 4:25 a -7.7 -7.6 -7.7 --- --- 7.8 ESE 0.13 10.4 -13.7 --- --- 725.8 0.018 0.000 7.1 4 1
02/09/06 4:26 a -7.6 -7.6 -7.6 --- --- 8.7 ESE 0.14 9.6 -14.1 --- --- 725.8 0.018 0.000 7.1 4 1
02/09/06 4:27 a -7.6 -7.5 -7.6 --- --- 6.1 E 0.10 8.7 -12.7 --- --- 725.8 0.018 0.000 7.1 4 1
02/09/06 4:28 a -7.5 -7.5 -7.5 --- --- 6.1 E 0.10 8.7 -12.7 --- --- 725.8 0.018 0.000 7.1 4 1
02/09/06 4:29 a -7.5 -7.4 -7.5 --- --- 6.1 E 0.10 7.8 -12.7 --- --- 725.8 0.018 0.000 7.1 4 1
02/09/06 4:30 a -7.4 -7.4 -7.4 --- --- 7.8 E 0.13 9.6 -13.4 --- --- 725.8 0.018 0.000 7.1 4 1
02/09/06 4:31 a -7.4 -7.3 -7.4 --- --- 7.0 ESE 0.12 9.6 -13.0 --- --- 725.8 0.018 0.000 7.1 4 1
02/09/06 4:32 a -7.3 -7.3 -7.4 --- --- 6.1 ESE 0.10 9.6 -12.4 --- --- 725.8 0.018 0.000 7.1 4 1
02/09/06 4:33 a -7.3 -7.3 -7.3 --- --- 7.0 SE 0.12 8.7 -12.8 --- --- 725.8 0.018 0.000 7.1 4 1
02/09/06 4:34 a -7.4 -7.3 -7.5 --- --- 8.7 SSE 0.14 10.4 -13.8 --- --- 725.8 0.018 0.000 7.1 4 1
02/09/06 4:35 a -7.5 -7.4 -7.5 --- --- 7.8 SSE 0.13 9.6 -13.5 --- --- 725.8 0.018 0.000 7.1 4 1
02/09/06 4:36 a -7.4 -7.4 -7.4 --- --- 6.1 SSE 0.10 7.8 -12.6 --- --- 725.8 0.018 0.000 7.1 4 1
02/09/06 4:37 a -7.4 -7.3 -7.4 --- --- 5.2 SE 0.09 7.0 -12.0 --- --- 725.9 0.018 0.000 7.1 4 1
02/09/06 4:38 a -7.3 -7.3 -7.3 --- --- 5.2 SE 0.09 6.1 -11.9 --- --- 725.8 0.018 0.000 7.1 4 1
02/09/06 4:39 a -7.3 -7.3 -7.4 --- --- 7.8 SE 0.13 9.6 -13.3 --- --- 725.8 0.018 0.000 7.1 4 1
02/09/06 4:40 a -7.4 -7.3 -7.4 --- --- 7.8 ESE 0.13 9.6 -13.4 --- --- 725.8 0.018 0.000 7.0 4 1
02/09/06 4:41 a -7.3 -7.3 -7.3 --- --- 4.3 E 0.07 5.2 -11.3 --- --- 725.9 0.018 0.000 7.0 4 1
02/09/06 4:42 a -7.3 -7.3 -7.3 --- --- 2.6 SSE 0.04 4.3 -9.7 --- --- 725.9 0.018 0.000 7.0 4 1
02/09/06 4:43 a -7.3 -7.3 -7.3 --- --- 3.5 E 0.06 5.2 -10.7 --- --- 725.8 0.018 0.000 7.0 4 1
02/09/06 4:44 a -7.2 -7.2 -7.3 --- --- 3.5 E 0.06 4.3 -10.5 --- --- 725.8 0.018 0.000 7.0 4 1
02/09/06 4:45 a -7.1 -7.1 -7.2 --- --- 3.5 E 0.06 5.2 -10.4 --- --- 725.8 0.018 0.000 7.0 4 1
02/09/06 4:46 a -7.1 -7.1 -7.1 --- --- 3.5 ESE 0.06 4.3 -10.3 --- --- 725.9 0.018 0.000 7.0 4 1
02/09/06 4:47 a -7.1 -7.0 -7.1 --- --- 6.1 ESE 0.10 9.6 -12.1 --- --- 725.8 0.018 0.000 7.0 4 1
02/09/06 4:48 a -7.2 -7.1 -7.3 --- --- 7.8 ESE 0.13 9.6 -13.1 --- --- 725.8 0.018 0.000 7.0 4 1
02/09/06 4:49 a -7.3 -7.2 -7.3 --- --- 7.8 SE 0.13 9.6 -13.2 --- --- 725.7 0.018 0.000 6.9 4 1
02/09/06 4:50 a -7.3 -7.3 -7.4 --- --- 4.3 SE 0.07 6.1 -11.3 --- --- 725.8 0.018 0.000 6.9 4 1
02/09/06 4:51 a -7.4 -7.4 -7.4 --- --- 4.3 SE 0.07 6.1 -11.5 --- --- 725.8 0.018 0.000 6.9 4 1
02/09/06 4:52 a -7.4 -7.4 -7.4 --- --- 6.1 SE 0.10 7.8 -12.6 --- --- 725.8 0.018 0.000 6.9 4 1
02/09/06 4:53 a -7.4 -7.4 -7.4 --- --- 7.8 SE 0.13 13.0 -13.4 --- --- 725.7 0.018 0.000 6.9 4 1
02/09/06 4:54 a -7.4 -7.3 -7.5 --- --- 13.9 SE 0.23 18.3 -15.5 --- --- 725.8 0.018 0.000 6.9 4 1
02/09/06 4:55 a -7.6 -7.6 -7.6 --- --- 7.0 SSE 0.12 10.4 -13.2 --- --- 725.8 0.018 0.000 6.9 4 1
02/09/06 4:56 a -7.7 -7.6 -7.7 --- --- 7.0 SE 0.12 8.7 -13.3 --- --- 725.8 0.018 0.000 6.9 4 1
02/09/06 4:57 a -7.6 -7.6 -7.6 --- --- 8.7 SE 0.14 12.2 -14.1 --- --- 725.8 0.018 0.000 6.9 4 1
02/09/06 4:58 a -7.7 -7.6 -7.8 --- --- 7.8 S 0.13 10.4 -13.7 --- --- 725.8 0.018 0.000 6.9 4 1
02/09/06 4:59 a -7.9 -7.9 -7.9 --- --- 9.6 SSE 0.16 11.3 -14.7 --- --- 725.8 0.018 0.000 6.9 4 1
02/09/06 5:00 a -7.9 -7.9 -8.0 --- --- 7.8 SSE 0.13 8.7 -14.1 --- --- 725.8 0.018 0.000 6.9 4 1
02/09/06 5:01 a -8.0 -8.0 -8.1 --- --- 10.4 SE 0.17 11.3 -15.2 --- --- 725.8 0.018 0.000 6.9 4 1
02/09/06 5:02 a -8.0 -8.0 -8.1 --- --- 8.7 SE 0.14 10.4 -14.5 --- --- 725.8 0.018 0.000 6.9 4 1
02/09/06 5:03 a -8.0 -7.9 -8.0 --- --- 7.8 SE 0.13 8.7 -14.1 --- --- 725.9 0.018 0.000 6.9 4 1
02/09/06 5:04 a -7.9 -7.9 -8.0 --- --- 7.0 SE 0.12 8.7 -13.7 --- --- 725.8 0.018 0.000 6.9 4 1
02/09/06 5:05 a -8.0 -8.0 -8.1 --- --- 7.0 SE 0.12 8.7 -13.7 --- --- 725.8 0.018 0.000 6.9 4 1
02/09/06 5:06 a -8.0 -8.0 -8.1 --- --- 7.8 SE 0.13 7.8 -14.1 --- --- 725.7 0.018 0.000 6.9 4 1
02/09/06 5:07 a -8.1 -8.0 -8.1 --- --- 7.8 SE 0.13 8.7 -14.2 --- --- 725.8 0.018 0.000 6.9 4 1
02/09/06 5:08 a -8.1 -8.1 -8.1 --- --- 8.7 SSE 0.14 10.4 -14.6 --- --- 725.8 0.018 0.000 6.9 4 1
02/09/06 5:09 a -8.1 -8.1 -8.2 --- --- 7.8 SSE 0.13 9.6 -14.3 --- --- 725.9 0.018 0.000 6.9 4 1
02/09/06 5:10 a -8.2 -8.2 -8.2 --- --- 7.8 SSE 0.13 9.6 -14.4 --- --- 725.9 0.018 0.000 6.9 4 1
02/09/06 5:11 a -8.2 -8.2 -8.2 --- --- 9.6 SSE 0.16 11.3 -15.1 --- --- 725.8 0.018 0.000 6.9 4 1
02/09/06 5:12 a -8.2 -8.2 -8.2 --- --- 9.6 SSE 0.16 10.4 -15.1 --- --- 725.8 0.018 0.000 6.9 4 1
02/09/06 5:13 a -8.2 -8.2 -8.2 --- --- 6.1 SSE 0.10 7.8 -13.4 --- --- 725.8 0.018 0.000 6.9 4 1
02/09/06 5:14 a -8.2 -8.2 -8.2 --- --- 7.0 SSE 0.12 8.7 -14.0 --- --- 725.9 0.018 0.000 6.9 4 1
02/09/06 5:15 a -8.2 -8.2 -8.2 --- --- 9.6 SE 0.16 11.3 -15.1 --- --- 725.8 0.018 0.000 6.9 4 1
02/09/06 5:16 a -8.2 -8.2 -8.3 --- --- 10.4 SE 0.17 12.2 -15.4 --- --- 725.7 0.018 0.000 6.9 4 1
02/09/06 5:17 a -8.3 -8.2 -8.3 --- --- 8.7 SE 0.14 11.3 -14.8 --- --- 725.8 0.018 0.000 6.9 4 1
02/09/06 5:18 a -8.3 -8.3 -8.3 --- --- 9.6 SE 0.16 11.3 -15.2 --- --- 725.8 0.018 0.000 6.9 4 1
02/09/06 5:19 a -8.2 -8.2 -8.3 --- --- 9.6 SSE 0.16 11.3 -15.1 --- --- 725.9 0.018 0.000 6.9 4 1
02/09/06 5:20 a -8.3 -8.3 -8.3 --- --- 10.4 SSE 0.17 12.2 -15.6 --- --- 725.8 0.018 0.000 6.9 4 1
02/09/06 5:21 a -8.3 -8.3 -8.4 --- --- 7.8 SSE 0.13 9.6 -14.6 --- --- 725.8 0.019 0.000 6.9 4 1
02/09/06 5:22 a -8.4 -8.3 -8.4 --- --- 9.6 SSE 0.16 10.4 -15.3 --- --- 725.9 0.019 0.000 6.9 4 1
02/09/06 5:23 a -8.4 -8.4 -8.4 --- --- 7.8 SSE 0.13 10.4 -14.6 --- --- 725.9 0.019 0.000 6.9 4 1
02/09/06 5:24 a -8.4 -8.4 -8.5 --- --- 7.0 SSE 0.12 7.8 -14.3 --- --- 725.8 0.019 0.000 6.9 4 1
02/09/06 5:25 a -8.6 -8.5 -8.6 --- --- 8.7 SSE 0.14 9.6 -15.2 --- --- 725.8 0.019 0.000 6.9 4 1
02/09/06 5:26 a -8.6 -8.6 -8.6 --- --- 7.8 SSE 0.13 8.7 -14.9 --- --- 725.8 0.019 0.000 6.9 4 1
02/09/06 5:27 a -8.6 -8.6 -8.6 --- --- 7.8 SSE 0.13 7.8 -14.9 --- --- 725.8 0.019 0.000 6.9 4 1
02/09/06 5:28 a -8.6 -8.6 -8.6 --- --- 8.7 SSE 0.14 11.3 -15.3 --- --- 725.8 0.019 0.000 6.9 4 1
02/09/06 5:29 a -8.6 -8.6 -8.6 --- --- 10.4 SSE 0.17 12.2 -15.9 --- --- 725.8 0.019 0.000 6.9 4 1
02/09/06 5:30 a -8.6 -8.6 -8.6 --- --- 8.7 SSE 0.14 10.4 -15.3 --- --- 725.8 0.019 0.000 6.9 4 1
02/09/06 5:31 a -8.6 -8.6 -8.6 --- --- 7.8 SSE 0.13 9.6 -14.9 --- --- 725.8 0.019 0.000 6.9 4 1
02/09/06 5:32 a -8.6 -8.6 -8.6 --- --- 11.3 SSE 0.19 13.9 -16.3 --- --- 725.7 0.019 0.000 6.9 4 1
02/09/06 5:33 a -8.6 -8.6 -8.6 --- --- 11.3 S 0.19 13.0 -16.3 --- --- 725.7 0.019 0.000 6.9 4 1
02/09/06 5:34 a -8.7 -8.7 -8.7 --- --- 11.3 SSE 0.19 13.0 -16.3 --- --- 725.7 0.019 0.000 6.9 4 1
02/09/06 5:35 a -8.7 -8.7 -8.7 --- --- 10.4 SSE 0.17 11.3 -16.0 --- --- 725.6 0.019 0.000 6.9 4 1
02/09/06 5:36 a -8.7 -8.7 -8.7 --- --- 8.7 SSE 0.14 11.3 -15.4 --- --- 725.8 0.019 0.000 6.9 4 1
02/09/06 5:37 a -8.7 -8.7 -8.7 --- --- 7.8 SSE 0.13 9.6 -15.0 --- --- 725.8 0.019 0.000 6.9 4 1
02/09/06 5:38 a -8.7 -8.7 -8.7 --- --- 7.8 SSE 0.13 10.4 -15.0 --- --- 725.8 0.019 0.000 6.9 4 1
02/09/06 5:39 a -8.7 -8.7 -8.7 --- --- 9.6 SE 0.16 11.3 -15.7 --- --- 725.7 0.019 0.000 6.9 4 1
02/09/06 5:40 a -8.7 -8.6 -8.7 --- --- 10.4 SSE 0.17 12.2 -16.0 --- --- 725.7 0.019 0.000 6.9 4 1
02/09/06 5:41 a -8.6 -8.6 -8.6 --- --- 10.4 SSE 0.17 11.3 -15.9 --- --- 725.8 0.019 0.000 6.9 4 1
02/09/06 5:42 a -8.6 -8.6 -8.7 --- --- 8.7 SSE 0.14 10.4 -15.3 --- --- 725.7 0.019 0.000 6.9 4 1
02/09/06 5:43 a -8.7 -8.6 -8.7 --- --- 8.7 SSE 0.14 10.4 -15.3 --- --- 725.7 0.019 0.000 6.9 4 1
02/09/06 5:44 a -8.6 -8.6 -8.6 --- --- 8.7 SE 0.14 10.4 -15.3 --- --- 725.7 0.019 0.000 6.9 4 1
02/09/06 5:45 a -8.6 -8.6 -8.6 --- --- 7.8 SSE 0.13 8.7 -14.8 --- --- 725.8 0.019 0.000 6.9 4 1
02/09/06 5:46 a -8.4 -8.4 -8.4 --- --- 8.7 SSE 0.14 11.3 -15.1 --- --- 725.7 0.019 0.000 6.9 4 1
02/09/06 5:47 a -8.5 -8.4 -8.5 --- --- 8.7 S 0.14 10.4 -15.1 --- --- 725.7 0.019 0.000 6.8 4 1
02/09/06 5:48 a -8.6 -8.5 -8.6 --- --- 7.8 S 0.13 9.6 -14.8 --- --- 725.7 0.019 0.000 6.8 4 1
02/09/06 5:49 a -8.6 -8.5 -8.6 --- --- 7.0 S 0.12 8.7 -14.4 --- --- 725.8 0.019 0.000 6.8 4 1
02/09/06 5:50 a -8.5 -8.5 -8.5 --- --- 7.0 S 0.12 8.7 -14.3 --- --- 725.8 0.019 0.000 6.8 4 1
02/09/06 5:51 a -8.4 -8.4 -8.4 --- --- 5.2 S 0.09 7.0 -13.3 --- --- 725.8 0.019 0.000 6.8 4 1
02/09/06 5:52 a -8.4 -8.4 -8.4 --- --- 6.1 S 0.10 7.0 -13.8 --- --- 725.7 0.019 0.000 6.8 4 1
02/09/06 5:53 a -8.4 -8.4 -8.4 --- --- 7.0 SSE 0.12 8.7 -14.3 --- --- 725.8 0.019 0.000 6.8 4 1
02/09/06 5:54 a -8.4 -8.4 -8.4 --- --- 8.7 SE 0.14 10.4 -15.1 --- --- 725.7 0.019 0.000 6.8 4 1
02/09/06 5:55 a -8.4 -8.4 -8.4 --- --- 7.8 SSE 0.13 9.6 -14.7 --- --- 725.8 0.019 0.000 6.8 4 1
02/09/06 5:56 a -8.6 -8.5 -8.6 --- --- 7.8 SSE 0.13 8.7 -14.8 --- --- 725.8 0.019 0.000 6.8 4 1
02/09/06 5:57 a -8.6 -8.6 -8.6 --- --- 7.8 S 0.13 9.6 -14.8 --- --- 725.7 0.019 0.000 6.8 4 1
02/09/06 5:58 a -8.5 -8.5 -8.5 --- --- 7.8 SSW 0.13 8.7 -14.7 --- --- 725.8 0.019 0.000 6.8 4 1
02/09/06 5:59 a -8.6 -8.5 -8.6 --- --- 8.7 S 0.14 11.3 -15.2 --- --- 725.8 0.019 0.000 6.8 4 1
02/09/06 6:00 a -8.6 -8.6 -8.6 --- --- 7.8 SSW 0.13 10.4 -14.8 --- --- 725.8 0.019 0.000 6.8 4 1
02/09/06 6:01 a -8.5 -8.4 -8.5 --- --- 8.7 S 0.14 13.0 -15.1 --- --- 725.8 0.019 0.000 6.8 4 1
02/09/06 6:03 a -8.6 -8.6 -8.6 --- --- 9.6 S 0.16 10.4 -15.6 --- --- 725.8 0.019 0.000 6.8 4 1
02/09/06 6:04 a -8.6 -8.6 -8.7 --- --- 7.8 S 0.13 8.7 -14.9 --- --- 725.8 0.019 0.000 6.8 4 1
02/09/06 6:05 a -8.7 -8.7 -8.7 --- --- 8.7 SSE 0.14 11.3 -15.3 --- --- 725.8 0.019 0.000 6.8 4 1
02/09/06 6:06 a -8.7 -8.7 -8.7 --- --- 9.6 S 0.16 12.2 -15.8 --- --- 725.8 0.019 0.000 6.8 4 1
02/09/06 6:07 a -8.7 -8.7 -8.7 --- --- 9.6 S 0.16 10.4 -15.8 --- --- 725.8 0.019 0.000 6.8 4 1
02/09/06 6:08 a -8.6 -8.6 -8.7 --- --- 9.6 S 0.16 12.2 -15.6 --- --- 725.8 0.019 0.000 6.8 4 1
02/09/06 6:09 a -8.7 -8.7 -8.7 --- --- 11.3 S 0.19 13.9 -16.4 --- --- 725.7 0.019 0.000 6.9 4 1
02/09/06 6:10 a -8.8 -8.8 -8.9 --- --- 8.7 S 0.14 12.2 -15.6 --- --- 725.9 0.019 0.000 6.9 4 1
02/09/06 6:11 a -8.9 -8.9 -8.9 --- --- 7.8 SSE 0.13 9.6 -15.3 --- --- 725.8 0.019 0.000 6.9 4 1
02/09/06 6:12 a -8.9 -8.9 -8.9 --- --- 8.7 S 0.14 11.3 -15.7 --- --- 725.7 0.019 0.000 6.9 4 1
02/09/06 6:13 a -8.9 -8.9 -9.0 --- --- 11.3 S 0.19 12.2 -16.7 --- --- 725.7 0.019 0.000 6.9 4 1
02/09/06 6:14 a -9.1 -9.0 -9.1 --- --- 9.6 S 0.16 12.2 -16.2 --- --- 725.7 0.019 0.000 6.9 4 1
02/09/06 6:15 a -9.1 -9.1 -9.1 --- --- 7.8 S 0.13 9.6 -15.4 --- --- 725.8 0.019 0.000 6.9 4 1
02/09/06 6:16 a -9.0 -9.0 -9.1 --- --- 8.7 S 0.14 11.3 -15.8 --- --- 725.8 0.019 0.000 6.9 4 1
02/09/06 6:17 a -9.0 -9.0 -9.1 --- --- 8.7 S 0.14 11.3 -15.8 --- --- 725.8 0.019 0.000 6.9 4 1
02/09/06 6:18 a -9.1 -9.1 -9.1 --- --- 8.7 S 0.14 11.3 -15.8 --- --- 725.7 0.019 0.000 6.9 4 1
02/09/06 6:19 a -9.0 -8.9 -9.1 --- --- 7.0 SSE 0.12 7.8 -14.9 --- --- 725.8 0.019 0.000 6.9 4 1
02/09/06 6:20 a -8.9 -8.9 -8.9 --- --- 8.7 SSE 0.14 8.7 -15.7 --- --- 725.8 0.019 0.000 6.9 4 1
02/09/06 6:21 a -8.9 -8.9 -8.9 --- --- 8.7 S 0.14 9.6 -15.7 --- --- 725.8 0.019 0.000 6.9 4 1
02/09/06 6:22 a -9.0 -8.9 -9.0 --- --- 7.8 S 0.13 10.4 -15.4 --- --- 725.8 0.019 0.000 6.9 4 1
02/09/06 6:23 a -9.0 -9.0 -9.0 --- --- 5.2 SSW 0.09 7.8 -13.9 --- --- 725.8 0.019 0.000 6.9 4 1
02/09/06 6:24 a -9.0 -9.0 -9.0 --- --- 7.0 SSE 0.12 9.6 -14.9 --- --- 725.8 0.019 0.000 6.9 4 1
02/09/06 6:25 a -9.0 -9.0 -9.1 --- --- 8.7 S 0.14 10.4 -15.8 --- --- 725.7 0.019 0.000 6.9 4 1
02/09/06 6:26 a -9.1 -9.1 -9.1 --- --- 8.7 S 0.14 10.4 -15.8 --- --- 725.8 0.019 0.000 6.9 4 1
02/09/06 6:27 a -9.1 -9.1 -9.1 --- --- 7.0 S 0.12 9.6 -15.1 --- --- 725.9 0.019 0.000 6.9 4 1
02/09/06 6:28 a -9.1 -9.1 -9.1 --- --- 8.7 S 0.14 9.6 -15.9 --- --- 725.7 0.019 0.000 6.9 4 1
02/09/06 6:29 a -9.1 -9.1 -9.2 --- --- 7.8 SSE 0.13 8.7 -15.5 --- --- 725.9 0.019 0.000 6.9 4 1
02/09/06 6:30 a -9.2 -9.2 -9.2 --- --- 8.7 SSE 0.14 9.6 -15.9 --- --- 725.8 0.019 0.000 6.9 4 1
02/09/06 6:31 a -9.2 -9.2 -9.2 --- --- 7.8 SSE 0.13 9.6 -15.6 --- --- 725.9 0.019 0.000 6.9 4 1
02/09/06 6:32 a -9.2 -9.2 -9.2 --- --- 9.6 S 0.16 12.2 -16.3 --- --- 725.7 0.019 0.000 6.9 4 1
02/09/06 6:33 a -9.2 -9.1 -9.2 --- --- 9.6 SSE 0.16 12.2 -16.3 --- --- 725.8 0.019 0.000 6.9 4 1
02/09/06 6:34 a -9.2 -9.1 -9.2 --- --- 7.8 SSE 0.13 9.6 -15.6 --- --- 725.7 0.019 0.000 6.9 4 1
02/09/06 6:35 a -9.3 -9.2 -9.3 --- --- 7.0 SSE 0.12 8.7 -15.3 --- --- 725.7 0.019 0.000 6.9 4 1
02/09/06 6:36 a -9.2 -9.2 -9.2 --- --- 7.8 S 0.13 9.6 -15.6 --- --- 725.7 0.019 0.000 6.9 4 1
02/09/06 6:37 a -9.2 -9.2 -9.2 --- --- 7.8 SSE 0.13 9.6 -15.6 --- --- 725.8 0.019 0.000 6.9 4 1
02/09/06 6:38 a -9.2 -9.2 -9.2 --- --- 7.8 SSE 0.13 9.6 -15.6 --- --- 725.6 0.019 0.000 6.9 4 1
02/09/06 6:39 a -9.2 -9.2 -9.2 --- --- 7.8 SSE 0.13 9.6 -15.6 --- --- 725.7 0.019 0.000 6.9 4 1
02/09/06 6:40 a -9.2 -9.2 -9.2 --- --- 9.6 SSE 0.16 12.2 -16.4 --- --- 725.6 0.019 0.000 6.9 4 1
02/09/06 6:41 a -9.2 -9.2 -9.2 --- --- 9.6 SSE 0.16 12.2 -16.4 --- --- 725.7 0.019 0.000 6.8 4 1
02/09/06 6:42 a -9.2 -9.2 -9.2 --- --- 9.6 SSE 0.16 11.3 -16.4 --- --- 725.7 0.019 0.000 6.9 4 1
02/09/06 6:43 a -9.2 -9.2 -9.2 --- --- 8.7 SSE 0.14 10.4 -16.0 --- --- 725.6 0.019 0.000 6.9 4 1
02/09/06 6:44 a -9.2 -9.2 -9.3 --- --- 8.7 SSE 0.14 8.7 -16.0 --- --- 725.7 0.019 0.000 6.8 4 1
02/09/06 6:45 a -9.2 -9.2 -9.3 --- --- 8.7 SSE 0.14 9.6 -16.0 --- --- 725.6 0.019 0.000 6.8 4 1
02/09/06 6:46 a -9.2 -9.2 -9.2 --- --- 7.8 SSE 0.13 8.7 -15.6 --- --- 725.6 0.019 0.000 6.8 4 1
02/09/06 6:47 a -9.2 -9.2 -9.2 --- --- 9.6 SSE 0.16 11.3 -16.3 --- --- 725.6 0.019 0.000 6.8 4 1
02/09/06 6:48 a -9.2 -9.2 -9.2 --- --- 8.7 SSE 0.14 11.3 -16.0 --- --- 725.6 0.019 0.000 6.8 4 1
02/09/06 6:49 a -9.2 -9.2 -9.3 --- --- 11.3 SE 0.19 12.2 -17.1 --- --- 725.6 0.019 0.000 6.8 4 1
02/09/06 6:50 a -9.3 -9.3 -9.3 --- --- 12.2 SSE 0.20 13.0 -17.4 --- --- 725.7 0.019 0.000 6.8 4 1
02/09/06 6:51 a -9.3 -9.3 -9.3 --- --- 11.3 SSE 0.19 13.9 -17.1 --- --- 725.6 0.019 0.000 6.8 4 1
02/09/06 6:52 a -9.3 -9.3 -9.4 --- --- 8.7 SSE 0.14 10.4 -16.2 --- --- 725.6 0.019 0.000 6.8 4 1
02/09/06 6:53 a -9.4 -9.4 -9.4 --- --- 9.6 SE 0.16 11.3 -16.6 --- --- 725.6 0.019 0.000 6.8 4 1
02/09/06 6:54 a -9.4 -9.4 -9.4 --- --- 12.2 SSE 0.20 13.9 -17.6 --- --- 725.6 0.019 0.000 6.8 4 1
02/09/06 6:55 a -9.3 -9.3 -9.4 --- --- 9.6 SSE 0.16 12.2 -16.5 --- --- 725.7 0.019 0.000 6.8 4 1
02/09/06 6:56 a -9.3 -9.3 -9.4 --- --- 7.8 SSE 0.13 8.7 -15.8 --- --- 725.6 0.019 0.000 6.8 4 1
02/09/06 6:57 a -9.3 -9.3 -9.3 --- --- 8.7 SSE 0.14 9.6 -16.2 --- --- 725.7 0.019 0.000 6.8 4 1
02/09/06 6:58 a -9.3 -9.3 -9.3 --- --- 8.7 SE 0.14 9.6 -16.2 --- --- 725.6 0.019 0.000 6.8 4 1
02/09/06 6:59 a -9.3 -9.3 -9.3 --- --- 9.6 SE 0.16 10.4 -16.5 --- --- 725.6 0.019 0.000 6.8 4 1
02/09/06 7:00 a -9.3 -9.3 -9.3 --- --- 8.7 SE 0.14 10.4 -16.2 --- --- 725.5 0.019 0.000 6.8 4 1
02/09/06 7:01 a -9.3 -9.3 -9.3 --- --- 9.6 SE 0.16 12.2 -16.4 --- --- 725.6 0.019 0.000 6.8 4 1
02/09/06 7:02 a -9.3 -9.3 -9.3 --- --- 9.6 SE 0.16 10.4 -16.5 --- --- 725.5 0.019 0.000 6.8 4 1
02/09/06 7:03 a -9.3 -9.3 -9.3 --- --- 9.6 SE 0.16 10.4 -16.4 --- --- 725.4 0.019 0.000 6.8 4 1
02/09/06 7:04 a -9.3 -9.3 -9.3 --- --- 9.6 SE 0.16 10.4 -16.5 --- --- 725.4 0.019 0.000 6.8 4 1
02/09/06 7:05 a -9.3 -9.3 -9.3 --- --- 10.4 SE 0.17 13.0 -16.8 --- --- 725.5 0.019 0.000 6.8 4 1
02/09/06 7:06 a -9.3 -9.3 -9.3 --- --- 9.6 SE 0.16 9.6 -16.5 --- --- 725.4 0.019 0.000 6.8 4 1
02/09/06 7:07 a -9.3 -9.3 -9.3 --- --- 9.6 SE 0.16 10.4 -16.5 --- --- 725.3 0.019 0.000 6.9 4 1
02/09/06 7:08 a -9.3 -9.3 -9.3 --- --- 8.7 SE 0.14 9.6 -16.1 --- --- 725.5 0.019 0.000 6.9 4 1
02/09/06 7:09 a -9.2 -9.2 -9.3 --- --- 8.7 SE 0.14 8.7 -16.0 --- --- 725.4 0.019 0.000 6.9 4 1
02/09/06 7:10 a -9.2 -9.2 -9.2 --- --- 7.8 SE 0.13 8.7 -15.6 --- --- 725.4 0.019 0.000 6.9 4 1
02/09/06 7:11 a -9.2 -9.2 -9.2 --- --- 8.7 SE 0.14 8.7 -15.9 --- --- 725.4 0.019 0.000 6.9 4 1
02/09/06 7:12 a -9.2 -9.2 -9.2 --- --- 8.7 SE 0.14 9.6 -15.9 --- --- 725.4 0.019 0.000 6.9 4 1
02/09/06 7:13 a -9.2 -9.2 -9.2 --- --- 9.6 SE 0.16 10.4 -16.4 --- --- 725.5 0.019 0.000 6.9 4 1
02/09/06 7:14 a -9.2 -9.2 -9.2 --- --- 7.8 SE 0.13 10.4 -15.6 --- --- 725.5 0.019 0.000 6.9 4 1
02/09/06 7:15 a -9.2 -9.1 -9.2 --- --- 8.7 SE 0.14 9.6 -15.9 --- --- 725.5 0.019 0.000 6.9 4 1
02/09/06 7:16 a -9.2 -9.2 -9.2 --- --- 8.7 SE 0.14 9.6 -15.9 --- --- 725.5 0.019 0.000 6.9 4 1
02/09/06 7:17 a -9.2 -9.2 -9.2 --- --- 9.6 SE 0.16 10.4 -16.3 --- --- 725.6 0.019 0.000 6.9 4 1
02/09/06 7:18 a -9.1 -9.1 -9.2 --- --- 9.6 SE 0.16 10.4 -16.2 --- --- 725.5 0.019 0.000 6.9 4 1
02/09/06 7:19 a -9.2 -9.2 -9.2 --- --- 9.6 SE 0.16 10.4 -16.3 --- --- 725.5 0.019 0.000 6.9 4 1
02/09/06 7:20 a -9.1 -9.1 -9.1 --- --- 8.7 SE 0.14 10.4 -15.9 --- --- 725.6 0.019 0.000 6.9 4 1
02/09/06 7:21 a -9.1 -9.0 -9.1 --- --- 8.7 SE 0.14 9.6 -15.8 --- --- 725.5 0.019 0.000 6.9 4 1
02/09/06 7:22 a -9.0 -9.0 -9.0 --- --- 8.7 SE 0.14 9.6 -15.8 --- --- 725.6 0.019 0.000 6.9 4 1
02/09/06 7:23 a -8.9 -8.9 -8.9 --- --- 8.7 SE 0.14 9.6 -15.7 --- --- 725.4 0.019 0.000 6.9 4 1
02/09/06 7:24 a -8.8 -8.8 -8.9 --- --- 7.8 ESE 0.13 8.7 -15.2 --- --- 725.5 0.019 0.000 6.9 4 1
02/09/06 7:25 a -8.8 -8.7 -8.8 --- --- 7.8 ESE 0.13 8.7 -15.1 --- --- 725.5 0.019 0.000 6.9 4 1
02/09/06 7:26 a -8.7 -8.7 -8.7 --- --- 7.8 SE 0.13 8.7 -15.0 --- --- 725.5 0.019 0.000 6.9 4 1
02/09/06 7:27 a -8.7 -8.7 -8.8 --- --- 7.8 ESE 0.13 8.7 -15.0 --- --- 725.5 0.019 0.000 6.9 4 1
02/09/06 7:28 a -8.7 -8.7 -8.7 --- --- 9.6 ESE 0.16 11.3 -15.8 --- --- 725.5 0.019 0.000 6.9 4 1
02/09/06 7:29 a -8.7 -8.7 -8.7 --- --- 9.6 ESE 0.16 11.3 -15.7 --- --- 725.5 0.019 0.000 6.9 4 1
02/09/06 7:30 a -8.7 -8.7 -8.7 --- --- 9.6 ESE 0.16 10.4 -15.7 --- --- 725.4 0.019 0.000 6.9 4 1
02/09/06 7:31 a -8.7 -8.7 -8.7 --- --- 9.6 ESE 0.16 10.4 -15.7 --- --- 725.5 0.019 0.000 6.9 4 1
02/09/06 7:32 a -8.6 -8.6 -8.6 --- --- 9.6 ESE 0.16 10.4 -15.6 --- --- 725.5 0.019 0.000 6.9 4 1
02/09/06 7:33 a -8.6 -8.5 -8.6 --- --- 8.7 ESE 0.14 10.4 -15.2 --- --- 725.5 0.019 0.000 6.9 4 1
02/09/06 7:34 a -8.5 -8.5 -8.5 --- --- 9.6 ESE 0.16 10.4 -15.5 --- --- 725.5 0.019 0.000 6.9 4 1
02/09/06 7:35 a -8.5 -8.5 -8.6 --- --- 9.6 ESE 0.16 10.4 -15.5 --- --- 725.5 0.019 0.000 6.9 4 1
02/09/06 7:36 a -8.6 -8.6 -8.6 --- --- 8.7 ESE 0.14 10.4 -15.2 --- --- 725.5 0.019 0.000 6.9 4 1
02/09/06 7:37 a -8.6 -8.5 -8.6 --- --- 9.6 ESE 0.16 10.4 -15.6 --- --- 725.5 0.019 0.000 6.9 4 1
02/09/06 7:38 a -8.4 -8.4 -8.5 --- --- 9.6 ESE 0.16 9.6 -15.4 --- --- 725.4 0.019 0.000 6.9 4 1
02/09/06 7:39 a -8.3 -8.3 -8.4 --- --- 9.6 ESE 0.16 11.3 -15.3 --- --- 725.4 0.019 0.000 6.9 4 1
02/09/06 7:40 a -8.3 -8.2 -8.3 --- --- 9.6 E 0.16 10.4 -15.2 --- --- 725.4 0.018 0.000 6.9 4 1
02/09/06 7:41 a -8.2 -8.2 -8.2 --- --- 10.4 E 0.17 11.3 -15.4 --- --- 725.4 0.018 0.000 6.9 4 1
02/09/06 7:42 a -8.2 -8.2 -8.2 --- --- 8.7 E 0.14 10.4 -14.7 --- --- 725.4 0.018 0.000 6.9 4 1
02/09/06 7:43 a -8.2 -8.2 -8.2 --- --- 9.6 E 0.16 10.4 -15.1 --- --- 725.4 0.018 0.000 6.9 4 1
02/09/06 7:44 a -8.2 -8.2 -8.2 --- --- 8.7 E 0.14 10.4 -14.8 --- --- 725.4 0.018 0.000 6.9 4 1
02/09/06 7:45 a -8.1 -8.1 -8.2 --- --- 7.8 E 0.13 10.4 -14.3 --- --- 725.4 0.018 0.000 6.9 4 1
02/09/06 7:46 a -8.1 -8.1 -8.1 --- --- 6.1 E 0.10 10.4 -13.3 --- --- 725.4 0.018 0.000 6.9 4 1
02/09/06 7:47 a -8.2 -8.1 -8.2 --- --- 7.8 E 0.13 9.6 -14.3 --- --- 725.4 0.018 0.000 6.9 4 1
02/09/06 7:48 a -8.3 -8.2 -8.3 --- --- 8.7 E 0.14 10.4 -14.8 --- --- 725.4 0.018 0.000 6.9 4 1
02/09/06 7:49 a -8.3 -8.3 -8.4 --- --- 7.8 E 0.13 10.4 -14.6 --- --- 725.4 0.019 0.000 6.9 4 1
02/09/06 7:50 a -8.4 -8.4 -8.4 --- --- 6.1 E 0.10 7.8 -13.8 --- --- 725.4 0.019 0.000 6.9 4 1
02/09/06 7:51 a -8.6 -8.4 -8.6 --- --- 7.0 E 0.12 8.7 -14.4 --- --- 725.5 0.019 0.000 6.9 4 1
02/09/06 7:52 a -8.7 -8.6 -8.7 --- --- 7.0 E 0.12 9.6 -14.6 --- --- 725.4 0.019 0.000 6.9 4 1
02/09/06 7:53 a -8.7 -8.7 -8.8 --- --- 7.0 E 0.12 9.6 -14.6 --- --- 725.5 0.019 0.000 6.9 4 1
02/09/06 7:54 a -8.8 -8.8 -8.9 --- --- 7.0 E 0.12 7.8 -14.7 --- --- 725.4 0.019 0.000 6.9 4 1
02/09/06 7:55 a -8.9 -8.9 -8.9 --- --- 7.0 E 0.12 8.7 -14.8 --- --- 725.5 0.019 0.000 6.9 4 1
02/09/06 7:56 a -9.0 -8.9 -9.1 --- --- 7.0 E 0.12 9.6 -14.9 --- --- 725.4 0.019 0.000 6.9 4 1
02/09/06 7:57 a -9.1 -9.1 -9.2 --- --- 7.0 E 0.12 8.7 -15.1 --- --- 725.4 0.019 0.000 6.9 4 1
02/09/06 7:58 a -9.2 -9.2 -9.2 --- --- 6.1 E 0.10 8.7 -14.7 --- --- 725.5 0.019 0.000 6.8 4 1
02/09/06 7:59 a -9.2 -9.2 -9.3 --- --- 7.0 E 0.12 8.7 -15.2 --- --- 725.5 0.019 0.000 6.8 4 1
02/09/06 8:00 a -9.3 -9.3 -9.3 --- --- 7.8 ESE 0.13 10.4 -15.7 --- --- 725.6 0.019 0.000 6.8 4 1
02/09/06 8:01 a -9.3 -9.3 -9.3 --- --- 7.8 ESE 0.13 8.7 -15.7 --- --- 725.6 0.019 0.000 6.8 4 1
02/09/06 8:02 a -9.3 -9.3 -9.3 --- --- 7.8 E 0.13 8.7 -15.7 --- --- 725.6 0.019 0.000 6.9 4 1
02/09/06 8:03 a -9.3 -9.3 -9.3 --- --- 7.0 ESE 0.12 7.8 -15.3 --- --- 725.5 0.019 0.000 6.9 4 1
02/09/06 8:04 a -9.3 -9.3 -9.3 --- --- 6.1 E 0.10 8.7 -14.8 --- --- 725.5 0.019 0.000 6.9 4 1
02/09/06 8:05 a -9.3 -9.3 -9.3 --- --- 5.2 E 0.09 7.0 -14.3 --- --- 725.5 0.019 0.000 6.9 4 1
02/09/06 8:06 a -9.3 -9.3 -9.3 --- --- 5.2 E 0.09 7.8 -14.3 --- --- 725.5 0.019 0.000 6.9 4 1
02/09/06 8:07 a -9.3 -9.3 -9.3 --- --- 6.1 E 0.10 7.0 -14.8 --- --- 725.5 0.019 0.000 6.9 4 1
02/09/06 8:08 a -9.3 -9.3 -9.4 --- --- 7.0 E 0.12 8.7 -15.3 --- --- 725.6 0.019 0.000 6.9 4 1
02/09/06 8:09 a -9.4 -9.4 -9.4 --- --- 8.7 E 0.14 8.7 -16.2 --- --- 725.6 0.019 0.000 6.9 4 1
02/09/06 8:10 a -9.5 -9.4 -9.6 --- --- 8.7 ENE 0.14 10.4 -16.4 --- --- 725.6 0.019 0.000 6.9 4 1
02/09/06 8:11 a -9.6 -9.6 -9.6 --- --- 7.8 E 0.13 9.6 -16.1 --- --- 725.6 0.019 0.000 6.9 4 1
02/09/06 8:12 a -9.7 -9.7 -9.8 --- --- 7.0 E 0.12 8.7 -15.8 --- --- 725.6 0.019 0.000 6.9 4 1
02/09/06 8:13 a -9.8 -9.8 -9.8 --- --- 7.8 E 0.13 9.6 -16.3 --- --- 725.5 0.020 0.000 6.9 4 1
02/09/06 8:14 a -9.8 -9.8 -9.9 --- --- 8.7 E 0.14 10.4 -16.8 --- --- 725.6 0.020 0.000 6.9 4 1
02/09/06 8:15 a -9.9 -9.9 -9.9 --- --- 7.8 E 0.13 11.3 -16.5 --- --- 725.5 0.020 0.000 6.9 4 1
02/09/06 8:16 a -9.9 -9.9 -10.0 --- --- 8.7 E 0.14 9.6 -16.9 --- --- 725.5 0.020 0.000 6.9 4 1
02/09/06 8:17 a -10.1 -10.0 -10.1 --- --- 8.7 E 0.14 10.4 -17.1 --- --- 725.5 0.020 0.000 6.9 4 1
02/09/06 8:18 a -10.1 -10.1 -10.2 --- --- 7.8 E 0.13 9.6 -16.7 --- --- 725.6 0.020 0.000 6.9 4 1
02/09/06 8:19 a -10.2 -10.2 -10.2 --- --- 6.1 E 0.10 7.8 -15.9 --- --- 725.4 0.020 0.000 6.9 4 1
02/09/06 8:20 a -10.2 -10.2 -10.2 --- --- 6.1 E 0.10 9.6 -15.9 --- --- 725.4 0.020 0.000 6.9 4 1
02/09/06 8:21 a -10.2 -10.2 -10.2 --- --- 7.0 E 0.12 9.6 -16.3 --- --- 725.4 0.020 0.000 6.9 4 1
02/09/06 8:22 a -10.2 -10.2 -10.2 --- --- 6.1 E 0.10 8.7 -15.9 --- --- 725.4 0.020 0.000 6.9 4 1
02/09/06 8:23 a -10.2 -10.2 -10.2 --- --- 8.7 ENE 0.14 9.6 -17.3 --- --- 725.4 0.020 0.000 6.9 4 1
02/09/06 8:24 a -10.2 -10.2 -10.2 --- --- 9.6 ENE 0.16 11.3 -17.6 --- --- 725.5 0.020 0.000 6.9 4 1
02/09/06 8:25 a -10.2 -10.2 -10.2 --- --- 8.7 ENE 0.14 9.6 -17.2 --- --- 725.4 0.020 0.000 6.9 4 1
02/09/06 8:26 a -10.2 -10.2 -10.2 --- --- 8.7 ENE 0.14 9.6 -17.2 --- --- 725.5 0.020 0.000 6.9 4 1
02/09/06 8:27 a -10.2 -10.2 -10.2 --- --- 8.7 ENE 0.14 10.4 -17.2 --- --- 725.5 0.020 0.000 6.9 4 1
02/09/06 8:28 a -10.2 -10.1 -10.2 --- --- 7.8 ENE 0.13 7.8 -16.8 --- --- 725.5 0.020 0.000 6.9 4 1
02/09/06 8:29 a -10.1 -10.1 -10.1 --- --- 7.0 ENE 0.12 8.7 -16.3 --- --- 725.4 0.020 0.000 6.9 4 1
02/09/06 8:30 a -10.1 -10.1 -10.1 --- --- 7.0 ENE 0.12 8.7 -16.3 --- --- 725.5 0.020 0.000 6.9 4 1
02/09/06 8:31 a -10.1 -10.1 -10.1 --- --- 7.0 ENE 0.12 7.8 -16.3 --- --- 725.4 0.020 0.000 6.9 4 1
02/09/06 8:32 a -10.1 -10.1 -10.1 --- --- 8.7 ENE 0.14 9.6 -17.1 --- --- 725.4 0.020 0.000 6.9 4 1
02/09/06 8:33 a -10.1 -10.1 -10.1 --- --- 7.8 NE 0.13 9.6 -16.7 --- --- 725.3 0.020 0.000 6.9 4 1
02/09/06 8:34 a -10.1 -10.1 -10.1 --- --- 7.8 NE 0.13 8.7 -16.7 --- --- 725.4 0.020 0.000 6.9 4 1
02/09/06 8:35 a -10.1 -10.1 -10.1 --- --- 8.7 ENE 0.14 9.6 -17.1 --- --- 725.4 0.020 0.000 6.9 4 1
02/09/06 8:36 a -10.1 -10.1 -10.1 --- --- 7.8 ENE 0.13 9.6 -16.7 --- --- 725.4 0.020 0.000 6.9 4 1
02/09/06 8:37 a -10.1 -10.1 -10.1 --- --- 8.7 ENE 0.14 9.6 -17.1 --- --- 725.4 0.020 0.000 6.9 4 1
02/09/06 8:38 a -10.1 -10.0 -10.1 --- --- 8.7 ENE 0.14 9.6 -17.1 --- --- 725.4 0.020 0.000 6.9 4 1
02/09/06 8:39 a -10.0 -10.0 -10.0 --- --- 7.8 NE 0.13 9.6 -16.6 --- --- 725.4 0.020 0.000 6.9 4 1
02/09/06 8:40 a -10.0 -10.0 -10.0 --- --- 7.8 NE 0.13 9.6 -16.6 --- --- 725.4 0.020 0.000 6.9 4 1
02/09/06 8:41 a -10.0 -10.0 -10.0 --- --- 7.0 NE 0.12 7.8 -16.2 --- --- 725.4 0.020 0.000 6.9 4 1
02/09/06 8:42 a -10.0 -10.0 -10.0 --- --- 6.1 NE 0.10 7.0 -15.7 --- --- 725.4 0.020 0.000 6.9 4 1
02/09/06 8:43 a -10.0 -9.9 -10.0 --- --- 7.0 NE 0.12 7.8 -16.2 --- --- 725.4 0.020 0.000 6.9 4 1
02/09/06 8:44 a -9.9 -9.9 -10.0 --- --- 6.1 NE 0.10 7.8 -15.6 --- --- 725.4 0.020 0.000 6.9 4 1
02/09/06 8:45 a -9.9 -9.9 -9.9 --- --- 7.0 NE 0.12 7.8 -16.0 --- --- 725.5 0.020 0.000 6.8 4 1
02/09/06 8:46 a -9.9 -9.9 -9.9 --- --- 7.0 NE 0.12 7.8 -16.0 --- --- 725.5 0.020 0.000 6.8 4 1
02/09/06 8:47 a -9.9 -9.8 -9.9 --- --- 6.1 NE 0.10 7.0 -15.6 --- --- 725.5 0.020 0.000 6.8 4 1
02/09/06 8:48 a -9.8 -9.8 -9.8 --- --- 7.0 NE 0.12 7.8 -15.9 --- --- 725.5 0.020 0.000 6.8 4 1
02/09/06 8:49 a -9.8 -9.8 -9.8 --- --- 6.1 NE 0.10 7.0 -15.4 --- --- 725.5 0.020 0.000 6.8 5 1
02/09/06 8:50 a -9.8 -9.8 -9.8 --- --- 6.1 NE 0.10 7.0 -15.4 --- --- 725.4 0.020 0.000 6.8 4 1
02/09/06 8:51 a -9.8 -9.8 -9.8 --- --- 7.0 NE 0.12 7.8 -15.9 --- --- 725.5 0.020 0.000 6.8 4 1
02/09/06 8:52 a -9.7 -9.7 -9.7 --- --- 6.1 NE 0.10 7.0 -15.3 --- --- 725.5 0.019 0.000 6.8 4 1
02/09/06 8:53 a -9.7 -9.7 -9.7 --- --- 6.1 NE 0.10 7.0 -15.3 --- --- 725.5 0.019 0.000 6.8 4 1
02/09/06 8:54 a -9.6 -9.6 -9.7 --- --- 7.0 NE 0.12 7.0 -15.7 --- --- 725.4 0.019 0.000 6.8 4 1
02/09/06 8:55 a -9.6 -9.6 -9.6 --- --- 6.1 NE 0.10 7.0 -15.1 --- --- 725.4 0.019 0.000 6.8 4 1
02/09/06 8:56 a -9.5 -9.5 -9.6 --- --- 6.1 NE 0.10 7.0 -15.1 --- --- 725.4 0.019 0.000 6.8 5 1
02/09/06 8:57 a -9.5 -9.5 -9.5 --- --- 6.1 NE 0.10 7.0 -15.1 --- --- 725.4 0.019 0.000 6.8 4 1
02/09/06 8:58 a -9.4 -9.4 -9.4 --- --- 7.0 NE 0.12 7.8 -15.5 --- --- 725.4 0.019 0.000 6.8 4 1
02/09/06 8:59 a -9.4 -9.4 -9.4 --- --- 7.0 NE 0.12 7.8 -15.5 --- --- 725.4 0.019 0.000 6.8 4 1
02/09/06 9:00 a -9.4 -9.3 -9.4 --- --- 6.1 NE 0.10 7.0 -14.9 --- --- 725.4 0.019 0.000 6.8 4 1
02/09/06 9:01 a -9.3 -9.3 -9.3 --- --- 5.2 NE 0.09 6.1 -14.3 --- --- 725.4 0.019 0.000 6.8 4 1
02/09/06 9:02 a -9.2 -9.2 -9.2 --- --- 6.1 NE 0.10 7.0 -14.7 --- --- 725.3 0.019 0.000 6.8 4 1
02/09/06 9:03 a -9.1 -8.9 -9.1 --- --- 7.0 NE 0.12 7.8 -15.0 --- --- 725.4 0.019 0.000 6.8 5 1
02/09/06 9:04 a -8.9 -8.8 -8.9 --- --- 6.1 NE 0.10 7.0 -14.3 --- --- 725.4 0.019 0.000 6.8 4 1
02/09/06 9:05 a -8.7 -8.6 -8.8 --- --- 7.0 NE 0.12 7.8 -14.6 --- --- 725.3 0.019 0.000 6.8 4 1
02/09/06 9:06 a -8.6 -8.6 -8.6 --- --- 7.0 NE 0.12 7.8 -14.4 --- --- 725.4 0.019 0.000 6.8 4 1
02/09/06 9:07 a -8.6 -8.6 -8.7 --- --- 6.1 NE 0.10 7.0 -14.0 --- --- 725.4 0.019 0.000 6.8 4 1
02/09/06 9:08 a -8.7 -8.7 -8.7 --- --- 7.0 NE 0.12 7.8 -14.6 --- --- 725.4 0.019 0.000 6.8 4 1
02/09/06 9:09 a -8.7 -8.7 -8.7 --- --- 7.8 NE 0.13 8.7 -15.0 --- --- 725.3 0.019 0.000 6.8 4 1
02/09/06 9:10 a -8.7 -8.7 -8.7 --- --- 7.0 NE 0.12 7.8 -14.6 --- --- 725.4 0.019 0.000 6.8 4 1
02/09/06 9:11 a -8.7 -8.7 -8.7 --- --- 7.0 NE 0.12 7.8 -14.6 --- --- 725.4 0.019 0.000 6.8 5 1
02/09/06 9:12 a -8.7 -8.7 -8.7 --- --- 7.0 NE 0.12 7.8 -14.6 --- --- 725.3 0.019 0.000 6.8 4 1
02/09/06 9:13 a -8.7 -8.6 -8.7 --- --- 7.0 NE 0.12 8.7 -14.6 --- --- 725.3 0.019 0.000 6.9 5 1
02/09/06 9:14 a -8.7 -8.6 -8.7 --- --- 7.8 NE 0.13 8.7 -14.9 --- --- 725.4 0.019 0.000 6.9 5 1
02/09/06 9:15 a -8.7 -8.7 -8.7 --- --- 7.8 ENE 0.13 8.7 -14.9 --- --- 725.4 0.019 0.000 6.9 4 1
02/09/06 9:16 a -8.7 -8.7 -8.8 --- --- 7.8 ENE 0.13 8.7 -15.0 --- --- 725.4 0.019 0.000 6.9 4 1
02/09/06 9:17 a -8.8 -8.8 -8.9 --- --- 7.8 NE 0.13 8.7 -15.2 --- --- 725.3 0.019 0.000 6.9 5 1
02/09/06 9:18 a -9.0 -8.9 -9.0 --- --- 7.8 NE 0.13 8.7 -15.4 --- --- 725.3 0.019 0.000 6.9 5 1
02/09/06 9:19 a -9.1 -9.0 -9.1 --- --- 7.8 NE 0.13 9.6 -15.4 --- --- 725.4 0.019 0.000 6.9 5 1
02/09/06 9:20 a -9.2 -9.1 -9.2 --- --- 8.7 ENE 0.14 8.7 -15.9 --- --- 725.4 0.019 0.000 6.9 5 1
02/09/06 9:21 a -9.3 -9.2 -9.3 --- --- 7.8 ENE 0.13 8.7 -15.7 --- --- 725.4 0.019 0.000 6.9 5 1
02/09/06 9:22 a -9.3 -9.3 -9.3 --- --- 8.7 ENE 0.14 8.7 -16.2 --- --- 725.3 0.019 0.000 6.9 5 1
02/09/06 9:23 a -9.3 -9.3 -9.3 --- --- 7.8 ENE 0.13 9.6 -15.8 --- --- 725.3 0.019 0.000 6.9 5 1
02/09/06 9:24 a -9.3 -9.3 -9.4 --- --- 7.8 NE 0.13 8.7 -15.8 --- --- 725.4 0.019 0.000 6.9 5 1
02/09/06 9:25 a -9.4 -9.4 -9.4 --- --- 7.8 NE 0.13 8.7 -15.8 --- --- 725.3 0.019 0.000 6.9 5 1
02/09/06 9:26 a -9.4 -9.4 -9.5 --- --- 7.8 NE 0.13 8.7 -15.9 --- --- 725.4 0.019 0.000 6.9 5 1
02/09/06 9:27 a -9.6 -9.6 -9.6 --- --- 7.0 ENE 0.12 7.8 -15.6 --- --- 725.3 0.019 0.000 6.9 5 1
02/09/06 9:28 a -9.7 -9.6 -9.7 --- --- 7.0 NE 0.12 7.8 -15.7 --- --- 725.3 0.019 0.000 6.9 5 1
02/09/06 9:29 a -9.7 -9.7 -9.7 --- --- 6.1 ENE 0.10 7.0 -15.3 --- --- 725.3 0.019 0.000 6.9 5 1
02/09/06 9:30 a -9.8 -9.7 -9.8 --- --- 6.1 NE 0.10 7.0 -15.4 --- --- 725.3 0.020 0.000 6.9 5 1
02/09/06 9:31 a -9.9 -9.8 -9.9 --- --- 6.1 NE 0.10 7.0 -15.6 --- --- 725.3 0.020 0.000 6.9 4 1
02/09/06 9:32 a -9.9 -9.9 -10.0 --- --- 6.1 NE 0.10 7.0 -15.6 --- --- 725.3 0.020 0.000 6.9 5 1
02/09/06 9:33 a -10.0 -10.0 -10.1 --- --- 6.1 NE 0.10 7.0 -15.7 --- --- 725.3 0.020 0.000 6.9 5 1
02/09/06 9:34 a -10.1 -10.1 -10.2 --- --- 5.2 NE 0.09 7.0 -15.2 --- --- 725.2 0.020 0.000 6.9 5 1
02/09/06 9:35 a -10.2 -10.2 -10.2 --- --- 5.2 NE 0.09 7.0 -15.3 --- --- 725.2 0.020 0.000 6.9 5 1
02/09/06 9:36 a -10.3 -10.2 -10.3 --- --- 7.8 NE 0.13 8.7 -16.9 --- --- 725.2 0.020 0.000 6.9 5 1
02/09/06 9:37 a -10.3 -10.3 -10.3 --- --- 7.0 NE 0.12 7.8 -16.5 --- --- 725.3 0.020 0.000 6.9 4 1
02/09/06 9:38 a -10.3 -10.3 -10.3 --- --- 7.0 NE 0.12 7.8 -16.5 --- --- 725.2 0.020 0.000 6.9 4 1
02/09/06 9:39 a -10.3 -10.3 -10.3 --- --- 7.0 NE 0.12 7.8 -16.5 --- --- 725.2 0.020 0.000 6.8 5 1
02/09/06 9:40 a -10.3 -10.3 -10.3 --- --- 6.1 NE 0.10 7.8 -16.1 --- --- 725.3 0.020 0.000 6.8 5 1
02/09/06 9:41 a -10.3 -10.3 -10.3 --- --- 5.2 NE 0.09 6.1 -15.5 --- --- 725.3 0.020 0.000 6.8 5 1
02/09/06 9:42 a -10.3 -10.3 -10.3 --- --- 6.1 NE 0.10 7.0 -16.0 --- --- 725.2 0.020 0.000 6.8 5 1
02/09/06 9:43 a -10.3 -10.3 -10.3 --- --- 7.8 NE 0.13 7.8 -17.0 --- --- 725.3 0.020 0.000 6.8 5 1
02/09/06 9:44 a -10.3 -10.3 -10.3 --- --- 6.1 NE 0.10 7.8 -16.1 --- --- 725.2 0.020 0.000 6.8 5 1
02/09/06 9:45 a -10.4 -10.3 -10.4 --- --- 5.2 NE 0.09 7.0 -15.6 --- --- 725.2 0.020 0.000 6.8 5 1
02/09/06 9:46 a -10.4 -10.4 -10.4 --- --- 4.3 NE 0.07 6.1 -14.9 --- --- 725.2 0.020 0.000 6.8 5 1
02/09/06 9:47 a -10.4 -10.3 -10.4 --- --- 6.1 NE 0.10 7.0 -16.1 --- --- 725.1 0.020 0.000 6.8 5 1
02/09/06 9:48 a -10.4 -10.4 -10.4 --- --- 7.0 NE 0.12 8.7 -16.6 --- --- 725.2 0.020 0.000 6.8 5 1
02/09/06 9:49 a -10.4 -10.4 -10.4 --- --- 6.1 NE 0.10 7.0 -16.1 --- --- 725.1 0.020 0.000 6.8 5 1
02/09/06 9:50 a -10.4 -10.4 -10.4 --- --- 6.1 NE 0.10 7.8 -16.1 --- --- 725.2 0.020 0.000 6.8 5 1
02/09/06 9:51 a -10.4 -10.4 -10.4 --- --- 6.1 NE 0.10 7.8 -16.1 --- --- 725.1 0.020 0.000 6.8 4 1
02/09/06 9:52 a -10.4 -10.4 -10.5 --- --- 7.8 NE 0.13 8.7 -17.1 --- --- 725.1 0.020 0.000 6.8 4 1
02/09/06 9:53 a -10.5 -10.5 -10.5 --- --- 7.0 NE 0.12 7.8 -16.8 --- --- 725.1 0.020 0.000 6.8 4 1
02/09/06 9:54 a -10.6 -10.5 -10.6 --- --- 5.2 NE 0.09 7.0 -15.8 --- --- 725.1 0.020 0.000 6.8 4 1
02/09/06 9:55 a -10.6 -10.5 -10.6 --- --- 5.2 NNE 0.09 6.1 -15.8 --- --- 725.1 0.020 0.000 6.8 5 1
02/09/06 9:56 a -10.5 -10.5 -10.6 --- --- 5.2 NNE 0.09 7.8 -15.7 --- --- 725.1 0.020 0.000 6.7 4 1
02/09/06 9:57 a -10.5 -10.4 -10.5 --- --- 5.2 NNE 0.09 6.1 -15.7 --- --- 725.1 0.020 0.000 6.7 5 1
02/09/06 9:58 a -10.4 -10.4 -10.4 --- --- 4.3 NNE 0.07 6.1 -15.0 --- --- 725.2 0.020 0.000 6.7 4 1
02/09/06 9:59 a -10.4 -10.3 -10.4 --- --- 4.3 NNE 0.07 5.2 -14.9 --- --- 725.0 0.020 0.000 6.7 4 1
02/09/06 10:00 a -10.3 -10.3 -10.3 --- --- 4.3 NNE 0.07 5.2 -14.9 --- --- 725.1 0.020 0.000 6.7 5 1
02/09/06 10:01 a -10.3 -10.2 -10.3 --- --- 3.5 NNE 0.06 6.1 -14.1 --- --- 725.1 0.020 0.000 6.7 5 1
02/09/06 10:02 a -10.2 -10.1 -10.2 --- --- 3.5 NNE 0.06 4.3 -13.9 --- --- 725.1 0.020 0.000 6.7 5 1
02/09/06 10:03 a -10.1 -10.1 -10.1 --- --- 2.6 N 0.04 3.5 -12.9 --- --- 725.1 0.020 0.000 6.8 4 1
02/09/06 10:04 a -10.2 -10.1 -10.2 --- --- 2.6 N 0.04 4.3 -13.0 --- --- 725.1 0.020 0.000 6.8 4 1
02/09/06 10:05 a -10.2 -10.2 -10.3 --- --- 1.7 N 0.03 2.6 -11.8 --- --- 725.0 0.020 0.000 6.8 4 1
02/09/06 10:06 a -10.3 -10.3 -10.4 --- --- 1.7 N 0.03 2.6 -11.9 --- --- 725.0 0.020 0.000 6.8 5 1
02/09/06 10:07 a -10.4 -10.4 -10.4 --- --- 1.7 N 0.03 2.6 -12.0 --- --- 725.0 0.020 0.000 6.8 5 1
02/09/06 10:08 a -10.4 -10.4 -10.4 --- --- 0.9 N 0.01 1.7 -10.4 --- --- 725.0 0.020 0.000 6.8 5 1
02/09/06 10:09 a -10.5 -10.4 -10.5 --- --- 0.0 N 0.00 0.9 -10.5 --- --- 725.0 0.020 0.000 6.8 5 1
02/09/06 10:10 a -10.5 -10.5 -10.6 --- --- 1.7 N 0.03 1.7 -12.1 --- --- 725.0 0.020 0.000 6.8 4 1
02/09/06 10:11 a -10.6 -10.6 -10.6 --- --- 0.9 N 0.01 1.7 -10.6 --- --- 725.0 0.020 0.000 6.8 4 1
02/09/06 10:12 a -10.7 -10.7 -10.7 --- --- 0.9 N 0.01 0.9 -10.7 --- --- 725.1 0.020 0.000 6.8 4 1
02/09/06 10:13 a -10.7 -10.7 -10.7 --- --- 0.0 --- 0.00 0.9 -10.7 --- --- 725.0 0.020 0.000 6.8 4 1
02/09/06 10:14 a -10.7 -10.7 -10.7 --- --- 0.0 N 0.00 0.9 -10.7 --- --- 725.0 0.020 0.000 6.8 5 1
02/09/06 10:15 a -10.7 -10.7 -10.7 --- --- 0.0 --- 0.00 0.0 -10.7 --- --- 725.0 0.020 0.000 6.8 4 1
02/09/06 10:16 a -10.7 -10.7 -10.7 --- --- 0.9 N 0.01 1.7 -10.7 --- --- 725.0 0.020 0.000 6.8 5 1
02/09/06 10:17 a -10.7 -10.7 -10.7 --- --- 1.7 N 0.03 1.7 -12.3 --- --- 725.0 0.020 0.000 6.8 4 1
02/09/06 10:18 a -10.7 -10.7 -10.7 --- --- 1.7 N 0.03 1.7 -12.3 --- --- 725.0 0.020 0.000 6.8 5 1
02/09/06 10:19 a -10.7 -10.7 -10.7 --- --- 1.7 N 0.03 2.6 -12.3 --- --- 725.0 0.020 0.000 6.8 4 1
02/09/06 10:20 a -10.8 -10.8 -10.8 --- --- 1.7 N 0.03 2.6 -12.4 --- --- 725.0 0.020 0.000 6.8 5 1
02/09/06 10:21 a -10.8 -10.8 -10.8 --- --- 1.7 N 0.03 2.6 -12.5 --- --- 724.9 0.020 0.000 6.8 4 1
02/09/06 10:22 a -10.9 -10.8 -10.9 --- --- 1.7 N 0.03 1.7 -12.6 --- --- 724.9 0.020 0.000 6.8 5 1
02/09/06 10:23 a -10.9 -10.9 -10.9 --- --- 0.9 N 0.01 1.7 -10.9 --- --- 725.0 0.020 0.000 6.8 4 1
02/09/06 10:24 a -10.9 -10.9 -10.9 --- --- 1.7 N 0.03 1.7 -12.6 --- --- 724.9 0.020 0.000 6.8 5 1
02/09/06 10:25 a -11.0 -11.0 -11.0 --- --- 1.7 N 0.03 1.7 -12.7 --- --- 724.9 0.020 0.000 6.8 5 1
02/09/06 10:26 a -10.9 -10.9 -11.0 --- --- 1.7 N 0.03 1.7 -12.6 --- --- 724.9 0.020 0.000 6.8 5 1
02/09/06 10:27 a -10.9 -10.9 -10.9 --- --- 1.7 N 0.03 2.6 -12.6 --- --- 724.9 0.020 0.000 6.8 4 1
02/09/06 10:28 a -10.9 -10.9 -10.9 --- --- 2.6 N 0.04 2.6 -13.9 --- --- 724.9 0.020 0.000 6.8 4 1
02/09/06 10:29 a -10.9 -10.8 -10.9 --- --- 2.6 N 0.04 3.5 -13.8 --- --- 725.0 0.020 0.000 6.8 4 1
02/09/06 10:30 a -10.8 -10.8 -10.8 --- --- 3.5 N 0.06 3.5 -14.7 --- --- 724.9 0.020 0.000 6.8 4 1
02/09/06 10:31 a -10.8 -10.8 -10.8 --- --- 3.5 N 0.06 4.3 -14.7 --- --- 724.9 0.020 0.000 6.8 4 1
02/09/06 10:32 a -10.8 -10.8 -10.8 --- --- 3.5 N 0.06 4.3 -14.7 --- --- 724.9 0.020 0.000 6.8 4 1
02/09/06 10:33 a -10.9 -10.8 -10.9 --- --- 3.5 N 0.06 4.3 -14.8 --- --- 724.9 0.020 0.000 6.8 4 1
02/09/06 10:34 a -10.9 -10.9 -10.9 --- --- 3.5 N 0.06 4.3 -14.8 --- --- 725.0 0.020 0.000 6.8 5 1
02/09/06 10:35 a -10.9 -10.9 -11.0 --- --- 2.6 N 0.04 3.5 -13.9 --- --- 724.9 0.020 0.000 6.8 5 1
02/09/06 10:36 a -11.0 -11.0 -11.0 --- --- 2.6 N 0.04 3.5 -13.9 --- --- 724.9 0.020 0.000 6.8 5 1
02/09/06 10:37 a -11.0 -11.0 -11.1 --- --- 2.6 N 0.04 3.5 -13.9 --- --- 724.9 0.020 0.000 6.8 4 1
02/09/06 10:38 a -11.1 -11.1 -11.1 --- --- 1.7 N 0.03 3.5 -12.7 --- --- 724.9 0.020 0.000 6.8 4 1
02/09/06 10:39 a -11.1 -11.1 -11.1 --- --- 3.5 N 0.06 4.3 -14.9 --- --- 724.9 0.020 0.000 6.8 5 1
02/09/06 10:40 a -11.0 -11.0 -11.1 --- --- 3.5 N 0.06 3.5 -14.9 --- --- 724.9 0.020 0.000 6.8 4 1
02/09/06 10:41 a -11.0 -10.9 -11.0 --- --- 3.5 N 0.06 3.5 -14.9 --- --- 724.9 0.020 0.000 6.8 4 1
02/09/06 10:42 a -10.9 -10.9 -10.9 --- --- 2.6 N 0.04 3.5 -13.8 --- --- 724.9 0.020 0.000 6.8 4 1
02/09/06 10:43 a -10.9 -10.9 -10.9 --- --- 2.6 N 0.04 3.5 -13.8 --- --- 724.9 0.020 0.000 6.8 4 1
02/09/06 10:44 a -10.9 -10.9 -10.9 --- --- 2.6 N 0.04 3.5 -13.8 --- --- 724.8 0.020 0.000 6.8 4 1
02/09/06 10:45 a -10.9 -10.9 -10.9 --- --- 1.7 N 0.03 2.6 -12.6 --- --- 724.8 0.020 0.000 6.8 4 1
02/09/06 10:46 a -10.9 -10.9 -10.9 --- --- 1.7 N 0.03 2.6 -12.6 --- --- 724.8 0.020 0.000 6.8 4 1
02/09/06 10:47 a -10.9 -10.8 -10.9 --- --- 2.6 N 0.04 3.5 -13.8 --- --- 724.7 0.020 0.000 6.8 4 1
02/09/06 10:48 a -10.8 -10.8 -10.8 --- --- 3.5 N 0.06 3.5 -14.7 --- --- 724.8 0.020 0.000 6.8 4 1
02/09/06 10:49 a -10.7 -10.7 -10.8 --- --- 3.5 N 0.06 3.5 -14.6 --- --- 724.9 0.020 0.000 6.8 4 1
02/09/06 10:50 a -10.7 -10.6 -10.7 --- --- 2.6 N 0.04 3.5 -13.6 --- --- 724.8 0.020 0.000 6.8 4 1
02/09/06 10:51 a -10.6 -10.6 -10.7 --- --- 3.5 N 0.06 3.5 -14.4 --- --- 724.8 0.020 0.000 6.7 4 1
02/09/06 10:52 a -10.6 -10.6 -10.7 --- --- 3.5 N 0.06 3.5 -14.4 --- --- 724.8 0.020 0.000 6.7 4 1
02/09/06 10:53 a -10.7 -10.6 -10.7 --- --- 3.5 N 0.06 4.3 -14.5 --- --- 724.8 0.020 0.000 6.7 4 1
02/09/06 10:54 a -10.6 -10.6 -10.6 --- --- 3.5 N 0.06 4.3 -14.4 --- --- 724.8 0.020 0.000 6.7 4 1
02/09/06 10:55 a -10.5 -10.4 -10.6 --- --- 4.3 N 0.07 5.2 -15.1 --- --- 724.8 0.020 0.000 6.7 4 1
02/09/06 10:56 a -10.4 -10.4 -10.4 --- --- 4.3 N 0.07 6.1 -14.9 --- --- 724.8 0.020 0.000 6.7 4 1
02/09/06 10:57 a -10.3 -10.3 -10.4 --- --- 4.3 N 0.07 5.2 -14.9 --- --- 724.8 0.020 0.000 6.7 4 1
02/09/06 10:58 a -10.3 -10.3 -10.3 --- --- 4.3 N 0.07 5.2 -14.8 --- --- 724.7 0.020 0.000 6.7 4 1
02/09/06 10:59 a -10.3 -10.3 -10.4 --- --- 4.3 N 0.07 6.1 -14.9 --- --- 724.7 0.020 0.000 6.7 4 1
02/09/06 11:00 a -10.4 -10.4 -10.4 --- --- 4.3 N 0.07 4.3 -14.9 --- --- 724.7 0.020 0.000 6.7 4 1
02/09/06 11:01 a -10.4 -10.4 -10.4 --- --- 4.3 N 0.07 5.2 -14.9 --- --- 724.7 0.020 0.000 6.7 4 1
02/09/06 11:03 a -10.4 -10.3 -10.4 --- --- 6.1 NNW 0.10 7.0 -16.1 --- --- 724.7 0.020 0.000 6.7 4 1
02/09/06 11:04 a -10.3 -10.3 -10.3 --- --- 6.1 NNW 0.10 7.0 -16.1 --- --- 724.8 0.020 0.000 6.7 4 1
02/09/06 11:05 a -10.3 -10.3 -10.3 --- --- 6.1 NNW 0.10 7.0 -16.0 --- --- 724.7 0.020 0.000 6.8 4 1
02/09/06 11:06 a -10.3 -10.3 -10.3 --- --- 6.1 NNW 0.10 7.8 -16.0 --- --- 724.7 0.020 0.000 6.8 4 1
02/09/06 11:07 a -10.3 -10.3 -10.3 --- --- 7.0 NNW 0.12 7.8 -16.5 --- --- 724.7 0.020 0.000 6.8 4 1
02/09/06 11:08 a -10.3 -10.3 -10.3 --- --- 5.2 NNW 0.09 7.0 -15.5 --- --- 724.7 0.020 0.000 6.8 4 1
02/09/06 11:09 a -10.3 -10.3 -10.4 --- --- 5.2 NNW 0.09 6.1 -15.5 --- --- 724.7 0.020 0.000 6.8 4 1
02/09/06 11:10 a -10.4 -10.3 -10.4 --- --- 5.2 NNW 0.09 6.1 -15.6 --- --- 724.7 0.020 0.000 6.8 4 1
02/09/06 11:11 a -10.4 -10.4 -10.4 --- --- 6.1 NNW 0.10 7.0 -16.2 --- --- 724.7 0.020 0.000 6.8 4 1
02/09/06 11:12 a -10.3 -10.3 -10.4 --- --- 5.2 NNW 0.09 6.1 -15.5 --- --- 724.7 0.020 0.000 6.8 4 1
02/09/06 11:13 a -10.4 -10.4 -10.4 --- --- 5.2 NNW 0.09 7.0 -15.6 --- --- 724.7 0.020 0.000 6.8 4 1
02/09/06 11:14 a -10.4 -10.4 -10.4 --- --- 6.1 NNW 0.10 7.8 -16.1 --- --- 724.7 0.020 0.000 6.8 4 1
02/09/06 11:15 a -10.4 -10.4 -10.4 --- --- 7.0 NNW 0.12 7.8 -16.7 --- --- 724.6 0.020 0.000 6.8 4 1
02/09/06 11:16 a -10.4 -10.4 -10.4 --- --- 6.1 NNW 0.10 7.0 -16.1 --- --- 724.6 0.020 0.000 6.8 4 1
02/09/06 11:17 a -10.4 -10.4 -10.4 --- --- 6.1 NNW 0.10 7.0 -16.1 --- --- 724.6 0.020 0.000 6.8 4 1
02/09/06 11:18 a -10.4 -10.4 -10.4 --- --- 6.1 NNW 0.10 7.8 -16.1 --- --- 724.6 0.020 0.000 6.8 4 1
02/09/06 11:19 a -10.3 -10.3 -10.4 --- --- 7.0 NNW 0.12 7.8 -16.6 --- --- 724.7 0.020 0.000 6.8 4 1
02/09/06 11:20 a -10.4 -10.4 -10.4 --- --- 7.0 NNW 0.12 8.7 -16.7 --- --- 724.6 0.020 0.000 6.8 4 1
02/09/06 11:21 a -10.4 -10.4 -10.4 --- --- 7.8 NNW 0.13 7.8 -17.1 --- --- 724.6 0.020 0.000 6.8 4 1
02/09/06 11:22 a -10.4 -10.3 -10.4 --- --- 7.0 NNW 0.12 7.8 -16.6 --- --- 724.7 0.020 0.000 6.8 4 1
02/09/06 11:23 a -10.3 -10.3 -10.3 --- --- 7.0 NNW 0.12 7.8 -16.6 --- --- 724.7 0.020 0.000 6.8 4 1
02/09/06 11:24 a -10.4 -10.4 -10.4 --- --- 5.2 NNW 0.09 7.0 -15.6 --- --- 724.7 0.020 0.000 6.8 4 1
02/09/06 11:25 a -10.6 -10.6 -10.6 --- --- 5.2 NNW 0.09 7.0 -15.8 --- --- 724.7 0.020 0.000 6.8 4 1
02/09/06 11:26 a -10.7 -10.7 -10.7 --- --- 5.2 NNW 0.09 7.0 -15.9 --- --- 724.7 0.020 0.000 6.8 4 1
02/09/06 11:27 a -10.6 -10.6 -10.6 --- --- 6.1 NNW 0.10 7.0 -16.4 --- --- 724.7 0.020 0.000 6.8 4 1
02/09/06 11:28 a -10.6 -10.5 -10.6 --- --- 6.1 NNW 0.10 7.0 -16.3 --- --- 724.7 0.020 0.000 6.8 4 1
02/09/06 11:29 a -10.4 -10.4 -10.4 --- --- 7.0 NNW 0.12 7.8 -16.7 --- --- 724.7 0.020 0.000 6.8 4 1
02/09/06 11:30 a -10.4 -10.4 -10.4 --- --- 7.0 NNW 0.12 8.7 -16.6 --- --- 724.7 0.020 0.000 6.8 4 1
02/09/06 11:31 a -10.4 -10.3 -10.4 --- --- 7.8 NNW 0.13 8.7 -17.1 --- --- 724.7 0.020 0.000 6.8 4 1
02/09/06 11:32 a -10.3 -10.3 -10.3 --- --- 7.8 NNW 0.13 8.7 -17.0 --- --- 724.6 0.020 0.000 6.8 4 1
02/09/06 11:33 a -10.3 -10.3 -10.3 --- --- 7.0 NNW 0.12 8.7 -16.6 --- --- 724.6 0.020 0.000 6.8 4 1
02/09/06 11:34 a -10.3 -10.3 -10.3 --- --- 7.8 NNW 0.13 9.6 -17.0 --- --- 724.6 0.020 0.000 6.8 4 1
02/09/06 11:35 a -10.3 -10.3 -10.3 --- --- 7.8 NNW 0.13 8.7 -16.9 --- --- 724.7 0.020 0.000 6.8 4 1
02/09/06 11:36 a -10.3 -10.3 -10.3 --- --- 7.0 NNW 0.12 7.8 -16.6 --- --- 724.6 0.020 0.000 6.8 4 1
02/09/06 11:37 a -10.3 -10.3 -10.4 --- --- 7.8 NNW 0.13 9.6 -17.0 --- --- 724.7 0.020 0.000 6.8 4 1
02/09/06 11:38 a -10.3 -10.3 -10.3 --- --- 8.7 NNW 0.14 9.6 -17.4 --- --- 724.6 0.020 0.000 6.8 4 1
02/09/06 11:39 a -10.3 -10.3 -10.4 --- --- 7.8 NNW 0.13 8.7 -17.0 --- --- 724.7 0.020 0.000 6.8 4 1
02/09/06 11:40 a -10.3 -10.3 -10.3 --- --- 7.8 NNW 0.13 8.7 -17.0 --- --- 724.7 0.020 0.000 6.8 4 1
02/09/06 11:41 a -10.3 -10.3 -10.3 --- --- 7.8 NNW 0.13 8.7 -17.0 --- --- 724.7 0.020 0.000 6.8 4 1
02/09/06 11:42 a -10.3 -10.3 -10.3 --- --- 7.8 NNW 0.13 9.6 -17.0 --- --- 724.6 0.020 0.000 6.8 4 1
02/09/06 11:43 a -10.3 -10.3 -10.3 --- --- 7.8 NNW 0.13 9.6 -17.0 --- --- 724.7 0.020 0.000 6.8 4 1
02/09/06 11:44 a -10.3 -10.3 -10.3 --- --- 7.8 NNW 0.13 9.6 -17.0 --- --- 724.6 0.020 0.000 6.8 4 1
02/09/06 11:45 a -10.3 -10.3 -10.3 --- --- 7.8 NW 0.13 9.6 -16.9 --- --- 724.7 0.020 0.000 6.8 4 1
02/09/06 11:46 a -10.2 -10.2 -10.3 --- --- 7.0 NNW 0.12 7.8 -16.4 --- --- 724.7 0.020 0.000 6.8 4 1
02/09/06 11:47 a -10.2 -10.2 -10.2 --- --- 7.0 NNW 0.12 7.8 -16.3 --- --- 724.7 0.020 0.000 6.8 4 1
02/09/06 11:48 a -10.1 -10.1 -10.1 --- --- 7.0 NNW 0.12 8.7 -16.3 --- --- 724.7 0.020 0.000 6.8 4 1
02/09/06 11:49 a -10.1 -10.1 -10.1 --- --- 6.1 NNW 0.10 7.0 -15.8 --- --- 724.7 0.020 0.000 6.8 4 1
02/09/06 11:50 a -10.2 -10.2 -10.2 --- --- 6.1 NNW 0.10 7.0 -15.9 --- --- 724.6 0.020 0.000 6.7 4 1
02/09/06 11:51 a -10.2 -10.2 -10.2 --- --- 6.1 NNW 0.10 7.0 -15.9 --- --- 724.6 0.020 0.000 6.7 4 1
02/09/06 11:52 a -10.2 -10.2 -10.3 --- --- 6.1 NNW 0.10 7.0 -15.9 --- --- 724.7 0.020 0.000 6.7 4 1
02/09/06 11:53 a -10.2 -10.2 -10.2 --- --- 6.1 NNW 0.10 7.0 -15.9 --- --- 724.6 0.020 0.000 6.7 4 1
02/09/06 11:54 a -10.2 -10.2 -10.2 --- --- 6.1 NNW 0.10 7.0 -15.9 --- --- 724.7 0.020 0.000 6.7 4 1
02/09/06 11:55 a -10.2 -10.1 -10.2 --- --- 6.1 NNW 0.10 7.0 -15.9 --- --- 724.7 0.020 0.000 6.7 4 1
02/09/06 11:56 a -10.2 -10.2 -10.2 --- --- 6.1 NNW 0.10 7.0 -15.9 --- --- 724.7 0.020 0.000 6.7 4 1
02/09/06 11:57 a -10.2 -10.2 -10.2 --- --- 6.1 NNW 0.10 7.0 -15.9 --- --- 724.7 0.020 0.000 6.7 4 1
02/09/06 11:58 a -10.2 -10.2 -10.2 --- --- 6.1 NNW 0.10 7.0 -15.9 --- --- 724.6 0.020 0.000 6.7 4 1
02/09/06 11:59 a -10.2 -10.2 -10.2 --- --- 6.1 NNW 0.10 7.0 -15.9 --- --- 724.6 0.020 0.000 6.7 4 1
02/09/06 12:00 p -10.1 -10.1 -10.2 --- --- 6.1 NNW 0.10 7.0 -15.8 --- --- 724.6 0.020 0.000 6.7 4 1
02/09/06 12:01 p -10.2 -10.1 -10.2 --- --- 5.2 NNW 0.09 6.1 -15.3 --- --- 724.7 0.020 0.000 6.7 4 1
02/09/06 12:02 p -10.2 -10.1 -10.2 --- --- 5.2 NNW 0.09 6.1 -15.3 --- --- 724.7 0.020 0.000 6.7 4 1
02/09/06 12:03 p -10.2 -10.2 -10.2 --- --- 4.3 NNW 0.07 6.1 -14.7 --- --- 724.7 0.020 0.000 6.7 4 1
02/09/06 12:04 p -10.1 -10.1 -10.2 --- --- 4.3 NNW 0.07 5.2 -14.6 --- --- 724.7 0.020 0.000 6.7 4 1
02/09/06 12:05 p -10.1 -10.1 -10.1 --- --- 6.1 NNW 0.10 7.0 -15.7 --- --- 724.6 0.020 0.000 6.8 4 1
02/09/06 12:06 p -10.1 -10.1 -10.1 --- --- 5.2 NNW 0.09 6.1 -15.2 --- --- 724.6 0.020 0.000 6.8 4 1
02/09/06 12:07 p -10.1 -10.1 -10.1 --- --- 5.2 NNW 0.09 6.1 -15.2 --- --- 724.6 0.020 0.000 6.8 4 1
02/09/06 12:08 p -10.1 -10.1 -10.2 --- --- 4.3 NNW 0.07 5.2 -14.6 --- --- 724.6 0.020 0.000 6.8 4 1
02/09/06 12:09 p -10.2 -10.2 -10.2 --- --- 4.3 NNW 0.07 5.2 -14.7 --- --- 724.6 0.020 0.000 6.8 4 1
02/09/06 12:10 p -10.2 -10.1 -10.2 --- --- 4.3 NNW 0.07 5.2 -14.7 --- --- 724.6 0.020 0.000 6.8 4 1
02/09/06 12:11 p -10.2 -10.2 -10.2 --- --- 3.5 NNW 0.06 4.3 -13.9 --- --- 724.6 0.020 0.000 6.8 4 1
02/09/06 12:12 p -10.2 -10.2 -10.2 --- --- 5.2 NNW 0.09 6.1 -15.3 --- --- 724.6 0.020 0.000 6.8 4 1
02/09/06 12:13 p -10.2 -10.2 -10.2 --- --- 6.1 NNW 0.10 7.0 -15.9 --- --- 724.7 0.020 0.000 6.8 4 1
02/09/06 12:14 p -10.2 -10.2 -10.2 --- --- 6.1 NNW 0.10 7.0 -15.9 --- --- 724.6 0.020 0.000 6.8 4 1
02/09/06 12:15 p -10.1 -10.1 -10.1 --- --- 6.1 NNW 0.10 7.0 -15.8 --- --- 724.5 0.020 0.000 6.8 4 1
02/09/06 12:16 p -10.1 -10.1 -10.1 --- --- 6.1 NNW 0.10 7.0 -15.7 --- --- 724.6 0.020 0.000 6.8 4 1
02/09/06 12:17 p -10.1 -10.0 -10.1 --- --- 6.1 NNW 0.10 7.8 -15.7 --- --- 724.5 0.020 0.000 6.8 4 1
02/09/06 12:18 p -10.1 -10.0 -10.1 --- --- 6.1 NNW 0.10 7.0 -15.7 --- --- 724.5 0.020 0.000 6.8 4 1
02/09/06 12:19 p -10.1 -10.1 -10.1 --- --- 7.0 NNW 0.12 7.8 -16.2 --- --- 724.5 0.020 0.000 6.8 4 1
02/09/06 12:20 p -10.1 -10.1 -10.1 --- --- 7.0 NNW 0.12 7.8 -16.2 --- --- 724.5 0.020 0.000 6.8 4 1
02/09/06 12:21 p -10.1 -10.1 -10.1 --- --- 7.0 NNW 0.12 7.8 -16.2 --- --- 724.6 0.020 0.000 6.8 4 1
02/09/06 12:22 p -10.1 -10.1 -10.1 --- --- 7.0 NNW 0.12 7.0 -16.2 --- --- 724.6 0.020 0.000 6.8 4 1
02/09/06 12:23 p -10.1 -10.1 -10.1 --- --- 7.0 NNW 0.12 7.8 -16.2 --- --- 724.5 0.020 0.000 6.8 4 1
02/09/06 12:24 p -10.1 -10.1 -10.1 --- --- 7.8 NNW 0.13 8.7 -16.7 --- --- 724.5 0.020 0.000 6.8 4 1
02/09/06 12:25 p -10.1 -10.1 -10.2 --- --- 7.0 NNW 0.12 7.8 -16.3 --- --- 724.5 0.020 0.000 6.8 4 1
02/09/06 12:26 p -10.1 -10.1 -10.1 --- --- 7.0 NNW 0.12 7.8 -16.2 --- --- 724.6 0.020 0.000 6.8 4 1
02/09/06 12:27 p -10.1 -10.1 -10.1 --- --- 7.0 NNW 0.12 7.8 -16.2 --- --- 724.6 0.020 0.000 6.8 4 1
02/09/06 12:28 p -10.1 -10.1 -10.1 --- --- 7.0 NNW 0.12 7.8 -16.3 --- --- 724.5 0.020 0.000 6.8 4 1
02/09/06 12:29 p -10.1 -10.1 -10.1 --- --- 7.0 NNW 0.12 8.7 -16.2 --- --- 724.5 0.020 0.000 6.8 4 1
02/09/06 12:30 p -10.1 -10.1 -10.1 --- --- 7.0 NNW 0.12 7.8 -16.2 --- --- 724.6 0.020 0.000 6.8 4 1
02/09/06 12:31 p -10.1 -10.1 -10.1 --- --- 7.8 NNW 0.13 8.7 -16.7 --- --- 724.5 0.020 0.000 6.8 4 1
02/09/06 12:32 p -10.1 -10.1 -10.2 --- --- 7.0 NNW 0.12 7.8 -16.3 --- --- 724.6 0.020 0.000 6.8 4 1
02/09/06 12:33 p -10.2 -10.1 -10.2 --- --- 7.8 NNW 0.13 8.7 -16.8 --- --- 724.6 0.020 0.000 6.8 4 1
02/09/06 12:34 p -10.2 -10.2 -10.2 --- --- 7.0 NNW 0.12 8.7 -16.3 --- --- 724.5 0.020 0.000 6.8 4 1
02/09/06 12:35 p -10.2 -10.1 -10.2 --- --- 7.8 NNW 0.13 7.8 -16.8 --- --- 724.5 0.020 0.000 6.8 4 1
02/09/06 12:36 p -10.1 -10.1 -10.1 --- --- 7.0 NNW 0.12 8.7 -16.3 --- --- 724.5 0.020 0.000 6.8 4 1
02/09/06 12:37 p -10.1 -10.1 -10.1 --- --- 7.0 NNW 0.12 8.7 -16.3 --- --- 724.5 0.020 0.000 6.8 4 1
02/09/06 12:38 p -10.1 -10.1 -10.1 --- --- 7.0 NNW 0.12 8.7 -16.2 --- --- 724.5 0.020 0.000 6.9 4 1
02/09/06 12:39 p -10.1 -10.1 -10.2 --- --- 7.0 NNW 0.12 7.8 -16.3 --- --- 724.5 0.020 0.000 6.8 4 1
02/09/06 12:40 p -10.2 -10.2 -10.2 --- --- 7.0 NNW 0.12 7.8 -16.4 --- --- 724.5 0.020 0.000 6.8 4 1
02/09/06 12:41 p -10.2 -10.2 -10.2 --- --- 6.1 NNW 0.10 7.0 -15.9 --- --- 724.5 0.020 0.000 6.8 4 1
02/09/06 12:42 p -10.2 -10.2 -10.2 --- --- 6.1 NNW 0.10 7.0 -15.9 --- --- 724.5 0.020 0.000 6.8 4 1
02/09/06 12:43 p -10.2 -10.2 -10.2 --- --- 6.1 NNW 0.10 7.8 -15.9 --- --- 724.5 0.020 0.000 6.8 4 1
02/09/06 12:44 p -10.2 -10.2 -10.2 --- --- 6.1 NNW 0.10 7.0 -15.9 --- --- 724.5 0.020 0.000 6.8 4 1
02/09/06 12:45 p -10.2 -10.2 -10.2 --- --- 6.1 NNW 0.10 7.0 -15.9 --- --- 724.4 0.020 0.000 6.8 4 1
02/09/06 12:46 p -10.2 -10.2 -10.2 --- --- 7.0 NNW 0.12 7.8 -16.3 --- --- 724.5 0.020 0.000 6.8 4 1
02/09/06 12:47 p -10.2 -10.2 -10.2 --- --- 6.1 NNW 0.10 7.0 -15.9 --- --- 724.5 0.020 0.000 6.8 4 1
02/09/06 12:48 p -10.2 -10.2 -10.3 --- --- 7.0 NNW 0.12 7.8 -16.4 --- --- 724.5 0.020 0.000 6.8 4 1
02/09/06 12:49 p -10.3 -10.3 -10.3 --- --- 7.0 NNW 0.12 7.0 -16.5 --- --- 724.4 0.020 0.000 6.8 4 1
02/09/06 12:50 p -10.3 -10.3 -10.3 --- --- 6.1 NNW 0.10 7.8 -16.0 --- --- 724.5 0.020 0.000 6.8 4 1
02/09/06 12:51 p -10.3 -10.2 -10.3 --- --- 7.0 NNW 0.12 7.8 -16.5 --- --- 724.4 0.020 0.000 6.8 4 1
02/09/06 12:52 p -10.2 -10.2 -10.2 --- --- 6.1 NNW 0.10 7.0 -15.9 --- --- 724.5 0.020 0.000 6.8 4 1
02/09/06 12:53 p -10.2 -10.2 -10.2 --- --- 6.1 NNW 0.10 7.0 -15.9 --- --- 724.4 0.020 0.000 6.8 4 1
02/09/06 12:54 p -10.2 -10.2 -10.2 --- --- 5.2 NNW 0.09 6.1 -15.4 --- --- 724.4 0.020 0.000 6.8 4 1
02/09/06 12:55 p -10.2 -10.2 -10.2 --- --- 6.1 NNW 0.10 7.0 -15.9 --- --- 724.3 0.020 0.000 6.8 4 1
02/09/06 12:56 p -10.2 -10.2 -10.2 --- --- 6.1 NNW 0.10 7.8 -15.9 --- --- 724.4 0.020 0.000 6.7 4 1
02/09/06 12:57 p -10.2 -10.2 -10.2 --- --- 6.1 NNW 0.10 7.8 -15.9 --- --- 724.4 0.020 0.000 6.7 4 1
02/09/06 12:58 p -10.2 -10.2 -10.2 --- --- 6.1 NNW 0.10 7.0 -15.9 --- --- 724.4 0.020 0.000 6.7 4 1
02/09/06 12:59 p -10.2 -10.2 -10.2 --- --- 6.1 NNW 0.10 7.0 -15.9 --- --- 724.4 0.020 0.000 6.7 4 1
02/09/06 1:00 p -10.2 -10.2 -10.2 --- --- 6.1 NNW 0.10 7.0 -15.9 --- --- 724.4 0.020 0.000 6.7 4 1
02/09/06 1:01 p -10.2 -10.2 -10.2 --- --- 5.2 NNW 0.09 6.1 -15.3 --- --- 724.3 0.020 0.000 6.7 4 1
02/09/06 1:02 p -10.2 -10.2 -10.2 --- --- 5.2 NNW 0.09 6.1 -15.4 --- --- 724.4 0.020 0.000 6.7 4 1
02/09/06 1:03 p -10.2 -10.2 -10.2 --- --- 5.2 NNW 0.09 6.1 -15.4 --- --- 724.3 0.020 0.000 6.7 4 1
02/09/06 1:04 p -10.2 -10.2 -10.2 --- --- 6.1 NNW 0.10 7.0 -15.9 --- --- 724.4 0.020 0.000 6.7 4 1
02/09/06 1:05 p -10.2 -10.2 -10.3 --- --- 6.1 NNW 0.10 7.0 -15.9 --- --- 724.4 0.020 0.000 6.7 4 1
02/09/06 1:06 p -10.3 -10.3 -10.3 --- --- 5.2 NNW 0.09 6.1 -15.4 --- --- 724.3 0.020 0.000 6.7 4 1
02/09/06 1:07 p -10.3 -10.3 -10.3 --- --- 5.2 NNW 0.09 6.1 -15.4 --- --- 724.5 0.020 0.000 6.7 4 1
02/09/06 1:08 p -10.3 -10.3 -10.3 --- --- 5.2 NNW 0.09 6.1 -15.5 --- --- 724.4 0.020 0.000 6.8 4 1
02/09/06 1:09 p -10.3 -10.3 -10.3 --- --- 4.3 NNW 0.07 5.2 -14.9 --- --- 724.4 0.020 0.000 6.8 4 1
02/09/06 1:10 p -10.4 -10.3 -10.4 --- --- 6.1 NNW 0.10 7.0 -16.1 --- --- 724.3 0.020 0.000 6.8 4 1
02/09/06 1:11 p -10.4 -10.3 -10.4 --- --- 5.2 NNW 0.09 6.1 -15.6 --- --- 724.4 0.020 0.000 6.8 4 1
02/09/06 1:12 p -10.4 -10.3 -10.4 --- --- 6.1 NNW 0.10 7.0 -16.1 --- --- 724.4 0.020 0.000 6.8 4 1
02/09/06 1:13 p -10.3 -10.3 -10.3 --- --- 5.2 NNW 0.09 6.1 -15.4 --- --- 724.3 0.020 0.000 6.8 4 1
02/09/06 1:14 p -10.3 -10.3 -10.3 --- --- 4.3 NNW 0.07 5.2 -14.8 --- --- 724.3 0.020 0.000 6.8 4 1
02/09/06 1:15 p -10.3 -10.3 -10.3 --- --- 5.2 NNW 0.09 6.1 -15.4 --- --- 724.3 0.020 0.000 6.8 4 1
02/09/06 1:16 p -10.3 -10.3 -10.3 --- --- 5.2 NNW 0.09 6.1 -15.4 --- --- 724.3 0.020 0.000 6.8 4 1
02/09/06 1:17 p -10.4 -10.3 -10.4 --- --- 5.2 NNW 0.09 6.1 -15.6 --- --- 724.3 0.020 0.000 6.8 4 1
02/09/06 1:18 p -10.4 -10.4 -10.4 --- --- 5.2 NNW 0.09 6.1 -15.6 --- --- 724.4 0.020 0.000 6.8 4 1
02/09/06 1:19 p -10.4 -10.4 -10.5 --- --- 5.2 NNW 0.09 6.1 -15.7 --- --- 724.3 0.020 0.000 6.8 4 1
02/09/06 1:20 p -10.6 -10.5 -10.6 --- --- 4.3 NNW 0.07 5.2 -15.1 --- --- 724.2 0.020 0.000 6.8 4 1
02/09/06 1:21 p -10.5 -10.4 -10.5 --- --- 6.1 NNW 0.10 7.0 -16.3 --- --- 724.3 0.020 0.000 6.8 4 1
02/09/06 1:22 p -10.4 -10.4 -10.4 --- --- 6.1 NNW 0.10 7.0 -16.1 --- --- 724.3 0.020 0.000 6.8 4 1
02/09/06 1:23 p -10.4 -10.4 -10.4 --- --- 6.1 NNW 0.10 7.0 -16.1 --- --- 724.2 0.020 0.000 6.8 4 1
02/09/06 1:24 p -10.4 -10.4 -10.4 --- --- 6.1 NNW 0.10 7.0 -16.1 --- --- 724.3 0.020 0.000 6.8 4 1
02/09/06 1:25 p -10.4 -10.4 -10.4 --- --- 6.1 NNW 0.10 7.0 -16.1 --- --- 724.3 0.020 0.000 6.9 4 1
02/09/06 1:26 p -10.3 -10.3 -10.4 --- --- 5.2 NNW 0.09 7.0 -15.5 --- --- 724.3 0.020 0.000 6.9 4 1
02/09/06 1:27 p -10.4 -10.4 -10.4 --- --- 5.2 NNW 0.09 7.0 -15.6 --- --- 724.3 0.020 0.000 6.9 4 1
02/09/06 1:28 p -10.4 -10.4 -10.5 --- --- 4.3 NNW 0.07 5.2 -15.0 --- --- 724.3 0.020 0.000 6.9 4 1
02/09/06 1:29 p -10.5 -10.5 -10.5 --- --- 3.5 NNW 0.06 5.2 -14.3 --- --- 724.3 0.020 0.000 6.9 4 1
02/09/06 1:30 p -10.5 -10.5 -10.5 --- --- 4.3 NNW 0.07 6.1 -15.1 --- --- 724.2 0.020 0.000 6.9 4 1
02/09/06 1:31 p -10.4 -10.4 -10.5 --- --- 4.3 NNW 0.07 5.2 -15.0 --- --- 724.2 0.020 0.000 6.9 4 1
02/09/06 1:32 p -10.5 -10.4 -10.5 --- --- 4.3 NNW 0.07 5.2 -15.1 --- --- 724.2 0.020 0.000 6.9 4 1
02/09/06 1:33 p -10.6 -10.5 -10.6 --- --- 4.3 NNW 0.07 5.2 -15.1 --- --- 724.2 0.020 0.000 6.9 4 1
02/09/06 1:34 p -10.7 -10.6 -10.7 --- --- 5.2 NNW 0.09 7.0 -15.9 --- --- 724.2 0.020 0.000 6.9 4 1
02/09/06 1:35 p -10.7 -10.6 -10.7 --- --- 6.1 NNW 0.10 7.0 -16.4 --- --- 724.2 0.020 0.000 6.9 4 1
02/09/06 1:36 p -10.6 -10.6 -10.7 --- --- 5.2 NNW 0.09 7.0 -15.8 --- --- 724.2 0.020 0.000 6.9 4 1
02/09/06 1:37 p -10.6 -10.6 -10.6 --- --- 4.3 NNW 0.07 5.2 -15.2 --- --- 724.1 0.020 0.000 6.9 4 1
02/09/06 1:38 p -10.7 -10.6 -10.7 --- --- 3.5 NNW 0.06 4.3 -14.5 --- --- 724.1 0.020 0.000 6.9 4 1
02/09/06 1:39 p -10.8 -10.7 -10.8 --- --- 4.3 NNW 0.07 4.3 -15.4 --- --- 724.2 0.020 0.000 6.9 4 1
02/09/06 1:40 p -10.8 -10.8 -10.9 --- --- 3.5 NNW 0.06 4.3 -14.7 --- --- 724.2 0.020 0.000 6.9 4 1
02/09/06 1:41 p -10.9 -10.9 -10.9 --- --- 1.7 NNW 0.03 2.6 -12.6 --- --- 724.3 0.020 0.000 6.9 4 1
02/09/06 1:42 p -11.1 -10.9 -11.1 --- --- 0.0 NNW 0.00 0.9 -11.1 --- --- 724.2 0.020 0.000 6.9 4 1
02/09/06 1:43 p -11.2 -11.1 -11.2 --- --- 1.7 NNW 0.03 2.6 -12.8 --- --- 724.2 0.020 0.000 6.9 4 1
02/09/06 1:44 p -11.2 -11.2 -11.2 --- --- 1.7 NNW 0.03 2.6 -12.8 --- --- 724.2 0.020 0.000 6.9 4 1
02/09/06 1:45 p -11.2 -11.2 -11.2 --- --- 2.6 NNW 0.04 3.5 -14.2 --- --- 724.2 0.021 0.000 6.9 4 1
02/09/06 1:46 p -11.2 -11.1 -11.2 --- --- 2.6 NNW 0.04 4.3 -14.1 --- --- 724.2 0.020 0.000 6.9 4 1
02/09/06 1:47 p -11.1 -11.1 -11.1 --- --- 3.5 NNW 0.06 3.5 -15.0 --- --- 724.2 0.020 0.000 6.9 4 1
02/09/06 1:48 p -10.9 -10.9 -10.9 --- --- 2.6 NNW 0.04 3.5 -13.9 --- --- 724.2 0.020 0.000 6.9 4 1
02/09/06 1:49 p -10.9 -10.9 -10.9 --- --- 2.6 NNW 0.04 3.5 -13.8 --- --- 724.1 0.020 0.000 6.8 4 1
02/09/06 1:50 p -10.8 -10.8 -10.8 --- --- 2.6 NNW 0.04 3.5 -13.7 --- --- 724.2 0.020 0.000 6.9 4 1
02/09/06 1:51 p -10.8 -10.8 -10.8 --- --- 2.6 NNW 0.04 3.5 -13.7 --- --- 724.2 0.020 0.000 6.9 4 1
02/09/06 1:52 p -10.7 -10.7 -10.7 --- --- 2.6 NNW 0.04 3.5 -13.6 --- --- 724.1 0.020 0.000 6.8 4 1
02/09/06 1:53 p -10.8 -10.7 -10.8 --- --- 0.9 NNW 0.01 1.7 -10.8 --- --- 724.1 0.020 0.000 6.8 4 1
02/09/06 1:54 p -10.9 -10.8 -10.9 --- --- 1.7 NNW 0.03 2.6 -12.6 --- --- 724.1 0.020 0.000 6.8 4 1
02/09/06 1:55 p -11.0 -11.0 -11.0 --- --- 2.6 NNW 0.04 2.6 -13.9 --- --- 724.1 0.020 0.000 6.8 4 1
02/09/06 1:56 p -11.0 -11.0 -11.0 --- --- 1.7 NNW 0.03 2.6 -12.7 --- --- 724.1 0.020 0.000 6.8 4 1
02/09/06 1:57 p -11.0 -11.0 -11.1 --- --- 2.6 NNW 0.04 2.6 -13.9 --- --- 724.1 0.020 0.000 6.8 4 1
02/09/06 1:58 p -10.9 -10.9 -10.9 --- --- 3.5 NNW 0.06 3.5 -14.8 --- --- 724.1 0.020 0.000 6.8 4 1
02/09/06 1:59 p -10.9 -10.8 -10.9 --- --- 2.6 NNW 0.04 3.5 -13.8 --- --- 724.1 0.020 0.000 6.8 4 1
02/09/06 2:00 p -10.8 -10.8 -10.8 --- --- 2.6 NNW 0.04 3.5 -13.7 --- --- 724.0 0.020 0.000 6.8 4 1
02/09/06 2:01 p -10.8 -10.7 -10.8 --- --- 2.6 NNW 0.04 3.5 -13.7 --- --- 724.1 0.020 0.000 6.8 4 1
02/09/06 2:02 p -10.7 -10.7 -10.8 --- --- 2.6 NNW 0.04 4.3 -13.6 --- --- 724.0 0.020 0.000 6.8 4 1
02/09/06 2:03 p -10.8 -10.8 -10.8 --- --- 3.5 NNW 0.06 4.3 -14.6 --- --- 724.1 0.020 0.000 6.8 4 1
02/09/06 2:04 p -10.8 -10.8 -10.8 --- --- 3.5 NNW 0.06 4.3 -14.6 --- --- 724.1 0.020 0.000 6.8 4 1
02/09/06 2:05 p -10.7 -10.7 -10.8 --- --- 3.5 NNW 0.06 4.3 -14.6 --- --- 724.0 0.020 0.000 6.8 4 1
02/09/06 2:06 p -10.8 -10.8 -10.8 --- --- 3.5 NNW 0.06 4.3 -14.6 --- --- 724.0 0.020 0.000 6.8 4 1
02/09/06 2:07 p -10.8 -10.8 -10.8 --- --- 3.5 NNW 0.06 4.3 -14.6 --- --- 724.0 0.020 0.000 6.8 4 1
02/09/06 2:08 p -10.7 -10.7 -10.8 --- --- 4.3 NNW 0.07 5.2 -15.3 --- --- 724.1 0.020 0.000 6.8 4 1
02/09/06 2:09 p -10.7 -10.7 -10.8 --- --- 5.2 NNW 0.09 5.2 -16.0 --- --- 724.0 0.020 0.000 6.8 4 1
02/09/06 2:10 p -10.8 -10.8 -10.9 --- --- 5.2 NNW 0.09 6.1 -16.1 --- --- 724.0 0.020 0.000 6.8 4 1
02/09/06 2:11 p -10.9 -10.9 -11.0 --- --- 6.1 NNW 0.10 7.0 -16.8 --- --- 724.0 0.020 0.000 6.9 4 1
02/09/06 2:12 p -11.0 -11.0 -11.1 --- --- 5.2 NNW 0.09 6.1 -16.3 --- --- 724.0 0.020 0.000 6.9 4 1
02/09/06 2:13 p -11.0 -11.0 -11.0 --- --- 5.2 NNW 0.09 6.1 -16.3 --- --- 724.0 0.020 0.000 6.9 4 1
02/09/06 2:14 p -11.0 -10.9 -11.0 --- --- 5.2 NNW 0.09 6.1 -16.3 --- --- 724.0 0.020 0.000 6.9 4 1
02/09/06 2:15 p -10.9 -10.9 -10.9 --- --- 3.5 NNW 0.06 4.3 -14.8 --- --- 723.9 0.020 0.000 6.9 4 1
02/09/06 2:16 p -11.0 -10.9 -11.1 --- --- 3.5 SW 0.06 5.2 -14.9 --- --- 724.0 0.020 0.000 6.9 4 1
02/09/06 2:17 p -11.3 -11.2 -11.3 --- --- 2.6 W 0.04 3.5 -14.2 --- --- 724.0 0.021 0.000 6.9 4 1
02/09/06 2:18 p -11.4 -11.4 -11.4 --- --- 3.5 WNW 0.06 4.3 -15.3 --- --- 723.9 0.021 0.000 6.9 4 1
02/09/06 2:19 p -11.4 -11.4 -11.4 --- --- 3.5 NW 0.06 5.2 -15.4 --- --- 723.9 0.021 0.000 6.9 4 1
02/09/06 2:20 p -11.3 -11.3 -11.4 --- --- 3.5 NNW 0.06 4.3 -15.3 --- --- 723.8 0.021 0.000 6.9 4 1
02/09/06 2:21 p -11.2 -11.2 -11.2 --- --- 2.6 NNW 0.04 3.5 -14.2 --- --- 724.0 0.021 0.000 6.9 4 1
02/09/06 2:22 p -11.3 -11.3 -11.3 --- --- 1.7 NNW 0.03 2.6 -12.9 --- --- 723.8 0.021 0.000 6.9 4 1
02/09/06 2:23 p -11.4 -11.3 -11.4 --- --- 2.6 NNW 0.04 3.5 -14.4 --- --- 723.9 0.021 0.000 6.9 4 1
02/09/06 2:24 p -11.3 -11.3 -11.4 --- --- 2.6 NNW 0.04 3.5 -14.3 --- --- 723.9 0.021 0.000 6.9 4 1
02/09/06 2:25 p -11.2 -11.1 -11.2 --- --- 2.6 NNW 0.04 3.5 -14.1 --- --- 724.0 0.020 0.000 6.9 4 1
02/09/06 2:26 p -11.1 -11.0 -11.1 --- --- 1.7 NNW 0.03 2.6 -12.7 --- --- 724.0 0.020 0.000 6.9 4 1
02/09/06 2:27 p -10.9 -10.9 -10.9 --- --- 1.7 NNW 0.03 2.6 -12.6 --- --- 724.0 0.020 0.000 6.9 4 1
02/09/06 2:28 p -11.0 -10.9 -11.1 --- --- 1.7 NNW 0.03 2.6 -12.7 --- --- 723.9 0.020 0.000 6.9 4 1
02/09/06 2:29 p -11.2 -11.1 -11.2 --- --- 2.6 WSW 0.04 4.3 -14.1 --- --- 724.0 0.020 0.000 6.9 4 1
02/09/06 2:30 p -11.3 -11.3 -11.4 --- --- 0.9 WSW 0.01 2.6 -11.3 --- --- 724.0 0.021 0.000 6.9 4 1
02/09/06 2:31 p -11.5 -11.4 -11.6 --- --- 0.9 WSW 0.01 2.6 -11.5 --- --- 723.9 0.021 0.000 6.9 4 1
02/09/06 2:32 p -11.4 -11.4 -11.5 --- --- 2.6 NNW 0.04 3.5 -14.4 --- --- 724.0 0.021 0.000 6.9 4 1
02/09/06 2:33 p -11.3 -11.3 -11.4 --- --- 1.7 NNW 0.03 2.6 -13.1 --- --- 724.0 0.021 0.000 6.9 4 1
02/09/06 2:34 p -11.3 -11.3 -11.3 --- --- 2.6 NNW 0.04 3.5 -14.2 --- --- 723.9 0.021 0.000 6.9 4 1
02/09/06 2:35 p -11.2 -11.2 -11.3 --- --- 2.6 NNW 0.04 3.5 -14.2 --- --- 723.9 0.021 0.000 6.9 4 1
02/09/06 2:36 p -11.2 -11.2 -11.2 --- --- 3.5 NNW 0.06 4.3 -15.1 --- --- 724.0 0.020 0.000 6.9 4 1
02/09/06 2:37 p -11.2 -11.2 -11.2 --- --- 3.5 NNW 0.06 4.3 -15.1 --- --- 723.9 0.020 0.000 6.9 4 1
02/09/06 2:38 p -11.1 -11.0 -11.1 --- --- 2.6 NNW 0.04 3.5 -14.0 --- --- 723.8 0.020 0.000 6.9 4 1
02/09/06 2:39 p -11.0 -11.0 -11.1 --- --- 1.7 WNW 0.03 2.6 -12.7 --- --- 723.9 0.020 0.000 6.9 4 1
02/09/06 2:40 p -11.2 -11.2 -11.3 --- --- 1.7 WSW 0.03 4.3 -12.8 --- --- 723.9 0.020 0.000 6.9 4 1
02/09/06 2:41 p -11.3 -11.3 -11.4 --- --- 0.9 WSW 0.01 3.5 -11.3 --- --- 723.8 0.021 0.000 6.9 4 1
02/09/06 2:42 p -11.4 -11.4 -11.4 --- --- 0.9 WSW 0.01 3.5 -11.4 --- --- 723.8 0.021 0.000 6.9 4 1
02/09/06 2:43 p -11.4 -11.4 -11.4 --- --- 0.0 --- 0.00 0.0 -11.4 --- --- 723.8 0.021 0.000 6.9 4 1
02/09/06 2:44 p -11.4 -11.4 -11.4 --- --- 0.0 --- 0.00 0.0 -11.4 --- --- 723.8 0.021 0.000 6.9 4 1
02/09/06 2:45 p -11.4 -11.4 -11.4 --- --- 0.0 --- 0.00 0.0 -11.4 --- --- 723.8 0.021 0.000 6.9 4 1
02/09/06 2:46 p -11.4 -11.4 -11.4 --- --- 0.0 --- 0.00 0.0 -11.4 --- --- 723.8 0.021 0.000 6.9 4 1
02/09/06 2:47 p -11.4 -11.4 -11.4 --- --- 0.0 --- 0.00 0.0 -11.4 --- --- 723.9 0.021 0.000 6.8 4 1
02/09/06 2:48 p -11.3 -11.2 -11.4 --- --- 0.0 WSW 0.00 0.9 -11.3 --- --- 723.8 0.021 0.000 6.8 4 1
02/09/06 2:49 p -11.2 -11.2 -11.2 --- --- 1.7 W 0.03 2.6 -12.8 --- --- 723.8 0.020 0.000 6.8 4 1
02/09/06 2:50 p -11.1 -11.0 -11.2 --- --- 1.7 W 0.03 2.6 -12.7 --- --- 723.8 0.020 0.000 6.8 4 1
02/09/06 2:51 p -11.0 -10.9 -11.0 --- --- 2.6 NNW 0.04 4.3 -13.9 --- --- 723.8 0.020 0.000 6.8 4 1
02/09/06 2:52 p -10.8 -10.8 -10.8 --- --- 3.5 NNW 0.06 4.3 -14.7 --- --- 723.8 0.020 0.000 6.8 4 1
02/09/06 2:53 p -10.8 -10.8 -10.8 --- --- 3.5 NNW 0.06 4.3 -14.7 --- --- 723.8 0.020 0.000 6.8 4 1
02/09/06 2:54 p -10.8 -10.8 -10.8 --- --- 3.5 NNW 0.06 4.3 -14.7 --- --- 723.8 0.020 0.000 6.8 4 1
02/09/06 2:55 p -10.8 -10.8 -10.9 --- --- 3.5 NNW 0.06 4.3 -14.7 --- --- 723.8 0.020 0.000 6.8 4 1
02/09/06 2:56 p -10.8 -10.8 -10.8 --- --- 3.5 NNW 0.06 3.5 -14.7 --- --- 723.8 0.020 0.000 6.8 4 1
02/09/06 2:57 p -10.8 -10.8 -10.9 --- --- 3.5 NNW 0.06 3.5 -14.7 --- --- 723.7 0.020 0.000 6.8 4 1
02/09/06 2:58 p -10.9 -10.8 -10.9 --- --- 1.7 NNW 0.03 3.5 -12.6 --- --- 723.8 0.020 0.000 6.8 4 1
02/09/06 2:59 p -10.9 -10.9 -10.9 --- --- 1.7 NNW 0.03 2.6 -12.6 --- --- 723.7 0.020 0.000 6.8 4 1
02/09/06 3:00 p -11.1 -11.0 -11.1 --- --- 1.7 NNW 0.03 2.6 -12.7 --- --- 723.8 0.020 0.000 6.8 4 1
02/09/06 3:01 p -11.2 -11.2 -11.2 --- --- 0.9 NNW 0.01 1.7 -11.2 --- --- 723.7 0.020 0.000 6.8 4 1
02/09/06 3:02 p -11.2 -11.2 -11.2 --- --- 1.7 NNW 0.03 1.7 -12.9 --- --- 723.8 0.021 0.000 6.8 4 1
02/09/06 3:03 p -11.2 -11.2 -11.3 --- --- 1.7 NNW 0.03 1.7 -12.9 --- --- 723.8 0.021 0.000 6.8 4 1
02/09/06 3:04 p -11.3 -11.2 -11.3 --- --- 1.7 NNW 0.03 1.7 -12.9 --- --- 723.7 0.021 0.000 6.8 4 1
02/09/06 3:05 p -11.2 -11.2 -11.2 --- --- 0.9 NNW 0.01 1.7 -11.2 --- --- 723.7 0.021 0.000 6.8 4 1
02/09/06 3:06 p -11.2 -11.1 -11.2 --- --- 0.9 NNW 0.01 1.7 -11.2 --- --- 723.7 0.021 0.000 6.8 4 1
02/09/06 3:07 p -11.1 -11.1 -11.1 --- --- 1.7 NNW 0.03 2.6 -12.8 --- --- 723.7 0.020 0.000 6.8 4 1
02/09/06 3:08 p -10.9 -10.9 -11.0 --- --- 1.7 NNW 0.03 1.7 -12.6 --- --- 723.7 0.020 0.000 6.8 4 1
02/09/06 3:09 p -10.9 -10.9 -10.9 --- --- 1.7 NNW 0.03 1.7 -12.6 --- --- 723.7 0.020 0.000 6.8 4 1
02/09/06 3:10 p -10.8 -10.8 -10.9 --- --- 1.7 NNW 0.03 1.7 -12.5 --- --- 723.7 0.020 0.000 6.8 4 1
02/09/06 3:11 p -10.8 -10.8 -10.9 --- --- 1.7 NNW 0.03 2.6 -12.5 --- --- 723.7 0.020 0.000 6.8 4 1
02/09/06 3:12 p -10.9 -10.9 -10.9 --- --- 1.7 NNW 0.03 2.6 -12.6 --- --- 723.6 0.020 0.000 6.8 4 1
02/09/06 3:13 p -10.9 -10.9 -10.9 --- --- 1.7 NNW 0.03 2.6 -12.6 --- --- 723.7 0.020 0.000 6.8 4 1
02/09/06 3:14 p -10.9 -10.9 -10.9 --- --- 2.6 NNW 0.04 2.6 -13.8 --- --- 723.7 0.020 0.000 6.8 4 1
02/09/06 3:15 p -10.9 -10.9 -10.9 --- --- 1.7 NNW 0.03 2.6 -12.6 --- --- 723.7 0.020 0.000 6.8 4 1
02/09/06 3:16 p -10.9 -10.9 -10.9 --- --- 1.7 NNW 0.03 2.6 -12.6 --- --- 723.7 0.020 0.000 6.8 4 1
02/09/06 3:17 p -10.9 -10.9 -11.0 --- --- 2.6 NNW 0.04 2.6 -13.9 --- --- 723.7 0.020 0.000 6.8 4 1
02/09/06 3:18 p -11.0 -11.0 -11.0 --- --- 1.7 NNW 0.03 2.6 -12.7 --- --- 723.7 0.020 0.000 6.8 4 1
02/09/06 3:19 p -11.0 -11.0 -11.0 --- --- 2.6 NNW 0.04 2.6 -13.9 --- --- 723.7 0.020 0.000 6.8 4 1
02/09/06 3:20 p -10.9 -10.9 -11.0 --- --- 2.6 NNW 0.04 3.5 -13.9 --- --- 723.7 0.020 0.000 6.8 4 1
02/09/06 3:21 p -10.9 -10.9 -10.9 --- --- 2.6 NNW 0.04 3.5 -13.8 --- --- 723.7 0.020 0.000 6.8 4 1
02/09/06 3:22 p -10.9 -10.9 -10.9 --- --- 2.6 NNW 0.04 3.5 -13.8 --- --- 723.7 0.020 0.000 6.8 4 1
02/09/06 3:23 p -10.9 -10.9 -10.9 --- --- 2.6 NNW 0.04 3.5 -13.8 --- --- 723.6 0.020 0.000 6.8 4 1
02/09/06 3:24 p -10.8 -10.8 -10.9 --- --- 3.5 NNW 0.06 4.3 -14.7 --- --- 723.6 0.020 0.000 6.9 4 1
02/09/06 3:25 p -10.8 -10.8 -10.8 --- --- 2.6 NNW 0.04 3.5 -13.7 --- --- 723.7 0.020 0.000 6.9 4 1
02/09/06 3:26 p -10.8 -10.8 -10.8 --- --- 3.5 NNW 0.06 4.3 -14.6 --- --- 723.6 0.020 0.000 6.9 4 1
02/09/06 3:27 p -10.8 -10.8 -10.8 --- --- 3.5 NNW 0.06 4.3 -14.7 --- --- 723.6 0.020 0.000 6.9 4 1
02/09/06 3:28 p -10.8 -10.8 -10.8 --- --- 3.5 NNW 0.06 4.3 -14.6 --- --- 723.7 0.020 0.000 6.9 4 1
02/09/06 3:29 p -10.8 -10.8 -10.8 --- --- 3.5 NNW 0.06 4.3 -14.6 --- --- 723.6 0.020 0.000 6.9 4 1
02/09/06 3:30 p -10.8 -10.8 -10.8 --- --- 3.5 NNW 0.06 5.2 -14.6 --- --- 723.6 0.020 0.000 6.9 4 1
02/09/06 3:31 p -10.8 -10.8 -10.8 --- --- 4.3 NNW 0.07 5.2 -15.4 --- --- 723.6 0.020 0.000 6.9 4 1
02/09/06 3:32 p -10.8 -10.7 -10.8 --- --- 4.3 NNW 0.07 5.2 -15.4 --- --- 723.6 0.020 0.000 6.9 4 1
02/09/06 3:33 p -10.8 -10.8 -10.8 --- --- 3.5 NNW 0.06 4.3 -14.6 --- --- 723.6 0.020 0.000 6.9 4 1
02/09/06 3:34 p -10.8 -10.8 -10.8 --- --- 4.3 NNW 0.07 5.2 -15.4 --- --- 723.6 0.020 0.000 6.9 4 1
02/09/06 3:35 p -10.8 -10.8 -10.8 --- --- 3.5 NNW 0.06 4.3 -14.7 --- --- 723.5 0.020 0.000 6.9 4 1
02/09/06 3:36 p -10.8 -10.8 -10.8 --- --- 3.5 NNW 0.06 4.3 -14.6 --- --- 723.6 0.020 0.000 6.9 4 1
02/09/06 3:37 p -10.8 -10.8 -10.8 --- --- 4.3 NNW 0.07 5.2 -15.4 --- --- 723.6 0.020 0.000 6.9 4 1
02/09/06 3:38 p -10.8 -10.8 -10.8 --- --- 3.5 NNW 0.06 4.3 -14.6 --- --- 723.6 0.020 0.000 6.9 4 1
02/09/06 3:39 p -10.8 -10.8 -10.9 --- --- 4.3 NNW 0.07 5.2 -15.4 --- --- 723.5 0.020 0.000 6.9 4 1
02/09/06 3:40 p -10.8 -10.8 -10.8 --- --- 3.5 NNW 0.06 4.3 -14.7 --- --- 723.6 0.020 0.000 6.9 3 1
02/09/06 3:41 p -10.8 -10.8 -10.9 --- --- 3.5 NNW 0.06 5.2 -14.7 --- --- 723.6 0.020 0.000 6.9 4 1
02/09/06 3:42 p -10.7 -10.7 -10.8 --- --- 3.5 NNW 0.06 4.3 -14.6 --- --- 723.6 0.020 0.000 6.9 4 1
02/09/06 3:43 p -10.8 -10.8 -10.8 --- --- 3.5 NNW 0.06 4.3 -14.7 --- --- 723.6 0.020 0.000 6.9 4 1
02/09/06 3:44 p -10.8 -10.8 -10.8 --- --- 2.6 NNW 0.04 3.5 -13.7 --- --- 723.6 0.020 0.000 6.9 4 1
02/09/06 3:45 p -10.8 -10.8 -10.8 --- --- 2.6 NNW 0.04 3.5 -13.7 --- --- 723.5 0.020 0.000 6.8 4 1
02/09/06 3:46 p -10.9 -10.8 -10.9 --- --- 1.7 NNW 0.03 3.5 -12.6 --- --- 723.6 0.020 0.000 6.8 4 1
02/09/06 3:47 p -10.9 -10.9 -10.9 --- --- 1.7 NNW 0.03 2.6 -12.6 --- --- 723.6 0.020 0.000 6.8 4 1
02/09/06 3:48 p -10.9 -10.8 -10.9 --- --- 0.9 NNW 0.01 1.7 -10.9 --- --- 723.5 0.020 0.000 6.8 4 1
02/09/06 3:49 p -10.8 -10.8 -10.9 --- --- 1.7 NNW 0.03 3.5 -12.5 --- --- 723.5 0.020 0.000 6.8 4 1
02/09/06 3:50 p -10.8 -10.8 -10.9 --- --- 2.6 NNW 0.04 3.5 -13.7 --- --- 723.5 0.020 0.000 6.8 4 1
02/09/06 3:51 p -10.8 -10.8 -10.9 --- --- 1.7 NNW 0.03 2.6 -12.5 --- --- 723.5 0.020 0.000 6.8 4 1
02/09/06 3:52 p -10.9 -10.8 -10.9 --- --- 1.7 NNW 0.03 2.6 -12.6 --- --- 723.5 0.020 0.000 6.8 4 1
02/09/06 3:53 p -10.8 -10.8 -10.8 --- --- 1.7 NNW 0.03 2.6 -12.5 --- --- 723.5 0.020 0.000 6.8 4 1
02/09/06 3:54 p -10.8 -10.8 -10.8 --- --- 1.7 NNW 0.03 2.6 -12.4 --- --- 723.6 0.020 0.000 6.8 4 1
02/09/06 3:55 p -10.8 -10.8 -10.8 --- --- 1.7 NNW 0.03 2.6 -12.4 --- --- 723.5 0.020 0.000 6.8 4 1
02/09/06 3:56 p -10.8 -10.8 -10.8 --- --- 2.6 NNW 0.04 2.6 -13.7 --- --- 723.5 0.020 0.000 6.8 4 1
02/09/06 3:57 p -10.8 -10.8 -10.8 --- --- 1.7 NNW 0.03 3.5 -12.4 --- --- 723.5 0.020 0.000 6.8 4 1
02/09/06 3:58 p -10.8 -10.8 -10.8 --- --- 2.6 NNW 0.04 3.5 -13.7 --- --- 723.5 0.020 0.000 6.8 3 1
02/09/06 3:59 p -10.8 -10.8 -10.8 --- --- 2.6 NNW 0.04 3.5 -13.7 --- --- 723.6 0.020 0.000 6.8 4 1
02/09/06 4:00 p -10.7 -10.7 -10.7 --- --- 2.6 NNW 0.04 3.5 -13.6 --- --- 723.5 0.020 0.000 6.8 4 1
02/09/06 4:01 p -10.7 -10.7 -10.7 --- --- 2.6 NNW 0.04 4.3 -13.6 --- --- 723.5 0.020 0.000 6.8 4 1
02/09/06 4:02 p -10.7 -10.7 -10.7 --- --- 2.6 NNW 0.04 3.5 -13.6 --- --- 723.5 0.020 0.000 6.8 4 1
02/09/06 4:03 p -10.7 -10.7 -10.7 --- --- 1.7 NNW 0.03 2.6 -12.3 --- --- 723.5 0.020 0.000 6.8 4 1
02/09/06 4:04 p -10.7 -10.7 -10.7 --- --- 1.7 NNW 0.03 2.6 -12.3 --- --- 723.5 0.020 0.000 6.8 4 1
02/09/06 4:05 p -10.7 -10.7 -10.7 --- --- 1.7 NNW 0.03 2.6 -12.3 --- --- 723.5 0.020 0.000 6.8 4 1
02/09/06 4:06 p -10.7 -10.7 -10.7 --- --- 1.7 NNW 0.03 2.6 -12.3 --- --- 723.5 0.020 0.000 6.8 4 1
02/09/06 4:07 p -10.7 -10.7 -10.7 --- --- 0.9 NNW 0.01 1.7 -10.7 --- --- 723.5 0.020 0.000 6.8 4 1
02/09/06 4:08 p -10.7 -10.7 -10.7 --- --- 0.9 NNW 0.01 1.7 -10.7 --- --- 723.5 0.020 0.000 6.8 4 1
02/09/06 4:09 p -10.7 -10.7 -10.7 --- --- 0.9 NNW 0.01 1.7 -10.7 --- --- 723.5 0.020 0.000 6.8 4 1
02/09/06 4:10 p -10.7 -10.7 -10.7 --- --- 0.9 NNW 0.01 1.7 -10.7 --- --- 723.5 0.020 0.000 6.8 4 1
02/09/06 4:11 p -10.7 -10.7 -10.7 --- --- 0.9 NNW 0.01 0.9 -10.7 --- --- 723.5 0.020 0.000 6.8 4 1
02/09/06 4:12 p -10.7 -10.7 -10.8 --- --- 0.0 NNW 0.00 0.9 -10.7 --- --- 723.4 0.020 0.000 6.8 4 1
02/09/06 4:13 p -10.7 -10.7 -10.8 --- --- 0.0 --- 0.00 0.0 -10.7 --- --- 723.4 0.020 0.000 6.8 3 1
02/09/06 4:14 p -10.7 -10.7 -10.7 --- --- 0.0 --- 0.00 0.0 -10.7 --- --- 723.5 0.020 0.000 6.8 3 1
02/09/06 4:15 p -10.7 -10.7 -10.8 --- --- 0.0 --- 0.00 0.0 -10.7 --- --- 723.4 0.020 0.000 6.8 4 1
02/09/06 4:16 p -10.8 -10.8 -10.8 --- --- 0.0 --- 0.00 0.0 -10.8 --- --- 723.4 0.020 0.000 6.8 4 1
02/09/06 4:17 p -10.8 -10.8 -10.9 --- --- 0.0 --- 0.00 0.0 -10.8 --- --- 723.4 0.020 0.000 6.9 3 1
02/09/06 4:18 p -10.9 -10.9 -10.9 --- --- 0.0 --- 0.00 0.0 -10.9 --- --- 723.4 0.020 0.000 6.9 3 1
02/09/06 4:19 p -10.9 -10.9 -10.9 --- --- 0.0 --- 0.00 0.0 -10.9 --- --- 723.5 0.020 0.000 6.9 3 1
02/09/06 4:20 p -11.0 -11.0 -11.0 --- --- 0.0 --- 0.00 0.0 -11.0 --- --- 723.5 0.020 0.000 6.9 4 1
02/09/06 4:21 p -11.0 -11.0 -11.1 --- --- 0.0 --- 0.00 0.0 -11.0 --- --- 723.5 0.020 0.000 6.9 3 1
02/09/06 4:22 p -11.0 -11.0 -11.0 --- --- 0.0 --- 0.00 0.0 -11.0 --- --- 723.4 0.020 0.000 6.9 4 1
02/09/06 4:23 p -10.9 -10.9 -10.9 --- --- 0.0 --- 0.00 0.0 -10.9 --- --- 723.5 0.020 0.000 6.8 4 1
02/09/06 4:24 p -10.8 -10.7 -10.8 --- --- 0.0 --- 0.00 0.0 -10.8 --- --- 723.4 0.020 0.000 6.9 4 1
02/09/06 4:25 p -10.7 -10.7 -10.7 --- --- 0.0 --- 0.00 0.0 -10.7 --- --- 723.6 0.020 0.000 6.9 4 1
02/09/06 4:26 p -10.6 -10.6 -10.7 --- --- 0.0 --- 0.00 0.0 -10.6 --- --- 723.5 0.020 0.000 6.9 3 1
02/09/06 4:27 p -10.6 -10.6 -10.7 --- --- 0.9 NNW 0.01 4.3 -10.6 --- --- 723.5 0.020 0.000 6.9 4 1
02/09/06 4:28 p -10.8 -10.7 -10.8 --- --- 6.1 NE 0.10 7.8 -16.6 --- --- 723.5 0.020 0.000 6.9 4 1
02/09/06 4:29 p -10.9 -10.8 -11.1 --- --- 6.1 NE 0.10 7.8 -16.8 --- --- 723.4 0.020 0.000 6.9 4 1
02/09/06 4:30 p -11.2 -11.1 -11.3 --- --- 7.0 NE 0.12 7.8 -17.6 --- --- 723.4 0.020 0.000 6.9 4 1
02/09/06 4:31 p -11.4 -11.3 -11.4 --- --- 7.8 NE 0.13 8.7 -18.2 --- --- 723.3 0.021 0.000 6.9 4 1
02/09/06 4:32 p -11.6 -11.6 -11.7 --- --- 8.7 NE 0.14 8.7 -18.9 --- --- 723.3 0.021 0.000 6.9 4 1
02/09/06 4:33 p -11.8 -11.7 -11.8 --- --- 8.7 ENE 0.14 9.6 -19.1 --- --- 723.4 0.021 0.000 6.9 3 1
02/09/06 4:34 p -11.9 -11.8 -12.1 --- --- 7.8 NE 0.13 9.6 -18.9 --- --- 723.4 0.021 0.000 6.9 4 1
02/09/06 4:35 p -12.1 -12.1 -12.2 --- --- 7.8 NE 0.13 9.6 -19.1 --- --- 723.4 0.021 0.000 6.9 4 1
02/09/06 4:36 p -12.3 -12.2 -12.3 --- --- 7.8 NE 0.13 7.8 -19.3 --- --- 723.3 0.021 0.000 6.9 3 1
02/09/06 4:37 p -12.4 -12.3 -12.4 --- --- 7.8 NE 0.13 8.7 -19.4 --- --- 723.3 0.021 0.000 6.9 4 1
02/09/06 4:38 p -12.4 -12.4 -12.5 --- --- 7.8 NE 0.13 8.7 -19.6 --- --- 723.3 0.021 0.000 6.9 4 1
02/09/06 4:39 p -12.6 -12.5 -12.6 --- --- 7.0 ENE 0.12 8.7 -19.2 --- --- 723.4 0.021 0.000 6.9 3 1
02/09/06 4:40 p -12.6 -12.6 -12.6 --- --- 7.0 ENE 0.12 8.7 -19.3 --- --- 723.4 0.021 0.000 6.9 4 1
02/09/06 4:41 p -12.6 -12.6 -12.6 --- --- 7.8 ENE 0.13 8.7 -19.7 --- --- 723.3 0.021 0.000 6.9 4 1
02/09/06 4:42 p -12.7 -12.7 -12.7 --- --- 8.7 NE 0.14 9.6 -20.2 --- --- 723.5 0.022 0.000 6.9 4 1
02/09/06 4:43 p -12.7 -12.7 -12.8 --- --- 8.7 NE 0.14 9.6 -20.3 --- --- 723.5 0.022 0.000 6.9 3 1
02/09/06 4:44 p -12.8 -12.8 -12.9 --- --- 8.7 NE 0.14 9.6 -20.4 --- --- 723.3 0.022 0.000 6.8 4 1
02/09/06 4:45 p -12.9 -12.9 -12.9 --- --- 7.8 NE 0.13 8.7 -20.2 --- --- 723.4 0.022 0.000 6.8 3 1
02/09/06 4:46 p -12.9 -12.9 -12.9 --- --- 7.8 NE 0.13 8.7 -20.2 --- --- 723.3 0.022 0.000 6.8 4 1
02/09/06 4:47 p -13.0 -12.9 -13.0 --- --- 7.8 NE 0.13 8.7 -20.2 --- --- 723.3 0.022 0.000 6.8 4 1
02/09/06 4:48 p -12.9 -12.9 -12.9 --- --- 8.7 NE 0.14 9.6 -20.6 --- --- 723.3 0.022 0.000 6.8 4 1
02/09/06 4:49 p -12.9 -12.9 -12.9 --- --- 8.7 NE 0.14 9.6 -20.6 --- --- 723.3 0.022 0.000 6.8 4 1
02/09/06 4:50 p -12.9 -12.9 -12.9 --- --- 8.7 NE 0.14 10.4 -20.5 --- --- 723.3 0.022 0.000 6.8 4 1
02/09/06 4:51 p -12.9 -12.9 -12.9 --- --- 9.6 NE 0.16 11.3 -20.9 --- --- 723.3 0.022 0.000 6.8 4 1
02/09/06 4:52 p -12.9 -12.9 -12.9 --- --- 9.6 NE 0.16 10.4 -20.9 --- --- 723.3 0.022 0.000 6.8 4 1
02/09/06 4:53 p -13.0 -12.9 -13.1 --- --- 9.6 NE 0.16 10.4 -21.1 --- --- 723.3 0.022 0.000 6.8 4 1
02/09/06 4:54 p -13.1 -13.1 -13.1 --- --- 9.6 NE 0.16 11.3 -21.2 --- --- 723.3 0.022 0.000 6.8 4 1
02/09/06 4:55 p -13.2 -13.1 -13.3 --- --- 10.4 NE 0.17 11.3 -21.6 --- --- 723.3 0.022 0.000 6.8 4 1
02/09/06 4:56 p -13.3 -13.3 -13.3 --- --- 10.4 NE 0.17 12.2 -21.8 --- --- 723.3 0.022 0.000 6.8 4 1
02/09/06 4:57 p -13.4 -13.3 -13.4 --- --- 10.4 NE 0.17 11.3 -21.9 --- --- 723.4 0.022 0.000 6.8 4 1
02/09/06 4:58 p -13.4 -13.4 -13.5 --- --- 10.4 NE 0.17 11.3 -22.0 --- --- 723.3 0.022 0.000 6.8 4 1
02/09/06 4:59 p -13.5 -13.5 -13.6 --- --- 10.4 NE 0.17 11.3 -22.1 --- --- 723.4 0.022 0.000 6.8 4 1
02/09/06 5:00 p -13.6 -13.6 -13.6 --- --- 11.3 ENE 0.19 12.2 -22.4 --- --- 723.3 0.022 0.000 6.8 4 1
02/09/06 5:01 p -13.7 -13.6 -13.7 --- --- 11.3 ENE 0.19 13.0 -22.6 --- --- 723.3 0.022 0.000 6.8 4 1
02/09/06 5:02 p -13.7 -13.7 -13.7 --- --- 11.3 ENE 0.19 12.2 -22.7 --- --- 723.2 0.022 0.000 6.8 4 1
02/09/06 5:03 p -13.7 -13.7 -13.8 --- --- 12.2 ENE 0.20 13.0 -23.0 --- --- 723.3 0.022 0.000 6.8 4 1
02/09/06 5:04 p -13.8 -13.8 -13.8 --- --- 12.2 ENE 0.20 13.0 -23.2 --- --- 723.2 0.022 0.000 6.8 4 1
02/09/06 5:05 p -13.8 -13.8 -13.8 --- --- 12.2 ENE 0.20 13.0 -23.2 --- --- 723.3 0.022 0.000 6.8 4 1
02/09/06 5:06 p -13.8 -13.8 -13.9 --- --- 12.2 ENE 0.20 13.0 -23.2 --- --- 723.2 0.022 0.000 6.8 4 1
02/09/06 5:07 p -13.8 -13.8 -13.9 --- --- 12.2 ENE 0.20 13.9 -23.2 --- --- 723.2 0.022 0.000 6.8 4 1
02/09/06 5:08 p -13.8 -13.8 -13.8 --- --- 11.3 ENE 0.19 13.0 -22.8 --- --- 723.2 0.022 0.000 6.8 4 1
02/09/06 5:09 p -13.8 -13.8 -13.8 --- --- 11.3 ENE 0.19 13.0 -22.8 --- --- 723.2 0.022 0.000 6.8 4 1
02/09/06 5:10 p -13.8 -13.8 -13.8 --- --- 12.2 ENE 0.20 13.0 -23.1 --- --- 723.3 0.022 0.000 6.8 4 1
02/09/06 5:11 p -13.8 -13.8 -13.8 --- --- 11.3 ENE 0.19 13.0 -22.8 --- --- 723.2 0.022 0.000 6.8 4 1
02/09/06 5:12 p -13.9 -13.8 -13.9 --- --- 13.0 ENE 0.22 14.8 -23.5 --- --- 723.2 0.022 0.000 6.8 4 1
02/09/06 5:13 p -14.0 -13.9 -14.1 --- --- 12.2 ENE 0.20 13.9 -23.3 --- --- 723.3 0.022 0.000 6.8 4 1
02/09/06 5:14 p -14.1 -14.1 -14.2 --- --- 11.3 ENE 0.19 13.0 -23.2 --- --- 723.2 0.023 0.000 6.8 4 1
02/09/06 5:15 p -14.2 -14.2 -14.3 --- --- 11.3 E 0.19 13.9 -23.3 --- --- 723.1 0.023 0.000 6.8 4 1
02/09/06 5:16 p -14.3 -14.3 -14.3 --- --- 12.2 E 0.20 14.8 -23.8 --- --- 723.3 0.023 0.000 6.8 4 1
02/09/06 5:17 p -14.3 -14.3 -14.3 --- --- 9.6 E 0.16 11.3 -22.7 --- --- 723.2 0.023 0.000 6.8 4 1
02/09/06 5:18 p -14.3 -14.3 -14.3 --- --- 13.0 E 0.22 13.9 -24.1 --- --- 723.2 0.023 0.000 6.8 4 1
02/09/06 5:19 p -14.3 -14.3 -14.3 --- --- 11.3 ENE 0.19 13.0 -23.4 --- --- 723.2 0.023 0.000 6.8 4 1
02/09/06 5:20 p -14.3 -14.3 -14.3 --- --- 11.3 ENE 0.19 13.0 -23.4 --- --- 723.1 0.023 0.000 6.8 4 1
02/09/06 5:21 p -14.4 -14.3 -14.4 --- --- 9.6 ENE 0.16 13.0 -22.8 --- --- 723.1 0.023 0.000 6.8 4 1
02/09/06 5:22 p -14.4 -14.4 -14.4 --- --- 13.9 ENE 0.23 15.7 -24.4 --- --- 723.2 0.023 0.000 6.8 4 1
02/09/06 5:23 p -14.4 -14.4 -14.4 --- --- 12.2 ENE 0.20 13.9 -23.8 --- --- 723.2 0.023 0.000 6.8 4 1
02/09/06 5:24 p -14.4 -14.4 -14.4 --- --- 10.4 NE 0.17 13.9 -23.2 --- --- 723.1 0.023 0.000 6.8 4 1
02/09/06 5:25 p -14.4 -14.4 -14.4 --- --- 14.8 ENE 0.25 15.7 -24.7 --- --- 723.1 0.023 0.000 6.8 4 1
02/09/06 5:26 p -14.3 -14.3 -14.3 --- --- 12.2 ENE 0.20 13.9 -23.8 --- --- 723.1 0.023 0.000 6.8 4 1
02/09/06 5:27 p -14.3 -14.3 -14.3 --- --- 10.4 NE 0.17 13.0 -23.1 --- --- 723.1 0.023 0.000 6.8 4 1
02/09/06 5:28 p -14.3 -14.3 -14.3 --- --- 13.9 ENE 0.23 15.7 -24.3 --- --- 723.2 0.023 0.000 6.8 4 1
02/09/06 5:29 p -14.2 -14.2 -14.3 --- --- 11.3 NE 0.19 13.0 -23.3 --- --- 723.2 0.023 0.000 6.8 4 1
02/09/06 5:30 p -14.2 -14.2 -14.2 --- --- 12.2 ENE 0.20 13.9 -23.6 --- --- 723.1 0.023 0.000 6.8 4 1
02/09/06 5:31 p -14.2 -14.2 -14.2 --- --- 13.0 ENE 0.22 13.9 -23.9 --- --- 723.1 0.023 0.000 6.8 4 1
02/09/06 5:32 p -14.1 -14.1 -14.2 --- --- 13.0 ENE 0.22 13.9 -23.8 --- --- 723.1 0.023 0.000 6.8 4 1
02/09/06 5:33 p -14.1 -14.1 -14.1 --- --- 13.0 ENE 0.22 13.9 -23.7 --- --- 723.1 0.022 0.000 6.8 4 1
02/09/06 5:34 p -14.0 -13.9 -14.0 --- --- 13.9 ENE 0.23 13.9 -23.9 --- --- 723.1 0.022 0.000 6.8 4 1
02/09/06 5:35 p -13.9 -13.9 -13.9 --- --- 12.2 ENE 0.20 13.0 -23.3 --- --- 723.2 0.022 0.000 6.8 4 1
02/09/06 5:36 p -13.8 -13.8 -13.9 --- --- 13.0 ENE 0.22 13.9 -23.4 --- --- 723.1 0.022 0.000 6.8 4 1
02/09/06 5:37 p -13.8 -13.8 -13.8 --- --- 12.2 ENE 0.20 13.0 -23.2 --- --- 723.1 0.022 0.000 6.8 4 1
02/09/06 5:38 p -13.8 -13.7 -13.8 --- --- 12.2 ENE 0.20 13.0 -23.1 --- --- 723.1 0.022 0.000 6.8 4 1
02/09/06 5:39 p -13.7 -13.7 -13.7 --- --- 11.3 ENE 0.19 12.2 -22.7 --- --- 723.2 0.022 0.000 6.8 4 1
02/09/06 5:40 p -13.7 -13.7 -13.7 --- --- 12.2 ENE 0.20 13.0 -23.0 --- --- 723.2 0.022 0.000 6.8 4 1
02/09/06 5:41 p -13.7 -13.7 -13.7 --- --- 11.3 ENE 0.19 13.0 -22.6 --- --- 723.1 0.022 0.000 6.8 4 1
02/09/06 5:42 p -13.7 -13.7 -13.7 --- --- 12.2 ENE 0.20 13.9 -22.9 --- --- 723.1 0.022 0.000 6.8 4 1
02/09/06 5:43 p -13.7 -13.7 -13.7 --- --- 12.2 ENE 0.20 13.0 -22.9 --- --- 723.1 0.022 0.000 6.8 4 1
02/09/06 5:44 p -13.7 -13.7 -13.7 --- --- 12.2 ENE 0.20 13.9 -22.9 --- --- 723.1 0.022 0.000 6.8 4 1
02/09/06 5:45 p -13.7 -13.7 -13.7 --- --- 12.2 ENE 0.20 13.9 -22.9 --- --- 723.1 0.022 0.000 6.7 4 1
02/09/06 5:46 p -13.7 -13.7 -13.7 --- --- 12.2 ENE 0.20 13.0 -22.9 --- --- 723.1 0.022 0.000 6.7 4 1
02/09/06 5:47 p -13.7 -13.7 -13.7 --- --- 13.0 ENE 0.22 13.9 -23.2 --- --- 723.1 0.022 0.000 6.7 4 1
02/09/06 5:48 p -13.7 -13.7 -13.7 --- --- 13.0 ENE 0.22 13.9 -23.2 --- --- 723.1 0.022 0.000 6.7 4 1
02/09/06 5:49 p -13.7 -13.7 -13.7 --- --- 12.2 NE 0.20 13.0 -22.9 --- --- 723.0 0.022 0.000 6.7 4 1
02/09/06 5:50 p -13.6 -13.6 -13.6 --- --- 12.2 NE 0.20 13.0 -22.8 --- --- 723.1 0.022 0.000 6.7 4 1
02/09/06 5:51 p -13.6 -13.6 -13.6 --- --- 12.2 NE 0.20 12.2 -22.8 --- --- 723.1 0.022 0.000 6.7 4 1
02/09/06 5:52 p -13.6 -13.6 -13.6 --- --- 11.3 ENE 0.19 13.0 -22.4 --- --- 723.0 0.022 0.000 6.7 4 1
02/09/06 5:53 p -13.6 -13.6 -13.6 --- --- 11.3 ENE 0.19 12.2 -22.4 --- --- 723.0 0.022 0.000 6.7 4 1
02/09/06 5:54 p -13.6 -13.5 -13.6 --- --- 11.3 NE 0.19 12.2 -22.4 --- --- 723.1 0.022 0.000 6.7 4 1
02/09/06 5:55 p -13.5 -13.5 -13.6 --- --- 11.3 NE 0.19 13.0 -22.4 --- --- 723.1 0.022 0.000 6.7 4 1
02/09/06 5:56 p -13.5 -13.5 -13.5 --- --- 12.2 NE 0.20 13.0 -22.7 --- --- 723.0 0.022 0.000 6.7 4 1
02/09/06 5:57 p -13.5 -13.5 -13.5 --- --- 12.2 NE 0.20 13.0 -22.7 --- --- 723.1 0.022 0.000 6.7 4 1
02/09/06 5:58 p -13.5 -13.5 -13.6 --- --- 12.2 NE 0.20 13.0 -22.7 --- --- 723.1 0.022 0.000 6.7 4 1
02/09/06 5:59 p -13.5 -13.5 -13.5 --- --- 12.2 NE 0.20 13.0 -22.7 --- --- 723.0 0.022 0.000 6.7 4 1
02/09/06 6:00 p -13.5 -13.5 -13.5 --- --- 13.9 NE 0.23 14.8 -23.3 --- --- 723.0 0.022 0.000 6.8 4 1
02/09/06 6:01 p -13.5 -13.5 -13.5 --- --- 13.9 NE 0.23 14.8 -23.3 --- --- 723.0 0.022 0.000 6.8 4 1
02/09/06 6:02 p -13.5 -13.5 -13.5 --- --- 13.9 ENE 0.23 14.8 -23.3 --- --- 723.1 0.022 0.000 6.8 4 1
02/09/06 6:03 p -13.6 -13.5 -13.6 --- --- 13.0 NE 0.22 14.8 -23.1 --- --- 723.1 0.022 0.000 6.8 4 1
02/09/06 6:04 p -13.6 -13.6 -13.6 --- --- 13.9 NE 0.23 13.9 -23.4 --- --- 723.1 0.022 0.000 6.8 4 1
02/09/06 6:05 p -13.6 -13.6 -13.6 --- --- 13.0 NE 0.22 13.9 -23.1 --- --- 723.1 0.022 0.000 6.8 4 1
02/09/06 6:06 p -13.6 -13.6 -13.6 --- --- 12.2 NE 0.20 13.9 -22.8 --- --- 723.2 0.022 0.000 6.8 4 1
02/09/06 6:07 p -13.6 -13.6 -13.7 --- --- 13.9 NE 0.23 15.7 -23.4 --- --- 723.2 0.022 0.000 6.9 4 1
02/09/06 6:08 p -13.7 -13.7 -13.7 --- --- 13.0 NE 0.22 14.8 -23.2 --- --- 723.1 0.022 0.000 6.9 4 1
02/09/06 6:09 p -13.6 -13.6 -13.7 --- --- 13.0 NE 0.22 14.8 -23.2 --- --- 723.2 0.022 0.000 6.9 4 1
02/09/06 6:10 p -13.6 -13.6 -13.6 --- --- 13.9 NE 0.23 14.8 -23.4 --- --- 723.1 0.022 0.000 6.9 4 1
02/09/06 6:11 p -13.6 -13.5 -13.6 --- --- 12.2 NE 0.20 13.0 -22.8 --- --- 723.1 0.022 0.000 6.9 4 1
02/09/06 6:12 p -13.4 -13.4 -13.5 --- --- 12.2 NE 0.20 13.0 -22.7 --- --- 723.1 0.022 0.000 6.9 4 1
02/09/06 6:13 p -13.4 -13.4 -13.4 --- --- 12.2 NE 0.20 13.9 -22.6 --- --- 723.1 0.022 0.000 6.9 4 1
02/09/06 6:14 p -13.3 -13.3 -13.4 --- --- 13.0 ENE 0.22 13.9 -22.8 --- --- 723.1 0.022 0.000 6.9 4 1
02/09/06 6:15 p -13.3 -13.3 -13.3 --- --- 14.8 ENE 0.25 16.5 -23.4 --- --- 723.1 0.022 0.000 6.9 4 1
02/09/06 6:16 p -13.3 -13.3 -13.3 --- --- 14.8 ENE 0.25 15.7 -23.4 --- --- 723.2 0.022 0.000 6.9 4 1
02/09/06 6:17 p -13.3 -13.3 -13.3 --- --- 13.0 NE 0.22 13.9 -22.8 --- --- 723.1 0.022 0.000 6.9 4 1
02/09/06 6:18 p -13.3 -13.2 -13.3 --- --- 13.0 NE 0.22 13.9 -22.7 --- --- 723.2 0.022 0.000 6.9 4 1
02/09/06 6:19 p -13.2 -13.2 -13.2 --- --- 12.2 NE 0.20 13.0 -22.3 --- --- 723.1 0.022 0.000 6.9 4 1
02/09/06 6:20 p -13.2 -13.2 -13.2 --- --- 12.2 NE 0.20 13.0 -22.3 --- --- 723.1 0.022 0.000 6.9 4 1
02/09/06 6:21 p -13.2 -13.2 -13.2 --- --- 13.9 NE 0.23 14.8 -22.9 --- --- 723.1 0.022 0.000 6.9 4 1
02/09/06 6:22 p -13.1 -13.1 -13.2 --- --- 14.8 ENE 0.25 15.7 -23.1 --- --- 723.2 0.022 0.000 6.9 4 1
02/09/06 6:23 p -13.1 -13.1 -13.1 --- --- 13.9 ENE 0.23 14.8 -22.7 --- --- 723.2 0.022 0.000 6.9 4 1
02/09/06 6:24 p -13.1 -13.1 -13.1 --- --- 13.0 NE 0.22 13.9 -22.4 --- --- 723.1 0.022 0.000 6.9 4 1
02/09/06 6:25 p -12.9 -12.9 -13.1 --- --- 12.2 NE 0.20 13.0 -22.0 --- --- 723.2 0.022 0.000 6.9 4 1
02/09/06 6:26 p -12.9 -12.9 -12.9 --- --- 11.3 NE 0.19 12.2 -21.6 --- --- 723.1 0.022 0.000 6.9 4 1
02/09/06 6:27 p -12.8 -12.8 -12.9 --- --- 11.3 NE 0.19 12.2 -21.6 --- --- 723.1 0.022 0.000 6.9 4 1
02/09/06 6:28 p -12.8 -12.8 -12.8 --- --- 11.3 NE 0.19 13.0 -21.6 --- --- 723.1 0.022 0.000 6.9 4 1
02/09/06 6:29 p -12.8 -12.8 -12.8 --- --- 12.2 NE 0.20 12.2 -21.8 --- --- 723.1 0.022 0.000 6.9 4 1
02/09/06 6:30 p -12.7 -12.7 -12.8 --- --- 12.2 NE 0.20 13.0 -21.7 --- --- 723.0 0.022 0.000 6.9 4 1
02/09/06 6:31 p -12.7 -12.7 -12.7 --- --- 11.3 ENE 0.19 12.2 -21.4 --- --- 723.1 0.022 0.000 6.9 4 1
02/09/06 6:32 p -12.7 -12.7 -12.7 --- --- 10.4 NE 0.17 12.2 -21.1 --- --- 723.2 0.022 0.000 6.9 4 1
02/09/06 6:33 p -12.7 -12.6 -12.7 --- --- 12.2 NE 0.20 12.2 -21.7 --- --- 723.1 0.022 0.000 6.9 4 1
02/09/06 6:34 p -12.6 -12.6 -12.6 --- --- 11.3 ENE 0.19 12.2 -21.3 --- --- 723.1 0.021 0.000 6.9 4 1
02/09/06 6:35 p -12.6 -12.5 -12.6 --- --- 11.3 NE 0.19 12.2 -21.2 --- --- 723.2 0.021 0.000 6.8 4 1
02/09/06 6:36 p -12.5 -12.4 -12.5 --- --- 9.6 NE 0.16 11.3 -20.4 --- --- 723.1 0.021 0.000 6.8 4 1
02/09/06 6:37 p -12.4 -12.4 -12.4 --- --- 9.6 NE 0.16 10.4 -20.3 --- --- 723.2 0.021 0.000 6.8 4 1
02/09/06 6:38 p -12.4 -12.3 -12.4 --- --- 9.6 NE 0.16 10.4 -20.3 --- --- 723.2 0.021 0.000 6.8 4 1
02/09/06 6:39 p -12.3 -12.3 -12.3 --- --- 9.6 NE 0.16 10.4 -20.2 --- --- 723.1 0.021 0.000 6.8 4 1
02/09/06 6:40 p -12.3 -12.3 -12.3 --- --- 11.3 NE 0.19 11.3 -20.8 --- --- 723.2 0.021 0.000 6.8 4 1
02/09/06 6:41 p -12.2 -12.2 -12.3 --- --- 10.4 ENE 0.17 11.3 -20.4 --- --- 723.2 0.021 0.000 6.8 4 1
02/09/06 6:42 p -12.2 -12.2 -12.2 --- --- 10.4 ENE 0.17 11.3 -20.4 --- --- 723.1 0.021 0.000 6.8 4 1
02/09/06 6:43 p -12.2 -12.2 -12.2 --- --- 10.4 ENE 0.17 11.3 -20.4 --- --- 723.2 0.021 0.000 6.8 4 1
02/09/06 6:44 p -12.2 -12.2 -12.2 --- --- 11.3 ENE 0.19 12.2 -20.7 --- --- 723.1 0.021 0.000 6.8 4 1
02/09/06 6:45 p -12.2 -12.2 -12.2 --- --- 11.3 ENE 0.19 12.2 -20.7 --- --- 723.1 0.021 0.000 6.8 4 1
02/09/06 6:46 p -12.2 -12.1 -12.2 --- --- 10.4 NE 0.17 11.3 -20.4 --- --- 723.1 0.021 0.000 6.8 4 1
02/09/06 6:47 p -12.1 -12.1 -12.1 --- --- 9.6 ENE 0.16 10.4 -19.9 --- --- 723.1 0.021 0.000 6.8 4 1
02/09/06 6:48 p -12.1 -12.1 -12.1 --- --- 9.6 NE 0.16 10.4 -19.9 --- --- 723.2 0.021 0.000 6.7 4 1
02/09/06 6:49 p -12.1 -12.1 -12.1 --- --- 8.7 NE 0.14 9.6 -19.5 --- --- 723.1 0.021 0.000 6.7 4 1
02/09/06 6:50 p -12.1 -12.0 -12.1 --- --- 8.7 NE 0.14 10.4 -19.5 --- --- 723.1 0.021 0.000 6.7 4 1
02/09/06 6:51 p -12.0 -12.0 -12.0 --- --- 10.4 ENE 0.17 10.4 -20.2 --- --- 723.1 0.021 0.000 6.7 4 1
02/09/06 6:52 p -12.0 -12.0 -12.0 --- --- 10.4 ENE 0.17 12.2 -20.2 --- --- 723.1 0.021 0.000 6.7 4 1
02/09/06 6:53 p -12.0 -12.0 -12.0 --- --- 11.3 ENE 0.19 11.3 -20.5 --- --- 723.1 0.021 0.000 6.7 4 1
02/09/06 6:54 p -12.0 -12.0 -12.0 --- --- 11.3 ENE 0.19 12.2 -20.5 --- --- 723.1 0.021 0.000 6.7 4 1
02/09/06 6:55 p -12.0 -12.0 -12.0 --- --- 10.4 ENE 0.17 11.3 -20.2 --- --- 723.1 0.021 0.000 6.7 4 1
02/09/06 6:56 p -12.1 -12.0 -12.1 --- --- 10.4 ENE 0.17 11.3 -20.2 --- --- 723.1 0.021 0.000 6.7 4 1
02/09/06 6:57 p -12.1 -12.1 -12.1 --- --- 11.3 ENE 0.19 12.2 -20.6 --- --- 723.1 0.021 0.000 6.7 4 1
02/09/06 6:58 p -12.1 -12.1 -12.1 --- --- 11.3 ENE 0.19 13.0 -20.6 --- --- 723.1 0.021 0.000 6.7 4 1
02/09/06 6:59 p -12.1 -12.1 -12.1 --- --- 13.0 ENE 0.22 13.9 -21.2 --- --- 723.1 0.021 0.000 6.7 4 1
02/09/06 7:00 p -12.2 -12.2 -12.2 --- --- 12.2 ENE 0.20 13.9 -21.0 --- --- 723.1 0.021 0.000 6.7 4 1
02/09/06 7:01 p -12.2 -12.2 -12.2 --- --- 9.6 NE 0.16 11.3 -20.1 --- --- 723.1 0.021 0.000 6.7 4 1
02/09/06 7:02 p -12.2 -12.2 -12.3 --- --- 11.3 ENE 0.19 12.2 -20.8 --- --- 723.0 0.021 0.000 6.7 4 1
02/09/06 7:03 p -12.3 -12.3 -12.3 --- --- 12.2 ENE 0.20 13.0 -21.2 --- --- 723.0 0.021 0.000 6.7 4 1
02/09/06 7:04 p -12.3 -12.3 -12.3 --- --- 11.3 ENE 0.19 12.2 -20.9 --- --- 723.0 0.021 0.000 6.7 4 1
02/09/06 7:05 p -12.4 -12.4 -12.4 --- --- 11.3 ENE 0.19 12.2 -21.0 --- --- 723.0 0.021 0.000 6.7 4 1
02/09/06 7:06 p -12.4 -12.4 -12.4 --- --- 10.4 ENE 0.17 12.2 -20.7 --- --- 723.0 0.021 0.000 6.7 4 1
02/09/06 7:07 p -12.4 -12.4 -12.4 --- --- 12.2 ENE 0.20 13.0 -21.4 --- --- 723.0 0.021 0.000 6.7 4 1
02/09/06 7:08 p -12.5 -12.5 -12.6 --- --- 12.2 ENE 0.20 13.0 -21.4 --- --- 723.0 0.021 0.000 6.7 4 1
02/09/06 7:09 p -12.6 -12.6 -12.6 --- --- 12.2 ENE 0.20 13.0 -21.5 --- --- 723.0 0.021 0.000 6.7 4 1
02/09/06 7:10 p -12.6 -12.6 -12.6 --- --- 11.3 ENE 0.19 13.0 -21.2 --- --- 722.9 0.021 0.000 6.7 4 1
02/09/06 7:11 p -12.6 -12.5 -12.6 --- --- 10.4 ENE 0.17 12.2 -20.8 --- --- 723.0 0.021 0.000 6.7 4 1
02/09/06 7:12 p -12.5 -12.5 -12.6 --- --- 10.4 ENE 0.17 11.3 -20.8 --- --- 723.0 0.021 0.000 6.7 4 1
02/09/06 7:13 p -12.4 -12.4 -12.4 --- --- 10.4 ENE 0.17 11.3 -20.7 --- --- 722.9 0.021 0.000 6.7 4 1
02/09/06 7:14 p -12.4 -12.4 -12.4 --- --- 10.4 ENE 0.17 12.2 -20.7 --- --- 722.9 0.021 0.000 6.7 4 1
02/09/06 7:15 p -12.4 -12.4 -12.4 --- --- 10.4 ENE 0.17 12.2 -20.7 --- --- 722.9 0.021 0.000 6.7 4 1
02/09/06 7:16 p -12.4 -12.4 -12.4 --- --- 12.2 ENE 0.20 13.0 -21.3 --- --- 722.8 0.021 0.000 6.7 4 1
02/09/06 7:17 p -12.4 -12.4 -12.4 --- --- 13.0 ENE 0.22 13.9 -21.7 --- --- 722.9 0.021 0.000 6.7 4 1
02/09/06 7:18 p -12.4 -12.4 -12.5 --- --- 13.9 ENE 0.23 13.9 -21.9 --- --- 722.8 0.021 0.000 6.7 4 1
02/09/06 7:19 p -12.5 -12.4 -12.5 --- --- 13.0 ENE 0.22 14.8 -21.7 --- --- 722.8 0.021 0.000 6.8 4 1
02/09/06 7:20 p -12.5 -12.5 -12.5 --- --- 11.3 ENE 0.19 13.0 -21.1 --- --- 722.9 0.021 0.000 6.8 4 1
02/09/06 7:21 p -12.5 -12.5 -12.5 --- --- 11.3 ENE 0.19 13.0 -21.1 --- --- 722.9 0.021 0.000 6.8 4 1
02/09/06 7:22 p -12.6 -12.5 -12.6 --- --- 11.3 ENE 0.19 13.0 -21.2 --- --- 722.9 0.021 0.000 6.8 4 1
02/09/06 7:23 p -12.6 -12.6 -12.6 --- --- 12.2 ENE 0.20 13.0 -21.5 --- --- 722.8 0.021 0.000 6.8 4 1
02/09/06 7:24 p -12.6 -12.6 -12.6 --- --- 12.2 ENE 0.20 13.0 -21.6 --- --- 722.8 0.021 0.000 6.8 4 1
02/09/06 7:25 p -12.6 -12.6 -12.6 --- --- 13.0 NE 0.22 13.9 -21.9 --- --- 722.9 0.021 0.000 6.9 4 1
02/09/06 7:26 p -12.6 -12.6 -12.6 --- --- 13.0 NE 0.22 13.9 -21.9 --- --- 722.9 0.021 0.000 6.9 4 1
02/09/06 7:27 p -12.6 -12.6 -12.6 --- --- 13.9 NE 0.23 14.8 -22.2 --- --- 722.9 0.021 0.000 6.9 4 1
02/09/06 7:28 p -12.6 -12.6 -12.7 --- --- 13.0 ENE 0.22 13.9 -21.9 --- --- 722.9 0.021 0.000 6.9 4 1
02/09/06 7:29 p -12.7 -12.7 -12.7 --- --- 12.2 E 0.20 13.9 -21.7 --- --- 723.0 0.022 0.000 6.9 4 1
02/09/06 7:30 p -12.7 -12.7 -12.8 --- --- 11.3 E 0.19 13.9 -21.4 --- --- 723.0 0.022 0.000 6.9 4 1
02/09/06 7:31 p -12.8 -12.8 -12.8 --- --- 10.4 E 0.17 13.0 -21.2 --- --- 722.9 0.022 0.000 6.9 4 1
02/09/06 7:32 p -12.9 -12.9 -12.9 --- --- 13.0 ENE 0.22 14.8 -22.2 --- --- 722.9 0.022 0.000 6.9 4 1
02/09/06 7:33 p -12.9 -12.9 -12.9 --- --- 13.0 ENE 0.22 13.9 -22.3 --- --- 722.9 0.022 0.000 6.9 4 1
02/09/06 7:34 p -12.9 -12.9 -12.9 --- --- 13.0 ENE 0.22 13.9 -22.2 --- --- 722.9 0.022 0.000 6.9 4 1
02/09/06 7:35 p -12.9 -12.9 -12.9 --- --- 12.2 ENE 0.20 13.9 -22.0 --- --- 722.9 0.022 0.000 6.9 4 1
02/09/06 7:36 p -12.9 -12.8 -12.9 --- --- 12.2 ENE 0.20 13.0 -21.9 --- --- 722.9 0.022 0.000 6.9 4 1
02/09/06 7:37 p -12.9 -12.8 -12.9 --- --- 12.2 ENE 0.20 13.9 -21.9 --- --- 722.9 0.022 0.000 6.9 4 1
02/09/06 7:38 p -12.8 -12.8 -12.8 --- --- 12.2 ENE 0.20 13.9 -21.9 --- --- 722.9 0.022 0.000 6.8 4 1
02/09/06 7:39 p -12.8 -12.8 -12.8 --- --- 12.2 ENE 0.20 13.0 -21.8 --- --- 722.9 0.022 0.000 6.8 4 1
02/09/06 7:40 p -12.8 -12.7 -12.8 --- --- 12.2 ENE 0.20 13.0 -21.8 --- --- 722.9 0.022 0.000 6.8 4 1
02/09/06 7:41 p -12.7 -12.7 -12.7 --- --- 12.2 ENE 0.20 13.0 -21.7 --- --- 722.9 0.022 0.000 6.8 4 1
02/09/06 7:42 p -12.7 -12.7 -12.7 --- --- 12.2 ENE 0.20 13.0 -21.7 --- --- 722.8 0.022 0.000 6.8 4 1
02/09/06 7:43 p -12.7 -12.7 -12.7 --- --- 13.0 ENE 0.22 14.8 -22.0 --- --- 722.9 0.022 0.000 6.8 4 1
02/09/06 7:44 p -12.8 -12.7 -12.8 --- --- 13.0 ENE 0.22 14.8 -22.1 --- --- 722.8 0.022 0.000 6.8 4 1
02/09/06 7:45 p -12.8 -12.7 -12.8 --- --- 13.0 ENE 0.22 14.8 -22.1 --- --- 722.8 0.022 0.000 6.8 4 1
02/09/06 7:46 p -12.7 -12.7 -12.7 --- --- 13.0 ENE 0.22 13.9 -22.0 --- --- 722.8 0.022 0.000 6.8 4 1
02/09/06 7:47 p -12.7 -12.7 -12.7 --- --- 12.2 ENE 0.20 13.0 -21.7 --- --- 722.8 0.022 0.000 6.8 4 1
02/09/06 7:48 p -12.7 -12.7 -12.7 --- --- 13.0 ENE 0.22 13.9 -22.0 --- --- 722.7 0.022 0.000 6.8 4 1
02/09/06 7:49 p -12.7 -12.7 -12.8 --- --- 13.0 ENE 0.22 13.9 -22.0 --- --- 722.7 0.022 0.000 6.8 4 1
02/09/06 7:50 p -12.7 -12.7 -12.7 --- --- 13.0 ENE 0.22 13.9 -22.0 --- --- 722.7 0.022 0.000 6.8 4 1
02/09/06 7:51 p -12.7 -12.7 -12.7 --- --- 12.2 ENE 0.20 13.0 -21.7 --- --- 722.8 0.022 0.000 6.8 4 1
02/09/06 7:52 p -12.7 -12.7 -12.7 --- --- 12.2 ENE 0.20 13.0 -21.7 --- --- 722.8 0.022 0.000 6.9 4 1
02/09/06 7:53 p -12.7 -12.6 -12.7 --- --- 13.0 ENE 0.22 13.9 -21.9 --- --- 722.7 0.022 0.000 6.9 4 1
02/09/06 7:54 p -12.7 -12.6 -12.7 --- --- 13.0 ENE 0.22 14.8 -21.9 --- --- 722.8 0.022 0.000 6.9 4 1
02/09/06 7:55 p -12.6 -12.6 -12.6 --- --- 13.0 ENE 0.22 14.8 -21.9 --- --- 722.8 0.021 0.000 6.9 4 1
02/09/06 7:56 p -12.6 -12.6 -12.7 --- --- 13.0 ENE 0.22 13.9 -21.9 --- --- 722.8 0.021 0.000 6.9 4 1
02/09/06 7:57 p -12.6 -12.6 -12.6 --- --- 12.2 ENE 0.20 13.0 -21.6 --- --- 722.7 0.021 0.000 6.9 4 1
02/09/06 7:58 p -12.6 -12.6 -12.6 --- --- 13.0 ENE 0.22 14.8 -21.9 --- --- 722.8 0.021 0.000 7.0 5 1
02/09/06 7:59 p -12.6 -12.6 -12.6 --- --- 14.8 ENE 0.25 15.7 -22.3 --- --- 722.8 0.021 0.000 7.0 5 1
02/09/06 8:00 p -12.5 -12.5 -12.5 --- --- 13.9 ENE 0.23 15.7 -22.0 --- --- 722.8 0.021 0.000 7.0 4 1
02/09/06 8:01 p -12.5 -12.5 -12.5 --- --- 13.0 ENE 0.22 13.9 -21.7 --- --- 722.8 0.021 0.000 7.1 5 1
02/09/06 8:03 p -12.4 -12.4 -12.4 --- --- 11.3 ENE 0.19 12.2 -21.1 --- --- 722.7 0.021 0.000 7.1 5 1
02/09/06 8:04 p -12.4 -12.4 -12.4 --- --- 11.3 ENE 0.19 12.2 -21.0 --- --- 722.7 0.021 0.000 7.1 5 1
02/09/06 8:05 p -12.4 -12.3 -12.4 --- --- 11.3 ENE 0.19 13.0 -21.0 --- --- 722.8 0.021 0.000 7.1 5 1
02/09/06 8:06 p -12.4 -12.4 -12.4 --- --- 13.0 ENE 0.22 14.8 -21.6 --- --- 722.7 0.021 0.000 7.1 5 1
02/09/06 8:07 p -12.4 -12.4 -12.4 --- --- 13.9 ENE 0.23 15.7 -21.9 --- --- 722.7 0.021 0.000 7.1 5 1
02/09/06 8:08 p -12.4 -12.3 -12.4 --- --- 13.9 ENE 0.23 14.8 -21.9 --- --- 722.7 0.021 0.000 7.1 5 1
02/09/06 8:09 p -12.3 -12.3 -12.4 --- --- 13.9 ENE 0.23 15.7 -21.8 --- --- 722.8 0.021 0.000 7.1 5 1
02/09/06 8:10 p -12.3 -12.3 -12.3 --- --- 13.9 ENE 0.23 14.8 -21.8 --- --- 722.8 0.021 0.000 7.1 5 1
02/09/06 8:11 p -12.3 -12.3 -12.3 --- --- 12.2 ENE 0.20 13.9 -21.2 --- --- 722.8 0.021 0.000 7.1 5 1
02/09/06 8:12 p -12.3 -12.3 -12.3 --- --- 11.3 ENE 0.19 13.0 -20.8 --- --- 722.8 0.021 0.000 7.1 5 1
02/09/06 8:13 p -12.3 -12.2 -12.3 --- --- 10.4 ENE 0.17 12.2 -20.5 --- --- 722.8 0.021 0.000 7.1 5 1
02/09/06 8:14 p -12.2 -12.2 -12.2 --- --- 11.3 ENE 0.19 13.0 -20.8 --- --- 722.7 0.021 0.000 7.1 5 1
02/09/06 8:15 p -12.2 -12.2 -12.2 --- --- 10.4 ENE 0.17 12.2 -20.4 --- --- 722.7 0.021 0.000 7.1 5 1
02/09/06 8:16 p -12.2 -12.1 -12.2 --- --- 11.3 ENE 0.19 12.2 -20.7 --- --- 722.7 0.021 0.000 7.1 5 1
02/09/06 8:17 p -12.1 -12.1 -12.1 --- --- 10.4 ENE 0.17 11.3 -20.3 --- --- 722.8 0.021 0.000 7.1 5 1
02/09/06 8:18 p -12.1 -12.1 -12.1 --- --- 9.6 ENE 0.16 11.3 -19.9 --- --- 722.7 0.021 0.000 7.1 5 1
02/09/06 8:19 p -12.1 -12.1 -12.1 --- --- 8.7 ENE 0.14 10.4 -19.5 --- --- 722.6 0.021 0.000 7.1 5 1
02/09/06 8:20 p -12.1 -12.1 -12.1 --- --- 9.6 ENE 0.16 12.2 -19.9 --- --- 722.7 0.021 0.000 7.2 5 1
02/09/06 8:21 p -12.1 -12.1 -12.1 --- --- 11.3 ENE 0.19 13.0 -20.6 --- --- 722.7 0.021 0.000 7.2 5 1
02/09/06 8:22 p -12.1 -12.1 -12.1 --- --- 10.4 ENE 0.17 12.2 -20.3 --- --- 722.7 0.021 0.000 7.2 5 1
02/09/06 8:23 p -12.1 -12.1 -12.2 --- --- 8.7 ENE 0.14 11.3 -19.6 --- --- 722.7 0.021 0.000 7.2 5 1
02/09/06 8:24 p -12.2 -12.2 -12.2 --- --- 7.8 ENE 0.13 9.6 -19.2 --- --- 722.8 0.021 0.000 7.2 5 1
02/09/06 8:25 p -12.2 -12.2 -12.2 --- --- 9.6 ENE 0.16 11.3 -20.1 --- --- 722.7 0.021 0.000 7.2 5 1
02/09/06 8:26 p -12.2 -12.2 -12.3 --- --- 11.3 ENE 0.19 12.2 -20.8 --- --- 722.7 0.021 0.000 7.2 5 1
02/09/06 8:27 p -12.2 -12.2 -12.2 --- --- 10.4 ENE 0.17 12.2 -20.4 --- --- 722.8 0.021 0.000 7.2 5 1
02/09/06 8:28 p -12.2 -12.2 -12.2 --- --- 10.4 ENE 0.17 11.3 -20.4 --- --- 722.7 0.021 0.000 7.2 5 1
02/09/06 8:29 p -12.2 -12.2 -12.2 --- --- 9.6 ENE 0.16 11.3 -20.1 --- --- 722.7 0.021 0.000 7.2 5 1
02/09/06 8:30 p -12.2 -12.1 -12.2 --- --- 11.3 ENE 0.19 12.2 -20.7 --- --- 722.7 0.021 0.000 7.2 5 1
02/09/06 8:31 p -12.1 -12.1 -12.2 --- --- 10.4 ENE 0.17 12.2 -20.3 --- --- 722.7 0.021 0.000 7.2 5 1
02/09/06 8:32 p -12.1 -12.0 -12.1 --- --- 11.3 ENE 0.19 12.2 -20.6 --- --- 722.7 0.021 0.000 7.2 5 1
02/09/06 8:33 p -12.0 -11.9 -12.0 --- --- 12.2 ENE 0.20 12.2 -20.8 --- --- 722.7 0.021 0.000 7.2 5 1
02/09/06 8:34 p -11.9 -11.9 -11.9 --- --- 11.3 ENE 0.19 12.2 -20.4 --- --- 722.7 0.021 0.000 7.2 5 1
02/09/06 8:35 p -11.9 -11.9 -11.9 --- --- 10.4 ENE 0.17 12.2 -20.1 --- --- 722.6 0.021 0.000 7.2 5 1
02/09/06 8:36 p -11.9 -11.9 -12.0 --- --- 10.4 ENE 0.17 11.3 -20.1 --- --- 722.7 0.021 0.000 7.2 5 1
02/09/06 8:37 p -12.0 -12.0 -12.1 --- --- 10.4 ENE 0.17 11.3 -20.2 --- --- 722.8 0.021 0.000 7.2 5 1
02/09/06 8:38 p -12.1 -12.0 -12.1 --- --- 10.4 ENE 0.17 11.3 -20.2 --- --- 722.7 0.021 0.000 7.2 5 1
02/09/06 8:39 p -12.1 -12.1 -12.2 --- --- 11.3 ENE 0.19 12.2 -20.6 --- --- 722.7 0.021 0.000 7.2 5 1
02/09/06 8:40 p -12.2 -12.1 -12.2 --- --- 10.4 ENE 0.17 12.2 -20.4 --- --- 722.6 0.021 0.000 7.2 5 1
02/09/06 8:41 p -12.2 -12.1 -12.2 --- --- 11.3 ENE 0.19 12.2 -20.7 --- --- 722.7 0.021 0.000 7.2 5 1
02/09/06 8:42 p -12.1 -12.1 -12.2 --- --- 11.3 ENE 0.19 13.0 -20.6 --- --- 722.6 0.021 0.000 7.2 5 1
02/09/06 8:43 p -12.1 -12.1 -12.1 --- --- 10.4 ENE 0.17 12.2 -20.3 --- --- 722.7 0.021 0.000 7.2 5 1
02/09/06 8:44 p -12.0 -11.9 -12.1 --- --- 10.4 ENE 0.17 12.2 -20.2 --- --- 722.6 0.021 0.000 7.2 5 1
02/09/06 8:45 p -11.9 -11.9 -11.9 --- --- 11.3 ENE 0.19 12.2 -20.4 --- --- 722.7 0.021 0.000 7.2 5 1
02/09/06 8:46 p -11.8 -11.8 -11.9 --- --- 11.3 ENE 0.19 12.2 -20.3 --- --- 722.7 0.021 0.000 7.2 5 1
02/09/06 8:47 p -11.8 -11.7 -11.8 --- --- 11.3 ENE 0.19 12.2 -20.2 --- --- 722.7 0.021 0.000 7.2 5 1
02/09/06 8:48 p -11.7 -11.6 -11.7 --- --- 11.3 ENE 0.19 12.2 -20.1 --- --- 722.6 0.021 0.000 7.2 5 1
02/09/06 8:49 p -11.6 -11.6 -11.6 --- --- 11.3 ENE 0.19 12.2 -20.0 --- --- 722.6 0.021 0.000 7.2 5 1
02/09/06 8:50 p -11.5 -11.4 -11.6 --- --- 10.4 ENE 0.17 12.2 -19.6 --- --- 722.6 0.021 0.000 7.2 5 1
02/09/06 8:51 p -11.4 -11.4 -11.4 --- --- 10.4 ENE 0.17 11.3 -19.4 --- --- 722.7 0.021 0.000 7.2 5 1
02/09/06 8:52 p -11.4 -11.4 -11.4 --- --- 10.4 ENE 0.17 11.3 -19.4 --- --- 722.7 0.021 0.000 7.2 5 1
02/09/06 8:53 p -11.4 -11.4 -11.4 --- --- 9.6 ENE 0.16 10.4 -19.1 --- --- 722.7 0.021 0.000 7.2 5 1
02/09/06 8:54 p -11.4 -11.3 -11.4 --- --- 8.7 ENE 0.14 10.4 -18.7 --- --- 722.6 0.021 0.000 7.2 5 1
02/09/06 8:55 p -11.4 -11.4 -11.4 --- --- 8.7 ENE 0.14 10.4 -18.7 --- --- 722.7 0.021 0.000 7.2 5 1
02/09/06 8:56 p -11.5 -11.4 -11.6 --- --- 8.7 ENE 0.14 10.4 -18.8 --- --- 722.6 0.021 0.000 7.2 5 1
02/09/06 8:57 p -11.6 -11.5 -11.6 --- --- 7.8 ENE 0.13 9.6 -18.4 --- --- 722.6 0.021 0.000 7.2 5 1
02/09/06 8:58 p -11.6 -11.6 -11.6 --- --- 10.4 ENE 0.17 11.3 -19.6 --- --- 722.6 0.021 0.000 7.2 5 1
02/09/06 8:59 p -11.5 -11.5 -11.6 --- --- 10.4 ENE 0.17 12.2 -19.6 --- --- 722.5 0.021 0.000 7.2 5 1
02/09/06 9:00 p -11.4 -11.4 -11.5 --- --- 11.3 ENE 0.19 13.0 -19.8 --- --- 722.6 0.021 0.000 7.3 6 1
02/09/06 9:01 p -11.4 -11.4 -11.4 --- --- 10.4 ENE 0.17 12.2 -19.4 --- --- 722.6 0.021 0.000 7.3 5 1
02/09/06 9:03 p -11.4 -11.3 -11.4 --- --- 10.4 ENE 0.17 11.3 -19.4 --- --- 722.5 0.021 0.000 7.3 5 1
02/09/06 9:04 p -11.4 -11.3 -11.4 --- --- 7.8 E 0.13 11.3 -18.2 --- --- 722.6 0.021 0.000 7.3 5 1
02/09/06 9:05 p -11.3 -11.3 -11.3 --- --- 8.7 E 0.14 10.4 -18.6 --- --- 722.6 0.021 0.000 7.3 5 1
02/09/06 9:06 p -11.3 -11.3 -11.3 --- --- 7.8 E 0.13 10.4 -18.1 --- --- 722.7 0.021 0.000 7.3 5 1
02/09/06 9:07 p -11.3 -11.3 -11.3 --- --- 8.7 E 0.14 10.4 -18.5 --- --- 722.6 0.021 0.000 7.3 5 1
02/09/06 9:08 p -11.3 -11.2 -11.3 --- --- 7.8 E 0.13 9.6 -18.1 --- --- 722.6 0.021 0.000 7.3 5 1
02/09/06 9:09 p -11.2 -11.2 -11.3 --- --- 7.0 E 0.12 8.7 -17.7 --- --- 722.7 0.021 0.000 7.4 5 1
02/09/06 9:10 p -11.2 -11.2 -11.2 --- --- 9.6 ENE 0.16 10.4 -18.8 --- --- 722.6 0.021 0.000 7.4 5 1
02/09/06 9:11 p -11.2 -11.2 -11.2 --- --- 9.6 ENE 0.16 11.3 -18.8 --- --- 722.5 0.021 0.000 7.4 5 1
02/09/06 9:12 p -11.2 -11.2 -11.3 --- --- 10.4 ENE 0.17 11.3 -19.2 --- --- 722.6 0.021 0.000 7.4 5 1
02/09/06 9:13 p -11.3 -11.2 -11.3 --- --- 10.4 ENE 0.17 12.2 -19.2 --- --- 722.5 0.021 0.000 7.4 5 1
02/09/06 9:14 p -11.3 -11.3 -11.3 --- --- 8.7 E 0.14 11.3 -18.5 --- --- 722.5 0.021 0.000 7.4 5 1
02/09/06 9:15 p -11.3 -11.3 -11.3 --- --- 7.8 E 0.13 10.4 -18.2 --- --- 722.5 0.021 0.000 7.4 5 1
02/09/06 9:16 p -11.3 -11.3 -11.4 --- --- 9.6 E 0.16 10.4 -18.9 --- --- 722.5 0.021 0.000 7.4 5 1
02/09/06 9:17 p -11.4 -11.4 -11.4 --- --- 9.6 ENE 0.16 11.3 -19.1 --- --- 722.5 0.021 0.000 7.4 5 1
02/09/06 9:18 p -11.5 -11.4 -11.6 --- --- 10.4 ENE 0.17 12.2 -19.6 --- --- 722.5 0.021 0.000 7.4 5 1
02/09/06 9:19 p -11.5 -11.4 -11.6 --- --- 10.4 ENE 0.17 12.2 -19.6 --- --- 722.6 0.021 0.000 7.4 5 1
02/09/06 9:20 p -11.5 -11.5 -11.5 --- --- 10.4 ENE 0.17 11.3 -19.6 --- --- 722.6 0.021 0.000 7.4 5 1
02/09/06 9:21 p -11.5 -11.5 -11.6 --- --- 8.7 ENE 0.14 11.3 -18.8 --- --- 722.4 0.021 0.000 7.4 5 1
02/09/06 9:22 p -11.5 -11.4 -11.5 --- --- 11.3 ENE 0.19 12.2 -19.8 --- --- 722.4 0.021 0.000 7.4 5 1
02/09/06 9:23 p -11.4 -11.3 -11.4 --- --- 11.3 ENE 0.19 14.8 -19.7 --- --- 722.5 0.021 0.000 7.4 5 1
02/09/06 9:24 p -11.3 -11.3 -11.4 --- --- 12.2 ENE 0.20 14.8 -19.9 --- --- 722.4 0.021 0.000 7.4 5 1
02/09/06 9:25 p -11.3 -11.2 -11.3 --- --- 11.3 ENE 0.19 13.0 -19.6 --- --- 722.5 0.021 0.000 7.4 5 1
02/09/06 9:26 p -11.2 -11.2 -11.2 --- --- 11.3 ENE 0.19 12.2 -19.5 --- --- 722.4 0.021 0.000 7.4 5 1
02/09/06 9:27 p -11.1 -11.1 -11.2 --- --- 11.3 ENE 0.19 12.2 -19.4 --- --- 722.5 0.020 0.000 7.4 5 1
02/09/06 9:28 p -11.1 -11.1 -11.1 --- --- 10.4 ENE 0.17 11.3 -18.9 --- --- 722.5 0.020 0.000 7.4 5 1
02/09/06 9:29 p -11.1 -11.1 -11.1 --- --- 9.6 ENE 0.16 11.3 -18.7 --- --- 722.4 0.020 0.000 7.4 5 1
02/09/06 9:30 p -11.1 -11.1 -11.2 --- --- 10.4 ENE 0.17 12.2 -19.1 --- --- 722.4 0.020 0.000 7.4 5 1
02/09/06 9:31 p -11.2 -11.2 -11.2 --- --- 9.6 ENE 0.16 11.3 -18.8 --- --- 722.4 0.021 0.000 7.4 5 1
02/09/06 9:32 p -11.3 -11.3 -11.3 --- --- 10.4 ENE 0.17 12.2 -19.2 --- --- 722.4 0.021 0.000 7.4 5 1
02/09/06 9:33 p -11.3 -11.3 -11.3 --- --- 8.7 ENE 0.14 11.3 -18.6 --- --- 722.5 0.021 0.000 7.4 5 1
02/09/06 9:34 p -11.3 -11.3 -11.3 --- --- 9.6 ENE 0.16 11.3 -18.9 --- --- 722.4 0.021 0.000 7.4 5 1
02/09/06 9:35 p -11.3 -11.3 -11.3 --- --- 10.4 ENE 0.17 12.2 -19.2 --- --- 722.4 0.021 0.000 7.4 5 1
02/09/06 9:36 p -11.2 -11.2 -11.3 --- --- 9.6 ENE 0.16 10.4 -18.8 --- --- 722.5 0.021 0.000 7.4 5 1
02/09/06 9:37 p -11.2 -11.2 -11.2 --- --- 8.7 ENE 0.14 10.4 -18.4 --- --- 722.4 0.020 0.000 7.4 5 1
02/09/06 9:38 p -11.2 -11.2 -11.2 --- --- 9.6 ENE 0.16 10.4 -18.8 --- --- 722.4 0.020 0.000 7.4 5 1
02/09/06 9:39 p -11.1 -11.1 -11.2 --- --- 8.7 ENE 0.14 10.4 -18.3 --- --- 722.4 0.020 0.000 7.4 5 1
02/09/06 9:40 p -11.1 -11.1 -11.1 --- --- 10.4 ENE 0.17 10.4 -18.9 --- --- 722.4 0.020 0.000 7.4 5 1
02/09/06 9:41 p -11.0 -10.9 -11.0 --- --- 9.6 ENE 0.16 11.3 -18.6 --- --- 722.4 0.020 0.000 7.4 5 1
02/09/06 9:42 p -10.9 -10.9 -10.9 --- --- 7.8 E 0.13 9.6 -17.7 --- --- 722.4 0.020 0.000 7.3 5 1
02/09/06 9:43 p -10.9 -10.9 -10.9 --- --- 9.6 ENE 0.16 11.3 -18.4 --- --- 722.5 0.020 0.000 7.3 5 1
02/09/06 9:44 p -10.9 -10.8 -10.9 --- --- 7.8 E 0.13 10.4 -17.7 --- --- 722.5 0.020 0.000 7.3 5 1
02/09/06 9:45 p -10.8 -10.8 -10.8 --- --- 8.7 E 0.14 10.4 -17.9 --- --- 722.4 0.020 0.000 7.3 5 1
02/09/06 9:46 p -10.8 -10.8 -10.8 --- --- 7.0 E 0.12 8.7 -17.2 --- --- 722.5 0.020 0.000 7.3 5 1
02/09/06 9:47 p -10.8 -10.8 -10.8 --- --- 8.7 ENE 0.14 11.3 -17.9 --- --- 722.5 0.020 0.000 7.3 5 1
02/09/06 9:48 p -10.8 -10.8 -10.8 --- --- 6.1 E 0.10 7.8 -16.7 --- --- 722.4 0.020 0.000 7.2 5 1
02/09/06 9:49 p -10.8 -10.8 -10.8 --- --- 7.0 ENE 0.12 9.6 -17.2 --- --- 722.4 0.020 0.000 7.2 5 1
02/09/06 9:50 p -10.8 -10.8 -10.8 --- --- 9.6 ENE 0.16 10.4 -18.3 --- --- 722.4 0.020 0.000 7.2 5 1
02/09/06 9:51 p -10.8 -10.8 -10.8 --- --- 10.4 ENE 0.17 12.2 -18.6 --- --- 722.4 0.020 0.000 7.2 5 1
02/09/06 9:52 p -10.7 -10.7 -10.8 --- --- 9.6 ENE 0.16 11.3 -18.2 --- --- 722.4 0.020 0.000 7.2 5 1
02/09/06 9:53 p -10.7 -10.7 -10.7 --- --- 9.6 ENE 0.16 10.4 -18.1 --- --- 722.4 0.020 0.000 7.2 5 1
02/09/06 9:54 p -10.7 -10.6 -10.7 --- --- 9.6 ENE 0.16 11.3 -18.1 --- --- 722.4 0.020 0.000 7.2 5 1
02/09/06 9:55 p -10.6 -10.6 -10.6 --- --- 9.6 ENE 0.16 11.3 -18.1 --- --- 722.4 0.020 0.000 7.2 5 1
02/09/06 9:56 p -10.6 -10.6 -10.7 --- --- 9.6 ENE 0.16 11.3 -18.1 --- --- 722.4 0.020 0.000 7.2 5 1
02/09/06 9:57 p -10.6 -10.6 -10.7 --- --- 7.8 ENE 0.13 10.4 -17.3 --- --- 722.4 0.020 0.000 7.2 5 1
02/09/06 9:58 p -10.6 -10.6 -10.7 --- --- 9.6 ENE 0.16 10.4 -18.1 --- --- 722.4 0.020 0.000 7.2 5 1
02/09/06 9:59 p -10.6 -10.6 -10.6 --- --- 10.4 ENE 0.17 11.3 -18.4 --- --- 722.3 0.020 0.000 7.2 5 1
02/09/06 10:00 p -10.6 -10.6 -10.6 --- --- 10.4 ENE 0.17 11.3 -18.3 --- --- 722.4 0.020 0.000 7.2 5 1
02/09/06 10:01 p -10.5 -10.4 -10.5 --- --- 8.7 ENE 0.14 10.4 -17.6 --- --- 722.4 0.020 0.000 7.2 5 1
02/09/06 10:02 p -10.4 -10.4 -10.5 --- --- 10.4 ENE 0.17 12.2 -18.2 --- --- 722.3 0.020 0.000 7.2 5 1
02/09/06 10:03 p -10.4 -10.3 -10.4 --- --- 9.6 ENE 0.16 11.3 -17.8 --- --- 722.3 0.020 0.000 7.3 5 1
02/09/06 10:04 p -10.3 -10.3 -10.4 --- --- 10.4 ENE 0.17 12.2 -18.1 --- --- 722.3 0.020 0.000 7.2 5 1
02/09/06 10:05 p -10.4 -10.3 -10.4 --- --- 10.4 ENE 0.17 11.3 -18.1 --- --- 722.3 0.020 0.000 7.3 5 1
02/09/06 10:06 p -10.4 -10.4 -10.4 --- --- 9.6 ENE 0.16 12.2 -17.8 --- --- 722.5 0.020 0.000 7.3 5 1
02/09/06 10:07 p -10.4 -10.4 -10.4 --- --- 9.6 ENE 0.16 10.4 -17.8 --- --- 722.4 0.020 0.000 7.3 5 1
02/09/06 10:08 p -10.4 -10.4 -10.5 --- --- 7.0 ENE 0.12 9.6 -16.7 --- --- 722.4 0.020 0.000 7.3 5 1
02/09/06 10:09 p -10.5 -10.5 -10.6 --- --- 7.8 E 0.13 10.4 -17.2 --- --- 722.4 0.020 0.000 7.3 5 1
02/09/06 10:10 p -10.6 -10.6 -10.7 --- --- 7.0 ENE 0.12 10.4 -16.9 --- --- 722.4 0.020 0.000 7.3 4 1
02/09/06 10:11 p -10.7 -10.7 -10.7 --- --- 9.6 ENE 0.16 12.2 -18.2 --- --- 722.4 0.020 0.000 7.3 5 1
02/09/06 10:12 p -10.8 -10.8 -10.8 --- --- 9.6 ENE 0.16 12.2 -18.3 --- --- 722.3 0.020 0.000 7.3 5 1
02/09/06 10:13 p -10.8 -10.8 -10.8 --- --- 8.7 ENE 0.14 11.3 -17.9 --- --- 722.4 0.020 0.000 7.3 5 1
02/09/06 10:14 p -10.8 -10.8 -10.8 --- --- 8.7 ENE 0.14 11.3 -17.9 --- --- 722.4 0.020 0.000 7.3 4 1
02/09/06 10:15 p -10.7 -10.7 -10.8 --- --- 9.6 ENE 0.16 12.2 -18.2 --- --- 722.2 0.020 0.000 7.3 5 1
02/09/06 10:16 p -10.7 -10.7 -10.7 --- --- 9.6 ENE 0.16 12.2 -18.2 --- --- 722.2 0.020 0.000 7.3 4 1
02/09/06 10:17 p -10.7 -10.7 -10.7 --- --- 8.7 ENE 0.14 10.4 -17.8 --- --- 722.3 0.020 0.000 7.3 4 1
02/09/06 10:18 p -10.7 -10.7 -10.7 --- --- 8.7 ENE 0.14 11.3 -17.8 --- --- 722.2 0.020 0.000 7.3 4 1
02/09/06 10:19 p -10.7 -10.7 -10.7 --- --- 9.6 ENE 0.16 11.3 -18.1 --- --- 722.2 0.020 0.000 7.3 4 1
02/09/06 10:20 p -10.7 -10.7 -10.7 --- --- 7.8 E 0.13 9.6 -17.4 --- --- 722.2 0.020 0.000 7.3 4 1
02/09/06 10:21 p -10.7 -10.7 -10.7 --- --- 9.6 E 0.16 12.2 -18.2 --- --- 722.2 0.020 0.000 7.3 4 1
02/09/06 10:22 p -10.7 -10.7 -10.8 --- --- 8.7 ENE 0.14 11.3 -17.8 --- --- 722.2 0.020 0.000 7.3 4 1
02/09/06 10:23 p -10.8 -10.8 -10.8 --- --- 7.8 E 0.13 9.6 -17.6 --- --- 722.2 0.020 0.000 7.3 4 1
02/09/06 10:24 p -10.8 -10.8 -10.8 --- --- 10.4 ENE 0.17 12.2 -18.6 --- --- 722.2 0.020 0.000 7.3 4 1
02/09/06 10:25 p -10.8 -10.8 -10.8 --- --- 10.4 ENE 0.17 12.2 -18.6 --- --- 722.2 0.020 0.000 7.3 4 1
02/09/06 10:26 p -10.7 -10.7 -10.8 --- --- 10.4 ENE 0.17 11.3 -18.6 --- --- 722.3 0.020 0.000 7.2 4 1
02/09/06 10:27 p -10.7 -10.7 -10.8 --- --- 9.6 ENE 0.16 12.2 -18.2 --- --- 722.3 0.020 0.000 7.2 4 1
02/09/06 10:28 p -10.7 -10.7 -10.8 --- --- 10.4 ENE 0.17 11.3 -18.6 --- --- 722.2 0.020 0.000 7.2 4 1
02/09/06 10:29 p -10.7 -10.7 -10.8 --- --- 10.4 E 0.17 11.3 -18.6 --- --- 722.2 0.020 0.000 7.2 4 1
02/09/06 10:30 p -10.7 -10.7 -10.8 --- --- 11.3 ENE 0.19 13.0 -18.9 --- --- 722.2 0.020 0.000 7.2 4 1
02/09/06 10:31 p -10.7 -10.7 -10.7 --- --- 11.3 ENE 0.19 13.0 -18.9 --- --- 722.4 0.020 0.000 7.2 4 1
02/09/06 10:32 p -10.6 -10.6 -10.6 --- --- 11.3 ENE 0.19 13.0 -18.7 --- --- 722.2 0.020 0.000 7.2 4 1
02/09/06 10:33 p -10.6 -10.6 -10.6 --- --- 11.3 ENE 0.19 12.2 -18.7 --- --- 722.2 0.020 0.000 7.1 4 1
02/09/06 10:34 p -10.6 -10.6 -10.6 --- --- 11.3 ENE 0.19 13.0 -18.7 --- --- 722.2 0.020 0.000 7.1 4 1
02/09/06 10:35 p -10.6 -10.6 -10.6 --- --- 12.2 ENE 0.20 14.8 -19.1 --- --- 722.2 0.020 0.000 7.1 4 1
02/09/06 10:36 p -10.6 -10.6 -10.6 --- --- 13.0 ENE 0.22 13.9 -19.3 --- --- 722.2 0.020 0.000 7.1 4 1
02/09/06 10:37 p -10.6 -10.6 -10.7 --- --- 12.2 ENE 0.20 13.9 -19.1 --- --- 722.2 0.020 0.000 7.1 4 1
02/09/06 10:38 p -10.7 -10.6 -10.7 --- --- 13.9 ENE 0.23 16.5 -19.7 --- --- 722.1 0.020 0.000 7.1 4 1
02/09/06 10:39 p -10.6 -10.6 -10.7 --- --- 13.9 ENE 0.23 15.7 -19.6 --- --- 722.2 0.020 0.000 7.1 4 1
02/09/06 10:40 p -10.6 -10.6 -10.6 --- --- 13.0 ENE 0.22 13.9 -19.2 --- --- 722.2 0.020 0.000 7.1 4 1
02/09/06 10:41 p -10.5 -10.4 -10.6 --- --- 12.2 ENE 0.20 13.9 -18.9 --- --- 722.3 0.020 0.000 7.1 4 1
02/09/06 10:42 p -10.4 -10.4 -10.4 --- --- 10.4 ENE 0.17 13.9 -18.1 --- --- 722.3 0.020 0.000 7.1 4 1
02/09/06 10:43 p -10.4 -10.4 -10.4 --- --- 11.3 ENE 0.19 13.9 -18.4 --- --- 722.2 0.020 0.000 7.1 4 1
02/09/06 10:44 p -10.4 -10.3 -10.4 --- --- 13.0 ENE 0.22 15.7 -19.1 --- --- 722.1 0.020 0.000 7.1 4 1
02/09/06 10:45 p -10.3 -10.3 -10.4 --- --- 13.0 ENE 0.22 14.8 -18.9 --- --- 722.1 0.020 0.000 7.1 4 1
02/09/06 10:46 p -10.3 -10.2 -10.3 --- --- 11.3 E 0.19 13.9 -18.3 --- --- 722.2 0.020 0.000 7.0 4 1
02/09/06 10:47 p -10.3 -10.2 -10.3 --- --- 12.2 ENE 0.20 13.9 -18.6 --- --- 722.2 0.020 0.000 7.0 4 1
02/09/06 10:48 p -10.3 -10.2 -10.3 --- --- 11.3 E 0.19 13.0 -18.3 --- --- 722.2 0.020 0.000 7.1 4 1
02/09/06 10:49 p -10.2 -10.2 -10.3 --- --- 7.0 E 0.12 10.4 -16.4 --- --- 722.1 0.020 0.000 7.1 4 1
02/09/06 10:50 p -10.2 -10.1 -10.2 --- --- 7.0 E 0.12 12.2 -16.3 --- --- 722.1 0.020 0.000 7.1 4 1
02/09/06 10:51 p -10.1 -10.1 -10.1 --- --- 11.3 E 0.19 14.8 -18.1 --- --- 722.2 0.020 0.000 7.1 4 1
02/09/06 10:52 p -10.1 -10.1 -10.1 --- --- 11.3 ENE 0.19 13.0 -18.1 --- --- 722.2 0.020 0.000 7.1 4 1
02/09/06 10:53 p -10.0 -10.0 -10.0 --- --- 12.2 E 0.20 13.9 -18.3 --- --- 722.2 0.020 0.000 7.1 4 1
02/09/06 10:54 p -9.9 -9.9 -9.9 --- --- 10.4 E 0.17 13.0 -17.6 --- --- 722.2 0.020 0.000 7.1 4 1
02/09/06 10:55 p -9.8 -9.8 -9.9 --- --- 10.4 E 0.17 12.2 -17.5 --- --- 722.2 0.020 0.000 7.1 4 1
02/09/06 10:56 p -9.7 -9.6 -9.8 --- --- 10.4 E 0.17 13.0 -17.3 --- --- 722.2 0.019 0.000 7.1 4 1
02/09/06 10:57 p -9.6 -9.5 -9.6 --- --- 11.3 E 0.19 13.9 -17.4 --- --- 722.2 0.019 0.000 7.2 4 1
02/09/06 10:58 p -9.5 -9.5 -9.6 --- --- 12.2 ENE 0.20 13.9 -17.7 --- --- 722.2 0.019 0.000 7.1 4 1
02/09/06 10:59 p -9.4 -9.4 -9.4 --- --- 12.2 ENE 0.20 13.9 -17.6 --- --- 722.2 0.019 0.000 7.2 4 1
02/09/06 11:00 p -9.4 -9.3 -9.4 --- --- 13.0 ENE 0.22 14.8 -17.8 --- --- 722.1 0.019 0.000 7.2 4 1
02/09/06 11:01 p -9.2 -9.2 -9.3 --- --- 11.3 ENE 0.19 13.0 -17.1 --- --- 722.3 0.019 0.000 7.2 4 1
02/09/06 11:02 p -9.2 -9.1 -9.2 --- --- 11.3 ENE 0.19 13.0 -16.9 --- --- 722.2 0.019 0.000 7.2 4 1
02/09/06 11:03 p -9.1 -9.1 -9.1 --- --- 12.2 ENE 0.20 13.0 -17.2 --- --- 722.2 0.019 0.000 7.2 4 1
02/09/06 11:04 p -9.0 -8.9 -9.1 --- --- 11.3 ENE 0.19 13.0 -16.7 --- --- 722.1 0.019 0.000 7.2 4 1
02/09/06 11:05 p -8.9 -8.9 -8.9 --- --- 13.0 ENE 0.22 14.8 -17.2 --- --- 722.1 0.019 0.000 7.2 4 1
02/09/06 11:06 p -8.9 -8.8 -8.9 --- --- 13.0 ENE 0.22 13.9 -17.2 --- --- 722.1 0.019 0.000 7.1 4 1
02/09/06 11:07 p -8.7 -8.7 -8.8 --- --- 11.3 ENE 0.19 13.9 -16.4 --- --- 722.2 0.019 0.000 7.2 4 1
02/09/06 11:08 p -8.7 -8.7 -8.7 --- --- 12.2 ENE 0.20 13.9 -16.6 --- --- 722.2 0.019 0.000 7.2 4 1
02/09/06 11:09 p -8.8 -8.8 -8.9 --- --- 13.0 ENE 0.22 14.8 -17.1 --- --- 722.1 0.019 0.000 7.2 4 1
02/09/06 11:10 p -8.9 -8.9 -8.9 --- --- 12.2 ENE 0.20 13.9 -16.9 --- --- 722.0 0.019 0.000 7.2 4 1
02/09/06 11:11 p -8.9 -8.9 -8.9 --- --- 11.3 ENE 0.19 13.9 -16.7 --- --- 722.1 0.019 0.000 7.2 4 1
02/09/06 11:12 p -8.9 -8.8 -8.9 --- --- 11.3 ENE 0.19 13.0 -16.6 --- --- 722.1 0.019 0.000 7.2 4 1
02/09/06 11:13 p -8.9 -8.8 -8.9 --- --- 12.2 E 0.20 14.8 -16.9 --- --- 722.2 0.019 0.000 7.2 4 1
02/09/06 11:14 p -8.9 -8.9 -9.0 --- --- 13.0 ENE 0.22 14.8 -17.2 --- --- 722.2 0.019 0.000 7.2 4 1
02/09/06 11:15 p -8.9 -8.9 -8.9 --- --- 11.3 ENE 0.19 12.2 -16.7 --- --- 722.1 0.019 0.000 7.2 4 1
02/09/06 11:16 p -8.9 -8.9 -9.0 --- --- 11.3 ENE 0.19 13.0 -16.7 --- --- 722.1 0.019 0.000 7.2 4 1
02/09/06 11:17 p -9.1 -9.0 -9.2 --- --- 12.2 ENE 0.20 13.9 -17.1 --- --- 722.2 0.019 0.000 7.2 4 1
02/09/06 11:18 p -9.2 -9.2 -9.2 --- --- 13.0 ENE 0.22 14.8 -17.5 --- --- 722.2 0.019 0.000 7.2 4 1
02/09/06 11:19 p -9.2 -9.2 -9.2 --- --- 11.3 ENE 0.19 13.9 -17.1 --- --- 722.2 0.019 0.000 7.2 4 1
02/09/06 11:20 p -9.1 -9.1 -9.2 --- --- 11.3 ENE 0.19 13.0 -16.9 --- --- 722.1 0.019 0.000 7.2 4 1
02/09/06 11:21 p -9.1 -9.0 -9.1 --- --- 11.3 E 0.19 14.8 -16.8 --- --- 722.1 0.019 0.000 7.1 4 1
02/09/06 11:22 p -9.0 -9.0 -9.1 --- --- 10.4 E 0.17 13.9 -16.4 --- --- 722.1 0.019 0.000 7.1 4 1
02/09/06 11:23 p -9.0 -9.0 -9.1 --- --- 13.0 ENE 0.22 14.8 -17.3 --- --- 722.1 0.019 0.000 7.1 4 1
02/09/06 11:24 p -9.0 -9.0 -9.0 --- --- 13.9 ENE 0.23 15.7 -17.6 --- --- 722.1 0.019 0.000 7.1 4 1
02/09/06 11:25 p -9.1 -9.0 -9.1 --- --- 13.0 ENE 0.22 15.7 -17.4 --- --- 722.2 0.019 0.000 7.1 4 1
02/09/06 11:26 p -8.9 -8.9 -9.0 --- --- 13.0 ENE 0.22 14.8 -17.2 --- --- 722.2 0.019 0.000 7.1 4 1
02/09/06 11:27 p -8.9 -8.9 -8.9 --- --- 12.2 E 0.20 14.8 -16.9 --- --- 722.1 0.019 0.000 7.1 4 1
02/09/06 11:28 p -8.9 -8.8 -8.9 --- --- 13.0 ENE 0.22 14.8 -17.2 --- --- 722.3 0.019 0.000 7.1 4 1
02/09/06 11:29 p -8.9 -8.8 -8.9 --- --- 13.0 ENE 0.22 15.7 -17.2 --- --- 722.1 0.019 0.000 7.1 4 1
02/09/06 11:30 p -8.8 -8.8 -8.8 --- --- 13.9 ENE 0.23 15.7 -17.3 --- --- 722.1 0.019 0.000 7.1 4 1
02/09/06 11:31 p -8.8 -8.8 -8.8 --- --- 13.9 ENE 0.23 15.7 -17.3 --- --- 722.1 0.019 0.000 7.1 4 1
02/09/06 11:32 p -8.9 -8.8 -8.9 --- --- 13.0 ENE 0.22 14.8 -17.2 --- --- 722.1 0.019 0.000 7.0 4 1
02/09/06 11:33 p -9.0 -9.0 -9.0 --- --- 12.2 ENE 0.20 13.9 -17.1 --- --- 722.1 0.019 0.000 7.0 4 1
02/09/06 11:34 p -8.9 -8.9 -9.0 --- --- 12.2 ENE 0.20 13.9 -16.9 --- --- 722.1 0.019 0.000 7.0 4 1
02/09/06 11:35 p -8.9 -8.9 -8.9 --- --- 12.2 ENE 0.20 13.9 -16.9 --- --- 722.2 0.019 0.000 7.0 4 1
02/09/06 11:36 p -9.0 -9.0 -9.1 --- --- 12.2 E 0.20 13.9 -17.1 --- --- 722.0 0.019 0.000 7.0 4 1
02/09/06 11:37 p -8.9 -8.9 -9.0 --- --- 12.2 E 0.20 13.9 -16.9 --- --- 722.1 0.019 0.000 7.0 4 1
02/09/06 11:38 p -8.8 -8.8 -8.9 --- --- 12.2 E 0.20 13.9 -16.8 --- --- 722.0 0.019 0.000 7.0 4 1
02/09/06 11:39 p -8.8 -8.8 -8.8 --- --- 11.3 E 0.19 13.0 -16.4 --- --- 722.0 0.019 0.000 7.0 4 1
02/09/06 11:40 p -8.8 -8.8 -8.8 --- --- 11.3 E 0.19 13.0 -16.4 --- --- 722.1 0.019 0.000 6.9 4 1
02/09/06 11:41 p -8.8 -8.8 -8.8 --- --- 11.3 E 0.19 13.9 -16.4 --- --- 722.0 0.019 0.000 6.9 4 1
02/09/06 11:42 p -8.8 -8.8 -8.9 --- --- 12.2 ENE 0.20 13.9 -16.8 --- --- 722.0 0.019 0.000 6.9 4 1
02/09/06 11:43 p -8.9 -8.9 -8.9 --- --- 13.0 ENE 0.22 13.9 -17.2 --- --- 722.1 0.019 0.000 6.9 4 1
02/09/06 11:44 p -8.9 -8.9 -8.9 --- --- 13.0 ENE 0.22 14.8 -17.2 --- --- 722.1 0.019 0.000 6.9 4 1
02/09/06 11:45 p -9.0 -9.0 -9.1 --- --- 12.2 ENE 0.20 13.9 -17.1 --- --- 722.0 0.019 0.000 7.0 4 1
02/09/06 11:46 p -9.1 -9.1 -9.1 --- --- 13.0 ENE 0.22 14.8 -17.4 --- --- 722.1 0.019 0.000 7.0 4 1
02/09/06 11:47 p -9.1 -9.1 -9.2 --- --- 12.2 ENE 0.20 14.8 -17.2 --- --- 722.1 0.019 0.000 7.0 4 1
02/09/06 11:48 p -9.1 -9.1 -9.2 --- --- 11.3 E 0.19 13.0 -16.9 --- --- 722.0 0.019 0.000 7.1 4 1
02/09/06 11:49 p -9.1 -9.1 -9.1 --- --- 12.2 ENE 0.20 13.0 -17.1 --- --- 722.0 0.019 0.000 7.1 4 1
02/09/06 11:50 p -9.1 -9.1 -9.1 --- --- 13.0 ENE 0.22 14.8 -17.4 --- --- 722.0 0.019 0.000 7.1 4 1
02/09/06 11:51 p -9.1 -9.1 -9.1 --- --- 12.2 ENE 0.20 13.9 -17.2 --- --- 722.0 0.019 0.000 7.1 4 1
02/09/06 11:52 p -9.2 -9.1 -9.2 --- --- 13.0 ENE 0.22 13.9 -17.5 --- --- 722.0 0.019 0.000 7.1 4 1
02/09/06 11:53 p -9.2 -9.2 -9.2 --- --- 12.2 ENE 0.20 13.9 -17.3 --- --- 722.0 0.019 0.000 7.1 4 1
02/09/06 11:54 p -9.2 -9.2 -9.3 --- --- 12.2 ENE 0.20 13.9 -17.3 --- --- 722.0 0.019 0.000 7.1 4 1
02/09/06 11:55 p -9.3 -9.3 -9.3 --- --- 12.2 ENE 0.20 13.0 -17.4 --- --- 722.0 0.019 0.000 7.1 4 1
02/09/06 11:56 p -9.3 -9.3 -9.3 --- --- 12.2 ENE 0.20 13.9 -17.4 --- --- 722.0 0.019 0.000 7.1 4 1
02/09/06 11:57 p -9.3 -9.3 -9.3 --- --- 13.0 ENE 0.22 13.9 -17.7 --- --- 721.9 0.019 0.000 7.1 4 1
02/09/06 11:58 p -9.3 -9.3 -9.3 --- --- 12.2 ENE 0.20 13.9 -17.4 --- --- 721.9 0.019 0.000 7.1 4 1
02/09/06 11:59 p -9.3 -9.3 -9.3 --- --- 12.2 ENE 0.20 13.9 -17.4 --- --- 722.0 0.019 0.000 7.1 4 1
02/10/06 12:00 a -9.3 -9.3 -9.3 --- --- 12.2 ENE 0.20 13.9 -17.4 --- --- 721.9 0.019 0.000 7.1 4 1
02/10/06 12:01 a -9.3 -9.3 -9.3 --- --- 11.3 ENE 0.19 13.0 -17.1 --- --- 721.9 0.019 0.000 7.1 4 1
02/10/06 12:02 a -9.2 -9.1 -9.3 --- --- 11.3 ENE 0.19 13.0 -17.1 --- --- 721.9 0.019 0.000 7.1 4 1
02/10/06 12:03 a -9.1 -9.1 -9.1 --- --- 12.2 ENE 0.20 13.0 -17.1 --- --- 721.9 0.019 0.000 7.1 4 1
02/10/06 12:04 a -9.0 -9.0 -9.1 --- --- 12.2 ENE 0.20 12.2 -17.1 --- --- 722.1 0.019 0.000 7.1 4 1
02/10/06 12:05 a -9.0 -8.9 -9.0 --- --- 12.2 ENE 0.20 13.0 -17.1 --- --- 721.9 0.019 0.000 7.1 4 1
02/10/06 12:06 a -8.9 -8.9 -8.9 --- --- 12.2 ENE 0.20 13.9 -16.9 --- --- 721.9 0.019 0.000 7.1 4 1
02/10/06 12:07 a -8.9 -8.9 -8.9 --- --- 11.3 ENE 0.19 13.0 -16.7 --- --- 722.0 0.019 0.000 7.1 4 1
02/10/06 12:08 a -8.9 -8.9 -9.0 --- --- 10.4 ENE 0.17 12.2 -16.4 --- --- 721.9 0.019 0.000 7.1 4 1
02/10/06 12:09 a -9.0 -9.0 -9.1 --- --- 10.4 ENE 0.17 12.2 -16.4 --- --- 721.9 0.019 0.000 7.1 4 1
02/10/06 12:10 a -9.1 -9.1 -9.2 --- --- 11.3 ENE 0.19 13.0 -16.9 --- --- 721.9 0.019 0.000 7.1 4 1
02/10/06 12:11 a -9.2 -9.2 -9.2 --- --- 12.2 ENE 0.20 13.0 -17.3 --- --- 722.0 0.019 0.000 7.2 4 1
02/10/06 12:12 a -9.2 -9.2 -9.2 --- --- 12.2 ENE 0.20 13.0 -17.3 --- --- 722.0 0.019 0.000 7.2 4 1
02/10/06 12:13 a -9.1 -9.0 -9.1 --- --- 12.2 ENE 0.20 13.9 -17.2 --- --- 721.8 0.019 0.000 7.2 4 1
02/10/06 12:14 a -9.0 -9.0 -9.0 --- --- 12.2 ENE 0.20 13.0 -17.1 --- --- 721.8 0.019 0.000 7.2 4 1
02/10/06 12:15 a -8.9 -8.9 -9.0 --- --- 11.3 ENE 0.19 13.0 -16.7 --- --- 721.8 0.019 0.000 7.1 4 1
02/10/06 12:16 a -8.9 -8.9 -8.9 --- --- 11.3 ENE 0.19 13.0 -16.7 --- --- 721.9 0.019 0.000 7.1 4 1
02/10/06 12:17 a -8.9 -8.9 -8.9 --- --- 11.3 ENE 0.19 13.0 -16.7 --- --- 721.9 0.019 0.000 7.1 4 1
02/10/06 12:18 a -8.9 -8.9 -8.9 --- --- 11.3 ENE 0.19 13.0 -16.6 --- --- 721.9 0.019 0.000 7.1 4 1
02/10/06 12:19 a -8.9 -8.9 -8.9 --- --- 12.2 ENE 0.20 13.9 -16.9 --- --- 721.8 0.019 0.000 7.1 4 1
02/10/06 12:20 a -8.9 -8.9 -8.9 --- --- 11.3 ENE 0.19 13.0 -16.6 --- --- 721.8 0.019 0.000 7.0 4 1
02/10/06 12:21 a -8.9 -8.9 -8.9 --- --- 12.2 ENE 0.20 13.0 -16.9 --- --- 721.8 0.019 0.000 7.0 4 1
02/10/06 12:22 a -8.9 -8.9 -8.9 --- --- 12.2 ENE 0.20 13.0 -16.9 --- --- 721.8 0.019 0.000 7.0 4 1
02/10/06 12:23 a -8.8 -8.8 -8.8 --- --- 12.2 ENE 0.20 13.0 -16.8 --- --- 721.8 0.019 0.000 7.0 4 1
02/10/06 12:24 a -8.7 -8.7 -8.8 --- --- 12.2 ENE 0.20 13.0 -16.7 --- --- 721.8 0.019 0.000 6.9 4 1
02/10/06 12:25 a -8.7 -8.6 -8.7 --- --- 12.2 ENE 0.20 13.9 -16.6 --- --- 721.8 0.019 0.000 6.9 4 1
02/10/06 12:26 a -8.6 -8.5 -8.6 --- --- 12.2 ENE 0.20 13.0 -16.5 --- --- 721.8 0.019 0.000 6.9 4 1
02/10/06 12:27 a -8.5 -8.5 -8.5 --- --- 12.2 ENE 0.20 13.0 -16.4 --- --- 721.8 0.019 0.000 6.9 4 1
02/10/06 12:28 a -8.4 -8.4 -8.5 --- --- 12.2 ENE 0.20 13.9 -16.3 --- --- 721.8 0.019 0.000 6.9 4 1
02/10/06 12:29 a -8.4 -8.4 -8.4 --- --- 12.2 ENE 0.20 13.9 -16.3 --- --- 721.8 0.019 0.000 6.9 4 1
02/10/06 12:30 a -8.4 -8.4 -8.5 --- --- 13.0 ENE 0.22 13.9 -16.6 --- --- 721.8 0.019 0.000 6.9 4 1
02/10/06 12:31 a -8.5 -8.5 -8.5 --- --- 12.2 ENE 0.20 13.9 -16.4 --- --- 721.8 0.019 0.000 6.9 4 1
02/10/06 12:32 a -8.4 -8.4 -8.5 --- --- 13.0 ENE 0.22 13.9 -16.6 --- --- 721.9 0.019 0.000 6.9 4 1
02/10/06 12:33 a -8.4 -8.4 -8.5 --- --- 13.0 ENE 0.22 13.9 -16.6 --- --- 721.8 0.019 0.000 6.9 4 1
02/10/06 12:34 a -8.4 -8.4 -8.5 --- --- 12.2 ENE 0.20 13.0 -16.3 --- --- 721.9 0.019 0.000 6.9 4 1
02/10/06 12:35 a -8.4 -8.4 -8.4 --- --- 12.2 ENE 0.20 13.9 -16.3 --- --- 721.9 0.019 0.000 6.9 4 1
02/10/06 12:36 a -8.4 -8.4 -8.4 --- --- 12.2 ENE 0.20 13.0 -16.3 --- --- 721.9 0.019 0.000 6.9 4 1
02/10/06 12:37 a -8.4 -8.4 -8.4 --- --- 12.2 ENE 0.20 13.0 -16.3 --- --- 721.9 0.019 0.000 6.9 4 1
02/10/06 12:38 a -8.4 -8.3 -8.4 --- --- 12.2 ENE 0.20 13.0 -16.3 --- --- 721.8 0.019 0.000 6.9 4 1
02/10/06 12:39 a -8.3 -8.2 -8.3 --- --- 12.2 ENE 0.20 13.9 -16.1 --- --- 721.7 0.018 0.000 6.9 4 1
02/10/06 12:40 a -8.2 -8.2 -8.2 --- --- 12.2 ENE 0.20 13.9 -16.1 --- --- 721.7 0.018 0.000 6.9 4 1
02/10/06 12:41 a -8.1 -8.1 -8.2 --- --- 11.3 ENE 0.19 13.0 -15.6 --- --- 721.8 0.018 0.000 7.0 4 1
02/10/06 12:42 a -8.1 -8.1 -8.1 --- --- 12.2 ENE 0.20 13.0 -15.9 --- --- 721.8 0.018 0.000 7.0 4 1
02/10/06 12:43 a -8.1 -8.1 -8.1 --- --- 12.2 ENE 0.20 14.8 -15.9 --- --- 721.8 0.018 0.000 7.0 4 1
02/10/06 12:44 a -8.1 -8.1 -8.1 --- --- 13.0 ENE 0.22 14.8 -16.2 --- --- 721.8 0.018 0.000 7.0 4 1
02/10/06 12:45 a -8.1 -8.1 -8.1 --- --- 13.9 ENE 0.23 15.7 -16.3 --- --- 721.7 0.018 0.000 7.0 4 1
02/10/06 12:46 a -8.1 -8.1 -8.1 --- --- 13.0 ENE 0.22 14.8 -16.1 --- --- 721.7 0.018 0.000 7.1 4 1
02/10/06 12:47 a -8.1 -8.0 -8.1 --- --- 13.9 ENE 0.23 14.8 -16.3 --- --- 721.7 0.018 0.000 7.1 4 1
02/10/06 12:48 a -8.0 -8.0 -8.0 --- --- 12.2 ENE 0.20 14.8 -15.8 --- --- 721.8 0.018 0.000 7.1 4 1
02/10/06 12:49 a -7.9 -7.8 -8.0 --- --- 13.0 ENE 0.22 13.9 -15.9 --- --- 721.8 0.018 0.000 7.1 4 1
02/10/06 12:50 a -7.8 -7.7 -7.8 --- --- 12.2 ENE 0.20 13.0 -15.5 --- --- 721.8 0.018 0.000 7.1 4 1
02/10/06 12:51 a -7.6 -7.5 -7.7 --- --- 11.3 ENE 0.19 12.2 -15.0 --- --- 721.8 0.018 0.000 7.1 4 1
02/10/06 12:52 a -7.4 -7.4 -7.5 --- --- 11.3 ENE 0.19 13.0 -14.8 --- --- 721.8 0.018 0.000 7.1 4 1
02/10/06 12:53 a -7.3 -7.3 -7.3 --- --- 12.2 ENE 0.20 13.0 -14.9 --- --- 721.8 0.018 0.000 7.1 4 1
02/10/06 12:54 a -7.2 -7.2 -7.3 --- --- 12.2 ENE 0.20 13.0 -14.8 --- --- 721.8 0.018 0.000 7.1 4 1
02/10/06 12:55 a -7.2 -7.2 -7.3 --- --- 12.2 ENE 0.20 13.9 -14.8 --- --- 721.8 0.018 0.000 7.1 4 1
02/10/06 12:56 a -7.2 -7.2 -7.2 --- --- 10.4 E 0.17 12.2 -14.1 --- --- 721.8 0.018 0.000 7.1 4 1
02/10/06 12:57 a -7.3 -7.3 -7.3 --- --- 11.3 ENE 0.19 13.9 -14.7 --- --- 721.8 0.018 0.000 7.1 4 1
02/10/06 12:58 a -7.2 -7.1 -7.3 --- --- 12.2 ENE 0.20 13.9 -14.8 --- --- 721.7 0.018 0.000 7.1 4 1
02/10/06 12:59 a -7.1 -7.0 -7.1 --- --- 12.2 ENE 0.20 13.9 -14.6 --- --- 721.6 0.018 0.000 7.1 4 1
02/10/06 1:00 a -7.0 -6.9 -7.0 --- --- 12.2 ENE 0.20 13.0 -14.5 --- --- 721.7 0.018 0.000 7.1 4 1
02/10/06 1:01 a -7.0 -7.0 -7.1 --- --- 13.0 ENE 0.22 13.9 -14.7 --- --- 721.7 0.018 0.000 7.1 4 1
02/10/06 1:03 a -7.1 -7.0 -7.1 --- --- 12.2 ENE 0.20 13.0 -14.6 --- --- 721.7 0.018 0.000 7.1 4 1
02/10/06 1:04 a -7.0 -7.0 -7.1 --- --- 11.3 ENE 0.19 12.2 -14.2 --- --- 721.7 0.018 0.000 7.1 4 1
02/10/06 1:05 a -6.9 -6.9 -7.0 --- --- 10.4 NE 0.17 12.2 -13.8 --- --- 721.7 0.018 0.000 7.1 4 1
02/10/06 1:06 a -6.9 -6.9 -6.9 --- --- 10.4 ENE 0.17 11.3 -13.8 --- --- 721.6 0.018 0.000 7.1 4 1
02/10/06 1:07 a -6.9 -6.9 -6.9 --- --- 11.3 ENE 0.19 13.9 -14.2 --- --- 721.7 0.018 0.000 7.1 4 1
02/10/06 1:08 a -7.0 -6.9 -7.1 --- --- 13.0 ENE 0.22 13.9 -14.7 --- --- 721.6 0.018 0.000 7.1 4 1
02/10/06 1:09 a -7.0 -7.0 -7.1 --- --- 12.2 ENE 0.20 13.9 -14.5 --- --- 721.7 0.018 0.000 7.1 4 1
02/10/06 1:10 a -7.1 -7.0 -7.1 --- --- 13.0 ENE 0.22 13.9 -14.8 --- --- 721.7 0.018 0.000 7.1 4 1
02/10/06 1:11 a -7.1 -7.1 -7.2 --- --- 11.3 ENE 0.19 13.0 -14.3 --- --- 721.7 0.018 0.000 7.1 4 1
02/10/06 1:12 a -7.2 -7.1 -7.2 --- --- 10.4 ENE 0.17 11.3 -14.1 --- --- 721.7 0.018 0.000 7.1 4 1
02/10/06 1:13 a -7.0 -6.9 -7.1 --- --- 9.6 ENE 0.16 10.4 -13.6 --- --- 721.8 0.018 0.000 7.1 4 1
02/10/06 1:14 a -6.8 -6.7 -6.8 --- --- 8.7 ENE 0.14 10.4 -13.0 --- --- 721.7 0.017 0.000 7.0 4 1
02/10/06 1:15 a -6.6 -6.6 -6.6 --- --- 9.6 E 0.16 11.3 -13.1 --- --- 721.7 0.017 0.000 7.0 4 1
02/10/06 1:16 a -6.6 -6.6 -6.6 --- --- 8.7 E 0.14 11.3 -12.7 --- --- 721.6 0.017 0.000 7.0 4 1
02/10/06 1:17 a -6.7 -6.6 -6.8 --- --- 11.3 ENE 0.19 13.0 -13.8 --- --- 721.7 0.017 0.000 7.0 4 1
02/10/06 1:18 a -6.9 -6.8 -6.9 --- --- 11.3 ENE 0.19 13.0 -14.1 --- --- 721.6 0.018 0.000 7.0 4 1
02/10/06 1:19 a -6.7 -6.6 -6.8 --- --- 9.6 ENE 0.16 12.2 -13.3 --- --- 721.7 0.017 0.000 7.0 4 1
02/10/06 1:20 a -6.6 -6.6 -6.7 --- --- 8.7 E 0.14 12.2 -12.8 --- --- 721.6 0.017 0.000 7.0 4 1
02/10/06 1:21 a -6.8 -6.7 -6.8 --- --- 8.7 E 0.14 11.3 -13.0 --- --- 721.7 0.017 0.000 7.0 4 1
02/10/06 1:22 a -6.9 -6.8 -6.9 --- --- 9.6 E 0.16 11.3 -13.4 --- --- 721.6 0.018 0.000 7.0 4 1
02/10/06 1:23 a -6.9 -6.8 -6.9 --- --- 9.6 E 0.16 11.3 -13.4 --- --- 721.6 0.018 0.000 7.0 4 1
02/10/06 1:24 a -6.8 -6.8 -6.9 --- --- 9.6 ENE 0.16 10.4 -13.4 --- --- 721.7 0.017 0.000 7.0 4 1
02/10/06 1:25 a -6.8 -6.8 -6.9 --- --- 8.7 E 0.14 11.3 -13.1 --- --- 721.7 0.017 0.000 7.0 4 1
02/10/06 1:26 a -6.8 -6.8 -6.8 --- --- 7.8 ENE 0.13 9.6 -12.7 --- --- 721.6 0.017 0.000 6.9 4 1
02/10/06 1:27 a -6.8 -6.8 -6.8 --- --- 7.8 E 0.13 10.4 -12.6 --- --- 721.7 0.017 0.000 6.9 4 1
02/10/06 1:28 a -6.7 -6.7 -6.8 --- --- 7.0 E 0.12 9.6 -12.2 --- --- 721.7 0.017 0.000 6.9 4 1
02/10/06 1:29 a -6.7 -6.7 -6.7 --- --- 6.1 E 0.10 9.6 -11.7 --- --- 721.7 0.017 0.000 6.9 4 1
02/10/06 1:30 a -6.7 -6.7 -6.8 --- --- 7.8 E 0.13 9.6 -12.6 --- --- 721.6 0.017 0.000 6.9 4 1
02/10/06 1:31 a -6.8 -6.8 -6.9 --- --- 6.1 E 0.10 8.7 -11.8 --- --- 721.6 0.017 0.000 6.9 4 1
02/10/06 1:32 a -6.8 -6.8 -6.9 --- --- 9.6 ENE 0.16 10.4 -13.4 --- --- 721.7 0.017 0.000 6.9 4 1
02/10/06 1:33 a -6.8 -6.8 -6.9 --- --- 9.6 ENE 0.16 10.4 -13.4 --- --- 721.7 0.017 0.000 6.9 4 1
02/10/06 1:34 a -6.8 -6.8 -6.8 --- --- 8.7 ENE 0.14 10.4 -13.0 --- --- 721.6 0.017 0.000 6.9 4 1
02/10/06 1:35 a -6.7 -6.6 -6.8 --- --- 8.7 ENE 0.14 9.6 -12.8 --- --- 721.7 0.017 0.000 6.9 4 1
02/10/06 1:36 a -6.6 -6.6 -6.6 --- --- 7.8 ENE 0.13 9.6 -12.3 --- --- 721.6 0.017 0.000 6.9 4 1
02/10/06 1:37 a -6.4 -6.4 -6.5 --- --- 8.7 ENE 0.14 10.4 -12.6 --- --- 721.7 0.017 0.000 6.9 4 1
02/10/06 1:38 a -6.3 -6.3 -6.4 --- --- 8.7 ENE 0.14 10.4 -12.4 --- --- 721.6 0.017 0.000 7.0 4 1
02/10/06 1:39 a -6.3 -6.3 -6.3 --- --- 8.7 ENE 0.14 9.6 -12.4 --- --- 721.7 0.017 0.000 7.0 4 1
02/10/06 1:40 a -6.3 -6.3 -6.3 --- --- 9.6 ENE 0.16 11.3 -12.8 --- --- 721.7 0.017 0.000 7.0 4 1
02/10/06 1:41 a -6.3 -6.3 -6.4 --- --- 9.6 ENE 0.16 12.2 -12.8 --- --- 721.6 0.017 0.000 7.1 4 1
02/10/06 1:42 a -6.4 -6.4 -6.5 --- --- 10.4 E 0.17 12.2 -13.2 --- --- 721.7 0.017 0.000 7.1 4 1
02/10/06 1:43 a -6.6 -6.5 -6.6 --- --- 10.4 ENE 0.17 12.2 -13.4 --- --- 721.7 0.017 0.000 7.1 4 1
02/10/06 1:44 a -6.5 -6.4 -6.5 --- --- 11.3 ENE 0.19 12.2 -13.6 --- --- 721.7 0.017 0.000 7.1 4 1
02/10/06 1:45 a -6.4 -6.4 -6.5 --- --- 10.4 ENE 0.17 12.2 -13.2 --- --- 721.6 0.017 0.000 7.1 4 1
02/10/06 1:46 a -6.5 -6.5 -6.6 --- --- 11.3 ENE 0.19 12.2 -13.6 --- --- 721.7 0.017 0.000 7.1 4 1
02/10/06 1:47 a -6.4 -6.4 -6.4 --- --- 10.4 ENE 0.17 12.2 -13.2 --- --- 721.6 0.017 0.000 7.1 4 1
02/10/06 1:48 a -6.3 -6.3 -6.4 --- --- 10.4 ENE 0.17 11.3 -13.1 --- --- 721.6 0.017 0.000 7.1 4 1
02/10/06 1:49 a -6.2 -6.1 -6.2 --- --- 10.4 ENE 0.17 11.3 -12.9 --- --- 721.6 0.017 0.000 7.1 4 1
02/10/06 1:50 a -6.2 -6.1 -6.2 --- --- 9.6 ENE 0.16 11.3 -12.6 --- --- 721.7 0.017 0.000 7.1 4 1
02/10/06 1:51 a -6.1 -6.1 -6.2 --- --- 9.6 ENE 0.16 10.4 -12.5 --- --- 721.5 0.017 0.000 7.2 4 1
02/10/06 1:52 a -6.1 -6.0 -6.1 --- --- 9.6 ENE 0.16 10.4 -12.4 --- --- 721.6 0.017 0.000 7.1 4 1
02/10/06 1:53 a -5.9 -5.9 -6.0 --- --- 10.4 ENE 0.17 11.3 -12.6 --- --- 721.6 0.017 0.000 7.1 4 1
02/10/06 1:54 a -5.9 -5.9 -6.0 --- --- 9.6 ENE 0.16 11.3 -12.3 --- --- 721.4 0.017 0.000 7.1 4 1
02/10/06 1:55 a -5.9 -5.9 -6.0 --- --- 9.6 ENE 0.16 10.4 -12.3 --- --- 721.4 0.017 0.000 7.1 4 1
02/10/06 1:56 a -5.9 -5.9 -5.9 --- --- 10.4 ENE 0.17 11.3 -12.6 --- --- 721.5 0.017 0.000 7.1 4 1
02/10/06 1:57 a -5.8 -5.8 -5.9 --- --- 9.6 ENE 0.16 10.4 -12.2 --- --- 721.4 0.017 0.000 7.2 4 1
02/10/06 1:58 a -5.8 -5.7 -5.8 --- --- 9.6 ENE 0.16 10.4 -12.1 --- --- 721.4 0.017 0.000 7.2 4 1
02/10/06 1:59 a -5.8 -5.8 -5.8 --- --- 9.6 ENE 0.16 10.4 -12.1 --- --- 721.4 0.017 0.000 7.2 4 1
02/10/06 2:00 a -5.7 -5.7 -5.8 --- --- 9.6 ENE 0.16 11.3 -12.0 --- --- 721.5 0.017 0.000 7.2 4 1
02/10/06 2:01 a -5.7 -5.6 -5.7 --- --- 8.7 ENE 0.14 10.4 -11.6 --- --- 721.4 0.017 0.000 7.3 4 1
02/10/06 2:02 a -5.6 -5.6 -5.6 --- --- 8.7 ENE 0.14 10.4 -11.5 --- --- 721.3 0.017 0.000 7.3 4 1
02/10/06 2:03 a -5.6 -5.5 -5.6 --- --- 8.7 ENE 0.14 10.4 -11.5 --- --- 721.4 0.017 0.000 7.3 4 1
02/10/06 2:04 a -5.5 -5.5 -5.6 --- --- 8.7 ENE 0.14 10.4 -11.4 --- --- 721.3 0.017 0.000 7.4 4 1
02/10/06 2:05 a -5.6 -5.6 -5.6 --- --- 8.7 ENE 0.14 9.6 -11.5 --- --- 721.3 0.017 0.000 7.4 4 1
02/10/06 2:06 a -5.5 -5.4 -5.6 --- --- 8.7 ENE 0.14 9.6 -11.4 --- --- 721.4 0.017 0.000 7.4 4 1
02/10/06 2:07 a -5.4 -5.4 -5.4 --- --- 9.6 ENE 0.16 10.4 -11.7 --- --- 721.4 0.017 0.000 7.6 4 1
02/10/06 2:08 a -5.3 -5.3 -5.4 --- --- 8.7 ENE 0.14 9.6 -11.2 --- --- 721.4 0.016 0.000 7.6 4 1
02/10/06 2:09 a -5.3 -5.3 -5.3 --- --- 7.8 ENE 0.13 9.6 -10.8 --- --- 721.4 0.016 0.000 7.6 4 1
02/10/06 2:10 a -5.2 -5.2 -5.3 --- --- 7.8 ENE 0.13 9.6 -10.7 --- --- 721.4 0.016 0.000 7.6 4 1
02/10/06 2:11 a -5.2 -5.2 -5.3 --- --- 7.0 ENE 0.12 7.8 -10.3 --- --- 721.4 0.016 0.000 7.7 4 1
02/10/06 2:12 a -5.3 -5.3 -5.4 --- --- 7.0 E 0.12 8.7 -10.4 --- --- 721.3 0.016 0.000 7.7 4 1
02/10/06 2:13 a -5.5 -5.4 -5.6 --- --- 8.7 ENE 0.14 9.6 -11.4 --- --- 721.4 0.017 0.000 7.7 4 1
02/10/06 2:14 a -5.7 -5.6 -5.7 --- --- 7.0 E 0.12 8.7 -10.9 --- --- 721.3 0.017 0.000 7.7 4 1
02/10/06 2:15 a -5.7 -5.6 -5.8 --- --- 7.0 E 0.12 8.7 -10.9 --- --- 721.3 0.017 0.000 7.7 4 1
02/10/06 2:16 a -5.8 -5.8 -5.8 --- --- 7.0 ENE 0.12 8.7 -11.0 --- --- 721.3 0.017 0.000 7.8 4 1
02/10/06 2:17 a -5.8 -5.7 -5.8 --- --- 8.7 ENE 0.14 10.4 -11.8 --- --- 721.4 0.017 0.000 7.8 4 1
02/10/06 2:18 a -5.7 -5.6 -5.8 --- --- 7.8 ENE 0.13 8.7 -11.3 --- --- 721.3 0.017 0.000 7.8 4 1
02/10/06 2:19 a -5.6 -5.6 -5.6 --- --- 7.0 ENE 0.12 7.8 -10.7 --- --- 721.4 0.017 0.000 7.9 4 1
02/10/06 2:20 a -5.6 -5.6 -5.6 --- --- 8.7 NE 0.14 9.6 -11.6 --- --- 721.4 0.017 0.000 7.9 4 1
02/10/06 2:21 a -5.7 -5.6 -5.7 --- --- 8.7 NE 0.14 9.6 -11.6 --- --- 721.4 0.017 0.000 7.9 4 1
02/10/06 2:22 a -5.7 -5.6 -5.7 --- --- 8.7 ENE 0.14 9.6 -11.6 --- --- 721.4 0.017 0.000 7.9 4 1
02/10/06 2:23 a -5.6 -5.6 -5.7 --- --- 8.7 ENE 0.14 9.6 -11.6 --- --- 721.3 0.017 0.000 7.9 4 1
02/10/06 2:24 a -5.5 -5.4 -5.5 --- --- 9.6 ENE 0.16 11.3 -11.7 --- --- 721.4 0.017 0.000 8.0 4 1
02/10/06 2:25 a -5.6 -5.5 -5.6 --- --- 10.4 ENE 0.17 11.3 -12.1 --- --- 721.4 0.017 0.000 8.1 4 1
02/10/06 2:26 a -5.7 -5.6 -5.7 --- --- 8.7 ENE 0.14 9.6 -11.6 --- --- 721.3 0.017 0.000 8.1 4 1
02/10/06 2:27 a -5.8 -5.7 -5.9 --- --- 9.6 ENE 0.16 10.4 -12.1 --- --- 721.3 0.017 0.000 8.1 4 1
02/10/06 2:28 a -6.0 -5.9 -6.1 --- --- 9.6 ENE 0.16 10.4 -12.4 --- --- 721.3 0.017 0.000 8.1 4 1
02/10/06 2:29 a -6.1 -6.1 -6.1 --- --- 9.6 NE 0.16 10.4 -12.5 --- --- 721.4 0.017 0.000 8.2 5 1
02/10/06 2:30 a -6.2 -6.2 -6.3 --- --- 9.6 NE 0.16 11.3 -12.7 --- --- 721.3 0.017 0.000 8.2 5 1
02/10/06 2:31 a -6.3 -6.2 -6.3 --- --- 9.6 NE 0.16 10.4 -12.7 --- --- 721.3 0.017 0.000 8.2 4 1
02/10/06 2:32 a -6.2 -6.2 -6.2 --- --- 9.6 NE 0.16 10.4 -12.7 --- --- 721.3 0.017 0.000 8.2 4 1
02/10/06 2:33 a -6.3 -6.2 -6.4 --- --- 9.6 NE 0.16 10.4 -12.7 --- --- 721.4 0.017 0.000 8.2 4 1
02/10/06 2:34 a -6.4 -6.4 -6.4 --- --- 9.6 NE 0.16 11.3 -12.8 --- --- 721.3 0.017 0.000 8.2 5 1
02/10/06 2:35 a -6.5 -6.5 -6.5 --- --- 8.7 NE 0.14 9.6 -12.7 --- --- 721.3 0.017 0.000 8.3 4 1
02/10/06 2:36 a -6.6 -6.6 -6.6 --- --- 9.6 NE 0.16 11.3 -13.1 --- --- 721.4 0.017 0.000 8.3 5 1
02/10/06 2:37 a -6.6 -6.6 -6.7 --- --- 9.6 NE 0.16 11.3 -13.1 --- --- 721.4 0.017 0.000 8.3 5 1
02/10/06 2:38 a -6.7 -6.7 -6.8 --- --- 9.6 NE 0.16 11.3 -13.3 --- --- 721.3 0.017 0.000 8.3 5 1
02/10/06 2:39 a -7.1 -6.9 -7.4 --- --- 10.4 NE 0.17 12.2 -14.1 --- --- 721.4 0.018 0.000 8.3 4 1
02/10/06 2:40 a -7.4 -7.4 -7.4 --- --- 9.6 NE 0.16 10.4 -14.2 --- --- 721.3 0.018 0.000 8.3 4 1
02/10/06 2:41 a -7.4 -7.2 -7.4 --- --- 7.0 NE 0.12 9.6 -13.0 --- --- 721.3 0.018 0.000 8.3 4 1
02/10/06 2:42 a -7.1 -7.1 -7.2 --- --- 9.6 NE 0.16 10.4 -13.7 --- --- 721.3 0.018 0.000 8.4 4 1
02/10/06 2:43 a -7.2 -7.1 -7.2 --- --- 8.7 NE 0.14 9.6 -13.5 --- --- 721.4 0.018 0.000 8.4 4 1
02/10/06 2:44 a -7.0 -6.8 -7.1 --- --- 7.8 NE 0.13 8.7 -12.9 --- --- 721.3 0.018 0.000 8.4 5 1
02/10/06 2:45 a -6.7 -6.5 -6.8 --- --- 7.8 NE 0.13 8.7 -12.6 --- --- 721.3 0.017 0.000 8.4 5 1
02/10/06 2:46 a -6.4 -6.4 -6.5 --- --- 10.4 NE 0.17 11.3 -13.2 --- --- 721.3 0.017 0.000 8.4 4 1
02/10/06 2:47 a -6.5 -6.5 -6.5 --- --- 9.6 NE 0.16 11.3 -13.0 --- --- 721.3 0.017 0.000 8.4 4 1
02/10/06 2:48 a -6.5 -6.4 -6.5 --- --- 8.7 NE 0.14 11.3 -12.7 --- --- 721.3 0.017 0.000 8.4 4 1
02/10/06 2:49 a -6.4 -6.4 -6.5 --- --- 10.4 NE 0.17 12.2 -13.2 --- --- 721.3 0.017 0.000 8.4 4 1
02/10/06 2:50 a -6.6 -6.5 -6.7 --- --- 10.4 NE 0.17 11.3 -13.4 --- --- 721.3 0.017 0.000 8.4 4 1
02/10/06 2:51 a -6.6 -6.6 -6.7 --- --- 8.7 NE 0.14 10.4 -12.8 --- --- 721.2 0.017 0.000 8.4 4 1
02/10/06 2:52 a -6.6 -6.6 -6.7 --- --- 9.6 NE 0.16 11.3 -13.1 --- --- 721.2 0.017 0.000 8.4 4 1
02/10/06 2:53 a -6.8 -6.7 -6.8 --- --- 9.6 NE 0.16 10.4 -13.3 --- --- 721.2 0.017 0.000 8.4 5 1
02/10/06 2:54 a -6.8 -6.8 -6.8 --- --- 9.6 NE 0.16 10.4 -13.4 --- --- 721.2 0.017 0.000 8.4 4 1
02/10/06 2:55 a -6.7 -6.7 -6.7 --- --- 8.7 NE 0.14 10.4 -12.9 --- --- 721.3 0.017 0.000 8.4 5 1
02/10/06 2:56 a -6.7 -6.7 -6.7 --- --- 7.8 NE 0.13 9.6 -12.5 --- --- 721.2 0.017 0.000 8.4 4 1
02/10/06 2:57 a -6.7 -6.7 -6.7 --- --- 9.6 NE 0.16 11.3 -13.3 --- --- 721.2 0.017 0.000 8.4 5 1
02/10/06 2:58 a -6.7 -6.7 -6.7 --- --- 9.6 NE 0.16 11.3 -13.2 --- --- 721.2 0.017 0.000 8.4 4 1
02/10/06 2:59 a -6.7 -6.6 -6.7 --- --- 10.4 NE 0.17 11.3 -13.5 --- --- 721.3 0.017 0.000 8.5 4 1
02/10/06 3:00 a -6.6 -6.6 -6.6 --- --- 7.8 NE 0.13 9.6 -12.3 --- --- 721.2 0.017 0.000 8.5 5 1
02/10/06 3:01 a -6.5 -6.4 -6.6 --- --- 10.4 NE 0.17 11.3 -13.3 --- --- 721.1 0.017 0.000 8.5 5 1
02/10/06 3:02 a -6.6 -6.4 -6.6 --- --- 8.7 NE 0.14 11.3 -12.7 --- --- 721.2 0.017 0.000 8.5 5 1
02/10/06 3:03 a -6.5 -6.4 -6.6 --- --- 11.3 ENE 0.19 12.2 -13.6 --- --- 721.2 0.017 0.000 8.6 5 1
02/10/06 3:04 a -6.6 -6.6 -6.7 --- --- 10.4 ENE 0.17 12.2 -13.4 --- --- 721.2 0.017 0.000 8.6 4 1
02/10/06 3:05 a -6.6 -6.6 -6.7 --- --- 7.8 NE 0.13 9.6 -12.4 --- --- 721.2 0.017 0.000 8.6 5 1
02/10/06 3:06 a -6.6 -6.6 -6.7 --- --- 8.7 NE 0.14 10.4 -12.7 --- --- 721.1 0.017 0.000 8.6 5 1
02/10/06 3:07 a -6.7 -6.7 -6.7 --- --- 9.6 NE 0.16 10.4 -13.2 --- --- 721.1 0.017 0.000 8.6 5 1
02/10/06 3:08 a -6.7 -6.6 -6.7 --- --- 9.6 NE 0.16 10.4 -13.2 --- --- 721.2 0.017 0.000 8.6 5 1
02/10/06 3:09 a -6.8 -6.7 -6.8 --- --- 8.7 NE 0.14 10.4 -13.0 --- --- 721.2 0.017 0.000 8.6 5 1
02/10/06 3:10 a -6.6 -6.6 -6.7 --- --- 7.0 NE 0.12 10.4 -12.0 --- --- 721.1 0.017 0.000 8.6 5 1
02/10/06 3:11 a -6.6 -6.6 -6.6 --- --- 9.6 NE 0.16 11.3 -13.1 --- --- 721.1 0.017 0.000 8.6 4 1
02/10/06 3:12 a -6.6 -6.6 -6.6 --- --- 9.6 NE 0.16 11.3 -13.1 --- --- 721.2 0.017 0.000 8.6 5 1
02/10/06 3:13 a -6.7 -6.6 -6.8 --- --- 9.6 NE 0.16 10.4 -13.2 --- --- 721.1 0.017 0.000 8.6 5 1
02/10/06 3:14 a -6.8 -6.8 -6.8 --- --- 7.8 NE 0.13 9.6 -12.6 --- --- 721.1 0.017 0.000 8.7 5 1
02/10/06 3:15 a -6.7 -6.7 -6.8 --- --- 9.6 NE 0.16 10.4 -13.3 --- --- 721.1 0.017 0.000 8.7 5 1
02/10/06 3:16 a -6.8 -6.7 -6.8 --- --- 8.7 NE 0.14 9.6 -13.0 --- --- 721.1 0.017 0.000 8.7 5 1
02/10/06 3:17 a -6.8 -6.7 -6.8 --- --- 8.7 NE 0.14 9.6 -13.0 --- --- 721.0 0.017 0.000 8.7 5 1
02/10/06 3:18 a -6.6 -6.6 -6.7 --- --- 9.6 NE 0.16 10.4 -13.1 --- --- 721.0 0.017 0.000 8.7 5 1
02/10/06 3:19 a -6.8 -6.7 -6.8 --- --- 8.7 NE 0.14 9.6 -13.0 --- --- 721.0 0.017 0.000 8.7 5 1
02/10/06 3:20 a -6.8 -6.8 -6.8 --- --- 8.7 NE 0.14 10.4 -13.0 --- --- 721.0 0.017 0.000 8.7 5 1
02/10/06 3:21 a -6.8 -6.8 -6.8 --- --- 9.6 NE 0.16 10.4 -13.4 --- --- 720.9 0.017 0.000 8.7 5 1
02/10/06 3:22 a -6.8 -6.7 -6.8 --- --- 9.6 NE 0.16 10.4 -13.3 --- --- 721.0 0.017 0.000 8.7 5 1
02/10/06 3:23 a -6.7 -6.7 -6.7 --- --- 7.8 NE 0.13 8.7 -12.6 --- --- 720.9 0.017 0.000 8.7 5 1
02/10/06 3:24 a -6.4 -6.3 -6.6 --- --- 7.8 NE 0.13 8.7 -12.2 --- --- 721.0 0.017 0.000 8.7 5 1
02/10/06 3:25 a -6.2 -6.0 -6.3 --- --- 7.8 NE 0.13 8.7 -11.9 --- --- 720.9 0.017 0.000 8.7 5 1
02/10/06 3:26 a -5.8 -5.7 -5.9 --- --- 7.0 NE 0.12 7.8 -11.1 --- --- 721.0 0.017 0.000 8.7 5 1
02/10/06 3:27 a -5.6 -5.4 -5.6 --- --- 7.0 NE 0.12 7.8 -10.7 --- --- 721.0 0.017 0.000 8.8 5 1
02/10/06 3:28 a -5.3 -5.2 -5.4 --- --- 7.0 NE 0.12 7.8 -10.4 --- --- 721.0 0.016 0.000 8.8 4 1
02/10/06 3:29 a -5.1 -5.1 -5.1 --- --- 7.8 NE 0.13 8.7 -10.6 --- --- 721.0 0.016 0.000 8.8 5 1
02/10/06 3:30 a -5.1 -5.1 -5.2 --- --- 7.8 NE 0.13 9.6 -10.6 --- --- 721.0 0.016 0.000 8.8 5 1
02/10/06 3:31 a -5.2 -5.2 -5.3 --- --- 7.8 NE 0.13 9.6 -10.7 --- --- 721.0 0.016 0.000 8.8 5 1
02/10/06 3:32 a -5.2 -5.2 -5.3 --- --- 7.8 NE 0.13 9.6 -10.7 --- --- 721.0 0.016 0.000 8.8 4 1
02/10/06 3:33 a -5.3 -5.2 -5.3 --- --- 8.7 NE 0.14 9.6 -11.1 --- --- 720.9 0.016 0.000 8.8 5 1
02/10/06 3:34 a -5.3 -5.3 -5.3 --- --- 8.7 NE 0.14 9.6 -11.2 --- --- 720.9 0.016 0.000 8.8 4 1
02/10/06 3:35 a -5.4 -5.3 -5.4 --- --- 7.8 NE 0.13 8.7 -10.9 --- --- 721.0 0.016 0.000 8.8 4 1
02/10/06 3:36 a -5.3 -5.3 -5.4 --- --- 7.8 NE 0.13 8.7 -10.8 --- --- 721.0 0.016 0.000 8.8 5 1
02/10/06 3:37 a -5.3 -5.3 -5.4 --- --- 8.7 NE 0.14 9.6 -11.2 --- --- 720.9 0.016 0.000 8.8 5 1
02/10/06 3:38 a -5.4 -5.3 -5.4 --- --- 7.8 NE 0.13 8.7 -10.9 --- --- 720.9 0.016 0.000 8.8 5 1
02/10/06 3:39 a -5.3 -5.3 -5.3 --- --- 7.8 NE 0.13 8.7 -10.8 --- --- 720.9 0.016 0.000 8.9 5 1
02/10/06 3:40 a -5.3 -5.3 -5.3 --- --- 7.8 NE 0.13 8.7 -10.8 --- --- 720.9 0.016 0.000 8.9 5 1
02/10/06 3:41 a -5.2 -5.1 -5.2 --- --- 7.0 NE 0.12 7.8 -10.3 --- --- 721.0 0.016 0.000 8.9 5 1
02/10/06 3:42 a -5.0 -5.0 -5.0 --- --- 7.0 NE 0.12 7.8 -10.1 --- --- 720.9 0.016 0.000 8.9 5 1
02/10/06 3:43 a -4.9 -4.8 -4.9 --- --- 6.1 NE 0.10 7.0 -9.6 --- --- 720.9 0.016 0.000 8.9 5 1
02/10/06 3:44 a -4.7 -4.5 -4.8 --- --- 6.1 NE 0.10 6.1 -9.2 --- --- 720.9 0.016 0.000 8.9 5 1
02/10/06 3:45 a -4.4 -4.2 -4.4 --- --- 5.2 NE 0.09 6.1 -8.4 --- --- 720.8 0.016 0.000 8.9 4 1
02/10/06 3:46 a -4.1 -3.9 -4.2 --- --- 5.2 NE 0.09 6.1 -8.1 --- --- 721.0 0.016 0.000 8.9 5 1
02/10/06 3:47 a -3.8 -3.6 -3.8 --- --- 5.2 NE 0.09 6.1 -7.7 --- --- 720.9 0.015 0.000 8.9 5 1
02/10/06 3:48 a -3.5 -3.4 -3.6 --- --- 5.2 NE 0.09 6.1 -7.4 --- --- 720.9 0.015 0.000 8.9 5 1
02/10/06 3:49 a -3.4 -3.4 -3.4 --- --- 5.2 NE 0.09 6.1 -7.2 --- --- 720.9 0.015 0.000 8.9 5 1
02/10/06 3:50 a -3.4 -3.3 -3.4 --- --- 5.2 NE 0.09 6.1 -7.3 --- --- 720.9 0.015 0.000 9.0 4 1
02/10/06 3:51 a -3.3 -3.2 -3.3 --- --- 5.2 NE 0.09 6.1 -7.1 --- --- 720.9 0.015 0.000 9.0 5 1
02/10/06 3:52 a -3.1 -3.0 -3.2 --- --- 4.3 NE 0.07 5.2 -6.4 --- --- 720.9 0.015 0.000 9.0 5 1
02/10/06 3:53 a -2.8 -2.8 -2.9 --- --- 4.3 NE 0.07 4.3 -6.1 --- --- 720.9 0.015 0.000 9.0 5 1
02/10/06 3:54 a -2.7 -2.7 -2.8 --- --- 3.5 NE 0.06 4.3 -5.3 --- --- 720.9 0.015 0.000 9.0 4 1
02/10/06 3:55 a -2.6 -2.6 -2.7 --- --- 3.5 NE 0.06 5.2 -5.2 --- --- 720.9 0.015 0.000 9.0 4 1
02/10/06 3:56 a -2.5 -2.5 -2.5 --- --- 3.5 NE 0.06 4.3 -5.1 --- --- 720.8 0.014 0.000 9.0 4 1
02/10/06 3:57 a -2.4 -2.3 -2.4 --- --- 3.5 NE 0.06 4.3 -4.9 --- --- 720.8 0.014 0.000 9.1 5 1
02/10/06 3:58 a -2.2 -2.2 -2.3 --- --- 3.5 ENE 0.06 4.3 -4.7 --- --- 720.8 0.014 0.000 9.1 4 1
02/10/06 3:59 a -2.1 -1.9 -2.1 --- --- 3.5 ENE 0.06 4.3 -4.6 --- --- 720.8 0.014 0.000 9.1 4 1
02/10/06 4:00 a -1.9 -1.8 -1.9 --- --- 3.5 ENE 0.06 4.3 -4.4 --- --- 720.8 0.014 0.000 9.1 5 1
02/10/06 4:01 a -1.7 -1.6 -1.8 --- --- 2.6 ENE 0.04 3.5 -3.4 --- --- 720.8 0.014 0.000 9.1 5 1
02/10/06 4:02 a -1.5 -1.4 -1.6 --- --- 2.6 ENE 0.04 3.5 -3.2 --- --- 720.8 0.014 0.000 9.1 5 1
02/10/06 4:03 a -1.4 -1.4 -1.4 --- --- 2.6 ENE 0.04 3.5 -3.1 --- --- 720.8 0.014 0.000 9.1 4 1
02/10/06 4:04 a -1.3 -1.2 -1.3 --- --- 2.6 ENE 0.04 3.5 -2.9 --- --- 720.8 0.014 0.000 9.1 5 1
02/10/06 4:05 a -1.1 -1.1 -1.2 --- --- 2.6 ENE 0.04 3.5 -2.7 --- --- 720.8 0.014 0.000 9.1 4 1
02/10/06 4:06 a -1.1 -1.1 -1.1 --- --- 2.6 ENE 0.04 3.5 -2.7 --- --- 720.8 0.013 0.000 9.1 4 1
02/10/06 4:07 a -1.1 -1.1 -1.1 --- --- 2.6 ENE 0.04 4.3 -2.7 --- --- 720.8 0.013 0.000 9.2 4 1
02/10/06 4:08 a -1.0 -0.9 -1.1 --- --- 3.5 ENE 0.06 4.3 -3.3 --- --- 720.8 0.013 0.000 9.2 5 1
02/10/06 4:09 a -0.8 -0.8 -0.9 --- --- 3.5 ENE 0.06 3.5 -3.2 --- --- 720.8 0.013 0.000 9.2 4 1
02/10/06 4:10 a -0.8 -0.8 -0.8 --- --- 2.6 ENE 0.04 3.5 -2.4 --- --- 720.9 0.013 0.000 9.2 5 1
02/10/06 4:11 a -0.8 -0.8 -0.9 --- --- 2.6 ENE 0.04 3.5 -2.4 --- --- 720.8 0.013 0.000 9.2 4 1
02/10/06 4:12 a -0.8 -0.7 -0.8 --- --- 1.7 ENE 0.03 3.5 -1.4 --- --- 720.9 0.013 0.000 9.2 5 1
02/10/06 4:13 a -0.9 -0.7 -1.1 --- --- 0.9 ENE 0.01 1.7 -0.9 --- --- 720.8 0.013 0.000 9.2 4 1
02/10/06 4:14 a -0.9 -0.6 -1.1 --- --- 1.7 ENE 0.03 2.6 -1.6 --- --- 720.8 0.013 0.000 9.2 5 1
02/10/06 4:15 a -0.6 -0.6 -1.0 --- --- 0.9 ENE 0.01 1.7 -0.6 --- --- 720.8 0.013 0.000 9.2 5 1
02/10/06 4:16 a -1.3 -1.2 -1.6 --- --- 0.9 ENE 0.01 2.6 -1.3 --- --- 720.8 0.014 0.000 9.3 5 1
02/10/06 4:17 a -2.6 -1.9 -3.1 --- --- 0.9 ENE 0.01 2.6 -2.6 --- --- 720.7 0.015 0.000 9.3 4 1
02/10/06 4:18 a -3.1 -2.9 -3.2 --- --- 0.9 ENE 0.01 1.7 -3.1 --- --- 720.8 0.015 0.000 9.3 5 1
02/10/06 4:19 a -2.8 -2.6 -2.8 --- --- 1.7 NE 0.03 2.6 -3.6 --- --- 720.8 0.015 0.000 9.3 5 1
02/10/06 4:20 a -2.6 -2.5 -2.6 --- --- 2.6 NE 0.04 3.5 -4.4 --- --- 720.8 0.015 0.000 9.3 4 1
02/10/06 4:21 a -2.6 -2.5 -2.7 --- --- 1.7 NE 0.03 2.6 -3.4 --- --- 720.7 0.015 0.000 9.3 5 1
02/10/06 4:22 a -2.6 -2.6 -2.7 --- --- 0.9 NE 0.01 1.7 -2.6 --- --- 720.8 0.015 0.000 9.3 5 1
02/10/06 4:23 a -2.8 -2.6 -3.1 --- --- 0.9 NE 0.01 1.7 -2.8 --- --- 720.7 0.015 0.000 9.3 5 1
02/10/06 4:24 a -3.3 -3.2 -3.4 --- --- 0.0 NE 0.00 0.9 -3.3 --- --- 720.7 0.015 0.000 9.3 5 1
02/10/06 4:25 a -3.3 -3.3 -3.3 --- --- 0.0 --- 0.00 0.0 -3.3 --- --- 720.7 0.015 0.000 9.4 5 1
02/10/06 4:26 a -3.2 -3.0 -3.2 --- --- 0.0 NE 0.00 0.9 -3.2 --- --- 720.6 0.015 0.000 9.4 5 1
02/10/06 4:27 a -3.0 -2.8 -3.2 --- --- 0.9 NE 0.01 1.7 -3.0 --- --- 720.8 0.015 0.000 9.4 4 1
02/10/06 4:28 a -3.1 -2.9 -3.2 --- --- 0.0 NE 0.00 0.9 -3.1 --- --- 720.7 0.015 0.000 9.4 5 1
02/10/06 4:29 a -2.9 -2.9 -3.0 --- --- 0.0 --- 0.00 0.9 -2.9 --- --- 720.7 0.015 0.000 9.4 5 1
02/10/06 4:30 a -3.1 -2.9 -3.1 --- --- 0.0 NE 0.00 0.9 -3.1 --- --- 720.7 0.015 0.000 9.4 5 1
02/10/06 4:31 a -2.9 -2.8 -3.0 --- --- 0.0 NE 0.00 0.9 -2.9 --- --- 720.7 0.015 0.000 9.4 4 1
02/10/06 4:32 a -2.8 -2.8 -2.9 --- --- 0.0 --- 0.00 0.9 -2.8 --- --- 720.6 0.015 0.000 9.4 5 1
02/10/06 4:33 a -2.6 -2.2 -2.8 --- --- 0.0 --- 0.00 0.0 -2.6 --- --- 720.8 0.015 0.000 9.4 5 1
02/10/06 4:34 a -2.0 -1.8 -2.1 --- --- 0.0 NE 0.00 0.9 -2.0 --- --- 720.7 0.014 0.000 9.4 5 1
02/10/06 4:35 a -1.6 -1.4 -1.7 --- --- 0.9 NE 0.01 2.6 -1.6 --- --- 720.6 0.014 0.000 9.4 5 1
02/10/06 4:36 a -1.7 -1.6 -1.9 --- --- 0.9 NE 0.01 2.6 -1.7 --- --- 720.6 0.014 0.000 9.5 5 1
02/10/06 4:37 a -2.1 -2.1 -2.2 --- --- 0.0 --- 0.00 0.0 -2.1 --- --- 720.7 0.014 0.000 9.5 5 1
02/10/06 4:38 a -1.9 -1.9 -1.9 --- --- 0.0 NE 0.00 0.9 -1.9 --- --- 720.7 0.014 0.000 9.5 5 1
02/10/06 4:39 a -2.1 -1.9 -2.2 --- --- 0.0 NE 0.00 0.9 -2.1 --- --- 720.7 0.014 0.000 9.5 5 1
02/10/06 4:40 a -2.1 -2.0 -2.4 --- --- 1.7 NE 0.03 2.6 -2.9 --- --- 720.7 0.014 0.000 9.5 5 1
02/10/06 4:41 a -2.4 -2.4 -2.5 --- --- 0.9 NE 0.01 1.7 -2.4 --- --- 720.7 0.014 0.000 9.5 5 1
02/10/06 4:42 a -2.4 -2.4 -2.4 --- --- 0.9 NE 0.01 1.7 -2.4 --- --- 720.7 0.014 0.000 9.6 4 1
02/10/06 4:43 a -2.4 -2.4 -2.5 --- --- 0.0 NE 0.00 0.9 -2.4 --- --- 720.7 0.014 0.000 9.6 5 1
02/10/06 4:44 a -2.3 -2.0 -2.5 --- --- 0.0 NE 0.00 0.9 -2.3 --- --- 720.7 0.014 0.000 9.6 5 1
02/10/06 4:45 a -1.9 -1.8 -1.9 --- --- 0.9 NE 0.01 2.6 -1.9 --- --- 720.7 0.014 0.000 9.6 5 1
02/10/06 4:46 a -2.2 -2.1 -2.4 --- --- 1.7 NE 0.03 2.6 -2.9 --- --- 720.7 0.014 0.000 9.6 5 1
02/10/06 4:47 a -2.6 -2.4 -2.8 --- --- 2.6 NE 0.04 3.5 -4.4 --- --- 720.7 0.015 0.000 9.6 5 1
02/10/06 4:48 a -3.0 -2.9 -3.1 --- --- 1.7 NE 0.03 2.6 -3.9 --- --- 720.7 0.015 0.000 9.6 5 1
02/10/06 4:49 a -3.0 -2.9 -3.2 --- --- 0.9 NE 0.01 1.7 -3.0 --- --- 720.6 0.015 0.000 9.6 5 1
02/10/06 4:50 a -3.3 -3.1 -3.4 --- --- 0.9 NE 0.01 2.6 -3.3 --- --- 720.6 0.015 0.000 9.6 5 1
02/10/06 4:51 a -3.4 -3.4 -3.6 --- --- 0.0 NE 0.00 0.9 -3.4 --- --- 720.6 0.015 0.000 9.6 5 1
02/10/06 4:52 a -3.3 -3.1 -3.3 --- --- 0.9 NE 0.01 2.6 -3.3 --- --- 720.7 0.015 0.000 9.6 5 1
02/10/06 4:53 a -2.7 -2.5 -2.9 --- --- 0.9 NE 0.01 2.6 -2.7 --- --- 720.7 0.015 0.000 9.7 5 1
02/10/06 4:54 a -2.7 -2.5 -2.8 --- --- 2.6 NNE 0.04 3.5 -4.5 --- --- 720.6 0.015 0.000 9.7 5 1
02/10/06 4:55 a -2.6 -2.4 -2.7 --- --- 0.0 NNE 0.00 0.9 -2.6 --- --- 720.7 0.015 0.000 9.7 5 1
02/10/06 4:56 a -2.4 -2.4 -2.7 --- --- 0.9 NNE 0.01 2.6 -2.4 --- --- 720.7 0.014 0.000 9.7 5 1
02/10/06 4:57 a -3.0 -2.8 -3.3 --- --- 0.9 NNE 0.01 1.7 -3.0 --- --- 720.6 0.015 0.000 9.7 5 1
02/10/06 4:58 a -3.2 -3.1 -3.3 --- --- 1.7 NNE 0.03 2.6 -4.1 --- --- 720.6 0.015 0.000 9.7 5 1
02/10/06 4:59 a -3.0 -2.8 -3.1 --- --- 1.7 NNE 0.03 2.6 -3.9 --- --- 720.6 0.015 0.000 9.7 4 1
02/10/06 5:00 a -2.8 -2.7 -3.1 --- --- 0.9 NNE 0.01 2.6 -2.8 --- --- 720.5 0.015 0.000 9.7 5 1
02/10/06 5:01 a -3.1 -3.1 -3.1 --- --- 0.0 WNW 0.00 1.7 -3.1 --- --- 720.5 0.015 0.000 9.7 5 1
02/10/06 5:02 a -2.9 -2.8 -3.0 --- --- 0.9 WNW 0.01 2.6 -2.9 --- --- 720.5 0.015 0.000 9.7 5 1
02/10/06 5:03 a -3.3 -3.0 -3.6 --- --- 1.7 WNW 0.03 3.5 -4.2 --- --- 720.6 0.015 0.000 9.8 5 1
02/10/06 5:04 a -3.7 -3.6 -4.1 --- --- 2.6 WNW 0.04 3.5 -5.6 --- --- 720.6 0.015 0.000 9.8 5 1
02/10/06 5:05 a -4.2 -4.2 -4.3 --- --- 0.9 WNW 0.01 1.7 -4.2 --- --- 720.5 0.016 0.000 9.8 5 1
02/10/06 5:06 a -4.1 -3.8 -4.2 --- --- 0.9 WNW 0.01 1.7 -4.1 --- --- 720.6 0.016 0.000 9.8 5 1
02/10/06 5:07 a -3.7 -3.5 -3.8 --- --- 0.0 WNW 0.00 0.9 -3.7 --- --- 720.6 0.015 0.000 9.8 5 1
02/10/06 5:08 a -3.4 -3.4 -3.5 --- --- 0.0 WNW 0.00 0.9 -3.4 --- --- 720.5 0.015 0.000 9.8 5 1
02/10/06 5:09 a -3.2 -2.9 -3.4 --- --- 0.9 WNW 0.01 1.7 -3.2 --- --- 720.5 0.015 0.000 9.8 5 1
02/10/06 5:10 a -2.8 -2.7 -2.9 --- --- 1.7 WNW 0.03 2.6 -3.7 --- --- 720.6 0.015 0.000 9.8 4 1
02/10/06 5:11 a -2.8 -2.8 -3.1 --- --- 2.6 WNW 0.04 3.5 -4.7 --- --- 720.6 0.015 0.000 9.8 5 1
02/10/06 5:12 a -3.3 -3.2 -3.4 --- --- 1.7 WNW 0.03 4.3 -4.2 --- --- 720.5 0.015 0.000 9.9 5 1
02/10/06 5:13 a -3.6 -3.5 -3.7 --- --- 3.5 WNW 0.06 4.3 -6.3 --- --- 720.6 0.015 0.000 9.9 5 1
02/10/06 5:14 a -4.1 -3.9 -4.2 --- --- 1.7 WNW 0.03 2.6 -5.1 --- --- 720.5 0.016 0.000 9.9 5 1
02/10/06 5:15 a -4.2 -4.1 -4.3 --- --- 1.7 WNW 0.03 3.5 -5.2 --- --- 720.6 0.016 0.000 9.9 5 1
02/10/06 5:16 a -4.3 -4.3 -4.3 --- --- 2.6 WNW 0.04 3.5 -6.4 --- --- 720.5 0.016 0.000 9.9 5 1
02/10/06 5:17 a -4.2 -4.2 -4.3 --- --- 3.5 WNW 0.06 5.2 -7.1 --- --- 720.5 0.016 0.000 9.9 5 1
02/10/06 5:18 a -4.4 -4.2 -4.4 --- --- 2.6 NW 0.04 4.3 -6.4 --- --- 720.6 0.016 0.000 9.9 5 1
02/10/06 5:19 a -4.1 -4.0 -4.1 --- --- 2.6 NW 0.04 3.5 -6.1 --- --- 720.6 0.016 0.000 9.9 5 1
02/10/06 5:20 a -4.3 -4.1 -4.5 --- --- 1.7 NW 0.03 3.5 -5.3 --- --- 720.5 0.016 0.000 10.0 5 1
02/10/06 5:21 a -4.6 -4.4 -4.6 --- --- 3.5 NW 0.06 4.3 -7.4 --- --- 720.5 0.016 0.000 10.0 5 1
02/10/06 5:22 a -4.8 -4.7 -5.0 --- --- 2.6 NW 0.04 3.5 -6.9 --- --- 720.5 0.016 0.000 10.0 5 1
02/10/06 5:23 a -4.9 -4.9 -5.0 --- --- 2.6 NW 0.04 3.5 -7.1 --- --- 720.5 0.016 0.000 10.0 5 1
02/10/06 5:24 a -4.8 -4.7 -4.9 --- --- 2.6 NW 0.04 4.3 -6.9 --- --- 720.5 0.016 0.000 10.0 5 1
02/10/06 5:25 a -4.7 -4.7 -4.8 --- --- 3.5 WNW 0.06 4.3 -7.6 --- --- 720.6 0.016 0.000 10.0 5 1
02/10/06 5:26 a -4.7 -4.7 -4.8 --- --- 3.5 WNW 0.06 5.2 -7.6 --- --- 720.5 0.016 0.000 10.0 5 1
02/10/06 5:27 a -4.9 -4.9 -4.9 --- --- 2.6 WNW 0.04 4.3 -7.1 --- --- 720.5 0.016 0.000 10.0 5 1
02/10/06 5:28 a -4.9 -4.8 -4.9 --- --- 1.7 WNW 0.03 3.5 -5.9 --- --- 720.5 0.016 0.000 10.1 5 1
02/10/06 5:29 a -4.8 -4.7 -4.8 --- --- 2.6 WNW 0.04 4.3 -6.9 --- --- 720.4 0.016 0.000 10.1 5 1
02/10/06 5:30 a -4.7 -4.7 -4.8 --- --- 2.6 WNW 0.04 3.5 -6.8 --- --- 720.5 0.016 0.000 10.1 5 1
02/10/06 5:31 a -4.9 -4.9 -4.9 --- --- 1.7 WNW 0.03 2.6 -5.9 --- --- 720.4 0.016 0.000 10.1 5 1
02/10/06 5:32 a -4.9 -4.9 -4.9 --- --- 1.7 WNW 0.03 2.6 -5.9 --- --- 720.4 0.016 0.000 10.1 5 1
02/10/06 5:33 a -4.8 -4.5 -4.9 --- --- 1.7 WNW 0.03 3.5 -5.8 --- --- 720.5 0.016 0.000 10.1 5 1
02/10/06 5:34 a -4.4 -4.1 -4.4 --- --- 0.9 WNW 0.01 1.7 -4.4 --- --- 720.4 0.016 0.000 10.1 5 1
02/10/06 5:35 a -4.0 -3.9 -4.1 --- --- 0.9 WNW 0.01 1.7 -4.0 --- --- 720.5 0.016 0.000 10.1 5 1
02/10/06 5:36 a -3.8 -3.8 -3.9 --- --- 1.7 WNW 0.03 2.6 -4.8 --- --- 720.4 0.015 0.000 10.1 5 1
02/10/06 5:37 a -3.8 -3.7 -3.8 --- --- 1.7 WNW 0.03 2.6 -4.7 --- --- 720.6 0.015 0.000 10.1 5 1
02/10/06 5:38 a -3.8 -3.7 -3.8 --- --- 0.9 WNW 0.01 1.7 -3.8 --- --- 720.5 0.015 0.000 10.1 5 1
02/10/06 5:39 a -3.6 -3.5 -3.7 --- --- 0.9 WNW 0.01 2.6 -3.6 --- --- 720.5 0.015 0.000 10.1 5 1
02/10/06 5:40 a -3.4 -3.2 -3.4 --- --- 0.0 WNW 0.00 0.9 -3.4 --- --- 720.5 0.015 0.000 10.2 5 1
02/10/06 5:41 a -3.3 -3.2 -3.6 --- --- 1.7 WNW 0.03 3.5 -4.2 --- --- 720.5 0.015 0.000 10.2 5 1
02/10/06 5:42 a -3.7 -3.6 -3.8 --- --- 0.9 WNW 0.01 1.7 -3.7 --- --- 720.5 0.015 0.000 10.2 5 1
02/10/06 5:43 a -3.6 -3.6 -3.7 --- --- 1.7 WNW 0.03 2.6 -4.6 --- --- 720.5 0.015 0.000 10.2 5 1
02/10/06 5:44 a -3.8 -3.6 -4.2 --- --- 3.5 WNW 0.06 4.3 -6.6 --- --- 720.4 0.015 0.000 10.2 5 1
02/10/06 5:45 a -4.5 -4.3 -4.7 --- --- 1.7 WNW 0.03 2.6 -5.5 --- --- 720.5 0.016 0.000 10.2 5 1
02/10/06 5:46 a -4.6 -4.3 -4.7 --- --- 1.7 WNW 0.03 3.5 -5.7 --- --- 720.5 0.016 0.000 10.2 5 1
02/10/06 5:47 a -4.2 -4.1 -4.2 --- --- 1.7 WNW 0.03 2.6 -5.2 --- --- 720.4 0.016 0.000 10.2 5 1
02/10/06 5:48 a -4.0 -3.9 -4.0 --- --- 2.6 WNW 0.04 2.6 -6.0 --- --- 720.5 0.016 0.000 10.2 5 1
02/10/06 5:49 a -4.2 -4.0 -4.3 --- --- 2.6 WNW 0.04 3.5 -6.2 --- --- 720.5 0.016 0.000 10.2 5 1
02/10/06 5:50 a -4.3 -4.3 -4.6 --- --- 2.6 WNW 0.04 3.5 -6.4 --- --- 720.5 0.016 0.000 10.2 5 1
02/10/06 5:51 a -4.7 -4.6 -4.8 --- --- 3.5 WNW 0.06 4.3 -7.6 --- --- 720.5 0.016 0.000 10.2 5 1
02/10/06 5:52 a -4.7 -4.7 -4.8 --- --- 2.6 WNW 0.04 4.3 -6.8 --- --- 720.5 0.016 0.000 10.3 5 1
02/10/06 5:53 a -4.8 -4.8 -4.8 --- --- 2.6 WNW 0.04 3.5 -6.9 --- --- 720.5 0.016 0.000 10.3 5 1
02/10/06 5:54 a -4.7 -4.7 -4.8 --- --- 2.6 WNW 0.04 3.5 -6.8 --- --- 720.5 0.016 0.000 10.3 5 1
02/10/06 5:55 a -4.7 -4.6 -4.7 --- --- 1.7 WNW 0.03 2.6 -5.7 --- --- 720.5 0.016 0.000 10.3 5 1
02/10/06 5:56 a -4.8 -4.8 -4.9 --- --- 1.7 WNW 0.03 3.5 -5.9 --- --- 720.5 0.016 0.000 10.3 5 1
02/10/06 5:57 a -5.0 -4.9 -5.1 --- --- 1.7 WNW 0.03 2.6 -6.1 --- --- 720.5 0.016 0.000 10.3 5 1
02/10/06 5:58 a -5.2 -5.1 -5.3 --- --- 2.6 WNW 0.04 3.5 -7.3 --- --- 720.6 0.016 0.000 10.3 5 1
02/10/06 5:59 a -5.2 -5.0 -5.3 --- --- 0.9 WNW 0.01 1.7 -5.2 --- --- 720.5 0.016 0.000 10.3 5 1
02/10/06 6:00 a -4.9 -4.9 -5.0 --- --- 0.9 WNW 0.01 1.7 -4.9 --- --- 720.6 0.016 0.000 10.4 5 1
02/10/06 6:01 a -4.7 -4.6 -4.8 --- --- 0.0 WNW 0.00 0.9 -4.7 --- --- 720.6 0.016 0.000 10.4 5 1
02/10/06 6:02 a -4.4 -4.2 -4.6 --- --- 0.9 WNW 0.01 2.6 -4.4 --- --- 720.5 0.016 0.000 10.5 5 1
02/10/06 6:03 a -4.2 -4.2 -4.3 --- --- 0.9 WNW 0.01 2.6 -4.2 --- --- 720.6 0.016 0.000 10.5 5 1
02/10/06 6:04 a -4.2 -4.0 -4.2 --- --- 0.9 WNW 0.01 2.6 -4.2 --- --- 720.6 0.016 0.000 10.6 5 1
02/10/06 6:05 a -3.8 -3.6 -3.9 --- --- 0.9 WNW 0.01 2.6 -3.8 --- --- 720.6 0.015 0.000 10.6 5 1
02/10/06 6:06 a -3.3 -3.3 -3.4 --- --- 1.7 WNW 0.03 3.5 -4.2 --- --- 720.5 0.015 0.000 10.6 5 1
02/10/06 6:07 a -3.7 -3.6 -3.8 --- --- 1.7 WNW 0.03 3.5 -4.7 --- --- 720.6 0.015 0.000 10.6 5 1
02/10/06 6:08 a -4.2 -4.0 -4.4 --- --- 1.7 WNW 0.03 2.6 -5.2 --- --- 720.5 0.016 0.000 10.6 5 1
02/10/06 6:09 a -4.6 -4.5 -4.9 --- --- 1.7 WNW 0.03 3.5 -5.7 --- --- 720.5 0.016 0.000 10.6 5 1
02/10/06 6:10 a -5.2 -5.0 -5.4 --- --- 2.6 W 0.04 3.5 -7.3 --- --- 720.6 0.016 0.000 10.6 5 1
02/10/06 6:11 a -5.6 -5.6 -5.8 --- --- 3.5 W 0.06 4.3 -8.7 --- --- 720.5 0.017 0.000 10.6 5 1
02/10/06 6:12 a -5.8 -5.8 -5.9 --- --- 1.7 WSW 0.03 3.5 -7.0 --- --- 720.5 0.017 0.000 10.6 5 1
02/10/06 6:13 a -5.4 -5.1 -5.7 --- --- 0.0 WSW 0.00 1.7 -5.4 --- --- 720.5 0.017 0.000 10.7 5 1
02/10/06 6:14 a -4.8 -4.7 -4.9 --- --- 1.7 WSW 0.03 3.5 -5.9 --- --- 720.5 0.016 0.000 10.7 5 1
02/10/06 6:15 a -4.8 -4.8 -4.9 --- --- 2.6 WSW 0.04 3.5 -6.9 --- --- 720.5 0.016 0.000 10.7 5 1
02/10/06 6:16 a -4.9 -4.8 -5.1 --- --- 1.7 WSW 0.03 2.6 -5.9 --- --- 720.5 0.016 0.000 10.7 5 1
02/10/06 6:17 a -5.2 -5.1 -5.3 --- --- 2.6 WSW 0.04 3.5 -7.3 --- --- 720.5 0.016 0.000 10.7 5 1
02/10/06 6:18 a -5.2 -5.1 -5.4 --- --- 0.9 WSW 0.01 2.6 -5.2 --- --- 720.4 0.016 0.000 10.7 5 1
02/10/06 6:19 a -5.1 -5.1 -5.2 --- --- 1.7 WSW 0.03 3.5 -6.2 --- --- 720.4 0.016 0.000 10.7 5 1
02/10/06 6:20 a -5.2 -5.2 -5.3 --- --- 0.9 WSW 0.01 2.6 -5.2 --- --- 720.4 0.016 0.000 10.7 4 1
02/10/06 6:21 a -5.1 -5.0 -5.1 --- --- 1.7 WSW 0.03 3.5 -6.1 --- --- 720.5 0.016 0.000 10.7 4 1
02/10/06 6:22 a -5.2 -5.1 -5.2 --- --- 0.9 WSW 0.01 2.6 -5.2 --- --- 720.4 0.016 0.000 10.7 4 1
02/10/06 6:23 a -5.0 -4.8 -5.2 --- --- 0.9 WSW 0.01 2.6 -5.0 --- --- 720.4 0.016 0.000 10.7 4 1
02/10/06 6:24 a -4.4 -4.1 -4.7 --- --- 2.6 SW 0.04 4.3 -6.5 --- --- 720.4 0.016 0.000 10.7 4 1
02/10/06 6:25 a -3.9 -3.7 -3.9 --- --- 3.5 SSW 0.06 4.3 -6.7 --- --- 720.4 0.015 0.000 10.7 4 1
02/10/06 6:26 a -3.6 -3.4 -3.7 --- --- 2.6 SSW 0.04 4.3 -5.6 --- --- 720.4 0.015 0.000 10.8 4 1
02/10/06 6:27 a -3.2 -2.9 -3.2 --- --- 2.6 SSW 0.04 3.5 -5.1 --- --- 720.4 0.015 0.000 10.8 4 1
02/10/06 6:28 a -2.6 -2.2 -2.8 --- --- 2.6 SSW 0.04 3.5 -4.4 --- --- 720.4 0.015 0.000 10.7 4 1
02/10/06 6:29 a -2.2 -2.1 -2.2 --- --- 1.7 SSW 0.03 2.6 -2.9 --- --- 720.4 0.014 0.000 10.8 4 1
02/10/06 6:30 a -1.9 -1.7 -2.0 --- --- 1.7 SSW 0.03 2.6 -2.7 --- --- 720.4 0.014 0.000 10.7 4 1
02/10/06 6:31 a -1.7 -1.4 -1.8 --- --- 2.6 SSW 0.04 3.5 -3.4 --- --- 720.4 0.014 0.000 10.7 4 1
02/10/06 6:32 a -1.3 -1.1 -1.3 --- --- 2.6 SSW 0.04 3.5 -2.9 --- --- 720.4 0.014 0.000 10.7 4 1
02/10/06 6:33 a -1.2 -1.2 -1.3 --- --- 2.6 SSW 0.04 3.5 -2.8 --- --- 720.4 0.014 0.000 10.7 4 1
02/10/06 6:34 a -1.5 -1.5 -1.7 --- --- 2.6 SSW 0.04 3.5 -3.2 --- --- 720.3 0.014 0.000 10.7 4 1
02/10/06 6:35 a -1.7 -1.6 -1.7 --- --- 1.7 SSW 0.03 2.6 -2.4 --- --- 720.4 0.014 0.000 10.7 4 1
02/10/06 6:36 a -1.6 -1.4 -1.6 --- --- 1.7 SSW 0.03 2.6 -2.3 --- --- 720.4 0.014 0.000 10.7 4 1
02/10/06 6:37 a -2.3 -1.9 -2.6 --- --- 1.7 SSW 0.03 3.5 -3.1 --- --- 720.4 0.014 0.000 10.7 4 1
02/10/06 6:38 a -1.9 -1.6 -2.1 --- --- 1.7 SSW 0.03 2.6 -2.7 --- --- 720.4 0.014 0.000 10.7 4 1
02/10/06 6:39 a -1.4 -1.3 -1.6 --- --- 2.6 SSW 0.04 2.6 -3.1 --- --- 720.3 0.014 0.000 10.7 4 1
02/10/06 6:40 a -1.2 -1.1 -1.3 --- --- 1.7 SSW 0.03 2.6 -1.9 --- --- 720.4 0.014 0.000 10.7 4 1
02/10/06 6:41 a -0.8 -0.7 -0.9 --- --- 2.6 SSE 0.04 3.5 -2.4 --- --- 720.4 0.013 0.000 10.7 4 1
02/10/06 6:42 a -0.6 -0.4 -0.6 --- --- 2.6 SSE 0.04 3.5 -2.1 --- --- 720.3 0.013 0.000 10.7 4 1
02/10/06 6:43 a -0.2 -0.2 -0.3 --- --- 1.7 SSE 0.03 3.5 -0.8 --- --- 720.4 0.013 0.000 10.7 4 1
02/10/06 6:44 a 0.0 0.1 -0.1 --- --- 1.7 SSE 0.03 2.6 -0.6 --- --- 720.3 0.013 0.000 10.7 4 1
02/10/06 6:45 a 0.2 0.2 0.1 --- --- 2.6 SSE 0.04 3.5 -1.3 --- --- 720.3 0.013 0.000 10.7 4 1
02/10/06 6:46 a 0.1 0.1 0.1 --- --- 2.6 SSE 0.04 3.5 -1.4 --- --- 720.3 0.013 0.000 10.7 4 1
02/10/06 6:47 a 0.1 0.2 0.1 --- --- 2.6 SSE 0.04 3.5 -1.4 --- --- 720.3 0.013 0.000 10.7 4 1
02/10/06 6:48 a 0.1 0.1 0.1 --- --- 3.5 SSE 0.06 4.3 -2.1 --- --- 720.4 0.013 0.000 10.7 4 1
02/10/06 6:49 a 0.2 0.3 0.1 --- --- 2.6 SSE 0.04 3.5 -1.2 --- --- 720.3 0.013 0.000 10.7 4 1
02/10/06 6:50 a 0.3 0.3 0.3 --- --- 2.6 SSE 0.04 3.5 -1.1 --- --- 720.3 0.013 0.000 10.7 4 1
02/10/06 6:51 a 0.2 0.2 0.2 --- --- 2.6 SSE 0.04 3.5 -1.2 --- --- 720.3 0.013 0.000 10.7 4 1
02/10/06 6:52 a 0.2 0.3 0.2 --- --- 2.6 SSE 0.04 3.5 -1.2 --- --- 720.4 0.013 0.000 10.7 4 1
02/10/06 6:53 a 0.3 0.3 0.3 --- --- 2.6 SSE 0.04 3.5 -1.2 --- --- 720.3 0.013 0.000 10.7 4 1
02/10/06 6:54 a 0.3 0.3 0.1 --- --- 1.7 SE 0.03 2.6 -0.3 --- --- 720.4 0.013 0.000 10.7 4 1
02/10/06 6:55 a 0.1 0.1 0.0 --- --- 1.7 SE 0.03 2.6 -0.5 --- --- 720.3 0.013 0.000 10.7 4 1
02/10/06 6:56 a 0.1 0.1 0.1 --- --- 1.7 SE 0.03 2.6 -0.5 --- --- 720.3 0.013 0.000 10.7 4 1
02/10/06 6:57 a 0.0 0.1 -0.1 --- --- 1.7 SE 0.03 3.5 -0.6 --- --- 720.4 0.013 0.000 10.7 4 1
02/10/06 6:58 a -0.1 -0.1 -0.2 --- --- 1.7 SE 0.03 2.6 -0.7 --- --- 720.2 0.013 0.000 10.7 4 1
02/10/06 6:59 a -0.4 -0.3 -0.6 --- --- 2.6 SE 0.04 4.3 -2.0 --- --- 720.3 0.013 0.000 10.7 4 1
02/10/06 7:00 a -0.7 -0.7 -0.8 --- --- 1.7 SE 0.03 3.5 -1.4 --- --- 720.3 0.013 0.000 10.7 4 1
02/10/06 7:01 a -0.8 -0.8 -0.9 --- --- 2.6 SE 0.04 3.5 -2.4 --- --- 720.3 0.013 0.000 10.7 4 1
02/10/06 7:03 a -0.9 -0.9 -0.9 --- --- 2.6 SE 0.04 3.5 -2.6 --- --- 720.3 0.013 0.000 10.7 4 1
02/10/06 7:04 a -0.9 -0.9 -1.0 --- --- 2.6 SE 0.04 3.5 -2.6 --- --- 720.3 0.013 0.000 10.7 4 1
02/10/06 7:05 a -0.8 -0.8 -0.9 --- --- 1.7 SE 0.03 3.5 -1.5 --- --- 720.2 0.013 0.000 10.7 4 1
02/10/06 7:06 a -0.7 -0.7 -0.7 --- --- 1.7 SE 0.03 2.6 -1.4 --- --- 720.2 0.013 0.000 10.6 4 1
02/10/06 7:07 a -0.6 -0.5 -0.7 --- --- 1.7 SE 0.03 2.6 -1.2 --- --- 720.3 0.013 0.000 10.7 4 1
02/10/06 7:08 a -0.5 -0.4 -0.6 --- --- 1.7 SE 0.03 2.6 -1.1 --- --- 720.3 0.013 0.000 10.7 4 1
02/10/06 7:09 a -0.4 -0.4 -0.5 --- --- 1.7 SE 0.03 2.6 -1.1 --- --- 720.3 0.013 0.000 10.7 4 1
02/10/06 7:10 a -0.4 -0.3 -0.4 --- --- 1.7 SE 0.03 2.6 -1.0 --- --- 720.3 0.013 0.000 10.6 4 1
02/10/06 7:11 a -0.5 -0.4 -0.5 --- --- 1.7 SE 0.03 3.5 -1.1 --- --- 720.3 0.013 0.000 10.6 4 1
02/10/06 7:12 a -0.7 -0.6 -0.7 --- --- 2.6 SE 0.04 4.3 -2.2 --- --- 720.3 0.013 0.000 10.6 4 1
02/10/06 7:13 a -0.9 -0.8 -1.1 --- --- 4.3 E 0.07 5.2 -3.8 --- --- 720.3 0.013 0.000 10.6 4 1
02/10/06 7:14 a -1.3 -1.2 -1.4 --- --- 4.3 E 0.07 5.2 -4.2 --- --- 720.3 0.014 0.000 10.6 4 1
02/10/06 7:15 a -1.8 -1.6 -2.2 --- --- 4.3 E 0.07 5.2 -4.9 --- --- 720.3 0.014 0.000 10.6 4 1
02/10/06 7:16 a -2.4 -2.3 -2.6 --- --- 3.5 E 0.06 4.3 -5.0 --- --- 720.2 0.014 0.000 10.6 4 1
02/10/06 7:17 a -2.5 -2.5 -2.5 --- --- 3.5 E 0.06 4.3 -5.1 --- --- 720.2 0.014 0.000 10.6 4 1
02/10/06 7:18 a -2.5 -2.4 -2.6 --- --- 3.5 E 0.06 4.3 -5.1 --- --- 720.3 0.014 0.000 10.6 4 1
02/10/06 7:19 a -2.6 -2.5 -2.6 --- --- 2.6 E 0.04 4.3 -4.4 --- --- 720.2 0.015 0.000 10.6 4 1
02/10/06 7:20 a -2.6 -2.6 -2.6 --- --- 4.3 E 0.07 6.1 -5.7 --- --- 720.3 0.015 0.000 10.6 4 1
02/10/06 7:21 a -2.6 -2.4 -2.6 --- --- 5.2 SE 0.09 6.1 -6.2 --- --- 720.2 0.015 0.000 10.6 4 1
02/10/06 7:22 a -2.4 -2.3 -2.4 --- --- 5.2 SE 0.09 6.1 -6.1 --- --- 720.2 0.014 0.000 10.6 4 1
02/10/06 7:23 a -2.4 -2.4 -2.5 --- --- 5.2 SE 0.09 6.1 -6.1 --- --- 720.2 0.014 0.000 10.6 4 1
02/10/06 7:24 a -2.5 -2.4 -2.6 --- --- 4.3 SE 0.07 6.1 -5.7 --- --- 720.3 0.014 0.000 10.5 4 1
02/10/06 7:25 a -2.4 -2.4 -2.4 --- --- 5.2 SE 0.09 7.0 -6.1 --- --- 720.3 0.014 0.000 10.5 4 1
02/10/06 7:26 a -2.6 -2.4 -2.7 --- --- 7.0 ESE 0.12 8.7 -7.1 --- --- 720.2 0.015 0.000 10.5 4 1
02/10/06 7:27 a -2.9 -2.8 -3.1 --- --- 6.1 E 0.10 7.8 -7.2 --- --- 720.2 0.015 0.000 10.5 4 1
02/10/06 7:28 a -3.1 -3.1 -3.2 --- --- 6.1 E 0.10 7.8 -7.4 --- --- 720.2 0.015 0.000 10.4 4 1
02/10/06 7:29 a -3.2 -3.2 -3.3 --- --- 6.1 ESE 0.10 7.8 -7.5 --- --- 720.2 0.015 0.000 10.4 4 1
02/10/06 7:30 a -3.4 -3.3 -3.5 --- --- 7.0 E 0.12 8.7 -8.2 --- --- 720.2 0.015 0.000 10.4 4 1
02/10/06 7:31 a -3.6 -3.5 -3.7 --- --- 7.0 E 0.12 7.8 -8.3 --- --- 720.1 0.015 0.000 10.4 4 1
02/10/06 7:32 a -3.7 -3.6 -3.7 --- --- 6.1 E 0.10 7.8 -8.1 --- --- 720.2 0.015 0.000 10.4 4 1
02/10/06 7:33 a -3.8 -3.7 -4.0 --- --- 5.2 E 0.09 7.8 -7.7 --- --- 720.1 0.015 0.000 10.4 4 1
02/10/06 7:34 a -4.1 -4.0 -4.2 --- --- 6.1 ESE 0.10 7.8 -8.5 --- --- 720.1 0.016 0.000 10.4 4 1
02/10/06 7:35 a -4.4 -4.3 -4.5 --- --- 6.1 ESE 0.10 7.0 -8.9 --- --- 720.1 0.016 0.000 10.4 4 1
02/10/06 7:36 a -4.6 -4.6 -4.7 --- --- 6.1 E 0.10 7.0 -9.2 --- --- 720.2 0.016 0.000 10.4 4 1
02/10/06 7:37 a -4.8 -4.7 -4.8 --- --- 6.1 E 0.10 7.8 -9.4 --- --- 720.2 0.016 0.000 10.3 4 1
02/10/06 7:38 a -4.9 -4.8 -4.9 --- --- 7.0 E 0.12 7.8 -9.9 --- --- 720.1 0.016 0.000 10.3 4 1
02/10/06 7:39 a -5.1 -4.9 -5.2 --- --- 5.2 E 0.09 7.8 -9.2 --- --- 720.2 0.016 0.000 10.3 4 1
02/10/06 7:40 a -5.2 -5.1 -5.2 --- --- 6.1 E 0.10 7.8 -9.8 --- --- 720.1 0.016 0.000 10.3 4 1
02/10/06 7:41 a -5.3 -5.2 -5.6 --- --- 5.2 E 0.09 8.7 -9.6 --- --- 720.1 0.016 0.000 10.3 4 1
02/10/06 7:42 a -5.7 -5.6 -5.8 --- --- 6.1 E 0.10 8.7 -10.5 --- --- 720.1 0.017 0.000 10.3 4 1
02/10/06 7:43 a -5.8 -5.8 -5.8 --- --- 5.2 E 0.09 7.8 -10.1 --- --- 720.1 0.017 0.000 10.2 4 1
02/10/06 7:44 a -5.9 -5.8 -6.0 --- --- 6.1 E 0.10 7.8 -10.7 --- --- 720.1 0.017 0.000 10.2 4 1
02/10/06 7:45 a -6.1 -6.1 -6.1 --- --- 5.2 E 0.09 7.8 -10.4 --- --- 720.1 0.017 0.000 10.2 4 1
02/10/06 7:46 a -6.2 -6.1 -6.2 --- --- 7.0 E 0.12 8.7 -11.5 --- --- 720.1 0.017 0.000 10.2 4 1
02/10/06 7:47 a -6.3 -6.2 -6.4 --- --- 6.1 E 0.10 8.7 -11.2 --- --- 720.0 0.017 0.000 10.2 4 1
02/10/06 7:48 a -6.6 -6.5 -6.6 --- --- 7.0 E 0.12 8.7 -11.9 --- --- 720.1 0.017 0.000 10.2 4 1
02/10/06 7:49 a -6.7 -6.6 -6.8 --- --- 6.1 E 0.10 8.7 -11.7 --- --- 720.1 0.017 0.000 10.1 4 1
02/10/06 7:50 a -6.8 -6.8 -6.8 --- --- 7.8 E 0.13 10.4 -12.6 --- --- 720.1 0.017 0.000 10.1 4 1
02/10/06 7:51 a -6.8 -6.8 -6.9 --- --- 6.1 ENE 0.10 7.8 -11.8 --- --- 720.1 0.017 0.000 10.1 4 1
02/10/06 7:52 a -6.9 -6.9 -7.0 --- --- 6.1 E 0.10 8.7 -12.0 --- --- 720.1 0.018 0.000 10.1 4 1
02/10/06 7:53 a -7.1 -7.1 -7.2 --- --- 8.7 E 0.14 10.4 -13.4 --- --- 720.1 0.018 0.000 10.1 4 1
02/10/06 7:54 a -7.2 -7.2 -7.3 --- --- 7.8 ENE 0.13 9.6 -13.2 --- --- 720.0 0.018 0.000 10.1 4 1
02/10/06 7:55 a -7.3 -7.3 -7.3 --- --- 7.0 E 0.12 8.7 -12.9 --- --- 719.9 0.018 0.000 10.1 4 1
02/10/06 7:56 a -7.4 -7.3 -7.4 --- --- 7.8 E 0.13 9.6 -13.4 --- --- 720.0 0.018 0.000 10.0 4 1
02/10/06 7:57 a -7.6 -7.5 -7.6 --- --- 7.0 E 0.12 8.7 -13.2 --- --- 720.0 0.018 0.000 10.0 4 1
02/10/06 7:58 a -7.6 -7.5 -7.6 --- --- 7.8 E 0.13 8.7 -13.6 --- --- 720.0 0.018 0.000 9.9 4 1
02/10/06 7:59 a -7.3 -7.2 -7.4 --- --- 7.0 ENE 0.12 9.6 -12.9 --- --- 720.0 0.018 0.000 9.9 4 1
02/10/06 8:00 a -7.1 -7.0 -7.1 --- --- 9.6 ENE 0.16 10.4 -13.7 --- --- 719.9 0.018 0.000 9.9 4 1
02/10/06 8:01 a -7.1 -7.1 -7.2 --- --- 8.7 E 0.14 11.3 -13.4 --- --- 720.0 0.018 0.000 9.9 4 1
02/10/06 8:02 a -7.3 -7.3 -7.3 --- --- 8.7 E 0.14 10.4 -13.7 --- --- 719.9 0.018 0.000 9.9 4 1
02/10/06 8:03 a -7.2 -7.1 -7.3 --- --- 7.8 ENE 0.13 8.7 -13.1 --- --- 719.9 0.018 0.000 9.9 4 1
02/10/06 8:04 a -6.9 -6.9 -7.0 --- --- 7.8 ENE 0.13 9.6 -12.8 --- --- 719.9 0.018 0.000 9.9 4 1
02/10/06 8:05 a -6.9 -6.9 -6.9 --- --- 7.8 E 0.13 10.4 -12.8 --- --- 719.9 0.018 0.000 9.9 4 1
02/10/06 8:06 a -6.8 -6.7 -6.9 --- --- 5.2 E 0.09 8.7 -11.3 --- --- 719.9 0.017 0.000 9.9 4 1
02/10/06 8:07 a -6.4 -6.3 -6.6 --- --- 5.2 NE 0.09 7.8 -10.9 --- --- 720.0 0.017 0.000 9.9 4 1
02/10/06 8:08 a -6.3 -6.3 -6.3 --- --- 8.7 E 0.14 10.4 -12.4 --- --- 720.0 0.017 0.000 9.9 4 1
02/10/06 8:09 a -6.3 -6.3 -6.4 --- --- 10.4 NE 0.17 12.2 -13.1 --- --- 719.9 0.017 0.000 9.9 4 1
02/10/06 8:10 a -6.4 -6.4 -6.5 --- --- 7.8 ENE 0.13 9.6 -12.2 --- --- 719.9 0.017 0.000 9.9 4 1
02/10/06 8:11 a -6.5 -6.4 -6.6 --- --- 9.6 E 0.16 12.2 -13.0 --- --- 719.9 0.017 0.000 9.9 4 1
02/10/06 8:12 a -6.7 -6.6 -6.7 --- --- 9.6 E 0.16 12.2 -13.2 --- --- 719.8 0.017 0.000 9.9 4 1
02/10/06 8:13 a -6.6 -6.6 -6.7 --- --- 9.6 E 0.16 12.2 -13.1 --- --- 719.9 0.017 0.000 9.9 4 1
02/10/06 8:14 a -6.7 -6.7 -6.7 --- --- 8.7 E 0.14 10.4 -12.9 --- --- 719.9 0.017 0.000 9.9 4 1
02/10/06 8:15 a -6.7 -6.7 -6.7 --- --- 7.8 E 0.13 9.6 -12.6 --- --- 719.8 0.017 0.000 9.9 4 1
02/10/06 8:16 a -6.6 -6.6 -6.8 --- --- 7.8 E 0.13 8.7 -12.4 --- --- 719.9 0.017 0.000 9.9 4 1
02/10/06 8:17 a -7.0 -6.8 -7.4 --- --- 9.6 E 0.16 11.3 -13.6 --- --- 719.9 0.018 0.000 9.9 4 1
02/10/06 8:18 a -7.7 -7.6 -7.9 --- --- 8.7 E 0.14 11.3 -14.1 --- --- 719.9 0.018 0.000 9.9 4 1
02/10/06 8:19 a -8.2 -8.0 -8.3 --- --- 7.8 E 0.13 9.6 -14.3 --- --- 719.9 0.018 0.000 9.9 4 1
02/10/06 8:20 a -8.6 -8.4 -8.8 --- --- 9.6 E 0.16 12.2 -15.6 --- --- 719.9 0.019 0.000 9.9 4 1
02/10/06 8:21 a -8.9 -8.9 -9.1 --- --- 10.4 E 0.17 12.2 -16.4 --- --- 719.9 0.019 0.000 9.9 4 1
02/10/06 8:22 a -9.2 -9.1 -9.3 --- --- 10.4 ENE 0.17 11.3 -16.7 --- --- 719.8 0.019 0.000 9.9 4 1
02/10/06 8:23 a -9.4 -9.3 -9.4 --- --- 10.4 ENE 0.17 11.3 -16.9 --- --- 719.9 0.019 0.000 9.9 4 1
02/10/06 8:24 a -9.5 -9.4 -9.5 --- --- 10.4 ENE 0.17 10.4 -17.1 --- --- 719.9 0.019 0.000 9.9 4 1
02/10/06 8:25 a -9.4 -9.2 -9.4 --- --- 8.7 ENE 0.14 11.3 -16.2 --- --- 719.9 0.019 0.000 9.9 4 1
02/10/06 8:26 a -8.9 -8.7 -9.1 --- --- 8.7 ENE 0.14 10.4 -15.6 --- --- 719.8 0.019 0.000 9.9 4 1
02/10/06 8:27 a -8.4 -8.2 -8.5 --- --- 8.7 ENE 0.14 10.4 -15.0 --- --- 719.9 0.019 0.000 9.9 4 1
02/10/06 8:28 a -8.0 -7.8 -8.1 --- --- 8.7 ENE 0.14 10.4 -14.5 --- --- 719.9 0.018 0.000 9.9 4 1
02/10/06 8:29 a -7.7 -7.7 -7.8 --- --- 8.7 ENE 0.14 10.4 -14.2 --- --- 719.9 0.018 0.000 9.9 4 1
02/10/06 8:30 a -7.7 -7.6 -7.7 --- --- 9.6 ENE 0.16 10.4 -14.4 --- --- 719.8 0.018 0.000 10.0 4 1
02/10/06 8:31 a -7.9 -7.8 -8.1 --- --- 8.7 E 0.14 10.4 -14.4 --- --- 719.9 0.018 0.000 10.0 4 1
02/10/06 8:32 a -8.3 -8.2 -8.6 --- --- 9.6 E 0.16 11.3 -15.3 --- --- 719.8 0.019 0.000 10.0 4 1
02/10/06 8:33 a -8.8 -8.6 -9.0 --- --- 10.4 E 0.17 12.2 -16.2 --- --- 719.8 0.019 0.000 10.0 4 1
02/10/06 8:34 a -9.1 -9.1 -9.2 --- --- 10.4 ENE 0.17 11.3 -16.6 --- --- 719.9 0.019 0.000 10.0 4 1
02/10/06 8:35 a -9.1 -9.1 -9.1 --- --- 10.4 ENE 0.17 11.3 -16.6 --- --- 719.8 0.019 0.000 10.0 4 1
02/10/06 8:36 a -8.9 -8.7 -9.1 --- --- 9.6 ENE 0.16 10.4 -16.1 --- --- 719.9 0.019 0.000 10.0 4 1
02/10/06 8:37 a -8.6 -8.4 -8.7 --- --- 9.6 ENE 0.16 10.4 -15.6 --- --- 719.9 0.019 0.000 10.0 4 1
02/10/06 8:38 a -8.7 -8.6 -9.0 --- --- 9.6 NE 0.16 11.3 -15.8 --- --- 719.9 0.019 0.000 10.0 4 1
02/10/06 8:39 a -8.9 -8.8 -9.0 --- --- 9.6 NE 0.16 11.3 -16.1 --- --- 719.9 0.019 0.000 10.1 4 1
02/10/06 8:40 a -8.7 -8.5 -8.7 --- --- 9.6 ENE 0.16 11.3 -15.7 --- --- 719.9 0.019 0.000 10.1 4 1
02/10/06 8:41 a -8.4 -8.3 -8.4 --- --- 10.4 ENE 0.17 11.3 -15.7 --- --- 719.9 0.019 0.000 10.0 4 1
02/10/06 8:42 a -8.4 -8.3 -8.6 --- --- 9.6 ENE 0.16 11.3 -15.3 --- --- 719.9 0.019 0.000 10.1 4 1
02/10/06 8:43 a -8.6 -8.5 -8.7 --- --- 8.7 ENE 0.14 10.4 -15.3 --- --- 719.9 0.019 0.000 10.1 4 1
02/10/06 8:44 a -8.6 -8.5 -8.6 --- --- 7.8 ENE 0.13 10.4 -14.8 --- --- 719.9 0.019 0.000 10.1 4 1
02/10/06 8:45 a -8.8 -8.7 -8.9 --- --- 7.8 ENE 0.13 8.7 -15.2 --- --- 720.0 0.019 0.000 10.1 4 1
02/10/06 8:46 a -9.2 -9.1 -9.4 --- --- 8.7 ENE 0.14 9.6 -16.0 --- --- 720.0 0.019 0.000 10.1 4 1
02/10/06 8:47 a -9.6 -9.5 -9.7 --- --- 7.8 ENE 0.13 8.7 -16.1 --- --- 720.0 0.019 0.000 10.1 4 1
02/10/06 8:48 a -9.7 -9.6 -9.7 --- --- 7.0 ENE 0.12 8.7 -15.7 --- --- 719.9 0.019 0.000 10.1 4 1
02/10/06 8:49 a -9.6 -9.6 -9.7 --- --- 10.4 ENE 0.17 12.2 -17.2 --- --- 719.9 0.019 0.000 10.1 4 1
02/10/06 8:50 a -9.8 -9.7 -9.8 --- --- 10.4 ENE 0.17 13.0 -17.4 --- --- 719.9 0.020 0.000 10.1 4 1
02/10/06 8:51 a -9.9 -9.8 -9.9 --- --- 9.6 ENE 0.16 11.3 -17.2 --- --- 719.9 0.020 0.000 10.2 4 1
02/10/06 8:52 a -9.8 -9.7 -9.9 --- --- 9.6 ENE 0.16 10.4 -17.1 --- --- 719.9 0.020 0.000 10.2 4 1
02/10/06 8:53 a -9.7 -9.6 -9.7 --- --- 8.7 ENE 0.14 10.4 -16.6 --- --- 720.0 0.019 0.000 10.2 4 1
02/10/06 8:54 a -9.5 -9.4 -9.6 --- --- 9.6 ENE 0.16 11.3 -16.7 --- --- 720.0 0.019 0.000 10.2 4 1
02/10/06 8:55 a -9.3 -9.2 -9.4 --- --- 9.6 ENE 0.16 10.4 -16.4 --- --- 719.9 0.019 0.000 10.2 4 1
02/10/06 8:56 a -9.1 -9.1 -9.2 --- --- 10.4 ENE 0.17 11.3 -16.6 --- --- 719.9 0.019 0.000 10.2 4 1
02/10/06 8:57 a -9.0 -9.0 -9.0 --- --- 9.6 ENE 0.16 11.3 -16.1 --- --- 720.0 0.019 0.000 10.1 4 1
02/10/06 8:58 a -9.2 -9.1 -9.3 --- --- 10.4 ENE 0.17 12.2 -16.7 --- --- 719.9 0.019 0.000 10.1 4 1
02/10/06 8:59 a -9.2 -9.1 -9.3 --- --- 11.3 ENE 0.19 12.2 -16.9 --- --- 719.9 0.019 0.000 10.1 4 1
02/10/06 9:00 a -9.1 -9.1 -9.1 --- --- 10.4 ENE 0.17 11.3 -16.6 --- --- 719.9 0.019 0.000 10.1 4 1
02/10/06 9:01 a -9.0 -8.9 -9.1 --- --- 8.7 ENE 0.14 10.4 -15.8 --- --- 719.9 0.019 0.000 10.1 4 1
02/10/06 9:02 a -8.9 -8.8 -8.9 --- --- 8.7 ENE 0.14 9.6 -15.6 --- --- 719.9 0.019 0.000 10.1 4 1
02/10/06 9:03 a -8.8 -8.8 -8.9 --- --- 9.6 ENE 0.16 10.4 -15.9 --- --- 719.9 0.019 0.000 10.1 4 1
02/10/06 9:04 a -8.8 -8.8 -8.8 --- --- 8.7 ENE 0.14 10.4 -15.6 --- --- 719.9 0.019 0.000 10.1 4 1
02/10/06 9:05 a -8.8 -8.8 -8.8 --- --- 7.8 ENE 0.13 9.6 -15.2 --- --- 719.9 0.019 0.000 10.1 4 1
02/10/06 9:06 a -8.8 -8.8 -8.8 --- --- 9.6 NE 0.16 10.4 -15.8 --- --- 719.9 0.019 0.000 10.1 4 1
02/10/06 9:07 a -8.8 -8.8 -8.8 --- --- 9.6 ENE 0.16 11.3 -15.8 --- --- 719.9 0.019 0.000 10.0 4 1
02/10/06 9:08 a -8.7 -8.7 -8.8 --- --- 8.7 ENE 0.14 9.6 -15.4 --- --- 719.9 0.019 0.000 10.0 4 1
02/10/06 9:09 a -8.6 -8.6 -8.7 --- --- 9.6 ENE 0.16 10.4 -15.6 --- --- 720.0 0.019 0.000 10.0 4 1
02/10/06 9:10 a -8.7 -8.7 -8.7 --- --- 9.6 ENE 0.16 11.3 -15.7 --- --- 719.9 0.019 0.000 10.0 4 1
02/10/06 9:11 a -8.7 -8.7 -8.7 --- --- 9.6 ENE 0.16 11.3 -15.7 --- --- 719.9 0.019 0.000 10.0 4 1
02/10/06 9:12 a -8.7 -8.7 -8.7 --- --- 10.4 ENE 0.17 10.4 -16.0 --- --- 719.8 0.019 0.000 10.0 4 1
02/10/06 9:13 a -8.7 -8.6 -8.7 --- --- 8.7 ENE 0.14 10.4 -15.3 --- --- 719.8 0.019 0.000 9.9 4 1
02/10/06 9:14 a -8.6 -8.6 -8.7 --- --- 8.7 ENE 0.14 9.6 -15.3 --- --- 719.9 0.019 0.000 9.9 4 1
02/10/06 9:15 a -8.7 -8.7 -8.7 --- --- 8.7 ENE 0.14 9.6 -15.4 --- --- 719.9 0.019 0.000 9.9 4 1
02/10/06 9:16 a -8.7 -8.7 -8.8 --- --- 8.7 NE 0.14 9.6 -15.4 --- --- 719.9 0.019 0.000 9.9 4 1
02/10/06 9:17 a -8.9 -8.8 -8.9 --- --- 9.6 ENE 0.16 12.2 -15.9 --- --- 719.9 0.019 0.000 9.9 4 1
02/10/06 9:18 a -9.0 -8.9 -9.1 --- --- 10.4 NE 0.17 11.3 -16.4 --- --- 719.9 0.019 0.000 9.9 4 1
02/10/06 9:19 a -9.2 -9.2 -9.2 --- --- 10.4 ENE 0.17 11.3 -16.7 --- --- 719.8 0.019 0.000 9.9 4 1
02/10/06 9:20 a -9.2 -9.2 -9.3 --- --- 10.4 ENE 0.17 12.2 -16.7 --- --- 719.7 0.019 0.000 9.9 4 1
02/10/06 9:21 a -9.3 -9.3 -9.4 --- --- 9.6 ENE 0.16 11.3 -16.5 --- --- 719.8 0.019 0.000 9.8 4 1
02/10/06 9:22 a -9.4 -9.3 -9.4 --- --- 9.6 ENE 0.16 11.3 -16.6 --- --- 719.8 0.019 0.000 9.8 4 1
02/10/06 9:23 a -9.5 -9.4 -9.5 --- --- 9.6 ENE 0.16 10.4 -16.7 --- --- 719.9 0.019 0.000 9.8 4 1
02/10/06 9:24 a -9.5 -9.5 -9.5 --- --- 9.6 NE 0.16 10.4 -16.7 --- --- 719.9 0.019 0.000 9.8 4 1
02/10/06 9:25 a -9.4 -9.4 -9.5 --- --- 8.7 NE 0.14 9.6 -16.3 --- --- 719.8 0.019 0.000 9.8 4 1
02/10/06 9:26 a -9.4 -9.4 -9.4 --- --- 9.6 ENE 0.16 10.4 -16.6 --- --- 719.8 0.019 0.000 9.8 4 1
02/10/06 9:27 a -9.4 -9.4 -9.4 --- --- 10.4 ENE 0.17 10.4 -16.9 --- --- 719.8 0.019 0.000 9.8 4 1
02/10/06 9:28 a -9.4 -9.4 -9.5 --- --- 10.4 ENE 0.17 11.3 -17.0 --- --- 719.8 0.019 0.000 9.8 4 1
02/10/06 9:29 a -9.6 -9.5 -9.6 --- --- 10.4 ENE 0.17 11.3 -17.1 --- --- 719.8 0.019 0.000 9.8 4 1
02/10/06 9:30 a -9.6 -9.6 -9.7 --- --- 8.7 ENE 0.14 9.6 -16.5 --- --- 719.7 0.019 0.000 9.8 4 1
02/10/06 9:31 a -9.7 -9.7 -9.8 --- --- 9.6 ENE 0.16 11.3 -17.0 --- --- 719.7 0.019 0.000 9.7 4 1
02/10/06 9:32 a -9.8 -9.8 -9.9 --- --- 9.6 ENE 0.16 10.4 -17.2 --- --- 719.7 0.020 0.000 9.7 4 1
02/10/06 9:33 a -9.9 -9.9 -9.9 --- --- 9.6 NE 0.16 10.4 -17.2 --- --- 719.6 0.020 0.000 9.7 4 1
02/10/06 9:34 a -9.9 -9.9 -10.0 --- --- 9.6 NE 0.16 10.4 -17.3 --- --- 719.7 0.020 0.000 9.7 4 1
02/10/06 9:35 a -10.0 -9.9 -10.0 --- --- 9.6 ENE 0.16 11.3 -17.3 --- --- 719.8 0.020 0.000 9.7 4 1
02/10/06 9:36 a -9.9 -9.9 -9.9 --- --- 9.6 ENE 0.16 10.4 -17.3 --- --- 719.7 0.020 0.000 9.7 4 1
02/10/06 9:37 a -9.9 -9.9 -9.9 --- --- 8.7 ENE 0.14 9.6 -16.9 --- --- 719.7 0.020 0.000 9.7 4 1
02/10/06 9:38 a -9.9 -9.9 -9.9 --- --- 9.6 ENE 0.16 9.6 -17.2 --- --- 719.6 0.020 0.000 9.7 4 1
02/10/06 9:39 a -9.9 -9.9 -9.9 --- --- 9.6 ENE 0.16 11.3 -17.3 --- --- 719.7 0.020 0.000 9.7 4 1
02/10/06 9:40 a -10.0 -9.9 -10.0 --- --- 9.6 ENE 0.16 11.3 -17.3 --- --- 719.7 0.020 0.000 9.7 4 1
02/10/06 9:41 a -10.0 -10.0 -10.0 --- --- 9.6 ENE 0.16 10.4 -17.3 --- --- 719.7 0.020 0.000 9.7 4 1
02/10/06 9:42 a -10.0 -10.0 -10.0 --- --- 9.6 ENE 0.16 10.4 -17.3 --- --- 719.7 0.020 0.000 9.7 4 1
02/10/06 9:43 a -10.1 -10.1 -10.1 --- --- 9.6 ENE 0.16 11.3 -17.4 --- --- 719.6 0.020 0.000 9.7 4 1
02/10/06 9:44 a -10.1 -10.0 -10.1 --- --- 9.6 ENE 0.16 10.4 -17.4 --- --- 719.7 0.020 0.000 9.7 4 1
02/10/06 9:45 a -10.0 -10.0 -10.1 --- --- 8.7 NE 0.14 10.4 -17.0 --- --- 719.7 0.020 0.000 9.7 4 1
02/10/06 9:46 a -10.1 -10.0 -10.1 --- --- 9.6 ENE 0.16 11.3 -17.4 --- --- 719.6 0.020 0.000 9.7 4 1
02/10/06 9:47 a -10.1 -10.1 -10.1 --- --- 8.7 ENE 0.14 9.6 -17.1 --- --- 719.7 0.020 0.000 9.7 4 1
02/10/06 9:48 a -10.2 -10.2 -10.2 --- --- 9.6 ENE 0.16 10.4 -17.6 --- --- 719.6 0.020 0.000 9.8 4 1
02/10/06 9:49 a -10.2 -10.2 -10.2 --- --- 7.8 NE 0.13 8.7 -16.9 --- --- 719.6 0.020 0.000 9.8 4 1
02/10/06 9:50 a -10.2 -10.2 -10.3 --- --- 10.4 ENE 0.17 11.3 -17.9 --- --- 719.6 0.020 0.000 9.8 4 1
02/10/06 9:51 a -10.3 -10.3 -10.4 --- --- 9.6 ENE 0.16 10.4 -17.8 --- --- 719.6 0.020 0.000 9.8 4 1
02/10/06 9:52 a -10.3 -10.3 -10.4 --- --- 8.7 ENE 0.14 9.6 -17.4 --- --- 719.6 0.020 0.000 9.8 4 1
02/10/06 9:53 a -10.2 -10.2 -10.3 --- --- 7.8 ENE 0.13 8.7 -16.9 --- --- 719.6 0.020 0.000 9.8 4 1
02/10/06 9:54 a -10.2 -10.1 -10.2 --- --- 7.8 NE 0.13 8.7 -16.8 --- --- 719.7 0.020 0.000 9.8 4 1
02/10/06 9:55 a -10.1 -10.0 -10.1 --- --- 7.0 NE 0.12 7.8 -16.2 --- --- 719.6 0.020 0.000 9.8 4 1
02/10/06 9:56 a -9.9 -9.9 -9.9 --- --- 6.1 NE 0.10 7.0 -15.6 --- --- 719.7 0.020 0.000 9.8 4 1
02/10/06 9:57 a -9.8 -9.8 -9.9 --- --- 7.8 NE 0.13 8.7 -16.4 --- --- 719.7 0.020 0.000 9.8 4 1
02/10/06 9:58 a -9.8 -9.8 -9.9 --- --- 8.7 NE 0.14 10.4 -16.8 --- --- 719.6 0.020 0.000 9.8 4 1
02/10/06 9:59 a -9.9 -9.9 -9.9 --- --- 10.4 NE 0.17 10.4 -17.6 --- --- 719.5 0.020 0.000 9.8 4 1
02/10/06 10:00 a -9.9 -9.9 -9.9 --- --- 8.7 NE 0.14 9.6 -16.9 --- --- 719.5 0.020 0.000 9.8 4 1
02/10/06 10:01 a -9.9 -9.9 -9.9 --- --- 8.7 NE 0.14 9.6 -16.9 --- --- 719.6 0.020 0.000 9.8 4 1
02/10/06 10:03 a -9.9 -9.9 -9.9 --- --- 8.7 NE 0.14 9.6 -16.9 --- --- 719.6 0.020 0.000 9.8 4 1
02/10/06 10:04 a -9.9 -9.9 -10.0 --- --- 7.8 NE 0.13 8.7 -16.5 --- --- 719.5 0.020 0.000 9.8 4 1
02/10/06 10:05 a -10.0 -9.9 -10.0 --- --- 9.6 NE 0.16 10.4 -17.3 --- --- 719.6 0.020 0.000 9.8 4 1
02/10/06 10:06 a -10.1 -10.0 -10.1 --- --- 8.7 NE 0.14 9.6 -17.1 --- --- 719.5 0.020 0.000 9.9 4 1
02/10/06 10:07 a -10.1 -10.1 -10.1 --- --- 8.7 NE 0.14 9.6 -17.1 --- --- 719.6 0.020 0.000 9.9 4 1
02/10/06 10:08 a -10.1 -10.1 -10.1 --- --- 7.8 NE 0.13 8.7 -16.7 --- --- 719.6 0.020 0.000 9.9 4 1
02/10/06 10:09 a -10.2 -10.1 -10.3 --- --- 7.8 NE 0.13 9.6 -16.9 --- --- 719.6 0.020 0.000 9.9 4 1
02/10/06 10:10 a -10.3 -10.3 -10.3 --- --- 10.4 NE 0.17 11.3 -18.1 --- --- 719.5 0.020 0.000 9.9 4 1
02/10/06 10:11 a -10.3 -10.3 -10.4 --- --- 9.6 NE 0.16 10.4 -17.8 --- --- 719.6 0.020 0.000 9.9 4 1
02/10/06 10:12 a -10.4 -10.4 -10.4 --- --- 8.7 NE 0.14 9.6 -17.5 --- --- 719.5 0.020 0.000 9.9 4 1
02/10/06 10:13 a -10.4 -10.4 -10.4 --- --- 8.7 NE 0.14 9.6 -17.5 --- --- 719.5 0.020 0.000 9.9 4 1
02/10/06 10:14 a -10.5 -10.5 -10.5 --- --- 7.8 NE 0.13 8.7 -17.2 --- --- 719.6 0.020 0.000 9.9 4 1
02/10/06 10:15 a -10.5 -10.5 -10.6 --- --- 7.8 NE 0.13 8.7 -17.2 --- --- 719.6 0.020 0.000 9.9 4 1
02/10/06 10:16 a -10.5 -10.5 -10.6 --- --- 7.8 NE 0.13 8.7 -17.2 --- --- 719.5 0.020 0.000 9.9 4 1
02/10/06 10:17 a -10.5 -10.5 -10.5 --- --- 9.6 NE 0.16 10.4 -17.9 --- --- 719.5 0.020 0.000 9.9 4 1
02/10/06 10:18 a -10.6 -10.6 -10.6 --- --- 9.6 NE 0.16 10.4 -18.0 --- --- 719.5 0.020 0.000 9.9 4 1
02/10/06 10:19 a -10.6 -10.6 -10.7 --- --- 9.6 NE 0.16 10.4 -18.1 --- --- 719.5 0.020 0.000 9.9 4 1
02/10/06 10:20 a -10.7 -10.7 -10.7 --- --- 9.6 NE 0.16 10.4 -18.1 --- --- 719.5 0.020 0.000 9.9 4 1
02/10/06 10:21 a -10.7 -10.7 -10.7 --- --- 9.6 NE 0.16 10.4 -18.1 --- --- 719.5 0.020 0.000 9.9 4 1
02/10/06 10:22 a -10.7 -10.7 -10.7 --- --- 8.7 NE 0.14 9.6 -17.8 --- --- 719.5 0.020 0.000 9.9 4 1
02/10/06 10:23 a -10.7 -10.7 -10.7 --- --- 8.7 NE 0.14 9.6 -17.8 --- --- 719.5 0.020 0.000 9.9 4 1
02/10/06 10:24 a -10.7 -10.7 -10.7 --- --- 8.7 NE 0.14 10.4 -17.8 --- --- 719.5 0.020 0.000 9.9 4 1
02/10/06 10:25 a -10.7 -10.7 -10.8 --- --- 9.6 NE 0.16 10.4 -18.2 --- --- 719.5 0.020 0.000 9.9 4 1
02/10/06 10:26 a -10.7 -10.7 -10.7 --- --- 8.7 NE 0.14 9.6 -17.8 --- --- 719.5 0.020 0.000 10.0 4 1
02/10/06 10:27 a -10.7 -10.7 -10.7 --- --- 8.7 NE 0.14 9.6 -17.8 --- --- 719.5 0.020 0.000 10.0 4 1
02/10/06 10:28 a -10.8 -10.7 -10.8 --- --- 8.7 NE 0.14 9.6 -17.9 --- --- 719.6 0.020 0.000 10.0 4 1
02/10/06 10:29 a -10.8 -10.7 -10.8 --- --- 9.6 NE 0.16 9.6 -18.3 --- --- 719.6 0.020 0.000 10.0 4 1
02/10/06 10:30 a -10.7 -10.7 -10.7 --- --- 8.7 NE 0.14 9.6 -17.8 --- --- 719.6 0.020 0.000 10.0 4 1
02/10/06 10:31 a -10.7 -10.7 -10.7 --- --- 7.0 NE 0.12 8.7 -16.9 --- --- 719.6 0.020 0.000 10.0 4 1
02/10/06 10:32 a -10.7 -10.6 -10.7 --- --- 7.0 NE 0.12 8.7 -16.9 --- --- 719.6 0.020 0.000 10.0 4 1
02/10/06 10:33 a -10.6 -10.6 -10.6 --- --- 6.1 NE 0.10 8.7 -16.3 --- --- 719.5 0.020 0.000 10.0 4 1
02/10/06 10:34 a -10.6 -10.6 -10.7 --- --- 9.6 NE 0.16 10.4 -18.1 --- --- 719.5 0.020 0.000 10.0 4 1
02/10/06 10:35 a -10.8 -10.8 -10.8 --- --- 8.7 ENE 0.14 10.4 -17.9 --- --- 719.5 0.020 0.000 10.0 4 1
02/10/06 10:36 a -10.9 -10.9 -10.9 --- --- 8.7 NE 0.14 9.6 -18.1 --- --- 719.5 0.020 0.000 9.9 4 1
02/10/06 10:37 a -10.9 -10.9 -10.9 --- --- 7.8 NE 0.13 8.7 -17.7 --- --- 719.5 0.020 0.000 9.9 4 1
02/10/06 10:38 a -10.9 -10.8 -10.9 --- --- 7.0 ENE 0.12 7.8 -17.2 --- --- 719.6 0.020 0.000 9.9 4 1
02/10/06 10:39 a -10.8 -10.8 -10.9 --- --- 5.2 NE 0.09 7.0 -16.1 --- --- 719.5 0.020 0.000 9.9 4 1
02/10/06 10:40 a -10.8 -10.8 -10.9 --- --- 7.0 NE 0.12 8.7 -17.2 --- --- 719.4 0.020 0.000 9.9 4 1
02/10/06 10:41 a -10.9 -10.9 -11.0 --- --- 7.8 NE 0.13 8.7 -17.8 --- --- 719.5 0.020 0.000 9.9 4 1
02/10/06 10:42 a -11.1 -11.1 -11.1 --- --- 7.8 NE 0.13 10.4 -17.8 --- --- 719.5 0.020 0.000 9.8 4 1
02/10/06 10:43 a -11.2 -11.2 -11.3 --- --- 9.6 NE 0.16 11.3 -18.8 --- --- 719.5 0.021 0.000 9.8 4 1
02/10/06 10:44 a -11.6 -11.4 -11.7 --- --- 9.6 NE 0.16 10.4 -19.2 --- --- 719.5 0.021 0.000 9.8 4 1
02/10/06 10:45 a -11.8 -11.7 -11.9 --- --- 9.6 NE 0.16 10.4 -19.5 --- --- 719.6 0.021 0.000 9.8 4 1
02/10/06 10:46 a -11.9 -11.9 -12.0 --- --- 8.7 NE 0.14 9.6 -19.3 --- --- 719.6 0.021 0.000 9.8 4 1
02/10/06 10:47 a -12.1 -12.1 -12.1 --- --- 8.7 NE 0.14 8.7 -19.5 --- --- 719.6 0.021 0.000 9.8 4 1
02/10/06 10:48 a -12.2 -12.2 -12.2 --- --- 8.7 NE 0.14 9.6 -19.6 --- --- 719.5 0.021 0.000 9.8 4 1
02/10/06 10:49 a -12.2 -12.2 -12.3 --- --- 8.7 NE 0.14 9.6 -19.7 --- --- 719.6 0.021 0.000 9.7 4 1
02/10/06 10:50 a -12.3 -12.3 -12.3 --- --- 8.7 NE 0.14 10.4 -19.8 --- --- 719.5 0.021 0.000 9.7 4 1
02/10/06 10:51 a -12.3 -12.3 -12.3 --- --- 9.6 NE 0.16 10.4 -20.2 --- --- 719.5 0.021 0.000 9.7 4 1
02/10/06 10:52 a -12.4 -12.3 -12.4 --- --- 9.6 ENE 0.16 10.4 -20.3 --- --- 719.6 0.021 0.000 9.7 4 1
02/10/06 10:53 a -12.4 -12.4 -12.4 --- --- 9.6 NE 0.16 10.4 -20.3 --- --- 719.6 0.021 0.000 9.7 4 1
02/10/06 10:54 a -12.4 -12.4 -12.4 --- --- 7.8 NE 0.13 8.7 -19.4 --- --- 719.5 0.021 0.000 9.7 4 1
02/10/06 10:55 a -12.4 -12.4 -12.4 --- --- 8.7 NE 0.14 8.7 -19.9 --- --- 719.4 0.021 0.000 9.7 4 1
02/10/06 10:56 a -12.4 -12.3 -12.4 --- --- 7.8 NE 0.13 8.7 -19.4 --- --- 719.5 0.021 0.000 9.7 4 1
02/10/06 10:57 a -12.3 -12.3 -12.3 --- --- 7.0 NE 0.12 7.8 -18.9 --- --- 719.5 0.021 0.000 9.7 4 1
02/10/06 10:58 a -12.3 -12.3 -12.4 --- --- 7.0 NE 0.12 7.8 -18.9 --- --- 719.5 0.021 0.000 9.6 4 1
02/10/06 10:59 a -12.4 -12.3 -12.4 --- --- 7.8 NE 0.13 8.7 -19.4 --- --- 719.5 0.021 0.000 9.6 4 1
02/10/06 11:00 a -12.4 -12.4 -12.4 --- --- 7.8 NE 0.13 8.7 -19.4 --- --- 719.5 0.021 0.000 9.6 4 1
02/10/06 11:01 a -12.4 -12.4 -12.4 --- --- 7.8 NE 0.13 8.7 -19.6 --- --- 719.4 0.021 0.000 9.6 4 1
02/10/06 11:02 a -12.4 -12.4 -12.4 --- --- 7.8 NE 0.13 8.7 -19.6 --- --- 719.5 0.021 0.000 9.6 4 1
02/10/06 11:03 a -12.4 -12.4 -12.4 --- --- 7.8 NE 0.13 8.7 -19.6 --- --- 719.5 0.021 0.000 9.6 4 1
02/10/06 11:04 a -12.4 -12.4 -12.4 --- --- 7.8 NE 0.13 8.7 -19.6 --- --- 719.5 0.021 0.000 9.6 4 1
02/10/06 11:05 a -12.4 -12.4 -12.5 --- --- 7.8 NE 0.13 7.8 -19.6 --- --- 719.5 0.021 0.000 9.5 4 1
02/10/06 11:06 a -12.5 -12.5 -12.5 --- --- 7.8 NE 0.13 8.7 -19.6 --- --- 719.5 0.021 0.000 9.5 4 1
02/10/06 11:07 a -12.5 -12.5 -12.5 --- --- 7.8 NE 0.13 8.7 -19.6 --- --- 719.4 0.021 0.000 9.5 4 1
02/10/06 11:08 a -12.5 -12.5 -12.5 --- --- 7.8 ENE 0.13 8.7 -19.6 --- --- 719.5 0.021 0.000 9.4 4 1
02/10/06 11:09 a -12.5 -12.5 -12.5 --- --- 8.7 ENE 0.14 8.7 -20.1 --- --- 719.5 0.021 0.000 9.4 4 1
02/10/06 11:10 a -12.5 -12.4 -12.5 --- --- 6.1 ENE 0.10 7.8 -18.6 --- --- 719.5 0.021 0.000 9.4 4 1
02/10/06 11:11 a -12.4 -12.4 -12.4 --- --- 4.3 NE 0.07 4.3 -17.3 --- --- 719.5 0.021 0.000 9.4 4 1
02/10/06 11:12 a -12.3 -12.3 -12.3 --- --- 3.5 NE 0.06 5.2 -16.4 --- --- 719.6 0.021 0.000 9.4 4 1
02/10/06 11:13 a -12.3 -12.3 -12.3 --- --- 7.0 ENE 0.12 7.8 -18.9 --- --- 719.5 0.021 0.000 9.4 4 1
02/10/06 11:14 a -12.3 -12.3 -12.3 --- --- 7.8 ENE 0.13 8.7 -19.4 --- --- 719.4 0.021 0.000 9.4 4 1
02/10/06 11:15 a -12.3 -12.3 -12.3 --- --- 7.0 NE 0.12 7.8 -18.9 --- --- 719.5 0.021 0.000 9.4 4 1
02/10/06 11:16 a -12.3 -12.2 -12.3 --- --- 7.0 NE 0.12 7.8 -18.9 --- --- 719.5 0.021 0.000 9.4 4 1
02/10/06 11:17 a -12.2 -12.2 -12.3 --- --- 6.1 NE 0.10 7.0 -18.3 --- --- 719.4 0.021 0.000 9.4 4 1
02/10/06 11:18 a -12.2 -12.2 -12.3 --- --- 7.0 NE 0.12 7.0 -18.8 --- --- 719.4 0.021 0.000 9.4 4 1
02/10/06 11:19 a -12.2 -12.2 -12.2 --- --- 7.0 NE 0.12 7.8 -18.8 --- --- 719.3 0.021 0.000 9.3 4 1
02/10/06 11:20 a -12.2 -12.2 -12.3 --- --- 6.1 NE 0.10 7.0 -18.3 --- --- 719.3 0.021 0.000 9.3 4 1
02/10/06 11:21 a -12.2 -12.2 -12.2 --- --- 4.3 NE 0.07 6.1 -17.1 --- --- 719.4 0.021 0.000 9.3 4 1
02/10/06 11:22 a -12.2 -12.2 -12.2 --- --- 6.1 NE 0.10 7.0 -18.3 --- --- 719.3 0.021 0.000 9.3 4 1
02/10/06 11:23 a -12.2 -12.2 -12.2 --- --- 7.0 ENE 0.12 7.8 -18.8 --- --- 719.3 0.021 0.000 9.3 4 1
02/10/06 11:24 a -12.2 -12.2 -12.2 --- --- 7.0 ENE 0.12 7.8 -18.8 --- --- 719.3 0.021 0.000 9.3 4 1
02/10/06 11:25 a -12.2 -12.2 -12.2 --- --- 7.0 NE 0.12 7.8 -18.7 --- --- 719.4 0.021 0.000 9.3 4 1
02/10/06 11:26 a -12.2 -12.2 -12.2 --- --- 7.0 NE 0.12 7.8 -18.7 --- --- 719.3 0.021 0.000 9.3 4 1
02/10/06 11:27 a -12.2 -12.1 -12.2 --- --- 6.1 NE 0.10 7.0 -18.2 --- --- 719.3 0.021 0.000 9.3 4 1
02/10/06 11:28 a -12.1 -12.1 -12.2 --- --- 6.1 NE 0.10 7.0 -18.2 --- --- 719.3 0.021 0.000 9.3 4 1
02/10/06 11:29 a -12.1 -12.1 -12.2 --- --- 7.0 NE 0.12 7.0 -18.7 --- --- 719.3 0.021 0.000 9.3 4 1
02/10/06 11:30 a -12.1 -12.1 -12.1 --- --- 6.1 NE 0.10 7.0 -18.2 --- --- 719.3 0.021 0.000 9.4 4 1
02/10/06 11:31 a -12.1 -12.1 -12.1 --- --- 6.1 NE 0.10 7.0 -18.2 --- --- 719.3 0.021 0.000 9.4 4 1
02/10/06 11:32 a -12.1 -12.1 -12.1 --- --- 6.1 NE 0.10 7.0 -18.2 --- --- 719.2 0.021 0.000 9.4 4 1
02/10/06 11:33 a -12.1 -12.1 -12.1 --- --- 7.0 NE 0.12 7.8 -18.6 --- --- 719.3 0.021 0.000 9.4 4 1
02/10/06 11:34 a -12.1 -12.1 -12.1 --- --- 6.1 NE 0.10 7.0 -18.1 --- --- 719.3 0.021 0.000 9.4 4 1
02/10/06 11:35 a -12.1 -12.1 -12.1 --- --- 7.0 NE 0.12 7.8 -18.6 --- --- 719.2 0.021 0.000 9.4 4 1
02/10/06 11:36 a -12.1 -12.1 -12.1 --- --- 7.0 NE 0.12 7.8 -18.6 --- --- 719.2 0.021 0.000 9.4 4 1
02/10/06 11:37 a -12.1 -12.1 -12.1 --- --- 7.0 NE 0.12 7.8 -18.6 --- --- 719.3 0.021 0.000 9.4 4 1
02/10/06 11:38 a -12.1 -12.1 -12.1 --- --- 7.0 NE 0.12 7.8 -18.6 --- --- 719.2 0.021 0.000 9.5 4 1
02/10/06 11:39 a -12.1 -12.1 -12.1 --- --- 7.0 NE 0.12 7.8 -18.6 --- --- 719.2 0.021 0.000 9.5 4 1
02/10/06 11:40 a -12.1 -12.1 -12.1 --- --- 7.0 NE 0.12 7.0 -18.6 --- --- 719.2 0.021 0.000 9.5 4 1
02/10/06 11:41 a -12.1 -12.1 -12.1 --- --- 7.0 NE 0.12 7.0 -18.6 --- --- 719.2 0.021 0.000 9.5 4 1
02/10/06 11:42 a -12.1 -12.0 -12.1 --- --- 7.0 NE 0.12 7.8 -18.6 --- --- 719.1 0.021 0.000 9.5 4 1
02/10/06 11:43 a -12.0 -12.0 -12.0 --- --- 7.0 NE 0.12 7.0 -18.6 --- --- 719.2 0.021 0.000 9.5 4 1
02/10/06 11:44 a -12.0 -11.9 -12.0 --- --- 6.1 NE 0.10 7.0 -18.0 --- --- 719.2 0.021 0.000 9.5 4 1
02/10/06 11:45 a -11.9 -11.9 -12.0 --- --- 6.1 NE 0.10 7.0 -17.9 --- --- 719.1 0.021 0.000 9.6 4 1
02/10/06 11:46 a -11.9 -11.9 -11.9 --- --- 6.1 NE 0.10 6.1 -17.9 --- --- 719.2 0.021 0.000 9.6 4 1
02/10/06 11:47 a -11.9 -11.9 -11.9 --- --- 6.1 NE 0.10 7.0 -17.9 --- --- 719.2 0.021 0.000 9.6 4 1
02/10/06 11:48 a -11.9 -11.9 -11.9 --- --- 6.1 NE 0.10 7.0 -17.9 --- --- 719.2 0.021 0.000 9.6 4 1
02/10/06 11:49 a -11.9 -11.9 -11.9 --- --- 6.1 NE 0.10 7.0 -17.9 --- --- 719.1 0.021 0.000 9.6 4 1
02/10/06 11:50 a -11.9 -11.8 -11.9 --- --- 6.1 NE 0.10 7.0 -17.9 --- --- 719.1 0.021 0.000 9.6 4 1
02/10/06 11:51 a -11.9 -11.8 -11.9 --- --- 6.1 NE 0.10 7.0 -17.9 --- --- 719.2 0.021 0.000 9.6 4 1
02/10/06 11:52 a -11.9 -11.8 -11.9 --- --- 6.1 NE 0.10 7.0 -17.9 --- --- 719.2 0.021 0.000 9.6 4 1
02/10/06 11:53 a -11.9 -11.9 -11.9 --- --- 6.1 NE 0.10 7.0 -17.9 --- --- 719.2 0.021 0.000 9.6 4 1
02/10/06 11:54 a -11.9 -11.9 -11.9 --- --- 6.1 NE 0.10 7.0 -17.9 --- --- 719.2 0.021 0.000 9.6 4 1
02/10/06 11:55 a -11.8 -11.8 -11.9 --- --- 7.0 NE 0.12 7.8 -18.3 --- --- 719.1 0.021 0.000 9.6 4 1
02/10/06 11:56 a -11.8 -11.8 -11.8 --- --- 7.0 NE 0.12 7.8 -18.3 --- --- 719.1 0.021 0.000 9.6 4 1
02/10/06 11:57 a -11.8 -11.8 -11.8 --- --- 7.0 NE 0.12 7.8 -18.3 --- --- 719.1 0.021 0.000 9.6 4 1
02/10/06 11:58 a -11.8 -11.8 -11.8 --- --- 6.1 NE 0.10 7.0 -17.8 --- --- 719.1 0.021 0.000 9.6 4 1
02/10/06 11:59 a -11.8 -11.8 -11.9 --- --- 7.0 NE 0.12 7.8 -18.3 --- --- 719.1 0.021 0.000 9.6 4 1
02/10/06 12:00 p -11.9 -11.8 -11.9 --- --- 6.1 NE 0.10 7.0 -17.9 --- --- 719.1 0.021 0.000 9.6 4 1
02/10/06 12:01 p -11.8 -11.8 -11.9 --- --- 7.0 NE 0.12 7.0 -18.3 --- --- 719.2 0.021 0.000 9.6 4 1
02/10/06 12:02 p -11.8 -11.8 -11.9 --- --- 7.0 NE 0.12 7.0 -18.3 --- --- 719.1 0.021 0.000 9.6 4 1
02/10/06 12:03 p -11.8 -11.8 -11.8 --- --- 5.2 NE 0.09 7.0 -17.3 --- --- 719.1 0.021 0.000 9.6 4 1
02/10/06 12:04 p -11.8 -11.8 -11.8 --- --- 7.0 NE 0.12 7.0 -18.3 --- --- 719.1 0.021 0.000 9.6 4 1
02/10/06 12:05 p -11.8 -11.8 -11.8 --- --- 7.0 NE 0.12 7.0 -18.3 --- --- 719.0 0.021 0.000 9.6 4 1
02/10/06 12:06 p -11.8 -11.8 -11.8 --- --- 7.0 NE 0.12 7.0 -18.3 --- --- 719.0 0.021 0.000 9.6 4 1
02/10/06 12:07 p -11.8 -11.8 -11.8 --- --- 6.1 NE 0.10 7.0 -17.8 --- --- 719.1 0.021 0.000 9.6 4 1
02/10/06 12:08 p -11.8 -11.7 -11.8 --- --- 4.3 NE 0.07 7.0 -16.6 --- --- 719.0 0.021 0.000 9.6 4 1
02/10/06 12:09 p -11.7 -11.7 -11.7 --- --- 5.2 NE 0.09 6.1 -17.2 --- --- 719.1 0.021 0.000 9.7 4 1
02/10/06 12:10 p -11.7 -11.7 -11.7 --- --- 5.2 NE 0.09 7.0 -17.2 --- --- 719.0 0.021 0.000 9.7 4 1
02/10/06 12:11 p -11.7 -11.7 -11.7 --- --- 7.0 NE 0.12 7.8 -18.2 --- --- 719.1 0.021 0.000 9.7 4 1
02/10/06 12:12 p -11.7 -11.7 -11.7 --- --- 7.0 NE 0.12 7.8 -18.2 --- --- 719.0 0.021 0.000 9.7 4 1
02/10/06 12:13 p -11.7 -11.7 -11.7 --- --- 6.1 NE 0.10 7.0 -17.7 --- --- 719.1 0.021 0.000 9.7 4 1
02/10/06 12:14 p -11.7 -11.7 -11.7 --- --- 4.3 NE 0.07 5.2 -16.5 --- --- 719.1 0.021 0.000 9.7 4 1
02/10/06 12:15 p -11.7 -11.7 -11.7 --- --- 4.3 NE 0.07 6.1 -16.5 --- --- 719.1 0.021 0.000 9.7 4 1
02/10/06 12:16 p -11.7 -11.6 -11.7 --- --- 4.3 NE 0.07 6.1 -16.4 --- --- 719.0 0.021 0.000 9.7 4 1
02/10/06 12:17 p -11.7 -11.7 -11.7 --- --- 6.1 NE 0.10 7.0 -17.7 --- --- 719.0 0.021 0.000 9.7 4 1
02/10/06 12:18 p -11.7 -11.7 -11.7 --- --- 6.1 NE 0.10 7.0 -17.7 --- --- 719.0 0.021 0.000 9.7 4 1
02/10/06 12:19 p -11.7 -11.6 -11.7 --- --- 5.2 NE 0.09 6.1 -17.1 --- --- 719.0 0.021 0.000 9.7 4 1
02/10/06 12:20 p -11.6 -11.6 -11.6 --- --- 4.3 NE 0.07 5.2 -16.4 --- --- 719.0 0.021 0.000 9.7 4 1
02/10/06 12:21 p -11.5 -11.4 -11.6 --- --- 3.5 NE 0.06 4.3 -15.4 --- --- 719.0 0.021 0.000 9.7 4 1
02/10/06 12:22 p -11.4 -11.3 -11.4 --- --- 3.5 NNE 0.06 4.3 -15.3 --- --- 719.0 0.021 0.000 9.7 4 1
02/10/06 12:23 p -11.4 -11.4 -11.4 --- --- 5.2 NE 0.09 6.1 -16.8 --- --- 719.0 0.021 0.000 9.7 4 1
02/10/06 12:24 p -11.5 -11.4 -11.5 --- --- 5.2 NE 0.09 6.1 -16.9 --- --- 718.9 0.021 0.000 9.7 4 1
02/10/06 12:25 p -11.5 -11.5 -11.5 --- --- 5.2 NE 0.09 6.1 -16.9 --- --- 718.9 0.021 0.000 9.7 4 1
02/10/06 12:26 p -11.5 -11.5 -11.6 --- --- 4.3 NE 0.07 5.2 -16.2 --- --- 719.0 0.021 0.000 9.7 4 1
02/10/06 12:27 p -11.6 -11.5 -11.6 --- --- 5.2 NE 0.09 6.1 -16.9 --- --- 718.9 0.021 0.000 9.7 4 1
02/10/06 12:28 p -11.6 -11.6 -11.6 --- --- 5.2 NE 0.09 6.1 -16.9 --- --- 718.9 0.021 0.000 9.7 4 1
02/10/06 12:29 p -11.6 -11.6 -11.6 --- --- 5.2 NE 0.09 6.1 -16.9 --- --- 718.9 0.021 0.000 9.7 4 1
02/10/06 12:30 p -11.6 -11.6 -11.6 --- --- 6.1 NE 0.10 6.1 -17.6 --- --- 719.0 0.021 0.000 9.7 4 1
02/10/06 12:31 p -11.6 -11.6 -11.6 --- --- 5.2 NE 0.09 6.1 -16.9 --- --- 719.0 0.021 0.000 9.7 4 1
02/10/06 12:32 p -11.6 -11.6 -11.6 --- --- 6.1 NE 0.10 6.1 -17.6 --- --- 718.9 0.021 0.000 9.7 4 1
02/10/06 12:33 p -11.6 -11.6 -11.6 --- --- 5.2 NE 0.09 6.1 -17.1 --- --- 719.0 0.021 0.000 9.7 4 1
02/10/06 12:34 p -11.6 -11.6 -11.6 --- --- 5.2 NE 0.09 6.1 -17.1 --- --- 718.9 0.021 0.000 9.7 4 1
02/10/06 12:35 p -11.6 -11.6 -11.7 --- --- 5.2 NE 0.09 6.1 -17.1 --- --- 718.9 0.021 0.000 9.7 4 1
02/10/06 12:36 p -11.7 -11.6 -11.7 --- --- 5.2 NE 0.09 7.0 -17.1 --- --- 718.9 0.021 0.000 9.8 4 1
02/10/06 12:37 p -11.7 -11.7 -11.7 --- --- 6.1 NE 0.10 7.0 -17.7 --- --- 718.9 0.021 0.000 9.8 4 1
02/10/06 12:38 p -11.7 -11.7 -11.7 --- --- 5.2 NE 0.09 7.0 -17.2 --- --- 718.9 0.021 0.000 9.8 4 1
02/10/06 12:39 p -11.8 -11.8 -11.8 --- --- 5.2 NE 0.09 6.1 -17.2 --- --- 718.8 0.021 0.000 9.8 4 1
02/10/06 12:40 p -11.8 -11.8 -11.8 --- --- 5.2 NE 0.09 6.1 -17.2 --- --- 718.9 0.021 0.000 9.8 4 1
02/10/06 12:41 p -11.8 -11.8 -11.8 --- --- 7.0 NE 0.12 7.0 -18.3 --- --- 718.9 0.021 0.000 9.8 4 1
02/10/06 12:42 p -11.8 -11.8 -11.8 --- --- 6.1 NE 0.10 7.8 -17.8 --- --- 718.8 0.021 0.000 9.8 4 1
02/10/06 12:43 p -11.8 -11.8 -11.8 --- --- 7.0 NE 0.12 7.8 -18.3 --- --- 718.9 0.021 0.000 9.8 4 1
02/10/06 12:44 p -11.8 -11.8 -11.8 --- --- 6.1 NE 0.10 7.0 -17.8 --- --- 718.8 0.021 0.000 9.8 4 1
02/10/06 12:45 p -11.8 -11.8 -11.8 --- --- 7.0 NE 0.12 7.8 -18.3 --- --- 718.7 0.021 0.000 9.8 4 1
02/10/06 12:46 p -11.8 -11.8 -11.8 --- --- 7.0 NE 0.12 7.0 -18.3 --- --- 718.8 0.021 0.000 9.8 4 1
02/10/06 12:47 p -11.8 -11.8 -11.8 --- --- 7.0 NE 0.12 7.0 -18.3 --- --- 718.9 0.021 0.000 9.8 4 1
02/10/06 12:48 p -11.8 -11.8 -11.8 --- --- 7.0 NE 0.12 7.0 -18.3 --- --- 718.8 0.021 0.000 9.8 4 1
02/10/06 12:49 p -11.8 -11.8 -11.8 --- --- 7.0 NE 0.12 7.0 -18.3 --- --- 718.7 0.021 0.000 9.8 4 1
02/10/06 12:50 p -11.8 -11.8 -11.8 --- --- 6.1 NE 0.10 7.0 -17.8 --- --- 718.8 0.021 0.000 9.8 4 1
02/10/06 12:51 p -11.8 -11.8 -11.8 --- --- 6.1 NE 0.10 7.8 -17.8 --- --- 718.7 0.021 0.000 9.8 4 1
02/10/06 12:52 p -11.8 -11.8 -11.8 --- --- 7.0 NE 0.12 7.8 -18.3 --- --- 718.7 0.021 0.000 9.8 4 1
02/10/06 12:53 p -11.8 -11.8 -11.8 --- --- 6.1 NE 0.10 7.0 -17.8 --- --- 718.7 0.021 0.000 9.8 4 1
02/10/06 12:54 p -11.8 -11.8 -11.8 --- --- 6.1 NE 0.10 7.0 -17.8 --- --- 718.7 0.021 0.000 9.8 4 1
02/10/06 12:55 p -11.8 -11.8 -11.8 --- --- 6.1 NE 0.10 7.0 -17.8 --- --- 718.7 0.021 0.000 9.8 4 1
02/10/06 12:56 p -11.8 -11.8 -11.8 --- --- 6.1 NE 0.10 7.0 -17.8 --- --- 718.7 0.021 0.000 9.8 4 1
02/10/06 12:57 p -11.8 -11.7 -11.8 --- --- 6.1 NE 0.10 7.0 -17.8 --- --- 718.7 0.021 0.000 9.8 4 1
02/10/06 12:58 p -11.7 -11.7 -11.8 --- --- 5.2 NE 0.09 6.1 -17.2 --- --- 718.6 0.021 0.000 9.8 4 1
02/10/06 12:59 p -11.7 -11.7 -11.7 --- --- 5.2 NE 0.09 6.1 -17.2 --- --- 718.6 0.021 0.000 9.8 4 1
02/10/06 1:00 p -11.7 -11.7 -11.7 --- --- 5.2 NE 0.09 6.1 -17.1 --- --- 718.7 0.021 0.000 9.8 4 1
02/10/06 1:01 p -11.7 -11.6 -11.7 --- --- 5.2 NE 0.09 6.1 -17.1 --- --- 718.7 0.021 0.000 9.8 4 1
02/10/06 1:03 p -11.6 -11.6 -11.6 --- --- 4.3 NE 0.07 5.2 -16.4 --- --- 718.7 0.021 0.000 9.8 4 1
02/10/06 1:04 p -11.6 -11.6 -11.6 --- --- 4.3 NE 0.07 5.2 -16.4 --- --- 718.7 0.021 0.000 9.8 4 1
02/10/06 1:05 p -11.6 -11.6 -11.6 --- --- 4.3 NE 0.07 5.2 -16.3 --- --- 718.7 0.021 0.000 9.8 4 1
02/10/06 1:06 p -11.6 -11.6 -11.6 --- --- 4.3 NE 0.07 5.2 -16.3 --- --- 718.7 0.021 0.000 9.8 4 1
02/10/06 1:07 p -11.6 -11.6 -11.6 --- --- 4.3 NE 0.07 5.2 -16.3 --- --- 718.5 0.021 0.000 9.8 4 1
02/10/06 1:08 p -11.6 -11.6 -11.6 --- --- 4.3 NE 0.07 5.2 -16.3 --- --- 718.6 0.021 0.000 9.8 4 1
02/10/06 1:09 p -11.6 -11.6 -11.6 --- --- 3.5 NE 0.06 4.3 -15.6 --- --- 718.7 0.021 0.000 9.8 4 1
02/10/06 1:10 p -11.5 -11.5 -11.6 --- --- 3.5 NE 0.06 4.3 -15.4 --- --- 718.6 0.021 0.000 9.8 4 1
02/10/06 1:11 p -11.5 -11.4 -11.5 --- --- 3.5 NE 0.06 3.5 -15.4 --- --- 718.6 0.021 0.000 9.8 4 1
02/10/06 1:12 p -11.4 -11.4 -11.5 --- --- 3.5 NE 0.06 3.5 -15.4 --- --- 718.6 0.021 0.000 9.8 4 1
02/10/06 1:13 p -11.4 -11.4 -11.4 --- --- 3.5 NE 0.06 3.5 -15.4 --- --- 718.6 0.021 0.000 9.8 4 1
02/10/06 1:14 p -11.4 -11.4 -11.4 --- --- 3.5 NE 0.06 3.5 -15.3 --- --- 718.6 0.021 0.000 9.8 4 1
02/10/06 1:15 p -11.4 -11.4 -11.4 --- --- 2.6 NE 0.04 3.5 -14.4 --- --- 718.6 0.021 0.000 9.8 4 1
02/10/06 1:16 p -11.4 -11.3 -11.4 --- --- 2.6 NE 0.04 2.6 -14.4 --- --- 718.7 0.021 0.000 9.8 4 1
02/10/06 1:17 p -11.3 -11.3 -11.4 --- --- 2.6 NE 0.04 2.6 -14.3 --- --- 718.6 0.021 0.000 9.8 4 1
02/10/06 1:18 p -11.3 -11.3 -11.4 --- --- 2.6 NE 0.04 2.6 -14.3 --- --- 718.6 0.021 0.000 9.8 4 1
02/10/06 1:19 p -11.4 -11.3 -11.4 --- --- 1.7 NE 0.03 2.6 -13.1 --- --- 718.5 0.021 0.000 9.8 4 1
02/10/06 1:20 p -11.4 -11.4 -11.4 --- --- 2.6 NE 0.04 3.5 -14.4 --- --- 718.6 0.021 0.000 9.9 4 1
02/10/06 1:21 p -11.4 -11.4 -11.4 --- --- 2.6 NE 0.04 3.5 -14.4 --- --- 718.7 0.021 0.000 9.9 4 1
02/10/06 1:22 p -11.4 -11.4 -11.4 --- --- 2.6 NE 0.04 3.5 -14.4 --- --- 718.6 0.021 0.000 9.9 4 1
02/10/06 1:23 p -11.4 -11.4 -11.4 --- --- 2.6 NE 0.04 3.5 -14.4 --- --- 718.6 0.021 0.000 9.9 4 1
02/10/06 1:24 p -11.4 -11.4 -11.4 --- --- 3.5 NE 0.06 3.5 -15.3 --- --- 718.6 0.021 0.000 9.9 4 1
02/10/06 1:25 p -11.4 -11.4 -11.4 --- --- 2.6 NE 0.04 3.5 -14.4 --- --- 718.6 0.021 0.000 9.8 4 1
02/10/06 1:26 p -11.4 -11.4 -11.4 --- --- 2.6 NE 0.04 3.5 -14.4 --- --- 718.6 0.021 0.000 9.8 4 1
02/10/06 1:27 p -11.4 -11.4 -11.4 --- --- 2.6 NE 0.04 3.5 -14.4 --- --- 718.6 0.021 0.000 9.8 4 1
02/10/06 1:28 p -11.4 -11.4 -11.4 --- --- 2.6 NE 0.04 3.5 -14.4 --- --- 718.6 0.021 0.000 9.7 4 1
02/10/06 1:29 p -11.4 -11.4 -11.4 --- --- 3.5 NE 0.06 3.5 -15.3 --- --- 718.5 0.021 0.000 9.7 4 1
02/10/06 1:30 p -11.4 -11.4 -11.4 --- --- 3.5 NE 0.06 3.5 -15.3 --- --- 718.6 0.021 0.000 9.7 4 1
02/10/06 1:31 p -11.4 -11.4 -11.4 --- --- 2.6 NE 0.04 3.5 -14.4 --- --- 718.6 0.021 0.000 9.7 4 1
02/10/06 1:32 p -11.4 -11.4 -11.4 --- --- 3.5 NE 0.06 3.5 -15.3 --- --- 718.6 0.021 0.000 9.6 4 1
02/10/06 1:33 p -11.4 -11.4 -11.4 --- --- 2.6 NE 0.04 3.5 -14.4 --- --- 718.6 0.021 0.000 9.6 4 1
02/10/06 1:34 p -11.4 -11.4 -11.4 --- --- 2.6 NE 0.04 3.5 -14.4 --- --- 718.6 0.021 0.000 9.6 4 1
02/10/06 1:35 p -11.3 -11.3 -11.4 --- --- 2.6 NE 0.04 3.5 -14.3 --- --- 718.6 0.021 0.000 9.6 4 1
02/10/06 1:36 p -11.3 -11.3 -11.3 --- --- 2.6 NE 0.04 3.5 -14.3 --- --- 718.5 0.021 0.000 9.6 4 1
02/10/06 1:37 p -11.3 -11.3 -11.3 --- --- 2.6 NE 0.04 2.6 -14.2 --- --- 718.6 0.021 0.000 9.6 4 1
02/10/06 1:38 p -11.3 -11.3 -11.3 --- --- 1.7 NE 0.03 2.6 -12.9 --- --- 718.5 0.021 0.000 9.6 4 1
02/10/06 1:39 p -11.3 -11.2 -11.3 --- --- 1.7 NE 0.03 2.6 -12.9 --- --- 718.5 0.021 0.000 9.5 4 1
02/10/06 1:40 p -11.1 -11.0 -11.2 --- --- 0.9 NE 0.01 0.9 -11.1 --- --- 718.4 0.020 0.000 9.5 4 1
02/10/06 1:41 p -10.9 -10.8 -11.0 --- --- 0.0 NE 0.00 0.9 -10.9 --- --- 718.4 0.020 0.000 9.5 4 1
02/10/06 1:42 p -10.7 -10.7 -10.8 --- --- 0.9 NE 0.01 1.7 -10.7 --- --- 718.5 0.020 0.000 9.5 4 1
02/10/06 1:43 p -10.6 -10.6 -10.7 --- --- 0.9 NE 0.01 1.7 -10.6 --- --- 718.5 0.020 0.000 9.5 4 1
02/10/06 1:44 p -10.6 -10.5 -10.6 --- --- 0.9 NE 0.01 0.9 -10.6 --- --- 718.5 0.020 0.000 9.4 4 1
02/10/06 1:45 p -10.5 -10.5 -10.5 --- --- 0.9 NE 0.01 1.7 -10.5 --- --- 718.4 0.020 0.000 9.4 4 1
02/10/06 1:46 p -10.5 -10.5 -10.6 --- --- 0.0 NE 0.00 0.9 -10.5 --- --- 718.5 0.020 0.000 9.4 4 1
02/10/06 1:47 p -10.5 -10.5 -10.6 --- --- 0.9 NE 0.01 1.7 -10.5 --- --- 718.5 0.020 0.000 9.4 4 1
02/10/06 1:48 p -10.5 -10.5 -10.6 --- --- 0.9 NE 0.01 2.6 -10.5 --- --- 718.5 0.020 0.000 9.4 4 1
02/10/06 1:49 p -10.6 -10.6 -10.6 --- --- 1.7 NE 0.03 1.7 -12.2 --- --- 718.5 0.020 0.000 9.4 4 1
02/10/06 1:50 p -10.6 -10.6 -10.6 --- --- 1.7 NE 0.03 1.7 -12.2 --- --- 718.4 0.020 0.000 9.4 4 1
02/10/06 1:51 p -10.6 -10.6 -10.6 --- --- 1.7 NE 0.03 2.6 -12.2 --- --- 718.4 0.020 0.000 9.4 4 1
02/10/06 1:52 p -10.6 -10.6 -10.6 --- --- 1.7 NE 0.03 2.6 -12.2 --- --- 718.4 0.020 0.000 9.3 4 1
02/10/06 1:53 p -10.6 -10.6 -10.6 --- --- 2.6 NNE 0.04 2.6 -13.5 --- --- 718.4 0.020 0.000 9.3 4 1
02/10/06 1:54 p -10.6 -10.6 -10.6 --- --- 2.6 NNE 0.04 3.5 -13.5 --- --- 718.4 0.020 0.000 9.3 4 1
02/10/06 1:55 p -10.6 -10.6 -10.6 --- --- 2.6 NNE 0.04 3.5 -13.5 --- --- 718.5 0.020 0.000 9.3 4 1
02/10/06 1:56 p -10.6 -10.6 -10.6 --- --- 2.6 NNE 0.04 3.5 -13.5 --- --- 718.4 0.020 0.000 9.3 4 1
02/10/06 1:57 p -10.6 -10.5 -10.6 --- --- 2.6 NNE 0.04 3.5 -13.4 --- --- 718.4 0.020 0.000 9.4 4 1
02/10/06 1:58 p -10.6 -10.5 -10.6 --- --- 2.6 NNE 0.04 3.5 -13.4 --- --- 718.4 0.020 0.000 9.3 4 1
02/10/06 1:59 p -10.5 -10.4 -10.6 --- --- 2.6 NNE 0.04 2.6 -13.4 --- --- 718.4 0.020 0.000 9.4 4 1
02/10/06 2:00 p -10.5 -10.4 -10.5 --- --- 2.6 NNE 0.04 3.5 -13.4 --- --- 718.4 0.020 0.000 9.3 4 1
02/10/06 2:01 p -10.5 -10.5 -10.5 --- --- 1.7 NNE 0.03 2.6 -12.1 --- --- 718.3 0.020 0.000 9.4 4 1
02/10/06 2:02 p -10.5 -10.4 -10.5 --- --- 2.6 NNE 0.04 3.5 -13.4 --- --- 718.3 0.020 0.000 9.3 4 1
02/10/06 2:03 p -10.4 -10.4 -10.4 --- --- 1.7 NNE 0.03 2.6 -12.1 --- --- 718.3 0.020 0.000 9.3 4 1
02/10/06 2:04 p -10.4 -10.4 -10.4 --- --- 2.6 N 0.04 3.5 -13.2 --- --- 718.3 0.020 0.000 9.3 4 1
02/10/06 2:05 p -10.4 -10.4 -10.5 --- --- 2.6 N 0.04 3.5 -13.3 --- --- 718.3 0.020 0.000 9.3 4 1
02/10/06 2:06 p -10.6 -10.5 -10.6 --- --- 2.6 N 0.04 3.5 -13.4 --- --- 718.3 0.020 0.000 9.3 4 1
02/10/06 2:07 p -10.5 -10.4 -10.6 --- --- 2.6 N 0.04 3.5 -13.4 --- --- 718.3 0.020 0.000 9.3 4 1
02/10/06 2:08 p -10.5 -10.5 -10.6 --- --- 2.6 N 0.04 3.5 -13.4 --- --- 718.3 0.020 0.000 9.3 4 1
02/10/06 2:09 p -10.6 -10.6 -10.7 --- --- 1.7 N 0.03 3.5 -12.2 --- --- 718.3 0.020 0.000 9.3 4 1
02/10/06 2:10 p -10.7 -10.7 -10.7 --- --- 2.6 N 0.04 4.3 -13.6 --- --- 718.3 0.020 0.000 9.3 4 1
02/10/06 2:11 p -10.7 -10.6 -10.7 --- --- 3.5 N 0.06 3.5 -14.5 --- --- 718.2 0.020 0.000 9.3 4 1
02/10/06 2:12 p -10.6 -10.5 -10.6 --- --- 4.3 N 0.07 6.1 -15.1 --- --- 718.3 0.020 0.000 9.3 4 1
02/10/06 2:13 p -10.6 -10.6 -10.7 --- --- 3.5 N 0.06 4.3 -14.4 --- --- 718.3 0.020 0.000 9.3 4 1
02/10/06 2:14 p -10.7 -10.7 -10.7 --- --- 3.5 N 0.06 5.2 -14.5 --- --- 718.2 0.020 0.000 9.2 4 1
02/10/06 2:15 p -10.6 -10.6 -10.7 --- --- 4.3 N 0.07 5.2 -15.2 --- --- 718.2 0.020 0.000 9.2 4 1
02/10/06 2:16 p -10.6 -10.6 -10.6 --- --- 3.5 N 0.06 4.3 -14.4 --- --- 718.2 0.020 0.000 9.2 4 1
02/10/06 2:17 p -10.6 -10.6 -10.6 --- --- 4.3 N 0.07 5.2 -15.1 --- --- 718.2 0.020 0.000 9.2 4 1
02/10/06 2:18 p -10.6 -10.6 -10.6 --- --- 4.3 N 0.07 5.2 -15.1 --- --- 718.2 0.020 0.000 9.2 4 1
02/10/06 2:19 p -10.6 -10.6 -10.7 --- --- 5.2 NNW 0.09 7.0 -15.8 --- --- 718.2 0.020 0.000 9.3 4 1
02/10/06 2:20 p -10.6 -10.6 -10.6 --- --- 4.3 NW 0.07 6.1 -15.1 --- --- 718.2 0.020 0.000 9.3 4 1
02/10/06 2:21 p -10.6 -10.6 -10.6 --- --- 3.5 NW 0.06 5.2 -14.4 --- --- 718.2 0.020 0.000 9.2 4 1
02/10/06 2:22 p -10.6 -10.5 -10.6 --- --- 1.7 NW 0.03 2.6 -12.2 --- --- 718.2 0.020 0.000 9.2 4 1
02/10/06 2:23 p -10.5 -10.5 -10.6 --- --- 1.7 NW 0.03 2.6 -12.1 --- --- 718.1 0.020 0.000 9.2 4 1
02/10/06 2:24 p -10.6 -10.6 -10.6 --- --- 2.6 NW 0.04 3.5 -13.4 --- --- 718.2 0.020 0.000 9.2 4 1
02/10/06 2:25 p -10.7 -10.7 -10.7 --- --- 2.6 NW 0.04 3.5 -13.6 --- --- 718.1 0.020 0.000 9.2 4 1
02/10/06 2:26 p -10.7 -10.7 -10.8 --- --- 2.6 NW 0.04 2.6 -13.6 --- --- 718.1 0.020 0.000 9.2 4 1
02/10/06 2:27 p -10.8 -10.8 -10.8 --- --- 3.5 NW 0.06 4.3 -14.6 --- --- 718.2 0.020 0.000 9.2 4 1
02/10/06 2:28 p -10.7 -10.6 -10.7 --- --- 3.5 NW 0.06 4.3 -14.5 --- --- 718.1 0.020 0.000 9.1 4 1
02/10/06 2:29 p -10.6 -10.5 -10.6 --- --- 2.6 NW 0.04 2.6 -13.4 --- --- 718.1 0.020 0.000 9.1 4 1
02/10/06 2:30 p -10.4 -10.4 -10.5 --- --- 2.6 NW 0.04 3.5 -13.3 --- --- 718.0 0.020 0.000 9.1 4 1
02/10/06 2:31 p -10.5 -10.5 -10.6 --- --- 1.7 NW 0.03 2.6 -12.1 --- --- 717.9 0.020 0.000 9.1 4 1
02/10/06 2:32 p -10.6 -10.6 -10.6 --- --- 1.7 NW 0.03 3.5 -12.2 --- --- 718.0 0.020 0.000 9.1 4 1
02/10/06 2:33 p -10.6 -10.6 -10.6 --- --- 1.7 NW 0.03 2.6 -12.2 --- --- 718.0 0.020 0.000 9.1 4 1
02/10/06 2:34 p -10.6 -10.6 -10.6 --- --- 1.7 NW 0.03 2.6 -12.2 --- --- 717.9 0.020 0.000 9.1 4 1
02/10/06 2:35 p -10.6 -10.6 -10.6 --- --- 2.6 NW 0.04 3.5 -13.4 --- --- 717.9 0.020 0.000 9.1 4 1
02/10/06 2:36 p -10.6 -10.6 -10.7 --- --- 2.6 NNW 0.04 3.5 -13.5 --- --- 717.9 0.020 0.000 9.1 4 1
02/10/06 2:37 p -10.7 -10.6 -10.7 --- --- 2.6 N 0.04 4.3 -13.6 --- --- 717.9 0.020 0.000 9.1 4 1
02/10/06 2:38 p -10.7 -10.6 -10.7 --- --- 3.5 N 0.06 4.3 -14.5 --- --- 717.9 0.020 0.000 9.1 4 1
02/10/06 2:39 p -10.7 -10.7 -10.8 --- --- 3.5 N 0.06 3.5 -14.6 --- --- 717.9 0.020 0.000 9.2 4 1
02/10/06 2:40 p -10.9 -10.8 -10.9 --- --- 3.5 N 0.06 4.3 -14.8 --- --- 717.9 0.020 0.000 9.2 4 1
02/10/06 2:41 p -10.9 -10.8 -10.9 --- --- 3.5 N 0.06 3.5 -14.8 --- --- 717.9 0.020 0.000 9.2 4 1
02/10/06 2:42 p -10.8 -10.8 -10.8 --- --- 3.5 N 0.06 4.3 -14.6 --- --- 718.0 0.020 0.000 9.2 4 1
02/10/06 2:43 p -10.8 -10.8 -10.8 --- --- 4.3 N 0.07 5.2 -15.4 --- --- 717.9 0.020 0.000 9.2 4 1
02/10/06 2:44 p -10.9 -10.9 -10.9 --- --- 3.5 N 0.06 3.5 -14.8 --- --- 717.8 0.020 0.000 9.2 4 1
02/10/06 2:45 p -11.0 -10.9 -11.0 --- --- 3.5 N 0.06 3.5 -14.9 --- --- 717.9 0.020 0.000 9.2 4 1
02/10/06 2:46 p -11.0 -11.0 -11.1 --- --- 3.5 N 0.06 3.5 -14.9 --- --- 717.8 0.020 0.000 9.2 4 1
02/10/06 2:47 p -11.1 -11.1 -11.1 --- --- 3.5 N 0.06 4.3 -14.9 --- --- 717.8 0.020 0.000 9.2 4 1
02/10/06 2:48 p -11.0 -10.9 -11.1 --- --- 3.5 N 0.06 4.3 -14.9 --- --- 717.8 0.020 0.000 9.2 4 1
02/10/06 2:49 p -11.0 -10.9 -11.0 --- --- 4.3 N 0.07 4.3 -15.7 --- --- 717.8 0.020 0.000 9.2 4 1
02/10/06 2:50 p -10.9 -10.9 -11.0 --- --- 4.3 N 0.07 5.2 -15.6 --- --- 717.8 0.020 0.000 9.3 4 1
02/10/06 2:51 p -11.0 -10.9 -11.0 --- --- 4.3 N 0.07 4.3 -15.7 --- --- 717.7 0.020 0.000 9.3 4 1
02/10/06 2:52 p -11.1 -11.1 -11.1 --- --- 4.3 N 0.07 4.3 -15.7 --- --- 717.8 0.020 0.000 9.3 4 1
02/10/06 2:53 p -11.1 -11.0 -11.1 --- --- 4.3 N 0.07 5.2 -15.7 --- --- 717.8 0.020 0.000 9.3 4 1
02/10/06 2:54 p -11.0 -10.9 -11.0 --- --- 4.3 N 0.07 4.3 -15.7 --- --- 717.8 0.020 0.000 9.3 4 1
02/10/06 2:55 p -11.0 -11.0 -11.0 --- --- 3.5 N 0.06 4.3 -14.9 --- --- 717.8 0.020 0.000 9.3 4 1
02/10/06 2:56 p -11.0 -10.9 -11.0 --- --- 3.5 N 0.06 4.3 -14.9 --- --- 717.8 0.020 0.000 9.3 4 1
02/10/06 2:57 p -11.0 -11.0 -11.0 --- --- 3.5 N 0.06 4.3 -14.9 --- --- 717.8 0.020 0.000 9.3 4 1
02/10/06 2:58 p -10.9 -10.9 -11.0 --- --- 3.5 N 0.06 4.3 -14.8 --- --- 717.8 0.020 0.000 9.3 4 1
02/10/06 2:59 p -11.0 -11.0 -11.0 --- --- 4.3 N 0.07 4.3 -15.7 --- --- 717.8 0.020 0.000 9.3 4 1
02/10/06 3:00 p -11.0 -11.0 -11.0 --- --- 3.5 N 0.06 4.3 -14.9 --- --- 717.8 0.020 0.000 9.3 4 1
02/10/06 3:01 p -11.0 -10.9 -11.0 --- --- 3.5 N 0.06 4.3 -14.9 --- --- 717.8 0.020 0.000 9.4 4 1
02/10/06 3:02 p -10.9 -10.9 -10.9 --- --- 3.5 N 0.06 4.3 -14.8 --- --- 717.7 0.020 0.000 9.3 4 1
02/10/06 3:03 p -10.9 -10.9 -10.9 --- --- 3.5 N 0.06 4.3 -14.8 --- --- 717.8 0.020 0.000 9.3 4 1
02/10/06 3:04 p -11.0 -10.9 -11.0 --- --- 4.3 N 0.07 4.3 -15.7 --- --- 717.7 0.020 0.000 9.4 4 1
02/10/06 3:05 p -11.1 -11.1 -11.1 --- --- 4.3 N 0.07 4.3 -15.7 --- --- 717.7 0.020 0.000 9.4 4 1
02/10/06 3:06 p -11.1 -11.1 -11.1 --- --- 3.5 N 0.06 3.5 -15.0 --- --- 717.7 0.020 0.000 9.4 4 1
02/10/06 3:07 p -11.1 -11.1 -11.1 --- --- 3.5 N 0.06 4.3 -15.0 --- --- 717.7 0.020 0.000 9.4 4 1
02/10/06 3:08 p -11.1 -11.1 -11.2 --- --- 3.5 N 0.06 3.5 -15.0 --- --- 717.8 0.020 0.000 9.4 4 1
02/10/06 3:09 p -11.1 -11.1 -11.2 --- --- 3.5 N 0.06 3.5 -15.0 --- --- 717.7 0.020 0.000 9.4 4 1
02/10/06 3:10 p -11.1 -11.1 -11.1 --- --- 3.5 N 0.06 4.3 -15.0 --- --- 717.7 0.020 0.000 9.4 4 1
02/10/06 3:11 p -11.1 -11.0 -11.1 --- --- 3.5 N 0.06 4.3 -14.9 --- --- 717.8 0.020 0.000 9.4 4 1
02/10/06 3:12 p -11.0 -10.9 -11.0 --- --- 3.5 N 0.06 4.3 -14.9 --- --- 717.7 0.020 0.000 9.4 4 1
02/10/06 3:13 p -10.9 -10.9 -10.9 --- --- 3.5 N 0.06 4.3 -14.8 --- --- 717.7 0.020 0.000 9.4 4 1
02/10/06 3:14 p -10.9 -10.9 -11.0 --- --- 3.5 N 0.06 4.3 -14.8 --- --- 717.7 0.020 0.000 9.4 4 1
02/10/06 3:15 p -10.9 -10.9 -10.9 --- --- 4.3 N 0.07 4.3 -15.6 --- --- 717.7 0.020 0.000 9.4 4 1
02/10/06 3:16 p -10.9 -10.9 -10.9 --- --- 4.3 N 0.07 4.3 -15.6 --- --- 717.7 0.020 0.000 9.4 4 1
02/10/06 3:17 p -11.0 -11.0 -11.0 --- --- 3.5 N 0.06 4.3 -14.9 --- --- 717.7 0.020 0.000 9.4 4 1
02/10/06 3:18 p -11.0 -10.9 -11.0 --- --- 3.5 N 0.06 4.3 -14.9 --- --- 717.7 0.020 0.000 9.4 4 1
02/10/06 3:19 p -10.9 -10.9 -11.0 --- --- 4.3 N 0.07 4.3 -15.6 --- --- 717.7 0.020 0.000 9.4 4 1
02/10/06 3:20 p -10.9 -10.9 -10.9 --- --- 3.5 N 0.06 4.3 -14.8 --- --- 717.7 0.020 0.000 9.5 4 1
02/10/06 3:21 p -10.9 -10.9 -11.0 --- --- 3.5 N 0.06 5.2 -14.8 --- --- 717.7 0.020 0.000 9.5 4 1
02/10/06 3:22 p -10.9 -10.9 -10.9 --- --- 3.5 N 0.06 4.3 -14.8 --- --- 717.7 0.020 0.000 9.5 4 1
02/10/06 3:23 p -10.9 -10.9 -10.9 --- --- 3.5 N 0.06 4.3 -14.8 --- --- 717.7 0.020 0.000 9.5 4 1
02/10/06 3:24 p -10.9 -10.9 -10.9 --- --- 3.5 N 0.06 4.3 -14.8 --- --- 717.7 0.020 0.000 9.5 4 1
02/10/06 3:25 p -10.9 -10.9 -11.0 --- --- 3.5 N 0.06 4.3 -14.8 --- --- 717.7 0.020 0.000 9.5 4 1
02/10/06 3:26 p -11.0 -11.0 -11.0 --- --- 3.5 N 0.06 4.3 -14.9 --- --- 717.7 0.020 0.000 9.5 4 1
02/10/06 3:27 p -11.0 -11.0 -11.0 --- --- 3.5 N 0.06 4.3 -14.9 --- --- 717.7 0.020 0.000 9.5 4 1
02/10/06 3:28 p -11.0 -11.0 -11.1 --- --- 3.5 N 0.06 4.3 -14.9 --- --- 717.7 0.020 0.000 9.5 4 1
02/10/06 3:29 p -11.0 -11.0 -11.0 --- --- 3.5 N 0.06 4.3 -14.9 --- --- 717.6 0.020 0.000 9.6 4 1
02/10/06 3:30 p -11.1 -11.0 -11.1 --- --- 4.3 N 0.07 4.3 -15.7 --- --- 717.7 0.020 0.000 9.6 4 1
02/10/06 3:31 p -11.0 -11.0 -11.1 --- --- 4.3 N 0.07 4.3 -15.7 --- --- 717.6 0.020 0.000 9.6 4 1
02/10/06 3:32 p -11.1 -11.1 -11.1 --- --- 3.5 N 0.06 4.3 -14.9 --- --- 717.7 0.020 0.000 9.6 4 1
02/10/06 3:33 p -11.2 -11.1 -11.2 --- --- 4.3 N 0.07 4.3 -15.8 --- --- 717.6 0.020 0.000 9.6 4 1
02/10/06 3:34 p -11.1 -11.1 -11.1 --- --- 4.3 N 0.07 5.2 -15.8 --- --- 717.5 0.020 0.000 9.6 4 1
02/10/06 3:35 p -11.1 -11.1 -11.1 --- --- 4.3 N 0.07 5.2 -15.8 --- --- 717.7 0.020 0.000 9.6 4 1
02/10/06 3:36 p -11.1 -11.1 -11.2 --- --- 4.3 N 0.07 5.2 -15.8 --- --- 717.6 0.020 0.000 9.6 4 1
02/10/06 3:37 p -11.1 -11.1 -11.2 --- --- 5.2 N 0.09 6.1 -16.4 --- --- 717.6 0.020 0.000 9.6 4 1
02/10/06 3:38 p -11.2 -11.1 -11.2 --- --- 5.2 N 0.09 6.1 -16.5 --- --- 717.6 0.020 0.000 9.6 4 1
02/10/06 3:39 p -11.2 -11.2 -11.2 --- --- 4.3 N 0.07 5.2 -15.8 --- --- 717.6 0.020 0.000 9.6 4 1
02/10/06 3:40 p -11.2 -11.2 -11.2 --- --- 5.2 N 0.09 6.1 -16.6 --- --- 717.7 0.021 0.000 9.6 4 1
02/10/06 3:41 p -11.3 -11.2 -11.3 --- --- 5.2 N 0.09 6.1 -16.6 --- --- 717.6 0.021 0.000 9.6 4 1
02/10/06 3:42 p -11.3 -11.3 -11.3 --- --- 5.2 N 0.09 6.1 -16.6 --- --- 717.6 0.021 0.000 9.6 4 1
02/10/06 3:43 p -11.3 -11.3 -11.3 --- --- 6.1 N 0.10 6.1 -17.2 --- --- 717.6 0.021 0.000 9.6 4 1
02/10/06 3:44 p -11.3 -11.3 -11.4 --- --- 6.1 N 0.10 6.1 -17.3 --- --- 717.5 0.021 0.000 9.6 4 1
02/10/06 3:45 p -11.4 -11.3 -11.4 --- --- 6.1 N 0.10 6.1 -17.3 --- --- 717.5 0.021 0.000 9.6 4 1
02/10/06 3:46 p -11.4 -11.3 -11.4 --- --- 6.1 N 0.10 6.1 -17.3 --- --- 717.6 0.021 0.000 9.6 4 1
02/10/06 3:47 p -11.3 -11.3 -11.3 --- --- 5.2 N 0.09 6.1 -16.7 --- --- 717.5 0.021 0.000 9.6 4 1
02/10/06 3:48 p -11.3 -11.3 -11.3 --- --- 5.2 N 0.09 6.1 -16.7 --- --- 717.5 0.021 0.000 9.6 4 1
02/10/06 3:49 p -11.3 -11.3 -11.3 --- --- 5.2 N 0.09 6.1 -16.6 --- --- 717.5 0.021 0.000 9.6 4 1
02/10/06 3:50 p -11.3 -11.3 -11.3 --- --- 5.2 N 0.09 6.1 -16.7 --- --- 717.5 0.021 0.000 9.6 4 1
02/10/06 3:51 p -11.3 -11.3 -11.3 --- --- 5.2 N 0.09 6.1 -16.6 --- --- 717.5 0.021 0.000 9.6 4 1
02/10/06 3:52 p -11.3 -11.3 -11.3 --- --- 5.2 N 0.09 6.1 -16.6 --- --- 717.6 0.021 0.000 9.6 4 1
02/10/06 3:53 p -11.3 -11.3 -11.3 --- --- 5.2 N 0.09 6.1 -16.7 --- --- 717.5 0.021 0.000 9.6 4 1
02/10/06 3:54 p -11.3 -11.3 -11.3 --- --- 6.1 N 0.10 6.1 -17.3 --- --- 717.5 0.021 0.000 9.6 4 1
02/10/06 3:55 p -11.3 -11.3 -11.3 --- --- 6.1 N 0.10 6.1 -17.2 --- --- 717.6 0.021 0.000 9.6 4 1
02/10/06 3:56 p -11.3 -11.3 -11.3 --- --- 5.2 N 0.09 6.1 -16.6 --- --- 717.5 0.021 0.000 9.6 4 1
02/10/06 3:57 p -11.3 -11.3 -11.3 --- --- 5.2 N 0.09 6.1 -16.6 --- --- 717.5 0.021 0.000 9.6 4 1
02/10/06 3:58 p -11.3 -11.3 -11.3 --- --- 5.2 N 0.09 6.1 -16.7 --- --- 717.5 0.021 0.000 9.6 4 1
02/10/06 3:59 p -11.4 -11.3 -11.4 --- --- 5.2 N 0.09 6.1 -16.8 --- --- 717.5 0.021 0.000 9.6 4 1
02/10/06 4:00 p -11.4 -11.4 -11.4 --- --- 5.2 N 0.09 6.1 -16.8 --- --- 717.5 0.021 0.000 9.6 4 1
02/10/06 4:01 p -11.4 -11.3 -11.4 --- --- 5.2 N 0.09 6.1 -16.8 --- --- 717.5 0.021 0.000 9.6 4 1
02/10/06 4:02 p -11.4 -11.4 -11.4 --- --- 6.1 N 0.10 6.1 -17.4 --- --- 717.5 0.021 0.000 9.7 4 1
02/10/06 4:03 p -11.4 -11.4 -11.4 --- --- 5.2 N 0.09 6.1 -16.8 --- --- 717.5 0.021 0.000 9.7 4 1
02/10/06 4:04 p -11.4 -11.4 -11.4 --- --- 5.2 N 0.09 6.1 -16.8 --- --- 717.5 0.021 0.000 9.6 4 1
02/10/06 4:05 p -11.4 -11.4 -11.4 --- --- 6.1 N 0.10 6.1 -17.4 --- --- 717.4 0.021 0.000 9.6 4 1
02/10/06 4:06 p -11.4 -11.4 -11.4 --- --- 5.2 N 0.09 6.1 -16.8 --- --- 717.4 0.021 0.000 9.7 4 1
02/10/06 4:07 p -11.4 -11.4 -11.5 --- --- 6.1 N 0.10 6.1 -17.4 --- --- 717.5 0.021 0.000 9.7 4 1
02/10/06 4:08 p -11.5 -11.4 -11.5 --- --- 6.1 N 0.10 6.1 -17.4 --- --- 717.4 0.021 0.000 9.7 4 1
02/10/06 4:09 p -11.4 -11.4 -11.4 --- --- 5.2 N 0.09 6.1 -16.8 --- --- 717.5 0.021 0.000 9.7 4 1
02/10/06 4:10 p -11.4 -11.4 -11.4 --- --- 6.1 N 0.10 7.0 -17.4 --- --- 717.4 0.021 0.000 9.7 4 1
02/10/06 4:11 p -11.4 -11.4 -11.4 --- --- 6.1 N 0.10 7.0 -17.3 --- --- 717.4 0.021 0.000 9.7 4 1
02/10/06 4:12 p -11.4 -11.4 -11.4 --- --- 6.1 N 0.10 7.0 -17.4 --- --- 717.4 0.021 0.000 9.7 4 1
02/10/06 4:13 p -11.4 -11.4 -11.4 --- --- 6.1 N 0.10 7.0 -17.4 --- --- 717.5 0.021 0.000 9.7 4 1
02/10/06 4:14 p -11.4 -11.4 -11.4 --- --- 6.1 N 0.10 7.0 -17.4 --- --- 717.4 0.021 0.000 9.7 4 1
02/10/06 4:15 p -11.4 -11.4 -11.4 --- --- 6.1 N 0.10 7.0 -17.3 --- --- 717.5 0.021 0.000 9.7 4 1
02/10/06 4:16 p -11.4 -11.4 -11.4 --- --- 6.1 N 0.10 7.0 -17.4 --- --- 717.4 0.021 0.000 9.7 4 1
02/10/06 4:17 p -11.4 -11.4 -11.4 --- --- 7.0 N 0.12 7.0 -17.8 --- --- 717.4 0.021 0.000 9.7 4 1
02/10/06 4:18 p -11.4 -11.4 -11.4 --- --- 6.1 N 0.10 7.0 -17.3 --- --- 717.4 0.021 0.000 9.7 4 1
02/10/06 4:19 p -11.4 -11.4 -11.4 --- --- 7.0 N 0.12 7.0 -17.8 --- --- 717.4 0.021 0.000 9.7 4 1
02/10/06 4:20 p -11.4 -11.4 -11.4 --- --- 6.1 N 0.10 7.0 -17.4 --- --- 717.4 0.021 0.000 9.7 4 1
02/10/06 4:21 p -11.4 -11.4 -11.4 --- --- 6.1 N 0.10 7.0 -17.3 --- --- 717.4 0.021 0.000 9.7 4 1
02/10/06 4:22 p -11.4 -11.4 -11.4 --- --- 7.0 N 0.12 7.0 -17.8 --- --- 717.3 0.021 0.000 9.7 4 1
02/10/06 4:23 p -11.4 -11.4 -11.4 --- --- 6.1 N 0.10 7.0 -17.3 --- --- 717.3 0.021 0.000 9.7 4 1
02/10/06 4:24 p -11.4 -11.4 -11.4 --- --- 6.1 N 0.10 7.0 -17.3 --- --- 717.4 0.021 0.000 9.7 4 1
02/10/06 4:25 p -11.4 -11.4 -11.4 --- --- 6.1 N 0.10 7.0 -17.3 --- --- 717.3 0.021 0.000 9.7 4 1
02/10/06 4:26 p -11.3 -11.3 -11.4 --- --- 6.1 N 0.10 7.0 -17.3 --- --- 717.3 0.021 0.000 9.7 4 1
02/10/06 4:27 p -11.4 -11.4 -11.4 --- --- 6.1 N 0.10 7.0 -17.3 --- --- 717.4 0.021 0.000 9.7 4 1
02/10/06 4:28 p -11.4 -11.4 -11.4 --- --- 6.1 N 0.10 7.0 -17.3 --- --- 717.3 0.021 0.000 9.7 4 1
02/10/06 4:29 p -11.4 -11.4 -11.4 --- --- 6.1 N 0.10 7.0 -17.3 --- --- 717.4 0.021 0.000 9.7 4 1
02/10/06 4:30 p -11.4 -11.4 -11.4 --- --- 6.1 N 0.10 7.0 -17.3 --- --- 717.3 0.021 0.000 9.7 4 1
02/10/06 4:31 p -11.4 -11.4 -11.4 --- --- 6.1 N 0.10 7.0 -17.4 --- --- 717.3 0.021 0.000 9.7 4 1
02/10/06 4:32 p -11.4 -11.4 -11.4 --- --- 6.1 N 0.10 7.0 -17.4 --- --- 717.4 0.021 0.000 9.7 4 1
02/10/06 4:33 p -11.4 -11.4 -11.5 --- --- 7.0 N 0.12 7.0 -17.8 --- --- 717.4 0.021 0.000 9.7 4 1
02/10/06 4:34 p -11.6 -11.5 -11.6 --- --- 7.0 N 0.12 7.8 -18.0 --- --- 717.3 0.021 0.000 9.7 4 1
02/10/06 4:35 p -11.6 -11.6 -11.6 --- --- 7.0 N 0.12 7.8 -18.0 --- --- 717.2 0.021 0.000 9.7 4 1
02/10/06 4:36 p -11.6 -11.6 -11.7 --- --- 7.0 N 0.12 7.0 -18.1 --- --- 717.4 0.021 0.000 9.7 4 1
02/10/06 4:37 p -11.6 -11.6 -11.7 --- --- 7.0 N 0.12 7.8 -18.1 --- --- 717.3 0.021 0.000 9.7 4 1
02/10/06 4:38 p -11.7 -11.7 -11.7 --- --- 7.0 N 0.12 7.8 -18.1 --- --- 717.2 0.021 0.000 9.7 4 1
02/10/06 4:39 p -11.7 -11.7 -11.7 --- --- 7.0 N 0.12 7.8 -18.1 --- --- 717.3 0.021 0.000 9.7 4 1
02/10/06 4:40 p -11.7 -11.7 -11.7 --- --- 6.1 N 0.10 7.0 -17.7 --- --- 717.3 0.021 0.000 9.7 4 1
02/10/06 4:41 p -11.7 -11.7 -11.7 --- --- 7.0 N 0.12 7.8 -18.1 --- --- 717.3 0.021 0.000 9.7 4 1
02/10/06 4:42 p -11.7 -11.7 -11.8 --- --- 7.0 N 0.12 7.8 -18.2 --- --- 717.3 0.021 0.000 9.7 4 1
02/10/06 4:43 p -11.8 -11.8 -11.8 --- --- 7.0 N 0.12 7.8 -18.3 --- --- 717.4 0.021 0.000 9.7 4 1
02/10/06 4:44 p -11.8 -11.7 -11.8 --- --- 7.0 N 0.12 7.8 -18.3 --- --- 717.3 0.021 0.000 9.8 4 1
02/10/06 4:45 p -11.7 -11.7 -11.8 --- --- 7.0 N 0.12 7.8 -18.2 --- --- 717.4 0.021 0.000 9.7 4 1
02/10/06 4:46 p -11.8 -11.7 -11.8 --- --- 7.0 N 0.12 7.8 -18.3 --- --- 717.4 0.021 0.000 9.8 4 1
02/10/06 4:47 p -11.8 -11.8 -11.8 --- --- 7.0 N 0.12 7.8 -18.3 --- --- 717.3 0.021 0.000 9.8 4 1
02/10/06 4:48 p -11.8 -11.8 -11.8 --- --- 7.0 N 0.12 7.0 -18.3 --- --- 717.4 0.021 0.000 9.8 4 1
02/10/06 4:49 p -11.8 -11.8 -11.8 --- --- 7.0 N 0.12 7.0 -18.3 --- --- 717.4 0.021 0.000 9.7 4 1
02/10/06 4:50 p -11.8 -11.8 -11.8 --- --- 7.0 N 0.12 7.8 -18.3 --- --- 717.4 0.021 0.000 9.7 4 1
02/10/06 4:51 p -11.8 -11.7 -11.8 --- --- 7.0 N 0.12 7.0 -18.3 --- --- 717.3 0.021 0.000 9.7 4 1
02/10/06 4:52 p -11.7 -11.7 -11.8 --- --- 6.1 N 0.10 7.0 -17.7 --- --- 717.4 0.021 0.000 9.7 4 1
02/10/06 4:53 p -11.7 -11.7 -11.7 --- --- 6.1 N 0.10 7.0 -17.7 --- --- 717.3 0.021 0.000 9.7 4 1
02/10/06 4:54 p -11.7 -11.7 -11.7 --- --- 6.1 N 0.10 7.0 -17.7 --- --- 717.3 0.021 0.000 9.6 4 1
02/10/06 4:55 p -11.7 -11.7 -11.8 --- --- 6.1 N 0.10 7.0 -17.7 --- --- 717.3 0.021 0.000 9.6 4 1
02/10/06 4:56 p -11.7 -11.7 -11.8 --- --- 7.0 N 0.12 7.0 -18.2 --- --- 717.3 0.021 0.000 9.6 4 1
02/10/06 4:57 p -11.6 -11.6 -11.6 --- --- 7.0 N 0.12 7.0 -18.1 --- --- 717.3 0.021 0.000 9.6 4 1
02/10/06 4:58 p -11.6 -11.6 -11.6 --- --- 6.1 N 0.10 7.0 -17.6 --- --- 717.4 0.021 0.000 9.6 4 1
02/10/06 4:59 p -11.6 -11.6 -11.7 --- --- 6.1 N 0.10 6.1 -17.6 --- --- 717.3 0.021 0.000 9.6 4 1
02/10/06 5:00 p -11.6 -11.6 -11.7 --- --- 5.2 N 0.09 6.1 -17.1 --- --- 717.3 0.021 0.000 9.6 4 1
02/10/06 5:01 p -11.6 -11.6 -11.7 --- --- 5.2 N 0.09 6.1 -17.1 --- --- 717.3 0.021 0.000 9.6 4 1
02/10/06 5:03 p -11.6 -11.6 -11.6 --- --- 5.2 N 0.09 6.1 -16.9 --- --- 717.3 0.021 0.000 9.5 4 1
02/10/06 5:04 p -11.5 -11.5 -11.6 --- --- 6.1 N 0.10 6.1 -17.4 --- --- 717.3 0.021 0.000 9.5 4 1
02/10/06 5:05 p -11.5 -11.4 -11.5 --- --- 5.2 N 0.09 6.1 -16.9 --- --- 717.4 0.021 0.000 9.4 4 1
02/10/06 5:06 p -11.5 -11.4 -11.5 --- --- 5.2 N 0.09 6.1 -16.9 --- --- 717.3 0.021 0.000 9.4 4 1
02/10/06 5:07 p -11.4 -11.4 -11.4 --- --- 5.2 N 0.09 6.1 -16.8 --- --- 717.3 0.021 0.000 9.4 4 1
02/10/06 5:08 p -11.4 -11.4 -11.4 --- --- 5.2 N 0.09 6.1 -16.8 --- --- 717.3 0.021 0.000 9.4 4 1
02/10/06 5:09 p -11.4 -11.4 -11.5 --- --- 5.2 N 0.09 6.1 -16.8 --- --- 717.3 0.021 0.000 9.4 4 1
02/10/06 5:10 p -11.5 -11.5 -11.5 --- --- 4.3 N 0.07 5.2 -16.2 --- --- 717.2 0.021 0.000 9.4 4 1
02/10/06 5:11 p -11.5 -11.4 -11.5 --- --- 4.3 N 0.07 6.1 -16.2 --- --- 717.3 0.021 0.000 9.4 4 1
02/10/06 5:12 p -11.4 -11.4 -11.4 --- --- 4.3 N 0.07 5.2 -16.2 --- --- 717.4 0.021 0.000 9.4 4 1
02/10/06 5:13 p -11.4 -11.4 -11.4 --- --- 4.3 N 0.07 5.2 -16.2 --- --- 717.3 0.021 0.000 9.4 4 1
02/10/06 5:14 p -11.4 -11.4 -11.4 --- --- 4.3 N 0.07 5.2 -16.2 --- --- 717.3 0.021 0.000 9.3 4 1
02/10/06 5:15 p -11.4 -11.4 -11.5 --- --- 4.3 N 0.07 6.1 -16.2 --- --- 717.3 0.021 0.000 9.3 4 1
02/10/06 5:16 p -11.5 -11.4 -11.5 --- --- 4.3 N 0.07 5.2 -16.2 --- --- 717.4 0.021 0.000 9.3 4 1
02/10/06 5:17 p -11.5 -11.4 -11.5 --- --- 3.5 N 0.06 4.3 -15.4 --- --- 717.3 0.021 0.000 9.3 4 1
02/10/06 5:18 p -11.5 -11.5 -11.5 --- --- 4.3 N 0.07 5.2 -16.2 --- --- 717.3 0.021 0.000 9.3 4 1
02/10/06 5:19 p -11.4 -11.4 -11.5 --- --- 4.3 N 0.07 4.3 -16.2 --- --- 717.3 0.021 0.000 9.3 4 1
02/10/06 5:20 p -11.4 -11.4 -11.4 --- --- 4.3 N 0.07 5.2 -16.2 --- --- 717.3 0.021 0.000 9.3 4 1
02/10/06 5:21 p -11.4 -11.4 -11.4 --- --- 4.3 N 0.07 5.2 -16.2 --- --- 717.2 0.021 0.000 9.3 4 1
02/10/06 5:22 p -11.4 -11.4 -11.4 --- --- 4.3 N 0.07 5.2 -16.2 --- --- 717.3 0.021 0.000 9.3 4 1
02/10/06 5:23 p -11.4 -11.4 -11.4 --- --- 4.3 N 0.07 5.2 -16.2 --- --- 717.2 0.021 0.000 9.3 4 1
02/10/06 5:24 p -11.4 -11.3 -11.4 --- --- 4.3 N 0.07 5.2 -16.2 --- --- 717.2 0.021 0.000 9.2 4 1
02/10/06 5:25 p -11.3 -11.3 -11.3 --- --- 3.5 N 0.06 4.3 -15.3 --- --- 717.3 0.021 0.000 9.2 4 1
02/10/06 5:26 p -11.3 -11.3 -11.3 --- --- 3.5 N 0.06 4.3 -15.3 --- --- 717.3 0.021 0.000 9.2 4 1
02/10/06 5:27 p -11.3 -11.3 -11.4 --- --- 2.6 N 0.04 4.3 -14.3 --- --- 717.2 0.021 0.000 9.2 4 1
02/10/06 5:28 p -11.4 -11.3 -11.4 --- --- 2.6 N 0.04 3.5 -14.4 --- --- 717.3 0.021 0.000 9.2 4 1
02/10/06 5:29 p -11.4 -11.4 -11.4 --- --- 1.7 N 0.03 3.5 -13.1 --- --- 717.3 0.021 0.000 9.2 4 1
02/10/06 5:30 p -11.4 -11.4 -11.4 --- --- 2.6 N 0.04 3.5 -14.4 --- --- 717.2 0.021 0.000 9.2 4 1
02/10/06 5:31 p -11.4 -11.3 -11.4 --- --- 1.7 N 0.03 2.6 -13.1 --- --- 717.2 0.021 0.000 9.2 4 1
02/10/06 5:32 p -11.4 -11.3 -11.4 --- --- 1.7 N 0.03 3.5 -13.1 --- --- 717.2 0.021 0.000 9.2 4 1
02/10/06 5:33 p -11.4 -11.4 -11.4 --- --- 1.7 N 0.03 2.6 -13.1 --- --- 717.3 0.021 0.000 9.2 4 1
02/10/06 5:34 p -11.4 -11.4 -11.4 --- --- 0.9 N 0.01 2.6 -11.4 --- --- 717.2 0.021 0.000 9.2 4 1
02/10/06 5:35 p -11.4 -11.4 -11.4 --- --- 1.7 N 0.03 2.6 -13.1 --- --- 717.2 0.021 0.000 9.1 4 1
02/10/06 5:36 p -11.4 -11.4 -11.4 --- --- 1.7 N 0.03 2.6 -13.2 --- --- 717.2 0.021 0.000 9.1 4 1
02/10/06 5:37 p -11.4 -11.4 -11.5 --- --- 0.9 N 0.01 1.7 -11.4 --- --- 717.3 0.021 0.000 9.1 4 1
02/10/06 5:38 p -11.4 -11.4 -11.4 --- --- 1.7 N 0.03 2.6 -13.2 --- --- 717.2 0.021 0.000 9.1 4 1
02/10/06 5:39 p -11.4 -11.4 -11.4 --- --- 1.7 N 0.03 2.6 -13.1 --- --- 717.2 0.021 0.000 9.1 4 1
02/10/06 5:40 p -11.4 -11.4 -11.4 --- --- 1.7 N 0.03 1.7 -13.2 --- --- 717.2 0.021 0.000 9.1 4 1
02/10/06 5:41 p -11.4 -11.4 -11.4 --- --- 1.7 N 0.03 2.6 -13.1 --- --- 717.2 0.021 0.000 9.0 4 1
02/10/06 5:42 p -11.4 -11.4 -11.4 --- --- 1.7 N 0.03 2.6 -13.1 --- --- 717.2 0.021 0.000 9.0 4 1
02/10/06 5:43 p -11.4 -11.4 -11.4 --- --- 0.9 N 0.01 1.7 -11.4 --- --- 717.2 0.021 0.000 9.0 4 1
02/10/06 5:44 p -11.4 -11.3 -11.4 --- --- 0.9 N 0.01 1.7 -11.4 --- --- 717.1 0.021 0.000 9.0 4 1
02/10/06 5:45 p -11.4 -11.4 -11.4 --- --- 0.9 N 0.01 1.7 -11.4 --- --- 717.2 0.021 0.000 9.0 4 1
02/10/06 5:46 p -11.4 -11.4 -11.4 --- --- 0.9 N 0.01 1.7 -11.4 --- --- 717.2 0.021 0.000 9.0 4 1
02/10/06 5:47 p -11.4 -11.4 -11.4 --- --- 0.9 N 0.01 1.7 -11.4 --- --- 717.2 0.021 0.000 9.0 4 1
02/10/06 5:48 p -11.4 -11.4 -11.4 --- --- 0.9 N 0.01 1.7 -11.4 --- --- 717.1 0.021 0.000 9.1 4 1
02/10/06 5:49 p -11.4 -11.4 -11.4 --- --- 0.9 N 0.01 1.7 -11.4 --- --- 717.1 0.021 0.000 9.1 4 1
02/10/06 5:50 p -11.4 -11.4 -11.4 --- --- 0.0 N 0.00 0.9 -11.4 --- --- 717.1 0.021 0.000 9.1 4 1
02/10/06 5:51 p -11.4 -11.3 -11.4 --- --- 0.9 N 0.01 1.7 -11.4 --- --- 717.1 0.021 0.000 9.1 4 1
02/10/06 5:52 p -11.3 -11.3 -11.4 --- --- 0.9 N 0.01 1.7 -11.3 --- --- 717.1 0.021 0.000 9.1 4 1
02/10/06 5:53 p -11.3 -11.3 -11.3 --- --- 0.9 N 0.01 1.7 -11.3 --- --- 717.1 0.021 0.000 9.1 4 1
02/10/06 5:54 p -11.3 -11.3 -11.3 --- --- 0.9 N 0.01 1.7 -11.3 --- --- 717.1 0.021 0.000 9.1 4 1
02/10/06 5:55 p -11.3 -11.3 -11.3 --- --- 0.0 N 0.00 0.9 -11.3 --- --- 717.2 0.021 0.000 9.2 4 1
02/10/06 5:56 p -11.3 -11.2 -11.3 --- --- 0.0 N 0.00 0.9 -11.3 --- --- 717.1 0.021 0.000 9.2 4 1
02/10/06 5:57 p -11.2 -11.2 -11.2 --- --- 0.0 N 0.00 0.9 -11.2 --- --- 717.1 0.021 0.000 9.2 4 1
02/10/06 5:58 p -11.2 -11.2 -11.2 --- --- 0.9 N 0.01 0.9 -11.2 --- --- 717.0 0.021 0.000 9.2 4 1
02/10/06 5:59 p -11.2 -11.2 -11.2 --- --- 0.9 N 0.01 0.9 -11.2 --- --- 717.0 0.021 0.000 9.2 4 1
02/10/06 6:00 p -11.2 -11.2 -11.2 --- --- 0.9 N 0.01 0.9 -11.2 --- --- 717.1 0.021 0.000 9.2 4 1
02/10/06 6:01 p -11.2 -11.2 -11.2 --- --- 0.0 N 0.00 0.9 -11.2 --- --- 717.1 0.021 0.000 9.2 4 1
02/10/06 6:02 p -11.2 -11.2 -11.2 --- --- 0.0 N 0.00 0.9 -11.2 --- --- 717.0 0.021 0.000 9.2 4 1
02/10/06 6:03 p -11.2 -11.2 -11.2 --- --- 0.0 N 0.00 0.9 -11.2 --- --- 717.1 0.021 0.000 9.2 4 1
02/10/06 6:04 p -11.2 -11.2 -11.2 --- --- 0.9 N 0.01 1.7 -11.2 --- --- 717.1 0.020 0.000 9.2 4 1
02/10/06 6:05 p -11.2 -11.2 -11.2 --- --- 0.9 N 0.01 1.7 -11.2 --- --- 717.0 0.020 0.000 9.2 4 1
02/10/06 6:06 p -11.1 -11.1 -11.2 --- --- 0.9 N 0.01 1.7 -11.1 --- --- 717.0 0.020 0.000 9.3 4 1
02/10/06 6:07 p -11.1 -11.1 -11.1 --- --- 0.0 N 0.00 0.9 -11.1 --- --- 717.0 0.020 0.000 9.3 4 1
02/10/06 6:08 p -11.1 -11.1 -11.1 --- --- 0.0 N 0.00 0.9 -11.1 --- --- 716.9 0.020 0.000 9.3 4 1
02/10/06 6:09 p -11.1 -11.1 -11.1 --- --- 0.0 N 0.00 0.9 -11.1 --- --- 716.9 0.020 0.000 9.3 4 1
02/10/06 6:10 p -11.1 -11.1 -11.1 --- --- 0.0 N 0.00 0.9 -11.1 --- --- 717.0 0.020 0.000 9.3 4 1
02/10/06 6:11 p -11.1 -11.1 -11.1 --- --- 0.0 N 0.00 0.9 -11.1 --- --- 717.0 0.020 0.000 9.3 4 1
02/10/06 6:12 p -11.1 -11.1 -11.1 --- --- 0.0 N 0.00 0.9 -11.1 --- --- 717.0 0.020 0.000 9.3 4 1
02/10/06 6:13 p -11.1 -11.1 -11.1 --- --- 0.0 N 0.00 0.9 -11.1 --- --- 717.1 0.020 0.000 9.3 4 1
02/10/06 6:14 p -11.1 -11.1 -11.1 --- --- 0.9 N 0.01 1.7 -11.1 --- --- 716.9 0.020 0.000 9.3 4 1
02/10/06 6:15 p -11.1 -11.1 -11.1 --- --- 0.0 N 0.00 0.9 -11.1 --- --- 717.0 0.020 0.000 9.4 4 1
02/10/06 6:16 p -11.1 -11.1 -11.1 --- --- 0.0 N 0.00 0.9 -11.1 --- --- 717.0 0.020 0.000 9.4 4 1
02/10/06 6:17 p -11.1 -11.1 -11.1 --- --- 0.9 N 0.01 0.9 -11.1 --- --- 717.0 0.020 0.000 9.4 4 1
02/10/06 6:18 p -11.1 -11.1 -11.1 --- --- 0.9 N 0.01 1.7 -11.1 --- --- 717.0 0.020 0.000 9.4 4 1
02/10/06 6:19 p -11.1 -11.1 -11.1 --- --- 0.9 N 0.01 0.9 -11.1 --- --- 717.0 0.020 0.000 9.4 4 1
02/10/06 6:20 p -11.1 -11.1 -11.1 --- --- 0.9 N 0.01 1.7 -11.1 --- --- 717.0 0.020 0.000 9.4 4 1
02/10/06 6:21 p -11.1 -11.1 -11.1 --- --- 0.9 N 0.01 1.7 -11.1 --- --- 716.9 0.020 0.000 9.4 4 1
02/10/06 6:22 p -11.1 -11.1 -11.1 --- --- 1.7 N 0.03 2.6 -12.8 --- --- 717.0 0.020 0.000 9.4 4 1
02/10/06 6:23 p -11.1 -11.1 -11.1 --- --- 0.9 N 0.01 1.7 -11.1 --- --- 717.0 0.020 0.000 9.4 4 1
02/10/06 6:24 p -11.1 -11.1 -11.1 --- --- 0.9 N 0.01 1.7 -11.1 --- --- 717.0 0.020 0.000 9.4 4 1
02/10/06 6:25 p -11.1 -11.1 -11.1 --- --- 0.9 N 0.01 1.7 -11.1 --- --- 716.9 0.020 0.000 9.5 4 1
02/10/06 6:26 p -11.1 -11.1 -11.1 --- --- 2.6 N 0.04 2.6 -14.1 --- --- 716.9 0.020 0.000 9.5 4 1
02/10/06 6:27 p -11.1 -11.1 -11.1 --- --- 1.7 N 0.03 3.5 -12.8 --- --- 716.9 0.020 0.000 9.5 4 1
02/10/06 6:28 p -11.1 -11.1 -11.1 --- --- 1.7 N 0.03 1.7 -12.7 --- --- 716.9 0.020 0.000 9.5 4 1
02/10/06 6:29 p -11.1 -11.1 -11.1 --- --- 2.6 N 0.04 3.5 -14.1 --- --- 717.0 0.020 0.000 9.5 4 1
02/10/06 6:30 p -11.1 -11.1 -11.1 --- --- 2.6 N 0.04 2.6 -14.1 --- --- 717.0 0.020 0.000 9.5 4 1
02/10/06 6:31 p -11.1 -11.1 -11.1 --- --- 2.6 N 0.04 3.5 -14.1 --- --- 717.0 0.020 0.000 9.5 4 1
02/10/06 6:32 p -11.1 -11.1 -11.2 --- --- 2.6 N 0.04 4.3 -14.1 --- --- 716.9 0.020 0.000 9.5 4 1
02/10/06 6:33 p -11.1 -11.1 -11.2 --- --- 1.7 N 0.03 2.6 -12.8 --- --- 716.9 0.020 0.000 9.5 4 1
02/10/06 6:34 p -11.2 -11.1 -11.2 --- --- 1.7 N 0.03 2.6 -12.8 --- --- 716.9 0.020 0.000 9.6 4 1
02/10/06 6:35 p -11.2 -11.2 -11.2 --- --- 2.6 N 0.04 3.5 -14.1 --- --- 716.9 0.020 0.000 9.6 4 1
02/10/06 6:36 p -11.2 -11.2 -11.2 --- --- 2.6 N 0.04 3.5 -14.1 --- --- 717.0 0.020 0.000 9.6 4 1
02/10/06 6:37 p -11.2 -11.2 -11.2 --- --- 3.5 N 0.06 3.5 -15.1 --- --- 717.0 0.020 0.000 9.6 4 1
02/10/06 6:38 p -11.2 -11.2 -11.2 --- --- 2.6 N 0.04 2.6 -14.1 --- --- 717.0 0.020 0.000 9.6 4 1
02/10/06 6:39 p -11.1 -11.1 -11.2 --- --- 1.7 N 0.03 2.6 -12.8 --- --- 717.0 0.020 0.000 9.6 4 1
02/10/06 6:40 p -11.1 -11.1 -11.1 --- --- 2.6 N 0.04 3.5 -14.1 --- --- 717.0 0.020 0.000 9.6 4 1
02/10/06 6:41 p -11.1 -11.1 -11.1 --- --- 2.6 N 0.04 2.6 -14.0 --- --- 717.0 0.020 0.000 9.6 4 1
02/10/06 6:42 p -11.1 -11.1 -11.1 --- --- 1.7 N 0.03 2.6 -12.8 --- --- 716.9 0.020 0.000 9.6 4 1
02/10/06 6:43 p -11.1 -11.1 -11.1 --- --- 2.6 N 0.04 3.5 -14.1 --- --- 717.0 0.020 0.000 9.6 4 1
02/10/06 6:44 p -11.1 -11.1 -11.1 --- --- 2.6 N 0.04 2.6 -14.0 --- --- 716.9 0.020 0.000 9.6 4 1
02/10/06 6:45 p -11.1 -11.1 -11.1 --- --- 2.6 N 0.04 2.6 -14.0 --- --- 716.9 0.020 0.000 9.6 4 1
02/10/06 6:46 p -11.1 -11.1 -11.1 --- --- 2.6 N 0.04 3.5 -14.0 --- --- 717.0 0.020 0.000 9.6 4 1
02/10/06 6:47 p -11.1 -11.1 -11.1 --- --- 3.5 N 0.06 4.3 -14.9 --- --- 716.9 0.020 0.000 9.6 4 1
02/10/06 6:48 p -11.1 -11.1 -11.1 --- --- 3.5 N 0.06 3.5 -15.0 --- --- 716.9 0.020 0.000 9.6 4 1
02/10/06 6:49 p -11.1 -11.1 -11.1 --- --- 3.5 N 0.06 3.5 -15.0 --- --- 716.9 0.020 0.000 9.6 4 1
02/10/06 6:50 p -11.1 -11.1 -11.1 --- --- 2.6 N 0.04 3.5 -14.0 --- --- 716.8 0.020 0.000 9.6 4 1
02/10/06 6:51 p -11.1 -11.1 -11.1 --- --- 2.6 N 0.04 3.5 -14.0 --- --- 716.9 0.020 0.000 9.6 4 1
02/10/06 6:52 p -11.1 -11.0 -11.1 --- --- 2.6 N 0.04 4.3 -14.0 --- --- 716.9 0.020 0.000 9.6 4 1
02/10/06 6:53 p -11.0 -10.9 -11.0 --- --- 4.3 N 0.07 5.2 -15.7 --- --- 716.9 0.020 0.000 9.6 4 1
02/10/06 6:54 p -10.9 -10.9 -10.9 --- --- 3.5 NNW 0.06 4.3 -14.8 --- --- 716.9 0.020 0.000 9.6 4 1
02/10/06 6:55 p -10.9 -10.9 -10.9 --- --- 3.5 NNW 0.06 4.3 -14.8 --- --- 716.8 0.020 0.000 9.6 4 1
02/10/06 6:56 p -10.9 -10.9 -10.9 --- --- 3.5 NNW 0.06 3.5 -14.8 --- --- 716.9 0.020 0.000 9.6 4 1
02/10/06 6:57 p -10.9 -10.9 -10.9 --- --- 3.5 NNW 0.06 4.3 -14.8 --- --- 716.9 0.020 0.000 9.6 4 1
02/10/06 6:58 p -10.9 -10.9 -10.9 --- --- 4.3 NNW 0.07 4.3 -15.5 --- --- 716.9 0.020 0.000 9.6 4 1
02/10/06 6:59 p -10.9 -10.9 -10.9 --- --- 4.3 NNW 0.07 4.3 -15.5 --- --- 716.9 0.020 0.000 9.6 4 1
02/10/06 7:00 p -10.9 -10.9 -10.9 --- --- 4.3 NNW 0.07 4.3 -15.5 --- --- 716.9 0.020 0.000 9.7 4 1
02/10/06 7:01 p -10.9 -10.8 -10.9 --- --- 3.5 NNW 0.06 4.3 -14.8 --- --- 717.0 0.020 0.000 9.6 4 1
02/10/06 7:02 p -10.8 -10.8 -10.8 --- --- 3.5 NNW 0.06 4.3 -14.7 --- --- 717.0 0.020 0.000 9.6 4 1
02/10/06 7:03 p -10.9 -10.8 -10.9 --- --- 4.3 NNW 0.07 4.3 -15.5 --- --- 716.9 0.020 0.000 9.7 4 1
02/10/06 7:04 p -10.9 -10.9 -10.9 --- --- 4.3 NNW 0.07 5.2 -15.5 --- --- 717.0 0.020 0.000 9.6 4 1
02/10/06 7:05 p -10.9 -10.9 -10.9 --- --- 4.3 NNW 0.07 6.1 -15.5 --- --- 716.9 0.020 0.000 9.7 4 1
02/10/06 7:06 p -10.9 -10.8 -10.9 --- --- 5.2 NNW 0.09 5.2 -16.2 --- --- 716.9 0.020 0.000 9.7 4 1
02/10/06 7:07 p -10.8 -10.8 -10.9 --- --- 4.3 NNW 0.07 5.2 -15.4 --- --- 717.0 0.020 0.000 9.7 4 1
02/10/06 7:08 p -10.9 -10.9 -10.9 --- --- 5.2 NNW 0.09 6.1 -16.2 --- --- 716.9 0.020 0.000 9.6 4 1
02/10/06 7:09 p -10.8 -10.8 -10.8 --- --- 4.3 NNW 0.07 5.2 -15.4 --- --- 717.0 0.020 0.000 9.6 4 1
02/10/06 7:10 p -10.8 -10.8 -10.9 --- --- 5.2 NNW 0.09 6.1 -16.1 --- --- 717.0 0.020 0.000 9.5 4 1
02/10/06 7:11 p -10.8 -10.8 -10.9 --- --- 5.2 NNW 0.09 6.1 -16.1 --- --- 716.9 0.020 0.000 9.5 4 1
02/10/06 7:12 p -10.8 -10.8 -10.9 --- --- 5.2 NNW 0.09 6.1 -16.1 --- --- 716.9 0.020 0.000 9.4 4 1
02/10/06 7:13 p -10.8 -10.8 -10.8 --- --- 4.3 NNW 0.07 6.1 -15.4 --- --- 717.0 0.020 0.000 9.4 4 1
02/10/06 7:14 p -10.9 -10.8 -10.9 --- --- 6.1 NNW 0.10 7.0 -16.7 --- --- 716.9 0.020 0.000 9.5 4 1
02/10/06 7:15 p -10.9 -10.9 -10.9 --- --- 6.1 NNW 0.10 7.0 -16.7 --- --- 716.9 0.020 0.000 9.5 4 1
02/10/06 7:16 p -10.8 -10.8 -10.8 --- --- 5.2 NNW 0.09 6.1 -16.1 --- --- 716.9 0.020 0.000 9.5 4 1
02/10/06 7:17 p -10.8 -10.8 -10.8 --- --- 5.2 NNW 0.09 6.1 -16.1 --- --- 716.9 0.020 0.000 9.5 4 1
02/10/06 7:18 p -10.8 -10.8 -10.8 --- --- 4.3 NNW 0.07 5.2 -15.4 --- --- 716.9 0.020 0.000 9.5 4 1
02/10/06 7:19 p -10.8 -10.8 -10.9 --- --- 4.3 NNW 0.07 5.2 -15.4 --- --- 717.0 0.020 0.000 9.5 4 1
02/10/06 7:20 p -10.9 -10.9 -10.9 --- --- 4.3 NNW 0.07 5.2 -15.5 --- --- 716.9 0.020 0.000 9.5 4 1
02/10/06 7:21 p -10.9 -10.9 -10.9 --- --- 5.2 NNW 0.09 7.0 -16.2 --- --- 716.9 0.020 0.000 9.5 4 1
02/10/06 7:22 p -10.9 -10.9 -10.9 --- --- 5.2 NNW 0.09 5.2 -16.2 --- --- 716.9 0.020 0.000 9.4 4 1
02/10/06 7:23 p -11.0 -10.9 -11.0 --- --- 4.3 NNW 0.07 5.2 -15.7 --- --- 717.0 0.020 0.000 9.4 4 1
02/10/06 7:24 p -10.9 -10.9 -11.0 --- --- 5.2 NNW 0.09 5.2 -16.2 --- --- 716.9 0.020 0.000 9.4 4 1
02/10/06 7:25 p -10.9 -10.9 -10.9 --- --- 4.3 NNW 0.07 5.2 -15.6 --- --- 716.9 0.020 0.000 9.4 4 1
02/10/06 7:26 p -10.9 -10.9 -11.0 --- --- 5.2 NNW 0.09 6.1 -16.2 --- --- 716.9 0.020 0.000 9.4 4 1
02/10/06 7:27 p -10.9 -10.9 -10.9 --- --- 4.3 NNW 0.07 6.1 -15.6 --- --- 716.9 0.020 0.000 9.4 4 1
02/10/06 7:28 p -10.9 -10.9 -10.9 --- --- 5.2 NNW 0.09 7.0 -16.2 --- --- 716.9 0.020 0.000 9.4 4 1
02/10/06 7:29 p -10.9 -10.9 -10.9 --- --- 5.2 NNW 0.09 6.1 -16.2 --- --- 716.9 0.020 0.000 9.3 4 1
02/10/06 7:30 p -10.9 -10.9 -10.9 --- --- 5.2 NNW 0.09 5.2 -16.2 --- --- 716.9 0.020 0.000 9.3 4 1
02/10/06 7:31 p -10.9 -10.9 -10.9 --- --- 5.2 NNW 0.09 6.1 -16.2 --- --- 717.0 0.020 0.000 9.3 4 1
02/10/06 7:32 p -10.9 -10.9 -10.9 --- --- 4.3 NNW 0.07 5.2 -15.5 --- --- 717.0 0.020 0.000 9.3 4 1
02/10/06 7:33 p -10.9 -10.9 -10.9 --- --- 5.2 NNW 0.09 6.1 -16.2 --- --- 716.9 0.020 0.000 9.3 4 1
02/10/06 7:34 p -10.9 -10.9 -11.0 --- --- 5.2 NNW 0.09 6.1 -16.2 --- --- 716.8 0.020 0.000 9.3 4 1
02/10/06 7:35 p -11.0 -10.9 -11.0 --- --- 5.2 NNW 0.09 6.1 -16.3 --- --- 716.9 0.020 0.000 9.3 4 1
02/10/06 7:36 p -11.0 -10.9 -11.0 --- --- 6.1 NNW 0.10 7.0 -16.9 --- --- 716.9 0.020 0.000 9.3 4 1
02/10/06 7:37 p -11.0 -10.9 -11.0 --- --- 6.1 NNW 0.10 7.0 -16.9 --- --- 716.9 0.020 0.000 9.3 4 1
02/10/06 7:38 p -10.9 -10.9 -11.0 --- --- 4.3 NNW 0.07 5.2 -15.6 --- --- 716.9 0.020 0.000 9.3 4 1
02/10/06 7:39 p -10.9 -10.9 -10.9 --- --- 5.2 NNW 0.09 6.1 -16.2 --- --- 716.9 0.020 0.000 9.2 4 1
02/10/06 7:40 p -10.9 -10.9 -10.9 --- --- 5.2 N 0.09 6.1 -16.2 --- --- 716.9 0.020 0.000 9.2 4 1
02/10/06 7:41 p -10.9 -10.9 -11.0 --- --- 5.2 NNW 0.09 7.0 -16.2 --- --- 716.9 0.020 0.000 9.2 4 1
02/10/06 7:42 p -10.9 -10.9 -10.9 --- --- 6.1 NNW 0.10 7.0 -16.8 --- --- 716.8 0.020 0.000 9.2 4 1
02/10/06 7:43 p -10.9 -10.9 -11.0 --- --- 5.2 NNW 0.09 6.1 -16.2 --- --- 716.9 0.020 0.000 9.2 4 1
02/10/06 7:44 p -11.0 -10.9 -11.0 --- --- 4.3 NNW 0.07 5.2 -15.7 --- --- 716.9 0.020 0.000 9.2 4 1
02/10/06 7:45 p -11.0 -10.9 -11.0 --- --- 5.2 NNW 0.09 7.0 -16.3 --- --- 716.9 0.020 0.000 9.2 4 1
02/10/06 7:46 p -10.9 -10.9 -11.0 --- --- 6.1 NNW 0.10 7.8 -16.8 --- --- 716.9 0.020 0.000 9.1 4 1
02/10/06 7:47 p -10.9 -10.9 -10.9 --- --- 5.2 NNW 0.09 6.1 -16.2 --- --- 716.9 0.020 0.000 9.1 4 1
02/10/06 7:48 p -10.9 -10.9 -11.0 --- --- 5.2 NNW 0.09 6.1 -16.2 --- --- 716.9 0.020 0.000 9.1 4 1
02/10/06 7:49 p -10.9 -10.9 -11.0 --- --- 4.3 NNW 0.07 6.1 -15.6 --- --- 716.9 0.020 0.000 9.1 4 1
02/10/06 7:50 p -10.9 -10.9 -10.9 --- --- 6.1 NNW 0.10 7.0 -16.8 --- --- 716.9 0.020 0.000 9.1 4 1
02/10/06 7:51 p -10.9 -10.9 -10.9 --- --- 6.1 NNW 0.10 7.0 -16.8 --- --- 716.9 0.020 0.000 9.1 4 1
02/10/06 7:52 p -10.9 -10.9 -10.9 --- --- 6.1 NNW 0.10 8.7 -16.7 --- --- 716.9 0.020 0.000 9.1 4 1
02/10/06 7:53 p -10.9 -10.9 -10.9 --- --- 7.0 NNW 0.12 7.8 -17.2 --- --- 716.9 0.020 0.000 9.0 4 1
02/10/06 7:54 p -10.8 -10.8 -10.9 --- --- 5.2 NNW 0.09 6.1 -16.1 --- --- 716.9 0.020 0.000 9.1 4 1
02/10/06 7:55 p -10.9 -10.8 -10.9 --- --- 5.2 NNW 0.09 6.1 -16.2 --- --- 716.8 0.020 0.000 9.1 4 1
02/10/06 7:56 p -10.9 -10.8 -10.9 --- --- 5.2 NNW 0.09 6.1 -16.2 --- --- 716.8 0.020 0.000 9.1 4 1
02/10/06 7:57 p -10.8 -10.8 -10.9 --- --- 5.2 NNW 0.09 6.1 -16.1 --- --- 717.0 0.020 0.000 9.1 4 1
02/10/06 7:58 p -10.9 -10.9 -10.9 --- --- 5.2 NNW 0.09 6.1 -16.2 --- --- 716.9 0.020 0.000 9.1 4 1
02/10/06 7:59 p -10.9 -10.9 -10.9 --- --- 6.1 NNW 0.10 7.0 -16.8 --- --- 717.0 0.020 0.000 9.1 4 1
02/10/06 8:00 p -10.9 -10.9 -10.9 --- --- 7.0 NNW 0.12 8.7 -17.2 --- --- 716.9 0.020 0.000 9.1 4 1
02/10/06 8:01 p -10.9 -10.9 -10.9 --- --- 6.1 NNW 0.10 7.0 -16.8 --- --- 716.9 0.020 0.000 9.0 4 1
02/10/06 8:02 p -10.9 -10.9 -11.0 --- --- 5.2 NNW 0.09 6.1 -16.2 --- --- 716.9 0.020 0.000 9.0 4 1
02/10/06 8:03 p -11.0 -10.9 -11.0 --- --- 6.1 NNW 0.10 7.8 -16.9 --- --- 716.9 0.020 0.000 9.0 4 1
02/10/06 8:04 p -11.0 -10.9 -11.0 --- --- 6.1 NNW 0.10 7.0 -16.9 --- --- 716.9 0.020 0.000 9.1 4 1
02/10/06 8:05 p -11.0 -10.9 -11.0 --- --- 5.2 NNW 0.09 7.0 -16.3 --- --- 716.9 0.020 0.000 9.1 4 1
02/10/06 8:06 p -10.9 -10.9 -11.0 --- --- 5.2 NNW 0.09 7.0 -16.2 --- --- 716.9 0.020 0.000 9.0 4 1
02/10/06 8:07 p -10.9 -10.9 -11.0 --- --- 6.1 NNW 0.10 7.0 -16.8 --- --- 716.9 0.020 0.000 9.0 4 1
02/10/06 8:08 p -11.0 -10.9 -11.0 --- --- 5.2 NNW 0.09 6.1 -16.3 --- --- 716.9 0.020 0.000 9.0 4 1
02/10/06 8:09 p -11.0 -11.0 -11.0 --- --- 5.2 N 0.09 7.0 -16.3 --- --- 717.0 0.020 0.000 9.0 4 1
02/10/06 8:10 p -11.0 -10.9 -11.0 --- --- 6.1 NNW 0.10 7.8 -16.9 --- --- 716.9 0.020 0.000 9.1 4 1
02/10/06 8:11 p -11.0 -11.0 -11.0 --- --- 4.3 NNW 0.07 6.1 -15.7 --- --- 716.9 0.020 0.000 9.1 4 1
02/10/06 8:12 p -10.9 -10.9 -11.0 --- --- 4.3 N 0.07 6.1 -15.6 --- --- 716.9 0.020 0.000 9.1 4 1
02/10/06 8:13 p -10.9 -10.9 -11.0 --- --- 5.2 N 0.09 7.0 -16.2 --- --- 716.9 0.020 0.000 9.1 4 1
02/10/06 8:14 p -11.0 -10.9 -11.0 --- --- 5.2 NNW 0.09 7.0 -16.3 --- --- 716.8 0.020 0.000 9.1 4 1
02/10/06 8:15 p -11.0 -11.0 -11.1 --- --- 6.1 NNW 0.10 7.0 -16.9 --- --- 716.8 0.020 0.000 9.0 4 1
02/10/06 8:16 p -11.0 -11.0 -11.1 --- --- 6.1 NNW 0.10 7.8 -16.9 --- --- 716.9 0.020 0.000 8.9 4 1
02/10/06 8:17 p -11.0 -11.0 -11.1 --- --- 6.1 NNW 0.10 7.8 -16.9 --- --- 716.9 0.020 0.000 8.9 4 1
02/10/06 8:18 p -11.1 -11.0 -11.1 --- --- 6.1 NNW 0.10 7.8 -16.9 --- --- 716.9 0.020 0.000 8.9 4 1
02/10/06 8:19 p -11.0 -11.0 -11.0 --- --- 6.1 NNW 0.10 7.8 -16.9 --- --- 716.8 0.020 0.000 8.9 4 1
02/10/06 8:20 p -11.0 -11.0 -11.0 --- --- 5.2 NNW 0.09 6.1 -16.3 --- --- 716.7 0.020 0.000 8.9 4 1
02/10/06 8:21 p -11.0 -11.0 -11.0 --- --- 6.1 N 0.10 7.0 -16.9 --- --- 716.7 0.020 0.000 8.9 4 1
02/10/06 8:22 p -11.0 -11.0 -11.1 --- --- 7.0 NNW 0.12 8.7 -17.4 --- --- 716.7 0.020 0.000 8.9 4 1
02/10/06 8:23 p -11.1 -11.0 -11.1 --- --- 6.1 N 0.10 7.0 -16.9 --- --- 716.8 0.020 0.000 8.9 4 1
02/10/06 8:24 p -11.1 -11.1 -11.1 --- --- 5.2 NNW 0.09 7.0 -16.4 --- --- 716.7 0.020 0.000 8.9 4 1
02/10/06 8:25 p -11.1 -11.1 -11.1 --- --- 5.2 NNW 0.09 7.0 -16.4 --- --- 716.8 0.020 0.000 8.9 4 1
02/10/06 8:26 p -11.1 -11.1 -11.1 --- --- 7.0 NNW 0.12 7.8 -17.4 --- --- 716.7 0.020 0.000 8.9 4 1
02/10/06 8:27 p -11.0 -11.0 -11.0 --- --- 6.1 NNW 0.10 7.0 -16.9 --- --- 716.8 0.020 0.000 8.9 4 1
02/10/06 8:28 p -11.0 -10.9 -11.0 --- --- 5.2 NNW 0.09 7.0 -16.3 --- --- 716.7 0.020 0.000 9.0 4 1
02/10/06 8:29 p -11.0 -11.0 -11.0 --- --- 6.1 NNW 0.10 7.0 -16.9 --- --- 716.7 0.020 0.000 9.0 4 1
02/10/06 8:30 p -11.0 -11.0 -11.1 --- --- 6.1 NNW 0.10 7.0 -16.9 --- --- 716.7 0.020 0.000 9.0 4 1
02/10/06 8:31 p -11.0 -11.0 -11.1 --- --- 5.2 N 0.09 7.0 -16.3 --- --- 716.7 0.020 0.000 9.0 4 1
02/10/06 8:32 p -11.1 -11.0 -11.1 --- --- 6.1 NNW 0.10 7.0 -16.9 --- --- 716.7 0.020 0.000 9.1 4 1
02/10/06 8:33 p -11.1 -11.1 -11.1 --- --- 5.2 NNW 0.09 7.8 -16.4 --- --- 716.8 0.020 0.000 9.1 4 1
02/10/06 8:34 p -11.0 -11.0 -11.1 --- --- 5.2 NNW 0.09 6.1 -16.3 --- --- 716.8 0.020 0.000 9.1 4 1
02/10/06 8:35 p -10.9 -10.9 -11.0 --- --- 6.1 N 0.10 7.0 -16.8 --- --- 716.7 0.020 0.000 9.1 4 1
02/10/06 8:36 p -11.0 -11.0 -11.0 --- --- 4.3 NNW 0.07 7.0 -15.7 --- --- 716.7 0.020 0.000 9.1 4 1
02/10/06 8:37 p -11.0 -10.9 -11.0 --- --- 5.2 N 0.09 6.1 -16.3 --- --- 716.8 0.020 0.000 9.1 4 1
02/10/06 8:38 p -11.0 -11.0 -11.1 --- --- 5.2 NNW 0.09 7.0 -16.3 --- --- 716.7 0.020 0.000 9.1 4 1
02/10/06 8:39 p -11.0 -11.0 -11.1 --- --- 6.1 NNW 0.10 7.8 -16.9 --- --- 716.7 0.020 0.000 9.1 4 1
02/10/06 8:40 p -11.0 -11.0 -11.1 --- --- 5.2 N 0.09 6.1 -16.3 --- --- 716.7 0.020 0.000 9.1 4 1
02/10/06 8:41 p -11.0 -11.0 -11.1 --- --- 5.2 N 0.09 7.0 -16.3 --- --- 716.7 0.020 0.000 9.1 4 1
02/10/06 8:42 p -11.1 -11.0 -11.1 --- --- 5.2 N 0.09 7.0 -16.4 --- --- 716.8 0.020 0.000 9.1 4 1
02/10/06 8:43 p -11.0 -11.0 -11.0 --- --- 6.1 NNW 0.10 7.8 -16.9 --- --- 716.7 0.020 0.000 9.1 4 1
02/10/06 8:44 p -11.0 -11.0 -11.0 --- --- 7.0 NNW 0.12 7.8 -17.4 --- --- 716.7 0.020 0.000 9.1 4 1
02/10/06 8:45 p -10.9 -10.9 -11.0 --- --- 6.1 NNW 0.10 7.8 -16.8 --- --- 716.7 0.020 0.000 9.1 4 1
02/10/06 8:46 p -10.9 -10.9 -10.9 --- --- 6.1 N 0.10 7.8 -16.8 --- --- 716.7 0.020 0.000 9.1 4 1
02/10/06 8:47 p -10.9 -10.9 -11.0 --- --- 7.0 NNW 0.12 8.7 -17.3 --- --- 716.6 0.020 0.000 9.1 4 1
02/10/06 8:48 p -11.0 -10.9 -11.0 --- --- 7.0 NNW 0.12 7.8 -17.4 --- --- 716.7 0.020 0.000 9.1 4 1
02/10/06 8:49 p -11.0 -10.9 -11.0 --- --- 6.1 NNW 0.10 7.0 -16.9 --- --- 716.8 0.020 0.000 9.1 4 1
02/10/06 8:50 p -10.9 -10.9 -10.9 --- --- 6.1 NNW 0.10 7.8 -16.7 --- --- 716.7 0.020 0.000 9.1 4 1
02/10/06 8:51 p -10.9 -10.9 -10.9 --- --- 5.2 N 0.09 6.1 -16.2 --- --- 716.7 0.020 0.000 9.1 4 1
02/10/06 8:52 p -10.8 -10.8 -10.9 --- --- 5.2 N 0.09 7.0 -16.1 --- --- 716.7 0.020 0.000 9.1 4 1
02/10/06 8:53 p -10.8 -10.7 -10.8 --- --- 6.1 N 0.10 7.0 -16.6 --- --- 716.7 0.020 0.000 9.1 4 1
02/10/06 8:54 p -10.8 -10.8 -10.8 --- --- 5.2 N 0.09 7.0 -16.1 --- --- 716.7 0.020 0.000 9.1 4 1
02/10/06 8:55 p -10.8 -10.7 -10.8 --- --- 6.1 N 0.10 7.0 -16.6 --- --- 716.7 0.020 0.000 9.1 4 1
02/10/06 8:56 p -10.7 -10.7 -10.7 --- --- 5.2 N 0.09 7.0 -16.0 --- --- 716.7 0.020 0.000 9.1 4 1
02/10/06 8:57 p -10.7 -10.7 -10.7 --- --- 5.2 N 0.09 7.0 -15.9 --- --- 716.7 0.020 0.000 9.2 4 1
02/10/06 8:58 p -10.7 -10.7 -10.7 --- --- 6.1 N 0.10 7.0 -16.4 --- --- 716.7 0.020 0.000 9.2 4 1
02/10/06 8:59 p -10.7 -10.6 -10.7 --- --- 5.2 N 0.09 7.0 -15.9 --- --- 716.8 0.020 0.000 9.2 4 1
02/10/06 9:00 p -10.6 -10.6 -10.7 --- --- 5.2 N 0.09 7.0 -15.8 --- --- 716.8 0.020 0.000 9.2 4 1
02/10/06 9:01 p -10.7 -10.7 -10.7 --- --- 5.2 N 0.09 7.0 -16.0 --- --- 716.7 0.020 0.000 9.2 4 1
02/10/06 9:02 p -10.7 -10.7 -10.7 --- --- 6.1 N 0.10 7.0 -16.6 --- --- 716.7 0.020 0.000 9.2 4 1
02/10/06 9:03 p -10.7 -10.6 -10.7 --- --- 5.2 N 0.09 7.0 -15.9 --- --- 716.7 0.020 0.000 9.2 4 1
02/10/06 9:04 p -10.6 -10.6 -10.6 --- --- 5.2 N 0.09 7.0 -15.8 --- --- 716.7 0.020 0.000 9.2 4 1
02/10/06 9:05 p -10.6 -10.6 -10.6 --- --- 6.1 N 0.10 7.8 -16.4 --- --- 716.7 0.020 0.000 9.2 4 1
02/10/06 9:06 p -10.6 -10.5 -10.6 --- --- 5.2 N 0.09 6.1 -15.8 --- --- 716.7 0.020 0.000 9.2 4 1
02/10/06 9:07 p -10.5 -10.5 -10.6 --- --- 5.2 N 0.09 6.1 -15.7 --- --- 716.7 0.020 0.000 9.2 4 1
02/10/06 9:08 p -10.6 -10.6 -10.6 --- --- 6.1 N 0.10 8.7 -16.3 --- --- 716.7 0.020 0.000 9.2 4 1
02/10/06 9:09 p -10.6 -10.5 -10.6 --- --- 5.2 N 0.09 7.8 -15.8 --- --- 716.8 0.020 0.000 9.2 5 1
02/10/06 9:10 p -10.5 -10.4 -10.6 --- --- 5.2 N 0.09 7.0 -15.7 --- --- 716.8 0.020 0.000 9.2 4 1
02/10/06 9:11 p -10.5 -10.4 -10.5 --- --- 5.2 N 0.09 7.0 -15.7 --- --- 716.8 0.020 0.000 9.2 5 1
02/10/06 9:12 p -10.6 -10.6 -10.7 --- --- 5.2 N 0.09 7.0 -15.8 --- --- 716.7 0.020 0.000 9.2 5 1
02/10/06 9:13 p -10.6 -10.6 -10.6 --- --- 4.3 N 0.07 6.1 -15.2 --- --- 716.7 0.020 0.000 9.2 4 1
02/10/06 9:14 p -10.6 -10.5 -10.6 --- --- 5.2 N 0.09 7.8 -15.8 --- --- 716.7 0.020 0.000 9.2 5 1
02/10/06 9:15 p -10.4 -10.4 -10.5 --- --- 5.2 N 0.09 7.8 -15.7 --- --- 716.7 0.020 0.000 9.3 4 1
02/10/06 9:16 p -10.4 -10.4 -10.5 --- --- 5.2 N 0.09 6.1 -15.7 --- --- 716.7 0.020 0.000 9.3 5 1
02/10/06 9:17 p -10.5 -10.5 -10.6 --- --- 4.3 N 0.07 6.1 -15.1 --- --- 716.7 0.020 0.000 9.3 5 1
02/10/06 9:18 p -10.5 -10.5 -10.6 --- --- 6.1 N 0.10 7.0 -16.3 --- --- 716.7 0.020 0.000 9.3 5 1
02/10/06 9:19 p -10.6 -10.5 -10.6 --- --- 5.2 N 0.09 7.8 -15.8 --- --- 716.8 0.020 0.000 9.3 5 1
02/10/06 9:20 p -10.4 -10.4 -10.5 --- --- 5.2 N 0.09 7.0 -15.7 --- --- 716.7 0.020 0.000 9.2 5 1
02/10/06 9:21 p -10.4 -10.4 -10.5 --- --- 5.2 N 0.09 6.1 -15.7 --- --- 716.7 0.020 0.000 9.3 5 1
02/10/06 9:22 p -10.5 -10.5 -10.5 --- --- 4.3 N 0.07 6.1 -15.1 --- --- 716.7 0.020 0.000 9.3 5 1
02/10/06 9:23 p -10.5 -10.4 -10.6 --- --- 4.3 N 0.07 6.1 -15.1 --- --- 716.7 0.020 0.000 9.3 5 1
02/10/06 9:24 p -10.5 -10.5 -10.5 --- --- 4.3 N 0.07 6.1 -15.1 --- --- 716.7 0.020 0.000 9.3 5 1
02/10/06 9:25 p -10.4 -10.4 -10.5 --- --- 5.2 N 0.09 6.1 -15.7 --- --- 716.7 0.020 0.000 9.3 5 1
02/10/06 9:26 p -10.5 -10.5 -10.6 --- --- 4.3 N 0.07 5.2 -15.1 --- --- 716.7 0.020 0.000 9.3 5 1
02/10/06 9:27 p -10.4 -10.2 -10.5 --- --- 4.3 N 0.07 5.2 -14.9 --- --- 716.7 0.020 0.000 9.3 5 1
02/10/06 9:28 p -10.3 -10.2 -10.4 --- --- 4.3 N 0.07 6.1 -14.8 --- --- 716.7 0.020 0.000 9.3 5 1
02/10/06 9:29 p -10.4 -10.4 -10.5 --- --- 4.3 N 0.07 5.2 -15.0 --- --- 716.7 0.020 0.000 9.3 5 1
02/10/06 9:30 p -10.4 -10.4 -10.5 --- --- 4.3 N 0.07 5.2 -15.0 --- --- 716.7 0.020 0.000 9.3 5 1
02/10/06 9:31 p -10.3 -10.3 -10.4 --- --- 4.3 N 0.07 7.0 -14.9 --- --- 716.7 0.020 0.000 9.3 5 1
02/10/06 9:32 p -10.3 -10.3 -10.3 --- --- 5.2 N 0.09 7.0 -15.4 --- --- 716.7 0.020 0.000 9.3 5 1
02/10/06 9:33 p -10.2 -10.1 -10.3 --- --- 4.3 N 0.07 6.1 -14.7 --- --- 716.7 0.020 0.000 9.3 5 1
02/10/06 9:34 p -10.1 -10.1 -10.2 --- --- 4.3 N 0.07 5.2 -14.6 --- --- 716.6 0.020 0.000 9.3 5 1
02/10/06 9:35 p -10.2 -10.2 -10.2 --- --- 4.3 N 0.07 6.1 -14.7 --- --- 716.8 0.020 0.000 9.3 5 1
02/10/06 9:36 p -10.3 -10.2 -10.3 --- --- 4.3 N 0.07 7.0 -14.8 --- --- 716.8 0.020 0.000 9.3 5 1
02/10/06 9:37 p -10.3 -10.2 -10.3 --- --- 3.5 N 0.06 4.3 -14.1 --- --- 716.7 0.020 0.000 9.3 5 1
02/10/06 9:38 p -10.2 -10.1 -10.2 --- --- 4.3 N 0.07 6.1 -14.7 --- --- 716.7 0.020 0.000 9.3 5 1
02/10/06 9:39 p -10.3 -10.2 -10.3 --- --- 3.5 N 0.06 5.2 -14.1 --- --- 716.8 0.020 0.000 9.3 5 1
02/10/06 9:40 p -10.2 -10.2 -10.3 --- --- 4.3 N 0.07 6.1 -14.7 --- --- 716.7 0.020 0.000 9.3 5 1
02/10/06 9:41 p -10.2 -10.2 -10.2 --- --- 4.3 N 0.07 6.1 -14.7 --- --- 716.8 0.020 0.000 9.3 5 1
02/10/06 9:42 p -10.2 -10.1 -10.2 --- --- 5.2 N 0.09 6.1 -15.3 --- --- 716.7 0.020 0.000 9.3 5 1
02/10/06 9:43 p -10.2 -10.1 -10.2 --- --- 4.3 N 0.07 5.2 -14.7 --- --- 716.8 0.020 0.000 9.3 5 1
02/10/06 9:44 p -10.2 -10.2 -10.3 --- --- 4.3 N 0.07 6.1 -14.7 --- --- 716.7 0.020 0.000 9.3 5 1
02/10/06 9:45 p -10.3 -10.3 -10.3 --- --- 4.3 N 0.07 6.1 -14.8 --- --- 716.7 0.020 0.000 9.3 5 1
02/10/06 9:46 p -10.3 -10.3 -10.3 --- --- 4.3 N 0.07 5.2 -14.8 --- --- 716.7 0.020 0.000 9.3 5 1
02/10/06 9:47 p -10.4 -10.3 -10.4 --- --- 3.5 N 0.06 5.2 -14.2 --- --- 716.7 0.020 0.000 9.3 5 1
02/10/06 9:48 p -10.4 -10.4 -10.4 --- --- 5.2 N 0.09 6.1 -15.6 --- --- 716.6 0.020 0.000 9.3 5 1
02/10/06 9:49 p -10.4 -10.3 -10.4 --- --- 4.3 N 0.07 4.3 -14.9 --- --- 716.7 0.020 0.000 9.3 5 1
02/10/06 9:50 p -10.4 -10.4 -10.4 --- --- 4.3 N 0.07 5.2 -14.9 --- --- 716.7 0.020 0.000 9.3 5 1
02/10/06 9:51 p -10.5 -10.4 -10.5 --- --- 4.3 N 0.07 5.2 -15.1 --- --- 716.6 0.020 0.000 9.3 5 1
02/10/06 9:52 p -10.4 -10.3 -10.4 --- --- 3.5 N 0.06 4.3 -14.2 --- --- 716.7 0.020 0.000 9.3 5 1
02/10/06 9:53 p -10.3 -10.3 -10.4 --- --- 3.5 N 0.06 4.3 -14.1 --- --- 716.7 0.020 0.000 9.3 5 1
02/10/06 9:54 p -10.2 -10.2 -10.2 --- --- 3.5 N 0.06 5.2 -14.0 --- --- 716.7 0.020 0.000 9.3 5 1
02/10/06 9:55 p -10.3 -10.3 -10.3 --- --- 3.5 N 0.06 5.2 -14.1 --- --- 716.7 0.020 0.000 9.3 5 1
02/10/06 9:56 p -10.3 -10.3 -10.4 --- --- 3.5 N 0.06 4.3 -14.1 --- --- 716.7 0.020 0.000 9.3 5 1
02/10/06 9:57 p -10.3 -10.2 -10.3 --- --- 3.5 N 0.06 4.3 -14.1 --- --- 716.6 0.020 0.000 9.3 5 1
02/10/06 9:58 p -10.3 -10.3 -10.3 --- --- 3.5 N 0.06 5.2 -14.1 --- --- 716.7 0.020 0.000 9.3 5 1
02/10/06 9:59 p -10.3 -10.3 -10.3 --- --- 4.3 N 0.07 5.2 -14.8 --- --- 716.7 0.020 0.000 9.3 5 1
02/10/06 10:00 p -10.3 -10.3 -10.3 --- --- 4.3 N 0.07 6.1 -14.9 --- --- 716.7 0.020 0.000 9.3 5 1
02/10/06 10:01 p -10.3 -10.2 -10.3 --- --- 4.3 N 0.07 5.2 -14.8 --- --- 716.7 0.020 0.000 9.4 5 1
02/10/06 10:02 p -10.2 -10.2 -10.2 --- --- 4.3 N 0.07 5.2 -14.7 --- --- 716.7 0.020 0.000 9.4 5 1
02/10/06 10:03 p -10.2 -10.1 -10.2 --- --- 3.5 N 0.06 5.2 -13.9 --- --- 716.8 0.020 0.000 9.4 5 1
02/10/06 10:04 p -10.0 -9.9 -10.1 --- --- 3.5 N 0.06 4.3 -13.7 --- --- 716.8 0.020 0.000 9.4 5 1
02/10/06 10:05 p -9.9 -9.9 -9.9 --- --- 3.5 N 0.06 5.2 -13.6 --- --- 716.8 0.020 0.000 9.3 5 1
02/10/06 10:06 p -9.8 -9.8 -9.9 --- --- 2.6 N 0.04 3.5 -12.6 --- --- 716.8 0.020 0.000 9.3 5 1
02/10/06 10:07 p -9.9 -9.9 -9.9 --- --- 2.6 N 0.04 4.3 -12.7 --- --- 716.8 0.020 0.000 9.3 5 1
02/10/06 10:08 p -10.0 -9.9 -10.1 --- --- 3.5 N 0.06 4.3 -13.7 --- --- 716.7 0.020 0.000 9.3 5 1
02/10/06 10:09 p -10.1 -9.9 -10.1 --- --- 3.5 N 0.06 5.2 -13.8 --- --- 716.7 0.020 0.000 9.3 5 1
02/10/06 10:10 p -9.9 -9.8 -9.9 --- --- 5.2 N 0.09 6.1 -15.0 --- --- 716.7 0.020 0.000 9.2 5 1
02/10/06 10:11 p -9.8 -9.7 -9.8 --- --- 5.2 N 0.09 6.1 -14.9 --- --- 716.8 0.020 0.000 9.2 5 1
02/10/06 10:12 p -9.7 -9.6 -9.7 --- --- 5.2 NNE 0.09 6.1 -14.7 --- --- 716.7 0.019 0.000 9.2 5 1
02/10/06 10:13 p -9.4 -9.3 -9.6 --- --- 4.3 N 0.07 6.1 -13.8 --- --- 716.7 0.019 0.000 9.2 5 1
02/10/06 10:14 p -9.3 -9.3 -9.4 --- --- 5.2 N 0.09 6.1 -14.3 --- --- 716.7 0.019 0.000 9.2 5 1
02/10/06 10:15 p -9.4 -9.4 -9.5 --- --- 5.2 N 0.09 7.0 -14.4 --- --- 716.8 0.019 0.000 9.2 5 1
02/10/06 10:16 p -9.5 -9.4 -9.5 --- --- 5.2 NNE 0.09 6.1 -14.5 --- --- 716.7 0.019 0.000 9.2 5 1
02/10/06 10:17 p -9.6 -9.5 -9.6 --- --- 6.1 N 0.10 7.0 -15.1 --- --- 716.7 0.019 0.000 9.2 5 1
02/10/06 10:18 p -9.6 -9.6 -9.8 --- --- 7.0 N 0.12 7.8 -15.7 --- --- 716.7 0.019 0.000 9.2 5 1
02/10/06 10:19 p -9.8 -9.7 -9.9 --- --- 6.1 N 0.10 7.8 -15.4 --- --- 716.8 0.020 0.000 9.1 5 1
02/10/06 10:20 p -9.7 -9.6 -9.7 --- --- 5.2 N 0.09 7.0 -14.7 --- --- 716.6 0.019 0.000 9.1 5 1
02/10/06 10:21 p -9.5 -9.4 -9.6 --- --- 6.1 N 0.10 7.0 -15.1 --- --- 716.7 0.019 0.000 9.1 5 1
02/10/06 10:22 p -9.6 -9.4 -9.6 --- --- 5.2 N 0.09 7.0 -14.6 --- --- 716.7 0.019 0.000 9.1 5 1
02/10/06 10:23 p -9.6 -9.4 -9.7 --- --- 5.2 N 0.09 7.8 -14.6 --- --- 716.7 0.019 0.000 9.1 5 1
02/10/06 10:24 p -9.5 -9.4 -9.6 --- --- 4.3 N 0.07 6.1 -13.9 --- --- 716.7 0.019 0.000 9.1 5 1
02/10/06 10:25 p -9.3 -9.3 -9.5 --- --- 7.0 N 0.12 7.8 -15.3 --- --- 716.7 0.019 0.000 9.1 5 1
02/10/06 10:26 p -9.3 -9.3 -9.3 --- --- 6.1 N 0.10 7.8 -14.8 --- --- 716.7 0.019 0.000 9.0 5 1
02/10/06 10:27 p -9.2 -9.1 -9.3 --- --- 6.1 N 0.10 7.8 -14.7 --- --- 716.8 0.019 0.000 9.0 5 1
02/10/06 10:28 p -9.1 -9.1 -9.2 --- --- 5.2 N 0.09 7.0 -14.1 --- --- 716.7 0.019 0.000 9.0 5 1
02/10/06 10:29 p -9.3 -9.1 -9.4 --- --- 4.3 N 0.07 5.2 -13.6 --- --- 716.8 0.019 0.000 9.0 5 1
02/10/06 10:30 p -9.4 -9.4 -9.4 --- --- 4.3 N 0.07 7.0 -13.8 --- --- 716.6 0.019 0.000 8.9 5 1
02/10/06 10:31 p -9.2 -8.9 -9.4 --- --- 7.0 N 0.12 9.6 -15.2 --- --- 716.6 0.019 0.000 8.9 5 1
02/10/06 10:32 p -9.1 -8.9 -9.1 --- --- 6.1 N 0.10 7.8 -14.5 --- --- 716.8 0.019 0.000 8.9 5 1
02/10/06 10:33 p -9.3 -9.1 -9.4 --- --- 6.1 N 0.10 7.0 -14.8 --- --- 716.7 0.019 0.000 8.9 5 1
02/10/06 10:34 p -9.3 -9.1 -9.4 --- --- 7.8 N 0.13 10.4 -15.7 --- --- 716.7 0.019 0.000 8.9 5 1
02/10/06 10:35 p -9.2 -9.2 -9.3 --- --- 5.2 N 0.09 7.0 -14.2 --- --- 716.7 0.019 0.000 8.9 5 1
02/10/06 10:36 p -9.3 -9.3 -9.4 --- --- 4.3 N 0.07 6.1 -13.7 --- --- 716.7 0.019 0.000 8.9 5 1
02/10/06 10:37 p -9.4 -9.4 -9.4 --- --- 7.0 N 0.12 8.7 -15.5 --- --- 716.6 0.019 0.000 8.9 5 1
02/10/06 10:38 p -9.5 -9.4 -9.5 --- --- 6.1 N 0.10 7.8 -15.1 --- --- 716.7 0.019 0.000 8.9 5 1
02/10/06 10:39 p -9.4 -9.4 -9.5 --- --- 7.0 N 0.12 8.7 -15.5 --- --- 716.6 0.019 0.000 8.9 5 1
02/10/06 10:40 p -9.4 -9.4 -9.4 --- --- 4.3 N 0.07 7.8 -13.8 --- --- 716.7 0.019 0.000 8.9 5 1
02/10/06 10:41 p -9.3 -9.2 -9.4 --- --- 4.3 N 0.07 6.1 -13.6 --- --- 716.7 0.019 0.000 8.8 5 1
02/10/06 10:42 p -9.4 -9.3 -9.4 --- --- 5.2 N 0.09 8.7 -14.4 --- --- 716.8 0.019 0.000 8.8 5 1
02/10/06 10:43 p -9.2 -9.2 -9.3 --- --- 7.0 N 0.12 8.7 -15.2 --- --- 716.6 0.019 0.000 8.8 5 1
02/10/06 10:44 p -9.2 -9.2 -9.2 --- --- 5.2 N 0.09 7.0 -14.2 --- --- 716.7 0.019 0.000 8.8 5 1
02/10/06 10:45 p -9.2 -9.1 -9.2 --- --- 5.2 N 0.09 7.0 -14.1 --- --- 716.8 0.019 0.000 8.8 5 1
02/10/06 10:46 p -9.4 -9.4 -9.4 --- --- 6.1 N 0.10 8.7 -15.0 --- --- 716.7 0.019 0.000 8.8 5 1
02/10/06 10:47 p -9.4 -9.3 -9.4 --- --- 5.2 N 0.09 7.0 -14.4 --- --- 716.6 0.019 0.000 8.8 5 1
02/10/06 10:48 p -9.4 -9.4 -9.6 --- --- 6.1 NNW 0.10 7.8 -15.0 --- --- 716.7 0.019 0.000 8.8 5 1
02/10/06 10:49 p -9.7 -9.6 -9.7 --- --- 5.2 N 0.09 6.1 -14.7 --- --- 716.8 0.019 0.000 8.8 5 1
02/10/06 10:50 p -9.7 -9.6 -9.7 --- --- 6.1 NNW 0.10 7.0 -15.3 --- --- 716.7 0.019 0.000 8.8 5 1
02/10/06 10:51 p -9.8 -9.7 -9.8 --- --- 4.3 NNW 0.07 5.2 -14.2 --- --- 716.8 0.020 0.000 8.8 5 1
02/10/06 10:52 p -9.8 -9.8 -9.8 --- --- 5.2 NNW 0.09 6.1 -14.8 --- --- 716.7 0.020 0.000 8.8 5 1
02/10/06 10:53 p -9.7 -9.7 -9.8 --- --- 4.3 NNW 0.07 7.0 -14.2 --- --- 716.7 0.019 0.000 8.8 5 1
02/10/06 10:54 p -9.6 -9.6 -9.7 --- --- 4.3 NNW 0.07 5.2 -14.0 --- --- 716.7 0.019 0.000 8.8 5 1
02/10/06 10:55 p -9.4 -9.2 -9.5 --- --- 4.3 NNW 0.07 5.2 -13.8 --- --- 716.7 0.019 0.000 8.8 5 1
02/10/06 10:56 p -9.2 -9.1 -9.2 --- --- 4.3 N 0.07 6.1 -13.5 --- --- 716.8 0.019 0.000 8.7 4 1
02/10/06 10:57 p -8.9 -8.9 -8.9 --- --- 7.0 NNW 0.12 7.0 -14.9 --- --- 716.7 0.019 0.000 8.7 5 1
02/10/06 10:58 p -8.9 -8.9 -8.9 --- --- 5.2 NNW 0.09 6.1 -13.8 --- --- 716.7 0.019 0.000 8.7 5 1
02/10/06 10:59 p -8.9 -8.8 -8.9 --- --- 5.2 NNW 0.09 6.1 -13.8 --- --- 716.7 0.019 0.000 8.7 5 1
02/10/06 11:00 p -8.9 -8.9 -8.9 --- --- 5.2 NNW 0.09 5.2 -13.8 --- --- 716.8 0.019 0.000 8.7 5 1
02/10/06 11:01 p -8.9 -8.8 -9.0 --- --- 4.3 NNW 0.07 5.2 -13.2 --- --- 716.8 0.019 0.000 8.7 5 1
02/10/06 11:02 p -8.8 -8.8 -8.9 --- --- 4.3 NNW 0.07 5.2 -13.1 --- --- 716.8 0.019 0.000 8.7 5 1
02/10/06 11:03 p -8.9 -8.7 -8.9 --- --- 4.3 NNW 0.07 5.2 -13.2 --- --- 716.7 0.019 0.000 8.7 5 1
02/10/06 11:04 p -8.8 -8.7 -8.9 --- --- 3.5 NNW 0.06 4.3 -12.3 --- --- 716.8 0.019 0.000 8.7 5 1
02/10/06 11:05 p -8.9 -8.7 -8.9 --- --- 3.5 NNW 0.06 4.3 -12.4 --- --- 716.7 0.019 0.000 8.7 5 1
02/10/06 11:06 p -8.6 -8.5 -8.7 --- --- 3.5 NNW 0.06 4.3 -12.1 --- --- 716.8 0.019 0.000 8.7 5 1
02/10/06 11:07 p -8.3 -8.1 -8.5 --- --- 3.5 NNW 0.06 4.3 -11.8 --- --- 716.8 0.019 0.000 8.7 5 1
02/10/06 11:08 p -7.9 -7.8 -8.1 --- --- 2.6 NNW 0.04 3.5 -10.5 --- --- 716.8 0.018 0.000 8.7 5 1
02/10/06 11:09 p -7.8 -7.8 -7.9 --- --- 4.3 NNW 0.07 5.2 -11.9 --- --- 716.8 0.018 0.000 8.7 5 1
02/10/06 11:10 p -8.0 -7.9 -8.3 --- --- 4.3 NNW 0.07 5.2 -12.1 --- --- 716.8 0.018 0.000 8.7 4 1
02/10/06 11:11 p -8.3 -8.3 -8.4 --- --- 2.6 NNW 0.04 3.5 -10.9 --- --- 716.8 0.019 0.000 8.7 5 1
02/10/06 11:12 p -8.3 -8.3 -8.3 --- --- 1.7 NNW 0.03 2.6 -9.7 --- --- 716.8 0.018 0.000 8.7 5 1
02/10/06 11:13 p -8.2 -8.2 -8.3 --- --- 1.7 NNW 0.03 3.5 -9.6 --- --- 716.8 0.018 0.000 8.7 4 1
02/10/06 11:14 p -8.1 -8.0 -8.2 --- --- 2.6 NNW 0.04 3.5 -10.6 --- --- 716.8 0.018 0.000 8.7 5 1
02/10/06 11:15 p -8.1 -8.1 -8.1 --- --- 2.6 NNW 0.04 3.5 -10.6 --- --- 716.7 0.018 0.000 8.7 5 1
02/10/06 11:16 p -7.9 -7.8 -8.0 --- --- 2.6 NNW 0.04 3.5 -10.5 --- --- 716.8 0.018 0.000 8.6 5 1
02/10/06 11:17 p -8.1 -7.9 -8.3 --- --- 1.7 NNW 0.03 2.6 -9.5 --- --- 716.8 0.018 0.000 8.6 5 1
02/10/06 11:18 p -8.3 -8.3 -8.3 --- --- 2.6 NNW 0.04 2.6 -10.8 --- --- 716.8 0.018 0.000 8.6 5 1
02/10/06 11:19 p -8.2 -8.2 -8.3 --- --- 1.7 NNW 0.03 2.6 -9.6 --- --- 716.7 0.018 0.000 8.6 5 1
02/10/06 11:20 p -8.2 -8.1 -8.2 --- --- 0.9 NNW 0.01 2.6 -8.2 --- --- 716.8 0.018 0.000 8.6 5 1
02/10/06 11:21 p -7.9 -7.8 -8.0 --- --- 0.9 NNW 0.01 1.7 -7.9 --- --- 716.7 0.018 0.000 8.6 5 1
02/10/06 11:22 p -7.6 -7.6 -7.7 --- --- 0.9 NNW 0.01 3.5 -7.6 --- --- 716.7 0.018 0.000 8.6 5 1
02/10/06 11:23 p -7.7 -7.6 -7.7 --- --- 3.5 NNW 0.06 4.3 -11.1 --- --- 716.7 0.018 0.000 8.6 5 1
02/10/06 11:24 p -7.7 -7.6 -7.8 --- --- 2.6 NNW 0.04 3.5 -10.2 --- --- 716.7 0.018 0.000 8.6 5 1
02/10/06 11:25 p -7.7 -7.6 -7.7 --- --- 1.7 NNW 0.03 2.6 -9.0 --- --- 716.7 0.018 0.000 8.6 5 1
02/10/06 11:26 p -7.4 -7.4 -7.4 --- --- 0.9 NNW 0.01 2.6 -7.4 --- --- 716.7 0.018 0.000 8.7 4 1
02/10/06 11:27 p -7.6 -7.6 -7.6 --- --- 2.6 NNW 0.04 4.3 -10.1 --- --- 716.7 0.018 0.000 8.7 5 1
02/10/06 11:28 p -7.8 -7.7 -7.8 --- --- 3.5 NNW 0.06 4.3 -11.2 --- --- 716.6 0.018 0.000 8.7 5 1
02/10/06 11:29 p -7.7 -7.7 -7.8 --- --- 3.5 NNW 0.06 4.3 -11.1 --- --- 716.7 0.018 0.000 8.7 5 1
02/10/06 11:30 p -7.8 -7.7 -7.8 --- --- 3.5 NNW 0.06 4.3 -11.2 --- --- 716.6 0.018 0.000 8.7 5 1
02/10/06 11:31 p -7.8 -7.7 -7.8 --- --- 3.5 NNW 0.06 4.3 -11.2 --- --- 716.6 0.018 0.000 8.7 5 1
02/10/06 11:32 p -7.9 -7.8 -8.0 --- --- 4.3 NNW 0.07 4.3 -12.0 --- --- 716.6 0.018 0.000 8.8 5 1
02/10/06 11:33 p -8.0 -7.9 -8.0 --- --- 3.5 NNW 0.06 4.3 -11.4 --- --- 716.6 0.018 0.000 8.8 5 1
02/10/06 11:34 p -7.9 -7.9 -8.2 --- --- 4.3 NNW 0.07 4.3 -12.1 --- --- 716.7 0.018 0.000 8.8 5 1
02/10/06 11:35 p -8.1 -8.1 -8.2 --- --- 4.3 NNW 0.07 4.3 -12.2 --- --- 716.7 0.018 0.000 8.8 5 1
02/10/06 11:36 p -8.0 -7.8 -8.1 --- --- 3.5 NNW 0.06 4.3 -11.4 --- --- 716.6 0.018 0.000 8.8 5 1
02/10/06 11:37 p -7.9 -7.8 -8.1 --- --- 2.6 NNW 0.04 4.3 -10.5 --- --- 716.6 0.018 0.000 8.8 5 1
02/10/06 11:38 p -7.8 -7.7 -7.9 --- --- 3.5 NNW 0.06 4.3 -11.2 --- --- 716.6 0.018 0.000 8.8 5 1
02/10/06 11:39 p -7.7 -7.7 -7.7 --- --- 4.3 NNW 0.07 5.2 -11.7 --- --- 716.7 0.018 0.000 8.8 5 1
02/10/06 11:40 p -7.9 -7.8 -8.0 --- --- 3.5 NNW 0.06 4.3 -11.3 --- --- 716.7 0.018 0.000 8.8 5 1
02/10/06 11:41 p -8.0 -7.9 -8.1 --- --- 3.5 NNW 0.06 4.3 -11.4 --- --- 716.6 0.018 0.000 8.8 5 1
02/10/06 11:42 p -8.1 -8.0 -8.1 --- --- 4.3 NNW 0.07 5.2 -12.2 --- --- 716.5 0.018 0.000 8.8 5 1
02/10/06 11:43 p -7.9 -7.8 -8.0 --- --- 3.5 NNW 0.06 4.3 -11.3 --- --- 716.6 0.018 0.000 8.9 5 1
02/10/06 11:44 p -7.8 -7.7 -7.8 --- --- 3.5 NNW 0.06 4.3 -11.2 --- --- 716.6 0.018 0.000 8.9 5 1
02/10/06 11:45 p -7.7 -7.7 -7.8 --- --- 4.3 NNW 0.07 5.2 -11.8 --- --- 716.5 0.018 0.000 8.9 5 1
02/10/06 11:46 p -7.8 -7.8 -7.9 --- --- 4.3 NNW 0.07 5.2 -11.9 --- --- 716.5 0.018 0.000 8.9 5 1
02/10/06 11:47 p -7.9 -7.9 -8.0 --- --- 3.5 NNW 0.06 4.3 -11.3 --- --- 716.5 0.018 0.000 8.9 5 1
02/10/06 11:48 p -8.0 -7.9 -8.0 --- --- 3.5 NNW 0.06 5.2 -11.4 --- --- 716.6 0.018 0.000 8.9 5 1
02/10/06 11:49 p -8.1 -7.9 -8.2 --- --- 2.6 NNW 0.04 4.3 -10.6 --- --- 716.5 0.018 0.000 8.9 5 1
02/10/06 11:50 p -8.2 -8.2 -8.3 --- --- 3.5 NNW 0.06 4.3 -11.7 --- --- 716.6 0.018 0.000 8.9 5 1
02/10/06 11:51 p -8.1 -8.1 -8.2 --- --- 3.5 NNW 0.06 5.2 -11.6 --- --- 716.5 0.018 0.000 8.9 5 1
02/10/06 11:52 p -8.2 -8.1 -8.2 --- --- 3.5 NNW 0.06 5.2 -11.6 --- --- 716.7 0.018 0.000 8.9 5 1
02/10/06 11:53 p -8.0 -7.9 -8.1 --- --- 3.5 NNW 0.06 4.3 -11.4 --- --- 716.6 0.018 0.000 8.9 5 1
02/10/06 11:54 p -7.8 -7.8 -7.9 --- --- 2.6 NNW 0.04 3.5 -10.3 --- --- 716.7 0.018 0.000 8.9 5 1
02/10/06 11:55 p -7.8 -7.7 -7.8 --- --- 2.6 NNW 0.04 3.5 -10.3 --- --- 716.6 0.018 0.000 8.9 5 1
02/10/06 11:56 p -7.7 -7.7 -7.7 --- --- 3.5 NNW 0.06 4.3 -11.1 --- --- 716.6 0.018 0.000 8.9 5 1
02/10/06 11:57 p -7.7 -7.7 -7.8 --- --- 3.5 NNW 0.06 4.3 -11.1 --- --- 716.6 0.018 0.000 9.0 5 1
02/10/06 11:58 p -7.8 -7.7 -7.9 --- --- 3.5 NNW 0.06 5.2 -11.2 --- --- 716.5 0.018 0.000 9.0 5 1
02/10/06 11:59 p -7.9 -7.9 -8.0 --- --- 3.5 NNW 0.06 4.3 -11.3 --- --- 716.6 0.018 0.000 9.0 5 1
02/11/06 12:00 a -7.8 -7.8 -7.9 --- --- 4.3 NNW 0.07 5.2 -11.9 --- --- 716.5 0.018 0.000 9.0 5 1
02/11/06 12:01 a -8.1 -7.9 -8.1 --- --- 3.5 NNW 0.06 5.2 -11.5 --- --- 716.5 0.018 0.000 9.0 5 1
02/11/06 12:02 a -8.0 -7.9 -8.1 --- --- 3.5 NNW 0.06 5.2 -11.4 --- --- 716.6 0.018 0.000 9.0 5 1
02/11/06 12:03 a -8.0 -7.9 -8.1 --- --- 3.5 NNW 0.06 5.2 -11.4 --- --- 716.5 0.018 0.000 9.1 5 1
02/11/06 12:04 a -8.3 -8.2 -8.3 --- --- 2.6 N 0.04 3.5 -10.8 --- --- 716.5 0.018 0.000 9.1 4 1
02/11/06 12:05 a -8.1 -8.1 -8.1 --- --- 1.7 N 0.03 2.6 -9.5 --- --- 716.5 0.018 0.000 9.1 5 1
02/11/06 12:06 a -7.7 -7.5 -7.9 --- --- 2.6 N 0.04 4.3 -10.2 --- --- 716.5 0.018 0.000 9.1 5 1
02/11/06 12:07 a -7.7 -7.5 -7.7 --- --- 4.3 N 0.07 6.1 -11.7 --- --- 716.5 0.018 0.000 9.1 5 1
02/11/06 12:08 a -7.8 -7.8 -7.9 --- --- 4.3 N 0.07 6.1 -11.9 --- --- 716.6 0.018 0.000 9.1 5 1
02/11/06 12:09 a -7.8 -7.8 -7.9 --- --- 4.3 N 0.07 5.2 -11.9 --- --- 716.5 0.018 0.000 9.1 5 1
02/11/06 12:10 a -7.7 -7.6 -7.8 --- --- 5.2 N 0.09 6.1 -12.4 --- --- 716.6 0.018 0.000 9.1 5 1
02/11/06 12:11 a -7.9 -7.9 -8.0 --- --- 3.5 N 0.06 5.2 -11.3 --- --- 716.6 0.018 0.000 9.1 5 1
02/11/06 12:12 a -7.8 -7.7 -7.9 --- --- 2.6 N 0.04 4.3 -10.3 --- --- 716.5 0.018 0.000 9.1 5 1
02/11/06 12:13 a -7.7 -7.7 -7.7 --- --- 3.5 N 0.06 5.2 -11.1 --- --- 716.5 0.018 0.000 9.1 5 1
02/11/06 12:14 a -7.8 -7.7 -7.9 --- --- 4.3 N 0.07 5.2 -11.9 --- --- 716.5 0.018 0.000 9.1 5 1
02/11/06 12:15 a -7.9 -7.9 -7.9 --- --- 3.5 N 0.06 5.2 -11.3 --- --- 716.5 0.018 0.000 9.1 5 1
02/11/06 12:16 a -7.9 -7.8 -7.9 --- --- 4.3 N 0.07 5.2 -12.0 --- --- 716.5 0.018 0.000 9.1 5 1
02/11/06 12:17 a -7.8 -7.8 -7.9 --- --- 4.3 NNW 0.07 6.1 -11.9 --- --- 716.5 0.018 0.000 9.1 5 1
02/11/06 12:18 a -7.7 -7.7 -7.8 --- --- 3.5 NNW 0.06 5.2 -11.1 --- --- 716.5 0.018 0.000 9.2 5 1
02/11/06 12:19 a -7.6 -7.5 -7.6 --- --- 2.6 NNW 0.04 4.3 -10.1 --- --- 716.5 0.018 0.000 9.2 5 1
02/11/06 12:20 a -7.4 -7.2 -7.5 --- --- 3.5 NNW 0.06 5.2 -10.7 --- --- 716.5 0.018 0.000 9.2 5 1
02/11/06 12:21 a -7.7 -7.6 -7.8 --- --- 5.2 N 0.09 6.1 -12.3 --- --- 716.5 0.018 0.000 9.2 5 1
02/11/06 12:22 a -7.8 -7.7 -7.8 --- --- 5.2 NNW 0.09 6.1 -12.4 --- --- 716.5 0.018 0.000 9.2 5 1
02/11/06 12:23 a -7.9 -7.7 -8.0 --- --- 4.3 N 0.07 6.1 -12.0 --- --- 716.6 0.018 0.000 9.2 5 1
02/11/06 12:24 a -7.9 -7.9 -8.0 --- --- 4.3 N 0.07 6.1 -12.1 --- --- 716.5 0.018 0.000 9.2 5 1
02/11/06 12:25 a -7.9 -7.9 -8.0 --- --- 4.3 N 0.07 7.0 -12.1 --- --- 716.6 0.018 0.000 9.2 5 1
02/11/06 12:26 a -8.0 -7.9 -8.1 --- --- 4.3 NNW 0.07 6.1 -12.1 --- --- 716.6 0.018 0.000 9.2 5 1
02/11/06 12:27 a -7.8 -7.6 -7.9 --- --- 3.5 NNW 0.06 4.3 -11.2 --- --- 716.6 0.018 0.000 9.2 5 1
02/11/06 12:28 a -7.6 -7.4 -7.6 --- --- 3.5 NNW 0.06 4.3 -10.9 --- --- 716.6 0.018 0.000 9.2 5 1
02/11/06 12:29 a -7.4 -7.1 -7.4 --- --- 2.6 NNW 0.04 4.3 -9.8 --- --- 716.6 0.018 0.000 9.2 5 1
02/11/06 12:30 a -6.9 -6.8 -7.1 --- --- 3.5 NNW 0.06 5.2 -10.2 --- --- 716.6 0.018 0.000 9.2 5 1
02/11/06 12:31 a -6.9 -6.9 -7.1 --- --- 3.5 NNW 0.06 4.3 -10.2 --- --- 716.5 0.018 0.000 9.2 5 1
02/11/06 12:32 a -6.9 -6.8 -7.1 --- --- 2.6 N 0.04 4.3 -9.3 --- --- 716.5 0.018 0.000 9.2 5 1
02/11/06 12:33 a -6.8 -6.8 -7.0 --- --- 2.6 NNW 0.04 4.3 -9.2 --- --- 716.6 0.017 0.000 9.2 5 1
02/11/06 12:34 a -7.1 -7.0 -7.2 --- --- 2.6 NNW 0.04 5.2 -9.6 --- --- 716.6 0.018 0.000 9.2 5 1
02/11/06 12:35 a -7.1 -6.9 -7.1 --- --- 3.5 N 0.06 5.2 -10.3 --- --- 716.5 0.018 0.000 9.3 5 1
02/11/06 12:36 a -7.1 -7.1 -7.2 --- --- 2.6 N 0.04 5.2 -9.6 --- --- 716.5 0.018 0.000 9.3 5 1
02/11/06 12:37 a -7.1 -7.0 -7.2 --- --- 3.5 N 0.06 5.2 -10.3 --- --- 716.6 0.018 0.000 9.3 5 1
02/11/06 12:38 a -7.5 -7.4 -7.7 --- --- 3.5 NNW 0.06 5.2 -10.8 --- --- 716.6 0.018 0.000 9.3 5 1
02/11/06 12:39 a -7.6 -7.5 -7.6 --- --- 3.5 NNW 0.06 4.3 -10.9 --- --- 716.5 0.018 0.000 9.3 5 1
02/11/06 12:40 a -7.3 -7.1 -7.5 --- --- 4.3 NNW 0.07 5.2 -11.3 --- --- 716.5 0.018 0.000 9.3 5 1
02/11/06 12:41 a -7.1 -7.0 -7.1 --- --- 2.6 NNW 0.04 3.5 -9.4 --- --- 716.6 0.018 0.000 9.3 5 1
02/11/06 12:42 a -7.4 -7.2 -7.7 --- --- 2.6 NNW 0.04 3.5 -9.8 --- --- 716.6 0.018 0.000 9.3 5 1
02/11/06 12:43 a -7.6 -7.5 -7.7 --- --- 1.7 NNW 0.03 2.6 -8.9 --- --- 716.6 0.018 0.000 9.3 5 1
02/11/06 12:44 a -6.8 -6.2 -7.1 --- --- 1.7 N 0.03 3.5 -8.1 --- --- 716.5 0.017 0.000 9.3 5 1
02/11/06 12:45 a -5.9 -5.6 -6.2 --- --- 2.6 NNE 0.04 4.3 -8.2 --- --- 716.5 0.017 0.000 9.3 5 1
02/11/06 12:46 a -5.2 -4.9 -5.3 --- --- 2.6 NE 0.04 3.5 -7.4 --- --- 716.5 0.016 0.000 9.3 5 1
02/11/06 12:47 a -4.7 -4.5 -4.9 --- --- 3.5 ENE 0.06 4.3 -7.6 --- --- 716.6 0.016 0.000 9.3 5 1
02/11/06 12:48 a -4.2 -4.1 -4.3 --- --- 4.3 ENE 0.07 6.1 -7.7 --- --- 716.6 0.016 0.000 9.3 5 1
02/11/06 12:49 a -4.0 -3.9 -4.0 --- --- 5.2 ENE 0.09 6.1 -7.9 --- --- 716.7 0.016 0.000 9.3 5 1
02/11/06 12:50 a -3.7 -3.6 -3.9 --- --- 4.3 ENE 0.07 5.2 -7.1 --- --- 716.5 0.015 0.000 9.3 5 1
02/11/06 12:51 a -3.6 -3.6 -3.6 --- --- 3.5 NE 0.06 5.2 -6.3 --- --- 716.6 0.015 0.000 9.3 5 1
02/11/06 12:52 a -3.5 -3.5 -3.6 --- --- 4.3 NE 0.07 6.1 -6.8 --- --- 716.6 0.015 0.000 9.3 5 1
02/11/06 12:53 a -4.3 -3.6 -4.9 --- --- 2.6 N 0.04 4.3 -6.4 --- --- 716.6 0.016 0.000 9.3 5 1
02/11/06 12:54 a -4.8 -4.6 -4.9 --- --- 0.9 N 0.01 2.6 -4.8 --- --- 716.5 0.016 0.000 9.3 5 1
02/11/06 12:55 a -4.9 -4.9 -5.1 --- --- 3.5 NW 0.06 4.3 -7.8 --- --- 716.6 0.016 0.000 9.3 5 1
02/11/06 12:56 a -5.4 -5.3 -5.6 --- --- 2.6 NW 0.04 3.5 -7.6 --- --- 716.6 0.016 0.000 9.3 5 1
02/11/06 12:57 a -5.9 -5.6 -6.2 --- --- 2.6 WNW 0.04 3.5 -8.2 --- --- 716.6 0.017 0.000 9.3 5 1
02/11/06 12:58 a -6.2 -6.2 -6.2 --- --- 2.6 WNW 0.04 3.5 -8.4 --- --- 716.6 0.017 0.000 9.3 5 1
02/11/06 12:59 a -6.2 -6.1 -6.2 --- --- 1.7 WNW 0.03 3.5 -7.3 --- --- 716.7 0.017 0.000 9.3 5 1
02/11/06 1:00 a -6.1 -6.1 -6.1 --- --- 1.7 WNW 0.03 2.6 -7.3 --- --- 716.6 0.017 0.000 9.3 5 1
02/11/06 1:01 a -6.1 -6.0 -6.2 --- --- 2.6 WNW 0.04 3.5 -8.3 --- --- 716.6 0.017 0.000 9.3 5 1
02/11/06 1:02 a -6.0 -5.9 -6.0 --- --- 2.6 WNW 0.04 3.5 -8.3 --- --- 716.6 0.017 0.000 9.2 5 1
02/11/06 1:03 a -5.9 -5.8 -5.9 --- --- 0.9 WNW 0.01 2.6 -5.9 --- --- 716.5 0.017 0.000 9.2 5 1
02/11/06 1:04 a -5.8 -5.8 -5.9 --- --- 1.7 WNW 0.03 2.6 -7.0 --- --- 716.5 0.017 0.000 9.2 5 1
02/11/06 1:05 a -5.5 -5.4 -5.6 --- --- 0.0 WNW 0.00 0.9 -5.5 --- --- 716.5 0.017 0.000 9.2 5 1
02/11/06 1:06 a -5.2 -5.2 -5.2 --- --- 0.0 WNW 0.00 0.9 -5.2 --- --- 716.6 0.016 0.000 9.2 5 1
02/11/06 1:07 a -5.1 -5.1 -5.1 --- --- 0.9 WNW 0.01 1.7 -5.1 --- --- 716.5 0.016 0.000 9.2 5 1
02/11/06 1:08 a -4.7 -4.6 -4.8 --- --- 0.0 WNW 0.00 0.9 -4.7 --- --- 716.5 0.016 0.000 9.2 5 1
02/11/06 1:09 a -4.3 -4.3 -4.3 --- --- 1.7 WNW 0.03 3.5 -5.3 --- --- 716.5 0.016 0.000 9.2 5 1
02/11/06 1:10 a -4.7 -4.6 -4.8 --- --- 0.9 WNW 0.01 3.5 -4.7 --- --- 716.6 0.016 0.000 9.2 5 1
02/11/06 1:11 a -4.7 -4.6 -4.8 --- --- 1.7 WNW 0.03 2.6 -5.7 --- --- 716.5 0.016 0.000 9.2 5 1
02/11/06 1:12 a -4.5 -4.3 -4.6 --- --- 4.3 NW 0.07 7.8 -8.0 --- --- 716.6 0.016 0.000 9.2 5 1
02/11/06 1:13 a -4.9 -5.0 -5.0 --- --- 2.6 NNW 0.04 4.3 -7.1 --- --- 716.5 0.016 0.000 9.2 5 1
02/11/06 1:14 a -5.1 -5.0 -5.1 --- --- 1.7 NNW 0.03 2.6 -6.1 --- --- 716.6 0.016 0.000 9.2 5 1
02/11/06 1:15 a -4.9 -4.9 -4.9 --- --- 3.5 NNW 0.06 4.3 -7.9 --- --- 716.5 0.016 0.000 9.2 5 1
02/11/06 1:16 a -5.1 -5.1 -5.2 --- --- 1.7 NW 0.03 3.5 -6.2 --- --- 716.6 0.016 0.000 9.2 5 1
02/11/06 1:17 a -4.9 -4.6 -5.0 --- --- 0.0 NW 0.00 0.9 -4.9 --- --- 716.5 0.016 0.000 9.2 5 1
02/11/06 1:18 a -4.5 -4.4 -4.6 --- --- 0.9 NW 0.01 2.6 -4.5 --- --- 716.4 0.016 0.000 9.2 5 1
02/11/06 1:19 a -5.1 -4.9 -5.2 --- --- 2.6 WNW 0.04 4.3 -7.2 --- --- 716.5 0.016 0.000 9.2 5 1
02/11/06 1:20 a -5.3 -5.1 -5.3 --- --- 2.6 WNW 0.04 3.5 -7.4 --- --- 716.6 0.016 0.000 9.1 5 1
02/11/06 1:21 a -5.2 -5.2 -5.4 --- --- 2.6 WNW 0.04 3.5 -7.4 --- --- 716.5 0.016 0.000 9.1 5 1
02/11/06 1:22 a -5.4 -5.4 -5.6 --- --- 2.6 WNW 0.04 3.5 -7.7 --- --- 716.6 0.017 0.000 9.1 5 1
02/11/06 1:23 a -5.7 -5.6 -5.8 --- --- 2.6 WNW 0.04 3.5 -7.9 --- --- 716.5 0.017 0.000 9.1 5 1
02/11/06 1:24 a -5.7 -5.7 -5.8 --- --- 2.6 WNW 0.04 4.3 -7.9 --- --- 716.6 0.017 0.000 9.1 5 1
02/11/06 1:25 a -5.8 -5.8 -5.8 --- --- 3.5 NW 0.06 4.3 -8.9 --- --- 716.6 0.017 0.000 9.1 5 1
02/11/06 1:26 a -5.8 -5.8 -5.9 --- --- 3.5 NW 0.06 4.3 -8.8 --- --- 716.6 0.017 0.000 9.1 5 1
02/11/06 1:27 a -5.9 -5.8 -6.1 --- --- 2.6 NW 0.04 3.5 -8.2 --- --- 716.5 0.017 0.000 9.1 5 1
02/11/06 1:28 a -5.7 -5.4 -5.8 --- --- 1.7 NW 0.03 2.6 -6.8 --- --- 716.5 0.017 0.000 9.1 5 1
02/11/06 1:29 a -5.2 -4.9 -5.4 --- --- 1.7 NW 0.03 3.5 -6.3 --- --- 716.5 0.016 0.000 9.1 5 1
02/11/06 1:30 a -4.9 -4.8 -4.9 --- --- 1.7 NW 0.03 2.6 -5.9 --- --- 716.5 0.016 0.000 9.1 5 1
02/11/06 1:31 a -5.2 -4.9 -5.5 --- --- 3.5 NW 0.06 4.3 -8.2 --- --- 716.5 0.016 0.000 9.1 5 1
02/11/06 1:32 a -5.7 -5.5 -6.0 --- --- 3.5 NW 0.06 4.3 -8.8 --- --- 716.5 0.017 0.000 9.1 5 1
02/11/06 1:33 a -6.1 -5.9 -6.3 --- --- 2.6 NW 0.04 3.5 -8.3 --- --- 716.5 0.017 0.000 9.1 5 1
02/11/06 1:34 a -6.3 -6.3 -6.4 --- --- 1.7 NNW 0.03 3.5 -7.6 --- --- 716.5 0.017 0.000 9.1 5 1
02/11/06 1:35 a -6.3 -6.2 -6.4 --- --- 2.6 NNW 0.04 4.3 -8.7 --- --- 716.4 0.017 0.000 9.1 5 1
02/11/06 1:36 a -6.3 -6.1 -6.4 --- --- 3.5 NNW 0.06 4.3 -9.5 --- --- 716.5 0.017 0.000 9.1 5 1
02/11/06 1:37 a -6.0 -5.9 -6.1 --- --- 4.3 NNW 0.07 5.2 -9.8 --- --- 716.5 0.017 0.000 9.1 5 1
02/11/06 1:38 a -5.8 -5.7 -5.9 --- --- 3.5 NNW 0.06 5.2 -8.9 --- --- 716.5 0.017 0.000 9.1 5 1
02/11/06 1:39 a -5.7 -5.6 -5.7 --- --- 1.7 NNW 0.03 3.5 -6.8 --- --- 716.5 0.017 0.000 9.1 5 1
02/11/06 1:40 a -5.6 -5.5 -5.6 --- --- 0.9 NNW 0.01 2.6 -5.6 --- --- 716.5 0.017 0.000 9.1 5 1
02/11/06 1:41 a -5.6 -5.4 -5.7 --- --- 1.7 NNE 0.03 5.2 -6.7 --- --- 716.5 0.017 0.000 9.1 5 1
02/11/06 1:42 a -5.2 -5.0 -5.3 --- --- 1.7 NNE 0.03 3.5 -6.3 --- --- 716.5 0.016 0.000 9.1 5 1
02/11/06 1:43 a -4.8 -4.6 -4.8 --- --- 1.7 N 0.03 3.5 -5.8 --- --- 716.6 0.016 0.000 9.1 5 1
02/11/06 1:44 a -4.6 -4.6 -4.7 --- --- 1.7 N 0.03 2.6 -5.7 --- --- 716.6 0.016 0.000 9.1 5 1
02/11/06 1:45 a -4.8 -4.7 -4.9 --- --- 2.6 N 0.04 5.2 -6.9 --- --- 716.5 0.016 0.000 9.1 5 1
02/11/06 1:46 a -4.7 -4.7 -4.7 --- --- 2.6 N 0.04 5.2 -6.8 --- --- 716.5 0.016 0.000 9.1 5 1
02/11/06 1:47 a -4.6 -4.4 -4.7 --- --- 1.7 NNW 0.03 3.5 -5.6 --- --- 716.4 0.016 0.000 9.1 5 1
02/11/06 1:48 a -4.6 -4.2 -4.8 --- --- 3.5 NNE 0.06 6.1 -7.4 --- --- 716.5 0.016 0.000 9.1 5 1
02/11/06 1:49 a -4.1 -3.9 -4.1 --- --- 4.3 NNE 0.07 5.2 -7.5 --- --- 716.5 0.016 0.000 9.1 5 1
02/11/06 1:50 a -4.0 -3.9 -4.1 --- --- 5.2 NNE 0.09 7.0 -7.9 --- --- 716.5 0.016 0.000 9.1 5 1
02/11/06 1:51 a -3.9 -3.9 -4.1 --- --- 4.3 NNE 0.07 5.2 -7.4 --- --- 716.5 0.015 0.000 9.1 5 1
02/11/06 1:52 a -4.0 -3.9 -4.3 --- --- 5.2 NNE 0.09 6.1 -7.9 --- --- 716.5 0.016 0.000 9.1 5 1
02/11/06 1:53 a -4.3 -4.2 -4.6 --- --- 3.5 N 0.06 4.3 -7.2 --- --- 716.4 0.016 0.000 9.1 5 1
02/11/06 1:54 a -4.7 -4.5 -4.8 --- --- 4.3 NE 0.07 7.0 -8.3 --- --- 716.4 0.016 0.000 9.0 5 1
02/11/06 1:55 a -4.7 -4.5 -4.9 --- --- 3.5 N 0.06 5.2 -7.6 --- --- 716.4 0.016 0.000 9.0 5 1
02/11/06 1:56 a -4.8 -4.6 -5.2 --- --- 4.3 NE 0.07 5.2 -8.4 --- --- 716.4 0.016 0.000 9.0 5 1
02/11/06 1:57 a -4.2 -3.9 -4.3 --- --- 4.3 NNE 0.07 7.0 -7.6 --- --- 716.5 0.016 0.000 9.0 5 1
02/11/06 1:58 a -4.1 -3.9 -4.2 --- --- 3.5 NE 0.06 5.2 -6.9 --- --- 716.5 0.016 0.000 9.0 5 1
02/11/06 1:59 a -3.9 -3.9 -3.9 --- --- 6.1 NE 0.10 7.0 -8.3 --- --- 716.4 0.015 0.000 9.0 5 1
02/11/06 2:00 a -4.2 -3.9 -5.1 --- --- 4.3 N 0.07 7.0 -7.7 --- --- 716.4 0.016 0.000 9.0 5 1
02/11/06 2:01 a -5.7 -5.1 -5.9 --- --- 3.5 N 0.06 6.1 -8.7 --- --- 716.5 0.017 0.000 9.0 5 1
02/11/06 2:02 a -5.4 -5.2 -5.6 --- --- 4.3 NNE 0.07 7.8 -9.1 --- --- 716.5 0.016 0.000 9.0 5 1
02/11/06 2:03 a -5.0 -4.7 -5.2 --- --- 4.3 NE 0.07 5.2 -8.6 --- --- 716.4 0.016 0.000 9.0 5 1
02/11/06 2:04 a -4.7 -4.7 -4.8 --- --- 5.2 NNE 0.09 7.0 -8.8 --- --- 716.5 0.016 0.000 9.0 5 1
02/11/06 2:05 a -4.7 -4.7 -4.8 --- --- 6.1 NNE 0.10 7.0 -9.3 --- --- 716.4 0.016 0.000 9.0 5 1
02/11/06 2:06 a -4.9 -4.7 -5.2 --- --- 5.2 NNE 0.09 6.1 -9.0 --- --- 716.5 0.016 0.000 9.0 5 1
02/11/06 2:07 a -5.2 -5.1 -5.2 --- --- 5.2 NE 0.09 7.0 -9.3 --- --- 716.4 0.016 0.000 9.0 5 1
02/11/06 2:08 a -4.9 -4.8 -5.1 --- --- 7.0 NE 0.12 8.7 -10.0 --- --- 716.4 0.016 0.000 9.0 5 1
02/11/06 2:09 a -5.2 -4.8 -5.8 --- --- 4.3 NNW 0.07 8.7 -8.9 --- --- 716.4 0.016 0.000 9.0 5 1
02/11/06 2:10 a -5.8 -5.6 -5.8 --- --- 2.6 NNE 0.04 7.0 -8.1 --- --- 716.4 0.017 0.000 9.0 5 1
02/11/06 2:11 a -5.6 -5.5 -5.6 --- --- 2.6 NNE 0.04 5.2 -7.8 --- --- 716.4 0.017 0.000 9.0 5 1
02/11/06 2:12 a -5.3 -4.9 -5.4 --- --- 0.9 NNE 0.01 2.6 -5.3 --- --- 716.4 0.016 0.000 9.0 5 1
02/11/06 2:13 a -4.4 -4.1 -4.9 --- --- 0.9 ESE 0.01 2.6 -4.4 --- --- 716.4 0.016 0.000 9.0 5 1
02/11/06 2:14 a -3.8 -3.7 -3.9 --- --- 0.9 ESE 0.01 2.6 -3.8 --- --- 716.4 0.015 0.000 9.0 5 1
02/11/06 2:15 a -4.4 -3.9 -5.0 --- --- 3.5 W 0.06 4.3 -7.2 --- --- 716.4 0.016 0.000 9.0 5 1
02/11/06 2:16 a -5.1 -5.0 -5.2 --- --- 3.5 WNW 0.06 4.3 -8.1 --- --- 716.4 0.016 0.000 9.0 5 1
02/11/06 2:17 a -5.1 -4.8 -5.2 --- --- 1.7 WNW 0.03 2.6 -6.1 --- --- 716.4 0.016 0.000 9.0 5 1
02/11/06 2:18 a -4.7 -4.7 -4.8 --- --- 0.0 WNW 0.00 0.9 -4.7 --- --- 716.4 0.016 0.000 9.0 5 1
02/11/06 2:19 a -4.7 -4.6 -4.9 --- --- 2.6 WNW 0.04 3.5 -6.8 --- --- 716.4 0.016 0.000 9.0 5 1
02/11/06 2:20 a -4.9 -4.8 -4.9 --- --- 0.9 SSW 0.01 2.6 -4.9 --- --- 716.4 0.016 0.000 9.0 5 1
02/11/06 2:21 a -4.8 -4.7 -4.9 --- --- 1.7 SSW 0.03 3.5 -5.9 --- --- 716.4 0.016 0.000 9.0 5 1
02/11/06 2:22 a -4.9 -4.7 -4.9 --- --- 4.3 NE 0.07 8.7 -8.5 --- --- 716.4 0.016 0.000 9.0 5 1
02/11/06 2:23 a -4.7 -4.6 -4.7 --- --- 7.0 ENE 0.12 8.7 -9.7 --- --- 716.3 0.016 0.000 9.0 5 1
02/11/06 2:24 a -4.4 -4.2 -4.6 --- --- 2.6 NE 0.04 5.2 -6.4 --- --- 716.3 0.016 0.000 9.0 5 1
02/11/06 2:25 a -4.0 -3.6 -4.2 --- --- 2.6 NE 0.04 4.3 -6.0 --- --- 716.4 0.016 0.000 9.0 5 1
02/11/06 2:26 a -3.4 -3.2 -3.6 --- --- 0.0 NE 0.00 1.7 -3.4 --- --- 716.4 0.015 0.000 9.0 5 1
02/11/06 2:27 a -3.0 -2.9 -3.2 --- --- 3.5 ENE 0.06 5.2 -5.7 --- --- 716.5 0.015 0.000 9.0 5 1
02/11/06 2:28 a -2.9 -2.9 -3.2 --- --- 0.9 ENE 0.01 3.5 -2.9 --- --- 716.4 0.015 0.000 9.0 5 1
02/11/06 2:29 a -3.8 -3.2 -4.1 --- --- 3.5 N 0.06 5.2 -6.6 --- --- 716.4 0.015 0.000 9.0 5 1
02/11/06 2:30 a -4.4 -4.3 -4.5 --- --- 2.6 N 0.04 4.3 -6.4 --- --- 716.4 0.016 0.000 9.0 5 1
02/11/06 2:31 a -3.9 -3.4 -4.3 --- --- 2.6 E 0.04 5.2 -5.9 --- --- 716.5 0.015 0.000 9.0 5 1
02/11/06 2:32 a -3.3 -3.2 -3.4 --- --- 4.3 E 0.07 5.2 -6.6 --- --- 716.3 0.015 0.000 8.9 5 1
02/11/06 2:33 a -3.6 -3.3 -4.3 --- --- 2.6 NNE 0.04 4.3 -5.6 --- --- 716.3 0.015 0.000 8.9 5 1
02/11/06 2:34 a -4.4 -4.3 -4.6 --- --- 2.6 NW 0.04 5.2 -6.5 --- --- 716.4 0.016 0.000 8.9 5 1
02/11/06 2:35 a -4.3 -4.0 -4.5 --- --- 0.0 NW 0.00 2.6 -4.3 --- --- 716.4 0.016 0.000 8.9 5 1
02/11/06 2:36 a -4.0 -4.0 -4.2 --- --- 2.6 NW 0.04 4.3 -6.0 --- --- 716.4 0.016 0.000 8.9 5 1
02/11/06 2:37 a -4.3 -4.2 -4.5 --- --- 0.9 NW 0.01 2.6 -4.3 --- --- 716.3 0.016 0.000 8.9 5 1
02/11/06 2:38 a -4.2 -3.9 -4.5 --- --- 2.6 NE 0.04 3.5 -6.3 --- --- 716.4 0.016 0.000 8.9 5 1
02/11/06 2:39 a -3.6 -3.3 -3.9 --- --- 4.3 ENE 0.07 6.1 -6.9 --- --- 716.3 0.015 0.000 9.0 5 1
02/11/06 2:40 a -3.2 -3.1 -3.3 --- --- 6.1 ENE 0.10 7.0 -7.5 --- --- 716.3 0.015 0.000 9.0 5 1
02/11/06 2:41 a -3.4 -3.1 -4.2 --- --- 6.1 N 0.10 7.8 -7.7 --- --- 716.4 0.015 0.000 9.0 5 1
02/11/06 2:42 a -4.8 -4.2 -5.0 --- --- 4.3 N 0.07 5.2 -8.3 --- --- 716.4 0.016 0.000 8.9 5 1
02/11/06 2:43 a -4.4 -3.9 -4.9 --- --- 3.5 NE 0.06 5.2 -7.3 --- --- 716.4 0.016 0.000 8.9 5 1
02/11/06 2:44 a -4.2 -3.9 -4.4 --- --- 4.3 NNW 0.07 6.1 -7.6 --- --- 716.3 0.016 0.000 8.9 5 1
02/11/06 2:45 a -4.7 -4.4 -4.9 --- --- 0.9 NNW 0.01 2.6 -4.7 --- --- 716.3 0.016 0.000 8.9 5 1
02/11/06 2:46 a -4.3 -3.7 -4.6 --- --- 0.0 --- 0.00 0.0 -4.3 --- --- 716.4 0.016 0.000 8.9 5 1
02/11/06 2:47 a -3.3 -3.1 -3.7 --- --- 2.6 NE 0.04 3.5 -5.3 --- --- 716.3 0.015 0.000 8.9 5 1
02/11/06 2:48 a -3.2 -3.1 -3.2 --- --- 3.5 ENE 0.06 5.2 -5.8 --- --- 716.3 0.015 0.000 8.9 5 1
02/11/06 2:49 a -3.2 -3.2 -3.2 --- --- 1.7 NE 0.03 2.6 -4.1 --- --- 716.3 0.015 0.000 8.9 5 1
02/11/06 2:50 a -3.7 -3.2 -4.4 --- --- 3.5 N 0.06 7.0 -6.4 --- --- 716.4 0.015 0.000 8.9 5 1
02/11/06 2:51 a -4.7 -4.7 -4.8 --- --- 1.7 N 0.03 2.6 -5.7 --- --- 716.3 0.016 0.000 8.9 5 1
02/11/06 2:52 a -4.8 -4.5 -4.9 --- --- 0.9 N 0.01 3.5 -4.8 --- --- 716.3 0.016 0.000 8.9 5 1
02/11/06 2:53 a -4.2 -4.1 -4.3 --- --- 0.0 N 0.00 1.7 -4.2 --- --- 716.3 0.016 0.000 8.9 5 1
02/11/06 2:54 a -4.1 -3.9 -4.5 --- --- 1.7 NNE 0.03 4.3 -5.1 --- --- 716.3 0.016 0.000 8.9 5 1
02/11/06 2:55 a -4.8 -4.5 -4.9 --- --- 2.6 W 0.04 4.3 -6.9 --- --- 716.2 0.016 0.000 8.9 5 1
02/11/06 2:56 a -4.7 -4.5 -4.8 --- --- 1.7 WNW 0.03 3.5 -5.7 --- --- 716.3 0.016 0.000 9.0 5 1
02/11/06 2:57 a -4.3 -4.2 -4.3 --- --- 0.9 NW 0.01 3.5 -4.3 --- --- 716.2 0.016 0.000 8.9 5 1
02/11/06 2:58 a -4.3 -4.3 -4.4 --- --- 0.0 W 0.00 2.6 -4.3 --- --- 716.3 0.016 0.000 8.9 5 1
02/11/06 2:59 a -3.9 -3.7 -4.3 --- --- 0.0 --- 0.00 0.0 -3.9 --- --- 716.2 0.015 0.000 8.9 5 1
02/11/06 3:00 a -3.4 -3.2 -3.6 --- --- 3.5 NE 0.06 6.1 -6.2 --- --- 716.3 0.015 0.000 8.9 5 1
02/11/06 3:01 a -3.0 -3.0 -3.0 --- --- 6.1 NE 0.10 7.0 -7.2 --- --- 716.3 0.015 0.000 8.9 5 1
02/11/06 3:02 a -3.1 -2.9 -3.3 --- --- 4.3 NNE 0.07 6.1 -6.4 --- --- 716.2 0.015 0.000 8.9 5 1
02/11/06 3:03 a -3.3 -3.3 -3.3 --- --- 4.3 NE 0.07 6.1 -6.6 --- --- 716.3 0.015 0.000 8.9 5 1
02/11/06 3:04 a -3.0 -2.8 -3.1 --- --- 3.5 NE 0.06 4.3 -5.7 --- --- 716.3 0.015 0.000 8.9 5 1
02/11/06 3:05 a -2.6 -2.6 -2.6 --- --- 1.7 NE 0.03 3.5 -3.4 --- --- 716.3 0.015 0.000 8.9 5 1
02/11/06 3:06 a -2.6 -2.3 -2.8 --- --- 2.6 ENE 0.04 4.3 -4.4 --- --- 716.2 0.015 0.000 8.9 5 1
02/11/06 3:07 a -2.3 -2.3 -2.4 --- --- 7.8 ENE 0.13 9.6 -7.2 --- --- 716.2 0.014 0.000 8.9 5 1
02/11/06 3:08 a -3.3 -2.7 -4.2 --- --- 4.3 NNW 0.07 6.1 -6.7 --- --- 716.3 0.015 0.000 8.9 5 1
02/11/06 3:09 a -4.3 -4.2 -4.4 --- --- 0.9 NNW 0.01 2.6 -4.3 --- --- 716.3 0.016 0.000 8.9 5 1
02/11/06 3:10 a -3.9 -3.5 -4.2 --- --- 4.3 NNE 0.07 10.4 -7.3 --- --- 716.2 0.015 0.000 8.9 5 1
02/11/06 3:11 a -3.4 -3.3 -3.4 --- --- 7.0 ENE 0.12 10.4 -8.1 --- --- 716.2 0.015 0.000 8.9 5 1
02/11/06 3:12 a -3.5 -3.4 -3.6 --- --- 7.8 ENE 0.13 8.7 -8.6 --- --- 716.2 0.015 0.000 8.9 5 1
02/11/06 3:13 a -4.0 -4.0 -4.1 --- --- 7.0 NE 0.12 7.8 -8.8 --- --- 716.3 0.016 0.000 8.9 5 1
02/11/06 3:14 a -4.4 -4.3 -4.6 --- --- 7.8 NE 0.13 9.6 -9.7 --- --- 716.2 0.016 0.000 8.9 5 1
02/11/06 3:15 a -4.8 -4.6 -5.0 --- --- 9.6 NE 0.16 10.4 -10.8 --- --- 716.3 0.016 0.000 8.9 5 1
02/11/06 3:16 a -5.6 -5.4 -5.9 --- --- 8.7 NE 0.14 10.4 -11.5 --- --- 716.2 0.017 0.000 8.9 5 1
02/11/06 3:17 a -6.1 -5.9 -6.4 --- --- 9.6 NE 0.16 10.4 -12.4 --- --- 716.2 0.017 0.000 8.9 5 1
02/11/06 3:18 a -6.7 -6.6 -6.9 --- --- 9.6 NE 0.16 10.4 -13.3 --- --- 716.1 0.017 0.000 8.9 5 1
02/11/06 3:19 a -6.9 -6.9 -6.9 --- --- 11.3 NE 0.19 12.2 -14.2 --- --- 716.2 0.018 0.000 8.9 5 1
02/11/06 3:20 a -7.1 -7.1 -7.2 --- --- 9.6 NE 0.16 12.2 -13.7 --- --- 716.2 0.018 0.000 8.9 5 1
02/11/06 3:21 a -7.2 -7.1 -7.3 --- --- 9.6 NE 0.16 11.3 -13.9 --- --- 716.1 0.018 0.000 8.9 5 1
02/11/06 3:22 a -7.8 -7.6 -8.1 --- --- 10.4 NE 0.17 12.2 -14.9 --- --- 716.2 0.018 0.000 8.9 5 1
02/11/06 3:23 a -8.2 -8.2 -8.2 --- --- 9.6 NE 0.16 10.4 -15.1 --- --- 716.2 0.018 0.000 8.9 5 1
02/11/06 3:24 a -8.2 -8.1 -8.2 --- --- 9.6 NE 0.16 11.3 -15.1 --- --- 716.2 0.018 0.000 8.9 5 1
02/11/06 3:25 a -8.2 -8.2 -8.2 --- --- 9.6 NE 0.16 10.4 -15.1 --- --- 716.2 0.018 0.000 8.9 5 1
02/11/06 3:26 a -8.3 -8.3 -8.4 --- --- 10.4 NE 0.17 11.3 -15.6 --- --- 716.2 0.019 0.000 9.0 5 1
02/11/06 3:27 a -8.3 -8.3 -8.3 --- --- 10.4 NE 0.17 11.3 -15.6 --- --- 716.2 0.019 0.000 9.0 5 1
02/11/06 3:28 a -8.3 -8.3 -8.4 --- --- 10.4 NE 0.17 11.3 -15.6 --- --- 716.2 0.019 0.000 9.0 5 1
02/11/06 3:29 a -8.3 -8.3 -8.4 --- --- 10.4 NE 0.17 11.3 -15.6 --- --- 716.1 0.019 0.000 8.9 5 1
02/11/06 3:30 a -8.4 -8.4 -8.6 --- --- 10.4 NE 0.17 11.3 -15.7 --- --- 716.2 0.019 0.000 8.9 5 1
02/11/06 3:31 a -8.8 -8.8 -8.9 --- --- 10.4 NE 0.17 11.3 -16.2 --- --- 716.2 0.019 0.000 8.9 5 1
02/11/06 3:32 a -8.9 -8.9 -9.0 --- --- 10.4 NE 0.17 12.2 -16.3 --- --- 716.2 0.019 0.000 8.9 5 1
02/11/06 3:33 a -9.0 -9.0 -9.1 --- --- 11.3 ENE 0.19 12.2 -16.7 --- --- 716.2 0.019 0.000 8.9 5 1
02/11/06 3:34 a -9.1 -9.0 -9.1 --- --- 10.4 NE 0.17 11.3 -16.5 --- --- 716.2 0.019 0.000 8.9 5 1
02/11/06 3:35 a -9.1 -9.1 -9.1 --- --- 9.6 NE 0.16 10.4 -16.2 --- --- 716.0 0.019 0.000 8.9 5 1
02/11/06 3:36 a -9.1 -9.0 -9.1 --- --- 10.4 NE 0.17 12.2 -16.5 --- --- 716.1 0.019 0.000 8.9 5 1
02/11/06 3:37 a -9.2 -9.2 -9.3 --- --- 11.3 NE 0.19 12.2 -17.1 --- --- 716.0 0.019 0.000 9.0 5 1
02/11/06 3:38 a -9.3 -9.3 -9.4 --- --- 10.4 ENE 0.17 12.2 -16.8 --- --- 716.1 0.019 0.000 9.1 5 1
02/11/06 3:39 a -9.3 -9.3 -9.4 --- --- 10.4 NE 0.17 12.2 -16.8 --- --- 716.1 0.019 0.000 9.1 5 1
02/11/06 3:40 a -9.6 -9.5 -9.7 --- --- 11.3 NE 0.19 12.2 -17.4 --- --- 716.0 0.019 0.000 9.1 5 1
02/11/06 3:41 a -9.7 -9.6 -9.7 --- --- 11.3 NE 0.19 12.2 -17.6 --- --- 716.1 0.019 0.000 9.1 5 1
02/11/06 3:42 a -9.7 -9.5 -9.7 --- --- 10.4 NE 0.17 11.3 -17.3 --- --- 715.9 0.019 0.000 9.2 5 1
02/11/06 3:43 a -9.2 -9.1 -9.3 --- --- 10.4 NE 0.17 11.3 -16.7 --- --- 716.0 0.019 0.000 9.2 5 1
02/11/06 3:44 a -8.7 -8.7 -8.8 --- --- 11.3 NE 0.19 12.2 -16.4 --- --- 716.0 0.019 0.000 9.2 5 1
02/11/06 3:45 a -8.8 -8.7 -8.8 --- --- 11.3 NE 0.19 12.2 -16.4 --- --- 716.0 0.019 0.000 9.3 5 1
02/11/06 3:46 a -8.8 -8.8 -8.9 --- --- 11.3 NE 0.19 12.2 -16.6 --- --- 715.9 0.019 0.000 9.3 5 1
02/11/06 3:47 a -8.9 -8.8 -8.9 --- --- 9.6 NE 0.16 11.3 -15.9 --- --- 716.0 0.019 0.000 9.3 5 1
02/11/06 3:48 a -8.8 -8.7 -8.8 --- --- 10.4 NE 0.17 12.2 -16.2 --- --- 715.9 0.019 0.000 9.3 5 1
02/11/06 3:49 a -9.0 -9.1 -9.1 --- --- 10.4 NE 0.17 11.3 -16.4 --- --- 716.0 0.019 0.000 9.4 5 1
02/11/06 3:50 a -9.2 -9.1 -9.3 --- --- 10.4 NE 0.17 11.3 -16.7 --- --- 716.0 0.019 0.000 9.4 5 1
02/11/06 3:51 a -9.2 -9.1 -9.3 --- --- 10.4 NE 0.17 11.3 -16.7 --- --- 716.0 0.019 0.000 9.4 5 1
02/11/06 3:52 a -9.0 -8.9 -9.1 --- --- 10.4 NE 0.17 12.2 -16.4 --- --- 716.0 0.019 0.000 9.4 5 1
02/11/06 3:53 a -9.1 -8.9 -9.3 --- --- 10.4 NE 0.17 12.2 -16.5 --- --- 715.9 0.019 0.000 9.4 5 1
02/11/06 3:54 a -9.2 -8.9 -9.3 --- --- 10.4 NE 0.17 11.3 -16.7 --- --- 716.0 0.019 0.000 9.4 5 1
02/11/06 3:55 a -8.9 -8.9 -9.0 --- --- 10.4 NE 0.17 11.3 -16.4 --- --- 716.0 0.019 0.000 9.5 5 1
02/11/06 3:56 a -9.1 -9.0 -9.2 --- --- 11.3 NE 0.19 13.0 -16.9 --- --- 716.0 0.019 0.000 9.5 5 1
02/11/06 3:57 a -9.3 -9.3 -9.4 --- --- 11.3 NE 0.19 13.0 -17.2 --- --- 716.1 0.019 0.000 9.6 5 1
02/11/06 3:58 a -9.7 -9.6 -9.8 --- --- 11.3 NE 0.19 13.0 -17.6 --- --- 716.0 0.019 0.000 9.6 5 1
02/11/06 3:59 a -9.7 -9.6 -9.7 --- --- 10.4 NE 0.17 12.2 -17.3 --- --- 716.0 0.019 0.000 9.6 5 1
02/11/06 4:00 a -9.6 -9.6 -9.7 --- --- 11.3 NE 0.19 12.2 -17.5 --- --- 716.0 0.019 0.000 9.6 5 1
02/11/06 4:01 a -9.7 -9.7 -9.7 --- --- 11.3 NE 0.19 13.0 -17.7 --- --- 716.0 0.019 0.000 9.6 5 1
02/11/06 4:02 a -9.7 -9.6 -9.7 --- --- 9.6 NE 0.16 11.3 -16.9 --- --- 715.9 0.019 0.000 9.6 5 1
02/11/06 4:03 a -9.4 -9.3 -9.6 --- --- 10.4 NE 0.17 13.0 -17.0 --- --- 715.9 0.019 0.000 9.6 5 1
02/11/06 4:04 a -9.4 -9.3 -9.4 --- --- 10.4 NE 0.17 11.3 -16.9 --- --- 716.0 0.019 0.000 9.6 5 1
02/11/06 4:05 a -9.3 -9.3 -9.4 --- --- 11.3 NE 0.19 12.2 -17.2 --- --- 716.1 0.019 0.000 9.7 5 1
02/11/06 4:06 a -9.4 -9.4 -9.6 --- --- 11.3 NE 0.19 13.0 -17.3 --- --- 716.0 0.019 0.000 9.7 5 1
02/11/06 4:07 a -9.6 -9.6 -9.7 --- --- 11.3 NE 0.19 12.2 -17.5 --- --- 716.1 0.019 0.000 9.7 5 1
02/11/06 4:08 a -9.7 -9.6 -9.7 --- --- 10.4 NE 0.17 12.2 -17.3 --- --- 716.0 0.019 0.000 9.7 5 1
02/11/06 4:09 a -9.6 -9.5 -9.6 --- --- 10.4 NE 0.17 12.2 -17.2 --- --- 716.0 0.019 0.000 9.7 5 1
02/11/06 4:10 a -9.6 -9.6 -9.6 --- --- 10.4 NE 0.17 12.2 -17.1 --- --- 716.0 0.019 0.000 9.7 5 1
02/11/06 4:11 a -9.6 -9.4 -9.6 --- --- 10.4 NE 0.17 12.2 -17.1 --- --- 716.1 0.019 0.000 9.8 5 1
02/11/06 4:12 a -9.4 -9.4 -9.4 --- --- 11.3 NE 0.19 12.2 -17.3 --- --- 716.1 0.019 0.000 9.8 5 1
02/11/06 4:13 a -9.6 -9.6 -9.6 --- --- 11.3 NE 0.19 13.0 -17.4 --- --- 716.0 0.019 0.000 9.8 5 1
02/11/06 4:14 a -9.5 -9.5 -9.5 --- --- 10.4 NE 0.17 12.2 -17.1 --- --- 716.1 0.019 0.000 9.8 5 1
02/11/06 4:15 a -9.5 -9.4 -9.5 --- --- 10.4 NE 0.17 12.2 -17.1 --- --- 716.1 0.019 0.000 9.8 5 1
02/11/06 4:16 a -9.6 -9.5 -9.6 --- --- 11.3 NE 0.19 12.2 -17.4 --- --- 716.1 0.019 0.000 9.8 5 1
02/11/06 4:17 a -9.7 -9.6 -9.7 --- --- 11.3 NE 0.19 13.0 -17.6 --- --- 716.1 0.019 0.000 9.8 5 1
02/11/06 4:18 a -9.9 -9.8 -9.9 --- --- 11.3 NE 0.19 13.0 -17.8 --- --- 716.1 0.020 0.000 9.8 5 1
02/11/06 4:19 a -9.8 -9.8 -9.8 --- --- 11.3 NE 0.19 12.2 -17.7 --- --- 716.1 0.020 0.000 9.8 5 1
02/11/06 4:20 a -9.8 -9.8 -9.8 --- --- 10.4 NE 0.17 12.2 -17.5 --- --- 716.1 0.020 0.000 9.8 5 1
02/11/06 4:21 a -9.7 -9.7 -9.8 --- --- 10.4 NE 0.17 12.2 -17.3 --- --- 716.1 0.019 0.000 9.8 5 1
02/11/06 4:22 a -9.6 -9.4 -9.7 --- --- 11.3 NE 0.19 13.0 -17.4 --- --- 716.1 0.019 0.000 9.8 5 1
02/11/06 4:23 a -9.6 -9.4 -9.7 --- --- 11.3 NE 0.19 13.0 -17.5 --- --- 716.1 0.019 0.000 9.8 5 1
02/11/06 4:24 a -9.6 -9.5 -9.7 --- --- 11.3 NE 0.19 12.2 -17.5 --- --- 716.0 0.019 0.000 9.8 5 1
02/11/06 4:25 a -9.4 -9.2 -9.5 --- --- 10.4 NE 0.17 11.3 -16.9 --- --- 716.1 0.019 0.000 9.8 5 1
02/11/06 4:26 a -9.2 -9.1 -9.2 --- --- 11.3 NE 0.19 13.9 -16.9 --- --- 716.1 0.019 0.000 9.8 5 1
02/11/06 4:27 a -9.3 -9.2 -9.3 --- --- 12.2 NE 0.20 13.9 -17.4 --- --- 716.0 0.019 0.000 9.8 5 1
02/11/06 4:28 a -9.3 -9.3 -9.4 --- --- 11.3 NE 0.19 12.2 -17.2 --- --- 716.1 0.019 0.000 9.7 5 1
02/11/06 4:29 a -9.4 -9.4 -9.4 --- --- 11.3 NE 0.19 13.0 -17.2 --- --- 716.0 0.019 0.000 9.7 5 1
02/11/06 4:30 a -9.5 -9.4 -9.6 --- --- 11.3 NE 0.19 12.2 -17.4 --- --- 716.1 0.019 0.000 9.7 5 1
02/11/06 4:31 a -9.7 -9.6 -9.7 --- --- 10.4 NE 0.17 12.2 -17.3 --- --- 716.1 0.019 0.000 9.7 5 1
02/11/06 4:32 a -9.7 -9.6 -9.8 --- --- 12.2 NE 0.20 13.9 -17.8 --- --- 716.1 0.019 0.000 9.7 5 1
02/11/06 4:33 a -10.0 -9.8 -10.1 --- --- 13.0 NE 0.22 14.8 -18.6 --- --- 716.1 0.020 0.000 9.7 5 1
02/11/06 4:34 a -10.0 -10.0 -10.0 --- --- 12.2 NE 0.20 13.0 -18.3 --- --- 716.0 0.020 0.000 9.7 5 1
02/11/06 4:35 a -9.9 -9.8 -10.0 --- --- 11.3 NE 0.19 13.0 -17.8 --- --- 716.1 0.020 0.000 9.7 5 1
02/11/06 4:36 a -9.7 -9.7 -9.8 --- --- 12.2 NE 0.20 13.0 -17.9 --- --- 716.1 0.019 0.000 9.7 5 1
02/11/06 4:37 a -9.7 -9.7 -9.7 --- --- 12.2 NE 0.20 13.9 -17.9 --- --- 716.1 0.019 0.000 9.7 5 1
02/11/06 4:38 a -9.7 -9.6 -9.7 --- --- 13.0 NE 0.22 13.9 -18.1 --- --- 716.1 0.019 0.000 9.7 5 1
02/11/06 4:39 a -9.6 -9.6 -9.7 --- --- 13.0 NE 0.22 13.9 -18.1 --- --- 716.0 0.019 0.000 9.7 5 1
02/11/06 4:40 a -9.8 -9.7 -9.8 --- --- 12.2 NE 0.20 13.0 -18.0 --- --- 716.0 0.020 0.000 9.7 5 1
02/11/06 4:41 a -9.7 -9.6 -9.8 --- --- 12.2 NE 0.20 13.9 -17.9 --- --- 716.0 0.019 0.000 9.7 5 1
02/11/06 4:42 a -9.6 -9.5 -9.7 --- --- 12.2 NE 0.20 13.0 -17.8 --- --- 716.0 0.019 0.000 9.7 5 1
02/11/06 4:43 a -9.5 -9.5 -9.6 --- --- 12.2 NE 0.20 13.9 -17.7 --- --- 716.0 0.019 0.000 9.7 5 1
02/11/06 4:44 a -9.6 -9.5 -9.6 --- --- 13.0 NE 0.22 13.9 -17.9 --- --- 716.0 0.019 0.000 9.7 5 1
02/11/06 4:45 a -9.4 -9.4 -9.5 --- --- 11.3 NE 0.19 13.0 -17.3 --- --- 716.0 0.019 0.000 9.7 5 1
02/11/06 4:46 a -9.3 -9.2 -9.5 --- --- 12.2 NE 0.20 13.9 -17.4 --- --- 716.0 0.019 0.000 9.7 5 1
02/11/06 4:47 a -9.3 -9.2 -9.3 --- --- 12.2 NE 0.20 13.0 -17.4 --- --- 716.1 0.019 0.000 9.7 5 1
02/11/06 4:48 a -9.3 -9.2 -9.3 --- --- 12.2 NE 0.20 13.9 -17.4 --- --- 716.0 0.019 0.000 9.7 5 1
02/11/06 4:49 a -9.2 -9.2 -9.3 --- --- 13.9 NE 0.23 13.9 -17.8 --- --- 716.0 0.019 0.000 9.7 5 1
02/11/06 4:50 a -9.2 -9.2 -9.2 --- --- 13.0 NE 0.22 13.9 -17.5 --- --- 716.0 0.019 0.000 9.7 4 1
02/11/06 4:51 a -9.1 -9.1 -9.2 --- --- 12.2 NE 0.20 13.0 -17.2 --- --- 715.9 0.019 0.000 9.7 5 1
02/11/06 4:52 a -9.2 -9.2 -9.3 --- --- 12.2 NE 0.20 13.0 -17.3 --- --- 716.0 0.019 0.000 9.7 4 1
02/11/06 4:53 a -9.3 -9.2 -9.3 --- --- 13.0 NE 0.22 14.8 -17.7 --- --- 716.0 0.019 0.000 9.7 4 1
02/11/06 4:54 a -9.2 -9.1 -9.2 --- --- 13.0 NE 0.22 13.9 -17.5 --- --- 715.9 0.019 0.000 9.7 5 1
02/11/06 4:55 a -8.9 -8.9 -9.1 --- --- 13.0 NE 0.22 13.9 -17.2 --- --- 716.0 0.019 0.000 9.7 4 1
02/11/06 4:56 a -9.1 -8.9 -9.1 --- --- 12.2 NE 0.20 13.9 -17.1 --- --- 715.9 0.019 0.000 9.7 4 1
02/11/06 4:57 a -9.2 -9.1 -9.2 --- --- 12.2 NE 0.20 13.9 -17.3 --- --- 715.9 0.019 0.000 9.7 4 1
02/11/06 4:58 a -9.2 -9.1 -9.3 --- --- 12.2 NE 0.20 13.0 -17.3 --- --- 715.9 0.019 0.000 9.7 4 1
02/11/06 4:59 a -9.0 -8.9 -9.0 --- --- 13.0 ENE 0.22 13.9 -17.3 --- --- 715.9 0.019 0.000 9.7 5 1
02/11/06 5:00 a -9.4 -9.2 -9.7 --- --- 13.0 NE 0.22 14.8 -17.8 --- --- 716.0 0.019 0.000 9.7 5 1
02/11/06 5:01 a -9.8 -9.9 -9.9 --- --- 11.3 NE 0.19 13.0 -17.8 --- --- 716.0 0.020 0.000 9.7 4 1
02/11/06 5:03 a -10.4 -10.3 -10.4 --- --- 13.0 ENE 0.22 13.9 -19.1 --- --- 715.9 0.020 0.000 9.7 5 1
02/11/06 5:04 a -10.0 -9.8 -10.1 --- --- 13.0 ENE 0.22 14.8 -18.6 --- --- 715.9 0.020 0.000 9.7 5 1
02/11/06 5:05 a -9.7 -9.6 -10.0 --- --- 13.9 ENE 0.23 14.8 -18.4 --- --- 715.9 0.019 0.000 9.7 5 1
02/11/06 5:06 a -10.2 -10.0 -10.7 --- --- 13.0 NE 0.22 14.8 -18.8 --- --- 715.9 0.020 0.000 9.7 5 1
02/11/06 5:07 a -11.0 -10.7 -11.2 --- --- 13.0 ENE 0.22 15.7 -19.8 --- --- 715.9 0.020 0.000 9.8 5 1
02/11/06 5:08 a -11.4 -11.3 -11.7 --- --- 13.9 ENE 0.23 15.7 -20.7 --- --- 716.0 0.021 0.000 9.8 5 1
02/11/06 5:09 a -11.8 -11.7 -11.9 --- --- 11.3 NE 0.19 13.0 -20.2 --- --- 715.9 0.021 0.000 9.8 5 1
02/11/06 5:10 a -11.4 -11.1 -11.5 --- --- 12.2 NE 0.20 13.9 -20.1 --- --- 715.8 0.021 0.000 9.8 5 1
02/11/06 5:11 a -10.8 -10.4 -11.1 --- --- 13.0 ENE 0.22 14.8 -19.6 --- --- 715.9 0.020 0.000 9.8 5 1
02/11/06 5:12 a -10.3 -10.2 -10.4 --- --- 13.9 NE 0.23 14.8 -19.2 --- --- 716.0 0.020 0.000 9.8 5 1
02/11/06 5:13 a -10.0 -9.8 -10.2 --- --- 12.2 NE 0.20 13.9 -18.3 --- --- 715.9 0.020 0.000 9.8 5 1
02/11/06 5:14 a -9.9 -9.8 -9.9 --- --- 12.2 NE 0.20 13.0 -18.1 --- --- 715.8 0.020 0.000 9.8 5 1
02/11/06 5:15 a -9.9 -9.8 -9.9 --- --- 13.0 ENE 0.22 14.8 -18.4 --- --- 715.9 0.020 0.000 9.9 5 1
02/11/06 5:16 a -9.9 -9.8 -9.9 --- --- 13.0 NE 0.22 14.8 -18.4 --- --- 715.8 0.020 0.000 9.9 5 1
02/11/06 5:17 a -9.8 -9.8 -9.8 --- --- 13.0 NE 0.22 14.8 -18.3 --- --- 715.8 0.020 0.000 9.9 5 1
02/11/06 5:18 a -9.8 -9.8 -9.8 --- --- 13.9 ENE 0.23 15.7 -18.6 --- --- 715.8 0.020 0.000 9.9 5 1
02/11/06 5:19 a -9.7 -9.7 -9.8 --- --- 13.0 NE 0.22 14.8 -18.2 --- --- 715.8 0.019 0.000 10.0 5 1
02/11/06 5:20 a -9.8 -9.8 -9.8 --- --- 13.0 ENE 0.22 14.8 -18.3 --- --- 715.8 0.020 0.000 10.0 5 1
02/11/06 5:21 a -9.8 -9.8 -9.8 --- --- 13.9 ENE 0.23 15.7 -18.6 --- --- 715.9 0.020 0.000 10.0 5 1
02/11/06 5:22 a -9.7 -9.7 -9.8 --- --- 13.9 ENE 0.23 15.7 -18.4 --- --- 715.9 0.019 0.000 10.1 5 1
02/11/06 5:23 a -9.7 -9.7 -9.7 --- --- 13.9 ENE 0.23 14.8 -18.4 --- --- 715.9 0.019 0.000 10.1 5 1
02/11/06 5:24 a -9.8 -9.8 -9.9 --- --- 13.9 ENE 0.23 15.7 -18.5 --- --- 716.0 0.020 0.000 10.1 5 1
02/11/06 5:25 a -10.1 -10.0 -10.2 --- --- 13.9 ENE 0.23 14.8 -18.9 --- --- 715.8 0.020 0.000 10.1 5 1
02/11/06 5:26 a -10.3 -10.3 -10.3 --- --- 14.8 ENE 0.25 15.7 -19.4 --- --- 715.9 0.020 0.000 10.1 5 1
02/11/06 5:27 a -10.3 -10.2 -10.3 --- --- 13.9 ENE 0.23 14.8 -19.2 --- --- 715.9 0.020 0.000 10.1 5 1
02/11/06 5:28 a -10.2 -10.2 -10.2 --- --- 13.9 ENE 0.23 15.7 -19.0 --- --- 715.9 0.020 0.000 10.1 5 1
02/11/06 5:29 a -10.2 -10.1 -10.2 --- --- 13.9 ENE 0.23 15.7 -19.0 --- --- 715.9 0.020 0.000 10.1 5 1
02/11/06 5:30 a -9.9 -9.9 -10.1 --- --- 14.8 ENE 0.25 16.5 -19.0 --- --- 715.9 0.020 0.000 10.1 5 1
02/11/06 5:31 a -9.9 -9.9 -9.9 --- --- 14.8 ENE 0.25 15.7 -18.9 --- --- 716.0 0.020 0.000 10.1 5 1
02/11/06 5:32 a -9.8 -9.8 -9.8 --- --- 14.8 ENE 0.25 16.5 -18.8 --- --- 715.9 0.020 0.000 10.1 5 1
02/11/06 5:33 a -9.8 -9.8 -9.8 --- --- 14.8 ENE 0.25 15.7 -18.8 --- --- 715.9 0.020 0.000 10.1 5 1
02/11/06 5:34 a -9.9 -9.8 -9.9 --- --- 14.8 ENE 0.25 16.5 -18.9 --- --- 716.0 0.020 0.000 10.1 5 1
02/11/06 5:35 a -9.9 -9.9 -9.9 --- --- 14.8 ENE 0.25 15.7 -18.9 --- --- 715.9 0.020 0.000 10.1 5 1
02/11/06 5:36 a -10.0 -10.0 -10.0 --- --- 14.8 ENE 0.25 17.4 -19.1 --- --- 715.9 0.020 0.000 10.1 4 1
02/11/06 5:37 a -10.1 -10.1 -10.1 --- --- 15.7 ENE 0.26 16.5 -19.4 --- --- 715.9 0.020 0.000 10.1 5 1
02/11/06 5:38 a -10.1 -9.9 -10.1 --- --- 14.8 ENE 0.25 15.7 -19.1 --- --- 715.9 0.020 0.000 10.1 4 1
02/11/06 5:39 a -9.9 -9.9 -10.0 --- --- 14.8 ENE 0.25 16.5 -19.0 --- --- 716.0 0.020 0.000 10.1 4 1
02/11/06 5:40 a -10.0 -10.0 -10.0 --- --- 14.8 ENE 0.25 15.7 -19.1 --- --- 715.9 0.020 0.000 10.1 4 1
02/11/06 5:41 a -10.1 -10.1 -10.1 --- --- 13.9 ENE 0.23 15.7 -18.9 --- --- 716.0 0.020 0.000 10.0 4 1
02/11/06 5:42 a -10.1 -10.1 -10.1 --- --- 14.8 ENE 0.25 17.4 -19.1 --- --- 715.9 0.020 0.000 10.0 4 1
02/11/06 5:43 a -10.1 -10.0 -10.1 --- --- 15.7 ENE 0.26 17.4 -19.4 --- --- 715.9 0.020 0.000 10.0 4 1
02/11/06 5:44 a -10.0 -10.0 -10.0 --- --- 16.5 ENE 0.28 17.4 -19.5 --- --- 715.9 0.020 0.000 10.0 4 1
02/11/06 5:45 a -9.9 -9.9 -9.9 --- --- 14.8 ENE 0.25 15.7 -19.0 --- --- 715.9 0.020 0.000 10.0 4 1
02/11/06 5:46 a -9.9 -9.9 -10.0 --- --- 14.8 ENE 0.25 16.5 -19.0 --- --- 715.8 0.020 0.000 10.0 4 1
02/11/06 5:47 a -10.1 -10.1 -10.1 --- --- 15.7 ENE 0.26 16.5 -19.4 --- --- 715.8 0.020 0.000 9.9 4 1
02/11/06 5:48 a -10.1 -10.1 -10.1 --- --- 15.7 ENE 0.26 17.4 -19.4 --- --- 715.9 0.020 0.000 9.9 4 1
02/11/06 5:49 a -10.1 -10.0 -10.1 --- --- 13.9 ENE 0.23 15.7 -18.9 --- --- 715.9 0.020 0.000 9.9 4 1
02/11/06 5:50 a -9.8 -9.8 -9.8 --- --- 15.7 ENE 0.26 18.3 -19.1 --- --- 715.8 0.020 0.000 9.9 4 1
02/11/06 5:51 a -9.8 -9.8 -9.9 --- --- 16.5 ENE 0.28 18.3 -19.3 --- --- 715.9 0.020 0.000 9.9 4 1
02/11/06 5:52 a -10.1 -10.1 -10.3 --- --- 15.7 ENE 0.26 16.5 -19.4 --- --- 715.9 0.020 0.000 9.9 4 1
02/11/06 5:53 a -10.5 -10.4 -10.6 --- --- 16.5 ENE 0.28 18.3 -20.2 --- --- 715.9 0.020 0.000 9.9 4 1
02/11/06 5:54 a -10.8 -10.7 -10.8 --- --- 16.5 ENE 0.28 18.3 -20.6 --- --- 715.8 0.020 0.000 9.9 5 1
02/11/06 5:55 a -10.8 -10.8 -10.8 --- --- 14.8 ENE 0.25 16.5 -20.1 --- --- 715.8 0.020 0.000 9.9 4 1
02/11/06 5:56 a -10.6 -10.6 -10.6 --- --- 16.5 ENE 0.28 17.4 -20.3 --- --- 715.9 0.020 0.000 9.9 4 1
02/11/06 5:57 a -10.3 -10.1 -10.4 --- --- 15.7 ENE 0.26 18.3 -19.7 --- --- 715.8 0.020 0.000 10.0 4 1
02/11/06 5:58 a -9.9 -9.9 -10.1 --- --- 17.4 ENE 0.29 20.0 -19.7 --- --- 715.7 0.020 0.000 10.0 4 1
02/11/06 5:59 a -10.0 -9.9 -10.1 --- --- 17.4 ENE 0.29 20.0 -19.7 --- --- 715.8 0.020 0.000 10.0 4 1
02/11/06 6:00 a -10.3 -10.1 -10.3 --- --- 16.5 ENE 0.28 18.3 -19.9 --- --- 715.8 0.020 0.000 10.0 4 1
02/11/06 6:01 a -10.1 -9.9 -10.3 --- --- 17.4 ENE 0.29 19.1 -19.9 --- --- 715.8 0.020 0.000 10.0 4 1
02/11/06 6:02 a -10.1 -9.9 -10.4 --- --- 16.5 ENE 0.28 19.1 -19.7 --- --- 715.8 0.020 0.000 10.1 4 1
02/11/06 6:03 a -10.7 -10.4 -10.8 --- --- 15.7 E 0.26 18.3 -20.2 --- --- 715.8 0.020 0.000 10.1 4 1
02/11/06 6:04 a -10.9 -10.8 -10.9 --- --- 15.7 ENE 0.26 19.1 -20.4 --- --- 715.8 0.020 0.000 10.1 4 1
02/11/06 6:05 a -11.1 -10.9 -11.3 --- --- 17.4 ENE 0.29 20.0 -21.2 --- --- 715.8 0.020 0.000 10.1 4 1
02/11/06 6:06 a -11.5 -11.4 -11.6 --- --- 16.5 ENE 0.28 19.1 -21.5 --- --- 715.8 0.021 0.000 10.1 5 1
02/11/06 6:07 a -11.6 -11.6 -11.6 --- --- 17.4 ENE 0.29 20.0 -21.8 --- --- 715.8 0.021 0.000 10.1 4 1
02/11/06 6:08 a -11.5 -11.4 -11.6 --- --- 16.5 ENE 0.28 19.1 -21.5 --- --- 715.9 0.021 0.000 10.1 5 1
02/11/06 6:09 a -11.4 -11.3 -11.5 --- --- 16.5 ENE 0.28 18.3 -21.3 --- --- 715.9 0.021 0.000 10.1 4 1
02/11/06 6:10 a -11.4 -11.3 -11.6 --- --- 16.5 ENE 0.28 18.3 -21.3 --- --- 715.9 0.021 0.000 10.1 4 1
02/11/06 6:11 a -11.6 -11.6 -11.6 --- --- 16.5 ENE 0.28 18.3 -21.6 --- --- 715.8 0.021 0.000 10.1 5 1
02/11/06 6:12 a -11.4 -11.2 -11.4 --- --- 16.5 ENE 0.28 19.1 -21.3 --- --- 715.9 0.021 0.000 10.1 5 1
02/11/06 6:13 a -10.9 -10.9 -11.0 --- --- 16.5 ENE 0.28 20.0 -20.8 --- --- 715.8 0.020 0.000 10.2 4 1
02/11/06 6:14 a -11.0 -10.9 -11.2 --- --- 17.4 ENE 0.29 19.1 -21.1 --- --- 715.9 0.020 0.000 10.2 4 1
02/11/06 6:15 a -11.2 -11.2 -11.3 --- --- 16.5 ENE 0.28 19.1 -21.1 --- --- 715.8 0.021 0.000 10.2 5 1
02/11/06 6:16 a -10.9 -10.7 -11.1 --- --- 16.5 ENE 0.28 18.3 -20.7 --- --- 715.9 0.020 0.000 10.3 4 1
02/11/06 6:17 a -10.6 -10.6 -10.7 --- --- 15.7 ENE 0.26 16.5 -20.1 --- --- 715.9 0.020 0.000 10.3 5 1
02/11/06 6:18 a -11.1 -10.8 -11.3 --- --- 16.5 ENE 0.28 19.1 -20.9 --- --- 715.9 0.020 0.000 10.3 4 1
02/11/06 6:19 a -11.2 -10.8 -11.3 --- --- 16.5 ENE 0.28 19.1 -21.1 --- --- 715.8 0.020 0.000 10.3 4 1
02/11/06 6:20 a -10.7 -10.6 -10.8 --- --- 17.4 ENE 0.29 19.1 -20.7 --- --- 715.9 0.020 0.000 10.3 4 1
02/11/06 6:21 a -10.4 -10.3 -10.5 --- --- 16.5 ENE 0.28 18.3 -20.1 --- --- 715.9 0.020 0.000 10.3 4 1
02/11/06 6:22 a -10.2 -10.2 -10.2 --- --- 16.5 ENE 0.28 19.1 -19.8 --- --- 715.9 0.020 0.000 10.3 4 1
02/11/06 6:23 a -10.3 -10.3 -10.4 --- --- 16.5 ENE 0.28 18.3 -19.9 --- --- 715.9 0.020 0.000 10.3 4 1
02/11/06 6:24 a -10.9 -10.7 -11.1 --- --- 17.4 ENE 0.29 20.9 -21.0 --- --- 715.9 0.020 0.000 10.3 4 1
02/11/06 6:25 a -10.8 -10.6 -10.9 --- --- 16.5 ENE 0.28 18.3 -20.6 --- --- 715.9 0.020 0.000 10.3 4 1
02/11/06 6:26 a -10.6 -10.5 -10.6 --- --- 17.4 ENE 0.29 20.0 -20.4 --- --- 715.9 0.020 0.000 10.3 4 1
02/11/06 6:27 a -10.5 -10.3 -10.5 --- --- 16.5 ENE 0.28 19.1 -20.2 --- --- 715.9 0.020 0.000 10.3 4 1
02/11/06 6:28 a -10.3 -10.3 -10.4 --- --- 16.5 E 0.28 19.1 -19.9 --- --- 715.9 0.020 0.000 10.3 4 1
02/11/06 6:29 a -10.4 -10.4 -10.4 --- --- 16.5 ENE 0.28 19.1 -20.1 --- --- 716.0 0.020 0.000 10.3 4 1
02/11/06 6:30 a -10.3 -10.2 -10.3 --- --- 17.4 ENE 0.29 21.7 -20.1 --- --- 715.9 0.020 0.000 10.3 4 1
02/11/06 6:31 a -10.3 -10.2 -10.3 --- --- 15.7 ENE 0.26 18.3 -19.7 --- --- 716.0 0.020 0.000 10.3 4 1
02/11/06 6:32 a -10.2 -10.1 -10.2 --- --- 14.8 E 0.25 17.4 -19.3 --- --- 715.9 0.020 0.000 10.4 4 1
02/11/06 6:33 a -10.1 -10.1 -10.2 --- --- 17.4 ENE 0.29 20.0 -19.9 --- --- 715.9 0.020 0.000 10.4 4 1
02/11/06 6:34 a -10.2 -10.2 -10.3 --- --- 16.5 ENE 0.28 19.1 -19.8 --- --- 715.9 0.020 0.000 10.4 4 1
02/11/06 6:35 a -10.3 -10.3 -10.3 --- --- 16.5 ENE 0.28 19.1 -19.9 --- --- 715.8 0.020 0.000 10.4 4 1
02/11/06 6:36 a -10.3 -10.3 -10.4 --- --- 14.8 E 0.25 18.3 -19.5 --- --- 715.8 0.020 0.000 10.4 4 1
02/11/06 6:37 a -10.3 -10.3 -10.3 --- --- 15.7 ENE 0.26 18.3 -19.7 --- --- 715.8 0.020 0.000 10.4 4 1
02/11/06 6:38 a -10.3 -10.3 -10.3 --- --- 15.7 ENE 0.26 18.3 -19.7 --- --- 715.8 0.020 0.000 10.4 4 1
02/11/06 6:39 a -10.3 -10.3 -10.3 --- --- 16.5 ENE 0.28 18.3 -19.9 --- --- 715.8 0.020 0.000 10.4 4 1
02/11/06 6:40 a -10.3 -10.3 -10.4 --- --- 17.4 ENE 0.29 20.9 -20.2 --- --- 715.8 0.020 0.000 10.4 4 1
02/11/06 6:41 a -10.4 -10.4 -10.5 --- --- 15.7 ENE 0.26 18.3 -19.9 --- --- 715.9 0.020 0.000 10.4 4 1
02/11/06 6:42 a -10.4 -10.4 -10.5 --- --- 16.5 ENE 0.28 18.3 -20.1 --- --- 715.9 0.020 0.000 10.4 4 1
02/11/06 6:43 a -10.4 -10.4 -10.4 --- --- 16.5 ENE 0.28 20.0 -20.1 --- --- 715.8 0.020 0.000 10.4 4 1
02/11/06 6:44 a -10.4 -10.3 -10.4 --- --- 15.7 ENE 0.26 19.1 -19.8 --- --- 715.9 0.020 0.000 10.4 4 1
02/11/06 6:45 a -10.3 -10.2 -10.3 --- --- 16.5 ENE 0.28 19.1 -19.9 --- --- 715.7 0.020 0.000 10.4 4 1
02/11/06 6:46 a -10.3 -10.3 -10.4 --- --- 16.5 ENE 0.28 20.0 -19.9 --- --- 715.8 0.020 0.000 10.4 4 1
02/11/06 6:47 a -10.3 -10.2 -10.3 --- --- 16.5 ENE 0.28 20.0 -19.9 --- --- 715.8 0.020 0.000 10.4 4 1
02/11/06 6:48 a -10.3 -10.3 -10.3 --- --- 16.5 ENE 0.28 20.0 -19.9 --- --- 715.9 0.020 0.000 10.4 4 1
02/11/06 6:49 a -10.2 -10.2 -10.2 --- --- 16.5 ENE 0.28 19.1 -19.8 --- --- 715.8 0.020 0.000 10.4 4 1
02/11/06 6:50 a -10.3 -10.2 -10.3 --- --- 16.5 ENE 0.28 18.3 -19.9 --- --- 715.8 0.020 0.000 10.4 4 1
02/11/06 6:51 a -10.3 -10.3 -10.3 --- --- 16.5 ENE 0.28 17.4 -19.9 --- --- 715.8 0.020 0.000 10.4 4 1
02/11/06 6:52 a -10.3 -10.2 -10.3 --- --- 15.7 ENE 0.26 19.1 -19.7 --- --- 715.8 0.020 0.000 10.4 4 1
02/11/06 6:53 a -10.3 -10.3 -10.4 --- --- 16.5 ENE 0.28 19.1 -19.9 --- --- 715.9 0.020 0.000 10.4 4 1
02/11/06 6:54 a -10.3 -10.2 -10.3 --- --- 16.5 ENE 0.28 20.0 -19.9 --- --- 715.8 0.020 0.000 10.4 4 1
02/11/06 6:55 a -10.4 -10.4 -10.4 --- --- 16.5 ENE 0.28 19.1 -20.1 --- --- 715.9 0.020 0.000 10.5 4 1
02/11/06 6:56 a -10.3 -10.3 -10.3 --- --- 16.5 ENE 0.28 18.3 -19.9 --- --- 715.8 0.020 0.000 10.5 4 1
02/11/06 6:57 a -10.3 -10.3 -10.4 --- --- 15.7 ENE 0.26 18.3 -19.7 --- --- 715.9 0.020 0.000 10.4 4 1
02/11/06 6:58 a -10.4 -10.4 -10.4 --- --- 16.5 ENE 0.28 19.1 -20.1 --- --- 716.0 0.020 0.000 10.5 4 1
02/11/06 6:59 a -10.3 -10.3 -10.4 --- --- 16.5 ENE 0.28 20.0 -19.9 --- --- 715.9 0.020 0.000 10.5 4 1
02/11/06 7:00 a -10.4 -10.3 -10.4 --- --- 16.5 ENE 0.28 20.0 -20.1 --- --- 716.0 0.020 0.000 10.6 4 1
02/11/06 7:01 a -10.2 -10.2 -10.3 --- --- 14.8 ENE 0.25 20.0 -19.3 --- --- 715.8 0.020 0.000 10.6 4 1
02/11/06 7:02 a -10.3 -10.3 -10.3 --- --- 18.3 ENE 0.30 20.9 -20.4 --- --- 715.9 0.020 0.000 10.6 4 1
02/11/06 7:03 a -10.3 -10.3 -10.3 --- --- 16.5 ENE 0.28 17.4 -19.9 --- --- 715.9 0.020 0.000 10.6 4 1
02/11/06 7:04 a -10.4 -10.3 -10.4 --- --- 15.7 ENE 0.26 17.4 -19.8 --- --- 715.9 0.020 0.000 10.6 4 1
02/11/06 7:05 a -10.4 -10.4 -10.5 --- --- 14.8 ENE 0.25 17.4 -19.6 --- --- 715.9 0.020 0.000 10.6 4 1
02/11/06 7:06 a -10.6 -10.5 -10.6 --- --- 18.3 ENE 0.30 20.0 -20.7 --- --- 715.9 0.020 0.000 10.6 4 1
02/11/06 7:07 a -10.5 -10.4 -10.6 --- --- 16.5 ENE 0.28 18.3 -20.2 --- --- 715.9 0.020 0.000 10.6 4 1
02/11/06 7:08 a -10.4 -10.3 -10.4 --- --- 13.0 ENE 0.22 15.7 -19.1 --- --- 715.9 0.020 0.000 10.6 4 1
02/11/06 7:09 a -10.4 -10.3 -10.4 --- --- 19.1 ENE 0.32 21.7 -20.7 --- --- 715.9 0.020 0.000 10.6 4 1
02/11/06 7:10 a -10.4 -10.4 -10.5 --- --- 13.9 ENE 0.23 20.9 -19.4 --- --- 715.9 0.020 0.000 10.5 4 1
02/11/06 7:11 a -10.3 -10.2 -10.4 --- --- 18.3 ENE 0.30 22.6 -20.4 --- --- 715.8 0.020 0.000 10.5 4 1
02/11/06 7:12 a -10.4 -10.4 -10.5 --- --- 14.8 ENE 0.25 19.1 -19.6 --- --- 716.0 0.020 0.000 10.5 4 1
02/11/06 7:13 a -10.2 -10.2 -10.4 --- --- 14.8 ENE 0.25 20.9 -19.3 --- --- 715.7 0.020 0.000 10.5 4 1
02/11/06 7:14 a -10.3 -10.2 -10.6 --- --- 19.1 ENE 0.32 22.6 -20.6 --- --- 715.8 0.020 0.000 10.5 4 1
02/11/06 7:15 a -10.4 -10.2 -10.6 --- --- 11.3 ENE 0.19 15.7 -18.5 --- --- 715.8 0.020 0.000 10.4 4 1
02/11/06 7:16 a -10.3 -10.2 -10.4 --- --- 20.0 ENE 0.33 22.6 -20.7 --- --- 715.8 0.020 0.000 10.4 4 1
02/11/06 7:17 a -10.3 -10.2 -10.4 --- --- 13.0 ENE 0.22 17.4 -18.9 --- --- 715.9 0.020 0.000 10.4 4 1
02/11/06 7:18 a -10.2 -10.1 -10.2 --- --- 15.7 ENE 0.26 20.9 -19.5 --- --- 715.7 0.020 0.000 10.3 4 1
02/11/06 7:19 a -10.3 -10.2 -10.4 --- --- 15.7 ENE 0.26 20.0 -19.7 --- --- 715.8 0.020 0.000 10.3 4 1
02/11/06 7:20 a -10.4 -10.4 -10.4 --- --- 16.5 ENE 0.28 20.9 -20.1 --- --- 715.7 0.020 0.000 10.3 4 1
02/11/06 7:21 a -10.5 -10.4 -10.6 --- --- 17.4 ENE 0.29 20.9 -20.4 --- --- 715.8 0.020 0.000 10.2 4 1
02/11/06 7:22 a -10.4 -10.3 -10.5 --- --- 12.2 ENE 0.20 15.7 -18.8 --- --- 715.7 0.020 0.000 10.2 4 1
02/11/06 7:23 a -10.4 -10.3 -10.5 --- --- 16.5 ENE 0.28 20.9 -20.1 --- --- 715.7 0.020 0.000 10.2 4 1
02/11/06 7:24 a -10.6 -10.5 -10.7 --- --- 17.4 E 0.29 19.1 -20.6 --- --- 715.7 0.020 0.000 10.2 4 1
02/11/06 7:25 a -10.6 -10.5 -10.7 --- --- 13.9 ENE 0.23 16.5 -19.6 --- --- 715.8 0.020 0.000 10.2 4 1
02/11/06 7:26 a -10.5 -10.4 -10.6 --- --- 15.7 ENE 0.26 20.0 -19.9 --- --- 715.6 0.020 0.000 10.2 4 1
02/11/06 7:27 a -10.5 -10.4 -10.7 --- --- 17.4 ENE 0.29 21.7 -20.4 --- --- 715.7 0.020 0.000 10.2 4 1
02/11/06 7:28 a -10.7 -10.7 -10.7 --- --- 14.8 E 0.25 17.4 -20.0 --- --- 715.7 0.020 0.000 10.2 4 1
02/11/06 7:29 a -10.7 -10.7 -10.7 --- --- 16.5 ENE 0.28 18.3 -20.4 --- --- 715.8 0.020 0.000 10.2 4 1
02/11/06 7:30 a -10.7 -10.6 -10.7 --- --- 13.9 ENE 0.23 14.8 -19.7 --- --- 715.7 0.020 0.000 10.1 4 1
02/11/06 7:31 a -10.5 -10.5 -10.6 --- --- 16.5 ENE 0.28 21.7 -20.2 --- --- 715.6 0.020 0.000 10.2 4 1
02/11/06 7:32 a -10.7 -10.6 -10.8 --- --- 18.3 ENE 0.30 20.9 -20.9 --- --- 715.8 0.020 0.000 10.1 4 1
02/11/06 7:33 a -10.8 -10.8 -10.9 --- --- 13.0 ENE 0.22 17.4 -19.6 --- --- 715.8 0.020 0.000 10.1 4 1
02/11/06 7:34 a -10.7 -10.6 -10.8 --- --- 14.8 ENE 0.25 22.6 -19.9 --- --- 715.6 0.020 0.000 10.1 4 1
02/11/06 7:35 a -10.7 -10.7 -10.7 --- --- 17.4 ENE 0.29 22.6 -20.6 --- --- 715.8 0.020 0.000 10.1 4 1
02/11/06 7:36 a -10.6 -10.4 -10.7 --- --- 10.4 E 0.17 14.8 -18.3 --- --- 715.7 0.020 0.000 10.1 4 1
02/11/06 7:37 a -10.4 -10.4 -10.5 --- --- 17.4 E 0.29 19.1 -20.3 --- --- 715.7 0.020 0.000 10.1 4 1
02/11/06 7:38 a -10.7 -10.6 -10.8 --- --- 15.7 ENE 0.26 19.1 -20.2 --- --- 715.7 0.020 0.000 10.1 4 1
02/11/06 7:39 a -10.7 -10.7 -10.8 --- --- 13.0 ENE 0.22 13.9 -19.4 --- --- 715.7 0.020 0.000 10.1 4 1
02/11/06 7:40 a -10.7 -10.7 -10.7 --- --- 15.7 ENE 0.26 18.3 -20.2 --- --- 715.7 0.020 0.000 10.1 4 1
02/11/06 7:41 a -10.6 -10.6 -10.6 --- --- 17.4 ENE 0.29 20.0 -20.4 --- --- 715.8 0.020 0.000 10.1 4 1
02/11/06 7:42 a -10.5 -10.3 -10.6 --- --- 11.3 NE 0.19 13.9 -18.6 --- --- 715.9 0.020 0.000 10.1 4 1
02/11/06 7:43 a -10.3 -10.2 -10.3 --- --- 12.2 E 0.20 19.1 -18.6 --- --- 715.7 0.020 0.000 10.1 4 1
02/11/06 7:44 a -10.5 -10.4 -10.6 --- --- 17.4 ENE 0.29 20.0 -20.4 --- --- 715.8 0.020 0.000 10.2 4 1
02/11/06 7:45 a -10.6 -10.6 -10.7 --- --- 16.5 ENE 0.28 19.1 -20.3 --- --- 715.8 0.020 0.000 10.2 4 1
02/11/06 7:46 a -10.5 -10.4 -10.6 --- --- 12.2 ENE 0.20 14.8 -18.9 --- --- 715.9 0.020 0.000 10.2 4 1
02/11/06 7:47 a -10.4 -10.3 -10.6 --- --- 14.8 E 0.25 20.0 -19.6 --- --- 715.7 0.020 0.000 10.2 4 1
02/11/06 7:48 a -10.6 -10.6 -10.7 --- --- 16.5 ENE 0.28 19.1 -20.3 --- --- 715.8 0.020 0.000 10.2 4 1
02/11/06 7:49 a -10.6 -10.6 -10.7 --- --- 14.8 ENE 0.25 17.4 -19.8 --- --- 715.9 0.020 0.000 10.1 4 1
02/11/06 7:50 a -10.5 -10.4 -10.6 --- --- 10.4 ENE 0.17 12.2 -18.3 --- --- 715.8 0.020 0.000 10.1 4 1
02/11/06 7:51 a -10.3 -10.2 -10.4 --- --- 14.8 ENE 0.25 18.3 -19.4 --- --- 715.8 0.020 0.000 10.1 4 1
02/11/06 7:52 a -10.4 -10.3 -10.5 --- --- 15.7 ENE 0.26 17.4 -19.8 --- --- 715.8 0.020 0.000 10.1 4 1
02/11/06 7:53 a -10.5 -10.5 -10.6 --- --- 14.8 ENE 0.25 15.7 -19.7 --- --- 715.9 0.020 0.000 10.1 4 1
02/11/06 7:54 a -10.6 -10.5 -10.6 --- --- 14.8 ENE 0.25 16.5 -19.8 --- --- 715.8 0.020 0.000 10.1 4 1
02/11/06 7:55 a -10.5 -10.5 -10.6 --- --- 14.8 ENE 0.25 16.5 -19.7 --- --- 715.8 0.020 0.000 10.1 4 1
02/11/06 7:56 a -10.6 -10.6 -10.7 --- --- 14.8 ENE 0.25 16.5 -19.8 --- --- 715.8 0.020 0.000 10.0 4 1
02/11/06 7:57 a -10.7 -10.7 -10.7 --- --- 13.9 ENE 0.23 15.7 -19.7 --- --- 715.9 0.020 0.000 10.0 4 1
02/11/06 7:58 a -10.6 -10.6 -10.7 --- --- 14.8 ENE 0.25 17.4 -19.8 --- --- 715.7 0.020 0.000 9.9 4 1
02/11/06 7:59 a -10.7 -10.6 -10.8 --- --- 17.4 ENE 0.29 18.3 -20.7 --- --- 715.7 0.020 0.000 9.9 4 1
02/11/06 8:00 a -10.8 -10.7 -10.8 --- --- 13.9 ENE 0.23 15.7 -19.8 --- --- 715.8 0.020 0.000 9.9 4 1
02/11/06 8:01 a -10.7 -10.6 -10.7 --- --- 10.4 ENE 0.17 13.0 -18.5 --- --- 715.8 0.020 0.000 9.9 4 1
02/11/06 8:02 a -10.6 -10.5 -10.8 --- --- 18.3 ENE 0.30 20.9 -20.8 --- --- 715.7 0.020 0.000 9.9 4 1
02/11/06 8:03 a -10.8 -10.7 -10.8 --- --- 14.8 NE 0.25 18.3 -20.1 --- --- 715.8 0.020 0.000 9.9 4 1
02/11/06 8:04 a -10.6 -10.4 -10.7 --- --- 10.4 ENE 0.17 12.2 -18.4 --- --- 715.8 0.020 0.000 9.8 4 1
02/11/06 8:05 a -10.4 -10.3 -10.4 --- --- 13.0 ENE 0.22 19.1 -19.1 --- --- 715.7 0.020 0.000 9.8 4 1
02/11/06 8:06 a -10.6 -10.6 -10.7 --- --- 16.5 ENE 0.28 19.1 -20.3 --- --- 715.8 0.020 0.000 9.8 4 1
02/11/06 8:07 a -10.7 -10.7 -10.7 --- --- 13.0 ENE 0.22 13.9 -19.4 --- --- 715.7 0.020 0.000 9.8 4 1
02/11/06 8:08 a -10.7 -10.7 -10.7 --- --- 13.0 ENE 0.22 14.8 -19.4 --- --- 715.9 0.020 0.000 9.8 4 1
02/11/06 8:09 a -10.7 -10.7 -10.7 --- --- 13.0 ENE 0.22 14.8 -19.4 --- --- 715.9 0.020 0.000 9.9 4 1
02/11/06 8:10 a -10.7 -10.7 -10.8 --- --- 15.7 ENE 0.26 17.4 -20.2 --- --- 715.7 0.020 0.000 9.8 4 1
02/11/06 8:11 a -10.8 -10.8 -10.8 --- --- 14.8 ENE 0.25 16.5 -20.1 --- --- 715.8 0.020 0.000 9.8 4 1
02/11/06 8:12 a -10.7 -10.6 -10.7 --- --- 12.2 ENE 0.20 13.9 -19.1 --- --- 715.8 0.020 0.000 9.9 4 1
02/11/06 8:13 a -10.6 -10.5 -10.6 --- --- 13.9 ENE 0.23 17.4 -19.5 --- --- 715.8 0.020 0.000 9.9 4 1
02/11/06 8:14 a -10.7 -10.6 -10.7 --- --- 15.7 ENE 0.26 17.4 -20.2 --- --- 715.8 0.020 0.000 9.8 4 1
02/11/06 8:15 a -10.6 -10.5 -10.6 --- --- 12.2 ENE 0.20 13.0 -19.1 --- --- 715.8 0.020 0.000 9.8 4 1
02/11/06 8:16 a -10.6 -10.5 -10.7 --- --- 14.8 ENE 0.25 16.5 -19.8 --- --- 715.7 0.020 0.000 9.8 4 1
02/11/06 8:17 a -10.7 -10.7 -10.7 --- --- 15.7 ENE 0.26 17.4 -20.2 --- --- 715.8 0.020 0.000 9.9 4 1
02/11/06 8:18 a -10.7 -10.7 -10.7 --- --- 13.9 ENE 0.23 16.5 -19.7 --- --- 715.8 0.020 0.000 9.9 4 1
02/11/06 8:19 a -10.6 -10.6 -10.6 --- --- 13.9 ENE 0.23 15.7 -19.6 --- --- 715.9 0.020 0.000 9.9 4 1
02/11/06 8:20 a -10.7 -10.6 -10.7 --- --- 13.9 ENE 0.23 15.7 -19.7 --- --- 715.8 0.020 0.000 9.9 4 1
02/11/06 8:21 a -10.7 -10.7 -10.7 --- --- 14.8 ENE 0.25 16.5 -19.9 --- --- 715.9 0.020 0.000 9.9 4 1
02/11/06 8:22 a -10.7 -10.7 -10.8 --- --- 12.2 ENE 0.20 14.8 -19.2 --- --- 715.9 0.020 0.000 9.9 4 1
02/11/06 8:23 a -10.7 -10.7 -10.7 --- --- 11.3 ENE 0.19 15.7 -18.8 --- --- 715.7 0.020 0.000 9.9 4 1
02/11/06 8:24 a -10.7 -10.7 -10.8 --- --- 16.5 ENE 0.28 18.3 -20.4 --- --- 715.8 0.020 0.000 9.9 4 1
02/11/06 8:25 a -10.8 -10.8 -10.8 --- --- 13.0 ENE 0.22 14.8 -19.6 --- --- 715.8 0.020 0.000 9.9 4 1
02/11/06 8:26 a -10.7 -10.7 -10.8 --- --- 9.6 ENE 0.16 11.3 -18.2 --- --- 715.8 0.020 0.000 9.9 4 1
02/11/06 8:27 a -10.7 -10.7 -10.7 --- --- 14.8 ENE 0.25 17.4 -19.9 --- --- 715.8 0.020 0.000 9.9 4 1
02/11/06 8:28 a -10.8 -10.7 -10.9 --- --- 13.9 ENE 0.23 17.4 -19.9 --- --- 715.8 0.020 0.000 9.9 4 1
02/11/06 8:29 a -10.8 -10.8 -10.8 --- --- 11.3 ENE 0.19 12.2 -19.0 --- --- 715.8 0.020 0.000 9.9 4 1
02/11/06 8:30 a -10.7 -10.7 -10.7 --- --- 13.0 ENE 0.22 16.5 -19.4 --- --- 715.7 0.020 0.000 9.9 4 1
02/11/06 8:31 a -10.7 -10.7 -10.8 --- --- 13.9 ENE 0.23 15.7 -19.7 --- --- 715.8 0.020 0.000 9.9 4 1
02/11/06 8:32 a -10.7 -10.7 -10.8 --- --- 13.9 ENE 0.23 15.7 -19.7 --- --- 715.8 0.020 0.000 9.9 4 1
02/11/06 8:33 a -10.8 -10.8 -10.8 --- --- 11.3 ENE 0.19 13.0 -18.9 --- --- 715.9 0.020 0.000 9.9 4 1
02/11/06 8:34 a -10.7 -10.7 -10.7 --- --- 13.9 ENE 0.23 16.5 -19.7 --- --- 715.8 0.020 0.000 9.9 4 1
02/11/06 8:35 a -10.7 -10.7 -10.8 --- --- 13.9 ENE 0.23 16.5 -19.7 --- --- 715.9 0.020 0.000 9.9 4 1
02/11/06 8:36 a -10.6 -10.4 -10.7 --- --- 9.6 ENE 0.16 14.8 -18.0 --- --- 715.9 0.020 0.000 9.9 4 1
02/11/06 8:37 a -10.4 -10.4 -10.4 --- --- 15.7 ENE 0.26 16.5 -19.8 --- --- 715.8 0.020 0.000 9.9 4 1
02/11/06 8:38 a -10.5 -10.4 -10.5 --- --- 13.9 ENE 0.23 15.7 -19.4 --- --- 715.9 0.020 0.000 9.9 4 1
02/11/06 8:39 a -10.5 -10.5 -10.5 --- --- 11.3 NE 0.19 12.2 -18.6 --- --- 715.9 0.020 0.000 9.9 4 1
02/11/06 8:40 a -10.6 -10.6 -10.6 --- --- 13.9 ENE 0.23 17.4 -19.6 --- --- 715.9 0.020 0.000 9.9 4 1
02/11/06 8:41 a -10.6 -10.6 -10.7 --- --- 13.0 ENE 0.22 15.7 -19.3 --- --- 715.9 0.020 0.000 9.9 4 1
02/11/06 8:42 a -10.4 -10.3 -10.5 --- --- 8.7 NE 0.14 12.2 -17.6 --- --- 715.8 0.020 0.000 9.8 4 1
02/11/06 8:43 a -10.4 -10.3 -10.5 --- --- 15.7 ENE 0.26 18.3 -19.8 --- --- 715.9 0.020 0.000 9.8 4 1
02/11/06 8:44 a -10.6 -10.6 -10.7 --- --- 12.2 ENE 0.20 13.9 -19.1 --- --- 715.9 0.020 0.000 9.8 4 1
02/11/06 8:45 a -10.4 -10.4 -10.5 --- --- 13.9 ENE 0.23 14.8 -19.4 --- --- 715.9 0.020 0.000 9.8 4 1
02/11/06 8:46 a -10.4 -10.4 -10.5 --- --- 11.3 ENE 0.19 13.0 -18.5 --- --- 715.9 0.020 0.000 9.8 4 1
02/11/06 8:47 a -10.4 -10.3 -10.4 --- --- 14.8 ENE 0.25 16.5 -19.6 --- --- 715.9 0.020 0.000 9.7 4 1
02/11/06 8:48 a -10.7 -10.6 -10.9 --- --- 13.0 ENE 0.22 14.8 -19.4 --- --- 716.0 0.020 0.000 9.7 4 1
02/11/06 8:49 a -11.1 -11.1 -11.2 --- --- 10.4 ENE 0.17 13.0 -19.1 --- --- 715.9 0.020 0.000 9.7 3 1
02/11/06 8:50 a -11.3 -11.2 -11.4 --- --- 14.8 ENE 0.25 15.7 -20.8 --- --- 715.8 0.021 0.000 9.7 4 1
02/11/06 8:51 a -11.6 -11.6 -11.6 --- --- 13.9 ENE 0.23 15.7 -20.8 --- --- 715.8 0.021 0.000 9.7 4 1
02/11/06 8:52 a -11.6 -11.6 -11.7 --- --- 12.2 ENE 0.20 13.9 -20.3 --- --- 715.8 0.021 0.000 9.7 4 1
02/11/06 8:53 a -11.7 -11.7 -11.8 --- --- 14.8 ENE 0.25 16.5 -21.3 --- --- 715.9 0.021 0.000 9.7 4 1
02/11/06 8:54 a -11.8 -11.8 -11.9 --- --- 13.9 ENE 0.23 15.7 -21.2 --- --- 715.9 0.021 0.000 9.6 3 1
02/11/06 8:55 a -11.8 -11.8 -11.9 --- --- 13.0 ENE 0.22 14.8 -20.9 --- --- 715.9 0.021 0.000 9.6 3 1
02/11/06 8:56 a -12.1 -12.0 -12.1 --- --- 13.9 ENE 0.23 16.5 -21.4 --- --- 715.9 0.021 0.000 9.6 3 1
02/11/06 8:57 a -12.2 -12.1 -12.3 --- --- 13.9 ENE 0.23 15.7 -21.6 --- --- 715.8 0.021 0.000 9.6 3 1
02/11/06 8:58 a -12.3 -12.2 -12.3 --- --- 13.0 ENE 0.22 13.9 -21.4 --- --- 715.8 0.021 0.000 9.5 3 1
02/11/06 8:59 a -12.2 -12.0 -12.2 --- --- 13.0 ENE 0.22 14.8 -21.3 --- --- 715.7 0.021 0.000 9.5 4 1
02/11/06 9:00 a -12.0 -11.9 -12.0 --- --- 13.0 ENE 0.22 13.9 -21.1 --- --- 715.8 0.021 0.000 9.5 3 1
02/11/06 9:01 a -11.9 -11.8 -12.0 --- --- 13.9 ENE 0.23 14.8 -21.3 --- --- 715.8 0.021 0.000 9.5 3 1
02/11/06 9:02 a -11.7 -11.6 -11.8 --- --- 13.0 ENE 0.22 14.8 -20.7 --- --- 715.8 0.021 0.000 9.5 3 1
02/11/06 9:03 a -11.4 -11.4 -11.6 --- --- 13.9 ENE 0.23 15.7 -20.7 --- --- 715.7 0.021 0.000 9.5 4 1
02/11/06 9:04 a -11.3 -11.2 -11.3 --- --- 13.0 ENE 0.22 13.9 -20.2 --- --- 715.8 0.021 0.000 9.5 4 1
02/11/06 9:05 a -11.2 -11.1 -11.2 --- --- 13.9 ENE 0.23 15.7 -20.3 --- --- 715.7 0.020 0.000 9.5 3 1
02/11/06 9:06 a -11.2 -11.1 -11.3 --- --- 13.0 ENE 0.22 13.9 -20.1 --- --- 715.8 0.020 0.000 9.5 4 1
02/11/06 9:07 a -11.7 -11.3 -11.9 --- --- 13.9 ENE 0.23 14.8 -20.9 --- --- 715.7 0.021 0.000 9.6 4 1
02/11/06 9:08 a -12.1 -11.9 -12.2 --- --- 13.0 ENE 0.22 14.8 -21.2 --- --- 715.7 0.021 0.000 9.6 4 1
02/11/06 9:09 a -12.2 -12.2 -12.3 --- --- 11.3 ENE 0.19 13.0 -20.8 --- --- 715.8 0.021 0.000 9.6 3 1
02/11/06 9:10 a -12.4 -12.3 -12.4 --- --- 12.2 ENE 0.20 13.9 -21.3 --- --- 715.8 0.021 0.000 9.6 4 1
02/11/06 9:11 a -12.5 -12.4 -12.6 --- --- 12.2 ENE 0.20 13.0 -21.4 --- --- 715.8 0.021 0.000 9.6 4 1
02/11/06 9:12 a -12.7 -12.6 -12.7 --- --- 11.3 ENE 0.19 12.2 -21.3 --- --- 715.8 0.022 0.000 9.6 4 1
02/11/06 9:13 a -12.7 -12.7 -12.8 --- --- 11.3 ENE 0.19 13.0 -21.4 --- --- 715.8 0.022 0.000 9.6 3 1
02/11/06 9:14 a -12.8 -12.8 -12.8 --- --- 13.0 ENE 0.22 13.9 -22.2 --- --- 715.8 0.022 0.000 9.6 3 1
02/11/06 9:15 a -12.8 -12.8 -12.9 --- --- 10.4 ENE 0.17 13.0 -21.2 --- --- 715.8 0.022 0.000 9.6 3 1
02/11/06 9:16 a -13.0 -12.9 -13.1 --- --- 13.0 ENE 0.22 14.8 -22.4 --- --- 715.8 0.022 0.000 9.6 4 1
02/11/06 9:17 a -13.1 -13.1 -13.1 --- --- 10.4 ENE 0.17 12.2 -21.5 --- --- 715.8 0.022 0.000 9.6 4 1
02/11/06 9:18 a -13.1 -13.1 -13.2 --- --- 13.0 ENE 0.22 13.9 -22.5 --- --- 715.8 0.022 0.000 9.6 4 1
02/11/06 9:19 a -13.2 -13.1 -13.2 --- --- 8.7 ENE 0.14 12.2 -20.8 --- --- 715.7 0.022 0.000 9.6 4 1
02/11/06 9:20 a -13.2 -13.1 -13.2 --- --- 11.3 ENE 0.19 13.9 -21.9 --- --- 715.8 0.022 0.000 9.6 4 1
02/11/06 9:21 a -13.2 -13.2 -13.2 --- --- 10.4 ENE 0.17 13.9 -21.6 --- --- 715.7 0.022 0.000 9.6 4 1
02/11/06 9:22 a -13.2 -13.2 -13.2 --- --- 11.3 ENE 0.19 12.2 -21.9 --- --- 715.8 0.022 0.000 9.6 4 1
02/11/06 9:23 a -13.2 -13.2 -13.3 --- --- 9.6 ENE 0.16 12.2 -21.3 --- --- 715.7 0.022 0.000 9.6 4 1
02/11/06 9:24 a -13.3 -13.3 -13.3 --- --- 11.3 ENE 0.19 12.2 -22.1 --- --- 715.8 0.022 0.000 9.6 4 1
02/11/06 9:25 a -13.3 -13.3 -13.3 --- --- 10.4 ENE 0.17 12.2 -21.8 --- --- 715.8 0.022 0.000 9.6 4 1
02/11/06 9:26 a -13.4 -13.4 -13.4 --- --- 10.4 ENE 0.17 12.2 -21.9 --- --- 715.8 0.022 0.000 9.6 4 1
02/11/06 9:27 a -13.5 -13.4 -13.6 --- --- 10.4 ENE 0.17 12.2 -22.1 --- --- 715.7 0.022 0.000 9.6 4 1
02/11/06 9:28 a -13.6 -13.6 -13.6 --- --- 10.4 ENE 0.17 12.2 -22.1 --- --- 715.7 0.022 0.000 9.6 4 1
02/11/06 9:29 a -13.6 -13.6 -13.7 --- --- 10.4 ENE 0.17 12.2 -22.2 --- --- 715.8 0.022 0.000 9.6 4 1
02/11/06 9:30 a -13.6 -13.6 -13.7 --- --- 10.4 ENE 0.17 12.2 -22.2 --- --- 715.7 0.022 0.000 9.6 4 1
02/11/06 9:31 a -13.7 -13.6 -13.7 --- --- 10.4 NE 0.17 12.2 -22.3 --- --- 715.7 0.022 0.000 9.6 4 1
02/11/06 9:32 a -13.7 -13.7 -13.8 --- --- 11.3 NE 0.19 12.2 -22.7 --- --- 715.8 0.022 0.000 9.6 4 1
02/11/06 9:33 a -14.0 -13.8 -14.2 --- --- 11.3 NE 0.19 12.2 -23.0 --- --- 715.7 0.022 0.000 9.6 4 1
02/11/06 9:34 a -14.2 -14.2 -14.3 --- --- 13.0 NE 0.22 13.9 -23.9 --- --- 715.7 0.023 0.000 9.6 4 1
02/11/06 9:35 a -14.3 -14.3 -14.4 --- --- 12.2 NE 0.20 13.9 -23.8 --- --- 715.8 0.023 0.000 9.6 4 1
02/11/06 9:36 a -14.4 -14.4 -14.4 --- --- 11.3 ENE 0.19 13.0 -23.5 --- --- 715.7 0.023 0.000 9.6 4 1
02/11/06 9:37 a -14.4 -14.4 -14.5 --- --- 11.3 ENE 0.19 12.2 -23.6 --- --- 715.7 0.023 0.000 9.6 4 1
02/11/06 9:38 a -14.6 -14.5 -14.6 --- --- 11.3 ENE 0.19 12.2 -23.7 --- --- 715.7 0.023 0.000 9.6 4 1
02/11/06 9:39 a -14.6 -14.6 -14.7 --- --- 10.4 ENE 0.17 12.2 -23.4 --- --- 715.8 0.023 0.000 9.6 4 1
02/11/06 9:40 a -14.8 -14.7 -14.8 --- --- 12.2 ENE 0.20 13.9 -24.3 --- --- 715.7 0.023 0.000 9.6 4 1
02/11/06 9:41 a -14.8 -14.8 -14.8 --- --- 12.2 ENE 0.20 13.0 -24.3 --- --- 715.7 0.023 0.000 9.6 4 1
02/11/06 9:42 a -14.8 -14.8 -14.9 --- --- 12.2 NE 0.20 13.0 -24.4 --- --- 715.7 0.023 0.000 9.6 4 1
02/11/06 9:43 a -14.8 -14.8 -14.9 --- --- 11.3 ENE 0.19 13.0 -24.1 --- --- 715.7 0.023 0.000 9.6 4 1
02/11/06 9:44 a -14.8 -14.7 -14.9 --- --- 13.0 ENE 0.22 14.8 -24.7 --- --- 715.7 0.023 0.000 9.6 4 1
02/11/06 9:45 a -14.7 -14.7 -14.8 --- --- 12.2 ENE 0.20 13.0 -24.3 --- --- 715.7 0.023 0.000 9.6 4 1
02/11/06 9:46 a -14.9 -14.8 -14.9 --- --- 8.7 ENE 0.14 10.4 -23.0 --- --- 715.7 0.023 0.000 9.6 4 1
02/11/06 9:47 a -14.9 -14.9 -14.9 --- --- 9.6 ENE 0.16 13.9 -23.5 --- --- 715.7 0.023 0.000 9.6 4 1
02/11/06 9:48 a -14.8 -14.7 -14.8 --- --- 12.2 NE 0.20 13.0 -24.3 --- --- 715.6 0.023 0.000 9.6 4 1
02/11/06 9:49 a -14.7 -14.7 -14.7 --- --- 11.3 NE 0.19 12.2 -23.9 --- --- 715.7 0.023 0.000 9.6 4 1
02/11/06 9:50 a -14.7 -14.7 -14.8 --- --- 10.4 NE 0.17 12.2 -23.6 --- --- 715.7 0.023 0.000 9.6 4 1
02/11/06 9:51 a -14.8 -14.8 -14.8 --- --- 10.4 NE 0.17 11.3 -23.7 --- --- 715.7 0.023 0.000 9.6 4 1
02/11/06 9:52 a -14.8 -14.8 -14.9 --- --- 11.3 NE 0.19 12.2 -24.1 --- --- 715.6 0.023 0.000 9.6 4 1
02/11/06 9:53 a -14.9 -14.9 -14.9 --- --- 9.6 NE 0.16 12.2 -23.4 --- --- 715.7 0.023 0.000 9.6 4 1
02/11/06 9:54 a -14.7 -14.4 -14.8 --- --- 11.3 NE 0.19 12.2 -23.9 --- --- 715.7 0.023 0.000 9.6 4 1
02/11/06 9:55 a -14.3 -14.2 -14.4 --- --- 12.2 NE 0.20 13.0 -23.8 --- --- 715.8 0.023 0.000 9.6 4 1
02/11/06 9:56 a -14.1 -13.9 -14.2 --- --- 10.4 NE 0.17 13.0 -22.7 --- --- 715.7 0.022 0.000 9.6 4 1
02/11/06 9:57 a -13.9 -13.8 -13.9 --- --- 10.4 NE 0.17 13.0 -22.6 --- --- 715.7 0.022 0.000 9.6 4 1
02/11/06 9:58 a -13.8 -13.7 -13.9 --- --- 11.3 NE 0.19 13.0 -22.8 --- --- 715.7 0.022 0.000 9.6 4 1
02/11/06 9:59 a -13.7 -13.7 -13.8 --- --- 11.3 NE 0.19 13.0 -22.7 --- --- 715.7 0.022 0.000 9.6 4 1
02/11/06 10:00 a -13.9 -13.8 -14.0 --- --- 11.3 NE 0.19 12.2 -22.9 --- --- 715.7 0.022 0.000 9.6 4 1
02/11/06 10:01 a -14.2 -14.0 -14.3 --- --- 11.3 NE 0.19 12.2 -23.2 --- --- 715.7 0.023 0.000 9.6 4 1
02/11/06 10:02 a -14.4 -14.3 -14.4 --- --- 11.3 NE 0.19 13.0 -23.5 --- --- 715.7 0.023 0.000 9.6 4 1
02/11/06 10:03 a -14.4 -14.4 -14.4 --- --- 10.4 NE 0.17 12.2 -23.2 --- --- 715.7 0.023 0.000 9.6 4 1
02/11/06 10:04 a -14.2 -14.0 -14.4 --- --- 9.6 NE 0.16 11.3 -22.6 --- --- 715.7 0.023 0.000 9.6 4 1
02/11/06 10:05 a -13.8 -13.7 -14.0 --- --- 10.4 NE 0.17 12.2 -22.4 --- --- 715.7 0.022 0.000 9.6 4 1
02/11/06 10:06 a -13.6 -13.5 -13.6 --- --- 10.4 NE 0.17 12.2 -22.1 --- --- 715.6 0.022 0.000 9.6 4 1
02/11/06 10:07 a -13.6 -13.5 -13.6 --- --- 11.3 NE 0.19 12.2 -22.4 --- --- 715.6 0.022 0.000 9.6 4 1
02/11/06 10:08 a -13.4 -13.3 -13.4 --- --- 10.4 NE 0.17 11.3 -21.9 --- --- 715.7 0.022 0.000 9.6 4 1
02/11/06 10:09 a -13.3 -13.2 -13.3 --- --- 10.4 NE 0.17 12.2 -21.8 --- --- 715.7 0.022 0.000 9.6 4 1
02/11/06 10:10 a -13.2 -13.2 -13.2 --- --- 10.4 NE 0.17 11.3 -21.6 --- --- 715.6 0.022 0.000 9.6 4 1
02/11/06 10:11 a -13.2 -13.2 -13.2 --- --- 11.3 NE 0.19 12.2 -22.1 --- --- 715.7 0.022 0.000 9.6 4 1
02/11/06 10:12 a -13.2 -13.2 -13.3 --- --- 11.3 NE 0.19 12.2 -22.1 --- --- 715.7 0.022 0.000 9.6 4 1
02/11/06 10:13 a -13.2 -13.2 -13.2 --- --- 10.4 NE 0.17 12.2 -21.7 --- --- 715.7 0.022 0.000 9.6 4 1
02/11/06 10:14 a -13.2 -13.1 -13.2 --- --- 10.4 NE 0.17 12.2 -21.6 --- --- 715.6 0.022 0.000 9.6 4 1
02/11/06 10:15 a -13.1 -13.1 -13.1 --- --- 10.4 NE 0.17 11.3 -21.6 --- --- 715.6 0.022 0.000 9.6 4 1
02/11/06 10:16 a -12.9 -12.8 -13.1 --- --- 9.6 NE 0.16 11.3 -21.0 --- --- 715.7 0.022 0.000 9.6 4 1
02/11/06 10:17 a -12.7 -12.7 -12.7 --- --- 10.4 NE 0.17 11.3 -21.1 --- --- 715.7 0.022 0.000 9.6 4 1
02/11/06 10:18 a -12.6 -12.5 -12.6 --- --- 10.4 NE 0.17 12.2 -20.8 --- --- 715.7 0.021 0.000 9.6 4 1
02/11/06 10:19 a -12.4 -12.4 -12.4 --- --- 10.4 NE 0.17 12.2 -20.7 --- --- 715.6 0.021 0.000 9.6 4 1
02/11/06 10:20 a -12.3 -12.2 -12.3 --- --- 10.4 NE 0.17 12.2 -20.5 --- --- 715.6 0.021 0.000 9.6 4 1
02/11/06 10:21 a -12.2 -12.1 -12.2 --- --- 11.3 NE 0.19 12.2 -20.7 --- --- 715.6 0.021 0.000 9.6 4 1
02/11/06 10:22 a -12.0 -11.9 -12.1 --- --- 10.4 NE 0.17 11.3 -20.2 --- --- 715.6 0.021 0.000 9.6 4 1
02/11/06 10:23 a -11.9 -11.9 -11.9 --- --- 9.6 NE 0.16 11.3 -19.7 --- --- 715.6 0.021 0.000 9.6 4 1
02/11/06 10:24 a -11.9 -11.9 -11.9 --- --- 10.4 NE 0.17 11.3 -20.1 --- --- 715.7 0.021 0.000 9.6 4 1
02/11/06 10:25 a -12.0 -11.9 -12.1 --- --- 10.4 NE 0.17 11.3 -20.2 --- --- 715.6 0.021 0.000 9.6 4 1
02/11/06 10:26 a -12.1 -12.1 -12.2 --- --- 8.7 NE 0.14 9.6 -19.6 --- --- 715.7 0.021 0.000 9.6 4 1
02/11/06 10:27 a -12.2 -12.2 -12.2 --- --- 9.6 NE 0.16 10.4 -20.0 --- --- 715.7 0.021 0.000 9.6 4 1
02/11/06 10:28 a -12.3 -12.2 -12.3 --- --- 8.7 NE 0.14 11.3 -19.8 --- --- 715.7 0.021 0.000 9.6 4 1
02/11/06 10:29 a -12.2 -12.2 -12.2 --- --- 7.8 NE 0.13 9.6 -19.2 --- --- 715.7 0.021 0.000 9.6 4 1
02/11/06 10:30 a -12.2 -12.2 -12.2 --- --- 8.7 NE 0.14 9.6 -19.6 --- --- 715.7 0.021 0.000 9.6 4 1
02/11/06 10:31 a -12.2 -12.2 -12.2 --- --- 8.7 NE 0.14 9.6 -19.6 --- --- 715.7 0.021 0.000 9.6 4 1
02/11/06 10:32 a -12.2 -12.2 -12.2 --- --- 9.6 NE 0.16 10.4 -20.0 --- --- 715.7 0.021 0.000 9.6 4 1
02/11/06 10:33 a -12.2 -12.1 -12.2 --- --- 8.7 NE 0.14 9.6 -19.6 --- --- 715.6 0.021 0.000 9.6 4 1
02/11/06 10:34 a -12.0 -11.9 -12.1 --- --- 8.7 NE 0.14 10.4 -19.4 --- --- 715.7 0.021 0.000 9.6 4 1
02/11/06 10:35 a -11.9 -11.8 -11.9 --- --- 8.7 NE 0.14 9.6 -19.3 --- --- 715.6 0.021 0.000 9.6 4 1
02/11/06 10:36 a -11.8 -11.8 -11.8 --- --- 7.8 NE 0.13 8.7 -18.8 --- --- 715.7 0.021 0.000 9.6 4 1
02/11/06 10:37 a -11.7 -11.6 -11.7 --- --- 7.8 NE 0.13 7.8 -18.6 --- --- 715.7 0.021 0.000 9.6 4 1
02/11/06 10:38 a -11.6 -11.6 -11.6 --- --- 7.8 NE 0.13 8.7 -18.4 --- --- 715.7 0.021 0.000 9.6 4 1
02/11/06 10:39 a -11.6 -11.6 -11.6 --- --- 7.0 ENE 0.12 8.7 -18.1 --- --- 715.6 0.021 0.000 9.6 4 1
02/11/06 10:40 a -11.6 -11.6 -11.6 --- --- 7.8 ENE 0.13 8.7 -18.5 --- --- 715.8 0.021 0.000 9.6 4 1
02/11/06 10:41 a -11.7 -11.7 -11.8 --- --- 8.7 ENE 0.14 9.6 -19.0 --- --- 715.7 0.021 0.000 9.6 4 1
02/11/06 10:42 a -11.9 -11.8 -11.9 --- --- 8.7 NE 0.14 9.6 -19.3 --- --- 715.7 0.021 0.000 9.6 4 1
02/11/06 10:43 a -12.1 -12.1 -12.2 --- --- 7.8 NE 0.13 8.7 -19.1 --- --- 715.7 0.021 0.000 9.6 4 1
02/11/06 10:44 a -12.2 -12.2 -12.2 --- --- 7.8 NE 0.13 8.7 -19.2 --- --- 715.7 0.021 0.000 9.6 4 1
02/11/06 10:45 a -12.2 -12.2 -12.2 --- --- 7.8 NE 0.13 8.7 -19.3 --- --- 715.7 0.021 0.000 9.6 4 1
02/11/06 10:46 a -12.2 -12.1 -12.2 --- --- 7.8 NE 0.13 8.7 -19.3 --- --- 715.7 0.021 0.000 9.6 4 1
02/11/06 10:47 a -12.1 -12.1 -12.1 --- --- 7.0 ENE 0.12 8.7 -18.6 --- --- 715.8 0.021 0.000 9.6 4 1
02/11/06 10:48 a -12.1 -12.1 -12.2 --- --- 7.0 ENE 0.12 7.8 -18.7 --- --- 715.7 0.021 0.000 9.6 4 1
02/11/06 10:49 a -12.2 -12.2 -12.2 --- --- 7.8 NE 0.13 8.7 -19.2 --- --- 715.7 0.021 0.000 9.6 4 1
02/11/06 10:50 a -12.2 -12.2 -12.2 --- --- 7.0 NE 0.12 8.7 -18.8 --- --- 715.7 0.021 0.000 9.6 4 1
02/11/06 10:51 a -12.2 -12.2 -12.2 --- --- 7.0 NE 0.12 7.8 -18.8 --- --- 715.8 0.021 0.000 9.6 4 1
02/11/06 10:52 a -12.2 -12.2 -12.2 --- --- 7.0 NE 0.12 7.8 -18.8 --- --- 715.7 0.021 0.000 9.6 4 1
02/11/06 10:53 a -12.2 -12.2 -12.2 --- --- 7.0 NE 0.12 7.8 -18.7 --- --- 715.7 0.021 0.000 9.6 4 1
02/11/06 10:54 a -12.1 -12.1 -12.1 --- --- 6.1 NE 0.10 7.8 -18.2 --- --- 715.6 0.021 0.000 9.6 4 1
02/11/06 10:55 a -12.0 -11.9 -12.1 --- --- 7.0 NE 0.12 7.8 -18.6 --- --- 715.7 0.021 0.000 9.6 4 1
02/11/06 10:56 a -11.9 -11.9 -11.9 --- --- 7.0 NE 0.12 7.8 -18.4 --- --- 715.7 0.021 0.000 9.6 4 1
02/11/06 10:57 a -11.8 -11.8 -11.9 --- --- 7.0 ENE 0.12 7.8 -18.3 --- --- 715.7 0.021 0.000 9.6 4 1
02/11/06 10:58 a -11.9 -11.9 -11.9 --- --- 7.0 ENE 0.12 7.8 -18.4 --- --- 715.7 0.021 0.000 9.6 4 1
02/11/06 10:59 a -11.9 -11.9 -11.9 --- --- 7.8 NE 0.13 7.8 -18.9 --- --- 715.7 0.021 0.000 9.6 4 1
02/11/06 11:00 a -12.0 -11.9 -12.1 --- --- 7.8 ENE 0.13 7.8 -19.0 --- --- 715.7 0.021 0.000 9.6 4 1
02/11/06 11:01 a -12.1 -12.1 -12.2 --- --- 7.0 ENE 0.12 8.7 -18.7 --- --- 715.7 0.021 0.000 9.6 4 1
02/11/06 11:02 a -12.3 -12.2 -12.3 --- --- 7.8 ENE 0.13 7.8 -19.3 --- --- 715.7 0.021 0.000 9.6 4 1
02/11/06 11:03 a -12.4 -12.3 -12.4 --- --- 7.8 NE 0.13 7.8 -19.4 --- --- 715.7 0.021 0.000 9.6 4 1
02/11/06 11:04 a -12.6 -12.5 -12.6 --- --- 7.8 ENE 0.13 7.8 -19.7 --- --- 715.6 0.021 0.000 9.6 4 1
02/11/06 11:05 a -12.6 -12.6 -12.7 --- --- 7.8 ENE 0.13 7.8 -19.7 --- --- 715.7 0.021 0.000 9.6 4 1
02/11/06 11:06 a -12.7 -12.6 -12.7 --- --- 7.8 ENE 0.13 7.8 -19.8 --- --- 715.7 0.022 0.000 9.6 4 1
02/11/06 11:07 a -12.6 -12.6 -12.7 --- --- 7.0 ENE 0.12 7.8 -19.3 --- --- 715.7 0.021 0.000 9.6 4 1
02/11/06 11:08 a -12.7 -12.6 -12.7 --- --- 7.0 ENE 0.12 7.8 -19.3 --- --- 715.6 0.022 0.000 9.6 4 1
02/11/06 11:09 a -12.7 -12.7 -12.7 --- --- 6.1 ENE 0.10 7.0 -18.8 --- --- 715.7 0.022 0.000 9.6 4 1
02/11/06 11:10 a -12.7 -12.6 -12.7 --- --- 7.0 ENE 0.12 7.8 -19.3 --- --- 715.7 0.022 0.000 9.6 4 1
02/11/06 11:11 a -12.6 -12.6 -12.6 --- --- 7.0 ENE 0.12 7.8 -19.3 --- --- 715.7 0.021 0.000 9.6 4 1
02/11/06 11:12 a -12.6 -12.6 -12.6 --- --- 7.0 NE 0.12 7.8 -19.3 --- --- 715.7 0.021 0.000 9.6 4 1
02/11/06 11:13 a -12.6 -12.6 -12.6 --- --- 7.0 NE 0.12 7.8 -19.3 --- --- 715.7 0.021 0.000 9.6 4 1
02/11/06 11:14 a -12.6 -12.6 -12.6 --- --- 7.0 NE 0.12 7.8 -19.3 --- --- 715.6 0.021 0.000 9.6 4 1
02/11/06 11:15 a -12.6 -12.5 -12.6 --- --- 7.0 NE 0.12 7.8 -19.2 --- --- 715.7 0.021 0.000 9.6 4 1
02/11/06 11:16 a -12.5 -12.4 -12.5 --- --- 7.0 ENE 0.12 7.8 -19.2 --- --- 715.7 0.021 0.000 9.6 4 1
02/11/06 11:17 a -12.4 -12.4 -12.4 --- --- 7.0 NE 0.12 7.8 -19.1 --- --- 715.6 0.021 0.000 9.6 4 1
02/11/06 11:18 a -12.4 -12.4 -12.4 --- --- 7.0 NE 0.12 7.8 -19.0 --- --- 715.7 0.021 0.000 9.6 4 1
02/11/06 11:19 a -12.3 -12.3 -12.4 --- --- 7.8 NE 0.13 8.7 -19.4 --- --- 715.7 0.021 0.000 9.6 4 1
02/11/06 11:20 a -12.3 -12.3 -12.3 --- --- 7.0 NE 0.12 7.8 -18.9 --- --- 715.6 0.021 0.000 9.6 4 1
02/11/06 11:21 a -12.3 -12.3 -12.3 --- --- 7.0 NE 0.12 7.8 -18.9 --- --- 715.7 0.021 0.000 9.6 4 1
02/11/06 11:22 a -12.3 -12.2 -12.3 --- --- 6.1 NE 0.10 7.0 -18.3 --- --- 715.7 0.021 0.000 9.6 4 1
02/11/06 11:23 a -12.2 -12.1 -12.2 --- --- 6.1 NE 0.10 7.0 -18.2 --- --- 715.7 0.021 0.000 9.6 4 1
02/11/06 11:24 a -12.1 -12.1 -12.1 --- --- 6.1 NE 0.10 7.0 -18.2 --- --- 715.7 0.021 0.000 9.6 4 1
02/11/06 11:25 a -12.0 -11.9 -12.1 --- --- 6.1 NE 0.10 6.1 -18.0 --- --- 715.7 0.021 0.000 9.6 4 1
02/11/06 11:26 a -11.9 -11.9 -11.9 --- --- 6.1 NE 0.10 7.0 -17.9 --- --- 715.7 0.021 0.000 9.6 4 1
02/11/06 11:27 a -11.8 -11.8 -11.9 --- --- 5.2 NE 0.09 6.1 -17.3 --- --- 715.7 0.021 0.000 9.6 4 1
02/11/06 11:28 a -11.8 -11.7 -11.8 --- --- 5.2 NE 0.09 5.2 -17.2 --- --- 715.6 0.021 0.000 9.6 4 1
02/11/06 11:29 a -11.7 -11.7 -11.7 --- --- 4.3 NE 0.07 5.2 -16.5 --- --- 715.7 0.021 0.000 9.6 4 1
02/11/06 11:30 a -11.7 -11.6 -11.7 --- --- 5.2 NE 0.09 5.2 -17.1 --- --- 715.6 0.021 0.000 9.6 4 1
02/11/06 11:31 a -11.6 -11.6 -11.6 --- --- 5.2 ENE 0.09 6.1 -16.9 --- --- 715.7 0.021 0.000 9.6 4 1
02/11/06 11:32 a -11.5 -11.4 -11.6 --- --- 5.2 ENE 0.09 7.0 -16.9 --- --- 715.7 0.021 0.000 9.6 4 1
02/11/06 11:33 a -11.4 -11.4 -11.4 --- --- 5.2 ENE 0.09 6.1 -16.8 --- --- 715.7 0.021 0.000 9.6 4 1
02/11/06 11:34 a -11.4 -11.3 -11.4 --- --- 5.2 ENE 0.09 6.1 -16.8 --- --- 715.7 0.021 0.000 9.6 4 1
02/11/06 11:35 a -11.3 -11.3 -11.3 --- --- 5.2 ENE 0.09 5.2 -16.7 --- --- 715.7 0.021 0.000 9.6 4 1
02/11/06 11:36 a -11.3 -11.3 -11.3 --- --- 4.3 ENE 0.07 5.2 -16.0 --- --- 715.7 0.021 0.000 9.6 4 1
02/11/06 11:37 a -11.2 -11.2 -11.3 --- --- 4.3 ENE 0.07 5.2 -15.9 --- --- 715.7 0.021 0.000 9.6 4 1
02/11/06 11:38 a -11.2 -11.2 -11.2 --- --- 4.3 ENE 0.07 5.2 -15.8 --- --- 715.6 0.020 0.000 9.6 4 1
02/11/06 11:39 a -11.1 -11.1 -11.1 --- --- 5.2 ENE 0.09 5.2 -16.4 --- --- 715.7 0.020 0.000 9.6 4 1
02/11/06 11:40 a -11.1 -11.0 -11.1 --- --- 4.3 ENE 0.07 5.2 -15.7 --- --- 715.7 0.020 0.000 9.6 4 1
02/11/06 11:41 a -11.0 -11.0 -11.0 --- --- 4.3 ENE 0.07 5.2 -15.7 --- --- 715.6 0.020 0.000 9.6 4 1
02/11/06 11:42 a -10.9 -10.9 -10.9 --- --- 4.3 ENE 0.07 5.2 -15.6 --- --- 715.6 0.020 0.000 9.6 4 1
02/11/06 11:43 a -10.9 -10.9 -10.9 --- --- 4.3 ENE 0.07 4.3 -15.6 --- --- 715.6 0.020 0.000 9.6 4 1
02/11/06 11:44 a -10.9 -10.9 -10.9 --- --- 3.5 ENE 0.06 4.3 -14.8 --- --- 715.6 0.020 0.000 9.6 4 1
02/11/06 11:45 a -10.9 -10.9 -10.9 --- --- 3.5 ENE 0.06 4.3 -14.8 --- --- 715.6 0.020 0.000 9.6 4 1
02/11/06 11:46 a -10.9 -10.9 -10.9 --- --- 3.5 ENE 0.06 4.3 -14.8 --- --- 715.7 0.020 0.000 9.6 4 1
02/11/06 11:47 a -10.9 -10.9 -10.9 --- --- 3.5 ENE 0.06 4.3 -14.8 --- --- 715.6 0.020 0.000 9.6 4 1
02/11/06 11:48 a -10.9 -10.9 -10.9 --- --- 3.5 ENE 0.06 4.3 -14.8 --- --- 715.6 0.020 0.000 9.6 4 1
02/11/06 11:49 a -10.8 -10.8 -10.8 --- --- 3.5 E 0.06 4.3 -14.7 --- --- 715.6 0.020 0.000 9.6 4 1
02/11/06 11:50 a -10.8 -10.8 -10.8 --- --- 3.5 E 0.06 3.5 -14.7 --- --- 715.7 0.020 0.000 9.6 4 1
02/11/06 11:51 a -10.8 -10.8 -10.8 --- --- 3.5 E 0.06 4.3 -14.7 --- --- 715.7 0.020 0.000 9.6 4 1
02/11/06 11:52 a -10.9 -10.8 -10.9 --- --- 2.6 E 0.04 3.5 -13.8 --- --- 715.6 0.020 0.000 9.5 4 1
02/11/06 11:53 a -10.9 -10.9 -10.9 --- --- 3.5 E 0.06 4.3 -14.8 --- --- 715.7 0.020 0.000 9.6 4 1
02/11/06 11:54 a -10.9 -10.9 -10.9 --- --- 3.5 E 0.06 4.3 -14.8 --- --- 715.7 0.020 0.000 9.6 4 1
02/11/06 11:55 a -10.9 -10.9 -10.9 --- --- 4.3 ENE 0.07 6.1 -15.6 --- --- 715.7 0.020 0.000 9.6 4 1
02/11/06 11:56 a -11.0 -10.9 -11.0 --- --- 5.2 ENE 0.09 5.2 -16.3 --- --- 715.8 0.020 0.000 9.5 4 1
02/11/06 11:57 a -11.1 -11.0 -11.1 --- --- 5.2 ENE 0.09 6.1 -16.4 --- --- 715.7 0.020 0.000 9.5 4 1
02/11/06 11:58 a -11.1 -11.1 -11.2 --- --- 5.2 NE 0.09 5.2 -16.4 --- --- 715.7 0.020 0.000 9.5 4 1
02/11/06 11:59 a -11.2 -11.2 -11.2 --- --- 4.3 NE 0.07 5.2 -15.8 --- --- 715.6 0.020 0.000 9.5 4 1
02/11/06 12:00 p -11.2 -11.1 -11.2 --- --- 3.5 NNE 0.06 4.3 -15.1 --- --- 715.7 0.020 0.000 9.6 4 1
02/11/06 12:01 p -11.1 -11.1 -11.1 --- --- 2.6 NNE 0.04 3.5 -14.1 --- --- 715.7 0.020 0.000 9.6 4 1
02/11/06 12:02 p -11.0 -10.9 -11.0 --- --- 1.7 NNE 0.03 2.6 -12.7 --- --- 715.7 0.020 0.000 9.5 4 1
02/11/06 12:03 p -10.9 -10.8 -10.9 --- --- 1.7 NNE 0.03 2.6 -12.6 --- --- 715.7 0.020 0.000 9.6 4 1
02/11/06 12:04 p -10.8 -10.7 -10.8 --- --- 0.0 NNE 0.00 0.9 -10.8 --- --- 715.7 0.020 0.000 9.5 4 1
02/11/06 12:05 p -10.7 -10.7 -10.7 --- --- 0.0 --- 0.00 0.0 -10.7 --- --- 715.7 0.020 0.000 9.5 4 1
02/11/06 12:06 p -10.7 -10.7 -10.7 --- --- 0.0 --- 0.00 0.0 -10.7 --- --- 715.7 0.020 0.000 9.5 4 1
02/11/06 12:07 p -10.7 -10.7 -10.7 --- --- 0.0 NNE 0.00 0.9 -10.7 --- --- 715.7 0.020 0.000 9.5 4 1
02/11/06 12:08 p -10.7 -10.7 -10.7 --- --- 0.0 --- 0.00 0.9 -10.7 --- --- 715.7 0.020 0.000 9.5 4 1
02/11/06 12:09 p -10.7 -10.7 -10.7 --- --- 0.0 --- 0.00 0.0 -10.7 --- --- 715.7 0.020 0.000 9.5 4 1
02/11/06 12:10 p -10.7 -10.7 -10.7 --- --- 0.0 --- 0.00 0.0 -10.7 --- --- 715.7 0.020 0.000 9.6 4 1
02/11/06 12:11 p -10.7 -10.7 -10.7 --- --- 0.0 --- 0.00 0.0 -10.7 --- --- 715.7 0.020 0.000 9.5 4 1
02/11/06 12:12 p -10.7 -10.7 -10.7 --- --- 0.0 --- 0.00 0.0 -10.7 --- --- 715.6 0.020 0.000 9.5 4 1
02/11/06 12:13 p -10.7 -10.7 -10.7 --- --- 0.0 --- 0.00 0.0 -10.7 --- --- 715.6 0.020 0.000 9.5 4 1
02/11/06 12:14 p -10.7 -10.7 -10.7 --- --- 0.0 --- 0.00 0.0 -10.7 --- --- 715.6 0.020 0.000 9.5 4 1
02/11/06 12:15 p -10.7 -10.7 -10.7 --- --- 0.0 --- 0.00 0.0 -10.7 --- --- 715.6 0.020 0.000 9.5 4 1
02/11/06 12:16 p -10.7 -10.7 -10.7 --- --- 0.0 --- 0.00 0.0 -10.7 --- --- 715.6 0.020 0.000 9.5 4 1
02/11/06 12:17 p -10.7 -10.7 -10.7 --- --- 0.0 --- 0.00 0.0 -10.7 --- --- 715.7 0.020 0.000 9.5 4 1
02/11/06 12:18 p -10.7 -10.7 -10.7 --- --- 0.0 --- 0.00 0.0 -10.7 --- --- 715.7 0.020 0.000 9.5 4 1
02/11/06 12:19 p -10.7 -10.7 -10.7 --- --- 0.0 --- 0.00 0.0 -10.7 --- --- 715.6 0.020 0.000 9.5 4 1
02/11/06 12:20 p -10.7 -10.7 -10.7 --- --- 0.0 --- 0.00 0.0 -10.7 --- --- 715.7 0.020 0.000 9.5 4 1
02/11/06 12:21 p -10.7 -10.7 -10.7 --- --- 0.0 --- 0.00 0.0 -10.7 --- --- 715.7 0.020 0.000 9.5 4 1
02/11/06 12:22 p -10.7 -10.7 -10.7 --- --- 0.0 --- 0.00 0.0 -10.7 --- --- 715.6 0.020 0.000 9.5 4 1
02/11/06 12:23 p -10.7 -10.7 -10.7 --- --- 0.0 --- 0.00 0.9 -10.7 --- --- 715.7 0.020 0.000 9.5 4 1
02/11/06 12:24 p -10.7 -10.7 -10.7 --- --- 0.0 --- 0.00 0.0 -10.7 --- --- 715.7 0.020 0.000 9.5 4 1
02/11/06 12:25 p -10.7 -10.7 -10.7 --- --- 0.0 --- 0.00 0.0 -10.7 --- --- 715.7 0.020 0.000 9.5 4 1
02/11/06 12:26 p -10.7 -10.7 -10.7 --- --- 0.0 --- 0.00 0.0 -10.7 --- --- 715.6 0.020 0.000 9.5 4 1
02/11/06 12:27 p -10.7 -10.7 -10.7 --- --- 0.0 --- 0.00 0.0 -10.7 --- --- 715.7 0.020 0.000 9.5 4 1
02/11/06 12:28 p -10.7 -10.7 -10.8 --- --- 0.0 NNE 0.00 0.9 -10.7 --- --- 715.6 0.020 0.000 9.5 4 1
02/11/06 12:29 p -10.8 -10.8 -10.8 --- --- 0.0 NNE 0.00 0.9 -10.8 --- --- 715.6 0.020 0.000 9.5 4 1
02/11/06 12:30 p -10.8 -10.8 -10.8 --- --- 0.0 NNE 0.00 0.9 -10.8 --- --- 715.7 0.020 0.000 9.5 4 1
02/11/06 12:31 p -10.8 -10.8 -10.9 --- --- 0.0 NNE 0.00 0.9 -10.8 --- --- 715.6 0.020 0.000 9.5 4 1
02/11/06 12:32 p -10.9 -10.9 -10.9 --- --- 0.0 --- 0.00 0.0 -10.9 --- --- 715.7 0.020 0.000 9.5 4 1
02/11/06 12:33 p -10.8 -10.8 -10.8 --- --- 0.0 --- 0.00 0.0 -10.8 --- --- 715.7 0.020 0.000 9.5 4 1
02/11/06 12:34 p -10.8 -10.8 -10.8 --- --- 0.0 NNE 0.00 0.9 -10.8 --- --- 715.7 0.020 0.000 9.5 4 1
02/11/06 12:35 p -10.8 -10.8 -10.8 --- --- 0.0 --- 0.00 0.0 -10.8 --- --- 715.7 0.020 0.000 9.5 4 1
02/11/06 12:36 p -10.8 -10.8 -10.8 --- --- 0.0 --- 0.00 0.0 -10.8 --- --- 715.7 0.020 0.000 9.5 4 1
02/11/06 12:37 p -10.8 -10.8 -10.8 --- --- 0.0 NNE 0.00 0.9 -10.8 --- --- 715.8 0.020 0.000 9.5 4 1
02/11/06 12:38 p -10.8 -10.8 -10.8 --- --- 0.9 NNE 0.01 1.7 -10.8 --- --- 715.8 0.020 0.000 9.5 4 1
02/11/06 12:39 p -10.9 -10.9 -11.0 --- --- 0.9 NNE 0.01 1.7 -10.9 --- --- 715.8 0.020 0.000 9.5 4 1
02/11/06 12:40 p -11.1 -11.1 -11.2 --- --- 0.0 --- 0.00 0.0 -11.1 --- --- 715.7 0.020 0.000 9.5 4 1
02/11/06 12:41 p -11.2 -11.2 -11.2 --- --- 0.0 --- 0.00 0.0 -11.2 --- --- 715.7 0.020 0.000 9.5 4 1
02/11/06 12:42 p -11.2 -11.2 -11.3 --- --- 0.0 NNE 0.00 0.9 -11.2 --- --- 715.8 0.021 0.000 9.5 4 1
02/11/06 12:43 p -11.2 -11.2 -11.2 --- --- 0.0 --- 0.00 0.9 -11.2 --- --- 715.8 0.021 0.000 9.5 4 1
02/11/06 12:44 p -11.2 -11.1 -11.2 --- --- 0.0 NNE 0.00 0.9 -11.2 --- --- 715.7 0.020 0.000 9.5 4 1
02/11/06 12:45 p -11.1 -11.1 -11.1 --- --- 0.0 NNE 0.00 0.9 -11.1 --- --- 715.8 0.020 0.000 9.5 4 1
02/11/06 12:46 p -11.0 -11.0 -11.1 --- --- 0.0 NNE 0.00 0.9 -11.0 --- --- 715.7 0.020 0.000 9.5 4 1
02/11/06 12:47 p -11.0 -11.0 -11.0 --- --- 0.0 --- 0.00 0.9 -11.0 --- --- 715.8 0.020 0.000 9.5 4 1
02/11/06 12:48 p -10.9 -10.9 -10.9 --- --- 0.0 NNE 0.00 0.9 -10.9 --- --- 715.8 0.020 0.000 9.5 4 1
02/11/06 12:49 p -10.9 -10.9 -10.9 --- --- 0.9 NNE 0.01 1.7 -10.9 --- --- 715.7 0.020 0.000 9.5 4 1
02/11/06 12:50 p -11.0 -10.9 -11.1 --- --- 0.9 NNE 0.01 1.7 -11.0 --- --- 715.8 0.020 0.000 9.5 4 1
02/11/06 12:51 p -11.1 -11.1 -11.2 --- --- 0.0 --- 0.00 0.9 -11.1 --- --- 715.7 0.020 0.000 9.4 4 1
02/11/06 12:52 p -11.3 -11.3 -11.3 --- --- 0.0 NNE 0.00 0.9 -11.3 --- --- 715.8 0.021 0.000 9.4 4 1
02/11/06 12:53 p -11.4 -11.3 -11.4 --- --- 0.0 NNE 0.00 0.9 -11.4 --- --- 715.8 0.021 0.000 9.4 4 1
02/11/06 12:54 p -11.4 -11.4 -11.4 --- --- 0.0 NNE 0.00 0.9 -11.4 --- --- 715.8 0.021 0.000 9.4 4 1
02/11/06 12:55 p -11.4 -11.4 -11.4 --- --- 0.0 NNE 0.00 0.9 -11.4 --- --- 715.8 0.021 0.000 9.4 4 1
02/11/06 12:56 p -11.4 -11.4 -11.4 --- --- 0.0 NNE 0.00 0.9 -11.4 --- --- 715.7 0.021 0.000 9.5 4 1
02/11/06 12:57 p -11.4 -11.4 -11.5 --- --- 0.0 --- 0.00 0.0 -11.4 --- --- 715.7 0.021 0.000 9.4 4 1
02/11/06 12:58 p -11.5 -11.5 -11.5 --- --- 0.0 --- 0.00 0.0 -11.5 --- --- 715.7 0.021 0.000 9.4 4 1
02/11/06 12:59 p -11.5 -11.5 -11.5 --- --- 0.0 --- 0.00 0.0 -11.5 --- --- 715.6 0.021 0.000 9.5 4 1
02/11/06 1:00 p -11.6 -11.6 -11.6 --- --- 0.0 --- 0.00 0.0 -11.6 --- --- 715.8 0.021 0.000 9.4 4 1
02/11/06 1:01 p -11.6 -11.6 -11.6 --- --- 0.0 --- 0.00 0.0 -11.6 --- --- 715.7 0.021 0.000 9.5 4 1
02/11/06 1:02 p -11.6 -11.6 -11.6 --- --- 0.0 --- 0.00 0.0 -11.6 --- --- 715.7 0.021 0.000 9.4 4 1
02/11/06 1:03 p -11.6 -11.6 -11.6 --- --- 0.0 --- 0.00 0.0 -11.6 --- --- 715.7 0.021 0.000 9.4 4 1
02/11/06 1:04 p -11.4 -11.4 -11.5 --- --- 0.0 --- 0.00 0.0 -11.4 --- --- 715.7 0.021 0.000 9.4 4 1
02/11/06 1:05 p -11.4 -11.4 -11.5 --- --- 0.0 --- 0.00 0.9 -11.4 --- --- 715.7 0.021 0.000 9.4 4 1
02/11/06 1:06 p -11.5 -11.5 -11.5 --- --- 0.0 NNE 0.00 0.9 -11.5 --- --- 715.7 0.021 0.000 9.4 4 1
02/11/06 1:07 p -11.5 -11.5 -11.5 --- --- 0.9 NNE 0.01 1.7 -11.5 --- --- 715.7 0.021 0.000 9.4 4 1
02/11/06 1:08 p -11.6 -11.6 -11.6 --- --- 1.7 NNE 0.03 1.7 -13.3 --- --- 715.7 0.021 0.000 9.4 4 1
02/11/06 1:09 p -11.6 -11.6 -11.7 --- --- 1.7 NNE 0.03 2.6 -13.3 --- --- 715.7 0.021 0.000 9.4 4 1
02/11/06 1:10 p -11.7 -11.7 -11.7 --- --- 1.7 NNE 0.03 1.7 -13.4 --- --- 715.7 0.021 0.000 9.4 4 1
02/11/06 1:11 p -11.7 -11.7 -11.8 --- --- 0.9 NNE 0.01 1.7 -11.7 --- --- 715.7 0.021 0.000 9.4 4 1
02/11/06 1:12 p -11.8 -11.7 -11.8 --- --- 0.9 NNE 0.01 1.7 -11.8 --- --- 715.7 0.021 0.000 9.4 4 1
02/11/06 1:13 p -11.8 -11.8 -11.8 --- --- 0.9 NNE 0.01 0.9 -11.8 --- --- 715.7 0.021 0.000 9.4 4 1
02/11/06 1:14 p -11.8 -11.8 -11.8 --- --- 0.9 NNE 0.01 1.7 -11.8 --- --- 715.6 0.021 0.000 9.4 4 1
02/11/06 1:15 p -11.8 -11.8 -11.8 --- --- 0.9 NNE 0.01 0.9 -11.8 --- --- 715.7 0.021 0.000 9.4 4 1
02/11/06 1:16 p -11.8 -11.8 -11.8 --- --- 0.9 NNE 0.01 1.7 -11.8 --- --- 715.7 0.021 0.000 9.4 4 1
02/11/06 1:17 p -11.8 -11.8 -11.9 --- --- 0.9 NNE 0.01 0.9 -11.8 --- --- 715.7 0.021 0.000 9.4 4 1
02/11/06 1:18 p -11.8 -11.8 -11.9 --- --- 0.9 NNE 0.01 0.9 -11.8 --- --- 715.8 0.021 0.000 9.4 4 1
02/11/06 1:19 p -11.8 -11.8 -11.8 --- --- 0.9 NNE 0.01 1.7 -11.8 --- --- 715.8 0.021 0.000 9.4 4 1
02/11/06 1:20 p -11.9 -11.9 -11.9 --- --- 0.9 NNE 0.01 0.9 -11.9 --- --- 715.7 0.021 0.000 9.4 4 1
02/11/06 1:21 p -11.8 -11.8 -11.9 --- --- 0.9 NNE 0.01 0.9 -11.8 --- --- 715.8 0.021 0.000 9.4 4 1
02/11/06 1:22 p -11.8 -11.8 -11.9 --- --- 0.0 NNE 0.00 0.9 -11.8 --- --- 715.7 0.021 0.000 9.4 4 1
02/11/06 1:23 p -11.9 -11.9 -11.9 --- --- 0.0 NNE 0.00 0.9 -11.9 --- --- 715.7 0.021 0.000 9.4 4 1
02/11/06 1:24 p -11.9 -11.9 -11.9 --- --- 0.0 NNE 0.00 0.9 -11.9 --- --- 715.8 0.021 0.000 9.3 4 1
02/11/06 1:25 p -11.9 -11.9 -11.9 --- --- 0.0 NNE 0.00 0.9 -11.9 --- --- 715.7 0.021 0.000 9.3 4 1
02/11/06 1:26 p -11.8 -11.8 -11.9 --- --- 0.9 NNE 0.01 1.7 -11.8 --- --- 715.8 0.021 0.000 9.3 4 1
02/11/06 1:27 p -11.8 -11.8 -11.8 --- --- 0.9 NNE 0.01 0.9 -11.8 --- --- 715.7 0.021 0.000 9.3 4 1
02/11/06 1:28 p -11.8 -11.8 -11.9 --- --- 0.9 NNE 0.01 1.7 -11.8 --- --- 715.8 0.021 0.000 9.3 4 1
02/11/06 1:29 p -11.8 -11.8 -11.8 --- --- 0.9 NNE 0.01 1.7 -11.8 --- --- 715.8 0.021 0.000 9.3 4 1
02/11/06 1:30 p -11.7 -11.6 -11.8 --- --- 0.9 NNE 0.01 1.7 -11.7 --- --- 715.8 0.021 0.000 9.2 4 1
02/11/06 1:31 p -11.5 -11.2 -11.6 --- --- 0.0 --- 0.00 0.9 -11.5 --- --- 715.7 0.021 0.000 9.2 4 1
02/11/06 1:32 p -11.2 -11.0 -11.2 --- --- 0.0 NNE 0.00 0.9 -11.2 --- --- 715.8 0.020 0.000 9.2 4 1
02/11/06 1:33 p -10.9 -10.9 -11.0 --- --- 0.0 --- 0.00 0.0 -10.9 --- --- 715.8 0.020 0.000 9.2 4 1
02/11/06 1:34 p -10.8 -10.8 -10.9 --- --- 0.0 --- 0.00 0.0 -10.8 --- --- 715.8 0.020 0.000 9.2 4 1
02/11/06 1:35 p -10.7 -10.7 -10.8 --- --- 0.0 NNE 0.00 0.9 -10.7 --- --- 715.8 0.020 0.000 9.2 4 1
02/11/06 1:36 p -10.6 -10.6 -10.7 --- --- 0.9 NNE 0.01 0.9 -10.6 --- --- 715.8 0.020 0.000 9.1 4 1
02/11/06 1:37 p -10.6 -10.6 -10.7 --- --- 0.9 NNE 0.01 1.7 -10.6 --- --- 715.8 0.020 0.000 9.1 4 1
02/11/06 1:38 p -10.7 -10.7 -10.8 --- --- 1.7 NNE 0.03 2.6 -12.3 --- --- 715.7 0.020 0.000 9.1 4 1
02/11/06 1:39 p -10.9 -10.8 -11.0 --- --- 1.7 NNE 0.03 2.6 -12.6 --- --- 715.8 0.020 0.000 9.1 4 1
02/11/06 1:40 p -11.1 -11.0 -11.1 --- --- 0.0 NNE 0.00 0.9 -11.1 --- --- 715.8 0.020 0.000 9.1 4 1
02/11/06 1:41 p -11.2 -11.1 -11.3 --- --- 0.0 NNE 0.00 0.9 -11.2 --- --- 715.8 0.020 0.000 9.1 4 1
02/11/06 1:42 p -11.3 -11.3 -11.3 --- --- 0.0 --- 0.00 0.9 -11.3 --- --- 715.8 0.021 0.000 9.1 4 1
02/11/06 1:43 p -11.4 -11.3 -11.4 --- --- 0.0 --- 0.00 0.9 -11.4 --- --- 715.8 0.021 0.000 9.1 4 1
02/11/06 1:44 p -11.4 -11.4 -11.4 --- --- 0.0 NNE 0.00 0.9 -11.4 --- --- 715.8 0.021 0.000 9.1 4 1
02/11/06 1:45 p -11.4 -11.4 -11.5 --- --- 0.0 NNE 0.00 0.9 -11.4 --- --- 715.8 0.021 0.000 9.1 4 1
02/11/06 1:46 p -11.5 -11.5 -11.6 --- --- 0.0 NNE 0.00 0.9 -11.5 --- --- 715.8 0.021 0.000 9.1 4 1
02/11/06 1:47 p -11.6 -11.6 -11.6 --- --- 0.0 NNE 0.00 0.9 -11.6 --- --- 715.8 0.021 0.000 9.0 4 1
02/11/06 1:48 p -11.6 -11.6 -11.6 --- --- 0.0 --- 0.00 0.9 -11.6 --- --- 715.7 0.021 0.000 9.0 4 1
02/11/06 1:49 p -11.6 -11.6 -11.6 --- --- 0.0 NNE 0.00 0.9 -11.6 --- --- 715.7 0.021 0.000 9.0 4 1
02/11/06 1:50 p -11.7 -11.6 -11.7 --- --- 0.0 NNE 0.00 0.9 -11.7 --- --- 715.8 0.021 0.000 9.0 4 1
02/11/06 1:51 p -11.7 -11.6 -11.7 --- --- 0.0 NNE 0.00 0.9 -11.7 --- --- 715.7 0.021 0.000 9.0 4 1
02/11/06 1:52 p -11.6 -11.6 -11.7 --- --- 0.0 NNE 0.00 0.9 -11.6 --- --- 715.8 0.021 0.000 8.9 4 1
02/11/06 1:53 p -11.6 -11.6 -11.6 --- --- 0.0 NNE 0.00 0.9 -11.6 --- --- 715.8 0.021 0.000 8.9 4 1
02/11/06 1:54 p -11.6 -11.6 -11.6 --- --- 0.0 NNE 0.00 0.9 -11.6 --- --- 715.8 0.021 0.000 8.9 4 1
02/11/06 1:55 p -11.5 -11.5 -11.5 --- --- 0.0 NNE 0.00 0.9 -11.5 --- --- 715.8 0.021 0.000 8.9 4 1
02/11/06 1:56 p -11.5 -11.5 -11.5 --- --- 0.0 --- 0.00 0.0 -11.5 --- --- 715.7 0.021 0.000 8.9 4 1
02/11/06 1:57 p -11.4 -11.4 -11.5 --- --- 0.0 --- 0.00 0.0 -11.4 --- --- 715.8 0.021 0.000 8.9 4 1
02/11/06 1:58 p -11.4 -11.4 -11.4 --- --- 0.0 --- 0.00 0.0 -11.4 --- --- 715.9 0.021 0.000 8.9 4 1
02/11/06 1:59 p -11.4 -11.4 -11.4 --- --- 0.0 NNE 0.00 0.9 -11.4 --- --- 715.9 0.021 0.000 8.9 4 1
02/11/06 2:00 p -11.4 -11.4 -11.4 --- --- 0.9 NNE 0.01 0.9 -11.4 --- --- 715.7 0.021 0.000 8.8 4 1
02/11/06 2:01 p -11.4 -11.4 -11.4 --- --- 0.9 NNE 0.01 1.7 -11.4 --- --- 715.8 0.021 0.000 8.8 4 1
02/11/06 2:02 p -11.4 -11.4 -11.4 --- --- 0.9 NNE 0.01 1.7 -11.4 --- --- 715.8 0.021 0.000 8.8 4 1
02/11/06 2:03 p -11.4 -11.4 -11.4 --- --- 0.9 NNE 0.01 1.7 -11.4 --- --- 715.8 0.021 0.000 8.8 4 1
02/11/06 2:04 p -11.4 -11.4 -11.4 --- --- 0.9 NNE 0.01 1.7 -11.4 --- --- 715.8 0.021 0.000 8.8 4 1
02/11/06 2:05 p -11.4 -11.4 -11.4 --- --- 0.9 NNE 0.01 1.7 -11.4 --- --- 715.9 0.021 0.000 8.8 4 1
02/11/06 2:06 p -11.5 -11.4 -11.5 --- --- 0.0 NNE 0.00 0.9 -11.5 --- --- 715.8 0.021 0.000 8.8 4 1
02/11/06 2:07 p -11.5 -11.5 -11.6 --- --- 0.0 NNE 0.00 0.9 -11.5 --- --- 715.8 0.021 0.000 8.8 4 1
02/11/06 2:08 p -11.5 -11.5 -11.5 --- --- 0.9 NNE 0.01 1.7 -11.5 --- --- 715.8 0.021 0.000 8.8 4 1
02/11/06 2:09 p -11.5 -11.5 -11.5 --- --- 1.7 NNE 0.03 1.7 -13.2 --- --- 715.9 0.021 0.000 8.8 4 1
02/11/06 2:10 p -11.5 -11.4 -11.5 --- --- 1.7 NNE 0.03 1.7 -13.2 --- --- 715.8 0.021 0.000 8.7 4 1
02/11/06 2:11 p -11.4 -11.4 -11.4 --- --- 0.9 NNE 0.01 1.7 -11.4 --- --- 715.8 0.021 0.000 8.7 4 1
02/11/06 2:12 p -11.4 -11.4 -11.4 --- --- 0.9 NNE 0.01 1.7 -11.4 --- --- 715.7 0.021 0.000 8.7 4 1
02/11/06 2:13 p -11.4 -11.4 -11.4 --- --- 1.7 NNE 0.03 2.6 -13.2 --- --- 715.8 0.021 0.000 8.7 4 1
02/11/06 2:14 p -11.4 -11.4 -11.4 --- --- 1.7 NNE 0.03 1.7 -13.1 --- --- 715.7 0.021 0.000 8.7 4 1
02/11/06 2:15 p -11.4 -11.3 -11.4 --- --- 1.7 NNE 0.03 2.6 -13.1 --- --- 715.8 0.021 0.000 8.7 4 1
02/11/06 2:16 p -11.3 -11.3 -11.3 --- --- 0.9 NNE 0.01 2.6 -11.3 --- --- 715.8 0.021 0.000 8.7 4 1
02/11/06 2:17 p -11.3 -11.3 -11.3 --- --- 1.7 NNE 0.03 1.7 -13.1 --- --- 715.8 0.021 0.000 8.7 4 1
02/11/06 2:18 p -11.4 -11.4 -11.4 --- --- 1.7 NNE 0.03 1.7 -13.1 --- --- 715.8 0.021 0.000 8.8 4 1
02/11/06 2:19 p -11.4 -11.4 -11.4 --- --- 1.7 NNE 0.03 1.7 -13.1 --- --- 715.8 0.021 0.000 8.8 4 1
02/11/06 2:20 p -11.4 -11.4 -11.4 --- --- 1.7 NNE 0.03 2.6 -13.2 --- --- 715.8 0.021 0.000 8.8 4 1
02/11/06 2:21 p -11.5 -11.5 -11.6 --- --- 1.7 NNE 0.03 2.6 -13.2 --- --- 715.8 0.021 0.000 8.8 4 1
02/11/06 2:22 p -11.6 -11.6 -11.6 --- --- 2.6 NNE 0.04 2.6 -14.6 --- --- 715.8 0.021 0.000 8.8 4 1
02/11/06 2:23 p -11.6 -11.6 -11.6 --- --- 1.7 NNE 0.03 1.7 -13.3 --- --- 715.8 0.021 0.000 8.8 4 1
02/11/06 2:24 p -11.7 -11.6 -11.7 --- --- 0.0 NNE 0.00 1.7 -11.7 --- --- 715.8 0.021 0.000 8.8 4 1
02/11/06 2:25 p -11.6 -11.6 -11.6 --- --- 0.0 --- 0.00 0.9 -11.6 --- --- 715.8 0.021 0.000 8.8 4 1
02/11/06 2:26 p -11.6 -11.6 -11.6 --- --- 0.0 --- 0.00 0.9 -11.6 --- --- 715.9 0.021 0.000 8.8 4 1
02/11/06 2:27 p -11.6 -11.6 -11.6 --- --- 0.0 NNE 0.00 0.9 -11.6 --- --- 715.8 0.021 0.000 8.8 4 1
02/11/06 2:28 p -11.6 -11.6 -11.6 --- --- 0.0 NNE 0.00 0.9 -11.6 --- --- 715.8 0.021 0.000 8.8 4 1
02/11/06 2:29 p -11.6 -11.6 -11.7 --- --- 0.0 NNE 0.00 1.7 -11.6 --- --- 715.8 0.021 0.000 8.9 4 1
02/11/06 2:30 p -11.6 -11.6 -11.7 --- --- 1.7 NNE 0.03 2.6 -13.3 --- --- 715.9 0.021 0.000 8.9 4 1
02/11/06 2:31 p -11.6 -11.6 -11.6 --- --- 2.6 NNE 0.04 3.5 -14.6 --- --- 715.8 0.021 0.000 8.9 4 1
02/11/06 2:32 p -11.7 -11.7 -11.7 --- --- 2.6 NNE 0.04 2.6 -14.7 --- --- 715.8 0.021 0.000 8.9 4 1
02/11/06 2:33 p -11.7 -11.7 -11.7 --- --- 1.7 NNE 0.03 2.6 -13.4 --- --- 715.8 0.021 0.000 8.9 4 1
02/11/06 2:34 p -11.8 -11.7 -11.8 --- --- 1.7 NNE 0.03 2.6 -13.5 --- --- 715.8 0.021 0.000 8.9 4 1
02/11/06 2:35 p -11.8 -11.8 -11.8 --- --- 0.9 NNE 0.01 1.7 -11.8 --- --- 715.8 0.021 0.000 8.9 4 1
02/11/06 2:36 p -11.7 -11.7 -11.8 --- --- 1.7 NNE 0.03 2.6 -13.4 --- --- 715.8 0.021 0.000 8.9 4 1
02/11/06 2:37 p -11.6 -11.4 -11.7 --- --- 1.7 NNE 0.03 2.6 -13.3 --- --- 715.8 0.021 0.000 8.9 4 1
02/11/06 2:38 p -11.3 -11.3 -11.4 --- --- 2.6 NNE 0.04 2.6 -14.3 --- --- 715.9 0.021 0.000 8.9 4 1
02/11/06 2:39 p -11.2 -11.2 -11.3 --- --- 1.7 NNE 0.03 2.6 -12.9 --- --- 715.9 0.021 0.000 8.9 4 1
02/11/06 2:40 p -11.2 -11.2 -11.3 --- --- 2.6 NNE 0.04 3.5 -14.2 --- --- 715.9 0.021 0.000 8.9 4 1
02/11/06 2:41 p -11.4 -11.3 -11.4 --- --- 3.5 NNE 0.06 3.5 -15.3 --- --- 715.8 0.021 0.000 8.9 4 1
02/11/06 2:42 p -11.4 -11.4 -11.5 --- --- 3.5 NNE 0.06 4.3 -15.4 --- --- 715.9 0.021 0.000 8.9 4 1
02/11/06 2:43 p -11.5 -11.5 -11.6 --- --- 2.6 N 0.04 3.5 -14.5 --- --- 716.0 0.021 0.000 8.9 4 1
02/11/06 2:44 p -11.6 -11.6 -11.6 --- --- 2.6 N 0.04 2.6 -14.6 --- --- 715.9 0.021 0.000 8.9 4 1
02/11/06 2:45 p -11.6 -11.6 -11.7 --- --- 2.6 N 0.04 2.6 -14.6 --- --- 715.9 0.021 0.000 8.9 4 1
02/11/06 2:46 p -11.6 -11.6 -11.7 --- --- 2.6 N 0.04 2.6 -14.6 --- --- 715.9 0.021 0.000 8.9 4 1
02/11/06 2:47 p -11.7 -11.7 -11.7 --- --- 2.6 N 0.04 2.6 -14.7 --- --- 715.9 0.021 0.000 8.9 4 1
02/11/06 2:48 p -11.7 -11.7 -11.7 --- --- 1.7 N 0.03 2.6 -13.4 --- --- 715.9 0.021 0.000 8.9 4 1
02/11/06 2:49 p -11.7 -11.7 -11.7 --- --- 2.6 N 0.04 2.6 -14.8 --- --- 715.9 0.021 0.000 8.9 4 1
02/11/06 2:50 p -11.7 -11.7 -11.7 --- --- 2.6 N 0.04 3.5 -14.8 --- --- 715.9 0.021 0.000 8.9 4 1
02/11/06 2:51 p -11.8 -11.7 -11.8 --- --- 3.5 N 0.06 4.3 -15.8 --- --- 715.9 0.021 0.000 8.9 4 1
02/11/06 2:52 p -11.8 -11.8 -11.8 --- --- 3.5 N 0.06 3.5 -15.8 --- --- 715.9 0.021 0.000 8.9 4 1
02/11/06 2:53 p -11.8 -11.8 -11.8 --- --- 3.5 N 0.06 3.5 -15.8 --- --- 715.9 0.021 0.000 8.9 4 1
02/11/06 2:54 p -11.8 -11.8 -11.8 --- --- 3.5 N 0.06 4.3 -15.8 --- --- 715.9 0.021 0.000 9.0 4 1
02/11/06 2:55 p -11.8 -11.8 -11.8 --- --- 3.5 N 0.06 4.3 -15.8 --- --- 715.9 0.021 0.000 9.0 4 1
02/11/06 2:56 p -11.8 -11.8 -11.8 --- --- 2.6 N 0.04 2.6 -14.8 --- --- 715.9 0.021 0.000 9.0 4 1
02/11/06 2:57 p -11.8 -11.8 -11.9 --- --- 2.6 N 0.04 3.5 -14.9 --- --- 716.0 0.021 0.000 9.0 4 1
02/11/06 2:58 p -11.9 -11.9 -11.9 --- --- 3.5 N 0.06 3.5 -16.0 --- --- 716.0 0.021 0.000 9.0 4 1
02/11/06 2:59 p -11.9 -11.9 -11.9 --- --- 2.6 N 0.04 3.5 -14.9 --- --- 716.0 0.021 0.000 9.0 4 1
02/11/06 3:00 p -11.8 -11.8 -11.8 --- --- 2.6 N 0.04 3.5 -14.9 --- --- 716.0 0.021 0.000 9.0 4 1
02/11/06 3:01 p -11.8 -11.8 -11.9 --- --- 2.6 N 0.04 3.5 -14.9 --- --- 715.9 0.021 0.000 9.0 4 1
02/11/06 3:02 p -11.8 -11.8 -11.8 --- --- 1.7 N 0.03 2.6 -13.5 --- --- 716.0 0.021 0.000 9.0 4 1
02/11/06 3:03 p -11.8 -11.8 -11.8 --- --- 1.7 N 0.03 2.6 -13.6 --- --- 715.9 0.021 0.000 9.0 4 1
02/11/06 3:04 p -11.8 -11.8 -11.8 --- --- 1.7 N 0.03 2.6 -13.6 --- --- 715.9 0.021 0.000 9.0 4 1
02/11/06 3:05 p -11.7 -11.7 -11.8 --- --- 1.7 N 0.03 2.6 -13.4 --- --- 716.0 0.021 0.000 9.0 4 1
02/11/06 3:06 p -11.8 -11.7 -11.8 --- --- 1.7 N 0.03 3.5 -13.5 --- --- 716.0 0.021 0.000 9.0 4 1
02/11/06 3:07 p -11.6 -11.6 -11.6 --- --- 2.6 N 0.04 3.5 -14.6 --- --- 716.0 0.021 0.000 9.0 4 1
02/11/06 3:08 p -11.5 -11.4 -11.5 --- --- 2.6 N 0.04 3.5 -14.5 --- --- 716.0 0.021 0.000 9.0 4 1
02/11/06 3:09 p -11.4 -11.4 -11.5 --- --- 1.7 N 0.03 2.6 -13.2 --- --- 715.9 0.021 0.000 9.0 4 1
02/11/06 3:10 p -11.6 -11.5 -11.6 --- --- 1.7 N 0.03 2.6 -13.3 --- --- 715.9 0.021 0.000 9.0 4 1
02/11/06 3:11 p -11.7 -11.6 -11.7 --- --- 0.9 N 0.01 2.6 -11.7 --- --- 716.0 0.021 0.000 9.0 4 1
02/11/06 3:12 p -11.8 -11.8 -11.9 --- --- 1.7 N 0.03 2.6 -13.6 --- --- 716.0 0.021 0.000 9.0 4 1
02/11/06 3:13 p -11.9 -11.9 -12.0 --- --- 1.7 N 0.03 2.6 -13.7 --- --- 715.9 0.021 0.000 9.0 4 1
02/11/06 3:14 p -12.1 -12.0 -12.1 --- --- 0.9 N 0.01 1.7 -12.1 --- --- 716.0 0.021 0.000 9.0 4 1
02/11/06 3:15 p -12.1 -12.1 -12.1 --- --- 0.0 N 0.00 0.9 -12.1 --- --- 716.0 0.021 0.000 9.0 4 1
02/11/06 3:16 p -12.2 -12.2 -12.2 --- --- 0.0 N 0.00 0.9 -12.2 --- --- 716.1 0.021 0.000 9.0 4 1
02/11/06 3:17 p -12.2 -12.1 -12.2 --- --- 1.7 N 0.03 3.5 -14.0 --- --- 716.0 0.021 0.000 9.1 4 1
02/11/06 3:18 p -12.1 -12.0 -12.1 --- --- 0.0 N 0.00 1.7 -12.1 --- --- 716.0 0.021 0.000 9.1 4 1
02/11/06 3:19 p -12.0 -11.9 -12.0 --- --- 0.0 --- 0.00 0.0 -12.0 --- --- 716.1 0.021 0.000 9.1 4 1
02/11/06 3:20 p -11.9 -11.9 -12.0 --- --- 0.0 N 0.00 0.9 -11.9 --- --- 716.1 0.021 0.000 9.1 4 1
02/11/06 3:21 p -11.9 -11.9 -11.9 --- --- 0.0 --- 0.00 0.9 -11.9 --- --- 716.0 0.021 0.000 9.1 4 1
02/11/06 3:22 p -11.9 -11.8 -11.9 --- --- 0.0 --- 0.00 0.9 -11.9 --- --- 716.0 0.021 0.000 9.1 4 1
02/11/06 3:23 p -11.9 -11.9 -11.9 --- --- 0.0 --- 0.00 0.0 -11.9 --- --- 716.0 0.021 0.000 9.1 4 1
02/11/06 3:24 p -11.9 -11.9 -11.9 --- --- 0.0 N 0.00 0.9 -11.9 --- --- 716.0 0.021 0.000 9.1 4 1
02/11/06 3:25 p -11.9 -11.9 -12.0 --- --- 0.0 N 0.00 0.9 -11.9 --- --- 716.0 0.021 0.000 9.1 4 1
02/11/06 3:26 p -12.1 -12.0 -12.1 --- --- 2.6 N 0.04 3.5 -15.1 --- --- 716.0 0.021 0.000 9.1 4 1
02/11/06 3:27 p -12.1 -12.0 -12.1 --- --- 3.5 N 0.06 4.3 -16.1 --- --- 716.0 0.021 0.000 9.1 4 1
02/11/06 3:28 p -11.9 -11.9 -12.0 --- --- 3.5 N 0.06 3.5 -16.0 --- --- 716.0 0.021 0.000 9.1 4 1
02/11/06 3:29 p -11.9 -11.8 -11.9 --- --- 2.6 N 0.04 4.3 -14.9 --- --- 715.9 0.021 0.000 9.1 4 1
02/11/06 3:30 p -11.8 -11.8 -11.9 --- --- 2.6 N 0.04 3.5 -14.9 --- --- 715.9 0.021 0.000 9.1 4 1
02/11/06 3:31 p -11.8 -11.7 -11.8 --- --- 1.7 N 0.03 2.6 -13.5 --- --- 715.9 0.021 0.000 9.1 4 1
02/11/06 3:32 p -11.6 -11.6 -11.7 --- --- 1.7 N 0.03 2.6 -13.3 --- --- 715.9 0.021 0.000 9.1 4 1
02/11/06 3:33 p -11.5 -11.4 -11.6 --- --- 1.7 N 0.03 2.6 -13.2 --- --- 715.9 0.021 0.000 9.1 4 1
02/11/06 3:34 p -11.4 -11.4 -11.5 --- --- 2.6 N 0.04 3.5 -14.4 --- --- 716.0 0.021 0.000 9.1 4 1
02/11/06 3:35 p -11.6 -11.5 -11.6 --- --- 2.6 N 0.04 3.5 -14.6 --- --- 715.9 0.021 0.000 9.1 4 1
02/11/06 3:36 p -11.4 -11.4 -11.5 --- --- 2.6 N 0.04 3.5 -14.4 --- --- 715.8 0.021 0.000 9.1 4 1
02/11/06 3:37 p -11.4 -11.3 -11.4 --- --- 3.5 N 0.06 4.3 -15.3 --- --- 715.9 0.021 0.000 9.1 4 1
02/11/06 3:38 p -11.3 -11.3 -11.3 --- --- 2.6 N 0.04 2.6 -14.3 --- --- 715.9 0.021 0.000 9.1 4 1
02/11/06 3:39 p -11.2 -11.2 -11.3 --- --- 3.5 N 0.06 4.3 -15.2 --- --- 716.0 0.021 0.000 9.1 4 1
02/11/06 3:40 p -11.1 -11.1 -11.1 --- --- 3.5 N 0.06 3.5 -15.0 --- --- 715.9 0.020 0.000 9.1 4 1
02/11/06 3:41 p -11.1 -11.1 -11.1 --- --- 3.5 N 0.06 4.3 -14.9 --- --- 715.9 0.020 0.000 9.1 4 1
02/11/06 3:42 p -11.1 -11.1 -11.1 --- --- 3.5 N 0.06 4.3 -14.9 --- --- 716.0 0.020 0.000 9.1 4 1
02/11/06 3:43 p -11.1 -11.1 -11.1 --- --- 2.6 N 0.04 4.3 -14.1 --- --- 716.0 0.020 0.000 9.1 4 1
02/11/06 3:44 p -11.1 -11.1 -11.1 --- --- 1.7 N 0.03 2.6 -12.7 --- --- 716.0 0.020 0.000 9.1 4 1
02/11/06 3:45 p -11.1 -11.0 -11.1 --- --- 1.7 N 0.03 3.5 -12.7 --- --- 715.9 0.020 0.000 9.1 4 1
02/11/06 3:46 p -11.1 -11.0 -11.2 --- --- 2.6 N 0.04 2.6 -14.0 --- --- 715.9 0.020 0.000 9.1 4 1
02/11/06 3:47 p -11.1 -11.1 -11.2 --- --- 1.7 N 0.03 2.6 -12.8 --- --- 715.9 0.020 0.000 9.1 4 1
02/11/06 3:48 p -11.1 -11.1 -11.1 --- --- 2.6 N 0.04 3.5 -14.1 --- --- 715.9 0.020 0.000 9.1 4 1
02/11/06 3:49 p -11.1 -11.1 -11.1 --- --- 1.7 N 0.03 2.6 -12.8 --- --- 715.9 0.020 0.000 9.1 4 1
02/11/06 3:50 p -11.2 -11.1 -11.2 --- --- 1.7 N 0.03 3.5 -12.8 --- --- 715.8 0.020 0.000 9.1 4 1
02/11/06 3:51 p -11.1 -11.1 -11.2 --- --- 1.7 N 0.03 2.6 -12.8 --- --- 715.9 0.020 0.000 9.1 4 1
02/11/06 3:52 p -11.1 -11.1 -11.2 --- --- 2.6 N 0.04 3.5 -14.1 --- --- 715.9 0.020 0.000 9.1 4 1
02/11/06 3:53 p -11.2 -11.1 -11.2 --- --- 2.6 N 0.04 3.5 -14.1 --- --- 715.8 0.020 0.000 9.1 4 1
02/11/06 3:54 p -11.2 -11.2 -11.2 --- --- 1.7 N 0.03 2.6 -12.8 --- --- 715.9 0.020 0.000 9.1 4 1
02/11/06 3:55 p -11.2 -11.2 -11.3 --- --- 1.7 N 0.03 2.6 -12.9 --- --- 716.0 0.021 0.000 9.1 4 1
02/11/06 3:56 p -11.3 -11.3 -11.3 --- --- 1.7 N 0.03 2.6 -13.1 --- --- 715.9 0.021 0.000 9.1 4 1
02/11/06 3:57 p -11.4 -11.3 -11.4 --- --- 1.7 N 0.03 1.7 -13.1 --- --- 715.9 0.021 0.000 9.1 4 1
02/11/06 3:58 p -11.3 -11.3 -11.4 --- --- 1.7 N 0.03 1.7 -13.1 --- --- 716.0 0.021 0.000 9.1 4 1
02/11/06 3:59 p -11.4 -11.4 -11.4 --- --- 1.7 N 0.03 1.7 -13.1 --- --- 716.1 0.021 0.000 9.1 4 1
02/11/06 4:00 p -11.4 -11.4 -11.6 --- --- 0.9 N 0.01 0.9 -11.4 --- --- 716.0 0.021 0.000 9.1 4 1
02/11/06 4:01 p -11.6 -11.6 -11.6 --- --- 0.9 N 0.01 1.7 -11.6 --- --- 716.0 0.021 0.000 9.1 4 1
02/11/06 4:02 p -11.6 -11.6 -11.7 --- --- 0.9 N 0.01 1.7 -11.6 --- --- 716.0 0.021 0.000 9.1 4 1
02/11/06 4:03 p -11.6 -11.6 -11.7 --- --- 0.0 N 0.00 0.9 -11.6 --- --- 716.0 0.021 0.000 9.1 4 1
02/11/06 4:04 p -11.7 -11.6 -11.7 --- --- 0.9 N 0.01 0.9 -11.7 --- --- 716.0 0.021 0.000 9.1 4 1
02/11/06 4:05 p -11.6 -11.4 -11.6 --- --- 1.7 N 0.03 2.6 -13.3 --- --- 716.1 0.021 0.000 9.1 4 1
02/11/06 4:06 p -11.4 -11.4 -11.4 --- --- 1.7 N 0.03 2.6 -13.1 --- --- 715.9 0.021 0.000 9.1 4 1
02/11/06 4:07 p -11.3 -11.3 -11.4 --- --- 0.9 N 0.01 1.7 -11.3 --- --- 716.1 0.021 0.000 9.1 4 1
02/11/06 4:08 p -11.3 -11.3 -11.3 --- --- 0.9 N 0.01 1.7 -11.3 --- --- 716.0 0.021 0.000 9.1 4 1
02/11/06 4:09 p -11.3 -11.2 -11.3 --- --- 0.0 N 0.00 0.9 -11.3 --- --- 716.0 0.021 0.000 9.1 4 1
02/11/06 4:10 p -11.3 -11.2 -11.3 --- --- 0.0 N 0.00 1.7 -11.3 --- --- 716.1 0.021 0.000 9.1 4 1
02/11/06 4:11 p -11.3 -11.3 -11.3 --- --- 0.9 N 0.01 1.7 -11.3 --- --- 716.1 0.021 0.000 9.1 4 1
02/11/06 4:12 p -11.2 -11.2 -11.3 --- --- 0.0 N 0.00 0.9 -11.2 --- --- 716.1 0.021 0.000 9.1 4 1
02/11/06 4:13 p -11.2 -11.2 -11.2 --- --- 0.9 N 0.01 1.7 -11.2 --- --- 716.1 0.021 0.000 9.1 4 1
02/11/06 4:14 p -11.2 -11.2 -11.2 --- --- 0.0 N 0.00 0.9 -11.2 --- --- 716.1 0.020 0.000 9.1 4 1
02/11/06 4:15 p -11.1 -11.1 -11.2 --- --- 0.0 N 0.00 0.9 -11.1 --- --- 716.0 0.020 0.000 9.1 4 1
02/11/06 4:16 p -11.1 -11.1 -11.2 --- --- 0.9 N 0.01 0.9 -11.1 --- --- 716.0 0.020 0.000 9.1 4 1
02/11/06 4:17 p -11.1 -11.1 -11.2 --- --- 0.0 N 0.00 0.9 -11.1 --- --- 716.0 0.020 0.000 9.1 4 1
02/11/06 4:18 p -11.2 -11.2 -11.2 --- --- 0.0 N 0.00 0.9 -11.2 --- --- 716.1 0.020 0.000 9.1 4 1
02/11/06 4:19 p -11.1 -11.1 -11.2 --- --- 0.0 N 0.00 0.9 -11.1 --- --- 716.0 0.020 0.000 9.1 4 1
02/11/06 4:20 p -11.1 -11.1 -11.1 --- --- 0.0 N 0.00 0.9 -11.1 --- --- 716.1 0.020 0.000 9.1 4 1
02/11/06 4:21 p -11.1 -11.1 -11.1 --- --- 0.0 --- 0.00 0.9 -11.1 --- --- 716.1 0.020 0.000 9.1 4 1
02/11/06 4:22 p -11.1 -11.1 -11.1 --- --- 0.0 N 0.00 0.9 -11.1 --- --- 716.1 0.020 0.000 9.1 4 1
02/11/06 4:23 p -11.1 -11.1 -11.1 --- --- 0.0 N 0.00 0.9 -11.1 --- --- 716.0 0.020 0.000 9.1 4 1
02/11/06 4:24 p -11.1 -11.1 -11.1 --- --- 0.9 N 0.01 1.7 -11.1 --- --- 716.1 0.020 0.000 9.2 4 1
02/11/06 4:25 p -11.1 -11.1 -11.2 --- --- 0.0 N 0.00 0.9 -11.1 --- --- 716.1 0.020 0.000 9.2 4 1
02/11/06 4:26 p -11.2 -11.2 -11.3 --- --- 0.9 N 0.01 0.9 -11.2 --- --- 716.1 0.021 0.000 9.2 4 1
02/11/06 4:27 p -11.3 -11.3 -11.3 --- --- 0.0 N 0.00 0.9 -11.3 --- --- 716.1 0.021 0.000 9.2 4 1
02/11/06 4:28 p -11.4 -11.3 -11.4 --- --- 0.0 N 0.00 0.9 -11.4 --- --- 716.1 0.021 0.000 9.2 4 1
02/11/06 4:29 p -11.4 -11.4 -11.5 --- --- 0.0 N 0.00 0.9 -11.4 --- --- 716.0 0.021 0.000 9.2 4 1
02/11/06 4:30 p -11.5 -11.5 -11.5 --- --- 0.0 N 0.00 0.9 -11.5 --- --- 716.1 0.021 0.000 9.2 4 1
02/11/06 4:31 p -11.5 -11.5 -11.5 --- --- 0.9 N 0.01 1.7 -11.5 --- --- 716.0 0.021 0.000 9.2 4 1
02/11/06 4:32 p -11.5 -11.4 -11.5 --- --- 0.9 N 0.01 1.7 -11.5 --- --- 716.1 0.021 0.000 9.2 4 1
02/11/06 4:33 p -11.4 -11.4 -11.4 --- --- 1.7 N 0.03 2.6 -13.2 --- --- 716.0 0.021 0.000 9.2 4 1
02/11/06 4:34 p -11.3 -11.2 -11.3 --- --- 0.9 N 0.01 2.6 -11.3 --- --- 715.9 0.021 0.000 9.2 4 1
02/11/06 4:35 p -11.2 -11.2 -11.2 --- --- 0.9 N 0.01 2.6 -11.2 --- --- 716.1 0.020 0.000 9.2 4 1
02/11/06 4:36 p -11.2 -11.2 -11.2 --- --- 1.7 N 0.03 2.6 -12.8 --- --- 716.1 0.020 0.000 9.2 4 1
02/11/06 4:37 p -11.2 -11.1 -11.2 --- --- 1.7 N 0.03 3.5 -12.8 --- --- 716.0 0.020 0.000 9.2 4 1
02/11/06 4:38 p -11.2 -11.2 -11.2 --- --- 2.6 N 0.04 3.5 -14.1 --- --- 715.9 0.020 0.000 9.2 4 1
02/11/06 4:39 p -11.2 -11.2 -11.2 --- --- 1.7 N 0.03 3.5 -12.8 --- --- 716.0 0.020 0.000 9.2 4 1
02/11/06 4:40 p -11.2 -11.2 -11.3 --- --- 2.6 N 0.04 3.5 -14.2 --- --- 716.0 0.021 0.000 9.2 4 1
02/11/06 4:41 p -11.3 -11.3 -11.3 --- --- 2.6 N 0.04 2.6 -14.2 --- --- 716.0 0.021 0.000 9.2 4 1
02/11/06 4:42 p -11.3 -11.3 -11.3 --- --- 0.9 N 0.01 1.7 -11.3 --- --- 716.0 0.021 0.000 9.2 4 1
02/11/06 4:43 p -11.4 -11.3 -11.4 --- --- 0.9 N 0.01 1.7 -11.4 --- --- 716.1 0.021 0.000 9.2 4 1
02/11/06 4:44 p -11.5 -11.4 -11.6 --- --- 0.9 N 0.01 1.7 -11.5 --- --- 716.1 0.021 0.000 9.2 4 1
02/11/06 4:45 p -11.7 -11.7 -11.8 --- --- 0.0 N 0.00 0.9 -11.7 --- --- 716.1 0.021 0.000 9.2 4 1
02/11/06 4:46 p -11.9 -11.8 -11.9 --- --- 0.0 N 0.00 0.9 -11.9 --- --- 716.1 0.021 0.000 9.2 4 1
02/11/06 4:47 p -11.9 -11.9 -12.1 --- --- 0.9 N 0.01 2.6 -11.9 --- --- 716.1 0.021 0.000 9.2 4 1
02/11/06 4:48 p -12.2 -12.1 -12.2 --- --- 1.7 W 0.03 3.5 -13.9 --- --- 716.1 0.021 0.000 9.2 4 1
02/11/06 4:49 p -12.3 -12.2 -12.5 --- --- 2.6 W 0.04 3.5 -15.4 --- --- 716.2 0.021 0.000 9.2 4 1
02/11/06 4:50 p -12.7 -12.6 -12.8 --- --- 1.7 W 0.03 2.6 -14.5 --- --- 716.1 0.022 0.000 9.2 4 1
02/11/06 4:51 p -12.8 -12.8 -12.8 --- --- 0.9 W 0.01 1.7 -12.8 --- --- 716.2 0.022 0.000 9.2 4 1
02/11/06 4:52 p -12.9 -12.9 -12.9 --- --- 0.0 W 0.00 0.9 -12.9 --- --- 716.1 0.022 0.000 9.2 4 1
02/11/06 4:53 p -12.9 -12.9 -12.9 --- --- 0.0 W 0.00 0.9 -12.9 --- --- 716.1 0.022 0.000 9.2 4 1
02/11/06 4:54 p -13.0 -12.9 -13.0 --- --- 0.0 --- 0.00 0.0 -13.0 --- --- 716.1 0.022 0.000 9.2 4 1
02/11/06 4:55 p -13.0 -12.9 -13.0 --- --- 0.0 W 0.00 0.9 -13.0 --- --- 716.0 0.022 0.000 9.2 4 1
02/11/06 4:56 p -13.1 -13.1 -13.1 --- --- 0.9 W 0.01 1.7 -13.1 --- --- 716.1 0.022 0.000 9.2 4 1
02/11/06 4:57 p -13.1 -13.1 -13.1 --- --- 0.0 W 0.00 0.9 -13.1 --- --- 716.2 0.022 0.000 9.2 4 1
02/11/06 4:58 p -13.2 -13.1 -13.2 --- --- 0.0 --- 0.00 0.0 -13.2 --- --- 716.1 0.022 0.000 9.2 4 1
02/11/06 4:59 p -13.2 -13.2 -13.2 --- --- 0.0 --- 0.00 0.0 -13.2 --- --- 716.2 0.022 0.000 9.2 4 1
02/11/06 5:00 p -13.2 -13.2 -13.2 --- --- 0.0 --- 0.00 0.0 -13.2 --- --- 716.1 0.022 0.000 9.2 4 1
02/11/06 5:01 p -13.2 -13.2 -13.2 --- --- 0.9 W 0.01 1.7 -13.2 --- --- 716.1 0.022 0.000 9.2 4 1
02/11/06 5:03 p -13.1 -13.1 -13.1 --- --- 1.7 WSW 0.03 2.6 -15.0 --- --- 716.1 0.022 0.000 9.2 4 1
02/11/06 5:04 p -13.1 -13.1 -13.1 --- --- 1.7 WSW 0.03 2.6 -14.9 --- --- 716.1 0.022 0.000 9.2 4 1
02/11/06 5:05 p -13.1 -13.0 -13.1 --- --- 1.7 SE 0.03 3.5 -14.9 --- --- 716.1 0.022 0.000 9.2 4 1
02/11/06 5:06 p -13.0 -13.0 -13.0 --- --- 2.6 SE 0.04 3.5 -16.2 --- --- 716.0 0.022 0.000 9.2 4 1
02/11/06 5:07 p -13.1 -13.0 -13.1 --- --- 2.6 SE 0.04 3.5 -16.3 --- --- 716.1 0.022 0.000 9.2 4 1
02/11/06 5:08 p -13.1 -13.1 -13.1 --- --- 2.6 SE 0.04 3.5 -16.3 --- --- 716.1 0.022 0.000 9.2 4 1
02/11/06 5:09 p -13.1 -13.1 -13.1 --- --- 3.5 SE 0.06 4.3 -17.3 --- --- 716.1 0.022 0.000 9.2 4 1
02/11/06 5:10 p -13.1 -13.1 -13.1 --- --- 3.5 ESE 0.06 4.3 -17.3 --- --- 716.1 0.022 0.000 9.2 4 1
02/11/06 5:11 p -12.9 -12.9 -13.1 --- --- 3.5 ESE 0.06 4.3 -17.1 --- --- 716.0 0.022 0.000 9.2 4 1
02/11/06 5:12 p -12.9 -12.9 -12.9 --- --- 3.5 ESE 0.06 4.3 -17.1 --- --- 716.1 0.022 0.000 9.2 4 1
02/11/06 5:13 p -12.8 -12.8 -12.9 --- --- 3.5 ESE 0.06 3.5 -17.0 --- --- 716.1 0.022 0.000 9.2 4 1
02/11/06 5:14 p -12.8 -12.7 -12.8 --- --- 2.6 ESE 0.04 3.5 -15.9 --- --- 716.2 0.022 0.000 9.2 4 1
02/11/06 5:15 p -12.7 -12.7 -12.7 --- --- 2.6 ESE 0.04 3.5 -15.9 --- --- 716.1 0.022 0.000 9.2 4 1
02/11/06 5:16 p -12.6 -12.6 -12.7 --- --- 1.7 ESE 0.03 2.6 -14.4 --- --- 716.2 0.021 0.000 9.2 4 1
02/11/06 5:17 p -12.6 -12.5 -12.6 --- --- 1.7 ESE 0.03 2.6 -14.4 --- --- 716.1 0.021 0.000 9.2 4 1
02/11/06 5:18 p -12.4 -12.4 -12.5 --- --- 0.9 ESE 0.01 1.7 -12.4 --- --- 716.1 0.021 0.000 9.2 4 1
02/11/06 5:19 p -12.4 -12.3 -12.4 --- --- 0.9 ESE 0.01 1.7 -12.4 --- --- 716.1 0.021 0.000 9.2 4 1
02/11/06 5:20 p -12.3 -12.3 -12.3 --- --- 0.9 ESE 0.01 1.7 -12.3 --- --- 716.2 0.021 0.000 9.2 4 1
02/11/06 5:21 p -12.2 -12.1 -12.3 --- --- 0.0 ESE 0.00 0.9 -12.2 --- --- 716.2 0.021 0.000 9.2 4 1
02/11/06 5:22 p -12.1 -12.1 -12.1 --- --- 0.0 --- 0.00 0.0 -12.1 --- --- 716.2 0.021 0.000 9.2 4 1
02/11/06 5:23 p -12.1 -12.1 -12.1 --- --- 0.0 ESE 0.00 0.9 -12.1 --- --- 716.2 0.021 0.000 9.2 4 1
02/11/06 5:24 p -12.1 -12.0 -12.1 --- --- 0.0 ESE 0.00 0.9 -12.1 --- --- 716.2 0.021 0.000 9.2 4 1
02/11/06 5:25 p -12.1 -12.1 -12.1 --- --- 0.0 --- 0.00 0.0 -12.1 --- --- 716.2 0.021 0.000 9.2 4 1
02/11/06 5:26 p -12.1 -12.1 -12.1 --- --- 0.0 ESE 0.00 0.9 -12.1 --- --- 716.2 0.021 0.000 9.2 4 1
02/11/06 5:27 p -12.2 -12.2 -12.2 --- --- 0.9 ESE 0.01 0.9 -12.2 --- --- 716.2 0.021 0.000 9.2 4 1
02/11/06 5:28 p -12.3 -12.2 -12.3 --- --- 1.7 ESE 0.03 2.6 -14.1 --- --- 716.3 0.021 0.000 9.2 4 1
02/11/06 5:29 p -12.5 -12.3 -12.6 --- --- 2.6 WSW 0.04 3.5 -15.6 --- --- 716.3 0.021 0.000 9.2 4 1
02/11/06 5:30 p -12.7 -12.6 -12.7 --- --- 2.6 WSW 0.04 3.5 -15.8 --- --- 716.3 0.022 0.000 9.2 4 1
02/11/06 5:31 p -12.8 -12.8 -12.8 --- --- 2.6 WSW 0.04 3.5 -16.0 --- --- 716.3 0.022 0.000 9.2 4 1
02/11/06 5:32 p -12.9 -12.9 -13.0 --- --- 2.6 WSW 0.04 3.5 -16.1 --- --- 716.3 0.022 0.000 9.2 4 1
02/11/06 5:33 p -13.1 -13.0 -13.2 --- --- 1.7 WSW 0.03 2.6 -15.0 --- --- 716.3 0.022 0.000 9.2 4 1
02/11/06 5:34 p -13.3 -13.2 -13.3 --- --- 1.7 WSW 0.03 1.7 -15.2 --- --- 716.3 0.022 0.000 9.2 4 1
02/11/06 5:35 p -13.3 -13.3 -13.4 --- --- 0.9 WSW 0.01 0.9 -13.3 --- --- 716.3 0.022 0.000 9.2 4 1
02/11/06 5:36 p -13.4 -13.4 -13.4 --- --- 0.0 WSW 0.00 0.9 -13.4 --- --- 716.4 0.022 0.000 9.2 4 1
02/11/06 5:37 p -13.3 -13.3 -13.4 --- --- 0.9 WSW 0.01 1.7 -13.3 --- --- 716.3 0.022 0.000 9.2 4 1
02/11/06 5:38 p -13.4 -13.4 -13.4 --- --- 0.9 WSW 0.01 0.9 -13.4 --- --- 716.3 0.022 0.000 9.2 4 1
02/11/06 5:39 p -13.4 -13.4 -13.4 --- --- 0.0 WSW 0.00 0.9 -13.4 --- --- 716.3 0.022 0.000 9.2 4 1
02/11/06 5:40 p -13.6 -13.5 -13.6 --- --- 0.0 WSW 0.00 0.9 -13.6 --- --- 716.4 0.022 0.000 9.2 4 1
02/11/06 5:41 p -13.6 -13.6 -13.6 --- --- 0.0 --- 0.00 0.0 -13.6 --- --- 716.3 0.022 0.000 9.2 4 1
02/11/06 5:42 p -13.6 -13.6 -13.6 --- --- 0.0 WSW 0.00 0.9 -13.6 --- --- 716.3 0.022 0.000 9.2 4 1
02/11/06 5:43 p -13.6 -13.6 -13.6 --- --- 0.0 WSW 0.00 0.9 -13.6 --- --- 716.4 0.022 0.000 9.2 4 1
02/11/06 5:44 p -13.6 -13.6 -13.6 --- --- 0.0 WSW 0.00 0.9 -13.6 --- --- 716.4 0.022 0.000 9.2 4 1
02/11/06 5:45 p -13.5 -13.5 -13.5 --- --- 0.0 --- 0.00 0.9 -13.5 --- --- 716.4 0.022 0.000 9.2 4 1
02/11/06 5:46 p -13.5 -13.5 -13.5 --- --- 0.0 --- 0.00 0.0 -13.5 --- --- 716.3 0.022 0.000 9.2 4 1
02/11/06 5:47 p -13.5 -13.4 -13.5 --- --- 0.0 WSW 0.00 0.9 -13.5 --- --- 716.4 0.022 0.000 9.2 4 1
02/11/06 5:48 p -13.4 -13.4 -13.4 --- --- 0.0 WSW 0.00 0.9 -13.4 --- --- 716.3 0.022 0.000 9.2 4 1
02/11/06 5:49 p -13.4 -13.4 -13.4 --- --- 0.9 WSW 0.01 1.7 -13.4 --- --- 716.2 0.022 0.000 9.2 4 1
02/11/06 5:50 p -13.4 -13.4 -13.4 --- --- 1.7 WSW 0.03 1.7 -15.3 --- --- 716.3 0.022 0.000 9.2 4 1
02/11/06 5:51 p -13.3 -13.3 -13.3 --- --- 0.9 WSW 0.01 1.7 -13.3 --- --- 716.3 0.022 0.000 9.2 4 1
02/11/06 5:52 p -13.3 -13.3 -13.3 --- --- 0.0 WSW 0.00 0.9 -13.3 --- --- 716.3 0.022 0.000 9.2 4 1
02/11/06 5:53 p -13.3 -13.3 -13.3 --- --- 0.0 WSW 0.00 0.9 -13.3 --- --- 716.3 0.022 0.000 9.2 4 1
02/11/06 5:54 p -13.3 -13.2 -13.3 --- --- 0.0 WSW 0.00 0.9 -13.3 --- --- 716.3 0.022 0.000 9.2 4 1
02/11/06 5:55 p -13.2 -13.2 -13.3 --- --- 0.0 WSW 0.00 0.9 -13.2 --- --- 716.4 0.022 0.000 9.2 4 1
02/11/06 5:56 p -13.2 -13.2 -13.2 --- --- 0.0 WSW 0.00 0.9 -13.2 --- --- 716.4 0.022 0.000 9.2 4 1
02/11/06 5:57 p -13.2 -13.2 -13.2 --- --- 0.0 WSW 0.00 0.9 -13.2 --- --- 716.4 0.022 0.000 9.2 4 1
02/11/06 5:58 p -13.2 -13.1 -13.2 --- --- 0.0 WSW 0.00 0.9 -13.2 --- --- 716.4 0.022 0.000 9.2 4 1
02/11/06 5:59 p -13.1 -13.1 -13.1 --- --- 0.0 --- 0.00 0.0 -13.1 --- --- 716.3 0.022 0.000 9.2 4 1
02/11/06 6:00 p -13.1 -13.1 -13.1 --- --- 0.0 --- 0.00 0.0 -13.1 --- --- 716.3 0.022 0.000 9.2 4 1
02/11/06 6:01 p -13.0 -13.0 -13.1 --- --- 0.0 --- 0.00 0.0 -13.0 --- --- 716.4 0.022 0.000 9.2 4 1
02/11/06 6:02 p -12.9 -12.9 -12.9 --- --- 0.0 --- 0.00 0.0 -12.9 --- --- 716.4 0.022 0.000 9.2 4 1
02/11/06 6:03 p -12.9 -12.9 -12.9 --- --- 0.0 --- 0.00 0.0 -12.9 --- --- 716.4 0.022 0.000 9.2 4 1
02/11/06 6:04 p -12.9 -12.9 -12.9 --- --- 0.0 WSW 0.00 0.9 -12.9 --- --- 716.4 0.022 0.000 9.2 4 1
02/11/06 6:05 p -12.9 -12.9 -12.9 --- --- 0.0 --- 0.00 0.0 -12.9 --- --- 716.3 0.022 0.000 9.2 4 1
02/11/06 6:06 p -12.9 -12.9 -12.9 --- --- 0.0 WSW 0.00 0.9 -12.9 --- --- 716.3 0.022 0.000 9.3 4 1
02/11/06 6:07 p -12.9 -12.9 -12.9 --- --- 0.0 --- 0.00 0.0 -12.9 --- --- 716.3 0.022 0.000 9.3 4 1
02/11/06 6:08 p -12.9 -12.9 -12.9 --- --- 0.9 NW 0.01 1.7 -12.9 --- --- 716.4 0.022 0.000 9.3 4 1
02/11/06 6:09 p -12.9 -12.9 -12.9 --- --- 1.7 NNW 0.03 3.5 -14.8 --- --- 716.4 0.022 0.000 9.3 4 1
02/11/06 6:10 p -12.8 -12.8 -12.9 --- --- 0.9 N 0.01 1.7 -12.8 --- --- 716.3 0.022 0.000 9.2 4 1
02/11/06 6:11 p -12.7 -12.7 -12.8 --- --- 0.9 N 0.01 2.6 -12.7 --- --- 716.3 0.022 0.000 9.2 4 1
02/11/06 6:12 p -12.7 -12.6 -12.7 --- --- 1.7 N 0.03 1.7 -14.5 --- --- 716.4 0.022 0.000 9.3 4 1
02/11/06 6:13 p -12.6 -12.6 -12.6 --- --- 0.9 N 0.01 1.7 -12.6 --- --- 716.3 0.021 0.000 9.3 4 1
02/11/06 6:14 p -12.6 -12.6 -12.6 --- --- 0.9 N 0.01 0.9 -12.6 --- --- 716.4 0.021 0.000 9.2 4 1
02/11/06 6:15 p -12.5 -12.5 -12.6 --- --- 0.0 N 0.00 0.9 -12.5 --- --- 716.4 0.021 0.000 9.3 4 1
02/11/06 6:16 p -12.4 -12.4 -12.5 --- --- 0.0 N 0.00 0.9 -12.4 --- --- 716.4 0.021 0.000 9.3 4 1
02/11/06 6:17 p -12.4 -12.4 -12.4 --- --- 0.0 N 0.00 0.9 -12.4 --- --- 716.4 0.021 0.000 9.3 4 1
02/11/06 6:18 p -12.4 -12.4 -12.4 --- --- 0.0 --- 0.00 0.9 -12.4 --- --- 716.3 0.021 0.000 9.3 4 1
02/11/06 6:19 p -12.4 -12.3 -12.4 --- --- 0.0 N 0.00 1.7 -12.4 --- --- 716.4 0.021 0.000 9.3 4 1
02/11/06 6:20 p -12.3 -12.3 -12.3 --- --- 1.7 N 0.03 3.5 -14.1 --- --- 716.4 0.021 0.000 9.3 4 1
02/11/06 6:21 p -12.4 -12.3 -12.4 --- --- 4.3 N 0.07 5.2 -17.3 --- --- 716.4 0.021 0.000 9.3 4 1
02/11/06 6:22 p -12.4 -12.4 -12.4 --- --- 3.5 N 0.06 4.3 -16.6 --- --- 716.4 0.021 0.000 9.3 4 1
02/11/06 6:23 p -12.4 -12.3 -12.4 --- --- 4.3 N 0.07 6.1 -17.3 --- --- 716.3 0.021 0.000 9.3 4 1
02/11/06 6:24 p -12.2 -12.2 -12.3 --- --- 5.2 N 0.09 6.1 -17.8 --- --- 716.3 0.021 0.000 9.3 4 1
02/11/06 6:25 p -12.2 -12.1 -12.2 --- --- 6.1 N 0.10 7.0 -18.2 --- --- 716.3 0.021 0.000 9.3 4 1
02/11/06 6:26 p -12.1 -12.1 -12.1 --- --- 6.1 N 0.10 7.0 -18.2 --- --- 716.3 0.021 0.000 9.3 4 1
02/11/06 6:27 p -12.1 -12.1 -12.2 --- --- 6.1 N 0.10 7.0 -18.2 --- --- 716.3 0.021 0.000 9.3 4 1
02/11/06 6:28 p -12.2 -12.2 -12.2 --- --- 6.1 N 0.10 7.0 -18.2 --- --- 716.3 0.021 0.000 9.3 4 1
02/11/06 6:29 p -12.2 -12.2 -12.2 --- --- 6.1 N 0.10 7.0 -18.2 --- --- 716.3 0.021 0.000 9.2 4 1
02/11/06 6:30 p -12.1 -12.1 -12.1 --- --- 6.1 N 0.10 7.0 -18.2 --- --- 716.4 0.021 0.000 9.3 4 1
02/11/06 6:31 p -12.1 -12.0 -12.1 --- --- 6.1 N 0.10 7.8 -18.1 --- --- 716.4 0.021 0.000 9.3 4 1
02/11/06 6:32 p -12.1 -12.0 -12.1 --- --- 6.1 N 0.10 7.0 -18.1 --- --- 716.4 0.021 0.000 9.3 4 1
02/11/06 6:33 p -12.0 -12.0 -12.1 --- --- 7.0 N 0.12 7.0 -18.6 --- --- 716.4 0.021 0.000 9.3 4 1
02/11/06 6:34 p -12.1 -12.1 -12.1 --- --- 7.0 N 0.12 7.0 -18.6 --- --- 716.4 0.021 0.000 9.3 4 1
02/11/06 6:35 p -12.1 -12.0 -12.1 --- --- 6.1 N 0.10 7.0 -18.1 --- --- 716.4 0.021 0.000 9.3 4 1
02/11/06 6:36 p -12.0 -12.0 -12.0 --- --- 6.1 N 0.10 6.1 -18.0 --- --- 716.4 0.021 0.000 9.3 4 1
02/11/06 6:37 p -11.9 -11.9 -12.0 --- --- 5.2 N 0.09 6.1 -17.4 --- --- 716.5 0.021 0.000 9.3 4 1
02/11/06 6:38 p -11.9 -11.9 -11.9 --- --- 4.3 N 0.07 5.2 -16.7 --- --- 716.5 0.021 0.000 9.3 4 1
02/11/06 6:39 p -11.9 -11.9 -11.9 --- --- 3.5 N 0.06 4.3 -15.9 --- --- 716.6 0.021 0.000 9.3 4 1
02/11/06 6:40 p -11.9 -11.9 -11.9 --- --- 3.5 N 0.06 5.2 -15.9 --- --- 716.6 0.021 0.000 9.2 4 1
02/11/06 6:41 p -11.9 -11.9 -11.9 --- --- 3.5 N 0.06 5.2 -15.9 --- --- 716.6 0.021 0.000 9.2 4 1
02/11/06 6:42 p -11.9 -11.9 -11.9 --- --- 3.5 N 0.06 4.3 -16.0 --- --- 716.6 0.021 0.000 9.2 4 1
02/11/06 6:43 p -11.9 -11.9 -11.9 --- --- 4.3 N 0.07 7.0 -16.7 --- --- 716.6 0.021 0.000 9.2 4 1
02/11/06 6:44 p -11.9 -11.9 -11.9 --- --- 4.3 N 0.07 5.2 -16.7 --- --- 716.7 0.021 0.000 9.1 4 1
02/11/06 6:45 p -11.9 -11.9 -11.9 --- --- 5.2 N 0.09 5.2 -17.4 --- --- 716.7 0.021 0.000 9.1 4 1
02/11/06 6:46 p -11.9 -11.9 -11.9 --- --- 4.3 N 0.07 5.2 -16.8 --- --- 716.6 0.021 0.000 9.1 4 1
02/11/06 6:47 p -11.9 -11.9 -11.9 --- --- 5.2 N 0.09 6.1 -17.4 --- --- 716.6 0.021 0.000 9.1 4 1
02/11/06 6:48 p -11.8 -11.8 -11.8 --- --- 5.2 N 0.09 6.1 -17.3 --- --- 716.7 0.021 0.000 9.1 4 1
02/11/06 6:49 p -11.8 -11.8 -11.8 --- --- 5.2 N 0.09 6.1 -17.2 --- --- 716.6 0.021 0.000 9.1 4 1
02/11/06 6:50 p -11.8 -11.8 -11.8 --- --- 4.3 N 0.07 5.2 -16.6 --- --- 716.7 0.021 0.000 9.1 4 1
02/11/06 6:51 p -11.8 -11.8 -11.8 --- --- 5.2 N 0.09 6.1 -17.2 --- --- 716.6 0.021 0.000 9.0 4 1
02/11/06 6:52 p -11.7 -11.7 -11.8 --- --- 5.2 N 0.09 7.0 -17.2 --- --- 716.7 0.021 0.000 9.0 4 1
02/11/06 6:53 p -11.7 -11.7 -11.7 --- --- 6.1 N 0.10 7.0 -17.7 --- --- 716.6 0.021 0.000 9.0 4 1
02/11/06 6:54 p -11.7 -11.7 -11.7 --- --- 6.1 N 0.10 7.0 -17.7 --- --- 716.7 0.021 0.000 8.9 4 1
02/11/06 6:55 p -11.6 -11.6 -11.7 --- --- 6.1 N 0.10 7.0 -17.6 --- --- 716.5 0.021 0.000 8.9 4 1
02/11/06 6:56 p -11.7 -11.7 -11.7 --- --- 5.2 N 0.09 7.0 -17.1 --- --- 716.6 0.021 0.000 8.9 4 1
02/11/06 6:57 p -11.7 -11.7 -11.8 --- --- 6.1 N 0.10 7.0 -17.7 --- --- 716.6 0.021 0.000 8.9 4 1
02/11/06 6:58 p -11.8 -11.8 -11.8 --- --- 6.1 N 0.10 7.8 -17.8 --- --- 716.6 0.021 0.000 8.9 4 1
02/11/06 6:59 p -11.8 -11.8 -11.8 --- --- 7.0 N 0.12 7.8 -18.3 --- --- 716.6 0.021 0.000 8.9 4 1
02/11/06 7:00 p -11.8 -11.8 -11.9 --- --- 7.8 N 0.13 8.7 -18.8 --- --- 716.6 0.021 0.000 8.9 4 1
02/11/06 7:01 p -11.9 -11.8 -11.9 --- --- 7.0 N 0.12 7.8 -18.4 --- --- 716.7 0.021 0.000 8.8 4 1
02/11/06 7:02 p -11.9 -11.8 -11.9 --- --- 6.1 N 0.10 7.8 -17.9 --- --- 716.7 0.021 0.000 8.8 4 1
02/11/06 7:03 p -11.9 -11.9 -11.9 --- --- 6.1 N 0.10 7.8 -17.9 --- --- 716.6 0.021 0.000 8.8 4 1
02/11/06 7:04 p -11.9 -11.9 -12.0 --- --- 6.1 N 0.10 7.8 -17.9 --- --- 716.6 0.021 0.000 8.8 4 1
02/11/06 7:05 p -12.0 -12.0 -12.0 --- --- 7.0 N 0.12 8.7 -18.6 --- --- 716.7 0.021 0.000 8.8 4 1
02/11/06 7:06 p -12.0 -11.9 -12.0 --- --- 7.0 N 0.12 8.7 -18.6 --- --- 716.7 0.021 0.000 8.8 4 1
02/11/06 7:07 p -12.0 -11.9 -12.0 --- --- 7.0 N 0.12 8.7 -18.6 --- --- 716.7 0.021 0.000 8.8 4 1
02/11/06 7:08 p -12.1 -12.0 -12.1 --- --- 6.1 N 0.10 7.0 -18.1 --- --- 716.6 0.021 0.000 8.8 4 1
02/11/06 7:09 p -12.1 -12.0 -12.1 --- --- 6.1 N 0.10 7.8 -18.1 --- --- 716.7 0.021 0.000 8.8 4 1
02/11/06 7:10 p -12.0 -12.0 -12.0 --- --- 5.2 N 0.09 7.0 -17.5 --- --- 716.7 0.021 0.000 8.7 4 1
02/11/06 7:11 p -12.1 -12.0 -12.1 --- --- 4.3 N 0.07 6.1 -16.9 --- --- 716.6 0.021 0.000 8.7 4 1
02/11/06 7:12 p -12.1 -12.1 -12.1 --- --- 4.3 N 0.07 5.2 -16.9 --- --- 716.8 0.021 0.000 8.7 4 1
02/11/06 7:13 p -12.1 -12.1 -12.1 --- --- 4.3 N 0.07 7.0 -16.9 --- --- 716.7 0.021 0.000 8.7 4 1
02/11/06 7:14 p -12.1 -12.1 -12.1 --- --- 5.2 N 0.09 6.1 -17.6 --- --- 716.7 0.021 0.000 8.7 4 1
02/11/06 7:15 p -12.1 -12.1 -12.1 --- --- 5.2 N 0.09 7.0 -17.6 --- --- 716.8 0.021 0.000 8.7 4 1
02/11/06 7:16 p -12.1 -12.1 -12.1 --- --- 6.1 N 0.10 7.0 -18.1 --- --- 716.7 0.021 0.000 8.7 4 1
02/11/06 7:17 p -12.1 -12.1 -12.1 --- --- 5.2 N 0.09 7.0 -17.6 --- --- 716.7 0.021 0.000 8.7 4 1
02/11/06 7:18 p -12.0 -12.0 -12.1 --- --- 7.0 N 0.12 7.8 -18.6 --- --- 716.7 0.021 0.000 8.7 4 1
02/11/06 7:19 p -12.0 -12.0 -12.1 --- --- 6.1 N 0.10 7.8 -18.0 --- --- 716.7 0.021 0.000 8.7 4 1
02/11/06 7:20 p -12.1 -12.0 -12.1 --- --- 7.0 N 0.12 7.8 -18.6 --- --- 716.6 0.021 0.000 8.7 4 1
02/11/06 7:21 p -12.0 -11.9 -12.1 --- --- 7.0 N 0.12 7.8 -18.6 --- --- 716.6 0.021 0.000 8.7 4 1
02/11/06 7:22 p -11.9 -11.9 -11.9 --- --- 7.8 N 0.13 8.7 -18.8 --- --- 716.7 0.021 0.000 8.7 4 1
02/11/06 7:23 p -11.9 -11.8 -11.9 --- --- 7.8 N 0.13 8.7 -18.8 --- --- 716.7 0.021 0.000 8.6 4 1
02/11/06 7:24 p -11.8 -11.8 -11.9 --- --- 7.0 N 0.12 8.7 -18.3 --- --- 716.8 0.021 0.000 8.6 4 1
02/11/06 7:25 p -11.9 -11.9 -11.9 --- --- 7.0 N 0.12 8.7 -18.4 --- --- 716.7 0.021 0.000 8.6 4 1
02/11/06 7:26 p -11.9 -11.8 -11.9 --- --- 7.0 N 0.12 8.7 -18.4 --- --- 716.7 0.021 0.000 8.6 4 1
02/11/06 7:27 p -11.9 -11.8 -11.9 --- --- 7.0 N 0.12 7.8 -18.4 --- --- 716.6 0.021 0.000 8.6 4 1
02/11/06 7:28 p -11.9 -11.9 -11.9 --- --- 5.2 N 0.09 7.0 -17.4 --- --- 716.6 0.021 0.000 8.6 4 1
02/11/06 7:29 p -11.9 -11.8 -11.9 --- --- 5.2 N 0.09 6.1 -17.4 --- --- 716.6 0.021 0.000 8.6 4 1
02/11/06 7:30 p -11.9 -11.9 -11.9 --- --- 5.2 N 0.09 7.0 -17.4 --- --- 716.6 0.021 0.000 8.6 4 1
02/11/06 7:31 p -11.9 -11.9 -11.9 --- --- 5.2 N 0.09 6.1 -17.4 --- --- 716.6 0.021 0.000 8.6 4 1
02/11/06 7:32 p -11.9 -11.9 -11.9 --- --- 5.2 N 0.09 6.1 -17.4 --- --- 716.7 0.021 0.000 8.6 4 1
02/11/06 7:33 p -11.9 -11.9 -11.9 --- --- 4.3 N 0.07 5.2 -16.7 --- --- 716.7 0.021 0.000 8.6 4 1
02/11/06 7:34 p -11.9 -11.9 -11.9 --- --- 5.2 N 0.09 6.1 -17.4 --- --- 716.7 0.021 0.000 8.7 4 1
02/11/06 7:35 p -11.9 -11.9 -11.9 --- --- 4.3 N 0.07 5.2 -16.8 --- --- 716.7 0.021 0.000 8.7 4 1
02/11/06 7:36 p -11.9 -11.9 -11.9 --- --- 5.2 N 0.09 6.1 -17.4 --- --- 716.7 0.021 0.000 8.7 4 1
02/11/06 7:37 p -12.0 -11.9 -12.0 --- --- 5.2 N 0.09 7.0 -17.5 --- --- 716.7 0.021 0.000 8.7 4 1
02/11/06 7:38 p -12.0 -12.0 -12.0 --- --- 5.2 N 0.09 6.1 -17.5 --- --- 716.7 0.021 0.000 8.7 4 1
02/11/06 7:39 p -12.0 -12.0 -12.1 --- --- 5.2 N 0.09 7.0 -17.5 --- --- 716.7 0.021 0.000 8.7 4 1
02/11/06 7:40 p -12.0 -12.0 -12.0 --- --- 5.2 N 0.09 6.1 -17.5 --- --- 716.7 0.021 0.000 8.7 4 1
02/11/06 7:41 p -11.9 -11.9 -12.0 --- --- 5.2 N 0.09 7.0 -17.4 --- --- 716.7 0.021 0.000 8.7 4 1
02/11/06 7:42 p -11.9 -11.9 -11.9 --- --- 6.1 N 0.10 7.0 -17.9 --- --- 716.7 0.021 0.000 8.7 4 1
02/11/06 7:43 p -11.9 -11.9 -11.9 --- --- 5.2 N 0.09 5.2 -17.4 --- --- 716.7 0.021 0.000 8.7 4 1
02/11/06 7:44 p -11.9 -11.9 -11.9 --- --- 4.3 N 0.07 6.1 -16.7 --- --- 716.7 0.021 0.000 8.7 4 1
02/11/06 7:45 p -11.9 -11.8 -11.9 --- --- 4.3 N 0.07 5.2 -16.7 --- --- 716.7 0.021 0.000 8.7 4 1
02/11/06 7:46 p -11.8 -11.8 -11.8 --- --- 4.3 N 0.07 5.2 -16.6 --- --- 716.7 0.021 0.000 8.7 4 1
02/11/06 7:47 p -11.8 -11.8 -11.8 --- --- 5.2 N 0.09 6.1 -17.3 --- --- 716.7 0.021 0.000 8.7 4 1
02/11/06 7:48 p -11.8 -11.8 -11.8 --- --- 5.2 N 0.09 6.1 -17.3 --- --- 716.7 0.021 0.000 8.7 4 1
02/11/06 7:49 p -11.9 -11.8 -12.0 --- --- 7.0 NNW 0.12 8.7 -18.4 --- --- 716.6 0.021 0.000 8.7 4 1
02/11/06 7:50 p -12.1 -12.0 -12.1 --- --- 8.7 NNW 0.14 9.6 -19.5 --- --- 716.6 0.021 0.000 8.8 4 1
02/11/06 7:51 p -12.2 -12.1 -12.2 --- --- 7.8 NNW 0.13 8.7 -19.2 --- --- 716.7 0.021 0.000 8.8 4 1
02/11/06 7:52 p -12.3 -12.3 -12.3 --- --- 7.0 NNW 0.12 8.7 -18.9 --- --- 716.7 0.021 0.000 8.8 4 1
02/11/06 7:53 p -12.2 -12.2 -12.2 --- --- 6.1 NNW 0.10 7.8 -18.3 --- --- 716.6 0.021 0.000 8.8 4 1
02/11/06 7:54 p -12.2 -12.2 -12.2 --- --- 6.1 N 0.10 7.0 -18.2 --- --- 716.7 0.021 0.000 8.8 4 1
02/11/06 7:55 p -12.2 -12.2 -12.2 --- --- 6.1 N 0.10 7.0 -18.3 --- --- 716.7 0.021 0.000 8.8 4 1
02/11/06 7:56 p -12.2 -12.2 -12.2 --- --- 6.1 N 0.10 7.0 -18.2 --- --- 716.8 0.021 0.000 8.8 4 1
02/11/06 7:57 p -12.2 -12.2 -12.2 --- --- 5.2 N 0.09 7.0 -17.7 --- --- 716.7 0.021 0.000 8.8 4 1
02/11/06 7:58 p -12.2 -12.2 -12.3 --- --- 5.2 N 0.09 7.0 -17.8 --- --- 716.7 0.021 0.000 8.8 4 1
02/11/06 7:59 p -12.2 -12.2 -12.2 --- --- 5.2 N 0.09 7.0 -17.8 --- --- 716.7 0.021 0.000 8.8 4 1
02/11/06 8:00 p -12.2 -12.2 -12.2 --- --- 6.1 N 0.10 7.0 -18.2 --- --- 716.7 0.021 0.000 8.8 4 1
02/11/06 8:01 p -12.1 -12.1 -12.1 --- --- 6.1 N 0.10 7.0 -18.2 --- --- 716.7 0.021 0.000 8.8 4 1
02/11/06 8:02 p -12.1 -12.1 -12.1 --- --- 7.0 N 0.12 7.8 -18.6 --- --- 716.7 0.021 0.000 8.8 4 1
02/11/06 8:03 p -12.1 -12.0 -12.1 --- --- 7.0 N 0.12 8.7 -18.6 --- --- 716.7 0.021 0.000 8.8 4 1
02/11/06 8:04 p -12.0 -12.0 -12.0 --- --- 7.8 N 0.13 8.7 -19.0 --- --- 716.7 0.021 0.000 8.8 4 1
02/11/06 8:05 p -12.1 -12.0 -12.1 --- --- 7.8 N 0.13 9.6 -19.1 --- --- 716.7 0.021 0.000 8.8 4 1
02/11/06 8:06 p -12.1 -12.1 -12.1 --- --- 7.8 N 0.13 8.7 -19.1 --- --- 716.6 0.021 0.000 8.8 4 1
02/11/06 8:07 p -12.2 -12.1 -12.2 --- --- 7.8 N 0.13 9.6 -19.2 --- --- 716.6 0.021 0.000 8.8 4 1
02/11/06 8:08 p -12.1 -12.1 -12.2 --- --- 7.8 N 0.13 10.4 -19.1 --- --- 716.6 0.021 0.000 8.8 4 1
02/11/06 8:09 p -12.1 -12.0 -12.1 --- --- 8.7 N 0.14 9.6 -19.5 --- --- 716.6 0.021 0.000 8.8 4 1
02/11/06 8:10 p -12.0 -12.0 -12.1 --- --- 7.8 N 0.13 8.7 -19.0 --- --- 716.7 0.021 0.000 8.8 4 1
02/11/06 8:11 p -12.1 -12.0 -12.1 --- --- 7.8 N 0.13 10.4 -19.1 --- --- 716.7 0.021 0.000 8.8 4 1
02/11/06 8:12 p -12.1 -12.1 -12.1 --- --- 7.0 N 0.12 8.7 -18.6 --- --- 716.7 0.021 0.000 8.8 4 1
02/11/06 8:13 p -12.1 -12.1 -12.1 --- --- 7.0 N 0.12 7.8 -18.6 --- --- 716.8 0.021 0.000 8.8 4 1
02/11/06 8:14 p -12.2 -12.2 -12.2 --- --- 7.0 N 0.12 8.7 -18.7 --- --- 716.8 0.021 0.000 8.8 4 1
02/11/06 8:15 p -12.2 -12.2 -12.2 --- --- 7.0 N 0.12 8.7 -18.8 --- --- 716.9 0.021 0.000 8.8 4 1
02/11/06 8:16 p -12.2 -12.2 -12.2 --- --- 7.0 NNW 0.12 11.3 -18.7 --- --- 716.8 0.021 0.000 8.8 4 1
02/11/06 8:17 p -12.3 -12.2 -12.3 --- --- 9.6 NNW 0.16 11.3 -20.2 --- --- 716.8 0.021 0.000 8.8 4 1
02/11/06 8:18 p -12.3 -12.3 -12.3 --- --- 7.8 NNW 0.13 9.6 -19.4 --- --- 716.9 0.021 0.000 8.8 4 1
02/11/06 8:19 p -12.3 -12.3 -12.3 --- --- 7.8 NNW 0.13 9.6 -19.4 --- --- 716.9 0.021 0.000 8.8 4 1
02/11/06 8:20 p -12.3 -12.3 -12.4 --- --- 7.0 NNW 0.12 7.8 -18.9 --- --- 716.8 0.021 0.000 8.7 4 1
02/11/06 8:21 p -12.4 -12.4 -12.4 --- --- 7.0 NNW 0.12 7.8 -19.0 --- --- 716.8 0.021 0.000 8.7 4 1
02/11/06 8:22 p -12.3 -12.3 -12.4 --- --- 7.0 NNW 0.12 8.7 -18.9 --- --- 716.8 0.021 0.000 8.8 4 1
02/11/06 8:23 p -12.3 -12.3 -12.3 --- --- 6.1 N 0.10 8.7 -18.3 --- --- 716.9 0.021 0.000 8.8 4 1
02/11/06 8:24 p -12.2 -12.2 -12.3 --- --- 6.1 N 0.10 7.0 -18.3 --- --- 716.7 0.021 0.000 8.8 4 1
02/11/06 8:25 p -12.1 -12.1 -12.2 --- --- 7.0 N 0.12 7.8 -18.7 --- --- 716.7 0.021 0.000 8.8 4 1
02/11/06 8:26 p -12.1 -12.1 -12.1 --- --- 7.8 N 0.13 10.4 -19.1 --- --- 716.8 0.021 0.000 8.7 4 1
02/11/06 8:27 p -12.1 -12.1 -12.1 --- --- 9.6 NNW 0.16 10.4 -19.9 --- --- 716.8 0.021 0.000 8.7 4 1
02/11/06 8:28 p -12.0 -11.9 -12.1 --- --- 9.6 NNW 0.16 10.4 -19.8 --- --- 716.8 0.021 0.000 8.7 4 1
02/11/06 8:29 p -11.9 -11.9 -12.0 --- --- 7.8 NNW 0.13 9.6 -18.9 --- --- 716.9 0.021 0.000 8.8 4 1
02/11/06 8:30 p -12.0 -12.0 -12.0 --- --- 8.7 NNW 0.14 10.4 -19.4 --- --- 716.8 0.021 0.000 8.7 4 1
02/11/06 8:31 p -12.0 -11.9 -12.0 --- --- 10.4 NNW 0.17 11.3 -20.2 --- --- 716.8 0.021 0.000 8.7 4 1
02/11/06 8:32 p -11.9 -11.9 -11.9 --- --- 9.6 NNW 0.16 11.3 -19.7 --- --- 716.8 0.021 0.000 8.7 4 1
02/11/06 8:33 p -11.9 -11.9 -11.9 --- --- 9.6 NNW 0.16 10.4 -19.7 --- --- 716.8 0.021 0.000 8.7 4 1
02/11/06 8:34 p -11.9 -11.9 -12.0 --- --- 8.7 NNW 0.14 9.6 -19.3 --- --- 717.0 0.021 0.000 8.7 4 1
02/11/06 8:35 p -12.0 -12.0 -12.0 --- --- 7.8 NNW 0.13 9.6 -19.0 --- --- 716.9 0.021 0.000 8.7 4 1
02/11/06 8:36 p -12.0 -12.0 -12.1 --- --- 7.8 NNW 0.13 9.6 -19.0 --- --- 716.9 0.021 0.000 8.7 4 1
02/11/06 8:37 p -11.9 -11.9 -11.9 --- --- 7.0 NNW 0.12 7.8 -18.4 --- --- 716.9 0.021 0.000 8.7 4 1
02/11/06 8:38 p -11.9 -11.8 -11.9 --- --- 7.0 NNW 0.12 7.8 -18.4 --- --- 716.9 0.021 0.000 8.7 4 1
02/11/06 8:39 p -11.8 -11.8 -11.8 --- --- 7.0 NNW 0.12 7.8 -18.3 --- --- 717.0 0.021 0.000 8.7 4 1
02/11/06 8:40 p -11.7 -11.7 -11.7 --- --- 7.8 NNW 0.13 8.7 -18.7 --- --- 717.0 0.021 0.000 8.7 4 1
02/11/06 8:41 p -11.7 -11.7 -11.7 --- --- 7.8 NNW 0.13 8.7 -18.6 --- --- 716.9 0.021 0.000 8.7 4 1
02/11/06 8:42 p -11.6 -11.6 -11.6 --- --- 7.8 NNW 0.13 8.7 -18.4 --- --- 716.9 0.021 0.000 8.7 4 1
02/11/06 8:43 p -11.6 -11.5 -11.6 --- --- 7.0 NNW 0.12 7.8 -18.0 --- --- 716.9 0.021 0.000 8.7 4 1
02/11/06 8:44 p -11.6 -11.6 -11.6 --- --- 6.1 NNW 0.10 7.8 -17.6 --- --- 716.9 0.021 0.000 8.7 4 1
02/11/06 8:45 p -11.5 -11.4 -11.6 --- --- 7.0 NNW 0.12 7.8 -17.9 --- --- 716.9 0.021 0.000 8.7 4 1
02/11/06 8:46 p -11.4 -11.4 -11.4 --- --- 6.1 NNW 0.10 7.8 -17.3 --- --- 716.8 0.021 0.000 8.7 4 1
02/11/06 8:47 p -11.3 -11.3 -11.4 --- --- 7.0 NNW 0.12 7.8 -17.8 --- --- 716.8 0.021 0.000 8.7 4 1
02/11/06 8:48 p -11.2 -11.2 -11.3 --- --- 7.0 NNW 0.12 7.8 -17.7 --- --- 716.8 0.021 0.000 8.7 4 1
02/11/06 8:49 p -11.1 -11.1 -11.2 --- --- 7.0 NNW 0.12 7.8 -17.5 --- --- 716.8 0.020 0.000 8.7 4 1
02/11/06 8:50 p -11.1 -11.1 -11.1 --- --- 7.0 NNW 0.12 7.8 -17.5 --- --- 716.9 0.020 0.000 8.7 4 1
02/11/06 8:51 p -11.1 -11.1 -11.1 --- --- 7.0 NNW 0.12 7.8 -17.5 --- --- 716.8 0.020 0.000 8.7 4 1
02/11/06 8:52 p -11.1 -11.1 -11.1 --- --- 6.1 NNW 0.10 7.8 -17.0 --- --- 716.8 0.020 0.000 8.7 4 1
02/11/06 8:53 p -11.1 -11.1 -11.1 --- --- 6.1 NNW 0.10 7.8 -17.0 --- --- 716.9 0.020 0.000 8.7 4 1
02/11/06 8:54 p -11.1 -11.1 -11.1 --- --- 6.1 NNW 0.10 7.0 -17.0 --- --- 716.9 0.020 0.000 8.7 4 1
02/11/06 8:55 p -11.1 -11.1 -11.1 --- --- 7.0 NNW 0.12 7.8 -17.5 --- --- 716.8 0.020 0.000 8.7 4 1
02/11/06 8:56 p -11.2 -11.1 -11.2 --- --- 6.1 NNW 0.10 7.8 -17.1 --- --- 716.9 0.020 0.000 8.7 4 1
02/11/06 8:57 p -11.2 -11.1 -11.2 --- --- 6.1 NNW 0.10 7.8 -17.1 --- --- 716.9 0.020 0.000 8.7 4 1
02/11/06 8:58 p -11.1 -11.1 -11.1 --- --- 7.0 NNW 0.12 7.8 -17.4 --- --- 716.8 0.020 0.000 8.7 4 1
02/11/06 8:59 p -11.1 -11.0 -11.1 --- --- 7.0 NNW 0.12 7.8 -17.4 --- --- 716.9 0.020 0.000 8.7 4 1
02/11/06 9:00 p -11.1 -11.1 -11.1 --- --- 6.1 NNW 0.10 7.0 -17.0 --- --- 716.8 0.020 0.000 8.7 4 1
02/11/06 9:01 p -11.1 -11.1 -11.1 --- --- 6.1 NNW 0.10 7.8 -17.0 --- --- 716.9 0.020 0.000 8.7 4 1
02/11/06 9:02 p -11.2 -11.1 -11.2 --- --- 7.0 NNW 0.12 8.7 -17.6 --- --- 716.8 0.020 0.000 8.7 4 1
02/11/06 9:03 p -11.2 -11.2 -11.2 --- --- 7.0 NNW 0.12 7.8 -17.6 --- --- 716.9 0.020 0.000 8.7 4 1
02/11/06 9:04 p -11.1 -11.1 -11.2 --- --- 7.0 NNW 0.12 7.8 -17.5 --- --- 716.8 0.020 0.000 8.7 4 1
02/11/06 9:05 p -11.1 -11.1 -11.1 --- --- 7.0 NNW 0.12 7.8 -17.5 --- --- 716.9 0.020 0.000 8.7 4 1
02/11/06 9:06 p -11.1 -11.1 -11.1 --- --- 7.0 NNW 0.12 7.8 -17.5 --- --- 716.9 0.020 0.000 8.7 4 1
02/11/06 9:07 p -11.1 -11.1 -11.1 --- --- 6.1 NNW 0.10 7.0 -17.0 --- --- 716.9 0.020 0.000 8.7 4 1
02/11/06 9:08 p -11.2 -11.1 -11.2 --- --- 6.1 NNW 0.10 7.0 -17.1 --- --- 716.9 0.020 0.000 8.7 4 1
02/11/06 9:09 p -11.2 -11.2 -11.2 --- --- 6.1 NNW 0.10 7.8 -17.1 --- --- 716.9 0.020 0.000 8.7 4 1
02/11/06 9:10 p -11.3 -11.3 -11.3 --- --- 7.0 NNW 0.12 7.8 -17.7 --- --- 716.9 0.021 0.000 8.7 4 1
02/11/06 9:11 p -11.3 -11.2 -11.3 --- --- 7.0 NNW 0.12 7.8 -17.7 --- --- 716.9 0.021 0.000 8.7 4 1
02/11/06 9:12 p -11.2 -11.1 -11.2 --- --- 6.1 NNW 0.10 7.0 -17.1 --- --- 716.9 0.020 0.000 8.7 4 1
02/11/06 9:13 p -11.1 -11.1 -11.1 --- --- 6.1 NNW 0.10 7.8 -17.0 --- --- 716.9 0.020 0.000 8.7 4 1
02/11/06 9:14 p -11.1 -11.1 -11.1 --- --- 7.0 NNW 0.12 7.8 -17.5 --- --- 716.9 0.020 0.000 8.7 4 1
02/11/06 9:15 p -11.1 -11.1 -11.1 --- --- 7.0 NNW 0.12 7.8 -17.5 --- --- 716.9 0.020 0.000 8.7 4 1
02/11/06 9:16 p -11.2 -11.1 -11.2 --- --- 6.1 N 0.10 7.8 -17.1 --- --- 716.9 0.020 0.000 8.7 4 1
02/11/06 9:17 p -11.2 -11.1 -11.2 --- --- 6.1 NNW 0.10 7.8 -17.1 --- --- 716.8 0.020 0.000 8.7 4 1
02/11/06 9:18 p -11.2 -11.2 -11.3 --- --- 7.0 NNW 0.12 8.7 -17.7 --- --- 716.8 0.021 0.000 8.7 4 1
02/11/06 9:19 p -11.3 -11.2 -11.3 --- --- 6.1 N 0.10 7.8 -17.2 --- --- 716.8 0.021 0.000 8.7 4 1
02/11/06 9:20 p -11.2 -11.1 -11.2 --- --- 5.2 NNW 0.09 7.0 -16.5 --- --- 716.8 0.020 0.000 8.7 4 1
02/11/06 9:21 p -11.1 -11.1 -11.1 --- --- 6.1 N 0.10 7.8 -16.9 --- --- 716.8 0.020 0.000 8.7 4 1
02/11/06 9:22 p -11.1 -11.1 -11.1 --- --- 6.1 N 0.10 7.8 -16.9 --- --- 716.8 0.020 0.000 8.7 4 1
02/11/06 9:23 p -11.1 -11.0 -11.1 --- --- 6.1 N 0.10 7.8 -16.9 --- --- 716.8 0.020 0.000 8.7 4 1
02/11/06 9:24 p -11.1 -11.1 -11.1 --- --- 6.1 N 0.10 7.0 -17.0 --- --- 716.8 0.020 0.000 8.7 4 1
02/11/06 9:25 p -11.1 -11.1 -11.1 --- --- 6.1 NNW 0.10 7.8 -16.9 --- --- 716.8 0.020 0.000 8.7 4 1
02/11/06 9:26 p -11.1 -11.1 -11.1 --- --- 6.1 NNW 0.10 7.8 -16.9 --- --- 716.9 0.020 0.000 8.7 4 1
02/11/06 9:27 p -11.1 -11.1 -11.2 --- --- 5.2 N 0.09 7.0 -16.4 --- --- 716.9 0.020 0.000 8.7 4 1
02/11/06 9:28 p -11.2 -11.2 -11.2 --- --- 6.1 N 0.10 7.0 -17.1 --- --- 716.8 0.020 0.000 8.7 4 1
02/11/06 9:29 p -11.2 -11.2 -11.2 --- --- 6.1 NNW 0.10 7.8 -17.1 --- --- 716.8 0.020 0.000 8.7 4 1
02/11/06 9:30 p -11.2 -11.1 -11.2 --- --- 7.0 NNW 0.12 7.8 -17.6 --- --- 716.9 0.020 0.000 8.7 4 1
02/11/06 9:31 p -11.1 -11.1 -11.2 --- --- 6.1 NNW 0.10 8.7 -17.0 --- --- 716.9 0.020 0.000 8.7 4 1
02/11/06 9:32 p -11.2 -11.2 -11.2 --- --- 6.1 N 0.10 7.0 -17.1 --- --- 716.8 0.021 0.000 8.7 4 1
02/11/06 9:33 p -11.2 -11.2 -11.2 --- --- 6.1 N 0.10 7.8 -17.1 --- --- 716.9 0.020 0.000 8.7 4 1
02/11/06 9:34 p -11.2 -11.1 -11.2 --- --- 6.1 N 0.10 7.0 -17.1 --- --- 716.8 0.020 0.000 8.7 4 1
02/11/06 9:35 p -11.1 -11.1 -11.2 --- --- 6.1 N 0.10 7.8 -17.0 --- --- 716.9 0.020 0.000 8.7 4 1
02/11/06 9:36 p -11.1 -11.0 -11.1 --- --- 7.8 NNW 0.13 7.8 -17.8 --- --- 716.8 0.020 0.000 8.7 4 1
02/11/06 9:37 p -11.0 -11.0 -11.0 --- --- 7.8 NNW 0.13 8.7 -17.8 --- --- 716.9 0.020 0.000 8.7 4 1
02/11/06 9:38 p -11.0 -10.9 -11.0 --- --- 7.0 NNW 0.12 7.8 -17.4 --- --- 716.9 0.020 0.000 8.7 4 1
02/11/06 9:39 p -10.9 -10.9 -10.9 --- --- 7.0 NNW 0.12 8.7 -17.2 --- --- 716.8 0.020 0.000 8.7 4 1
02/11/06 9:40 p -10.9 -10.9 -10.9 --- --- 5.2 N 0.09 7.8 -16.2 --- --- 716.9 0.020 0.000 8.7 4 1
02/11/06 9:41 p -11.0 -10.9 -11.0 --- --- 5.2 N 0.09 5.2 -16.3 --- --- 716.9 0.020 0.000 8.7 4 1
02/11/06 9:42 p -10.9 -10.9 -11.0 --- --- 4.3 N 0.07 6.1 -15.6 --- --- 716.9 0.020 0.000 8.7 4 1
02/11/06 9:43 p -10.9 -10.8 -10.9 --- --- 5.2 N 0.09 7.0 -16.2 --- --- 716.9 0.020 0.000 8.7 4 1
02/11/06 9:44 p -10.7 -10.6 -10.8 --- --- 5.2 N 0.09 7.0 -15.9 --- --- 716.9 0.020 0.000 8.7 4 1
02/11/06 9:45 p -10.6 -10.6 -10.6 --- --- 4.3 N 0.07 6.1 -15.1 --- --- 716.9 0.020 0.000 8.7 4 1
02/11/06 9:46 p -10.5 -10.5 -10.6 --- --- 5.2 N 0.09 7.0 -15.7 --- --- 716.9 0.020 0.000 8.7 4 1
02/11/06 9:47 p -10.5 -10.5 -10.5 --- --- 6.1 N 0.10 7.8 -16.3 --- --- 716.9 0.020 0.000 8.7 4 1
02/11/06 9:48 p -10.6 -10.6 -10.7 --- --- 5.2 N 0.09 7.0 -15.8 --- --- 716.9 0.020 0.000 8.7 4 1
02/11/06 9:49 p -10.7 -10.7 -10.7 --- --- 5.2 N 0.09 7.0 -16.0 --- --- 716.9 0.020 0.000 8.7 4 1
02/11/06 9:50 p -10.7 -10.7 -10.7 --- --- 6.1 N 0.10 7.0 -16.6 --- --- 716.9 0.020 0.000 8.7 4 1
02/11/06 9:51 p -10.7 -10.7 -10.7 --- --- 5.2 N 0.09 6.1 -16.0 --- --- 717.0 0.020 0.000 8.7 4 1
02/11/06 9:52 p -10.6 -10.6 -10.7 --- --- 5.2 N 0.09 6.1 -15.8 --- --- 716.9 0.020 0.000 8.7 4 1
02/11/06 9:53 p -10.5 -10.4 -10.6 --- --- 5.2 N 0.09 6.1 -15.7 --- --- 717.0 0.020 0.000 8.7 4 1
02/11/06 9:54 p -10.3 -10.3 -10.4 --- --- 5.2 NNW 0.09 7.0 -15.5 --- --- 717.0 0.020 0.000 8.7 4 1
02/11/06 9:55 p -10.3 -10.3 -10.3 --- --- 5.2 NNW 0.09 7.0 -15.4 --- --- 717.0 0.020 0.000 8.7 4 1
02/11/06 9:56 p -10.4 -10.3 -10.4 --- --- 6.1 NNW 0.10 7.0 -16.1 --- --- 717.0 0.020 0.000 8.7 4 1
02/11/06 9:57 p -10.4 -10.4 -10.4 --- --- 5.2 NNW 0.09 6.1 -15.6 --- --- 716.9 0.020 0.000 8.7 4 1
02/11/06 9:58 p -10.3 -10.2 -10.3 --- --- 5.2 NNW 0.09 6.1 -15.4 --- --- 717.0 0.020 0.000 8.7 4 1
02/11/06 9:59 p -10.2 -10.2 -10.3 --- --- 4.3 N 0.07 6.1 -14.7 --- --- 717.0 0.020 0.000 8.7 4 1
02/11/06 10:00 p -10.3 -10.3 -10.4 --- --- 5.2 N 0.09 6.1 -15.5 --- --- 717.0 0.020 0.000 8.7 4 1
02/11/06 10:01 p -10.4 -10.3 -10.4 --- --- 5.2 NNW 0.09 7.0 -15.6 --- --- 717.1 0.020 0.000 8.7 4 1
02/11/06 10:02 p -10.4 -10.4 -10.4 --- --- 4.3 NNW 0.07 5.2 -14.9 --- --- 717.0 0.020 0.000 8.7 4 1
02/11/06 10:03 p -10.4 -10.3 -10.4 --- --- 6.1 NNW 0.10 7.0 -16.1 --- --- 717.0 0.020 0.000 8.7 4 1
02/11/06 10:04 p -10.5 -10.4 -10.6 --- --- 6.1 NNW 0.10 7.0 -16.3 --- --- 717.0 0.020 0.000 8.7 4 1
02/11/06 10:05 p -10.6 -10.6 -10.6 --- --- 6.1 NNW 0.10 6.1 -16.3 --- --- 717.0 0.020 0.000 8.7 4 1
02/11/06 10:06 p -10.5 -10.5 -10.6 --- --- 6.1 NNW 0.10 6.1 -16.3 --- --- 717.1 0.020 0.000 8.7 4 1
02/11/06 10:07 p -10.6 -10.6 -10.7 --- --- 6.1 NNW 0.10 7.0 -16.4 --- --- 717.1 0.020 0.000 8.7 4 1
02/11/06 10:08 p -10.7 -10.7 -10.8 --- --- 5.2 NNW 0.09 6.1 -16.0 --- --- 717.1 0.020 0.000 8.7 4 1
02/11/06 10:09 p -10.8 -10.8 -10.8 --- --- 5.2 NNW 0.09 6.1 -16.1 --- --- 717.1 0.020 0.000 8.7 4 1
02/11/06 10:10 p -10.8 -10.8 -10.8 --- --- 5.2 NNW 0.09 6.1 -16.1 --- --- 717.2 0.020 0.000 8.7 4 1
02/11/06 10:11 p -10.9 -10.8 -10.9 --- --- 5.2 NNW 0.09 6.1 -16.2 --- --- 717.1 0.020 0.000 8.7 4 1
02/11/06 10:12 p -10.9 -10.8 -10.9 --- --- 5.2 NNW 0.09 6.1 -16.2 --- --- 717.1 0.020 0.000 8.7 4 1
02/11/06 10:13 p -10.8 -10.8 -10.9 --- --- 6.1 NNW 0.10 6.1 -16.7 --- --- 717.2 0.020 0.000 8.7 4 1
02/11/06 10:14 p -10.9 -10.9 -10.9 --- --- 6.1 NNW 0.10 7.0 -16.7 --- --- 717.1 0.020 0.000 8.7 4 1
02/11/06 10:15 p -11.0 -10.9 -11.1 --- --- 6.1 NNW 0.10 6.1 -16.9 --- --- 717.2 0.020 0.000 8.7 4 1
02/11/06 10:16 p -11.1 -11.1 -11.1 --- --- 5.2 NNW 0.09 6.1 -16.4 --- --- 717.1 0.020 0.000 8.7 4 1
02/11/06 10:17 p -11.1 -11.0 -11.1 --- --- 5.2 NNW 0.09 6.1 -16.4 --- --- 717.2 0.020 0.000 8.7 4 1
02/11/06 10:18 p -11.1 -11.0 -11.1 --- --- 5.2 NNW 0.09 6.1 -16.4 --- --- 717.2 0.020 0.000 8.7 4 1
02/11/06 10:19 p -11.1 -11.1 -11.1 --- --- 5.2 NNW 0.09 6.1 -16.4 --- --- 717.2 0.020 0.000 8.8 4 1
02/11/06 10:20 p -11.1 -11.1 -11.2 --- --- 5.2 NNW 0.09 6.1 -16.4 --- --- 717.1 0.020 0.000 8.7 4 1
02/11/06 10:21 p -11.2 -11.2 -11.2 --- --- 6.1 NNW 0.10 6.1 -17.1 --- --- 717.1 0.020 0.000 8.7 4 1
02/11/06 10:22 p -11.2 -11.2 -11.2 --- --- 6.1 NNW 0.10 7.0 -17.1 --- --- 717.1 0.021 0.000 8.7 4 1
02/11/06 10:23 p -11.2 -11.2 -11.2 --- --- 5.2 NNW 0.09 6.1 -16.6 --- --- 717.2 0.021 0.000 8.7 4 1
02/11/06 10:24 p -11.3 -11.2 -11.4 --- --- 5.2 NNW 0.09 6.1 -16.7 --- --- 717.2 0.021 0.000 8.7 4 1
02/11/06 10:25 p -11.4 -11.4 -11.4 --- --- 4.3 NNW 0.07 5.2 -16.1 --- --- 717.2 0.021 0.000 8.8 4 1
02/11/06 10:26 p -11.3 -11.3 -11.4 --- --- 4.3 NNW 0.07 5.2 -16.1 --- --- 717.1 0.021 0.000 8.7 4 1
02/11/06 10:27 p -11.3 -11.2 -11.3 --- --- 4.3 NNW 0.07 6.1 -16.0 --- --- 717.2 0.021 0.000 8.7 4 1
02/11/06 10:28 p -11.1 -11.0 -11.2 --- --- 6.1 NNW 0.10 6.1 -17.0 --- --- 717.2 0.020 0.000 8.8 4 1
02/11/06 10:29 p -11.0 -10.9 -11.0 --- --- 6.1 NNW 0.10 7.0 -16.9 --- --- 717.2 0.020 0.000 8.7 4 1
02/11/06 10:30 p -11.0 -10.9 -11.0 --- --- 6.1 NNW 0.10 7.0 -16.9 --- --- 717.1 0.020 0.000 8.8 4 1
02/11/06 10:31 p -11.1 -11.0 -11.2 --- --- 5.2 NNW 0.09 7.0 -16.4 --- --- 717.2 0.020 0.000 8.8 4 1
02/11/06 10:32 p -11.1 -11.1 -11.2 --- --- 5.2 NNW 0.09 6.1 -16.4 --- --- 717.1 0.020 0.000 8.8 4 1
02/11/06 10:33 p -11.2 -11.2 -11.2 --- --- 4.3 NNW 0.07 5.2 -15.8 --- --- 717.2 0.020 0.000 8.8 4 1
02/11/06 10:34 p -11.2 -11.1 -11.2 --- --- 3.5 NNW 0.06 5.2 -15.1 --- --- 717.2 0.020 0.000 8.8 4 1
02/11/06 10:35 p -11.2 -11.2 -11.2 --- --- 3.5 NNW 0.06 4.3 -15.1 --- --- 717.2 0.020 0.000 8.8 4 1
02/11/06 10:36 p -11.1 -11.1 -11.2 --- --- 3.5 NNW 0.06 4.3 -15.0 --- --- 717.2 0.020 0.000 8.8 4 1
02/11/06 10:37 p -11.0 -10.9 -11.1 --- --- 4.3 NNW 0.07 5.2 -15.7 --- --- 717.2 0.020 0.000 8.8 4 1
02/11/06 10:38 p -11.0 -10.9 -11.0 --- --- 5.2 NNW 0.09 6.1 -16.3 --- --- 717.2 0.020 0.000 8.8 4 1
02/11/06 10:39 p -10.9 -10.9 -11.0 --- --- 5.2 NNW 0.09 7.0 -16.2 --- --- 717.1 0.020 0.000 8.8 4 1
02/11/06 10:40 p -10.9 -10.9 -10.9 --- --- 6.1 NNW 0.10 7.0 -16.7 --- --- 717.1 0.020 0.000 8.8 4 1
02/11/06 10:41 p -11.0 -10.9 -11.0 --- --- 5.2 NNW 0.09 6.1 -16.3 --- --- 717.2 0.020 0.000 8.8 4 1
02/11/06 10:42 p -11.1 -11.1 -11.1 --- --- 4.3 N 0.07 5.2 -15.7 --- --- 717.2 0.020 0.000 8.8 4 1
02/11/06 10:43 p -11.0 -11.0 -11.1 --- --- 3.5 N 0.06 5.2 -14.9 --- --- 717.3 0.020 0.000 8.8 4 1
02/11/06 10:44 p -10.9 -10.8 -10.9 --- --- 5.2 NNW 0.09 6.1 -16.2 --- --- 717.3 0.020 0.000 8.8 4 1
02/11/06 10:45 p -10.7 -10.7 -10.7 --- --- 5.2 NNW 0.09 6.1 -16.0 --- --- 717.2 0.020 0.000 8.8 4 1
02/11/06 10:46 p -10.7 -10.7 -10.7 --- --- 5.2 NNW 0.09 6.1 -15.9 --- --- 717.3 0.020 0.000 8.8 4 1
02/11/06 10:47 p -10.7 -10.7 -10.8 --- --- 5.2 NNW 0.09 6.1 -16.0 --- --- 717.2 0.020 0.000 8.8 4 1
02/11/06 10:48 p -10.7 -10.7 -10.7 --- --- 4.3 NNW 0.07 6.1 -15.3 --- --- 717.2 0.020 0.000 8.8 4 1
02/11/06 10:49 p -10.8 -10.7 -10.8 --- --- 4.3 N 0.07 5.2 -15.4 --- --- 717.2 0.020 0.000 8.8 4 1
02/11/06 10:50 p -10.7 -10.7 -10.8 --- --- 4.3 N 0.07 5.2 -15.3 --- --- 717.2 0.020 0.000 8.8 4 1
02/11/06 10:51 p -10.6 -10.6 -10.6 --- --- 4.3 N 0.07 6.1 -15.2 --- --- 717.2 0.020 0.000 8.8 4 1
02/11/06 10:52 p -10.6 -10.5 -10.6 --- --- 4.3 NNW 0.07 6.1 -15.1 --- --- 717.2 0.020 0.000 8.8 4 1
02/11/06 10:53 p -10.4 -10.3 -10.5 --- --- 4.3 NNW 0.07 4.3 -14.9 --- --- 717.2 0.020 0.000 8.8 4 1
02/11/06 10:54 p -10.2 -10.1 -10.2 --- --- 4.3 NNW 0.07 5.2 -14.7 --- --- 717.2 0.020 0.000 8.8 4 1
02/11/06 10:55 p -10.1 -10.1 -10.1 --- --- 4.3 NNW 0.07 6.1 -14.6 --- --- 717.2 0.020 0.000 8.8 4 1
02/11/06 10:56 p -9.9 -9.8 -10.0 --- --- 6.1 NNW 0.10 7.0 -15.6 --- --- 717.2 0.020 0.000 8.8 4 1
02/11/06 10:57 p -9.9 -9.9 -9.9 --- --- 5.2 NNW 0.09 6.1 -15.0 --- --- 717.2 0.020 0.000 8.8 4 1
02/11/06 10:58 p -9.9 -9.9 -9.9 --- --- 5.2 NNW 0.09 6.1 -15.1 --- --- 717.3 0.020 0.000 8.8 4 1
02/11/06 10:59 p -9.9 -9.9 -9.9 --- --- 5.2 NNW 0.09 7.0 -15.0 --- --- 717.2 0.020 0.000 8.8 4 1
02/11/06 11:00 p -9.8 -9.7 -9.9 --- --- 4.3 N 0.07 5.2 -14.3 --- --- 717.2 0.020 0.000 8.8 4 1
02/11/06 11:01 p -9.7 -9.6 -9.7 --- --- 3.5 N 0.06 5.2 -13.3 --- --- 717.3 0.019 0.000 8.8 4 1
02/11/06 11:02 p -9.4 -9.4 -9.5 --- --- 4.3 N 0.07 5.2 -13.8 --- --- 717.2 0.019 0.000 8.8 4 1
02/11/06 11:03 p -9.3 -9.3 -9.4 --- --- 4.3 N 0.07 7.0 -13.7 --- --- 717.3 0.019 0.000 8.8 4 1
02/11/06 11:04 p -9.2 -9.2 -9.2 --- --- 6.1 NNW 0.10 7.0 -14.7 --- --- 717.3 0.019 0.000 8.8 4 1
02/11/06 11:05 p -9.1 -9.0 -9.1 --- --- 6.1 NNW 0.10 7.0 -14.5 --- --- 717.3 0.019 0.000 8.8 4 1
02/11/06 11:06 p -9.1 -9.1 -9.3 --- --- 7.0 NNW 0.12 7.8 -15.1 --- --- 717.2 0.019 0.000 8.8 4 1
02/11/06 11:07 p -9.4 -9.3 -9.4 --- --- 7.0 NNW 0.12 7.8 -15.4 --- --- 717.3 0.019 0.000 8.8 4 1
02/11/06 11:08 p -9.7 -9.6 -9.7 --- --- 7.0 NNW 0.12 8.7 -15.7 --- --- 717.2 0.019 0.000 8.8 4 1
02/11/06 11:09 p -9.8 -9.8 -9.9 --- --- 5.2 NNW 0.09 7.0 -14.9 --- --- 717.3 0.020 0.000 8.8 4 1
02/11/06 11:10 p -9.9 -9.9 -10.0 --- --- 5.2 N 0.09 7.0 -15.1 --- --- 717.4 0.020 0.000 8.8 4 1
02/11/06 11:11 p -9.9 -9.8 -9.9 --- --- 4.3 N 0.07 6.1 -14.3 --- --- 717.3 0.020 0.000 8.8 4 1
02/11/06 11:12 p -9.7 -9.6 -9.8 --- --- 6.1 NNW 0.10 7.0 -15.3 --- --- 717.3 0.019 0.000 8.8 4 1
02/11/06 11:13 p -9.5 -9.5 -9.5 --- --- 4.3 NNW 0.07 6.1 -13.9 --- --- 717.3 0.019 0.000 8.8 4 1
02/11/06 11:14 p -9.4 -9.4 -9.5 --- --- 5.2 NNW 0.09 6.1 -14.4 --- --- 717.3 0.019 0.000 8.8 4 1
02/11/06 11:15 p -9.3 -9.2 -9.3 --- --- 4.3 NNW 0.07 5.2 -13.6 --- --- 717.3 0.019 0.000 8.8 4 1
02/11/06 11:16 p -9.1 -9.0 -9.2 --- --- 5.2 NNW 0.09 7.0 -14.0 --- --- 717.4 0.019 0.000 8.8 4 1
02/11/06 11:17 p -8.9 -8.9 -8.9 --- --- 7.0 NNW 0.12 7.8 -14.9 --- --- 717.4 0.019 0.000 8.8 4 1
02/11/06 11:18 p -9.0 -9.0 -9.1 --- --- 7.0 NNW 0.12 7.0 -14.9 --- --- 717.4 0.019 0.000 8.8 4 1
02/11/06 11:19 p -9.1 -9.0 -9.2 --- --- 6.1 NNW 0.10 7.0 -14.6 --- --- 717.4 0.019 0.000 8.8 4 1
02/11/06 11:20 p -9.3 -9.2 -9.4 --- --- 6.1 NNW 0.10 7.0 -14.8 --- --- 717.5 0.019 0.000 8.8 4 1
02/11/06 11:21 p -9.7 -9.6 -9.7 --- --- 5.2 NNW 0.09 6.1 -14.7 --- --- 717.5 0.019 0.000 8.8 4 1
02/11/06 11:22 p -9.7 -9.7 -9.7 --- --- 6.1 NNW 0.10 7.0 -15.3 --- --- 717.4 0.019 0.000 8.8 4 1
02/11/06 11:23 p -9.8 -9.7 -9.9 --- --- 5.2 NNW 0.09 6.1 -14.9 --- --- 717.4 0.020 0.000 8.8 4 1
02/11/06 11:24 p -9.7 -9.7 -9.7 --- --- 4.3 N 0.07 5.2 -14.2 --- --- 717.5 0.019 0.000 8.8 4 1
02/11/06 11:25 p -9.7 -9.6 -9.8 --- --- 4.3 N 0.07 5.2 -14.2 --- --- 717.3 0.019 0.000 8.8 4 1
02/11/06 11:26 p -9.4 -9.3 -9.4 --- --- 4.3 N 0.07 5.2 -13.8 --- --- 717.4 0.019 0.000 8.8 4 1
02/11/06 11:27 p -9.3 -9.3 -9.3 --- --- 4.3 N 0.07 5.2 -13.7 --- --- 717.4 0.019 0.000 8.8 4 1
02/11/06 11:28 p -9.3 -9.3 -9.4 --- --- 4.3 N 0.07 6.1 -13.7 --- --- 717.4 0.019 0.000 8.8 4 1
02/11/06 11:29 p -9.4 -9.4 -9.5 --- --- 4.3 N 0.07 6.1 -13.8 --- --- 717.4 0.019 0.000 8.8 4 1
02/11/06 11:30 p -9.5 -9.4 -9.5 --- --- 4.3 N 0.07 5.2 -13.9 --- --- 717.5 0.019 0.000 8.8 4 1
02/11/06 11:31 p -9.4 -9.3 -9.4 --- --- 4.3 N 0.07 6.1 -13.8 --- --- 717.4 0.019 0.000 8.8 4 1
02/11/06 11:32 p -9.2 -9.1 -9.3 --- --- 4.3 N 0.07 5.2 -13.6 --- --- 717.4 0.019 0.000 8.8 4 1
02/11/06 11:33 p -9.1 -9.1 -9.1 --- --- 6.1 NNW 0.10 7.8 -14.5 --- --- 717.4 0.019 0.000 8.8 4 1
02/11/06 11:34 p -9.1 -9.0 -9.1 --- --- 5.2 NNW 0.09 7.0 -14.0 --- --- 717.4 0.019 0.000 8.8 4 1
02/11/06 11:35 p -9.1 -9.1 -9.1 --- --- 6.1 NNW 0.10 7.0 -14.5 --- --- 717.4 0.019 0.000 8.8 4 1
02/11/06 11:36 p -9.1 -9.1 -9.1 --- --- 5.2 NNW 0.09 6.1 -14.0 --- --- 717.4 0.019 0.000 8.8 4 1
02/11/06 11:37 p -9.1 -9.1 -9.1 --- --- 5.2 NNW 0.09 6.1 -14.0 --- --- 717.4 0.019 0.000 8.8 4 1
02/11/06 11:38 p -9.0 -8.9 -9.1 --- --- 5.2 NNW 0.09 6.1 -13.9 --- --- 717.5 0.019 0.000 8.8 4 1
02/11/06 11:39 p -8.9 -8.9 -9.0 --- --- 4.3 NNW 0.07 5.2 -13.2 --- --- 717.4 0.019 0.000 8.8 4 1
02/11/06 11:40 p -8.9 -8.9 -9.0 --- --- 3.5 N 0.06 5.2 -12.5 --- --- 717.5 0.019 0.000 8.8 4 1
02/11/06 11:41 p -8.9 -8.9 -9.0 --- --- 3.5 N 0.06 5.2 -12.5 --- --- 717.5 0.019 0.000 8.9 4 1
02/11/06 11:42 p -8.8 -8.8 -8.9 --- --- 3.5 N 0.06 4.3 -12.4 --- --- 717.4 0.019 0.000 8.9 4 1
02/11/06 11:43 p -8.7 -8.7 -8.8 --- --- 3.5 N 0.06 6.1 -12.3 --- --- 717.5 0.019 0.000 8.9 4 1
02/11/06 11:44 p -8.7 -8.7 -8.7 --- --- 4.3 NNW 0.07 6.1 -12.9 --- --- 717.5 0.019 0.000 8.9 4 1
02/11/06 11:45 p -8.6 -8.6 -8.6 --- --- 4.3 NNW 0.07 6.1 -12.8 --- --- 717.5 0.019 0.000 8.9 4 1
02/11/06 11:46 p -8.6 -8.6 -8.7 --- --- 4.3 NNW 0.07 6.1 -12.8 --- --- 717.6 0.019 0.000 8.9 4 1
02/11/06 11:47 p -8.6 -8.5 -8.6 --- --- 4.3 NNW 0.07 5.2 -12.8 --- --- 717.5 0.019 0.000 8.9 4 1
02/11/06 11:48 p -8.4 -8.4 -8.4 --- --- 5.2 NNW 0.09 6.1 -13.3 --- --- 717.5 0.019 0.000 8.9 4 1
02/11/06 11:49 p -8.2 -8.1 -8.3 --- --- 4.3 NNW 0.07 5.2 -12.4 --- --- 717.6 0.018 0.000 8.9 4 1
02/11/06 11:50 p -8.2 -8.1 -8.2 --- --- 3.5 NNW 0.06 5.2 -11.6 --- --- 717.5 0.018 0.000 8.9 4 1
02/11/06 11:51 p -8.2 -8.1 -8.3 --- --- 5.2 NNW 0.09 6.1 -13.0 --- --- 717.6 0.018 0.000 8.9 4 1
02/11/06 11:52 p -8.2 -8.1 -8.2 --- --- 4.3 NNW 0.07 5.2 -12.3 --- --- 717.6 0.018 0.000 8.9 4 1
02/11/06 11:53 p -7.9 -7.9 -8.0 --- --- 4.3 NNW 0.07 5.2 -12.1 --- --- 717.6 0.018 0.000 8.9 4 1
02/11/06 11:54 p -7.8 -7.7 -7.9 --- --- 3.5 NNW 0.06 4.3 -11.2 --- --- 717.6 0.018 0.000 8.9 4 1
02/11/06 11:55 p -7.6 -7.6 -7.7 --- --- 3.5 NNW 0.06 4.3 -10.9 --- --- 717.6 0.018 0.000 8.9 4 1
02/11/06 11:56 p -7.7 -7.6 -7.8 --- --- 3.5 NNW 0.06 4.3 -11.1 --- --- 717.5 0.018 0.000 8.9 4 1
02/11/06 11:57 p -7.6 -7.6 -7.6 --- --- 3.5 NNW 0.06 4.3 -10.9 --- --- 717.7 0.018 0.000 8.9 4 1
02/11/06 11:58 p -7.6 -7.6 -7.6 --- --- 3.5 NNW 0.06 4.3 -10.9 --- --- 717.7 0.018 0.000 8.9 4 1
02/11/06 11:59 p -7.6 -7.5 -7.6 --- --- 4.3 NNW 0.07 4.3 -11.6 --- --- 717.7 0.018 0.000 8.9 4 1
02/12/06 12:00 a -7.6 -7.6 -7.6 --- --- 3.5 NNW 0.06 4.3 -10.9 --- --- 717.6 0.018 0.000 8.9 4 1
02/12/06 12:01 a -7.6 -7.6 -7.6 --- --- 3.5 NNW 0.06 4.3 -10.9 --- --- 717.6 0.018 0.000 8.9 4 1
02/12/06 12:02 a -7.7 -7.6 -7.7 --- --- 4.3 NNW 0.07 5.2 -11.7 --- --- 717.6 0.018 0.000 8.9 4 1
02/12/06 12:03 a -7.8 -7.8 -7.8 --- --- 3.5 NNW 0.06 5.2 -11.2 --- --- 717.6 0.018 0.000 8.9 4 1
02/12/06 12:04 a -7.8 -7.8 -8.0 --- --- 2.6 NNW 0.04 4.3 -10.3 --- --- 717.6 0.018 0.000 8.9 4 1
02/12/06 12:05 a -7.8 -7.7 -8.0 --- --- 1.7 NNW 0.03 2.6 -9.2 --- --- 717.7 0.018 0.000 8.9 4 1
02/12/06 12:06 a -7.6 -7.5 -7.7 --- --- 1.7 NNW 0.03 3.5 -8.9 --- --- 717.7 0.018 0.000 8.9 4 1
02/12/06 12:07 a -7.3 -7.0 -7.5 --- --- 1.7 NNW 0.03 2.6 -8.6 --- --- 717.7 0.018 0.000 8.9 4 1
02/12/06 12:08 a -6.9 -6.9 -7.0 --- --- 1.7 NNW 0.03 1.7 -8.2 --- --- 717.7 0.018 0.000 8.9 4 1
02/12/06 12:09 a -6.8 -6.8 -6.9 --- --- 1.7 NNW 0.03 2.6 -8.1 --- --- 717.7 0.017 0.000 8.9 4 1
02/12/06 12:10 a -6.6 -6.5 -6.7 --- --- 1.7 NNW 0.03 2.6 -7.8 --- --- 717.7 0.017 0.000 8.9 4 1
02/12/06 12:11 a -6.4 -6.4 -6.5 --- --- 0.9 NNW 0.01 1.7 -6.4 --- --- 717.7 0.017 0.000 8.9 4 1
02/12/06 12:12 a -6.4 -6.4 -6.5 --- --- 1.7 NNW 0.03 2.6 -7.7 --- --- 717.7 0.017 0.000 8.9 4 1
02/12/06 12:13 a -6.4 -6.4 -6.7 --- --- 2.6 NW 0.04 3.5 -8.8 --- --- 717.7 0.017 0.000 9.0 4 1
02/12/06 12:14 a -6.7 -6.7 -6.7 --- --- 2.6 NW 0.04 2.6 -9.1 --- --- 717.7 0.017 0.000 9.0 4 1
02/12/06 12:15 a -6.8 -6.7 -7.0 --- --- 1.7 NW 0.03 2.6 -8.1 --- --- 717.7 0.017 0.000 9.0 4 1
02/12/06 12:16 a -7.1 -7.0 -7.2 --- --- 0.9 NW 0.01 1.7 -7.1 --- --- 717.7 0.018 0.000 9.0 4 1
02/12/06 12:17 a -7.1 -7.0 -7.2 --- --- 1.7 NW 0.03 2.6 -8.4 --- --- 717.8 0.018 0.000 9.0 4 1
02/12/06 12:18 a -6.9 -6.8 -7.0 --- --- 0.9 NW 0.01 2.6 -6.9 --- --- 717.7 0.018 0.000 9.0 4 1
02/12/06 12:19 a -6.8 -6.6 -6.8 --- --- 0.9 NW 0.01 1.7 -6.8 --- --- 717.8 0.017 0.000 9.0 4 1
02/12/06 12:20 a -6.5 -6.4 -6.6 --- --- 0.9 NW 0.01 2.6 -6.5 --- --- 717.8 0.017 0.000 9.1 4 1
02/12/06 12:21 a -6.4 -6.3 -6.4 --- --- 1.7 W 0.03 3.5 -7.6 --- --- 717.7 0.017 0.000 9.1 4 1
02/12/06 12:22 a -6.2 -6.1 -6.3 --- --- 0.9 W 0.01 2.6 -6.2 --- --- 717.8 0.017 0.000 9.1 4 1
02/12/06 12:23 a -6.1 -6.1 -6.1 --- --- 1.7 W 0.03 2.6 -7.2 --- --- 717.8 0.017 0.000 9.1 4 1
02/12/06 12:24 a -6.2 -6.1 -6.3 --- --- 1.7 W 0.03 4.3 -7.4 --- --- 717.8 0.017 0.000 9.1 4 1
02/12/06 12:25 a -5.9 -5.4 -6.2 --- --- 3.5 S 0.06 4.3 -9.0 --- --- 717.8 0.017 0.000 9.1 4 1
02/12/06 12:26 a -5.2 -4.9 -5.4 --- --- 2.6 S 0.04 3.5 -7.4 --- --- 717.8 0.016 0.000 9.1 4 1
02/12/06 12:27 a -4.6 -4.0 -4.9 --- --- 1.7 S 0.03 3.5 -5.6 --- --- 717.7 0.016 0.000 9.1 4 1
02/12/06 12:28 a -3.8 -3.4 -4.0 --- --- 0.9 S 0.01 1.7 -3.8 --- --- 717.8 0.015 0.000 9.1 4 1
02/12/06 12:29 a -3.1 -2.9 -3.4 --- --- 1.7 S 0.03 2.6 -4.0 --- --- 717.9 0.015 0.000 9.1 4 1
02/12/06 12:30 a -2.5 -2.4 -2.6 --- --- 3.5 S 0.06 5.2 -5.1 --- --- 717.8 0.014 0.000 9.1 4 1
02/12/06 12:31 a -2.6 -2.4 -2.7 --- --- 5.2 SSE 0.09 7.0 -6.3 --- --- 717.8 0.015 0.000 9.1 4 1
02/12/06 12:32 a -2.9 -2.7 -3.1 --- --- 4.3 S 0.07 6.1 -6.1 --- --- 717.8 0.015 0.000 9.1 4 1
02/12/06 12:33 a -2.9 -2.9 -3.1 --- --- 2.6 S 0.04 3.5 -4.8 --- --- 717.8 0.015 0.000 9.1 4 1
02/12/06 12:34 a -2.8 -2.6 -2.9 --- --- 2.6 S 0.04 3.5 -4.6 --- --- 717.8 0.015 0.000 9.1 4 1
02/12/06 12:35 a -2.3 -2.3 -2.6 --- --- 3.5 S 0.06 5.2 -4.9 --- --- 717.9 0.014 0.000 9.1 4 1
02/12/06 12:36 a -2.3 -2.3 -2.4 --- --- 4.3 S 0.07 6.1 -5.5 --- --- 717.9 0.014 0.000 9.1 4 1
02/12/06 12:37 a -2.4 -2.3 -2.6 --- --- 4.3 S 0.07 5.2 -5.6 --- --- 717.9 0.014 0.000 9.1 4 1
02/12/06 12:38 a -2.7 -2.6 -2.8 --- --- 4.3 S 0.07 5.2 -5.9 --- --- 717.9 0.015 0.000 9.1 4 1
02/12/06 12:39 a -2.7 -2.4 -2.8 --- --- 2.6 S 0.04 4.3 -4.5 --- --- 717.9 0.015 0.000 9.1 4 1
02/12/06 12:40 a -2.4 -2.4 -2.5 --- --- 4.3 SSE 0.07 6.1 -5.6 --- --- 717.8 0.014 0.000 9.2 4 1
02/12/06 12:41 a -2.6 -2.4 -2.6 --- --- 5.2 SSE 0.09 6.1 -6.2 --- --- 717.8 0.015 0.000 9.2 4 1
02/12/06 12:42 a -2.9 -2.6 -3.2 --- --- 6.1 S 0.10 7.0 -7.1 --- --- 717.9 0.015 0.000 9.2 4 1
02/12/06 12:43 a -3.4 -3.2 -3.6 --- --- 6.1 S 0.10 7.0 -7.7 --- --- 717.8 0.015 0.000 9.2 4 1
02/12/06 12:44 a -3.5 -3.3 -3.6 --- --- 5.2 SSE 0.09 6.1 -7.4 --- --- 717.9 0.015 0.000 9.2 4 1
02/12/06 12:45 a -3.4 -3.2 -3.4 --- --- 5.2 SSE 0.09 6.1 -7.2 --- --- 717.9 0.015 0.000 9.2 4 1
02/12/06 12:46 a -3.1 -2.9 -3.2 --- --- 5.2 SSE 0.09 6.1 -6.9 --- --- 717.8 0.015 0.000 9.2 4 1
02/12/06 12:47 a -2.7 -2.4 -2.9 --- --- 4.3 SSE 0.07 5.2 -5.9 --- --- 717.8 0.015 0.000 9.2 4 1
02/12/06 12:48 a -2.3 -2.2 -2.4 --- --- 6.1 SE 0.10 7.0 -6.3 --- --- 717.9 0.014 0.000 9.2 4 1
02/12/06 12:49 a -2.7 -2.5 -3.0 --- --- 6.1 SE 0.10 7.0 -6.8 --- --- 717.9 0.015 0.000 9.2 4 1
02/12/06 12:50 a -2.9 -2.7 -3.0 --- --- 5.2 ESE 0.09 6.1 -6.7 --- --- 717.8 0.015 0.000 9.2 4 1
02/12/06 12:51 a -2.7 -2.7 -2.7 --- --- 5.2 ESE 0.09 6.1 -6.4 --- --- 717.8 0.015 0.000 9.2 4 1
02/12/06 12:52 a -2.4 -2.3 -2.7 --- --- 6.1 ESE 0.10 7.0 -6.6 --- --- 717.8 0.014 0.000 9.2 4 1
02/12/06 12:53 a -2.2 -2.2 -2.3 --- --- 5.2 ESE 0.09 6.1 -5.8 --- --- 717.8 0.014 0.000 9.3 4 1
02/12/06 12:54 a -2.1 -1.9 -2.2 --- --- 4.3 E 0.07 6.1 -5.2 --- --- 717.8 0.014 0.000 9.2 4 1
02/12/06 12:55 a -2.2 -1.9 -2.4 --- --- 4.3 E 0.07 6.1 -5.3 --- --- 717.8 0.014 0.000 9.3 4 1
02/12/06 12:56 a -2.6 -2.4 -2.7 --- --- 5.2 E 0.09 7.0 -6.2 --- --- 717.8 0.015 0.000 9.3 4 1
02/12/06 12:57 a -3.1 -2.7 -3.4 --- --- 4.3 E 0.07 7.0 -6.3 --- --- 717.7 0.015 0.000 9.3 4 1
02/12/06 12:58 a -3.6 -3.4 -3.7 --- --- 4.3 E 0.07 6.1 -6.9 --- --- 717.8 0.015 0.000 9.3 4 1
02/12/06 12:59 a -3.8 -3.8 -3.9 --- --- 6.1 E 0.10 7.0 -8.2 --- --- 717.8 0.015 0.000 9.3 4 1
02/12/06 1:00 a -3.9 -3.9 -4.1 --- --- 5.2 ENE 0.09 7.0 -7.9 --- --- 717.8 0.015 0.000 9.3 4 1
02/12/06 1:01 a -4.1 -4.1 -4.1 --- --- 6.1 E 0.10 6.1 -8.5 --- --- 717.7 0.016 0.000 9.3 4 1
02/12/06 1:02 a -4.0 -3.9 -4.1 --- --- 5.2 E 0.09 7.0 -7.9 --- --- 717.8 0.016 0.000 9.3 4 1
02/12/06 1:03 a -3.8 -3.7 -3.8 --- --- 5.2 E 0.09 6.1 -7.7 --- --- 717.8 0.015 0.000 9.3 4 1
02/12/06 1:04 a -3.7 -3.6 -3.7 --- --- 5.2 E 0.09 7.0 -7.6 --- --- 717.9 0.015 0.000 9.3 4 1
02/12/06 1:05 a -3.6 -3.6 -3.7 --- --- 5.2 E 0.09 6.1 -7.5 --- --- 717.9 0.015 0.000 9.3 4 1
02/12/06 1:06 a -3.7 -3.6 -3.7 --- --- 4.3 E 0.07 6.1 -7.1 --- --- 717.9 0.015 0.000 9.3 4 1
02/12/06 1:07 a -3.5 -3.4 -3.5 --- --- 2.6 ESE 0.04 5.2 -5.4 --- --- 717.9 0.015 0.000 9.3 4 1
02/12/06 1:08 a -3.2 -3.1 -3.2 --- --- 3.5 ESE 0.06 4.3 -5.8 --- --- 718.0 0.015 0.000 9.3 4 1
02/12/06 1:09 a -3.1 -3.1 -3.1 --- --- 1.7 ESE 0.03 2.6 -3.9 --- --- 717.9 0.015 0.000 9.3 4 1
02/12/06 1:10 a -2.9 -2.9 -2.9 --- --- 1.7 ESE 0.03 3.5 -3.8 --- --- 718.0 0.015 0.000 9.3 4 1
02/12/06 1:11 a -2.6 -2.3 -2.9 --- --- 2.6 ESE 0.04 5.2 -4.4 --- --- 718.0 0.015 0.000 9.3 4 1
02/12/06 1:12 a -2.1 -1.9 -2.1 --- --- 5.2 SE 0.09 7.0 -5.7 --- --- 718.0 0.014 0.000 9.3 4 1
02/12/06 1:13 a -1.9 -1.9 -2.1 --- --- 6.1 SE 0.10 7.0 -5.9 --- --- 718.0 0.014 0.000 9.3 4 1
02/12/06 1:14 a -2.0 -1.9 -2.1 --- --- 6.1 SE 0.10 7.0 -6.0 --- --- 717.9 0.014 0.000 9.3 4 1
02/12/06 1:15 a -2.2 -2.1 -2.2 --- --- 5.2 SE 0.09 7.0 -5.8 --- --- 718.0 0.014 0.000 9.3 4 1
02/12/06 1:16 a -2.2 -1.9 -2.3 --- --- 6.1 SE 0.10 7.0 -6.2 --- --- 718.0 0.014 0.000 9.3 4 1
02/12/06 1:17 a -1.8 -1.8 -1.9 --- --- 5.2 SE 0.09 6.1 -5.4 --- --- 718.0 0.014 0.000 9.3 4 1
02/12/06 1:18 a -1.8 -1.8 -1.9 --- --- 5.2 SE 0.09 7.0 -5.4 --- --- 718.1 0.014 0.000 9.3 4 1
02/12/06 1:19 a -2.0 -1.9 -2.1 --- --- 7.8 SSE 0.13 9.6 -6.8 --- --- 718.0 0.014 0.000 9.3 4 1
02/12/06 1:20 a -1.9 -1.9 -2.1 --- --- 6.1 SE 0.10 8.7 -5.9 --- --- 718.0 0.014 0.000 9.3 4 1
02/12/06 1:21 a -2.1 -1.9 -2.1 --- --- 7.0 SE 0.12 8.7 -6.5 --- --- 718.0 0.014 0.000 9.2 4 1
02/12/06 1:22 a -2.2 -2.2 -2.3 --- --- 6.1 SE 0.10 7.8 -6.3 --- --- 718.0 0.014 0.000 9.2 4 1
02/12/06 1:23 a -2.1 -2.0 -2.3 --- --- 7.0 SE 0.12 7.8 -6.6 --- --- 718.0 0.014 0.000 9.2 4 1
02/12/06 1:24 a -2.3 -2.3 -2.4 --- --- 6.1 SE 0.10 7.0 -6.3 --- --- 718.0 0.014 0.000 9.2 4 1
02/12/06 1:25 a -2.3 -2.2 -2.4 --- --- 7.0 SE 0.12 7.8 -6.8 --- --- 718.1 0.014 0.000 9.2 4 1
02/12/06 1:26 a -2.2 -2.2 -2.3 --- --- 6.1 SE 0.10 7.0 -6.3 --- --- 718.0 0.014 0.000 9.2 4 1
02/12/06 1:27 a -2.2 -2.2 -2.4 --- --- 7.0 ESE 0.12 7.8 -6.7 --- --- 718.0 0.014 0.000 9.2 4 1
02/12/06 1:28 a -2.2 -2.1 -2.4 --- --- 7.0 ESE 0.12 7.8 -6.6 --- --- 718.0 0.014 0.000 9.2 4 1
02/12/06 1:29 a -1.8 -1.6 -2.1 --- --- 7.0 ESE 0.12 9.6 -6.2 --- --- 718.0 0.014 0.000 9.2 4 1
02/12/06 1:30 a -1.5 -1.4 -1.6 --- --- 6.1 ESE 0.10 7.8 -5.4 --- --- 718.0 0.014 0.000 9.2 4 1
02/12/06 1:31 a -1.6 -1.4 -2.1 --- --- 7.0 ESE 0.12 10.4 -5.9 --- --- 717.9 0.014 0.000 9.2 4 1
02/12/06 1:32 a -2.2 -2.1 -2.3 --- --- 6.1 ESE 0.10 7.8 -6.2 --- --- 718.1 0.014 0.000 9.2 4 1
02/12/06 1:33 a -2.4 -2.3 -2.5 --- --- 7.8 E 0.13 9.6 -7.2 --- --- 718.1 0.014 0.000 9.2 4 1
02/12/06 1:34 a -2.6 -2.5 -2.9 --- --- 7.8 ESE 0.13 10.4 -7.5 --- --- 718.0 0.015 0.000 9.2 4 1
02/12/06 1:35 a -2.9 -2.9 -3.1 --- --- 7.0 ESE 0.12 8.7 -7.5 --- --- 718.0 0.015 0.000 9.2 4 1
02/12/06 1:36 a -3.1 -3.1 -3.3 --- --- 7.0 ESE 0.12 12.2 -7.8 --- --- 718.1 0.015 0.000 9.2 4 1
02/12/06 1:37 a -3.6 -3.5 -3.7 --- --- 10.4 ESE 0.17 12.2 -9.7 --- --- 718.0 0.015 0.000 9.2 4 1
02/12/06 1:38 a -3.7 -3.5 -3.7 --- --- 8.7 ESE 0.14 11.3 -9.2 --- --- 718.1 0.015 0.000 9.2 4 1
02/12/06 1:39 a -3.4 -3.2 -3.5 --- --- 8.7 E 0.14 12.2 -8.8 --- --- 718.0 0.015 0.000 9.2 4 1
02/12/06 1:40 a -3.2 -3.1 -3.2 --- --- 9.6 E 0.16 12.2 -8.8 --- --- 718.1 0.015 0.000 9.2 4 1
02/12/06 1:41 a -3.1 -3.1 -3.1 --- --- 9.6 ESE 0.16 11.3 -8.8 --- --- 718.0 0.015 0.000 9.1 4 1
02/12/06 1:42 a -3.1 -3.0 -3.2 --- --- 9.6 ESE 0.16 12.2 -8.8 --- --- 718.0 0.015 0.000 9.1 4 1
02/12/06 1:43 a -2.9 -2.8 -3.0 --- --- 11.3 ESE 0.19 13.0 -9.0 --- --- 718.0 0.015 0.000 9.1 4 1
02/12/06 1:44 a -2.8 -2.8 -2.9 --- --- 11.3 ESE 0.19 13.9 -8.9 --- --- 718.0 0.015 0.000 9.1 4 1
02/12/06 1:45 a -2.9 -2.9 -3.0 --- --- 11.3 E 0.19 13.0 -9.1 --- --- 718.0 0.015 0.000 9.1 4 1
02/12/06 1:46 a -3.0 -2.9 -3.0 --- --- 13.9 ESE 0.23 15.7 -9.8 --- --- 718.1 0.015 0.000 9.1 4 1
02/12/06 1:47 a -3.1 -3.0 -3.2 --- --- 12.2 ESE 0.20 14.8 -9.6 --- --- 718.0 0.015 0.000 9.1 4 1
02/12/06 1:48 a -3.1 -3.0 -3.1 --- --- 12.2 ESE 0.20 13.9 -9.4 --- --- 718.1 0.015 0.000 9.1 4 1
02/12/06 1:49 a -3.3 -3.2 -3.3 --- --- 12.2 ESE 0.20 13.9 -9.8 --- --- 718.1 0.015 0.000 9.1 4 1
02/12/06 1:50 a -3.2 -3.1 -3.3 --- --- 12.2 ESE 0.20 13.0 -9.7 --- --- 718.0 0.015 0.000 9.1 4 1
02/12/06 1:51 a -2.9 -2.8 -3.0 --- --- 11.3 ESE 0.19 13.0 -9.1 --- --- 718.0 0.015 0.000 9.1 4 1
02/12/06 1:52 a -2.9 -2.9 -3.0 --- --- 10.4 ESE 0.17 12.2 -8.8 --- --- 718.1 0.015 0.000 9.1 4 1
02/12/06 1:53 a -3.1 -3.0 -3.1 --- --- 10.4 ESE 0.17 13.0 -8.9 --- --- 718.0 0.015 0.000 9.1 4 1
02/12/06 1:54 a -3.1 -3.0 -3.1 --- --- 9.6 ESE 0.16 12.2 -8.7 --- --- 718.0 0.015 0.000 9.1 4 1
02/12/06 1:55 a -3.0 -2.9 -3.1 --- --- 10.4 ESE 0.17 13.0 -8.9 --- --- 718.0 0.015 0.000 9.1 4 1
02/12/06 1:56 a -2.8 -2.8 -2.9 --- --- 10.4 ESE 0.17 12.2 -8.7 --- --- 718.1 0.015 0.000 9.1 4 1
02/12/06 1:57 a -3.1 -2.9 -3.2 --- --- 10.4 ESE 0.17 12.2 -8.9 --- --- 718.0 0.015 0.000 9.1 4 1
02/12/06 1:58 a -3.4 -3.3 -3.5 --- --- 10.4 E 0.17 12.2 -9.4 --- --- 718.1 0.015 0.000 9.1 4 1
02/12/06 1:59 a -3.6 -3.5 -3.7 --- --- 10.4 ESE 0.17 13.0 -9.6 --- --- 718.1 0.015 0.000 9.0 4 1
02/12/06 2:00 a -3.4 -3.3 -3.6 --- --- 11.3 ESE 0.19 12.2 -9.7 --- --- 718.0 0.015 0.000 9.0 4 1
02/12/06 2:01 a -3.2 -3.2 -3.3 --- --- 9.6 E 0.16 11.3 -8.9 --- --- 718.0 0.015 0.000 9.0 4 1
02/12/06 2:02 a -3.2 -3.2 -3.2 --- --- 11.3 ESE 0.19 13.0 -9.4 --- --- 718.1 0.015 0.000 9.1 4 1
02/12/06 2:03 a -3.2 -3.1 -3.2 --- --- 12.2 ESE 0.20 13.0 -9.6 --- --- 718.1 0.015 0.000 9.1 4 1
02/12/06 2:04 a -3.2 -3.1 -3.3 --- --- 11.3 ESE 0.19 13.0 -9.4 --- --- 718.0 0.015 0.000 9.1 4 1
02/12/06 2:05 a -3.2 -3.1 -3.3 --- --- 12.2 ESE 0.20 13.0 -9.7 --- --- 718.1 0.015 0.000 9.0 4 1
02/12/06 2:06 a -3.2 -3.1 -3.2 --- --- 12.2 ESE 0.20 13.9 -9.6 --- --- 718.0 0.015 0.000 9.1 4 1
02/12/06 2:07 a -3.1 -3.1 -3.2 --- --- 13.0 ESE 0.22 14.8 -9.8 --- --- 718.0 0.015 0.000 9.0 4 1
02/12/06 2:08 a -3.2 -3.1 -3.4 --- --- 13.0 ESE 0.22 13.9 -9.8 --- --- 718.0 0.015 0.000 9.0 4 1
02/12/06 2:09 a -3.5 -3.4 -3.6 --- --- 12.2 ESE 0.20 13.9 -10.1 --- --- 718.0 0.015 0.000 9.0 4 1
02/12/06 2:10 a -3.4 -3.3 -3.6 --- --- 13.0 ESE 0.22 13.9 -10.2 --- --- 718.1 0.015 0.000 9.0 4 1
02/12/06 2:11 a -3.5 -3.4 -3.6 --- --- 12.2 ESE 0.20 13.9 -10.1 --- --- 718.1 0.015 0.000 9.0 4 1
02/12/06 2:12 a -3.3 -3.2 -3.4 --- --- 12.2 ESE 0.20 13.0 -9.8 --- --- 718.1 0.015 0.000 9.0 4 1
02/12/06 2:13 a -3.4 -3.4 -3.7 --- --- 12.2 ESE 0.20 13.0 -9.9 --- --- 718.1 0.015 0.000 9.0 4 1
02/12/06 2:14 a -3.7 -3.7 -3.8 --- --- 12.2 ESE 0.20 13.0 -10.3 --- --- 718.1 0.015 0.000 9.0 4 1
02/12/06 2:15 a -3.5 -3.3 -3.7 --- --- 12.2 ESE 0.20 13.0 -10.1 --- --- 718.0 0.015 0.000 9.0 4 1
02/12/06 2:16 a -3.4 -3.4 -3.4 --- --- 12.2 ESE 0.20 13.9 -9.9 --- --- 718.0 0.015 0.000 9.0 4 1
02/12/06 2:17 a -3.6 -3.5 -3.7 --- --- 13.9 ESE 0.23 14.8 -10.6 --- --- 718.0 0.015 0.000 9.0 4 1
02/12/06 2:18 a -3.6 -3.5 -3.7 --- --- 13.0 ESE 0.22 14.8 -10.4 --- --- 718.1 0.015 0.000 9.0 4 1
02/12/06 2:19 a -3.4 -3.3 -3.5 --- --- 13.0 ESE 0.22 13.9 -10.2 --- --- 718.1 0.015 0.000 9.0 4 1
02/12/06 2:20 a -3.3 -3.2 -3.4 --- --- 13.0 ESE 0.22 15.7 -10.1 --- --- 718.0 0.015 0.000 9.0 4 1
02/12/06 2:21 a -3.2 -3.2 -3.3 --- --- 13.0 ESE 0.22 14.8 -9.9 --- --- 718.1 0.015 0.000 9.0 4 1
02/12/06 2:22 a -3.1 -3.1 -3.2 --- --- 13.9 ESE 0.23 14.8 -10.0 --- --- 718.0 0.015 0.000 9.0 4 1
02/12/06 2:23 a -3.2 -3.2 -3.3 --- --- 13.0 ESE 0.22 15.7 -9.9 --- --- 718.1 0.015 0.000 8.9 4 1
02/12/06 2:24 a -3.1 -2.9 -3.2 --- --- 13.0 ESE 0.22 13.9 -9.8 --- --- 718.2 0.015 0.000 9.0 4 1
02/12/06 2:25 a -3.0 -2.9 -3.1 --- --- 13.0 ESE 0.22 13.9 -9.6 --- --- 718.1 0.015 0.000 8.9 4 1
02/12/06 2:26 a -3.2 -3.1 -3.6 --- --- 13.0 ESE 0.22 13.9 -9.9 --- --- 718.2 0.015 0.000 8.9 4 1
02/12/06 2:27 a -3.7 -3.6 -3.7 --- --- 13.0 ESE 0.22 13.9 -10.5 --- --- 718.1 0.015 0.000 8.9 4 1
02/12/06 2:28 a -3.8 -3.7 -3.9 --- --- 13.0 ESE 0.22 13.9 -10.7 --- --- 718.0 0.015 0.000 8.9 4 1
02/12/06 2:29 a -3.9 -3.8 -4.0 --- --- 13.9 ESE 0.23 14.8 -11.0 --- --- 718.1 0.015 0.000 8.9 4 1
02/12/06 2:30 a -4.0 -3.9 -4.1 --- --- 13.9 ESE 0.23 15.7 -11.1 --- --- 718.0 0.016 0.000 8.9 4 1
02/12/06 2:31 a -4.2 -4.2 -4.3 --- --- 13.0 ESE 0.22 14.8 -11.2 --- --- 718.1 0.016 0.000 8.9 4 1
02/12/06 2:32 a -4.2 -4.1 -4.3 --- --- 13.9 ESE 0.23 15.7 -11.3 --- --- 718.1 0.016 0.000 8.9 4 1
02/12/06 2:33 a -4.3 -4.3 -4.3 --- --- 13.9 ESE 0.23 14.8 -11.5 --- --- 718.1 0.016 0.000 8.9 4 1
02/12/06 2:34 a -4.3 -4.2 -4.4 --- --- 14.8 ESE 0.25 15.7 -11.8 --- --- 718.1 0.016 0.000 8.9 4 1
02/12/06 2:35 a -4.3 -4.3 -4.4 --- --- 14.8 ESE 0.25 15.7 -11.8 --- --- 718.1 0.016 0.000 8.9 4 1
02/12/06 2:36 a -4.3 -4.2 -4.5 --- --- 14.8 ESE 0.25 16.5 -11.8 --- --- 718.1 0.016 0.000 8.9 4 1
02/12/06 2:37 a -4.5 -4.4 -4.5 --- --- 13.9 ESE 0.23 15.7 -11.8 --- --- 718.1 0.016 0.000 8.9 4 1
02/12/06 2:38 a -4.3 -4.2 -4.3 --- --- 14.8 ESE 0.25 16.5 -11.7 --- --- 718.1 0.016 0.000 8.9 4 1
02/12/06 2:39 a -4.3 -4.1 -4.4 --- --- 13.9 ESE 0.23 14.8 -11.5 --- --- 718.1 0.016 0.000 8.9 4 1
02/12/06 2:40 a -4.1 -3.9 -4.1 --- --- 13.9 ESE 0.23 15.7 -11.2 --- --- 718.1 0.016 0.000 8.9 4 1
02/12/06 2:41 a -4.2 -4.1 -4.3 --- --- 14.8 ESE 0.25 15.7 -11.6 --- --- 718.1 0.016 0.000 8.9 4 1
02/12/06 2:42 a -4.4 -4.3 -4.4 --- --- 14.8 ESE 0.25 16.5 -11.8 --- --- 718.0 0.016 0.000 8.9 4 1
02/12/06 2:43 a -4.3 -4.2 -4.4 --- --- 15.7 ESE 0.26 17.4 -11.9 --- --- 718.1 0.016 0.000 8.9 4 1
02/12/06 2:44 a -4.0 -3.9 -4.1 --- --- 15.7 ESE 0.26 16.5 -11.6 --- --- 718.0 0.016 0.000 8.9 4 1
02/12/06 2:45 a -3.8 -3.8 -3.9 --- --- 13.9 E 0.23 17.4 -10.9 --- --- 718.0 0.015 0.000 8.9 4 1
02/12/06 2:46 a -4.1 -3.9 -4.2 --- --- 14.8 E 0.25 16.5 -11.4 --- --- 718.0 0.016 0.000 8.9 4 1
02/12/06 2:47 a -4.2 -4.2 -4.2 --- --- 13.0 ESE 0.22 15.7 -11.1 --- --- 718.1 0.016 0.000 8.9 4 1
02/12/06 2:48 a -4.2 -4.2 -4.3 --- --- 13.9 E 0.23 16.5 -11.4 --- --- 718.0 0.016 0.000 8.9 4 1
02/12/06 2:49 a -4.3 -4.3 -4.6 --- --- 13.9 E 0.23 16.5 -11.5 --- --- 718.0 0.016 0.000 8.9 4 1
02/12/06 2:50 a -4.6 -4.6 -4.7 --- --- 13.0 E 0.22 15.7 -11.7 --- --- 718.0 0.016 0.000 9.0 4 1
02/12/06 2:51 a -4.8 -4.7 -4.8 --- --- 14.8 E 0.25 17.4 -12.3 --- --- 718.1 0.016 0.000 9.0 4 1
02/12/06 2:52 a -4.8 -4.7 -4.8 --- --- 13.9 E 0.23 15.7 -12.1 --- --- 718.0 0.016 0.000 9.0 4 1
02/12/06 2:53 a -4.8 -4.7 -4.9 --- --- 15.7 E 0.26 19.1 -12.6 --- --- 718.0 0.016 0.000 9.1 4 1
02/12/06 2:54 a -4.9 -4.9 -5.1 --- --- 15.7 E 0.26 19.1 -12.8 --- --- 718.1 0.016 0.000 9.1 4 1
02/12/06 2:55 a -5.0 -5.0 -5.1 --- --- 14.8 E 0.25 18.3 -12.6 --- --- 718.1 0.016 0.000 9.1 4 1
02/12/06 2:56 a -5.0 -4.9 -5.1 --- --- 13.9 E 0.23 17.4 -12.4 --- --- 718.0 0.016 0.000 9.1 4 1
02/12/06 2:57 a -4.9 -4.8 -4.9 --- --- 14.8 E 0.25 18.3 -12.5 --- --- 718.1 0.016 0.000 9.1 4 1
02/12/06 2:58 a -4.9 -4.8 -4.9 --- --- 15.7 E 0.26 16.5 -12.7 --- --- 718.0 0.016 0.000 9.1 4 1
02/12/06 2:59 a -4.9 -4.8 -4.9 --- --- 14.8 E 0.25 18.3 -12.5 --- --- 718.0 0.016 0.000 9.2 4 1
02/12/06 3:00 a -4.9 -4.8 -5.1 --- --- 14.8 E 0.25 18.3 -12.5 --- --- 718.0 0.016 0.000 9.2 4 1
02/12/06 3:01 a -5.2 -5.1 -5.2 --- --- 14.8 E 0.25 17.4 -12.8 --- --- 718.1 0.016 0.000 9.2 4 1
02/12/06 3:02 a -5.2 -5.2 -5.4 --- --- 14.8 E 0.25 17.4 -12.9 --- --- 718.0 0.016 0.000 9.2 4 1
02/12/06 3:03 a -5.3 -5.2 -5.3 --- --- 13.9 E 0.23 16.5 -12.8 --- --- 718.1 0.016 0.000 9.2 4 1
02/12/06 3:04 a -5.2 -5.2 -5.2 --- --- 13.9 E 0.23 17.4 -12.7 --- --- 718.1 0.016 0.000 9.2 4 1
02/12/06 3:05 a -5.3 -5.3 -5.4 --- --- 13.0 E 0.22 16.5 -12.6 --- --- 718.0 0.016 0.000 9.2 4 1
02/12/06 3:06 a -5.4 -5.4 -5.6 --- --- 11.3 E 0.19 14.8 -12.2 --- --- 718.0 0.017 0.000 9.2 4 1
02/12/06 3:07 a -5.7 -5.7 -5.7 --- --- 13.0 E 0.22 16.5 -13.1 --- --- 718.0 0.017 0.000 9.3 4 1
02/12/06 3:08 a -5.9 -5.9 -6.1 --- --- 13.0 E 0.22 15.7 -13.4 --- --- 718.0 0.017 0.000 9.3 4 1
02/12/06 3:09 a -6.1 -6.0 -6.2 --- --- 13.0 E 0.22 15.7 -13.6 --- --- 718.1 0.017 0.000 9.3 4 1
02/12/06 3:10 a -6.1 -6.1 -6.2 --- --- 13.0 E 0.22 16.5 -13.6 --- --- 718.1 0.017 0.000 9.3 4 1
02/12/06 3:11 a -6.1 -6.1 -6.2 --- --- 12.2 E 0.20 15.7 -13.3 --- --- 718.1 0.017 0.000 9.3 4 1
02/12/06 3:12 a -6.1 -6.0 -6.1 --- --- 13.0 E 0.22 14.8 -13.6 --- --- 718.1 0.017 0.000 9.3 4 1
02/12/06 3:13 a -6.0 -6.0 -6.1 --- --- 12.2 E 0.20 13.9 -13.2 --- --- 718.1 0.017 0.000 9.3 4 1
02/12/06 3:14 a -6.1 -6.1 -6.2 --- --- 13.0 E 0.22 16.5 -13.6 --- --- 718.0 0.017 0.000 9.3 4 1
02/12/06 3:15 a -6.3 -6.2 -6.3 --- --- 13.0 E 0.22 15.7 -13.8 --- --- 718.0 0.017 0.000 9.4 4 1
02/12/06 3:16 a -6.4 -6.3 -6.4 --- --- 13.0 E 0.22 16.5 -13.9 --- --- 718.0 0.017 0.000 9.4 4 1
02/12/06 3:17 a -6.3 -6.2 -6.3 --- --- 13.9 E 0.23 16.5 -14.1 --- --- 718.0 0.017 0.000 9.4 4 1
02/12/06 3:18 a -6.4 -6.4 -6.6 --- --- 13.9 E 0.23 15.7 -14.3 --- --- 718.1 0.017 0.000 9.4 4 1
02/12/06 3:19 a -6.6 -6.6 -6.6 --- --- 12.2 E 0.20 14.8 -13.9 --- --- 718.0 0.017 0.000 9.4 4 1
02/12/06 3:20 a -6.6 -6.6 -6.7 --- --- 12.2 E 0.20 14.8 -14.0 --- --- 717.9 0.017 0.000 9.4 4 1
02/12/06 3:21 a -6.4 -6.4 -6.6 --- --- 12.2 E 0.20 14.8 -13.8 --- --- 718.0 0.017 0.000 9.4 4 1
02/12/06 3:22 a -6.4 -6.4 -6.4 --- --- 13.0 E 0.22 15.7 -14.1 --- --- 718.0 0.017 0.000 9.4 4 1
02/12/06 3:23 a -6.4 -6.4 -6.5 --- --- 14.8 E 0.25 17.4 -14.5 --- --- 718.0 0.017 0.000 9.5 4 1
02/12/06 3:24 a -6.7 -6.6 -6.7 --- --- 13.9 E 0.23 15.7 -14.6 --- --- 718.0 0.017 0.000 9.5 4 1
02/12/06 3:25 a -6.7 -6.7 -6.7 --- --- 14.8 ENE 0.25 16.5 -14.9 --- --- 718.0 0.017 0.000 9.5 4 1
02/12/06 3:26 a -6.8 -6.8 -6.8 --- --- 13.0 E 0.22 15.7 -14.4 --- --- 718.0 0.017 0.000 9.5 4 1
02/12/06 3:27 a -6.8 -6.8 -6.9 --- --- 13.9 E 0.23 16.5 -14.8 --- --- 718.0 0.017 0.000 9.5 4 1
02/12/06 3:28 a -6.9 -6.9 -7.0 --- --- 14.8 E 0.25 17.4 -15.2 --- --- 718.0 0.018 0.000 9.6 4 1
02/12/06 3:29 a -6.9 -6.9 -6.9 --- --- 13.0 E 0.22 15.7 -14.7 --- --- 718.0 0.018 0.000 9.6 4 1
02/12/06 3:30 a -7.0 -6.9 -7.0 --- --- 13.9 E 0.23 16.5 -15.0 --- --- 718.0 0.018 0.000 9.6 4 1
02/12/06 3:31 a -6.9 -6.9 -7.0 --- --- 13.9 E 0.23 17.4 -14.9 --- --- 718.0 0.018 0.000 9.6 4 1
02/12/06 3:32 a -7.0 -7.0 -7.0 --- --- 13.9 E 0.23 15.7 -15.0 --- --- 718.0 0.018 0.000 9.6 4 1
02/12/06 3:33 a -7.0 -7.0 -7.1 --- --- 14.8 E 0.25 16.5 -15.2 --- --- 718.0 0.018 0.000 9.6 4 1
02/12/06 3:34 a -7.1 -7.1 -7.1 --- --- 14.8 E 0.25 17.4 -15.3 --- --- 718.0 0.018 0.000 9.6 4 1
02/12/06 3:35 a -7.2 -7.2 -7.2 --- --- 15.7 E 0.26 20.0 -15.7 --- --- 718.0 0.018 0.000 9.6 4 1
02/12/06 3:36 a -7.3 -7.2 -7.3 --- --- 14.8 E 0.25 19.1 -15.6 --- --- 717.9 0.018 0.000 9.7 4 1
02/12/06 3:37 a -7.2 -7.2 -7.3 --- --- 16.5 ENE 0.28 19.1 -15.9 --- --- 717.9 0.018 0.000 9.7 4 1
02/12/06 3:38 a -7.1 -7.1 -7.1 --- --- 15.7 ENE 0.26 18.3 -15.6 --- --- 718.0 0.018 0.000 9.7 4 1
02/12/06 3:39 a -7.1 -7.1 -7.1 --- --- 14.8 E 0.25 16.5 -15.4 --- --- 718.0 0.018 0.000 9.7 4 1
02/12/06 3:40 a -7.1 -7.1 -7.1 --- --- 14.8 E 0.25 17.4 -15.4 --- --- 718.0 0.018 0.000 9.7 4 1
02/12/06 3:41 a -7.1 -7.0 -7.1 --- --- 13.9 ENE 0.23 16.5 -15.1 --- --- 717.9 0.018 0.000 9.7 4 1
02/12/06 3:42 a -6.9 -6.9 -6.9 --- --- 13.9 E 0.23 15.7 -14.8 --- --- 718.1 0.018 0.000 9.7 4 1
02/12/06 3:43 a -6.9 -6.9 -6.9 --- --- 14.8 E 0.25 16.5 -15.1 --- --- 718.1 0.018 0.000 9.7 4 1
02/12/06 3:44 a -6.9 -6.9 -6.9 --- --- 14.8 E 0.25 16.5 -15.2 --- --- 718.1 0.018 0.000 9.7 4 1
02/12/06 3:45 a -6.9 -6.9 -6.9 --- --- 13.9 E 0.23 16.5 -14.9 --- --- 718.1 0.018 0.000 9.7 4 1
02/12/06 3:46 a -6.9 -6.8 -6.9 --- --- 14.8 E 0.25 17.4 -15.1 --- --- 718.1 0.018 0.000 9.7 4 1
02/12/06 3:47 a -6.9 -6.9 -6.9 --- --- 15.7 E 0.26 17.4 -15.3 --- --- 718.1 0.018 0.000 9.7 4 1
02/12/06 3:48 a -6.8 -6.8 -6.9 --- --- 14.8 ENE 0.25 17.4 -15.0 --- --- 718.1 0.017 0.000 9.7 4 1
02/12/06 3:49 a -6.7 -6.7 -6.8 --- --- 14.8 ENE 0.25 17.4 -14.9 --- --- 718.0 0.017 0.000 9.7 4 1
02/12/06 3:50 a -6.7 -6.7 -6.7 --- --- 13.9 ENE 0.23 17.4 -14.6 --- --- 718.0 0.017 0.000 9.7 4 1
02/12/06 3:51 a -6.7 -6.7 -6.7 --- --- 14.8 ENE 0.25 17.4 -14.8 --- --- 718.1 0.017 0.000 9.7 4 1
02/12/06 3:52 a -6.7 -6.7 -6.8 --- --- 14.8 ENE 0.25 16.5 -14.9 --- --- 718.1 0.017 0.000 9.7 4 1
02/12/06 3:53 a -6.7 -6.7 -6.8 --- --- 14.8 E 0.25 16.5 -14.9 --- --- 718.1 0.017 0.000 9.7 4 1
02/12/06 3:54 a -6.7 -6.7 -6.8 --- --- 13.9 E 0.23 16.5 -14.6 --- --- 718.1 0.017 0.000 9.6 4 1
02/12/06 3:55 a -6.7 -6.7 -6.8 --- --- 13.9 E 0.23 15.7 -14.6 --- --- 718.1 0.017 0.000 9.6 4 1
02/12/06 3:56 a -6.7 -6.6 -6.8 --- --- 12.2 E 0.20 13.9 -14.1 --- --- 718.1 0.017 0.000 9.6 4 1
02/12/06 3:57 a -6.6 -6.4 -6.6 --- --- 13.0 E 0.22 15.7 -14.2 --- --- 718.1 0.017 0.000 9.6 4 1
02/12/06 3:58 a -6.4 -6.4 -6.5 --- --- 13.9 E 0.23 16.5 -14.3 --- --- 718.1 0.017 0.000 9.6 4 1
02/12/06 3:59 a -6.5 -6.4 -6.6 --- --- 13.0 E 0.22 16.5 -14.1 --- --- 718.1 0.017 0.000 9.6 4 1
02/12/06 4:00 a -6.7 -6.6 -6.7 --- --- 13.0 E 0.22 15.7 -14.3 --- --- 718.1 0.017 0.000 9.6 4 1
02/12/06 4:01 a -6.7 -6.7 -6.8 --- --- 13.0 E 0.22 15.7 -14.4 --- --- 718.2 0.017 0.000 9.6 4 1
02/12/06 4:02 a -6.8 -6.8 -6.9 --- --- 13.9 E 0.23 17.4 -14.8 --- --- 718.1 0.017 0.000 9.6 4 1
02/12/06 4:03 a -6.8 -6.8 -6.9 --- --- 12.2 E 0.20 14.8 -14.3 --- --- 718.1 0.017 0.000 9.6 4 1
02/12/06 4:04 a -6.8 -6.8 -6.8 --- --- 13.9 E 0.23 17.4 -14.7 --- --- 718.1 0.017 0.000 9.6 4 1
02/12/06 4:05 a -6.8 -6.8 -6.8 --- --- 14.8 E 0.25 16.5 -14.9 --- --- 718.1 0.017 0.000 9.6 4 1
02/12/06 4:06 a -6.8 -6.8 -6.8 --- --- 13.9 E 0.23 16.5 -14.8 --- --- 718.1 0.017 0.000 9.6 4 1
02/12/06 4:07 a -6.8 -6.8 -6.9 --- --- 12.2 E 0.20 15.7 -14.3 --- --- 718.1 0.017 0.000 9.6 4 1
02/12/06 4:08 a -6.8 -6.7 -6.8 --- --- 12.2 E 0.20 14.8 -14.2 --- --- 718.1 0.017 0.000 9.6 4 1
02/12/06 4:09 a -6.7 -6.7 -6.7 --- --- 13.9 E 0.23 16.5 -14.6 --- --- 718.1 0.017 0.000 9.5 4 1
02/12/06 4:10 a -6.7 -6.6 -6.7 --- --- 13.0 E 0.22 14.8 -14.3 --- --- 718.2 0.017 0.000 9.6 4 1
02/12/06 4:11 a -6.6 -6.6 -6.6 --- --- 12.2 E 0.20 14.8 -13.9 --- --- 718.1 0.017 0.000 9.5 4 1
02/12/06 4:12 a -6.5 -6.4 -6.6 --- --- 12.2 E 0.20 15.7 -13.8 --- --- 718.1 0.017 0.000 9.6 4 1
02/12/06 4:13 a -6.6 -6.5 -6.6 --- --- 14.8 E 0.25 16.5 -14.7 --- --- 718.2 0.017 0.000 9.6 4 1
02/12/06 4:14 a -6.6 -6.6 -6.6 --- --- 13.0 E 0.22 15.7 -14.2 --- --- 718.0 0.017 0.000 9.6 4 1
02/12/06 4:15 a -6.6 -6.6 -6.6 --- --- 14.8 E 0.25 16.5 -14.7 --- --- 718.1 0.017 0.000 9.5 4 1
02/12/06 4:16 a -6.7 -6.6 -6.7 --- --- 13.9 E 0.23 16.5 -14.6 --- --- 718.1 0.017 0.000 9.5 4 1
02/12/06 4:17 a -6.7 -6.7 -6.7 --- --- 14.8 ENE 0.25 17.4 -14.8 --- --- 718.2 0.017 0.000 9.5 4 1
02/12/06 4:18 a -6.7 -6.7 -6.7 --- --- 14.8 ENE 0.25 16.5 -14.9 --- --- 718.2 0.017 0.000 9.5 4 1
02/12/06 4:19 a -6.6 -6.5 -6.7 --- --- 13.0 E 0.22 15.7 -14.3 --- --- 718.1 0.017 0.000 9.5 4 1
02/12/06 4:20 a -6.5 -6.5 -6.5 --- --- 13.9 E 0.23 15.7 -14.3 --- --- 718.2 0.017 0.000 9.5 4 1
02/12/06 4:21 a -6.4 -6.4 -6.4 --- --- 13.0 E 0.22 16.5 -14.1 --- --- 718.2 0.017 0.000 9.5 4 1
02/12/06 4:22 a -6.5 -6.4 -6.5 --- --- 13.0 E 0.22 15.7 -14.1 --- --- 718.2 0.017 0.000 9.5 4 1
02/12/06 4:23 a -6.5 -6.5 -6.6 --- --- 13.9 E 0.23 15.7 -14.3 --- --- 718.3 0.017 0.000 9.5 4 1
02/12/06 4:24 a -6.7 -6.6 -6.7 --- --- 13.9 E 0.23 17.4 -14.6 --- --- 718.2 0.017 0.000 9.5 4 1
02/12/06 4:25 a -6.8 -6.8 -6.8 --- --- 14.8 E 0.25 17.4 -14.9 --- --- 718.2 0.017 0.000 9.5 4 1
02/12/06 4:26 a -6.9 -6.9 -6.9 --- --- 13.9 E 0.23 16.5 -14.8 --- --- 718.3 0.018 0.000 9.5 4 1
02/12/06 4:27 a -6.9 -6.9 -7.0 --- --- 13.0 E 0.22 16.5 -14.7 --- --- 718.3 0.018 0.000 9.5 4 1
02/12/06 4:28 a -6.9 -6.9 -7.0 --- --- 13.0 E 0.22 16.5 -14.7 --- --- 718.2 0.018 0.000 9.5 4 1
02/12/06 4:29 a -6.8 -6.8 -6.8 --- --- 13.9 E 0.23 15.7 -14.8 --- --- 718.3 0.017 0.000 9.4 4 1
02/12/06 4:30 a -6.7 -6.7 -6.8 --- --- 14.8 E 0.25 16.5 -14.9 --- --- 718.3 0.017 0.000 9.4 4 1
02/12/06 4:31 a -6.6 -6.6 -6.7 --- --- 13.9 E 0.23 15.7 -14.5 --- --- 718.3 0.017 0.000 9.4 4 1
02/12/06 4:32 a -6.6 -6.6 -6.7 --- --- 14.8 E 0.25 15.7 -14.7 --- --- 718.2 0.017 0.000 9.4 4 1
02/12/06 4:33 a -6.8 -6.8 -6.8 --- --- 13.0 E 0.22 15.7 -14.4 --- --- 718.3 0.017 0.000 9.4 4 1
02/12/06 4:34 a -6.8 -6.8 -6.8 --- --- 13.9 ENE 0.23 15.7 -14.8 --- --- 718.3 0.017 0.000 9.4 4 1
02/12/06 4:35 a -6.8 -6.8 -6.8 --- --- 13.9 E 0.23 15.7 -14.8 --- --- 718.3 0.017 0.000 9.4 4 1
02/12/06 4:36 a -6.7 -6.7 -6.8 --- --- 13.0 E 0.22 15.7 -14.4 --- --- 718.3 0.017 0.000 9.4 4 1
02/12/06 4:37 a -6.7 -6.7 -6.7 --- --- 13.0 E 0.22 15.7 -14.4 --- --- 718.3 0.017 0.000 9.4 4 1
02/12/06 4:38 a -6.8 -6.7 -6.8 --- --- 13.0 ENE 0.22 14.8 -14.4 --- --- 718.3 0.017 0.000 9.4 4 1
02/12/06 4:39 a -6.8 -6.8 -6.8 --- --- 13.0 E 0.22 14.8 -14.4 --- --- 718.3 0.017 0.000 9.4 4 1
02/12/06 4:40 a -6.8 -6.7 -6.8 --- --- 13.0 E 0.22 14.8 -14.4 --- --- 718.4 0.017 0.000 9.4 4 1
02/12/06 4:41 a -6.8 -6.7 -6.8 --- --- 12.2 E 0.20 13.9 -14.2 --- --- 718.2 0.017 0.000 9.4 4 1
02/12/06 4:42 a -6.8 -6.8 -6.8 --- --- 13.9 ENE 0.23 14.8 -14.7 --- --- 718.3 0.017 0.000 9.4 4 1
02/12/06 4:43 a -6.8 -6.7 -6.8 --- --- 13.9 E 0.23 15.7 -14.7 --- --- 718.3 0.017 0.000 9.4 4 1
02/12/06 4:44 a -6.7 -6.7 -6.8 --- --- 14.8 E 0.25 16.5 -14.9 --- --- 718.3 0.017 0.000 9.4 4 1
02/12/06 4:45 a -6.8 -6.8 -6.9 --- --- 13.9 ENE 0.23 16.5 -14.8 --- --- 718.2 0.017 0.000 9.5 4 1
02/12/06 4:46 a -6.9 -6.8 -6.9 --- --- 13.9 ENE 0.23 15.7 -14.8 --- --- 718.4 0.018 0.000 9.5 4 1
02/12/06 4:47 a -6.8 -6.8 -6.9 --- --- 13.9 E 0.23 15.7 -14.8 --- --- 718.3 0.017 0.000 9.6 4 1
02/12/06 4:48 a -6.9 -6.9 -6.9 --- --- 13.9 E 0.23 15.7 -14.8 --- --- 718.3 0.018 0.000 9.6 4 1
02/12/06 4:49 a -6.9 -6.9 -6.9 --- --- 13.0 ENE 0.22 14.8 -14.6 --- --- 718.3 0.018 0.000 9.6 4 1
02/12/06 4:50 a -6.9 -6.8 -6.9 --- --- 12.2 ENE 0.20 13.9 -14.3 --- --- 718.3 0.018 0.000 9.6 4 1
02/12/06 4:51 a -6.8 -6.7 -6.8 --- --- 13.9 ENE 0.23 14.8 -14.7 --- --- 718.4 0.017 0.000 9.6 4 1
02/12/06 4:52 a -6.6 -6.4 -6.7 --- --- 13.0 ENE 0.22 14.8 -14.2 --- --- 718.4 0.017 0.000 9.6 4 1
02/12/06 4:53 a -6.3 -6.3 -6.4 --- --- 13.9 ENE 0.23 15.7 -14.1 --- --- 718.4 0.017 0.000 9.6 4 1
02/12/06 4:54 a -6.3 -6.3 -6.3 --- --- 13.0 ENE 0.22 14.8 -13.8 --- --- 718.4 0.017 0.000 9.7 4 1
02/12/06 4:55 a -6.3 -6.3 -6.3 --- --- 13.0 ENE 0.22 13.9 -13.9 --- --- 718.4 0.017 0.000 9.7 4 1
02/12/06 4:56 a -6.3 -6.3 -6.4 --- --- 13.0 ENE 0.22 15.7 -13.9 --- --- 718.3 0.017 0.000 9.7 4 1
02/12/06 4:57 a -6.4 -6.4 -6.6 --- --- 13.0 ENE 0.22 15.7 -14.1 --- --- 718.4 0.017 0.000 9.7 4 1
02/12/06 4:58 a -6.7 -6.6 -6.8 --- --- 13.9 ENE 0.23 15.7 -14.6 --- --- 718.4 0.017 0.000 9.7 5 1
02/12/06 4:59 a -6.9 -6.9 -6.9 --- --- 13.9 E 0.23 15.7 -14.8 --- --- 718.4 0.018 0.000 9.7 4 1
02/12/06 5:00 a -6.9 -6.9 -6.9 --- --- 13.9 E 0.23 16.5 -14.9 --- --- 718.4 0.018 0.000 9.7 4 1
02/12/06 5:01 a -6.9 -6.9 -6.9 --- --- 13.9 E 0.23 15.7 -14.9 --- --- 718.4 0.018 0.000 9.8 4 1
02/12/06 5:02 a -6.8 -6.8 -6.9 --- --- 14.8 ENE 0.25 16.5 -15.0 --- --- 718.4 0.017 0.000 9.8 4 1
02/12/06 5:03 a -6.9 -6.9 -6.9 --- --- 14.8 ENE 0.25 16.5 -15.1 --- --- 718.4 0.018 0.000 9.8 4 1
02/12/06 5:04 a -6.9 -6.9 -6.9 --- --- 14.8 E 0.25 16.5 -15.2 --- --- 718.4 0.018 0.000 9.8 4 1
02/12/06 5:05 a -6.9 -6.8 -6.9 --- --- 13.9 E 0.23 16.5 -14.8 --- --- 718.5 0.018 0.000 9.8 4 1
02/12/06 5:06 a -6.8 -6.8 -6.8 --- --- 14.8 E 0.25 16.5 -15.0 --- --- 718.5 0.017 0.000 9.8 4 1
02/12/06 5:07 a -6.9 -6.9 -6.9 --- --- 13.9 ENE 0.23 17.4 -14.8 --- --- 718.5 0.018 0.000 9.8 4 1
02/12/06 5:08 a -6.9 -6.9 -6.9 --- --- 13.9 E 0.23 15.7 -14.9 --- --- 718.5 0.018 0.000 9.9 4 1
02/12/06 5:09 a -7.0 -6.9 -7.1 --- --- 14.8 ENE 0.25 16.5 -15.2 --- --- 718.4 0.018 0.000 9.9 4 1
02/12/06 5:10 a -7.1 -7.1 -7.1 --- --- 14.8 ENE 0.25 16.5 -15.3 --- --- 718.4 0.018 0.000 9.9 4 1
02/12/06 5:11 a -7.2 -7.1 -7.2 --- --- 15.7 E 0.26 18.3 -15.7 --- --- 718.4 0.018 0.000 9.9 4 1
02/12/06 5:12 a -7.2 -7.2 -7.2 --- --- 14.8 E 0.25 16.5 -15.4 --- --- 718.5 0.018 0.000 9.9 4 1
02/12/06 5:13 a -7.1 -7.1 -7.2 --- --- 14.8 E 0.25 17.4 -15.4 --- --- 718.5 0.018 0.000 9.9 4 1
02/12/06 5:14 a -7.1 -7.1 -7.1 --- --- 14.8 E 0.25 17.4 -15.4 --- --- 718.4 0.018 0.000 9.9 4 1
02/12/06 5:15 a -7.1 -7.1 -7.1 --- --- 13.9 E 0.23 16.5 -15.1 --- --- 718.4 0.018 0.000 10.0 4 1
02/12/06 5:16 a -7.1 -7.1 -7.1 --- --- 13.9 E 0.23 16.5 -15.1 --- --- 718.5 0.018 0.000 10.0 4 1
02/12/06 5:17 a -7.1 -7.1 -7.1 --- --- 14.8 E 0.25 16.5 -15.4 --- --- 718.6 0.018 0.000 10.0 4 1
02/12/06 5:18 a -7.1 -7.0 -7.1 --- --- 13.9 E 0.23 15.7 -15.1 --- --- 718.6 0.018 0.000 10.1 4 1
02/12/06 5:19 a -6.9 -6.9 -7.0 --- --- 13.9 E 0.23 16.5 -14.9 --- --- 718.6 0.018 0.000 10.1 4 1
02/12/06 5:20 a -6.8 -6.8 -6.9 --- --- 13.9 E 0.23 16.5 -14.8 --- --- 718.5 0.017 0.000 10.1 4 1
02/12/06 5:21 a -6.8 -6.8 -6.8 --- --- 13.0 E 0.22 15.7 -14.6 --- --- 718.5 0.017 0.000 10.1 5 1
02/12/06 5:22 a -6.8 -6.8 -6.8 --- --- 13.9 E 0.23 16.5 -14.8 --- --- 718.6 0.017 0.000 10.1 4 1
02/12/06 5:23 a -6.9 -6.8 -7.0 --- --- 13.0 E 0.22 15.7 -14.7 --- --- 718.6 0.018 0.000 10.1 4 1
02/12/06 5:24 a -6.9 -6.9 -7.0 --- --- 13.0 E 0.22 16.5 -14.7 --- --- 718.5 0.018 0.000 10.1 4 1
02/12/06 5:25 a -6.9 -6.9 -7.0 --- --- 13.9 E 0.23 17.4 -14.9 --- --- 718.5 0.018 0.000 10.0 4 1
02/12/06 5:26 a -7.1 -7.1 -7.1 --- --- 13.9 E 0.23 17.4 -15.1 --- --- 718.6 0.018 0.000 10.0 4 1
02/12/06 5:27 a -7.2 -7.1 -7.4 --- --- 13.9 E 0.23 16.5 -15.3 --- --- 718.7 0.018 0.000 10.0 4 1
02/12/06 5:28 a -7.6 -7.4 -7.8 --- --- 13.0 E 0.22 15.7 -15.4 --- --- 718.6 0.018 0.000 10.0 4 1
02/12/06 5:29 a -8.1 -7.8 -8.3 --- --- 13.0 E 0.22 15.7 -16.1 --- --- 718.7 0.018 0.000 9.9 4 1
02/12/06 5:30 a -8.3 -8.3 -8.4 --- --- 13.0 ENE 0.22 15.7 -16.4 --- --- 718.7 0.019 0.000 9.9 4 1
02/12/06 5:31 a -8.5 -8.4 -8.6 --- --- 12.2 E 0.20 13.9 -16.4 --- --- 718.6 0.019 0.000 9.9 4 1
02/12/06 5:32 a -8.7 -8.6 -8.8 --- --- 13.0 E 0.22 15.7 -16.9 --- --- 718.6 0.019 0.000 9.9 4 1
02/12/06 5:33 a -9.0 -8.8 -9.2 --- --- 12.2 E 0.20 14.8 -17.1 --- --- 718.6 0.019 0.000 9.9 4 1
02/12/06 5:34 a -9.2 -9.2 -9.3 --- --- 13.0 E 0.22 13.9 -17.6 --- --- 718.6 0.019 0.000 9.8 4 1
02/12/06 5:35 a -9.5 -9.3 -9.6 --- --- 13.9 E 0.23 14.8 -18.2 --- --- 718.6 0.019 0.000 9.8 4 1
02/12/06 5:36 a -9.7 -9.6 -9.7 --- --- 11.3 E 0.19 13.9 -17.6 --- --- 718.7 0.019 0.000 9.8 4 1
02/12/06 5:37 a -9.7 -9.6 -9.8 --- --- 11.3 E 0.19 15.7 -17.7 --- --- 718.6 0.019 0.000 9.7 4 1
02/12/06 5:38 a -9.6 -9.6 -9.6 --- --- 12.2 E 0.20 13.9 -17.8 --- --- 718.6 0.019 0.000 9.7 4 1
02/12/06 5:39 a -9.6 -9.5 -9.6 --- --- 10.4 E 0.17 13.0 -17.1 --- --- 718.6 0.019 0.000 9.7 4 1
02/12/06 5:40 a -9.6 -9.6 -9.6 --- --- 11.3 E 0.19 14.8 -17.5 --- --- 718.6 0.019 0.000 9.7 4 1
02/12/06 5:41 a -9.3 -9.1 -9.6 --- --- 9.6 E 0.16 12.2 -16.5 --- --- 718.6 0.019 0.000 9.7 4 1
02/12/06 5:42 a -8.9 -8.7 -9.1 --- --- 11.3 E 0.19 13.0 -16.7 --- --- 718.6 0.019 0.000 9.7 4 1
02/12/06 5:43 a -8.6 -8.3 -8.7 --- --- 10.4 E 0.17 12.2 -15.9 --- --- 718.6 0.019 0.000 9.7 4 1
02/12/06 5:44 a -8.3 -8.2 -8.3 --- --- 11.3 E 0.19 13.9 -15.8 --- --- 718.7 0.018 0.000 9.7 4 1
02/12/06 5:45 a -8.2 -8.2 -8.2 --- --- 12.2 E 0.20 13.9 -16.1 --- --- 718.7 0.018 0.000 9.7 4 1
02/12/06 5:46 a -8.3 -8.2 -8.3 --- --- 13.0 E 0.22 14.8 -16.4 --- --- 718.6 0.018 0.000 9.7 4 1
02/12/06 5:47 a -8.5 -8.3 -8.7 --- --- 13.0 E 0.22 14.8 -16.7 --- --- 718.7 0.019 0.000 9.7 4 1
02/12/06 5:48 a -8.7 -8.7 -8.9 --- --- 13.0 ENE 0.22 15.7 -16.9 --- --- 718.6 0.019 0.000 9.7 4 1
02/12/06 5:49 a -9.0 -8.9 -9.2 --- --- 11.3 E 0.19 13.9 -16.7 --- --- 718.7 0.019 0.000 9.7 4 1
02/12/06 5:50 a -9.2 -9.2 -9.2 --- --- 11.3 E 0.19 14.8 -17.1 --- --- 718.6 0.019 0.000 9.7 4 1
02/12/06 5:51 a -9.1 -9.1 -9.2 --- --- 11.3 E 0.19 13.9 -16.9 --- --- 718.7 0.019 0.000 9.6 4 1
02/12/06 5:52 a -9.0 -9.0 -9.0 --- --- 10.4 E 0.17 13.9 -16.4 --- --- 718.7 0.019 0.000 9.6 4 1
02/12/06 5:53 a -8.9 -8.8 -9.0 --- --- 9.6 E 0.16 13.0 -16.1 --- --- 718.5 0.019 0.000 9.6 4 1
02/12/06 5:54 a -8.7 -8.5 -8.8 --- --- 10.4 E 0.17 13.0 -16.0 --- --- 718.6 0.019 0.000 9.6 4 1
02/12/06 5:55 a -8.4 -8.3 -8.5 --- --- 9.6 E 0.16 12.2 -15.4 --- --- 718.6 0.019 0.000 9.6 4 1
02/12/06 5:56 a -8.3 -8.3 -8.3 --- --- 11.3 E 0.19 13.9 -15.8 --- --- 718.6 0.018 0.000 9.6 4 1
02/12/06 5:57 a -8.1 -7.8 -8.3 --- --- 12.2 E 0.20 14.8 -15.9 --- --- 718.6 0.018 0.000 9.6 4 1
02/12/06 5:58 a -7.7 -7.5 -7.8 --- --- 12.2 E 0.20 14.8 -15.3 --- --- 718.5 0.018 0.000 9.6 4 1
02/12/06 5:59 a -7.6 -7.5 -7.6 --- --- 14.8 ESE 0.25 18.3 -15.9 --- --- 718.5 0.018 0.000 9.6 4 1
02/12/06 6:00 a -7.6 -7.6 -7.6 --- --- 13.9 ESE 0.23 15.7 -15.8 --- --- 718.6 0.018 0.000 9.6 4 1
02/12/06 6:01 a -7.5 -7.5 -7.5 --- --- 12.2 ESE 0.20 13.9 -15.1 --- --- 718.6 0.018 0.000 9.6 4 1
02/12/06 6:02 a -7.4 -7.3 -7.4 --- --- 13.0 E 0.22 16.5 -15.2 --- --- 718.6 0.018 0.000 9.6 4 1
02/12/06 6:03 a -7.3 -7.3 -7.4 --- --- 14.8 ESE 0.25 16.5 -15.7 --- --- 718.6 0.018 0.000 9.7 4 1
02/12/06 6:04 a -7.1 -6.9 -7.3 --- --- 14.8 ESE 0.25 17.4 -15.4 --- --- 718.5 0.018 0.000 9.7 4 1
02/12/06 6:05 a -6.8 -6.7 -6.9 --- --- 14.8 ESE 0.25 16.5 -14.9 --- --- 718.6 0.017 0.000 9.7 4 1
02/12/06 6:06 a -6.6 -6.6 -6.6 --- --- 15.7 ESE 0.26 16.5 -14.9 --- --- 718.5 0.017 0.000 9.7 4 1
02/12/06 6:07 a -6.7 -6.6 -6.9 --- --- 16.5 SE 0.28 19.1 -15.2 --- --- 718.5 0.017 0.000 9.7 4 1
02/12/06 6:08 a -7.0 -6.9 -7.1 --- --- 15.7 SE 0.26 16.5 -15.4 --- --- 718.5 0.018 0.000 9.7 4 1
02/12/06 6:09 a -7.0 -6.9 -7.1 --- --- 15.7 SE 0.26 18.3 -15.4 --- --- 718.6 0.018 0.000 9.8 4 1
02/12/06 6:10 a -6.9 -6.9 -7.0 --- --- 15.7 SE 0.26 17.4 -15.4 --- --- 718.6 0.018 0.000 9.8 4 1
02/12/06 6:11 a -7.1 -7.1 -7.2 --- --- 13.9 SE 0.23 15.7 -15.1 --- --- 718.6 0.018 0.000 9.8 4 1
02/12/06 6:12 a -7.2 -7.1 -7.3 --- --- 15.7 SE 0.26 16.5 -15.7 --- --- 718.6 0.018 0.000 9.8 4 1
02/12/06 6:13 a -7.1 -7.1 -7.2 --- --- 17.4 SE 0.29 20.0 -16.0 --- --- 718.5 0.018 0.000 9.8 4 1
02/12/06 6:14 a -7.1 -7.0 -7.1 --- --- 17.4 SE 0.29 18.3 -15.9 --- --- 718.6 0.018 0.000 9.9 4 1
02/12/06 6:15 a -6.9 -6.9 -6.9 --- --- 15.7 SE 0.26 18.3 -15.4 --- --- 718.6 0.018 0.000 9.9 4 1
02/12/06 6:16 a -6.9 -6.8 -7.0 --- --- 15.7 SE 0.26 17.4 -15.3 --- --- 718.6 0.018 0.000 9.9 4 1
02/12/06 6:17 a -7.1 -7.0 -7.2 --- --- 14.8 SE 0.25 16.5 -15.4 --- --- 718.6 0.018 0.000 9.9 4 1
02/12/06 6:18 a -7.3 -7.2 -7.4 --- --- 15.7 SE 0.26 16.5 -15.8 --- --- 718.6 0.018 0.000 9.9 4 1
02/12/06 6:19 a -7.4 -7.4 -7.5 --- --- 13.0 SE 0.22 15.7 -15.3 --- --- 718.7 0.018 0.000 9.9 4 1
02/12/06 6:20 a -7.6 -7.5 -7.7 --- --- 13.0 SE 0.22 14.8 -15.4 --- --- 718.7 0.018 0.000 9.9 4 1
02/12/06 6:21 a -7.6 -7.2 -7.7 --- --- 13.9 SE 0.23 15.7 -15.7 --- --- 718.7 0.018 0.000 10.0 4 1
02/12/06 6:22 a -7.1 -6.9 -7.2 --- --- 14.8 SE 0.25 15.7 -15.3 --- --- 718.6 0.018 0.000 10.0 4 1
02/12/06 6:23 a -6.8 -6.8 -6.9 --- --- 13.9 SE 0.23 14.8 -14.8 --- --- 718.7 0.017 0.000 10.0 4 1
02/12/06 6:24 a -6.7 -6.6 -6.8 --- --- 13.9 SE 0.23 15.7 -14.6 --- --- 718.7 0.017 0.000 10.0 4 1
02/12/06 6:25 a -6.4 -6.4 -6.4 --- --- 13.9 SE 0.23 15.7 -14.2 --- --- 718.7 0.017 0.000 10.1 5 1
02/12/06 6:26 a -6.2 -6.2 -6.3 --- --- 13.9 SE 0.23 15.7 -14.0 --- --- 718.8 0.017 0.000 10.1 4 1
02/12/06 6:27 a -6.3 -6.3 -6.6 --- --- 13.9 SE 0.23 15.7 -14.1 --- --- 718.7 0.017 0.000 10.1 4 1
02/12/06 6:28 a -6.5 -6.4 -6.6 --- --- 13.0 SE 0.22 14.8 -14.1 --- --- 718.8 0.017 0.000 10.1 4 1
02/12/06 6:29 a -6.5 -6.5 -6.6 --- --- 11.3 SE 0.19 13.0 -13.6 --- --- 718.8 0.017 0.000 10.1 4 1
02/12/06 6:30 a -6.7 -6.6 -6.9 --- --- 13.0 SE 0.22 13.9 -14.3 --- --- 718.8 0.017 0.000 10.2 4 1
02/12/06 6:31 a -7.1 -6.9 -7.2 --- --- 13.0 SE 0.22 15.7 -14.8 --- --- 718.8 0.018 0.000 10.2 4 1
02/12/06 6:32 a -7.5 -7.3 -7.7 --- --- 13.9 SE 0.23 17.4 -15.6 --- --- 718.8 0.018 0.000 10.2 4 1
02/12/06 6:33 a -7.8 -7.8 -8.1 --- --- 13.9 SSE 0.23 16.5 -16.1 --- --- 718.8 0.018 0.000 10.2 5 1
02/12/06 6:34 a -8.1 -8.1 -8.2 --- --- 13.0 SE 0.22 15.7 -16.2 --- --- 718.9 0.018 0.000 10.2 4 1
02/12/06 6:35 a -8.3 -8.2 -8.3 --- --- 15.7 SE 0.26 17.4 -17.1 --- --- 718.8 0.018 0.000 10.2 4 1
02/12/06 6:36 a -8.4 -8.4 -8.4 --- --- 14.8 SSE 0.25 16.5 -17.0 --- --- 718.8 0.019 0.000 10.2 4 1
02/12/06 6:37 a -8.4 -8.3 -8.4 --- --- 14.8 SE 0.25 18.3 -17.0 --- --- 718.8 0.019 0.000 10.2 4 1
02/12/06 6:38 a -8.2 -8.1 -8.3 --- --- 16.5 SE 0.28 18.3 -17.3 --- --- 718.9 0.018 0.000 10.2 4 1
02/12/06 6:39 a -7.9 -7.8 -8.1 --- --- 13.9 SE 0.23 15.7 -16.2 --- --- 718.8 0.018 0.000 10.2 4 1
02/12/06 6:40 a -7.8 -7.7 -7.8 --- --- 14.8 SE 0.25 15.7 -16.2 --- --- 718.9 0.018 0.000 10.2 4 1
02/12/06 6:41 a -7.6 -7.2 -7.7 --- --- 13.0 SE 0.22 15.7 -15.4 --- --- 718.9 0.018 0.000 10.2 4 1
02/12/06 6:42 a -7.1 -7.0 -7.2 --- --- 12.2 SE 0.20 13.0 -14.6 --- --- 718.9 0.018 0.000 10.2 4 1
02/12/06 6:43 a -7.1 -7.0 -7.2 --- --- 13.0 SSE 0.22 15.7 -14.8 --- --- 718.9 0.018 0.000 10.2 4 1
02/12/06 6:44 a -7.3 -7.2 -7.5 --- --- 13.9 SE 0.23 15.7 -15.3 --- --- 718.9 0.018 0.000 10.2 4 1
02/12/06 6:45 a -7.6 -7.5 -7.7 --- --- 15.7 SE 0.26 17.4 -16.2 --- --- 718.8 0.018 0.000 10.2 4 1
02/12/06 6:46 a -7.7 -7.7 -7.8 --- --- 14.8 SE 0.25 15.7 -16.2 --- --- 718.9 0.018 0.000 10.2 4 1
02/12/06 6:47 a -7.7 -7.7 -7.8 --- --- 13.9 SE 0.23 15.7 -15.9 --- --- 718.9 0.018 0.000 10.2 4 1
02/12/06 6:48 a -7.7 -7.7 -7.7 --- --- 13.0 SE 0.22 13.9 -15.6 --- --- 718.9 0.018 0.000 10.2 4 1
02/12/06 6:49 a -7.6 -7.3 -7.7 --- --- 12.2 SE 0.20 13.9 -15.3 --- --- 719.0 0.018 0.000 10.2 4 1
02/12/06 6:50 a -7.2 -6.9 -7.3 --- --- 11.3 ESE 0.19 13.0 -14.4 --- --- 719.0 0.018 0.000 10.2 4 1
02/12/06 6:51 a -6.8 -6.7 -6.9 --- --- 11.3 ESE 0.19 12.2 -14.0 --- --- 719.0 0.017 0.000 10.2 4 1
02/12/06 6:52 a -6.6 -6.5 -6.7 --- --- 11.3 ESE 0.19 13.0 -13.7 --- --- 719.0 0.017 0.000 10.2 4 1
02/12/06 6:53 a -6.6 -6.5 -6.7 --- --- 12.2 SE 0.20 13.0 -14.0 --- --- 718.9 0.017 0.000 10.2 4 1
02/12/06 6:54 a -6.3 -6.0 -6.5 --- --- 12.2 SE 0.20 13.0 -13.6 --- --- 719.0 0.017 0.000 10.2 4 1
02/12/06 6:55 a -6.0 -6.0 -6.1 --- --- 12.2 SE 0.20 13.9 -13.2 --- --- 719.0 0.017 0.000 10.2 4 1
02/12/06 6:56 a -5.9 -5.9 -6.0 --- --- 13.0 SE 0.22 13.9 -13.4 --- --- 719.0 0.017 0.000 10.2 4 1
02/12/06 6:57 a -6.1 -5.9 -6.1 --- --- 14.8 SE 0.25 15.7 -14.0 --- --- 719.0 0.017 0.000 10.2 4 1
02/12/06 6:58 a -6.2 -6.1 -6.4 --- --- 14.8 SE 0.25 17.4 -14.2 --- --- 719.0 0.017 0.000 10.1 4 1
02/12/06 6:59 a -6.4 -6.4 -6.5 --- --- 13.9 SE 0.23 15.7 -14.3 --- --- 719.0 0.017 0.000 10.1 4 1
02/12/06 7:00 a -6.5 -6.4 -6.6 --- --- 13.9 SE 0.23 14.8 -14.3 --- --- 718.9 0.017 0.000 10.1 4 1
02/12/06 7:01 a -6.9 -6.8 -7.3 --- --- 13.9 SE 0.23 15.7 -14.9 --- --- 719.0 0.018 0.000 10.1 4 1
02/12/06 7:02 a -7.4 -7.3 -7.6 --- --- 13.9 SE 0.23 15.7 -15.6 --- --- 719.0 0.018 0.000 10.1 4 1
02/12/06 7:03 a -7.8 -7.6 -7.9 --- --- 13.0 SE 0.22 13.9 -15.7 --- --- 719.0 0.018 0.000 10.1 4 1
02/12/06 7:04 a -8.0 -7.9 -8.1 --- --- 13.0 SE 0.22 13.9 -16.1 --- --- 719.0 0.018 0.000 10.1 4 1
02/12/06 7:05 a -7.8 -7.7 -8.0 --- --- 12.2 SE 0.20 13.0 -15.6 --- --- 719.1 0.018 0.000 10.1 4 1
02/12/06 7:06 a -7.5 -7.3 -7.6 --- --- 11.3 SE 0.19 13.0 -14.8 --- --- 719.2 0.018 0.000 10.1 4 1
02/12/06 7:07 a -7.3 -7.2 -7.3 --- --- 10.4 ESE 0.17 12.2 -14.3 --- --- 719.2 0.018 0.000 10.1 4 1
02/12/06 7:08 a -7.2 -7.1 -7.4 --- --- 10.4 ESE 0.17 11.3 -14.2 --- --- 719.2 0.018 0.000 10.0 4 1
02/12/06 7:09 a -7.6 -7.6 -7.6 --- --- 10.4 ESE 0.17 12.2 -14.6 --- --- 719.1 0.018 0.000 10.0 4 1
02/12/06 7:10 a -7.6 -7.6 -7.6 --- --- 11.3 ESE 0.19 13.0 -14.9 --- --- 719.2 0.018 0.000 9.9 4 1
02/12/06 7:11 a -7.5 -7.4 -7.6 --- --- 11.3 SE 0.19 12.2 -14.8 --- --- 719.2 0.018 0.000 9.9 4 1
02/12/06 7:12 a -7.6 -7.6 -7.7 --- --- 12.2 ESE 0.20 13.9 -15.3 --- --- 719.1 0.018 0.000 9.9 4 1
02/12/06 7:13 a -7.8 -7.7 -7.9 --- --- 12.2 ESE 0.20 13.9 -15.5 --- --- 719.2 0.018 0.000 9.9 4 1
02/12/06 7:14 a -7.7 -7.7 -7.8 --- --- 12.2 ESE 0.20 13.0 -15.4 --- --- 719.1 0.018 0.000 9.9 4 1
02/12/06 7:15 a -7.5 -7.4 -7.6 --- --- 11.3 ESE 0.19 12.2 -14.8 --- --- 719.1 0.018 0.000 9.8 4 1
02/12/06 7:16 a -7.5 -7.4 -7.6 --- --- 12.2 ESE 0.20 14.8 -15.1 --- --- 719.1 0.018 0.000 9.8 4 1
02/12/06 7:17 a -7.7 -7.7 -7.8 --- --- 12.2 ESE 0.20 13.9 -15.4 --- --- 719.2 0.018 0.000 9.8 4 1
02/12/06 7:18 a -7.9 -7.8 -8.0 --- --- 11.3 ESE 0.19 13.9 -15.4 --- --- 719.1 0.018 0.000 9.8 4 1
02/12/06 7:19 a -8.1 -8.1 -8.1 --- --- 13.9 ESE 0.23 15.7 -16.4 --- --- 719.2 0.018 0.000 9.8 4 1
02/12/06 7:20 a -8.1 -8.0 -8.1 --- --- 13.0 ESE 0.22 15.7 -16.1 --- --- 719.3 0.018 0.000 9.8 4 1
02/12/06 7:21 a -8.1 -8.1 -8.1 --- --- 11.3 ESE 0.19 12.2 -15.6 --- --- 719.1 0.018 0.000 9.7 4 1
02/12/06 7:22 a -8.2 -8.2 -8.2 --- --- 10.4 E 0.17 13.9 -15.4 --- --- 719.2 0.018 0.000 9.7 4 1
02/12/06 7:23 a -8.2 -8.2 -8.2 --- --- 11.3 ESE 0.19 13.0 -15.8 --- --- 719.3 0.018 0.000 9.7 4 1
02/12/06 7:24 a -8.3 -8.3 -8.4 --- --- 8.7 E 0.14 11.3 -14.9 --- --- 719.3 0.019 0.000 9.7 4 1
02/12/06 7:25 a -8.7 -8.6 -8.7 --- --- 7.8 E 0.13 12.2 -14.9 --- --- 719.3 0.019 0.000 9.7 4 1
02/12/06 7:26 a -8.9 -8.8 -9.1 --- --- 7.8 E 0.13 10.4 -15.3 --- --- 719.3 0.019 0.000 9.7 4 1
02/12/06 7:27 a -9.1 -9.1 -9.2 --- --- 7.8 E 0.13 11.3 -15.5 --- --- 719.2 0.019 0.000 9.7 4 1
02/12/06 7:28 a -9.3 -9.3 -9.4 --- --- 8.7 E 0.14 11.3 -16.2 --- --- 719.3 0.019 0.000 9.7 4 1
02/12/06 7:29 a -9.6 -9.5 -9.6 --- --- 9.6 E 0.16 12.2 -16.8 --- --- 719.3 0.019 0.000 9.7 4 1
02/12/06 7:30 a -9.7 -9.6 -9.7 --- --- 11.3 E 0.19 13.0 -17.6 --- --- 719.3 0.019 0.000 9.7 4 1
02/12/06 7:31 a -9.7 -9.6 -9.7 --- --- 11.3 ENE 0.19 12.2 -17.6 --- --- 719.3 0.019 0.000 9.7 4 1
02/12/06 7:32 a -9.7 -9.7 -9.7 --- --- 9.6 ENE 0.16 10.4 -16.9 --- --- 719.3 0.019 0.000 9.7 4 1
02/12/06 7:33 a -9.6 -9.6 -9.7 --- --- 8.7 ENE 0.14 9.6 -16.5 --- --- 719.3 0.019 0.000 9.7 4 1
02/12/06 7:34 a -9.5 -9.4 -9.6 --- --- 9.6 ENE 0.16 11.3 -16.7 --- --- 719.3 0.019 0.000 9.7 4 1
02/12/06 7:35 a -9.4 -9.3 -9.4 --- --- 10.4 ENE 0.17 11.3 -16.9 --- --- 719.3 0.019 0.000 9.7 5 1
02/12/06 7:36 a -9.3 -9.2 -9.3 --- --- 10.4 ENE 0.17 11.3 -16.8 --- --- 719.3 0.019 0.000 9.7 4 1
02/12/06 7:37 a -9.2 -9.1 -9.2 --- --- 10.4 ENE 0.17 11.3 -16.7 --- --- 719.3 0.019 0.000 9.7 4 1
02/12/06 7:38 a -9.0 -9.0 -9.1 --- --- 9.6 ENE 0.16 10.4 -16.1 --- --- 719.3 0.019 0.000 9.7 5 1
02/12/06 7:39 a -9.0 -9.0 -9.1 --- --- 9.6 ENE 0.16 10.4 -16.1 --- --- 719.3 0.019 0.000 9.7 5 1
02/12/06 7:40 a -8.9 -8.8 -8.9 --- --- 10.4 ENE 0.17 11.3 -16.3 --- --- 719.4 0.019 0.000 9.7 4 1
02/12/06 7:41 a -8.7 -8.7 -8.8 --- --- 11.3 ENE 0.19 12.2 -16.4 --- --- 719.3 0.019 0.000 9.7 4 1
02/12/06 7:42 a -8.6 -8.5 -8.6 --- --- 10.4 ENE 0.17 11.3 -15.9 --- --- 719.4 0.019 0.000 9.7 4 1
02/12/06 7:43 a -8.4 -8.3 -8.5 --- --- 9.6 ENE 0.16 11.3 -15.3 --- --- 719.3 0.019 0.000 9.7 4 1
02/12/06 7:44 a -8.2 -8.1 -8.2 --- --- 8.7 ENE 0.14 10.4 -14.7 --- --- 719.3 0.018 0.000 9.7 4 1
02/12/06 7:45 a -8.2 -8.2 -8.2 --- --- 7.8 ENE 0.13 9.6 -14.3 --- --- 719.4 0.018 0.000 9.8 4 1
02/12/06 7:46 a -8.1 -8.1 -8.1 --- --- 8.7 E 0.14 12.2 -14.7 --- --- 719.4 0.018 0.000 9.8 4 1
02/12/06 7:47 a -8.1 -8.1 -8.1 --- --- 10.4 ENE 0.17 12.2 -15.3 --- --- 719.5 0.018 0.000 9.8 5 1
02/12/06 7:48 a -8.1 -8.1 -8.1 --- --- 9.6 ENE 0.16 11.3 -14.9 --- --- 719.4 0.018 0.000 9.8 5 1
02/12/06 7:49 a -8.0 -8.0 -8.1 --- --- 9.6 ENE 0.16 11.3 -14.8 --- --- 719.5 0.018 0.000 9.8 4 1
02/12/06 7:50 a -7.9 -7.8 -7.9 --- --- 10.4 ENE 0.17 12.2 -15.1 --- --- 719.4 0.018 0.000 9.8 4 1
02/12/06 7:51 a -7.8 -7.8 -7.9 --- --- 10.4 ENE 0.17 12.2 -15.0 --- --- 719.4 0.018 0.000 9.8 5 1
02/12/06 7:52 a -7.9 -7.9 -8.0 --- --- 11.3 ENE 0.19 12.2 -15.4 --- --- 719.4 0.018 0.000 9.8 4 1
02/12/06 7:53 a -8.0 -7.9 -8.0 --- --- 10.4 ENE 0.17 12.2 -15.2 --- --- 719.5 0.018 0.000 9.8 4 1
02/12/06 7:54 a -7.9 -7.9 -8.0 --- --- 9.6 ENE 0.16 12.2 -14.8 --- --- 719.3 0.018 0.000 9.8 5 1
02/12/06 7:55 a -8.0 -8.0 -8.0 --- --- 12.2 ENE 0.20 13.0 -15.8 --- --- 719.3 0.018 0.000 9.8 5 1
02/12/06 7:56 a -8.1 -8.1 -8.2 --- --- 12.2 ENE 0.20 13.0 -15.9 --- --- 719.3 0.018 0.000 9.8 4 1
02/12/06 7:57 a -8.3 -8.2 -8.4 --- --- 11.3 ENE 0.19 13.0 -15.9 --- --- 719.3 0.019 0.000 9.8 4 1
02/12/06 7:58 a -8.6 -8.6 -8.6 --- --- 10.4 ENE 0.17 12.2 -15.9 --- --- 719.4 0.019 0.000 9.8 5 1
02/12/06 7:59 a -8.6 -8.6 -8.6 --- --- 12.2 ENE 0.20 13.9 -16.6 --- --- 719.5 0.019 0.000 9.8 4 1
02/12/06 8:00 a -8.7 -8.6 -8.8 --- --- 12.2 ENE 0.20 13.0 -16.6 --- --- 719.4 0.019 0.000 9.9 5 1
02/12/06 8:01 a -8.8 -8.8 -8.8 --- --- 10.4 ENE 0.17 12.2 -16.2 --- --- 719.4 0.019 0.000 9.9 4 1
02/12/06 8:02 a -8.8 -8.8 -8.8 --- --- 11.3 ENE 0.19 12.2 -16.4 --- --- 719.4 0.019 0.000 9.9 5 1
02/12/06 8:03 a -8.7 -8.7 -8.8 --- --- 10.4 ENE 0.17 11.3 -16.1 --- --- 719.5 0.019 0.000 9.9 4 1
02/12/06 8:04 a -8.7 -8.7 -8.7 --- --- 10.4 ENE 0.17 11.3 -16.1 --- --- 719.5 0.019 0.000 9.8 4 1
02/12/06 8:05 a -8.9 -8.7 -9.0 --- --- 10.4 NE 0.17 12.2 -16.3 --- --- 719.5 0.019 0.000 9.8 4 1
02/12/06 8:06 a -9.1 -9.0 -9.1 --- --- 10.4 ENE 0.17 11.3 -16.5 --- --- 719.5 0.019 0.000 9.8 4 1
02/12/06 8:07 a -9.1 -9.1 -9.1 --- --- 10.4 ENE 0.17 11.3 -16.6 --- --- 719.5 0.019 0.000 9.8 4 1
02/12/06 8:08 a -9.1 -9.1 -9.1 --- --- 9.6 ENE 0.16 10.4 -16.2 --- --- 719.5 0.019 0.000 9.8 4 1
02/12/06 8:09 a -9.2 -9.1 -9.2 --- --- 10.4 ENE 0.17 11.3 -16.7 --- --- 719.6 0.019 0.000 9.8 4 1
02/12/06 8:10 a -9.2 -9.2 -9.3 --- --- 9.6 ENE 0.16 10.4 -16.4 --- --- 719.6 0.019 0.000 9.7 4 1
02/12/06 8:11 a -9.3 -9.3 -9.4 --- --- 9.6 ENE 0.16 11.3 -16.5 --- --- 719.6 0.019 0.000 9.7 5 1
02/12/06 8:12 a -9.4 -9.4 -9.4 --- --- 10.4 ENE 0.17 11.3 -16.9 --- --- 719.6 0.019 0.000 9.7 5 1
02/12/06 8:13 a -9.4 -9.4 -9.5 --- --- 10.4 ENE 0.17 11.3 -17.0 --- --- 719.6 0.019 0.000 9.7 4 1
02/12/06 8:14 a -9.6 -9.5 -9.6 --- --- 10.4 ENE 0.17 12.2 -17.1 --- --- 719.6 0.019 0.000 9.7 4 1
02/12/06 8:15 a -9.6 -9.6 -9.7 --- --- 10.4 NE 0.17 12.2 -17.2 --- --- 719.6 0.019 0.000 9.6 4 1
02/12/06 8:16 a -9.8 -9.7 -9.8 --- --- 11.3 NE 0.19 12.2 -17.7 --- --- 719.5 0.020 0.000 9.6 4 1
02/12/06 8:17 a -9.9 -9.8 -9.9 --- --- 12.2 ENE 0.20 13.0 -18.1 --- --- 719.6 0.020 0.000 9.6 4 1
02/12/06 8:18 a -9.9 -9.9 -10.0 --- --- 11.3 ENE 0.19 12.2 -17.9 --- --- 719.5 0.020 0.000 9.6 4 1
02/12/06 8:19 a -9.9 -9.9 -10.0 --- --- 11.3 ENE 0.19 13.0 -17.9 --- --- 719.6 0.020 0.000 9.6 5 1
02/12/06 8:20 a -10.0 -9.9 -10.1 --- --- 12.2 ENE 0.20 13.9 -18.3 --- --- 719.6 0.020 0.000 9.6 4 1
02/12/06 8:21 a -10.1 -10.1 -10.1 --- --- 13.0 ENE 0.22 14.8 -18.7 --- --- 719.6 0.020 0.000 9.5 4 1
02/12/06 8:22 a -10.1 -10.1 -10.1 --- --- 13.0 ENE 0.22 13.9 -18.6 --- --- 719.6 0.020 0.000 9.5 4 1
02/12/06 8:23 a -10.0 -9.9 -10.1 --- --- 12.2 ENE 0.20 13.9 -18.3 --- --- 719.5 0.020 0.000 9.5 4 1
02/12/06 8:24 a -9.9 -9.9 -9.9 --- --- 11.3 ENE 0.19 13.0 -17.8 --- --- 719.6 0.020 0.000 9.5 4 1
02/12/06 8:25 a -10.0 -9.9 -10.2 --- --- 12.2 E 0.20 14.8 -18.3 --- --- 719.6 0.020 0.000 9.5 4 1
02/12/06 8:26 a -10.1 -10.1 -10.2 --- --- 13.9 ENE 0.23 15.7 -18.9 --- --- 719.7 0.020 0.000 9.4 4 1
02/12/06 8:27 a -10.0 -9.9 -10.1 --- --- 12.2 ENE 0.20 13.9 -18.3 --- --- 719.6 0.020 0.000 9.4 4 1
02/12/06 8:28 a -9.9 -9.9 -9.9 --- --- 11.3 ENE 0.19 13.0 -17.8 --- --- 719.6 0.020 0.000 9.4 4 1
02/12/06 8:29 a -9.9 -9.9 -9.9 --- --- 13.0 ENE 0.22 15.7 -18.4 --- --- 719.6 0.020 0.000 9.4 4 1
02/12/06 8:30 a -9.9 -9.8 -9.9 --- --- 13.9 ENE 0.23 15.7 -18.7 --- --- 719.6 0.020 0.000 9.4 4 1
02/12/06 8:31 a -9.7 -9.6 -9.8 --- --- 13.0 NE 0.22 14.8 -18.2 --- --- 719.6 0.019 0.000 9.4 4 1
02/12/06 8:32 a -9.4 -9.3 -9.5 --- --- 11.3 NE 0.19 12.2 -17.2 --- --- 719.6 0.019 0.000 9.3 4 1
02/12/06 8:33 a -9.2 -9.1 -9.3 --- --- 9.6 NE 0.16 11.3 -16.3 --- --- 719.6 0.019 0.000 9.3 4 1
02/12/06 8:34 a -9.1 -9.1 -9.2 --- --- 12.2 ENE 0.20 13.9 -17.2 --- --- 719.6 0.019 0.000 9.3 5 1
02/12/06 8:35 a -9.2 -9.2 -9.2 --- --- 13.0 ENE 0.22 14.8 -17.6 --- --- 719.7 0.019 0.000 9.3 5 1
02/12/06 8:36 a -9.2 -9.1 -9.2 --- --- 13.0 ENE 0.22 13.9 -17.5 --- --- 719.6 0.019 0.000 9.3 4 1
02/12/06 8:37 a -9.1 -9.1 -9.1 --- --- 11.3 ENE 0.19 13.0 -16.8 --- --- 719.7 0.019 0.000 9.3 4 1
02/12/06 8:38 a -9.0 -9.0 -9.1 --- --- 9.6 ENE 0.16 11.3 -16.1 --- --- 719.7 0.019 0.000 9.3 4 1
02/12/06 8:39 a -9.1 -9.0 -9.3 --- --- 13.0 ENE 0.22 14.8 -17.4 --- --- 719.6 0.019 0.000 9.3 4 1
02/12/06 8:40 a -9.4 -9.3 -9.7 --- --- 13.0 ENE 0.22 14.8 -17.8 --- --- 719.5 0.019 0.000 9.2 4 1
02/12/06 8:41 a -9.9 -9.7 -10.0 --- --- 11.3 ENE 0.19 13.0 -17.8 --- --- 719.5 0.020 0.000 9.2 4 1
02/12/06 8:42 a -10.0 -10.0 -10.0 --- --- 10.4 E 0.17 12.2 -17.7 --- --- 719.5 0.020 0.000 9.2 4 1
02/12/06 8:43 a -9.8 -9.7 -10.0 --- --- 12.2 ENE 0.20 13.9 -18.1 --- --- 719.5 0.020 0.000 9.2 5 1
02/12/06 8:44 a -9.6 -9.5 -9.7 --- --- 11.3 E 0.19 13.0 -17.5 --- --- 719.4 0.019 0.000 9.2 4 1
02/12/06 8:45 a -9.6 -9.5 -9.8 --- --- 10.4 E 0.17 13.0 -17.1 --- --- 719.5 0.019 0.000 9.2 4 1
02/12/06 8:46 a -9.9 -9.8 -10.1 --- --- 11.3 ENE 0.19 13.9 -17.8 --- --- 719.5 0.020 0.000 9.2 5 1
02/12/06 8:47 a -10.1 -10.1 -10.1 --- --- 10.4 E 0.17 13.0 -17.8 --- --- 719.5 0.020 0.000 9.3 5 1
02/12/06 8:48 a -10.0 -10.0 -10.1 --- --- 9.6 E 0.16 13.0 -17.3 --- --- 719.5 0.020 0.000 9.3 4 1
02/12/06 8:49 a -10.1 -10.1 -10.2 --- --- 11.3 E 0.19 13.9 -18.1 --- --- 719.6 0.020 0.000 9.3 4 1
02/12/06 8:50 a -10.3 -10.3 -10.6 --- --- 10.4 E 0.17 13.0 -18.1 --- --- 719.5 0.020 0.000 9.3 4 1
02/12/06 8:51 a -10.6 -10.5 -10.6 --- --- 12.2 E 0.20 15.7 -19.1 --- --- 719.6 0.020 0.000 9.3 5 1
02/12/06 8:52 a -10.4 -10.3 -10.5 --- --- 9.6 E 0.16 12.2 -17.8 --- --- 719.5 0.020 0.000 9.3 4 1
02/12/06 8:53 a -10.3 -10.3 -10.4 --- --- 9.6 E 0.16 13.0 -17.8 --- --- 719.5 0.020 0.000 9.3 5 1
02/12/06 8:54 a -10.5 -10.4 -10.6 --- --- 12.2 E 0.20 13.9 -18.9 --- --- 719.5 0.020 0.000 9.3 5 1
02/12/06 8:55 a -10.6 -10.6 -10.6 --- --- 11.3 E 0.19 13.0 -18.7 --- --- 719.5 0.020 0.000 9.3 5 1
02/12/06 8:56 a -10.7 -10.7 -10.8 --- --- 10.4 E 0.17 13.0 -18.6 --- --- 719.6 0.020 0.000 9.3 4 1
02/12/06 8:57 a -10.8 -10.8 -10.8 --- --- 10.4 E 0.17 13.0 -18.7 --- --- 719.6 0.020 0.000 9.3 4 1
02/12/06 8:58 a -10.7 -10.7 -10.8 --- --- 10.4 E 0.17 14.8 -18.6 --- --- 719.7 0.020 0.000 9.3 5 1
02/12/06 8:59 a -10.8 -10.8 -10.8 --- --- 9.6 E 0.16 12.2 -18.3 --- --- 719.6 0.020 0.000 9.3 4 1
02/12/06 9:00 a -10.9 -10.8 -10.9 --- --- 9.6 E 0.16 11.3 -18.4 --- --- 719.7 0.020 0.000 9.4 5 1
02/12/06 9:01 a -10.9 -10.9 -10.9 --- --- 10.4 E 0.17 13.0 -18.8 --- --- 719.6 0.020 0.000 9.4 5 1
02/12/06 9:02 a -10.9 -10.9 -11.0 --- --- 8.7 E 0.14 11.3 -18.1 --- --- 719.7 0.020 0.000 9.4 5 1
02/12/06 9:03 a -11.0 -11.0 -11.0 --- --- 9.6 E 0.16 12.2 -18.6 --- --- 719.6 0.020 0.000 9.4 4 1
02/12/06 9:04 a -11.1 -11.0 -11.1 --- --- 9.6 E 0.16 13.9 -18.6 --- --- 719.6 0.020 0.000 9.4 4 1
02/12/06 9:05 a -10.9 -10.8 -10.9 --- --- 9.6 E 0.16 13.0 -18.4 --- --- 719.6 0.020 0.000 9.4 4 1
02/12/06 9:06 a -10.7 -10.6 -10.8 --- --- 10.4 E 0.17 13.0 -18.6 --- --- 719.6 0.020 0.000 9.4 5 1
02/12/06 9:07 a -10.5 -10.5 -10.6 --- --- 9.6 E 0.16 13.0 -17.9 --- --- 719.6 0.020 0.000 9.4 4 1
02/12/06 9:08 a -10.4 -10.4 -10.4 --- --- 12.2 E 0.20 14.8 -18.8 --- --- 719.6 0.020 0.000 9.4 4 1
02/12/06 9:09 a -10.6 -10.4 -10.7 --- --- 11.3 E 0.19 13.9 -18.7 --- --- 719.6 0.020 0.000 9.4 4 1
02/12/06 9:10 a -10.8 -10.8 -10.9 --- --- 11.3 E 0.19 12.2 -19.0 --- --- 719.6 0.020 0.000 9.4 5 1
02/12/06 9:11 a -11.0 -10.9 -11.1 --- --- 10.4 E 0.17 13.9 -18.9 --- --- 719.6 0.020 0.000 9.4 4 1
02/12/06 9:12 a -11.1 -11.1 -11.1 --- --- 11.3 E 0.19 13.0 -19.4 --- --- 719.6 0.020 0.000 9.4 4 1
02/12/06 9:13 a -11.2 -11.1 -11.2 --- --- 10.4 E 0.17 13.0 -19.1 --- --- 719.6 0.020 0.000 9.4 4 1
02/12/06 9:14 a -11.2 -11.2 -11.2 --- --- 11.3 E 0.19 13.9 -19.4 --- --- 719.6 0.020 0.000 9.4 5 1
02/12/06 9:15 a -11.2 -11.2 -11.2 --- --- 11.3 E 0.19 13.9 -19.4 --- --- 719.6 0.020 0.000 9.4 4 1
02/12/06 9:16 a -11.2 -11.2 -11.2 --- --- 9.6 E 0.16 13.0 -18.8 --- --- 719.6 0.021 0.000 9.4 4 1
02/12/06 9:17 a -11.2 -11.0 -11.2 --- --- 8.7 E 0.14 12.2 -18.4 --- --- 719.7 0.020 0.000 9.4 5 1
02/12/06 9:18 a -10.9 -10.6 -11.0 --- --- 9.6 E 0.16 10.4 -18.4 --- --- 719.7 0.020 0.000 9.4 4 1
02/12/06 9:19 a -10.6 -10.6 -10.6 --- --- 7.8 E 0.13 10.4 -17.3 --- --- 719.7 0.020 0.000 9.5 4 1
02/12/06 9:20 a -10.6 -10.6 -10.7 --- --- 9.6 E 0.16 12.2 -18.1 --- --- 719.6 0.020 0.000 9.5 5 1
02/12/06 9:21 a -10.8 -10.7 -10.8 --- --- 10.4 ENE 0.17 12.2 -18.6 --- --- 719.7 0.020 0.000 9.5 4 1
02/12/06 9:22 a -10.8 -10.7 -10.8 --- --- 11.3 E 0.19 13.0 -18.9 --- --- 719.7 0.020 0.000 9.5 4 1
02/12/06 9:23 a -10.7 -10.7 -10.8 --- --- 9.6 E 0.16 13.0 -18.2 --- --- 719.6 0.020 0.000 9.5 4 1
02/12/06 9:24 a -10.8 -10.8 -10.9 --- --- 7.8 E 0.13 12.2 -17.6 --- --- 719.7 0.020 0.000 9.5 4 1
02/12/06 9:25 a -10.9 -10.9 -10.9 --- --- 10.4 E 0.17 13.0 -18.8 --- --- 719.6 0.020 0.000 9.5 4 1
02/12/06 9:26 a -11.0 -10.9 -11.0 --- --- 10.4 E 0.17 13.0 -18.9 --- --- 719.6 0.020 0.000 9.5 4 1
02/12/06 9:27 a -11.0 -11.0 -11.1 --- --- 10.4 E 0.17 13.9 -18.9 --- --- 719.6 0.020 0.000 9.5 4 1
02/12/06 9:28 a -11.0 -10.9 -11.0 --- --- 10.4 E 0.17 13.9 -18.9 --- --- 719.7 0.020 0.000 9.5 5 1
02/12/06 9:29 a -10.9 -10.8 -10.9 --- --- 12.2 E 0.20 13.9 -19.4 --- --- 719.7 0.020 0.000 9.5 4 1
02/12/06 9:30 a -10.8 -10.8 -10.8 --- --- 12.2 E 0.20 15.7 -19.2 --- --- 719.7 0.020 0.000 9.5 4 1
02/12/06 9:31 a -10.8 -10.8 -10.8 --- --- 9.6 E 0.16 12.2 -18.3 --- --- 719.8 0.020 0.000 9.5 4 1
02/12/06 9:32 a -10.8 -10.8 -10.8 --- --- 8.7 E 0.14 11.3 -17.9 --- --- 719.7 0.020 0.000 9.5 4 1
02/12/06 9:33 a -10.8 -10.8 -10.9 --- --- 9.6 E 0.16 12.2 -18.3 --- --- 719.7 0.020 0.000 9.5 4 1
02/12/06 9:34 a -10.9 -10.9 -11.0 --- --- 9.6 E 0.16 11.3 -18.5 --- --- 719.7 0.020 0.000 9.5 4 1
02/12/06 9:35 a -11.0 -11.0 -11.1 --- --- 8.7 E 0.14 11.3 -18.2 --- --- 719.8 0.020 0.000 9.5 4 1
02/12/06 9:36 a -11.1 -11.1 -11.1 --- --- 8.7 E 0.14 10.4 -18.2 --- --- 719.8 0.020 0.000 9.5 4 1
02/12/06 9:37 a -11.1 -11.1 -11.1 --- --- 7.8 E 0.13 10.4 -17.9 --- --- 719.9 0.020 0.000 9.5 4 1
02/12/06 9:38 a -11.1 -11.1 -11.1 --- --- 9.6 E 0.16 11.3 -18.7 --- --- 719.9 0.020 0.000 9.5 5 1
02/12/06 9:39 a -11.2 -11.2 -11.2 --- --- 8.7 E 0.14 10.4 -18.4 --- --- 719.8 0.020 0.000 9.6 5 1
02/12/06 9:40 a -11.2 -11.2 -11.2 --- --- 8.7 E 0.14 10.4 -18.4 --- --- 719.9 0.021 0.000 9.6 5 1
02/12/06 9:41 a -11.2 -11.2 -11.2 --- --- 8.7 ENE 0.14 10.4 -18.4 --- --- 719.9 0.021 0.000 9.6 5 1
02/12/06 9:42 a -11.2 -11.2 -11.2 --- --- 8.7 ENE 0.14 10.4 -18.4 --- --- 719.9 0.021 0.000 9.6 4 1
02/12/06 9:43 a -11.3 -11.2 -11.3 --- --- 9.6 ENE 0.16 10.4 -18.9 --- --- 719.8 0.021 0.000 9.6 5 1
02/12/06 9:44 a -11.3 -11.3 -11.3 --- --- 9.6 ENE 0.16 10.4 -18.9 --- --- 719.8 0.021 0.000 9.6 4 1
02/12/06 9:45 a -11.3 -11.3 -11.4 --- --- 9.6 ENE 0.16 10.4 -18.9 --- --- 719.9 0.021 0.000 9.6 5 1
02/12/06 9:46 a -11.4 -11.4 -11.4 --- --- 8.7 ENE 0.14 10.4 -18.7 --- --- 719.8 0.021 0.000 9.6 4 1
02/12/06 9:47 a -11.4 -11.4 -11.4 --- --- 9.6 E 0.16 10.4 -19.1 --- --- 719.8 0.021 0.000 9.6 5 1
02/12/06 9:48 a -11.4 -11.4 -11.4 --- --- 11.3 E 0.19 13.0 -19.8 --- --- 719.8 0.021 0.000 9.6 4 1
02/12/06 9:49 a -11.4 -11.4 -11.5 --- --- 12.2 ENE 0.20 13.9 -20.1 --- --- 719.7 0.021 0.000 9.6 4 1
02/12/06 9:50 a -11.4 -11.4 -11.4 --- --- 12.2 ENE 0.20 13.9 -20.1 --- --- 719.7 0.021 0.000 9.6 5 1
02/12/06 9:51 a -11.4 -11.4 -11.4 --- --- 12.2 ENE 0.20 13.9 -20.1 --- --- 719.7 0.021 0.000 9.6 5 1
02/12/06 9:52 a -11.4 -11.4 -11.4 --- --- 11.3 ENE 0.19 12.2 -19.8 --- --- 719.7 0.021 0.000 9.6 4 1
02/12/06 9:53 a -11.4 -11.4 -11.4 --- --- 9.6 ENE 0.16 11.3 -19.1 --- --- 719.8 0.021 0.000 9.6 4 1
02/12/06 9:54 a -11.4 -11.4 -11.4 --- --- 10.4 ENE 0.17 12.2 -19.4 --- --- 719.7 0.021 0.000 9.6 4 1
02/12/06 9:55 a -11.4 -11.4 -11.4 --- --- 10.4 ENE 0.17 11.3 -19.4 --- --- 719.7 0.021 0.000 9.6 4 1
02/12/06 9:56 a -11.4 -11.4 -11.4 --- --- 11.3 ENE 0.19 12.2 -19.7 --- --- 719.7 0.021 0.000 9.6 4 1
02/12/06 9:57 a -11.4 -11.4 -11.4 --- --- 11.3 ENE 0.19 12.2 -19.8 --- --- 719.8 0.021 0.000 9.6 4 1
02/12/06 9:58 a -11.4 -11.4 -11.4 --- --- 10.4 ENE 0.17 11.3 -19.4 --- --- 719.7 0.021 0.000 9.6 4 1
02/12/06 9:59 a -11.4 -11.3 -11.4 --- --- 9.6 ENE 0.16 10.4 -19.1 --- --- 719.8 0.021 0.000 9.6 4 1
02/12/06 10:00 a -11.3 -11.3 -11.3 --- --- 8.7 ENE 0.14 9.6 -18.6 --- --- 719.8 0.021 0.000 9.6 4 1
02/12/06 10:01 a -11.3 -11.3 -11.3 --- --- 8.7 NE 0.14 9.6 -18.6 --- --- 719.8 0.021 0.000 9.6 4 1
02/12/06 10:02 a -11.4 -11.3 -11.4 --- --- 7.0 NE 0.12 7.8 -17.8 --- --- 719.9 0.021 0.000 9.6 4 1
02/12/06 10:03 a -11.4 -11.4 -11.5 --- --- 7.0 ENE 0.12 7.8 -17.8 --- --- 719.9 0.021 0.000 9.6 5 1
02/12/06 10:04 a -11.5 -11.5 -11.5 --- --- 6.1 E 0.10 7.0 -17.4 --- --- 719.9 0.021 0.000 9.6 4 1
02/12/06 10:05 a -11.5 -11.4 -11.5 --- --- 6.1 E 0.10 8.7 -17.4 --- --- 719.8 0.021 0.000 9.6 5 1
02/12/06 10:06 a -11.4 -11.4 -11.4 --- --- 7.8 E 0.13 8.7 -18.3 --- --- 719.8 0.021 0.000 9.6 4 1
02/12/06 10:07 a -11.3 -11.3 -11.4 --- --- 7.8 E 0.13 9.6 -18.2 --- --- 719.8 0.021 0.000 9.6 4 1
02/12/06 10:08 a -11.3 -11.3 -11.3 --- --- 8.7 E 0.14 9.6 -18.5 --- --- 719.8 0.021 0.000 9.6 4 1
02/12/06 10:09 a -11.2 -11.2 -11.3 --- --- 8.7 ENE 0.14 9.6 -18.4 --- --- 719.8 0.021 0.000 9.6 4 1
02/12/06 10:10 a -11.2 -11.2 -11.2 --- --- 8.7 ENE 0.14 9.6 -18.4 --- --- 719.8 0.021 0.000 9.6 4 1
02/12/06 10:11 a -11.1 -11.1 -11.2 --- --- 9.6 ENE 0.16 10.4 -18.7 --- --- 719.8 0.020 0.000 9.6 4 1
02/12/06 10:12 a -11.0 -10.9 -11.1 --- --- 8.7 ENE 0.14 9.6 -18.2 --- --- 719.8 0.020 0.000 9.6 4 1
02/12/06 10:13 a -11.0 -10.9 -11.1 --- --- 9.6 ENE 0.16 10.4 -18.6 --- --- 719.8 0.020 0.000 9.6 4 1
02/12/06 10:14 a -11.0 -11.0 -11.1 --- --- 10.4 ENE 0.17 11.3 -18.9 --- --- 719.8 0.020 0.000 9.6 4 1
02/12/06 10:15 a -11.1 -11.0 -11.1 --- --- 10.4 ENE 0.17 11.3 -18.9 --- --- 719.8 0.020 0.000 9.6 4 1
02/12/06 10:16 a -11.1 -11.0 -11.1 --- --- 9.6 ENE 0.16 11.3 -18.6 --- --- 720.0 0.020 0.000 9.6 4 1
02/12/06 10:17 a -11.0 -11.0 -11.0 --- --- 9.6 ENE 0.16 10.4 -18.6 --- --- 719.8 0.020 0.000 9.6 4 1
02/12/06 10:18 a -11.1 -11.0 -11.1 --- --- 9.6 ENE 0.16 10.4 -18.6 --- --- 719.9 0.020 0.000 9.6 4 1
02/12/06 10:19 a -11.2 -11.1 -11.2 --- --- 9.6 ENE 0.16 10.4 -18.8 --- --- 719.9 0.020 0.000 9.6 5 1
02/12/06 10:20 a -11.3 -11.3 -11.3 --- --- 8.7 ENE 0.14 10.4 -18.5 --- --- 720.0 0.021 0.000 9.6 4 1
02/12/06 10:21 a -11.4 -11.3 -11.6 --- --- 8.7 ENE 0.14 10.4 -18.7 --- --- 720.0 0.021 0.000 9.6 5 1
02/12/06 10:22 a -11.6 -11.6 -11.6 --- --- 9.6 ENE 0.16 10.4 -19.2 --- --- 720.0 0.021 0.000 9.5 4 1
02/12/06 10:23 a -11.6 -11.6 -11.7 --- --- 8.7 NE 0.14 10.4 -18.9 --- --- 720.0 0.021 0.000 9.5 4 1
02/12/06 10:24 a -11.7 -11.7 -11.7 --- --- 9.6 NE 0.16 10.4 -19.4 --- --- 720.1 0.021 0.000 9.4 4 1
02/12/06 10:25 a -11.7 -11.7 -11.7 --- --- 9.6 ENE 0.16 10.4 -19.4 --- --- 720.0 0.021 0.000 9.4 5 1
02/12/06 10:26 a -11.7 -11.7 -11.7 --- --- 8.7 ENE 0.14 9.6 -19.0 --- --- 720.0 0.021 0.000 9.4 4 1
02/12/06 10:27 a -11.6 -11.6 -11.7 --- --- 8.7 ENE 0.14 9.6 -18.9 --- --- 720.0 0.021 0.000 9.4 4 1
02/12/06 10:28 a -11.6 -11.6 -11.6 --- --- 7.8 ENE 0.13 8.7 -18.5 --- --- 720.1 0.021 0.000 9.4 4 1
02/12/06 10:29 a -11.6 -11.6 -11.6 --- --- 7.8 ENE 0.13 8.7 -18.4 --- --- 720.1 0.021 0.000 9.3 4 1
02/12/06 10:30 a -11.6 -11.6 -11.6 --- --- 7.8 ENE 0.13 8.7 -18.4 --- --- 720.1 0.021 0.000 9.3 4 1
02/12/06 10:31 a -11.6 -11.6 -11.6 --- --- 8.7 ENE 0.14 10.4 -18.9 --- --- 720.0 0.021 0.000 9.3 4 1
02/12/06 10:32 a -11.6 -11.6 -11.7 --- --- 9.6 ENE 0.16 10.4 -19.3 --- --- 720.0 0.021 0.000 9.3 4 1
02/12/06 10:33 a -11.8 -11.7 -11.8 --- --- 9.6 ENE 0.16 10.4 -19.5 --- --- 720.0 0.021 0.000 9.3 4 1
02/12/06 10:34 a -11.9 -11.8 -11.9 --- --- 9.6 ENE 0.16 10.4 -19.7 --- --- 720.0 0.021 0.000 9.3 4 1
02/12/06 10:35 a -12.0 -12.0 -12.1 --- --- 9.6 ENE 0.16 11.3 -19.8 --- --- 720.0 0.021 0.000 9.2 4 1
02/12/06 10:36 a -12.1 -12.1 -12.1 --- --- 8.7 ENE 0.14 10.4 -19.5 --- --- 720.1 0.021 0.000 9.2 4 1
02/12/06 10:37 a -12.1 -12.1 -12.1 --- --- 9.6 ENE 0.16 10.4 -19.9 --- --- 720.1 0.021 0.000 9.2 4 1
02/12/06 10:38 a -12.1 -12.1 -12.1 --- --- 9.6 ENE 0.16 11.3 -19.9 --- --- 720.1 0.021 0.000 9.2 4 1
02/12/06 10:39 a -12.2 -12.1 -12.2 --- --- 7.8 ENE 0.13 9.6 -19.2 --- --- 720.1 0.021 0.000 9.2 4 1
02/12/06 10:40 a -12.3 -12.3 -12.3 --- --- 8.7 ENE 0.14 10.4 -19.8 --- --- 720.1 0.021 0.000 9.2 4 1
02/12/06 10:41 a -12.3 -12.3 -12.3 --- --- 9.6 ENE 0.16 10.4 -20.2 --- --- 720.1 0.021 0.000 9.2 4 1
02/12/06 10:42 a -12.3 -12.3 -12.3 --- --- 8.7 ENE 0.14 9.6 -19.8 --- --- 720.1 0.021 0.000 9.1 4 1
02/12/06 10:43 a -12.3 -12.3 -12.3 --- --- 8.7 ENE 0.14 9.6 -19.8 --- --- 720.1 0.021 0.000 9.1 4 1
02/12/06 10:44 a -12.3 -12.3 -12.3 --- --- 8.7 ENE 0.14 10.4 -19.8 --- --- 720.2 0.021 0.000 9.1 4 1
02/12/06 10:45 a -12.4 -12.4 -12.4 --- --- 7.8 E 0.13 9.6 -19.4 --- --- 720.1 0.021 0.000 9.1 4 1
02/12/06 10:46 a -12.5 -12.4 -12.6 --- --- 8.7 E 0.14 10.4 -20.1 --- --- 720.2 0.021 0.000 9.1 4 1
02/12/06 10:47 a -12.6 -12.6 -12.6 --- --- 8.7 E 0.14 12.2 -20.1 --- --- 720.1 0.021 0.000 9.1 4 1
02/12/06 10:48 a -12.6 -12.6 -12.6 --- --- 8.7 E 0.14 12.2 -20.2 --- --- 720.1 0.021 0.000 9.1 4 1
02/12/06 10:49 a -12.6 -12.6 -12.6 --- --- 8.7 E 0.14 10.4 -20.1 --- --- 720.1 0.021 0.000 9.1 4 1
02/12/06 10:50 a -12.4 -12.4 -12.5 --- --- 9.6 E 0.16 13.0 -20.3 --- --- 720.2 0.021 0.000 9.0 4 1
02/12/06 10:51 a -12.4 -12.4 -12.4 --- --- 10.4 E 0.17 13.0 -20.7 --- --- 720.2 0.021 0.000 9.1 4 1
02/12/06 10:52 a -12.4 -12.4 -12.4 --- --- 9.6 E 0.16 12.2 -20.3 --- --- 720.1 0.021 0.000 9.1 4 1
02/12/06 10:53 a -12.4 -12.3 -12.4 --- --- 8.7 E 0.14 11.3 -19.9 --- --- 720.3 0.021 0.000 9.1 4 1
02/12/06 10:54 a -12.3 -12.3 -12.3 --- --- 7.8 E 0.13 10.4 -19.3 --- --- 720.2 0.021 0.000 9.1 4 1
02/12/06 10:55 a -12.2 -12.2 -12.3 --- --- 7.8 E 0.13 9.6 -19.3 --- --- 720.1 0.021 0.000 9.1 4 1
02/12/06 10:56 a -12.3 -12.3 -12.3 --- --- 8.7 E 0.14 11.3 -19.8 --- --- 720.1 0.021 0.000 9.1 4 1
02/12/06 10:57 a -12.3 -12.3 -12.4 --- --- 8.7 E 0.14 11.3 -19.8 --- --- 720.2 0.021 0.000 9.1 4 1
02/12/06 10:58 a -12.4 -12.4 -12.4 --- --- 7.0 E 0.12 9.6 -19.1 --- --- 720.1 0.021 0.000 9.1 4 1
02/12/06 10:59 a -12.4 -12.4 -12.4 --- --- 10.4 E 0.17 13.0 -20.7 --- --- 720.1 0.021 0.000 9.1 4 1
02/12/06 11:00 a -12.4 -12.4 -12.5 --- --- 8.7 E 0.14 11.3 -19.9 --- --- 720.2 0.021 0.000 9.1 4 1
02/12/06 11:01 a -12.5 -12.5 -12.5 --- --- 9.6 E 0.16 11.3 -20.4 --- --- 720.1 0.021 0.000 9.1 4 1
02/12/06 11:02 a -12.5 -12.5 -12.5 --- --- 9.6 E 0.16 11.3 -20.4 --- --- 720.2 0.021 0.000 9.2 4 1
02/12/06 11:03 a -12.6 -12.5 -12.6 --- --- 8.7 E 0.14 10.4 -20.1 --- --- 720.1 0.021 0.000 9.2 4 1
02/12/06 11:04 a -12.6 -12.6 -12.6 --- --- 9.6 E 0.16 10.4 -20.6 --- --- 720.1 0.021 0.000 9.2 4 1
02/12/06 11:05 a -12.6 -12.6 -12.7 --- --- 9.6 E 0.16 11.3 -20.6 --- --- 720.1 0.021 0.000 9.2 4 1
02/12/06 11:06 a -12.7 -12.7 -12.7 --- --- 9.6 E 0.16 11.3 -20.6 --- --- 720.1 0.022 0.000 9.2 4 1
02/12/06 11:07 a -12.7 -12.7 -12.8 --- --- 10.4 E 0.17 11.3 -21.1 --- --- 720.1 0.022 0.000 9.2 4 1
02/12/06 11:08 a -12.7 -12.6 -12.7 --- --- 9.6 E 0.16 11.3 -20.7 --- --- 720.1 0.022 0.000 9.2 4 1
02/12/06 11:09 a -12.6 -12.6 -12.6 --- --- 9.6 E 0.16 10.4 -20.6 --- --- 720.2 0.021 0.000 9.2 4 1
02/12/06 11:10 a -12.6 -12.6 -12.6 --- --- 9.6 E 0.16 11.3 -20.5 --- --- 720.1 0.021 0.000 9.2 4 1
02/12/06 11:11 a -12.6 -12.6 -12.6 --- --- 9.6 E 0.16 10.4 -20.5 --- --- 720.2 0.021 0.000 9.2 4 1
02/12/06 11:12 a -12.6 -12.6 -12.6 --- --- 10.4 E 0.17 12.2 -20.9 --- --- 720.1 0.021 0.000 9.2 4 1
02/12/06 11:13 a -12.7 -12.7 -12.7 --- --- 10.4 E 0.17 12.2 -21.0 --- --- 720.1 0.022 0.000 9.2 4 1
02/12/06 11:14 a -12.7 -12.7 -12.7 --- --- 10.4 E 0.17 11.3 -21.1 --- --- 720.1 0.022 0.000 9.2 4 1
02/12/06 11:15 a -12.7 -12.7 -12.7 --- --- 9.6 E 0.16 10.4 -20.7 --- --- 720.0 0.022 0.000 9.2 4 1
02/12/06 11:16 a -12.8 -12.7 -12.8 --- --- 9.6 E 0.16 11.3 -20.8 --- --- 720.1 0.022 0.000 9.2 4 1
02/12/06 11:17 a -12.7 -12.6 -12.7 --- --- 9.6 E 0.16 11.3 -20.6 --- --- 720.1 0.022 0.000 9.2 4 1
02/12/06 11:18 a -12.6 -12.6 -12.6 --- --- 8.7 E 0.14 9.6 -20.1 --- --- 720.1 0.021 0.000 9.2 4 1
02/12/06 11:19 a -12.5 -12.5 -12.6 --- --- 7.8 E 0.13 8.7 -19.6 --- --- 720.2 0.021 0.000 9.2 4 1
02/12/06 11:20 a -12.6 -12.5 -12.6 --- --- 7.8 E 0.13 9.6 -19.7 --- --- 720.2 0.021 0.000 9.2 4 1
02/12/06 11:21 a -12.6 -12.6 -12.6 --- --- 8.7 E 0.14 9.6 -20.1 --- --- 720.2 0.021 0.000 9.2 4 1
02/12/06 11:22 a -12.6 -12.5 -12.6 --- --- 7.8 E 0.13 9.6 -19.7 --- --- 720.1 0.021 0.000 9.2 4 1
02/12/06 11:23 a -12.5 -12.4 -12.5 --- --- 7.8 E 0.13 10.4 -19.6 --- --- 720.1 0.021 0.000 9.3 4 1
02/12/06 11:24 a -12.4 -12.4 -12.5 --- --- 8.7 E 0.14 10.4 -19.9 --- --- 720.1 0.021 0.000 9.3 4 1
02/12/06 11:25 a -12.5 -12.5 -12.5 --- --- 9.6 ESE 0.16 11.3 -20.4 --- --- 720.2 0.021 0.000 9.3 4 1
02/12/06 11:26 a -12.4 -12.4 -12.4 --- --- 10.4 SE 0.17 11.3 -20.7 --- --- 720.1 0.021 0.000 9.3 4 1
02/12/06 11:27 a -12.3 -12.2 -12.4 --- --- 10.4 ESE 0.17 11.3 -20.6 --- --- 720.2 0.021 0.000 9.3 4 1
02/12/06 11:28 a -12.2 -12.2 -12.2 --- --- 9.6 ESE 0.16 10.4 -20.1 --- --- 720.2 0.021 0.000 9.3 4 1
02/12/06 11:29 a -12.2 -12.1 -12.2 --- --- 11.3 SE 0.19 12.2 -20.7 --- --- 720.3 0.021 0.000 9.3 4 1
02/12/06 11:30 a -12.1 -11.9 -12.1 --- --- 11.3 SSE 0.19 12.2 -20.6 --- --- 720.2 0.021 0.000 9.3 4 1
02/12/06 11:31 a -11.8 -11.7 -11.9 --- --- 10.4 SSE 0.17 13.0 -19.9 --- --- 720.3 0.021 0.000 9.3 4 1
02/12/06 11:32 a -11.6 -11.6 -11.7 --- --- 11.3 SSE 0.19 13.0 -20.0 --- --- 720.3 0.021 0.000 9.3 4 1
02/12/06 11:33 a -11.4 -11.3 -11.6 --- --- 11.3 SSE 0.19 13.9 -19.8 --- --- 720.2 0.021 0.000 9.3 4 1
02/12/06 11:34 a -11.3 -11.2 -11.3 --- --- 13.0 SE 0.22 14.8 -20.2 --- --- 720.3 0.021 0.000 9.3 4 1
02/12/06 11:35 a -11.2 -11.2 -11.2 --- --- 13.0 SE 0.22 16.5 -20.1 --- --- 720.3 0.020 0.000 9.3 4 1
02/12/06 11:36 a -11.2 -11.2 -11.2 --- --- 15.7 SSE 0.26 17.4 -20.8 --- --- 720.2 0.020 0.000 9.3 4 1
02/12/06 11:37 a -11.1 -11.1 -11.2 --- --- 14.8 SSE 0.25 16.5 -20.5 --- --- 720.3 0.020 0.000 9.3 4 1
02/12/06 11:38 a -11.1 -11.1 -11.1 --- --- 15.7 SSE 0.26 17.4 -20.7 --- --- 720.4 0.020 0.000 9.3 4 1
02/12/06 11:39 a -11.1 -11.1 -11.1 --- --- 13.0 SSE 0.22 14.8 -19.9 --- --- 720.3 0.020 0.000 9.3 4 1
02/12/06 11:40 a -11.1 -11.0 -11.1 --- --- 15.7 E 0.26 20.0 -20.7 --- --- 720.3 0.020 0.000 9.3 4 1
02/12/06 11:41 a -11.4 -11.3 -11.8 --- --- 13.9 E 0.23 15.7 -20.7 --- --- 720.3 0.021 0.000 9.3 4 1
02/12/06 11:42 a -11.9 -11.8 -12.1 --- --- 12.2 E 0.20 15.7 -20.7 --- --- 720.3 0.021 0.000 9.3 4 1
02/12/06 11:43 a -12.3 -12.2 -12.3 --- --- 13.0 E 0.22 14.8 -21.4 --- --- 720.4 0.021 0.000 9.3 4 1
02/12/06 11:44 a -12.5 -12.5 -12.5 --- --- 14.8 ESE 0.25 15.7 -22.3 --- --- 720.3 0.021 0.000 9.3 4 1
02/12/06 11:45 a -12.4 -12.4 -12.4 --- --- 15.7 ESE 0.26 16.5 -22.4 --- --- 720.3 0.021 0.000 9.3 4 1
02/12/06 11:46 a -12.3 -12.3 -12.3 --- --- 14.8 E 0.25 17.4 -22.1 --- --- 720.3 0.021 0.000 9.3 4 1
02/12/06 11:47 a -12.3 -12.3 -12.4 --- --- 13.9 E 0.23 15.7 -21.8 --- --- 720.2 0.021 0.000 9.3 4 1
02/12/06 11:48 a -12.4 -12.4 -12.4 --- --- 13.9 E 0.23 18.3 -21.9 --- --- 720.3 0.021 0.000 9.3 4 1
02/12/06 11:49 a -12.4 -12.4 -12.5 --- --- 15.7 ESE 0.26 20.9 -22.4 --- --- 720.3 0.021 0.000 9.3 4 1
02/12/06 11:50 a -12.3 -12.3 -12.4 --- --- 16.5 E 0.28 20.9 -22.6 --- --- 720.2 0.021 0.000 9.3 4 1
02/12/06 11:51 a -12.2 -12.2 -12.3 --- --- 16.5 SE 0.28 20.9 -22.4 --- --- 720.4 0.021 0.000 9.3 4 1
02/12/06 11:52 a -12.2 -12.2 -12.3 --- --- 13.0 ESE 0.22 16.5 -21.4 --- --- 720.3 0.021 0.000 9.3 4 1
02/12/06 11:53 a -12.2 -12.2 -12.3 --- --- 13.0 ESE 0.22 14.8 -21.4 --- --- 720.3 0.021 0.000 9.3 4 1
02/12/06 11:54 a -12.2 -12.2 -12.2 --- --- 13.0 ESE 0.22 15.7 -21.3 --- --- 720.3 0.021 0.000 9.3 4 1
02/12/06 11:55 a -12.1 -12.0 -12.2 --- --- 14.8 ESE 0.25 18.3 -21.7 --- --- 720.3 0.021 0.000 9.3 4 1
02/12/06 11:56 a -11.9 -11.9 -12.0 --- --- 12.2 ESE 0.20 13.9 -20.7 --- --- 720.4 0.021 0.000 9.3 4 1
02/12/06 11:57 a -11.9 -11.9 -11.9 --- --- 16.5 SE 0.28 18.3 -22.1 --- --- 720.3 0.021 0.000 9.3 4 1
02/12/06 11:58 a -11.9 -11.9 -11.9 --- --- 14.8 ESE 0.25 16.5 -21.5 --- --- 720.3 0.021 0.000 9.3 4 1
02/12/06 11:59 a -11.9 -11.9 -11.9 --- --- 13.9 ESE 0.23 15.7 -21.2 --- --- 720.3 0.021 0.000 9.3 4 1
02/12/06 12:00 p -11.9 -11.9 -11.9 --- --- 14.8 ESE 0.25 15.7 -21.6 --- --- 720.3 0.021 0.000 9.3 4 1
02/12/06 12:01 p -11.9 -11.9 -12.1 --- --- 14.8 ESE 0.25 15.7 -21.6 --- --- 720.2 0.021 0.000 9.3 4 1
02/12/06 12:02 p -12.0 -12.0 -12.1 --- --- 16.5 ESE 0.28 18.3 -22.1 --- --- 720.3 0.021 0.000 9.3 4 1
02/12/06 12:03 p -12.1 -12.0 -12.3 --- --- 17.4 E 0.29 20.0 -22.5 --- --- 720.2 0.021 0.000 9.3 4 1
02/12/06 12:04 p -12.4 -12.3 -12.6 --- --- 17.4 E 0.29 19.1 -22.9 --- --- 720.1 0.021 0.000 9.3 4 1
02/12/06 12:05 p -12.8 -12.6 -13.1 --- --- 17.4 E 0.29 19.1 -23.4 --- --- 720.1 0.022 0.000 9.3 4 1
02/12/06 12:06 p -13.2 -13.1 -13.3 --- --- 18.3 E 0.30 20.9 -24.1 --- --- 720.1 0.022 0.000 9.3 4 1
02/12/06 12:07 p -13.4 -13.3 -13.5 --- --- 17.4 E 0.29 19.1 -24.3 --- --- 720.2 0.022 0.000 9.3 4 1
02/12/06 12:08 p -13.6 -13.5 -13.6 --- --- 17.4 E 0.29 20.0 -24.4 --- --- 720.3 0.022 0.000 9.3 4 1
02/12/06 12:09 p -13.5 -13.5 -13.6 --- --- 18.3 E 0.30 21.7 -24.6 --- --- 720.2 0.022 0.000 9.3 4 1
02/12/06 12:10 p -13.5 -13.4 -13.6 --- --- 20.9 ESE 0.35 23.5 -25.2 --- --- 720.1 0.022 0.000 9.3 4 1
02/12/06 12:11 p -13.4 -13.3 -13.4 --- --- 20.9 ESE 0.35 24.3 -25.1 --- --- 720.2 0.022 0.000 9.3 4 1
02/12/06 12:12 p -13.2 -13.2 -13.2 --- --- 20.9 ESE 0.35 24.3 -24.8 --- --- 720.3 0.022 0.000 9.3 4 1
02/12/06 12:13 p -13.1 -13.1 -13.1 --- --- 20.0 SE 0.33 21.7 -24.4 --- --- 720.2 0.022 0.000 9.3 4 1
02/12/06 12:14 p -13.1 -13.1 -13.1 --- --- 20.9 ESE 0.35 21.7 -24.6 --- --- 720.3 0.022 0.000 9.3 4 1
02/12/06 12:15 p -13.1 -13.1 -13.1 --- --- 20.0 SE 0.33 21.7 -24.4 --- --- 720.3 0.022 0.000 9.3 4 1
02/12/06 12:16 p -13.1 -13.1 -13.1 --- --- 19.1 SE 0.32 20.9 -24.2 --- --- 720.3 0.022 0.000 9.3 4 1
02/12/06 12:17 p -13.0 -12.9 -13.1 --- --- 17.4 SE 0.29 20.0 -23.7 --- --- 720.4 0.022 0.000 9.3 4 1
02/12/06 12:18 p -13.0 -12.9 -13.0 --- --- 18.3 SE 0.30 20.0 -23.9 --- --- 720.3 0.022 0.000 9.3 4 1
02/12/06 12:19 p -12.9 -12.9 -13.0 --- --- 18.3 SE 0.30 21.7 -23.8 --- --- 720.4 0.022 0.000 9.3 4 1
02/12/06 12:20 p -13.0 -12.9 -13.0 --- --- 16.5 SE 0.28 18.3 -23.4 --- --- 720.5 0.022 0.000 9.3 4 1
02/12/06 12:21 p -12.9 -12.9 -13.0 --- --- 15.7 SE 0.26 19.1 -23.1 --- --- 720.4 0.022 0.000 9.3 4 1
02/12/06 12:22 p -12.9 -12.9 -13.0 --- --- 18.3 SE 0.30 20.0 -23.8 --- --- 720.4 0.022 0.000 9.3 4 1
02/12/06 12:23 p -12.9 -12.9 -12.9 --- --- 18.3 SE 0.30 19.1 -23.8 --- --- 720.4 0.022 0.000 9.3 4 1
02/12/06 12:24 p -12.9 -12.9 -12.9 --- --- 17.4 SSE 0.29 18.3 -23.6 --- --- 720.4 0.022 0.000 9.3 4 1
02/12/06 12:25 p -12.9 -12.9 -12.9 --- --- 17.4 SSE 0.29 19.1 -23.6 --- --- 720.4 0.022 0.000 9.3 4 1
02/12/06 12:26 p -12.9 -12.9 -13.0 --- --- 18.3 SSE 0.30 20.0 -23.8 --- --- 720.5 0.022 0.000 9.3 4 1
02/12/06 12:27 p -12.9 -12.9 -12.9 --- --- 19.1 SSE 0.32 22.6 -23.9 --- --- 720.4 0.022 0.000 9.3 4 1
02/12/06 12:28 p -12.8 -12.8 -12.9 --- --- 18.3 SSE 0.30 21.7 -23.7 --- --- 720.5 0.022 0.000 9.3 4 1
02/12/06 12:29 p -12.8 -12.8 -12.8 --- --- 17.4 SSE 0.29 19.1 -23.4 --- --- 720.5 0.022 0.000 9.3 4 1
02/12/06 12:30 p -12.7 -12.7 -12.8 --- --- 17.4 SSE 0.29 19.1 -23.3 --- --- 720.5 0.022 0.000 9.3 4 1
02/12/06 12:31 p -12.8 -12.7 -12.8 --- --- 17.4 SSE 0.29 20.0 -23.4 --- --- 720.6 0.022 0.000 9.3 4 1
02/12/06 12:32 p -12.7 -12.7 -12.7 --- --- 18.3 S 0.30 23.5 -23.4 --- --- 720.6 0.022 0.000 9.3 4 1
02/12/06 12:33 p -12.7 -12.7 -12.7 --- --- 16.5 SSE 0.28 18.3 -23.0 --- --- 720.7 0.022 0.000 9.3 4 1
02/12/06 12:34 p -12.7 -12.6 -12.7 --- --- 15.7 SSE 0.26 19.1 -22.8 --- --- 720.6 0.022 0.000 9.3 4 1
02/12/06 12:35 p -12.7 -12.6 -12.7 --- --- 20.9 S 0.35 27.8 -24.1 --- --- 720.5 0.022 0.000 9.3 4 1
02/12/06 12:36 p -12.6 -12.6 -12.6 --- --- 18.3 SSE 0.30 20.9 -23.4 --- --- 720.7 0.021 0.000 9.3 4 1
02/12/06 12:37 p -12.6 -12.6 -12.6 --- --- 22.6 SSE 0.38 27.0 -24.4 --- --- 720.5 0.021 0.000 9.3 4 1
02/12/06 12:38 p -12.6 -12.6 -12.6 --- --- 17.4 SSE 0.29 23.5 -23.2 --- --- 720.6 0.021 0.000 9.3 4 1
02/12/06 12:39 p -12.6 -12.6 -12.6 --- --- 16.5 SSE 0.28 19.1 -22.9 --- --- 720.6 0.021 0.000 9.3 4 1
02/12/06 12:40 p -12.7 -12.6 -12.7 --- --- 19.1 SSE 0.32 26.1 -23.7 --- --- 720.5 0.022 0.000 9.3 4 1
02/12/06 12:41 p -12.7 -12.7 -12.7 --- --- 22.6 SSE 0.38 25.2 -24.4 --- --- 720.6 0.022 0.000 9.3 4 1
02/12/06 12:42 p -12.6 -12.6 -12.7 --- --- 19.1 S 0.32 20.9 -23.6 --- --- 720.5 0.021 0.000 9.3 4 1
02/12/06 12:43 p -12.7 -12.7 -12.7 --- --- 20.9 SE 0.35 23.5 -24.1 --- --- 720.5 0.022 0.000 9.3 4 1
02/12/06 12:44 p -12.7 -12.7 -12.7 --- --- 21.7 SE 0.36 24.3 -24.3 --- --- 720.6 0.022 0.000 9.3 4 1
02/12/06 12:45 p -12.7 -12.7 -12.7 --- --- 17.4 SSE 0.29 19.1 -23.3 --- --- 720.5 0.022 0.000 9.3 4 1
02/12/06 12:46 p -12.7 -12.7 -12.7 --- --- 18.3 SSE 0.30 20.0 -23.6 --- --- 720.5 0.022 0.000 9.3 4 1
02/12/06 12:47 p -12.7 -12.7 -12.7 --- --- 19.1 SSE 0.32 21.7 -23.7 --- --- 720.5 0.022 0.000 9.3 4 1
02/12/06 12:48 p -12.7 -12.7 -12.7 --- --- 17.4 SSE 0.29 20.9 -23.2 --- --- 720.6 0.022 0.000 9.3 4 1
02/12/06 12:49 p -12.7 -12.7 -12.7 --- --- 19.1 SSE 0.32 22.6 -23.7 --- --- 720.6 0.022 0.000 9.3 4 1
02/12/06 12:50 p -12.7 -12.7 -12.7 --- --- 21.7 SSE 0.36 27.0 -24.3 --- --- 720.5 0.022 0.000 9.3 4 1
02/12/06 12:51 p -12.6 -12.5 -12.6 --- --- 23.5 SSE 0.39 27.8 -24.6 --- --- 720.5 0.021 0.000 9.3 4 1
02/12/06 12:52 p -12.5 -12.5 -12.5 --- --- 20.0 SSE 0.33 20.9 -23.7 --- --- 720.6 0.021 0.000 9.3 4 1
02/12/06 12:53 p -12.5 -12.5 -12.6 --- --- 20.0 SSE 0.33 23.5 -23.7 --- --- 720.6 0.021 0.000 9.3 4 1
02/12/06 12:54 p -12.7 -12.6 -12.8 --- --- 21.7 SE 0.36 23.5 -24.3 --- --- 720.5 0.022 0.000 9.3 4 1
02/12/06 12:55 p -12.8 -12.8 -12.9 --- --- 23.5 SSE 0.39 26.1 -24.9 --- --- 720.5 0.022 0.000 9.3 4 1
02/12/06 12:56 p -12.9 -12.9 -13.1 --- --- 22.6 SSE 0.38 26.1 -24.8 --- --- 720.5 0.022 0.000 9.3 4 1
02/12/06 12:57 p -13.1 -13.1 -13.1 --- --- 21.7 SSE 0.36 25.2 -24.9 --- --- 720.5 0.022 0.000 9.3 4 1
02/12/06 12:58 p -13.2 -13.1 -13.2 --- --- 24.3 SSE 0.41 28.7 -25.5 --- --- 720.5 0.022 0.000 9.3 4 1
02/12/06 12:59 p -13.2 -13.2 -13.2 --- --- 22.6 SSE 0.38 25.2 -25.2 --- --- 720.6 0.022 0.000 9.3 4 1
02/12/06 1:00 p -13.2 -13.2 -13.2 --- --- 20.9 SSE 0.35 25.2 -24.8 --- --- 720.6 0.022 0.000 9.3 4 1
02/12/06 1:01 p -13.2 -13.2 -13.3 --- --- 18.3 SSE 0.30 20.9 -24.2 --- --- 720.7 0.022 0.000 9.3 4 1
02/12/06 1:02 p -13.3 -13.3 -13.3 --- --- 18.3 SE 0.30 19.1 -24.3 --- --- 720.7 0.022 0.000 9.3 4 1
02/12/06 1:03 p -13.3 -13.3 -13.3 --- --- 17.4 SE 0.29 19.1 -24.1 --- --- 720.7 0.022 0.000 9.3 4 1
02/12/06 1:04 p -13.3 -13.3 -13.3 --- --- 20.9 SSE 0.35 24.3 -24.9 --- --- 720.7 0.022 0.000 9.3 4 1
02/12/06 1:05 p -13.3 -13.2 -13.3 --- --- 19.1 SSE 0.32 22.6 -24.5 --- --- 720.6 0.022 0.000 9.3 4 1
02/12/06 1:06 p -13.2 -13.2 -13.3 --- --- 19.1 SSE 0.32 21.7 -24.4 --- --- 720.7 0.022 0.000 9.3 4 1
02/12/06 1:07 p -13.3 -13.2 -13.3 --- --- 21.7 SSE 0.36 25.2 -25.1 --- --- 720.6 0.022 0.000 9.3 4 1
02/12/06 1:08 p -13.2 -13.2 -13.2 --- --- 21.7 SSE 0.36 25.2 -25.0 --- --- 720.7 0.022 0.000 9.3 4 1
02/12/06 1:09 p -13.2 -13.2 -13.2 --- --- 19.1 SSE 0.32 22.6 -24.4 --- --- 720.7 0.022 0.000 9.3 4 1
02/12/06 1:10 p -13.2 -13.2 -13.2 --- --- 18.3 SSE 0.30 20.9 -24.2 --- --- 720.6 0.022 0.000 9.3 4 1
02/12/06 1:11 p -13.3 -13.2 -13.3 --- --- 18.3 SSE 0.30 20.9 -24.3 --- --- 720.7 0.022 0.000 9.3 4 1
02/12/06 1:12 p -13.3 -13.3 -13.3 --- --- 20.9 SSE 0.35 22.6 -24.9 --- --- 720.7 0.022 0.000 9.3 4 1
02/12/06 1:13 p -13.3 -13.3 -13.3 --- --- 19.1 SSE 0.32 21.7 -24.6 --- --- 720.7 0.022 0.000 9.3 4 1
02/12/06 1:14 p -13.3 -13.3 -13.3 --- --- 18.3 SSE 0.30 22.6 -24.3 --- --- 720.7 0.022 0.000 9.3 4 1
02/12/06 1:15 p -13.3 -13.2 -13.3 --- --- 20.9 SSE 0.35 25.2 -24.9 --- --- 720.6 0.022 0.000 9.3 4 1
02/12/06 1:16 p -13.2 -13.1 -13.2 --- --- 25.2 SSE 0.42 31.3 -25.7 --- --- 720.5 0.022 0.000 9.3 4 1
02/12/06 1:17 p -13.0 -12.9 -13.0 --- --- 25.2 SSE 0.42 28.7 -25.4 --- --- 720.7 0.022 0.000 9.3 4 1
02/12/06 1:18 p -12.9 -12.9 -12.9 --- --- 22.6 SSE 0.38 27.8 -24.8 --- --- 720.7 0.022 0.000 9.3 4 1
02/12/06 1:19 p -12.9 -12.9 -12.9 --- --- 21.7 SSE 0.36 25.2 -24.6 --- --- 720.6 0.022 0.000 9.3 4 1
02/12/06 1:20 p -12.9 -12.9 -12.9 --- --- 21.7 SSE 0.36 25.2 -24.7 --- --- 720.7 0.022 0.000 9.3 4 1
02/12/06 1:21 p -13.0 -12.9 -13.0 --- --- 21.7 SSE 0.36 24.3 -24.7 --- --- 720.6 0.022 0.000 9.3 4 1
02/12/06 1:22 p -13.1 -13.1 -13.1 --- --- 21.7 SE 0.36 25.2 -24.8 --- --- 720.7 0.022 0.000 9.3 4 1
02/12/06 1:23 p -13.2 -13.2 -13.2 --- --- 20.9 SSE 0.35 23.5 -24.7 --- --- 720.6 0.022 0.000 9.3 4 1
02/12/06 1:24 p -13.2 -13.2 -13.3 --- --- 19.1 SE 0.32 21.7 -24.4 --- --- 720.7 0.022 0.000 9.3 4 1
02/12/06 1:25 p -13.4 -13.4 -13.4 --- --- 22.6 SE 0.38 24.3 -25.4 --- --- 720.6 0.022 0.000 9.3 4 1
02/12/06 1:26 p -13.6 -13.5 -13.6 --- --- 22.6 SE 0.38 24.3 -25.7 --- --- 720.6 0.022 0.000 9.3 4 1
02/12/06 1:27 p -13.7 -13.6 -13.7 --- --- 20.0 SE 0.33 21.7 -25.2 --- --- 720.6 0.022 0.000 9.3 4 1
02/12/06 1:28 p -13.8 -13.7 -13.8 --- --- 20.0 SE 0.33 22.6 -25.3 --- --- 720.7 0.022 0.000 9.3 4 1
02/12/06 1:29 p -13.8 -13.8 -13.8 --- --- 20.9 SE 0.35 22.6 -25.6 --- --- 720.7 0.022 0.000 9.3 4 1
02/12/06 1:30 p -13.8 -13.8 -13.8 --- --- 21.7 SSE 0.36 27.0 -25.8 --- --- 720.8 0.022 0.000 9.3 4 1
02/12/06 1:31 p -13.8 -13.8 -13.8 --- --- 20.9 SSE 0.35 25.2 -25.6 --- --- 720.6 0.022 0.000 9.3 4 1
02/12/06 1:32 p -13.9 -13.8 -13.9 --- --- 21.7 SSE 0.36 25.2 -25.9 --- --- 720.7 0.022 0.000 9.3 4 1
02/12/06 1:33 p -13.9 -13.9 -13.9 --- --- 20.9 SSE 0.35 23.5 -25.7 --- --- 720.6 0.022 0.000 9.3 4 1
02/12/06 1:34 p -13.9 -13.9 -13.9 --- --- 22.6 SSE 0.38 25.2 -26.1 --- --- 720.6 0.022 0.000 9.3 4 1
02/12/06 1:35 p -13.9 -13.9 -13.9 --- --- 20.9 SE 0.35 23.5 -25.7 --- --- 720.5 0.022 0.000 9.3 4 1
02/12/06 1:36 p -13.9 -13.9 -13.9 --- --- 20.9 SE 0.35 24.3 -25.8 --- --- 720.6 0.022 0.000 9.3 4 1
02/12/06 1:37 p -14.0 -13.9 -14.0 --- --- 19.1 SSE 0.32 20.9 -25.4 --- --- 720.7 0.022 0.000 9.3 4 1
02/12/06 1:38 p -13.9 -13.9 -14.0 --- --- 19.1 SE 0.32 20.9 -25.4 --- --- 720.6 0.022 0.000 9.3 4 1
02/12/06 1:39 p -13.9 -13.9 -13.9 --- --- 20.9 SE 0.35 24.3 -25.8 --- --- 720.6 0.022 0.000 9.3 4 1
02/12/06 1:40 p -13.9 -13.9 -13.9 --- --- 19.1 SE 0.32 22.6 -25.4 --- --- 720.8 0.022 0.000 9.3 4 1
02/12/06 1:41 p -13.9 -13.9 -13.9 --- --- 20.9 SE 0.35 24.3 -25.8 --- --- 720.7 0.022 0.000 9.3 4 1
02/12/06 1:42 p -13.9 -13.9 -13.9 --- --- 20.0 SE 0.33 23.5 -25.5 --- --- 720.7 0.022 0.000 9.3 4 1
02/12/06 1:43 p -13.9 -13.9 -13.9 --- --- 20.9 SSE 0.35 23.5 -25.7 --- --- 720.7 0.022 0.000 9.3 4 1
02/12/06 1:44 p -13.8 -13.8 -13.9 --- --- 23.5 SSE 0.39 27.8 -26.2 --- --- 720.7 0.022 0.000 9.3 4 1
02/12/06 1:45 p -13.8 -13.8 -13.8 --- --- 21.7 SE 0.36 24.3 -25.8 --- --- 720.6 0.022 0.000 9.3 4 1
02/12/06 1:46 p -13.8 -13.8 -13.8 --- --- 20.0 SSE 0.33 22.6 -25.3 --- --- 720.7 0.022 0.000 9.3 4 1
02/12/06 1:47 p -13.7 -13.7 -13.8 --- --- 20.9 SSE 0.35 24.3 -25.5 --- --- 720.7 0.022 0.000 9.3 4 1
02/12/06 1:48 p -13.7 -13.7 -13.7 --- --- 20.9 SE 0.35 27.0 -25.5 --- --- 720.6 0.022 0.000 9.3 4 1
02/12/06 1:49 p -13.7 -13.7 -13.7 --- --- 21.7 SSE 0.36 24.3 -25.7 --- --- 720.8 0.022 0.000 9.3 4 1
02/12/06 1:50 p -13.7 -13.7 -13.7 --- --- 21.7 SSE 0.36 24.3 -25.7 --- --- 720.7 0.022 0.000 9.3 4 1
02/12/06 1:51 p -13.7 -13.7 -13.7 --- --- 20.9 SE 0.35 24.3 -25.4 --- --- 720.7 0.022 0.000 9.3 4 1
02/12/06 1:52 p -13.6 -13.6 -13.7 --- --- 20.9 SE 0.35 25.2 -25.3 --- --- 720.7 0.022 0.000 9.3 4 1
02/12/06 1:53 p -13.7 -13.6 -13.7 --- --- 24.3 SE 0.41 27.8 -26.2 --- --- 720.7 0.022 0.000 9.3 4 1
02/12/06 1:54 p -13.6 -13.6 -13.6 --- --- 23.5 SSE 0.39 26.1 -25.9 --- --- 720.7 0.022 0.000 9.4 4 1
02/12/06 1:55 p -13.6 -13.6 -13.6 --- --- 21.7 SE 0.36 25.2 -25.6 --- --- 720.7 0.022 0.000 9.4 4 1
02/12/06 1:56 p -13.6 -13.6 -13.6 --- --- 22.6 SE 0.38 27.8 -25.7 --- --- 720.7 0.022 0.000 9.4 4 1
02/12/06 1:57 p -13.6 -13.6 -13.6 --- --- 21.7 SE 0.36 27.0 -25.6 --- --- 720.7 0.022 0.000 9.4 4 1
02/12/06 1:58 p -13.6 -13.6 -13.6 --- --- 22.6 SE 0.38 25.2 -25.7 --- --- 720.6 0.022 0.000 9.4 4 1
02/12/06 1:59 p -13.6 -13.6 -13.6 --- --- 20.9 SSE 0.35 23.5 -25.3 --- --- 720.8 0.022 0.000 9.4 4 1
02/12/06 2:00 p -13.6 -13.6 -13.6 --- --- 20.9 SSE 0.35 23.5 -25.3 --- --- 720.6 0.022 0.000 9.4 4 1
02/12/06 2:01 p -13.6 -13.6 -13.6 --- --- 20.0 SSE 0.33 21.7 -25.1 --- --- 720.8 0.022 0.000 9.4 4 1
02/12/06 2:02 p -13.6 -13.5 -13.6 --- --- 22.6 SE 0.38 27.0 -25.7 --- --- 720.7 0.022 0.000 9.3 4 1
02/12/06 2:03 p -13.5 -13.5 -13.5 --- --- 22.6 SSE 0.38 25.2 -25.6 --- --- 720.7 0.022 0.000 9.3 4 1
02/12/06 2:04 p -13.5 -13.5 -13.5 --- --- 24.3 SE 0.41 27.0 -25.9 --- --- 720.7 0.022 0.000 9.3 4 1
02/12/06 2:05 p -13.5 -13.4 -13.6 --- --- 22.6 SSE 0.38 30.4 -25.6 --- --- 720.8 0.022 0.000 9.3 4 1
02/12/06 2:06 p -13.4 -13.4 -13.4 --- --- 22.6 SSE 0.38 25.2 -25.5 --- --- 720.6 0.022 0.000 9.3 4 1
02/12/06 2:07 p -13.4 -13.4 -13.4 --- --- 23.5 SSE 0.39 27.0 -25.7 --- --- 720.7 0.022 0.000 9.3 4 1
02/12/06 2:08 p -13.4 -13.4 -13.4 --- --- 21.7 SE 0.36 26.1 -25.3 --- --- 720.7 0.022 0.000 9.3 4 1
02/12/06 2:09 p -13.4 -13.4 -13.4 --- --- 21.7 SSE 0.36 24.3 -25.3 --- --- 720.7 0.022 0.000 9.3 4 1
02/12/06 2:10 p -13.4 -13.4 -13.4 --- --- 22.6 SSE 0.38 28.7 -25.5 --- --- 720.6 0.022 0.000 9.3 4 1
02/12/06 2:11 p -13.4 -13.4 -13.4 --- --- 21.7 SE 0.36 24.3 -25.3 --- --- 720.7 0.022 0.000 9.3 4 1
02/12/06 2:12 p -13.4 -13.4 -13.4 --- --- 20.9 SSE 0.35 23.5 -25.1 --- --- 720.8 0.022 0.000 9.3 4 1
02/12/06 2:13 p -13.4 -13.4 -13.4 --- --- 20.9 SSE 0.35 26.1 -25.1 --- --- 720.7 0.022 0.000 9.3 4 1
02/12/06 2:14 p -13.4 -13.4 -13.4 --- --- 20.9 SSE 0.35 23.5 -25.1 --- --- 720.7 0.022 0.000 9.3 4 1
02/12/06 2:15 p -13.4 -13.4 -13.4 --- --- 20.9 SSE 0.35 25.2 -25.1 --- --- 720.7 0.022 0.000 9.3 4 1
02/12/06 2:16 p -13.3 -13.3 -13.4 --- --- 22.6 SSE 0.38 24.3 -25.3 --- --- 720.7 0.022 0.000 9.3 4 1
02/12/06 2:17 p -13.3 -13.2 -13.3 --- --- 20.0 SSE 0.33 24.3 -24.7 --- --- 720.7 0.022 0.000 9.3 4 1
02/12/06 2:18 p -13.2 -13.2 -13.2 --- --- 20.0 SSE 0.33 23.5 -24.6 --- --- 720.6 0.022 0.000 9.3 4 1
02/12/06 2:19 p -13.2 -13.2 -13.2 --- --- 20.9 SSE 0.35 24.3 -24.7 --- --- 720.7 0.022 0.000 9.3 4 1
02/12/06 2:20 p -13.2 -13.2 -13.2 --- --- 21.7 SSE 0.36 26.1 -25.0 --- --- 720.6 0.022 0.000 9.3 4 1
02/12/06 2:21 p -13.2 -13.2 -13.2 --- --- 20.0 SSE 0.33 22.6 -24.6 --- --- 720.7 0.022 0.000 9.3 4 1
02/12/06 2:22 p -13.3 -13.2 -13.3 --- --- 20.0 SE 0.33 24.3 -24.7 --- --- 720.8 0.022 0.000 9.3 4 1
02/12/06 2:23 p -13.4 -13.3 -13.4 --- --- 19.1 SE 0.32 20.9 -24.6 --- --- 720.8 0.022 0.000 9.3 4 1
02/12/06 2:24 p -13.4 -13.4 -13.4 --- --- 19.1 SE 0.32 22.6 -24.7 --- --- 720.7 0.022 0.000 9.3 4 1
02/12/06 2:25 p -13.5 -13.4 -13.5 --- --- 20.9 SE 0.35 25.2 -25.2 --- --- 720.7 0.022 0.000 9.3 4 1
02/12/06 2:26 p -13.4 -13.4 -13.5 --- --- 20.0 SE 0.33 25.2 -24.9 --- --- 720.7 0.022 0.000 9.3 4 1
02/12/06 2:27 p -13.5 -13.5 -13.5 --- --- 19.1 SSE 0.32 20.9 -24.8 --- --- 720.9 0.022 0.000 9.3 4 1
02/12/06 2:28 p -13.5 -13.5 -13.5 --- --- 19.1 SSE 0.32 22.6 -24.8 --- --- 720.8 0.022 0.000 9.3 4 1
02/12/06 2:29 p -13.5 -13.4 -13.5 --- --- 20.0 SSE 0.33 22.6 -25.0 --- --- 720.8 0.022 0.000 9.3 4 1
02/12/06 2:30 p -13.4 -13.4 -13.4 --- --- 20.9 SSE 0.35 23.5 -25.1 --- --- 720.8 0.022 0.000 9.3 4 1
02/12/06 2:31 p -13.4 -13.4 -13.4 --- --- 20.9 SE 0.35 23.5 -25.1 --- --- 720.7 0.022 0.000 9.2 4 1
02/12/06 2:32 p -13.4 -13.4 -13.5 --- --- 19.1 SE 0.32 22.6 -24.7 --- --- 720.8 0.022 0.000 9.3 4 1
02/12/06 2:33 p -13.5 -13.4 -13.5 --- --- 20.0 SE 0.33 25.2 -25.0 --- --- 720.7 0.022 0.000 9.3 4 1
02/12/06 2:34 p -13.4 -13.4 -13.4 --- --- 19.1 SE 0.32 20.9 -24.7 --- --- 720.7 0.022 0.000 9.3 4 1
02/12/06 2:35 p -13.4 -13.4 -13.4 --- --- 20.0 SE 0.33 22.6 -24.9 --- --- 720.7 0.022 0.000 9.3 4 1
02/12/06 2:36 p -13.5 -13.4 -13.5 --- --- 20.0 SE 0.33 22.6 -25.0 --- --- 720.8 0.022 0.000 9.3 4 1
02/12/06 2:37 p -13.5 -13.5 -13.6 --- --- 20.9 SE 0.35 23.5 -25.2 --- --- 720.8 0.022 0.000 9.2 4 1
02/12/06 2:38 p -13.5 -13.5 -13.5 --- --- 19.1 SE 0.32 21.7 -24.8 --- --- 720.7 0.022 0.000 9.3 4 1
02/12/06 2:39 p -13.5 -13.5 -13.5 --- --- 21.7 SE 0.36 27.0 -25.4 --- --- 720.7 0.022 0.000 9.2 4 1
02/12/06 2:40 p -13.5 -13.4 -13.5 --- --- 19.1 SSE 0.32 22.6 -24.8 --- --- 720.7 0.022 0.000 9.2 4 1
02/12/06 2:41 p -13.4 -13.4 -13.4 --- --- 19.1 SSE 0.32 21.7 -24.7 --- --- 720.8 0.022 0.000 9.2 4 1
02/12/06 2:42 p -13.4 -13.3 -13.4 --- --- 20.9 SSE 0.35 23.5 -25.1 --- --- 720.8 0.022 0.000 9.2 4 1
02/12/06 2:43 p -13.3 -13.3 -13.4 --- --- 20.0 SE 0.33 22.6 -24.8 --- --- 720.8 0.022 0.000 9.2 4 1
02/12/06 2:44 p -13.4 -13.4 -13.4 --- --- 19.1 SE 0.32 21.7 -24.7 --- --- 720.8 0.022 0.000 9.2 4 1
02/12/06 2:45 p -13.5 -13.5 -13.5 --- --- 20.0 SE 0.33 23.5 -25.0 --- --- 720.7 0.022 0.000 9.2 4 1
02/12/06 2:46 p -13.5 -13.5 -13.5 --- --- 20.0 SSE 0.33 22.6 -25.0 --- --- 720.8 0.022 0.000 9.2 4 1
02/12/06 2:47 p -13.4 -13.4 -13.5 --- --- 20.9 SSE 0.35 26.1 -25.1 --- --- 720.8 0.022 0.000 9.2 4 1
02/12/06 2:48 p -13.3 -13.3 -13.3 --- --- 20.9 SSE 0.35 22.6 -24.9 --- --- 720.9 0.022 0.000 9.2 4 1
02/12/06 2:49 p -13.3 -13.3 -13.3 --- --- 20.0 SSE 0.33 24.3 -24.7 --- --- 720.8 0.022 0.000 9.2 4 1
02/12/06 2:50 p -13.3 -13.3 -13.3 --- --- 20.0 SE 0.33 26.1 -24.7 --- --- 720.8 0.022 0.000 9.2 4 1
02/12/06 2:51 p -13.3 -13.3 -13.3 --- --- 23.5 SSE 0.39 25.2 -25.4 --- --- 720.8 0.022 0.000 9.2 4 1
02/12/06 2:52 p -13.2 -13.2 -13.2 --- --- 20.0 SSE 0.33 21.7 -24.6 --- --- 720.8 0.022 0.000 9.2 4 1
02/12/06 2:53 p -13.2 -13.2 -13.2 --- --- 22.6 SSE 0.38 27.0 -25.2 --- --- 720.8 0.022 0.000 9.2 4 1
02/12/06 2:54 p -13.1 -13.1 -13.2 --- --- 20.9 SSE 0.35 24.3 -24.7 --- --- 720.9 0.022 0.000 9.2 4 1
02/12/06 2:55 p -13.1 -13.0 -13.1 --- --- 21.7 SSE 0.36 24.3 -24.8 --- --- 720.8 0.022 0.000 9.2 4 1
02/12/06 2:56 p -13.0 -12.9 -13.1 --- --- 24.3 SSE 0.41 27.0 -25.3 --- --- 720.8 0.022 0.000 9.2 4 1
02/12/06 2:57 p -12.9 -12.8 -12.9 --- --- 24.3 SSE 0.41 28.7 -25.1 --- --- 720.6 0.022 0.000 9.2 4 1
02/12/06 2:58 p -12.8 -12.8 -12.8 --- --- 25.2 SSE 0.42 27.0 -25.1 --- --- 720.7 0.022 0.000 9.2 4 1
02/12/06 2:59 p -12.8 -12.8 -12.8 --- --- 24.3 SSE 0.41 31.3 -24.9 --- --- 720.8 0.022 0.000 9.2 4 1
02/12/06 3:00 p -12.7 -12.7 -12.8 --- --- 26.1 SSE 0.43 31.3 -25.2 --- --- 720.7 0.022 0.000 9.2 4 1
02/12/06 3:01 p -12.7 -12.7 -12.8 --- --- 27.8 SSE 0.46 33.0 -25.6 --- --- 720.6 0.022 0.000 9.2 4 1
02/12/06 3:02 p -12.7 -12.7 -12.7 --- --- 23.5 SSE 0.39 29.6 -24.7 --- --- 720.7 0.022 0.000 9.2 4 1
02/12/06 3:03 p -12.7 -12.7 -12.7 --- --- 21.7 SE 0.36 24.3 -24.3 --- --- 720.8 0.022 0.000 9.2 4 1
02/12/06 3:04 p -12.7 -12.7 -12.8 --- --- 19.1 SE 0.32 23.5 -23.7 --- --- 720.7 0.022 0.000 9.2 4 1
02/12/06 3:05 p -12.8 -12.8 -12.9 --- --- 21.7 SE 0.36 24.3 -24.5 --- --- 720.8 0.022 0.000 9.2 4 1
02/12/06 3:06 p -12.9 -12.9 -12.9 --- --- 20.9 SE 0.35 22.6 -24.4 --- --- 720.8 0.022 0.000 9.2 4 1
02/12/06 3:07 p -12.9 -12.9 -12.9 --- --- 20.0 SE 0.33 21.7 -24.3 --- --- 720.7 0.022 0.000 9.2 4 1
02/12/06 3:08 p -13.0 -12.9 -13.0 --- --- 20.0 SSE 0.33 21.7 -24.3 --- --- 720.7 0.022 0.000 9.2 4 1
02/12/06 3:09 p -13.0 -13.0 -13.1 --- --- 19.1 SE 0.32 21.7 -24.1 --- --- 720.8 0.022 0.000 9.2 4 1
02/12/06 3:10 p -13.0 -13.0 -13.1 --- --- 19.1 SE 0.32 20.9 -24.1 --- --- 720.7 0.022 0.000 9.1 4 1
02/12/06 3:11 p -13.1 -13.1 -13.1 --- --- 18.3 SE 0.30 20.9 -24.1 --- --- 720.8 0.022 0.000 9.1 4 1
02/12/06 3:12 p -13.1 -13.1 -13.1 --- --- 17.4 SE 0.29 19.1 -23.8 --- --- 720.8 0.022 0.000 9.1 4 1
02/12/06 3:13 p -13.2 -13.1 -13.2 --- --- 18.3 SE 0.30 20.9 -24.1 --- --- 720.8 0.022 0.000 9.1 4 1
02/12/06 3:14 p -13.2 -13.2 -13.2 --- --- 18.3 SE 0.30 20.9 -24.1 --- --- 720.8 0.022 0.000 9.1 4 1
02/12/06 3:15 p -13.2 -13.2 -13.2 --- --- 17.4 SE 0.29 20.0 -23.9 --- --- 720.9 0.022 0.000 9.1 4 1
02/12/06 3:16 p -13.2 -13.1 -13.2 --- --- 18.3 SE 0.30 21.7 -24.1 --- --- 720.8 0.022 0.000 9.1 4 1
02/12/06 3:17 p -13.2 -13.2 -13.2 --- --- 17.4 ESE 0.29 20.0 -23.9 --- --- 720.7 0.022 0.000 9.1 4 1
02/12/06 3:18 p -13.3 -13.2 -13.3 --- --- 21.7 ESE 0.36 27.8 -25.1 --- --- 720.6 0.022 0.000 9.1 4 1
02/12/06 3:19 p -13.3 -13.3 -13.3 --- --- 20.9 ESE 0.35 24.3 -24.9 --- --- 720.6 0.022 0.000 9.1 4 1
02/12/06 3:20 p -13.3 -13.3 -13.4 --- --- 19.1 ESE 0.32 22.6 -24.6 --- --- 720.6 0.022 0.000 9.1 4 1
02/12/06 3:21 p -13.4 -13.4 -13.4 --- --- 22.6 SE 0.38 26.1 -25.4 --- --- 720.7 0.022 0.000 9.1 4 1
02/12/06 3:22 p -13.4 -13.4 -13.4 --- --- 21.7 SE 0.36 26.1 -25.3 --- --- 720.7 0.022 0.000 9.1 4 1
02/12/06 3:23 p -13.5 -13.5 -13.5 --- --- 20.0 SE 0.33 22.6 -25.0 --- --- 720.7 0.022 0.000 9.1 4 1
02/12/06 3:24 p -13.5 -13.5 -13.5 --- --- 16.5 SE 0.28 20.0 -24.1 --- --- 720.6 0.022 0.000 9.1 4 1
02/12/06 3:25 p -13.5 -13.5 -13.5 --- --- 20.0 SE 0.33 22.6 -25.0 --- --- 720.6 0.022 0.000 9.1 4 1
02/12/06 3:26 p -13.4 -13.4 -13.5 --- --- 20.0 SE 0.33 22.6 -24.9 --- --- 720.7 0.022 0.000 9.1 4 1
02/12/06 3:27 p -13.4 -13.4 -13.4 --- --- 19.1 SE 0.32 20.9 -24.6 --- --- 720.6 0.022 0.000 9.1 4 1
02/12/06 3:28 p -13.4 -13.4 -13.4 --- --- 20.9 SE 0.35 23.5 -25.1 --- --- 720.6 0.022 0.000 9.1 4 1
02/12/06 3:29 p -13.4 -13.4 -13.4 --- --- 20.9 SE 0.35 24.3 -25.1 --- --- 720.7 0.022 0.000 9.1 4 1
02/12/06 3:30 p -13.4 -13.4 -13.4 --- --- 20.0 SE 0.33 22.6 -24.8 --- --- 720.6 0.022 0.000 9.1 4 1
02/12/06 3:31 p -13.4 -13.4 -13.4 --- --- 20.9 SE 0.35 22.6 -25.1 --- --- 720.7 0.022 0.000 9.1 4 1
02/12/06 3:32 p -13.4 -13.3 -13.4 --- --- 19.1 SE 0.32 20.9 -24.6 --- --- 720.6 0.022 0.000 9.1 4 1
02/12/06 3:33 p -13.4 -13.4 -13.4 --- --- 18.3 SE 0.30 20.0 -24.4 --- --- 720.6 0.022 0.000 9.1 4 1
02/12/06 3:34 p -13.4 -13.4 -13.4 --- --- 19.1 SE 0.32 21.7 -24.6 --- --- 720.6 0.022 0.000 9.1 4 1
02/12/06 3:35 p -13.4 -13.4 -13.4 --- --- 19.1 SE 0.32 21.7 -24.7 --- --- 720.7 0.022 0.000 9.1 4 1
02/12/06 3:36 p -13.4 -13.4 -13.4 --- --- 20.9 SE 0.35 22.6 -25.1 --- --- 720.7 0.022 0.000 9.1 4 1
02/12/06 3:37 p -13.4 -13.4 -13.4 --- --- 18.3 SE 0.30 20.9 -24.4 --- --- 720.6 0.022 0.000 9.1 4 1
02/12/06 3:38 p -13.4 -13.4 -13.4 --- --- 19.1 SE 0.32 20.9 -24.6 --- --- 720.6 0.022 0.000 9.1 4 1
02/12/06 3:39 p -13.4 -13.4 -13.4 --- --- 18.3 SE 0.30 20.0 -24.4 --- --- 720.7 0.022 0.000 9.1 4 1
02/12/06 3:40 p -13.4 -13.4 -13.4 --- --- 16.5 SE 0.28 18.3 -23.9 --- --- 720.8 0.022 0.000 9.0 4 1
02/12/06 3:41 p -13.4 -13.4 -13.4 --- --- 17.4 SE 0.29 20.0 -24.2 --- --- 720.7 0.022 0.000 9.0 4 1
02/12/06 3:42 p -13.4 -13.4 -13.4 --- --- 19.1 SE 0.32 22.6 -24.6 --- --- 720.6 0.022 0.000 9.1 4 1
02/12/06 3:43 p -13.4 -13.3 -13.4 --- --- 20.0 SE 0.33 25.2 -24.8 --- --- 720.6 0.022 0.000 9.0 4 1
02/12/06 3:44 p -13.4 -13.3 -13.4 --- --- 19.1 SE 0.32 20.9 -24.6 --- --- 720.6 0.022 0.000 9.1 4 1
02/12/06 3:45 p -13.4 -13.4 -13.4 --- --- 20.0 SE 0.33 24.3 -24.8 --- --- 720.6 0.022 0.000 9.0 4 1
02/12/06 3:46 p -13.4 -13.4 -13.4 --- --- 17.4 SE 0.29 20.9 -24.2 --- --- 720.7 0.022 0.000 9.0 4 1
02/12/06 3:47 p -13.4 -13.4 -13.4 --- --- 14.8 ESE 0.25 20.0 -23.5 --- --- 720.6 0.022 0.000 9.0 4 1
02/12/06 3:48 p -13.5 -13.5 -13.6 --- --- 20.9 ESE 0.35 27.8 -25.2 --- --- 720.4 0.022 0.000 9.0 4 1
02/12/06 3:49 p -13.5 -13.5 -13.6 --- --- 24.3 ESE 0.41 28.7 -25.9 --- --- 720.5 0.022 0.000 9.0 4 1
02/12/06 3:50 p -13.5 -13.4 -13.5 --- --- 22.6 ESE 0.38 25.2 -25.6 --- --- 720.5 0.022 0.000 9.0 4 1
02/12/06 3:51 p -13.5 -13.4 -13.5 --- --- 18.3 SE 0.30 22.6 -24.6 --- --- 720.6 0.022 0.000 9.0 4 1
02/12/06 3:52 p -13.4 -13.4 -13.4 --- --- 20.0 ESE 0.33 22.6 -24.9 --- --- 720.5 0.022 0.000 9.0 4 1
02/12/06 3:53 p -13.4 -13.4 -13.4 --- --- 19.1 SE 0.32 20.9 -24.7 --- --- 720.5 0.022 0.000 9.0 4 1
02/12/06 3:54 p -13.4 -13.4 -13.4 --- --- 20.9 ESE 0.35 25.2 -25.1 --- --- 720.5 0.022 0.000 9.0 4 1
02/12/06 3:55 p -13.4 -13.4 -13.4 --- --- 20.9 SE 0.35 25.2 -25.1 --- --- 720.6 0.022 0.000 9.0 4 1
02/12/06 3:56 p -13.4 -13.4 -13.4 --- --- 19.1 SE 0.32 20.9 -24.7 --- --- 720.6 0.022 0.000 9.0 4 1
02/12/06 3:57 p -13.4 -13.4 -13.4 --- --- 20.9 SE 0.35 28.7 -25.1 --- --- 720.7 0.022 0.000 9.0 4 1
02/12/06 3:58 p -13.2 -13.2 -13.3 --- --- 19.1 SE 0.32 21.7 -24.4 --- --- 720.5 0.022 0.000 9.0 4 1
02/12/06 3:59 p -13.2 -13.1 -13.2 --- --- 24.3 SE 0.41 28.7 -25.5 --- --- 720.5 0.022 0.000 8.9 4 1
02/12/06 4:00 p -13.1 -13.1 -13.1 --- --- 19.1 SSE 0.32 29.6 -24.2 --- --- 720.6 0.022 0.000 9.0 4 1
02/12/06 4:01 p -12.9 -12.9 -13.0 --- --- 20.0 SE 0.33 26.1 -24.3 --- --- 720.6 0.022 0.000 8.9 4 1
02/12/06 4:02 p -13.0 -13.0 -13.1 --- --- 20.0 SSE 0.33 24.3 -24.3 --- --- 720.7 0.022 0.000 8.9 4 1
02/12/06 4:03 p -13.1 -13.1 -13.1 --- --- 17.4 SE 0.29 21.7 -23.8 --- --- 720.6 0.022 0.000 9.0 4 1
02/12/06 4:04 p -13.2 -13.1 -13.2 --- --- 20.0 SE 0.33 21.7 -24.6 --- --- 720.6 0.022 0.000 9.0 4 1
02/12/06 4:05 p -13.2 -13.2 -13.2 --- --- 21.7 SE 0.36 25.2 -25.0 --- --- 720.5 0.022 0.000 8.9 4 1
02/12/06 4:06 p -13.3 -13.2 -13.3 --- --- 21.7 SE 0.36 25.2 -25.1 --- --- 720.5 0.022 0.000 8.9 4 1
02/12/06 4:07 p -13.3 -13.3 -13.3 --- --- 20.0 SE 0.33 26.1 -24.7 --- --- 720.6 0.022 0.000 8.9 4 1
02/12/06 4:08 p -13.3 -13.3 -13.4 --- --- 21.7 SE 0.36 25.2 -25.1 --- --- 720.5 0.022 0.000 8.9 4 1
02/12/06 4:09 p -13.4 -13.4 -13.4 --- --- 21.7 SE 0.36 25.2 -25.3 --- --- 720.5 0.022 0.000 8.9 4 1
02/12/06 4:10 p -13.4 -13.4 -13.5 --- --- 20.9 SE 0.35 21.7 -25.1 --- --- 720.5 0.022 0.000 8.9 4 1
02/12/06 4:11 p -13.6 -13.5 -13.6 --- --- 21.7 SE 0.36 25.2 -25.4 --- --- 720.5 0.022 0.000 8.9 4 1
02/12/06 4:12 p -13.6 -13.6 -13.6 --- --- 21.7 SE 0.36 24.3 -25.6 --- --- 720.5 0.022 0.000 8.9 4 1
02/12/06 4:13 p -13.6 -13.6 -13.6 --- --- 20.9 SE 0.35 22.6 -25.3 --- --- 720.5 0.022 0.000 8.9 4 1
02/12/06 4:14 p -13.6 -13.6 -13.7 --- --- 20.9 SE 0.35 22.6 -25.3 --- --- 720.5 0.022 0.000 8.9 4 1
02/12/06 4:15 p -13.7 -13.6 -13.7 --- --- 23.5 SE 0.39 27.8 -26.0 --- --- 720.4 0.022 0.000 8.9 4 1
02/12/06 4:16 p -13.7 -13.7 -13.7 --- --- 22.6 ESE 0.38 25.2 -25.9 --- --- 720.5 0.022 0.000 8.9 4 1
02/12/06 4:17 p -13.8 -13.7 -13.8 --- --- 23.5 ESE 0.39 26.1 -26.1 --- --- 720.4 0.022 0.000 8.9 4 1
02/12/06 4:18 p -13.9 -13.8 -13.9 --- --- 21.7 ESE 0.36 24.3 -25.9 --- --- 720.5 0.022 0.000 8.9 4 1
02/12/06 4:19 p -13.9 -13.9 -13.9 --- --- 21.7 SE 0.36 25.2 -26.0 --- --- 720.4 0.022 0.000 8.9 4 1
02/12/06 4:20 p -13.9 -13.9 -13.9 --- --- 21.7 ESE 0.36 24.3 -26.0 --- --- 720.5 0.022 0.000 8.9 4 1
02/12/06 4:21 p -14.0 -13.9 -14.0 --- --- 22.6 SE 0.38 27.0 -26.2 --- --- 720.5 0.022 0.000 8.9 4 1
02/12/06 4:22 p -14.0 -14.0 -14.1 --- --- 20.9 ESE 0.35 25.2 -25.8 --- --- 720.5 0.022 0.000 8.9 4 1
02/12/06 4:23 p -14.0 -14.0 -14.0 --- --- 20.0 SE 0.33 24.3 -25.7 --- --- 720.5 0.022 0.000 8.9 4 1
02/12/06 4:24 p -13.9 -13.9 -14.0 --- --- 20.9 ESE 0.35 26.1 -25.8 --- --- 720.5 0.022 0.000 8.9 4 1
02/12/06 4:25 p -13.9 -13.9 -13.9 --- --- 21.7 ESE 0.36 26.1 -26.0 --- --- 720.4 0.022 0.000 8.9 4 1
02/12/06 4:26 p -13.9 -13.9 -13.9 --- --- 21.7 ESE 0.36 25.2 -26.0 --- --- 720.6 0.022 0.000 8.9 4 1
02/12/06 4:27 p -13.9 -13.9 -13.9 --- --- 20.9 SE 0.35 23.5 -25.7 --- --- 720.5 0.022 0.000 8.9 4 1
02/12/06 4:28 p -13.9 -13.9 -13.9 --- --- 20.0 SE 0.33 25.2 -25.6 --- --- 720.6 0.022 0.000 8.9 4 1
02/12/06 4:29 p -13.9 -13.9 -13.9 --- --- 20.0 SE 0.33 23.5 -25.6 --- --- 720.6 0.022 0.000 8.9 4 1
02/12/06 4:30 p -13.9 -13.9 -13.9 --- --- 19.1 SE 0.32 26.1 -25.4 --- --- 720.6 0.022 0.000 8.9 4 1
02/12/06 4:31 p -13.9 -13.9 -13.9 --- --- 21.7 SE 0.36 26.1 -25.9 --- --- 720.5 0.022 0.000 8.9 4 1
02/12/06 4:32 p -13.9 -13.9 -13.9 --- --- 22.6 SE 0.38 25.2 -26.1 --- --- 720.4 0.022 0.000 8.9 4 1
02/12/06 4:33 p -13.9 -13.8 -13.9 --- --- 23.5 ESE 0.39 28.7 -26.3 --- --- 720.4 0.022 0.000 8.9 4 1
02/12/06 4:34 p -13.8 -13.8 -13.9 --- --- 23.5 ESE 0.39 27.0 -26.2 --- --- 720.5 0.022 0.000 8.9 4 1
02/12/06 4:35 p -13.8 -13.8 -13.8 --- --- 20.9 SE 0.35 26.1 -25.6 --- --- 720.4 0.022 0.000 8.9 4 1
02/12/06 4:36 p -13.8 -13.8 -13.8 --- --- 22.6 SE 0.38 29.6 -26.0 --- --- 720.4 0.022 0.000 8.9 4 1
02/12/06 4:37 p -13.8 -13.7 -13.8 --- --- 22.6 SE 0.38 27.8 -25.9 --- --- 720.4 0.022 0.000 8.9 4 1
02/12/06 4:38 p -13.7 -13.7 -13.8 --- --- 20.0 SE 0.33 21.7 -25.3 --- --- 720.5 0.022 0.000 8.9 4 1
02/12/06 4:39 p -13.7 -13.7 -13.8 --- --- 20.9 SE 0.35 23.5 -25.5 --- --- 720.5 0.022 0.000 8.9 4 1
02/12/06 4:40 p -13.8 -13.8 -13.8 --- --- 20.0 SE 0.33 23.5 -25.3 --- --- 720.4 0.022 0.000 8.9 4 1
02/12/06 4:41 p -13.8 -13.8 -13.9 --- --- 20.9 ESE 0.35 25.2 -25.6 --- --- 720.5 0.022 0.000 8.8 4 1
02/12/06 4:42 p -13.9 -13.9 -13.9 --- --- 19.1 SE 0.32 21.7 -25.3 --- --- 720.5 0.022 0.000 8.8 4 1
02/12/06 4:43 p -13.9 -13.9 -13.9 --- --- 20.0 SE 0.33 22.6 -25.5 --- --- 720.5 0.022 0.000 8.8 4 1
02/12/06 4:44 p -13.9 -13.9 -13.9 --- --- 21.7 ESE 0.36 27.0 -25.9 --- --- 720.5 0.022 0.000 8.8 4 1
02/12/06 4:45 p -13.9 -13.9 -13.9 --- --- 23.5 SE 0.39 27.8 -26.3 --- --- 720.5 0.022 0.000 8.8 4 1
02/12/06 4:46 p -13.9 -13.9 -13.9 --- --- 23.5 SE 0.39 30.4 -26.3 --- --- 720.3 0.022 0.000 8.8 4 1
02/12/06 4:47 p -13.9 -13.9 -13.9 --- --- 22.6 ESE 0.38 28.7 -26.2 --- --- 720.5 0.022 0.000 8.8 4 1
02/12/06 4:48 p -13.8 -13.8 -13.9 --- --- 22.6 SE 0.38 27.8 -26.0 --- --- 720.5 0.022 0.000 8.8 4 1
02/12/06 4:49 p -13.9 -13.9 -13.9 --- --- 20.9 SE 0.35 25.2 -25.7 --- --- 720.5 0.022 0.000 8.8 4 1
02/12/06 4:50 p -13.9 -13.9 -13.9 --- --- 21.7 SE 0.36 23.5 -25.9 --- --- 720.5 0.022 0.000 8.8 4 1
02/12/06 4:51 p -13.9 -13.9 -13.9 --- --- 22.6 SE 0.38 33.0 -26.1 --- --- 720.5 0.022 0.000 8.8 4 1
02/12/06 4:52 p -13.9 -13.8 -13.9 --- --- 22.6 SE 0.38 33.9 -26.1 --- --- 720.5 0.022 0.000 8.8 4 1
02/12/06 4:53 p -13.8 -13.8 -13.9 --- --- 19.1 SE 0.32 23.5 -25.2 --- --- 720.5 0.022 0.000 8.8 4 1
02/12/06 4:54 p -13.9 -13.9 -13.9 --- --- 20.0 SE 0.33 21.7 -25.5 --- --- 720.5 0.022 0.000 8.8 4 1
02/12/06 4:55 p -13.9 -13.9 -13.9 --- --- 20.9 SE 0.35 28.7 -25.8 --- --- 720.4 0.022 0.000 8.8 4 1
02/12/06 4:56 p -13.9 -13.9 -13.9 --- --- 22.6 SE 0.38 25.2 -26.1 --- --- 720.4 0.022 0.000 8.8 4 1
02/12/06 4:57 p -13.9 -13.9 -13.9 --- --- 19.1 SE 0.32 23.5 -25.4 --- --- 720.4 0.022 0.000 8.8 4 1
02/12/06 4:58 p -14.0 -14.0 -14.1 --- --- 20.9 ESE 0.35 25.2 -25.8 --- --- 720.4 0.022 0.000 8.8 4 1
02/12/06 4:59 p -14.1 -14.1 -14.1 --- --- 20.0 SE 0.33 23.5 -25.7 --- --- 720.5 0.022 0.000 8.8 4 1
02/12/06 5:00 p -14.1 -14.1 -14.1 --- --- 21.7 SE 0.36 24.3 -26.2 --- --- 720.5 0.023 0.000 8.8 4 1
02/12/06 5:01 p -14.2 -14.1 -14.2 --- --- 20.0 SE 0.33 21.7 -25.9 --- --- 720.5 0.023 0.000 8.8 4 1
02/12/06 5:02 p -14.2 -14.1 -14.2 --- --- 20.0 SE 0.33 20.9 -25.9 --- --- 720.5 0.023 0.000 8.8 4 1
02/12/06 5:03 p -14.2 -14.1 -14.2 --- --- 20.9 SE 0.35 25.2 -26.1 --- --- 720.4 0.023 0.000 8.8 4 1
02/12/06 5:04 p -14.2 -14.1 -14.2 --- --- 19.1 SE 0.32 21.7 -25.7 --- --- 720.5 0.023 0.000 8.8 4 1
02/12/06 5:05 p -14.1 -14.1 -14.1 --- --- 20.9 SE 0.35 23.5 -26.0 --- --- 720.5 0.023 0.000 8.8 4 1
02/12/06 5:06 p -14.2 -14.2 -14.2 --- --- 20.0 SE 0.33 22.6 -25.9 --- --- 720.5 0.023 0.000 8.8 4 1
02/12/06 5:07 p -14.2 -14.2 -14.2 --- --- 21.7 SE 0.36 23.5 -26.3 --- --- 720.4 0.023 0.000 8.8 4 1
02/12/06 5:08 p -14.2 -14.2 -14.2 --- --- 20.0 SE 0.33 22.6 -25.9 --- --- 720.5 0.023 0.000 8.8 4 1
02/12/06 5:09 p -14.2 -14.2 -14.2 --- --- 19.1 SE 0.32 21.7 -25.7 --- --- 720.4 0.023 0.000 8.8 4 1
02/12/06 5:10 p -14.2 -14.1 -14.2 --- --- 20.9 SE 0.35 23.5 -26.1 --- --- 720.4 0.023 0.000 8.8 4 1
02/12/06 5:11 p -14.1 -14.1 -14.1 --- --- 19.1 SE 0.32 21.7 -25.6 --- --- 720.4 0.023 0.000 8.8 3 1
02/12/06 5:12 p -14.1 -14.1 -14.1 --- --- 21.7 SE 0.36 23.5 -26.1 --- --- 720.4 0.022 0.000 8.8 4 1
02/12/06 5:13 p -14.1 -14.1 -14.1 --- --- 21.7 SE 0.36 24.3 -26.2 --- --- 720.3 0.023 0.000 8.8 4 1
02/12/06 5:14 p -14.1 -14.1 -14.2 --- --- 20.9 SE 0.35 22.6 -26.0 --- --- 720.4 0.023 0.000 8.8 4 1
02/12/06 5:15 p -14.1 -14.1 -14.2 --- --- 20.0 SE 0.33 22.6 -25.8 --- --- 720.4 0.023 0.000 8.8 4 1
02/12/06 5:16 p -14.2 -14.2 -14.2 --- --- 21.7 SE 0.36 24.3 -26.3 --- --- 720.4 0.023 0.000 8.8 4 1
02/12/06 5:17 p -14.2 -14.2 -14.2 --- --- 20.0 SE 0.33 21.7 -25.9 --- --- 720.4 0.023 0.000 8.8 3 1
02/12/06 5:18 p -14.2 -14.2 -14.2 --- --- 20.9 SE 0.35 24.3 -26.1 --- --- 720.4 0.023 0.000 8.7 4 1
02/12/06 5:19 p -14.1 -14.1 -14.1 --- --- 20.9 SE 0.35 22.6 -26.0 --- --- 720.5 0.023 0.000 8.7 4 1
02/12/06 5:20 p -14.2 -14.2 -14.2 --- --- 20.0 SE 0.33 22.6 -25.9 --- --- 720.5 0.023 0.000 8.7 4 1
02/12/06 5:21 p -14.2 -14.2 -14.2 --- --- 19.1 SE 0.32 21.7 -25.7 --- --- 720.4 0.023 0.000 8.7 3 1
02/12/06 5:22 p -14.2 -14.2 -14.2 --- --- 20.0 SE 0.33 22.6 -25.9 --- --- 720.5 0.023 0.000 8.7 4 1
02/12/06 5:23 p -14.2 -14.2 -14.2 --- --- 20.0 SE 0.33 22.6 -25.9 --- --- 720.5 0.023 0.000 8.7 4 1
02/12/06 5:24 p -14.2 -14.2 -14.2 --- --- 21.7 SE 0.36 25.2 -26.3 --- --- 720.5 0.023 0.000 8.7 4 1
02/12/06 5:25 p -14.2 -14.2 -14.2 --- --- 20.0 SE 0.33 23.5 -25.9 --- --- 720.6 0.023 0.000 8.7 3 1
02/12/06 5:26 p -14.2 -14.2 -14.2 --- --- 20.0 SE 0.33 21.7 -25.9 --- --- 720.5 0.023 0.000 8.7 4 1
02/12/06 5:27 p -14.2 -14.2 -14.2 --- --- 21.7 SE 0.36 24.3 -26.3 --- --- 720.5 0.023 0.000 8.7 4 1
02/12/06 5:28 p -14.2 -14.2 -14.2 --- --- 20.9 SE 0.35 23.5 -26.2 --- --- 720.5 0.023 0.000 8.7 4 1
02/12/06 5:29 p -14.3 -14.3 -14.3 --- --- 20.0 SE 0.33 22.6 -26.0 --- --- 720.6 0.023 0.000 8.7 4 1
02/12/06 5:30 p -14.3 -14.3 -14.3 --- --- 20.9 SE 0.35 22.6 -26.2 --- --- 720.5 0.023 0.000 8.7 4 1
02/12/06 5:31 p -14.2 -14.2 -14.2 --- --- 20.0 SE 0.33 21.7 -25.9 --- --- 720.5 0.023 0.000 8.7 3 1
02/12/06 5:32 p -14.3 -14.2 -14.3 --- --- 20.9 SE 0.35 23.5 -26.2 --- --- 720.6 0.023 0.000 8.7 3 1
02/12/06 5:33 p -14.3 -14.3 -14.3 --- --- 20.9 SE 0.35 22.6 -26.2 --- --- 720.6 0.023 0.000 8.7 3 1
02/12/06 5:34 p -14.2 -14.2 -14.3 --- --- 20.9 SE 0.35 22.6 -26.2 --- --- 720.5 0.023 0.000 8.7 4 1
02/12/06 5:35 p -14.2 -14.2 -14.2 --- --- 20.9 SE 0.35 23.5 -26.1 --- --- 720.5 0.023 0.000 8.7 4 1
02/12/06 5:36 p -14.2 -14.2 -14.2 --- --- 20.0 SE 0.33 22.6 -25.9 --- --- 720.5 0.023 0.000 8.7 4 1
02/12/06 5:37 p -14.1 -14.1 -14.1 --- --- 20.9 SE 0.35 22.6 -26.0 --- --- 720.5 0.023 0.000 8.7 4 1
02/12/06 5:38 p -14.2 -14.1 -14.2 --- --- 22.6 SE 0.38 24.3 -26.5 --- --- 720.5 0.023 0.000 8.7 4 1
02/12/06 5:39 p -14.2 -14.2 -14.2 --- --- 20.9 SE 0.35 23.5 -26.1 --- --- 720.5 0.023 0.000 8.7 4 1
02/12/06 5:40 p -14.2 -14.2 -14.2 --- --- 21.7 SE 0.36 23.5 -26.3 --- --- 720.4 0.023 0.000 8.7 4 1
02/12/06 5:41 p -14.2 -14.2 -14.2 --- --- 21.7 SE 0.36 25.2 -26.3 --- --- 720.4 0.023 0.000 8.7 4 1
02/12/06 5:42 p -14.1 -14.1 -14.2 --- --- 22.6 SE 0.38 25.2 -26.4 --- --- 720.5 0.023 0.000 8.7 3 1
02/12/06 5:43 p -14.1 -14.1 -14.1 --- --- 20.9 SE 0.35 24.3 -25.9 --- --- 720.5 0.022 0.000 8.7 4 1
02/12/06 5:44 p -14.1 -14.0 -14.1 --- --- 22.6 SE 0.38 24.3 -26.3 --- --- 720.5 0.022 0.000 8.7 4 1
02/12/06 5:45 p -14.0 -14.0 -14.1 --- --- 20.9 SE 0.35 22.6 -25.8 --- --- 720.5 0.022 0.000 8.7 4 1
02/12/06 5:46 p -14.1 -14.1 -14.1 --- --- 21.7 SE 0.36 24.3 -26.1 --- --- 720.5 0.022 0.000 8.7 4 1
02/12/06 5:47 p -14.1 -14.1 -14.1 --- --- 21.7 SE 0.36 24.3 -26.1 --- --- 720.5 0.022 0.000 8.7 4 1
02/12/06 5:48 p -14.1 -14.1 -14.1 --- --- 21.7 SE 0.36 23.5 -26.1 --- --- 720.6 0.022 0.000 8.7 3 1
02/12/06 5:49 p -14.1 -14.0 -14.1 --- --- 20.9 SE 0.35 23.5 -25.9 --- --- 720.5 0.022 0.000 8.7 3 1
02/12/06 5:50 p -14.0 -14.0 -14.1 --- --- 20.9 SE 0.35 23.5 -25.8 --- --- 720.6 0.022 0.000 8.7 4 1
02/12/06 5:51 p -14.0 -14.0 -14.0 --- --- 20.0 SE 0.33 21.7 -25.7 --- --- 720.5 0.022 0.000 8.7 4 1
02/12/06 5:52 p -14.0 -13.9 -14.0 --- --- 20.9 SE 0.35 24.3 -25.8 --- --- 720.4 0.022 0.000 8.7 4 1
02/12/06 5:53 p -13.9 -13.9 -13.9 --- --- 24.3 SE 0.41 27.0 -26.6 --- --- 720.5 0.022 0.000 8.7 3 1
02/12/06 5:54 p -13.8 -13.8 -13.9 --- --- 21.7 SE 0.36 26.1 -25.8 --- --- 720.5 0.022 0.000 8.7 4 1
02/12/06 5:55 p -13.7 -13.7 -13.8 --- --- 23.5 SE 0.39 24.3 -26.1 --- --- 720.4 0.022 0.000 8.7 4 1
02/12/06 5:56 p -13.7 -13.7 -13.7 --- --- 22.6 SSE 0.38 26.1 -25.9 --- --- 720.4 0.022 0.000 8.7 3 1
02/12/06 5:57 p -13.7 -13.7 -13.7 --- --- 22.6 SE 0.38 27.0 -25.9 --- --- 720.4 0.022 0.000 8.7 4 1
02/12/06 5:58 p -13.6 -13.6 -13.7 --- --- 23.5 SE 0.39 27.0 -25.9 --- --- 720.5 0.022 0.000 8.7 4 1
02/12/06 5:59 p -13.6 -13.6 -13.6 --- --- 20.0 SE 0.33 23.5 -25.1 --- --- 720.4 0.022 0.000 8.7 3 1
02/12/06 6:00 p -13.6 -13.6 -13.6 --- --- 19.1 SE 0.32 20.9 -24.8 --- --- 720.4 0.022 0.000 8.7 3 1
02/12/06 6:01 p -13.6 -13.5 -13.6 --- --- 20.9 SSE 0.35 26.1 -25.3 --- --- 720.5 0.022 0.000 8.7 3 1
02/12/06 6:02 p -13.5 -13.5 -13.5 --- --- 20.0 SE 0.33 22.6 -25.0 --- --- 720.4 0.022 0.000 8.7 3 1
02/12/06 6:03 p -13.4 -13.4 -13.5 --- --- 21.7 SE 0.36 31.3 -25.3 --- --- 720.4 0.022 0.000 8.7 3 1
02/12/06 6:04 p -13.5 -13.4 -13.5 --- --- 21.7 SSE 0.36 24.3 -25.4 --- --- 720.5 0.022 0.000 8.7 3 1
02/12/06 6:05 p -13.4 -13.4 -13.5 --- --- 23.5 SSE 0.39 27.0 -25.7 --- --- 720.4 0.022 0.000 8.7 3 1
02/12/06 6:06 p -13.4 -13.4 -13.4 --- --- 22.6 SSE 0.38 24.3 -25.5 --- --- 720.4 0.022 0.000 8.7 3 1
02/12/06 6:07 p -13.4 -13.4 -13.4 --- --- 20.9 SSE 0.35 23.5 -25.1 --- --- 720.4 0.022 0.000 8.7 4 1
02/12/06 6:08 p -13.4 -13.4 -13.4 --- --- 22.6 SE 0.38 27.8 -25.4 --- --- 720.4 0.022 0.000 8.7 3 1
02/12/06 6:09 p -13.4 -13.4 -13.5 --- --- 23.5 SE 0.39 27.8 -25.7 --- --- 720.4 0.022 0.000 8.7 3 1
02/12/06 6:10 p -13.5 -13.5 -13.5 --- --- 22.6 SE 0.38 26.1 -25.6 --- --- 720.5 0.022 0.000 8.7 3 1
02/12/06 6:11 p -13.5 -13.5 -13.5 --- --- 22.6 SSE 0.38 25.2 -25.6 --- --- 720.4 0.022 0.000 8.7 3 1
02/12/06 6:12 p -13.5 -13.5 -13.5 --- --- 22.6 SE 0.38 26.1 -25.6 --- --- 720.3 0.022 0.000 8.7 4 1
02/12/06 6:13 p -13.6 -13.6 -13.6 --- --- 25.2 SE 0.42 28.7 -26.2 --- --- 720.4 0.022 0.000 8.7 3 1
02/12/06 6:14 p -13.6 -13.6 -13.6 --- --- 25.2 SSE 0.42 27.8 -26.2 --- --- 720.3 0.022 0.000 8.7 3 1
02/12/06 6:15 p -13.6 -13.6 -13.6 --- --- 26.1 SSE 0.43 28.7 -26.3 --- --- 720.3 0.022 0.000 8.7 3 1
02/12/06 6:16 p -13.6 -13.6 -13.6 --- --- 24.3 SE 0.41 27.8 -26.1 --- --- 720.3 0.022 0.000 8.7 3 1
02/12/06 6:17 p -13.6 -13.6 -13.6 --- --- 26.1 SSE 0.43 29.6 -26.4 --- --- 720.3 0.022 0.000 8.7 3 1
02/12/06 6:18 p -13.7 -13.6 -13.7 --- --- 26.1 SSE 0.43 29.6 -26.5 --- --- 720.3 0.022 0.000 8.7 3 1
02/12/06 6:19 p -13.6 -13.6 -13.6 --- --- 23.5 SE 0.39 26.1 -25.9 --- --- 720.4 0.022 0.000 8.7 4 1
02/12/06 6:20 p -13.6 -13.6 -13.6 --- --- 23.5 SE 0.39 27.0 -25.9 --- --- 720.3 0.022 0.000 8.7 3 1
02/12/06 6:21 p -13.6 -13.6 -13.6 --- --- 24.3 SSE 0.41 27.0 -26.1 --- --- 720.3 0.022 0.000 8.7 4 1
02/12/06 6:22 p -13.6 -13.6 -13.7 --- --- 27.0 SSE 0.45 30.4 -26.6 --- --- 720.2 0.022 0.000 8.7 3 1
02/12/06 6:23 p -13.6 -13.6 -13.7 --- --- 25.2 SSE 0.42 29.6 -26.3 --- --- 720.4 0.022 0.000 8.7 4 1
02/12/06 6:24 p -13.7 -13.7 -13.7 --- --- 22.6 SE 0.38 27.0 -25.8 --- --- 720.3 0.022 0.000 8.7 3 1
02/12/06 6:25 p -13.7 -13.7 -13.7 --- --- 21.7 SE 0.36 24.3 -25.6 --- --- 720.3 0.022 0.000 8.6 4 1
02/12/06 6:26 p -13.7 -13.7 -13.7 --- --- 26.1 SE 0.43 30.4 -26.5 --- --- 720.3 0.022 0.000 8.6 4 1
02/12/06 6:27 p -13.7 -13.6 -13.7 --- --- 27.0 SSE 0.45 29.6 -26.7 --- --- 720.2 0.022 0.000 8.6 3 1
02/12/06 6:28 p -13.7 -13.7 -13.7 --- --- 26.1 SSE 0.43 27.8 -26.5 --- --- 720.2 0.022 0.000 8.6 3 1
02/12/06 6:29 p -13.6 -13.6 -13.7 --- --- 25.2 SSE 0.42 27.0 -26.3 --- --- 720.3 0.022 0.000 8.6 3 1
02/12/06 6:30 p -13.6 -13.6 -13.6 --- --- 26.1 SE 0.43 29.6 -26.3 --- --- 720.4 0.022 0.000 8.6 3 1
02/12/06 6:31 p -13.6 -13.6 -13.6 --- --- 26.1 SE 0.43 29.6 -26.4 --- --- 720.4 0.022 0.000 8.6 3 1
02/12/06 6:32 p -13.6 -13.6 -13.6 --- --- 25.2 SSE 0.42 28.7 -26.2 --- --- 720.3 0.022 0.000 8.6 3 1
02/12/06 6:33 p -13.6 -13.6 -13.6 --- --- 23.5 SE 0.39 26.1 -25.9 --- --- 720.4 0.022 0.000 8.6 3 1
02/12/06 6:34 p -13.6 -13.6 -13.6 --- --- 21.7 SE 0.36 23.5 -25.6 --- --- 720.3 0.022 0.000 8.6 3 1
02/12/06 6:35 p -13.7 -13.6 -13.7 --- --- 21.7 SE 0.36 24.3 -25.6 --- --- 720.3 0.022 0.000 8.6 3 1
02/12/06 6:36 p -13.7 -13.7 -13.7 --- --- 20.9 SE 0.35 23.5 -25.4 --- --- 720.4 0.022 0.000 8.6 3 1
02/12/06 6:37 p -13.7 -13.7 -13.7 --- --- 21.7 SE 0.36 23.5 -25.7 --- --- 720.3 0.022 0.000 8.6 3 1
02/12/06 6:38 p -13.7 -13.7 -13.7 --- --- 22.6 SE 0.38 24.3 -25.9 --- --- 720.3 0.022 0.000 8.6 3 1
02/12/06 6:39 p -13.7 -13.7 -13.8 --- --- 23.5 SE 0.39 25.2 -26.1 --- --- 720.3 0.022 0.000 8.6 3 1
02/12/06 6:40 p -13.8 -13.8 -13.8 --- --- 23.5 SE 0.39 27.0 -26.1 --- --- 720.3 0.022 0.000 8.6 3 1
02/12/06 6:41 p -13.8 -13.7 -13.8 --- --- 23.5 SE 0.39 25.2 -26.1 --- --- 720.3 0.022 0.000 8.6 3 1
02/12/06 6:42 p -13.7 -13.7 -13.8 --- --- 22.6 SE 0.38 25.2 -25.9 --- --- 720.3 0.022 0.000 8.6 3 1
02/12/06 6:43 p -13.7 -13.7 -13.8 --- --- 25.2 SE 0.42 27.8 -26.4 --- --- 720.3 0.022 0.000 8.6 3 1
02/12/06 6:44 p -13.8 -13.8 -13.8 --- --- 22.6 ESE 0.38 24.3 -25.9 --- --- 720.4 0.022 0.000 8.6 3 1
02/12/06 6:45 p -13.9 -13.8 -14.0 --- --- 25.2 ESE 0.42 29.6 -26.7 --- --- 720.1 0.022 0.000 8.6 3 1
02/12/06 6:46 p -14.0 -14.0 -14.0 --- --- 23.5 ESE 0.39 27.8 -26.4 --- --- 720.2 0.022 0.000 8.6 3 1
02/12/06 6:47 p -14.1 -14.1 -14.1 --- --- 24.3 ESE 0.41 28.7 -26.7 --- --- 720.3 0.022 0.000 8.6 3 1
02/12/06 6:48 p -14.1 -14.1 -14.1 --- --- 22.6 ESE 0.38 27.0 -26.4 --- --- 720.2 0.023 0.000 8.6 3 1
02/12/06 6:49 p -14.2 -14.2 -14.2 --- --- 24.3 ESE 0.41 28.7 -26.8 --- --- 720.3 0.023 0.000 8.6 3 1
02/12/06 6:50 p -14.2 -14.2 -14.2 --- --- 24.3 ESE 0.41 27.0 -26.9 --- --- 720.3 0.023 0.000 8.5 3 1
02/12/06 6:51 p -14.2 -14.2 -14.3 --- --- 24.3 ESE 0.41 29.6 -26.9 --- --- 720.3 0.023 0.000 8.6 3 1
02/12/06 6:52 p -14.3 -14.2 -14.3 --- --- 23.5 ESE 0.39 27.8 -26.8 --- --- 720.3 0.023 0.000 8.5 3 1
02/12/06 6:53 p -14.3 -14.3 -14.3 --- --- 23.5 ESE 0.39 28.7 -26.8 --- --- 720.2 0.023 0.000 8.5 3 1
02/12/06 6:54 p -14.2 -14.2 -14.3 --- --- 25.2 ESE 0.42 28.7 -27.1 --- --- 720.3 0.023 0.000 8.5 3 1
02/12/06 6:55 p -14.2 -14.2 -14.2 --- --- 25.2 ESE 0.42 31.3 -27.1 --- --- 720.2 0.023 0.000 8.5 3 1
02/12/06 6:56 p -14.2 -14.2 -14.2 --- --- 26.1 ESE 0.43 29.6 -27.2 --- --- 720.3 0.023 0.000 8.5 3 1
02/12/06 6:57 p -14.1 -14.1 -14.2 --- --- 24.3 SE 0.41 27.0 -26.8 --- --- 720.3 0.023 0.000 8.5 3 1
02/12/06 6:58 p -14.1 -14.1 -14.1 --- --- 22.6 SE 0.38 26.1 -26.4 --- --- 720.2 0.023 0.000 8.5 3 1
02/12/06 6:59 p -14.1 -14.1 -14.1 --- --- 23.5 ESE 0.39 27.8 -26.6 --- --- 720.3 0.023 0.000 8.5 4 1
02/12/06 7:00 p -14.1 -14.1 -14.1 --- --- 23.5 ESE 0.39 25.2 -26.6 --- --- 720.2 0.023 0.000 8.5 3 1
02/12/06 7:01 p -14.2 -14.1 -14.2 --- --- 23.5 SE 0.39 27.8 -26.7 --- --- 720.2 0.023 0.000 8.5 3 1
02/12/06 7:03 p -13.8 -13.8 -13.9 --- --- 27.0 SE 0.45 32.2 -26.9 --- --- 720.1 0.022 0.000 8.5 3 1
02/12/06 7:04 p -13.7 -13.7 -13.8 --- --- 25.2 SE 0.42 29.6 -26.4 --- --- 720.2 0.022 0.000 8.5 3 1
02/12/06 7:05 p -13.7 -13.6 -13.7 --- --- 26.1 SE 0.43 29.6 -26.5 --- --- 720.1 0.022 0.000 8.5 3 1
02/12/06 7:06 p -13.7 -13.7 -13.7 --- --- 26.1 SE 0.43 28.7 -26.5 --- --- 720.1 0.022 0.000 8.5 3 1
02/12/06 7:07 p -13.7 -13.7 -13.7 --- --- 27.0 SE 0.45 31.3 -26.7 --- --- 720.1 0.022 0.000 8.5 3 1
02/12/06 7:08 p -13.7 -13.7 -13.8 --- --- 26.1 ESE 0.43 29.6 -26.6 --- --- 720.1 0.022 0.000 8.5 3 1
02/12/06 7:09 p -13.8 -13.8 -13.9 --- --- 24.3 ESE 0.41 30.4 -26.4 --- --- 720.1 0.022 0.000 8.5 3 1
02/12/06 7:10 p -13.9 -13.9 -13.9 --- --- 24.3 ESE 0.41 27.0 -26.4 --- --- 720.2 0.022 0.000 8.5 3 1
02/12/06 7:11 p -13.9 -13.9 -13.9 --- --- 26.1 ESE 0.43 29.6 -26.9 --- --- 720.0 0.022 0.000 8.5 3 1
02/12/06 7:12 p -14.0 -13.9 -14.1 --- --- 26.1 ESE 0.43 29.6 -26.9 --- --- 720.0 0.022 0.000 8.5 3 1
02/12/06 7:13 p -14.1 -14.0 -14.1 --- --- 19.1 ESE 0.32 25.2 -25.5 --- --- 720.1 0.022 0.000 8.5 3 1
02/12/06 7:14 p -14.0 -14.0 -14.1 --- --- 27.0 ESE 0.45 33.0 -27.1 --- --- 720.0 0.022 0.000 8.5 3 1
02/12/06 7:15 p -14.0 -13.9 -14.1 --- --- 18.3 ESE 0.30 24.3 -25.2 --- --- 720.1 0.022 0.000 8.5 3 1
02/12/06 7:16 p -13.9 -13.9 -14.0 --- --- 22.6 ESE 0.38 26.1 -26.2 --- --- 720.1 0.022 0.000 8.5 3 1
02/12/06 7:17 p -14.1 -14.0 -14.1 --- --- 20.0 E 0.33 28.7 -25.7 --- --- 720.1 0.022 0.000 8.5 3 1
02/12/06 7:18 p -14.1 -14.1 -14.1 --- --- 20.9 E 0.35 27.8 -26.0 --- --- 720.1 0.023 0.000 8.4 3 1
02/12/06 7:19 p -14.1 -14.1 -14.1 --- --- 21.7 E 0.36 30.4 -26.2 --- --- 719.9 0.023 0.000 8.4 3 1
02/12/06 7:20 p -14.1 -14.0 -14.1 --- --- 22.6 ESE 0.38 28.7 -26.3 --- --- 720.0 0.022 0.000 8.4 3 1
02/12/06 7:21 p -13.9 -13.9 -14.0 --- --- 26.1 ESE 0.43 28.7 -26.9 --- --- 720.1 0.022 0.000 8.4 3 1
02/12/06 7:22 p -13.9 -13.9 -13.9 --- --- 21.7 ESE 0.36 27.8 -26.0 --- --- 720.0 0.022 0.000 8.4 3 1
02/12/06 7:23 p -13.9 -13.9 -13.9 --- --- 25.2 ESE 0.42 33.9 -26.7 --- --- 719.9 0.022 0.000 8.4 3 1
02/12/06 7:24 p -13.8 -13.8 -13.9 --- --- 24.3 ESE 0.41 29.6 -26.4 --- --- 720.1 0.022 0.000 8.4 3 1
02/12/06 7:25 p -13.8 -13.8 -13.8 --- --- 27.8 ESE 0.46 30.4 -27.0 --- --- 720.0 0.022 0.000 8.4 3 1
02/12/06 7:26 p -13.8 -13.8 -13.8 --- --- 27.0 ESE 0.45 30.4 -26.9 --- --- 720.0 0.022 0.000 8.4 3 1
02/12/06 7:27 p -13.8 -13.8 -13.9 --- --- 24.3 ESE 0.41 27.8 -26.4 --- --- 720.0 0.022 0.000 8.4 3 1
02/12/06 7:28 p -13.8 -13.8 -13.8 --- --- 25.2 ESE 0.42 32.2 -26.6 --- --- 719.9 0.022 0.000 8.4 3 1
02/12/06 7:29 p -13.8 -13.8 -13.8 --- --- 24.3 ESE 0.41 29.6 -26.3 --- --- 719.9 0.022 0.000 8.4 3 1
02/12/06 7:30 p -13.8 -13.8 -13.8 --- --- 25.2 ESE 0.42 29.6 -26.6 --- --- 719.9 0.022 0.000 8.4 3 1
02/12/06 7:31 p -13.9 -13.8 -13.9 --- --- 27.0 ESE 0.45 32.2 -27.0 --- --- 719.9 0.022 0.000 8.4 3 1
02/12/06 7:32 p -13.9 -13.8 -13.9 --- --- 24.3 ESE 0.41 26.1 -26.4 --- --- 719.8 0.022 0.000 8.4 3 1
02/12/06 7:33 p -13.7 -13.7 -13.7 --- --- 25.2 ESE 0.42 27.8 -26.4 --- --- 719.8 0.022 0.000 8.4 3 1
02/12/06 7:34 p -13.7 -13.7 -13.7 --- --- 26.1 ESE 0.43 30.4 -26.5 --- --- 719.8 0.022 0.000 8.4 3 1
02/12/06 7:35 p -13.7 -13.7 -13.7 --- --- 27.0 ESE 0.45 31.3 -26.7 --- --- 719.9 0.022 0.000 8.4 3 1
02/12/06 7:36 p -13.7 -13.7 -13.7 --- --- 27.0 ESE 0.45 32.2 -26.7 --- --- 719.8 0.022 0.000 8.4 3 1
02/12/06 7:37 p -13.6 -13.6 -13.7 --- --- 27.8 ESE 0.46 30.4 -26.8 --- --- 719.8 0.022 0.000 8.4 3 1
02/12/06 7:38 p -13.6 -13.6 -13.7 --- --- 26.1 ESE 0.43 31.3 -26.4 --- --- 719.7 0.022 0.000 8.4 3 1
02/12/06 7:39 p -13.6 -13.6 -13.6 --- --- 24.3 ESE 0.41 27.0 -26.0 --- --- 719.8 0.022 0.000 8.4 3 1
02/12/06 7:40 p -13.6 -13.6 -13.6 --- --- 27.8 ESE 0.46 30.4 -26.8 --- --- 719.8 0.022 0.000 8.4 3 1
02/12/06 7:41 p -13.7 -13.7 -13.8 --- --- 27.8 ESE 0.46 30.4 -26.9 --- --- 719.6 0.022 0.000 8.4 3 1
02/12/06 7:42 p -13.7 -13.7 -13.7 --- --- 26.1 ESE 0.43 31.3 -26.6 --- --- 719.8 0.022 0.000 8.4 3 1
02/12/06 7:43 p -13.7 -13.7 -13.7 --- --- 26.1 ESE 0.43 28.7 -26.6 --- --- 719.8 0.022 0.000 8.4 3 1
02/12/06 7:44 p -13.7 -13.7 -13.7 --- --- 26.1 ESE 0.43 30.4 -26.5 --- --- 719.8 0.022 0.000 8.3 3 1
02/12/06 7:45 p -13.7 -13.7 -13.7 --- --- 25.2 ESE 0.42 27.8 -26.3 --- --- 719.8 0.022 0.000 8.3 3 1
02/12/06 7:46 p -13.8 -13.7 -13.8 --- --- 27.8 ESE 0.46 30.4 -27.0 --- --- 719.7 0.022 0.000 8.3 3 1
02/12/06 7:47 p -13.8 -13.8 -13.8 --- --- 25.2 E 0.42 28.7 -26.6 --- --- 719.7 0.022 0.000 8.3 3 1
02/12/06 7:48 p -13.9 -13.8 -13.9 --- --- 26.1 ESE 0.43 28.7 -26.8 --- --- 719.7 0.022 0.000 8.3 3 1
02/12/06 7:49 p -13.9 -13.9 -13.9 --- --- 23.5 ESE 0.39 28.7 -26.3 --- --- 719.7 0.022 0.000 8.3 3 1
02/12/06 7:50 p -13.9 -13.9 -13.9 --- --- 27.0 ESE 0.45 33.0 -27.0 --- --- 719.8 0.022 0.000 8.3 3 1
02/12/06 7:51 p -14.0 -13.9 -14.1 --- --- 27.0 ESE 0.45 30.4 -27.1 --- --- 719.8 0.022 0.000 8.3 3 1
02/12/06 7:52 p -14.1 -14.0 -14.1 --- --- 26.1 E 0.43 30.4 -27.1 --- --- 719.6 0.022 0.000 8.3 3 1
02/12/06 7:53 p -14.1 -14.1 -14.1 --- --- 25.2 E 0.42 31.3 -26.9 --- --- 719.6 0.023 0.000 8.3 3 1
02/12/06 7:54 p -14.1 -14.1 -14.2 --- --- 27.0 ESE 0.45 29.6 -27.3 --- --- 719.8 0.023 0.000 8.3 3 1
02/12/06 7:55 p -14.2 -14.2 -14.2 --- --- 26.1 ESE 0.43 29.6 -27.2 --- --- 719.6 0.023 0.000 8.3 3 1
02/12/06 7:56 p -14.2 -14.2 -14.3 --- --- 23.5 E 0.39 27.8 -26.7 --- --- 719.8 0.023 0.000 8.3 3 1
02/12/06 7:57 p -14.2 -14.2 -14.2 --- --- 26.1 E 0.43 29.6 -27.3 --- --- 719.6 0.023 0.000 8.3 3 1
02/12/06 7:58 p -14.2 -14.2 -14.3 --- --- 25.2 ESE 0.42 28.7 -27.1 --- --- 719.6 0.023 0.000 8.3 3 1
02/12/06 7:59 p -14.3 -14.3 -14.3 --- --- 24.3 ESE 0.41 30.4 -27.1 --- --- 719.7 0.023 0.000 8.3 3 1
02/12/06 8:00 p -14.3 -14.3 -14.3 --- --- 25.2 E 0.42 30.4 -27.2 --- --- 719.6 0.023 0.000 8.3 3 1
02/12/06 8:01 p -14.3 -14.3 -14.3 --- --- 25.2 ESE 0.42 28.7 -27.2 --- --- 719.8 0.023 0.000 8.3 3 1
02/12/06 8:02 p -14.3 -14.3 -14.3 --- --- 25.2 ESE 0.42 28.7 -27.2 --- --- 719.7 0.023 0.000 8.3 3 1
02/12/06 8:03 p -14.2 -14.2 -14.3 --- --- 25.2 ESE 0.42 27.8 -27.1 --- --- 719.8 0.023 0.000 8.3 3 1
02/12/06 8:04 p -14.3 -14.2 -14.3 --- --- 25.2 ESE 0.42 28.7 -27.2 --- --- 719.7 0.023 0.000 8.3 3 1
02/12/06 8:05 p -14.3 -14.3 -14.3 --- --- 25.2 ESE 0.42 29.6 -27.2 --- --- 719.6 0.023 0.000 8.3 3 1
02/12/06 8:06 p -14.3 -14.3 -14.3 --- --- 24.3 ESE 0.41 27.0 -27.0 --- --- 719.8 0.023 0.000 8.3 3 1
02/12/06 8:07 p -14.3 -14.3 -14.3 --- --- 22.6 ESE 0.38 25.2 -26.6 --- --- 719.8 0.023 0.000 8.3 3 1
02/12/06 8:08 p -14.3 -14.2 -14.3 --- --- 21.7 ESE 0.36 25.2 -26.4 --- --- 719.8 0.023 0.000 8.3 3 1
02/12/06 8:09 p -14.2 -14.2 -14.2 --- --- 24.3 ESE 0.41 30.4 -26.9 --- --- 719.7 0.023 0.000 8.3 3 1
02/12/06 8:10 p -14.2 -14.2 -14.2 --- --- 23.5 ESE 0.39 26.1 -26.7 --- --- 719.8 0.023 0.000 8.3 3 1
02/12/06 8:11 p -14.2 -14.2 -14.2 --- --- 22.6 ESE 0.38 24.3 -26.5 --- --- 719.8 0.023 0.000 8.3 3 1
02/12/06 8:12 p -14.2 -14.1 -14.2 --- --- 21.7 ESE 0.36 24.3 -26.3 --- --- 719.9 0.023 0.000 8.3 3 1
02/12/06 8:13 p -14.1 -14.1 -14.1 --- --- 20.9 ESE 0.35 24.3 -25.9 --- --- 719.9 0.022 0.000 8.3 3 1
02/12/06 8:14 p -14.1 -14.1 -14.1 --- --- 21.7 ESE 0.36 23.5 -26.2 --- --- 719.9 0.023 0.000 8.3 3 1
02/12/06 8:15 p -14.1 -13.9 -14.1 --- --- 21.7 ESE 0.36 23.5 -26.1 --- --- 719.8 0.022 0.000 8.3 3 1
02/12/06 8:16 p -13.9 -13.9 -13.9 --- --- 20.9 ESE 0.35 22.6 -25.8 --- --- 719.9 0.022 0.000 8.3 3 1
02/12/06 8:17 p -13.9 -13.8 -13.9 --- --- 21.7 ESE 0.36 26.1 -25.9 --- --- 719.8 0.022 0.000 8.3 3 1
02/12/06 8:18 p -13.8 -13.8 -13.8 --- --- 20.0 ESE 0.33 22.6 -25.4 --- --- 719.9 0.022 0.000 8.3 3 1
02/12/06 8:19 p -13.8 -13.8 -13.9 --- --- 20.0 ESE 0.33 23.5 -25.4 --- --- 719.9 0.022 0.000 8.2 3 1
02/12/06 8:20 p -13.8 -13.8 -13.8 --- --- 19.1 ESE 0.32 21.7 -25.2 --- --- 719.9 0.022 0.000 8.2 3 1
02/12/06 8:21 p -13.9 -13.8 -13.9 --- --- 19.1 E 0.32 22.6 -25.3 --- --- 720.0 0.022 0.000 8.2 3 1
02/12/06 8:22 p -13.9 -13.8 -13.9 --- --- 20.0 ESE 0.33 23.5 -25.5 --- --- 720.0 0.022 0.000 8.2 3 1
02/12/06 8:23 p -13.8 -13.7 -13.8 --- --- 19.1 ESE 0.32 22.6 -25.2 --- --- 720.0 0.022 0.000 8.2 3 1
02/12/06 8:24 p -13.7 -13.6 -13.7 --- --- 18.3 ESE 0.30 20.0 -24.8 --- --- 720.1 0.022 0.000 8.2 3 1
02/12/06 8:25 p -13.7 -13.6 -13.7 --- --- 16.5 ESE 0.28 19.1 -24.3 --- --- 720.0 0.022 0.000 8.2 3 1
02/12/06 8:26 p -13.6 -13.6 -13.6 --- --- 18.3 ESE 0.30 20.9 -24.7 --- --- 720.1 0.022 0.000 8.2 3 1
02/12/06 8:27 p -13.6 -13.4 -13.6 --- --- 16.5 ESE 0.28 19.1 -24.2 --- --- 720.1 0.022 0.000 8.2 3 1
02/12/06 8:28 p -13.4 -13.4 -13.4 --- --- 18.3 ESE 0.30 20.0 -24.5 --- --- 720.0 0.022 0.000 8.2 4 1
02/12/06 8:29 p -13.4 -13.3 -13.4 --- --- 17.4 ESE 0.29 22.6 -24.2 --- --- 720.1 0.022 0.000 8.2 3 1
02/12/06 8:30 p -13.3 -13.3 -13.3 --- --- 17.4 ESE 0.29 19.1 -24.1 --- --- 720.0 0.022 0.000 8.2 3 1
02/12/06 8:31 p -13.3 -13.3 -13.3 --- --- 17.4 ESE 0.29 20.0 -24.1 --- --- 720.1 0.022 0.000 8.2 3 1
02/12/06 8:32 p -13.2 -13.1 -13.3 --- --- 19.1 SE 0.32 20.0 -24.4 --- --- 720.0 0.022 0.000 8.2 3 1
02/12/06 8:33 p -13.0 -12.8 -13.1 --- --- 18.3 ESE 0.30 21.7 -23.9 --- --- 720.0 0.022 0.000 8.2 3 1
02/12/06 8:34 p -12.8 -12.7 -12.8 --- --- 18.3 SE 0.30 20.0 -23.6 --- --- 720.0 0.022 0.000 8.2 3 1
02/12/06 8:35 p -12.7 -12.6 -12.7 --- --- 18.3 SE 0.30 20.0 -23.4 --- --- 720.0 0.022 0.000 8.2 3 1
02/12/06 8:36 p -12.6 -12.4 -12.6 --- --- 19.1 SE 0.32 20.9 -23.6 --- --- 719.9 0.021 0.000 8.2 3 1
02/12/06 8:37 p -12.3 -12.2 -12.4 --- --- 17.4 SE 0.29 20.0 -22.8 --- --- 720.0 0.021 0.000 8.2 3 1
02/12/06 8:38 p -12.2 -12.2 -12.2 --- --- 16.5 SE 0.28 19.1 -22.4 --- --- 720.0 0.021 0.000 8.2 3 1
02/12/06 8:39 p -12.2 -12.1 -12.2 --- --- 16.5 SE 0.28 20.0 -22.3 --- --- 720.0 0.021 0.000 8.2 3 1
02/12/06 8:40 p -12.1 -12.1 -12.1 --- --- 15.7 SE 0.26 18.3 -22.1 --- --- 720.1 0.021 0.000 8.2 3 1
02/12/06 8:41 p -12.0 -11.9 -12.1 --- --- 17.4 SE 0.29 20.0 -22.4 --- --- 720.0 0.021 0.000 8.2 3 1
02/12/06 8:42 p -11.9 -11.8 -11.9 --- --- 17.4 SE 0.29 19.1 -22.2 --- --- 720.1 0.021 0.000 8.2 3 1
02/12/06 8:43 p -11.8 -11.7 -11.8 --- --- 16.5 SE 0.28 17.4 -21.8 --- --- 720.0 0.021 0.000 8.2 3 1
02/12/06 8:44 p -11.7 -11.7 -11.7 --- --- 17.4 SE 0.29 19.1 -22.0 --- --- 720.1 0.021 0.000 8.2 3 1
02/12/06 8:45 p -11.6 -11.6 -11.6 --- --- 16.5 SE 0.28 18.3 -21.6 --- --- 720.1 0.021 0.000 8.2 3 1
02/12/06 8:46 p -11.5 -11.5 -11.6 --- --- 16.5 SE 0.28 17.4 -21.5 --- --- 720.1 0.021 0.000 8.2 3 1
02/12/06 8:47 p -11.4 -11.4 -11.5 --- --- 14.8 SE 0.25 17.4 -20.9 --- --- 720.1 0.021 0.000 8.2 3 1
02/12/06 8:48 p -11.3 -11.3 -11.3 --- --- 14.8 SE 0.25 15.7 -20.8 --- --- 720.1 0.021 0.000 8.2 3 1
02/12/06 8:49 p -11.2 -11.2 -11.3 --- --- 14.8 SE 0.25 17.4 -20.6 --- --- 720.2 0.021 0.000 8.2 3 1
02/12/06 8:50 p -11.1 -11.1 -11.1 --- --- 13.9 SE 0.23 15.7 -20.2 --- --- 720.2 0.020 0.000 8.2 3 1
02/12/06 8:51 p -11.0 -10.9 -11.0 --- --- 12.2 SE 0.20 13.0 -19.6 --- --- 720.2 0.020 0.000 8.2 3 1
02/12/06 8:52 p -10.8 -10.8 -10.9 --- --- 11.3 SE 0.19 13.0 -19.0 --- --- 720.2 0.020 0.000 8.2 3 1
02/12/06 8:53 p -10.8 -10.7 -10.8 --- --- 13.0 SE 0.22 13.9 -19.6 --- --- 720.1 0.020 0.000 8.2 3 1
02/12/06 8:54 p -10.8 -10.7 -10.8 --- --- 12.2 SE 0.20 14.8 -19.2 --- --- 720.2 0.020 0.000 8.2 3 1
02/12/06 8:55 p -10.8 -10.8 -10.8 --- --- 13.0 SE 0.22 14.8 -19.6 --- --- 720.2 0.020 0.000 8.2 3 1
02/12/06 8:56 p -10.7 -10.7 -10.7 --- --- 12.2 SE 0.20 13.0 -19.2 --- --- 720.2 0.020 0.000 8.2 3 1
02/12/06 8:57 p -10.7 -10.7 -10.7 --- --- 10.4 SE 0.17 11.3 -18.5 --- --- 720.1 0.020 0.000 8.2 3 1
02/12/06 8:58 p -10.7 -10.6 -10.7 --- --- 11.3 SSE 0.19 12.2 -18.8 --- --- 720.2 0.020 0.000 8.2 3 1
02/12/06 8:59 p -10.6 -10.6 -10.6 --- --- 12.2 SE 0.20 13.0 -19.1 --- --- 720.2 0.020 0.000 8.2 3 1
02/12/06 9:00 p -10.6 -10.6 -10.7 --- --- 11.3 SE 0.19 12.2 -18.7 --- --- 720.2 0.020 0.000 8.2 3 1
02/12/06 9:01 p -10.7 -10.7 -10.7 --- --- 11.3 SE 0.19 12.2 -18.8 --- --- 720.3 0.020 0.000 8.2 3 1
02/12/06 9:02 p -10.7 -10.7 -10.7 --- --- 11.3 SE 0.19 13.0 -18.8 --- --- 720.2 0.020 0.000 8.2 3 1
02/12/06 9:03 p -10.8 -10.7 -10.8 --- --- 12.2 SE 0.20 13.0 -19.2 --- --- 720.2 0.020 0.000 8.2 4 1
02/12/06 9:04 p -10.7 -10.7 -10.8 --- --- 11.3 SE 0.19 13.0 -18.9 --- --- 720.3 0.020 0.000 8.3 3 1
02/12/06 9:05 p -10.8 -10.7 -10.8 --- --- 10.4 SE 0.17 13.0 -18.6 --- --- 720.2 0.020 0.000 8.3 3 1
02/12/06 9:06 p -10.7 -10.6 -10.7 --- --- 12.2 SE 0.20 13.9 -19.1 --- --- 720.2 0.020 0.000 8.3 3 1
02/12/06 9:07 p -10.5 -10.4 -10.6 --- --- 11.3 SE 0.19 13.0 -18.6 --- --- 720.2 0.020 0.000 8.3 3 1
02/12/06 9:08 p -10.4 -10.3 -10.4 --- --- 10.4 SE 0.17 12.2 -18.1 --- --- 720.2 0.020 0.000 8.3 3 1
02/12/06 9:09 p -10.3 -10.2 -10.3 --- --- 11.3 SSE 0.19 13.0 -18.3 --- --- 720.3 0.020 0.000 8.3 3 1
02/12/06 9:10 p -10.1 -10.1 -10.2 --- --- 11.3 SSE 0.19 16.5 -18.1 --- --- 720.2 0.020 0.000 8.3 3 1
02/12/06 9:11 p -10.1 -10.1 -10.1 --- --- 14.8 SSE 0.25 20.9 -19.2 --- --- 720.2 0.020 0.000 8.3 3 1
02/12/06 9:12 p -10.1 -10.0 -10.1 --- --- 13.0 SSE 0.22 16.5 -18.6 --- --- 720.3 0.020 0.000 8.3 3 1
02/12/06 9:13 p -10.0 -10.0 -10.0 --- --- 12.2 SSE 0.20 14.8 -18.3 --- --- 720.2 0.020 0.000 8.3 3 1
02/12/06 9:14 p -10.0 -10.0 -10.1 --- --- 12.2 SSE 0.20 15.7 -18.3 --- --- 720.2 0.020 0.000 8.3 3 1
02/12/06 9:15 p -10.0 -9.9 -10.0 --- --- 12.2 S 0.20 17.4 -18.3 --- --- 720.2 0.020 0.000 8.3 3 1
02/12/06 9:16 p -10.0 -10.0 -10.0 --- --- 12.2 SSE 0.20 16.5 -18.3 --- --- 720.2 0.020 0.000 8.3 3 1
02/12/06 9:17 p -9.9 -9.9 -10.0 --- --- 13.0 SSE 0.22 14.8 -18.4 --- --- 720.2 0.020 0.000 8.3 3 1
02/12/06 9:18 p -10.1 -10.0 -10.1 --- --- 12.2 SE 0.20 14.8 -18.3 --- --- 720.2 0.020 0.000 8.3 3 1
02/12/06 9:19 p -9.9 -9.9 -9.9 --- --- 11.3 SSE 0.19 13.9 -17.8 --- --- 720.2 0.020 0.000 8.3 3 1
02/12/06 9:20 p -9.8 -9.8 -9.9 --- --- 13.0 SSE 0.22 15.7 -18.3 --- --- 720.1 0.020 0.000 8.3 4 1
02/12/06 9:21 p -9.7 -9.7 -9.8 --- --- 12.2 SE 0.20 13.9 -17.9 --- --- 720.1 0.019 0.000 8.3 3 1
02/12/06 9:22 p -9.7 -9.7 -9.7 --- --- 13.0 SE 0.22 13.9 -18.1 --- --- 720.2 0.019 0.000 8.3 3 1
02/12/06 9:23 p -9.7 -9.7 -9.7 --- --- 13.9 SE 0.23 15.7 -18.4 --- --- 720.1 0.019 0.000 8.3 3 1
02/12/06 9:24 p -9.7 -9.7 -9.7 --- --- 13.0 SSE 0.22 14.8 -18.1 --- --- 720.2 0.019 0.000 8.3 3 1
02/12/06 9:25 p -9.6 -9.6 -9.6 --- --- 13.0 SSE 0.22 14.8 -18.1 --- --- 720.2 0.019 0.000 8.3 3 1
02/12/06 9:26 p -9.6 -9.6 -9.6 --- --- 15.7 SE 0.26 16.5 -18.7 --- --- 720.2 0.019 0.000 8.3 3 1
02/12/06 9:27 p -9.7 -9.6 -9.8 --- --- 14.8 SSE 0.25 17.4 -18.6 --- --- 720.2 0.019 0.000 8.3 3 1
02/12/06 9:28 p -9.9 -9.8 -9.9 --- --- 16.5 SE 0.28 18.3 -19.4 --- --- 720.1 0.020 0.000 8.3 3 1
02/12/06 9:29 p -9.9 -9.9 -9.9 --- --- 17.4 SE 0.29 19.1 -19.7 --- --- 720.1 0.020 0.000 8.3 3 1
02/12/06 9:30 p -10.1 -10.0 -10.1 --- --- 16.5 SSE 0.28 20.0 -19.6 --- --- 720.1 0.020 0.000 8.3 3 1
02/12/06 9:31 p -10.1 -10.1 -10.1 --- --- 13.9 SE 0.23 16.5 -18.9 --- --- 720.1 0.020 0.000 8.3 3 1
02/12/06 9:32 p -10.0 -9.9 -10.1 --- --- 13.0 SSE 0.22 14.8 -18.6 --- --- 720.1 0.020 0.000 8.3 3 1
02/12/06 9:33 p -10.0 -10.0 -10.1 --- --- 14.8 SSE 0.25 15.7 -19.1 --- --- 720.1 0.020 0.000 8.3 3 1
02/12/06 9:34 p -9.9 -9.9 -10.0 --- --- 13.9 SE 0.23 16.5 -18.7 --- --- 720.1 0.020 0.000 8.3 3 1
02/12/06 9:35 p -10.0 -10.0 -10.0 --- --- 13.9 SE 0.23 17.4 -18.8 --- --- 720.2 0.020 0.000 8.3 3 1
02/12/06 9:36 p -10.0 -10.0 -10.1 --- --- 14.8 SSE 0.25 16.5 -19.1 --- --- 720.2 0.020 0.000 8.3 3 1
02/12/06 9:37 p -10.0 -10.0 -10.0 --- --- 16.5 SSE 0.28 18.3 -19.5 --- --- 720.1 0.020 0.000 8.3 3 1
02/12/06 9:38 p -9.9 -9.9 -10.0 --- --- 15.7 SSE 0.26 19.1 -19.2 --- --- 720.0 0.020 0.000 8.3 3 1
02/12/06 9:39 p -10.1 -10.1 -10.1 --- --- 16.5 SSE 0.28 18.3 -19.6 --- --- 720.0 0.020 0.000 8.3 3 1
02/12/06 9:40 p -10.1 -10.1 -10.1 --- --- 14.8 SSE 0.25 17.4 -19.2 --- --- 720.1 0.020 0.000 8.3 3 1
02/12/06 9:41 p -10.1 -10.1 -10.2 --- --- 16.5 SSE 0.28 19.1 -19.7 --- --- 720.1 0.020 0.000 8.3 3 1
02/12/06 9:42 p -10.2 -10.1 -10.2 --- --- 15.7 SSE 0.26 17.4 -19.6 --- --- 720.2 0.020 0.000 8.3 3 1
02/12/06 9:43 p -10.1 -10.1 -10.1 --- --- 15.7 SSE 0.26 17.4 -19.4 --- --- 720.2 0.020 0.000 8.3 3 1
02/12/06 9:44 p -10.1 -10.1 -10.1 --- --- 13.9 SSE 0.23 15.7 -18.9 --- --- 720.1 0.020 0.000 8.3 3 1
02/12/06 9:45 p -10.1 -10.1 -10.1 --- --- 16.5 SE 0.28 19.1 -19.6 --- --- 720.1 0.020 0.000 8.3 3 1
02/12/06 9:46 p -10.2 -10.2 -10.2 --- --- 15.7 SE 0.26 17.4 -19.5 --- --- 720.1 0.020 0.000 8.3 3 1
02/12/06 9:47 p -10.2 -10.2 -10.2 --- --- 16.5 SE 0.28 19.1 -19.8 --- --- 720.1 0.020 0.000 8.3 3 1
02/12/06 9:48 p -10.2 -10.2 -10.3 --- --- 16.5 SE 0.28 19.1 -19.8 --- --- 720.1 0.020 0.000 8.3 3 1
02/12/06 9:49 p -10.2 -10.2 -10.2 --- --- 16.5 SE 0.28 18.3 -19.8 --- --- 720.1 0.020 0.000 8.3 3 1
02/12/06 9:50 p -10.2 -10.2 -10.2 --- --- 16.5 SE 0.28 17.4 -19.8 --- --- 720.1 0.020 0.000 8.3 3 1
02/12/06 9:51 p -10.2 -10.2 -10.2 --- --- 16.5 SE 0.28 18.3 -19.8 --- --- 720.0 0.020 0.000 8.3 3 1
02/12/06 9:52 p -10.2 -10.2 -10.2 --- --- 17.4 SE 0.29 20.0 -19.9 --- --- 720.1 0.020 0.000 8.3 3 1
02/12/06 9:53 p -10.2 -10.1 -10.2 --- --- 15.7 SE 0.26 18.3 -19.5 --- --- 720.0 0.020 0.000 8.3 3 1
02/12/06 9:54 p -10.1 -10.1 -10.2 --- --- 14.8 SE 0.25 16.5 -19.2 --- --- 720.1 0.020 0.000 8.3 3 1
02/12/06 9:55 p -10.1 -10.0 -10.1 --- --- 15.7 SE 0.26 17.4 -19.4 --- --- 720.0 0.020 0.000 8.3 3 1
02/12/06 9:56 p -10.1 -10.0 -10.1 --- --- 17.4 SE 0.29 19.1 -19.8 --- --- 719.9 0.020 0.000 8.3 3 1
02/12/06 9:57 p -10.1 -10.0 -10.1 --- --- 17.4 SE 0.29 20.0 -19.8 --- --- 720.0 0.020 0.000 8.3 3 1
02/12/06 9:58 p -10.0 -10.0 -10.1 --- --- 16.5 SE 0.28 19.1 -19.5 --- --- 720.0 0.020 0.000 8.3 3 1
02/12/06 9:59 p -9.9 -9.9 -9.9 --- --- 15.7 SE 0.26 18.3 -19.2 --- --- 720.0 0.020 0.000 8.3 3 1
02/12/06 10:00 p -9.8 -9.8 -9.8 --- --- 17.4 SE 0.29 20.9 -19.4 --- --- 720.0 0.020 0.000 8.3 3 1
02/12/06 10:01 p -9.8 -9.8 -9.8 --- --- 17.4 SE 0.29 19.1 -19.4 --- --- 719.9 0.020 0.000 8.3 3 1
02/12/06 10:03 p -9.6 -9.6 -9.7 --- --- 18.3 SSE 0.30 20.0 -19.4 --- --- 720.0 0.019 0.000 8.3 3 1
02/12/06 10:04 p -9.3 -9.3 -9.4 --- --- 16.5 SSE 0.28 20.0 -18.7 --- --- 720.0 0.019 0.000 8.3 3 1
02/12/06 10:05 p -9.4 -9.4 -9.5 --- --- 15.7 SSE 0.26 18.3 -18.6 --- --- 719.9 0.019 0.000 8.3 3 1
02/12/06 10:06 p -9.4 -9.4 -9.4 --- --- 16.5 SSE 0.28 18.3 -18.8 --- --- 719.9 0.019 0.000 8.3 3 1
02/12/06 10:07 p -9.4 -9.3 -9.4 --- --- 16.5 SE 0.28 20.0 -18.7 --- --- 719.9 0.019 0.000 8.4 3 1
02/12/06 10:08 p -9.4 -9.4 -9.5 --- --- 14.8 SE 0.25 17.4 -18.3 --- --- 719.9 0.019 0.000 8.4 3 1
02/12/06 10:09 p -9.6 -9.6 -9.6 --- --- 16.5 SSE 0.28 20.0 -18.9 --- --- 719.9 0.019 0.000 8.3 3 1
02/12/06 10:10 p -9.7 -9.7 -9.8 --- --- 15.7 SSE 0.26 20.0 -18.9 --- --- 720.0 0.019 0.000 8.4 3 1
02/12/06 10:11 p -9.7 -9.7 -9.7 --- --- 15.7 SSE 0.26 19.1 -18.9 --- --- 720.0 0.019 0.000 8.4 3 1
02/12/06 10:12 p -9.7 -9.7 -9.8 --- --- 14.8 SSE 0.25 18.3 -18.7 --- --- 720.0 0.019 0.000 8.4 3 1
02/12/06 10:13 p -9.8 -9.8 -9.8 --- --- 13.0 SSE 0.22 15.7 -18.3 --- --- 720.0 0.020 0.000 8.4 3 1
02/12/06 10:14 p -9.7 -9.7 -9.8 --- --- 13.9 SSE 0.23 16.5 -18.4 --- --- 720.0 0.019 0.000 8.4 3 1
02/12/06 10:15 p -9.7 -9.7 -9.7 --- --- 14.8 SSE 0.25 16.5 -18.7 --- --- 719.9 0.019 0.000 8.3 3 1
02/12/06 10:16 p -9.7 -9.7 -9.7 --- --- 13.9 SSE 0.23 15.7 -18.4 --- --- 720.0 0.019 0.000 8.4 3 1
02/12/06 10:17 p -9.8 -9.7 -9.8 --- --- 13.9 SSE 0.23 15.7 -18.5 --- --- 720.0 0.020 0.000 8.3 3 1
02/12/06 10:18 p -9.8 -9.7 -9.8 --- --- 13.9 SSE 0.23 17.4 -18.5 --- --- 719.9 0.020 0.000 8.4 3 1
02/12/06 10:19 p -9.8 -9.7 -9.8 --- --- 14.8 SSE 0.25 16.5 -18.8 --- --- 719.9 0.020 0.000 8.4 3 1
02/12/06 10:20 p -9.8 -9.7 -9.8 --- --- 15.7 SSE 0.26 17.4 -19.0 --- --- 719.9 0.020 0.000 8.3 4 1
02/12/06 10:21 p -9.9 -9.8 -9.9 --- --- 13.0 SSE 0.22 16.5 -18.4 --- --- 720.0 0.020 0.000 8.3 4 1
02/12/06 10:22 p -9.8 -9.8 -9.8 --- --- 13.0 SE 0.22 15.7 -18.3 --- --- 720.0 0.020 0.000 8.3 4 1
02/12/06 10:23 p -9.8 -9.8 -9.8 --- --- 14.8 SE 0.25 16.5 -18.8 --- --- 719.9 0.020 0.000 8.3 3 1
02/12/06 10:24 p -9.8 -9.8 -9.8 --- --- 12.2 SSE 0.20 14.8 -18.1 --- --- 720.0 0.020 0.000 8.3 3 1
02/12/06 10:25 p -9.8 -9.7 -9.8 --- --- 12.2 SSE 0.20 13.0 -18.0 --- --- 719.9 0.020 0.000 8.3 3 1
02/12/06 10:26 p -9.7 -9.7 -9.8 --- --- 12.2 SSE 0.20 13.0 -17.9 --- --- 719.9 0.019 0.000 8.3 3 1
02/12/06 10:27 p -9.7 -9.6 -9.7 --- --- 13.9 SSE 0.23 16.5 -18.4 --- --- 720.0 0.019 0.000 8.3 4 1
02/12/06 10:28 p -9.6 -9.6 -9.6 --- --- 13.0 SSE 0.22 14.8 -18.1 --- --- 720.0 0.019 0.000 8.3 3 1
02/12/06 10:29 p -9.6 -9.6 -9.7 --- --- 10.4 S 0.17 12.2 -17.2 --- --- 719.9 0.019 0.000 8.3 3 1
02/12/06 10:30 p -9.8 -9.8 -9.9 --- --- 10.4 S 0.17 12.2 -17.5 --- --- 720.0 0.020 0.000 8.3 3 1
02/12/06 10:31 p -9.8 -9.8 -9.9 --- --- 11.3 SSE 0.19 13.0 -17.8 --- --- 719.9 0.020 0.000 8.3 3 1
02/12/06 10:32 p -9.8 -9.8 -9.8 --- --- 12.2 SSE 0.20 14.8 -18.1 --- --- 719.9 0.020 0.000 8.3 3 1
02/12/06 10:33 p -9.9 -9.9 -9.9 --- --- 9.6 SSE 0.16 11.3 -17.2 --- --- 719.9 0.020 0.000 8.3 3 1
02/12/06 10:34 p -9.9 -9.8 -9.9 --- --- 10.4 SSE 0.17 12.2 -17.6 --- --- 719.9 0.020 0.000 8.3 3 1
02/12/06 10:35 p -9.7 -9.7 -9.8 --- --- 10.4 SSE 0.17 14.8 -17.3 --- --- 719.9 0.019 0.000 8.3 4 1
02/12/06 10:36 p -9.9 -9.8 -9.9 --- --- 12.2 SSE 0.20 14.8 -18.1 --- --- 719.9 0.020 0.000 8.3 4 1
02/12/06 10:37 p -9.8 -9.8 -9.8 --- --- 10.4 SSE 0.17 13.0 -17.5 --- --- 719.8 0.020 0.000 8.3 3 1
02/12/06 10:38 p -9.8 -9.8 -9.8 --- --- 12.2 SSE 0.20 13.0 -18.1 --- --- 719.8 0.020 0.000 8.3 3 1
02/12/06 10:39 p -9.8 -9.8 -9.8 --- --- 12.2 SSE 0.20 13.9 -18.0 --- --- 719.8 0.020 0.000 8.3 3 1
02/12/06 10:40 p -9.8 -9.8 -9.8 --- --- 13.9 SSE 0.23 15.7 -18.6 --- --- 719.8 0.020 0.000 8.3 4 1
02/12/06 10:41 p -9.8 -9.8 -9.8 --- --- 12.2 SE 0.20 13.9 -18.1 --- --- 719.8 0.020 0.000 8.3 4 1
02/12/06 10:42 p -9.8 -9.8 -9.8 --- --- 12.2 SSE 0.20 13.0 -18.1 --- --- 719.8 0.020 0.000 8.3 4 1
02/12/06 10:43 p -9.8 -9.8 -9.8 --- --- 13.9 SSE 0.23 15.7 -18.5 --- --- 719.8 0.020 0.000 8.3 3 1
02/12/06 10:44 p -9.9 -9.8 -9.9 --- --- 13.9 SSE 0.23 18.3 -18.7 --- --- 719.9 0.020 0.000 8.3 4 1
02/12/06 10:45 p -9.9 -9.9 -10.0 --- --- 12.2 SSE 0.20 13.9 -18.2 --- --- 719.9 0.020 0.000 8.4 3 1
02/12/06 10:46 p -9.9 -9.8 -9.9 --- --- 11.3 SSE 0.19 13.0 -17.8 --- --- 719.8 0.020 0.000 8.4 4 1
02/12/06 10:47 p -9.8 -9.8 -9.8 --- --- 10.4 SSE 0.17 12.2 -17.4 --- --- 719.8 0.020 0.000 8.3 4 1
02/12/06 10:48 p -9.7 -9.7 -9.7 --- --- 11.3 SSE 0.19 12.2 -17.7 --- --- 719.8 0.019 0.000 8.3 4 1
02/12/06 10:49 p -9.6 -9.6 -9.7 --- --- 12.2 SSE 0.20 13.0 -17.8 --- --- 719.7 0.019 0.000 8.3 4 1
02/12/06 10:50 p -9.6 -9.6 -9.6 --- --- 13.0 SSE 0.22 14.8 -18.1 --- --- 719.8 0.019 0.000 8.3 4 1
02/12/06 10:51 p -9.6 -9.5 -9.6 --- --- 13.0 SSE 0.22 14.8 -17.9 --- --- 719.7 0.019 0.000 8.4 4 1
02/12/06 10:52 p -9.6 -9.5 -9.6 --- --- 12.2 SSE 0.20 13.9 -17.7 --- --- 719.7 0.019 0.000 8.3 3 1
02/12/06 10:53 p -9.5 -9.4 -9.6 --- --- 12.2 SSE 0.20 13.9 -17.7 --- --- 719.7 0.019 0.000 8.3 3 1
02/12/06 10:54 p -9.4 -9.4 -9.4 --- --- 14.8 SE 0.25 15.7 -18.3 --- --- 719.7 0.019 0.000 8.3 4 1
02/12/06 10:55 p -9.5 -9.4 -9.6 --- --- 13.0 SE 0.22 15.7 -17.9 --- --- 719.8 0.019 0.000 8.4 4 1
02/12/06 10:56 p -9.6 -9.6 -9.6 --- --- 12.2 ESE 0.20 14.8 -17.7 --- --- 719.7 0.019 0.000 8.4 3 1
02/12/06 10:57 p -9.7 -9.6 -9.8 --- --- 10.4 E 0.17 14.8 -17.3 --- --- 719.7 0.019 0.000 8.3 4 1
02/12/06 10:58 p -10.0 -9.8 -10.2 --- --- 7.0 E 0.12 10.4 -16.2 --- --- 719.7 0.020 0.000 8.4 4 1
02/12/06 10:59 p -10.3 -10.2 -10.4 --- --- 7.0 E 0.12 9.6 -16.5 --- --- 719.7 0.020 0.000 8.4 4 1
02/12/06 11:00 p -10.4 -10.3 -10.4 --- --- 7.0 E 0.12 8.7 -16.6 --- --- 719.7 0.020 0.000 8.3 4 1
02/12/06 11:01 p -10.3 -10.2 -10.3 --- --- 7.8 ESE 0.13 11.3 -16.9 --- --- 719.7 0.020 0.000 8.4 4 1
02/12/06 11:02 p -10.1 -10.0 -10.2 --- --- 8.7 ESE 0.14 10.4 -17.1 --- --- 719.8 0.020 0.000 8.3 4 1
02/12/06 11:03 p -9.9 -9.9 -9.9 --- --- 9.6 ESE 0.16 10.4 -17.3 --- --- 719.7 0.020 0.000 8.4 3 1
02/12/06 11:04 p -9.9 -9.8 -9.9 --- --- 8.7 SE 0.14 10.4 -16.8 --- --- 719.7 0.020 0.000 8.4 4 1
02/12/06 11:05 p -9.9 -9.9 -9.9 --- --- 7.8 ESE 0.13 9.6 -16.4 --- --- 719.7 0.020 0.000 8.4 4 1
02/12/06 11:06 p -9.8 -9.7 -9.8 --- --- 7.8 ESE 0.13 10.4 -16.3 --- --- 719.7 0.020 0.000 8.4 4 1
02/12/06 11:07 p -9.6 -9.6 -9.6 --- --- 8.7 SE 0.14 10.4 -16.5 --- --- 719.7 0.019 0.000 8.4 4 1
02/12/06 11:08 p -9.5 -9.5 -9.6 --- --- 7.8 SE 0.13 9.6 -16.0 --- --- 719.8 0.019 0.000 8.4 4 1
02/12/06 11:09 p -9.5 -9.5 -9.5 --- --- 8.7 SE 0.14 10.4 -16.4 --- --- 719.8 0.019 0.000 8.4 4 1
02/12/06 11:10 p -9.4 -9.3 -9.5 --- --- 7.0 E 0.12 10.4 -15.4 --- --- 719.7 0.019 0.000 8.4 4 1
02/12/06 11:11 p -9.2 -9.2 -9.3 --- --- 7.8 ESE 0.13 13.0 -15.6 --- --- 719.7 0.019 0.000 8.4 3 1
02/12/06 11:12 p -9.1 -9.0 -9.1 --- --- 10.4 ESE 0.17 13.0 -16.5 --- --- 719.7 0.019 0.000 8.4 4 1
02/12/06 11:13 p -8.9 -8.7 -8.9 --- --- 7.8 E 0.13 9.6 -15.2 --- --- 719.7 0.019 0.000 8.4 3 1
02/12/06 11:14 p -8.7 -8.6 -8.7 --- --- 6.1 ESE 0.10 8.7 -14.1 --- --- 719.7 0.019 0.000 8.4 4 1
02/12/06 11:15 p -8.5 -8.4 -8.6 --- --- 6.1 ESE 0.10 7.0 -13.8 --- --- 719.7 0.019 0.000 8.4 4 1
02/12/06 11:16 p -8.3 -8.1 -8.3 --- --- 5.2 E 0.09 7.8 -13.1 --- --- 719.7 0.018 0.000 8.4 4 1
02/12/06 11:17 p -7.9 -7.8 -7.9 --- --- 6.1 ESE 0.10 8.7 -13.1 --- --- 719.8 0.018 0.000 8.4 4 1
02/12/06 11:18 p -7.7 -7.7 -7.8 --- --- 8.7 SE 0.14 11.3 -14.2 --- --- 719.6 0.018 0.000 8.4 4 1
02/12/06 11:19 p -7.8 -7.8 -7.8 --- --- 8.7 SSE 0.14 10.4 -14.2 --- --- 719.7 0.018 0.000 8.4 4 1
02/12/06 11:20 p -8.0 -7.8 -8.1 --- --- 8.7 S 0.14 10.4 -14.5 --- --- 719.7 0.018 0.000 8.4 4 1
02/12/06 11:21 p -8.1 -8.0 -8.2 --- --- 8.7 S 0.14 10.4 -14.7 --- --- 719.7 0.018 0.000 8.4 4 1
02/12/06 11:22 p -8.0 -8.0 -8.0 --- --- 8.7 S 0.14 9.6 -14.5 --- --- 719.7 0.018 0.000 8.4 4 1
02/12/06 11:23 p -8.1 -8.1 -8.2 --- --- 8.7 S 0.14 10.4 -14.7 --- --- 719.7 0.018 0.000 8.4 4 1
02/12/06 11:24 p -8.3 -8.2 -8.4 --- --- 7.0 S 0.12 9.6 -14.1 --- --- 719.7 0.018 0.000 8.4 4 1
02/12/06 11:25 p -8.3 -8.2 -8.4 --- --- 7.0 S 0.12 8.7 -14.1 --- --- 719.7 0.019 0.000 8.4 4 1
02/12/06 11:26 p -8.2 -8.2 -8.4 --- --- 8.7 S 0.14 10.4 -14.8 --- --- 719.7 0.018 0.000 8.5 4 1
02/12/06 11:27 p -8.5 -8.4 -8.7 --- --- 9.6 S 0.16 11.3 -15.5 --- --- 719.7 0.019 0.000 8.5 4 1
02/12/06 11:28 p -8.7 -8.7 -8.7 --- --- 8.7 S 0.14 9.6 -15.3 --- --- 719.6 0.019 0.000 8.5 4 1
02/12/06 11:29 p -8.7 -8.6 -8.8 --- --- 9.6 S 0.16 11.3 -15.8 --- --- 719.6 0.019 0.000 8.5 4 1
02/12/06 11:30 p -8.8 -8.7 -8.9 --- --- 8.7 S 0.14 9.6 -15.5 --- --- 719.7 0.019 0.000 8.5 4 1
02/12/06 11:31 p -8.8 -8.8 -8.8 --- --- 7.0 S 0.12 8.7 -14.7 --- --- 719.7 0.019 0.000 8.5 4 1
02/12/06 11:32 p -8.8 -8.7 -8.8 --- --- 7.0 S 0.12 9.6 -14.7 --- --- 719.7 0.019 0.000 8.5 4 1
02/12/06 11:33 p -8.6 -8.5 -8.6 --- --- 7.0 S 0.12 8.7 -14.4 --- --- 719.6 0.019 0.000 8.5 4 1
02/12/06 11:34 p -8.6 -8.5 -8.6 --- --- 9.6 SSW 0.16 11.3 -15.6 --- --- 719.7 0.019 0.000 8.5 4 1
02/12/06 11:35 p -8.7 -8.7 -8.7 --- --- 7.0 S 0.12 10.4 -14.6 --- --- 719.7 0.019 0.000 8.5 4 1
02/12/06 11:36 p -8.7 -8.7 -8.7 --- --- 8.7 S 0.14 10.4 -15.3 --- --- 719.8 0.019 0.000 8.5 4 1
02/12/06 11:37 p -8.7 -8.7 -8.7 --- --- 7.8 S 0.13 10.4 -14.9 --- --- 719.7 0.019 0.000 8.5 4 1
02/12/06 11:38 p -8.6 -8.5 -8.6 --- --- 7.0 SSW 0.12 8.7 -14.4 --- --- 719.7 0.019 0.000 8.5 4 1
02/12/06 11:39 p -8.4 -8.4 -8.5 --- --- 6.1 S 0.10 7.8 -13.8 --- --- 719.7 0.019 0.000 8.5 4 1
02/12/06 11:40 p -8.4 -8.3 -8.4 --- --- 7.8 S 0.13 9.6 -14.6 --- --- 719.7 0.019 0.000 8.5 4 1
02/12/06 11:41 p -8.5 -8.5 -8.6 --- --- 7.0 S 0.12 8.7 -14.3 --- --- 719.8 0.019 0.000 8.5 4 1
02/12/06 11:42 p -8.5 -8.5 -8.6 --- --- 7.0 S 0.12 8.7 -14.3 --- --- 719.7 0.019 0.000 8.5 4 1
02/12/06 11:43 p -8.6 -8.5 -8.7 --- --- 7.8 S 0.13 10.4 -14.8 --- --- 719.7 0.019 0.000 8.6 4 1
02/12/06 11:44 p -8.6 -8.6 -8.7 --- --- 6.1 S 0.10 7.8 -14.0 --- --- 719.8 0.019 0.000 8.6 4 1
02/12/06 11:45 p -8.6 -8.5 -8.6 --- --- 4.3 S 0.07 6.1 -12.8 --- --- 719.7 0.019 0.000 8.6 4 1
02/12/06 11:46 p -8.4 -8.4 -8.4 --- --- 6.1 S 0.10 8.7 -13.8 --- --- 719.7 0.019 0.000 8.6 4 1
02/12/06 11:47 p -8.5 -8.5 -8.6 --- --- 8.7 S 0.14 9.6 -15.1 --- --- 719.8 0.019 0.000 8.6 4 1
02/12/06 11:48 p -8.4 -8.4 -8.5 --- --- 6.1 SSW 0.10 7.8 -13.8 --- --- 719.7 0.019 0.000 8.6 4 1
02/12/06 11:49 p -8.6 -8.6 -8.7 --- --- 6.1 S 0.10 7.0 -14.0 --- --- 719.7 0.019 0.000 8.6 4 1
02/12/06 11:50 p -8.6 -8.6 -8.6 --- --- 7.0 S 0.12 9.6 -14.4 --- --- 719.7 0.019 0.000 8.6 4 1
02/12/06 11:51 p -8.6 -8.4 -8.6 --- --- 6.1 S 0.10 7.0 -13.9 --- --- 719.7 0.019 0.000 8.6 4 1
02/12/06 11:52 p -8.4 -8.4 -8.4 --- --- 6.1 S 0.10 7.8 -13.7 --- --- 719.7 0.019 0.000 8.6 4 1
02/12/06 11:53 p -8.3 -8.3 -8.3 --- --- 6.1 SSW 0.10 7.0 -13.7 --- --- 719.8 0.019 0.000 8.6 4 1
02/12/06 11:54 p -8.3 -8.2 -8.3 --- --- 6.1 S 0.10 8.7 -13.6 --- --- 719.8 0.018 0.000 8.6 4 1
02/12/06 11:55 p -8.2 -8.2 -8.2 --- --- 4.3 SSW 0.07 6.1 -12.3 --- --- 719.7 0.018 0.000 8.6 4 1
02/12/06 11:56 p -8.2 -8.1 -8.2 --- --- 4.3 S 0.07 6.1 -12.3 --- --- 719.7 0.018 0.000 8.6 4 1
02/12/06 11:57 p -8.2 -8.2 -8.3 --- --- 5.2 S 0.09 7.0 -13.0 --- --- 719.7 0.018 0.000 8.6 4 1
02/12/06 11:58 p -8.2 -8.1 -8.3 --- --- 6.1 SSW 0.10 9.6 -13.5 --- --- 719.7 0.018 0.000 8.6 4 1
02/12/06 11:59 p -8.2 -8.2 -8.3 --- --- 7.0 S 0.12 7.8 -14.0 --- --- 719.7 0.018 0.000 8.6 4 1
02/13/06 12:00 a -8.4 -8.3 -8.6 --- --- 8.7 S 0.14 11.3 -15.0 --- --- 719.7 0.019 0.000 8.7 4 1
02/13/06 12:01 a -8.7 -8.7 -8.8 --- --- 8.7 S 0.14 10.4 -15.4 --- --- 719.7 0.019 0.000 8.7 4 1
02/13/06 12:02 a -8.8 -8.8 -8.9 --- --- 7.8 S 0.13 7.8 -15.2 --- --- 719.8 0.019 0.000 8.7 4 1
02/13/06 12:03 a -8.8 -8.8 -8.9 --- --- 8.7 S 0.14 9.6 -15.6 --- --- 719.8 0.019 0.000 8.7 4 1
02/13/06 12:04 a -8.8 -8.8 -8.9 --- --- 8.7 S 0.14 10.4 -15.6 --- --- 719.7 0.019 0.000 8.7 4 1
02/13/06 12:05 a -8.9 -8.8 -8.9 --- --- 7.8 SSE 0.13 9.6 -15.2 --- --- 719.8 0.019 0.000 8.7 4 1
02/13/06 12:06 a -8.8 -8.8 -8.8 --- --- 8.7 S 0.14 10.4 -15.6 --- --- 719.8 0.019 0.000 8.7 4 1
02/13/06 12:07 a -8.9 -8.8 -9.0 --- --- 10.4 S 0.17 12.2 -16.3 --- --- 719.7 0.019 0.000 8.7 4 1
02/13/06 12:08 a -9.0 -9.0 -9.1 --- --- 9.6 SSE 0.16 11.3 -16.1 --- --- 719.6 0.019 0.000 8.7 4 1
02/13/06 12:09 a -9.0 -9.0 -9.1 --- --- 10.4 SSE 0.17 13.0 -16.4 --- --- 719.7 0.019 0.000 8.7 4 1
02/13/06 12:10 a -9.1 -9.1 -9.1 --- --- 9.6 SSE 0.16 11.3 -16.2 --- --- 719.6 0.019 0.000 8.7 4 1
02/13/06 12:11 a -9.1 -9.1 -9.1 --- --- 7.0 SSE 0.12 8.7 -15.1 --- --- 719.7 0.019 0.000 8.7 4 1
02/13/06 12:12 a -8.9 -8.9 -9.1 --- --- 7.0 SSE 0.12 8.7 -14.9 --- --- 719.6 0.019 0.000 8.7 4 1
02/13/06 12:13 a -8.9 -8.8 -8.9 --- --- 8.7 SSE 0.14 9.6 -15.6 --- --- 719.7 0.019 0.000 8.7 4 1
02/13/06 12:14 a -8.8 -8.8 -8.9 --- --- 8.7 SSE 0.14 10.4 -15.6 --- --- 719.7 0.019 0.000 8.7 4 1
02/13/06 12:15 a -8.9 -8.9 -8.9 --- --- 10.4 SSE 0.17 11.3 -16.4 --- --- 719.7 0.019 0.000 8.7 4 1
02/13/06 12:16 a -8.9 -8.9 -8.9 --- --- 9.6 SSE 0.16 11.3 -15.9 --- --- 719.6 0.019 0.000 8.8 4 1
02/13/06 12:17 a -9.0 -8.9 -9.1 --- --- 8.7 SSE 0.14 10.4 -15.8 --- --- 719.7 0.019 0.000 8.7 4 1
02/13/06 12:18 a -9.2 -9.2 -9.2 --- --- 9.6 SSE 0.16 11.3 -16.4 --- --- 719.7 0.019 0.000 8.8 4 1
02/13/06 12:19 a -9.3 -9.2 -9.3 --- --- 7.8 S 0.13 9.6 -15.7 --- --- 719.8 0.019 0.000 8.8 4 1
02/13/06 12:20 a -9.3 -9.3 -9.4 --- --- 7.8 SSE 0.13 10.4 -15.8 --- --- 719.7 0.019 0.000 8.8 4 1
02/13/06 12:21 a -9.3 -9.3 -9.3 --- --- 8.7 SSE 0.14 10.4 -16.2 --- --- 719.6 0.019 0.000 8.8 4 1
02/13/06 12:22 a -9.3 -9.3 -9.4 --- --- 7.8 SSE 0.13 9.6 -15.8 --- --- 719.8 0.019 0.000 8.8 4 1
02/13/06 12:23 a -9.3 -9.3 -9.3 --- --- 7.8 S 0.13 9.6 -15.8 --- --- 719.8 0.019 0.000 8.8 4 1
02/13/06 12:24 a -9.3 -9.2 -9.3 --- --- 9.6 SSE 0.16 11.3 -16.4 --- --- 719.6 0.019 0.000 8.8 4 1
02/13/06 12:25 a -9.3 -9.3 -9.3 --- --- 9.6 S 0.16 10.4 -16.4 --- --- 719.7 0.019 0.000 8.8 4 1
02/13/06 12:26 a -9.3 -9.3 -9.4 --- --- 9.6 S 0.16 11.3 -16.5 --- --- 719.8 0.019 0.000 8.8 4 1
02/13/06 12:27 a -9.4 -9.4 -9.5 --- --- 8.7 SSE 0.14 9.6 -16.3 --- --- 719.7 0.019 0.000 8.8 4 1
02/13/06 12:28 a -9.4 -9.4 -9.5 --- --- 7.0 SSE 0.12 9.6 -15.5 --- --- 719.7 0.019 0.000 8.8 4 1
02/13/06 12:29 a -9.3 -9.3 -9.3 --- --- 6.1 S 0.10 7.8 -14.8 --- --- 719.7 0.019 0.000 8.9 4 1
02/13/06 12:30 a -9.3 -9.3 -9.3 --- --- 7.0 S 0.12 8.7 -15.3 --- --- 719.7 0.019 0.000 8.9 4 1
02/13/06 12:31 a -9.3 -9.3 -9.4 --- --- 5.2 S 0.09 7.8 -14.3 --- --- 719.6 0.019 0.000 8.9 4 1
02/13/06 12:32 a -9.4 -9.4 -9.4 --- --- 7.8 SSE 0.13 11.3 -15.8 --- --- 719.7 0.019 0.000 8.9 4 1
02/13/06 12:33 a -9.3 -9.2 -9.4 --- --- 7.8 SSE 0.13 8.7 -15.8 --- --- 719.7 0.019 0.000 8.9 5 1
02/13/06 12:34 a -9.2 -9.1 -9.2 --- --- 8.7 SSE 0.14 10.4 -15.9 --- --- 719.7 0.019 0.000 8.9 5 1
02/13/06 12:35 a -9.1 -9.0 -9.1 --- --- 7.8 S 0.13 9.6 -15.4 --- --- 719.7 0.019 0.000 8.9 5 1
02/13/06 12:36 a -8.9 -8.9 -8.9 --- --- 6.1 SSE 0.10 7.8 -14.4 --- --- 719.7 0.019 0.000 8.9 5 1
02/13/06 12:37 a -8.9 -8.9 -8.9 --- --- 7.0 SSE 0.12 7.8 -14.8 --- --- 719.8 0.019 0.000 8.9 4 1
02/13/06 12:38 a -8.8 -8.8 -8.9 --- --- 6.1 SE 0.10 8.7 -14.3 --- --- 719.7 0.019 0.000 8.9 4 1
02/13/06 12:39 a -8.8 -8.8 -8.9 --- --- 6.1 ESE 0.10 7.8 -14.3 --- --- 719.7 0.019 0.000 8.9 4 1
02/13/06 12:40 a -9.0 -8.9 -9.1 --- --- 6.1 ESE 0.10 9.6 -14.4 --- --- 719.6 0.019 0.000 8.9 5 1
02/13/06 12:41 a -9.1 -9.1 -9.1 --- --- 5.2 ESE 0.09 7.0 -14.0 --- --- 719.7 0.019 0.000 8.9 4 1
02/13/06 12:42 a -9.1 -9.1 -9.2 --- --- 6.1 ESE 0.10 7.8 -14.6 --- --- 719.7 0.019 0.000 8.9 4 1
02/13/06 12:43 a -9.1 -9.1 -9.2 --- --- 6.1 ESE 0.10 7.8 -14.6 --- --- 719.6 0.019 0.000 8.9 4 1
02/13/06 12:44 a -9.2 -9.2 -9.3 --- --- 7.8 ESE 0.13 8.7 -15.6 --- --- 719.7 0.019 0.000 9.0 4 1
02/13/06 12:45 a -9.4 -9.3 -9.4 --- --- 7.8 ESE 0.13 9.6 -15.8 --- --- 719.7 0.019 0.000 9.0 5 1
02/13/06 12:46 a -9.4 -9.4 -9.5 --- --- 7.8 ESE 0.13 8.7 -15.9 --- --- 719.7 0.019 0.000 9.0 5 1
02/13/06 12:47 a -9.6 -9.5 -9.6 --- --- 7.0 ESE 0.12 7.8 -15.6 --- --- 719.6 0.019 0.000 9.0 5 1
02/13/06 12:48 a -9.5 -9.5 -9.6 --- --- 7.0 ESE 0.12 7.8 -15.6 --- --- 719.7 0.019 0.000 9.0 5 1
02/13/06 12:49 a -9.5 -9.4 -9.5 --- --- 7.0 ESE 0.12 7.8 -15.6 --- --- 719.7 0.019 0.000 9.0 5 1
02/13/06 12:50 a -9.6 -9.6 -9.7 --- --- 7.0 E 0.12 7.8 -15.7 --- --- 719.7 0.019 0.000 9.0 5 1
02/13/06 12:51 a -9.6 -9.6 -9.7 --- --- 6.1 ESE 0.10 7.0 -15.2 --- --- 719.6 0.019 0.000 9.0 5 1
02/13/06 12:52 a -9.7 -9.6 -9.7 --- --- 5.2 E 0.09 7.0 -14.7 --- --- 719.7 0.019 0.000 9.1 4 1
02/13/06 12:53 a -9.6 -9.6 -9.6 --- --- 5.2 E 0.09 7.0 -14.7 --- --- 719.6 0.019 0.000 9.0 5 1
02/13/06 12:54 a -9.7 -9.6 -9.8 --- --- 4.3 E 0.07 7.0 -14.2 --- --- 719.7 0.019 0.000 9.1 4 1
02/13/06 12:55 a -9.8 -9.8 -9.8 --- --- 5.2 E 0.09 7.0 -14.8 --- --- 719.7 0.020 0.000 9.1 5 1
02/13/06 12:56 a -9.8 -9.8 -9.8 --- --- 5.2 E 0.09 8.7 -14.8 --- --- 719.6 0.020 0.000 9.1 5 1
02/13/06 12:57 a -9.8 -9.8 -9.9 --- --- 5.2 E 0.09 7.0 -14.9 --- --- 719.6 0.020 0.000 9.1 5 1
02/13/06 12:58 a -9.9 -9.9 -10.0 --- --- 4.3 E 0.07 7.0 -14.4 --- --- 719.6 0.020 0.000 9.1 5 1
02/13/06 12:59 a -10.1 -10.1 -10.1 --- --- 6.1 E 0.10 7.0 -15.7 --- --- 719.6 0.020 0.000 9.1 5 1
02/13/06 1:00 a -10.1 -10.1 -10.2 --- --- 5.2 E 0.09 7.0 -15.2 --- --- 719.7 0.020 0.000 9.1 5 1
02/13/06 1:01 a -10.2 -10.2 -10.2 --- --- 5.2 E 0.09 7.0 -15.3 --- --- 719.6 0.020 0.000 9.1 5 1
02/13/06 1:02 a -10.2 -10.2 -10.2 --- --- 6.1 E 0.10 7.8 -15.9 --- --- 719.6 0.020 0.000 9.1 5 1
02/13/06 1:03 a -10.2 -10.2 -10.2 --- --- 6.1 E 0.10 8.7 -15.9 --- --- 719.6 0.020 0.000 9.1 5 1
02/13/06 1:04 a -10.2 -10.2 -10.2 --- --- 7.0 E 0.12 7.8 -16.4 --- --- 719.6 0.020 0.000 9.1 5 1
02/13/06 1:05 a -10.2 -10.2 -10.2 --- --- 5.2 E 0.09 7.8 -15.4 --- --- 719.6 0.020 0.000 9.1 5 1
02/13/06 1:06 a -10.2 -10.2 -10.3 --- --- 7.0 E 0.12 8.7 -16.4 --- --- 719.6 0.020 0.000 9.1 5 1
02/13/06 1:07 a -10.3 -10.3 -10.3 --- --- 7.8 ENE 0.13 8.7 -16.9 --- --- 719.6 0.020 0.000 9.1 5 1
02/13/06 1:08 a -10.3 -10.3 -10.3 --- --- 8.7 ENE 0.14 9.6 -17.3 --- --- 719.6 0.020 0.000 9.1 5 1
02/13/06 1:09 a -10.3 -10.2 -10.3 --- --- 7.8 ENE 0.13 9.6 -16.9 --- --- 719.6 0.020 0.000 9.1 5 1
02/13/06 1:10 a -10.2 -10.2 -10.2 --- --- 7.8 ENE 0.13 9.6 -16.9 --- --- 719.6 0.020 0.000 9.1 5 1
02/13/06 1:11 a -10.2 -10.1 -10.2 --- --- 7.8 ENE 0.13 9.6 -16.8 --- --- 719.6 0.020 0.000 9.1 5 1
02/13/06 1:12 a -10.1 -10.1 -10.2 --- --- 8.7 ENE 0.14 9.6 -17.1 --- --- 719.6 0.020 0.000 9.1 5 1
02/13/06 1:13 a -10.1 -10.1 -10.1 --- --- 8.7 ENE 0.14 11.3 -17.1 --- --- 719.5 0.020 0.000 9.1 5 1
02/13/06 1:14 a -10.1 -10.1 -10.2 --- --- 9.6 ENE 0.16 11.3 -17.5 --- --- 719.6 0.020 0.000 9.2 5 1
02/13/06 1:15 a -10.2 -10.2 -10.2 --- --- 9.6 ENE 0.16 11.3 -17.6 --- --- 719.5 0.020 0.000 9.2 5 1
02/13/06 1:16 a -10.2 -10.1 -10.2 --- --- 10.4 ENE 0.17 11.3 -17.8 --- --- 719.5 0.020 0.000 9.2 5 1
02/13/06 1:17 a -10.2 -10.2 -10.2 --- --- 9.6 ENE 0.16 10.4 -17.6 --- --- 719.5 0.020 0.000 9.2 5 1
02/13/06 1:18 a -10.2 -10.1 -10.2 --- --- 7.8 ENE 0.13 9.6 -16.8 --- --- 719.5 0.020 0.000 9.2 5 1
02/13/06 1:19 a -10.1 -10.1 -10.1 --- --- 8.7 ENE 0.14 10.4 -17.1 --- --- 719.5 0.020 0.000 9.2 5 1
02/13/06 1:20 a -10.1 -10.1 -10.1 --- --- 9.6 ENE 0.16 10.4 -17.4 --- --- 719.5 0.020 0.000 9.2 5 1
02/13/06 1:21 a -10.1 -10.0 -10.1 --- --- 9.6 ENE 0.16 10.4 -17.4 --- --- 719.4 0.020 0.000 9.2 5 1
02/13/06 1:22 a -10.1 -10.1 -10.1 --- --- 9.6 ENE 0.16 10.4 -17.4 --- --- 719.5 0.020 0.000 9.2 5 1
02/13/06 1:23 a -10.1 -10.1 -10.1 --- --- 8.7 ENE 0.14 10.4 -17.1 --- --- 719.4 0.020 0.000 9.2 5 1
02/13/06 1:24 a -10.1 -10.1 -10.1 --- --- 9.6 ENE 0.16 12.2 -17.4 --- --- 719.4 0.020 0.000 9.2 5 1
02/13/06 1:25 a -10.1 -10.1 -10.2 --- --- 11.3 ENE 0.19 13.0 -18.1 --- --- 719.5 0.020 0.000 9.2 5 1
02/13/06 1:26 a -10.2 -10.2 -10.2 --- --- 10.4 ENE 0.17 11.3 -17.8 --- --- 719.5 0.020 0.000 9.2 5 1
02/13/06 1:27 a -10.2 -10.2 -10.3 --- --- 9.6 ENE 0.16 11.3 -17.6 --- --- 719.5 0.020 0.000 9.2 5 1
02/13/06 1:28 a -10.2 -10.2 -10.2 --- --- 9.6 ENE 0.16 10.4 -17.6 --- --- 719.5 0.020 0.000 9.2 5 1
02/13/06 1:29 a -10.2 -10.2 -10.2 --- --- 9.6 ENE 0.16 9.6 -17.6 --- --- 719.5 0.020 0.000 9.2 5 1
02/13/06 1:30 a -10.2 -10.2 -10.2 --- --- 9.6 ENE 0.16 10.4 -17.6 --- --- 719.4 0.020 0.000 9.2 5 1
02/13/06 1:31 a -10.2 -10.2 -10.2 --- --- 10.4 ENE 0.17 11.3 -17.9 --- --- 719.5 0.020 0.000 9.2 5 1
02/13/06 1:32 a -10.2 -10.2 -10.2 --- --- 9.6 ENE 0.16 11.3 -17.6 --- --- 719.5 0.020 0.000 9.2 5 1
02/13/06 1:33 a -10.2 -10.2 -10.2 --- --- 10.4 NE 0.17 13.0 -17.9 --- --- 719.4 0.020 0.000 9.2 5 1
02/13/06 1:34 a -10.2 -10.2 -10.3 --- --- 10.4 NE 0.17 12.2 -17.9 --- --- 719.5 0.020 0.000 9.2 5 1
02/13/06 1:35 a -10.2 -10.2 -10.3 --- --- 8.7 ENE 0.14 9.6 -17.3 --- --- 719.5 0.020 0.000 9.2 5 1
02/13/06 1:36 a -10.2 -10.2 -10.2 --- --- 10.4 NE 0.17 13.0 -17.8 --- --- 719.4 0.020 0.000 9.2 5 1
02/13/06 1:37 a -10.2 -10.2 -10.2 --- --- 10.4 NE 0.17 12.2 -17.9 --- --- 719.4 0.020 0.000 9.2 5 1
02/13/06 1:38 a -10.2 -10.2 -10.3 --- --- 9.6 NE 0.16 11.3 -17.6 --- --- 719.5 0.020 0.000 9.2 5 1
02/13/06 1:39 a -10.3 -10.2 -10.3 --- --- 8.7 NE 0.14 11.3 -17.3 --- --- 719.5 0.020 0.000 9.3 5 1
02/13/06 1:40 a -10.3 -10.2 -10.3 --- --- 8.7 NE 0.14 10.4 -17.3 --- --- 719.4 0.020 0.000 9.3 5 1
02/13/06 1:41 a -10.3 -10.3 -10.3 --- --- 8.7 NE 0.14 10.4 -17.3 --- --- 719.5 0.020 0.000 9.3 5 1
02/13/06 1:42 a -10.3 -10.3 -10.3 --- --- 9.6 NE 0.16 10.4 -17.7 --- --- 719.5 0.020 0.000 9.3 5 1
02/13/06 1:43 a -10.3 -10.3 -10.4 --- --- 10.4 NE 0.17 12.2 -18.0 --- --- 719.4 0.020 0.000 9.3 5 1
02/13/06 1:44 a -10.4 -10.4 -10.4 --- --- 11.3 ENE 0.19 13.9 -18.4 --- --- 719.4 0.020 0.000 9.3 5 1
02/13/06 1:45 a -10.4 -10.4 -10.4 --- --- 11.3 NE 0.19 13.0 -18.4 --- --- 719.4 0.020 0.000 9.3 5 1
02/13/06 1:46 a -10.4 -10.4 -10.4 --- --- 10.4 NE 0.17 11.3 -18.2 --- --- 719.4 0.020 0.000 9.3 5 1
02/13/06 1:47 a -10.4 -10.4 -10.5 --- --- 10.4 NE 0.17 13.0 -18.2 --- --- 719.3 0.020 0.000 9.3 5 1
02/13/06 1:48 a -10.4 -10.4 -10.4 --- --- 11.3 NE 0.19 13.0 -18.5 --- --- 719.4 0.020 0.000 9.3 5 1
02/13/06 1:49 a -10.4 -10.3 -10.4 --- --- 10.4 ENE 0.17 13.0 -18.1 --- --- 719.4 0.020 0.000 9.3 5 1
02/13/06 1:50 a -10.4 -10.3 -10.4 --- --- 9.6 NE 0.16 11.3 -17.8 --- --- 719.3 0.020 0.000 9.3 5 1
02/13/06 1:51 a -10.4 -10.4 -10.4 --- --- 11.3 NE 0.19 12.2 -18.4 --- --- 719.4 0.020 0.000 9.3 5 1
02/13/06 1:52 a -10.4 -10.4 -10.4 --- --- 10.4 NE 0.17 12.2 -18.1 --- --- 719.4 0.020 0.000 9.3 5 1
02/13/06 1:53 a -10.4 -10.4 -10.4 --- --- 11.3 NE 0.19 13.0 -18.4 --- --- 719.3 0.020 0.000 9.3 5 1
02/13/06 1:54 a -10.4 -10.4 -10.4 --- --- 9.6 NE 0.16 13.0 -17.8 --- --- 719.3 0.020 0.000 9.3 5 1
02/13/06 1:55 a -10.4 -10.4 -10.4 --- --- 12.2 NE 0.20 14.8 -18.8 --- --- 719.3 0.020 0.000 9.3 5 1
02/13/06 1:56 a -10.4 -10.4 -10.4 --- --- 12.2 NE 0.20 13.9 -18.8 --- --- 719.3 0.020 0.000 9.3 5 1
02/13/06 1:57 a -10.4 -10.4 -10.5 --- --- 13.9 NE 0.23 17.4 -19.4 --- --- 719.3 0.020 0.000 9.3 5 1
02/13/06 1:58 a -10.6 -10.6 -10.7 --- --- 14.8 NE 0.25 16.5 -19.8 --- --- 719.3 0.020 0.000 9.3 5 1
02/13/06 1:59 a -10.7 -10.7 -10.7 --- --- 14.8 NE 0.25 16.5 -19.9 --- --- 719.3 0.020 0.000 9.4 5 1
02/13/06 2:00 a -10.8 -10.8 -10.8 --- --- 14.8 NE 0.25 17.4 -20.1 --- --- 719.2 0.020 0.000 9.4 5 1
02/13/06 2:01 a -10.9 -10.8 -10.9 --- --- 15.7 NE 0.26 18.3 -20.4 --- --- 719.2 0.020 0.000 9.4 5 1
02/13/06 2:02 a -10.9 -10.9 -10.9 --- --- 14.8 NE 0.25 17.4 -20.2 --- --- 719.3 0.020 0.000 9.4 5 1
02/13/06 2:03 a -10.9 -10.9 -10.9 --- --- 15.7 NE 0.26 18.3 -20.5 --- --- 719.2 0.020 0.000 9.4 5 1
02/13/06 2:04 a -11.0 -10.9 -11.1 --- --- 14.8 NE 0.25 17.4 -20.3 --- --- 719.3 0.020 0.000 9.4 5 1
02/13/06 2:05 a -11.1 -11.1 -11.1 --- --- 16.5 NE 0.28 18.3 -20.9 --- --- 719.2 0.020 0.000 9.4 5 1
02/13/06 2:06 a -11.1 -11.1 -11.1 --- --- 15.7 NE 0.26 18.3 -20.7 --- --- 719.3 0.020 0.000 9.4 5 1
02/13/06 2:07 a -11.1 -11.1 -11.1 --- --- 15.7 NE 0.26 16.5 -20.7 --- --- 719.2 0.020 0.000 9.4 5 1
02/13/06 2:08 a -11.1 -11.1 -11.1 --- --- 16.5 NE 0.28 18.3 -20.9 --- --- 719.2 0.020 0.000 9.4 5 1
02/13/06 2:09 a -11.2 -11.1 -11.2 --- --- 16.5 NE 0.28 18.3 -21.1 --- --- 719.2 0.020 0.000 9.4 5 1
02/13/06 2:10 a -11.2 -11.1 -11.2 --- --- 17.4 NE 0.29 20.0 -21.3 --- --- 719.2 0.020 0.000 9.4 5 1
02/13/06 2:11 a -11.2 -11.1 -11.2 --- --- 17.4 NE 0.29 19.1 -21.3 --- --- 719.2 0.020 0.000 9.4 5 1
02/13/06 2:12 a -11.2 -11.2 -11.2 --- --- 19.1 NE 0.32 20.9 -21.7 --- --- 719.0 0.020 0.000 9.4 5 1
02/13/06 2:13 a -11.2 -11.2 -11.2 --- --- 18.3 NE 0.30 20.0 -21.5 --- --- 719.0 0.020 0.000 9.4 5 1
02/13/06 2:14 a -11.1 -11.1 -11.2 --- --- 18.3 NE 0.30 19.1 -21.4 --- --- 719.1 0.020 0.000 9.4 5 1
02/13/06 2:15 a -11.1 -11.1 -11.2 --- --- 17.4 NE 0.29 19.1 -21.2 --- --- 719.1 0.020 0.000 9.4 5 1
02/13/06 2:16 a -11.2 -11.1 -11.2 --- --- 18.3 NE 0.30 20.0 -21.5 --- --- 719.1 0.020 0.000 9.4 5 1
02/13/06 2:17 a -11.1 -11.1 -11.2 --- --- 16.5 NE 0.28 18.3 -20.9 --- --- 719.2 0.020 0.000 9.4 5 1
02/13/06 2:18 a -11.1 -11.1 -11.1 --- --- 17.4 NE 0.29 19.1 -21.1 --- --- 719.0 0.020 0.000 9.4 5 1
02/13/06 2:19 a -11.1 -11.1 -11.1 --- --- 15.7 NE 0.26 18.3 -20.7 --- --- 719.1 0.020 0.000 9.4 5 1
02/13/06 2:20 a -11.0 -11.0 -11.1 --- --- 15.7 NE 0.26 18.3 -20.6 --- --- 719.0 0.020 0.000 9.4 5 1
02/13/06 2:21 a -11.0 -10.9 -11.0 --- --- 18.3 NE 0.30 20.9 -21.3 --- --- 719.2 0.020 0.000 9.4 5 1
02/13/06 2:22 a -11.1 -11.0 -11.1 --- --- 17.4 NE 0.29 19.1 -21.1 --- --- 719.0 0.020 0.000 9.4 5 1
02/13/06 2:23 a -11.1 -11.1 -11.1 --- --- 16.5 NE 0.28 18.3 -20.9 --- --- 719.1 0.020 0.000 9.4 5 1
02/13/06 2:24 a -11.1 -11.1 -11.1 --- --- 13.9 NE 0.23 16.5 -20.2 --- --- 719.0 0.020 0.000 9.4 5 1
02/13/06 2:25 a -11.0 -11.0 -11.1 --- --- 16.5 NE 0.28 20.0 -20.8 --- --- 719.0 0.020 0.000 9.5 5 1
02/13/06 2:26 a -11.1 -11.0 -11.1 --- --- 19.1 NE 0.32 21.7 -21.6 --- --- 718.9 0.020 0.000 9.5 5 1
02/13/06 2:27 a -11.0 -11.0 -11.1 --- --- 18.3 NE 0.30 20.0 -21.3 --- --- 719.0 0.020 0.000 9.5 5 1
02/13/06 2:28 a -11.0 -10.9 -11.0 --- --- 16.5 NE 0.28 20.0 -20.8 --- --- 719.0 0.020 0.000 9.5 5 1
02/13/06 2:29 a -10.9 -10.9 -10.9 --- --- 19.1 ENE 0.32 21.7 -21.4 --- --- 718.9 0.020 0.000 9.5 5 1
02/13/06 2:30 a -10.9 -10.8 -10.9 --- --- 20.0 ENE 0.33 21.7 -21.5 --- --- 719.1 0.020 0.000 9.4 5 1
02/13/06 2:31 a -10.9 -10.9 -10.9 --- --- 17.4 ENE 0.29 20.0 -20.9 --- --- 718.9 0.020 0.000 9.5 5 1
02/13/06 2:32 a -10.9 -10.9 -10.9 --- --- 19.1 ENE 0.32 21.7 -21.3 --- --- 718.9 0.020 0.000 9.5 5 1
02/13/06 2:33 a -10.9 -10.9 -10.9 --- --- 17.4 NE 0.29 20.0 -20.9 --- --- 718.9 0.020 0.000 9.5 5 1
02/13/06 2:34 a -10.9 -10.9 -10.9 --- --- 19.1 NE 0.32 21.7 -21.3 --- --- 718.9 0.020 0.000 9.5 5 1
02/13/06 2:35 a -10.9 -10.9 -10.9 --- --- 20.9 NE 0.35 24.3 -21.7 --- --- 718.9 0.020 0.000 9.5 5 1
02/13/06 2:36 a -10.9 -10.8 -10.9 --- --- 16.5 ENE 0.28 19.1 -20.7 --- --- 719.0 0.020 0.000 9.5 5 1
02/13/06 2:37 a -10.8 -10.8 -10.9 --- --- 17.4 NE 0.29 19.1 -20.8 --- --- 718.9 0.020 0.000 9.5 5 1
02/13/06 2:38 a -10.9 -10.8 -10.9 --- --- 18.3 NE 0.30 22.6 -21.1 --- --- 718.9 0.020 0.000 9.5 5 1
02/13/06 2:39 a -10.9 -10.8 -10.9 --- --- 19.1 NE 0.32 24.3 -21.3 --- --- 718.8 0.020 0.000 9.5 5 1
02/13/06 2:40 a -10.8 -10.8 -10.8 --- --- 17.4 ENE 0.29 20.0 -20.8 --- --- 719.0 0.020 0.000 9.5 5 1
02/13/06 2:41 a -10.8 -10.7 -10.8 --- --- 15.7 NE 0.26 18.3 -20.3 --- --- 719.0 0.020 0.000 9.5 5 1
02/13/06 2:42 a -10.7 -10.7 -10.7 --- --- 16.5 ENE 0.28 20.9 -20.4 --- --- 718.9 0.020 0.000 9.6 5 1
02/13/06 2:43 a -10.7 -10.7 -10.7 --- --- 20.9 NE 0.35 21.7 -21.5 --- --- 718.9 0.020 0.000 9.6 5 1
02/13/06 2:44 a -10.7 -10.7 -10.7 --- --- 19.1 NE 0.32 21.7 -21.1 --- --- 718.9 0.020 0.000 9.5 5 1
02/13/06 2:45 a -10.7 -10.7 -10.7 --- --- 20.0 NE 0.33 21.7 -21.3 --- --- 719.0 0.020 0.000 9.5 5 1
02/13/06 2:46 a -10.7 -10.7 -10.7 --- --- 20.0 NE 0.33 21.7 -21.3 --- --- 719.0 0.020 0.000 9.5 5 1
02/13/06 2:47 a -10.7 -10.7 -10.7 --- --- 19.1 NE 0.32 22.6 -21.1 --- --- 718.9 0.020 0.000 9.6 5 1
02/13/06 2:48 a -10.7 -10.7 -10.7 --- --- 20.9 ENE 0.35 24.3 -21.4 --- --- 718.9 0.020 0.000 9.5 5 1
02/13/06 2:49 a -10.7 -10.7 -10.7 --- --- 19.1 ENE 0.32 21.7 -21.1 --- --- 718.9 0.020 0.000 9.5 5 1
02/13/06 2:50 a -10.7 -10.6 -10.7 --- --- 19.1 ENE 0.32 21.7 -21.1 --- --- 718.9 0.020 0.000 9.6 5 1
02/13/06 2:51 a -10.6 -10.6 -10.7 --- --- 19.1 ENE 0.32 20.9 -20.9 --- --- 718.9 0.020 0.000 9.5 5 1
02/13/06 2:52 a -10.6 -10.6 -10.7 --- --- 20.0 ENE 0.33 22.6 -21.2 --- --- 719.0 0.020 0.000 9.5 5 1
02/13/06 2:53 a -10.6 -10.6 -10.7 --- --- 19.1 ENE 0.32 23.5 -20.9 --- --- 718.9 0.020 0.000 9.6 5 1
02/13/06 2:54 a -10.6 -10.6 -10.7 --- --- 18.3 ENE 0.30 21.7 -20.8 --- --- 719.0 0.020 0.000 9.6 5 1
02/13/06 2:55 a -10.6 -10.6 -10.7 --- --- 19.1 ENE 0.32 20.9 -20.9 --- --- 719.0 0.020 0.000 9.5 5 1
02/13/06 2:56 a -10.6 -10.6 -10.6 --- --- 18.3 ENE 0.30 21.7 -20.8 --- --- 719.1 0.020 0.000 9.6 5 1
02/13/06 2:57 a -10.6 -10.6 -10.6 --- --- 19.1 ENE 0.32 21.7 -20.9 --- --- 718.9 0.020 0.000 9.6 5 1
02/13/06 2:58 a -10.6 -10.6 -10.6 --- --- 20.0 NE 0.33 21.7 -21.2 --- --- 718.9 0.020 0.000 9.6 5 1
02/13/06 2:59 a -10.6 -10.6 -10.6 --- --- 17.4 NE 0.29 20.0 -20.6 --- --- 719.0 0.020 0.000 9.6 5 1
02/13/06 3:00 a -10.6 -10.6 -10.6 --- --- 20.0 ENE 0.33 23.5 -21.1 --- --- 718.9 0.020 0.000 9.6 5 1
02/13/06 3:01 a -10.6 -10.5 -10.6 --- --- 15.7 ENE 0.26 18.3 -20.0 --- --- 719.1 0.020 0.000 9.6 5 1
02/13/06 3:02 a -10.5 -10.4 -10.5 --- --- 15.7 E 0.26 20.9 -19.9 --- --- 719.0 0.020 0.000 9.6 5 1
02/13/06 3:03 a -10.5 -10.4 -10.5 --- --- 19.1 ENE 0.32 20.9 -20.8 --- --- 718.9 0.020 0.000 9.5 5 1
02/13/06 3:04 a -10.6 -10.5 -10.6 --- --- 16.5 ENE 0.28 19.1 -20.2 --- --- 718.8 0.020 0.000 9.5 5 1
02/13/06 3:05 a -10.5 -10.5 -10.6 --- --- 19.1 ENE 0.32 20.9 -20.8 --- --- 718.9 0.020 0.000 9.6 5 1
02/13/06 3:06 a -10.6 -10.6 -10.6 --- --- 19.1 ENE 0.32 21.7 -20.9 --- --- 718.8 0.020 0.000 9.6 5 1
02/13/06 3:07 a -10.6 -10.5 -10.6 --- --- 20.9 ENE 0.35 21.7 -21.3 --- --- 718.9 0.020 0.000 9.6 5 1
02/13/06 3:08 a -10.6 -10.6 -10.6 --- --- 20.9 ENE 0.35 21.7 -21.3 --- --- 718.9 0.020 0.000 9.6 5 1
02/13/06 3:09 a -10.6 -10.6 -10.6 --- --- 20.0 ENE 0.33 21.7 -21.2 --- --- 718.9 0.020 0.000 9.6 5 1
02/13/06 3:10 a -10.6 -10.6 -10.6 --- --- 20.0 ENE 0.33 21.7 -21.2 --- --- 719.0 0.020 0.000 9.6 5 1
02/13/06 3:11 a -10.6 -10.5 -10.6 --- --- 18.3 ENE 0.30 20.0 -20.7 --- --- 719.0 0.020 0.000 9.6 5 1
02/13/06 3:12 a -10.5 -10.5 -10.5 --- --- 16.5 ENE 0.28 19.1 -20.2 --- --- 719.1 0.020 0.000 9.6 5 1
02/13/06 3:13 a -10.5 -10.4 -10.5 --- --- 17.4 ENE 0.29 20.0 -20.4 --- --- 719.0 0.020 0.000 9.6 5 1
02/13/06 3:14 a -10.4 -10.4 -10.4 --- --- 15.7 ENE 0.26 20.9 -19.8 --- --- 719.0 0.020 0.000 9.6 5 1
02/13/06 3:15 a -10.4 -10.4 -10.5 --- --- 20.0 ENE 0.33 23.5 -20.9 --- --- 718.9 0.020 0.000 9.6 5 1
02/13/06 3:16 a -10.5 -10.5 -10.5 --- --- 20.9 ENE 0.35 22.6 -21.2 --- --- 718.9 0.020 0.000 9.6 5 1
02/13/06 3:17 a -10.5 -10.5 -10.5 --- --- 19.1 ENE 0.32 21.7 -20.8 --- --- 719.1 0.020 0.000 9.6 5 1
02/13/06 3:18 a -10.5 -10.5 -10.5 --- --- 22.6 ENE 0.38 26.1 -21.6 --- --- 719.0 0.020 0.000 9.6 5 1
02/13/06 3:19 a -10.5 -10.5 -10.5 --- --- 19.1 ENE 0.32 23.5 -20.8 --- --- 719.1 0.020 0.000 9.6 5 1
02/13/06 3:20 a -10.4 -10.4 -10.4 --- --- 19.1 NE 0.32 20.9 -20.7 --- --- 719.1 0.020 0.000 9.6 5 1
02/13/06 3:21 a -10.4 -10.4 -10.5 --- --- 17.4 NE 0.29 19.1 -20.3 --- --- 719.1 0.020 0.000 9.6 5 1
02/13/06 3:22 a -10.4 -10.4 -10.4 --- --- 18.3 ENE 0.30 20.0 -20.6 --- --- 719.2 0.020 0.000 9.6 5 1
02/13/06 3:23 a -10.4 -10.4 -10.4 --- --- 19.1 ENE 0.32 23.5 -20.7 --- --- 719.1 0.020 0.000 9.6 5 1
02/13/06 3:24 a -10.4 -10.4 -10.4 --- --- 18.3 E 0.30 22.6 -20.4 --- --- 719.1 0.020 0.000 9.6 5 1
02/13/06 3:25 a -10.4 -10.4 -10.4 --- --- 17.4 ENE 0.29 20.0 -20.3 --- --- 719.2 0.020 0.000 9.6 5 1
02/13/06 3:26 a -10.4 -10.4 -10.4 --- --- 16.5 E 0.28 18.3 -20.1 --- --- 719.3 0.020 0.000 9.6 5 1
02/13/06 3:27 a -10.4 -10.4 -10.4 --- --- 14.8 ENE 0.25 18.3 -19.6 --- --- 719.3 0.020 0.000 9.6 5 1
02/13/06 3:28 a -10.4 -10.3 -10.4 --- --- 16.5 ENE 0.28 20.9 -20.1 --- --- 719.1 0.020 0.000 9.6 5 1
02/13/06 3:29 a -10.4 -10.4 -10.4 --- --- 18.3 ENE 0.30 20.9 -20.4 --- --- 719.1 0.020 0.000 9.6 5 1
02/13/06 3:30 a -10.4 -10.4 -10.4 --- --- 18.3 ENE 0.30 20.9 -20.4 --- --- 719.2 0.020 0.000 9.6 5 1
02/13/06 3:31 a -10.4 -10.4 -10.5 --- --- 19.1 ENE 0.32 21.7 -20.7 --- --- 719.2 0.020 0.000 9.6 5 1
02/13/06 3:32 a -10.4 -10.4 -10.5 --- --- 18.3 ENE 0.30 23.5 -20.6 --- --- 719.1 0.020 0.000 9.6 5 1
02/13/06 3:33 a -10.4 -10.4 -10.4 --- --- 16.5 ENE 0.28 19.1 -20.1 --- --- 719.2 0.020 0.000 9.7 5 1
02/13/06 3:34 a -10.4 -10.4 -10.5 --- --- 14.8 NE 0.25 18.3 -19.6 --- --- 719.2 0.020 0.000 9.6 5 1
02/13/06 3:35 a -10.4 -10.4 -10.4 --- --- 13.9 ENE 0.23 17.4 -19.4 --- --- 719.3 0.020 0.000 9.6 5 1
02/13/06 3:36 a -10.4 -10.3 -10.4 --- --- 16.5 ENE 0.28 18.3 -20.1 --- --- 719.3 0.020 0.000 9.6 5 1
02/13/06 3:37 a -10.4 -10.3 -10.4 --- --- 16.5 ENE 0.28 22.6 -20.1 --- --- 719.2 0.020 0.000 9.7 5 1
02/13/06 3:38 a -10.4 -10.4 -10.4 --- --- 15.7 E 0.26 20.9 -19.8 --- --- 719.2 0.020 0.000 9.7 5 1
02/13/06 3:39 a -10.4 -10.4 -10.4 --- --- 16.5 E 0.28 19.1 -20.1 --- --- 719.2 0.020 0.000 9.7 5 1
02/13/06 3:40 a -10.4 -10.4 -10.5 --- --- 15.7 E 0.26 19.1 -19.9 --- --- 719.3 0.020 0.000 9.7 5 1
02/13/06 3:41 a -10.4 -10.4 -10.5 --- --- 14.8 E 0.25 18.3 -19.6 --- --- 719.3 0.020 0.000 9.7 5 1
02/13/06 3:42 a -10.5 -10.4 -10.5 --- --- 15.7 E 0.26 20.0 -19.9 --- --- 719.3 0.020 0.000 9.7 5 1
02/13/06 3:43 a -10.5 -10.4 -10.5 --- --- 16.5 E 0.28 20.9 -20.2 --- --- 719.3 0.020 0.000 9.7 5 1
02/13/06 3:44 a -10.5 -10.5 -10.5 --- --- 15.7 E 0.26 19.1 -19.9 --- --- 719.2 0.020 0.000 9.7 5 1
02/13/06 3:45 a -10.6 -10.6 -10.6 --- --- 14.8 E 0.25 19.1 -19.8 --- --- 719.3 0.020 0.000 9.7 5 1
02/13/06 3:46 a -10.6 -10.6 -10.6 --- --- 18.3 E 0.30 23.5 -20.7 --- --- 719.3 0.020 0.000 9.7 5 1
02/13/06 3:47 a -10.6 -10.6 -10.6 --- --- 18.3 E 0.30 21.7 -20.7 --- --- 719.3 0.020 0.000 9.6 5 1
02/13/06 3:48 a -10.6 -10.6 -10.6 --- --- 16.5 ENE 0.28 21.7 -20.2 --- --- 719.3 0.020 0.000 9.7 5 1
02/13/06 3:49 a -10.6 -10.6 -10.6 --- --- 13.9 ENE 0.23 20.0 -19.5 --- --- 719.4 0.020 0.000 9.7 5 1
02/13/06 3:50 a -10.5 -10.4 -10.6 --- --- 13.9 ENE 0.23 18.3 -19.4 --- --- 719.4 0.020 0.000 9.6 5 1
02/13/06 3:51 a -10.5 -10.5 -10.5 --- --- 14.8 E 0.25 17.4 -19.7 --- --- 719.4 0.020 0.000 9.7 5 1
02/13/06 3:52 a -10.5 -10.5 -10.5 --- --- 13.0 E 0.22 15.7 -19.2 --- --- 719.4 0.020 0.000 9.7 5 1
02/13/06 3:53 a -10.5 -10.4 -10.6 --- --- 13.0 E 0.22 15.7 -19.2 --- --- 719.5 0.020 0.000 9.7 5 1
02/13/06 3:54 a -10.6 -10.6 -10.6 --- --- 13.9 E 0.23 18.3 -19.6 --- --- 719.6 0.020 0.000 9.7 5 1
02/13/06 3:55 a -10.6 -10.6 -10.7 --- --- 13.0 ESE 0.22 16.5 -19.3 --- --- 719.5 0.020 0.000 9.7 5 1
02/13/06 3:56 a -10.6 -10.6 -10.6 --- --- 10.4 E 0.17 13.0 -18.4 --- --- 719.4 0.020 0.000 9.7 5 1
02/13/06 3:57 a -10.6 -10.6 -10.7 --- --- 14.8 E 0.25 17.4 -19.8 --- --- 719.4 0.020 0.000 9.7 5 1
02/13/06 3:58 a -10.7 -10.6 -10.7 --- --- 15.7 ESE 0.26 19.1 -20.2 --- --- 719.4 0.020 0.000 9.7 5 1
02/13/06 3:59 a -10.7 -10.7 -10.8 --- --- 19.1 E 0.32 21.7 -21.1 --- --- 719.5 0.020 0.000 9.7 5 1
02/13/06 4:00 a -10.8 -10.7 -10.8 --- --- 18.3 E 0.30 21.7 -20.9 --- --- 719.5 0.020 0.000 9.7 5 1
02/13/06 4:01 a -10.8 -10.8 -10.8 --- --- 17.4 ENE 0.29 21.7 -20.8 --- --- 719.6 0.020 0.000 9.7 5 1
02/13/06 4:02 a -10.8 -10.7 -10.8 --- --- 13.0 ENE 0.22 15.7 -19.6 --- --- 719.4 0.020 0.000 9.7 5 1
02/13/06 4:03 a -10.7 -10.7 -10.7 --- --- 13.0 E 0.22 17.4 -19.4 --- --- 719.4 0.020 0.000 9.7 5 1
02/13/06 4:04 a -10.7 -10.7 -10.8 --- --- 13.9 E 0.23 20.0 -19.7 --- --- 719.6 0.020 0.000 9.7 5 1
02/13/06 4:05 a -10.7 -10.7 -10.8 --- --- 11.3 E 0.19 23.5 -18.9 --- --- 719.6 0.020 0.000 9.7 5 1
02/13/06 4:06 a -10.7 -10.7 -10.7 --- --- 16.5 ESE 0.28 19.1 -20.4 --- --- 719.4 0.020 0.000 9.7 5 1
02/13/06 4:07 a -10.7 -10.7 -10.8 --- --- 17.4 ESE 0.29 21.7 -20.7 --- --- 719.4 0.020 0.000 9.7 5 1
02/13/06 4:08 a -10.7 -10.7 -10.7 --- --- 18.3 ESE 0.30 20.9 -20.9 --- --- 719.4 0.020 0.000 9.7 5 1
02/13/06 4:09 a -10.7 -10.7 -10.8 --- --- 19.1 SE 0.32 22.6 -21.1 --- --- 719.4 0.020 0.000 9.7 5 1
02/13/06 4:10 a -10.7 -10.7 -10.8 --- --- 20.0 SE 0.33 24.3 -21.3 --- --- 719.4 0.020 0.000 9.7 5 1
02/13/06 4:11 a -10.7 -10.7 -10.8 --- --- 21.7 SE 0.36 26.1 -21.7 --- --- 719.5 0.020 0.000 9.7 5 1
02/13/06 4:12 a -10.8 -10.7 -10.8 --- --- 18.3 SE 0.30 20.9 -20.9 --- --- 719.3 0.020 0.000 9.7 5 1
02/13/06 4:13 a -10.8 -10.8 -10.8 --- --- 20.9 SE 0.35 24.3 -21.6 --- --- 719.3 0.020 0.000 9.7 5 1
02/13/06 4:14 a -10.9 -10.9 -10.9 --- --- 16.5 SE 0.28 27.0 -20.7 --- --- 719.3 0.020 0.000 9.7 5 1
02/13/06 4:15 a -10.9 -10.9 -10.9 --- --- 23.5 SE 0.39 25.2 -22.2 --- --- 719.2 0.020 0.000 9.7 5 1
02/13/06 4:16 a -10.9 -10.9 -11.0 --- --- 18.3 SSE 0.30 25.2 -21.2 --- --- 719.5 0.020 0.000 9.7 5 1
02/13/06 4:17 a -10.9 -10.9 -10.9 --- --- 16.5 SE 0.28 20.0 -20.8 --- --- 719.5 0.020 0.000 9.7 5 1
02/13/06 4:18 a -10.9 -10.9 -10.9 --- --- 17.4 SE 0.29 19.1 -20.9 --- --- 719.3 0.020 0.000 9.7 5 1
02/13/06 4:19 a -10.9 -10.9 -11.0 --- --- 23.5 SE 0.39 27.0 -22.3 --- --- 719.3 0.020 0.000 9.7 5 1
02/13/06 4:20 a -11.1 -10.9 -11.1 --- --- 18.3 SSE 0.30 22.6 -21.3 --- --- 719.5 0.020 0.000 9.7 5 1
02/13/06 4:21 a -11.0 -10.9 -11.0 --- --- 15.7 SE 0.26 17.4 -20.6 --- --- 719.5 0.020 0.000 9.7 5 1
02/13/06 4:22 a -10.9 -10.9 -10.9 --- --- 16.5 SE 0.28 17.4 -20.8 --- --- 719.4 0.020 0.000 9.7 5 1
02/13/06 4:23 a -10.9 -10.9 -10.9 --- --- 17.4 SE 0.29 20.0 -20.9 --- --- 719.4 0.020 0.000 9.7 5 1
02/13/06 4:24 a -10.9 -10.9 -10.9 --- --- 18.3 SSE 0.30 22.6 -21.1 --- --- 719.4 0.020 0.000 9.7 5 1
02/13/06 4:25 a -10.9 -10.9 -10.9 --- --- 16.5 SSE 0.28 18.3 -20.8 --- --- 719.4 0.020 0.000 9.8 5 1
02/13/06 4:26 a -10.9 -10.9 -10.9 --- --- 14.8 SSE 0.25 19.1 -20.2 --- --- 719.5 0.020 0.000 9.8 5 1
02/13/06 4:27 a -10.8 -10.8 -10.9 --- --- 14.8 SSE 0.25 15.7 -20.1 --- --- 719.6 0.020 0.000 9.7 5 1
02/13/06 4:28 a -10.8 -10.8 -10.8 --- --- 13.0 SSE 0.22 14.8 -19.6 --- --- 719.6 0.020 0.000 9.8 5 1
02/13/06 4:29 a -10.8 -10.8 -10.8 --- --- 11.3 SSE 0.19 13.9 -18.9 --- --- 719.5 0.020 0.000 9.8 5 1
02/13/06 4:30 a -10.8 -10.7 -10.8 --- --- 12.2 SE 0.20 13.9 -19.2 --- --- 719.5 0.020 0.000 9.8 5 1
02/13/06 4:31 a -10.7 -10.7 -10.7 --- --- 13.0 ESE 0.22 14.8 -19.4 --- --- 719.5 0.020 0.000 9.8 5 1
02/13/06 4:32 a -10.7 -10.6 -10.7 --- --- 13.0 ESE 0.22 15.7 -19.4 --- --- 719.5 0.020 0.000 9.8 5 1
02/13/06 4:33 a -10.7 -10.7 -10.7 --- --- 12.2 ESE 0.20 13.9 -19.2 --- --- 719.4 0.020 0.000 9.7 5 1
02/13/06 4:34 a -10.7 -10.7 -10.7 --- --- 13.0 E 0.22 15.7 -19.4 --- --- 719.5 0.020 0.000 9.7 5 1
02/13/06 4:35 a -10.7 -10.7 -10.7 --- --- 11.3 E 0.19 14.8 -18.8 --- --- 719.6 0.020 0.000 9.8 5 1
02/13/06 4:36 a -10.6 -10.6 -10.7 --- --- 7.0 ESE 0.12 10.4 -16.9 --- --- 719.6 0.020 0.000 9.7 5 1
02/13/06 4:37 a -10.6 -10.5 -10.6 --- --- 10.4 ESE 0.17 16.5 -18.3 --- --- 719.5 0.020 0.000 9.7 5 1
02/13/06 4:38 a -10.6 -10.5 -10.6 --- --- 13.9 ESE 0.23 17.4 -19.5 --- --- 719.6 0.020 0.000 9.8 5 1
02/13/06 4:39 a -10.5 -10.4 -10.6 --- --- 7.0 SE 0.12 11.3 -16.8 --- --- 719.6 0.020 0.000 9.8 5 1
02/13/06 4:40 a -10.3 -10.3 -10.4 --- --- 8.7 ESE 0.14 12.2 -17.4 --- --- 719.5 0.020 0.000 9.8 5 1
02/13/06 4:41 a -10.3 -10.3 -10.3 --- --- 11.3 ESE 0.19 15.7 -18.3 --- --- 719.5 0.020 0.000 9.8 5 1
02/13/06 4:42 a -10.3 -10.2 -10.3 --- --- 9.6 SE 0.16 11.3 -17.7 --- --- 719.6 0.020 0.000 9.8 5 1
02/13/06 4:43 a -10.2 -10.2 -10.2 --- --- 8.7 ESE 0.14 12.2 -17.3 --- --- 719.6 0.020 0.000 9.8 5 1
02/13/06 4:44 a -10.2 -10.1 -10.2 --- --- 11.3 SE 0.19 13.9 -18.2 --- --- 719.4 0.020 0.000 9.8 5 1
02/13/06 4:45 a -10.1 -10.1 -10.1 --- --- 13.9 SE 0.23 19.1 -18.9 --- --- 719.5 0.020 0.000 9.8 5 1
02/13/06 4:46 a -10.1 -10.1 -10.1 --- --- 11.3 SE 0.19 14.8 -18.1 --- --- 719.5 0.020 0.000 9.8 5 1
02/13/06 4:47 a -10.1 -10.1 -10.1 --- --- 9.6 S 0.16 12.2 -17.4 --- --- 719.6 0.020 0.000 9.8 5 1
02/13/06 4:48 a -10.1 -10.1 -10.2 --- --- 9.6 SSE 0.16 13.0 -17.5 --- --- 719.6 0.020 0.000 9.8 5 1
02/13/06 4:49 a -10.2 -10.2 -10.2 --- --- 12.2 SSE 0.20 15.7 -18.4 --- --- 719.5 0.020 0.000 9.8 5 1
02/13/06 4:50 a -10.2 -10.2 -10.2 --- --- 12.2 SE 0.20 14.8 -18.6 --- --- 719.5 0.020 0.000 9.8 5 1
02/13/06 4:51 a -10.2 -10.2 -10.2 --- --- 13.0 SSE 0.22 13.9 -18.8 --- --- 719.5 0.020 0.000 9.8 5 1
02/13/06 4:52 a -10.2 -10.2 -10.2 --- --- 11.3 S 0.19 15.7 -18.2 --- --- 719.6 0.020 0.000 9.8 5 1
02/13/06 4:53 a -10.2 -10.2 -10.2 --- --- 9.6 S 0.16 12.2 -17.6 --- --- 719.5 0.020 0.000 9.8 5 1
02/13/06 4:54 a -10.2 -10.1 -10.2 --- --- 10.4 SSE 0.17 12.2 -17.8 --- --- 719.5 0.020 0.000 9.8 5 1
02/13/06 4:55 a -10.1 -10.1 -10.2 --- --- 11.3 SSE 0.19 13.9 -18.1 --- --- 719.5 0.020 0.000 9.8 5 1
02/13/06 4:56 a -10.2 -10.2 -10.2 --- --- 12.2 SSE 0.20 13.9 -18.4 --- --- 719.5 0.020 0.000 9.8 5 1
02/13/06 4:57 a -10.2 -10.1 -10.2 --- --- 12.2 SSE 0.20 13.9 -18.4 --- --- 719.5 0.020 0.000 9.8 5 1
02/13/06 4:58 a -10.1 -10.1 -10.2 --- --- 13.0 SSE 0.22 15.7 -18.7 --- --- 719.5 0.020 0.000 9.8 5 1
02/13/06 4:59 a -10.2 -10.2 -10.3 --- --- 13.0 SSE 0.22 14.8 -18.8 --- --- 719.4 0.020 0.000 9.8 5 1
02/13/06 5:00 a -10.2 -10.2 -10.3 --- --- 13.9 SSE 0.23 16.5 -19.1 --- --- 719.3 0.020 0.000 9.8 5 1
02/13/06 5:01 a -10.2 -10.2 -10.3 --- --- 13.9 SE 0.23 16.5 -19.1 --- --- 719.4 0.020 0.000 9.8 5 1
02/13/06 5:02 a -10.2 -10.2 -10.2 --- --- 13.0 SE 0.22 15.7 -18.8 --- --- 719.3 0.020 0.000 9.8 5 1
02/13/06 5:03 a -10.2 -10.2 -10.2 --- --- 13.9 SE 0.23 15.7 -19.0 --- --- 719.4 0.020 0.000 9.8 5 1
02/13/06 5:04 a -10.2 -10.1 -10.2 --- --- 13.9 SE 0.23 16.5 -19.0 --- --- 719.3 0.020 0.000 9.8 5 1
02/13/06 5:05 a -10.2 -10.2 -10.3 --- --- 15.7 SE 0.26 17.4 -19.6 --- --- 719.3 0.020 0.000 9.8 5 1
02/13/06 5:06 a -10.3 -10.3 -10.3 --- --- 15.7 SE 0.26 18.3 -19.7 --- --- 719.3 0.020 0.000 9.8 5 1
02/13/06 5:07 a -10.4 -10.3 -10.4 --- --- 14.8 ESE 0.25 19.1 -19.6 --- --- 719.4 0.020 0.000 9.8 5 1
02/13/06 5:08 a -10.4 -10.4 -10.4 --- --- 12.2 ESE 0.20 14.8 -18.8 --- --- 719.4 0.020 0.000 9.8 5 1
02/13/06 5:09 a -10.4 -10.4 -10.4 --- --- 14.8 ESE 0.25 17.4 -19.6 --- --- 719.4 0.020 0.000 9.8 5 1
02/13/06 5:10 a -10.5 -10.5 -10.5 --- --- 14.8 SE 0.25 15.7 -19.7 --- --- 719.4 0.020 0.000 9.8 5 1
02/13/06 5:11 a -10.6 -10.5 -10.6 --- --- 14.8 ESE 0.25 18.3 -19.8 --- --- 719.3 0.020 0.000 9.8 5 1
02/13/06 5:12 a -10.6 -10.6 -10.6 --- --- 14.8 ESE 0.25 20.0 -19.8 --- --- 719.3 0.020 0.000 9.8 5 1
02/13/06 5:13 a -10.6 -10.6 -10.6 --- --- 13.0 ESE 0.22 17.4 -19.3 --- --- 719.4 0.020 0.000 9.8 5 1
02/13/06 5:14 a -10.6 -10.6 -10.6 --- --- 13.0 ESE 0.22 15.7 -19.3 --- --- 719.5 0.020 0.000 9.8 5 1
02/13/06 5:15 a -10.6 -10.6 -10.7 --- --- 13.0 ESE 0.22 14.8 -19.3 --- --- 719.4 0.020 0.000 9.8 5 1
02/13/06 5:16 a -10.6 -10.6 -10.7 --- --- 14.8 SE 0.25 18.3 -19.8 --- --- 719.4 0.020 0.000 9.8 5 1
02/13/06 5:17 a -10.7 -10.6 -10.7 --- --- 15.7 ESE 0.26 21.7 -20.2 --- --- 719.3 0.020 0.000 9.8 5 1
02/13/06 5:18 a -10.7 -10.7 -10.7 --- --- 13.0 E 0.22 16.5 -19.4 --- --- 719.4 0.020 0.000 9.8 5 1
02/13/06 5:19 a -10.6 -10.6 -10.7 --- --- 14.8 ESE 0.25 19.1 -19.8 --- --- 719.3 0.020 0.000 9.8 5 1
02/13/06 5:20 a -10.7 -10.7 -10.7 --- --- 14.8 ESE 0.25 16.5 -19.9 --- --- 719.4 0.020 0.000 9.8 5 1
02/13/06 5:21 a -10.6 -10.6 -10.7 --- --- 13.9 ESE 0.23 14.8 -19.6 --- --- 719.5 0.020 0.000 9.8 5 1
02/13/06 5:22 a -10.6 -10.6 -10.6 --- --- 13.9 ESE 0.23 14.8 -19.6 --- --- 719.5 0.020 0.000 9.9 5 1
02/13/06 5:23 a -10.6 -10.6 -10.6 --- --- 13.9 ESE 0.23 19.1 -19.6 --- --- 719.5 0.020 0.000 9.9 5 1
02/13/06 5:24 a -10.6 -10.6 -10.6 --- --- 14.8 ESE 0.25 20.0 -19.8 --- --- 719.4 0.020 0.000 9.9 5 1
02/13/06 5:25 a -10.6 -10.6 -10.7 --- --- 14.8 SE 0.25 17.4 -19.8 --- --- 719.4 0.020 0.000 9.9 5 1
02/13/06 5:26 a -10.7 -10.6 -10.7 --- --- 14.8 SE 0.25 18.3 -19.9 --- --- 719.4 0.020 0.000 9.9 5 1
02/13/06 5:27 a -10.7 -10.7 -10.7 --- --- 17.4 SE 0.29 20.0 -20.7 --- --- 719.4 0.020 0.000 9.9 5 1
02/13/06 5:28 a -10.7 -10.7 -10.8 --- --- 17.4 SE 0.29 21.7 -20.7 --- --- 719.3 0.020 0.000 9.9 5 1
02/13/06 5:29 a -10.7 -10.7 -10.8 --- --- 16.5 ESE 0.28 20.0 -20.4 --- --- 719.4 0.020 0.000 9.9 5 1
02/13/06 5:30 a -10.8 -10.7 -10.8 --- --- 14.8 ESE 0.25 19.1 -20.1 --- --- 719.5 0.020 0.000 9.9 5 1
02/13/06 5:31 a -10.8 -10.7 -10.8 --- --- 14.8 ESE 0.25 16.5 -20.1 --- --- 719.5 0.020 0.000 9.9 5 1
02/13/06 5:32 a -10.8 -10.7 -10.8 --- --- 18.3 SE 0.30 20.0 -20.9 --- --- 719.5 0.020 0.000 9.9 4 1
02/13/06 5:33 a -10.8 -10.8 -10.8 --- --- 14.8 ESE 0.25 18.3 -20.1 --- --- 719.5 0.020 0.000 9.9 5 1
02/13/06 5:34 a -10.8 -10.8 -10.9 --- --- 14.8 ESE 0.25 16.5 -20.1 --- --- 719.6 0.020 0.000 9.9 5 1
02/13/06 5:35 a -10.8 -10.8 -10.8 --- --- 13.9 ESE 0.23 16.5 -19.9 --- --- 719.5 0.020 0.000 9.9 5 1
02/13/06 5:36 a -10.8 -10.8 -10.8 --- --- 13.0 E 0.22 17.4 -19.6 --- --- 719.5 0.020 0.000 9.9 5 1
02/13/06 5:37 a -10.8 -10.8 -10.8 --- --- 16.5 ESE 0.28 18.3 -20.6 --- --- 719.5 0.020 0.000 9.9 5 1
02/13/06 5:38 a -10.8 -10.8 -10.9 --- --- 16.5 ESE 0.28 18.3 -20.6 --- --- 719.5 0.020 0.000 9.9 5 1
02/13/06 5:39 a -10.9 -10.9 -10.9 --- --- 16.5 ESE 0.28 18.3 -20.7 --- --- 719.5 0.020 0.000 9.9 5 1
02/13/06 5:40 a -10.8 -10.8 -10.8 --- --- 16.5 ESE 0.28 18.3 -20.6 --- --- 719.4 0.020 0.000 9.9 5 1
02/13/06 5:41 a -10.8 -10.8 -10.8 --- --- 13.9 E 0.23 17.4 -19.9 --- --- 719.5 0.020 0.000 9.9 5 1
02/13/06 5:42 a -10.8 -10.8 -10.8 --- --- 17.4 ESE 0.29 21.7 -20.8 --- --- 719.4 0.020 0.000 9.8 5 1
02/13/06 5:43 a -10.8 -10.8 -10.8 --- --- 15.7 E 0.26 20.0 -20.4 --- --- 719.5 0.020 0.000 9.9 5 1
02/13/06 5:44 a -10.9 -10.9 -10.9 --- --- 18.3 ESE 0.30 20.9 -21.1 --- --- 719.5 0.020 0.000 9.8 5 1
02/13/06 5:45 a -10.9 -10.9 -10.9 --- --- 18.3 ESE 0.30 22.6 -21.1 --- --- 719.5 0.020 0.000 9.9 5 1
02/13/06 5:46 a -10.9 -10.9 -10.9 --- --- 15.7 ESE 0.26 22.6 -20.4 --- --- 719.5 0.020 0.000 9.8 5 1
02/13/06 5:47 a -10.9 -10.9 -10.9 --- --- 16.5 ESE 0.28 20.9 -20.7 --- --- 719.4 0.020 0.000 9.9 5 1
02/13/06 5:48 a -10.9 -10.9 -10.9 --- --- 17.4 SE 0.29 20.0 -21.0 --- --- 719.5 0.020 0.000 9.9 5 1
02/13/06 5:49 a -10.8 -10.8 -10.9 --- --- 17.4 SE 0.29 20.9 -20.8 --- --- 719.4 0.020 0.000 9.9 5 1
02/13/06 5:50 a -10.8 -10.8 -10.8 --- --- 16.5 SE 0.28 20.0 -20.6 --- --- 719.5 0.020 0.000 9.9 5 1
02/13/06 5:51 a -10.8 -10.8 -10.8 --- --- 18.3 ESE 0.30 21.7 -20.9 --- --- 719.5 0.020 0.000 9.9 5 1
02/13/06 5:52 a -10.8 -10.8 -10.8 --- --- 14.8 ESE 0.25 18.3 -20.1 --- --- 719.5 0.020 0.000 9.9 5 1
02/13/06 5:53 a -10.8 -10.8 -10.8 --- --- 17.4 SE 0.29 22.6 -20.8 --- --- 719.4 0.020 0.000 9.9 5 1
02/13/06 5:54 a -10.8 -10.8 -10.8 --- --- 20.9 SE 0.35 24.3 -21.7 --- --- 719.4 0.020 0.000 9.9 5 1
02/13/06 5:55 a -10.8 -10.8 -10.8 --- --- 20.9 SE 0.35 22.6 -21.7 --- --- 719.3 0.020 0.000 9.9 5 1
02/13/06 5:56 a -10.8 -10.8 -10.8 --- --- 20.9 SE 0.35 21.7 -21.7 --- --- 719.5 0.020 0.000 9.9 5 1
02/13/06 5:57 a -10.8 -10.8 -10.9 --- --- 21.7 SE 0.36 25.2 -21.8 --- --- 719.3 0.020 0.000 9.9 5 1
02/13/06 5:58 a -10.9 -10.9 -10.9 --- --- 21.7 SE 0.36 24.3 -21.9 --- --- 719.4 0.020 0.000 9.9 5 1
02/13/06 5:59 a -10.9 -10.9 -10.9 --- --- 21.7 SE 0.36 27.0 -21.9 --- --- 719.4 0.020 0.000 9.9 5 1
02/13/06 6:00 a -10.9 -10.9 -10.9 --- --- 21.7 SE 0.36 25.2 -21.9 --- --- 719.3 0.020 0.000 9.9 5 1
02/13/06 6:01 a -10.9 -10.9 -10.9 --- --- 20.9 SSE 0.35 27.8 -21.8 --- --- 719.4 0.020 0.000 9.9 5 1
02/13/06 6:02 a -10.9 -10.9 -10.9 --- --- 24.3 SE 0.41 28.7 -22.5 --- --- 719.3 0.020 0.000 9.9 5 1
02/13/06 6:03 a -11.0 -11.0 -11.0 --- --- 25.2 SE 0.42 28.7 -22.7 --- --- 719.2 0.020 0.000 9.9 5 1
02/13/06 6:04 a -11.1 -11.1 -11.1 --- --- 27.0 SE 0.45 28.7 -23.1 --- --- 719.2 0.020 0.000 9.9 5 1
02/13/06 6:05 a -11.1 -11.1 -11.1 --- --- 23.5 SE 0.39 27.0 -22.6 --- --- 719.3 0.020 0.000 9.9 5 1
02/13/06 6:06 a -11.1 -11.1 -11.1 --- --- 21.7 SE 0.36 26.1 -22.1 --- --- 719.3 0.020 0.000 9.9 5 1
02/13/06 6:07 a -11.0 -11.0 -11.1 --- --- 21.7 SE 0.36 25.2 -22.1 --- --- 719.5 0.020 0.000 9.9 5 1
02/13/06 6:08 a -11.1 -11.0 -11.1 --- --- 20.0 SE 0.33 23.5 -21.7 --- --- 719.4 0.020 0.000 9.9 5 1
02/13/06 6:09 a -11.1 -11.0 -11.1 --- --- 20.9 SE 0.35 21.7 -21.9 --- --- 719.5 0.020 0.000 9.9 5 1
02/13/06 6:10 a -11.1 -11.0 -11.1 --- --- 21.7 SE 0.36 23.5 -22.1 --- --- 719.5 0.020 0.000 9.9 5 1
02/13/06 6:11 a -11.1 -11.1 -11.1 --- --- 20.9 SE 0.35 24.3 -21.9 --- --- 719.4 0.020 0.000 9.9 5 1
02/13/06 6:12 a -11.1 -11.1 -11.1 --- --- 20.9 SE 0.35 24.3 -22.0 --- --- 719.4 0.020 0.000 9.9 5 1
02/13/06 6:13 a -11.1 -11.1 -11.1 --- --- 22.6 SE 0.38 26.1 -22.4 --- --- 719.4 0.020 0.000 9.9 5 1
02/13/06 6:14 a -11.1 -11.1 -11.1 --- --- 21.7 SE 0.36 23.5 -22.2 --- --- 719.4 0.020 0.000 9.8 5 1
02/13/06 6:15 a -11.1 -11.1 -11.2 --- --- 19.1 SE 0.32 20.9 -21.6 --- --- 719.4 0.020 0.000 9.8 5 1
02/13/06 6:16 a -11.1 -11.1 -11.2 --- --- 21.7 SE 0.36 25.2 -22.2 --- --- 719.3 0.020 0.000 9.8 5 1
02/13/06 6:17 a -11.2 -11.2 -11.2 --- --- 22.6 SE 0.38 27.0 -22.4 --- --- 719.5 0.020 0.000 9.8 5 1
02/13/06 6:18 a -11.2 -11.2 -11.2 --- --- 21.7 ESE 0.36 26.1 -22.3 --- --- 719.4 0.021 0.000 9.8 5 1
02/13/06 6:19 a -11.2 -11.2 -11.3 --- --- 20.0 SE 0.33 24.3 -21.9 --- --- 719.3 0.021 0.000 9.8 5 1
02/13/06 6:20 a -11.2 -11.2 -11.3 --- --- 20.9 SE 0.35 25.2 -22.2 --- --- 719.4 0.021 0.000 9.8 5 1
02/13/06 6:21 a -11.2 -11.2 -11.2 --- --- 21.7 SE 0.36 26.1 -22.3 --- --- 719.5 0.021 0.000 9.8 5 1
02/13/06 6:22 a -11.2 -11.2 -11.3 --- --- 20.0 SE 0.33 25.2 -21.9 --- --- 719.5 0.021 0.000 9.8 5 1
02/13/06 6:23 a -11.2 -11.2 -11.3 --- --- 23.5 SE 0.39 27.0 -22.7 --- --- 719.3 0.021 0.000 9.9 5 1
02/13/06 6:24 a -11.2 -11.2 -11.2 --- --- 19.1 SE 0.32 20.9 -21.8 --- --- 719.4 0.021 0.000 9.9 5 1
02/13/06 6:25 a -11.2 -11.2 -11.2 --- --- 21.7 SE 0.36 24.3 -22.3 --- --- 719.3 0.020 0.000 9.9 5 1
02/13/06 6:26 a -11.2 -11.1 -11.2 --- --- 21.7 SE 0.36 25.2 -22.3 --- --- 719.3 0.020 0.000 9.9 5 1
02/13/06 6:27 a -11.2 -11.1 -11.2 --- --- 24.3 SE 0.41 27.8 -22.8 --- --- 719.4 0.020 0.000 9.9 5 1
02/13/06 6:28 a -11.2 -11.2 -11.2 --- --- 25.2 SE 0.42 27.8 -22.9 --- --- 719.4 0.020 0.000 9.9 5 1
02/13/06 6:29 a -11.2 -11.2 -11.2 --- --- 23.5 SSE 0.39 26.1 -22.6 --- --- 719.3 0.020 0.000 9.9 5 1
02/13/06 6:30 a -11.2 -11.2 -11.2 --- --- 23.5 SE 0.39 26.1 -22.6 --- --- 719.4 0.020 0.000 9.8 5 1
02/13/06 6:31 a -11.2 -11.1 -11.2 --- --- 23.5 SE 0.39 27.8 -22.6 --- --- 719.2 0.020 0.000 9.8 5 1
02/13/06 6:32 a -11.2 -11.1 -11.2 --- --- 24.3 SE 0.41 27.0 -22.8 --- --- 719.3 0.020 0.000 9.8 5 1
02/13/06 6:33 a -11.2 -11.1 -11.2 --- --- 23.5 SE 0.39 27.0 -22.6 --- --- 719.3 0.020 0.000 9.8 5 1
02/13/06 6:34 a -11.2 -11.2 -11.2 --- --- 22.6 SE 0.38 26.1 -22.4 --- --- 719.4 0.020 0.000 9.8 5 1
02/13/06 6:35 a -11.2 -11.2 -11.2 --- --- 23.5 SE 0.39 27.0 -22.6 --- --- 719.4 0.020 0.000 9.8 5 1
02/13/06 6:36 a -11.2 -11.1 -11.2 --- --- 22.6 SSE 0.38 28.7 -22.4 --- --- 719.4 0.020 0.000 9.8 5 1
02/13/06 6:37 a -11.1 -11.1 -11.2 --- --- 21.7 SSE 0.36 24.3 -22.2 --- --- 719.5 0.020 0.000 9.8 5 1
02/13/06 6:38 a -11.1 -11.1 -11.1 --- --- 23.5 SSE 0.39 26.1 -22.6 --- --- 719.4 0.020 0.000 9.8 5 1
02/13/06 6:39 a -11.2 -11.1 -11.2 --- --- 24.3 SE 0.41 27.0 -22.8 --- --- 719.4 0.020 0.000 9.8 5 1
02/13/06 6:40 a -11.2 -11.2 -11.2 --- --- 23.5 SE 0.39 27.8 -22.6 --- --- 719.5 0.020 0.000 9.8 5 1
02/13/06 6:41 a -11.2 -11.2 -11.2 --- --- 23.5 SE 0.39 27.8 -22.6 --- --- 719.4 0.020 0.000 9.8 5 1
02/13/06 6:42 a -11.2 -11.2 -11.2 --- --- 24.3 SE 0.41 26.1 -22.8 --- --- 719.5 0.020 0.000 9.8 5 1
02/13/06 6:43 a -11.2 -11.2 -11.2 --- --- 23.5 SE 0.39 26.1 -22.6 --- --- 719.5 0.020 0.000 9.8 5 1
02/13/06 6:44 a -11.2 -11.2 -11.2 --- --- 25.2 SE 0.42 27.8 -22.9 --- --- 719.4 0.020 0.000 9.8 5 1
02/13/06 6:45 a -11.2 -11.2 -11.2 --- --- 22.6 SE 0.38 24.3 -22.4 --- --- 719.5 0.020 0.000 9.8 5 1
02/13/06 6:46 a -11.2 -11.2 -11.2 --- --- 21.7 SE 0.36 24.3 -22.3 --- --- 719.5 0.020 0.000 9.8 5 1
02/13/06 6:47 a -11.2 -11.2 -11.2 --- --- 20.9 SE 0.35 24.3 -22.1 --- --- 719.5 0.020 0.000 9.8 5 1
02/13/06 6:48 a -11.2 -11.2 -11.2 --- --- 23.5 SE 0.39 27.8 -22.6 --- --- 719.4 0.020 0.000 9.8 5 1
02/13/06 6:49 a -11.2 -11.1 -11.2 --- --- 22.6 SE 0.38 24.3 -22.4 --- --- 719.5 0.020 0.000 9.8 5 1
02/13/06 6:50 a -11.2 -11.2 -11.2 --- --- 21.7 SE 0.36 25.2 -22.3 --- --- 719.5 0.020 0.000 9.8 5 1
02/13/06 6:51 a -11.2 -11.2 -11.2 --- --- 20.9 SE 0.35 23.5 -22.1 --- --- 719.6 0.020 0.000 9.8 5 1
02/13/06 6:52 a -11.2 -11.2 -11.2 --- --- 22.6 SE 0.38 24.3 -22.5 --- --- 719.5 0.021 0.000 9.8 5 1
02/13/06 6:53 a -11.2 -11.2 -11.2 --- --- 21.7 SE 0.36 25.2 -22.3 --- --- 719.6 0.021 0.000 9.8 5 1
02/13/06 6:54 a -11.2 -11.2 -11.2 --- --- 21.7 SE 0.36 25.2 -22.3 --- --- 719.6 0.021 0.000 9.8 5 1
02/13/06 6:55 a -11.2 -11.2 -11.2 --- --- 22.6 SSE 0.38 27.0 -22.5 --- --- 719.5 0.021 0.000 9.8 5 1
02/13/06 6:56 a -11.2 -11.2 -11.2 --- --- 26.1 SSE 0.43 28.7 -23.2 --- --- 719.5 0.021 0.000 9.8 5 1
02/13/06 6:57 a -11.2 -11.2 -11.3 --- --- 25.2 SE 0.42 27.8 -23.1 --- --- 719.4 0.021 0.000 9.8 5 1
02/13/06 6:58 a -11.3 -11.3 -11.3 --- --- 25.2 SE 0.42 31.3 -23.1 --- --- 719.5 0.021 0.000 9.8 5 1
02/13/06 6:59 a -11.3 -11.3 -11.3 --- --- 23.5 SSE 0.39 26.1 -22.8 --- --- 719.5 0.021 0.000 9.8 5 1
02/13/06 7:00 a -11.2 -11.2 -11.3 --- --- 24.3 SSE 0.41 27.8 -22.9 --- --- 719.5 0.021 0.000 9.8 5 1
02/13/06 7:01 a -11.3 -11.3 -11.3 --- --- 24.3 SSE 0.41 28.7 -22.9 --- --- 719.4 0.021 0.000 9.8 5 1
02/13/06 7:02 a -11.3 -11.2 -11.3 --- --- 26.1 SSE 0.43 28.7 -23.3 --- --- 719.4 0.021 0.000 9.8 5 1
02/13/06 7:03 a -11.3 -11.3 -11.3 --- --- 23.5 SE 0.39 25.2 -22.8 --- --- 719.5 0.021 0.000 9.8 5 1
02/13/06 7:04 a -11.3 -11.3 -11.3 --- --- 24.3 SE 0.41 27.8 -22.9 --- --- 719.4 0.021 0.000 9.8 5 1
02/13/06 7:05 a -11.3 -11.3 -11.3 --- --- 26.1 SE 0.43 28.7 -23.3 --- --- 719.4 0.021 0.000 9.8 5 1
02/13/06 7:06 a -11.3 -11.3 -11.3 --- --- 27.0 SSE 0.45 29.6 -23.5 --- --- 719.4 0.021 0.000 9.8 5 1
02/13/06 7:07 a -11.3 -11.3 -11.4 --- --- 25.2 SSE 0.42 27.8 -23.2 --- --- 719.4 0.021 0.000 9.8 5 1
02/13/06 7:08 a -11.3 -11.3 -11.3 --- --- 26.1 SE 0.43 29.6 -23.3 --- --- 719.4 0.021 0.000 9.8 5 1
02/13/06 7:09 a -11.3 -11.3 -11.3 --- --- 25.2 SSE 0.42 28.7 -23.2 --- --- 719.5 0.021 0.000 9.8 5 1
02/13/06 7:10 a -11.3 -11.3 -11.3 --- --- 25.2 SE 0.42 27.8 -23.2 --- --- 719.4 0.021 0.000 9.8 5 1
02/13/06 7:11 a -11.3 -11.3 -11.4 --- --- 26.1 SE 0.43 30.4 -23.3 --- --- 719.4 0.021 0.000 9.8 5 1
02/13/06 7:12 a -11.3 -11.3 -11.4 --- --- 26.1 SE 0.43 29.6 -23.3 --- --- 719.4 0.021 0.000 9.8 5 1
02/13/06 7:13 a -11.3 -11.3 -11.4 --- --- 26.1 SE 0.43 29.6 -23.3 --- --- 719.5 0.021 0.000 9.8 5 1
02/13/06 7:14 a -11.3 -11.3 -11.4 --- --- 25.2 SE 0.42 28.7 -23.2 --- --- 719.4 0.021 0.000 9.8 5 1
02/13/06 7:15 a -11.3 -11.3 -11.3 --- --- 23.5 SE 0.39 27.0 -22.8 --- --- 719.5 0.021 0.000 9.8 5 1
02/13/06 7:16 a -11.3 -11.3 -11.3 --- --- 25.2 SE 0.42 27.8 -23.2 --- --- 719.6 0.021 0.000 9.8 5 1
02/13/06 7:17 a -11.3 -11.3 -11.3 --- --- 25.2 SE 0.42 28.7 -23.2 --- --- 719.6 0.021 0.000 9.8 5 1
02/13/06 7:18 a -11.3 -11.3 -11.3 --- --- 26.1 SE 0.43 28.7 -23.3 --- --- 719.5 0.021 0.000 9.8 5 1
02/13/06 7:19 a -11.3 -11.3 -11.3 --- --- 23.5 SE 0.39 27.0 -22.8 --- --- 719.6 0.021 0.000 9.8 5 1
02/13/06 7:20 a -11.3 -11.3 -11.3 --- --- 22.6 SE 0.38 24.3 -22.7 --- --- 719.7 0.021 0.000 9.8 5 1
02/13/06 7:21 a -11.3 -11.3 -11.3 --- --- 20.9 SE 0.35 25.2 -22.3 --- --- 719.8 0.021 0.000 9.8 5 1
02/13/06 7:22 a -11.3 -11.3 -11.3 --- --- 25.2 ESE 0.42 27.0 -23.2 --- --- 719.7 0.021 0.000 9.8 5 1
02/13/06 7:23 a -11.3 -11.3 -11.3 --- --- 21.7 ESE 0.36 24.3 -22.5 --- --- 719.8 0.021 0.000 9.8 5 1
02/13/06 7:24 a -11.4 -11.3 -11.4 --- --- 20.9 ESE 0.35 22.6 -22.4 --- --- 719.9 0.021 0.000 9.8 5 1
02/13/06 7:25 a -11.4 -11.4 -11.4 --- --- 21.7 ESE 0.36 25.2 -22.6 --- --- 719.8 0.021 0.000 9.8 5 1
02/13/06 7:26 a -11.4 -11.4 -11.4 --- --- 22.6 ESE 0.38 24.3 -22.7 --- --- 719.8 0.021 0.000 9.8 5 1
02/13/06 7:27 a -11.4 -11.4 -11.5 --- --- 24.3 ESE 0.41 26.1 -23.2 --- --- 719.8 0.021 0.000 9.8 5 1
02/13/06 7:28 a -11.6 -11.5 -11.6 --- --- 24.3 ESE 0.41 26.1 -23.3 --- --- 719.7 0.021 0.000 9.8 5 1
02/13/06 7:29 a -11.6 -11.6 -11.6 --- --- 25.2 ESE 0.42 27.8 -23.5 --- --- 719.7 0.021 0.000 9.8 5 1
02/13/06 7:30 a -11.6 -11.6 -11.6 --- --- 24.3 ESE 0.41 28.7 -23.3 --- --- 719.7 0.021 0.000 9.8 5 1
02/13/06 7:31 a -11.6 -11.6 -11.6 --- --- 25.2 E 0.42 27.8 -23.5 --- --- 719.6 0.021 0.000 9.8 5 1
02/13/06 7:32 a -11.6 -11.6 -11.6 --- --- 24.3 ESE 0.41 27.0 -23.3 --- --- 719.7 0.021 0.000 9.8 5 1
02/13/06 7:33 a -11.6 -11.6 -11.6 --- --- 27.0 E 0.45 29.6 -23.8 --- --- 719.6 0.021 0.000 9.8 5 1
02/13/06 7:34 a -11.6 -11.6 -11.6 --- --- 27.0 E 0.45 29.6 -23.8 --- --- 719.7 0.021 0.000 9.8 5 1
02/13/06 7:35 a -11.6 -11.6 -11.6 --- --- 24.3 E 0.41 27.0 -23.3 --- --- 719.6 0.021 0.000 9.8 5 1
02/13/06 7:36 a -11.6 -11.5 -11.6 --- --- 24.3 E 0.41 29.6 -23.3 --- --- 719.5 0.021 0.000 9.8 5 1
02/13/06 7:37 a -11.6 -11.6 -11.6 --- --- 24.3 ESE 0.41 28.7 -23.3 --- --- 719.5 0.021 0.000 9.8 5 1
02/13/06 7:38 a -11.6 -11.6 -11.6 --- --- 25.2 E 0.42 28.7 -23.5 --- --- 719.7 0.021 0.000 9.8 5 1
02/13/06 7:39 a -11.6 -11.6 -11.6 --- --- 24.3 E 0.41 29.6 -23.3 --- --- 719.6 0.021 0.000 9.8 5 1
02/13/06 7:40 a -11.6 -11.6 -11.6 --- --- 26.1 ESE 0.43 30.4 -23.7 --- --- 719.6 0.021 0.000 9.8 5 1
02/13/06 7:41 a -11.6 -11.6 -11.6 --- --- 27.8 ESE 0.46 31.3 -24.0 --- --- 719.6 0.021 0.000 9.8 5 1
02/13/06 7:42 a -11.6 -11.6 -11.7 --- --- 25.2 ESE 0.42 27.8 -23.6 --- --- 719.7 0.021 0.000 9.8 5 1
02/13/06 7:43 a -11.6 -11.6 -11.6 --- --- 25.2 ESE 0.42 27.8 -23.6 --- --- 719.7 0.021 0.000 9.8 5 1
02/13/06 7:44 a -11.6 -11.6 -11.7 --- --- 25.2 ESE 0.42 27.0 -23.6 --- --- 719.7 0.021 0.000 9.8 5 1
02/13/06 7:45 a -11.7 -11.6 -11.7 --- --- 25.2 ESE 0.42 27.8 -23.6 --- --- 719.6 0.021 0.000 9.8 5 1
02/13/06 7:46 a -11.6 -11.6 -11.7 --- --- 26.1 ESE 0.43 27.8 -23.7 --- --- 719.7 0.021 0.000 9.8 5 1
02/13/06 7:47 a -11.7 -11.7 -11.7 --- --- 26.1 ESE 0.43 27.8 -23.8 --- --- 719.8 0.021 0.000 9.7 5 1
02/13/06 7:48 a -11.7 -11.7 -11.7 --- --- 26.1 ESE 0.43 28.7 -23.8 --- --- 719.7 0.021 0.000 9.7 5 1
02/13/06 7:49 a -11.7 -11.6 -11.7 --- --- 23.5 ESE 0.39 27.0 -23.3 --- --- 719.7 0.021 0.000 9.7 5 1
02/13/06 7:50 a -11.7 -11.7 -11.7 --- --- 25.2 ESE 0.42 27.8 -23.6 --- --- 719.7 0.021 0.000 9.7 5 1
02/13/06 7:51 a -11.7 -11.7 -11.7 --- --- 24.3 SE 0.41 26.1 -23.4 --- --- 719.8 0.021 0.000 9.7 5 1
02/13/06 7:52 a -11.7 -11.7 -11.7 --- --- 24.3 ESE 0.41 27.0 -23.4 --- --- 719.8 0.021 0.000 9.7 5 1
02/13/06 7:53 a -11.7 -11.7 -11.7 --- --- 25.2 SE 0.42 26.1 -23.6 --- --- 719.7 0.021 0.000 9.7 5 1
02/13/06 7:54 a -11.7 -11.7 -11.7 --- --- 24.3 ESE 0.41 28.7 -23.4 --- --- 719.7 0.021 0.000 9.7 5 1
02/13/06 7:55 a -11.7 -11.7 -11.7 --- --- 26.1 SE 0.43 28.7 -23.8 --- --- 719.7 0.021 0.000 9.7 5 1
02/13/06 7:56 a -11.7 -11.6 -11.7 --- --- 25.2 SE 0.42 27.8 -23.6 --- --- 719.7 0.021 0.000 9.7 5 1
02/13/06 7:57 a -11.7 -11.6 -11.7 --- --- 26.1 SE 0.43 28.7 -23.8 --- --- 719.7 0.021 0.000 9.8 5 1
02/13/06 7:58 a -11.6 -11.6 -11.6 --- --- 25.2 SE 0.42 27.8 -23.6 --- --- 719.7 0.021 0.000 9.7 5 1
02/13/06 7:59 a -11.5 -11.5 -11.6 --- --- 24.3 SE 0.41 28.7 -23.2 --- --- 719.8 0.021 0.000 9.7 5 1
02/13/06 8:00 a -11.5 -11.4 -11.5 --- --- 26.1 SE 0.43 32.2 -23.6 --- --- 719.8 0.021 0.000 9.7 5 1
02/13/06 8:01 a -11.4 -11.4 -11.4 --- --- 24.3 SE 0.41 27.0 -23.2 --- --- 719.8 0.021 0.000 9.7 5 1
02/13/06 8:02 a -11.4 -11.4 -11.4 --- --- 23.5 SE 0.39 28.7 -23.0 --- --- 719.8 0.021 0.000 9.7 5 1
02/13/06 8:03 a -11.4 -11.4 -11.4 --- --- 26.1 SE 0.43 28.7 -23.4 --- --- 719.8 0.021 0.000 9.7 5 1
02/13/06 8:04 a -11.4 -11.4 -11.4 --- --- 22.6 ESE 0.38 26.1 -22.8 --- --- 719.9 0.021 0.000 9.7 5 1
02/13/06 8:05 a -11.4 -11.4 -11.4 --- --- 23.5 SE 0.39 27.0 -23.0 --- --- 719.9 0.021 0.000 9.7 5 1
02/13/06 8:06 a -11.4 -11.4 -11.4 --- --- 23.5 SE 0.39 27.0 -23.0 --- --- 720.0 0.021 0.000 9.7 5 1
02/13/06 8:07 a -11.4 -11.4 -11.4 --- --- 23.5 SE 0.39 27.8 -22.9 --- --- 719.8 0.021 0.000 9.7 5 1
02/13/06 8:08 a -11.4 -11.4 -11.4 --- --- 24.3 SE 0.41 31.3 -23.1 --- --- 719.9 0.021 0.000 9.7 5 1
02/13/06 8:09 a -11.3 -11.3 -11.4 --- --- 22.6 ESE 0.38 25.2 -22.7 --- --- 720.1 0.021 0.000 9.7 5 1
02/13/06 8:10 a -11.4 -11.3 -11.4 --- --- 22.6 ESE 0.38 30.4 -22.7 --- --- 719.9 0.021 0.000 9.7 5 1
02/13/06 8:11 a -11.4 -11.4 -11.4 --- --- 23.5 ESE 0.39 27.0 -22.9 --- --- 720.1 0.021 0.000 9.7 5 1
02/13/06 8:12 a -11.4 -11.4 -11.4 --- --- 21.7 SE 0.36 23.5 -22.6 --- --- 720.0 0.021 0.000 9.7 5 1
02/13/06 8:13 a -11.4 -11.4 -11.4 --- --- 20.0 SE 0.33 21.7 -22.3 --- --- 720.1 0.021 0.000 9.7 5 1
02/13/06 8:14 a -11.4 -11.4 -11.4 --- --- 20.9 SE 0.35 24.3 -22.4 --- --- 720.0 0.021 0.000 9.7 5 1
02/13/06 8:15 a -11.4 -11.4 -11.4 --- --- 21.7 ESE 0.36 23.5 -22.7 --- --- 720.1 0.021 0.000 9.7 5 1
02/13/06 8:16 a -11.4 -11.4 -11.4 --- --- 18.3 ESE 0.30 23.5 -21.8 --- --- 720.1 0.021 0.000 9.7 5 1
02/13/06 8:17 a -11.4 -11.4 -11.5 --- --- 19.1 ESE 0.32 20.9 -22.1 --- --- 720.1 0.021 0.000 9.7 5 1
02/13/06 8:18 a -11.5 -11.4 -11.5 --- --- 20.9 ESE 0.35 24.3 -22.5 --- --- 720.0 0.021 0.000 9.7 5 1
02/13/06 8:19 a -11.6 -11.5 -11.6 --- --- 20.0 ESE 0.33 22.6 -22.4 --- --- 720.1 0.021 0.000 9.7 5 1
02/13/06 8:20 a -11.6 -11.5 -11.6 --- --- 20.9 ESE 0.35 21.7 -22.6 --- --- 720.1 0.021 0.000 9.7 5 1
02/13/06 8:21 a -11.6 -11.5 -11.6 --- --- 20.0 ESE 0.33 21.7 -22.4 --- --- 720.1 0.021 0.000 9.7 5 1
02/13/06 8:22 a -11.6 -11.6 -11.6 --- --- 20.0 ESE 0.33 22.6 -22.4 --- --- 720.0 0.021 0.000 9.7 5 1
02/13/06 8:23 a -11.6 -11.6 -11.6 --- --- 20.9 ESE 0.35 22.6 -22.6 --- --- 720.1 0.021 0.000 9.7 5 1
02/13/06 8:24 a -11.6 -11.6 -11.6 --- --- 16.5 E 0.28 20.0 -21.6 --- --- 720.1 0.021 0.000 9.7 5 1
02/13/06 8:25 a -11.6 -11.5 -11.6 --- --- 15.7 E 0.26 22.6 -21.3 --- --- 720.1 0.021 0.000 9.7 5 1
02/13/06 8:26 a -11.6 -11.6 -11.6 --- --- 22.6 ESE 0.38 24.3 -22.9 --- --- 720.0 0.021 0.000 9.7 5 1
02/13/06 8:27 a -11.6 -11.6 -11.6 --- --- 23.5 ESE 0.39 26.1 -23.2 --- --- 720.0 0.021 0.000 9.7 5 1
02/13/06 8:28 a -11.6 -11.6 -11.6 --- --- 22.6 ESE 0.38 24.3 -23.1 --- --- 720.0 0.021 0.000 9.7 5 1
02/13/06 8:29 a -11.6 -11.6 -11.7 --- --- 20.9 ESE 0.35 23.5 -22.7 --- --- 720.1 0.021 0.000 9.7 5 1
02/13/06 8:30 a -11.6 -11.6 -11.6 --- --- 22.6 ESE 0.38 24.3 -23.1 --- --- 720.0 0.021 0.000 9.7 5 1
02/13/06 8:31 a -11.6 -11.6 -11.6 --- --- 21.7 ESE 0.36 25.2 -22.9 --- --- 720.0 0.021 0.000 9.7 5 1
02/13/06 8:32 a -11.6 -11.6 -11.6 --- --- 21.7 ESE 0.36 23.5 -22.9 --- --- 720.0 0.021 0.000 9.7 5 1
02/13/06 8:33 a -11.6 -11.6 -11.6 --- --- 20.9 ESE 0.35 22.6 -22.6 --- --- 720.0 0.021 0.000 9.7 5 1
02/13/06 8:34 a -11.6 -11.6 -11.6 --- --- 20.9 ESE 0.35 24.3 -22.6 --- --- 720.0 0.021 0.000 9.7 5 1
02/13/06 8:35 a -11.6 -11.6 -11.6 --- --- 20.9 E 0.35 25.2 -22.7 --- --- 719.8 0.021 0.000 9.7 5 1
02/13/06 8:36 a -11.6 -11.6 -11.6 --- --- 20.9 E 0.35 26.1 -22.7 --- --- 719.9 0.021 0.000 9.7 5 1
02/13/06 8:37 a -11.6 -11.6 -11.6 --- --- 22.6 ESE 0.38 25.2 -23.1 --- --- 719.8 0.021 0.000 9.7 5 1
02/13/06 8:38 a -11.6 -11.6 -11.6 --- --- 23.5 ESE 0.39 25.2 -23.2 --- --- 719.8 0.021 0.000 9.7 5 1
02/13/06 8:39 a -11.6 -11.6 -11.6 --- --- 22.6 ESE 0.38 26.1 -23.1 --- --- 719.8 0.021 0.000 9.7 5 1
02/13/06 8:40 a -11.6 -11.6 -11.6 --- --- 23.5 ESE 0.39 27.8 -23.2 --- --- 719.8 0.021 0.000 9.7 5 1
02/13/06 8:41 a -11.6 -11.6 -11.6 --- --- 24.3 ESE 0.41 28.7 -23.3 --- --- 719.7 0.021 0.000 9.7 5 1
02/13/06 8:42 a -11.6 -11.5 -11.6 --- --- 24.3 ESE 0.41 27.0 -23.3 --- --- 719.6 0.021 0.000 9.7 5 1
02/13/06 8:43 a -11.6 -11.5 -11.6 --- --- 25.2 ESE 0.42 27.0 -23.5 --- --- 719.6 0.021 0.000 9.7 5 1
02/13/06 8:44 a -11.6 -11.5 -11.6 --- --- 25.2 ESE 0.42 26.1 -23.5 --- --- 719.7 0.021 0.000 9.7 5 1
02/13/06 8:45 a -11.5 -11.5 -11.6 --- --- 26.1 ESE 0.43 27.8 -23.6 --- --- 719.7 0.021 0.000 9.7 5 1
02/13/06 8:46 a -11.5 -11.5 -11.6 --- --- 27.0 ESE 0.45 28.7 -23.7 --- --- 719.7 0.021 0.000 9.7 5 1
02/13/06 8:47 a -11.6 -11.5 -11.6 --- --- 25.2 SE 0.42 27.0 -23.5 --- --- 719.7 0.021 0.000 9.7 5 1
02/13/06 8:48 a -11.5 -11.5 -11.6 --- --- 23.5 SE 0.39 28.7 -23.1 --- --- 719.7 0.021 0.000 9.7 5 1
02/13/06 8:49 a -11.6 -11.5 -11.6 --- --- 24.3 SE 0.41 27.0 -23.3 --- --- 719.7 0.021 0.000 9.7 5 1
02/13/06 8:50 a -11.5 -11.5 -11.6 --- --- 23.5 SE 0.39 25.2 -23.1 --- --- 719.7 0.021 0.000 9.7 5 1
02/13/06 8:51 a -11.6 -11.5 -11.6 --- --- 25.2 SE 0.42 27.8 -23.5 --- --- 719.7 0.021 0.000 9.7 5 1
02/13/06 8:52 a -11.6 -11.5 -11.6 --- --- 24.3 SE 0.41 27.8 -23.3 --- --- 719.5 0.021 0.000 9.7 5 1
02/13/06 8:53 a -11.5 -11.4 -11.6 --- --- 25.2 SE 0.42 27.8 -23.4 --- --- 719.7 0.021 0.000 9.7 5 1
02/13/06 8:54 a -11.5 -11.5 -11.5 --- --- 25.2 SE 0.42 28.7 -23.4 --- --- 719.7 0.021 0.000 9.7 5 1
02/13/06 8:55 a -11.4 -11.4 -11.4 --- --- 23.5 SE 0.39 24.3 -23.0 --- --- 719.8 0.021 0.000 9.7 5 1
02/13/06 8:56 a -11.4 -11.4 -11.4 --- --- 25.2 ESE 0.42 28.7 -23.3 --- --- 719.6 0.021 0.000 9.7 5 1
02/13/06 8:57 a -11.4 -11.4 -11.4 --- --- 24.3 ESE 0.41 26.1 -23.2 --- --- 719.7 0.021 0.000 9.7 5 1
02/13/06 8:58 a -11.4 -11.4 -11.5 --- --- 26.1 SE 0.43 29.6 -23.5 --- --- 719.9 0.021 0.000 9.7 5 1
02/13/06 8:59 a -11.4 -11.4 -11.4 --- --- 22.6 SE 0.38 27.0 -22.8 --- --- 719.8 0.021 0.000 9.7 5 1
02/13/06 9:00 a -11.4 -11.4 -11.4 --- --- 23.5 SE 0.39 25.2 -23.0 --- --- 719.9 0.021 0.000 9.7 5 1
02/13/06 9:01 a -11.4 -11.4 -11.4 --- --- 23.5 ESE 0.39 26.1 -22.9 --- --- 719.8 0.021 0.000 9.6 5 1
02/13/06 9:02 a -11.4 -11.4 -11.4 --- --- 21.7 SE 0.36 23.5 -22.6 --- --- 719.8 0.021 0.000 9.7 5 1
02/13/06 9:03 a -11.4 -11.4 -11.4 --- --- 23.5 SE 0.39 27.8 -22.9 --- --- 719.8 0.021 0.000 9.7 5 1
02/13/06 9:04 a -11.4 -11.4 -11.4 --- --- 21.7 ESE 0.36 24.3 -22.6 --- --- 719.9 0.021 0.000 9.7 5 1
02/13/06 9:05 a -11.4 -11.4 -11.4 --- --- 24.3 ESE 0.41 27.0 -23.1 --- --- 719.8 0.021 0.000 9.7 5 1
02/13/06 9:06 a -11.4 -11.4 -11.4 --- --- 21.7 ESE 0.36 24.3 -22.6 --- --- 719.9 0.021 0.000 9.7 5 1
02/13/06 9:07 a -11.4 -11.3 -11.4 --- --- 20.0 ESE 0.33 22.6 -22.2 --- --- 719.9 0.021 0.000 9.7 5 1
02/13/06 9:08 a -11.4 -11.4 -11.4 --- --- 20.9 ESE 0.35 22.6 -22.4 --- --- 720.0 0.021 0.000 9.6 5 1
02/13/06 9:09 a -11.4 -11.4 -11.4 --- --- 20.0 ESE 0.33 20.9 -22.2 --- --- 720.0 0.021 0.000 9.6 5 1
02/13/06 9:10 a -11.4 -11.4 -11.4 --- --- 20.0 ESE 0.33 20.9 -22.2 --- --- 720.1 0.021 0.000 9.6 5 1
02/13/06 9:11 a -11.4 -11.4 -11.4 --- --- 18.3 ESE 0.30 20.0 -21.8 --- --- 720.1 0.021 0.000 9.6 5 1
02/13/06 9:12 a -11.4 -11.4 -11.4 --- --- 18.3 ESE 0.30 19.1 -21.8 --- --- 720.1 0.021 0.000 9.6 5 1
02/13/06 9:13 a -11.4 -11.4 -11.5 --- --- 17.4 ESE 0.29 18.3 -21.6 --- --- 720.1 0.021 0.000 9.6 5 1
02/13/06 9:14 a -11.5 -11.5 -11.6 --- --- 17.4 ESE 0.29 20.0 -21.7 --- --- 720.0 0.021 0.000 9.6 5 1
02/13/06 9:15 a -11.6 -11.5 -11.6 --- --- 19.1 ESE 0.32 20.9 -22.2 --- --- 720.0 0.021 0.000 9.6 5 1
02/13/06 9:16 a -11.6 -11.5 -11.6 --- --- 18.3 ESE 0.30 20.0 -22.0 --- --- 720.0 0.021 0.000 9.6 5 1
02/13/06 9:17 a -11.6 -11.5 -11.6 --- --- 18.3 ESE 0.30 20.0 -22.0 --- --- 720.1 0.021 0.000 9.6 5 1
02/13/06 9:18 a -11.5 -11.5 -11.6 --- --- 17.4 ESE 0.29 20.0 -21.7 --- --- 720.0 0.021 0.000 9.6 5 1
02/13/06 9:19 a -11.6 -11.6 -11.6 --- --- 18.3 E 0.30 21.7 -22.0 --- --- 720.0 0.021 0.000 9.6 5 1
02/13/06 9:20 a -11.6 -11.6 -11.6 --- --- 17.4 E 0.29 20.0 -21.8 --- --- 720.0 0.021 0.000 9.6 5 1
02/13/06 9:21 a -11.6 -11.6 -11.6 --- --- 18.3 E 0.30 21.7 -22.1 --- --- 719.9 0.021 0.000 9.7 5 1
02/13/06 9:22 a -11.6 -11.6 -11.6 --- --- 19.1 ESE 0.32 20.9 -22.3 --- --- 719.9 0.021 0.000 9.7 5 1
02/13/06 9:23 a -11.6 -11.6 -11.6 --- --- 20.0 ESE 0.33 22.6 -22.5 --- --- 719.9 0.021 0.000 9.7 5 1
02/13/06 9:24 a -11.6 -11.6 -11.6 --- --- 20.9 ESE 0.35 23.5 -22.6 --- --- 720.0 0.021 0.000 9.7 5 1
02/13/06 9:25 a -11.6 -11.6 -11.6 --- --- 20.0 ESE 0.33 22.6 -22.4 --- --- 719.9 0.021 0.000 9.7 5 1
02/13/06 9:26 a -11.6 -11.6 -11.6 --- --- 20.0 ESE 0.33 23.5 -22.4 --- --- 719.9 0.021 0.000 9.6 5 1
02/13/06 9:27 a -11.6 -11.6 -11.6 --- --- 20.9 ESE 0.35 22.6 -22.6 --- --- 719.8 0.021 0.000 9.6 5 1
02/13/06 9:28 a -11.6 -11.6 -11.6 --- --- 20.9 ESE 0.35 22.6 -22.6 --- --- 719.9 0.021 0.000 9.6 5 1
02/13/06 9:29 a -11.6 -11.5 -11.6 --- --- 21.7 ESE 0.36 26.1 -22.8 --- --- 720.0 0.021 0.000 9.6 5 1
02/13/06 9:30 a -11.6 -11.6 -11.6 --- --- 22.6 ESE 0.38 26.1 -22.9 --- --- 719.8 0.021 0.000 9.6 5 1
02/13/06 9:31 a -11.6 -11.5 -11.6 --- --- 21.7 ESE 0.36 26.1 -22.8 --- --- 719.8 0.021 0.000 9.6 5 1
02/13/06 9:32 a -11.5 -11.5 -11.6 --- --- 21.7 ESE 0.36 23.5 -22.7 --- --- 719.7 0.021 0.000 9.6 5 1
02/13/06 9:33 a -11.5 -11.5 -11.6 --- --- 22.6 ESE 0.38 24.3 -22.9 --- --- 719.8 0.021 0.000 9.6 5 1
02/13/06 9:34 a -11.5 -11.4 -11.5 --- --- 21.7 ESE 0.36 23.5 -22.7 --- --- 719.8 0.021 0.000 9.6 5 1
02/13/06 9:35 a -11.4 -11.4 -11.5 --- --- 20.9 ESE 0.35 21.7 -22.4 --- --- 719.8 0.021 0.000 9.6 5 1
02/13/06 9:36 a -11.5 -11.5 -11.6 --- --- 21.7 ESE 0.36 27.0 -22.7 --- --- 719.8 0.021 0.000 9.6 5 1
02/13/06 9:37 a -11.5 -11.5 -11.6 --- --- 20.0 ESE 0.33 22.6 -22.3 --- --- 719.7 0.021 0.000 9.6 5 1
02/13/06 9:38 a -11.6 -11.6 -11.6 --- --- 20.9 ESE 0.35 24.3 -22.6 --- --- 719.9 0.021 0.000 9.6 5 1
02/13/06 9:39 a -11.6 -11.5 -11.6 --- --- 20.0 ESE 0.33 22.6 -22.4 --- --- 719.8 0.021 0.000 9.6 5 1
02/13/06 9:40 a -11.6 -11.6 -11.6 --- --- 20.9 ESE 0.35 24.3 -22.6 --- --- 719.8 0.021 0.000 9.6 5 1
02/13/06 9:41 a -11.6 -11.6 -11.6 --- --- 21.7 ESE 0.36 23.5 -22.8 --- --- 719.8 0.021 0.000 9.6 5 1
02/13/06 9:42 a -11.6 -11.6 -11.6 --- --- 20.9 ESE 0.35 22.6 -22.6 --- --- 719.8 0.021 0.000 9.6 5 1
02/13/06 9:43 a -11.6 -11.6 -11.6 --- --- 20.0 ESE 0.33 21.7 -22.4 --- --- 719.9 0.021 0.000 9.6 5 1
02/13/06 9:44 a -11.6 -11.5 -11.6 --- --- 19.1 ESE 0.32 22.6 -22.2 --- --- 719.9 0.021 0.000 9.6 5 1
02/13/06 9:45 a -11.6 -11.6 -11.6 --- --- 20.9 ESE 0.35 23.5 -22.6 --- --- 719.8 0.021 0.000 9.6 5 1
02/13/06 9:46 a -11.6 -11.5 -11.6 --- --- 21.7 ESE 0.36 23.5 -22.8 --- --- 719.8 0.021 0.000 9.6 5 1
02/13/06 9:47 a -11.6 -11.6 -11.6 --- --- 20.0 ESE 0.33 22.6 -22.4 --- --- 719.9 0.021 0.000 9.6 5 1
02/13/06 9:48 a -11.6 -11.5 -11.6 --- --- 19.1 E 0.32 21.7 -22.2 --- --- 719.9 0.021 0.000 9.6 5 1
02/13/06 9:49 a -11.6 -11.6 -11.6 --- --- 17.4 ESE 0.29 20.0 -21.8 --- --- 719.9 0.021 0.000 9.6 5 1
02/13/06 9:50 a -11.6 -11.5 -11.6 --- --- 15.7 E 0.26 17.4 -21.3 --- --- 720.0 0.021 0.000 9.6 5 1
02/13/06 9:51 a -11.6 -11.5 -11.6 --- --- 18.3 ESE 0.30 20.0 -22.0 --- --- 719.9 0.021 0.000 9.6 5 1
02/13/06 9:52 a -11.6 -11.6 -11.6 --- --- 18.3 ESE 0.30 22.6 -22.0 --- --- 719.9 0.021 0.000 9.6 5 1
02/13/06 9:53 a -11.6 -11.5 -11.6 --- --- 19.1 E 0.32 21.7 -22.2 --- --- 719.9 0.021 0.000 9.6 5 1
02/13/06 9:54 a -11.6 -11.6 -11.6 --- --- 18.3 ESE 0.30 20.0 -22.0 --- --- 720.0 0.021 0.000 9.6 5 1
02/13/06 9:55 a -11.6 -11.6 -11.7 --- --- 18.3 ESE 0.30 20.0 -22.1 --- --- 720.0 0.021 0.000 9.6 5 1
02/13/06 9:56 a -11.7 -11.7 -11.7 --- --- 17.4 ESE 0.29 19.1 -21.9 --- --- 720.0 0.021 0.000 9.6 5 1
02/13/06 9:57 a -11.7 -11.7 -11.7 --- --- 17.4 E 0.29 19.1 -21.9 --- --- 719.9 0.021 0.000 9.6 5 1
02/13/06 9:58 a -11.7 -11.7 -11.7 --- --- 17.4 E 0.29 20.0 -22.0 --- --- 719.9 0.021 0.000 9.6 5 1
02/13/06 9:59 a -11.8 -11.7 -11.8 --- --- 16.5 E 0.28 19.1 -21.8 --- --- 719.9 0.021 0.000 9.6 5 1
02/13/06 10:00 a -11.8 -11.7 -11.8 --- --- 17.4 ESE 0.29 20.0 -22.1 --- --- 719.8 0.021 0.000 9.6 5 1
02/13/06 10:01 a -11.8 -11.8 -11.8 --- --- 19.1 E 0.32 20.9 -22.5 --- --- 719.9 0.021 0.000 9.6 5 1
02/13/06 10:02 a -11.8 -11.8 -11.8 --- --- 17.4 E 0.29 20.9 -22.2 --- --- 719.9 0.021 0.000 9.6 5 1
02/13/06 10:03 a -11.9 -11.8 -11.9 --- --- 19.1 ESE 0.32 21.7 -22.7 --- --- 719.8 0.021 0.000 9.6 5 1
02/13/06 10:04 a -11.9 -11.8 -11.9 --- --- 18.3 E 0.30 20.9 -22.4 --- --- 719.9 0.021 0.000 9.6 5 1
02/13/06 10:05 a -11.9 -11.8 -11.9 --- --- 19.1 E 0.32 21.7 -22.7 --- --- 719.9 0.021 0.000 9.6 5 1
02/13/06 10:06 a -11.9 -11.9 -11.9 --- --- 19.1 E 0.32 21.7 -22.7 --- --- 719.8 0.021 0.000 9.6 5 1
02/13/06 10:07 a -11.9 -11.9 -12.0 --- --- 17.4 E 0.29 19.1 -22.3 --- --- 719.8 0.021 0.000 9.6 5 1
02/13/06 10:08 a -11.9 -11.9 -11.9 --- --- 18.3 E 0.30 20.0 -22.4 --- --- 719.9 0.021 0.000 9.6 5 1
02/13/06 10:09 a -11.9 -11.9 -12.0 --- --- 18.3 E 0.30 24.3 -22.5 --- --- 719.9 0.021 0.000 9.6 5 1
02/13/06 10:10 a -12.0 -12.0 -12.0 --- --- 16.5 E 0.28 18.3 -22.1 --- --- 719.9 0.021 0.000 9.6 5 1
02/13/06 10:11 a -12.0 -11.9 -12.0 --- --- 18.3 E 0.30 23.5 -22.6 --- --- 719.8 0.021 0.000 9.6 5 1
02/13/06 10:12 a -11.9 -11.9 -12.0 --- --- 15.7 E 0.26 17.4 -21.8 --- --- 720.0 0.021 0.000 9.6 5 1
02/13/06 10:13 a -12.0 -11.9 -12.1 --- --- 17.4 E 0.29 19.1 -22.4 --- --- 719.9 0.021 0.000 9.6 5 1
02/13/06 10:14 a -12.1 -12.0 -12.1 --- --- 14.8 E 0.25 17.4 -21.7 --- --- 719.9 0.021 0.000 9.6 5 1
02/13/06 10:15 a -12.1 -12.1 -12.1 --- --- 14.8 E 0.25 16.5 -21.8 --- --- 719.9 0.021 0.000 9.6 5 1
02/13/06 10:16 a -12.1 -12.1 -12.1 --- --- 13.0 E 0.22 15.7 -21.2 --- --- 720.0 0.021 0.000 9.6 5 1
02/13/06 10:17 a -12.2 -12.1 -12.2 --- --- 13.0 E 0.22 15.7 -21.3 --- --- 720.0 0.021 0.000 9.6 5 1
02/13/06 10:18 a -12.2 -12.2 -12.2 --- --- 13.9 E 0.23 16.5 -21.6 --- --- 719.9 0.021 0.000 9.6 5 1
02/13/06 10:19 a -12.2 -12.2 -12.3 --- --- 13.9 E 0.23 16.5 -21.7 --- --- 720.1 0.021 0.000 9.6 5 1
02/13/06 10:20 a -12.3 -12.3 -12.4 --- --- 13.9 E 0.23 14.8 -21.8 --- --- 719.9 0.021 0.000 9.6 5 1
02/13/06 10:21 a -12.5 -12.4 -12.6 --- --- 13.0 E 0.22 15.7 -21.7 --- --- 720.0 0.021 0.000 9.6 5 1
02/13/06 10:22 a -12.6 -12.6 -12.6 --- --- 13.0 E 0.22 14.8 -21.8 --- --- 720.0 0.021 0.000 9.6 5 1
02/13/06 10:23 a -12.7 -12.6 -12.7 --- --- 14.8 E 0.25 16.5 -22.5 --- --- 720.1 0.022 0.000 9.6 5 1
02/13/06 10:24 a -12.7 -12.7 -12.7 --- --- 13.9 E 0.23 15.7 -22.2 --- --- 720.0 0.022 0.000 9.6 5 1
02/13/06 10:25 a -12.7 -12.7 -12.7 --- --- 14.8 E 0.25 16.5 -22.5 --- --- 720.0 0.022 0.000 9.7 5 1
02/13/06 10:26 a -12.7 -12.7 -12.7 --- --- 13.9 E 0.23 15.7 -22.2 --- --- 720.0 0.022 0.000 9.7 5 1
02/13/06 10:27 a -12.7 -12.7 -12.7 --- --- 13.9 E 0.23 14.8 -22.3 --- --- 720.0 0.022 0.000 9.7 5 1
02/13/06 10:28 a -12.7 -12.7 -12.8 --- --- 13.9 E 0.23 16.5 -22.3 --- --- 719.9 0.022 0.000 9.7 5 1
02/13/06 10:29 a -12.8 -12.7 -12.8 --- --- 15.7 E 0.26 18.3 -22.9 --- --- 720.0 0.022 0.000 9.7 5 1
02/13/06 10:30 a -12.8 -12.8 -12.8 --- --- 13.9 E 0.23 14.8 -22.4 --- --- 720.1 0.022 0.000 9.7 5 1
02/13/06 10:31 a -12.8 -12.7 -12.8 --- --- 13.9 E 0.23 14.8 -22.4 --- --- 720.0 0.022 0.000 9.7 5 1
02/13/06 10:32 a -12.8 -12.8 -12.8 --- --- 14.8 E 0.25 16.5 -22.7 --- --- 720.0 0.022 0.000 9.7 5 1
02/13/06 10:33 a -12.8 -12.8 -12.8 --- --- 14.8 E 0.25 16.5 -22.7 --- --- 720.2 0.022 0.000 9.7 5 1
02/13/06 10:34 a -12.8 -12.8 -12.8 --- --- 12.2 E 0.20 14.8 -21.8 --- --- 720.0 0.022 0.000 9.7 5 1
02/13/06 10:35 a -12.8 -12.8 -12.8 --- --- 13.9 E 0.23 17.4 -22.4 --- --- 720.0 0.022 0.000 9.7 5 1
02/13/06 10:36 a -12.8 -12.8 -12.8 --- --- 14.8 E 0.25 16.5 -22.7 --- --- 720.0 0.022 0.000 9.7 5 1
02/13/06 10:37 a -12.8 -12.8 -12.8 --- --- 14.8 E 0.25 16.5 -22.7 --- --- 720.1 0.022 0.000 9.7 5 1
02/13/06 10:38 a -12.8 -12.8 -12.8 --- --- 14.8 E 0.25 16.5 -22.7 --- --- 720.0 0.022 0.000 9.7 5 1
02/13/06 10:39 a -12.8 -12.8 -12.8 --- --- 13.9 E 0.23 16.5 -22.4 --- --- 720.0 0.022 0.000 9.7 5 1
02/13/06 10:40 a -12.8 -12.8 -12.9 --- --- 13.9 E 0.23 15.7 -22.4 --- --- 720.0 0.022 0.000 9.7 5 1
02/13/06 10:41 a -12.9 -12.9 -12.9 --- --- 14.8 ENE 0.25 16.5 -22.8 --- --- 720.0 0.022 0.000 9.7 5 1
02/13/06 10:42 a -12.9 -12.9 -12.9 --- --- 13.9 E 0.23 15.7 -22.5 --- --- 720.0 0.022 0.000 9.7 5 1
02/13/06 10:43 a -12.9 -12.9 -13.0 --- --- 14.8 E 0.25 15.7 -22.9 --- --- 720.1 0.022 0.000 9.7 5 1
02/13/06 10:44 a -13.0 -13.0 -13.1 --- --- 13.9 E 0.23 14.8 -22.7 --- --- 720.1 0.022 0.000 9.7 5 1
02/13/06 10:45 a -13.1 -13.0 -13.1 --- --- 13.9 E 0.23 16.5 -22.7 --- --- 720.1 0.022 0.000 9.7 5 1
02/13/06 10:46 a -13.2 -13.1 -13.2 --- --- 14.8 E 0.25 16.5 -23.2 --- --- 720.1 0.022 0.000 9.7 5 1
02/13/06 10:47 a -13.2 -13.2 -13.2 --- --- 13.9 ENE 0.23 15.7 -22.9 --- --- 720.1 0.022 0.000 9.7 5 1
02/13/06 10:48 a -13.2 -13.2 -13.3 --- --- 13.9 E 0.23 15.7 -22.9 --- --- 720.1 0.022 0.000 9.7 5 1
02/13/06 10:49 a -13.3 -13.3 -13.3 --- --- 14.8 E 0.25 16.5 -23.3 --- --- 720.0 0.022 0.000 9.7 5 1
02/13/06 10:50 a -13.3 -13.3 -13.3 --- --- 14.8 E 0.25 16.5 -23.3 --- --- 720.1 0.022 0.000 9.7 5 1
02/13/06 10:51 a -13.3 -13.3 -13.3 --- --- 13.9 E 0.23 15.7 -23.0 --- --- 720.0 0.022 0.000 9.7 5 1
02/13/06 10:52 a -13.3 -13.3 -13.3 --- --- 14.8 E 0.25 15.7 -23.4 --- --- 720.0 0.022 0.000 9.7 5 1
02/13/06 10:53 a -13.3 -13.3 -13.3 --- --- 13.9 E 0.23 15.7 -23.1 --- --- 720.1 0.022 0.000 9.7 5 1
02/13/06 10:54 a -13.3 -13.3 -13.3 --- --- 14.8 E 0.25 17.4 -23.4 --- --- 720.1 0.022 0.000 9.7 5 1
02/13/06 10:55 a -13.3 -13.3 -13.3 --- --- 15.7 E 0.26 16.5 -23.6 --- --- 720.1 0.022 0.000 9.7 5 1
02/13/06 10:56 a -13.3 -13.3 -13.3 --- --- 15.7 ENE 0.26 17.4 -23.6 --- --- 720.0 0.022 0.000 9.7 5 1
02/13/06 10:57 a -13.3 -13.3 -13.3 --- --- 13.9 E 0.23 15.7 -23.0 --- --- 720.1 0.022 0.000 9.7 5 1
02/13/06 10:58 a -13.3 -13.3 -13.3 --- --- 14.8 E 0.25 16.5 -23.3 --- --- 720.1 0.022 0.000 9.7 5 1
02/13/06 10:59 a -13.3 -13.3 -13.3 --- --- 13.9 E 0.23 15.7 -23.0 --- --- 720.0 0.022 0.000 9.7 5 1
02/13/06 11:00 a -13.3 -13.3 -13.3 --- --- 13.9 E 0.23 16.5 -23.0 --- --- 720.1 0.022 0.000 9.7 5 1
02/13/06 11:01 a -13.3 -13.3 -13.3 --- --- 12.2 E 0.20 13.9 -22.4 --- --- 720.0 0.022 0.000 9.7 5 1
02/13/06 11:02 a -13.3 -13.3 -13.3 --- --- 13.9 E 0.23 14.8 -23.0 --- --- 720.1 0.022 0.000 9.7 5 1
02/13/06 11:03 a -13.3 -13.3 -13.3 --- --- 13.0 E 0.22 13.9 -22.8 --- --- 720.1 0.022 0.000 9.7 5 1
02/13/06 11:04 a -13.3 -13.3 -13.3 --- --- 13.0 E 0.22 15.7 -22.8 --- --- 720.1 0.022 0.000 9.7 5 1
02/13/06 11:05 a -13.3 -13.3 -13.3 --- --- 13.9 E 0.23 14.8 -23.1 --- --- 720.1 0.022 0.000 9.7 5 1
02/13/06 11:06 a -13.4 -13.3 -13.4 --- --- 14.8 E 0.25 15.7 -23.4 --- --- 720.1 0.022 0.000 9.7 5 1
02/13/06 11:07 a -13.4 -13.4 -13.4 --- --- 13.9 E 0.23 15.7 -23.2 --- --- 720.1 0.022 0.000 9.7 5 1
02/13/06 11:08 a -13.4 -13.4 -13.4 --- --- 13.9 E 0.23 15.7 -23.2 --- --- 720.1 0.022 0.000 9.7 5 1
02/13/06 11:09 a -13.4 -13.4 -13.4 --- --- 13.9 E 0.23 14.8 -23.2 --- --- 720.1 0.022 0.000 9.7 5 1
02/13/06 11:10 a -13.4 -13.4 -13.4 --- --- 15.7 ENE 0.26 16.5 -23.7 --- --- 720.1 0.022 0.000 9.7 5 1
02/13/06 11:11 a -13.4 -13.4 -13.4 --- --- 15.7 ENE 0.26 16.5 -23.7 --- --- 720.1 0.022 0.000 9.7 5 1
02/13/06 11:12 a -13.4 -13.4 -13.4 --- --- 14.8 ENE 0.25 15.7 -23.4 --- --- 720.2 0.022 0.000 9.7 5 1
02/13/06 11:13 a -13.4 -13.4 -13.4 --- --- 14.8 ENE 0.25 16.5 -23.5 --- --- 720.2 0.022 0.000 9.7 5 1
02/13/06 11:14 a -13.4 -13.4 -13.4 --- --- 14.8 ENE 0.25 15.7 -23.4 --- --- 720.3 0.022 0.000 9.7 5 1
02/13/06 11:15 a -13.4 -13.4 -13.4 --- --- 14.8 ENE 0.25 15.7 -23.4 --- --- 720.2 0.022 0.000 9.7 5 1
02/13/06 11:16 a -13.4 -13.4 -13.4 --- --- 15.7 ENE 0.26 16.5 -23.8 --- --- 720.2 0.022 0.000 9.7 5 1
02/13/06 11:17 a -13.4 -13.4 -13.4 --- --- 15.7 ENE 0.26 16.5 -23.8 --- --- 720.2 0.022 0.000 9.7 5 1
02/13/06 11:18 a -13.4 -13.4 -13.4 --- --- 15.7 ENE 0.26 17.4 -23.7 --- --- 720.1 0.022 0.000 9.7 5 1
02/13/06 11:19 a -13.4 -13.3 -13.4 --- --- 15.7 ENE 0.26 17.4 -23.7 --- --- 720.1 0.022 0.000 9.7 5 1
02/13/06 11:20 a -13.3 -13.3 -13.3 --- --- 15.7 ENE 0.26 16.5 -23.6 --- --- 720.2 0.022 0.000 9.7 5 1
02/13/06 11:21 a -13.3 -13.2 -13.3 --- --- 15.7 ENE 0.26 16.5 -23.6 --- --- 720.1 0.022 0.000 9.7 5 1
02/13/06 11:22 a -13.2 -13.2 -13.3 --- --- 14.8 ENE 0.25 16.5 -23.2 --- --- 720.3 0.022 0.000 9.7 5 1
02/13/06 11:23 a -13.2 -13.2 -13.2 --- --- 14.8 ENE 0.25 16.5 -23.2 --- --- 720.2 0.022 0.000 9.7 5 1
02/13/06 11:24 a -13.2 -13.2 -13.2 --- --- 15.7 ENE 0.26 16.5 -23.5 --- --- 720.2 0.022 0.000 9.7 5 1
02/13/06 11:25 a -13.2 -13.2 -13.2 --- --- 15.7 ENE 0.26 16.5 -23.4 --- --- 720.1 0.022 0.000 9.7 5 1
02/13/06 11:26 a -13.2 -13.1 -13.2 --- --- 15.7 ENE 0.26 16.5 -23.4 --- --- 720.2 0.022 0.000 9.7 5 1
02/13/06 11:27 a -13.1 -13.1 -13.1 --- --- 15.7 ENE 0.26 16.5 -23.3 --- --- 720.2 0.022 0.000 9.7 5 1
02/13/06 11:28 a -13.1 -13.1 -13.1 --- --- 14.8 ENE 0.25 15.7 -23.1 --- --- 720.2 0.022 0.000 9.7 5 1
02/13/06 11:29 a -13.1 -13.0 -13.1 --- --- 14.8 ENE 0.25 16.5 -23.0 --- --- 720.2 0.022 0.000 9.7 5 1
02/13/06 11:30 a -13.0 -12.9 -13.0 --- --- 14.8 ENE 0.25 15.7 -22.9 --- --- 720.2 0.022 0.000 9.7 5 1
02/13/06 11:31 a -12.9 -12.9 -13.0 --- --- 14.8 ENE 0.25 15.7 -22.9 --- --- 720.2 0.022 0.000 9.7 5 1
02/13/06 11:32 a -12.9 -12.9 -12.9 --- --- 14.8 ENE 0.25 15.7 -22.8 --- --- 720.2 0.022 0.000 9.7 5 1
02/13/06 11:33 a -12.9 -12.8 -12.9 --- --- 15.7 ENE 0.26 15.7 -23.1 --- --- 720.1 0.022 0.000 9.7 5 1
02/13/06 11:34 a -12.8 -12.8 -12.8 --- --- 15.7 ENE 0.26 16.5 -23.0 --- --- 720.2 0.022 0.000 9.7 5 1
02/13/06 11:35 a -12.8 -12.7 -12.8 --- --- 15.7 ENE 0.26 16.5 -22.9 --- --- 720.2 0.022 0.000 9.7 5 1
02/13/06 11:36 a -12.7 -12.7 -12.7 --- --- 14.8 ENE 0.25 15.7 -22.5 --- --- 720.2 0.022 0.000 9.7 5 1
02/13/06 11:37 a -12.6 -12.6 -12.7 --- --- 15.7 ENE 0.26 16.5 -22.7 --- --- 720.2 0.021 0.000 9.7 5 1
02/13/06 11:38 a -12.6 -12.5 -12.6 --- --- 15.7 ENE 0.26 16.5 -22.6 --- --- 720.3 0.021 0.000 9.7 5 1
02/13/06 11:39 a -12.5 -12.4 -12.5 --- --- 15.7 ENE 0.26 16.5 -22.6 --- --- 720.3 0.021 0.000 9.7 5 1
02/13/06 11:40 a -12.4 -12.4 -12.4 --- --- 15.7 ENE 0.26 16.5 -22.4 --- --- 720.2 0.021 0.000 9.7 5 1
02/13/06 11:41 a -12.4 -12.4 -12.4 --- --- 14.8 ENE 0.25 15.7 -22.2 --- --- 720.3 0.021 0.000 9.7 5 1
02/13/06 11:42 a -12.3 -12.3 -12.3 --- --- 14.8 ENE 0.25 15.7 -22.1 --- --- 720.2 0.021 0.000 9.7 5 1
02/13/06 11:43 a -12.3 -12.2 -12.3 --- --- 14.8 ENE 0.25 15.7 -22.0 --- --- 720.2 0.021 0.000 9.7 5 1
02/13/06 11:44 a -12.2 -12.2 -12.3 --- --- 13.9 ENE 0.23 15.7 -21.7 --- --- 720.2 0.021 0.000 9.7 5 1
02/13/06 11:45 a -12.2 -12.1 -12.2 --- --- 13.9 ENE 0.23 14.8 -21.6 --- --- 720.3 0.021 0.000 9.7 5 1
02/13/06 11:46 a -12.1 -12.1 -12.1 --- --- 13.9 ENE 0.23 14.8 -21.5 --- --- 720.3 0.021 0.000 9.7 5 1
02/13/06 11:47 a -12.1 -12.1 -12.1 --- --- 13.9 ENE 0.23 15.7 -21.4 --- --- 720.2 0.021 0.000 9.7 5 1
02/13/06 11:48 a -12.0 -12.0 -12.1 --- --- 14.8 ENE 0.25 15.7 -21.7 --- --- 720.2 0.021 0.000 9.7 5 1
02/13/06 11:49 a -11.9 -11.9 -12.0 --- --- 13.9 ENE 0.23 14.8 -21.3 --- --- 720.3 0.021 0.000 9.7 5 1
02/13/06 11:50 a -11.9 -11.9 -11.9 --- --- 13.9 ENE 0.23 14.8 -21.3 --- --- 720.3 0.021 0.000 9.7 5 1
02/13/06 11:51 a -11.9 -11.8 -11.9 --- --- 13.0 ENE 0.22 14.8 -20.9 --- --- 720.3 0.021 0.000 9.7 5 1
02/13/06 11:52 a -11.8 -11.8 -11.9 --- --- 13.0 ENE 0.22 14.8 -20.9 --- --- 720.3 0.021 0.000 9.7 5 1
02/13/06 11:53 a -11.8 -11.8 -11.8 --- --- 13.0 ENE 0.22 14.8 -20.9 --- --- 720.3 0.021 0.000 9.7 5 1
02/13/06 11:54 a -11.8 -11.7 -11.8 --- --- 13.0 ENE 0.22 13.9 -20.8 --- --- 720.3 0.021 0.000 9.7 5 1
02/13/06 11:55 a -11.7 -11.7 -11.7 --- --- 12.2 ENE 0.20 13.9 -20.4 --- --- 720.4 0.021 0.000 9.7 5 1
02/13/06 11:56 a -11.7 -11.7 -11.7 --- --- 12.2 ENE 0.20 13.0 -20.4 --- --- 720.4 0.021 0.000 9.7 5 1
02/13/06 11:57 a -11.7 -11.7 -11.7 --- --- 12.2 ENE 0.20 13.0 -20.4 --- --- 720.4 0.021 0.000 9.7 5 1
02/13/06 11:58 a -11.7 -11.6 -11.7 --- --- 11.3 ENE 0.19 12.2 -20.1 --- --- 720.4 0.021 0.000 9.7 5 1
02/13/06 11:59 a -11.7 -11.6 -11.7 --- --- 11.3 ENE 0.19 12.2 -20.1 --- --- 720.4 0.021 0.000 9.7 5 1
02/13/06 12:00 p -11.6 -11.6 -11.7 --- --- 12.2 ENE 0.20 12.2 -20.3 --- --- 720.3 0.021 0.000 9.7 5 1
02/13/06 12:01 p -11.6 -11.6 -11.6 --- --- 11.3 ENE 0.19 12.2 -20.0 --- --- 720.4 0.021 0.000 9.7 4 1
02/13/06 12:02 p -11.6 -11.6 -11.6 --- --- 11.3 ENE 0.19 12.2 -20.0 --- --- 720.3 0.021 0.000 9.7 5 1
02/13/06 12:03 p -11.6 -11.6 -11.6 --- --- 11.3 ENE 0.19 13.0 -19.9 --- --- 720.3 0.021 0.000 9.7 5 1
02/13/06 12:04 p -11.6 -11.6 -11.6 --- --- 11.3 ENE 0.19 13.0 -19.9 --- --- 720.3 0.021 0.000 9.7 5 1
02/13/06 12:05 p -11.6 -11.6 -11.6 --- --- 11.3 ENE 0.19 12.2 -19.9 --- --- 720.3 0.021 0.000 9.7 5 1
02/13/06 12:06 p -11.6 -11.6 -11.6 --- --- 10.4 ENE 0.17 12.2 -19.6 --- --- 720.3 0.021 0.000 9.7 5 1
02/13/06 12:07 p -11.6 -11.5 -11.6 --- --- 11.3 ENE 0.19 12.2 -19.9 --- --- 720.4 0.021 0.000 9.7 5 1
02/13/06 12:08 p -11.6 -11.6 -11.6 --- --- 10.4 E 0.17 11.3 -19.6 --- --- 720.3 0.021 0.000 9.7 5 1
02/13/06 12:09 p -11.6 -11.6 -11.6 --- --- 8.7 E 0.14 10.4 -18.9 --- --- 720.4 0.021 0.000 9.7 5 1
02/13/06 12:10 p -11.6 -11.6 -11.6 --- --- 8.7 E 0.14 10.4 -18.9 --- --- 720.3 0.021 0.000 9.7 5 1
02/13/06 12:11 p -11.6 -11.6 -11.6 --- --- 8.7 E 0.14 9.6 -18.9 --- --- 720.3 0.021 0.000 9.7 5 1
02/13/06 12:12 p -11.6 -11.6 -11.6 --- --- 8.7 E 0.14 9.6 -18.9 --- --- 720.3 0.021 0.000 9.7 5 1
02/13/06 12:13 p -11.6 -11.6 -11.6 --- --- 8.7 E 0.14 10.4 -18.9 --- --- 720.3 0.021 0.000 9.7 5 1
02/13/06 12:14 p -11.6 -11.6 -11.7 --- --- 9.6 E 0.16 10.4 -19.3 --- --- 720.4 0.021 0.000 9.7 5 1
02/13/06 12:15 p -11.6 -11.6 -11.7 --- --- 9.6 E 0.16 10.4 -19.3 --- --- 720.3 0.021 0.000 9.7 5 1
02/13/06 12:16 p -11.7 -11.6 -11.7 --- --- 8.7 E 0.14 10.4 -19.0 --- --- 720.3 0.021 0.000 9.7 5 1
02/13/06 12:17 p -11.7 -11.7 -11.7 --- --- 8.7 E 0.14 10.4 -19.0 --- --- 720.3 0.021 0.000 9.8 5 1
02/13/06 12:18 p -11.7 -11.7 -11.7 --- --- 8.7 E 0.14 9.6 -19.0 --- --- 720.3 0.021 0.000 9.8 5 1
02/13/06 12:19 p -11.7 -11.7 -11.8 --- --- 8.7 E 0.14 10.4 -19.1 --- --- 720.3 0.021 0.000 9.8 5 1
02/13/06 12:20 p -11.8 -11.7 -11.8 --- --- 10.4 E 0.17 11.3 -19.9 --- --- 720.3 0.021 0.000 9.8 5 1
02/13/06 12:21 p -11.8 -11.8 -11.8 --- --- 9.6 E 0.16 11.3 -19.5 --- --- 720.3 0.021 0.000 9.8 5 1
02/13/06 12:22 p -11.8 -11.8 -11.8 --- --- 9.6 E 0.16 10.4 -19.5 --- --- 720.3 0.021 0.000 9.8 5 1
02/13/06 12:23 p -11.8 -11.8 -11.8 --- --- 9.6 E 0.16 11.3 -19.5 --- --- 720.3 0.021 0.000 9.8 5 1
02/13/06 12:24 p -11.8 -11.8 -11.8 --- --- 10.4 E 0.17 11.3 -19.9 --- --- 720.2 0.021 0.000 9.8 5 1
02/13/06 12:25 p -11.8 -11.8 -11.8 --- --- 10.4 E 0.17 13.0 -19.9 --- --- 720.3 0.021 0.000 9.7 5 1
02/13/06 12:26 p -11.8 -11.8 -11.8 --- --- 11.3 E 0.19 12.2 -20.2 --- --- 720.3 0.021 0.000 9.7 5 1
02/13/06 12:27 p -11.8 -11.8 -11.8 --- --- 9.6 E 0.16 11.3 -19.6 --- --- 720.2 0.021 0.000 9.7 5 1
02/13/06 12:28 p -11.8 -11.8 -11.9 --- --- 10.4 E 0.17 12.2 -19.9 --- --- 720.2 0.021 0.000 9.8 5 1
02/13/06 12:29 p -11.9 -11.8 -11.9 --- --- 10.4 E 0.17 10.4 -20.0 --- --- 720.2 0.021 0.000 9.8 5 1
02/13/06 12:30 p -11.9 -11.9 -11.9 --- --- 9.6 E 0.16 11.3 -19.7 --- --- 720.2 0.021 0.000 9.8 5 1
02/13/06 12:31 p -11.9 -11.9 -12.0 --- --- 10.4 E 0.17 12.2 -20.1 --- --- 720.2 0.021 0.000 9.8 5 1
02/13/06 12:32 p -12.0 -12.0 -12.0 --- --- 10.4 E 0.17 12.2 -20.2 --- --- 720.1 0.021 0.000 9.8 5 1
02/13/06 12:33 p -12.0 -12.0 -12.1 --- --- 10.4 E 0.17 12.2 -20.2 --- --- 720.3 0.021 0.000 9.8 5 1
02/13/06 12:34 p -12.1 -12.0 -12.1 --- --- 10.4 E 0.17 12.2 -20.2 --- --- 720.2 0.021 0.000 9.7 5 1
02/13/06 12:35 p -12.1 -12.1 -12.1 --- --- 10.4 E 0.17 12.2 -20.3 --- --- 720.2 0.021 0.000 9.7 5 1
02/13/06 12:36 p -12.1 -12.1 -12.2 --- --- 10.4 E 0.17 12.2 -20.3 --- --- 720.3 0.021 0.000 9.7 5 1
02/13/06 12:37 p -12.2 -12.1 -12.2 --- --- 10.4 E 0.17 12.2 -20.4 --- --- 720.3 0.021 0.000 9.8 5 1
02/13/06 12:38 p -12.2 -12.2 -12.2 --- --- 11.3 ENE 0.19 12.2 -20.7 --- --- 720.3 0.021 0.000 9.8 5 1
02/13/06 12:39 p -12.2 -12.2 -12.3 --- --- 12.2 ENE 0.20 13.9 -21.1 --- --- 720.2 0.021 0.000 9.8 5 1
02/13/06 12:40 p -12.3 -12.3 -12.3 --- --- 11.3 ENE 0.19 13.0 -20.8 --- --- 720.2 0.021 0.000 9.7 5 1
02/13/06 12:41 p -12.3 -12.3 -12.3 --- --- 12.2 ENE 0.20 13.0 -21.2 --- --- 720.2 0.021 0.000 9.7 5 1
02/13/06 12:42 p -12.4 -12.3 -12.4 --- --- 11.3 ENE 0.19 12.2 -21.0 --- --- 720.2 0.021 0.000 9.7 5 1
02/13/06 12:43 p -12.4 -12.4 -12.4 --- --- 10.4 ENE 0.17 11.3 -20.7 --- --- 720.2 0.021 0.000 9.7 5 1
02/13/06 12:44 p -12.5 -12.4 -12.5 --- --- 10.4 ENE 0.17 12.2 -20.8 --- --- 720.3 0.021 0.000 9.7 5 1
02/13/06 12:45 p -12.5 -12.5 -12.6 --- --- 12.2 ENE 0.20 13.0 -21.4 --- --- 720.2 0.021 0.000 9.7 5 1
02/13/06 12:46 p -12.6 -12.6 -12.6 --- --- 12.2 ENE 0.20 13.0 -21.6 --- --- 720.3 0.021 0.000 9.7 5 1
02/13/06 12:47 p -12.7 -12.6 -12.7 --- --- 11.3 ENE 0.19 12.2 -21.3 --- --- 720.2 0.022 0.000 9.7 5 1
02/13/06 12:48 p -12.7 -12.7 -12.7 --- --- 12.2 ENE 0.20 13.0 -21.7 --- --- 720.2 0.022 0.000 9.7 4 1
02/13/06 12:49 p -12.7 -12.7 -12.8 --- --- 13.0 ENE 0.22 13.9 -22.0 --- --- 720.2 0.022 0.000 9.7 5 1
02/13/06 12:50 p -12.8 -12.7 -12.8 --- --- 11.3 ENE 0.19 13.0 -21.5 --- --- 720.3 0.022 0.000 9.8 5 1
02/13/06 12:51 p -12.8 -12.8 -12.9 --- --- 12.2 ENE 0.20 13.0 -21.9 --- --- 720.3 0.022 0.000 9.8 5 1
02/13/06 12:52 p -12.9 -12.9 -12.9 --- --- 11.3 ENE 0.19 13.0 -21.6 --- --- 720.3 0.022 0.000 9.8 5 1
02/13/06 12:53 p -12.9 -12.9 -12.9 --- --- 13.0 ENE 0.22 13.9 -22.3 --- --- 720.2 0.022 0.000 9.8 5 1
02/13/06 12:54 p -12.9 -12.9 -12.9 --- --- 12.2 ENE 0.20 13.0 -21.9 --- --- 720.2 0.022 0.000 9.8 5 1
02/13/06 12:55 p -12.9 -12.9 -12.9 --- --- 10.4 NE 0.17 11.3 -21.3 --- --- 720.3 0.022 0.000 9.7 5 1
02/13/06 12:56 p -12.9 -12.9 -12.9 --- --- 10.4 NE 0.17 13.0 -21.3 --- --- 720.2 0.022 0.000 9.7 5 1
02/13/06 12:57 p -12.8 -12.8 -12.9 --- --- 12.2 ENE 0.20 13.0 -21.9 --- --- 720.2 0.022 0.000 9.8 5 1
02/13/06 12:58 p -12.8 -12.8 -12.8 --- --- 12.2 ENE 0.20 13.0 -21.9 --- --- 720.3 0.022 0.000 9.8 5 1
02/13/06 12:59 p -12.8 -12.8 -12.8 --- --- 12.2 NE 0.20 13.0 -21.8 --- --- 720.2 0.022 0.000 9.8 5 1
02/13/06 1:00 p -12.7 -12.7 -12.7 --- --- 13.0 NE 0.22 13.9 -22.0 --- --- 720.3 0.022 0.000 9.8 5 1
02/13/06 1:01 p -12.7 -12.7 -12.8 --- --- 12.2 ENE 0.20 13.0 -21.7 --- --- 720.3 0.022 0.000 9.8 5 1
02/13/06 1:02 p -12.7 -12.7 -12.7 --- --- 11.3 NE 0.19 12.2 -21.4 --- --- 720.3 0.022 0.000 9.8 5 1
02/13/06 1:03 p -12.7 -12.7 -12.8 --- --- 12.2 ENE 0.20 13.0 -21.7 --- --- 720.1 0.022 0.000 9.8 5 1
02/13/06 1:04 p -12.7 -12.7 -12.8 --- --- 13.0 ENE 0.22 13.9 -22.0 --- --- 720.3 0.022 0.000 9.8 5 1
02/13/06 1:05 p -12.7 -12.7 -12.7 --- --- 13.9 NE 0.23 13.9 -22.2 --- --- 720.2 0.022 0.000 9.8 5 1
02/13/06 1:06 p -12.7 -12.6 -12.7 --- --- 12.2 NE 0.20 12.2 -21.7 --- --- 720.3 0.022 0.000 9.8 5 1
02/13/06 1:07 p -12.6 -12.6 -12.6 --- --- 11.3 NE 0.19 13.0 -21.3 --- --- 720.2 0.021 0.000 9.8 5 1
02/13/06 1:08 p -12.6 -12.6 -12.6 --- --- 13.0 NE 0.22 13.9 -21.9 --- --- 720.2 0.021 0.000 9.8 5 1
02/13/06 1:09 p -12.6 -12.6 -12.6 --- --- 10.4 NE 0.17 12.2 -20.8 --- --- 720.3 0.021 0.000 9.8 5 1
02/13/06 1:10 p -12.5 -12.5 -12.6 --- --- 13.0 NE 0.22 13.9 -21.7 --- --- 720.2 0.021 0.000 9.8 5 1
02/13/06 1:11 p -12.5 -12.4 -12.5 --- --- 13.0 NE 0.22 13.9 -21.7 --- --- 720.2 0.021 0.000 9.8 5 1
02/13/06 1:12 p -12.4 -12.4 -12.4 --- --- 12.2 NE 0.20 13.0 -21.4 --- --- 720.3 0.021 0.000 9.8 5 1
02/13/06 1:13 p -12.4 -12.4 -12.4 --- --- 10.4 NE 0.17 11.3 -20.7 --- --- 720.2 0.021 0.000 9.8 5 1
02/13/06 1:14 p -12.4 -12.4 -12.4 --- --- 12.2 NE 0.20 13.0 -21.3 --- --- 720.3 0.021 0.000 9.8 5 1
02/13/06 1:15 p -12.4 -12.3 -12.4 --- --- 12.2 NE 0.20 13.0 -21.3 --- --- 720.3 0.021 0.000 9.8 5 1
02/13/06 1:16 p -12.3 -12.3 -12.3 --- --- 13.0 NE 0.22 14.8 -21.5 --- --- 720.3 0.021 0.000 9.8 5 1
02/13/06 1:17 p -12.3 -12.3 -12.3 --- --- 11.3 NE 0.19 13.0 -20.8 --- --- 720.3 0.021 0.000 9.8 5 1
02/13/06 1:18 p -12.3 -12.3 -12.3 --- --- 12.2 ENE 0.20 13.9 -21.2 --- --- 720.3 0.021 0.000 9.8 5 1
02/13/06 1:19 p -12.3 -12.2 -12.3 --- --- 12.2 NE 0.20 13.9 -21.2 --- --- 720.1 0.021 0.000 9.8 5 1
02/13/06 1:20 p -12.3 -12.2 -12.3 --- --- 12.2 NE 0.20 13.0 -21.2 --- --- 720.2 0.021 0.000 9.8 5 1
02/13/06 1:21 p -12.2 -12.2 -12.2 --- --- 11.3 NE 0.19 13.0 -20.8 --- --- 720.3 0.021 0.000 9.8 5 1
02/13/06 1:22 p -12.2 -12.2 -12.3 --- --- 12.2 NE 0.20 13.0 -21.1 --- --- 720.2 0.021 0.000 9.8 5 1
02/13/06 1:23 p -12.3 -12.2 -12.3 --- --- 11.3 NE 0.19 12.2 -20.8 --- --- 720.3 0.021 0.000 9.8 5 1
02/13/06 1:24 p -12.3 -12.3 -12.3 --- --- 11.3 NE 0.19 12.2 -20.8 --- --- 720.2 0.021 0.000 9.8 5 1
02/13/06 1:25 p -12.3 -12.3 -12.3 --- --- 12.2 NE 0.20 13.0 -21.2 --- --- 720.2 0.021 0.000 9.8 5 1
02/13/06 1:26 p -12.3 -12.3 -12.3 --- --- 11.3 NE 0.19 13.0 -20.9 --- --- 720.2 0.021 0.000 9.8 5 1
02/13/06 1:27 p -12.3 -12.3 -12.4 --- --- 13.0 NE 0.22 13.9 -21.5 --- --- 720.3 0.021 0.000 9.8 5 1
02/13/06 1:28 p -12.4 -12.4 -12.4 --- --- 12.2 NE 0.20 13.0 -21.3 --- --- 720.2 0.021 0.000 9.8 5 1
02/13/06 1:29 p -12.4 -12.4 -12.4 --- --- 12.2 NE 0.20 13.9 -21.3 --- --- 720.2 0.021 0.000 9.8 5 1
02/13/06 1:30 p -12.4 -12.4 -12.4 --- --- 13.9 ENE 0.23 14.8 -21.9 --- --- 720.2 0.021 0.000 9.8 5 1
02/13/06 1:31 p -12.4 -12.4 -12.4 --- --- 13.0 NE 0.22 14.8 -21.6 --- --- 720.2 0.021 0.000 9.8 5 1
02/13/06 1:32 p -12.4 -12.4 -12.4 --- --- 12.2 NE 0.20 13.0 -21.3 --- --- 720.2 0.021 0.000 9.8 5 1
02/13/06 1:33 p -12.4 -12.4 -12.4 --- --- 13.9 ENE 0.23 14.8 -21.9 --- --- 720.2 0.021 0.000 9.9 5 1
02/13/06 1:34 p -12.4 -12.4 -12.4 --- --- 13.0 ENE 0.22 13.9 -21.6 --- --- 720.2 0.021 0.000 9.9 5 1
02/13/06 1:35 p -12.4 -12.4 -12.4 --- --- 12.2 NE 0.20 13.9 -21.3 --- --- 720.3 0.021 0.000 9.9 5 1
02/13/06 1:36 p -12.4 -12.4 -12.4 --- --- 13.0 ENE 0.22 13.9 -21.6 --- --- 720.2 0.021 0.000 9.9 5 1
02/13/06 1:37 p -12.4 -12.4 -12.4 --- --- 13.0 ENE 0.22 13.9 -21.6 --- --- 720.2 0.021 0.000 9.9 5 1
02/13/06 1:38 p -12.4 -12.4 -12.4 --- --- 12.2 NE 0.20 13.0 -21.3 --- --- 720.3 0.021 0.000 9.9 5 1
02/13/06 1:39 p -12.4 -12.4 -12.4 --- --- 10.4 NE 0.17 14.8 -20.7 --- --- 720.2 0.021 0.000 9.9 5 1
02/13/06 1:40 p -12.4 -12.4 -12.4 --- --- 14.8 ENE 0.25 15.7 -22.2 --- --- 720.2 0.021 0.000 9.9 5 1
02/13/06 1:41 p -12.4 -12.4 -12.4 --- --- 11.3 NE 0.19 13.9 -21.0 --- --- 720.2 0.021 0.000 9.9 5 1
02/13/06 1:42 p -12.4 -12.4 -12.4 --- --- 13.0 NE 0.22 14.8 -21.7 --- --- 720.2 0.021 0.000 9.9 5 1
02/13/06 1:43 p -12.4 -12.4 -12.4 --- --- 12.2 ENE 0.20 13.9 -21.4 --- --- 720.1 0.021 0.000 9.9 5 1
02/13/06 1:44 p -12.4 -12.4 -12.4 --- --- 13.9 ENE 0.23 14.8 -21.9 --- --- 720.1 0.021 0.000 9.9 4 1
02/13/06 1:45 p -12.4 -12.4 -12.4 --- --- 13.0 NE 0.22 13.9 -21.7 --- --- 720.2 0.021 0.000 9.9 5 1
02/13/06 1:46 p -12.4 -12.4 -12.4 --- --- 12.2 NE 0.20 13.9 -21.4 --- --- 720.2 0.021 0.000 9.9 5 1
02/13/06 1:47 p -12.4 -12.4 -12.4 --- --- 13.0 NE 0.22 13.9 -21.7 --- --- 720.1 0.021 0.000 9.9 5 1
02/13/06 1:48 p -12.4 -12.4 -12.4 --- --- 13.0 NE 0.22 13.9 -21.7 --- --- 720.1 0.021 0.000 9.9 5 1
02/13/06 1:49 p -12.4 -12.4 -12.4 --- --- 13.9 NE 0.23 14.8 -21.9 --- --- 720.1 0.021 0.000 9.9 5 1
02/13/06 1:50 p -12.4 -12.4 -12.5 --- --- 13.9 ENE 0.23 14.8 -21.9 --- --- 720.1 0.021 0.000 9.9 5 1
02/13/06 1:51 p -12.4 -12.4 -12.5 --- --- 13.0 NE 0.22 13.9 -21.7 --- --- 720.1 0.021 0.000 10.0 5 1
02/13/06 1:52 p -12.4 -12.4 -12.5 --- --- 13.9 ENE 0.23 14.8 -21.9 --- --- 720.0 0.021 0.000 10.0 5 1
02/13/06 1:53 p -12.4 -12.4 -12.4 --- --- 13.0 NE 0.22 14.8 -21.7 --- --- 720.1 0.021 0.000 10.0 5 1
02/13/06 1:54 p -12.4 -12.4 -12.4 --- --- 13.0 ENE 0.22 14.8 -21.7 --- --- 720.1 0.021 0.000 10.0 5 1
02/13/06 1:55 p -12.4 -12.4 -12.4 --- --- 13.0 NE 0.22 14.8 -21.7 --- --- 720.1 0.021 0.000 10.0 5 1
02/13/06 1:56 p -12.4 -12.4 -12.4 --- --- 13.0 NE 0.22 13.9 -21.7 --- --- 720.1 0.021 0.000 10.0 5 1
02/13/06 1:57 p -12.4 -12.4 -12.4 --- --- 13.0 NE 0.22 13.9 -21.7 --- --- 720.0 0.021 0.000 10.0 5 1
02/13/06 1:58 p -12.4 -12.4 -12.4 --- --- 13.0 NE 0.22 14.8 -21.7 --- --- 720.1 0.021 0.000 10.0 5 1
02/13/06 1:59 p -12.4 -12.4 -12.5 --- --- 13.0 NE 0.22 13.0 -21.7 --- --- 720.1 0.021 0.000 10.0 5 1
02/13/06 2:00 p -12.5 -12.4 -12.5 --- --- 13.0 NE 0.22 14.8 -21.7 --- --- 720.0 0.021 0.000 10.0 5 1
02/13/06 2:01 p -12.5 -12.5 -12.5 --- --- 13.0 NE 0.22 13.9 -21.7 --- --- 720.0 0.021 0.000 10.0 5 1
02/13/06 2:02 p -12.5 -12.5 -12.5 --- --- 13.0 NE 0.22 14.8 -21.7 --- --- 720.1 0.021 0.000 10.0 5 1
02/13/06 2:03 p -12.5 -12.5 -12.5 --- --- 13.0 NE 0.22 14.8 -21.7 --- --- 720.1 0.021 0.000 10.0 5 1
02/13/06 2:04 p -12.5 -12.4 -12.5 --- --- 13.0 NE 0.22 13.9 -21.7 --- --- 720.1 0.021 0.000 10.0 5 1
02/13/06 2:05 p -12.4 -12.4 -12.4 --- --- 12.2 NE 0.20 13.0 -21.4 --- --- 720.1 0.021 0.000 10.0 5 1
02/13/06 2:06 p -12.4 -12.4 -12.4 --- --- 12.2 NE 0.20 13.9 -21.4 --- --- 720.1 0.021 0.000 10.0 5 1
02/13/06 2:07 p -12.4 -12.4 -12.4 --- --- 13.0 NE 0.22 13.9 -21.6 --- --- 720.1 0.021 0.000 10.0 5 1
02/13/06 2:08 p -12.4 -12.4 -12.4 --- --- 12.2 NE 0.20 13.0 -21.3 --- --- 720.0 0.021 0.000 9.9 5 1
02/13/06 2:09 p -12.3 -12.3 -12.3 --- --- 12.2 NE 0.20 13.0 -21.2 --- --- 720.1 0.021 0.000 9.9 5 1
02/13/06 2:10 p -12.3 -12.3 -12.3 --- --- 12.2 NE 0.20 13.0 -21.2 --- --- 720.0 0.021 0.000 9.9 5 1
02/13/06 2:11 p -12.3 -12.3 -12.3 --- --- 13.0 NE 0.22 13.9 -21.5 --- --- 720.0 0.021 0.000 9.9 5 1
02/13/06 2:12 p -12.3 -12.3 -12.3 --- --- 12.2 NE 0.20 13.0 -21.2 --- --- 720.0 0.021 0.000 9.9 5 1
02/13/06 2:13 p -12.3 -12.3 -12.3 --- --- 13.0 NE 0.22 13.9 -21.5 --- --- 720.0 0.021 0.000 9.9 5 1
02/13/06 2:14 p -12.3 -12.3 -12.3 --- --- 13.0 NE 0.22 13.9 -21.4 --- --- 720.1 0.021 0.000 9.9 5 1
02/13/06 2:15 p -12.3 -12.3 -12.3 --- --- 12.2 NE 0.20 13.0 -21.2 --- --- 720.1 0.021 0.000 9.9 5 1
02/13/06 2:16 p -12.3 -12.3 -12.3 --- --- 13.0 NE 0.22 13.9 -21.5 --- --- 720.0 0.021 0.000 9.9 5 1
02/13/06 2:17 p -12.3 -12.3 -12.4 --- --- 13.0 NE 0.22 13.9 -21.5 --- --- 720.0 0.021 0.000 9.9 5 1
02/13/06 2:18 p -12.4 -12.3 -12.4 --- --- 12.2 NE 0.20 12.2 -21.3 --- --- 720.0 0.021 0.000 9.9 5 1
02/13/06 2:19 p -12.4 -12.4 -12.4 --- --- 12.2 NE 0.20 13.0 -21.3 --- --- 720.1 0.021 0.000 9.9 5 1
02/13/06 2:20 p -12.4 -12.4 -12.4 --- --- 12.2 NE 0.20 13.0 -21.4 --- --- 720.0 0.021 0.000 9.9 5 1
02/13/06 2:21 p -12.5 -12.4 -12.5 --- --- 12.2 NE 0.20 13.0 -21.4 --- --- 720.0 0.021 0.000 9.9 4 1
02/13/06 2:22 p -12.5 -12.5 -12.6 --- --- 12.2 NE 0.20 13.0 -21.4 --- --- 720.1 0.021 0.000 9.9 5 1
02/13/06 2:23 p -12.6 -12.6 -12.6 --- --- 12.2 NE 0.20 13.0 -21.5 --- --- 720.0 0.021 0.000 9.9 5 1
02/13/06 2:24 p -12.6 -12.6 -12.7 --- --- 12.2 NE 0.20 13.0 -21.6 --- --- 720.0 0.021 0.000 9.9 5 1
02/13/06 2:25 p -12.7 -12.7 -12.7 --- --- 12.2 NE 0.20 13.9 -21.7 --- --- 719.9 0.022 0.000 9.9 5 1
02/13/06 2:26 p -12.8 -12.8 -12.8 --- --- 13.0 NE 0.22 13.9 -22.1 --- --- 720.0 0.022 0.000 9.9 5 1
02/13/06 2:27 p -12.8 -12.8 -12.8 --- --- 13.0 ENE 0.22 13.9 -22.2 --- --- 720.0 0.022 0.000 9.9 5 1
02/13/06 2:28 p -12.8 -12.8 -12.9 --- --- 13.9 NE 0.23 14.8 -22.4 --- --- 720.0 0.022 0.000 9.9 5 1
02/13/06 2:29 p -12.9 -12.9 -12.9 --- --- 13.9 NE 0.23 14.8 -22.5 --- --- 720.0 0.022 0.000 9.9 5 1
02/13/06 2:30 p -12.9 -12.9 -13.0 --- --- 13.9 NE 0.23 14.8 -22.6 --- --- 719.9 0.022 0.000 9.9 5 1
02/13/06 2:31 p -13.1 -13.0 -13.1 --- --- 13.9 NE 0.23 14.8 -22.7 --- --- 719.9 0.022 0.000 9.9 5 1
02/13/06 2:32 p -13.1 -13.1 -13.1 --- --- 13.9 NE 0.23 14.8 -22.7 --- --- 719.9 0.022 0.000 9.9 5 1
02/13/06 2:33 p -13.1 -13.1 -13.1 --- --- 13.9 NE 0.23 14.8 -22.8 --- --- 720.0 0.022 0.000 9.9 5 1
02/13/06 2:34 p -13.1 -13.1 -13.2 --- --- 13.9 NE 0.23 13.9 -22.8 --- --- 719.9 0.022 0.000 9.9 5 1
02/13/06 2:35 p -13.1 -13.1 -13.2 --- --- 13.9 NE 0.23 15.7 -22.8 --- --- 719.9 0.022 0.000 9.9 5 1
02/13/06 2:36 p -13.1 -13.1 -13.1 --- --- 13.9 NE 0.23 14.8 -22.8 --- --- 719.9 0.022 0.000 9.9 5 1
02/13/06 2:37 p -13.1 -13.1 -13.1 --- --- 13.9 NE 0.23 14.8 -22.8 --- --- 719.9 0.022 0.000 9.9 5 1
02/13/06 2:38 p -13.1 -13.1 -13.1 --- --- 13.9 NE 0.23 14.8 -22.8 --- --- 719.9 0.022 0.000 9.9 5 1
02/13/06 2:39 p -13.1 -13.1 -13.1 --- --- 13.9 NE 0.23 14.8 -22.7 --- --- 719.9 0.022 0.000 9.9 5 1
02/13/06 2:40 p -12.9 -12.9 -13.0 --- --- 13.9 NE 0.23 14.8 -22.6 --- --- 719.9 0.022 0.000 9.9 5 1
02/13/06 2:41 p -12.9 -12.8 -12.9 --- --- 14.8 NE 0.25 15.7 -22.8 --- --- 719.9 0.022 0.000 9.9 5 1
02/13/06 2:42 p -12.8 -12.7 -12.8 --- --- 13.9 NE 0.23 14.8 -22.4 --- --- 720.0 0.022 0.000 9.9 5 1
02/13/06 2:43 p -12.7 -12.7 -12.7 --- --- 13.9 NE 0.23 14.8 -22.3 --- --- 719.9 0.022 0.000 9.9 5 1
02/13/06 2:44 p -12.7 -12.6 -12.7 --- --- 13.9 NE 0.23 15.7 -22.2 --- --- 719.9 0.022 0.000 9.9 5 1
02/13/06 2:45 p -12.6 -12.6 -12.6 --- --- 13.9 NE 0.23 14.8 -22.2 --- --- 719.9 0.021 0.000 9.9 5 1
02/13/06 2:46 p -12.6 -12.6 -12.6 --- --- 13.9 NE 0.23 14.8 -22.2 --- --- 719.9 0.021 0.000 9.9 5 1
02/13/06 2:47 p -12.6 -12.5 -12.6 --- --- 13.9 NE 0.23 14.8 -22.1 --- --- 719.9 0.021 0.000 9.9 5 1
02/13/06 2:48 p -12.5 -12.5 -12.5 --- --- 13.9 NE 0.23 14.8 -22.0 --- --- 719.9 0.021 0.000 9.9 5 1
02/13/06 2:49 p -12.5 -12.5 -12.5 --- --- 13.9 NE 0.23 14.8 -22.0 --- --- 719.9 0.021 0.000 9.9 5 1
02/13/06 2:50 p -12.5 -12.5 -12.5 --- --- 13.9 NE 0.23 14.8 -22.0 --- --- 719.9 0.021 0.000 9.9 5 1
02/13/06 2:51 p -12.5 -12.4 -12.5 --- --- 13.9 NE 0.23 14.8 -22.0 --- --- 719.9 0.021 0.000 9.9 5 1
02/13/06 2:52 p -12.5 -12.4 -12.5 --- --- 13.9 NE 0.23 14.8 -22.0 --- --- 719.9 0.021 0.000 9.9 5 1
02/13/06 2:53 p -12.5 -12.5 -12.5 --- --- 13.9 NE 0.23 14.8 -22.0 --- --- 719.9 0.021 0.000 9.9 5 1
02/13/06 2:54 p -12.4 -12.4 -12.5 --- --- 13.9 NE 0.23 15.7 -21.9 --- --- 719.8 0.021 0.000 9.9 5 1
02/13/06 2:55 p -12.4 -12.4 -12.4 --- --- 13.9 NE 0.23 14.8 -21.9 --- --- 719.8 0.021 0.000 9.9 5 1
02/13/06 2:56 p -12.4 -12.4 -12.4 --- --- 13.9 NE 0.23 15.7 -21.9 --- --- 719.8 0.021 0.000 9.9 5 1
02/13/06 2:57 p -12.4 -12.3 -12.4 --- --- 14.8 NE 0.25 15.7 -22.2 --- --- 719.8 0.021 0.000 9.9 5 1
02/13/06 2:58 p -12.3 -12.3 -12.3 --- --- 14.8 NE 0.25 16.5 -22.0 --- --- 719.8 0.021 0.000 9.9 5 1
02/13/06 2:59 p -12.2 -12.2 -12.3 --- --- 14.8 NE 0.25 16.5 -21.9 --- --- 719.8 0.021 0.000 9.9 5 1
02/13/06 3:00 p -12.2 -12.2 -12.2 --- --- 13.9 NE 0.23 15.7 -21.6 --- --- 719.8 0.021 0.000 9.9 5 1
02/13/06 3:01 p -12.2 -12.1 -12.2 --- --- 13.9 NE 0.23 14.8 -21.6 --- --- 719.9 0.021 0.000 9.9 5 1
02/13/06 3:02 p -12.1 -12.1 -12.1 --- --- 13.9 NE 0.23 14.8 -21.5 --- --- 719.9 0.021 0.000 9.9 5 1
02/13/06 3:03 p -12.1 -12.1 -12.1 --- --- 14.8 NE 0.25 15.7 -21.7 --- --- 719.9 0.021 0.000 9.9 5 1
02/13/06 3:04 p -12.0 -12.0 -12.0 --- --- 13.9 NE 0.23 15.7 -21.4 --- --- 719.9 0.021 0.000 9.9 5 1
02/13/06 3:05 p -11.9 -11.9 -12.0 --- --- 13.9 NE 0.23 14.8 -21.3 --- --- 719.8 0.021 0.000 9.9 5 1
02/13/06 3:06 p -11.9 -11.9 -11.9 --- --- 13.9 NE 0.23 14.8 -21.3 --- --- 719.9 0.021 0.000 9.9 5 1
02/13/06 3:07 p -11.9 -11.9 -11.9 --- --- 13.9 NE 0.23 14.8 -21.2 --- --- 719.7 0.021 0.000 9.9 5 1
02/13/06 3:08 p -11.9 -11.9 -11.9 --- --- 13.9 NE 0.23 15.7 -21.2 --- --- 719.8 0.021 0.000 9.9 5 1
02/13/06 3:09 p -11.9 -11.8 -11.9 --- --- 13.9 NE 0.23 14.8 -21.2 --- --- 719.9 0.021 0.000 9.9 5 1
02/13/06 3:10 p -11.8 -11.8 -11.8 --- --- 13.9 NE 0.23 14.8 -21.2 --- --- 719.8 0.021 0.000 9.9 4 1
02/13/06 3:11 p -11.8 -11.8 -11.8 --- --- 13.9 NE 0.23 15.7 -21.1 --- --- 719.8 0.021 0.000 9.9 5 1
02/13/06 3:12 p -11.8 -11.8 -11.8 --- --- 13.9 NE 0.23 15.7 -21.1 --- --- 719.8 0.021 0.000 9.9 5 1
02/13/06 3:13 p -11.8 -11.8 -11.8 --- --- 14.8 NE 0.25 15.7 -21.3 --- --- 719.8 0.021 0.000 9.9 5 1
02/13/06 3:14 p -11.8 -11.8 -11.8 --- --- 14.8 NE 0.25 15.7 -21.3 --- --- 719.8 0.021 0.000 9.9 4 1
02/13/06 3:15 p -11.8 -11.8 -11.8 --- --- 14.8 NE 0.25 15.7 -21.3 --- --- 719.8 0.021 0.000 9.9 5 1
02/13/06 3:16 p -11.8 -11.8 -11.8 --- --- 14.8 NE 0.25 15.7 -21.3 --- --- 719.8 0.021 0.000 9.9 4 1
02/13/06 3:17 p -11.8 -11.8 -11.8 --- --- 13.9 NE 0.23 14.8 -21.1 --- --- 719.8 0.021 0.000 9.9 4 1
02/13/06 3:18 p -11.8 -11.8 -11.8 --- --- 14.8 NE 0.25 15.7 -21.3 --- --- 719.8 0.021 0.000 9.9 5 1
02/13/06 3:19 p -11.8 -11.8 -11.8 --- --- 14.8 NE 0.25 15.7 -21.4 --- --- 719.8 0.021 0.000 9.9 5 1
02/13/06 3:20 p -11.8 -11.8 -11.8 --- --- 15.7 NE 0.26 16.5 -21.6 --- --- 719.8 0.021 0.000 9.9 5 1
02/13/06 3:21 p -11.8 -11.8 -11.8 --- --- 15.7 NE 0.26 16.5 -21.6 --- --- 719.9 0.021 0.000 9.9 5 1
02/13/06 3:22 p -11.8 -11.8 -11.8 --- --- 14.8 NE 0.25 16.5 -21.3 --- --- 719.8 0.021 0.000 9.9 5 1
02/13/06 3:23 p -11.8 -11.7 -11.8 --- --- 14.8 NE 0.25 15.7 -21.3 --- --- 719.8 0.021 0.000 9.9 5 1
02/13/06 3:24 p -11.8 -11.8 -11.8 --- --- 13.9 NE 0.23 15.7 -21.1 --- --- 719.8 0.021 0.000 9.9 5 1
02/13/06 3:25 p -11.8 -11.8 -11.8 --- --- 13.9 NE 0.23 14.8 -21.1 --- --- 719.8 0.021 0.000 9.9 5 1
02/13/06 3:26 p -11.8 -11.8 -11.8 --- --- 13.9 NE 0.23 15.7 -21.1 --- --- 719.8 0.021 0.000 9.9 5 1
02/13/06 3:27 p -11.8 -11.8 -11.8 --- --- 13.9 NE 0.23 14.8 -21.1 --- --- 719.8 0.021 0.000 9.9 5 1
02/13/06 3:28 p -11.8 -11.8 -11.8 --- --- 14.8 NE 0.25 15.7 -21.3 --- --- 719.8 0.021 0.000 9.9 5 1
02/13/06 3:29 p -11.8 -11.8 -11.8 --- --- 14.8 NE 0.25 16.5 -21.4 --- --- 719.8 0.021 0.000 9.9 5 1
02/13/06 3:30 p -11.8 -11.8 -11.8 --- --- 15.7 NE 0.26 16.5 -21.7 --- --- 719.8 0.021 0.000 9.9 5 1
02/13/06 3:31 p -11.8 -11.8 -11.9 --- --- 15.7 NE 0.26 17.4 -21.7 --- --- 719.7 0.021 0.000 9.9 5 1
02/13/06 3:32 p -11.9 -11.9 -11.9 --- --- 15.7 NE 0.26 16.5 -21.7 --- --- 719.8 0.021 0.000 9.9 5 1
02/13/06 3:33 p -11.9 -11.9 -11.9 --- --- 15.7 NE 0.26 16.5 -21.8 --- --- 719.8 0.021 0.000 9.9 5 1
02/13/06 3:34 p -12.0 -11.9 -12.0 --- --- 14.8 NE 0.25 16.5 -21.7 --- --- 719.8 0.021 0.000 9.9 5 1
02/13/06 3:35 p -12.0 -12.0 -12.0 --- --- 14.8 NE 0.25 16.5 -21.7 --- --- 719.8 0.021 0.000 9.9 5 1
02/13/06 3:36 p -12.0 -11.9 -12.0 --- --- 14.8 NE 0.25 15.7 -21.7 --- --- 719.9 0.021 0.000 9.9 5 1
02/13/06 3:37 p -11.9 -11.9 -12.0 --- --- 14.8 NE 0.25 15.7 -21.6 --- --- 719.8 0.021 0.000 9.9 4 1
02/13/06 3:38 p -11.9 -11.9 -11.9 --- --- 14.8 NE 0.25 15.7 -21.6 --- --- 719.8 0.021 0.000 9.9 5 1
02/13/06 3:39 p -11.9 -11.9 -11.9 --- --- 14.8 NE 0.25 15.7 -21.6 --- --- 719.8 0.021 0.000 10.0 4 1
02/13/06 3:40 p -11.9 -11.9 -11.9 --- --- 14.8 NE 0.25 16.5 -21.6 --- --- 719.8 0.021 0.000 10.0 5 1
02/13/06 3:41 p -11.9 -11.9 -11.9 --- --- 15.7 NE 0.26 16.5 -21.8 --- --- 719.8 0.021 0.000 10.0 4 1
02/13/06 3:42 p -12.0 -11.9 -12.0 --- --- 15.7 NE 0.26 15.7 -21.9 --- --- 719.8 0.021 0.000 10.0 4 1
02/13/06 3:43 p -12.0 -11.9 -12.0 --- --- 14.8 NE 0.25 15.7 -21.7 --- --- 719.8 0.021 0.000 9.9 5 1
02/13/06 3:44 p -12.0 -12.0 -12.0 --- --- 14.8 NE 0.25 15.7 -21.7 --- --- 719.8 0.021 0.000 9.9 5 1
02/13/06 3:45 p -11.9 -11.9 -12.0 --- --- 14.8 NE 0.25 16.5 -21.6 --- --- 719.8 0.021 0.000 9.9 5 1
02/13/06 3:46 p -12.0 -11.9 -12.0 --- --- 14.8 NE 0.25 16.5 -21.7 --- --- 719.8 0.021 0.000 9.9 4 1
02/13/06 3:47 p -12.0 -11.9 -12.0 --- --- 14.8 NE 0.25 15.7 -21.7 --- --- 719.8 0.021 0.000 9.9 5 1
02/13/06 3:48 p -12.0 -12.0 -12.0 --- --- 14.8 NE 0.25 15.7 -21.7 --- --- 719.8 0.021 0.000 9.9 4 1
02/13/06 3:49 p -12.1 -12.0 -12.1 --- --- 14.8 NE 0.25 16.5 -21.7 --- --- 719.8 0.021 0.000 9.9 5 1
02/13/06 3:50 p -12.1 -12.1 -12.1 --- --- 14.8 NE 0.25 16.5 -21.7 --- --- 719.8 0.021 0.000 9.9 4 1
02/13/06 3:51 p -12.1 -12.1 -12.1 --- --- 14.8 NE 0.25 15.7 -21.7 --- --- 719.7 0.021 0.000 9.9 5 1
02/13/06 3:52 p -12.1 -12.1 -12.1 --- --- 14.8 NE 0.25 16.5 -21.7 --- --- 719.7 0.021 0.000 9.9 4 1
02/13/06 3:53 p -12.1 -12.1 -12.1 --- --- 14.8 NE 0.25 16.5 -21.7 --- --- 719.8 0.021 0.000 9.9 5 1
02/13/06 3:54 p -12.1 -12.1 -12.1 --- --- 14.8 NE 0.25 16.5 -21.8 --- --- 719.8 0.021 0.000 9.9 5 1
02/13/06 3:55 p -12.1 -12.1 -12.2 --- --- 14.8 NE 0.25 15.7 -21.8 --- --- 719.8 0.021 0.000 9.9 4 1
02/13/06 3:56 p -12.2 -12.2 -12.2 --- --- 14.8 NE 0.25 15.7 -21.8 --- --- 719.7 0.021 0.000 9.9 4 1
02/13/06 3:57 p -12.2 -12.2 -12.2 --- --- 15.7 NE 0.26 16.5 -22.2 --- --- 719.7 0.021 0.000 9.9 5 1
02/13/06 3:58 p -12.2 -12.2 -12.3 --- --- 14.8 NE 0.25 16.5 -21.9 --- --- 719.8 0.021 0.000 9.9 4 1
02/13/06 3:59 p -12.2 -12.2 -12.3 --- --- 15.7 NE 0.26 16.5 -22.2 --- --- 719.7 0.021 0.000 9.9 5 1
02/13/06 4:00 p -12.2 -12.2 -12.3 --- --- 14.8 NE 0.25 16.5 -21.9 --- --- 719.8 0.021 0.000 9.9 5 1
02/13/06 4:01 p -12.2 -12.2 -12.2 --- --- 14.8 NE 0.25 15.7 -21.9 --- --- 719.8 0.021 0.000 9.9 4 1
02/13/06 4:02 p -12.2 -12.2 -12.3 --- --- 14.8 NE 0.25 16.5 -21.9 --- --- 719.7 0.021 0.000 9.9 5 1
02/13/06 4:03 p -12.3 -12.2 -12.3 --- --- 14.8 NE 0.25 15.7 -22.0 --- --- 719.7 0.021 0.000 9.9 4 1
02/13/06 4:04 p -12.3 -12.2 -12.3 --- --- 14.8 NE 0.25 15.7 -22.0 --- --- 719.7 0.021 0.000 9.9 5 1
02/13/06 4:05 p -12.3 -12.3 -12.3 --- --- 14.8 NE 0.25 15.7 -22.0 --- --- 719.7 0.021 0.000 9.9 5 1
02/13/06 4:06 p -12.3 -12.3 -12.3 --- --- 14.8 NE 0.25 15.7 -22.1 --- --- 719.7 0.021 0.000 9.9 5 1
02/13/06 4:07 p -12.3 -12.3 -12.3 --- --- 14.8 NE 0.25 15.7 -22.1 --- --- 719.7 0.021 0.000 9.9 4 1
02/13/06 4:08 p -12.3 -12.3 -12.3 --- --- 15.7 NE 0.26 16.5 -22.3 --- --- 719.8 0.021 0.000 9.9 5 1
02/13/06 4:09 p -12.3 -12.3 -12.3 --- --- 15.7 NE 0.26 16.5 -22.3 --- --- 719.7 0.021 0.000 9.9 5 1
02/13/06 4:10 p -12.3 -12.3 -12.3 --- --- 15.7 NE 0.26 16.5 -22.3 --- --- 719.7 0.021 0.000 9.9 5 1
02/13/06 4:11 p -12.3 -12.3 -12.3 --- --- 15.7 NE 0.26 16.5 -22.3 --- --- 719.7 0.021 0.000 9.9 5 1
02/13/06 4:12 p -12.3 -12.2 -12.3 --- --- 14.8 NE 0.25 15.7 -22.0 --- --- 719.7 0.021 0.000 9.9 4 1
02/13/06 4:13 p -12.3 -12.3 -12.3 --- --- 14.8 NE 0.25 16.5 -22.0 --- --- 719.7 0.021 0.000 9.9 4 1
02/13/06 4:14 p -12.3 -12.3 -12.3 --- --- 15.7 NE 0.26 16.5 -22.3 --- --- 719.7 0.021 0.000 9.9 5 1
02/13/06 4:15 p -12.3 -12.3 -12.4 --- --- 14.8 NE 0.25 16.5 -22.1 --- --- 719.7 0.021 0.000 9.9 4 1
02/13/06 4:16 p -12.3 -12.3 -12.3 --- --- 14.8 NE 0.25 15.7 -22.1 --- --- 719.8 0.021 0.000 9.9 5 1
02/13/06 4:17 p -12.3 -12.2 -12.3 --- --- 13.9 NE 0.23 14.8 -21.7 --- --- 719.7 0.021 0.000 9.9 5 1
02/13/06 4:18 p -12.3 -12.2 -12.3 --- --- 13.9 NE 0.23 15.7 -21.7 --- --- 719.7 0.021 0.000 9.9 5 1
02/13/06 4:19 p -12.2 -12.2 -12.3 --- --- 13.9 NE 0.23 15.7 -21.7 --- --- 719.7 0.021 0.000 9.9 5 1
02/13/06 4:20 p -12.2 -12.2 -12.3 --- --- 14.8 NE 0.25 15.7 -21.9 --- --- 719.7 0.021 0.000 9.9 5 1
02/13/06 4:21 p -12.2 -12.2 -12.2 --- --- 14.8 NE 0.25 16.5 -21.9 --- --- 719.7 0.021 0.000 9.9 4 1
02/13/06 4:22 p -12.2 -12.2 -12.2 --- --- 14.8 NE 0.25 16.5 -21.8 --- --- 719.8 0.021 0.000 9.9 5 1
02/13/06 4:23 p -12.2 -12.1 -12.2 --- --- 14.8 NE 0.25 15.7 -21.8 --- --- 719.8 0.021 0.000 10.0 5 1
02/13/06 4:24 p -12.1 -12.1 -12.1 --- --- 14.8 NE 0.25 15.7 -21.8 --- --- 719.7 0.021 0.000 10.0 5 1
02/13/06 4:25 p -12.1 -12.1 -12.1 --- --- 14.8 NE 0.25 15.7 -21.7 --- --- 719.8 0.021 0.000 10.0 5 1
02/13/06 4:26 p -12.1 -12.1 -12.1 --- --- 13.9 NE 0.23 15.7 -21.4 --- --- 719.6 0.021 0.000 10.0 5 1
02/13/06 4:27 p -12.1 -12.1 -12.1 --- --- 14.8 NE 0.25 14.8 -21.7 --- --- 719.7 0.021 0.000 10.0 4 1
02/13/06 4:28 p -12.1 -12.1 -12.2 --- --- 14.8 NE 0.25 15.7 -21.8 --- --- 719.7 0.021 0.000 10.0 5 1
02/13/06 4:29 p -12.2 -12.2 -12.2 --- --- 13.9 ENE 0.23 14.8 -21.7 --- --- 719.7 0.021 0.000 10.0 5 1
02/13/06 4:30 p -12.3 -12.2 -12.3 --- --- 14.8 ENE 0.25 15.7 -22.0 --- --- 719.7 0.021 0.000 10.0 5 1
02/13/06 4:31 p -12.3 -12.3 -12.4 --- --- 14.8 ENE 0.25 15.7 -22.1 --- --- 719.7 0.021 0.000 10.0 4 1
02/13/06 4:32 p -12.4 -12.4 -12.4 --- --- 13.9 ENE 0.23 14.8 -21.9 --- --- 719.7 0.021 0.000 10.0 5 1
02/13/06 4:33 p -12.6 -12.5 -12.7 --- --- 13.9 ENE 0.23 13.9 -22.1 --- --- 719.6 0.021 0.000 10.0 4 1
02/13/06 4:34 p -12.7 -12.7 -12.8 --- --- 13.0 NE 0.22 13.9 -22.0 --- --- 719.7 0.022 0.000 10.0 4 1
02/13/06 4:35 p -12.8 -12.8 -12.8 --- --- 12.2 NE 0.20 14.8 -21.8 --- --- 719.6 0.022 0.000 10.0 5 1
02/13/06 4:36 p -12.9 -12.9 -12.9 --- --- 13.9 ENE 0.23 15.7 -22.5 --- --- 719.7 0.022 0.000 10.0 5 1
02/13/06 4:37 p -12.9 -12.9 -13.0 --- --- 15.7 ENE 0.26 16.5 -23.1 --- --- 719.6 0.022 0.000 10.0 5 1
02/13/06 4:38 p -13.1 -13.0 -13.1 --- --- 15.7 ENE 0.26 16.5 -23.3 --- --- 719.7 0.022 0.000 10.0 5 1
02/13/06 4:39 p -13.1 -13.0 -13.1 --- --- 15.7 ENE 0.26 16.5 -23.3 --- --- 719.6 0.022 0.000 10.0 4 1
02/13/06 4:40 p -13.1 -13.0 -13.1 --- --- 15.7 ENE 0.26 16.5 -23.3 --- --- 719.5 0.022 0.000 10.0 5 1
02/13/06 4:41 p -13.1 -13.0 -13.1 --- --- 14.8 ENE 0.25 15.7 -23.0 --- --- 719.7 0.022 0.000 10.0 5 1
02/13/06 4:42 p -13.1 -13.0 -13.1 --- --- 14.8 NE 0.25 15.7 -23.0 --- --- 719.8 0.022 0.000 10.0 4 1
02/13/06 4:43 p -13.1 -13.1 -13.1 --- --- 13.0 NE 0.22 14.8 -22.4 --- --- 719.7 0.022 0.000 10.0 4 1
02/13/06 4:44 p -13.0 -13.0 -13.1 --- --- 13.9 NE 0.23 14.8 -22.7 --- --- 719.6 0.022 0.000 10.0 4 1
02/13/06 4:45 p -13.0 -12.9 -13.1 --- --- 14.8 NE 0.25 15.7 -22.9 --- --- 719.7 0.022 0.000 10.0 4 1
02/13/06 4:46 p -13.0 -13.0 -13.1 --- --- 13.9 NE 0.23 14.8 -22.7 --- --- 719.7 0.022 0.000 10.0 4 1
02/13/06 4:47 p -13.1 -13.1 -13.1 --- --- 14.8 ENE 0.25 15.7 -23.0 --- --- 719.6 0.022 0.000 10.0 5 1
02/13/06 4:48 p -13.1 -13.1 -13.1 --- --- 13.9 NE 0.23 14.8 -22.7 --- --- 719.6 0.022 0.000 10.0 4 1
02/13/06 4:49 p -13.1 -13.1 -13.1 --- --- 15.7 NE 0.26 17.4 -23.3 --- --- 719.7 0.022 0.000 10.0 4 1
02/13/06 4:50 p -13.1 -13.0 -13.1 --- --- 15.7 NE 0.26 16.5 -23.3 --- --- 719.7 0.022 0.000 10.0 4 1
02/13/06 4:51 p -12.9 -12.9 -13.0 --- --- 13.9 NE 0.23 14.8 -22.6 --- --- 719.6 0.022 0.000 10.0 5 1
02/13/06 4:52 p -12.9 -12.9 -12.9 --- --- 13.9 NE 0.23 14.8 -22.5 --- --- 719.6 0.022 0.000 10.0 4 1
02/13/06 4:53 p -12.8 -12.8 -12.8 --- --- 13.9 NE 0.23 15.7 -22.4 --- --- 719.7 0.022 0.000 10.0 5 1
02/13/06 4:54 p -12.8 -12.8 -12.8 --- --- 14.8 NE 0.25 15.7 -22.7 --- --- 719.6 0.022 0.000 10.0 4 1
02/13/06 4:55 p -12.8 -12.8 -12.9 --- --- 13.9 NE 0.23 15.7 -22.4 --- --- 719.6 0.022 0.000 10.0 4 1
02/13/06 4:56 p -12.9 -12.9 -12.9 --- --- 14.8 ENE 0.25 15.7 -22.8 --- --- 719.7 0.022 0.000 10.0 4 1
02/13/06 4:57 p -12.9 -12.9 -12.9 --- --- 15.7 NE 0.26 16.5 -23.1 --- --- 719.6 0.022 0.000 10.0 4 1
02/13/06 4:58 p -12.9 -12.9 -12.9 --- --- 15.7 NE 0.26 16.5 -23.1 --- --- 719.7 0.022 0.000 10.0 5 1
02/13/06 4:59 p -12.9 -12.9 -12.9 --- --- 14.8 NE 0.25 15.7 -22.8 --- --- 719.7 0.022 0.000 10.0 4 1
02/13/06 5:00 p -12.9 -12.8 -12.9 --- --- 13.9 NE 0.23 14.8 -22.5 --- --- 719.7 0.022 0.000 10.0 4 1
02/13/06 5:01 p -12.8 -12.8 -12.8 --- --- 14.8 NE 0.25 15.7 -22.7 --- --- 719.7 0.022 0.000 10.0 5 1
02/13/06 5:02 p -12.8 -12.8 -12.8 --- --- 13.9 NE 0.23 15.7 -22.4 --- --- 719.7 0.022 0.000 10.0 4 1
02/13/06 5:03 p -12.8 -12.8 -12.8 --- --- 14.8 NE 0.25 15.7 -22.7 --- --- 719.7 0.022 0.000 10.0 4 1
02/13/06 5:04 p -12.8 -12.8 -12.8 --- --- 14.8 NE 0.25 15.7 -22.7 --- --- 719.6 0.022 0.000 10.0 4 1
02/13/06 5:05 p -12.9 -12.9 -12.9 --- --- 14.8 ENE 0.25 15.7 -22.8 --- --- 719.7 0.022 0.000 10.0 4 1
02/13/06 5:06 p -12.9 -12.9 -12.9 --- --- 14.8 NE 0.25 15.7 -22.9 --- --- 719.7 0.022 0.000 10.0 4 1
02/13/06 5:07 p -12.9 -12.9 -13.0 --- --- 13.9 NE 0.23 14.8 -22.6 --- --- 719.7 0.022 0.000 10.0 4 1
02/13/06 5:08 p -13.0 -12.9 -13.1 --- --- 14.8 NE 0.25 14.8 -22.9 --- --- 719.7 0.022 0.000 10.0 4 1
02/13/06 5:09 p -13.0 -12.9 -13.0 --- --- 13.9 NE 0.23 14.8 -22.7 --- --- 719.7 0.022 0.000 10.0 5 1
02/13/06 5:10 p -13.0 -12.9 -13.1 --- --- 14.8 NE 0.25 15.7 -22.9 --- --- 719.7 0.022 0.000 10.0 4 1
02/13/06 5:11 p -13.1 -13.1 -13.1 --- --- 14.8 NE 0.25 15.7 -23.0 --- --- 719.7 0.022 0.000 10.0 4 1
02/13/06 5:12 p -13.1 -13.1 -13.1 --- --- 13.9 NE 0.23 14.8 -22.8 --- --- 719.7 0.022 0.000 10.0 5 1
02/13/06 5:13 p -13.1 -13.1 -13.2 --- --- 11.3 NE 0.19 12.2 -21.9 --- --- 719.7 0.022 0.000 10.0 4 1
02/13/06 5:14 p -13.2 -13.2 -13.3 --- --- 14.8 NE 0.25 15.7 -23.2 --- --- 719.7 0.022 0.000 10.0 4 1
02/13/06 5:15 p -13.3 -13.3 -13.3 --- --- 14.8 NE 0.25 15.7 -23.3 --- --- 719.6 0.022 0.000 10.0 4 1
02/13/06 5:16 p -13.2 -13.2 -13.2 --- --- 13.0 NE 0.22 14.8 -22.7 --- --- 719.7 0.022 0.000 10.0 5 1
02/13/06 5:17 p -13.1 -13.1 -13.2 --- --- 13.9 NE 0.23 14.8 -22.8 --- --- 719.8 0.022 0.000 10.0 5 1
02/13/06 5:18 p -13.0 -12.9 -13.1 --- --- 13.0 NE 0.22 14.8 -22.4 --- --- 719.7 0.022 0.000 10.0 4 1
02/13/06 5:19 p -12.9 -12.8 -12.9 --- --- 13.0 NE 0.22 13.9 -22.2 --- --- 719.7 0.022 0.000 10.0 4 1
02/13/06 5:20 p -12.8 -12.8 -12.8 --- --- 13.0 NE 0.22 14.8 -22.1 --- --- 719.7 0.022 0.000 10.0 4 1
02/13/06 5:21 p -12.7 -12.7 -12.8 --- --- 13.0 NE 0.22 13.9 -22.0 --- --- 719.7 0.022 0.000 10.0 4 1
02/13/06 5:22 p -12.7 -12.6 -12.7 --- --- 13.0 NE 0.22 13.9 -21.9 --- --- 719.8 0.022 0.000 10.0 4 1
02/13/06 5:23 p -12.6 -12.6 -12.6 --- --- 12.2 NE 0.20 13.0 -21.6 --- --- 719.7 0.021 0.000 10.0 4 1
02/13/06 5:24 p -12.6 -12.6 -12.6 --- --- 13.0 NE 0.22 13.9 -21.9 --- --- 719.7 0.021 0.000 10.0 4 1
02/13/06 5:25 p -12.7 -12.6 -12.7 --- --- 13.0 NE 0.22 13.9 -21.9 --- --- 719.8 0.022 0.000 10.0 4 1
02/13/06 5:26 p -12.7 -12.7 -12.7 --- --- 13.0 NE 0.22 13.9 -21.9 --- --- 719.7 0.022 0.000 10.0 4 1
02/13/06 5:27 p -12.7 -12.7 -12.7 --- --- 13.9 NE 0.23 14.8 -22.3 --- --- 719.6 0.022 0.000 10.0 4 1
02/13/06 5:28 p -12.7 -12.7 -12.7 --- --- 13.0 NE 0.22 13.9 -22.0 --- --- 719.7 0.022 0.000 10.0 4 1
02/13/06 5:29 p -12.7 -12.7 -12.7 --- --- 13.9 NE 0.23 14.8 -22.3 --- --- 719.7 0.022 0.000 10.0 4 1
02/13/06 5:30 p -12.7 -12.7 -12.8 --- --- 14.8 NE 0.25 15.7 -22.6 --- --- 719.7 0.022 0.000 10.0 4 1
02/13/06 5:31 p -12.7 -12.7 -12.8 --- --- 13.9 ENE 0.23 14.8 -22.3 --- --- 719.7 0.022 0.000 10.0 4 1
02/13/06 5:32 p -12.7 -12.7 -12.8 --- --- 13.9 ENE 0.23 14.8 -22.3 --- --- 719.7 0.022 0.000 10.0 4 1
02/13/06 5:33 p -12.8 -12.7 -12.8 --- --- 13.9 ENE 0.23 14.8 -22.4 --- --- 719.8 0.022 0.000 10.0 4 1
02/13/06 5:34 p -12.8 -12.8 -12.8 --- --- 13.9 NE 0.23 14.8 -22.4 --- --- 719.7 0.022 0.000 10.0 4 1
02/13/06 5:35 p -12.8 -12.8 -12.8 --- --- 13.9 NE 0.23 14.8 -22.4 --- --- 719.7 0.022 0.000 10.0 4 1
02/13/06 5:36 p -12.9 -12.8 -12.9 --- --- 13.9 NE 0.23 14.8 -22.5 --- --- 719.7 0.022 0.000 10.1 5 1
02/13/06 5:37 p -12.9 -12.9 -13.0 --- --- 13.9 NE 0.23 14.8 -22.6 --- --- 719.7 0.022 0.000 10.1 4 1
02/13/06 5:38 p -13.0 -13.0 -13.1 --- --- 14.8 NE 0.25 14.8 -22.9 --- --- 719.8 0.022 0.000 10.0 4 1
02/13/06 5:39 p -13.1 -13.1 -13.1 --- --- 13.0 NE 0.22 13.9 -22.4 --- --- 719.8 0.022 0.000 10.0 4 1
02/13/06 5:40 p -13.1 -13.1 -13.1 --- --- 13.0 NE 0.22 14.8 -22.4 --- --- 719.8 0.022 0.000 10.0 4 1
02/13/06 5:41 p -13.1 -13.1 -13.1 --- --- 13.0 NE 0.22 14.8 -22.4 --- --- 719.8 0.022 0.000 10.0 4 1
02/13/06 5:42 p -13.0 -12.9 -13.1 --- --- 13.0 NE 0.22 13.9 -22.4 --- --- 719.8 0.022 0.000 10.0 4 1
02/13/06 5:43 p -12.9 -12.9 -12.9 --- --- 13.9 NE 0.23 14.8 -22.6 --- --- 719.7 0.022 0.000 10.0 4 1
02/13/06 5:44 p -12.8 -12.8 -12.9 --- --- 13.9 NE 0.23 13.9 -22.4 --- --- 719.8 0.022 0.000 10.0 4 1
02/13/06 5:45 p -12.8 -12.8 -12.8 --- --- 13.9 ENE 0.23 14.8 -22.4 --- --- 719.8 0.022 0.000 10.0 4 1
02/13/06 5:46 p -12.8 -12.8 -12.8 --- --- 13.0 ENE 0.22 14.8 -22.2 --- --- 719.8 0.022 0.000 10.0 4 1
02/13/06 5:47 p -12.8 -12.8 -12.8 --- --- 13.0 ENE 0.22 14.8 -22.1 --- --- 719.7 0.022 0.000 10.0 4 1
02/13/06 5:48 p -12.8 -12.8 -12.8 --- --- 13.9 ENE 0.23 14.8 -22.4 --- --- 719.8 0.022 0.000 10.0 4 1
02/13/06 5:49 p -12.8 -12.8 -12.8 --- --- 13.9 ENE 0.23 14.8 -22.4 --- --- 719.7 0.022 0.000 10.0 4 1
02/13/06 5:50 p -12.8 -12.8 -12.8 --- --- 13.9 ENE 0.23 14.8 -22.4 --- --- 719.8 0.022 0.000 10.0 4 1
02/13/06 5:51 p -12.8 -12.8 -12.8 --- --- 13.9 ENE 0.23 13.9 -22.4 --- --- 719.8 0.022 0.000 10.0 4 1
02/13/06 5:52 p -12.8 -12.8 -12.8 --- --- 13.0 NE 0.22 13.9 -22.2 --- --- 719.7 0.022 0.000 10.0 4 1
02/13/06 5:53 p -12.8 -12.8 -12.8 --- --- 13.9 NE 0.23 14.8 -22.4 --- --- 719.8 0.022 0.000 10.0 4 1
02/13/06 5:54 p -12.8 -12.8 -12.8 --- --- 13.9 NE 0.23 14.8 -22.4 --- --- 719.9 0.022 0.000 10.0 4 1
02/13/06 5:55 p -12.8 -12.8 -12.8 --- --- 13.9 NE 0.23 14.8 -22.4 --- --- 719.8 0.022 0.000 10.0 4 1
02/13/06 5:56 p -12.7 -12.7 -12.8 --- --- 13.9 NE 0.23 14.8 -22.3 --- --- 719.7 0.022 0.000 10.0 4 1
02/13/06 5:57 p -12.7 -12.7 -12.7 --- --- 13.9 NE 0.23 14.8 -22.3 --- --- 719.7 0.022 0.000 10.0 4 1
02/13/06 5:58 p -12.6 -12.6 -12.7 --- --- 14.8 NE 0.25 15.7 -22.4 --- --- 719.7 0.021 0.000 10.0 4 1
02/13/06 5:59 p -12.6 -12.6 -12.6 --- --- 13.9 NE 0.23 14.8 -22.1 --- --- 719.7 0.021 0.000 10.0 4 1
02/13/06 6:00 p -12.5 -12.5 -12.6 --- --- 13.9 NE 0.23 14.8 -22.0 --- --- 719.6 0.021 0.000 10.0 4 1
02/13/06 6:01 p -12.5 -12.4 -12.5 --- --- 14.8 ENE 0.25 15.7 -22.3 --- --- 719.7 0.021 0.000 10.0 4 1
02/13/06 6:02 p -12.5 -12.5 -12.5 --- --- 13.9 NE 0.23 13.9 -22.0 --- --- 719.7 0.021 0.000 10.0 4 1
02/13/06 6:03 p -12.5 -12.4 -12.5 --- --- 13.9 ENE 0.23 14.8 -22.0 --- --- 719.7 0.021 0.000 10.0 4 1
02/13/06 6:04 p -12.5 -12.4 -12.5 --- --- 13.9 ENE 0.23 14.8 -22.0 --- --- 719.8 0.021 0.000 10.0 4 1
02/13/06 6:05 p -12.4 -12.4 -12.5 --- --- 13.9 NE 0.23 14.8 -21.9 --- --- 719.8 0.021 0.000 10.0 4 1
02/13/06 6:06 p -12.4 -12.4 -12.4 --- --- 13.0 NE 0.22 14.8 -21.7 --- --- 719.7 0.021 0.000 10.0 4 1
02/13/06 6:07 p -12.5 -12.4 -12.5 --- --- 14.8 ENE 0.25 14.8 -22.3 --- --- 719.6 0.021 0.000 10.0 4 1
02/13/06 6:08 p -12.4 -12.4 -12.4 --- --- 13.0 ENE 0.22 13.9 -21.7 --- --- 719.7 0.021 0.000 10.0 4 1
02/13/06 6:09 p -12.4 -12.4 -12.4 --- --- 13.0 ENE 0.22 13.9 -21.6 --- --- 719.7 0.021 0.000 10.1 4 1
02/13/06 6:10 p -12.3 -12.3 -12.4 --- --- 13.0 NE 0.22 13.9 -21.5 --- --- 719.7 0.021 0.000 10.1 4 1
02/13/06 6:11 p -12.3 -12.3 -12.4 --- --- 13.9 ENE 0.23 13.9 -21.8 --- --- 719.7 0.021 0.000 10.1 4 1
02/13/06 6:12 p -12.3 -12.3 -12.3 --- --- 12.2 ENE 0.20 13.9 -21.2 --- --- 719.8 0.021 0.000 10.1 4 1
02/13/06 6:13 p -12.3 -12.3 -12.3 --- --- 12.2 NE 0.20 13.9 -21.2 --- --- 719.7 0.021 0.000 10.1 4 1
02/13/06 6:14 p -12.3 -12.3 -12.3 --- --- 13.0 ENE 0.22 13.9 -21.4 --- --- 719.7 0.021 0.000 10.1 4 1
02/13/06 6:15 p -12.3 -12.3 -12.3 --- --- 12.2 NE 0.20 13.9 -21.2 --- --- 719.7 0.021 0.000 10.1 4 1
02/13/06 6:16 p -12.2 -12.2 -12.3 --- --- 13.9 ENE 0.23 14.8 -21.7 --- --- 719.7 0.021 0.000 10.1 4 1
02/13/06 6:17 p -12.2 -12.2 -12.2 --- --- 13.0 NE 0.22 14.8 -21.4 --- --- 719.7 0.021 0.000 10.1 4 1
02/13/06 6:18 p -12.2 -12.2 -12.2 --- --- 13.0 NE 0.22 14.8 -21.3 --- --- 719.7 0.021 0.000 10.1 4 1
02/13/06 6:19 p -12.2 -12.2 -12.2 --- --- 13.0 NE 0.22 15.7 -21.3 --- --- 719.7 0.021 0.000 10.1 4 1
02/13/06 6:20 p -12.2 -12.1 -12.2 --- --- 13.9 NE 0.23 15.7 -21.6 --- --- 719.8 0.021 0.000 10.1 4 1
02/13/06 6:21 p -12.2 -12.1 -12.2 --- --- 11.3 NE 0.19 13.9 -20.7 --- --- 719.7 0.021 0.000 10.1 4 1
02/13/06 6:22 p -12.2 -12.2 -12.2 --- --- 13.0 NE 0.22 13.9 -21.4 --- --- 719.6 0.021 0.000 10.1 4 1
02/13/06 6:23 p -12.2 -12.2 -12.3 --- --- 13.9 NE 0.23 14.8 -21.7 --- --- 719.7 0.021 0.000 10.1 4 1
02/13/06 6:24 p -12.3 -12.3 -12.3 --- --- 13.0 NE 0.22 13.9 -21.4 --- --- 719.7 0.021 0.000 10.1 4 1
02/13/06 6:25 p -12.3 -12.3 -12.3 --- --- 13.0 NE 0.22 13.0 -21.4 --- --- 719.7 0.021 0.000 10.1 4 1
02/13/06 6:26 p -12.3 -12.3 -12.3 --- --- 13.0 NE 0.22 14.8 -21.5 --- --- 719.7 0.021 0.000 10.1 4 1
02/13/06 6:27 p -12.3 -12.3 -12.3 --- --- 13.0 NE 0.22 13.9 -21.4 --- --- 719.7 0.021 0.000 10.1 4 1
02/13/06 6:28 p -12.2 -12.2 -12.3 --- --- 13.0 NE 0.22 14.8 -21.4 --- --- 719.7 0.021 0.000 10.1 4 1
02/13/06 6:29 p -12.2 -12.2 -12.2 --- --- 13.9 NE 0.23 13.9 -21.7 --- --- 719.7 0.021 0.000 10.1 4 1
02/13/06 6:30 p -12.2 -12.2 -12.2 --- --- 10.4 NE 0.17 12.2 -20.4 --- --- 719.6 0.021 0.000 10.1 4 1
02/13/06 6:31 p -12.2 -12.2 -12.2 --- --- 13.9 NE 0.23 15.7 -21.6 --- --- 719.7 0.021 0.000 10.1 4 1
02/13/06 6:32 p -12.2 -12.1 -12.2 --- --- 13.9 ENE 0.23 14.8 -21.6 --- --- 719.6 0.021 0.000 10.1 4 1
02/13/06 6:33 p -12.2 -12.1 -12.2 --- --- 13.9 ENE 0.23 15.7 -21.6 --- --- 719.7 0.021 0.000 10.1 4 1
02/13/06 6:34 p -12.2 -12.1 -12.2 --- --- 13.9 ENE 0.23 15.7 -21.6 --- --- 719.7 0.021 0.000 10.1 4 1
02/13/06 6:35 p -12.2 -12.2 -12.2 --- --- 13.0 ENE 0.22 14.8 -21.3 --- --- 719.7 0.021 0.000 10.1 4 1
02/13/06 6:36 p -12.2 -12.2 -12.2 --- --- 11.3 NE 0.19 13.9 -20.7 --- --- 719.8 0.021 0.000 10.1 4 1
02/13/06 6:37 p -12.2 -12.2 -12.2 --- --- 13.9 NE 0.23 14.8 -21.6 --- --- 719.7 0.021 0.000 10.1 4 1
02/13/06 6:38 p -12.2 -12.2 -12.2 --- --- 13.0 NE 0.22 13.9 -21.3 --- --- 719.7 0.021 0.000 10.1 4 1
02/13/06 6:39 p -12.2 -12.1 -12.2 --- --- 13.0 NE 0.22 14.8 -21.3 --- --- 719.7 0.021 0.000 10.1 4 1
02/13/06 6:40 p -12.2 -12.2 -12.2 --- --- 13.0 NE 0.22 13.9 -21.3 --- --- 719.7 0.021 0.000 10.1 4 1
02/13/06 6:41 p -12.2 -12.2 -12.2 --- --- 14.8 ENE 0.25 15.7 -21.8 --- --- 719.7 0.021 0.000 10.1 4 1
02/13/06 6:42 p -12.2 -12.2 -12.2 --- --- 14.8 ENE 0.25 16.5 -21.9 --- --- 719.7 0.021 0.000 10.1 4 1
02/13/06 6:43 p -12.2 -12.2 -12.2 --- --- 13.9 ENE 0.23 15.7 -21.6 --- --- 719.7 0.021 0.000 10.1 4 1
02/13/06 6:44 p -12.2 -12.2 -12.2 --- --- 11.3 NE 0.19 13.0 -20.7 --- --- 719.7 0.021 0.000 10.1 4 1
02/13/06 6:45 p -12.2 -12.2 -12.2 --- --- 13.0 NE 0.22 14.8 -21.3 --- --- 719.7 0.021 0.000 10.1 4 1
02/13/06 6:46 p -12.2 -12.2 -12.2 --- --- 13.0 NE 0.22 13.9 -21.3 --- --- 719.6 0.021 0.000 10.1 4 1
02/13/06 6:47 p -12.2 -12.2 -12.2 --- --- 13.9 NE 0.23 14.8 -21.6 --- --- 719.6 0.021 0.000 10.1 4 1
02/13/06 6:48 p -12.2 -12.2 -12.2 --- --- 12.2 NE 0.20 13.9 -21.0 --- --- 719.7 0.021 0.000 10.1 4 1
02/13/06 6:49 p -12.2 -12.2 -12.2 --- --- 11.3 NE 0.19 12.2 -20.7 --- --- 719.7 0.021 0.000 10.1 4 1
02/13/06 6:50 p -12.2 -12.2 -12.3 --- --- 12.2 NE 0.20 13.9 -21.1 --- --- 719.6 0.021 0.000 10.1 4 1
02/13/06 6:51 p -12.3 -12.3 -12.3 --- --- 12.2 NE 0.20 13.0 -21.2 --- --- 719.6 0.021 0.000 10.1 4 1
02/13/06 6:52 p -12.3 -12.2 -12.3 --- --- 12.2 NE 0.20 13.9 -21.2 --- --- 719.7 0.021 0.000 10.1 4 1
02/13/06 6:53 p -12.2 -12.2 -12.2 --- --- 12.2 NE 0.20 13.0 -21.1 --- --- 719.7 0.021 0.000 10.1 4 1
02/13/06 6:54 p -12.2 -12.1 -12.2 --- --- 12.2 NE 0.20 13.0 -21.0 --- --- 719.6 0.021 0.000 10.1 4 1
02/13/06 6:55 p -12.1 -12.1 -12.1 --- --- 12.2 NE 0.20 13.0 -20.9 --- --- 719.7 0.021 0.000 10.1 4 1
02/13/06 6:56 p -12.0 -11.9 -12.0 --- --- 12.2 NE 0.20 12.2 -20.8 --- --- 719.7 0.021 0.000 10.1 4 1
02/13/06 6:57 p -11.9 -11.9 -11.9 --- --- 11.3 NE 0.19 13.0 -20.4 --- --- 719.7 0.021 0.000 10.1 4 1
02/13/06 6:58 p -11.9 -11.9 -11.9 --- --- 12.2 NE 0.20 13.0 -20.7 --- --- 719.7 0.021 0.000 10.1 4 1
02/13/06 6:59 p -11.8 -11.8 -11.9 --- --- 10.4 NE 0.17 11.3 -19.9 --- --- 719.7 0.021 0.000 10.1 4 1
02/13/06 7:00 p -11.8 -11.8 -11.8 --- --- 11.3 NE 0.19 13.9 -20.3 --- --- 719.7 0.021 0.000 10.1 4 1
02/13/06 7:01 p -11.8 -11.7 -11.8 --- --- 13.0 NE 0.22 13.9 -20.8 --- --- 719.8 0.021 0.000 10.1 4 1
02/13/06 7:03 p -11.6 -11.6 -11.7 --- --- 7.8 NNE 0.13 8.7 -18.5 --- --- 719.8 0.021 0.000 10.1 4 1
02/13/06 7:04 p -11.6 -11.6 -11.6 --- --- 11.3 NE 0.19 13.0 -19.9 --- --- 719.8 0.021 0.000 10.1 4 1
02/13/06 7:05 p -11.6 -11.6 -11.6 --- --- 10.4 NE 0.17 11.3 -19.7 --- --- 719.8 0.021 0.000 10.1 4 1
02/13/06 7:06 p -11.6 -11.6 -11.7 --- --- 10.4 NE 0.17 13.0 -19.7 --- --- 719.7 0.021 0.000 10.1 4 1
02/13/06 7:07 p -11.6 -11.6 -11.7 --- --- 10.4 NE 0.17 12.2 -19.7 --- --- 719.8 0.021 0.000 10.1 4 1
02/13/06 7:08 p -11.6 -11.6 -11.7 --- --- 10.4 NE 0.17 11.3 -19.7 --- --- 719.8 0.021 0.000 10.1 4 1
02/13/06 7:09 p -11.6 -11.6 -11.6 --- --- 10.4 NE 0.17 13.0 -19.7 --- --- 719.7 0.021 0.000 10.1 4 1
02/13/06 7:10 p -11.6 -11.6 -11.6 --- --- 11.3 NE 0.19 12.2 -20.0 --- --- 719.7 0.021 0.000 10.1 4 1
02/13/06 7:11 p -11.6 -11.6 -11.6 --- --- 12.2 NE 0.20 13.0 -20.2 --- --- 719.7 0.021 0.000 10.1 4 1
02/13/06 7:12 p -11.6 -11.6 -11.6 --- --- 11.3 NE 0.19 13.0 -19.9 --- --- 719.9 0.021 0.000 10.1 4 1
02/13/06 7:13 p -11.6 -11.6 -11.6 --- --- 11.3 NE 0.19 13.0 -19.9 --- --- 719.8 0.021 0.000 10.1 4 1
02/13/06 7:14 p -11.6 -11.5 -11.6 --- --- 11.3 NE 0.19 12.2 -19.9 --- --- 719.9 0.021 0.000 10.1 4 1
02/13/06 7:15 p -11.6 -11.5 -11.6 --- --- 11.3 NE 0.19 12.2 -19.9 --- --- 719.9 0.021 0.000 10.1 4 1
02/13/06 7:16 p -11.6 -11.6 -11.7 --- --- 10.4 NE 0.17 12.2 -19.6 --- --- 719.8 0.021 0.000 10.1 4 1
02/13/06 7:17 p -11.7 -11.6 -11.7 --- --- 11.3 NE 0.19 12.2 -20.1 --- --- 719.8 0.021 0.000 10.0 4 1
02/13/06 7:18 p -11.7 -11.7 -11.7 --- --- 10.4 NE 0.17 12.2 -19.7 --- --- 719.8 0.021 0.000 10.1 4 1
02/13/06 7:19 p -11.7 -11.7 -11.7 --- --- 11.3 NE 0.19 11.3 -20.2 --- --- 719.8 0.021 0.000 10.0 4 1
02/13/06 7:20 p -11.7 -11.7 -11.7 --- --- 10.4 NE 0.17 12.2 -19.7 --- --- 719.8 0.021 0.000 10.0 4 1
02/13/06 7:21 p -11.7 -11.7 -11.7 --- --- 10.4 NE 0.17 11.3 -19.7 --- --- 719.8 0.021 0.000 10.0 4 1
02/13/06 7:22 p -11.7 -11.6 -11.7 --- --- 10.4 NE 0.17 11.3 -19.7 --- --- 719.8 0.021 0.000 10.0 4 1
02/13/06 7:23 p -11.6 -11.6 -11.6 --- --- 11.3 NE 0.19 11.3 -20.0 --- --- 719.8 0.021 0.000 10.0 4 1
02/13/06 7:24 p -11.6 -11.6 -11.6 --- --- 11.3 NE 0.19 12.2 -20.0 --- --- 719.8 0.021 0.000 10.0 4 1
02/13/06 7:25 p -11.6 -11.6 -11.6 --- --- 10.4 NE 0.17 11.3 -19.7 --- --- 719.7 0.021 0.000 10.0 4 1
02/13/06 7:26 p -11.6 -11.6 -11.6 --- --- 10.4 NE 0.17 12.2 -19.7 --- --- 719.7 0.021 0.000 10.0 4 1
02/13/06 7:27 p -11.6 -11.6 -11.6 --- --- 10.4 NE 0.17 12.2 -19.6 --- --- 719.7 0.021 0.000 10.0 4 1
02/13/06 7:28 p -11.6 -11.6 -11.6 --- --- 9.6 NE 0.16 11.3 -19.3 --- --- 719.8 0.021 0.000 9.9 4 1
02/13/06 7:29 p -11.6 -11.6 -11.7 --- --- 9.6 NE 0.16 10.4 -19.3 --- --- 719.7 0.021 0.000 9.9 4 1
02/13/06 7:30 p -11.7 -11.6 -11.7 --- --- 9.6 NE 0.16 10.4 -19.4 --- --- 719.8 0.021 0.000 9.9 4 1
02/13/06 7:31 p -11.7 -11.7 -11.7 --- --- 10.4 NNE 0.17 12.2 -19.7 --- --- 719.8 0.021 0.000 9.9 4 1
02/13/06 7:32 p -11.7 -11.6 -11.7 --- --- 8.7 NE 0.14 10.4 -19.0 --- --- 719.8 0.021 0.000 9.8 4 1
02/13/06 7:33 p -11.6 -11.6 -11.7 --- --- 7.8 NE 0.13 9.6 -18.5 --- --- 719.7 0.021 0.000 9.8 4 1
02/13/06 7:34 p -11.6 -11.6 -11.7 --- --- 8.7 NE 0.14 9.6 -18.9 --- --- 719.7 0.021 0.000 9.9 4 1
02/13/06 7:35 p -11.7 -11.7 -11.7 --- --- 9.6 NE 0.16 10.4 -19.4 --- --- 719.7 0.021 0.000 9.8 4 1
02/13/06 7:36 p -11.7 -11.7 -11.7 --- --- 10.4 NE 0.17 11.3 -19.8 --- --- 719.7 0.021 0.000 9.8 4 1
02/13/06 7:37 p -11.7 -11.7 -11.8 --- --- 9.6 NE 0.16 10.4 -19.4 --- --- 719.8 0.021 0.000 9.8 4 1
02/13/06 7:38 p -11.8 -11.7 -11.8 --- --- 8.7 NE 0.14 9.6 -19.1 --- --- 719.7 0.021 0.000 9.8 4 1
02/13/06 7:39 p -11.7 -11.6 -11.7 --- --- 8.7 NNE 0.14 9.6 -19.0 --- --- 719.7 0.021 0.000 9.8 4 1
02/13/06 7:40 p -11.3 -11.1 -11.5 --- --- 8.7 NNE 0.14 9.6 -18.6 --- --- 719.7 0.021 0.000 9.8 4 1
02/13/06 7:41 p -11.0 -10.9 -11.1 --- --- 8.7 NNE 0.14 9.6 -18.2 --- --- 719.7 0.020 0.000 9.8 4 1
02/13/06 7:42 p -10.8 -10.7 -10.9 --- --- 8.7 NNE 0.14 10.4 -17.9 --- --- 719.7 0.020 0.000 9.8 4 1
02/13/06 7:43 p -10.5 -10.4 -10.6 --- --- 8.7 NNE 0.14 9.6 -17.6 --- --- 719.7 0.020 0.000 9.8 4 1
02/13/06 7:44 p -10.4 -10.3 -10.4 --- --- 8.7 NNE 0.14 10.4 -17.5 --- --- 719.7 0.020 0.000 9.8 4 1
02/13/06 7:45 p -10.3 -10.2 -10.3 --- --- 8.7 NNE 0.14 9.6 -17.3 --- --- 719.7 0.020 0.000 9.8 4 1
02/13/06 7:46 p -10.1 -10.1 -10.2 --- --- 8.7 NNE 0.14 9.6 -17.1 --- --- 719.7 0.020 0.000 9.7 4 1
02/13/06 7:47 p -10.1 -9.9 -10.1 --- --- 7.0 NNE 0.12 8.7 -16.2 --- --- 719.8 0.020 0.000 9.7 4 1
02/13/06 7:48 p -9.9 -9.8 -9.9 --- --- 7.8 NNE 0.13 9.6 -16.4 --- --- 719.7 0.020 0.000 9.7 4 1
02/13/06 7:49 p -9.8 -9.8 -9.8 --- --- 7.8 NNE 0.13 8.7 -16.3 --- --- 719.8 0.020 0.000 9.7 4 1
02/13/06 7:50 p -9.7 -9.7 -9.7 --- --- 7.0 NNE 0.12 7.8 -15.8 --- --- 719.7 0.019 0.000 9.7 4 1
02/13/06 7:51 p -9.6 -9.6 -9.6 --- --- 7.0 NNE 0.12 7.8 -15.7 --- --- 719.7 0.019 0.000 9.7 4 1
02/13/06 7:52 p -9.6 -9.5 -9.6 --- --- 7.0 NNE 0.12 8.7 -15.6 --- --- 719.7 0.019 0.000 9.7 4 1
02/13/06 7:53 p -9.5 -9.4 -9.5 --- --- 7.0 NNE 0.12 7.8 -15.6 --- --- 719.7 0.019 0.000 9.7 4 1
02/13/06 7:54 p -9.4 -9.4 -9.4 --- --- 7.0 NNE 0.12 7.8 -15.5 --- --- 719.7 0.019 0.000 9.7 4 1
02/13/06 7:55 p -9.4 -9.4 -9.4 --- --- 7.8 NNE 0.13 8.7 -15.8 --- --- 719.7 0.019 0.000 9.7 4 1
02/13/06 7:56 p -9.4 -9.3 -9.4 --- --- 6.1 NNE 0.10 8.7 -14.9 --- --- 719.7 0.019 0.000 9.6 4 1
02/13/06 7:57 p -9.4 -9.3 -9.4 --- --- 7.0 NNE 0.12 8.7 -15.4 --- --- 719.8 0.019 0.000 9.6 4 1
02/13/06 7:58 p -9.4 -9.3 -9.4 --- --- 7.0 N 0.12 8.7 -15.4 --- --- 719.7 0.019 0.000 9.6 4 1
02/13/06 7:59 p -9.4 -9.4 -9.4 --- --- 7.8 N 0.13 8.7 -15.8 --- --- 719.7 0.019 0.000 9.6 4 1
02/13/06 8:00 p -9.4 -9.4 -9.4 --- --- 7.8 N 0.13 9.6 -15.9 --- --- 719.7 0.019 0.000 9.6 4 1
02/13/06 8:01 p -9.5 -9.4 -9.5 --- --- 8.7 N 0.14 10.4 -16.4 --- --- 719.7 0.019 0.000 9.6 4 1
02/13/06 8:02 p -9.4 -9.4 -9.5 --- --- 7.8 N 0.13 8.7 -15.9 --- --- 719.8 0.019 0.000 9.6 4 1
02/13/06 8:03 p -9.4 -9.4 -9.5 --- --- 8.7 N 0.14 9.6 -16.3 --- --- 719.7 0.019 0.000 9.6 4 1
02/13/06 8:04 p -9.6 -9.6 -9.6 --- --- 8.7 N 0.14 9.6 -16.5 --- --- 719.7 0.019 0.000 9.6 4 1
02/13/06 8:05 p -9.6 -9.6 -9.7 --- --- 7.8 N 0.13 9.6 -16.1 --- --- 719.8 0.019 0.000 9.6 4 1
02/13/06 8:06 p -9.7 -9.7 -9.7 --- --- 7.8 N 0.13 8.7 -16.2 --- --- 719.7 0.019 0.000 9.6 4 1
02/13/06 8:07 p -9.7 -9.7 -9.7 --- --- 7.8 N 0.13 8.7 -16.2 --- --- 719.7 0.019 0.000 9.6 4 1
02/13/06 8:08 p -9.7 -9.7 -9.7 --- --- 7.8 N 0.13 8.7 -16.2 --- --- 719.7 0.019 0.000 9.6 4 1
02/13/06 8:09 p -9.8 -9.7 -9.8 --- --- 7.8 N 0.13 8.7 -16.3 --- --- 719.7 0.020 0.000 9.6 4 1
02/13/06 8:10 p -9.8 -9.8 -9.8 --- --- 7.8 N 0.13 8.7 -16.3 --- --- 719.7 0.020 0.000 9.6 4 1
02/13/06 8:11 p -9.8 -9.8 -9.9 --- --- 8.7 N 0.14 8.7 -16.8 --- --- 719.7 0.020 0.000 9.6 4 1
02/13/06 8:12 p -9.9 -9.9 -9.9 --- --- 7.8 N 0.13 9.6 -16.4 --- --- 719.7 0.020 0.000 9.6 4 1
02/13/06 8:13 p -9.9 -9.8 -9.9 --- --- 7.8 N 0.13 9.6 -16.4 --- --- 719.7 0.020 0.000 9.6 4 1
02/13/06 8:14 p -9.9 -9.9 -9.9 --- --- 8.7 N 0.14 9.6 -16.8 --- --- 719.7 0.020 0.000 9.6 4 1
02/13/06 8:15 p -9.9 -9.9 -10.0 --- --- 8.7 N 0.14 9.6 -16.9 --- --- 719.7 0.020 0.000 9.6 4 1
02/13/06 8:16 p -10.1 -10.0 -10.1 --- --- 8.7 N 0.14 9.6 -17.1 --- --- 719.7 0.020 0.000 9.6 4 1
02/13/06 8:17 p -10.0 -10.0 -10.1 --- --- 8.7 N 0.14 10.4 -17.0 --- --- 719.7 0.020 0.000 9.6 4 1
02/13/06 8:18 p -10.0 -9.9 -10.0 --- --- 9.6 N 0.16 10.4 -17.3 --- --- 719.7 0.020 0.000 9.6 4 1
02/13/06 8:19 p -10.0 -10.0 -10.0 --- --- 8.7 N 0.14 9.6 -17.0 --- --- 719.7 0.020 0.000 9.6 4 1
02/13/06 8:20 p -10.0 -9.9 -10.1 --- --- 7.8 N 0.13 9.6 -16.6 --- --- 719.7 0.020 0.000 9.6 4 1
02/13/06 8:21 p -10.1 -10.1 -10.1 --- --- 7.8 N 0.13 9.6 -16.7 --- --- 719.7 0.020 0.000 9.6 4 1
02/13/06 8:22 p -10.1 -10.1 -10.1 --- --- 7.8 N 0.13 9.6 -16.7 --- --- 719.7 0.020 0.000 9.6 4 1
02/13/06 8:23 p -10.1 -10.1 -10.1 --- --- 7.0 N 0.12 8.7 -16.3 --- --- 719.7 0.020 0.000 9.6 4 1
02/13/06 8:24 p -10.1 -10.1 -10.1 --- --- 7.8 N 0.13 8.7 -16.7 --- --- 719.8 0.020 0.000 9.6 4 1
02/13/06 8:25 p -10.1 -10.1 -10.1 --- --- 6.1 N 0.10 7.8 -15.7 --- --- 719.8 0.020 0.000 9.6 4 1
02/13/06 8:26 p -10.1 -10.1 -10.1 --- --- 6.1 N 0.10 7.8 -15.7 --- --- 719.8 0.020 0.000 9.5 4 1
02/13/06 8:27 p -10.1 -10.1 -10.1 --- --- 6.1 N 0.10 7.8 -15.8 --- --- 719.9 0.020 0.000 9.5 4 1
02/13/06 8:28 p -10.1 -10.1 -10.1 --- --- 7.0 N 0.12 7.8 -16.3 --- --- 719.8 0.020 0.000 9.5 4 1
02/13/06 8:29 p -10.1 -10.1 -10.2 --- --- 6.1 N 0.10 7.8 -15.8 --- --- 719.7 0.020 0.000 9.5 4 1
02/13/06 8:30 p -10.2 -10.2 -10.2 --- --- 7.0 N 0.12 8.7 -16.3 --- --- 719.8 0.020 0.000 9.5 4 1
02/13/06 8:31 p -10.2 -10.2 -10.2 --- --- 7.8 N 0.13 9.6 -16.8 --- --- 719.7 0.020 0.000 9.5 4 1
02/13/06 8:32 p -10.3 -10.3 -10.3 --- --- 7.8 N 0.13 9.6 -16.9 --- --- 719.7 0.020 0.000 9.5 4 1
02/13/06 8:33 p -10.3 -10.3 -10.3 --- --- 6.1 N 0.10 8.7 -16.0 --- --- 719.7 0.020 0.000 9.5 4 1
02/13/06 8:34 p -10.3 -10.3 -10.3 --- --- 5.2 N 0.09 7.0 -15.4 --- --- 719.7 0.020 0.000 9.4 4 1
02/13/06 8:35 p -10.3 -10.3 -10.3 --- --- 5.2 N 0.09 6.1 -15.5 --- --- 719.7 0.020 0.000 9.4 4 1
02/13/06 8:36 p -10.3 -10.3 -10.3 --- --- 5.2 N 0.09 6.1 -15.4 --- --- 719.7 0.020 0.000 9.4 4 1
02/13/06 8:37 p -10.2 -10.1 -10.2 --- --- 6.1 NNW 0.10 8.7 -15.9 --- --- 719.7 0.020 0.000 9.4 4 1
02/13/06 8:38 p -10.1 -10.1 -10.2 --- --- 6.1 N 0.10 9.6 -15.8 --- --- 719.6 0.020 0.000 9.4 4 1
02/13/06 8:39 p -10.1 -10.1 -10.1 --- --- 6.1 N 0.10 8.7 -15.7 --- --- 719.6 0.020 0.000 9.4 4 1
02/13/06 8:40 p -10.1 -10.1 -10.2 --- --- 6.1 NNW 0.10 8.7 -15.8 --- --- 719.6 0.020 0.000 9.4 4 1
02/13/06 8:41 p -10.1 -10.1 -10.2 --- --- 5.2 N 0.09 6.1 -15.2 --- --- 719.7 0.020 0.000 9.4 4 1
02/13/06 8:42 p -10.2 -10.1 -10.2 --- --- 5.2 N 0.09 7.0 -15.3 --- --- 719.7 0.020 0.000 9.4 4 1
02/13/06 8:43 p -10.2 -10.2 -10.3 --- --- 5.2 N 0.09 7.0 -15.4 --- --- 719.6 0.020 0.000 9.4 4 1
02/13/06 8:44 p -10.3 -10.3 -10.3 --- --- 6.1 N 0.10 7.8 -16.0 --- --- 719.7 0.020 0.000 9.4 4 1
02/13/06 8:45 p -10.3 -10.3 -10.4 --- --- 5.2 N 0.09 6.1 -15.5 --- --- 719.7 0.020 0.000 9.4 4 1
02/13/06 8:46 p -10.5 -10.4 -10.6 --- --- 6.1 N 0.10 7.0 -16.3 --- --- 719.8 0.020 0.000 9.4 4 1
02/13/06 8:47 p -10.6 -10.6 -10.7 --- --- 6.1 N 0.10 7.0 -16.4 --- --- 719.8 0.020 0.000 9.4 4 1
02/13/06 8:48 p -10.7 -10.7 -10.7 --- --- 6.1 N 0.10 7.8 -16.4 --- --- 719.7 0.020 0.000 9.4 4 1
02/13/06 8:49 p -10.7 -10.7 -10.8 --- --- 6.1 N 0.10 7.0 -16.6 --- --- 719.6 0.020 0.000 9.4 4 1
02/13/06 8:50 p -10.8 -10.8 -10.8 --- --- 5.2 N 0.09 7.0 -16.1 --- --- 719.8 0.020 0.000 9.4 4 1
02/13/06 8:51 p -10.8 -10.8 -10.8 --- --- 7.0 N 0.12 7.8 -17.1 --- --- 719.7 0.020 0.000 9.4 4 1
02/13/06 8:52 p -10.8 -10.7 -10.8 --- --- 7.8 NNW 0.13 10.4 -17.6 --- --- 719.8 0.020 0.000 9.4 4 1
02/13/06 8:53 p -10.7 -10.7 -10.7 --- --- 6.1 N 0.10 7.8 -16.6 --- --- 719.7 0.020 0.000 9.4 4 1
02/13/06 8:54 p -10.7 -10.6 -10.7 --- --- 7.0 N 0.12 10.4 -16.9 --- --- 719.6 0.020 0.000 9.4 4 1
02/13/06 8:55 p -10.6 -10.5 -10.6 --- --- 10.4 NNW 0.17 13.0 -18.3 --- --- 719.7 0.020 0.000 9.4 4 1
02/13/06 8:56 p -10.4 -10.4 -10.4 --- --- 10.4 NNW 0.17 12.2 -18.2 --- --- 719.7 0.020 0.000 9.4 4 1
02/13/06 8:57 p -10.4 -10.4 -10.4 --- --- 10.4 NNW 0.17 12.2 -18.1 --- --- 719.7 0.020 0.000 9.4 4 1
02/13/06 8:58 p -10.4 -10.4 -10.5 --- --- 10.4 NNW 0.17 13.0 -18.2 --- --- 719.7 0.020 0.000 9.4 4 1
02/13/06 8:59 p -10.6 -10.6 -10.7 --- --- 8.7 NNW 0.14 10.4 -17.7 --- --- 719.6 0.020 0.000 9.4 4 1
02/13/06 9:00 p -10.7 -10.7 -10.7 --- --- 10.4 NNW 0.17 12.2 -18.5 --- --- 719.7 0.020 0.000 9.4 4 1
02/13/06 9:01 p -10.6 -10.5 -10.6 --- --- 10.4 NNW 0.17 12.2 -18.3 --- --- 719.7 0.020 0.000 9.4 4 1
02/13/06 9:02 p -10.5 -10.5 -10.5 --- --- 11.3 NNW 0.19 13.0 -18.6 --- --- 719.8 0.020 0.000 9.3 4 1
02/13/06 9:03 p -10.4 -10.3 -10.4 --- --- 12.2 NNW 0.20 13.9 -18.8 --- --- 719.8 0.020 0.000 9.3 4 1
02/13/06 9:04 p -10.2 -10.2 -10.2 --- --- 11.3 NNW 0.19 13.9 -18.2 --- --- 719.7 0.020 0.000 9.3 4 1
02/13/06 9:05 p -10.2 -10.1 -10.2 --- --- 10.4 NNW 0.17 12.2 -17.8 --- --- 719.7 0.020 0.000 9.2 4 1
02/13/06 9:06 p -10.2 -10.2 -10.2 --- --- 11.3 NNW 0.19 13.0 -18.2 --- --- 719.6 0.020 0.000 9.2 4 1
02/13/06 9:07 p -10.1 -10.1 -10.2 --- --- 12.2 NNW 0.20 13.9 -18.4 --- --- 719.6 0.020 0.000 9.2 4 1
02/13/06 9:08 p -10.1 -10.1 -10.1 --- --- 12.2 NNW 0.20 13.0 -18.3 --- --- 719.8 0.020 0.000 9.3 4 1
02/13/06 9:09 p -10.0 -10.0 -10.1 --- --- 12.2 NW 0.20 13.9 -18.3 --- --- 719.7 0.020 0.000 9.3 4 1
02/13/06 9:10 p -9.9 -9.9 -10.0 --- --- 11.3 NW 0.19 12.2 -17.9 --- --- 719.8 0.020 0.000 9.3 4 1
02/13/06 9:11 p -9.9 -9.9 -9.9 --- --- 10.4 NNW 0.17 13.0 -17.6 --- --- 719.7 0.020 0.000 9.3 4 1
02/13/06 9:12 p -9.9 -9.9 -9.9 --- --- 10.4 NNW 0.17 12.2 -17.6 --- --- 719.8 0.020 0.000 9.3 4 1
02/13/06 9:13 p -9.9 -9.9 -10.0 --- --- 11.3 NNW 0.19 12.2 -17.9 --- --- 719.7 0.020 0.000 9.3 4 1
02/13/06 9:14 p -9.9 -9.9 -9.9 --- --- 11.3 NW 0.19 12.2 -17.9 --- --- 719.7 0.020 0.000 9.3 4 1
02/13/06 9:15 p -9.9 -9.8 -9.9 --- --- 11.3 NW 0.19 12.2 -17.8 --- --- 719.7 0.020 0.000 9.3 4 1
02/13/06 9:16 p -9.8 -9.8 -9.8 --- --- 11.3 NW 0.19 13.0 -17.8 --- --- 719.7 0.020 0.000 9.3 4 1
02/13/06 9:17 p -9.8 -9.8 -9.8 --- --- 11.3 NW 0.19 13.9 -17.7 --- --- 719.6 0.020 0.000 9.3 4 1
02/13/06 9:18 p -9.8 -9.8 -9.8 --- --- 10.4 NNW 0.17 12.2 -17.4 --- --- 719.7 0.020 0.000 9.3 4 1
02/13/06 9:19 p -9.9 -9.8 -9.9 --- --- 11.3 NNW 0.19 13.0 -17.8 --- --- 719.6 0.020 0.000 9.3 4 1
02/13/06 9:20 p -9.8 -9.8 -9.9 --- --- 12.2 NNW 0.20 14.8 -18.1 --- --- 719.8 0.020 0.000 9.3 4 1
02/13/06 9:21 p -9.8 -9.8 -9.9 --- --- 10.4 NNW 0.17 12.2 -17.5 --- --- 719.7 0.020 0.000 9.3 4 1
02/13/06 9:22 p -9.9 -9.9 -9.9 --- --- 11.3 NNW 0.19 13.9 -17.9 --- --- 719.8 0.020 0.000 9.3 4 1
02/13/06 9:23 p -9.8 -9.8 -9.9 --- --- 11.3 NNW 0.19 13.0 -17.8 --- --- 719.7 0.020 0.000 9.3 4 1
02/13/06 9:24 p -9.8 -9.8 -9.8 --- --- 10.4 NNW 0.17 12.2 -17.5 --- --- 719.7 0.020 0.000 9.3 4 1
02/13/06 9:25 p -9.8 -9.8 -9.9 --- --- 10.4 NNW 0.17 11.3 -17.5 --- --- 719.7 0.020 0.000 9.3 4 1
02/13/06 9:26 p -9.9 -9.9 -9.9 --- --- 9.6 NNW 0.16 12.2 -17.2 --- --- 719.7 0.020 0.000 9.4 4 1
02/13/06 9:27 p -9.9 -9.9 -9.9 --- --- 9.6 NNW 0.16 12.2 -17.2 --- --- 719.6 0.020 0.000 9.3 4 1
02/13/06 9:28 p -9.9 -9.9 -9.9 --- --- 9.6 NNW 0.16 10.4 -17.2 --- --- 719.8 0.020 0.000 9.3 4 1
02/13/06 9:29 p -9.9 -9.9 -10.1 --- --- 8.7 NNW 0.14 10.4 -16.9 --- --- 719.7 0.020 0.000 9.3 4 1
02/13/06 9:30 p -10.2 -10.2 -10.2 --- --- 9.6 NNW 0.16 11.3 -17.6 --- --- 719.7 0.020 0.000 9.3 4 1
02/13/06 9:31 p -10.1 -10.0 -10.2 --- --- 10.4 NNW 0.17 12.2 -17.8 --- --- 719.6 0.020 0.000 9.3 4 1
02/13/06 9:32 p -10.0 -9.9 -10.0 --- --- 8.7 NW 0.14 11.3 -17.0 --- --- 719.7 0.020 0.000 9.3 4 1
02/13/06 9:33 p -10.0 -10.0 -10.0 --- --- 9.6 NNW 0.16 11.3 -17.3 --- --- 719.7 0.020 0.000 9.3 5 1
02/13/06 9:34 p -9.9 -9.9 -9.9 --- --- 9.6 NW 0.16 12.2 -17.3 --- --- 719.7 0.020 0.000 9.3 4 1
02/13/06 9:35 p -9.8 -9.8 -9.9 --- --- 8.7 NNW 0.14 10.4 -16.8 --- --- 719.7 0.020 0.000 9.3 4 1
02/13/06 9:36 p -9.8 -9.8 -9.9 --- --- 8.7 NNW 0.14 9.6 -16.8 --- --- 719.7 0.020 0.000 9.3 4 1
02/13/06 9:37 p -9.9 -9.8 -9.9 --- --- 8.7 NNW 0.14 9.6 -16.8 --- --- 719.7 0.020 0.000 9.3 4 1
02/13/06 9:38 p -9.9 -9.9 -9.9 --- --- 7.8 NNW 0.13 9.6 -16.4 --- --- 719.7 0.020 0.000 9.3 4 1
02/13/06 9:39 p -9.9 -9.9 -10.1 --- --- 7.8 NNW 0.13 9.6 -16.5 --- --- 719.6 0.020 0.000 9.3 5 1
02/13/06 9:40 p -10.0 -10.0 -10.0 --- --- 7.8 NNW 0.13 9.6 -16.6 --- --- 719.7 0.020 0.000 9.3 4 1
02/13/06 9:41 p -10.1 -10.0 -10.1 --- --- 7.8 NNW 0.13 8.7 -16.7 --- --- 719.6 0.020 0.000 9.3 4 1
02/13/06 9:42 p -10.1 -10.1 -10.1 --- --- 7.0 NNW 0.12 7.8 -16.2 --- --- 719.7 0.020 0.000 9.3 4 1
02/13/06 9:43 p -10.0 -10.0 -10.1 --- --- 7.0 NNW 0.12 7.8 -16.2 --- --- 719.7 0.020 0.000 9.3 4 1
02/13/06 9:44 p -10.0 -10.0 -10.1 --- --- 7.0 NNW 0.12 7.8 -16.2 --- --- 719.7 0.020 0.000 9.2 4 1
02/13/06 9:45 p -10.1 -10.0 -10.1 --- --- 7.0 NNW 0.12 8.7 -16.2 --- --- 719.7 0.020 0.000 9.2 4 1
02/13/06 9:46 p -10.1 -10.1 -10.1 --- --- 7.8 NNW 0.13 9.6 -16.7 --- --- 719.7 0.020 0.000 9.2 4 1
02/13/06 9:47 p -9.9 -9.8 -10.0 --- --- 7.0 NW 0.12 8.7 -16.1 --- --- 719.7 0.020 0.000 9.2 5 1
02/13/06 9:48 p -9.8 -9.7 -9.8 --- --- 7.8 NNW 0.13 9.6 -16.3 --- --- 719.8 0.020 0.000 9.2 4 1
02/13/06 9:49 p -9.7 -9.7 -9.8 --- --- 7.8 NNW 0.13 10.4 -16.2 --- --- 719.8 0.019 0.000 9.2 4 1
02/13/06 9:50 p -9.8 -9.8 -9.8 --- --- 7.0 NNW 0.12 9.6 -15.9 --- --- 719.7 0.020 0.000 9.2 4 1
02/13/06 9:51 p -9.8 -9.8 -9.9 --- --- 5.2 NNW 0.09 7.0 -14.9 --- --- 719.7 0.020 0.000 9.2 4 1
02/13/06 9:52 p -9.9 -9.9 -10.0 --- --- 7.8 NNW 0.13 8.7 -16.5 --- --- 719.7 0.020 0.000 9.2 4 1
02/13/06 9:53 p -10.1 -10.1 -10.2 --- --- 7.8 NNW 0.13 9.6 -16.7 --- --- 719.8 0.020 0.000 9.2 4 1
02/13/06 9:54 p -10.2 -10.2 -10.2 --- --- 7.0 NNW 0.12 8.7 -16.4 --- --- 719.8 0.020 0.000 9.2 5 1
02/13/06 9:55 p -10.2 -10.1 -10.2 --- --- 7.8 NNW 0.13 8.7 -16.8 --- --- 719.8 0.020 0.000 9.2 4 1
02/13/06 9:56 p -10.1 -10.1 -10.1 --- --- 7.0 NNW 0.12 7.8 -16.3 --- --- 719.9 0.020 0.000 9.2 4 1
02/13/06 9:57 p -10.1 -10.1 -10.2 --- --- 8.7 NNW 0.14 9.6 -17.1 --- --- 719.7 0.020 0.000 9.3 5 1
02/13/06 9:58 p -10.2 -10.2 -10.2 --- --- 7.8 NNW 0.13 9.6 -16.8 --- --- 719.9 0.020 0.000 9.3 4 1
02/13/06 9:59 p -10.2 -10.2 -10.2 --- --- 8.7 NNW 0.14 12.2 -17.3 --- --- 719.7 0.020 0.000 9.3 5 1
02/13/06 10:00 p -10.3 -10.3 -10.3 --- --- 8.7 NW 0.14 9.6 -17.3 --- --- 719.7 0.020 0.000 9.3 4 1
02/13/06 10:01 p -10.2 -10.2 -10.2 --- --- 7.0 NW 0.12 7.8 -16.4 --- --- 719.7 0.020 0.000 9.3 4 1
02/13/06 10:02 p -10.1 -10.1 -10.1 --- --- 7.8 NW 0.13 9.6 -16.7 --- --- 719.7 0.020 0.000 9.3 5 1
02/13/06 10:03 p -10.1 -10.1 -10.1 --- --- 7.8 NW 0.13 8.7 -16.7 --- --- 719.7 0.020 0.000 9.2 4 1
02/13/06 10:04 p -10.1 -10.0 -10.1 --- --- 7.0 NNW 0.12 7.8 -16.2 --- --- 719.7 0.020 0.000 9.2 4 1
02/13/06 10:05 p -9.9 -9.9 -9.9 --- --- 7.8 NW 0.13 8.7 -16.5 --- --- 719.7 0.020 0.000 9.2 4 1
02/13/06 10:06 p -9.9 -9.9 -9.9 --- --- 7.8 NW 0.13 9.6 -16.4 --- --- 719.7 0.020 0.000 9.2 4 1
02/13/06 10:07 p -9.9 -9.9 -9.9 --- --- 7.0 NW 0.12 8.7 -16.1 --- --- 719.8 0.020 0.000 9.2 4 1
02/13/06 10:08 p -9.9 -9.9 -9.9 --- --- 7.0 NW 0.12 7.8 -16.0 --- --- 719.8 0.020 0.000 9.2 4 1
02/13/06 10:09 p -9.9 -9.9 -9.9 --- --- 7.8 NW 0.13 8.7 -16.4 --- --- 719.8 0.020 0.000 9.3 4 1
02/13/06 10:10 p -9.9 -9.8 -9.9 --- --- 7.0 NW 0.12 8.7 -16.0 --- --- 719.7 0.020 0.000 9.3 4 1
02/13/06 10:11 p -9.9 -9.8 -9.9 --- --- 6.1 NW 0.10 7.8 -15.6 --- --- 719.8 0.020 0.000 9.3 4 1
02/13/06 10:12 p -9.9 -9.8 -9.9 --- --- 7.8 NW 0.13 7.8 -16.4 --- --- 719.8 0.020 0.000 9.3 4 1
02/13/06 10:13 p -9.8 -9.7 -9.8 --- --- 7.0 NW 0.12 7.8 -15.9 --- --- 719.9 0.020 0.000 9.3 4 1
02/13/06 10:14 p -9.7 -9.7 -9.8 --- --- 7.8 NW 0.13 10.4 -16.2 --- --- 719.8 0.019 0.000 9.3 4 1
02/13/06 10:15 p -9.7 -9.7 -9.7 --- --- 8.7 NW 0.14 9.6 -16.7 --- --- 719.8 0.019 0.000 9.3 4 1
02/13/06 10:16 p -9.7 -9.7 -9.7 --- --- 8.7 NW 0.14 11.3 -16.7 --- --- 719.8 0.019 0.000 9.3 4 1
02/13/06 10:17 p -9.7 -9.7 -9.7 --- --- 7.8 NW 0.13 9.6 -16.2 --- --- 719.8 0.019 0.000 9.3 4 1
02/13/06 10:18 p -9.7 -9.7 -9.7 --- --- 7.0 NW 0.12 7.8 -15.8 --- --- 719.7 0.019 0.000 9.3 4 1
02/13/06 10:19 p -9.7 -9.7 -9.8 --- --- 7.0 NW 0.12 7.8 -15.8 --- --- 719.8 0.019 0.000 9.3 4 1
02/13/06 10:20 p -9.7 -9.7 -9.7 --- --- 6.1 NW 0.10 7.0 -15.3 --- --- 719.8 0.019 0.000 9.3 4 1
02/13/06 10:21 p -9.7 -9.7 -9.7 --- --- 6.1 NW 0.10 7.0 -15.3 --- --- 719.8 0.019 0.000 9.3 4 1
02/13/06 10:22 p -9.6 -9.6 -9.7 --- --- 7.0 NW 0.12 7.0 -15.7 --- --- 719.8 0.019 0.000 9.3 4 1
02/13/06 10:23 p -9.7 -9.7 -9.7 --- --- 5.2 NW 0.09 6.1 -14.7 --- --- 719.8 0.019 0.000 9.3 4 1
02/13/06 10:24 p -9.7 -9.6 -9.7 --- --- 6.1 NW 0.10 7.8 -15.3 --- --- 719.7 0.019 0.000 9.3 4 1
02/13/06 10:25 p -9.6 -9.6 -9.6 --- --- 7.0 WNW 0.12 7.8 -15.7 --- --- 719.7 0.019 0.000 9.3 4 1
02/13/06 10:26 p -9.6 -9.6 -9.6 --- --- 6.1 NW 0.10 7.8 -15.1 --- --- 719.9 0.019 0.000 9.3 4 1
02/13/06 10:27 p -9.5 -9.5 -9.5 --- --- 7.0 NW 0.12 8.7 -15.6 --- --- 719.8 0.019 0.000 9.3 4 1
02/13/06 10:28 p -9.5 -9.4 -9.5 --- --- 6.1 NW 0.10 7.8 -15.1 --- --- 719.9 0.019 0.000 9.3 4 1
02/13/06 10:29 p -9.4 -9.4 -9.4 --- --- 6.1 NW 0.10 7.8 -15.0 --- --- 719.8 0.019 0.000 9.2 4 1
02/13/06 10:30 p -9.4 -9.4 -9.4 --- --- 7.8 WNW 0.13 8.7 -15.9 --- --- 719.8 0.019 0.000 9.2 4 1
02/13/06 10:31 p -9.4 -9.4 -9.4 --- --- 7.8 NW 0.13 8.7 -15.8 --- --- 719.8 0.019 0.000 9.2 4 1
02/13/06 10:32 p -9.4 -9.3 -9.4 --- --- 6.1 WNW 0.10 7.8 -14.9 --- --- 719.8 0.019 0.000 9.2 4 1
02/13/06 10:33 p -9.3 -9.3 -9.4 --- --- 6.1 WNW 0.10 7.0 -14.8 --- --- 719.8 0.019 0.000 9.2 4 1
02/13/06 10:34 p -9.3 -9.3 -9.3 --- --- 6.1 WNW 0.10 7.8 -14.8 --- --- 719.8 0.019 0.000 9.2 4 1
02/13/06 10:35 p -9.3 -9.3 -9.3 --- --- 7.0 WNW 0.12 8.7 -15.3 --- --- 719.8 0.019 0.000 9.3 4 1
02/13/06 10:36 p -9.3 -9.3 -9.3 --- --- 6.1 NW 0.10 7.0 -14.8 --- --- 719.8 0.019 0.000 9.3 4 1
02/13/06 10:37 p -9.2 -9.2 -9.3 --- --- 5.2 WNW 0.09 7.0 -14.2 --- --- 719.8 0.019 0.000 9.3 4 1
02/13/06 10:38 p -9.2 -9.2 -9.2 --- --- 6.1 WNW 0.10 7.8 -14.7 --- --- 719.9 0.019 0.000 9.3 4 1
02/13/06 10:39 p -9.2 -9.2 -9.2 --- --- 7.0 NW 0.12 7.8 -15.2 --- --- 719.9 0.019 0.000 9.3 4 1
02/13/06 10:40 p -9.2 -9.2 -9.2 --- --- 5.2 WNW 0.09 7.0 -14.1 --- --- 719.8 0.019 0.000 9.3 4 1
02/13/06 10:41 p -9.2 -9.2 -9.2 --- --- 7.8 WNW 0.13 8.7 -15.6 --- --- 719.8 0.019 0.000 9.3 4 1
02/13/06 10:42 p -9.2 -9.2 -9.2 --- --- 5.2 WNW 0.09 7.0 -14.1 --- --- 719.8 0.019 0.000 9.2 4 1
02/13/06 10:43 p -9.1 -9.1 -9.1 --- --- 6.1 WNW 0.10 6.1 -14.6 --- --- 719.8 0.019 0.000 9.2 4 1
02/13/06 10:44 p -9.1 -9.1 -9.2 --- --- 7.0 WNW 0.12 7.8 -15.1 --- --- 719.8 0.019 0.000 9.2 4 1
02/13/06 10:45 p -9.1 -9.1 -9.1 --- --- 7.0 WNW 0.12 7.8 -15.1 --- --- 719.8 0.019 0.000 9.2 4 1
02/13/06 10:46 p -9.1 -9.1 -9.1 --- --- 7.0 WNW 0.12 7.8 -15.0 --- --- 719.8 0.019 0.000 9.2 4 1
02/13/06 10:47 p -9.1 -9.1 -9.1 --- --- 7.0 WNW 0.12 7.8 -15.0 --- --- 719.8 0.019 0.000 9.2 4 1
02/13/06 10:48 p -9.1 -9.1 -9.1 --- --- 6.1 WNW 0.10 7.0 -14.6 --- --- 719.7 0.019 0.000 9.1 4 1
02/13/06 10:49 p -9.1 -9.1 -9.1 --- --- 5.2 WNW 0.09 6.1 -14.1 --- --- 719.9 0.019 0.000 9.2 4 1
02/13/06 10:50 p -9.1 -9.0 -9.1 --- --- 5.2 WNW 0.09 6.1 -14.0 --- --- 719.8 0.019 0.000 9.2 4 1
02/13/06 10:51 p -9.0 -8.9 -9.0 --- --- 4.3 WNW 0.07 5.2 -13.3 --- --- 719.8 0.019 0.000 9.2 4 1
02/13/06 10:52 p -8.9 -8.9 -8.9 --- --- 6.1 WNW 0.10 7.0 -14.4 --- --- 719.8 0.019 0.000 9.2 4 1
02/13/06 10:53 p -8.8 -8.8 -8.9 --- --- 5.2 WNW 0.09 6.1 -13.7 --- --- 719.8 0.019 0.000 9.2 4 1
02/13/06 10:54 p -8.8 -8.7 -8.8 --- --- 6.1 WNW 0.10 7.0 -14.2 --- --- 719.8 0.019 0.000 9.2 4 1
02/13/06 10:55 p -8.6 -8.6 -8.7 --- --- 6.1 WNW 0.10 7.0 -14.0 --- --- 719.8 0.019 0.000 9.2 4 1
02/13/06 10:56 p -8.5 -8.4 -8.6 --- --- 6.1 WNW 0.10 7.0 -13.8 --- --- 719.8 0.019 0.000 9.2 4 1
02/13/06 10:57 p -8.4 -8.3 -8.4 --- --- 6.1 WNW 0.10 7.0 -13.7 --- --- 719.8 0.019 0.000 9.2 4 1
02/13/06 10:58 p -8.3 -8.2 -8.4 --- --- 6.1 WNW 0.10 7.8 -13.7 --- --- 719.8 0.019 0.000 9.2 4 1
02/13/06 10:59 p -8.2 -8.1 -8.2 --- --- 6.1 WNW 0.10 7.0 -13.4 --- --- 719.8 0.018 0.000 9.2 4 1
02/13/06 11:00 p -8.1 -8.0 -8.1 --- --- 7.0 WNW 0.12 7.8 -13.8 --- --- 719.8 0.018 0.000 9.2 5 1
02/13/06 11:01 p -7.9 -7.9 -7.9 --- --- 7.0 WNW 0.12 7.0 -13.7 --- --- 719.8 0.018 0.000 9.2 4 1
02/13/06 11:03 p -7.8 -7.8 -7.8 --- --- 7.0 WNW 0.12 7.8 -13.4 --- --- 719.8 0.018 0.000 9.2 5 1
02/13/06 11:04 p -7.7 -7.7 -7.8 --- --- 6.1 WNW 0.10 6.1 -12.9 --- --- 719.7 0.018 0.000 9.2 4 1
02/13/06 11:05 p -7.7 -7.7 -7.7 --- --- 7.0 WNW 0.12 8.7 -13.3 --- --- 719.8 0.018 0.000 9.2 4 1
02/13/06 11:06 p -7.7 -7.7 -7.8 --- --- 7.0 WNW 0.12 8.7 -13.4 --- --- 719.7 0.018 0.000 9.2 4 1
02/13/06 11:07 p -7.8 -7.8 -7.8 --- --- 7.0 WNW 0.12 8.7 -13.4 --- --- 719.8 0.018 0.000 9.2 4 1
02/13/06 11:08 p -7.7 -7.7 -7.7 --- --- 6.1 WNW 0.10 7.0 -12.9 --- --- 719.8 0.018 0.000 9.2 4 1
02/13/06 11:09 p -7.6 -7.6 -7.7 --- --- 7.8 WNW 0.13 8.7 -13.7 --- --- 719.8 0.018 0.000 9.2 5 1
02/13/06 11:10 p -7.6 -7.6 -7.6 --- --- 10.4 WNW 0.17 12.2 -14.6 --- --- 719.8 0.018 0.000 9.2 4 1
02/13/06 11:11 p -7.6 -7.6 -7.6 --- --- 9.6 WNW 0.16 11.3 -14.3 --- --- 719.8 0.018 0.000 9.2 5 1
02/13/06 11:12 p -7.6 -7.6 -7.6 --- --- 8.7 WNW 0.14 9.6 -14.1 --- --- 719.8 0.018 0.000 9.2 4 1
02/13/06 11:13 p -7.6 -7.6 -7.6 --- --- 7.8 WNW 0.13 8.7 -13.7 --- --- 719.7 0.018 0.000 9.2 4 1
02/13/06 11:14 p -7.6 -7.6 -7.6 --- --- 7.8 WNW 0.13 9.6 -13.6 --- --- 719.9 0.018 0.000 9.2 4 1
02/13/06 11:15 p -7.5 -7.4 -7.6 --- --- 7.8 W 0.13 9.6 -13.5 --- --- 719.8 0.018 0.000 9.2 4 1
02/13/06 11:16 p -7.4 -7.4 -7.4 --- --- 7.8 WNW 0.13 8.7 -13.4 --- --- 719.8 0.018 0.000 9.2 4 1
02/13/06 11:17 p -7.4 -7.4 -7.4 --- --- 7.8 WNW 0.13 9.6 -13.4 --- --- 719.8 0.018 0.000 9.2 5 1
02/13/06 11:18 p -7.4 -7.4 -7.4 --- --- 7.0 WNW 0.12 8.7 -13.1 --- --- 719.8 0.018 0.000 9.2 5 1
02/13/06 11:19 p -7.3 -7.3 -7.4 --- --- 7.0 WNW 0.12 7.8 -12.9 --- --- 719.8 0.018 0.000 9.2 5 1
02/13/06 11:20 p -7.3 -7.3 -7.3 --- --- 7.0 WNW 0.12 8.7 -12.9 --- --- 719.8 0.018 0.000 9.2 5 1
02/13/06 11:21 p -7.3 -7.3 -7.3 --- --- 7.0 WNW 0.12 7.8 -12.9 --- --- 719.8 0.018 0.000 9.2 5 1
02/13/06 11:22 p -7.3 -7.3 -7.3 --- --- 7.8 WNW 0.13 9.6 -13.3 --- --- 719.7 0.018 0.000 9.2 5 1
02/13/06 11:23 p -7.3 -7.3 -7.3 --- --- 7.8 WNW 0.13 9.6 -13.3 --- --- 719.8 0.018 0.000 9.2 5 1
02/13/06 11:24 p -7.3 -7.2 -7.3 --- --- 6.1 WNW 0.10 7.0 -12.4 --- --- 719.8 0.018 0.000 9.2 4 1
02/13/06 11:25 p -7.2 -7.2 -7.3 --- --- 7.0 WNW 0.12 8.7 -12.8 --- --- 719.7 0.018 0.000 9.2 5 1
02/13/06 11:26 p -7.3 -7.2 -7.3 --- --- 7.8 WNW 0.13 8.7 -13.2 --- --- 719.8 0.018 0.000 9.2 4 1
02/13/06 11:27 p -7.3 -7.2 -7.3 --- --- 7.0 WNW 0.12 7.8 -12.8 --- --- 719.8 0.018 0.000 9.2 4 1
02/13/06 11:28 p -7.2 -7.2 -7.2 --- --- 5.2 WNW 0.09 7.0 -11.8 --- --- 719.8 0.018 0.000 9.2 5 1
02/13/06 11:29 p -7.2 -7.2 -7.2 --- --- 7.0 WNW 0.12 9.6 -12.7 --- --- 719.8 0.018 0.000 9.2 5 1
02/13/06 11:30 p -7.2 -7.2 -7.2 --- --- 10.4 WNW 0.17 11.3 -14.2 --- --- 719.7 0.018 0.000 9.3 5 1
02/13/06 11:31 p -7.2 -7.2 -7.3 --- --- 8.7 WNW 0.14 9.6 -13.6 --- --- 719.8 0.018 0.000 9.3 5 1
02/13/06 11:32 p -7.2 -7.2 -7.2 --- --- 8.7 WNW 0.14 10.4 -13.5 --- --- 719.9 0.018 0.000 9.3 4 1
02/13/06 11:33 p -7.3 -7.2 -7.3 --- --- 7.8 WNW 0.13 9.6 -13.2 --- --- 719.9 0.018 0.000 9.3 4 1
02/13/06 11:34 p -7.3 -7.3 -7.4 --- --- 7.8 WNW 0.13 8.7 -13.3 --- --- 719.7 0.018 0.000 9.3 5 1
02/13/06 11:35 p -7.4 -7.4 -7.4 --- --- 7.8 WNW 0.13 9.6 -13.4 --- --- 719.8 0.018 0.000 9.3 5 1
02/13/06 11:36 p -7.4 -7.3 -7.4 --- --- 8.7 WNW 0.14 9.6 -13.8 --- --- 719.8 0.018 0.000 9.3 5 1
02/13/06 11:37 p -7.3 -7.2 -7.3 --- --- 7.0 WNW 0.12 8.7 -12.8 --- --- 719.8 0.018 0.000 9.3 5 1
02/13/06 11:38 p -7.2 -7.2 -7.2 --- --- 7.8 WNW 0.13 9.6 -13.1 --- --- 719.8 0.018 0.000 9.3 5 1
02/13/06 11:39 p -7.3 -7.2 -7.3 --- --- 7.8 WNW 0.13 8.7 -13.2 --- --- 719.8 0.018 0.000 9.3 5 1
02/13/06 11:40 p -7.3 -7.3 -7.3 --- --- 8.7 WNW 0.14 10.4 -13.7 --- --- 719.8 0.018 0.000 9.3 5 1
02/13/06 11:41 p -7.3 -7.3 -7.3 --- --- 9.6 WNW 0.16 11.3 -14.0 --- --- 719.7 0.018 0.000 9.3 5 1
02/13/06 11:42 p -7.3 -7.3 -7.3 --- --- 8.7 WNW 0.14 9.6 -13.6 --- --- 719.7 0.018 0.000 9.3 5 1
02/13/06 11:43 p -7.3 -7.2 -7.3 --- --- 8.7 WNW 0.14 10.4 -13.6 --- --- 719.8 0.018 0.000 9.3 5 1
02/13/06 11:44 p -7.2 -7.2 -7.2 --- --- 8.7 WNW 0.14 9.6 -13.6 --- --- 719.9 0.018 0.000 9.2 5 1
02/13/06 11:45 p -7.2 -7.2 -7.3 --- --- 8.7 WNW 0.14 8.7 -13.6 --- --- 719.7 0.018 0.000 9.2 5 1
02/13/06 11:46 p -7.2 -7.2 -7.3 --- --- 8.7 WNW 0.14 9.6 -13.6 --- --- 719.8 0.018 0.000 9.2 5 1
02/13/06 11:47 p -7.2 -7.2 -7.3 --- --- 7.0 WNW 0.12 8.7 -12.8 --- --- 719.9 0.018 0.000 9.2 5 1
02/13/06 11:48 p -7.2 -7.2 -7.3 --- --- 9.6 WNW 0.16 10.4 -13.8 --- --- 719.8 0.018 0.000 9.2 5 1
02/13/06 11:49 p -7.3 -7.3 -7.3 --- --- 8.7 WNW 0.14 11.3 -13.7 --- --- 719.8 0.018 0.000 9.2 5 1
02/13/06 11:50 p -7.3 -7.3 -7.3 --- --- 7.8 WNW 0.13 8.7 -13.2 --- --- 719.7 0.018 0.000 9.3 5 1
02/13/06 11:51 p -7.3 -7.2 -7.3 --- --- 7.8 WNW 0.13 7.8 -13.2 --- --- 719.8 0.018 0.000 9.3 5 1
02/13/06 11:52 p -7.2 -7.2 -7.2 --- --- 7.0 WNW 0.12 7.8 -12.8 --- --- 719.8 0.018 0.000 9.3 5 1
02/13/06 11:53 p -7.2 -7.2 -7.3 --- --- 8.7 WNW 0.14 13.0 -13.6 --- --- 719.8 0.018 0.000 9.3 4 1
02/13/06 11:54 p -7.4 -7.3 -7.4 --- --- 10.4 WNW 0.17 13.9 -14.4 --- --- 719.8 0.018 0.000 9.3 5 1
02/13/06 11:55 p -7.4 -7.4 -7.4 --- --- 10.4 WNW 0.17 11.3 -14.4 --- --- 719.8 0.018 0.000 9.3 5 1
02/13/06 11:56 p -7.4 -7.4 -7.4 --- --- 8.7 WNW 0.14 11.3 -13.8 --- --- 719.7 0.018 0.000 9.3 5 1
02/13/06 11:57 p -7.3 -7.3 -7.4 --- --- 7.8 WNW 0.13 9.6 -13.3 --- --- 719.8 0.018 0.000 9.3 5 1
02/13/06 11:58 p -7.3 -7.3 -7.3 --- --- 7.0 WNW 0.12 7.8 -12.9 --- --- 719.8 0.018 0.000 9.2 5 1
02/13/06 11:59 p -7.3 -7.2 -7.3 --- --- 7.8 WNW 0.13 9.6 -13.2 --- --- 719.9 0.018 0.000 9.2 5 1
02/14/06 12:00 a -7.2 -7.2 -7.3 --- --- 9.6 WNW 0.16 11.3 -13.9 --- --- 719.7 0.018 0.000 9.2 5 1
02/14/06 12:01 a -7.4 -7.3 -7.4 --- --- 9.6 WNW 0.16 12.2 -14.1 --- --- 719.8 0.018 0.000 9.3 5 1
02/14/06 12:02 a -7.4 -7.3 -7.4 --- --- 7.8 WNW 0.13 8.7 -13.4 --- --- 719.8 0.018 0.000 9.3 5 1
02/14/06 12:03 a -7.2 -7.2 -7.3 --- --- 7.8 WNW 0.13 8.7 -13.2 --- --- 719.8 0.018 0.000 9.3 5 1
02/14/06 12:04 a -7.1 -7.1 -7.2 --- --- 8.7 WNW 0.14 11.3 -13.4 --- --- 719.9 0.018 0.000 9.2 5 1
02/14/06 12:05 a -7.2 -7.1 -7.3 --- --- 8.7 NW 0.14 10.4 -13.5 --- --- 719.8 0.018 0.000 9.2 5 1
02/14/06 12:06 a -7.2 -7.2 -7.2 --- --- 7.8 WNW 0.13 8.7 -13.1 --- --- 719.8 0.018 0.000 9.2 5 1
02/14/06 12:07 a -7.1 -7.1 -7.2 --- --- 7.8 NW 0.13 8.7 -13.1 --- --- 719.9 0.018 0.000 9.2 5 1
02/14/06 12:08 a -7.1 -7.0 -7.1 --- --- 7.0 NW 0.12 7.8 -12.6 --- --- 719.7 0.018 0.000 9.3 5 1
02/14/06 12:09 a -6.9 -6.9 -7.0 --- --- 7.0 NW 0.12 7.8 -12.4 --- --- 719.8 0.018 0.000 9.3 5 1
02/14/06 12:10 a -6.9 -6.8 -6.9 --- --- 7.8 NW 0.13 8.7 -12.8 --- --- 719.8 0.018 0.000 9.3 5 1
02/14/06 12:11 a -6.8 -6.8 -6.9 --- --- 7.0 NW 0.12 8.7 -12.3 --- --- 719.8 0.017 0.000 9.3 5 1
02/14/06 12:12 a -6.8 -6.8 -6.9 --- --- 7.0 NW 0.12 8.7 -12.3 --- --- 719.8 0.017 0.000 9.3 5 1
02/14/06 12:13 a -6.8 -6.7 -6.8 --- --- 7.0 NW 0.12 7.8 -12.2 --- --- 719.8 0.017 0.000 9.3 5 1
02/14/06 12:14 a -6.8 -6.8 -6.8 --- --- 7.8 WNW 0.13 9.6 -12.6 --- --- 719.8 0.017 0.000 9.3 5 1
02/14/06 12:15 a -6.9 -6.9 -6.9 --- --- 7.8 WNW 0.13 8.7 -12.8 --- --- 719.8 0.018 0.000 9.3 5 1
02/14/06 12:16 a -6.8 -6.8 -6.9 --- --- 7.0 WNW 0.12 8.7 -12.3 --- --- 719.8 0.017 0.000 9.3 5 1
02/14/06 12:17 a -6.8 -6.8 -6.8 --- --- 6.1 WNW 0.10 7.8 -11.8 --- --- 719.9 0.017 0.000 9.3 5 1
02/14/06 12:18 a -6.8 -6.8 -6.8 --- --- 6.1 WNW 0.10 8.7 -11.8 --- --- 719.8 0.017 0.000 9.3 5 1
02/14/06 12:19 a -6.8 -6.8 -6.8 --- --- 7.0 WNW 0.12 7.8 -12.2 --- --- 719.9 0.017 0.000 9.3 5 1
02/14/06 12:20 a -6.8 -6.7 -6.8 --- --- 7.8 WNW 0.13 9.6 -12.6 --- --- 719.8 0.017 0.000 9.3 5 1
02/14/06 12:21 a -6.8 -6.8 -6.9 --- --- 8.7 WNW 0.14 10.4 -13.1 --- --- 719.8 0.017 0.000 9.3 5 1
02/14/06 12:22 a -6.9 -6.9 -6.9 --- --- 8.7 WNW 0.14 10.4 -13.1 --- --- 719.8 0.018 0.000 9.3 5 1
02/14/06 12:23 a -6.9 -6.9 -6.9 --- --- 8.7 WNW 0.14 10.4 -13.2 --- --- 719.8 0.018 0.000 9.3 5 1
02/14/06 12:24 a -6.9 -6.9 -7.0 --- --- 8.7 NW 0.14 11.3 -13.2 --- --- 719.7 0.018 0.000 9.3 5 1
02/14/06 12:25 a -6.9 -6.9 -7.0 --- --- 8.7 NW 0.14 10.4 -13.2 --- --- 719.7 0.018 0.000 9.3 5 1
02/14/06 12:26 a -6.9 -6.9 -6.9 --- --- 8.7 NW 0.14 9.6 -13.2 --- --- 719.7 0.018 0.000 9.3 5 1
02/14/06 12:27 a -6.9 -6.8 -6.9 --- --- 9.6 NW 0.16 12.2 -13.4 --- --- 719.7 0.018 0.000 9.3 5 1
02/14/06 12:28 a -6.8 -6.8 -6.9 --- --- 9.6 NW 0.16 11.3 -13.4 --- --- 719.7 0.017 0.000 9.3 5 1
02/14/06 12:29 a -6.8 -6.8 -6.8 --- --- 7.8 NW 0.13 10.4 -12.7 --- --- 719.8 0.017 0.000 9.3 5 1
02/14/06 12:30 a -6.7 -6.7 -6.7 --- --- 8.7 NW 0.14 9.6 -12.9 --- --- 719.7 0.017 0.000 9.3 5 1
02/14/06 12:31 a -6.7 -6.7 -6.7 --- --- 8.7 NW 0.14 10.4 -12.9 --- --- 719.8 0.017 0.000 9.4 5 1
02/14/06 12:32 a -6.7 -6.7 -6.7 --- --- 9.6 NW 0.16 10.4 -13.2 --- --- 719.8 0.017 0.000 9.4 5 1
02/14/06 12:33 a -6.8 -6.7 -6.8 --- --- 8.7 NW 0.14 9.6 -13.0 --- --- 719.7 0.017 0.000 9.3 5 1
02/14/06 12:34 a -6.8 -6.8 -6.8 --- --- 9.6 NW 0.16 11.3 -13.3 --- --- 719.7 0.017 0.000 9.3 5 1
02/14/06 12:35 a -6.9 -6.9 -6.9 --- --- 9.6 NW 0.16 10.4 -13.4 --- --- 719.7 0.018 0.000 9.3 5 1
02/14/06 12:36 a -6.9 -6.8 -6.9 --- --- 8.7 NW 0.14 9.6 -13.1 --- --- 719.8 0.018 0.000 9.3 5 1
02/14/06 12:37 a -6.9 -6.9 -7.0 --- --- 9.6 NW 0.16 10.4 -13.6 --- --- 719.8 0.018 0.000 9.3 5 1
02/14/06 12:38 a -6.9 -6.9 -7.0 --- --- 11.3 NW 0.19 13.0 -14.2 --- --- 719.8 0.018 0.000 9.3 5 1
02/14/06 12:39 a -7.0 -7.0 -7.1 --- --- 10.4 NW 0.17 12.2 -13.9 --- --- 719.8 0.018 0.000 9.3 5 1
02/14/06 12:40 a -6.9 -6.9 -7.0 --- --- 10.4 NW 0.17 12.2 -13.8 --- --- 719.8 0.018 0.000 9.3 5 1
02/14/06 12:41 a -6.9 -6.9 -6.9 --- --- 9.6 WNW 0.16 10.4 -13.6 --- --- 719.8 0.018 0.000 9.3 5 1
02/14/06 12:42 a -6.9 -6.9 -7.0 --- --- 10.4 NW 0.17 13.0 -13.8 --- --- 719.8 0.018 0.000 9.3 5 1
02/14/06 12:43 a -6.9 -6.9 -7.0 --- --- 9.6 NW 0.16 10.4 -13.6 --- --- 719.8 0.018 0.000 9.4 5 1
02/14/06 12:44 a -6.9 -6.8 -6.9 --- --- 9.6 NW 0.16 11.3 -13.4 --- --- 719.8 0.018 0.000 9.4 5 1
02/14/06 12:45 a -6.9 -6.9 -6.9 --- --- 7.8 NW 0.13 9.6 -12.8 --- --- 719.8 0.018 0.000 9.4 5 1
02/14/06 12:46 a -6.9 -6.9 -7.0 --- --- 9.6 NW 0.16 11.3 -13.6 --- --- 719.8 0.018 0.000 9.4 5 1
02/14/06 12:47 a -7.0 -6.9 -7.0 --- --- 9.6 NW 0.16 10.4 -13.6 --- --- 719.7 0.018 0.000 9.3 5 1
02/14/06 12:48 a -6.9 -6.8 -7.0 --- --- 8.7 NW 0.14 10.4 -13.2 --- --- 719.8 0.018 0.000 9.3 5 1
02/14/06 12:49 a -6.7 -6.6 -6.8 --- --- 7.8 NW 0.13 10.4 -12.5 --- --- 719.8 0.017 0.000 9.3 5 1
02/14/06 12:50 a -6.6 -6.6 -6.6 --- --- 8.7 NW 0.14 10.4 -12.8 --- --- 719.7 0.017 0.000 9.3 5 1
02/14/06 12:51 a -6.6 -6.6 -6.7 --- --- 7.8 NW 0.13 8.7 -12.4 --- --- 719.7 0.017 0.000 9.3 5 1
02/14/06 12:52 a -6.7 -6.6 -6.8 --- --- 8.7 NW 0.14 10.4 -12.9 --- --- 719.8 0.017 0.000 9.3 5 1
02/14/06 12:53 a -6.7 -6.7 -6.7 --- --- 9.6 NW 0.16 11.3 -13.2 --- --- 719.8 0.017 0.000 9.3 5 1
02/14/06 12:54 a -6.7 -6.6 -6.7 --- --- 9.6 NW 0.16 9.6 -13.2 --- --- 719.8 0.017 0.000 9.3 5 1
02/14/06 12:55 a -6.6 -6.6 -6.6 --- --- 9.6 NW 0.16 12.2 -13.1 --- --- 719.7 0.017 0.000 9.3 5 1
02/14/06 12:56 a -6.6 -6.6 -6.6 --- --- 10.4 NW 0.17 12.2 -13.4 --- --- 719.8 0.017 0.000 9.3 5 1
02/14/06 12:57 a -6.5 -6.4 -6.6 --- --- 8.7 NW 0.14 10.4 -12.7 --- --- 719.8 0.017 0.000 9.3 5 1
02/14/06 12:58 a -6.4 -6.4 -6.4 --- --- 8.7 NW 0.14 10.4 -12.6 --- --- 719.8 0.017 0.000 9.3 5 1
02/14/06 12:59 a -6.5 -6.4 -6.6 --- --- 10.4 NW 0.17 11.3 -13.3 --- --- 719.6 0.017 0.000 9.3 5 1
02/14/06 1:00 a -6.6 -6.5 -6.6 --- --- 9.6 NW 0.16 10.4 -13.1 --- --- 719.7 0.017 0.000 9.3 5 1
02/14/06 1:01 a -6.6 -6.5 -6.6 --- --- 9.6 NW 0.16 12.2 -13.1 --- --- 719.7 0.017 0.000 9.4 5 1
02/14/06 1:02 a -6.5 -6.5 -6.6 --- --- 8.7 NW 0.14 10.4 -12.7 --- --- 719.7 0.017 0.000 9.4 5 1
02/14/06 1:03 a -6.6 -6.6 -6.6 --- --- 10.4 NW 0.17 11.3 -13.4 --- --- 719.7 0.017 0.000 9.4 5 1
02/14/06 1:04 a -6.7 -6.6 -6.8 --- --- 9.6 NW 0.16 11.3 -13.2 --- --- 719.8 0.017 0.000 9.4 5 1
02/14/06 1:05 a -6.7 -6.6 -6.8 --- --- 7.0 WNW 0.12 10.4 -12.2 --- --- 719.8 0.017 0.000 9.3 5 1
02/14/06 1:06 a -6.7 -6.6 -6.7 --- --- 10.4 NW 0.17 13.0 -13.5 --- --- 719.7 0.017 0.000 9.3 5 1
02/14/06 1:07 a -6.7 -6.7 -6.8 --- --- 11.3 NW 0.19 13.0 -13.9 --- --- 719.7 0.017 0.000 9.3 5 1
02/14/06 1:08 a -6.7 -6.7 -6.7 --- --- 10.4 NW 0.17 13.0 -13.6 --- --- 719.7 0.017 0.000 9.3 5 1
02/14/06 1:09 a -6.7 -6.6 -6.7 --- --- 8.7 NW 0.14 10.4 -12.8 --- --- 719.8 0.017 0.000 9.3 5 1
02/14/06 1:10 a -6.6 -6.5 -6.6 --- --- 9.6 NW 0.16 10.4 -13.1 --- --- 719.7 0.017 0.000 9.3 5 1
02/14/06 1:11 a -6.6 -6.6 -6.6 --- --- 8.7 WNW 0.14 10.4 -12.8 --- --- 719.8 0.017 0.000 9.3 5 1
02/14/06 1:12 a -6.6 -6.5 -6.6 --- --- 7.8 NW 0.13 8.7 -12.3 --- --- 719.8 0.017 0.000 9.3 5 1
02/14/06 1:13 a -6.4 -6.3 -6.5 --- --- 8.7 NW 0.14 9.6 -12.5 --- --- 719.7 0.017 0.000 9.3 5 1
02/14/06 1:14 a -6.3 -6.3 -6.4 --- --- 8.7 NW 0.14 11.3 -12.4 --- --- 719.8 0.017 0.000 9.3 5 1
02/14/06 1:15 a -6.4 -6.3 -6.4 --- --- 9.6 NW 0.16 11.3 -12.8 --- --- 719.7 0.017 0.000 9.4 5 1
02/14/06 1:16 a -6.4 -6.3 -6.4 --- --- 7.0 NW 0.12 7.8 -11.8 --- --- 719.7 0.017 0.000 9.4 5 1
02/14/06 1:17 a -6.3 -6.2 -6.3 --- --- 8.7 NW 0.14 10.4 -12.4 --- --- 719.7 0.017 0.000 9.4 5 1
02/14/06 1:18 a -6.3 -6.3 -6.3 --- --- 8.7 NW 0.14 9.6 -12.4 --- --- 719.7 0.017 0.000 9.4 5 1
02/14/06 1:19 a -6.2 -6.2 -6.3 --- --- 9.6 NW 0.16 10.4 -12.7 --- --- 719.7 0.017 0.000 9.4 5 1
02/14/06 1:20 a -6.3 -6.2 -6.3 --- --- 11.3 NW 0.19 13.0 -13.3 --- --- 719.7 0.017 0.000 9.4 5 1
02/14/06 1:21 a -6.3 -6.3 -6.4 --- --- 9.6 NW 0.16 11.3 -12.8 --- --- 719.7 0.017 0.000 9.4 5 1
02/14/06 1:22 a -6.4 -6.4 -6.6 --- --- 11.3 NW 0.19 13.0 -13.5 --- --- 719.6 0.017 0.000 9.4 5 1
02/14/06 1:23 a -6.5 -6.4 -6.5 --- --- 13.0 NW 0.22 13.9 -14.1 --- --- 719.7 0.017 0.000 9.4 5 1
02/14/06 1:24 a -6.5 -6.5 -6.5 --- --- 12.2 NW 0.20 13.0 -13.8 --- --- 719.6 0.017 0.000 9.4 5 1
02/14/06 1:25 a -6.5 -6.4 -6.5 --- --- 11.3 NW 0.19 13.0 -13.6 --- --- 719.7 0.017 0.000 9.4 5 1
02/14/06 1:26 a -6.6 -6.5 -6.6 --- --- 10.4 WNW 0.17 11.3 -13.4 --- --- 719.7 0.017 0.000 9.4 5 1
02/14/06 1:27 a -6.5 -6.5 -6.5 --- --- 9.6 NW 0.16 10.4 -13.0 --- --- 719.7 0.017 0.000 9.4 5 1
02/14/06 1:28 a -6.4 -6.4 -6.4 --- --- 9.6 NW 0.16 11.3 -12.9 --- --- 719.8 0.017 0.000 9.4 5 1
02/14/06 1:29 a -6.4 -6.4 -6.4 --- --- 10.4 NW 0.17 12.2 -13.2 --- --- 719.8 0.017 0.000 9.5 5 1
02/14/06 1:30 a -6.4 -6.3 -6.4 --- --- 12.2 NW 0.20 13.9 -13.7 --- --- 719.8 0.017 0.000 9.5 5 1
02/14/06 1:31 a -6.3 -6.3 -6.3 --- --- 12.2 NW 0.20 13.9 -13.7 --- --- 719.8 0.017 0.000 9.6 5 1
02/14/06 1:32 a -6.3 -6.3 -6.3 --- --- 13.0 NW 0.22 14.8 -13.8 --- --- 719.7 0.017 0.000 9.6 5 1
02/14/06 1:33 a -6.3 -6.2 -6.3 --- --- 13.0 NW 0.22 13.9 -13.8 --- --- 719.7 0.017 0.000 9.6 5 1
02/14/06 1:34 a -6.3 -6.2 -6.3 --- --- 11.3 WNW 0.19 13.0 -13.3 --- --- 719.7 0.017 0.000 9.5 5 1
02/14/06 1:35 a -6.4 -6.3 -6.5 --- --- 11.3 WNW 0.19 13.0 -13.4 --- --- 719.7 0.017 0.000 9.5 5 1
02/14/06 1:36 a -6.6 -6.6 -6.7 --- --- 11.3 NW 0.19 12.2 -13.7 --- --- 719.7 0.017 0.000 9.5 5 1
02/14/06 1:37 a -6.6 -6.6 -6.6 --- --- 9.6 NW 0.16 12.2 -13.1 --- --- 719.7 0.017 0.000 9.5 5 1
02/14/06 1:38 a -6.4 -6.3 -6.6 --- --- 10.4 NW 0.17 15.7 -13.2 --- --- 719.6 0.017 0.000 9.5 5 1
02/14/06 1:39 a -6.3 -6.3 -6.4 --- --- 13.9 NW 0.23 16.5 -14.1 --- --- 719.6 0.017 0.000 9.5 5 1
02/14/06 1:40 a -6.4 -6.4 -6.4 --- --- 13.9 NW 0.23 16.5 -14.2 --- --- 719.6 0.017 0.000 9.5 5 1
02/14/06 1:41 a -6.3 -6.3 -6.3 --- --- 14.8 NW 0.25 16.5 -14.4 --- --- 719.6 0.017 0.000 9.5 5 1
02/14/06 1:42 a -6.3 -6.2 -6.3 --- --- 13.0 NW 0.22 14.8 -13.8 --- --- 719.6 0.017 0.000 9.5 5 1
02/14/06 1:43 a -6.5 -6.4 -6.5 --- --- 11.3 NW 0.19 13.9 -13.6 --- --- 719.7 0.017 0.000 9.6 5 1
02/14/06 1:44 a -6.7 -6.5 -6.8 --- --- 12.2 NW 0.20 15.7 -14.1 --- --- 719.7 0.017 0.000 9.6 5 1
02/14/06 1:45 a -6.6 -6.5 -6.7 --- --- 9.6 NW 0.16 11.3 -13.1 --- --- 719.7 0.017 0.000 9.6 5 1
02/14/06 1:46 a -6.5 -6.5 -6.6 --- --- 11.3 NW 0.19 14.8 -13.6 --- --- 719.7 0.017 0.000 9.6 5 1
02/14/06 1:47 a -6.4 -6.4 -6.4 --- --- 7.8 WNW 0.13 10.4 -12.2 --- --- 719.7 0.017 0.000 9.6 5 1
02/14/06 1:48 a -6.3 -6.3 -6.4 --- --- 9.6 NW 0.16 11.3 -12.8 --- --- 719.7 0.017 0.000 9.6 5 1
02/14/06 1:49 a -6.3 -6.2 -6.3 --- --- 8.7 NW 0.14 9.6 -12.4 --- --- 719.7 0.017 0.000 9.6 5 1
02/14/06 1:50 a -6.1 -6.1 -6.1 --- --- 10.4 NW 0.17 13.0 -12.8 --- --- 719.6 0.017 0.000 9.6 5 1
02/14/06 1:51 a -6.1 -6.0 -6.1 --- --- 12.2 NW 0.20 13.9 -13.3 --- --- 719.6 0.017 0.000 9.5 5 1
02/14/06 1:52 a -5.9 -5.8 -5.9 --- --- 9.6 NW 0.16 10.4 -12.2 --- --- 719.8 0.017 0.000 9.5 5 1
02/14/06 1:53 a -5.8 -5.8 -5.8 --- --- 8.7 NW 0.14 9.6 -11.8 --- --- 719.7 0.017 0.000 9.5 5 1
02/14/06 1:54 a -5.8 -5.7 -5.9 --- --- 9.6 NW 0.16 12.2 -12.2 --- --- 719.7 0.017 0.000 9.5 5 1
02/14/06 1:55 a -6.0 -5.9 -6.1 --- --- 9.6 NW 0.16 11.3 -12.4 --- --- 719.6 0.017 0.000 9.5 5 1
02/14/06 1:56 a -6.1 -6.1 -6.1 --- --- 9.6 NW 0.16 11.3 -12.4 --- --- 719.6 0.017 0.000 9.4 5 1
02/14/06 1:57 a -5.9 -5.9 -5.9 --- --- 9.6 NW 0.16 11.3 -12.3 --- --- 719.7 0.017 0.000 9.5 5 1
02/14/06 1:58 a -5.8 -5.6 -5.9 --- --- 9.6 NW 0.16 10.4 -12.1 --- --- 719.6 0.017 0.000 9.5 5 1
02/14/06 1:59 a -5.6 -5.6 -5.6 --- --- 8.7 NW 0.14 10.4 -11.6 --- --- 719.7 0.017 0.000 9.5 5 1
02/14/06 2:00 a -5.6 -5.5 -5.6 --- --- 10.4 NW 0.17 11.3 -12.1 --- --- 719.5 0.017 0.000 9.5 5 1
02/14/06 2:01 a -5.6 -5.5 -5.7 --- --- 9.6 NW 0.16 11.3 -11.9 --- --- 719.6 0.017 0.000 9.5 6 1
02/14/06 2:02 a -5.7 -5.7 -5.8 --- --- 8.7 NW 0.14 9.6 -11.7 --- --- 719.6 0.017 0.000 9.5 6 1
02/14/06 2:03 a -5.7 -5.7 -5.8 --- --- 7.8 NW 0.13 8.7 -11.3 --- --- 719.5 0.017 0.000 9.5 6 1
02/14/06 2:04 a -5.6 -5.6 -5.7 --- --- 9.6 NW 0.16 10.4 -11.9 --- --- 719.6 0.017 0.000 9.5 6 1
02/14/06 2:05 a -5.7 -5.7 -5.8 --- --- 8.7 NW 0.14 9.6 -11.7 --- --- 719.6 0.017 0.000 9.5 6 1
02/14/06 2:06 a -5.8 -5.7 -5.8 --- --- 8.7 NW 0.14 9.6 -11.8 --- --- 719.6 0.017 0.000 9.6 6 1
02/14/06 2:07 a -5.7 -5.6 -5.7 --- --- 10.4 NW 0.17 12.2 -12.2 --- --- 719.6 0.017 0.000 9.6 6 1
02/14/06 2:08 a -5.6 -5.6 -5.6 --- --- 9.6 NW 0.16 10.4 -11.9 --- --- 719.7 0.017 0.000 9.6 6 1
02/14/06 2:09 a -5.6 -5.6 -5.6 --- --- 8.7 NW 0.14 9.6 -11.5 --- --- 719.6 0.017 0.000 9.6 6 1
02/14/06 2:10 a -5.6 -5.5 -5.6 --- --- 8.7 NW 0.14 10.4 -11.5 --- --- 719.6 0.017 0.000 9.6 6 1
02/14/06 2:11 a -5.7 -5.6 -6.1 --- --- 8.7 NW 0.14 11.3 -11.6 --- --- 719.6 0.017 0.000 9.6 6 1
02/14/06 2:12 a -6.2 -6.1 -6.3 --- --- 9.6 NW 0.16 11.3 -12.6 --- --- 719.6 0.017 0.000 9.6 6 1
02/14/06 2:13 a -6.1 -5.8 -6.3 --- --- 8.7 NW 0.14 10.4 -12.1 --- --- 719.6 0.017 0.000 9.6 6 1
02/14/06 2:14 a -5.8 -5.7 -6.1 --- --- 8.7 NW 0.14 10.4 -11.8 --- --- 719.6 0.017 0.000 9.6 6 1
02/14/06 2:15 a -6.0 -5.9 -6.1 --- --- 9.6 NW 0.16 10.4 -12.4 --- --- 719.6 0.017 0.000 9.6 6 1
02/14/06 2:16 a -5.9 -5.9 -5.9 --- --- 8.7 NW 0.14 9.6 -11.9 --- --- 719.6 0.017 0.000 9.6 6 1
02/14/06 2:17 a -5.8 -5.7 -5.9 --- --- 9.6 NW 0.16 11.3 -12.1 --- --- 719.6 0.017 0.000 9.6 6 1
02/14/06 2:18 a -5.7 -5.7 -5.7 --- --- 8.7 NW 0.14 10.4 -11.6 --- --- 719.6 0.017 0.000 9.6 6 1
02/14/06 2:19 a -5.7 -5.7 -5.7 --- --- 9.6 NW 0.16 10.4 -11.9 --- --- 719.7 0.017 0.000 9.6 6 1
02/14/06 2:20 a -5.7 -5.6 -5.7 --- --- 8.7 NW 0.14 10.4 -11.6 --- --- 719.6 0.017 0.000 9.6 6 1
02/14/06 2:21 a -5.8 -5.7 -5.9 --- --- 7.8 NW 0.13 10.4 -11.4 --- --- 719.6 0.017 0.000 9.6 6 1
02/14/06 2:22 a -5.7 -5.7 -5.8 --- --- 7.0 NW 0.12 8.7 -10.9 --- --- 719.7 0.017 0.000 9.7 6 1
02/14/06 2:23 a -5.7 -5.6 -5.7 --- --- 7.0 WNW 0.12 8.7 -10.9 --- --- 719.6 0.017 0.000 9.7 6 1
02/14/06 2:24 a -5.8 -5.7 -5.8 --- --- 7.0 NW 0.12 8.7 -11.0 --- --- 719.6 0.017 0.000 9.7 6 1
02/14/06 2:25 a -5.7 -5.7 -5.8 --- --- 7.0 WNW 0.12 7.8 -10.9 --- --- 719.6 0.017 0.000 9.7 6 1
02/14/06 2:26 a -5.7 -5.7 -5.7 --- --- 7.0 NW 0.12 7.8 -10.9 --- --- 719.6 0.017 0.000 9.7 6 1
02/14/06 2:27 a -5.6 -5.6 -5.7 --- --- 7.8 NW 0.13 10.4 -11.2 --- --- 719.6 0.017 0.000 9.6 6 1
02/14/06 2:28 a -5.4 -5.2 -5.6 --- --- 6.1 NW 0.10 7.8 -10.1 --- --- 719.7 0.016 0.000 9.6 6 1
02/14/06 2:29 a -5.3 -5.2 -5.4 --- --- 7.8 WNW 0.13 9.6 -10.8 --- --- 719.6 0.016 0.000 9.6 6 1
02/14/06 2:30 a -5.5 -5.4 -5.6 --- --- 7.8 NW 0.13 11.3 -11.1 --- --- 719.7 0.017 0.000 9.6 6 1
02/14/06 2:31 a -5.4 -5.3 -5.5 --- --- 7.0 WNW 0.12 8.7 -10.6 --- --- 719.6 0.016 0.000 9.6 6 1
02/14/06 2:32 a -5.6 -5.6 -5.6 --- --- 7.0 WNW 0.12 9.6 -10.7 --- --- 719.6 0.017 0.000 9.6 6 1
02/14/06 2:33 a -5.6 -5.6 -5.7 --- --- 7.8 WNW 0.13 9.6 -11.2 --- --- 719.6 0.017 0.000 9.6 6 1
02/14/06 2:34 a -5.5 -5.3 -5.7 --- --- 6.1 NW 0.10 7.8 -10.2 --- --- 719.6 0.017 0.000 9.6 6 1
02/14/06 2:35 a -5.4 -5.4 -5.5 --- --- 6.1 WNW 0.10 9.6 -10.2 --- --- 719.6 0.017 0.000 9.6 6 1
02/14/06 2:36 a -5.5 -5.4 -5.6 --- --- 6.1 NW 0.10 7.8 -10.2 --- --- 719.6 0.017 0.000 9.6 6 1
02/14/06 2:37 a -5.2 -5.2 -5.3 --- --- 6.1 NW 0.10 7.0 -9.9 --- --- 719.6 0.016 0.000 9.6 6 1
02/14/06 2:38 a -5.3 -5.2 -5.4 --- --- 7.0 NW 0.12 8.7 -10.4 --- --- 719.6 0.016 0.000 9.6 6 1
02/14/06 2:39 a -5.4 -5.4 -5.5 --- --- 7.0 NW 0.12 7.8 -10.6 --- --- 719.6 0.017 0.000 9.6 6 1
02/14/06 2:40 a -5.5 -5.4 -5.5 --- --- 6.1 WNW 0.10 7.0 -10.2 --- --- 719.6 0.017 0.000 9.6 6 1
02/14/06 2:41 a -5.5 -5.4 -5.6 --- --- 6.1 NW 0.10 7.8 -10.2 --- --- 719.5 0.017 0.000 9.6 6 1
02/14/06 2:42 a -5.4 -5.4 -5.4 --- --- 7.0 NW 0.12 7.8 -10.6 --- --- 719.6 0.017 0.000 9.6 6 1
02/14/06 2:43 a -5.4 -5.3 -5.4 --- --- 6.1 WNW 0.10 7.0 -10.1 --- --- 719.6 0.016 0.000 9.6 6 1
02/14/06 2:44 a -5.4 -5.3 -5.4 --- --- 6.1 WNW 0.10 7.0 -10.1 --- --- 719.6 0.016 0.000 9.6 6 1
02/14/06 2:45 a -5.4 -5.3 -5.4 --- --- 4.3 WNW 0.07 6.1 -9.1 --- --- 719.7 0.017 0.000 9.6 6 1
02/14/06 2:46 a -5.4 -5.3 -5.4 --- --- 6.1 WNW 0.10 7.0 -10.1 --- --- 719.6 0.016 0.000 9.6 6 1
02/14/06 2:47 a -5.4 -5.3 -5.4 --- --- 4.3 WNW 0.07 6.1 -9.1 --- --- 719.5 0.016 0.000 9.6 6 1
02/14/06 2:48 a -5.4 -5.4 -5.4 --- --- 6.1 WNW 0.10 7.0 -10.1 --- --- 719.6 0.016 0.000 9.6 6 1
02/14/06 2:49 a -5.3 -5.1 -5.4 --- --- 6.1 NW 0.10 7.0 -10.0 --- --- 719.6 0.016 0.000 9.6 6 1
02/14/06 2:50 a -4.9 -4.7 -5.1 --- --- 5.2 NW 0.09 6.1 -9.0 --- --- 719.6 0.016 0.000 9.6 6 1
02/14/06 2:51 a -4.4 -4.2 -4.7 --- --- 4.3 NW 0.07 4.3 -7.9 --- --- 719.6 0.016 0.000 9.6 6 1
02/14/06 2:52 a -4.2 -4.2 -4.4 --- --- 5.2 NW 0.09 6.1 -8.2 --- --- 719.5 0.016 0.000 9.6 6 1
02/14/06 2:53 a -4.5 -4.4 -4.6 --- --- 5.2 NW 0.09 6.1 -8.6 --- --- 719.6 0.016 0.000 9.6 6 1
02/14/06 2:54 a -4.7 -4.5 -4.7 --- --- 5.2 WNW 0.09 6.1 -8.8 --- --- 719.6 0.016 0.000 9.6 6 1
02/14/06 2:55 a -4.6 -4.6 -4.7 --- --- 4.3 NW 0.07 6.1 -8.2 --- --- 719.6 0.016 0.000 9.6 6 1
02/14/06 2:56 a -4.7 -4.7 -4.8 --- --- 4.3 NW 0.07 6.1 -8.2 --- --- 719.6 0.016 0.000 9.6 6 1
02/14/06 2:57 a -4.6 -4.6 -4.7 --- --- 5.2 NW 0.09 6.1 -8.7 --- --- 719.7 0.016 0.000 9.6 6 1
02/14/06 2:58 a -4.7 -4.6 -4.8 --- --- 5.2 NW 0.09 6.1 -8.8 --- --- 719.6 0.016 0.000 9.6 6 1
02/14/06 2:59 a -4.6 -4.6 -4.7 --- --- 4.3 NW 0.07 5.2 -8.2 --- --- 719.6 0.016 0.000 9.6 6 1
02/14/06 3:00 a -4.7 -4.6 -4.9 --- --- 4.3 WNW 0.07 5.2 -8.3 --- --- 719.6 0.016 0.000 9.6 6 1
02/14/06 3:01 a -4.9 -4.9 -5.1 --- --- 4.3 W 0.07 5.2 -8.6 --- --- 719.6 0.016 0.000 9.6 6 1
02/14/06 3:02 a -5.1 -5.0 -5.1 --- --- 4.3 W 0.07 5.2 -8.7 --- --- 719.6 0.016 0.000 9.6 6 1
02/14/06 3:03 a -5.1 -5.1 -5.1 --- --- 3.5 W 0.06 4.3 -8.0 --- --- 719.7 0.016 0.000 9.6 6 1
02/14/06 3:04 a -5.0 -4.9 -5.1 --- --- 3.5 W 0.06 4.3 -7.9 --- --- 719.6 0.016 0.000 9.6 6 1
02/14/06 3:05 a -4.9 -4.9 -5.0 --- --- 2.6 W 0.04 3.5 -7.1 --- --- 719.6 0.016 0.000 9.6 6 1
02/14/06 3:06 a -4.7 -4.6 -4.8 --- --- 3.5 W 0.06 3.5 -7.6 --- --- 719.5 0.016 0.000 9.6 6 1
02/14/06 3:07 a -4.5 -4.4 -4.6 --- --- 3.5 WNW 0.06 5.2 -7.4 --- --- 719.6 0.016 0.000 9.6 6 1
02/14/06 3:08 a -4.4 -4.4 -4.5 --- --- 2.6 WNW 0.04 4.3 -6.5 --- --- 719.6 0.016 0.000 9.6 6 1
02/14/06 3:09 a -4.4 -4.4 -4.4 --- --- 2.6 WNW 0.04 3.5 -6.4 --- --- 719.5 0.016 0.000 9.6 6 1
02/14/06 3:10 a -4.4 -4.4 -4.5 --- --- 1.7 WNW 0.03 2.6 -5.4 --- --- 719.6 0.016 0.000 9.6 6 1
02/14/06 3:11 a -4.3 -4.2 -4.4 --- --- 2.6 WNW 0.04 3.5 -6.3 --- --- 719.6 0.016 0.000 9.6 6 1
02/14/06 3:12 a -4.1 -3.9 -4.2 --- --- 1.7 WNW 0.03 2.6 -5.1 --- --- 719.6 0.016 0.000 9.6 6 1
02/14/06 3:13 a -3.8 -3.8 -3.9 --- --- 2.6 WNW 0.04 3.5 -5.8 --- --- 719.7 0.015 0.000 9.6 6 1
02/14/06 3:14 a -3.9 -3.9 -4.0 --- --- 1.7 W 0.03 3.5 -4.9 --- --- 719.7 0.015 0.000 9.6 6 1
02/14/06 3:15 a -3.9 -3.9 -4.0 --- --- 1.7 W 0.03 2.6 -4.9 --- --- 719.6 0.015 0.000 9.6 6 1
02/14/06 3:16 a -3.9 -3.9 -3.9 --- --- 1.7 W 0.03 2.6 -4.8 --- --- 719.6 0.015 0.000 9.6 6 1
02/14/06 3:17 a -3.8 -3.8 -3.9 --- --- 1.7 W 0.03 3.5 -4.8 --- --- 719.7 0.015 0.000 9.6 6 1
02/14/06 3:18 a -3.8 -3.8 -3.8 --- --- 2.6 W 0.04 4.3 -5.8 --- --- 719.6 0.015 0.000 9.6 6 1
02/14/06 3:19 a -3.8 -3.7 -3.9 --- --- 3.5 WSW 0.06 4.3 -6.6 --- --- 719.7 0.015 0.000 9.6 6 1
02/14/06 3:20 a -3.8 -3.8 -3.9 --- --- 2.6 WSW 0.04 3.5 -5.8 --- --- 719.6 0.015 0.000 9.6 6 1
02/14/06 3:21 a -3.8 -3.8 -3.8 --- --- 2.6 WSW 0.04 2.6 -5.8 --- --- 719.7 0.015 0.000 9.6 6 1
02/14/06 3:22 a -3.7 -3.6 -3.8 --- --- 2.6 WSW 0.04 3.5 -5.6 --- --- 719.7 0.015 0.000 9.6 6 1
02/14/06 3:23 a -3.7 -3.6 -3.7 --- --- 2.6 WSW 0.04 4.3 -5.6 --- --- 719.7 0.015 0.000 9.6 6 1
02/14/06 3:24 a -3.9 -3.9 -4.0 --- --- 2.6 WSW 0.04 5.2 -5.9 --- --- 719.7 0.015 0.000 9.6 6 1
02/14/06 3:25 a -4.0 -3.9 -4.2 --- --- 4.3 WSW 0.07 5.2 -7.4 --- --- 719.7 0.016 0.000 9.6 6 1
02/14/06 3:26 a -4.2 -4.1 -4.2 --- --- 2.6 WSW 0.04 3.5 -6.3 --- --- 719.6 0.016 0.000 9.6 6 1
02/14/06 3:27 a -4.0 -4.0 -4.1 --- --- 3.5 WSW 0.06 5.2 -6.8 --- --- 719.7 0.016 0.000 9.6 6 1
02/14/06 3:28 a -4.1 -4.1 -4.2 --- --- 3.5 WSW 0.06 4.3 -6.9 --- --- 719.7 0.016 0.000 9.6 6 1
02/14/06 3:29 a -4.1 -3.8 -4.2 --- --- 2.6 WSW 0.04 4.3 -6.1 --- --- 719.7 0.016 0.000 9.6 6 1
02/14/06 3:30 a -3.8 -3.7 -3.8 --- --- 3.5 WSW 0.06 4.3 -6.6 --- --- 719.6 0.015 0.000 9.6 6 1
02/14/06 3:31 a -3.8 -3.7 -3.8 --- --- 4.3 WSW 0.07 6.1 -7.2 --- --- 719.6 0.015 0.000 9.6 6 1
02/14/06 3:32 a -3.7 -3.6 -3.8 --- --- 3.5 SSW 0.06 4.3 -6.4 --- --- 719.7 0.015 0.000 9.6 6 1
02/14/06 3:33 a -3.4 -3.0 -3.6 --- --- 3.5 SSW 0.06 4.3 -6.2 --- --- 719.6 0.015 0.000 9.6 6 1
02/14/06 3:34 a -2.7 -2.1 -3.0 --- --- 2.6 SSW 0.04 4.3 -4.5 --- --- 719.6 0.015 0.000 9.6 6 1
02/14/06 3:35 a -1.7 -1.3 -2.1 --- --- 2.6 SSW 0.04 4.3 -3.4 --- --- 719.6 0.014 0.000 9.7 6 1
02/14/06 3:36 a -1.1 -0.9 -1.3 --- --- 3.5 SSW 0.06 5.2 -3.4 --- --- 719.6 0.014 0.000 9.7 6 1
02/14/06 3:37 a -0.8 -0.7 -0.9 --- --- 3.5 SSW 0.06 4.3 -3.1 --- --- 719.6 0.013 0.000 9.7 6 1
02/14/06 3:38 a -0.5 -0.1 -0.7 --- --- 2.6 SSW 0.04 3.5 -2.1 --- --- 719.6 0.013 0.000 9.7 6 1
02/14/06 3:39 a 0.3 0.6 -0.1 --- --- 2.6 SSW 0.04 3.5 -1.2 --- --- 719.7 0.013 0.000 9.7 6 1
02/14/06 3:40 a 0.5 0.6 0.4 --- --- 2.6 SSW 0.04 2.6 -0.9 --- --- 719.6 0.012 0.000 9.7 6 1
02/14/06 3:41 a 0.6 0.7 0.4 --- --- 2.6 SSW 0.04 5.2 -0.9 --- --- 719.6 0.012 0.000 9.7 6 1
02/14/06 3:42 a 0.6 0.7 0.3 --- --- 4.3 S 0.07 5.2 -2.1 --- --- 719.6 0.012 0.000 9.7 6 1
02/14/06 3:43 a 0.0 0.3 -0.2 --- --- 5.2 S 0.09 6.1 -3.2 --- --- 719.7 0.013 0.000 9.7 6 1
02/14/06 3:44 a -0.1 0.2 -0.1 --- --- 3.5 S 0.06 4.3 -2.2 --- --- 719.6 0.013 0.000 9.7 6 1
02/14/06 3:45 a 0.2 0.3 0.1 --- --- 2.6 S 0.04 4.3 -1.3 --- --- 719.5 0.013 0.000 9.7 6 1
02/14/06 3:46 a 0.5 0.7 0.3 --- --- 2.6 S 0.04 4.3 -0.9 --- --- 719.7 0.012 0.000 9.7 6 1
02/14/06 3:47 a 0.6 0.8 0.6 --- --- 1.7 S 0.03 3.5 0.1 --- --- 719.6 0.012 0.000 9.7 6 1
02/14/06 3:48 a 1.0 1.1 0.8 --- --- 2.6 S 0.04 4.3 -0.3 --- --- 719.6 0.012 0.000 9.7 6 1
02/14/06 3:49 a 0.8 0.9 0.7 --- --- 3.5 S 0.06 4.3 -1.3 --- --- 719.6 0.012 0.000 9.7 6 1
02/14/06 3:50 a 0.2 0.3 0.0 --- --- 3.5 S 0.06 4.3 -1.9 --- --- 719.6 0.013 0.000 9.7 6 1
02/14/06 3:51 a 0.3 0.5 0.3 --- --- 3.5 S 0.06 3.5 -1.8 --- --- 719.6 0.013 0.000 9.7 6 1
02/14/06 3:52 a 1.1 1.4 0.8 --- --- 2.6 S 0.04 3.5 -0.2 --- --- 719.6 0.012 0.000 9.8 6 1
02/14/06 3:53 a 1.8 1.9 1.8 --- --- 2.6 S 0.04 3.5 0.5 --- --- 719.6 0.011 0.000 9.8 6 1
02/14/06 3:54 a 2.2 2.3 2.1 --- --- 3.5 S 0.06 4.3 0.3 --- --- 719.6 0.011 0.000 9.8 6 1
02/14/06 3:55 a 2.1 2.3 1.9 --- --- 3.5 S 0.06 4.3 0.3 --- --- 719.7 0.011 0.000 9.8 6 1
02/14/06 3:56 a 1.1 1.5 0.6 --- --- 2.6 S 0.04 4.3 -0.3 --- --- 719.7 0.012 0.000 9.8 6 1
02/14/06 3:57 a 0.9 1.4 0.7 --- --- 2.6 S 0.04 3.5 -0.4 --- --- 719.6 0.012 0.000 9.8 6 1
02/14/06 3:58 a 1.7 2.0 1.4 --- --- 2.6 S 0.04 3.5 0.4 --- --- 719.7 0.012 0.000 9.8 6 1
02/14/06 3:59 a 2.1 2.3 2.0 --- --- 2.6 S 0.04 3.5 0.9 --- --- 719.7 0.011 0.000 9.8 6 1
02/14/06 4:00 a 2.4 2.6 2.3 --- --- 2.6 S 0.04 3.5 1.3 --- --- 719.6 0.011 0.000 9.8 6 1
02/14/06 4:01 a 2.8 2.8 2.7 --- --- 1.7 S 0.03 3.5 2.5 --- --- 719.6 0.011 0.000 9.8 6 1
02/14/06 4:03 a 2.9 2.9 2.9 --- --- 0.9 S 0.01 2.6 2.9 --- --- 719.6 0.011 0.000 9.8 6 1
02/14/06 4:04 a 3.0 3.1 2.9 --- --- 0.9 S 0.01 1.7 3.0 --- --- 719.7 0.011 0.000 9.8 6 1
02/14/06 4:05 a 3.2 3.4 3.1 --- --- 0.9 S 0.01 1.7 3.2 --- --- 719.7 0.010 0.000 9.8 6 1
02/14/06 4:06 a 3.4 3.4 3.4 --- --- 1.7 S 0.03 2.6 3.2 --- --- 719.7 0.010 0.000 9.8 6 1
02/14/06 4:07 a 3.6 3.7 3.4 --- --- 2.6 S 0.04 2.6 2.6 --- --- 719.7 0.010 0.000 9.8 6 1
02/14/06 4:08 a 4.0 4.1 3.7 --- --- 1.7 S 0.03 3.5 3.8 --- --- 719.7 0.010 0.000 9.8 6 1
02/14/06 4:09 a 4.0 4.1 3.9 --- --- 3.5 S 0.06 3.5 2.4 --- --- 719.6 0.010 0.000 9.8 6 1
02/14/06 4:10 a 3.9 4.1 3.8 --- --- 4.3 S 0.07 5.2 1.9 --- --- 719.6 0.010 0.000 9.8 6 1
02/14/06 4:11 a 3.4 3.4 3.3 --- --- 3.5 SSE 0.06 5.2 1.7 --- --- 719.7 0.010 0.000 9.8 6 1
02/14/06 4:12 a 3.6 3.6 3.4 --- --- 3.5 SSE 0.06 4.3 1.9 --- --- 719.6 0.010 0.000 9.8 6 1
02/14/06 4:13 a 3.4 3.6 3.3 --- --- 3.5 SSE 0.06 4.3 1.8 --- --- 719.7 0.010 0.000 9.8 6 1
02/14/06 4:14 a 3.3 3.4 3.2 --- --- 3.5 SSE 0.06 4.3 1.6 --- --- 719.7 0.010 0.000 9.9 6 1
02/14/06 4:15 a 3.3 3.4 3.2 --- --- 3.5 SE 0.06 4.3 1.6 --- --- 719.7 0.010 0.000 9.9 6 1
02/14/06 4:16 a 2.6 2.9 2.2 --- --- 3.5 SE 0.06 4.3 0.8 --- --- 719.6 0.011 0.000 9.9 6 1
02/14/06 4:17 a 1.8 1.8 1.6 --- --- 3.5 SE 0.06 4.3 -0.1 --- --- 719.6 0.011 0.000 9.9 6 1
02/14/06 4:18 a 1.3 1.4 1.2 --- --- 2.6 SE 0.04 3.5 0.0 --- --- 719.6 0.012 0.000 9.9 6 1
02/14/06 4:19 a 1.3 1.4 1.3 --- --- 2.6 SE 0.04 3.5 0.0 --- --- 719.6 0.012 0.000 9.9 6 1
02/14/06 4:20 a 1.6 1.6 1.6 --- --- 2.6 SE 0.04 2.6 0.3 --- --- 719.6 0.012 0.000 9.9 6 1
02/14/06 4:21 a 1.7 1.7 1.6 --- --- 1.7 SE 0.03 3.5 1.3 --- --- 719.7 0.012 0.000 9.9 6 1
02/14/06 4:22 a 1.5 1.7 1.3 --- --- 0.9 SE 0.01 1.7 1.5 --- --- 719.6 0.012 0.000 9.9 6 1
02/14/06 4:23 a 1.4 1.6 1.3 --- --- 0.0 SE 0.00 0.9 1.4 --- --- 719.7 0.012 0.000 9.9 6 1
02/14/06 4:24 a 1.7 1.8 1.6 --- --- 0.9 SE 0.01 2.6 1.7 --- --- 719.6 0.012 0.000 9.9 6 1
02/14/06 4:25 a 2.1 2.3 2.1 --- --- 0.9 SE 0.01 1.7 2.1 --- --- 719.6 0.011 0.000 9.9 6 1
02/14/06 4:26 a 2.3 2.3 2.3 --- --- 1.7 SE 0.03 2.6 1.9 --- --- 719.7 0.011 0.000 9.9 6 1
02/14/06 4:27 a 2.4 2.4 2.3 --- --- 2.6 SE 0.04 3.5 1.2 --- --- 719.6 0.011 0.000 9.9 6 1
02/14/06 4:28 a 2.2 2.2 2.1 --- --- 3.5 SE 0.06 5.2 0.3 --- --- 719.6 0.011 0.000 9.9 6 1
02/14/06 4:29 a 1.9 2.1 1.7 --- --- 4.3 SE 0.07 5.2 -0.4 --- --- 719.6 0.011 0.000 10.0 6 1
02/14/06 4:30 a 1.7 1.7 1.6 --- --- 5.2 ESE 0.09 6.1 -1.2 --- --- 719.7 0.012 0.000 10.0 6 1
02/14/06 4:31 a 1.3 1.5 1.1 --- --- 5.2 ESE 0.09 6.1 -1.7 --- --- 719.7 0.012 0.000 10.0 6 1
02/14/06 4:32 a 0.8 0.9 0.6 --- --- 7.0 E 0.12 7.0 -2.9 --- --- 719.7 0.012 0.000 10.0 6 1
02/14/06 4:33 a 0.3 0.6 0.2 --- --- 7.0 ENE 0.12 7.8 -3.6 --- --- 719.6 0.013 0.000 10.0 6 1
02/14/06 4:34 a -0.2 -0.1 -0.4 --- --- 6.1 E 0.10 7.8 -3.8 --- --- 719.6 0.013 0.000 10.0 6 1
02/14/06 4:35 a -0.5 -0.4 -0.7 --- --- 6.1 ENE 0.10 7.0 -4.2 --- --- 719.7 0.013 0.000 10.0 6 1
02/14/06 4:36 a -0.8 -0.8 -0.9 --- --- 5.2 ENE 0.09 6.1 -4.2 --- --- 719.6 0.013 0.000 10.0 6 1
02/14/06 4:37 a -0.9 -0.9 -0.9 --- --- 4.3 ENE 0.07 5.2 -3.8 --- --- 719.7 0.013 0.000 10.0 6 1
02/14/06 4:38 a -0.9 -0.9 -1.0 --- --- 4.3 ENE 0.07 6.1 -3.8 --- --- 719.6 0.013 0.000 10.0 6 1
02/14/06 4:39 a -1.1 -0.9 -1.1 --- --- 4.3 ENE 0.07 4.3 -4.0 --- --- 719.6 0.013 0.000 10.0 6 1
02/14/06 4:40 a -1.1 -0.9 -1.1 --- --- 3.5 ENE 0.06 4.3 -3.4 --- --- 719.7 0.013 0.000 10.1 6 1
02/14/06 4:41 a -0.9 -0.8 -0.9 --- --- 3.5 ENE 0.06 3.5 -3.2 --- --- 719.7 0.013 0.000 10.0 6 1
02/14/06 4:42 a -0.6 -0.3 -0.7 --- --- 2.6 ENE 0.04 3.5 -2.1 --- --- 719.6 0.013 0.000 10.0 6 1
02/14/06 4:43 a -0.3 -0.2 -0.3 --- --- 2.6 ENE 0.04 3.5 -1.8 --- --- 719.6 0.013 0.000 10.0 6 1
02/14/06 4:44 a -0.1 0.1 -0.1 --- --- 2.6 ENE 0.04 3.5 -1.6 --- --- 719.7 0.013 0.000 10.1 6 1
02/14/06 4:45 a 0.3 0.5 0.1 --- --- 2.6 ENE 0.04 3.5 -1.2 --- --- 719.5 0.013 0.000 10.1 6 1
02/14/06 4:46 a 0.6 0.6 0.5 --- --- 2.6 ENE 0.04 3.5 -0.9 --- --- 719.6 0.012 0.000 10.1 6 1
02/14/06 4:47 a 0.6 0.7 0.2 --- --- 1.7 ENE 0.03 2.6 0.1 --- --- 719.7 0.012 0.000 10.1 6 1
02/14/06 4:48 a -0.2 0.2 -0.7 --- --- 0.9 ENE 0.01 1.7 -0.2 --- --- 719.7 0.013 0.000 10.1 6 1
02/14/06 4:49 a -0.8 -0.7 -1.1 --- --- 2.6 ENE 0.04 4.3 -2.4 --- --- 719.6 0.013 0.000 10.1 6 1
02/14/06 4:50 a -1.3 -1.1 -1.7 --- --- 2.6 ENE 0.04 5.2 -3.0 --- --- 719.6 0.014 0.000 10.1 6 1
02/14/06 4:51 a -2.3 -1.7 -2.7 --- --- 4.3 NE 0.07 5.2 -5.4 --- --- 719.6 0.014 0.000 10.1 6 1
02/14/06 4:52 a -3.2 -2.7 -3.7 --- --- 3.5 NE 0.06 4.3 -5.9 --- --- 719.6 0.015 0.000 10.1 6 1
02/14/06 4:53 a -4.1 -3.7 -4.3 --- --- 4.3 NE 0.07 4.3 -7.5 --- --- 719.6 0.016 0.000 10.1 6 1
02/14/06 4:54 a -4.2 -4.1 -4.3 --- --- 4.3 NE 0.07 5.2 -7.7 --- --- 719.6 0.016 0.000 10.1 6 1
02/14/06 4:55 a -3.6 -3.3 -3.7 --- --- 3.5 NE 0.06 4.3 -6.3 --- --- 719.6 0.015 0.000 10.1 6 1
02/14/06 4:56 a -3.1 -2.9 -3.3 --- --- 1.7 NE 0.03 3.5 -4.0 --- --- 719.7 0.015 0.000 10.1 6 1
02/14/06 4:57 a -2.9 -2.8 -3.1 --- --- 5.2 NE 0.09 6.1 -6.7 --- --- 719.6 0.015 0.000 10.1 6 1
02/14/06 4:58 a -3.2 -3.2 -3.2 --- --- 3.5 NE 0.06 6.1 -5.9 --- --- 719.6 0.015 0.000 10.1 6 1
02/14/06 4:59 a -3.3 -3.2 -3.5 --- --- 5.2 WNW 0.09 7.0 -7.2 --- --- 719.7 0.015 0.000 10.1 6 1
02/14/06 5:00 a -4.1 -3.9 -4.2 --- --- 4.3 WNW 0.07 6.1 -7.5 --- --- 719.6 0.016 0.000 10.1 6 1
02/14/06 5:01 a -3.9 -3.7 -4.1 --- --- 1.7 WNW 0.03 4.3 -4.8 --- --- 719.7 0.015 0.000 10.0 6 1
02/14/06 5:02 a -3.5 -3.4 -3.7 --- --- 2.6 W 0.04 4.3 -5.4 --- --- 719.6 0.015 0.000 10.1 6 1
02/14/06 5:03 a -3.6 -3.6 -3.8 --- --- 3.5 W 0.06 5.2 -6.3 --- --- 719.7 0.015 0.000 10.0 6 1
02/14/06 5:04 a -3.6 -3.5 -3.7 --- --- 3.5 SW 0.06 5.2 -6.3 --- --- 719.7 0.015 0.000 10.0 6 1
02/14/06 5:05 a -3.3 -2.8 -3.5 --- --- 0.9 SW 0.01 2.6 -3.3 --- --- 719.7 0.015 0.000 10.0 6 1
02/14/06 5:06 a -2.6 -2.2 -2.8 --- --- 0.9 SW 0.01 1.7 -2.6 --- --- 719.7 0.015 0.000 10.1 6 1
02/14/06 5:07 a -1.7 -1.6 -1.9 --- --- 0.0 SW 0.00 0.9 -1.7 --- --- 719.7 0.014 0.000 10.1 6 1
02/14/06 5:08 a -1.5 -1.4 -1.5 --- --- 0.9 SW 0.01 1.7 -1.5 --- --- 719.7 0.014 0.000 10.1 6 1
02/14/06 5:09 a -1.4 -1.3 -1.4 --- --- 0.0 SW 0.00 1.7 -1.4 --- --- 719.7 0.014 0.000 10.1 6 1
02/14/06 5:10 a -1.4 -1.4 -1.4 --- --- 0.9 SW 0.01 0.9 -1.4 --- --- 719.7 0.014 0.000 10.1 6 1
02/14/06 5:11 a -1.2 -1.0 -1.4 --- --- 0.0 --- 0.00 0.0 -1.2 --- --- 719.6 0.014 0.000 10.1 6 1
02/14/06 5:12 a -0.6 -0.3 -0.8 --- --- 0.0 SW 0.00 0.9 -0.6 --- --- 719.7 0.013 0.000 10.1 6 1
02/14/06 5:13 a -0.2 0.0 -0.3 --- --- 0.0 SW 0.00 1.7 -0.2 --- --- 719.7 0.013 0.000 10.1 6 1
02/14/06 5:14 a 0.2 0.4 0.0 --- --- 1.7 SW 0.03 3.5 -0.3 --- --- 719.6 0.013 0.000 10.1 6 1
02/14/06 5:15 a -0.2 0.1 -0.4 --- --- 2.6 E 0.04 2.6 -1.7 --- --- 719.6 0.013 0.000 10.1 6 1
02/14/06 5:16 a -1.2 -0.9 -1.5 --- --- 1.7 E 0.03 2.6 -1.8 --- --- 719.7 0.014 0.000 10.2 6 1
02/14/06 5:17 a -1.5 -1.0 -1.6 --- --- 0.9 E 0.01 1.7 -1.5 --- --- 719.7 0.014 0.000 10.2 6 1
02/14/06 5:18 a -0.8 -0.5 -1.0 --- --- 0.0 E 0.00 0.9 -0.8 --- --- 719.8 0.013 0.000 10.2 6 1
02/14/06 5:19 a -0.7 -0.4 -1.3 --- --- 1.7 E 0.03 2.6 -1.3 --- --- 719.7 0.013 0.000 10.2 6 1
02/14/06 5:20 a -1.3 -1.1 -1.3 --- --- 1.7 E 0.03 3.5 -2.0 --- --- 719.6 0.014 0.000 10.2 6 1
02/14/06 5:21 a -1.2 -1.1 -1.6 --- --- 2.6 NW 0.04 3.5 -2.9 --- --- 719.6 0.014 0.000 10.2 6 1
02/14/06 5:22 a -1.9 -1.6 -2.2 --- --- 0.9 WNW 0.01 2.6 -1.9 --- --- 719.7 0.014 0.000 10.2 6 1
02/14/06 5:23 a -1.8 -1.2 -2.2 --- --- 0.0 --- 0.00 0.0 -1.8 --- --- 719.6 0.014 0.000 10.3 6 1
02/14/06 5:24 a -1.2 -1.1 -1.2 --- --- 0.0 --- 0.00 0.0 -1.2 --- --- 719.7 0.014 0.000 10.3 6 1
02/14/06 5:25 a -0.6 -0.1 -1.1 --- --- 0.9 WNW 0.01 2.6 -0.6 --- --- 719.6 0.013 0.000 10.3 6 1
02/14/06 5:26 a 0.3 0.7 -0.1 --- --- 0.9 WNW 0.01 1.7 0.3 --- --- 719.6 0.013 0.000 10.2 6 1
02/14/06 5:27 a 0.4 0.7 0.1 --- --- 0.9 WNW 0.01 2.6 0.4 --- --- 719.6 0.012 0.000 10.2 6 1
02/14/06 5:28 a -0.7 0.1 -1.5 --- --- 4.3 NW 0.07 6.1 -3.5 --- --- 719.7 0.013 0.000 10.2 6 1
02/14/06 5:29 a -2.0 -1.9 -2.2 --- --- 3.5 NW 0.06 4.3 -4.5 --- --- 719.7 0.014 0.000 10.2 6 1
02/14/06 5:30 a -2.3 -2.2 -2.3 --- --- 1.7 NW 0.03 2.6 -3.1 --- --- 719.7 0.014 0.000 10.2 6 1
02/14/06 5:31 a -2.1 -1.9 -2.3 --- --- 1.7 NW 0.03 3.5 -2.8 --- --- 719.7 0.014 0.000 10.2 6 1
02/14/06 5:32 a -1.8 -1.8 -1.9 --- --- 2.6 NW 0.04 3.5 -3.6 --- --- 719.7 0.014 0.000 10.2 6 1
02/14/06 5:33 a -1.9 -1.9 -2.2 --- --- 1.7 NW 0.03 1.7 -2.7 --- --- 719.7 0.014 0.000 10.2 6 1
02/14/06 5:34 a -2.3 -2.2 -2.3 --- --- 0.9 NW 0.01 0.9 -2.3 --- --- 719.7 0.014 0.000 10.2 6 1
02/14/06 5:35 a -1.9 -1.8 -2.2 --- --- 0.9 NW 0.01 2.6 -1.9 --- --- 719.7 0.014 0.000 10.2 6 1
02/14/06 5:36 a -1.7 -1.6 -1.8 --- --- 0.9 NW 0.01 1.7 -1.7 --- --- 719.7 0.014 0.000 10.2 6 1
02/14/06 5:37 a -1.9 -1.6 -2.2 --- --- 2.6 NW 0.04 4.3 -3.6 --- --- 719.7 0.014 0.000 10.3 6 1
02/14/06 5:38 a -2.3 -2.2 -2.3 --- --- 1.7 WNW 0.03 3.5 -3.1 --- --- 719.7 0.014 0.000 10.3 6 1
02/14/06 5:39 a -2.4 -2.3 -2.7 --- --- 2.6 WNW 0.04 4.3 -4.2 --- --- 719.6 0.014 0.000 10.3 6 1
02/14/06 5:40 a -2.7 -2.7 -2.8 --- --- 4.3 WNW 0.07 5.2 -5.9 --- --- 719.6 0.015 0.000 10.3 6 1
02/14/06 5:41 a -2.7 -2.7 -2.8 --- --- 2.6 NW 0.04 4.3 -4.6 --- --- 719.6 0.015 0.000 10.2 6 1
02/14/06 5:42 a -2.8 -2.7 -3.1 --- --- 0.9 NW 0.01 2.6 -2.8 --- --- 719.7 0.015 0.000 10.3 6 1
02/14/06 5:43 a -3.4 -3.1 -3.6 --- --- 1.7 NW 0.03 2.6 -4.3 --- --- 719.6 0.015 0.000 10.3 6 1
02/14/06 5:44 a -3.6 -3.4 -3.6 --- --- 2.6 NW 0.04 3.5 -5.5 --- --- 719.7 0.015 0.000 10.3 6 1
02/14/06 5:45 a -3.3 -3.2 -3.4 --- --- 2.6 NW 0.04 3.5 -5.2 --- --- 719.6 0.015 0.000 10.3 6 1
02/14/06 5:46 a -3.2 -3.0 -3.3 --- --- 2.6 NW 0.04 5.2 -5.1 --- --- 719.6 0.015 0.000 10.3 6 1
02/14/06 5:47 a -3.2 -3.0 -3.7 --- --- 4.3 WNW 0.07 6.1 -6.5 --- --- 719.6 0.015 0.000 10.3 6 1
02/14/06 5:48 a -3.6 -3.5 -3.7 --- --- 3.5 WNW 0.06 4.3 -6.3 --- --- 719.6 0.015 0.000 10.3 6 1
02/14/06 5:49 a -3.8 -3.5 -4.0 --- --- 4.3 WNW 0.07 5.2 -7.2 --- --- 719.5 0.015 0.000 10.3 6 1
02/14/06 5:50 a -4.1 -4.0 -4.1 --- --- 2.6 WNW 0.04 4.3 -6.1 --- --- 719.6 0.016 0.000 10.3 6 1
02/14/06 5:51 a -3.9 -3.9 -3.9 --- --- 3.5 WNW 0.06 5.2 -6.7 --- --- 719.6 0.015 0.000 10.4 6 1
02/14/06 5:52 a -4.0 -3.9 -4.0 --- --- 3.5 WNW 0.06 4.3 -6.8 --- --- 719.6 0.016 0.000 10.4 6 1
02/14/06 5:53 a -3.9 -3.8 -4.0 --- --- 2.6 WNW 0.04 3.5 -5.9 --- --- 719.6 0.015 0.000 10.4 6 1
02/14/06 5:54 a -3.6 -3.4 -3.7 --- --- 2.6 WNW 0.04 3.5 -5.6 --- --- 719.7 0.015 0.000 10.4 6 1
02/14/06 5:55 a -3.3 -3.2 -3.3 --- --- 2.6 WNW 0.04 3.5 -5.2 --- --- 719.7 0.015 0.000 10.4 6 1
02/14/06 5:56 a -3.3 -3.3 -3.4 --- --- 3.5 WNW 0.06 4.3 -6.1 --- --- 719.6 0.015 0.000 10.4 6 1
02/14/06 5:57 a -3.4 -3.3 -3.4 --- --- 2.6 WNW 0.04 3.5 -5.3 --- --- 719.6 0.015 0.000 10.4 6 1
02/14/06 5:58 a -3.6 -3.5 -3.6 --- --- 2.6 WNW 0.04 4.3 -5.5 --- --- 719.6 0.015 0.000 10.4 6 1
02/14/06 5:59 a -3.7 -3.7 -3.8 --- --- 3.5 WNW 0.06 3.5 -6.5 --- --- 719.6 0.015 0.000 10.5 6 1
02/14/06 6:00 a -3.8 -3.7 -3.9 --- --- 1.7 WNW 0.03 3.5 -4.7 --- --- 719.6 0.015 0.000 10.6 6 1
02/14/06 6:01 a -3.6 -3.5 -3.6 --- --- 0.9 WNW 0.01 2.6 -3.6 --- --- 719.6 0.015 0.000 10.6 6 1
02/14/06 6:03 a -3.2 -3.2 -3.2 --- --- 3.5 WNW 0.06 4.3 -5.8 --- --- 719.6 0.015 0.000 10.6 6 1
02/14/06 6:04 a -3.2 -3.2 -3.3 --- --- 2.6 NW 0.04 3.5 -5.1 --- --- 719.6 0.015 0.000 10.6 6 1
02/14/06 6:05 a -3.3 -3.3 -3.4 --- --- 2.6 NW 0.04 2.6 -5.3 --- --- 719.6 0.015 0.000 10.6 6 1
02/14/06 6:06 a -3.2 -3.0 -3.2 --- --- 1.7 NW 0.03 2.6 -4.1 --- --- 719.6 0.015 0.000 10.6 6 1
02/14/06 6:07 a -2.9 -2.8 -3.0 --- --- 1.7 NW 0.03 3.5 -3.7 --- --- 719.6 0.015 0.000 10.6 6 1
02/14/06 6:08 a -2.9 -2.9 -3.2 --- --- 3.5 NW 0.06 3.5 -5.6 --- --- 719.6 0.015 0.000 10.6 6 1
02/14/06 6:09 a -3.4 -3.2 -3.5 --- --- 2.6 NW 0.04 3.5 -5.3 --- --- 719.6 0.015 0.000 10.7 6 1
02/14/06 6:10 a -3.4 -3.3 -3.5 --- --- 1.7 NW 0.03 2.6 -4.3 --- --- 719.6 0.015 0.000 10.7 6 1
02/14/06 6:11 a -3.3 -3.3 -3.3 --- --- 0.9 NW 0.01 2.6 -3.3 --- --- 719.5 0.015 0.000 10.7 6 1
02/14/06 6:12 a -3.7 -3.6 -3.8 --- --- 1.7 NW 0.03 2.6 -4.7 --- --- 719.5 0.015 0.000 10.7 6 1
02/14/06 6:13 a -3.6 -3.5 -3.7 --- --- 3.5 NW 0.06 4.3 -6.3 --- --- 719.5 0.015 0.000 10.7 6 1
02/14/06 6:14 a -3.2 -3.2 -3.6 --- --- 2.6 NW 0.04 4.3 -5.1 --- --- 719.5 0.015 0.000 10.8 6 1
02/14/06 6:15 a -3.6 -3.6 -3.8 --- --- 3.5 NW 0.06 4.3 -6.3 --- --- 719.5 0.015 0.000 10.8 6 1
02/14/06 6:16 a -3.9 -3.9 -4.0 --- --- 2.6 NW 0.04 3.5 -5.9 --- --- 719.5 0.015 0.000 10.8 6 1
02/14/06 6:17 a -3.6 -3.3 -3.9 --- --- 0.9 NW 0.01 2.6 -3.6 --- --- 719.5 0.015 0.000 10.8 6 1
02/14/06 6:18 a -3.4 -3.3 -3.6 --- --- 1.7 NW 0.03 2.6 -4.3 --- --- 719.5 0.015 0.000 10.8 6 1
02/14/06 6:19 a -3.3 -3.2 -3.6 --- --- 1.7 NW 0.03 2.6 -4.2 --- --- 719.6 0.015 0.000 10.9 6 1
02/14/06 6:20 a -2.9 -2.8 -3.0 --- --- 1.7 NW 0.03 3.5 -3.8 --- --- 719.5 0.015 0.000 10.9 6 1
02/14/06 6:21 a -2.7 -2.6 -2.8 --- --- 1.7 NW 0.03 2.6 -3.5 --- --- 719.5 0.015 0.000 10.9 6 1
02/14/06 6:22 a -2.6 -2.6 -2.7 --- --- 2.6 NW 0.04 2.6 -4.4 --- --- 719.5 0.015 0.000 10.9 6 1
02/14/06 6:23 a -2.6 -2.5 -2.6 --- --- 2.6 NW 0.04 3.5 -4.4 --- --- 719.5 0.015 0.000 10.9 6 1
02/14/06 6:24 a -2.5 -2.4 -2.6 --- --- 1.7 NW 0.03 2.6 -3.3 --- --- 719.6 0.014 0.000 11.0 6 1
02/14/06 6:25 a -2.6 -2.5 -2.6 --- --- 0.9 NW 0.01 2.6 -2.6 --- --- 719.6 0.015 0.000 11.0 6 1
02/14/06 6:26 a -2.7 -2.6 -2.7 --- --- 2.6 NW 0.04 3.5 -4.5 --- --- 719.5 0.015 0.000 11.0 6 1
02/14/06 6:27 a -3.1 -3.0 -3.2 --- --- 1.7 NW 0.03 2.6 -4.0 --- --- 719.5 0.015 0.000 10.9 6 1
02/14/06 6:28 a -4.0 -3.7 -4.3 --- --- 1.7 NW 0.03 2.6 -4.9 --- --- 719.5 0.016 0.000 11.0 6 1
02/14/06 6:29 a -4.7 -4.6 -4.8 --- --- 1.7 NW 0.03 2.6 -5.7 --- --- 719.5 0.016 0.000 11.0 6 1
02/14/06 6:30 a -4.5 -4.2 -4.8 --- --- 1.7 NW 0.03 2.6 -5.5 --- --- 719.5 0.016 0.000 11.0 6 1
02/14/06 6:31 a -4.2 -4.2 -4.2 --- --- 1.7 NW 0.03 3.5 -5.2 --- --- 719.5 0.016 0.000 11.0 6 1
02/14/06 6:32 a -3.8 -3.6 -4.1 --- --- 1.7 NW 0.03 2.6 -4.8 --- --- 719.5 0.015 0.000 11.1 6 1
02/14/06 6:33 a -3.2 -3.0 -3.2 --- --- 2.6 NW 0.04 3.5 -5.1 --- --- 719.5 0.015 0.000 11.1 6 1
02/14/06 6:34 a -3.3 -3.1 -3.7 --- --- 2.6 NW 0.04 4.3 -5.2 --- --- 719.5 0.015 0.000 11.1 6 1
02/14/06 6:35 a -3.7 -3.6 -3.7 --- --- 3.5 NW 0.06 5.2 -6.4 --- --- 719.5 0.015 0.000 11.1 6 1
02/14/06 6:36 a -3.6 -3.6 -3.7 --- --- 2.6 NW 0.04 3.5 -5.6 --- --- 719.4 0.015 0.000 11.1 6 1
02/14/06 6:37 a -3.9 -3.7 -4.0 --- --- 1.7 NW 0.03 2.6 -4.9 --- --- 719.4 0.015 0.000 11.1 6 1
02/14/06 6:38 a -3.8 -3.8 -3.9 --- --- 0.9 NW 0.01 1.7 -3.8 --- --- 719.5 0.015 0.000 11.2 6 1
02/14/06 6:39 a -4.1 -3.9 -4.2 --- --- 2.6 NW 0.04 4.3 -6.2 --- --- 719.4 0.016 0.000 11.2 6 1
02/14/06 6:40 a -3.9 -3.9 -4.0 --- --- 3.5 NW 0.06 4.3 -6.7 --- --- 719.4 0.015 0.000 11.1 6 1
02/14/06 6:41 a -3.7 -3.6 -3.9 --- --- 2.6 NW 0.04 4.3 -5.7 --- --- 719.4 0.015 0.000 11.2 6 1
02/14/06 6:42 a -3.6 -3.5 -3.6 --- --- 3.5 NW 0.06 4.3 -6.3 --- --- 719.4 0.015 0.000 11.2 6 1
02/14/06 6:43 a -3.6 -3.6 -3.9 --- --- 4.3 NW 0.07 5.2 -6.9 --- --- 719.5 0.015 0.000 11.2 6 1
02/14/06 6:44 a -4.2 -3.9 -4.7 --- --- 3.5 NW 0.06 4.3 -7.1 --- --- 719.4 0.016 0.000 11.2 6 1
02/14/06 6:45 a -4.6 -4.2 -4.7 --- --- 2.6 NW 0.04 3.5 -6.7 --- --- 719.5 0.016 0.000 11.2 6 1
02/14/06 6:46 a -4.1 -3.9 -4.2 --- --- 2.6 NW 0.04 5.2 -6.2 --- --- 719.4 0.016 0.000 11.2 6 1
02/14/06 6:47 a -3.9 -3.8 -3.9 --- --- 4.3 NW 0.07 5.2 -7.3 --- --- 719.5 0.015 0.000 11.2 6 1
02/14/06 6:48 a -4.0 -3.8 -4.3 --- --- 4.3 NW 0.07 5.2 -7.4 --- --- 719.5 0.016 0.000 11.2 6 1
02/14/06 6:49 a -4.3 -4.3 -4.3 --- --- 3.5 NW 0.06 5.2 -7.2 --- --- 719.5 0.016 0.000 11.2 6 1
02/14/06 6:50 a -4.4 -4.3 -4.4 --- --- 2.6 NW 0.04 3.5 -6.4 --- --- 719.5 0.016 0.000 11.3 6 1
02/14/06 6:51 a -4.1 -3.9 -4.3 --- --- 3.5 NW 0.06 4.3 -6.9 --- --- 719.5 0.016 0.000 11.3 6 1
02/14/06 6:52 a -4.2 -4.1 -4.5 --- --- 3.5 NW 0.06 4.3 -7.1 --- --- 719.5 0.016 0.000 11.3 6 1
02/14/06 6:53 a -4.6 -4.5 -4.6 --- --- 3.5 NW 0.06 4.3 -7.4 --- --- 719.5 0.016 0.000 11.3 6 1
02/14/06 6:54 a -4.5 -4.2 -4.6 --- --- 2.6 NW 0.04 3.5 -6.6 --- --- 719.5 0.016 0.000 11.3 6 1
02/14/06 6:55 a -4.1 -4.0 -4.2 --- --- 1.7 NW 0.03 2.6 -5.1 --- --- 719.4 0.016 0.000 11.3 6 1
02/14/06 6:56 a -3.8 -3.4 -4.1 --- --- 0.9 NW 0.01 1.7 -3.8 --- --- 719.4 0.015 0.000 11.3 6 1
02/14/06 6:57 a -3.1 -2.9 -3.4 --- --- 0.9 NW 0.01 2.6 -3.1 --- --- 719.4 0.015 0.000 11.3 6 1
02/14/06 6:58 a -3.2 -3.1 -3.3 --- --- 3.5 NW 0.06 5.2 -5.8 --- --- 719.4 0.015 0.000 11.3 6 1
02/14/06 6:59 a -3.9 -3.6 -4.8 --- --- 4.3 NNW 0.07 5.2 -7.3 --- --- 719.4 0.015 0.000 11.3 6 1
02/14/06 7:00 a -4.9 -4.8 -5.1 --- --- 3.5 NNW 0.06 6.1 -7.9 --- --- 719.4 0.016 0.000 11.2 6 1
02/14/06 7:01 a -4.9 -4.8 -5.1 --- --- 3.5 NNW 0.06 4.3 -7.9 --- --- 719.4 0.016 0.000 11.2 6 1
02/14/06 7:02 a -4.5 -4.4 -4.5 --- --- 3.5 NNW 0.06 4.3 -7.4 --- --- 719.4 0.016 0.000 11.2 6 1
02/14/06 7:03 a -4.1 -3.9 -4.2 --- --- 3.5 NNW 0.06 4.3 -6.9 --- --- 719.4 0.016 0.000 11.2 6 1
02/14/06 7:04 a -3.8 -3.7 -3.9 --- --- 2.6 NNW 0.04 4.3 -5.8 --- --- 719.5 0.015 0.000 11.2 6 1
02/14/06 7:05 a -3.8 -3.7 -4.1 --- --- 4.3 NNW 0.07 5.2 -7.2 --- --- 719.4 0.015 0.000 11.2 6 1
02/14/06 7:06 a -4.0 -3.9 -4.1 --- --- 2.6 NW 0.04 3.5 -6.0 --- --- 719.4 0.016 0.000 11.2 6 1
02/14/06 7:07 a -4.1 -4.0 -4.7 --- --- 2.6 NW 0.04 3.5 -6.2 --- --- 719.4 0.016 0.000 11.2 6 1
02/14/06 7:08 a -4.8 -4.7 -4.8 --- --- 2.6 NW 0.04 4.3 -6.9 --- --- 719.4 0.016 0.000 11.2 6 1
02/14/06 7:09 a -4.7 -4.6 -4.8 --- --- 3.5 NW 0.06 5.2 -7.6 --- --- 719.5 0.016 0.000 11.2 6 1
02/14/06 7:10 a -4.4 -4.4 -4.4 --- --- 4.3 NW 0.07 5.2 -7.9 --- --- 719.4 0.016 0.000 11.2 6 1
02/14/06 7:11 a -4.6 -4.4 -4.6 --- --- 5.2 WNW 0.09 6.1 -8.6 --- --- 719.4 0.016 0.000 11.2 6 1
02/14/06 7:12 a -4.7 -4.7 -4.8 --- --- 4.3 WNW 0.07 5.2 -8.3 --- --- 719.4 0.016 0.000 11.2 6 1
02/14/06 7:13 a -4.7 -4.7 -4.8 --- --- 5.2 WNW 0.09 6.1 -8.8 --- --- 719.4 0.016 0.000 11.1 6 1
02/14/06 7:14 a -4.6 -4.5 -4.7 --- --- 4.3 WNW 0.07 5.2 -8.2 --- --- 719.4 0.016 0.000 11.1 6 1
02/14/06 7:15 a -4.5 -4.4 -4.6 --- --- 2.6 WNW 0.04 3.5 -6.6 --- --- 719.4 0.016 0.000 11.1 6 1
02/14/06 7:16 a -4.1 -3.8 -4.2 --- --- 1.7 WNW 0.03 3.5 -5.1 --- --- 719.4 0.016 0.000 11.1 6 1
02/14/06 7:17 a -3.8 -3.8 -3.9 --- --- 3.5 WNW 0.06 4.3 -6.6 --- --- 719.4 0.015 0.000 11.0 6 1
02/14/06 7:18 a -4.0 -3.9 -4.2 --- --- 2.6 WNW 0.04 3.5 -6.0 --- --- 719.4 0.016 0.000 11.0 6 1
02/14/06 7:19 a -4.2 -4.2 -4.3 --- --- 2.6 WNW 0.04 3.5 -6.3 --- --- 719.4 0.016 0.000 10.9 6 1
02/14/06 7:20 a -4.2 -4.1 -4.2 --- --- 2.6 WNW 0.04 3.5 -6.2 --- --- 719.4 0.016 0.000 10.9 6 1
02/14/06 7:21 a -4.0 -3.9 -4.1 --- --- 2.6 WNW 0.04 4.3 -6.0 --- --- 719.4 0.016 0.000 10.9 6 1
02/14/06 7:22 a -4.0 -3.9 -4.1 --- --- 1.7 WNW 0.03 2.6 -4.9 --- --- 719.3 0.016 0.000 10.9 6 1
02/14/06 7:23 a -4.0 -3.9 -4.1 --- --- 2.6 WNW 0.04 4.3 -6.0 --- --- 719.4 0.016 0.000 10.9 6 1
02/14/06 7:24 a -4.1 -4.0 -4.1 --- --- 3.5 WNW 0.06 3.5 -6.9 --- --- 719.4 0.016 0.000 10.9 6 1
02/14/06 7:25 a -4.1 -4.1 -4.2 --- --- 3.5 WNW 0.06 4.3 -6.9 --- --- 719.5 0.016 0.000 10.9 6 1
02/14/06 7:26 a -4.1 -3.8 -4.1 --- --- 1.7 WNW 0.03 3.5 -5.1 --- --- 719.4 0.016 0.000 10.9 6 1
02/14/06 7:27 a -3.8 -3.7 -3.9 --- --- 3.5 WNW 0.06 4.3 -6.6 --- --- 719.5 0.015 0.000 10.9 6 1
02/14/06 7:28 a -3.7 -3.7 -3.8 --- --- 2.6 WNW 0.04 3.5 -5.7 --- --- 719.4 0.015 0.000 10.8 6 1
02/14/06 7:29 a -3.4 -3.3 -3.7 --- --- 1.7 WNW 0.03 3.5 -4.3 --- --- 719.3 0.015 0.000 10.8 6 1
02/14/06 7:30 a -3.1 -2.9 -3.2 --- --- 1.7 WNW 0.03 2.6 -4.0 --- --- 719.4 0.015 0.000 10.8 6 1
02/14/06 7:31 a -3.1 -2.9 -3.1 --- --- 2.6 WNW 0.04 3.5 -4.9 --- --- 719.3 0.015 0.000 10.8 6 1
02/14/06 7:32 a -3.1 -3.0 -3.1 --- --- 2.6 WNW 0.04 4.3 -4.9 --- --- 719.3 0.015 0.000 10.8 6 1
02/14/06 7:33 a -3.0 -2.9 -3.1 --- --- 2.6 WNW 0.04 3.5 -4.9 --- --- 719.3 0.015 0.000 10.7 6 1
02/14/06 7:34 a -3.0 -2.9 -3.1 --- --- 2.6 WNW 0.04 3.5 -4.9 --- --- 719.3 0.015 0.000 10.7 6 1
02/14/06 7:35 a -3.0 -2.8 -3.1 --- --- 1.7 WNW 0.03 2.6 -3.9 --- --- 719.4 0.015 0.000 10.7 6 1
02/14/06 7:36 a -2.8 -2.8 -2.9 --- --- 0.9 WNW 0.01 0.9 -2.8 --- --- 719.5 0.015 0.000 10.7 6 1
02/14/06 7:37 a -2.8 -2.7 -2.9 --- --- 0.9 WNW 0.01 0.9 -2.8 --- --- 719.4 0.015 0.000 10.7 6 1
02/14/06 7:38 a -2.7 -2.7 -2.8 --- --- 0.9 WNW 0.01 1.7 -2.7 --- --- 719.4 0.015 0.000 10.7 6 1
02/14/06 7:39 a -3.0 -2.8 -3.1 --- --- 0.9 WNW 0.01 2.6 -3.0 --- --- 719.4 0.015 0.000 10.7 6 1
02/14/06 7:40 a -3.2 -3.1 -3.2 --- --- 1.7 WNW 0.03 3.5 -4.1 --- --- 719.4 0.015 0.000 10.7 6 1
02/14/06 7:41 a -3.2 -3.1 -3.2 --- --- 2.6 WNW 0.04 4.3 -5.1 --- --- 719.4 0.015 0.000 10.6 6 1
02/14/06 7:42 a -3.4 -3.1 -3.9 --- --- 1.7 WNW 0.03 2.6 -4.3 --- --- 719.4 0.015 0.000 10.6 6 1
02/14/06 7:43 a -3.9 -3.9 -4.0 --- --- 2.6 WNW 0.04 3.5 -5.9 --- --- 719.3 0.015 0.000 10.7 6 1
02/14/06 7:44 a -4.1 -4.0 -4.2 --- --- 3.5 WNW 0.06 4.3 -6.9 --- --- 719.4 0.016 0.000 10.7 6 1
02/14/06 7:45 a -4.1 -4.1 -4.2 --- --- 3.5 NW 0.06 4.3 -6.9 --- --- 719.4 0.016 0.000 10.6 6 1
02/14/06 7:46 a -4.2 -4.2 -4.4 --- --- 3.5 NW 0.06 3.5 -7.1 --- --- 719.3 0.016 0.000 10.6 6 1
02/14/06 7:47 a -4.3 -4.3 -4.4 --- --- 2.6 NW 0.04 3.5 -6.4 --- --- 719.3 0.016 0.000 10.6 6 1
02/14/06 7:48 a -4.2 -4.1 -4.3 --- --- 2.6 NW 0.04 4.3 -6.3 --- --- 719.3 0.016 0.000 10.6 6 1
02/14/06 7:49 a -4.3 -4.2 -4.5 --- --- 4.3 NW 0.07 6.1 -7.8 --- --- 719.4 0.016 0.000 10.6 6 1
02/14/06 7:50 a -4.8 -4.8 -4.9 --- --- 4.3 NNW 0.07 5.2 -8.3 --- --- 719.4 0.016 0.000 10.6 6 1
02/14/06 7:51 a -5.1 -4.9 -5.2 --- --- 3.5 NNW 0.06 4.3 -8.1 --- --- 719.3 0.016 0.000 10.6 6 1
02/14/06 7:52 a -5.1 -5.0 -5.1 --- --- 3.5 NNW 0.06 5.2 -8.0 --- --- 719.4 0.016 0.000 10.6 6 1
02/14/06 7:53 a -5.3 -5.2 -5.6 --- --- 4.3 NNW 0.07 6.1 -9.0 --- --- 719.4 0.016 0.000 10.6 6 1
02/14/06 7:54 a -5.9 -5.6 -6.2 --- --- 3.5 NNW 0.06 4.3 -9.0 --- --- 719.3 0.017 0.000 10.6 6 1
02/14/06 7:55 a -6.3 -6.2 -6.4 --- --- 4.3 NNW 0.07 5.2 -10.2 --- --- 719.4 0.017 0.000 10.6 6 1
02/14/06 7:56 a -6.4 -6.3 -6.6 --- --- 3.5 NNW 0.06 5.2 -9.6 --- --- 719.4 0.017 0.000 10.6 6 1
02/14/06 7:57 a -6.7 -6.7 -6.7 --- --- 4.3 NNW 0.07 5.2 -10.6 --- --- 719.4 0.017 0.000 10.5 6 1
02/14/06 7:58 a -6.7 -6.7 -6.7 --- --- 3.5 NNW 0.06 4.3 -9.9 --- --- 719.4 0.017 0.000 10.5 6 1
02/14/06 7:59 a -6.8 -6.8 -6.8 --- --- 3.5 N 0.06 5.2 -10.0 --- --- 719.5 0.017 0.000 10.5 6 1
02/14/06 8:00 a -6.9 -6.9 -6.9 --- --- 4.3 N 0.07 5.2 -10.8 --- --- 719.4 0.018 0.000 10.5 6 1
02/14/06 8:01 a -6.9 -6.9 -6.9 --- --- 4.3 N 0.07 5.2 -10.8 --- --- 719.4 0.018 0.000 10.5 6 1
02/14/06 8:03 a -7.0 -6.9 -7.0 --- --- 3.5 N 0.06 5.2 -10.3 --- --- 719.4 0.018 0.000 10.5 6 1
02/14/06 8:04 a -7.1 -7.0 -7.1 --- --- 3.5 N 0.06 3.5 -10.3 --- --- 719.4 0.018 0.000 10.4 6 1
02/14/06 8:05 a -7.0 -6.9 -7.1 --- --- 3.5 N 0.06 4.3 -10.3 --- --- 719.4 0.018 0.000 10.5 6 1
02/14/06 8:06 a -6.8 -6.8 -6.9 --- --- 3.5 N 0.06 5.2 -10.1 --- --- 719.4 0.017 0.000 10.4 6 1
02/14/06 8:07 a -6.7 -6.7 -6.8 --- --- 4.3 N 0.07 5.2 -10.6 --- --- 719.4 0.017 0.000 10.4 6 1
02/14/06 8:08 a -6.8 -6.7 -6.8 --- --- 5.2 N 0.09 6.1 -11.3 --- --- 719.5 0.017 0.000 10.4 6 1
02/14/06 8:09 a -6.8 -6.8 -6.8 --- --- 4.3 N 0.07 5.2 -10.7 --- --- 719.4 0.017 0.000 10.4 6 1
02/14/06 8:10 a -6.8 -6.8 -6.8 --- --- 4.3 N 0.07 5.2 -10.8 --- --- 719.4 0.017 0.000 10.4 6 1
02/14/06 8:11 a -6.8 -6.8 -6.8 --- --- 5.2 N 0.09 7.0 -11.3 --- --- 719.5 0.017 0.000 10.4 6 1
02/14/06 8:12 a -6.7 -6.7 -6.8 --- --- 6.1 NNW 0.10 7.0 -11.7 --- --- 719.5 0.017 0.000 10.4 6 1
02/14/06 8:13 a -6.8 -6.7 -6.9 --- --- 5.2 NNW 0.09 7.0 -11.3 --- --- 719.4 0.017 0.000 10.4 6 1
02/14/06 8:14 a -6.9 -6.8 -6.9 --- --- 3.5 NNW 0.06 5.2 -10.1 --- --- 719.5 0.018 0.000 10.4 6 1
02/14/06 8:15 a -6.8 -6.8 -6.9 --- --- 2.6 NNW 0.04 3.5 -9.2 --- --- 719.4 0.017 0.000 10.4 6 1
02/14/06 8:16 a -6.9 -6.8 -7.0 --- --- 1.7 NNW 0.03 3.5 -8.2 --- --- 719.4 0.018 0.000 10.4 6 1
02/14/06 8:17 a -6.7 -6.6 -6.8 --- --- 3.5 NNW 0.06 6.1 -9.9 --- --- 719.4 0.017 0.000 10.4 6 1
02/14/06 8:18 a -6.5 -6.4 -6.6 --- --- 5.2 NNW 0.09 6.1 -10.9 --- --- 719.4 0.017 0.000 10.4 6 1
02/14/06 8:19 a -6.1 -6.1 -6.2 --- --- 6.1 NNW 0.10 7.0 -11.0 --- --- 719.3 0.017 0.000 10.4 6 1
02/14/06 8:20 a -6.6 -6.4 -6.9 --- --- 4.3 NNW 0.07 5.2 -10.5 --- --- 719.4 0.017 0.000 10.4 6 1
02/14/06 8:21 a -6.9 -6.9 -7.1 --- --- 3.5 NNW 0.06 5.2 -10.2 --- --- 719.4 0.018 0.000 10.4 6 1
02/14/06 8:22 a -7.1 -7.1 -7.2 --- --- 6.1 NNW 0.10 7.0 -12.2 --- --- 719.4 0.018 0.000 10.4 6 1
02/14/06 8:23 a -7.1 -7.1 -7.2 --- --- 4.3 NNW 0.07 7.0 -11.1 --- --- 719.4 0.018 0.000 10.4 6 1
02/14/06 8:24 a -7.1 -7.1 -7.2 --- --- 3.5 NNW 0.06 4.3 -10.4 --- --- 719.4 0.018 0.000 10.4 6 1
02/14/06 8:25 a -7.3 -7.2 -7.3 --- --- 3.5 NNW 0.06 4.3 -10.6 --- --- 719.4 0.018 0.000 10.4 6 1
02/14/06 8:26 a -7.2 -7.2 -7.3 --- --- 4.3 NNW 0.07 5.2 -11.2 --- --- 719.4 0.018 0.000 10.3 6 1
02/14/06 8:27 a -7.1 -6.9 -7.2 --- --- 6.1 NNW 0.10 7.0 -12.2 --- --- 719.4 0.018 0.000 10.3 6 1
02/14/06 8:28 a -6.9 -6.9 -6.9 --- --- 7.0 NNW 0.12 7.0 -12.4 --- --- 719.4 0.018 0.000 10.3 6 1
02/14/06 8:29 a -7.0 -7.0 -7.1 --- --- 6.1 NNW 0.10 7.0 -12.1 --- --- 719.4 0.018 0.000 10.3 6 1
02/14/06 8:30 a -7.1 -7.0 -7.2 --- --- 4.3 NNW 0.07 6.1 -11.1 --- --- 719.5 0.018 0.000 10.3 6 1
02/14/06 8:31 a -7.3 -7.2 -7.4 --- --- 5.2 NNW 0.09 6.1 -11.9 --- --- 719.4 0.018 0.000 10.3 6 1
02/14/06 8:32 a -7.4 -7.4 -7.5 --- --- 4.3 NNW 0.07 5.2 -11.5 --- --- 719.5 0.018 0.000 10.3 6 1
02/14/06 8:33 a -7.5 -7.5 -7.5 --- --- 4.3 NNW 0.07 5.2 -11.6 --- --- 719.4 0.018 0.000 10.3 6 1
02/14/06 8:34 a -7.4 -7.4 -7.4 --- --- 4.3 NNW 0.07 5.2 -11.5 --- --- 719.5 0.018 0.000 10.3 6 1
02/14/06 8:35 a -7.5 -7.4 -7.5 --- --- 5.2 NNW 0.09 6.1 -12.1 --- --- 719.5 0.018 0.000 10.3 6 1
02/14/06 8:36 a -7.5 -7.4 -7.5 --- --- 5.2 NNW 0.09 6.1 -12.1 --- --- 719.5 0.018 0.000 10.3 6 1
02/14/06 8:37 a -7.2 -7.0 -7.4 --- --- 5.2 NNW 0.09 6.1 -11.8 --- --- 719.5 0.018 0.000 10.3 6 1
02/14/06 8:38 a -6.9 -6.9 -7.0 --- --- 5.2 NNW 0.09 6.1 -11.5 --- --- 719.6 0.018 0.000 10.3 6 1
02/14/06 8:39 a -6.9 -6.9 -6.9 --- --- 5.2 NNW 0.09 6.1 -11.4 --- --- 719.5 0.018 0.000 10.3 6 1
02/14/06 8:40 a -7.1 -6.9 -7.3 --- --- 5.2 NNW 0.09 6.1 -11.6 --- --- 719.5 0.018 0.000 10.3 6 1
02/14/06 8:41 a -7.2 -7.2 -7.3 --- --- 5.2 NNW 0.09 6.1 -11.7 --- --- 719.5 0.018 0.000 10.3 6 1
02/14/06 8:42 a -7.2 -7.1 -7.2 --- --- 5.2 NNW 0.09 6.1 -11.7 --- --- 719.5 0.018 0.000 10.3 6 1
02/14/06 8:43 a -7.4 -7.2 -7.5 --- --- 4.3 NNW 0.07 5.2 -11.4 --- --- 719.5 0.018 0.000 10.3 6 1
02/14/06 8:44 a -7.6 -7.6 -7.6 --- --- 4.3 NNW 0.07 5.2 -11.6 --- --- 719.4 0.018 0.000 10.3 6 1
02/14/06 8:45 a -7.6 -7.5 -7.6 --- --- 5.2 NNW 0.09 6.1 -12.2 --- --- 719.5 0.018 0.000 10.3 6 1
02/14/06 8:46 a -7.6 -7.5 -7.6 --- --- 4.3 NNW 0.07 6.1 -11.6 --- --- 719.5 0.018 0.000 10.3 6 1
02/14/06 8:47 a -7.6 -7.6 -7.6 --- --- 4.3 NNW 0.07 5.2 -11.7 --- --- 719.5 0.018 0.000 10.3 6 1
02/14/06 8:48 a -7.6 -7.6 -7.6 --- --- 4.3 NNW 0.07 5.2 -11.7 --- --- 719.4 0.018 0.000 10.3 6 1
02/14/06 8:49 a -7.4 -7.4 -7.6 --- --- 4.3 NNW 0.07 5.2 -11.5 --- --- 719.5 0.018 0.000 10.2 6 1
02/14/06 8:50 a -7.3 -7.2 -7.3 --- --- 5.2 NNW 0.09 5.2 -11.9 --- --- 719.4 0.018 0.000 10.2 6 1
02/14/06 8:51 a -7.1 -7.1 -7.2 --- --- 4.3 NNW 0.07 5.2 -11.1 --- --- 719.5 0.018 0.000 10.2 6 1
02/14/06 8:52 a -7.2 -7.2 -7.3 --- --- 4.3 NNW 0.07 5.2 -11.2 --- --- 719.4 0.018 0.000 10.2 6 1
02/14/06 8:53 a -7.2 -7.1 -7.3 --- --- 4.3 NNW 0.07 5.2 -11.2 --- --- 719.5 0.018 0.000 10.2 6 1
02/14/06 8:54 a -7.0 -6.9 -7.1 --- --- 5.2 NNW 0.09 5.2 -11.6 --- --- 719.5 0.018 0.000 10.2 6 1
02/14/06 8:55 a -7.1 -7.0 -7.1 --- --- 5.2 NNW 0.09 6.1 -11.6 --- --- 719.5 0.018 0.000 10.2 6 1
02/14/06 8:56 a -7.3 -7.2 -7.4 --- --- 5.2 NNW 0.09 6.1 -11.9 --- --- 719.4 0.018 0.000 10.2 6 1
02/14/06 8:57 a -7.4 -7.4 -7.5 --- --- 4.3 NNW 0.07 5.2 -11.5 --- --- 719.4 0.018 0.000 10.2 6 1
02/14/06 8:58 a -7.4 -7.2 -7.5 --- --- 5.2 NNW 0.09 6.1 -12.0 --- --- 719.5 0.018 0.000 10.2 6 1
02/14/06 8:59 a -7.1 -7.1 -7.1 --- --- 6.1 NNW 0.10 6.1 -12.2 --- --- 719.4 0.018 0.000 10.2 6 1
02/14/06 9:00 a -7.1 -7.1 -7.1 --- --- 5.2 NNW 0.09 6.1 -11.6 --- --- 719.4 0.018 0.000 10.2 6 1
02/14/06 9:01 a -7.3 -7.2 -7.4 --- --- 3.5 NNW 0.06 4.3 -10.6 --- --- 719.4 0.018 0.000 10.2 6 1
02/14/06 9:02 a -7.6 -7.5 -7.6 --- --- 3.5 NNW 0.06 4.3 -10.9 --- --- 719.4 0.018 0.000 10.2 6 1
02/14/06 9:03 a -7.6 -7.6 -7.6 --- --- 2.6 NNW 0.04 4.3 -10.1 --- --- 719.4 0.018 0.000 10.2 6 1
02/14/06 9:04 a -7.6 -7.6 -7.6 --- --- 5.2 NNW 0.09 7.0 -12.3 --- --- 719.4 0.018 0.000 10.2 6 1
02/14/06 9:05 a -7.6 -7.5 -7.6 --- --- 5.2 NNW 0.09 6.1 -12.2 --- --- 719.5 0.018 0.000 10.2 6 1
02/14/06 9:06 a -7.5 -7.5 -7.6 --- --- 5.2 NNW 0.09 6.1 -12.1 --- --- 719.5 0.018 0.000 10.2 6 1
02/14/06 9:07 a -7.4 -7.3 -7.5 --- --- 4.3 NNW 0.07 5.2 -11.4 --- --- 719.4 0.018 0.000 10.2 6 1
02/14/06 9:08 a -7.3 -7.2 -7.4 --- --- 4.3 NNW 0.07 5.2 -11.3 --- --- 719.5 0.018 0.000 10.2 6 1
02/14/06 9:09 a -7.3 -7.1 -7.4 --- --- 4.3 NNW 0.07 4.3 -11.3 --- --- 719.5 0.018 0.000 10.2 6 1
02/14/06 9:10 a -7.1 -6.9 -7.1 --- --- 4.3 NNW 0.07 4.3 -11.0 --- --- 719.6 0.018 0.000 10.2 6 1
02/14/06 9:11 a -6.8 -6.8 -6.9 --- --- 4.3 NNW 0.07 5.2 -10.8 --- --- 719.5 0.017 0.000 10.2 6 1
02/14/06 9:12 a -6.7 -6.7 -6.8 --- --- 3.5 NNW 0.06 4.3 -9.9 --- --- 719.5 0.017 0.000 10.2 6 1
02/14/06 9:13 a -6.7 -6.7 -6.8 --- --- 3.5 NNW 0.06 4.3 -9.9 --- --- 719.5 0.017 0.000 10.2 6 1
02/14/06 9:14 a -6.8 -6.7 -6.8 --- --- 3.5 NNW 0.06 4.3 -10.0 --- --- 719.5 0.017 0.000 10.2 6 1
02/14/06 9:15 a -6.7 -6.7 -6.9 --- --- 3.5 NNW 0.06 4.3 -9.9 --- --- 719.5 0.017 0.000 10.2 6 1
02/14/06 9:16 a -7.0 -6.9 -7.1 --- --- 4.3 NNW 0.07 5.2 -10.9 --- --- 719.5 0.018 0.000 10.2 6 1
02/14/06 9:17 a -6.9 -6.8 -7.1 --- --- 4.3 NNW 0.07 4.3 -10.9 --- --- 719.5 0.018 0.000 10.2 6 1
02/14/06 9:18 a -7.0 -6.8 -7.3 --- --- 4.3 NNW 0.07 5.2 -10.9 --- --- 719.5 0.018 0.000 10.2 6 1
02/14/06 9:19 a -7.4 -7.3 -7.4 --- --- 5.2 NNW 0.09 6.1 -12.0 --- --- 719.4 0.018 0.000 10.2 6 1
02/14/06 9:20 a -7.5 -7.4 -7.6 --- --- 5.2 NNW 0.09 5.2 -12.1 --- --- 719.4 0.018 0.000 10.2 6 1
02/14/06 9:21 a -7.4 -7.4 -7.5 --- --- 5.2 NNW 0.09 5.2 -12.1 --- --- 719.5 0.018 0.000 10.2 6 1
02/14/06 9:22 a -7.4 -7.4 -7.4 --- --- 5.2 NNW 0.09 6.1 -12.1 --- --- 719.5 0.018 0.000 10.2 6 1
02/14/06 9:23 a -7.2 -7.2 -7.2 --- --- 5.2 NNW 0.09 6.1 -11.8 --- --- 719.4 0.018 0.000 10.1 6 1
02/14/06 9:24 a -7.1 -7.0 -7.1 --- --- 5.2 NNW 0.09 6.1 -11.6 --- --- 719.4 0.018 0.000 10.1 6 1
02/14/06 9:25 a -7.1 -7.1 -7.1 --- --- 5.2 NNW 0.09 5.2 -11.6 --- --- 719.4 0.018 0.000 10.1 6 1
02/14/06 9:26 a -7.0 -7.0 -7.1 --- --- 4.3 NNW 0.07 5.2 -10.9 --- --- 719.4 0.018 0.000 10.1 6 1
02/14/06 9:27 a -7.1 -7.1 -7.2 --- --- 4.3 NNW 0.07 5.2 -11.1 --- --- 719.4 0.018 0.000 10.1 6 1
02/14/06 9:28 a -7.2 -7.2 -7.2 --- --- 4.3 NNW 0.07 5.2 -11.2 --- --- 719.4 0.018 0.000 10.1 6 1
02/14/06 9:29 a -7.1 -7.1 -7.1 --- --- 5.2 NNW 0.09 5.2 -11.7 --- --- 719.4 0.018 0.000 10.1 6 1
02/14/06 9:30 a -7.2 -7.2 -7.2 --- --- 5.2 NNW 0.09 6.1 -11.7 --- --- 719.3 0.018 0.000 10.1 6 1
02/14/06 9:31 a -7.4 -7.4 -7.4 --- --- 5.2 NNW 0.09 6.1 -12.0 --- --- 719.4 0.018 0.000 10.1 6 1
02/14/06 9:32 a -7.4 -7.4 -7.4 --- --- 5.2 NNW 0.09 6.1 -12.1 --- --- 719.4 0.018 0.000 10.1 6 1
02/14/06 9:33 a -7.4 -7.4 -7.4 --- --- 4.3 NNW 0.07 6.1 -11.5 --- --- 719.3 0.018 0.000 10.1 6 1
02/14/06 9:34 a -7.6 -7.6 -7.6 --- --- 5.2 NNW 0.09 6.1 -12.2 --- --- 719.4 0.018 0.000 10.1 5 1
02/14/06 9:35 a -7.6 -7.6 -7.6 --- --- 4.3 NNW 0.07 5.2 -11.6 --- --- 719.4 0.018 0.000 10.1 6 1
02/14/06 9:36 a -7.4 -7.4 -7.5 --- --- 4.3 NNW 0.07 5.2 -11.5 --- --- 719.4 0.018 0.000 10.1 6 1
02/14/06 9:37 a -7.6 -7.6 -7.7 --- --- 4.3 NNW 0.07 5.2 -11.7 --- --- 719.5 0.018 0.000 10.1 6 1
02/14/06 9:38 a -7.6 -7.6 -7.7 --- --- 3.5 NNW 0.06 4.3 -10.9 --- --- 719.3 0.018 0.000 10.1 6 1
02/14/06 9:39 a -7.7 -7.7 -7.8 --- --- 3.5 NNW 0.06 4.3 -11.1 --- --- 719.5 0.018 0.000 10.1 5 1
02/14/06 9:40 a -7.8 -7.8 -7.8 --- --- 3.5 NNW 0.06 4.3 -11.2 --- --- 719.5 0.018 0.000 10.1 6 1
02/14/06 9:41 a -7.8 -7.8 -7.8 --- --- 3.5 NNW 0.06 4.3 -11.2 --- --- 719.4 0.018 0.000 10.1 6 1
02/14/06 9:42 a -7.8 -7.8 -7.9 --- --- 3.5 NNW 0.06 4.3 -11.2 --- --- 719.5 0.018 0.000 10.1 6 1
02/14/06 9:43 a -7.8 -7.8 -7.9 --- --- 3.5 NNW 0.06 4.3 -11.2 --- --- 719.4 0.018 0.000 10.1 6 1
02/14/06 9:44 a -7.9 -7.9 -7.9 --- --- 3.5 NNW 0.06 4.3 -11.3 --- --- 719.4 0.018 0.000 10.1 6 1
02/14/06 9:45 a -8.0 -8.0 -8.0 --- --- 3.5 NNW 0.06 4.3 -11.4 --- --- 719.4 0.018 0.000 10.1 6 1
02/14/06 9:46 a -7.9 -7.9 -8.0 --- --- 3.5 NNW 0.06 4.3 -11.3 --- --- 719.3 0.018 0.000 10.1 6 1
02/14/06 9:47 a -7.9 -7.9 -7.9 --- --- 3.5 NNW 0.06 5.2 -11.3 --- --- 719.3 0.018 0.000 10.1 6 1
02/14/06 9:48 a -7.9 -7.9 -7.9 --- --- 3.5 NNW 0.06 5.2 -11.3 --- --- 719.3 0.018 0.000 10.0 6 1
02/14/06 9:49 a -8.0 -8.0 -8.0 --- --- 2.6 NNW 0.04 3.5 -10.6 --- --- 719.4 0.018 0.000 10.0 6 1
02/14/06 9:50 a -8.0 -8.0 -8.0 --- --- 4.3 NNW 0.07 4.3 -12.1 --- --- 719.4 0.018 0.000 10.0 6 1
02/14/06 9:51 a -8.0 -8.0 -8.1 --- --- 3.5 NNW 0.06 4.3 -11.4 --- --- 719.4 0.018 0.000 10.0 6 1
02/14/06 9:52 a -8.1 -8.1 -8.1 --- --- 2.6 NNW 0.04 3.5 -10.6 --- --- 719.3 0.018 0.000 10.0 6 1
02/14/06 9:53 a -8.1 -8.1 -8.2 --- --- 3.5 NNW 0.06 3.5 -11.6 --- --- 719.4 0.018 0.000 10.0 6 1
02/14/06 9:54 a -8.2 -8.1 -8.2 --- --- 3.5 NNW 0.06 5.2 -11.6 --- --- 719.4 0.018 0.000 10.0 5 1
02/14/06 9:55 a -8.2 -8.2 -8.2 --- --- 4.3 N 0.07 5.2 -12.4 --- --- 719.4 0.018 0.000 10.0 6 1
02/14/06 9:56 a -8.2 -8.2 -8.3 --- --- 4.3 N 0.07 6.1 -12.4 --- --- 719.4 0.018 0.000 10.0 6 1
02/14/06 9:57 a -8.4 -8.3 -8.4 --- --- 5.2 N 0.09 7.0 -13.2 --- --- 719.4 0.019 0.000 10.0 6 1
02/14/06 9:58 a -8.4 -8.4 -8.4 --- --- 5.2 N 0.09 8.7 -13.3 --- --- 719.3 0.019 0.000 10.0 6 1
02/14/06 9:59 a -8.4 -8.4 -8.4 --- --- 4.3 N 0.07 6.1 -12.7 --- --- 719.3 0.019 0.000 10.0 6 1
02/14/06 10:00 a -8.4 -8.4 -8.5 --- --- 3.5 N 0.06 5.2 -11.9 --- --- 719.4 0.019 0.000 10.0 6 1
02/14/06 10:01 a -8.5 -8.5 -8.5 --- --- 4.3 N 0.07 6.1 -12.7 --- --- 719.3 0.019 0.000 10.0 5 1
02/14/06 10:02 a -8.5 -8.5 -8.5 --- --- 4.3 N 0.07 6.1 -12.7 --- --- 719.3 0.019 0.000 10.0 6 1
02/14/06 10:03 a -8.5 -8.5 -8.6 --- --- 5.2 N 0.09 6.1 -13.3 --- --- 719.4 0.019 0.000 10.0 6 1
02/14/06 10:04 a -8.6 -8.6 -8.6 --- --- 5.2 N 0.09 6.1 -13.4 --- --- 719.4 0.019 0.000 10.0 6 1
02/14/06 10:05 a -8.6 -8.6 -8.6 --- --- 3.5 N 0.06 4.3 -12.1 --- --- 719.4 0.019 0.000 10.0 6 1
02/14/06 10:06 a -8.6 -8.6 -8.6 --- --- 5.2 N 0.09 6.1 -13.4 --- --- 719.4 0.019 0.000 10.0 6 1
02/14/06 10:07 a -8.6 -8.6 -8.7 --- --- 4.3 N 0.07 5.2 -12.8 --- --- 719.4 0.019 0.000 9.9 6 1
02/14/06 10:08 a -8.7 -8.6 -8.7 --- --- 4.3 N 0.07 5.2 -12.9 --- --- 719.4 0.019 0.000 9.9 6 1
02/14/06 10:09 a -8.6 -8.6 -8.6 --- --- 4.3 N 0.07 5.2 -12.8 --- --- 719.3 0.019 0.000 9.9 6 1
02/14/06 10:10 a -8.6 -8.5 -8.6 --- --- 5.2 N 0.09 6.1 -13.4 --- --- 719.3 0.019 0.000 9.9 6 1
02/14/06 10:11 a -8.5 -8.5 -8.5 --- --- 5.2 N 0.09 6.1 -13.3 --- --- 719.4 0.019 0.000 9.9 6 1
02/14/06 10:12 a -8.4 -8.4 -8.5 --- --- 5.2 N 0.09 7.0 -13.3 --- --- 719.5 0.019 0.000 9.9 6 1
02/14/06 10:13 a -8.5 -8.5 -8.5 --- --- 6.1 N 0.10 7.0 -13.8 --- --- 719.4 0.019 0.000 9.9 6 1
02/14/06 10:14 a -8.6 -8.5 -8.6 --- --- 6.1 N 0.10 7.8 -13.9 --- --- 719.5 0.019 0.000 9.9 6 1
02/14/06 10:15 a -8.5 -8.5 -8.6 --- --- 6.1 NNW 0.10 7.0 -13.8 --- --- 719.5 0.019 0.000 9.9 6 1
02/14/06 10:16 a -8.6 -8.6 -8.6 --- --- 6.1 NNW 0.10 7.0 -13.9 --- --- 719.4 0.019 0.000 9.9 6 1
02/14/06 10:17 a -8.6 -8.5 -8.6 --- --- 5.2 NNW 0.09 7.0 -13.4 --- --- 719.4 0.019 0.000 9.9 6 1
02/14/06 10:18 a -8.5 -8.5 -8.5 --- --- 5.2 N 0.09 6.1 -13.3 --- --- 719.4 0.019 0.000 9.9 6 1
02/14/06 10:19 a -8.5 -8.5 -8.5 --- --- 5.2 NNW 0.09 7.0 -13.3 --- --- 719.4 0.019 0.000 9.9 6 1
02/14/06 10:20 a -8.4 -8.4 -8.5 --- --- 5.2 NNW 0.09 6.1 -13.3 --- --- 719.5 0.019 0.000 9.9 6 1
02/14/06 10:21 a -8.4 -8.4 -8.5 --- --- 5.2 N 0.09 5.2 -13.3 --- --- 719.5 0.019 0.000 9.9 6 1
02/14/06 10:22 a -8.5 -8.4 -8.5 --- --- 5.2 NNW 0.09 6.1 -13.3 --- --- 719.4 0.019 0.000 9.9 6 1
02/14/06 10:23 a -8.5 -8.5 -8.6 --- --- 5.2 N 0.09 6.1 -13.3 --- --- 719.4 0.019 0.000 9.9 6 1
02/14/06 10:24 a -8.6 -8.6 -8.6 --- --- 4.3 N 0.07 5.2 -12.8 --- --- 719.4 0.019 0.000 9.9 6 1
02/14/06 10:25 a -8.6 -8.6 -8.6 --- --- 4.3 N 0.07 5.2 -12.8 --- --- 719.4 0.019 0.000 9.9 6 1
02/14/06 10:26 a -8.6 -8.6 -8.6 --- --- 5.2 N 0.09 6.1 -13.4 --- --- 719.4 0.019 0.000 9.9 5 1
02/14/06 10:27 a -8.7 -8.6 -8.7 --- --- 5.2 N 0.09 7.0 -13.5 --- --- 719.5 0.019 0.000 9.9 6 1
02/14/06 10:28 a -8.7 -8.7 -8.7 --- --- 6.1 N 0.10 6.1 -14.1 --- --- 719.5 0.019 0.000 9.9 6 1
02/14/06 10:29 a -8.7 -8.6 -8.7 --- --- 6.1 N 0.10 7.0 -14.1 --- --- 719.5 0.019 0.000 9.9 6 1
02/14/06 10:30 a -8.7 -8.7 -8.7 --- --- 6.1 NNW 0.10 7.0 -14.1 --- --- 719.4 0.019 0.000 9.9 6 1
02/14/06 10:31 a -8.7 -8.7 -8.7 --- --- 6.1 NNW 0.10 6.1 -14.1 --- --- 719.5 0.019 0.000 9.9 6 1
02/14/06 10:32 a -8.7 -8.7 -8.7 --- --- 6.1 NNW 0.10 6.1 -14.1 --- --- 719.5 0.019 0.000 9.9 6 1
02/14/06 10:33 a -8.7 -8.7 -8.7 --- --- 6.1 NNW 0.10 6.1 -14.1 --- --- 719.4 0.019 0.000 9.9 6 1
02/14/06 10:34 a -8.7 -8.6 -8.7 --- --- 5.2 NNW 0.09 6.1 -13.5 --- --- 719.5 0.019 0.000 9.9 6 1
02/14/06 10:35 a -8.7 -8.7 -8.7 --- --- 5.2 NNW 0.09 6.1 -13.5 --- --- 719.4 0.019 0.000 9.9 6 1
02/14/06 10:36 a -8.8 -8.8 -8.8 --- --- 5.2 NNW 0.09 6.1 -13.7 --- --- 719.5 0.019 0.000 9.9 5 1
02/14/06 10:37 a -8.8 -8.8 -8.8 --- --- 5.2 NNW 0.09 6.1 -13.7 --- --- 719.4 0.019 0.000 9.9 5 1
02/14/06 10:38 a -8.8 -8.8 -8.8 --- --- 5.2 NNW 0.09 6.1 -13.7 --- --- 719.4 0.019 0.000 9.9 6 1
02/14/06 10:39 a -8.8 -8.8 -8.8 --- --- 5.2 NNW 0.09 6.1 -13.7 --- --- 719.5 0.019 0.000 9.9 6 1
02/14/06 10:40 a -8.8 -8.8 -8.8 --- --- 5.2 NNW 0.09 6.1 -13.7 --- --- 719.4 0.019 0.000 9.8 6 1
02/14/06 10:41 a -8.8 -8.8 -8.8 --- --- 5.2 NNW 0.09 6.1 -13.7 --- --- 719.4 0.019 0.000 9.9 5 1
02/14/06 10:42 a -8.8 -8.8 -8.8 --- --- 5.2 NNW 0.09 6.1 -13.7 --- --- 719.4 0.019 0.000 9.9 5 1
02/14/06 10:43 a -8.8 -8.8 -8.8 --- --- 6.1 NNW 0.10 6.1 -14.3 --- --- 719.3 0.019 0.000 9.8 5 1
02/14/06 10:44 a -8.9 -8.8 -8.9 --- --- 6.1 NNW 0.10 6.1 -14.3 --- --- 719.4 0.019 0.000 9.8 5 1
02/14/06 10:45 a -8.9 -8.9 -8.9 --- --- 5.2 NNW 0.09 6.1 -13.8 --- --- 719.3 0.019 0.000 9.8 5 1
02/14/06 10:46 a -8.9 -8.9 -8.9 --- --- 5.2 NNW 0.09 6.1 -13.8 --- --- 719.3 0.019 0.000 9.8 5 1
02/14/06 10:47 a -8.9 -8.9 -8.9 --- --- 6.1 N 0.10 7.0 -14.3 --- --- 719.4 0.019 0.000 9.8 5 1
02/14/06 10:48 a -8.9 -8.9 -8.9 --- --- 5.2 N 0.09 6.1 -13.8 --- --- 719.4 0.019 0.000 9.8 5 1
02/14/06 10:49 a -9.0 -8.9 -9.0 --- --- 6.1 N 0.10 7.0 -14.4 --- --- 719.3 0.019 0.000 9.8 5 1
02/14/06 10:50 a -8.9 -8.9 -9.0 --- --- 5.2 N 0.09 6.1 -13.8 --- --- 719.3 0.019 0.000 9.8 5 1
02/14/06 10:51 a -8.9 -8.9 -9.0 --- --- 6.1 N 0.10 7.0 -14.4 --- --- 719.3 0.019 0.000 9.8 5 1
02/14/06 10:52 a -9.1 -9.0 -9.1 --- --- 6.1 N 0.10 7.0 -14.5 --- --- 719.3 0.019 0.000 9.8 5 1
02/14/06 10:53 a -9.1 -9.1 -9.1 --- --- 6.1 N 0.10 7.0 -14.5 --- --- 719.2 0.019 0.000 9.8 5 1
02/14/06 10:54 a -9.1 -9.1 -9.1 --- --- 7.0 NNW 0.12 7.8 -15.0 --- --- 719.3 0.019 0.000 9.8 5 1
02/14/06 10:55 a -9.1 -9.0 -9.1 --- --- 7.8 NNW 0.13 8.7 -15.4 --- --- 719.3 0.019 0.000 9.8 5 1
02/14/06 10:56 a -9.1 -9.1 -9.1 --- --- 8.7 NNW 0.14 9.6 -15.9 --- --- 719.3 0.019 0.000 9.8 5 1
02/14/06 10:57 a -9.1 -9.1 -9.2 --- --- 6.1 N 0.10 8.7 -14.6 --- --- 719.3 0.019 0.000 9.8 5 1
02/14/06 10:58 a -9.2 -9.2 -9.3 --- --- 6.1 N 0.10 7.0 -14.7 --- --- 719.3 0.019 0.000 9.8 5 1
02/14/06 10:59 a -9.3 -9.3 -9.4 --- --- 7.8 NNW 0.13 8.7 -15.8 --- --- 719.3 0.019 0.000 9.8 5 1
02/14/06 11:00 a -9.4 -9.3 -9.4 --- --- 7.8 NNW 0.13 8.7 -15.8 --- --- 719.3 0.019 0.000 9.8 5 1
02/14/06 11:01 a -9.4 -9.3 -9.4 --- --- 7.0 NNW 0.12 8.7 -15.4 --- --- 719.3 0.019 0.000 9.8 5 1
02/14/06 11:02 a -9.4 -9.4 -9.4 --- --- 7.0 NNW 0.12 7.8 -15.4 --- --- 719.3 0.019 0.000 9.8 5 1
02/14/06 11:03 a -9.4 -9.4 -9.4 --- --- 7.0 N 0.12 8.7 -15.4 --- --- 719.3 0.019 0.000 9.8 5 1
02/14/06 11:04 a -9.4 -9.4 -9.5 --- --- 6.1 N 0.10 7.8 -15.0 --- --- 719.3 0.019 0.000 9.8 5 1
02/14/06 11:05 a -9.4 -9.4 -9.5 --- --- 5.2 N 0.09 6.1 -14.4 --- --- 719.3 0.019 0.000 9.7 5 1
02/14/06 11:06 a -9.4 -9.4 -9.5 --- --- 5.2 N 0.09 6.1 -14.4 --- --- 719.2 0.019 0.000 9.7 5 1
02/14/06 11:07 a -9.4 -9.4 -9.5 --- --- 6.1 N 0.10 7.8 -15.0 --- --- 719.3 0.019 0.000 9.7 5 1
02/14/06 11:08 a -9.5 -9.5 -9.5 --- --- 7.0 NNW 0.12 8.7 -15.6 --- --- 719.2 0.019 0.000 9.7 5 1
02/14/06 11:09 a -9.5 -9.5 -9.5 --- --- 7.0 NNW 0.12 7.8 -15.6 --- --- 719.2 0.019 0.000 9.7 5 1
02/14/06 11:10 a -9.6 -9.6 -9.6 --- --- 7.0 NNW 0.12 7.8 -15.6 --- --- 719.2 0.019 0.000 9.7 5 1
02/14/06 11:11 a -9.6 -9.6 -9.6 --- --- 7.0 NNW 0.12 7.8 -15.6 --- --- 719.3 0.019 0.000 9.7 5 1
02/14/06 11:12 a -9.6 -9.6 -9.6 --- --- 7.8 NNW 0.13 8.7 -16.1 --- --- 719.2 0.019 0.000 9.7 5 1
02/14/06 11:13 a -9.5 -9.5 -9.6 --- --- 7.8 NNW 0.13 8.7 -16.0 --- --- 719.3 0.019 0.000 9.7 5 1
02/14/06 11:14 a -9.6 -9.6 -9.6 --- --- 7.8 NNW 0.13 9.6 -16.1 --- --- 719.3 0.019 0.000 9.7 5 1
02/14/06 11:15 a -9.6 -9.6 -9.6 --- --- 7.8 NNW 0.13 8.7 -16.1 --- --- 719.3 0.019 0.000 9.7 5 1
02/14/06 11:16 a -9.6 -9.6 -9.6 --- --- 8.7 NNW 0.14 9.6 -16.5 --- --- 719.3 0.019 0.000 9.7 5 1
02/14/06 11:17 a -9.6 -9.6 -9.7 --- --- 7.8 NNW 0.13 8.7 -16.1 --- --- 719.3 0.019 0.000 9.7 5 1
02/14/06 11:18 a -9.7 -9.6 -9.7 --- --- 7.8 NNW 0.13 8.7 -16.2 --- --- 719.3 0.019 0.000 9.7 5 1
02/14/06 11:19 a -9.6 -9.6 -9.6 --- --- 7.8 NNW 0.13 9.6 -16.1 --- --- 719.3 0.019 0.000 9.7 5 1
02/14/06 11:20 a -9.6 -9.6 -9.6 --- --- 7.8 NNW 0.13 8.7 -16.1 --- --- 719.3 0.019 0.000 9.7 5 1
02/14/06 11:21 a -9.5 -9.5 -9.5 --- --- 7.8 NNW 0.13 8.7 -16.0 --- --- 719.3 0.019 0.000 9.7 5 1
02/14/06 11:22 a -9.5 -9.5 -9.5 --- --- 7.8 NNW 0.13 9.6 -16.0 --- --- 719.3 0.019 0.000 9.7 5 1
02/14/06 11:23 a -9.5 -9.5 -9.6 --- --- 7.8 NNW 0.13 8.7 -16.0 --- --- 719.2 0.019 0.000 9.7 5 1
02/14/06 11:24 a -9.5 -9.5 -9.6 --- --- 7.8 NNW 0.13 8.7 -16.0 --- --- 719.3 0.019 0.000 9.7 5 1
02/14/06 11:25 a -9.5 -9.5 -9.6 --- --- 7.8 NNW 0.13 8.7 -16.0 --- --- 719.2 0.019 0.000 9.7 5 1
02/14/06 11:26 a -9.4 -9.4 -9.5 --- --- 8.7 NNW 0.14 9.6 -16.3 --- --- 719.2 0.019 0.000 9.7 5 1
02/14/06 11:27 a -9.4 -9.4 -9.4 --- --- 7.8 NNW 0.13 8.7 -15.8 --- --- 719.2 0.019 0.000 9.7 5 1
02/14/06 11:28 a -9.4 -9.3 -9.4 --- --- 7.8 NNW 0.13 9.6 -15.8 --- --- 719.2 0.019 0.000 9.7 5 1
02/14/06 11:29 a -9.4 -9.4 -9.4 --- --- 7.8 NNW 0.13 9.6 -15.8 --- --- 719.2 0.019 0.000 9.7 5 1
02/14/06 11:30 a -9.4 -9.4 -9.4 --- --- 7.0 NNW 0.12 7.8 -15.5 --- --- 719.2 0.019 0.000 9.7 5 1
02/14/06 11:31 a -9.5 -9.4 -9.5 --- --- 7.0 NNW 0.12 7.8 -15.6 --- --- 719.2 0.019 0.000 9.7 5 1
02/14/06 11:32 a -9.4 -9.3 -9.4 --- --- 7.8 NNW 0.13 8.7 -15.8 --- --- 719.2 0.019 0.000 9.7 5 1
02/14/06 11:33 a -9.4 -9.3 -9.4 --- --- 7.8 NNW 0.13 8.7 -15.8 --- --- 719.2 0.019 0.000 9.7 5 1
02/14/06 11:34 a -9.4 -9.4 -9.5 --- --- 5.2 NNW 0.09 7.0 -14.4 --- --- 719.2 0.019 0.000 9.7 5 1
02/14/06 11:35 a -9.5 -9.5 -9.5 --- --- 6.1 N 0.10 7.0 -15.1 --- --- 719.2 0.019 0.000 9.7 5 1
02/14/06 11:36 a -9.5 -9.5 -9.5 --- --- 7.0 NNW 0.12 7.8 -15.6 --- --- 719.2 0.019 0.000 9.7 5 1
02/14/06 11:37 a -9.5 -9.5 -9.5 --- --- 7.8 NNW 0.13 7.8 -16.0 --- --- 719.2 0.019 0.000 9.7 5 1
02/14/06 11:38 a -9.6 -9.5 -9.6 --- --- 7.0 NNW 0.12 8.7 -15.6 --- --- 719.1 0.019 0.000 9.7 5 1
02/14/06 11:39 a -9.6 -9.6 -9.6 --- --- 6.1 N 0.10 7.8 -15.1 --- --- 719.2 0.019 0.000 9.6 5 1
02/14/06 11:40 a -9.6 -9.6 -9.6 --- --- 7.0 NNW 0.12 7.8 -15.6 --- --- 719.1 0.019 0.000 9.6 5 1
02/14/06 11:41 a -9.6 -9.6 -9.6 --- --- 6.1 NNW 0.10 7.8 -15.1 --- --- 719.2 0.019 0.000 9.6 5 1
02/14/06 11:42 a -9.6 -9.6 -9.6 --- --- 7.0 NNW 0.12 8.7 -15.7 --- --- 719.2 0.019 0.000 9.6 5 1
02/14/06 11:43 a -9.7 -9.6 -9.7 --- --- 6.1 NNW 0.10 7.8 -15.3 --- --- 719.2 0.019 0.000 9.6 5 1
02/14/06 11:44 a -9.7 -9.7 -9.8 --- --- 6.1 N 0.10 7.8 -15.3 --- --- 719.2 0.019 0.000 9.6 5 1
02/14/06 11:45 a -9.8 -9.8 -9.9 --- --- 6.1 N 0.10 7.8 -15.4 --- --- 719.1 0.020 0.000 9.6 5 1
02/14/06 11:46 a -9.8 -9.8 -9.9 --- --- 6.1 N 0.10 7.0 -15.4 --- --- 719.2 0.020 0.000 9.6 5 1
02/14/06 11:47 a -9.8 -9.8 -9.8 --- --- 6.1 N 0.10 7.8 -15.4 --- --- 719.1 0.020 0.000 9.6 5 1
02/14/06 11:48 a -9.8 -9.8 -9.8 --- --- 6.1 N 0.10 7.0 -15.4 --- --- 719.2 0.020 0.000 9.6 5 1
02/14/06 11:49 a -9.8 -9.8 -9.8 --- --- 6.1 N 0.10 7.0 -15.4 --- --- 719.2 0.020 0.000 9.6 5 1
02/14/06 11:50 a -9.9 -9.9 -9.9 --- --- 6.1 N 0.10 7.0 -15.6 --- --- 719.2 0.020 0.000 9.6 5 1
02/14/06 11:51 a -9.8 -9.8 -9.9 --- --- 5.2 N 0.09 7.0 -14.9 --- --- 719.2 0.020 0.000 9.6 5 1
02/14/06 11:52 a -9.9 -9.9 -9.9 --- --- 5.2 N 0.09 6.1 -15.0 --- --- 719.2 0.020 0.000 9.6 5 1
02/14/06 11:53 a -10.0 -9.9 -10.1 --- --- 5.2 N 0.09 7.0 -15.1 --- --- 719.2 0.020 0.000 9.6 5 1
02/14/06 11:54 a -10.1 -10.1 -10.2 --- --- 5.2 N 0.09 6.1 -15.2 --- --- 719.1 0.020 0.000 9.6 5 1
02/14/06 11:55 a -10.2 -10.2 -10.2 --- --- 5.2 N 0.09 7.0 -15.4 --- --- 719.1 0.020 0.000 9.6 5 1
02/14/06 11:56 a -10.2 -10.2 -10.2 --- --- 5.2 N 0.09 7.0 -15.4 --- --- 719.2 0.020 0.000 9.6 5 1
02/14/06 11:57 a -10.3 -10.3 -10.3 --- --- 5.2 N 0.09 7.0 -15.4 --- --- 719.1 0.020 0.000 9.6 5 1
02/14/06 11:58 a -10.3 -10.3 -10.3 --- --- 6.1 N 0.10 7.0 -16.0 --- --- 719.1 0.020 0.000 9.6 5 1
02/14/06 11:59 a -10.2 -10.2 -10.2 --- --- 6.1 N 0.10 7.0 -15.9 --- --- 719.2 0.020 0.000 9.6 5 1
02/14/06 12:00 p -10.3 -10.3 -10.3 --- --- 6.1 N 0.10 7.0 -16.0 --- --- 719.1 0.020 0.000 9.6 5 1
02/14/06 12:01 p -10.3 -10.3 -10.3 --- --- 6.1 N 0.10 7.0 -16.0 --- --- 719.1 0.020 0.000 9.6 5 1
02/14/06 12:02 p -10.3 -10.3 -10.3 --- --- 6.1 N 0.10 7.0 -16.1 --- --- 719.2 0.020 0.000 9.6 5 1
02/14/06 12:03 p -10.3 -10.3 -10.3 --- --- 6.1 N 0.10 7.0 -16.1 --- --- 719.2 0.020 0.000 9.5 5 1
02/14/06 12:04 p -10.3 -10.3 -10.3 --- --- 6.1 N 0.10 7.0 -16.0 --- --- 719.1 0.020 0.000 9.5 5 1
02/14/06 12:05 p -10.2 -10.1 -10.3 --- --- 7.0 N 0.12 7.8 -16.4 --- --- 719.1 0.020 0.000 9.5 5 1
02/14/06 12:06 p -10.2 -10.1 -10.2 --- --- 7.0 N 0.12 8.7 -16.3 --- --- 719.2 0.020 0.000 9.5 5 1
02/14/06 12:07 p -10.1 -10.1 -10.2 --- --- 7.0 N 0.12 8.7 -16.3 --- --- 719.1 0.020 0.000 9.5 5 1
02/14/06 12:08 p -10.1 -10.1 -10.2 --- --- 7.0 N 0.12 7.8 -16.3 --- --- 719.1 0.020 0.000 9.5 5 1
02/14/06 12:09 p -10.1 -10.1 -10.1 --- --- 7.0 NNW 0.12 8.7 -16.3 --- --- 719.1 0.020 0.000 9.5 5 1
02/14/06 12:10 p -10.1 -10.1 -10.1 --- --- 7.0 NNW 0.12 8.7 -16.3 --- --- 719.1 0.020 0.000 9.5 5 1
02/14/06 12:11 p -10.1 -10.1 -10.1 --- --- 7.0 NNW 0.12 8.7 -16.3 --- --- 719.2 0.020 0.000 9.5 5 1
02/14/06 12:12 p -10.1 -10.1 -10.1 --- --- 7.0 NNW 0.12 7.8 -16.2 --- --- 719.1 0.020 0.000 9.5 5 1
02/14/06 12:13 p -10.1 -10.0 -10.1 --- --- 7.0 NNW 0.12 7.8 -16.2 --- --- 719.2 0.020 0.000 9.5 5 1
02/14/06 12:14 p -10.1 -10.0 -10.1 --- --- 5.2 N 0.09 7.0 -15.2 --- --- 719.1 0.020 0.000 9.5 5 1
02/14/06 12:15 p -10.1 -10.1 -10.1 --- --- 6.1 NNW 0.10 7.0 -15.7 --- --- 719.1 0.020 0.000 9.5 5 1
02/14/06 12:16 p -10.1 -10.1 -10.1 --- --- 6.1 NNW 0.10 7.0 -15.7 --- --- 719.1 0.020 0.000 9.5 5 1
02/14/06 12:17 p -10.1 -10.1 -10.2 --- --- 5.2 N 0.09 6.1 -15.2 --- --- 719.1 0.020 0.000 9.4 5 1
02/14/06 12:18 p -10.3 -10.2 -10.3 --- --- 5.2 N 0.09 6.1 -15.4 --- --- 719.1 0.020 0.000 9.4 5 1
02/14/06 12:19 p -10.3 -10.2 -10.3 --- --- 5.2 N 0.09 6.1 -15.4 --- --- 719.2 0.020 0.000 9.4 5 1
02/14/06 12:20 p -10.3 -10.2 -10.3 --- --- 5.2 N 0.09 6.1 -15.4 --- --- 719.2 0.020 0.000 9.5 5 1
02/14/06 12:21 p -10.3 -10.3 -10.3 --- --- 5.2 N 0.09 6.1 -15.4 --- --- 719.2 0.020 0.000 9.4 5 1
02/14/06 12:22 p -10.3 -10.3 -10.3 --- --- 5.2 N 0.09 7.0 -15.4 --- --- 719.2 0.020 0.000 9.4 5 1
02/14/06 12:23 p -10.3 -10.3 -10.3 --- --- 5.2 N 0.09 6.1 -15.4 --- --- 719.3 0.020 0.000 9.4 5 1
02/14/06 12:24 p -10.3 -10.3 -10.3 --- --- 5.2 N 0.09 6.1 -15.5 --- --- 719.2 0.020 0.000 9.4 5 1
02/14/06 12:25 p -10.4 -10.3 -10.4 --- --- 5.2 N 0.09 6.1 -15.6 --- --- 719.2 0.020 0.000 9.4 5 1
02/14/06 12:26 p -10.4 -10.4 -10.4 --- --- 5.2 N 0.09 6.1 -15.7 --- --- 719.1 0.020 0.000 9.4 5 1
02/14/06 12:27 p -10.4 -10.3 -10.4 --- --- 5.2 N 0.09 6.1 -15.6 --- --- 719.2 0.020 0.000 9.4 5 1
02/14/06 12:28 p -10.3 -10.3 -10.3 --- --- 7.0 N 0.12 8.7 -16.6 --- --- 719.2 0.020 0.000 9.4 5 1
02/14/06 12:29 p -10.3 -10.3 -10.4 --- --- 5.2 N 0.09 6.1 -15.5 --- --- 719.2 0.020 0.000 9.4 5 1
02/14/06 12:30 p -10.3 -10.3 -10.4 --- --- 7.0 N 0.12 8.7 -16.6 --- --- 719.2 0.020 0.000 9.4 5 1
02/14/06 12:31 p -10.3 -10.3 -10.3 --- --- 6.1 NNW 0.10 8.7 -16.1 --- --- 719.2 0.020 0.000 9.4 5 1
02/14/06 12:32 p -10.3 -10.3 -10.3 --- --- 5.2 N 0.09 7.0 -15.4 --- --- 719.1 0.020 0.000 9.4 5 1
02/14/06 12:33 p -10.3 -10.3 -10.3 --- --- 6.1 N 0.10 7.0 -16.0 --- --- 719.2 0.020 0.000 9.4 5 1
02/14/06 12:34 p -10.3 -10.3 -10.3 --- --- 6.1 N 0.10 7.0 -16.0 --- --- 719.2 0.020 0.000 9.4 5 1
02/14/06 12:35 p -10.3 -10.3 -10.3 --- --- 5.2 N 0.09 6.1 -15.4 --- --- 719.2 0.020 0.000 9.4 5 1
02/14/06 12:36 p -10.3 -10.3 -10.4 --- --- 5.2 N 0.09 6.1 -15.5 --- --- 719.1 0.020 0.000 9.4 5 1
02/14/06 12:37 p -10.4 -10.4 -10.4 --- --- 5.2 N 0.09 6.1 -15.6 --- --- 719.2 0.020 0.000 9.4 5 1
02/14/06 12:38 p -10.4 -10.4 -10.4 --- --- 5.2 N 0.09 6.1 -15.6 --- --- 719.1 0.020 0.000 9.4 5 1
02/14/06 12:39 p -10.4 -10.4 -10.4 --- --- 5.2 N 0.09 6.1 -15.7 --- --- 719.2 0.020 0.000 9.4 5 1
02/14/06 12:40 p -10.4 -10.3 -10.4 --- --- 5.2 N 0.09 6.1 -15.6 --- --- 719.2 0.020 0.000 9.4 5 1
02/14/06 12:41 p -10.3 -10.3 -10.3 --- --- 5.2 N 0.09 6.1 -15.4 --- --- 719.1 0.020 0.000 9.3 5 1
02/14/06 12:42 p -10.3 -10.3 -10.3 --- --- 7.0 NNW 0.12 7.8 -16.6 --- --- 719.1 0.020 0.000 9.3 5 1
02/14/06 12:43 p -10.3 -10.3 -10.3 --- --- 5.2 N 0.09 6.1 -15.5 --- --- 719.2 0.020 0.000 9.3 5 1
02/14/06 12:44 p -10.2 -10.2 -10.3 --- --- 6.1 N 0.10 6.1 -15.9 --- --- 719.2 0.020 0.000 9.3 5 1
02/14/06 12:45 p -10.3 -10.3 -10.3 --- --- 6.1 N 0.10 7.0 -16.0 --- --- 719.2 0.020 0.000 9.3 5 1
02/14/06 12:46 p -10.3 -10.3 -10.4 --- --- 7.0 NNW 0.12 8.7 -16.6 --- --- 719.2 0.020 0.000 9.3 5 1
02/14/06 12:47 p -10.2 -10.2 -10.2 --- --- 7.8 NNW 0.13 8.7 -16.9 --- --- 719.2 0.020 0.000 9.3 5 1
02/14/06 12:48 p -10.2 -10.2 -10.2 --- --- 7.0 NNW 0.12 7.8 -16.4 --- --- 719.2 0.020 0.000 9.3 5 1
02/14/06 12:49 p -10.3 -10.2 -10.3 --- --- 6.1 NNW 0.10 7.0 -16.0 --- --- 719.1 0.020 0.000 9.3 5 1
02/14/06 12:50 p -10.2 -10.2 -10.2 --- --- 7.0 NNW 0.12 8.7 -16.4 --- --- 719.2 0.020 0.000 9.3 5 1
02/14/06 12:51 p -10.2 -10.2 -10.2 --- --- 7.0 NNW 0.12 7.8 -16.3 --- --- 719.1 0.020 0.000 9.3 5 1
02/14/06 12:52 p -10.2 -10.1 -10.2 --- --- 7.0 NNW 0.12 7.8 -16.3 --- --- 719.2 0.020 0.000 9.3 5 1
02/14/06 12:53 p -10.2 -10.2 -10.2 --- --- 7.8 NNW 0.13 8.7 -16.8 --- --- 719.2 0.020 0.000 9.3 5 1
02/14/06 12:54 p -10.3 -10.2 -10.3 --- --- 7.8 NNW 0.13 9.6 -16.9 --- --- 719.2 0.020 0.000 9.3 5 1
02/14/06 12:55 p -10.2 -10.1 -10.2 --- --- 9.6 NNW 0.16 11.3 -17.6 --- --- 719.1 0.020 0.000 9.3 5 1
02/14/06 12:56 p -10.1 -9.9 -10.1 --- --- 9.6 NNW 0.16 11.3 -17.4 --- --- 719.1 0.020 0.000 9.3 5 1
02/14/06 12:57 p -9.8 -9.7 -9.9 --- --- 8.7 NNW 0.14 10.4 -16.8 --- --- 719.1 0.020 0.000 9.3 5 1
02/14/06 12:58 p -9.8 -9.7 -9.9 --- --- 8.7 NNW 0.14 10.4 -16.7 --- --- 719.2 0.020 0.000 9.3 5 1
02/14/06 12:59 p -9.9 -9.9 -9.9 --- --- 9.6 NNW 0.16 10.4 -17.2 --- --- 719.1 0.020 0.000 9.3 5 1
02/14/06 1:00 p -9.8 -9.8 -9.9 --- --- 9.6 NNW 0.16 10.4 -17.2 --- --- 719.1 0.020 0.000 9.3 5 1
02/14/06 1:01 p -9.8 -9.8 -9.8 --- --- 9.6 NNW 0.16 11.3 -17.1 --- --- 719.2 0.020 0.000 9.3 5 1
02/14/06 1:02 p -9.7 -9.7 -9.7 --- --- 8.7 NNW 0.14 10.4 -16.7 --- --- 719.1 0.019 0.000 9.3 5 1
02/14/06 1:03 p -9.6 -9.6 -9.6 --- --- 8.7 NNW 0.14 10.4 -16.5 --- --- 719.2 0.019 0.000 9.3 5 1
02/14/06 1:04 p -9.7 -9.7 -9.7 --- --- 7.8 NNW 0.13 9.6 -16.2 --- --- 719.0 0.019 0.000 9.2 5 1
02/14/06 1:05 p -9.8 -9.8 -9.8 --- --- 7.8 NNW 0.13 9.6 -16.3 --- --- 719.2 0.020 0.000 9.2 5 1
02/14/06 1:06 p -9.8 -9.8 -9.8 --- --- 8.7 NNW 0.14 9.6 -16.8 --- --- 719.1 0.020 0.000 9.2 5 1
02/14/06 1:07 p -9.8 -9.8 -9.8 --- --- 8.7 NNW 0.14 9.6 -16.8 --- --- 719.1 0.020 0.000 9.2 5 1
02/14/06 1:08 p -9.8 -9.8 -9.8 --- --- 8.7 NNW 0.14 9.6 -16.8 --- --- 719.2 0.020 0.000 9.2 5 1
02/14/06 1:09 p -9.8 -9.8 -9.9 --- --- 8.7 NNW 0.14 9.6 -16.8 --- --- 719.1 0.020 0.000 9.2 5 1
02/14/06 1:10 p -9.7 -9.7 -9.8 --- --- 8.7 NNW 0.14 9.6 -16.7 --- --- 719.1 0.019 0.000 9.2 5 1
02/14/06 1:11 p -9.8 -9.8 -9.8 --- --- 8.7 NNW 0.14 10.4 -16.7 --- --- 719.2 0.020 0.000 9.2 5 1
02/14/06 1:12 p -9.8 -9.7 -9.8 --- --- 8.7 NNW 0.14 10.4 -16.7 --- --- 719.3 0.020 0.000 9.2 5 1
02/14/06 1:13 p -9.7 -9.7 -9.8 --- --- 8.7 NNW 0.14 9.6 -16.7 --- --- 719.2 0.019 0.000 9.2 5 1
02/14/06 1:14 p -9.8 -9.8 -9.9 --- --- 8.7 NNW 0.14 9.6 -16.8 --- --- 719.2 0.020 0.000 9.2 5 1
02/14/06 1:15 p -9.8 -9.8 -9.9 --- --- 8.7 NNW 0.14 10.4 -16.8 --- --- 719.2 0.020 0.000 9.2 5 1
02/14/06 1:16 p -9.7 -9.7 -9.8 --- --- 8.7 NNW 0.14 9.6 -16.7 --- --- 719.3 0.019 0.000 9.2 4 1
02/14/06 1:17 p -9.8 -9.7 -9.8 --- --- 8.7 NNW 0.14 9.6 -16.7 --- --- 719.1 0.020 0.000 9.2 5 1
02/14/06 1:18 p -9.8 -9.8 -9.8 --- --- 7.8 NNW 0.13 9.6 -16.3 --- --- 719.1 0.020 0.000 9.2 5 1
02/14/06 1:19 p -9.8 -9.8 -9.9 --- --- 7.8 NNW 0.13 8.7 -16.4 --- --- 719.1 0.020 0.000 9.2 5 1
02/14/06 1:20 p -9.9 -9.9 -9.9 --- --- 8.7 NNW 0.14 9.6 -16.9 --- --- 719.2 0.020 0.000 9.2 5 1
02/14/06 1:21 p -9.9 -9.8 -9.9 --- --- 8.7 NNW 0.14 10.4 -16.8 --- --- 719.2 0.020 0.000 9.2 5 1
02/14/06 1:22 p -9.8 -9.8 -9.8 --- --- 7.8 NNW 0.13 10.4 -16.4 --- --- 719.1 0.020 0.000 9.2 4 1
02/14/06 1:23 p -9.8 -9.8 -9.9 --- --- 7.8 NNW 0.13 9.6 -16.4 --- --- 719.1 0.020 0.000 9.2 5 1
02/14/06 1:24 p -9.9 -9.8 -9.9 --- --- 7.8 NNW 0.13 10.4 -16.4 --- --- 719.2 0.020 0.000 9.2 5 1
02/14/06 1:25 p -9.8 -9.8 -9.8 --- --- 8.7 NNW 0.14 10.4 -16.8 --- --- 719.2 0.020 0.000 9.2 4 1
02/14/06 1:26 p -9.8 -9.8 -9.8 --- --- 8.7 NNW 0.14 9.6 -16.7 --- --- 719.2 0.020 0.000 9.2 4 1
02/14/06 1:27 p -9.8 -9.7 -9.8 --- --- 7.0 NNW 0.12 8.7 -15.9 --- --- 719.2 0.020 0.000 9.2 5 1
02/14/06 1:28 p -9.7 -9.7 -9.8 --- --- 7.8 NNW 0.13 9.6 -16.2 --- --- 719.1 0.019 0.000 9.2 4 1
02/14/06 1:29 p -9.8 -9.7 -9.8 --- --- 7.0 NW 0.12 8.7 -15.9 --- --- 719.1 0.020 0.000 9.2 5 1
02/14/06 1:30 p -9.8 -9.8 -9.8 --- --- 7.0 NNW 0.12 8.7 -15.9 --- --- 719.1 0.020 0.000 9.2 4 1
02/14/06 1:31 p -9.9 -9.8 -9.9 --- --- 7.0 NNW 0.12 8.7 -16.0 --- --- 719.1 0.020 0.000 9.2 4 1
02/14/06 1:32 p -10.0 -9.9 -10.1 --- --- 7.8 NW 0.13 8.7 -16.6 --- --- 719.1 0.020 0.000 9.2 4 1
02/14/06 1:33 p -10.1 -10.1 -10.1 --- --- 7.0 NW 0.12 7.8 -16.2 --- --- 719.1 0.020 0.000 9.2 4 1
02/14/06 1:34 p -10.1 -10.0 -10.1 --- --- 6.1 NW 0.10 8.7 -15.7 --- --- 719.0 0.020 0.000 9.2 5 1
02/14/06 1:35 p -9.9 -9.9 -10.0 --- --- 6.1 NNW 0.10 7.8 -15.6 --- --- 719.1 0.020 0.000 9.2 4 1
02/14/06 1:36 p -10.0 -9.9 -10.1 --- --- 7.8 NNW 0.13 8.7 -16.6 --- --- 719.0 0.020 0.000 9.2 4 1
02/14/06 1:37 p -10.1 -10.0 -10.1 --- --- 7.8 NNW 0.13 9.6 -16.7 --- --- 719.0 0.020 0.000 9.2 4 1
02/14/06 1:38 p -10.1 -10.0 -10.1 --- --- 8.7 NW 0.14 10.4 -17.1 --- --- 719.0 0.020 0.000 9.2 4 1
02/14/06 1:39 p -9.9 -9.9 -10.0 --- --- 7.0 NNW 0.12 8.7 -16.1 --- --- 719.1 0.020 0.000 9.2 4 1
02/14/06 1:40 p -10.1 -10.0 -10.2 --- --- 7.8 NW 0.13 7.8 -16.7 --- --- 719.0 0.020 0.000 9.2 4 1
02/14/06 1:41 p -10.2 -10.2 -10.3 --- --- 8.7 NW 0.14 11.3 -17.3 --- --- 719.0 0.020 0.000 9.2 4 1
02/14/06 1:42 p -10.1 -10.1 -10.2 --- --- 8.7 NW 0.14 10.4 -17.1 --- --- 719.0 0.020 0.000 9.2 4 1
02/14/06 1:43 p -10.1 -9.9 -10.1 --- --- 8.7 NW 0.14 10.4 -17.1 --- --- 719.1 0.020 0.000 9.2 4 1
02/14/06 1:44 p -9.9 -9.9 -9.9 --- --- 7.8 NW 0.13 8.7 -16.5 --- --- 719.0 0.020 0.000 9.2 4 1
02/14/06 1:45 p -9.9 -9.9 -9.9 --- --- 8.7 NW 0.14 10.4 -16.9 --- --- 719.1 0.020 0.000 9.2 4 1
02/14/06 1:46 p -9.9 -9.9 -9.9 --- --- 9.6 NW 0.16 11.3 -17.2 --- --- 719.0 0.020 0.000 9.2 4 1
02/14/06 1:47 p -9.8 -9.8 -9.9 --- --- 7.8 NW 0.13 8.7 -16.4 --- --- 719.2 0.020 0.000 9.2 4 1
02/14/06 1:48 p -9.9 -9.8 -9.9 --- --- 7.8 NW 0.13 10.4 -16.4 --- --- 719.0 0.020 0.000 9.2 4 1
02/14/06 1:49 p -9.8 -9.8 -9.8 --- --- 7.8 NNW 0.13 8.7 -16.4 --- --- 719.0 0.020 0.000 9.2 4 1
02/14/06 1:50 p -9.8 -9.8 -9.9 --- --- 7.0 NNW 0.12 9.6 -15.9 --- --- 719.0 0.020 0.000 9.2 4 1
02/14/06 1:51 p -9.9 -9.9 -9.9 --- --- 6.1 NW 0.10 7.8 -15.6 --- --- 719.1 0.020 0.000 9.2 4 1
02/14/06 1:52 p -9.9 -9.9 -9.9 --- --- 5.2 NNW 0.09 6.1 -15.0 --- --- 719.0 0.020 0.000 9.2 4 1
02/14/06 1:53 p -9.9 -9.9 -10.1 --- --- 6.1 NNW 0.10 7.8 -15.6 --- --- 719.0 0.020 0.000 9.2 4 1
02/14/06 1:54 p -10.0 -10.0 -10.1 --- --- 7.8 NNW 0.13 8.7 -16.6 --- --- 719.0 0.020 0.000 9.2 4 1
02/14/06 1:55 p -10.1 -10.1 -10.1 --- --- 7.0 NNW 0.12 7.8 -16.2 --- --- 719.0 0.020 0.000 9.2 4 1
02/14/06 1:56 p -10.1 -10.1 -10.2 --- --- 7.0 NNW 0.12 8.7 -16.3 --- --- 719.0 0.020 0.000 9.2 4 1
02/14/06 1:57 p -10.1 -10.1 -10.2 --- --- 8.7 NW 0.14 10.4 -17.1 --- --- 719.0 0.020 0.000 9.2 4 1
02/14/06 1:58 p -10.0 -9.8 -10.1 --- --- 6.1 NW 0.10 8.7 -15.7 --- --- 719.0 0.020 0.000 9.2 4 1
02/14/06 1:59 p -9.7 -9.7 -9.8 --- --- 5.2 NW 0.09 7.0 -14.8 --- --- 719.1 0.019 0.000 9.2 4 1
02/14/06 2:00 p -9.7 -9.7 -9.7 --- --- 5.2 NW 0.09 6.1 -14.8 --- --- 719.1 0.019 0.000 9.2 4 1
02/14/06 2:01 p -9.6 -9.6 -9.7 --- --- 7.0 NNW 0.12 8.7 -15.7 --- --- 719.0 0.019 0.000 9.2 4 1
02/14/06 2:02 p -9.6 -9.6 -9.6 --- --- 7.0 NNW 0.12 7.0 -15.6 --- --- 719.1 0.019 0.000 9.2 4 1
02/14/06 2:03 p -9.7 -9.6 -9.7 --- --- 5.2 NNW 0.09 7.0 -14.7 --- --- 719.0 0.019 0.000 9.2 4 1
02/14/06 2:04 p -9.8 -9.8 -9.8 --- --- 6.1 NNW 0.10 7.0 -15.4 --- --- 719.0 0.020 0.000 9.1 4 1
02/14/06 2:05 p -9.8 -9.8 -9.9 --- --- 6.1 NNW 0.10 7.0 -15.4 --- --- 719.0 0.020 0.000 9.2 4 1
02/14/06 2:06 p -9.9 -9.8 -9.9 --- --- 6.1 NNW 0.10 7.0 -15.6 --- --- 719.0 0.020 0.000 9.1 4 1
02/14/06 2:07 p -9.8 -9.8 -9.9 --- --- 6.1 NNW 0.10 7.0 -15.4 --- --- 719.0 0.020 0.000 9.1 4 1
02/14/06 2:08 p -9.8 -9.8 -9.9 --- --- 6.1 NNW 0.10 7.0 -15.4 --- --- 719.0 0.020 0.000 9.1 4 1
02/14/06 2:09 p -9.8 -9.8 -9.9 --- --- 6.1 NW 0.10 7.8 -15.4 --- --- 719.1 0.020 0.000 9.1 4 1
02/14/06 2:10 p -9.8 -9.8 -9.9 --- --- 6.1 NW 0.10 7.0 -15.4 --- --- 719.0 0.020 0.000 9.1 4 1
02/14/06 2:11 p -9.9 -9.9 -9.9 --- --- 5.2 NW 0.09 6.1 -15.0 --- --- 719.0 0.020 0.000 9.1 4 1
02/14/06 2:12 p -10.0 -9.9 -10.1 --- --- 6.1 NNW 0.10 7.0 -15.7 --- --- 719.1 0.020 0.000 9.1 4 1
02/14/06 2:13 p -10.1 -10.1 -10.1 --- --- 7.0 NW 0.12 8.7 -16.3 --- --- 718.9 0.020 0.000 9.1 4 1
02/14/06 2:14 p -10.1 -10.0 -10.1 --- --- 7.8 NW 0.13 7.8 -16.7 --- --- 718.9 0.020 0.000 9.1 5 1
02/14/06 2:15 p -9.9 -9.8 -10.0 --- --- 7.0 NNW 0.12 7.8 -16.0 --- --- 719.1 0.020 0.000 9.1 5 1
02/14/06 2:16 p -9.8 -9.8 -9.8 --- --- 6.1 NNW 0.10 7.0 -15.4 --- --- 719.0 0.020 0.000 9.1 5 1
02/14/06 2:17 p -9.9 -9.8 -9.9 --- --- 6.1 NNW 0.10 7.8 -15.6 --- --- 719.0 0.020 0.000 9.1 5 1
02/14/06 2:18 p -9.9 -9.9 -9.9 --- --- 7.0 NW 0.12 7.8 -16.0 --- --- 719.0 0.020 0.000 9.1 5 1
02/14/06 2:19 p -9.8 -9.8 -9.9 --- --- 7.0 NNW 0.12 8.7 -15.9 --- --- 719.0 0.020 0.000 9.1 5 1
02/14/06 2:20 p -9.8 -9.8 -9.8 --- --- 6.1 NNW 0.10 8.7 -15.4 --- --- 719.0 0.020 0.000 9.1 4 1
02/14/06 2:21 p -9.8 -9.8 -9.8 --- --- 5.2 NNW 0.09 7.0 -14.8 --- --- 719.0 0.020 0.000 9.1 5 1
02/14/06 2:22 p -9.8 -9.8 -9.8 --- --- 5.2 NNW 0.09 6.1 -14.9 --- --- 719.0 0.020 0.000 9.1 5 1
02/14/06 2:23 p -9.9 -9.8 -9.9 --- --- 6.1 NNW 0.10 7.8 -15.6 --- --- 719.0 0.020 0.000 9.1 5 1
02/14/06 2:24 p -9.8 -9.8 -9.8 --- --- 6.1 NNW 0.10 7.0 -15.4 --- --- 719.0 0.020 0.000 9.1 4 1
02/14/06 2:25 p -9.9 -9.8 -9.9 --- --- 7.0 NNW 0.12 7.0 -16.0 --- --- 718.9 0.020 0.000 9.1 5 1
02/14/06 2:26 p -9.9 -9.9 -9.9 --- --- 7.0 NNW 0.12 7.8 -16.0 --- --- 718.9 0.020 0.000 9.1 4 1
02/14/06 2:27 p -9.9 -9.9 -9.9 --- --- 7.8 NNW 0.13 8.7 -16.5 --- --- 718.9 0.020 0.000 9.1 5 1
02/14/06 2:28 p -9.8 -9.8 -9.8 --- --- 7.0 NNW 0.12 7.8 -15.9 --- --- 719.0 0.020 0.000 9.1 5 1
02/14/06 2:29 p -9.8 -9.8 -9.8 --- --- 7.0 NNW 0.12 7.8 -15.9 --- --- 719.0 0.020 0.000 9.1 5 1
02/14/06 2:30 p -9.8 -9.8 -9.8 --- --- 6.1 NNW 0.10 8.7 -15.4 --- --- 719.0 0.020 0.000 9.1 5 1
02/14/06 2:31 p -9.8 -9.7 -9.8 --- --- 7.0 NNW 0.12 7.8 -15.9 --- --- 719.0 0.020 0.000 9.1 5 1
02/14/06 2:32 p -9.6 -9.6 -9.6 --- --- 6.1 NNW 0.10 7.0 -15.2 --- --- 719.0 0.019 0.000 9.0 5 1
02/14/06 2:33 p -9.5 -9.5 -9.5 --- --- 5.2 NNW 0.09 6.1 -14.5 --- --- 719.0 0.019 0.000 9.0 5 1
02/14/06 2:34 p -9.6 -9.6 -9.7 --- --- 5.2 NNW 0.09 7.8 -14.7 --- --- 718.9 0.019 0.000 9.0 5 1
02/14/06 2:35 p -9.6 -9.6 -9.7 --- --- 7.0 NNW 0.12 7.8 -15.7 --- --- 719.0 0.019 0.000 9.0 5 1
02/14/06 2:36 p -9.6 -9.5 -9.7 --- --- 6.1 NNW 0.10 7.0 -15.1 --- --- 719.0 0.019 0.000 9.0 5 1
02/14/06 2:37 p -9.8 -9.7 -9.8 --- --- 6.1 NNW 0.10 7.0 -15.4 --- --- 719.1 0.020 0.000 9.0 5 1
02/14/06 2:38 p -9.9 -9.9 -10.0 --- --- 5.2 NNW 0.09 7.0 -15.1 --- --- 719.0 0.020 0.000 9.0 5 1
02/14/06 2:39 p -10.0 -10.0 -10.1 --- --- 5.2 NNW 0.09 6.1 -15.1 --- --- 718.9 0.020 0.000 9.0 5 1
02/14/06 2:40 p -9.9 -9.9 -10.0 --- --- 5.2 NNW 0.09 6.1 -15.1 --- --- 718.9 0.020 0.000 9.0 5 1
02/14/06 2:41 p -9.8 -9.8 -9.9 --- --- 4.3 NNW 0.07 6.1 -14.3 --- --- 719.0 0.020 0.000 9.0 5 1
02/14/06 2:42 p -9.9 -9.8 -9.9 --- --- 5.2 NNW 0.09 6.1 -15.0 --- --- 719.0 0.020 0.000 9.0 5 1
02/14/06 2:43 p -9.9 -9.9 -9.9 --- --- 6.1 NNW 0.10 7.0 -15.6 --- --- 718.9 0.020 0.000 9.0 5 1
02/14/06 2:44 p -9.9 -9.9 -9.9 --- --- 6.1 NNW 0.10 6.1 -15.6 --- --- 719.1 0.020 0.000 9.0 5 1
02/14/06 2:45 p -9.9 -9.9 -9.9 --- --- 6.1 NNW 0.10 7.0 -15.6 --- --- 718.9 0.020 0.000 8.9 5 1
02/14/06 2:46 p -9.9 -9.8 -9.9 --- --- 4.3 NNW 0.07 6.1 -14.3 --- --- 718.9 0.020 0.000 8.9 5 1
02/14/06 2:47 p -9.8 -9.7 -9.9 --- --- 5.2 NNW 0.09 7.0 -14.9 --- --- 718.9 0.020 0.000 8.9 5 1
02/14/06 2:48 p -9.8 -9.7 -9.8 --- --- 5.2 NNW 0.09 6.1 -14.8 --- --- 718.9 0.020 0.000 8.9 5 1
02/14/06 2:49 p -9.8 -9.8 -9.8 --- --- 5.2 NNW 0.09 6.1 -14.8 --- --- 718.9 0.020 0.000 8.9 5 1
02/14/06 2:50 p -9.8 -9.8 -9.8 --- --- 5.2 NNW 0.09 6.1 -14.9 --- --- 718.9 0.020 0.000 8.9 5 1
02/14/06 2:51 p -9.8 -9.8 -9.8 --- --- 4.3 NNW 0.07 5.2 -14.2 --- --- 719.0 0.020 0.000 8.9 5 1
02/14/06 2:52 p -9.8 -9.7 -9.8 --- --- 4.3 NNW 0.07 5.2 -14.2 --- --- 719.0 0.020 0.000 8.9 5 1
02/14/06 2:53 p -9.6 -9.6 -9.7 --- --- 5.2 NNW 0.09 6.1 -14.7 --- --- 719.1 0.019 0.000 8.9 5 1
02/14/06 2:54 p -9.7 -9.6 -9.7 --- --- 4.3 NNW 0.07 6.1 -14.2 --- --- 719.1 0.019 0.000 8.9 5 1
02/14/06 2:55 p -9.8 -9.7 -9.8 --- --- 4.3 NNW 0.07 5.2 -14.2 --- --- 719.0 0.020 0.000 8.9 5 1
02/14/06 2:56 p -9.8 -9.8 -9.8 --- --- 5.2 NNW 0.09 6.1 -14.8 --- --- 719.0 0.020 0.000 8.9 5 1
02/14/06 2:57 p -9.7 -9.7 -9.7 --- --- 5.2 NNW 0.09 5.2 -14.8 --- --- 719.0 0.019 0.000 8.9 5 1
02/14/06 2:58 p -9.8 -9.7 -9.8 --- --- 4.3 NNW 0.07 5.2 -14.2 --- --- 719.0 0.020 0.000 8.9 5 1
02/14/06 2:59 p -9.8 -9.8 -9.8 --- --- 4.3 NNW 0.07 5.2 -14.2 --- --- 719.0 0.020 0.000 8.9 5 1
02/14/06 3:00 p -9.8 -9.8 -9.8 --- --- 3.5 NNW 0.06 4.3 -13.5 --- --- 719.0 0.020 0.000 8.9 5 1
02/14/06 3:01 p -9.8 -9.8 -9.9 --- --- 3.5 NNW 0.06 4.3 -13.6 --- --- 719.0 0.020 0.000 8.9 5 1
02/14/06 3:02 p -9.9 -9.9 -9.9 --- --- 2.6 NNW 0.04 2.6 -12.7 --- --- 719.0 0.020 0.000 8.9 5 1
02/14/06 3:03 p -9.9 -9.9 -9.9 --- --- 2.6 NNW 0.04 2.6 -12.7 --- --- 719.0 0.020 0.000 8.9 5 1
02/14/06 3:04 p -9.9 -9.9 -9.9 --- --- 2.6 NNW 0.04 3.5 -12.7 --- --- 719.0 0.020 0.000 8.9 5 1
02/14/06 3:05 p -9.9 -9.9 -9.9 --- --- 2.6 NNW 0.04 2.6 -12.7 --- --- 719.0 0.020 0.000 8.9 5 1
02/14/06 3:06 p -10.0 -9.9 -10.0 --- --- 1.7 NNW 0.03 2.6 -11.6 --- --- 719.0 0.020 0.000 8.8 5 1
02/14/06 3:07 p -10.0 -9.9 -10.0 --- --- 2.6 NNW 0.04 3.5 -12.8 --- --- 719.0 0.020 0.000 8.8 5 1
02/14/06 3:08 p -10.0 -9.9 -10.0 --- --- 1.7 NNW 0.03 2.6 -11.6 --- --- 719.0 0.020 0.000 8.8 5 1
02/14/06 3:09 p -10.0 -10.0 -10.0 --- --- 1.7 NNW 0.03 2.6 -11.6 --- --- 719.1 0.020 0.000 8.8 5 1
02/14/06 3:10 p -9.9 -9.9 -10.0 --- --- 0.9 NNW 0.01 1.7 -9.9 --- --- 719.0 0.020 0.000 8.8 5 1
02/14/06 3:11 p -9.9 -9.9 -9.9 --- --- 1.7 NNW 0.03 2.6 -11.5 --- --- 719.0 0.020 0.000 8.8 5 1
02/14/06 3:12 p -9.9 -9.9 -9.9 --- --- 1.7 NNW 0.03 2.6 -11.5 --- --- 719.0 0.020 0.000 8.8 5 1
02/14/06 3:13 p -9.9 -9.9 -9.9 --- --- 1.7 NNW 0.03 2.6 -11.4 --- --- 719.0 0.020 0.000 8.8 5 1
02/14/06 3:14 p -9.9 -9.9 -9.9 --- --- 1.7 NNW 0.03 1.7 -11.5 --- --- 719.1 0.020 0.000 8.8 5 1
02/14/06 3:15 p -9.9 -9.9 -9.9 --- --- 1.7 NNW 0.03 1.7 -11.5 --- --- 719.0 0.020 0.000 8.8 5 1
02/14/06 3:16 p -9.9 -9.9 -10.0 --- --- 1.7 NNW 0.03 2.6 -11.5 --- --- 719.0 0.020 0.000 8.8 5 1
02/14/06 3:17 p -10.0 -9.9 -10.0 --- --- 0.9 NNW 0.01 1.7 -10.0 --- --- 719.0 0.020 0.000 8.8 5 1
02/14/06 3:18 p -9.9 -9.9 -10.0 --- --- 0.9 NNW 0.01 1.7 -9.9 --- --- 718.9 0.020 0.000 8.8 5 1
02/14/06 3:19 p -9.9 -9.9 -9.9 --- --- 0.9 NNW 0.01 1.7 -9.9 --- --- 719.0 0.020 0.000 8.8 5 1
02/14/06 3:20 p -9.9 -9.9 -9.9 --- --- 1.7 NNW 0.03 2.6 -11.5 --- --- 719.0 0.020 0.000 8.8 5 1
02/14/06 3:21 p -9.9 -9.9 -9.9 --- --- 0.9 NNW 0.01 1.7 -9.9 --- --- 719.0 0.020 0.000 8.8 5 1
02/14/06 3:22 p -9.9 -9.9 -9.9 --- --- 1.7 NNW 0.03 2.6 -11.4 --- --- 719.0 0.020 0.000 8.8 5 1
02/14/06 3:23 p -9.9 -9.9 -9.9 --- --- 1.7 NNW 0.03 2.6 -11.4 --- --- 719.0 0.020 0.000 8.8 5 1
02/14/06 3:24 p -9.8 -9.8 -9.9 --- --- 1.7 NNW 0.03 1.7 -11.4 --- --- 719.0 0.020 0.000 8.8 5 1
02/14/06 3:25 p -9.8 -9.8 -9.8 --- --- 1.7 NNW 0.03 1.7 -11.4 --- --- 719.1 0.020 0.000 8.8 5 1
02/14/06 3:26 p -9.8 -9.8 -9.8 --- --- 1.7 NNW 0.03 1.7 -11.3 --- --- 719.0 0.020 0.000 8.8 5 1
02/14/06 3:27 p -9.8 -9.8 -9.8 --- --- 0.9 NNW 0.01 1.7 -9.8 --- --- 719.1 0.020 0.000 8.8 5 1
02/14/06 3:28 p -9.8 -9.8 -9.8 --- --- 0.9 NNW 0.01 1.7 -9.8 --- --- 719.0 0.020 0.000 8.8 5 1
02/14/06 3:29 p -9.8 -9.8 -9.8 --- --- 0.0 NNW 0.00 0.9 -9.8 --- --- 719.0 0.020 0.000 8.8 5 1
02/14/06 3:30 p -9.8 -9.8 -9.8 --- --- 0.0 NNW 0.00 0.9 -9.8 --- --- 719.0 0.020 0.000 8.8 5 1
02/14/06 3:31 p -9.8 -9.8 -9.8 --- --- 0.0 NNW 0.00 0.9 -9.8 --- --- 719.1 0.020 0.000 8.8 5 1
02/14/06 3:32 p -9.7 -9.7 -9.7 --- --- 0.0 NNW 0.00 0.9 -9.7 --- --- 719.0 0.019 0.000 8.8 5 1
02/14/06 3:33 p -9.7 -9.7 -9.7 --- --- 0.0 NNW 0.00 0.9 -9.7 --- --- 719.0 0.019 0.000 8.8 5 1
02/14/06 3:34 p -9.7 -9.7 -9.7 --- --- 0.0 --- 0.00 0.9 -9.7 --- --- 719.0 0.019 0.000 8.8 5 1
02/14/06 3:35 p -9.7 -9.7 -9.7 --- --- 0.0 --- 0.00 0.0 -9.7 --- --- 719.0 0.019 0.000 8.8 5 1
02/14/06 3:36 p -9.7 -9.7 -9.7 --- --- 0.0 --- 0.00 0.0 -9.7 --- --- 719.0 0.019 0.000 8.8 5 1
02/14/06 3:37 p -9.7 -9.7 -9.7 --- --- 0.0 --- 0.00 0.0 -9.7 --- --- 719.0 0.019 0.000 8.8 5 1
02/14/06 3:38 p -9.7 -9.7 -9.7 --- --- 0.0 --- 0.00 0.0 -9.7 --- --- 719.0 0.019 0.000 8.8 5 1
02/14/06 3:39 p -9.7 -9.7 -9.7 --- --- 0.0 --- 0.00 0.0 -9.7 --- --- 719.0 0.019 0.000 8.8 5 1
02/14/06 3:40 p -9.7 -9.7 -9.7 --- --- 0.0 --- 0.00 0.0 -9.7 --- --- 719.0 0.019 0.000 8.7 5 1
02/14/06 3:41 p -9.7 -9.7 -9.7 --- --- 0.0 --- 0.00 0.0 -9.7 --- --- 719.0 0.019 0.000 8.7 5 1
02/14/06 3:42 p -9.7 -9.7 -9.8 --- --- 0.0 --- 0.00 0.0 -9.7 --- --- 718.9 0.019 0.000 8.7 5 1
02/14/06 3:43 p -9.8 -9.8 -9.8 --- --- 0.0 --- 0.00 0.0 -9.8 --- --- 719.0 0.020 0.000 8.7 5 1
02/14/06 3:44 p -9.8 -9.8 -9.8 --- --- 0.0 --- 0.00 0.0 -9.8 --- --- 719.0 0.020 0.000 8.7 5 1
02/14/06 3:45 p -9.9 -9.9 -9.9 --- --- 0.0 --- 0.00 0.0 -9.9 --- --- 718.9 0.020 0.000 8.7 5 1
02/14/06 3:46 p -9.9 -9.9 -9.9 --- --- 0.0 --- 0.00 0.0 -9.9 --- --- 718.9 0.020 0.000 8.7 5 1
02/14/06 3:47 p -9.9 -9.9 -10.0 --- --- 0.0 --- 0.00 0.0 -9.9 --- --- 719.0 0.020 0.000 8.7 5 1
02/14/06 3:48 p -10.0 -10.0 -10.1 --- --- 0.0 --- 0.00 0.0 -10.0 --- --- 719.1 0.020 0.000 8.7 5 1
02/14/06 3:49 p -10.1 -10.1 -10.1 --- --- 0.0 --- 0.00 0.0 -10.1 --- --- 719.0 0.020 0.000 8.7 5 1
02/14/06 3:50 p -10.1 -10.1 -10.1 --- --- 0.0 --- 0.00 0.0 -10.1 --- --- 719.0 0.020 0.000 8.7 5 1
02/14/06 3:51 p -10.1 -10.1 -10.2 --- --- 0.0 --- 0.00 0.0 -10.1 --- --- 719.0 0.020 0.000 8.7 5 1
02/14/06 3:52 p -10.2 -10.2 -10.2 --- --- 0.9 NNW 0.01 0.9 -10.2 --- --- 719.0 0.020 0.000 8.7 5 1
02/14/06 3:53 p -10.2 -10.2 -10.3 --- --- 0.0 NNW 0.00 1.7 -10.2 --- --- 719.0 0.020 0.000 8.7 5 1
02/14/06 3:54 p -10.3 -10.3 -10.3 --- --- 0.0 --- 0.00 0.0 -10.3 --- --- 719.0 0.020 0.000 8.7 5 1
02/14/06 3:55 p -10.4 -10.3 -10.4 --- --- 0.0 --- 0.00 0.0 -10.4 --- --- 719.0 0.020 0.000 8.7 5 1
02/14/06 3:56 p -10.4 -10.4 -10.5 --- --- 0.0 --- 0.00 0.0 -10.4 --- --- 719.0 0.020 0.000 8.7 5 1
02/14/06 3:57 p -10.5 -10.5 -10.6 --- --- 0.0 --- 0.00 0.9 -10.5 --- --- 718.9 0.020 0.000 8.7 5 1
02/14/06 3:58 p -10.6 -10.6 -10.6 --- --- 0.9 NNW 0.01 1.7 -10.6 --- --- 719.0 0.020 0.000 8.6 5 1
02/14/06 3:59 p -10.7 -10.6 -10.7 --- --- 0.9 NNW 0.01 0.9 -10.7 --- --- 719.0 0.020 0.000 8.6 5 1
02/14/06 4:00 p -10.7 -10.7 -10.7 --- --- 0.0 NNW 0.00 0.9 -10.7 --- --- 719.0 0.020 0.000 8.6 5 1
02/14/06 4:01 p -10.7 -10.7 -10.8 --- --- 0.0 NNW 0.00 0.9 -10.7 --- --- 719.0 0.020 0.000 8.6 5 1
02/14/06 4:02 p -10.8 -10.8 -10.8 --- --- 0.9 NNW 0.01 1.7 -10.8 --- --- 719.0 0.020 0.000 8.6 5 1
02/14/06 4:03 p -10.8 -10.8 -10.8 --- --- 0.9 NNW 0.01 1.7 -10.8 --- --- 719.0 0.020 0.000 8.6 5 1
02/14/06 4:04 p -10.8 -10.8 -10.8 --- --- 1.7 NNW 0.03 2.6 -12.5 --- --- 719.0 0.020 0.000 8.6 5 1
02/14/06 4:05 p -10.8 -10.8 -10.8 --- --- 1.7 NNW 0.03 2.6 -12.5 --- --- 719.0 0.020 0.000 8.6 5 1
02/14/06 4:06 p -10.8 -10.8 -10.9 --- --- 2.6 NNW 0.04 3.5 -13.7 --- --- 719.0 0.020 0.000 8.6 5 1
02/14/06 4:07 p -10.9 -10.9 -10.9 --- --- 2.6 NNW 0.04 3.5 -13.8 --- --- 718.9 0.020 0.000 8.6 5 1
02/14/06 4:08 p -10.9 -10.9 -10.9 --- --- 2.6 N 0.04 3.5 -13.9 --- --- 719.0 0.020 0.000 8.6 5 1
02/14/06 4:09 p -10.9 -10.9 -10.9 --- --- 2.6 N 0.04 3.5 -13.9 --- --- 719.0 0.020 0.000 8.6 5 1
02/14/06 4:10 p -10.9 -10.9 -10.9 --- --- 2.6 N 0.04 3.5 -13.9 --- --- 719.0 0.020 0.000 8.6 5 1
02/14/06 4:11 p -10.9 -10.9 -10.9 --- --- 2.6 N 0.04 3.5 -13.8 --- --- 719.0 0.020 0.000 8.6 5 1
02/14/06 4:12 p -10.9 -10.9 -10.9 --- --- 2.6 N 0.04 2.6 -13.9 --- --- 719.0 0.020 0.000 8.6 5 1
02/14/06 4:13 p -10.9 -10.9 -10.9 --- --- 2.6 N 0.04 2.6 -13.8 --- --- 719.0 0.020 0.000 8.6 5 1
02/14/06 4:14 p -10.9 -10.9 -10.9 --- --- 2.6 N 0.04 3.5 -13.8 --- --- 719.0 0.020 0.000 8.6 5 1
02/14/06 4:15 p -10.9 -10.9 -10.9 --- --- 3.5 N 0.06 3.5 -14.8 --- --- 719.0 0.020 0.000 8.6 5 1
02/14/06 4:16 p -10.9 -10.9 -10.9 --- --- 3.5 NNE 0.06 3.5 -14.8 --- --- 719.0 0.020 0.000 8.6 5 1
02/14/06 4:17 p -10.9 -10.9 -10.9 --- --- 3.5 NE 0.06 4.3 -14.8 --- --- 719.0 0.020 0.000 8.6 5 1
02/14/06 4:18 p -10.9 -10.9 -10.9 --- --- 3.5 NE 0.06 4.3 -14.8 --- --- 719.0 0.020 0.000 8.6 5 1
02/14/06 4:19 p -10.9 -10.9 -10.9 --- --- 3.5 NE 0.06 4.3 -14.8 --- --- 719.1 0.020 0.000 8.6 5 1
02/14/06 4:20 p -11.0 -10.9 -11.0 --- --- 4.3 NE 0.07 4.3 -15.7 --- --- 719.0 0.020 0.000 8.6 5 1
02/14/06 4:21 p -11.0 -11.0 -11.1 --- --- 4.3 NE 0.07 4.3 -15.7 --- --- 719.0 0.020 0.000 8.6 5 1
02/14/06 4:22 p -11.1 -11.1 -11.1 --- --- 4.3 NE 0.07 4.3 -15.7 --- --- 719.0 0.020 0.000 8.6 5 1
02/14/06 4:23 p -11.1 -11.1 -11.1 --- --- 3.5 NE 0.06 4.3 -15.0 --- --- 719.1 0.020 0.000 8.6 5 1
02/14/06 4:24 p -11.1 -11.1 -11.1 --- --- 3.5 NE 0.06 4.3 -15.0 --- --- 719.0 0.020 0.000 8.6 5 1
02/14/06 4:25 p -11.1 -11.1 -11.1 --- --- 3.5 NE 0.06 4.3 -15.0 --- --- 719.0 0.020 0.000 8.6 5 1
02/14/06 4:26 p -11.1 -11.1 -11.2 --- --- 3.5 NE 0.06 4.3 -15.0 --- --- 719.0 0.020 0.000 8.6 5 1
02/14/06 4:27 p -11.1 -11.1 -11.2 --- --- 3.5 NE 0.06 4.3 -15.0 --- --- 719.1 0.020 0.000 8.6 5 1
02/14/06 4:28 p -11.1 -11.1 -11.1 --- --- 3.5 NE 0.06 4.3 -15.0 --- --- 719.1 0.020 0.000 8.6 5 1
02/14/06 4:29 p -11.2 -11.1 -11.2 --- --- 3.5 NE 0.06 4.3 -15.1 --- --- 719.1 0.020 0.000 8.6 5 1
02/14/06 4:30 p -11.2 -11.2 -11.2 --- --- 3.5 NE 0.06 4.3 -15.1 --- --- 719.1 0.020 0.000 8.7 5 1
02/14/06 4:31 p -11.2 -11.2 -11.2 --- --- 3.5 NE 0.06 4.3 -15.1 --- --- 719.1 0.020 0.000 8.7 5 1
02/14/06 4:32 p -11.1 -11.1 -11.2 --- --- 3.5 ENE 0.06 4.3 -15.0 --- --- 719.0 0.020 0.000 8.7 5 1
02/14/06 4:33 p -11.1 -11.1 -11.1 --- --- 3.5 ENE 0.06 4.3 -15.0 --- --- 719.0 0.020 0.000 8.7 5 1
02/14/06 4:34 p -11.1 -11.1 -11.1 --- --- 4.3 ENE 0.07 5.2 -15.8 --- --- 719.0 0.020 0.000 8.7 5 1
02/14/06 4:35 p -11.2 -11.1 -11.2 --- --- 4.3 ENE 0.07 5.2 -15.8 --- --- 719.0 0.020 0.000 8.7 5 1
02/14/06 4:36 p -11.1 -11.1 -11.1 --- --- 4.3 ENE 0.07 5.2 -15.8 --- --- 719.0 0.020 0.000 8.8 5 1
02/14/06 4:37 p -11.1 -11.1 -11.1 --- --- 4.3 ENE 0.07 5.2 -15.8 --- --- 719.2 0.020 0.000 8.8 5 1
02/14/06 4:38 p -11.1 -11.1 -11.1 --- --- 3.5 ENE 0.06 4.3 -15.0 --- --- 719.0 0.020 0.000 8.8 5 1
02/14/06 4:39 p -11.1 -11.1 -11.1 --- --- 3.5 ENE 0.06 4.3 -15.0 --- --- 719.1 0.020 0.000 8.8 5 1
02/14/06 4:40 p -11.1 -11.1 -11.1 --- --- 3.5 ENE 0.06 4.3 -15.0 --- --- 719.1 0.020 0.000 8.8 5 1
02/14/06 4:41 p -11.1 -11.1 -11.1 --- --- 3.5 ENE 0.06 4.3 -15.0 --- --- 719.2 0.020 0.000 8.7 5 1
02/14/06 4:42 p -11.1 -11.1 -11.1 --- --- 3.5 ENE 0.06 4.3 -14.9 --- --- 719.2 0.020 0.000 8.7 5 1
02/14/06 4:43 p -11.1 -11.1 -11.1 --- --- 3.5 ENE 0.06 3.5 -14.9 --- --- 719.2 0.020 0.000 8.7 5 1
02/14/06 4:44 p -11.1 -11.1 -11.1 --- --- 3.5 ENE 0.06 3.5 -14.9 --- --- 719.1 0.020 0.000 8.7 5 1
02/14/06 4:45 p -11.1 -11.1 -11.1 --- --- 3.5 ENE 0.06 3.5 -14.9 --- --- 719.1 0.020 0.000 8.6 5 1
02/14/06 4:46 p -11.1 -11.1 -11.1 --- --- 3.5 ENE 0.06 3.5 -14.9 --- --- 719.1 0.020 0.000 8.6 5 1
02/14/06 4:47 p -11.0 -11.0 -11.1 --- --- 2.6 ENE 0.04 3.5 -13.9 --- --- 719.2 0.020 0.000 8.6 5 1
02/14/06 4:48 p -11.0 -11.0 -11.0 --- --- 3.5 ENE 0.06 4.3 -14.9 --- --- 719.1 0.020 0.000 8.6 5 1
02/14/06 4:49 p -11.0 -11.0 -11.0 --- --- 3.5 ENE 0.06 4.3 -14.9 --- --- 719.1 0.020 0.000 8.6 5 1
02/14/06 4:50 p -11.0 -11.0 -11.1 --- --- 3.5 ENE 0.06 4.3 -14.9 --- --- 719.1 0.020 0.000 8.6 5 1
02/14/06 4:51 p -11.0 -11.0 -11.1 --- --- 3.5 ENE 0.06 4.3 -14.9 --- --- 719.1 0.020 0.000 8.6 5 1
02/14/06 4:52 p -11.0 -10.9 -11.0 --- --- 3.5 ENE 0.06 4.3 -14.9 --- --- 719.2 0.020 0.000 8.6 5 1
02/14/06 4:53 p -10.9 -10.9 -10.9 --- --- 3.5 ENE 0.06 4.3 -14.8 --- --- 719.2 0.020 0.000 8.6 5 1
02/14/06 4:54 p -10.9 -10.9 -10.9 --- --- 3.5 ENE 0.06 4.3 -14.8 --- --- 719.1 0.020 0.000 8.6 5 1
02/14/06 4:55 p -10.9 -10.9 -10.9 --- --- 3.5 ENE 0.06 4.3 -14.8 --- --- 719.1 0.020 0.000 8.6 5 1
02/14/06 4:56 p -10.8 -10.8 -10.8 --- --- 3.5 ENE 0.06 4.3 -14.7 --- --- 719.2 0.020 0.000 8.6 5 1
02/14/06 4:57 p -10.8 -10.8 -10.8 --- --- 3.5 ENE 0.06 3.5 -14.6 --- --- 719.1 0.020 0.000 8.5 5 1
02/14/06 4:58 p -10.7 -10.7 -10.8 --- --- 3.5 ENE 0.06 3.5 -14.6 --- --- 719.2 0.020 0.000 8.5 5 1
02/14/06 4:59 p -10.7 -10.7 -10.7 --- --- 3.5 ENE 0.06 4.3 -14.6 --- --- 719.2 0.020 0.000 8.5 5 1
02/14/06 5:00 p -10.7 -10.7 -10.7 --- --- 3.5 ENE 0.06 3.5 -14.5 --- --- 719.1 0.020 0.000 8.5 5 1
02/14/06 5:01 p -10.7 -10.6 -10.7 --- --- 3.5 ENE 0.06 4.3 -14.5 --- --- 719.1 0.020 0.000 8.5 5 1
02/14/06 5:02 p -10.6 -10.6 -10.6 --- --- 3.5 ENE 0.06 4.3 -14.4 --- --- 719.3 0.020 0.000 8.5 5 1
02/14/06 5:03 p -10.6 -10.6 -10.6 --- --- 3.5 ENE 0.06 4.3 -14.4 --- --- 719.2 0.020 0.000 8.5 5 1
02/14/06 5:04 p -10.6 -10.6 -10.6 --- --- 3.5 ENE 0.06 4.3 -14.4 --- --- 719.2 0.020 0.000 8.5 5 1
02/14/06 5:05 p -10.6 -10.6 -10.6 --- --- 3.5 ENE 0.06 4.3 -14.4 --- --- 719.2 0.020 0.000 8.5 5 1
02/14/06 5:06 p -10.6 -10.6 -10.6 --- --- 3.5 ENE 0.06 4.3 -14.4 --- --- 719.2 0.020 0.000 8.5 5 1
02/14/06 5:07 p -10.6 -10.6 -10.6 --- --- 4.3 ENE 0.07 4.3 -15.1 --- --- 719.2 0.020 0.000 8.5 5 1
02/14/06 5:08 p -10.6 -10.6 -10.6 --- --- 4.3 ENE 0.07 4.3 -15.2 --- --- 719.3 0.020 0.000 8.5 5 1
02/14/06 5:09 p -10.6 -10.6 -10.6 --- --- 4.3 ENE 0.07 5.2 -15.2 --- --- 719.2 0.020 0.000 8.5 5 1
02/14/06 5:10 p -10.6 -10.6 -10.6 --- --- 4.3 ENE 0.07 4.3 -15.2 --- --- 719.3 0.020 0.000 8.5 5 1
02/14/06 5:11 p -10.6 -10.6 -10.6 --- --- 4.3 ENE 0.07 5.2 -15.2 --- --- 719.2 0.020 0.000 8.4 5 1
02/14/06 5:12 p -10.6 -10.6 -10.6 --- --- 4.3 ENE 0.07 4.3 -15.2 --- --- 719.3 0.020 0.000 8.4 5 1
02/14/06 5:13 p -10.6 -10.6 -10.6 --- --- 3.5 ENE 0.06 4.3 -14.4 --- --- 719.2 0.020 0.000 8.4 5 1
02/14/06 5:14 p -10.6 -10.6 -10.6 --- --- 4.3 ENE 0.07 5.2 -15.1 --- --- 719.3 0.020 0.000 8.4 5 1
02/14/06 5:15 p -10.6 -10.6 -10.6 --- --- 4.3 ENE 0.07 5.2 -15.1 --- --- 719.2 0.020 0.000 8.4 5 1
02/14/06 5:16 p -10.6 -10.6 -10.6 --- --- 4.3 ENE 0.07 5.2 -15.1 --- --- 719.3 0.020 0.000 8.4 5 1
02/14/06 5:17 p -10.5 -10.5 -10.6 --- --- 5.2 ENE 0.09 5.2 -15.7 --- --- 719.3 0.020 0.000 8.4 5 1
02/14/06 5:18 p -10.6 -10.5 -10.6 --- --- 4.3 ENE 0.07 5.2 -15.1 --- --- 719.2 0.020 0.000 8.4 5 1
02/14/06 5:19 p -10.5 -10.5 -10.5 --- --- 4.3 ENE 0.07 5.2 -15.1 --- --- 719.2 0.020 0.000 8.4 5 1
02/14/06 5:20 p -10.5 -10.5 -10.5 --- --- 4.3 ENE 0.07 5.2 -15.1 --- --- 719.3 0.020 0.000 8.4 5 1
02/14/06 5:21 p -10.5 -10.5 -10.5 --- --- 4.3 ENE 0.07 5.2 -15.1 --- --- 719.3 0.020 0.000 8.4 5 1
02/14/06 5:22 p -10.5 -10.5 -10.6 --- --- 5.2 ENE 0.09 6.1 -15.7 --- --- 719.3 0.020 0.000 8.4 5 1
02/14/06 5:23 p -10.5 -10.5 -10.6 --- --- 5.2 ENE 0.09 5.2 -15.7 --- --- 719.2 0.020 0.000 8.4 5 1
02/14/06 5:24 p -10.5 -10.5 -10.6 --- --- 4.3 ENE 0.07 5.2 -15.1 --- --- 719.3 0.020 0.000 8.4 5 1
02/14/06 5:25 p -10.6 -10.6 -10.6 --- --- 4.3 ENE 0.07 5.2 -15.1 --- --- 719.2 0.020 0.000 8.4 5 1
02/14/06 5:26 p -10.6 -10.6 -10.6 --- --- 4.3 ENE 0.07 5.2 -15.1 --- --- 719.4 0.020 0.000 8.4 5 1
02/14/06 5:27 p -10.6 -10.6 -10.6 --- --- 4.3 ENE 0.07 5.2 -15.1 --- --- 719.3 0.020 0.000 8.4 5 1
02/14/06 5:28 p -10.6 -10.6 -10.6 --- --- 5.2 ENE 0.09 6.1 -15.8 --- --- 719.3 0.020 0.000 8.4 5 1
02/14/06 5:29 p -10.6 -10.6 -10.6 --- --- 5.2 ENE 0.09 6.1 -15.8 --- --- 719.3 0.020 0.000 8.4 5 1
02/14/06 5:30 p -10.6 -10.6 -10.6 --- --- 5.2 ENE 0.09 5.2 -15.8 --- --- 719.3 0.020 0.000 8.3 5 1
02/14/06 5:31 p -10.6 -10.6 -10.6 --- --- 5.2 ENE 0.09 5.2 -15.8 --- --- 719.4 0.020 0.000 8.3 5 1
02/14/06 5:32 p -10.6 -10.6 -10.6 --- --- 5.2 ENE 0.09 6.1 -15.8 --- --- 719.3 0.020 0.000 8.3 5 1
02/14/06 5:33 p -10.5 -10.5 -10.6 --- --- 5.2 ENE 0.09 5.2 -15.7 --- --- 719.3 0.020 0.000 8.3 5 1
02/14/06 5:34 p -10.5 -10.5 -10.5 --- --- 5.2 ENE 0.09 6.1 -15.7 --- --- 719.3 0.020 0.000 8.3 5 1
02/14/06 5:35 p -10.5 -10.4 -10.5 --- --- 5.2 ENE 0.09 6.1 -15.7 --- --- 719.3 0.020 0.000 8.3 5 1
02/14/06 5:36 p -10.4 -10.4 -10.4 --- --- 6.1 ENE 0.10 6.1 -16.2 --- --- 719.4 0.020 0.000 8.3 5 1
02/14/06 5:37 p -10.4 -10.4 -10.4 --- --- 6.1 ENE 0.10 6.1 -16.2 --- --- 719.3 0.020 0.000 8.3 5 1
02/14/06 5:38 p -10.4 -10.4 -10.4 --- --- 6.1 ENE 0.10 7.0 -16.2 --- --- 719.3 0.020 0.000 8.3 5 1
02/14/06 5:39 p -10.4 -10.4 -10.4 --- --- 6.1 ENE 0.10 7.0 -16.2 --- --- 719.3 0.020 0.000 8.4 5 1
02/14/06 5:40 p -10.4 -10.4 -10.4 --- --- 6.1 ENE 0.10 7.0 -16.2 --- --- 719.4 0.020 0.000 8.4 5 1
02/14/06 5:41 p -10.4 -10.4 -10.4 --- --- 6.1 ENE 0.10 7.0 -16.1 --- --- 719.3 0.020 0.000 8.4 5 1
02/14/06 5:42 p -10.4 -10.4 -10.5 --- --- 6.1 ENE 0.10 7.0 -16.2 --- --- 719.3 0.020 0.000 8.4 5 1
02/14/06 5:43 p -10.5 -10.5 -10.5 --- --- 6.1 ENE 0.10 7.8 -16.3 --- --- 719.3 0.020 0.000 8.4 5 1
02/14/06 5:44 p -10.5 -10.5 -10.5 --- --- 5.2 ENE 0.09 6.1 -15.7 --- --- 719.4 0.020 0.000 8.5 5 1
02/14/06 5:45 p -10.5 -10.5 -10.5 --- --- 6.1 ENE 0.10 7.0 -16.3 --- --- 719.4 0.020 0.000 8.5 5 1
02/14/06 5:46 p -10.4 -10.4 -10.5 --- --- 5.2 ENE 0.09 6.1 -15.7 --- --- 719.4 0.020 0.000 8.6 5 1
02/14/06 5:47 p -10.4 -10.4 -10.5 --- --- 5.2 ENE 0.09 6.1 -15.7 --- --- 719.5 0.020 0.000 8.6 5 1
02/14/06 5:48 p -10.4 -10.4 -10.4 --- --- 5.2 ENE 0.09 7.0 -15.6 --- --- 719.4 0.020 0.000 8.6 5 1
02/14/06 5:49 p -10.4 -10.4 -10.4 --- --- 5.2 ENE 0.09 6.1 -15.6 --- --- 719.4 0.020 0.000 8.6 5 1
02/14/06 5:50 p -10.4 -10.4 -10.4 --- --- 3.5 ENE 0.06 6.1 -14.2 --- --- 719.4 0.020 0.000 8.6 5 1
02/14/06 5:51 p -10.4 -10.4 -10.4 --- --- 5.2 E 0.09 7.0 -15.7 --- --- 719.4 0.020 0.000 8.6 5 1
02/14/06 5:52 p -10.4 -10.4 -10.5 --- --- 5.2 E 0.09 6.1 -15.7 --- --- 719.4 0.020 0.000 8.6 5 1
02/14/06 5:53 p -10.5 -10.5 -10.5 --- --- 4.3 E 0.07 6.1 -15.1 --- --- 719.4 0.020 0.000 8.6 5 1
02/14/06 5:54 p -10.5 -10.5 -10.5 --- --- 4.3 E 0.07 7.0 -15.1 --- --- 719.4 0.020 0.000 8.6 5 1
02/14/06 5:55 p -10.4 -10.4 -10.5 --- --- 5.2 E 0.09 7.0 -15.7 --- --- 719.4 0.020 0.000 8.6 5 1
02/14/06 5:56 p -10.4 -10.4 -10.4 --- --- 6.1 E 0.10 7.8 -16.1 --- --- 719.4 0.020 0.000 8.6 5 1
02/14/06 5:57 p -10.4 -10.4 -10.4 --- --- 5.2 E 0.09 7.0 -15.7 --- --- 719.5 0.020 0.000 8.5 5 1
02/14/06 5:58 p -10.4 -10.4 -10.4 --- --- 5.2 ENE 0.09 5.2 -15.7 --- --- 719.5 0.020 0.000 8.5 5 1
02/14/06 5:59 p -10.4 -10.4 -10.4 --- --- 5.2 ENE 0.09 6.1 -15.7 --- --- 719.5 0.020 0.000 8.4 5 1
02/14/06 6:00 p -10.4 -10.4 -10.4 --- --- 5.2 ENE 0.09 7.0 -15.7 --- --- 719.5 0.020 0.000 8.4 5 1
02/14/06 6:01 p -10.4 -10.3 -10.4 --- --- 4.3 ENE 0.07 6.1 -14.9 --- --- 719.5 0.020 0.000 8.4 5 1
02/14/06 6:02 p -10.3 -10.3 -10.3 --- --- 5.2 ENE 0.09 7.0 -15.5 --- --- 719.5 0.020 0.000 8.4 5 1
02/14/06 6:03 p -10.3 -10.3 -10.3 --- --- 5.2 E 0.09 6.1 -15.5 --- --- 719.5 0.020 0.000 8.4 5 1
02/14/06 6:04 p -10.3 -10.3 -10.3 --- --- 6.1 E 0.10 7.0 -16.1 --- --- 719.5 0.020 0.000 8.4 5 1
02/14/06 6:05 p -10.3 -10.3 -10.3 --- --- 6.1 E 0.10 7.8 -16.1 --- --- 719.5 0.020 0.000 8.4 5 1
02/14/06 6:06 p -10.3 -10.3 -10.3 --- --- 6.1 ENE 0.10 7.8 -16.1 --- --- 719.5 0.020 0.000 8.3 5 1
02/14/06 6:07 p -10.3 -10.3 -10.3 --- --- 6.1 ENE 0.10 7.0 -16.1 --- --- 719.5 0.020 0.000 8.3 5 1
02/14/06 6:08 p -10.3 -10.3 -10.3 --- --- 5.2 ENE 0.09 7.0 -15.5 --- --- 719.5 0.020 0.000 8.3 5 1
02/14/06 6:09 p -10.3 -10.3 -10.3 --- --- 6.1 ENE 0.10 7.0 -16.1 --- --- 719.5 0.020 0.000 8.3 5 1
02/14/06 6:10 p -10.4 -10.3 -10.4 --- --- 6.1 ENE 0.10 7.0 -16.1 --- --- 719.5 0.020 0.000 8.3 5 1
02/14/06 6:11 p -10.4 -10.4 -10.4 --- --- 6.1 ENE 0.10 7.8 -16.1 --- --- 719.5 0.020 0.000 8.3 5 1
02/14/06 6:12 p -10.4 -10.4 -10.4 --- --- 6.1 ENE 0.10 7.0 -16.1 --- --- 719.5 0.020 0.000 8.3 5 1
02/14/06 6:13 p -10.4 -10.4 -10.4 --- --- 6.1 ENE 0.10 7.0 -16.1 --- --- 719.5 0.020 0.000 8.3 5 1
02/14/06 6:14 p -10.4 -10.4 -10.4 --- --- 7.0 ENE 0.12 7.8 -16.6 --- --- 719.5 0.020 0.000 8.3 5 1
02/14/06 6:15 p -10.3 -10.3 -10.4 --- --- 6.1 ENE 0.10 7.8 -16.1 --- --- 719.6 0.020 0.000 8.3 5 1
02/14/06 6:16 p -10.3 -10.3 -10.3 --- --- 6.1 ENE 0.10 7.8 -16.1 --- --- 719.6 0.020 0.000 8.3 5 1
02/14/06 6:17 p -10.3 -10.2 -10.3 --- --- 6.1 ENE 0.10 7.8 -16.0 --- --- 719.6 0.020 0.000 8.3 5 1
02/14/06 6:18 p -10.2 -10.2 -10.2 --- --- 5.2 ENE 0.09 6.1 -15.3 --- --- 719.5 0.020 0.000 8.3 5 1
02/14/06 6:19 p -10.2 -10.1 -10.2 --- --- 4.3 E 0.07 7.0 -14.7 --- --- 719.5 0.020 0.000 8.3 5 1
02/14/06 6:20 p -10.1 -10.1 -10.1 --- --- 4.3 E 0.07 6.1 -14.6 --- --- 719.5 0.020 0.000 8.3 5 1
02/14/06 6:21 p -10.1 -10.1 -10.1 --- --- 5.2 E 0.09 7.0 -15.2 --- --- 719.5 0.020 0.000 8.3 5 1
02/14/06 6:22 p -10.1 -10.1 -10.1 --- --- 5.2 E 0.09 7.0 -15.2 --- --- 719.5 0.020 0.000 8.3 5 1
02/14/06 6:23 p -10.1 -10.1 -10.2 --- --- 6.1 E 0.10 7.0 -15.8 --- --- 719.5 0.020 0.000 8.3 5 1
02/14/06 6:24 p -10.1 -10.1 -10.2 --- --- 6.1 E 0.10 7.8 -15.8 --- --- 719.5 0.020 0.000 8.4 5 1
02/14/06 6:25 p -10.1 -10.1 -10.1 --- --- 5.2 E 0.09 6.1 -15.2 --- --- 719.5 0.020 0.000 8.4 5 1
02/14/06 6:26 p -10.1 -10.1 -10.1 --- --- 6.1 E 0.10 7.0 -15.8 --- --- 719.5 0.020 0.000 8.4 5 1
02/14/06 6:27 p -10.1 -10.1 -10.2 --- --- 7.0 ENE 0.12 7.8 -16.3 --- --- 719.5 0.020 0.000 8.4 5 1
02/14/06 6:28 p -10.2 -10.2 -10.2 --- --- 6.1 NE 0.10 7.8 -15.9 --- --- 719.5 0.020 0.000 8.4 5 1
02/14/06 6:29 p -10.2 -10.2 -10.2 --- --- 7.0 NE 0.12 7.8 -16.3 --- --- 719.5 0.020 0.000 8.5 5 1
02/14/06 6:30 p -10.2 -10.2 -10.2 --- --- 7.8 NE 0.13 7.8 -16.9 --- --- 719.5 0.020 0.000 8.5 5 1
02/14/06 6:31 p -10.2 -10.2 -10.2 --- --- 7.8 ENE 0.13 8.7 -16.9 --- --- 719.5 0.020 0.000 8.6 5 1
02/14/06 6:32 p -10.2 -10.2 -10.2 --- --- 7.8 ENE 0.13 8.7 -16.8 --- --- 719.6 0.020 0.000 8.6 5 1
02/14/06 6:33 p -10.2 -10.2 -10.2 --- --- 8.7 NE 0.14 9.6 -17.3 --- --- 719.5 0.020 0.000 8.6 5 1
02/14/06 6:34 p -10.2 -10.2 -10.2 --- --- 8.7 ENE 0.14 9.6 -17.2 --- --- 719.6 0.020 0.000 8.6 5 1
02/14/06 6:35 p -10.1 -10.1 -10.2 --- --- 7.8 ENE 0.13 8.7 -16.7 --- --- 719.6 0.020 0.000 8.6 5 1
02/14/06 6:36 p -10.0 -10.0 -10.1 --- --- 7.8 ENE 0.13 7.8 -16.6 --- --- 719.5 0.020 0.000 8.7 5 1
02/14/06 6:37 p -10.0 -10.0 -10.0 --- --- 7.0 ENE 0.12 8.7 -16.2 --- --- 719.6 0.020 0.000 8.7 5 1
02/14/06 6:38 p -9.9 -9.9 -9.9 --- --- 7.0 ENE 0.12 7.8 -16.1 --- --- 719.6 0.020 0.000 8.7 5 1
02/14/06 6:39 p -9.9 -9.9 -10.1 --- --- 7.8 NE 0.13 8.7 -16.5 --- --- 719.6 0.020 0.000 8.7 5 1
02/14/06 6:40 p -10.1 -10.1 -10.1 --- --- 8.7 NE 0.14 9.6 -17.1 --- --- 719.6 0.020 0.000 8.7 5 1
02/14/06 6:41 p -10.1 -10.1 -10.2 --- --- 8.7 NE 0.14 9.6 -17.1 --- --- 719.6 0.020 0.000 8.7 5 1
02/14/06 6:42 p -10.2 -10.2 -10.2 --- --- 8.7 NE 0.14 9.6 -17.3 --- --- 719.6 0.020 0.000 8.7 5 1
02/14/06 6:43 p -10.3 -10.2 -10.3 --- --- 8.7 ENE 0.14 9.6 -17.3 --- --- 719.6 0.020 0.000 8.8 5 1
02/14/06 6:44 p -10.3 -10.3 -10.3 --- --- 8.7 NE 0.14 9.6 -17.4 --- --- 719.6 0.020 0.000 8.8 5 1
02/14/06 6:45 p -10.3 -10.3 -10.3 --- --- 9.6 NE 0.16 9.6 -17.8 --- --- 719.7 0.020 0.000 8.8 5 1
02/14/06 6:46 p -10.4 -10.3 -10.4 --- --- 9.6 NE 0.16 10.4 -17.8 --- --- 719.6 0.020 0.000 8.8 5 1
02/14/06 6:47 p -10.4 -10.4 -10.5 --- --- 7.8 NE 0.13 8.7 -17.1 --- --- 719.6 0.020 0.000 8.8 5 1
02/14/06 6:48 p -10.5 -10.5 -10.6 --- --- 7.8 NE 0.13 9.6 -17.2 --- --- 719.7 0.020 0.000 8.8 5 1
02/14/06 6:49 p -10.6 -10.6 -10.6 --- --- 9.6 ENE 0.16 10.4 -18.0 --- --- 719.6 0.020 0.000 8.8 5 1
02/14/06 6:50 p -10.6 -10.6 -10.7 --- --- 8.7 ENE 0.14 9.6 -17.7 --- --- 719.6 0.020 0.000 8.8 5 1
02/14/06 6:51 p -10.7 -10.7 -10.7 --- --- 7.8 ENE 0.13 9.6 -17.4 --- --- 719.7 0.020 0.000 8.9 5 1
02/14/06 6:52 p -10.7 -10.7 -10.7 --- --- 7.8 ENE 0.13 7.8 -17.5 --- --- 719.7 0.020 0.000 8.9 5 1
02/14/06 6:53 p -10.8 -10.7 -10.8 --- --- 8.7 ENE 0.14 9.6 -17.9 --- --- 719.6 0.020 0.000 8.9 5 1
02/14/06 6:54 p -10.9 -10.8 -10.9 --- --- 9.6 ENE 0.16 10.4 -18.4 --- --- 719.7 0.020 0.000 8.9 5 1
02/14/06 6:55 p -10.9 -10.9 -10.9 --- --- 9.6 ENE 0.16 10.4 -18.4 --- --- 719.7 0.020 0.000 8.9 5 1
02/14/06 6:56 p -10.9 -10.9 -10.9 --- --- 7.0 ENE 0.12 9.6 -17.2 --- --- 719.7 0.020 0.000 8.9 5 1
02/14/06 6:57 p -10.9 -10.8 -10.9 --- --- 10.4 ENE 0.17 11.3 -18.8 --- --- 719.7 0.020 0.000 8.9 5 1
02/14/06 6:58 p -10.9 -10.9 -10.9 --- --- 11.3 ENE 0.19 12.2 -19.2 --- --- 719.7 0.020 0.000 8.9 5 1
02/14/06 6:59 p -10.9 -10.9 -10.9 --- --- 10.4 ENE 0.17 12.2 -18.8 --- --- 719.7 0.020 0.000 8.9 5 1
02/14/06 7:00 p -10.9 -10.9 -10.9 --- --- 10.4 ENE 0.17 11.3 -18.8 --- --- 719.7 0.020 0.000 8.9 5 1
02/14/06 7:01 p -10.9 -10.9 -10.9 --- --- 11.3 ENE 0.19 11.3 -19.1 --- --- 719.7 0.020 0.000 9.0 5 1
02/14/06 7:02 p -11.0 -10.9 -11.1 --- --- 11.3 ENE 0.19 12.2 -19.2 --- --- 719.7 0.020 0.000 9.0 5 1
02/14/06 7:03 p -11.2 -11.1 -11.2 --- --- 9.6 ENE 0.16 11.3 -18.8 --- --- 719.7 0.020 0.000 9.0 5 1
02/14/06 7:04 p -11.3 -11.3 -11.4 --- --- 9.6 ENE 0.16 10.4 -18.9 --- --- 719.7 0.021 0.000 9.0 5 1
02/14/06 7:05 p -11.5 -11.5 -11.6 --- --- 9.6 NE 0.16 10.4 -19.2 --- --- 719.8 0.021 0.000 9.0 5 1
02/14/06 7:06 p -11.7 -11.6 -11.7 --- --- 10.4 NE 0.17 11.3 -19.7 --- --- 719.7 0.021 0.000 9.0 5 1
02/14/06 7:07 p -11.8 -11.8 -11.8 --- --- 10.4 NE 0.17 11.3 -19.9 --- --- 719.8 0.021 0.000 9.1 5 1
02/14/06 7:08 p -11.9 -11.9 -12.1 --- --- 8.7 NE 0.14 10.4 -19.3 --- --- 719.7 0.021 0.000 9.1 5 1
02/14/06 7:09 p -12.1 -12.1 -12.2 --- --- 10.4 NE 0.17 12.2 -20.2 --- --- 719.8 0.021 0.000 9.1 5 1
02/14/06 7:10 p -12.2 -12.2 -12.2 --- --- 10.4 NE 0.17 11.3 -20.4 --- --- 719.8 0.021 0.000 9.1 5 1
02/14/06 7:11 p -12.1 -12.1 -12.2 --- --- 10.4 ENE 0.17 11.3 -20.3 --- --- 719.8 0.021 0.000 9.1 5 1
02/14/06 7:12 p -12.2 -12.1 -12.2 --- --- 11.3 ENE 0.19 13.0 -20.7 --- --- 719.7 0.021 0.000 9.1 5 1
02/14/06 7:13 p -12.1 -11.9 -12.1 --- --- 12.2 ENE 0.20 13.0 -20.9 --- --- 719.8 0.021 0.000 9.1 5 1
02/14/06 7:14 p -11.9 -11.9 -11.9 --- --- 12.2 ENE 0.20 13.0 -20.7 --- --- 719.8 0.021 0.000 9.1 5 1
02/14/06 7:15 p -11.9 -11.9 -11.9 --- --- 11.3 ENE 0.19 13.0 -20.3 --- --- 719.8 0.021 0.000 9.1 5 1
02/14/06 7:16 p -11.9 -11.9 -11.9 --- --- 11.3 ENE 0.19 13.0 -20.4 --- --- 719.8 0.021 0.000 9.1 5 1
02/14/06 7:17 p -11.9 -11.8 -11.9 --- --- 13.0 ENE 0.22 13.0 -20.9 --- --- 719.8 0.021 0.000 9.1 5 1
02/14/06 7:18 p -11.8 -11.7 -11.8 --- --- 12.2 ENE 0.20 13.0 -20.5 --- --- 719.8 0.021 0.000 9.1 5 1
02/14/06 7:19 p -11.7 -11.7 -11.7 --- --- 13.0 ENE 0.22 13.9 -20.7 --- --- 719.7 0.021 0.000 9.1 5 1
02/14/06 7:20 p -11.7 -11.7 -11.7 --- --- 13.0 ENE 0.22 13.9 -20.7 --- --- 719.7 0.021 0.000 9.1 5 1
02/14/06 7:21 p -11.7 -11.7 -11.7 --- --- 12.2 ENE 0.20 13.9 -20.4 --- --- 719.8 0.021 0.000 9.1 5 1
02/14/06 7:22 p -11.7 -11.7 -11.7 --- --- 11.3 ENE 0.19 13.0 -20.1 --- --- 719.8 0.021 0.000 9.1 5 1
02/14/06 7:23 p -11.7 -11.7 -11.8 --- --- 11.3 ENE 0.19 13.0 -20.2 --- --- 719.8 0.021 0.000 9.2 5 1
02/14/06 7:24 p -11.8 -11.8 -11.9 --- --- 12.2 ENE 0.20 13.9 -20.6 --- --- 719.8 0.021 0.000 9.2 5 1
02/14/06 7:25 p -11.9 -11.9 -12.0 --- --- 13.0 ENE 0.22 13.9 -21.0 --- --- 719.8 0.021 0.000 9.2 5 1
02/14/06 7:26 p -12.0 -12.0 -12.1 --- --- 13.9 ENE 0.23 14.8 -21.4 --- --- 719.8 0.021 0.000 9.2 5 1
02/14/06 7:27 p -12.0 -11.9 -12.0 --- --- 13.9 ENE 0.23 15.7 -21.4 --- --- 719.8 0.021 0.000 9.2 5 1
02/14/06 7:28 p -11.9 -11.9 -12.0 --- --- 13.0 ENE 0.22 14.8 -21.0 --- --- 719.8 0.021 0.000 9.2 5 1
02/14/06 7:29 p -12.2 -12.0 -12.3 --- --- 13.0 ENE 0.22 14.8 -21.3 --- --- 719.8 0.021 0.000 9.2 5 1
02/14/06 7:30 p -12.4 -12.3 -12.4 --- --- 13.9 ENE 0.23 14.8 -21.9 --- --- 719.8 0.021 0.000 9.2 5 1
02/14/06 7:31 p -12.4 -12.4 -12.4 --- --- 13.0 ENE 0.22 14.8 -21.6 --- --- 719.9 0.021 0.000 9.2 5 1
02/14/06 7:32 p -12.4 -12.4 -12.4 --- --- 13.9 ENE 0.23 14.8 -21.9 --- --- 719.8 0.021 0.000 9.2 5 1
02/14/06 7:33 p -12.4 -12.3 -12.4 --- --- 13.0 ENE 0.22 14.8 -21.6 --- --- 719.9 0.021 0.000 9.2 5 1
02/14/06 7:34 p -12.3 -12.3 -12.3 --- --- 13.0 ENE 0.22 13.9 -21.5 --- --- 719.9 0.021 0.000 9.2 5 1
02/14/06 7:35 p -12.3 -12.3 -12.4 --- --- 13.0 ENE 0.22 14.8 -21.5 --- --- 719.9 0.021 0.000 9.2 5 1
02/14/06 7:36 p -12.4 -12.4 -12.5 --- --- 13.9 ENE 0.23 14.8 -21.9 --- --- 719.9 0.021 0.000 9.3 5 1
02/14/06 7:37 p -12.5 -12.5 -12.5 --- --- 13.9 ENE 0.23 15.7 -22.0 --- --- 719.8 0.021 0.000 9.3 5 1
02/14/06 7:38 p -12.4 -12.3 -12.5 --- --- 14.8 ENE 0.25 15.7 -22.2 --- --- 719.8 0.021 0.000 9.3 5 1
02/14/06 7:39 p -12.3 -12.2 -12.3 --- --- 14.8 ENE 0.25 14.8 -22.0 --- --- 719.9 0.021 0.000 9.3 5 1
02/14/06 7:40 p -12.2 -12.1 -12.2 --- --- 13.9 ENE 0.23 15.7 -21.6 --- --- 719.8 0.021 0.000 9.3 5 1
02/14/06 7:41 p -12.1 -12.1 -12.1 --- --- 13.9 ENE 0.23 14.8 -21.5 --- --- 719.8 0.021 0.000 9.3 5 1
02/14/06 7:42 p -12.1 -12.1 -12.2 --- --- 13.0 ENE 0.22 14.8 -21.2 --- --- 719.9 0.021 0.000 9.3 5 1
02/14/06 7:43 p -12.2 -12.2 -12.3 --- --- 12.2 ENE 0.20 13.9 -21.1 --- --- 719.9 0.021 0.000 9.3 5 1
02/14/06 7:44 p -12.4 -12.3 -12.4 --- --- 14.8 ENE 0.25 15.7 -22.2 --- --- 719.9 0.021 0.000 9.3 5 1
02/14/06 7:45 p -12.4 -12.4 -12.4 --- --- 15.7 ENE 0.26 16.5 -22.4 --- --- 719.9 0.021 0.000 9.3 5 1
02/14/06 7:46 p -12.3 -12.3 -12.3 --- --- 14.8 ENE 0.25 16.5 -22.1 --- --- 719.9 0.021 0.000 9.3 5 1
02/14/06 7:47 p -12.3 -12.3 -12.3 --- --- 13.9 ENE 0.23 14.8 -21.8 --- --- 719.9 0.021 0.000 9.3 5 1
02/14/06 7:48 p -12.4 -12.3 -12.4 --- --- 15.7 ENE 0.26 17.4 -22.4 --- --- 719.9 0.021 0.000 9.3 5 1
02/14/06 7:49 p -12.3 -12.3 -12.4 --- --- 15.7 ENE 0.26 16.5 -22.3 --- --- 719.9 0.021 0.000 9.3 5 1
02/14/06 7:50 p -12.2 -12.2 -12.3 --- --- 15.7 ENE 0.26 16.5 -22.2 --- --- 719.8 0.021 0.000 9.3 5 1
02/14/06 7:51 p -12.2 -12.2 -12.2 --- --- 15.7 ENE 0.26 17.4 -22.1 --- --- 719.9 0.021 0.000 9.3 5 1
02/14/06 7:52 p -12.1 -12.0 -12.1 --- --- 15.7 ENE 0.26 16.5 -21.9 --- --- 719.8 0.021 0.000 9.3 5 1
02/14/06 7:53 p -12.1 -12.1 -12.1 --- --- 15.7 ENE 0.26 16.5 -21.9 --- --- 719.9 0.021 0.000 9.3 5 1
02/14/06 7:54 p -12.1 -12.1 -12.1 --- --- 15.7 ENE 0.26 16.5 -21.9 --- --- 719.9 0.021 0.000 9.3 5 1
02/14/06 7:55 p -12.1 -12.1 -12.1 --- --- 13.9 ENE 0.23 15.7 -21.4 --- --- 719.9 0.021 0.000 9.4 5 1
02/14/06 7:56 p -12.0 -12.0 -12.1 --- --- 13.9 ENE 0.23 15.7 -21.4 --- --- 720.0 0.021 0.000 9.4 5 1
02/14/06 7:57 p -12.1 -12.0 -12.1 --- --- 13.9 ENE 0.23 15.7 -21.4 --- --- 719.9 0.021 0.000 9.4 5 1
02/14/06 7:58 p -12.2 -12.1 -12.2 --- --- 16.5 ENE 0.28 18.3 -22.3 --- --- 719.9 0.021 0.000 9.4 5 1
02/14/06 7:59 p -12.1 -12.1 -12.1 --- --- 16.5 ENE 0.28 17.4 -22.3 --- --- 719.9 0.021 0.000 9.4 5 1
02/14/06 8:00 p -12.1 -12.1 -12.1 --- --- 15.7 ENE 0.26 17.4 -21.9 --- --- 719.9 0.021 0.000 9.4 5 1
02/14/06 8:01 p -12.1 -12.0 -12.1 --- --- 17.4 ENE 0.29 19.1 -22.4 --- --- 720.0 0.021 0.000 9.4 5 1
02/14/06 8:02 p -11.9 -11.9 -11.9 --- --- 16.5 ENE 0.28 17.4 -22.1 --- --- 720.0 0.021 0.000 9.4 5 1
02/14/06 8:03 p -11.9 -11.9 -11.9 --- --- 15.7 ENE 0.26 18.3 -21.8 --- --- 720.0 0.021 0.000 9.4 5 1
02/14/06 8:04 p -12.0 -11.9 -12.0 --- --- 14.8 ENE 0.25 15.7 -21.7 --- --- 720.1 0.021 0.000 9.4 5 1
02/14/06 8:05 p -12.0 -12.0 -12.1 --- --- 15.7 ENE 0.26 19.1 -21.9 --- --- 719.9 0.021 0.000 9.4 5 1
02/14/06 8:06 p -12.1 -12.0 -12.1 --- --- 17.4 ENE 0.29 19.1 -22.4 --- --- 720.0 0.021 0.000 9.4 5 1
02/14/06 8:07 p -11.9 -11.9 -11.9 --- --- 14.8 ENE 0.25 17.4 -21.6 --- --- 720.0 0.021 0.000 9.4 5 1
02/14/06 8:08 p -11.9 -11.9 -11.9 --- --- 14.8 ENE 0.25 16.5 -21.5 --- --- 720.0 0.021 0.000 9.4 5 1
02/14/06 8:09 p -11.9 -11.9 -11.9 --- --- 15.7 ENE 0.26 18.3 -21.7 --- --- 720.1 0.021 0.000 9.4 5 1
02/14/06 8:10 p -11.9 -11.9 -11.9 --- --- 17.4 ENE 0.29 18.3 -22.3 --- --- 720.0 0.021 0.000 9.4 5 1
02/14/06 8:11 p -11.9 -11.9 -12.0 --- --- 14.8 ENE 0.25 17.4 -21.6 --- --- 720.0 0.021 0.000 9.4 5 1
02/14/06 8:12 p -12.0 -12.0 -12.1 --- --- 14.8 ENE 0.25 18.3 -21.7 --- --- 720.0 0.021 0.000 9.4 5 1
02/14/06 8:13 p -12.1 -12.0 -12.1 --- --- 16.5 ENE 0.28 19.1 -22.2 --- --- 720.1 0.021 0.000 9.4 5 1
02/14/06 8:14 p -12.0 -12.0 -12.0 --- --- 14.8 ENE 0.25 15.7 -21.7 --- --- 720.1 0.021 0.000 9.4 5 1
02/14/06 8:15 p -12.0 -12.0 -12.0 --- --- 15.7 ENE 0.26 17.4 -21.9 --- --- 720.1 0.021 0.000 9.4 5 1
02/14/06 8:16 p -12.1 -12.0 -12.1 --- --- 16.5 ENE 0.28 17.4 -22.2 --- --- 720.0 0.021 0.000 9.4 5 1
02/14/06 8:17 p -12.1 -12.0 -12.1 --- --- 15.7 ENE 0.26 19.1 -21.9 --- --- 720.1 0.021 0.000 9.4 5 1
02/14/06 8:18 p -12.0 -12.0 -12.1 --- --- 17.4 ENE 0.29 18.3 -22.4 --- --- 720.1 0.021 0.000 9.4 5 1
02/14/06 8:19 p -12.0 -12.0 -12.1 --- --- 16.5 ENE 0.28 18.3 -22.1 --- --- 720.1 0.021 0.000 9.4 5 1
02/14/06 8:20 p -12.0 -12.0 -12.0 --- --- 14.8 ENE 0.25 16.5 -21.7 --- --- 720.2 0.021 0.000 9.5 5 1
02/14/06 8:21 p -12.1 -12.0 -12.1 --- --- 15.7 ENE 0.26 16.5 -21.9 --- --- 720.1 0.021 0.000 9.5 5 1
02/14/06 8:22 p -12.1 -12.1 -12.1 --- --- 15.7 ENE 0.26 17.4 -22.1 --- --- 720.1 0.021 0.000 9.5 5 1
02/14/06 8:23 p -12.1 -12.1 -12.1 --- --- 16.5 ENE 0.28 18.3 -22.3 --- --- 720.1 0.021 0.000 9.5 5 1
02/14/06 8:24 p -12.1 -12.1 -12.1 --- --- 16.5 ENE 0.28 18.3 -22.2 --- --- 720.1 0.021 0.000 9.5 5 1
02/14/06 8:25 p -12.0 -12.0 -12.1 --- --- 16.5 ENE 0.28 18.3 -22.1 --- --- 720.2 0.021 0.000 9.5 5 1
02/14/06 8:26 p -11.9 -11.9 -11.9 --- --- 16.5 ENE 0.28 17.4 -22.1 --- --- 720.2 0.021 0.000 9.5 5 1
02/14/06 8:27 p -12.0 -11.9 -12.0 --- --- 16.5 ENE 0.28 18.3 -22.1 --- --- 720.2 0.021 0.000 9.5 5 1
02/14/06 8:28 p -11.8 -11.8 -11.9 --- --- 15.7 ENE 0.26 17.4 -21.7 --- --- 720.3 0.021 0.000 9.5 5 1
02/14/06 8:29 p -11.8 -11.7 -11.8 --- --- 17.4 ENE 0.29 19.1 -22.1 --- --- 720.1 0.021 0.000 9.5 5 1
02/14/06 8:30 p -11.8 -11.7 -11.8 --- --- 19.1 ENE 0.32 20.0 -22.5 --- --- 720.1 0.021 0.000 9.6 5 1
02/14/06 8:31 p -11.8 -11.8 -11.8 --- --- 16.5 ENE 0.28 18.3 -21.8 --- --- 720.2 0.021 0.000 9.6 5 1
02/14/06 8:32 p -11.8 -11.8 -11.9 --- --- 16.5 ENE 0.28 18.3 -21.9 --- --- 720.2 0.021 0.000 9.5 5 1
02/14/06 8:33 p -11.9 -11.9 -11.9 --- --- 16.5 ENE 0.28 17.4 -22.0 --- --- 720.2 0.021 0.000 9.6 5 1
02/14/06 8:34 p -12.0 -11.9 -12.0 --- --- 16.5 ENE 0.28 18.3 -22.1 --- --- 720.2 0.021 0.000 9.6 5 1
02/14/06 8:35 p -12.0 -12.0 -12.1 --- --- 17.4 ENE 0.29 19.1 -22.4 --- --- 720.2 0.021 0.000 9.6 5 1
02/14/06 8:36 p -12.1 -12.1 -12.1 --- --- 18.3 ENE 0.30 19.1 -22.7 --- --- 720.2 0.021 0.000 9.6 5 1
02/14/06 8:37 p -12.1 -12.0 -12.1 --- --- 17.4 ENE 0.29 19.1 -22.4 --- --- 720.2 0.021 0.000 9.6 5 1
02/14/06 8:38 p -12.1 -12.1 -12.1 --- --- 18.3 ENE 0.30 19.1 -22.7 --- --- 720.2 0.021 0.000 9.6 5 1
02/14/06 8:39 p -12.1 -12.1 -12.2 --- --- 18.3 ENE 0.30 20.9 -22.7 --- --- 720.3 0.021 0.000 9.6 5 1
02/14/06 8:40 p -12.2 -12.1 -12.2 --- --- 17.4 ENE 0.29 18.3 -22.6 --- --- 720.3 0.021 0.000 9.6 5 1
02/14/06 8:41 p -12.1 -12.1 -12.2 --- --- 18.3 ENE 0.30 20.9 -22.7 --- --- 720.2 0.021 0.000 9.6 5 1
02/14/06 8:42 p -12.1 -12.1 -12.2 --- --- 18.3 ENE 0.30 20.9 -22.7 --- --- 720.2 0.021 0.000 9.6 5 1
02/14/06 8:43 p -12.1 -12.1 -12.1 --- --- 18.3 ENE 0.30 20.9 -22.7 --- --- 720.2 0.021 0.000 9.6 5 1
02/14/06 8:44 p -12.1 -12.1 -12.2 --- --- 19.1 ENE 0.32 20.9 -22.9 --- --- 720.2 0.021 0.000 9.6 5 1
02/14/06 8:45 p -12.2 -12.2 -12.2 --- --- 17.4 ENE 0.29 20.0 -22.7 --- --- 720.2 0.021 0.000 9.6 5 1
02/14/06 8:46 p -12.2 -12.2 -12.2 --- --- 16.5 ENE 0.28 17.4 -22.4 --- --- 720.2 0.021 0.000 9.6 5 1
02/14/06 8:47 p -12.2 -12.2 -12.2 --- --- 16.5 ENE 0.28 19.1 -22.4 --- --- 720.2 0.021 0.000 9.6 5 1
02/14/06 8:48 p -12.2 -12.2 -12.2 --- --- 19.1 ENE 0.32 20.9 -23.1 --- --- 720.2 0.021 0.000 9.6 5 1
02/14/06 8:49 p -12.2 -12.1 -12.2 --- --- 20.0 ENE 0.33 21.7 -23.2 --- --- 720.3 0.021 0.000 9.6 5 1
02/14/06 8:50 p -12.1 -12.1 -12.1 --- --- 17.4 ENE 0.29 19.1 -22.5 --- --- 720.3 0.021 0.000 9.6 5 1
02/14/06 8:51 p -12.1 -12.1 -12.2 --- --- 19.1 ENE 0.32 20.9 -22.9 --- --- 720.3 0.021 0.000 9.6 5 1
02/14/06 8:52 p -12.2 -12.1 -12.2 --- --- 20.0 ENE 0.33 20.9 -23.2 --- --- 720.2 0.021 0.000 9.6 5 1
02/14/06 8:53 p -12.1 -12.1 -12.1 --- --- 19.1 ENE 0.32 20.9 -22.9 --- --- 720.2 0.021 0.000 9.6 5 1
02/14/06 8:54 p -12.1 -12.1 -12.1 --- --- 19.1 ENE 0.32 20.9 -22.9 --- --- 720.2 0.021 0.000 9.6 5 1
02/14/06 8:55 p -12.1 -12.1 -12.2 --- --- 19.1 ENE 0.32 20.0 -22.9 --- --- 720.3 0.021 0.000 9.6 5 1
02/14/06 8:56 p -12.2 -12.1 -12.2 --- --- 19.1 ENE 0.32 20.9 -23.0 --- --- 720.2 0.021 0.000 9.6 5 1
02/14/06 8:57 p -12.1 -12.1 -12.2 --- --- 19.1 ENE 0.32 20.0 -22.9 --- --- 720.4 0.021 0.000 9.6 5 1
02/14/06 8:58 p -12.2 -12.1 -12.2 --- --- 19.1 ENE 0.32 20.9 -23.0 --- --- 720.2 0.021 0.000 9.6 5 1
02/14/06 8:59 p -12.1 -12.1 -12.2 --- --- 19.1 ENE 0.32 20.9 -22.9 --- --- 720.3 0.021 0.000 9.6 5 1
02/14/06 9:00 p -12.1 -12.1 -12.1 --- --- 17.4 ENE 0.29 20.0 -22.5 --- --- 720.3 0.021 0.000 9.6 4 1
02/14/06 9:01 p -12.1 -12.1 -12.1 --- --- 19.1 ENE 0.32 20.0 -22.9 --- --- 720.3 0.021 0.000 9.6 5 1
02/14/06 9:02 p -12.1 -12.1 -12.1 --- --- 18.3 ENE 0.30 20.0 -22.7 --- --- 720.3 0.021 0.000 9.6 4 1
02/14/06 9:03 p -12.2 -12.2 -12.2 --- --- 20.0 ENE 0.33 20.9 -23.2 --- --- 720.3 0.021 0.000 9.6 5 1
02/14/06 9:04 p -12.2 -12.2 -12.2 --- --- 17.4 NE 0.29 20.9 -22.6 --- --- 720.3 0.021 0.000 9.6 5 1
02/14/06 9:05 p -12.1 -12.1 -12.1 --- --- 19.1 ENE 0.32 21.7 -22.9 --- --- 720.3 0.021 0.000 9.6 4 1
02/14/06 9:06 p -12.2 -12.1 -12.2 --- --- 19.1 ENE 0.32 22.6 -23.0 --- --- 720.3 0.021 0.000 9.6 5 1
02/14/06 9:07 p -12.2 -12.2 -12.2 --- --- 19.1 ENE 0.32 21.7 -23.0 --- --- 720.3 0.021 0.000 9.6 5 1
02/14/06 9:08 p -12.2 -12.2 -12.2 --- --- 19.1 NE 0.32 21.7 -23.1 --- --- 720.4 0.021 0.000 9.6 5 1
02/14/06 9:09 p -12.1 -12.1 -12.2 --- --- 18.3 NE 0.30 20.0 -22.7 --- --- 720.3 0.021 0.000 9.6 5 1
02/14/06 9:10 p -12.2 -12.1 -12.2 --- --- 20.0 ENE 0.33 21.7 -23.2 --- --- 720.3 0.021 0.000 9.6 5 1
02/14/06 9:11 p -12.2 -12.2 -12.2 --- --- 18.3 NE 0.30 20.0 -22.8 --- --- 720.4 0.021 0.000 9.7 5 1
02/14/06 9:12 p -12.2 -12.2 -12.2 --- --- 20.0 ENE 0.33 24.3 -23.2 --- --- 720.3 0.021 0.000 9.7 5 1
02/14/06 9:13 p -12.2 -12.2 -12.2 --- --- 21.7 ENE 0.36 23.5 -23.6 --- --- 720.3 0.021 0.000 9.7 5 1
02/14/06 9:14 p -12.1 -12.1 -12.2 --- --- 18.3 ENE 0.30 20.9 -22.7 --- --- 720.4 0.021 0.000 9.7 5 1
02/14/06 9:15 p -12.1 -12.1 -12.1 --- --- 14.8 ENE 0.25 18.3 -21.7 --- --- 720.4 0.021 0.000 9.7 4 1
02/14/06 9:16 p -12.1 -12.1 -12.1 --- --- 20.9 ENE 0.35 23.5 -23.3 --- --- 720.3 0.021 0.000 9.7 5 1
02/14/06 9:17 p -12.1 -12.1 -12.2 --- --- 21.7 ENE 0.36 23.5 -23.6 --- --- 720.4 0.021 0.000 9.7 4 1
02/14/06 9:18 p -12.1 -12.0 -12.1 --- --- 16.5 NE 0.28 18.3 -22.2 --- --- 720.5 0.021 0.000 9.7 5 1
02/14/06 9:19 p -12.0 -12.0 -12.0 --- --- 16.5 ENE 0.28 20.9 -22.1 --- --- 720.4 0.021 0.000 9.7 5 1
02/14/06 9:20 p -12.1 -12.1 -12.1 --- --- 20.0 ENE 0.33 22.6 -23.1 --- --- 720.3 0.021 0.000 9.7 4 1
02/14/06 9:21 p -12.2 -12.1 -12.2 --- --- 19.1 ENE 0.32 22.6 -23.0 --- --- 720.3 0.021 0.000 9.7 4 1
02/14/06 9:22 p -12.2 -12.2 -12.2 --- --- 16.5 ENE 0.28 19.1 -22.3 --- --- 720.4 0.021 0.000 9.7 4 1
02/14/06 9:23 p -12.2 -12.2 -12.2 --- --- 20.9 ENE 0.35 22.6 -23.5 --- --- 720.4 0.021 0.000 9.7 5 1
02/14/06 9:24 p -12.2 -12.2 -12.2 --- --- 17.4 ENE 0.29 19.1 -22.6 --- --- 720.4 0.021 0.000 9.7 4 1
02/14/06 9:25 p -12.1 -12.1 -12.1 --- --- 17.4 ENE 0.29 20.0 -22.5 --- --- 720.4 0.021 0.000 9.7 5 1
02/14/06 9:26 p -12.1 -12.0 -12.1 --- --- 20.0 ENE 0.33 21.7 -23.1 --- --- 720.4 0.021 0.000 9.7 4 1
02/14/06 9:27 p -12.1 -12.1 -12.2 --- --- 20.9 ENE 0.35 22.6 -23.3 --- --- 720.3 0.021 0.000 9.7 4 1
02/14/06 9:28 p -12.1 -12.1 -12.1 --- --- 20.0 NE 0.33 22.6 -23.2 --- --- 720.4 0.021 0.000 9.7 4 1
02/14/06 9:29 p -12.0 -12.0 -12.0 --- --- 18.3 ENE 0.30 19.1 -22.6 --- --- 720.4 0.021 0.000 9.7 4 1
02/14/06 9:30 p -12.0 -11.9 -12.0 --- --- 18.3 ENE 0.30 20.0 -22.6 --- --- 720.4 0.021 0.000 9.7 4 1
02/14/06 9:31 p -12.0 -11.9 -12.0 --- --- 21.7 ENE 0.36 23.5 -23.4 --- --- 720.4 0.021 0.000 9.7 4 1
02/14/06 9:32 p -11.9 -11.9 -11.9 --- --- 20.9 NE 0.35 23.5 -23.1 --- --- 720.5 0.021 0.000 9.7 4 1
02/14/06 9:33 p -11.9 -11.9 -11.9 --- --- 17.4 NE 0.29 20.0 -22.2 --- --- 720.5 0.021 0.000 9.7 4 1
02/14/06 9:34 p -11.9 -11.9 -11.9 --- --- 15.7 ENE 0.26 18.3 -21.7 --- --- 720.4 0.021 0.000 9.7 4 1
02/14/06 9:35 p -11.9 -11.8 -11.9 --- --- 19.1 ENE 0.32 23.5 -22.7 --- --- 720.3 0.021 0.000 9.7 4 1
02/14/06 9:36 p -11.8 -11.8 -11.8 --- --- 21.7 ENE 0.36 24.3 -23.2 --- --- 720.4 0.021 0.000 9.7 4 1
02/14/06 9:37 p -11.8 -11.7 -11.8 --- --- 20.9 ENE 0.35 22.6 -22.9 --- --- 720.4 0.021 0.000 9.7 4 1
02/14/06 9:38 p -11.7 -11.7 -11.7 --- --- 16.5 ENE 0.28 18.3 -21.8 --- --- 720.4 0.021 0.000 9.7 4 1
02/14/06 9:39 p -11.7 -11.7 -11.8 --- --- 17.4 ENE 0.29 20.9 -22.0 --- --- 720.4 0.021 0.000 9.7 4 1
02/14/06 9:40 p -11.8 -11.8 -11.9 --- --- 20.0 ENE 0.33 23.5 -22.8 --- --- 720.3 0.021 0.000 9.7 4 1
02/14/06 9:41 p -11.9 -11.9 -11.9 --- --- 22.6 ENE 0.38 25.2 -23.4 --- --- 720.3 0.021 0.000 9.7 4 1
02/14/06 9:42 p -11.9 -11.8 -11.9 --- --- 22.6 ENE 0.38 23.5 -23.4 --- --- 720.5 0.021 0.000 9.7 4 1
02/14/06 9:43 p -11.8 -11.7 -11.8 --- --- 18.3 ENE 0.30 20.9 -22.3 --- --- 720.5 0.021 0.000 9.7 4 1
02/14/06 9:44 p -11.7 -11.6 -11.7 --- --- 13.0 ENE 0.22 16.5 -20.7 --- --- 720.5 0.021 0.000 9.7 4 1
02/14/06 9:45 p -11.7 -11.6 -11.7 --- --- 18.3 ENE 0.30 25.2 -22.2 --- --- 720.4 0.021 0.000 9.7 4 1
02/14/06 9:46 p -11.8 -11.8 -11.8 --- --- 24.3 ENE 0.41 27.0 -23.6 --- --- 720.4 0.021 0.000 9.7 4 1
02/14/06 9:47 p -11.8 -11.7 -11.8 --- --- 20.9 ENE 0.35 24.3 -22.9 --- --- 720.5 0.021 0.000 9.7 4 1
02/14/06 9:48 p -11.7 -11.7 -11.7 --- --- 20.9 ENE 0.35 24.3 -22.7 --- --- 720.6 0.021 0.000 9.7 4 1
02/14/06 9:49 p -11.6 -11.6 -11.7 --- --- 16.5 ENE 0.28 19.1 -21.6 --- --- 720.5 0.021 0.000 9.7 4 1
02/14/06 9:50 p -11.7 -11.7 -11.8 --- --- 20.9 ENE 0.35 23.5 -22.8 --- --- 720.4 0.021 0.000 9.7 4 1
02/14/06 9:51 p -11.8 -11.8 -11.8 --- --- 21.7 NE 0.36 25.2 -23.1 --- --- 720.5 0.021 0.000 9.7 4 1
02/14/06 9:52 p -11.7 -11.6 -11.8 --- --- 20.0 NE 0.33 23.5 -22.6 --- --- 720.4 0.021 0.000 9.7 4 1
02/14/06 9:53 p -11.6 -11.6 -11.6 --- --- 21.7 ENE 0.36 25.2 -22.9 --- --- 720.5 0.021 0.000 9.7 4 1
02/14/06 9:54 p -11.7 -11.6 -11.7 --- --- 20.9 ENE 0.35 23.5 -22.7 --- --- 720.6 0.021 0.000 9.7 4 1
02/14/06 9:55 p -11.6 -11.6 -11.6 --- --- 18.3 ENE 0.30 20.0 -22.1 --- --- 720.6 0.021 0.000 9.7 4 1
02/14/06 9:56 p -11.7 -11.7 -11.7 --- --- 19.1 ENE 0.32 21.7 -22.3 --- --- 720.5 0.021 0.000 9.7 4 1
02/14/06 9:57 p -11.7 -11.7 -11.7 --- --- 21.7 ENE 0.36 23.5 -23.0 --- --- 720.4 0.021 0.000 9.7 4 1
02/14/06 9:58 p -11.7 -11.6 -11.7 --- --- 20.0 ENE 0.33 22.6 -22.6 --- --- 720.6 0.021 0.000 9.7 4 1
02/14/06 9:59 p -11.6 -11.6 -11.6 --- --- 19.1 E 0.32 23.5 -22.2 --- --- 720.5 0.021 0.000 9.7 4 1
02/14/06 10:00 p -11.6 -11.6 -11.6 --- --- 20.9 ENE 0.35 23.5 -22.6 --- --- 720.6 0.021 0.000 9.7 4 1
02/14/06 10:01 p -11.4 -11.4 -11.5 --- --- 18.3 ENE 0.30 20.9 -21.8 --- --- 720.6 0.021 0.000 9.7 4 1
02/14/06 10:02 p -11.4 -11.4 -11.4 --- --- 20.9 ENE 0.35 22.6 -22.4 --- --- 720.5 0.021 0.000 9.7 4 1
02/14/06 10:03 p -11.4 -11.4 -11.4 --- --- 18.3 ENE 0.30 21.7 -21.8 --- --- 720.6 0.021 0.000 9.7 4 1
02/14/06 10:04 p -11.4 -11.4 -11.4 --- --- 15.7 E 0.26 20.0 -21.1 --- --- 720.5 0.021 0.000 9.7 4 1
02/14/06 10:05 p -11.4 -11.4 -11.4 --- --- 20.9 E 0.35 22.6 -22.4 --- --- 720.5 0.021 0.000 9.7 4 1
02/14/06 10:06 p -11.4 -11.4 -11.4 --- --- 22.6 ENE 0.38 24.3 -22.7 --- --- 720.6 0.021 0.000 9.7 4 1
02/14/06 10:07 p -11.2 -11.2 -11.3 --- --- 20.0 ENE 0.33 20.9 -21.9 --- --- 720.6 0.021 0.000 9.7 4 1
02/14/06 10:08 p -11.2 -11.2 -11.2 --- --- 18.3 ENE 0.30 20.9 -21.5 --- --- 720.7 0.020 0.000 9.7 4 1
02/14/06 10:09 p -11.2 -11.1 -11.2 --- --- 13.0 E 0.22 17.4 -20.1 --- --- 720.7 0.020 0.000 9.7 4 1
02/14/06 10:10 p -11.0 -11.0 -11.1 --- --- 15.7 E 0.26 22.6 -20.6 --- --- 720.5 0.020 0.000 9.7 4 1
02/14/06 10:11 p -11.1 -11.1 -11.1 --- --- 23.5 ENE 0.39 25.2 -22.6 --- --- 720.4 0.020 0.000 9.7 4 1
02/14/06 10:12 p -11.1 -11.1 -11.1 --- --- 22.6 ENE 0.38 24.3 -22.4 --- --- 720.5 0.020 0.000 9.7 4 1
02/14/06 10:13 p -11.1 -11.1 -11.2 --- --- 20.0 ENE 0.33 22.6 -21.8 --- --- 720.6 0.020 0.000 9.7 4 1
02/14/06 10:14 p -11.1 -11.1 -11.1 --- --- 18.3 ENE 0.30 20.0 -21.4 --- --- 720.7 0.020 0.000 9.7 4 1
02/14/06 10:15 p -11.1 -11.1 -11.2 --- --- 17.4 ENE 0.29 20.0 -21.2 --- --- 720.6 0.020 0.000 9.7 4 1
02/14/06 10:16 p -11.1 -11.1 -11.2 --- --- 17.4 ENE 0.29 20.0 -21.2 --- --- 720.6 0.020 0.000 9.7 4 1
02/14/06 10:17 p -11.1 -11.1 -11.2 --- --- 16.5 E 0.28 21.7 -20.9 --- --- 720.6 0.020 0.000 9.7 4 1
02/14/06 10:18 p -11.2 -11.2 -11.2 --- --- 25.2 ENE 0.42 26.1 -23.1 --- --- 720.5 0.021 0.000 9.7 4 1
02/14/06 10:19 p -11.2 -11.1 -11.2 --- --- 21.7 ENE 0.36 24.3 -22.3 --- --- 720.6 0.020 0.000 9.7 4 1
02/14/06 10:20 p -11.1 -11.0 -11.1 --- --- 16.5 ENE 0.28 20.0 -20.9 --- --- 720.8 0.020 0.000 9.7 4 1
02/14/06 10:21 p -10.9 -10.9 -11.0 --- --- 14.8 ENE 0.25 17.4 -20.3 --- --- 720.7 0.020 0.000 9.7 4 1
02/14/06 10:22 p -11.0 -10.9 -11.0 --- --- 19.1 ENE 0.32 23.5 -21.4 --- --- 720.7 0.020 0.000 9.7 4 1
02/14/06 10:23 p -10.9 -10.8 -10.9 --- --- 19.1 ENE 0.32 22.6 -21.3 --- --- 720.7 0.020 0.000 9.7 4 1
02/14/06 10:24 p -10.8 -10.7 -10.8 --- --- 13.9 E 0.23 18.3 -19.8 --- --- 720.8 0.020 0.000 9.7 4 1
02/14/06 10:25 p -10.8 -10.8 -10.8 --- --- 12.2 E 0.20 16.5 -19.2 --- --- 720.7 0.020 0.000 9.7 4 1
02/14/06 10:26 p -10.8 -10.8 -10.9 --- --- 19.1 ENE 0.32 22.6 -21.3 --- --- 720.6 0.020 0.000 9.7 4 1
02/14/06 10:27 p -10.8 -10.8 -10.9 --- --- 22.6 ENE 0.38 23.5 -22.0 --- --- 720.7 0.020 0.000 9.7 4 1
02/14/06 10:28 p -10.7 -10.7 -10.8 --- --- 20.0 ENE 0.33 20.9 -21.3 --- --- 720.9 0.020 0.000 9.7 4 1
02/14/06 10:29 p -10.7 -10.6 -10.7 --- --- 15.7 ENE 0.26 18.3 -20.2 --- --- 720.9 0.020 0.000 9.7 4 1
02/14/06 10:30 p -10.7 -10.7 -10.7 --- --- 11.3 ENE 0.19 14.8 -18.8 --- --- 720.9 0.020 0.000 9.7 4 1
02/14/06 10:31 p -10.7 -10.7 -10.8 --- --- 17.4 ENE 0.29 21.7 -20.7 --- --- 720.7 0.020 0.000 9.7 4 1
02/14/06 10:32 p -10.8 -10.8 -10.8 --- --- 20.9 ENE 0.35 21.7 -21.7 --- --- 720.7 0.020 0.000 9.7 4 1
02/14/06 10:33 p -10.8 -10.8 -10.8 --- --- 20.0 ENE 0.33 21.7 -21.4 --- --- 720.7 0.020 0.000 9.7 4 1
02/14/06 10:34 p -10.8 -10.8 -10.8 --- --- 20.0 ENE 0.33 21.7 -21.4 --- --- 720.8 0.020 0.000 9.7 4 1
02/14/06 10:35 p -10.8 -10.8 -10.8 --- --- 15.7 E 0.26 20.0 -20.4 --- --- 720.8 0.020 0.000 9.7 4 1
02/14/06 10:36 p -10.8 -10.7 -10.8 --- --- 13.9 E 0.23 17.4 -19.8 --- --- 720.8 0.020 0.000 9.7 4 1
02/14/06 10:37 p -10.7 -10.7 -10.8 --- --- 19.1 ENE 0.32 23.5 -21.1 --- --- 720.6 0.020 0.000 9.7 4 1
02/14/06 10:38 p -10.8 -10.8 -10.8 --- --- 21.7 ENE 0.36 24.3 -21.7 --- --- 720.8 0.020 0.000 9.7 4 1
02/14/06 10:39 p -10.8 -10.8 -10.8 --- --- 20.9 ENE 0.35 24.3 -21.6 --- --- 720.8 0.020 0.000 9.7 4 1
02/14/06 10:40 p -10.8 -10.7 -10.8 --- --- 20.9 ENE 0.35 24.3 -21.6 --- --- 720.9 0.020 0.000 9.7 4 1
02/14/06 10:41 p -10.7 -10.7 -10.7 --- --- 16.5 E 0.28 19.1 -20.4 --- --- 720.9 0.020 0.000 9.7 4 1
02/14/06 10:42 p -10.7 -10.7 -10.7 --- --- 16.5 E 0.28 19.1 -20.4 --- --- 720.9 0.020 0.000 9.7 4 1
02/14/06 10:43 p -10.7 -10.7 -10.7 --- --- 19.1 ENE 0.32 25.2 -21.1 --- --- 720.7 0.020 0.000 9.7 4 1
02/14/06 10:44 p -10.7 -10.6 -10.7 --- --- 20.9 ENE 0.35 24.3 -21.4 --- --- 720.9 0.020 0.000 9.8 4 1
02/14/06 10:45 p -10.6 -10.6 -10.6 --- --- 20.0 ENE 0.33 21.7 -21.2 --- --- 720.8 0.020 0.000 9.8 4 1
02/14/06 10:46 p -10.6 -10.6 -10.6 --- --- 18.3 ENE 0.30 20.9 -20.8 --- --- 720.8 0.020 0.000 9.7 4 1
02/14/06 10:47 p -10.7 -10.7 -10.7 --- --- 17.4 ENE 0.29 19.1 -20.6 --- --- 720.9 0.020 0.000 9.7 4 1
02/14/06 10:48 p -10.7 -10.6 -10.7 --- --- 18.3 ENE 0.30 19.1 -20.8 --- --- 720.9 0.020 0.000 9.7 4 1
02/14/06 10:49 p -10.5 -10.4 -10.5 --- --- 19.1 ENE 0.32 20.0 -20.8 --- --- 720.8 0.020 0.000 9.7 4 1
02/14/06 10:50 p -10.4 -10.4 -10.4 --- --- 20.9 ENE 0.35 22.6 -21.1 --- --- 720.9 0.020 0.000 9.7 4 1
02/14/06 10:51 p -10.4 -10.4 -10.4 --- --- 18.3 ENE 0.30 21.7 -20.4 --- --- 720.9 0.020 0.000 9.7 4 1
02/14/06 10:52 p -10.3 -10.2 -10.3 --- --- 9.6 ENE 0.16 14.8 -17.7 --- --- 720.8 0.020 0.000 9.7 4 1
02/14/06 10:53 p -10.2 -10.2 -10.2 --- --- 20.0 ENE 0.33 24.3 -20.6 --- --- 720.8 0.020 0.000 9.7 4 1
02/14/06 10:54 p -10.2 -10.2 -10.2 --- --- 21.7 ENE 0.36 23.5 -21.0 --- --- 720.8 0.020 0.000 9.7 4 1
02/14/06 10:55 p -10.2 -10.2 -10.3 --- --- 20.0 ENE 0.33 22.6 -20.6 --- --- 721.0 0.020 0.000 9.7 4 1
02/14/06 10:56 p -10.1 -10.0 -10.2 --- --- 14.8 ENE 0.25 17.4 -19.2 --- --- 721.0 0.020 0.000 9.7 4 1
02/14/06 10:57 p -9.9 -9.9 -9.9 --- --- 16.5 ENE 0.28 18.3 -19.4 --- --- 720.9 0.020 0.000 9.7 4 1
02/14/06 10:58 p -10.1 -10.0 -10.1 --- --- 13.9 E 0.23 17.4 -18.9 --- --- 720.9 0.020 0.000 9.7 4 1
02/14/06 10:59 p -10.1 -10.0 -10.1 --- --- 20.9 ENE 0.35 24.3 -20.6 --- --- 720.8 0.020 0.000 9.7 4 1
02/14/06 11:00 p -9.9 -9.9 -10.0 --- --- 20.0 ENE 0.33 20.9 -20.3 --- --- 720.9 0.020 0.000 9.8 4 1
02/14/06 11:01 p -9.8 -9.7 -9.9 --- --- 19.1 ENE 0.32 20.0 -19.9 --- --- 720.9 0.020 0.000 9.8 4 1
02/14/06 11:02 p -9.7 -9.7 -9.7 --- --- 15.7 ENE 0.26 18.3 -18.9 --- --- 720.9 0.019 0.000 9.8 4 1
02/14/06 11:03 p -9.7 -9.7 -9.8 --- --- 13.9 E 0.23 19.1 -18.4 --- --- 720.8 0.019 0.000 9.8 4 1
02/14/06 11:04 p -9.8 -9.7 -9.8 --- --- 17.4 ENE 0.29 20.0 -19.4 --- --- 720.9 0.020 0.000 9.8 4 1
02/14/06 11:05 p -9.7 -9.7 -9.7 --- --- 21.7 ENE 0.36 24.3 -20.3 --- --- 720.8 0.019 0.000 9.8 4 1
02/14/06 11:06 p -9.7 -9.6 -9.7 --- --- 20.0 ENE 0.33 20.9 -19.9 --- --- 720.8 0.019 0.000 9.8 4 1
02/14/06 11:07 p -9.6 -9.6 -9.7 --- --- 19.1 ENE 0.32 21.7 -19.6 --- --- 721.0 0.019 0.000 9.8 4 1
02/14/06 11:08 p -9.7 -9.6 -9.7 --- --- 14.8 ENE 0.25 17.4 -18.6 --- --- 721.0 0.019 0.000 9.8 4 1
02/14/06 11:09 p -9.6 -9.5 -9.6 --- --- 13.0 ENE 0.22 16.5 -17.9 --- --- 720.9 0.019 0.000 9.7 4 1
02/14/06 11:10 p -9.5 -9.5 -9.6 --- --- 14.8 E 0.25 18.3 -18.4 --- --- 721.0 0.019 0.000 9.7 4 1
02/14/06 11:11 p -9.5 -9.4 -9.6 --- --- 13.9 E 0.23 24.3 -18.2 --- --- 720.9 0.019 0.000 9.7 4 1
02/14/06 11:12 p -9.4 -9.3 -9.4 --- --- 22.6 ENE 0.38 24.3 -20.1 --- --- 720.9 0.019 0.000 9.7 4 1
02/14/06 11:13 p -9.4 -9.3 -9.4 --- --- 20.0 ENE 0.33 23.5 -19.6 --- --- 720.9 0.019 0.000 9.8 4 1
02/14/06 11:14 p -9.4 -9.4 -9.4 --- --- 19.1 ENE 0.32 20.9 -19.3 --- --- 721.0 0.019 0.000 9.8 4 1
02/14/06 11:15 p -9.4 -9.4 -9.4 --- --- 14.8 E 0.25 17.4 -18.3 --- --- 721.0 0.019 0.000 9.8 4 1
02/14/06 11:16 p -9.4 -9.4 -9.4 --- --- 17.4 ENE 0.29 19.1 -18.9 --- --- 721.0 0.019 0.000 9.8 4 1
02/14/06 11:17 p -9.3 -9.3 -9.4 --- --- 20.0 ENE 0.33 22.6 -19.4 --- --- 720.9 0.019 0.000 9.8 4 1
02/14/06 11:18 p -9.3 -9.3 -9.3 --- --- 17.4 ENE 0.29 20.0 -18.9 --- --- 721.0 0.019 0.000 9.8 4 1
02/14/06 11:19 p -9.3 -9.3 -9.3 --- --- 19.1 ENE 0.32 22.6 -19.2 --- --- 721.0 0.019 0.000 9.8 4 1
02/14/06 11:20 p -9.3 -9.2 -9.3 --- --- 20.0 ENE 0.33 20.9 -19.4 --- --- 721.1 0.019 0.000 9.8 4 1
02/14/06 11:21 p -9.2 -9.1 -9.2 --- --- 14.8 ENE 0.25 19.1 -18.0 --- --- 721.2 0.019 0.000 9.8 4 1
02/14/06 11:22 p -9.1 -9.0 -9.1 --- --- 9.6 E 0.16 12.2 -16.2 --- --- 721.1 0.019 0.000 9.8 4 1
02/14/06 11:23 p -8.9 -8.9 -9.1 --- --- 17.4 ENE 0.29 23.5 -18.3 --- --- 721.0 0.019 0.000 9.8 4 1
02/14/06 11:24 p -9.1 -9.1 -9.1 --- --- 20.0 ENE 0.33 21.7 -19.1 --- --- 721.1 0.019 0.000 9.8 4 1
02/14/06 11:25 p -9.1 -9.0 -9.1 --- --- 18.3 ENE 0.30 20.0 -18.7 --- --- 721.0 0.019 0.000 9.8 4 1
02/14/06 11:26 p -9.1 -9.0 -9.1 --- --- 15.7 ENE 0.26 17.4 -18.1 --- --- 721.2 0.019 0.000 9.8 4 1
02/14/06 11:27 p -9.1 -9.1 -9.2 --- --- 9.6 E 0.16 13.0 -16.2 --- --- 721.0 0.019 0.000 9.8 4 1
02/14/06 11:28 p -9.2 -9.1 -9.2 --- --- 13.0 ENE 0.22 16.5 -17.5 --- --- 721.1 0.019 0.000 9.8 4 1
02/14/06 11:29 p -9.3 -9.2 -9.3 --- --- 14.8 ENE 0.25 19.1 -18.1 --- --- 721.0 0.019 0.000 9.8 4 1
02/14/06 11:30 p -9.3 -9.3 -9.4 --- --- 19.1 NE 0.32 20.9 -19.3 --- --- 721.1 0.019 0.000 9.8 4 1
02/14/06 11:31 p -9.3 -9.2 -9.3 --- --- 19.1 ENE 0.32 20.9 -19.2 --- --- 721.1 0.019 0.000 9.8 4 1
02/14/06 11:32 p -9.1 -9.0 -9.2 --- --- 16.5 ENE 0.28 19.1 -18.3 --- --- 721.1 0.019 0.000 9.8 4 1
02/14/06 11:33 p -8.9 -8.9 -9.0 --- --- 19.1 ENE 0.32 22.6 -18.8 --- --- 721.1 0.019 0.000 9.8 4 1
02/14/06 11:34 p -8.9 -8.8 -8.9 --- --- 17.4 ENE 0.29 18.3 -18.3 --- --- 721.2 0.019 0.000 9.8 4 1
02/14/06 11:35 p -8.8 -8.7 -8.8 --- --- 13.0 ENE 0.22 17.4 -17.0 --- --- 721.1 0.019 0.000 9.8 4 1
02/14/06 11:36 p -8.6 -8.6 -8.7 --- --- 8.7 ENE 0.14 12.2 -15.3 --- --- 721.1 0.019 0.000 9.8 4 1
02/14/06 11:37 p -8.6 -8.6 -8.7 --- --- 17.4 ENE 0.29 19.1 -17.9 --- --- 721.1 0.019 0.000 9.8 4 1
02/14/06 11:38 p -8.8 -8.7 -8.8 --- --- 19.1 ENE 0.32 20.0 -18.6 --- --- 721.1 0.019 0.000 9.8 4 1
02/14/06 11:39 p -8.8 -8.8 -8.9 --- --- 20.0 ENE 0.33 20.9 -18.8 --- --- 721.1 0.019 0.000 9.8 4 1
02/14/06 11:40 p -8.9 -8.8 -8.9 --- --- 18.3 ENE 0.30 19.1 -18.5 --- --- 721.2 0.019 0.000 9.8 4 1
02/14/06 11:41 p -8.8 -8.8 -8.9 --- --- 16.5 ENE 0.28 19.1 -18.0 --- --- 721.2 0.019 0.000 9.8 4 1
02/14/06 11:42 p -8.8 -8.8 -8.8 --- --- 13.9 ENE 0.23 15.7 -17.3 --- --- 721.3 0.019 0.000 9.8 4 1
02/14/06 11:43 p -8.7 -8.7 -8.8 --- --- 13.9 ENE 0.23 19.1 -17.2 --- --- 721.2 0.019 0.000 9.8 4 1
02/14/06 11:44 p -8.6 -8.6 -8.7 --- --- 18.3 ENE 0.30 19.1 -18.1 --- --- 721.1 0.019 0.000 9.8 4 1
02/14/06 11:45 p -8.6 -8.4 -8.6 --- --- 16.5 ENE 0.28 18.3 -17.7 --- --- 721.2 0.019 0.000 9.8 4 1
02/14/06 11:46 p -8.4 -8.3 -8.4 --- --- 12.2 ENE 0.20 14.8 -16.3 --- --- 721.2 0.019 0.000 9.8 4 1
02/14/06 11:47 p -8.3 -8.2 -8.3 --- --- 12.2 ENE 0.20 18.3 -16.1 --- --- 721.1 0.018 0.000 9.8 4 1
02/14/06 11:48 p -8.2 -8.2 -8.3 --- --- 19.1 ENE 0.32 20.9 -17.8 --- --- 721.2 0.018 0.000 9.8 4 1
02/14/06 11:49 p -8.3 -8.3 -8.3 --- --- 17.4 ENE 0.29 19.1 -17.6 --- --- 721.2 0.018 0.000 9.8 4 1
02/14/06 11:50 p -8.3 -8.3 -8.3 --- --- 17.4 ENE 0.29 18.3 -17.6 --- --- 721.1 0.018 0.000 9.8 4 1
02/14/06 11:51 p -8.3 -8.3 -8.3 --- --- 16.5 ENE 0.28 17.4 -17.4 --- --- 721.2 0.019 0.000 9.8 4 1
02/14/06 11:52 p -8.3 -8.3 -8.3 --- --- 13.9 ENE 0.23 15.7 -16.7 --- --- 721.1 0.019 0.000 9.8 4 1
02/14/06 11:53 p -8.3 -8.3 -8.3 --- --- 15.7 ENE 0.26 16.5 -17.2 --- --- 721.2 0.019 0.000 9.8 4 1
02/14/06 11:54 p -8.4 -8.3 -8.4 --- --- 15.7 ENE 0.26 17.4 -17.3 --- --- 721.2 0.019 0.000 9.8 4 1
02/14/06 11:55 p -8.3 -8.1 -8.4 --- --- 13.0 ENE 0.22 15.7 -16.4 --- --- 721.2 0.018 0.000 9.8 4 1
02/14/06 11:56 p -8.1 -8.1 -8.1 --- --- 15.7 ENE 0.26 19.1 -16.9 --- --- 721.1 0.018 0.000 9.8 4 1
02/14/06 11:57 p -8.2 -8.1 -8.2 --- --- 19.1 NE 0.32 21.7 -17.8 --- --- 721.2 0.018 0.000 9.8 4 1
02/14/06 11:58 p -8.2 -8.2 -8.2 --- --- 16.5 NE 0.28 17.4 -17.2 --- --- 721.2 0.018 0.000 9.8 4 1
02/14/06 11:59 p -8.2 -8.1 -8.2 --- --- 16.5 ENE 0.28 18.3 -17.2 --- --- 721.3 0.018 0.000 9.8 5 1
02/15/06 12:00 a -8.1 -8.1 -8.2 --- --- 13.9 ENE 0.23 16.5 -16.4 --- --- 721.3 0.018 0.000 9.8 4 1
02/15/06 12:01 a -8.2 -8.2 -8.2 --- --- 9.6 E 0.16 12.2 -15.1 --- --- 721.3 0.018 0.000 9.8 4 1
02/15/06 12:02 a -8.2 -8.1 -8.2 --- --- 9.6 E 0.16 13.9 -15.1 --- --- 721.2 0.018 0.000 9.8 4 1
02/15/06 12:03 a -8.2 -8.1 -8.2 --- --- 13.9 ENE 0.23 16.5 -16.5 --- --- 721.2 0.018 0.000 9.8 5 1
02/15/06 12:04 a -8.3 -8.2 -8.3 --- --- 17.4 ENE 0.29 20.0 -17.6 --- --- 721.1 0.018 0.000 9.8 5 1
02/15/06 12:05 a -8.2 -8.2 -8.3 --- --- 17.4 ENE 0.29 19.1 -17.4 --- --- 721.2 0.018 0.000 9.8 5 1
02/15/06 12:06 a -8.1 -8.1 -8.2 --- --- 12.2 ENE 0.20 13.9 -15.9 --- --- 721.2 0.018 0.000 9.8 5 1
02/15/06 12:07 a -8.1 -8.0 -8.1 --- --- 17.4 ENE 0.29 20.0 -17.2 --- --- 721.0 0.018 0.000 9.8 5 1
02/15/06 12:08 a -8.2 -8.1 -8.2 --- --- 19.1 ENE 0.32 23.5 -17.8 --- --- 721.3 0.018 0.000 9.8 5 1
02/15/06 12:09 a -7.9 -7.8 -8.0 --- --- 14.8 ENE 0.25 15.7 -16.4 --- --- 721.3 0.018 0.000 9.9 5 1
02/15/06 12:10 a -7.8 -7.7 -7.8 --- --- 13.9 ENE 0.23 15.7 -16.0 --- --- 721.3 0.018 0.000 9.9 5 1
02/15/06 12:11 a -7.6 -7.6 -7.7 --- --- 13.0 E 0.22 14.8 -15.6 --- --- 721.4 0.018 0.000 9.9 5 1
02/15/06 12:12 a -7.6 -7.6 -7.7 --- --- 9.6 E 0.16 12.2 -14.4 --- --- 721.3 0.018 0.000 9.9 5 1
02/15/06 12:13 a -7.2 -6.9 -7.3 --- --- 8.7 E 0.14 12.2 -13.5 --- --- 721.3 0.018 0.000 9.9 5 1
02/15/06 12:14 a -7.1 -6.9 -7.3 --- --- 15.7 ENE 0.26 18.3 -15.6 --- --- 721.2 0.018 0.000 9.9 5 1
02/15/06 12:15 a -7.3 -7.3 -7.4 --- --- 15.7 ENE 0.26 17.4 -15.9 --- --- 721.3 0.018 0.000 9.9 5 1
02/15/06 12:16 a -7.4 -7.4 -7.4 --- --- 18.3 ENE 0.30 19.1 -16.6 --- --- 721.3 0.018 0.000 9.8 5 1
02/15/06 12:17 a -7.4 -7.4 -7.5 --- --- 17.4 ENE 0.29 19.1 -16.4 --- --- 721.3 0.018 0.000 9.8 5 1
02/15/06 12:18 a -7.6 -7.5 -7.7 --- --- 16.5 ENE 0.28 19.1 -16.4 --- --- 721.3 0.018 0.000 9.8 5 1
02/15/06 12:19 a -7.7 -7.7 -7.8 --- --- 12.2 E 0.20 15.7 -15.4 --- --- 721.3 0.018 0.000 9.8 5 1
02/15/06 12:20 a -7.6 -7.4 -7.7 --- --- 8.7 E 0.14 12.2 -13.9 --- --- 721.3 0.018 0.000 9.7 5 1
02/15/06 12:21 a -7.4 -7.3 -7.6 --- --- 13.9 ENE 0.23 17.4 -15.6 --- --- 721.3 0.018 0.000 9.7 5 1
02/15/06 12:22 a -7.7 -7.7 -7.7 --- --- 15.7 ENE 0.26 17.4 -16.3 --- --- 721.3 0.018 0.000 9.7 5 1
02/15/06 12:23 a -7.8 -7.7 -7.9 --- --- 16.5 ENE 0.28 18.3 -16.7 --- --- 721.4 0.018 0.000 9.7 5 1
02/15/06 12:24 a -7.9 -7.8 -7.9 --- --- 17.4 NE 0.29 18.3 -17.0 --- --- 721.3 0.018 0.000 9.7 5 1
02/15/06 12:25 a -7.8 -7.6 -7.8 --- --- 12.2 ENE 0.20 14.8 -15.5 --- --- 721.4 0.018 0.000 9.6 5 1
02/15/06 12:26 a -7.6 -7.5 -7.6 --- --- 12.2 ENE 0.20 13.0 -15.2 --- --- 721.4 0.018 0.000 9.6 5 1
02/15/06 12:27 a -7.6 -7.6 -7.6 --- --- 8.7 E 0.14 11.3 -14.1 --- --- 721.4 0.018 0.000 9.6 5 1
02/15/06 12:28 a -7.5 -7.4 -7.6 --- --- 9.6 E 0.16 12.2 -14.2 --- --- 721.3 0.018 0.000 9.6 5 1
02/15/06 12:29 a -7.4 -7.4 -7.5 --- --- 11.3 E 0.19 13.9 -14.8 --- --- 721.4 0.018 0.000 9.5 5 1
02/15/06 12:30 a -7.4 -7.4 -7.4 --- --- 15.7 ENE 0.26 17.4 -15.9 --- --- 721.4 0.018 0.000 9.5 5 1
02/15/06 12:31 a -7.3 -7.3 -7.4 --- --- 17.4 ENE 0.29 19.1 -16.3 --- --- 721.3 0.018 0.000 9.5 5 1
02/15/06 12:32 a -7.2 -7.2 -7.3 --- --- 15.7 ENE 0.26 16.5 -15.7 --- --- 721.3 0.018 0.000 9.4 5 1
02/15/06 12:33 a -7.1 -7.1 -7.1 --- --- 15.7 ENE 0.26 16.5 -15.6 --- --- 721.4 0.018 0.000 9.4 5 1
02/15/06 12:34 a -7.0 -7.0 -7.1 --- --- 13.9 ENE 0.23 15.7 -15.0 --- --- 721.4 0.018 0.000 9.4 5 1
02/15/06 12:35 a -7.0 -7.0 -7.1 --- --- 12.2 ENE 0.20 14.8 -14.5 --- --- 721.4 0.018 0.000 9.4 5 1
02/15/06 12:36 a -7.1 -7.0 -7.1 --- --- 11.3 E 0.19 13.9 -14.3 --- --- 721.5 0.018 0.000 9.4 5 1
02/15/06 12:37 a -7.1 -7.0 -7.1 --- --- 12.2 ENE 0.20 14.8 -14.6 --- --- 721.5 0.018 0.000 9.4 5 1
02/15/06 12:38 a -7.1 -7.1 -7.1 --- --- 14.8 NE 0.25 15.7 -15.4 --- --- 721.5 0.018 0.000 9.4 5 1
02/15/06 12:39 a -7.1 -7.1 -7.1 --- --- 14.8 NE 0.25 16.5 -15.3 --- --- 721.5 0.018 0.000 9.4 5 1
02/15/06 12:40 a -6.9 -6.8 -7.0 --- --- 13.9 NE 0.23 14.8 -14.8 --- --- 721.5 0.018 0.000 9.3 5 1
02/15/06 12:41 a -6.8 -6.7 -6.8 --- --- 14.8 ENE 0.25 16.5 -14.9 --- --- 721.4 0.017 0.000 9.3 5 1
02/15/06 12:42 a -6.5 -6.3 -6.6 --- --- 13.0 ENE 0.22 13.9 -14.1 --- --- 721.5 0.017 0.000 9.3 5 1
02/15/06 12:43 a -6.2 -6.1 -6.3 --- --- 9.6 ENE 0.16 11.3 -12.7 --- --- 721.5 0.017 0.000 9.3 5 1
02/15/06 12:44 a -6.1 -6.1 -6.2 --- --- 12.2 ENE 0.20 15.7 -13.3 --- --- 721.5 0.017 0.000 9.3 5 1
02/15/06 12:45 a -6.3 -6.3 -6.3 --- --- 13.0 ENE 0.22 14.8 -13.8 --- --- 721.4 0.017 0.000 9.3 5 1
02/15/06 12:46 a -6.4 -6.3 -6.5 --- --- 13.0 ENE 0.22 15.7 -13.9 --- --- 721.5 0.017 0.000 9.3 5 1
02/15/06 12:47 a -6.3 -6.2 -6.4 --- --- 11.3 NE 0.19 14.8 -13.4 --- --- 721.4 0.017 0.000 9.3 5 1
02/15/06 12:48 a -6.3 -6.2 -6.3 --- --- 17.4 NE 0.29 19.1 -14.9 --- --- 721.5 0.017 0.000 9.2 5 1
02/15/06 12:49 a -6.3 -6.3 -6.3 --- --- 15.7 NE 0.26 16.5 -14.6 --- --- 721.5 0.017 0.000 9.2 5 1
02/15/06 12:50 a -6.3 -6.3 -6.4 --- --- 13.9 ENE 0.23 15.7 -14.1 --- --- 721.6 0.017 0.000 9.2 5 1
02/15/06 12:51 a -6.1 -5.9 -6.3 --- --- 10.4 ENE 0.17 13.0 -12.8 --- --- 721.6 0.017 0.000 9.2 5 1
02/15/06 12:52 a -5.8 -5.8 -5.9 --- --- 8.7 E 0.14 10.4 -11.8 --- --- 721.5 0.017 0.000 9.2 5 1
02/15/06 12:53 a -6.1 -5.9 -6.1 --- --- 12.2 ENE 0.20 14.8 -13.3 --- --- 721.6 0.017 0.000 9.2 5 1
02/15/06 12:54 a -6.1 -5.9 -6.1 --- --- 11.3 ENE 0.19 13.0 -13.0 --- --- 721.5 0.017 0.000 9.2 5 1
02/15/06 12:55 a -5.9 -5.9 -6.0 --- --- 10.4 ENE 0.17 13.0 -12.6 --- --- 721.6 0.017 0.000 9.2 5 1
02/15/06 12:56 a -5.9 -5.8 -5.9 --- --- 13.0 ENE 0.22 16.5 -13.3 --- --- 721.6 0.017 0.000 9.2 5 1
02/15/06 12:57 a -6.0 -5.9 -6.1 --- --- 13.0 ENE 0.22 14.8 -13.4 --- --- 721.6 0.017 0.000 9.2 5 1
02/15/06 12:58 a -6.0 -6.0 -6.0 --- --- 12.2 ENE 0.20 13.9 -13.2 --- --- 721.6 0.017 0.000 9.2 5 1
02/15/06 12:59 a -6.1 -6.1 -6.1 --- --- 12.2 ENE 0.20 13.9 -13.3 --- --- 721.6 0.017 0.000 9.1 5 1
02/15/06 1:00 a -6.1 -6.1 -6.2 --- --- 11.3 ENE 0.19 13.9 -13.1 --- --- 721.6 0.017 0.000 9.1 5 1
02/15/06 1:01 a -6.2 -6.2 -6.2 --- --- 11.3 ENE 0.19 13.9 -13.2 --- --- 721.5 0.017 0.000 9.1 5 1
02/15/06 1:02 a -6.2 -6.2 -6.3 --- --- 13.0 ENE 0.22 15.7 -13.8 --- --- 721.5 0.017 0.000 9.1 5 1
02/15/06 1:03 a -6.4 -6.4 -6.6 --- --- 13.9 ENE 0.23 15.7 -14.3 --- --- 721.6 0.017 0.000 9.1 5 1
02/15/06 1:04 a -6.6 -6.6 -6.6 --- --- 12.2 ENE 0.20 13.9 -13.9 --- --- 721.6 0.017 0.000 9.1 5 1
02/15/06 1:05 a -6.6 -6.6 -6.6 --- --- 13.0 ENE 0.22 14.8 -14.2 --- --- 721.6 0.017 0.000 9.1 5 1
02/15/06 1:06 a -6.6 -6.6 -6.6 --- --- 11.3 ENE 0.19 12.2 -13.7 --- --- 721.6 0.017 0.000 9.1 5 1
02/15/06 1:07 a -6.6 -6.5 -6.6 --- --- 10.4 ENE 0.17 11.3 -13.4 --- --- 721.5 0.017 0.000 9.1 5 1
02/15/06 1:08 a -6.6 -6.6 -6.6 --- --- 11.3 ENE 0.19 12.2 -13.7 --- --- 721.6 0.017 0.000 9.0 5 1
02/15/06 1:09 a -6.6 -6.6 -6.6 --- --- 11.3 ENE 0.19 13.0 -13.7 --- --- 721.6 0.017 0.000 9.0 5 1
02/15/06 1:10 a -6.7 -6.7 -6.8 --- --- 12.2 ENE 0.20 13.0 -14.1 --- --- 721.6 0.017 0.000 9.0 5 1
02/15/06 1:11 a -6.8 -6.8 -6.9 --- --- 12.2 NE 0.20 13.9 -14.3 --- --- 721.5 0.017 0.000 9.1 5 1
02/15/06 1:12 a -6.9 -6.9 -7.0 --- --- 10.4 NE 0.17 12.2 -13.8 --- --- 721.6 0.018 0.000 9.1 5 1
02/15/06 1:13 a -7.0 -6.9 -7.0 --- --- 10.4 ENE 0.17 12.2 -13.9 --- --- 721.6 0.018 0.000 9.1 5 1
02/15/06 1:14 a -6.9 -6.9 -6.9 --- --- 11.3 NE 0.19 13.0 -14.1 --- --- 721.6 0.018 0.000 9.1 5 1
02/15/06 1:15 a -6.9 -6.9 -6.9 --- --- 12.2 NE 0.20 13.0 -14.4 --- --- 721.6 0.018 0.000 9.1 5 1
02/15/06 1:16 a -6.8 -6.8 -6.9 --- --- 10.4 ENE 0.17 13.9 -13.7 --- --- 721.5 0.017 0.000 9.1 5 1
02/15/06 1:17 a -6.7 -6.6 -6.7 --- --- 12.2 ENE 0.20 13.9 -14.1 --- --- 721.6 0.017 0.000 9.2 5 1
02/15/06 1:18 a -6.6 -6.5 -6.6 --- --- 10.4 ENE 0.17 11.3 -13.4 --- --- 721.6 0.017 0.000 9.2 5 1
02/15/06 1:19 a -6.5 -6.4 -6.5 --- --- 12.2 ENE 0.20 13.9 -13.8 --- --- 721.4 0.017 0.000 9.2 5 1
02/15/06 1:20 a -6.4 -6.4 -6.4 --- --- 13.0 ENE 0.22 13.9 -14.1 --- --- 721.5 0.017 0.000 9.2 5 1
02/15/06 1:21 a -6.3 -6.2 -6.5 --- --- 11.3 ENE 0.19 13.0 -13.4 --- --- 721.5 0.017 0.000 9.2 5 1
02/15/06 1:22 a -6.2 -6.2 -6.2 --- --- 11.3 ENE 0.19 12.2 -13.2 --- --- 721.5 0.017 0.000 9.2 5 1
02/15/06 1:23 a -6.2 -6.2 -6.2 --- --- 10.4 ENE 0.17 11.3 -12.9 --- --- 721.5 0.017 0.000 9.2 5 1
02/15/06 1:24 a -6.2 -6.2 -6.2 --- --- 9.6 ENE 0.16 11.3 -12.6 --- --- 721.5 0.017 0.000 9.2 5 1
02/15/06 1:25 a -6.1 -6.1 -6.2 --- --- 10.4 ENE 0.17 11.3 -12.8 --- --- 721.5 0.017 0.000 9.2 5 1
02/15/06 1:26 a -6.0 -5.9 -6.0 --- --- 9.6 ENE 0.16 10.4 -12.4 --- --- 721.5 0.017 0.000 9.2 5 1
02/15/06 1:27 a -5.9 -5.8 -5.9 --- --- 11.3 ENE 0.19 12.2 -12.8 --- --- 721.5 0.017 0.000 9.3 5 1
02/15/06 1:28 a -5.8 -5.7 -5.8 --- --- 10.4 ENE 0.17 12.2 -12.4 --- --- 721.5 0.017 0.000 9.3 5 1
02/15/06 1:29 a -5.5 -5.4 -5.7 --- --- 10.4 ENE 0.17 11.3 -12.1 --- --- 721.5 0.017 0.000 9.3 5 1
02/15/06 1:30 a -5.3 -5.2 -5.3 --- --- 11.3 NE 0.19 13.0 -12.1 --- --- 721.5 0.016 0.000 9.3 5 1
02/15/06 1:31 a -5.2 -5.2 -5.3 --- --- 10.4 NE 0.17 12.2 -11.7 --- --- 721.5 0.016 0.000 9.3 5 1
02/15/06 1:32 a -5.1 -5.1 -5.1 --- --- 11.3 ENE 0.19 12.2 -11.8 --- --- 721.4 0.016 0.000 9.3 5 1
02/15/06 1:33 a -5.1 -5.1 -5.2 --- --- 11.3 ENE 0.19 13.0 -11.8 --- --- 721.5 0.016 0.000 9.3 5 1
02/15/06 1:34 a -5.2 -5.2 -5.3 --- --- 11.3 ENE 0.19 13.0 -11.9 --- --- 721.5 0.016 0.000 9.3 5 1
02/15/06 1:35 a -5.2 -5.1 -5.2 --- --- 10.4 NE 0.17 11.3 -11.6 --- --- 721.4 0.016 0.000 9.3 5 1
02/15/06 1:36 a -5.1 -5.1 -5.2 --- --- 10.4 NE 0.17 12.2 -11.6 --- --- 721.4 0.016 0.000 9.3 5 1
02/15/06 1:37 a -5.2 -5.1 -5.2 --- --- 11.3 ENE 0.19 13.0 -11.9 --- --- 721.4 0.016 0.000 9.3 5 1
02/15/06 1:38 a -5.2 -5.2 -5.3 --- --- 11.3 NE 0.19 12.2 -11.9 --- --- 721.5 0.016 0.000 9.3 5 1
02/15/06 1:39 a -5.3 -5.3 -5.3 --- --- 10.4 NE 0.17 11.3 -11.8 --- --- 721.5 0.016 0.000 9.4 5 1
02/15/06 1:40 a -5.2 -5.2 -5.3 --- --- 11.3 NE 0.19 13.0 -11.9 --- --- 721.5 0.016 0.000 9.4 5 1
02/15/06 1:41 a -5.2 -5.1 -5.2 --- --- 10.4 NE 0.17 11.3 -11.6 --- --- 721.5 0.016 0.000 9.4 5 1
02/15/06 1:42 a -5.1 -5.1 -5.2 --- --- 10.4 ENE 0.17 11.3 -11.6 --- --- 721.5 0.016 0.000 9.4 5 1
02/15/06 1:43 a -5.3 -5.1 -5.4 --- --- 11.3 ENE 0.19 13.9 -12.1 --- --- 721.5 0.016 0.000 9.4 5 1
02/15/06 1:44 a -5.4 -5.4 -5.5 --- --- 12.2 ENE 0.20 14.8 -12.5 --- --- 721.5 0.017 0.000 9.4 5 1
02/15/06 1:45 a -5.4 -5.4 -5.5 --- --- 11.3 ENE 0.19 12.2 -12.2 --- --- 721.6 0.017 0.000 9.4 5 1
02/15/06 1:46 a -5.3 -5.3 -5.4 --- --- 8.7 NE 0.14 10.4 -11.2 --- --- 721.6 0.016 0.000 9.4 5 1
02/15/06 1:47 a -5.4 -5.3 -5.4 --- --- 12.2 ENE 0.20 13.9 -12.4 --- --- 721.5 0.016 0.000 9.4 5 1
02/15/06 1:48 a -5.4 -5.4 -5.5 --- --- 9.6 NE 0.16 11.3 -11.7 --- --- 721.5 0.017 0.000 9.4 5 1
02/15/06 1:49 a -5.6 -5.4 -5.7 --- --- 10.4 NE 0.17 12.2 -12.1 --- --- 721.5 0.017 0.000 9.4 5 1
02/15/06 1:50 a -5.8 -5.7 -5.8 --- --- 11.3 NE 0.19 12.2 -12.7 --- --- 721.5 0.017 0.000 9.4 5 1
02/15/06 1:51 a -5.8 -5.8 -5.8 --- --- 10.4 NE 0.17 12.2 -12.4 --- --- 721.5 0.017 0.000 9.4 5 1
02/15/06 1:52 a -5.7 -5.7 -5.8 --- --- 9.6 NE 0.16 11.3 -12.0 --- --- 721.5 0.017 0.000 9.4 5 1
02/15/06 1:53 a -5.7 -5.7 -5.8 --- --- 10.4 NE 0.17 11.3 -12.3 --- --- 721.6 0.017 0.000 9.4 5 1
02/15/06 1:54 a -5.8 -5.7 -5.8 --- --- 9.6 NE 0.16 11.3 -12.1 --- --- 721.5 0.017 0.000 9.4 5 1
02/15/06 1:55 a -5.8 -5.8 -5.8 --- --- 10.4 NE 0.17 11.3 -12.4 --- --- 721.5 0.017 0.000 9.5 5 1
02/15/06 1:56 a -6.0 -5.8 -6.1 --- --- 9.6 NE 0.16 10.4 -12.4 --- --- 721.5 0.017 0.000 9.5 5 1
02/15/06 1:57 a -6.2 -6.1 -6.2 --- --- 8.7 NE 0.14 10.4 -12.2 --- --- 721.6 0.017 0.000 9.5 5 1
02/15/06 1:58 a -6.2 -6.2 -6.3 --- --- 9.6 NE 0.16 11.3 -12.7 --- --- 721.5 0.017 0.000 9.5 5 1
02/15/06 1:59 a -6.4 -6.4 -6.6 --- --- 10.4 NE 0.17 11.3 -13.2 --- --- 721.6 0.017 0.000 9.5 5 1
02/15/06 2:00 a -6.6 -6.6 -6.6 --- --- 9.6 NE 0.16 11.3 -13.1 --- --- 721.5 0.017 0.000 9.5 5 1
02/15/06 2:01 a -6.6 -6.5 -6.6 --- --- 9.6 NE 0.16 11.3 -13.1 --- --- 721.6 0.017 0.000 9.6 5 1
02/15/06 2:02 a -6.4 -6.3 -6.4 --- --- 10.4 NE 0.17 12.2 -13.2 --- --- 721.5 0.017 0.000 9.6 5 1
02/15/06 2:03 a -6.3 -6.2 -6.3 --- --- 10.4 NE 0.17 12.2 -13.0 --- --- 721.6 0.017 0.000 9.6 5 1
02/15/06 2:04 a -6.3 -6.3 -6.3 --- --- 10.4 NE 0.17 12.2 -13.0 --- --- 721.5 0.017 0.000 9.6 6 1
02/15/06 2:05 a -6.3 -6.2 -6.3 --- --- 9.6 NE 0.16 10.4 -12.7 --- --- 721.6 0.017 0.000 9.6 5 1
02/15/06 2:06 a -6.2 -6.2 -6.3 --- --- 11.3 NE 0.19 13.9 -13.2 --- --- 721.5 0.017 0.000 9.6 5 1
02/15/06 2:07 a -6.3 -6.2 -6.3 --- --- 12.2 NE 0.20 13.0 -13.6 --- --- 721.6 0.017 0.000 9.6 5 1
02/15/06 2:08 a -6.2 -6.2 -6.3 --- --- 8.7 NE 0.14 11.3 -12.3 --- --- 721.6 0.017 0.000 9.6 5 1
02/15/06 2:09 a -6.2 -6.1 -6.2 --- --- 8.7 NE 0.14 10.4 -12.2 --- --- 721.5 0.017 0.000 9.6 5 1
02/15/06 2:10 a -6.1 -6.1 -6.2 --- --- 9.6 NE 0.16 12.2 -12.5 --- --- 721.6 0.017 0.000 9.6 5 1
02/15/06 2:11 a -6.3 -6.2 -6.3 --- --- 11.3 NE 0.19 13.0 -13.3 --- --- 721.6 0.017 0.000 9.6 5 1
02/15/06 2:12 a -6.3 -6.3 -6.3 --- --- 10.4 NE 0.17 11.3 -13.1 --- --- 721.6 0.017 0.000 9.6 5 1
02/15/06 2:13 a -6.2 -6.2 -6.3 --- --- 9.6 NE 0.16 11.3 -12.7 --- --- 721.6 0.017 0.000 9.6 5 1
02/15/06 2:14 a -6.3 -6.3 -6.3 --- --- 11.3 NE 0.19 13.0 -13.4 --- --- 721.6 0.017 0.000 9.6 5 1
02/15/06 2:15 a -6.3 -6.3 -6.3 --- --- 12.2 NE 0.20 13.0 -13.6 --- --- 721.6 0.017 0.000 9.6 5 1
02/15/06 2:16 a -6.3 -6.2 -6.3 --- --- 10.4 NE 0.17 13.0 -13.0 --- --- 721.6 0.017 0.000 9.6 6 1
02/15/06 2:17 a -6.2 -6.2 -6.2 --- --- 8.7 NE 0.14 10.4 -12.3 --- --- 721.7 0.017 0.000 9.6 6 1
02/15/06 2:18 a -6.2 -6.2 -6.3 --- --- 11.3 NE 0.19 14.8 -13.2 --- --- 721.6 0.017 0.000 9.6 6 1
02/15/06 2:19 a -6.3 -6.3 -6.3 --- --- 10.4 NE 0.17 12.2 -13.0 --- --- 721.6 0.017 0.000 9.6 6 1
02/15/06 2:20 a -6.2 -6.2 -6.2 --- --- 11.3 NE 0.19 13.0 -13.2 --- --- 721.7 0.017 0.000 9.6 6 1
02/15/06 2:21 a -6.1 -6.1 -6.2 --- --- 9.6 NE 0.16 11.3 -12.5 --- --- 721.6 0.017 0.000 9.6 5 1
02/15/06 2:22 a -6.1 -5.9 -6.1 --- --- 10.4 NE 0.17 11.3 -12.7 --- --- 721.6 0.017 0.000 9.6 6 1
02/15/06 2:23 a -5.9 -5.8 -5.9 --- --- 10.4 NE 0.17 12.2 -12.5 --- --- 721.7 0.017 0.000 9.6 6 1
02/15/06 2:24 a -5.7 -5.5 -5.7 --- --- 11.3 NE 0.19 13.0 -12.6 --- --- 721.6 0.017 0.000 9.6 6 1
02/15/06 2:25 a -5.4 -5.4 -5.5 --- --- 11.3 NE 0.19 12.2 -12.2 --- --- 721.6 0.017 0.000 9.6 6 1
02/15/06 2:26 a -5.5 -5.4 -5.5 --- --- 11.3 NE 0.19 12.2 -12.3 --- --- 721.7 0.017 0.000 9.6 6 1
02/15/06 2:27 a -5.3 -5.1 -5.4 --- --- 8.7 NE 0.14 10.4 -11.1 --- --- 721.8 0.016 0.000 9.7 6 1
02/15/06 2:28 a -5.2 -5.0 -5.3 --- --- 8.7 NNE 0.14 10.4 -11.0 --- --- 721.8 0.016 0.000 9.7 6 1
02/15/06 2:29 a -5.2 -4.9 -5.3 --- --- 7.8 NNE 0.13 10.4 -10.7 --- --- 721.7 0.016 0.000 9.7 6 1
02/15/06 2:30 a -4.7 -4.4 -4.8 --- --- 10.4 NE 0.17 12.2 -11.0 --- --- 721.7 0.016 0.000 9.6 6 1
02/15/06 2:31 a -4.4 -4.4 -4.4 --- --- 10.4 NE 0.17 12.2 -10.7 --- --- 721.8 0.016 0.000 9.6 6 1
02/15/06 2:32 a -4.5 -4.4 -4.6 --- --- 8.7 NE 0.14 10.4 -10.2 --- --- 721.8 0.016 0.000 9.6 6 1
02/15/06 2:33 a -4.5 -4.4 -4.5 --- --- 7.0 NE 0.12 7.8 -9.4 --- --- 721.8 0.016 0.000 9.6 6 1
02/15/06 2:34 a -4.5 -4.5 -4.6 --- --- 9.6 NE 0.16 11.3 -10.5 --- --- 721.8 0.016 0.000 9.6 6 1
02/15/06 2:35 a -4.6 -4.6 -4.7 --- --- 8.7 NE 0.14 9.6 -10.3 --- --- 721.8 0.016 0.000 9.6 6 1
02/15/06 2:36 a -4.6 -4.5 -4.7 --- --- 8.7 NE 0.14 10.4 -10.2 --- --- 721.8 0.016 0.000 9.5 6 1
02/15/06 2:37 a -4.4 -4.4 -4.5 --- --- 10.4 NE 0.17 11.3 -10.7 --- --- 721.8 0.016 0.000 9.5 6 1
02/15/06 2:38 a -4.6 -4.5 -4.6 --- --- 10.4 NE 0.17 11.3 -10.8 --- --- 721.8 0.016 0.000 9.5 6 1
02/15/06 2:39 a -4.7 -4.6 -4.7 --- --- 9.6 NE 0.16 11.3 -10.7 --- --- 721.8 0.016 0.000 9.5 5 1
02/15/06 2:40 a -4.6 -4.5 -4.7 --- --- 8.7 NE 0.14 10.4 -10.3 --- --- 721.9 0.016 0.000 9.4 6 1
02/15/06 2:41 a -4.4 -4.3 -4.5 --- --- 7.8 NE 0.13 8.7 -9.8 --- --- 721.9 0.016 0.000 9.4 6 1
02/15/06 2:42 a -4.2 -4.2 -4.2 --- --- 7.8 NE 0.13 10.4 -9.5 --- --- 721.8 0.016 0.000 9.4 5 1
02/15/06 2:43 a -4.2 -4.2 -4.3 --- --- 8.7 NE 0.14 12.2 -9.8 --- --- 721.8 0.016 0.000 9.4 6 1
02/15/06 2:44 a -4.2 -4.2 -4.3 --- --- 9.6 NE 0.16 11.3 -10.2 --- --- 721.8 0.016 0.000 9.4 5 1
02/15/06 2:45 a -4.2 -4.1 -4.3 --- --- 10.4 NE 0.17 10.4 -10.4 --- --- 721.9 0.016 0.000 9.4 6 1
02/15/06 2:46 a -3.9 -3.7 -4.1 --- --- 9.6 NE 0.16 10.4 -9.7 --- --- 721.9 0.015 0.000 9.4 5 1
02/15/06 2:47 a -3.6 -3.5 -3.7 --- --- 8.7 NE 0.14 9.6 -9.1 --- --- 721.9 0.015 0.000 9.4 5 1
02/15/06 2:48 a -3.4 -3.3 -3.4 --- --- 9.6 NE 0.16 11.3 -9.1 --- --- 721.8 0.015 0.000 9.4 5 1
02/15/06 2:49 a -3.4 -3.4 -3.5 --- --- 10.4 NE 0.17 12.2 -9.4 --- --- 721.8 0.015 0.000 9.4 5 1
02/15/06 2:50 a -3.7 -3.6 -3.8 --- --- 10.4 NE 0.17 11.3 -9.7 --- --- 721.7 0.015 0.000 9.4 5 1
02/15/06 2:51 a -3.8 -3.8 -3.9 --- --- 10.4 NE 0.17 11.3 -9.9 --- --- 721.8 0.015 0.000 9.3 5 1
02/15/06 2:52 a -3.9 -3.9 -4.0 --- --- 9.6 NE 0.16 11.3 -9.8 --- --- 721.7 0.015 0.000 9.3 5 1
02/15/06 2:53 a -3.8 -3.8 -3.9 --- --- 9.6 NE 0.16 10.4 -9.7 --- --- 721.8 0.015 0.000 9.3 5 1
02/15/06 2:54 a -3.7 -3.7 -3.8 --- --- 9.6 NE 0.16 10.4 -9.5 --- --- 721.7 0.015 0.000 9.3 5 1
02/15/06 2:55 a -3.8 -3.8 -3.9 --- --- 9.6 NE 0.16 10.4 -9.7 --- --- 721.7 0.015 0.000 9.3 5 1
02/15/06 2:56 a -3.8 -3.7 -3.9 --- --- 7.8 NE 0.13 9.6 -8.9 --- --- 721.8 0.015 0.000 9.3 5 1
02/15/06 2:57 a -3.6 -3.5 -3.7 --- --- 7.8 NE 0.13 9.6 -8.7 --- --- 721.8 0.015 0.000 9.3 5 1
02/15/06 2:58 a -3.4 -3.4 -3.4 --- --- 7.8 NE 0.13 9.6 -8.4 --- --- 721.8 0.015 0.000 9.3 5 1
02/15/06 2:59 a -3.3 -3.2 -3.3 --- --- 8.7 NE 0.14 9.6 -8.7 --- --- 721.9 0.015 0.000 9.3 5 1
02/15/06 3:00 a -3.3 -3.3 -3.3 --- --- 8.7 NE 0.14 10.4 -8.7 --- --- 721.8 0.015 0.000 9.2 5 1
02/15/06 3:01 a -3.3 -3.3 -3.4 --- --- 8.7 NE 0.14 10.4 -8.7 --- --- 721.8 0.015 0.000 9.2 5 1
02/15/06 3:02 a -3.4 -3.4 -3.5 --- --- 8.7 NE 0.14 9.6 -8.9 --- --- 721.8 0.015 0.000 9.2 5 1
02/15/06 3:03 a -3.4 -3.3 -3.5 --- --- 8.7 NE 0.14 10.4 -8.8 --- --- 721.8 0.015 0.000 9.2 5 1
02/15/06 3:04 a -3.6 -3.6 -3.6 --- --- 8.7 NE 0.14 10.4 -9.0 --- --- 721.7 0.015 0.000 9.2 5 1
02/15/06 3:05 a -3.6 -3.6 -3.7 --- --- 8.7 NE 0.14 9.6 -9.1 --- --- 721.8 0.015 0.000 9.2 5 1
02/15/06 3:06 a -3.7 -3.7 -3.7 --- --- 9.6 NE 0.16 11.3 -9.4 --- --- 721.8 0.015 0.000 9.2 5 1
02/15/06 3:07 a -3.7 -3.7 -3.7 --- --- 9.6 NE 0.16 10.4 -9.5 --- --- 721.8 0.015 0.000 9.2 5 1
02/15/06 3:08 a -3.7 -3.7 -3.7 --- --- 7.8 NE 0.13 9.6 -8.8 --- --- 721.8 0.015 0.000 9.2 5 1
02/15/06 3:09 a -3.7 -3.6 -3.7 --- --- 7.0 NE 0.12 8.7 -8.4 --- --- 721.9 0.015 0.000 9.2 5 1
02/15/06 3:10 a -3.6 -3.6 -3.7 --- --- 8.7 ENE 0.14 10.4 -9.1 --- --- 721.9 0.015 0.000 9.2 5 1
02/15/06 3:11 a -3.6 -3.6 -3.7 --- --- 8.7 ENE 0.14 10.4 -9.1 --- --- 721.8 0.015 0.000 9.2 5 1
02/15/06 3:12 a -3.7 -3.7 -3.8 --- --- 8.7 NE 0.14 10.4 -9.2 --- --- 721.9 0.015 0.000 9.2 5 1
02/15/06 3:13 a -3.7 -3.7 -3.8 --- --- 9.6 NE 0.16 10.4 -9.5 --- --- 721.9 0.015 0.000 9.2 5 1
02/15/06 3:14 a -3.6 -3.6 -3.7 --- --- 8.7 NE 0.14 10.4 -9.1 --- --- 721.8 0.015 0.000 9.2 5 1
02/15/06 3:15 a -3.6 -3.6 -3.7 --- --- 8.7 NE 0.14 9.6 -9.1 --- --- 721.8 0.015 0.000 9.2 5 1
02/15/06 3:16 a -3.7 -3.7 -3.7 --- --- 9.6 NE 0.16 10.4 -9.4 --- --- 721.8 0.015 0.000 9.2 5 1
02/15/06 3:17 a -3.7 -3.6 -3.7 --- --- 8.7 NE 0.14 11.3 -9.2 --- --- 721.8 0.015 0.000 9.2 5 1
02/15/06 3:18 a -3.7 -3.6 -3.7 --- --- 10.4 NE 0.17 11.3 -9.7 --- --- 721.8 0.015 0.000 9.2 5 1
02/15/06 3:19 a -3.7 -3.6 -3.7 --- --- 10.4 NE 0.17 11.3 -9.7 --- --- 722.0 0.015 0.000 9.2 5 1
02/15/06 3:20 a -3.6 -3.5 -3.6 --- --- 10.4 NE 0.17 11.3 -9.6 --- --- 721.8 0.015 0.000 9.2 5 1
02/15/06 3:21 a -3.4 -3.4 -3.5 --- --- 8.7 NE 0.14 9.6 -8.9 --- --- 721.8 0.015 0.000 9.2 5 1
02/15/06 3:22 a -3.5 -3.4 -3.6 --- --- 10.4 NE 0.17 11.3 -9.5 --- --- 721.8 0.015 0.000 9.2 5 1
02/15/06 3:23 a -3.6 -3.5 -3.7 --- --- 10.4 NE 0.17 11.3 -9.6 --- --- 721.8 0.015 0.000 9.2 5 1
02/15/06 3:24 a -3.8 -3.7 -3.8 --- --- 10.4 NE 0.17 11.3 -9.9 --- --- 721.8 0.015 0.000 9.2 5 1
02/15/06 3:25 a -3.7 -3.7 -3.7 --- --- 9.6 NE 0.16 11.3 -9.5 --- --- 721.9 0.015 0.000 9.2 5 1
02/15/06 3:26 a -3.7 -3.7 -3.8 --- --- 9.6 ENE 0.16 11.3 -9.5 --- --- 721.9 0.015 0.000 9.2 5 1
02/15/06 3:27 a -3.7 -3.7 -3.8 --- --- 9.6 NE 0.16 10.4 -9.5 --- --- 721.9 0.015 0.000 9.2 5 1
02/15/06 3:28 a -3.8 -3.8 -3.9 --- --- 8.7 NE 0.14 11.3 -9.3 --- --- 722.0 0.015 0.000 9.2 5 1
02/15/06 3:29 a -3.9 -3.9 -4.0 --- --- 9.6 NE 0.16 10.4 -9.8 --- --- 722.0 0.015 0.000 9.2 5 1
02/15/06 3:30 a -3.9 -3.9 -3.9 --- --- 11.3 NE 0.19 12.2 -10.3 --- --- 721.9 0.015 0.000 9.2 5 1
02/15/06 3:31 a -3.9 -3.9 -3.9 --- --- 9.6 NE 0.16 11.3 -9.7 --- --- 721.9 0.015 0.000 9.2 5 1
02/15/06 3:32 a -3.8 -3.5 -3.9 --- --- 8.7 NE 0.14 10.4 -9.3 --- --- 722.0 0.015 0.000 9.2 5 1
02/15/06 3:33 a -3.4 -3.3 -3.4 --- --- 8.7 NE 0.14 10.4 -8.8 --- --- 721.9 0.015 0.000 9.2 5 1
02/15/06 3:34 a -3.2 -3.2 -3.3 --- --- 8.7 ENE 0.14 10.4 -8.6 --- --- 722.0 0.015 0.000 9.2 5 1
02/15/06 3:35 a -3.2 -3.0 -3.2 --- --- 7.8 ENE 0.13 9.6 -8.2 --- --- 722.0 0.015 0.000 9.2 5 1
02/15/06 3:36 a -2.9 -2.8 -2.9 --- --- 8.7 NE 0.14 10.4 -8.2 --- --- 721.9 0.015 0.000 9.2 5 1
02/15/06 3:37 a -2.8 -2.8 -2.9 --- --- 8.7 NE 0.14 9.6 -8.1 --- --- 722.1 0.015 0.000 9.2 5 1
02/15/06 3:38 a -2.8 -2.7 -2.9 --- --- 7.8 NE 0.13 9.6 -7.8 --- --- 722.0 0.015 0.000 9.3 5 1
02/15/06 3:39 a -2.7 -2.6 -2.7 --- --- 7.8 NE 0.13 9.6 -7.6 --- --- 722.0 0.015 0.000 9.3 5 1
02/15/06 3:40 a -2.7 -2.7 -2.7 --- --- 8.7 NE 0.14 9.6 -7.9 --- --- 722.0 0.015 0.000 9.3 5 1
02/15/06 3:41 a -2.8 -2.7 -2.9 --- --- 8.7 NE 0.14 9.6 -8.1 --- --- 721.9 0.015 0.000 9.3 5 1
02/15/06 3:42 a -2.9 -2.8 -3.1 --- --- 7.8 NE 0.13 9.6 -7.9 --- --- 722.0 0.015 0.000 9.3 5 1
02/15/06 3:43 a -3.1 -3.1 -3.2 --- --- 7.8 NE 0.13 8.7 -8.1 --- --- 722.0 0.015 0.000 9.3 5 1
02/15/06 3:44 a -3.1 -3.0 -3.1 --- --- 7.8 NE 0.13 8.7 -8.1 --- --- 722.0 0.015 0.000 9.3 5 1
02/15/06 3:45 a -2.9 -2.8 -3.0 --- --- 7.0 NE 0.12 8.7 -7.6 --- --- 722.0 0.015 0.000 9.3 5 1
02/15/06 3:46 a -2.7 -2.7 -2.8 --- --- 7.0 NE 0.12 8.7 -7.3 --- --- 722.0 0.015 0.000 9.3 4 1
02/15/06 3:47 a -2.9 -2.9 -2.9 --- --- 7.8 NE 0.13 8.7 -7.8 --- --- 722.1 0.015 0.000 9.3 5 1
02/15/06 3:48 a -3.0 -2.9 -3.1 --- --- 7.8 NE 0.13 8.7 -8.0 --- --- 722.1 0.015 0.000 9.3 5 1
02/15/06 3:49 a -3.3 -3.2 -3.6 --- --- 8.7 NE 0.14 9.6 -8.7 --- --- 722.0 0.015 0.000 9.3 5 1
02/15/06 3:50 a -3.6 -3.5 -3.6 --- --- 8.7 NE 0.14 9.6 -9.0 --- --- 722.0 0.015 0.000 9.3 5 1
02/15/06 3:51 a -3.5 -3.5 -3.6 --- --- 7.8 NE 0.13 8.7 -8.6 --- --- 722.1 0.015 0.000 9.3 5 1
02/15/06 3:52 a -3.8 -3.6 -3.9 --- --- 7.0 NE 0.12 8.7 -8.6 --- --- 722.1 0.015 0.000 9.3 5 1
02/15/06 3:53 a -3.9 -3.8 -3.9 --- --- 7.0 ENE 0.12 7.8 -8.7 --- --- 722.1 0.015 0.000 9.3 5 1
02/15/06 3:54 a -3.7 -3.6 -3.7 --- --- 5.2 NE 0.09 6.1 -7.6 --- --- 722.1 0.015 0.000 9.3 5 1
02/15/06 3:55 a -3.8 -3.7 -4.0 --- --- 6.1 NE 0.10 7.8 -8.2 --- --- 722.1 0.015 0.000 9.3 5 1
02/15/06 3:56 a -4.1 -4.0 -4.1 --- --- 6.1 NE 0.10 7.8 -8.5 --- --- 722.0 0.016 0.000 9.3 5 1
02/15/06 3:57 a -4.2 -4.2 -4.3 --- --- 7.0 NE 0.12 7.8 -9.1 --- --- 722.1 0.016 0.000 9.3 4 1
02/15/06 3:58 a -4.3 -4.3 -4.3 --- --- 5.2 NE 0.09 8.7 -8.3 --- --- 722.1 0.016 0.000 9.3 5 1
02/15/06 3:59 a -4.3 -4.3 -4.3 --- --- 7.8 NE 0.13 8.7 -9.6 --- --- 722.1 0.016 0.000 9.3 5 1
02/15/06 4:00 a -4.3 -4.1 -4.3 --- --- 7.0 ENE 0.12 8.7 -9.2 --- --- 722.0 0.016 0.000 9.3 5 1
02/15/06 4:01 a -4.0 -4.0 -4.0 --- --- 8.7 NE 0.14 9.6 -9.6 --- --- 722.0 0.016 0.000 9.3 5 1
02/15/06 4:02 a -4.0 -4.0 -4.1 --- --- 8.7 NE 0.14 10.4 -9.6 --- --- 722.0 0.016 0.000 9.3 5 1
02/15/06 4:03 a -4.0 -3.9 -4.1 --- --- 7.8 NE 0.13 9.6 -9.2 --- --- 722.1 0.016 0.000 9.3 4 1
02/15/06 4:04 a -3.8 -3.8 -3.8 --- --- 6.1 NE 0.10 7.8 -8.2 --- --- 722.1 0.015 0.000 9.3 4 1
02/15/06 4:05 a -4.0 -3.8 -4.3 --- --- 7.0 NE 0.12 7.8 -8.8 --- --- 722.0 0.016 0.000 9.3 5 1
02/15/06 4:06 a -4.7 -4.4 -5.1 --- --- 7.8 NE 0.13 8.7 -10.1 --- --- 722.1 0.016 0.000 9.3 4 1
02/15/06 4:07 a -5.4 -5.2 -5.6 --- --- 7.8 NE 0.13 8.7 -10.9 --- --- 722.0 0.016 0.000 9.3 4 1
02/15/06 4:08 a -5.8 -5.7 -6.1 --- --- 8.7 NE 0.14 9.6 -11.8 --- --- 722.0 0.017 0.000 9.3 4 1
02/15/06 4:09 a -6.2 -6.1 -6.3 --- --- 8.7 NE 0.14 10.4 -12.2 --- --- 722.0 0.017 0.000 9.2 4 1
02/15/06 4:10 a -6.3 -6.3 -6.3 --- --- 8.7 NE 0.14 9.6 -12.4 --- --- 722.1 0.017 0.000 9.2 4 1
02/15/06 4:11 a -6.3 -6.3 -6.3 --- --- 8.7 NE 0.14 9.6 -12.4 --- --- 722.1 0.017 0.000 9.2 4 1
02/15/06 4:12 a -6.4 -6.3 -6.4 --- --- 7.0 NE 0.12 8.7 -11.8 --- --- 722.2 0.017 0.000 9.2 4 1
02/15/06 4:13 a -6.4 -6.4 -6.4 --- --- 7.0 NE 0.12 7.8 -11.8 --- --- 722.1 0.017 0.000 9.2 4 1
02/15/06 4:14 a -6.4 -6.4 -6.5 --- --- 7.8 NE 0.13 8.7 -12.2 --- --- 722.1 0.017 0.000 9.2 4 1
02/15/06 4:15 a -6.5 -6.5 -6.5 --- --- 7.8 NE 0.13 8.7 -12.3 --- --- 722.2 0.017 0.000 9.2 4 1
02/15/06 4:16 a -6.5 -6.4 -6.5 --- --- 7.8 NE 0.13 8.7 -12.3 --- --- 722.1 0.017 0.000 9.2 4 1
02/15/06 4:17 a -6.4 -6.4 -6.6 --- --- 7.8 NE 0.13 8.7 -12.2 --- --- 722.1 0.017 0.000 9.2 4 1
02/15/06 4:18 a -6.6 -6.4 -6.6 --- --- 5.2 NE 0.09 7.0 -11.0 --- --- 722.1 0.017 0.000 9.2 4 1
02/15/06 4:19 a -6.2 -6.0 -6.3 --- --- 6.1 NE 0.10 7.0 -11.1 --- --- 722.1 0.017 0.000 9.2 4 1
02/15/06 4:20 a -5.7 -5.3 -5.9 --- --- 7.0 NE 0.12 8.7 -10.9 --- --- 722.1 0.017 0.000 9.2 4 1
02/15/06 4:21 a -5.0 -4.8 -5.2 --- --- 7.8 NE 0.13 9.6 -10.4 --- --- 722.1 0.016 0.000 9.2 4 1
02/15/06 4:22 a -4.4 -4.2 -4.7 --- --- 7.0 NE 0.12 7.8 -9.4 --- --- 722.1 0.016 0.000 9.2 4 1
02/15/06 4:23 a -4.1 -3.9 -4.1 --- --- 7.8 NE 0.13 8.7 -9.3 --- --- 722.1 0.016 0.000 9.2 4 1
02/15/06 4:24 a -3.8 -3.7 -3.9 --- --- 7.0 NE 0.12 7.8 -8.6 --- --- 722.1 0.015 0.000 9.2 4 1
02/15/06 4:25 a -3.6 -3.4 -3.7 --- --- 6.1 NE 0.10 7.0 -7.9 --- --- 722.1 0.015 0.000 9.2 4 1
02/15/06 4:26 a -3.3 -3.1 -3.4 --- --- 6.1 NE 0.10 7.8 -7.6 --- --- 722.1 0.015 0.000 9.2 4 1
02/15/06 4:27 a -3.1 -3.1 -3.3 --- --- 5.2 NE 0.09 6.1 -6.9 --- --- 722.0 0.015 0.000 9.2 4 1
02/15/06 4:28 a -3.2 -3.2 -3.3 --- --- 3.5 NNE 0.06 6.1 -5.9 --- --- 722.1 0.015 0.000 9.2 4 1
02/15/06 4:29 a -3.6 -3.3 -4.2 --- --- 3.5 N 0.06 4.3 -6.3 --- --- 722.0 0.015 0.000 9.2 4 1
02/15/06 4:30 a -4.3 -4.2 -4.6 --- --- 4.3 NNW 0.07 5.2 -7.8 --- --- 722.1 0.016 0.000 9.2 4 1
02/15/06 4:31 a -4.7 -4.7 -4.8 --- --- 5.2 NNW 0.09 7.0 -8.8 --- --- 722.1 0.016 0.000 9.2 4 1
02/15/06 4:32 a -4.9 -4.7 -5.2 --- --- 4.3 N 0.07 5.2 -8.5 --- --- 722.1 0.016 0.000 9.2 4 1
02/15/06 4:33 a -5.3 -5.3 -5.4 --- --- 4.3 N 0.07 5.2 -9.0 --- --- 722.1 0.016 0.000 9.2 4 1
02/15/06 4:34 a -5.4 -5.3 -5.5 --- --- 5.2 N 0.09 7.0 -9.7 --- --- 722.0 0.017 0.000 9.2 4 1
02/15/06 4:35 a -5.6 -5.5 -5.6 --- --- 5.2 N 0.09 7.0 -9.8 --- --- 722.2 0.017 0.000 9.2 4 1
02/15/06 4:36 a -5.4 -5.3 -5.5 --- --- 4.3 N 0.07 6.1 -9.1 --- --- 722.1 0.017 0.000 9.3 4 1
02/15/06 4:37 a -5.4 -5.3 -5.4 --- --- 6.1 N 0.10 7.0 -10.1 --- --- 722.1 0.016 0.000 9.3 4 1
02/15/06 4:38 a -5.5 -5.4 -5.7 --- --- 6.1 N 0.10 7.0 -10.2 --- --- 722.1 0.017 0.000 9.3 4 1
02/15/06 4:39 a -5.9 -5.8 -5.9 --- --- 4.3 N 0.07 6.1 -9.7 --- --- 722.1 0.017 0.000 9.3 4 1
02/15/06 4:40 a -5.9 -5.7 -6.0 --- --- 6.1 N 0.10 7.0 -10.7 --- --- 722.2 0.017 0.000 9.3 4 1
02/15/06 4:41 a -5.6 -5.4 -5.7 --- --- 5.2 N 0.09 7.0 -9.8 --- --- 722.1 0.017 0.000 9.3 4 1
02/15/06 4:42 a -5.4 -5.3 -5.4 --- --- 6.1 NNW 0.10 7.0 -10.1 --- --- 722.1 0.016 0.000 9.3 4 1
02/15/06 4:43 a -5.4 -5.4 -5.6 --- --- 6.1 NNW 0.10 7.0 -10.2 --- --- 722.2 0.017 0.000 9.3 4 1
02/15/06 4:44 a -5.6 -5.6 -5.7 --- --- 6.1 NNW 0.10 7.0 -10.4 --- --- 722.2 0.017 0.000 9.3 4 1
02/15/06 4:45 a -5.4 -5.4 -5.5 --- --- 6.1 NNW 0.10 7.0 -10.2 --- --- 722.2 0.017 0.000 9.3 4 1
02/15/06 4:46 a -5.5 -5.5 -5.6 --- --- 6.1 NNW 0.10 7.8 -10.2 --- --- 722.2 0.017 0.000 9.3 4 1
02/15/06 4:47 a -5.8 -5.6 -5.9 --- --- 6.1 NNW 0.10 7.0 -10.6 --- --- 722.3 0.017 0.000 9.3 4 1
02/15/06 4:48 a -6.0 -5.9 -6.1 --- --- 5.2 NNW 0.09 7.0 -10.3 --- --- 722.2 0.017 0.000 9.3 4 1
02/15/06 4:49 a -6.0 -5.9 -6.1 --- --- 5.2 NNW 0.09 7.0 -10.3 --- --- 722.2 0.017 0.000 9.3 4 1
02/15/06 4:50 a -5.9 -5.8 -5.9 --- --- 6.1 N 0.10 7.0 -10.7 --- --- 722.1 0.017 0.000 9.3 4 1
02/15/06 4:51 a -5.8 -5.8 -5.8 --- --- 5.2 N 0.09 7.8 -10.2 --- --- 722.2 0.017 0.000 9.3 4 1
02/15/06 4:52 a -5.9 -5.8 -5.9 --- --- 4.3 N 0.07 5.2 -9.7 --- --- 722.2 0.017 0.000 9.3 4 1
02/15/06 4:53 a -5.9 -5.8 -6.1 --- --- 5.2 N 0.09 7.0 -10.3 --- --- 722.3 0.017 0.000 9.3 4 1
02/15/06 4:54 a -6.1 -6.1 -6.2 --- --- 5.2 N 0.09 5.2 -10.5 --- --- 722.2 0.017 0.000 9.3 4 1
02/15/06 4:55 a -6.2 -6.1 -6.3 --- --- 6.1 N 0.10 7.0 -11.1 --- --- 722.3 0.017 0.000 9.3 4 1
02/15/06 4:56 a -6.2 -6.2 -6.2 --- --- 6.1 N 0.10 7.8 -11.1 --- --- 722.2 0.017 0.000 9.3 4 1
02/15/06 4:57 a -6.0 -5.8 -6.2 --- --- 6.1 NNW 0.10 8.7 -10.8 --- --- 722.2 0.017 0.000 9.3 4 1
02/15/06 4:58 a -5.7 -5.6 -5.7 --- --- 6.1 NNW 0.10 7.8 -10.4 --- --- 722.2 0.017 0.000 9.3 4 1
02/15/06 4:59 a -5.4 -5.4 -5.5 --- --- 7.0 NNW 0.12 7.0 -10.6 --- --- 722.2 0.017 0.000 9.3 4 1
02/15/06 5:00 a -5.3 -5.2 -5.3 --- --- 6.1 NNW 0.10 7.0 -10.0 --- --- 722.3 0.016 0.000 9.3 5 1
02/15/06 5:01 a -5.2 -5.1 -5.2 --- --- 7.0 NNW 0.12 8.7 -10.3 --- --- 722.3 0.016 0.000 9.3 5 1
02/15/06 5:02 a -5.1 -5.1 -5.2 --- --- 6.1 NNW 0.10 7.8 -9.8 --- --- 722.2 0.016 0.000 9.3 4 1
02/15/06 5:03 a -5.1 -5.1 -5.2 --- --- 6.1 NNW 0.10 7.8 -9.8 --- --- 722.2 0.016 0.000 9.3 5 1
02/15/06 5:04 a -5.1 -4.9 -5.3 --- --- 6.1 NNW 0.10 7.0 -9.8 --- --- 722.2 0.016 0.000 9.3 4 1
02/15/06 5:05 a -4.9 -4.8 -5.1 --- --- 5.2 NNW 0.09 7.8 -9.1 --- --- 722.3 0.016 0.000 9.3 5 1
02/15/06 5:06 a -5.0 -4.9 -5.1 --- --- 5.2 NNW 0.09 7.0 -9.2 --- --- 722.2 0.016 0.000 9.3 5 1
02/15/06 5:07 a -5.1 -4.9 -5.2 --- --- 6.1 NNW 0.10 7.0 -9.8 --- --- 722.2 0.016 0.000 9.3 5 1
02/15/06 5:08 a -4.9 -4.8 -5.1 --- --- 6.1 NNW 0.10 7.0 -9.5 --- --- 722.3 0.016 0.000 9.3 5 1
02/15/06 5:09 a -4.8 -4.8 -4.9 --- --- 5.2 NNW 0.09 6.1 -8.9 --- --- 722.3 0.016 0.000 9.4 5 1
02/15/06 5:10 a -5.0 -4.9 -5.1 --- --- 4.3 NNW 0.07 6.1 -8.6 --- --- 722.3 0.016 0.000 9.4 5 1
02/15/06 5:11 a -5.1 -4.9 -5.1 --- --- 6.1 NNW 0.10 7.0 -9.7 --- --- 722.2 0.016 0.000 9.4 4 1
02/15/06 5:12 a -4.8 -4.7 -4.9 --- --- 6.1 NNW 0.10 7.0 -9.4 --- --- 722.3 0.016 0.000 9.4 5 1
02/15/06 5:13 a -4.8 -4.8 -4.9 --- --- 4.3 NNW 0.07 6.1 -8.4 --- --- 722.2 0.016 0.000 9.4 5 1
02/15/06 5:14 a -5.0 -4.9 -5.1 --- --- 6.1 NNW 0.10 7.8 -9.6 --- --- 722.2 0.016 0.000 9.4 5 1
02/15/06 5:15 a -4.8 -4.7 -4.9 --- --- 5.2 NNW 0.09 6.1 -8.9 --- --- 722.3 0.016 0.000 9.4 5 1
02/15/06 5:16 a -4.8 -4.7 -4.9 --- --- 5.2 NNW 0.09 7.0 -8.9 --- --- 722.3 0.016 0.000 9.4 5 1
02/15/06 5:17 a -4.6 -4.3 -4.6 --- --- 5.2 NNW 0.09 7.0 -8.6 --- --- 722.2 0.016 0.000 9.4 5 1
02/15/06 5:18 a -4.4 -4.3 -4.4 --- --- 5.2 NNW 0.09 7.0 -8.4 --- --- 722.2 0.016 0.000 9.4 5 1
02/15/06 5:19 a -4.7 -4.5 -4.8 --- --- 6.1 NNW 0.10 7.0 -9.2 --- --- 722.2 0.016 0.000 9.4 5 1
02/15/06 5:20 a -4.9 -4.9 -4.9 --- --- 6.1 NNW 0.10 7.8 -9.6 --- --- 722.3 0.016 0.000 9.4 5 1
02/15/06 5:21 a -4.7 -4.5 -4.9 --- --- 6.1 NNW 0.10 7.0 -9.3 --- --- 722.3 0.016 0.000 9.4 5 1
02/15/06 5:22 a -4.7 -4.4 -5.1 --- --- 7.0 NNW 0.12 8.7 -9.7 --- --- 722.2 0.016 0.000 9.4 5 1
02/15/06 5:23 a -5.1 -4.8 -5.1 --- --- 7.8 NNW 0.13 8.7 -10.5 --- --- 722.3 0.016 0.000 9.4 5 1
02/15/06 5:24 a -4.5 -4.2 -4.7 --- --- 6.1 NW 0.10 7.0 -9.1 --- --- 722.3 0.016 0.000 9.4 5 1
02/15/06 5:25 a -3.9 -3.7 -4.1 --- --- 6.1 NW 0.10 7.0 -8.4 --- --- 722.3 0.015 0.000 9.4 5 1
02/15/06 5:26 a -3.6 -3.5 -3.7 --- --- 7.0 NW 0.12 7.8 -8.4 --- --- 722.2 0.015 0.000 9.4 5 1
02/15/06 5:27 a -3.6 -3.5 -3.6 --- --- 6.1 NW 0.10 7.0 -7.9 --- --- 722.3 0.015 0.000 9.4 5 1
02/15/06 5:28 a -3.6 -3.5 -3.7 --- --- 7.0 NW 0.12 7.8 -8.4 --- --- 722.4 0.015 0.000 9.4 5 1
02/15/06 5:29 a -3.8 -3.8 -3.9 --- --- 7.8 NW 0.13 7.8 -9.0 --- --- 722.3 0.015 0.000 9.4 5 1
02/15/06 5:30 a -3.9 -3.8 -4.0 --- --- 7.0 NW 0.12 7.8 -8.8 --- --- 722.4 0.015 0.000 9.4 5 1
02/15/06 5:31 a -3.9 -3.8 -3.9 --- --- 7.0 NW 0.12 7.8 -8.7 --- --- 722.4 0.015 0.000 9.4 5 1
02/15/06 5:32 a -4.1 -4.0 -4.1 --- --- 7.8 NW 0.13 8.7 -9.3 --- --- 722.2 0.016 0.000 9.4 5 1
02/15/06 5:33 a -4.0 -3.9 -4.1 --- --- 7.8 NNW 0.13 8.7 -9.2 --- --- 722.4 0.016 0.000 9.4 5 1
02/15/06 5:34 a -4.1 -4.1 -4.2 --- --- 7.8 NNW 0.13 8.7 -9.3 --- --- 722.3 0.016 0.000 9.5 5 1
02/15/06 5:35 a -4.5 -4.4 -4.6 --- --- 7.8 NNW 0.13 9.6 -9.8 --- --- 722.3 0.016 0.000 9.5 5 1
02/15/06 5:36 a -4.3 -4.2 -4.4 --- --- 7.8 NNW 0.13 8.7 -9.6 --- --- 722.3 0.016 0.000 9.5 5 1
02/15/06 5:37 a -4.1 -4.1 -4.2 --- --- 7.0 NNW 0.12 7.8 -9.0 --- --- 722.3 0.016 0.000 9.5 5 1
02/15/06 5:38 a -4.2 -4.1 -4.3 --- --- 7.8 NNW 0.13 8.7 -9.5 --- --- 722.3 0.016 0.000 9.5 5 1
02/15/06 5:39 a -4.3 -4.3 -4.4 --- --- 7.8 NNW 0.13 8.7 -9.6 --- --- 722.4 0.016 0.000 9.5 5 1
02/15/06 5:40 a -4.3 -4.2 -4.5 --- --- 6.1 NW 0.10 7.8 -8.8 --- --- 722.4 0.016 0.000 9.5 5 1
02/15/06 5:41 a -4.8 -4.6 -4.9 --- --- 8.7 NNW 0.14 10.4 -10.6 --- --- 722.3 0.016 0.000 9.5 5 1
02/15/06 5:42 a -5.0 -4.9 -5.1 --- --- 8.7 NNW 0.14 9.6 -10.8 --- --- 722.4 0.016 0.000 9.5 5 1
02/15/06 5:43 a -4.7 -4.6 -4.8 --- --- 8.7 NW 0.14 9.6 -10.4 --- --- 722.4 0.016 0.000 9.5 5 1
02/15/06 5:44 a -4.4 -4.3 -4.5 --- --- 7.0 NW 0.12 7.8 -9.4 --- --- 722.4 0.016 0.000 9.5 5 1
02/15/06 5:45 a -4.4 -4.3 -4.6 --- --- 7.8 NNW 0.13 9.6 -9.7 --- --- 722.4 0.016 0.000 9.5 5 1
02/15/06 5:46 a -4.7 -4.6 -4.8 --- --- 8.7 NNW 0.14 10.4 -10.4 --- --- 722.4 0.016 0.000 9.5 5 1
02/15/06 5:47 a -4.9 -4.8 -4.9 --- --- 9.6 NW 0.16 12.2 -11.0 --- --- 722.4 0.016 0.000 9.5 5 1
02/15/06 5:48 a -4.6 -4.4 -4.7 --- --- 7.8 NW 0.13 8.7 -9.9 --- --- 722.4 0.016 0.000 9.5 5 1
02/15/06 5:49 a -4.6 -4.4 -4.9 --- --- 8.7 NNW 0.14 9.6 -10.2 --- --- 722.4 0.016 0.000 9.5 5 1
02/15/06 5:50 a -4.9 -4.8 -4.9 --- --- 8.7 NNW 0.14 9.6 -10.7 --- --- 722.4 0.016 0.000 9.5 5 1
02/15/06 5:51 a -4.6 -4.4 -4.7 --- --- 8.7 NW 0.14 9.6 -10.2 --- --- 722.4 0.016 0.000 9.6 5 1
02/15/06 5:52 a -4.4 -4.3 -4.4 --- --- 8.7 NW 0.14 10.4 -10.1 --- --- 722.4 0.016 0.000 9.6 5 1
02/15/06 5:53 a -4.7 -4.4 -4.8 --- --- 8.7 NW 0.14 10.4 -10.4 --- --- 722.5 0.016 0.000 9.6 5 1
02/15/06 5:54 a -4.7 -4.6 -4.7 --- --- 8.7 NW 0.14 10.4 -10.4 --- --- 722.4 0.016 0.000 9.6 5 1
02/15/06 5:55 a -4.7 -4.7 -4.8 --- --- 8.7 NNW 0.14 10.4 -10.4 --- --- 722.4 0.016 0.000 9.6 5 1
02/15/06 5:56 a -4.7 -4.6 -4.8 --- --- 8.7 NW 0.14 10.4 -10.4 --- --- 722.4 0.016 0.000 9.6 5 1
02/15/06 5:57 a -4.6 -4.4 -4.8 --- --- 8.7 NW 0.14 10.4 -10.2 --- --- 722.4 0.016 0.000 9.6 5 1
02/15/06 5:58 a -4.9 -4.8 -5.0 --- --- 8.7 NNW 0.14 11.3 -10.7 --- --- 722.3 0.016 0.000 9.6 5 1
02/15/06 5:59 a -4.9 -4.8 -4.9 --- --- 7.8 NW 0.13 9.6 -10.3 --- --- 722.4 0.016 0.000 9.7 5 1
02/15/06 6:00 a -4.7 -4.5 -4.8 --- --- 7.8 NW 0.13 8.7 -10.1 --- --- 722.4 0.016 0.000 9.7 5 1
02/15/06 6:01 a -4.4 -4.3 -4.5 --- --- 7.8 NW 0.13 8.7 -9.8 --- --- 722.4 0.016 0.000 9.7 5 1
02/15/06 6:02 a -4.4 -4.3 -4.5 --- --- 9.6 NW 0.16 10.4 -10.4 --- --- 722.4 0.016 0.000 9.7 5 1
02/15/06 6:03 a -4.4 -4.4 -4.4 --- --- 8.7 NW 0.14 11.3 -10.1 --- --- 722.4 0.016 0.000 9.7 5 1
02/15/06 6:04 a -4.4 -4.4 -4.6 --- --- 7.8 NW 0.13 9.6 -9.8 --- --- 722.4 0.016 0.000 9.7 5 1
02/15/06 6:05 a -4.6 -4.4 -4.8 --- --- 8.7 NNW 0.14 10.4 -10.2 --- --- 722.4 0.016 0.000 9.7 5 1
02/15/06 6:06 a -4.9 -4.9 -5.0 --- --- 9.6 NNW 0.16 10.4 -11.1 --- --- 722.5 0.016 0.000 9.7 5 1
02/15/06 6:07 a -4.9 -4.8 -4.9 --- --- 7.8 NW 0.13 8.7 -10.3 --- --- 722.5 0.016 0.000 9.7 5 1
02/15/06 6:08 a -4.8 -4.7 -4.8 --- --- 8.7 NW 0.14 9.6 -10.5 --- --- 722.5 0.016 0.000 9.7 5 1
02/15/06 6:09 a -4.6 -4.5 -4.6 --- --- 7.8 NW 0.13 9.6 -9.9 --- --- 722.5 0.016 0.000 9.8 5 1
02/15/06 6:10 a -4.6 -4.4 -4.7 --- --- 7.0 NW 0.12 7.8 -9.5 --- --- 722.6 0.016 0.000 9.8 5 1
02/15/06 6:11 a -4.4 -4.4 -4.6 --- --- 8.7 NW 0.14 11.3 -10.1 --- --- 722.5 0.016 0.000 9.8 5 1
02/15/06 6:12 a -4.6 -4.5 -4.6 --- --- 8.7 NW 0.14 9.6 -10.2 --- --- 722.5 0.016 0.000 9.8 5 1
02/15/06 6:13 a -4.6 -4.3 -5.0 --- --- 7.8 NNW 0.13 8.7 -9.9 --- --- 722.5 0.016 0.000 9.8 5 1
02/15/06 6:14 a -5.3 -5.1 -5.4 --- --- 7.8 NNW 0.13 8.7 -10.8 --- --- 722.5 0.016 0.000 9.8 5 1
02/15/06 6:15 a -5.3 -5.1 -5.3 --- --- 8.7 NW 0.14 10.4 -11.1 --- --- 722.5 0.016 0.000 9.9 5 1
02/15/06 6:16 a -5.2 -5.1 -5.3 --- --- 8.7 NW 0.14 9.6 -11.1 --- --- 722.5 0.016 0.000 9.9 5 1
02/15/06 6:17 a -4.9 -4.7 -5.2 --- --- 7.0 NW 0.12 8.7 -10.0 --- --- 722.5 0.016 0.000 9.9 5 1
02/15/06 6:18 a -4.7 -4.6 -4.7 --- --- 5.2 NW 0.09 6.1 -8.8 --- --- 722.5 0.016 0.000 9.9 5 1
02/15/06 6:19 a -4.5 -4.4 -4.6 --- --- 6.1 NW 0.10 8.7 -9.1 --- --- 722.6 0.016 0.000 9.9 5 1
02/15/06 6:20 a -4.3 -4.3 -4.3 --- --- 4.3 WNW 0.07 5.2 -7.8 --- --- 722.5 0.016 0.000 9.9 5 1
02/15/06 6:21 a -4.4 -4.3 -4.7 --- --- 4.3 W 0.07 7.0 -7.9 --- --- 722.6 0.016 0.000 9.9 5 1
02/15/06 6:22 a -4.7 -4.6 -4.7 --- --- 4.3 W 0.07 5.2 -8.2 --- --- 722.5 0.016 0.000 9.9 5 1
02/15/06 6:23 a -4.6 -4.5 -4.7 --- --- 4.3 WNW 0.07 6.1 -8.2 --- --- 722.6 0.016 0.000 9.9 5 1
02/15/06 6:24 a -4.7 -4.6 -4.7 --- --- 4.3 WNW 0.07 5.2 -8.2 --- --- 722.6 0.016 0.000 9.9 5 1
02/15/06 6:25 a -4.6 -4.6 -4.7 --- --- 4.3 WNW 0.07 5.2 -8.2 --- --- 722.6 0.016 0.000 10.0 5 1
02/15/06 6:26 a -4.7 -4.7 -4.7 --- --- 4.3 WNW 0.07 6.1 -8.3 --- --- 722.6 0.016 0.000 10.0 5 1
02/15/06 6:27 a -4.7 -4.6 -4.7 --- --- 4.3 WNW 0.07 5.2 -8.2 --- --- 722.6 0.016 0.000 10.0 5 1
02/15/06 6:28 a -4.6 -4.4 -4.6 --- --- 5.2 WNW 0.09 6.1 -8.6 --- --- 722.6 0.016 0.000 10.0 5 1
02/15/06 6:29 a -4.3 -4.2 -4.4 --- --- 5.2 NW 0.09 6.1 -8.4 --- --- 722.6 0.016 0.000 10.1 5 1
02/15/06 6:30 a -4.2 -4.1 -4.2 --- --- 6.1 NW 0.10 7.8 -8.6 --- --- 722.6 0.016 0.000 10.1 5 1
02/15/06 6:31 a -4.0 -3.9 -4.0 --- --- 5.2 NW 0.09 7.0 -7.9 --- --- 722.6 0.016 0.000 10.1 5 1
02/15/06 6:32 a -4.1 -4.0 -4.1 --- --- 4.3 NW 0.07 5.2 -7.5 --- --- 722.6 0.016 0.000 10.1 5 1
02/15/06 6:33 a -4.1 -4.0 -4.1 --- --- 5.2 NW 0.09 6.1 -8.1 --- --- 722.6 0.016 0.000 10.1 5 1
02/15/06 6:34 a -4.2 -4.1 -4.2 --- --- 5.2 NW 0.09 6.1 -8.2 --- --- 722.6 0.016 0.000 10.1 5 1
02/15/06 6:35 a -4.3 -4.2 -4.5 --- --- 5.2 NW 0.09 6.1 -8.4 --- --- 722.6 0.016 0.000 10.1 5 1
02/15/06 6:36 a -4.4 -4.4 -4.5 --- --- 4.3 NW 0.07 5.2 -7.9 --- --- 722.6 0.016 0.000 10.1 5 1
02/15/06 6:37 a -4.4 -4.4 -4.4 --- --- 4.3 NW 0.07 5.2 -7.9 --- --- 722.6 0.016 0.000 10.1 5 1
02/15/06 6:38 a -4.4 -4.4 -4.5 --- --- 3.5 NW 0.06 4.3 -7.3 --- --- 722.7 0.016 0.000 10.1 5 1
02/15/06 6:39 a -4.5 -4.4 -4.5 --- --- 4.3 NW 0.07 4.3 -8.0 --- --- 722.8 0.016 0.000 10.1 5 1
02/15/06 6:40 a -4.5 -4.5 -4.6 --- --- 4.3 WNW 0.07 4.3 -8.0 --- --- 722.7 0.016 0.000 10.2 5 1
02/15/06 6:41 a -4.4 -4.3 -4.4 --- --- 3.5 WNW 0.06 5.2 -7.2 --- --- 722.7 0.016 0.000 10.2 5 1
02/15/06 6:42 a -4.3 -4.2 -4.4 --- --- 3.5 W 0.06 5.2 -7.2 --- --- 722.7 0.016 0.000 10.2 5 1
02/15/06 6:43 a -4.6 -4.5 -4.7 --- --- 3.5 WNW 0.06 4.3 -7.4 --- --- 722.8 0.016 0.000 10.2 5 1
02/15/06 6:44 a -4.5 -4.5 -4.6 --- --- 3.5 W 0.06 4.3 -7.4 --- --- 722.8 0.016 0.000 10.2 5 1
02/15/06 6:45 a -4.6 -4.6 -4.6 --- --- 3.5 W 0.06 3.5 -7.5 --- --- 722.8 0.016 0.000 10.2 5 1
02/15/06 6:46 a -4.6 -4.5 -4.6 --- --- 3.5 W 0.06 4.3 -7.4 --- --- 722.8 0.016 0.000 10.2 5 1
02/15/06 6:47 a -4.6 -4.5 -4.6 --- --- 3.5 W 0.06 3.5 -7.4 --- --- 722.8 0.016 0.000 10.2 5 1
02/15/06 6:48 a -4.4 -4.3 -4.5 --- --- 2.6 W 0.04 4.3 -6.5 --- --- 722.7 0.016 0.000 10.2 5 1
02/15/06 6:49 a -4.3 -4.3 -4.4 --- --- 2.6 W 0.04 3.5 -6.4 --- --- 722.8 0.016 0.000 10.2 5 1
02/15/06 6:50 a -4.3 -4.3 -4.4 --- --- 3.5 W 0.06 4.3 -7.2 --- --- 722.8 0.016 0.000 10.2 5 1
02/15/06 6:51 a -4.5 -4.4 -4.6 --- --- 3.5 W 0.06 3.5 -7.4 --- --- 722.8 0.016 0.000 10.2 5 1
02/15/06 6:52 a -4.5 -4.4 -4.6 --- --- 3.5 W 0.06 4.3 -7.4 --- --- 722.7 0.016 0.000 10.2 5 1
02/15/06 6:53 a -4.5 -4.4 -4.6 --- --- 2.6 W 0.04 3.5 -6.6 --- --- 722.8 0.016 0.000 10.2 5 1
02/15/06 6:54 a -4.3 -4.1 -4.4 --- --- 2.6 W 0.04 3.5 -6.3 --- --- 722.8 0.016 0.000 10.3 5 1
02/15/06 6:55 a -4.1 -4.1 -4.2 --- --- 3.5 W 0.06 4.3 -6.9 --- --- 722.8 0.016 0.000 10.3 5 1
02/15/06 6:56 a -4.1 -4.1 -4.2 --- --- 2.6 WNW 0.04 3.5 -6.2 --- --- 722.8 0.016 0.000 10.3 5 1
02/15/06 6:57 a -4.1 -4.1 -4.2 --- --- 3.5 WNW 0.06 4.3 -6.9 --- --- 722.8 0.016 0.000 10.3 5 1
02/15/06 6:58 a -4.3 -4.2 -4.3 --- --- 3.5 WNW 0.06 4.3 -7.1 --- --- 722.8 0.016 0.000 10.2 5 1
02/15/06 6:59 a -4.3 -4.2 -4.4 --- --- 3.5 WNW 0.06 4.3 -7.1 --- --- 722.8 0.016 0.000 10.2 5 1
02/15/06 7:00 a -5.0 -4.6 -5.5 --- --- 3.5 WNW 0.06 4.3 -7.9 --- --- 722.8 0.016 0.000 10.2 5 1
02/15/06 7:01 a -5.7 -5.6 -5.8 --- --- 3.5 W 0.06 4.3 -8.8 --- --- 722.9 0.017 0.000 10.2 5 1
02/15/06 7:02 a -5.3 -4.9 -5.6 --- --- 3.5 W 0.06 5.2 -8.3 --- --- 722.8 0.016 0.000 10.2 5 1
02/15/06 7:03 a -4.7 -4.6 -4.8 --- --- 4.3 W 0.07 5.2 -8.2 --- --- 722.9 0.016 0.000 10.2 5 1
02/15/06 7:04 a -4.7 -4.7 -4.7 --- --- 3.5 W 0.06 4.3 -7.6 --- --- 722.9 0.016 0.000 10.1 5 1
02/15/06 7:05 a -4.6 -4.5 -4.6 --- --- 3.5 W 0.06 4.3 -7.4 --- --- 722.9 0.016 0.000 10.1 5 1
02/15/06 7:06 a -4.4 -4.3 -4.4 --- --- 3.5 W 0.06 4.3 -7.2 --- --- 722.9 0.016 0.000 10.1 5 1
02/15/06 7:07 a -4.5 -4.5 -4.6 --- --- 5.2 W 0.09 6.1 -8.6 --- --- 722.9 0.016 0.000 10.1 5 1
02/15/06 7:08 a -4.6 -4.6 -4.6 --- --- 4.3 W 0.07 6.1 -8.1 --- --- 723.0 0.016 0.000 10.1 5 1
02/15/06 7:09 a -4.6 -4.5 -4.6 --- --- 2.6 W 0.04 3.5 -6.7 --- --- 722.9 0.016 0.000 10.1 5 1
02/15/06 7:10 a -4.8 -4.6 -5.2 --- --- 3.5 W 0.06 5.2 -7.7 --- --- 723.0 0.016 0.000 10.1 5 1
02/15/06 7:11 a -5.4 -5.3 -5.6 --- --- 3.5 WNW 0.06 4.3 -8.4 --- --- 722.9 0.016 0.000 10.1 5 1
02/15/06 7:12 a -5.8 -5.7 -5.9 --- --- 5.2 WNW 0.09 6.1 -10.2 --- --- 722.9 0.017 0.000 10.0 5 1
02/15/06 7:13 a -5.9 -5.9 -6.0 --- --- 4.3 NW 0.07 5.2 -9.7 --- --- 722.9 0.017 0.000 10.0 5 1
02/15/06 7:14 a -6.1 -5.9 -6.2 --- --- 4.3 WNW 0.07 6.1 -9.8 --- --- 723.0 0.017 0.000 9.9 5 1
02/15/06 7:15 a -6.1 -6.0 -6.2 --- --- 5.2 WNW 0.09 7.8 -10.5 --- --- 723.0 0.017 0.000 9.9 5 1
02/15/06 7:16 a -5.8 -5.6 -5.9 --- --- 3.5 NW 0.06 6.1 -8.8 --- --- 723.0 0.017 0.000 9.9 5 1
02/15/06 7:17 a -5.6 -5.5 -5.7 --- --- 3.5 WNW 0.06 4.3 -8.6 --- --- 723.0 0.017 0.000 9.8 5 1
02/15/06 7:18 a -6.0 -5.8 -6.3 --- --- 4.3 W 0.07 5.2 -9.8 --- --- 723.0 0.017 0.000 9.8 5 1
02/15/06 7:19 a -6.3 -6.2 -6.3 --- --- 3.5 W 0.06 4.3 -9.4 --- --- 723.0 0.017 0.000 9.8 5 1
02/15/06 7:20 a -5.9 -5.6 -6.1 --- --- 3.5 W 0.06 4.3 -9.0 --- --- 723.1 0.017 0.000 9.8 5 1
02/15/06 7:21 a -5.3 -5.2 -5.4 --- --- 4.3 W 0.07 5.2 -9.0 --- --- 723.0 0.016 0.000 9.7 5 1
02/15/06 7:22 a -5.1 -4.9 -5.2 --- --- 3.5 WNW 0.06 5.2 -8.1 --- --- 723.1 0.016 0.000 9.7 5 1
02/15/06 7:23 a -4.7 -4.4 -4.9 --- --- 2.6 WNW 0.04 3.5 -6.8 --- --- 723.1 0.016 0.000 9.7 5 1
02/15/06 7:24 a -4.3 -4.2 -4.3 --- --- 2.6 WNW 0.04 3.5 -6.3 --- --- 723.0 0.016 0.000 9.7 6 1
02/15/06 7:25 a -4.4 -4.3 -4.7 --- --- 3.5 W 0.06 4.3 -7.3 --- --- 723.0 0.016 0.000 9.7 5 1
02/15/06 7:26 a -4.8 -4.8 -4.8 --- --- 3.5 W 0.06 4.3 -7.7 --- --- 723.1 0.016 0.000 9.7 5 1
02/15/06 7:27 a -4.7 -4.7 -4.8 --- --- 2.6 W 0.04 3.5 -6.8 --- --- 723.2 0.016 0.000 9.7 5 1
02/15/06 7:28 a -4.6 -4.4 -4.7 --- --- 1.7 W 0.03 3.5 -5.7 --- --- 723.1 0.016 0.000 9.7 5 1
02/15/06 7:29 a -4.3 -4.2 -4.4 --- --- 1.7 W 0.03 2.6 -5.3 --- --- 723.1 0.016 0.000 9.7 5 1
02/15/06 7:30 a -4.3 -4.2 -4.3 --- --- 2.6 W 0.04 3.5 -6.3 --- --- 723.1 0.016 0.000 9.7 5 1
02/15/06 7:31 a -4.3 -4.3 -4.4 --- --- 3.5 W 0.06 4.3 -7.2 --- --- 723.1 0.016 0.000 9.6 5 1
02/15/06 7:32 a -4.3 -4.3 -4.3 --- --- 2.6 W 0.04 3.5 -6.3 --- --- 723.1 0.016 0.000 9.6 5 1
02/15/06 7:33 a -4.3 -4.2 -4.3 --- --- 2.6 W 0.04 3.5 -6.3 --- --- 723.2 0.016 0.000 9.6 5 1
02/15/06 7:34 a -4.1 -3.8 -4.2 --- --- 1.7 W 0.03 2.6 -5.1 --- --- 723.2 0.016 0.000 9.6 6 1
02/15/06 7:35 a -3.6 -3.5 -3.8 --- --- 1.7 W 0.03 2.6 -4.6 --- --- 723.1 0.015 0.000 9.6 5 1
02/15/06 7:36 a -3.7 -3.6 -3.8 --- --- 1.7 W 0.03 2.6 -4.7 --- --- 723.2 0.015 0.000 9.6 6 1
02/15/06 7:37 a -3.9 -3.9 -4.0 --- --- 1.7 W 0.03 2.6 -4.9 --- --- 723.1 0.015 0.000 9.6 5 1
02/15/06 7:38 a -4.0 -3.9 -4.3 --- --- 2.6 W 0.04 4.3 -6.0 --- --- 723.2 0.016 0.000 9.6 5 1
02/15/06 7:39 a -4.6 -4.4 -4.8 --- --- 2.6 W 0.04 3.5 -6.7 --- --- 723.1 0.016 0.000 9.6 5 1
02/15/06 7:40 a -4.7 -4.7 -4.8 --- --- 1.7 W 0.03 3.5 -5.8 --- --- 723.1 0.016 0.000 9.6 6 1
02/15/06 7:41 a -4.7 -4.7 -4.8 --- --- 1.7 W 0.03 2.6 -5.8 --- --- 723.2 0.016 0.000 9.6 5 1
02/15/06 7:42 a -4.7 -4.6 -4.8 --- --- 1.7 W 0.03 2.6 -5.7 --- --- 723.2 0.016 0.000 9.5 6 1
02/15/06 7:43 a -4.5 -4.5 -4.6 --- --- 0.9 W 0.01 1.7 -4.5 --- --- 723.2 0.016 0.000 9.5 5 1
02/15/06 7:44 a -4.4 -4.3 -4.4 --- --- 1.7 W 0.03 2.6 -5.4 --- --- 723.2 0.016 0.000 9.5 5 1
02/15/06 7:45 a -4.4 -4.4 -4.4 --- --- 1.7 W 0.03 2.6 -5.4 --- --- 723.2 0.016 0.000 9.5 6 1
02/15/06 7:46 a -4.4 -4.4 -4.5 --- --- 1.7 W 0.03 3.5 -5.4 --- --- 723.2 0.016 0.000 9.5 5 1
02/15/06 7:47 a -4.1 -3.8 -4.3 --- --- 0.9 W 0.01 1.7 -4.1 --- --- 723.2 0.016 0.000 9.5 5 1
02/15/06 7:48 a -3.6 -3.4 -3.7 --- --- 0.9 W 0.01 1.7 -3.6 --- --- 723.3 0.015 0.000 9.4 6 1
02/15/06 7:49 a -3.4 -3.3 -3.6 --- --- 1.7 W 0.03 3.5 -4.3 --- --- 723.2 0.015 0.000 9.4 6 1
02/15/06 7:50 a -3.9 -3.7 -4.1 --- --- 2.6 W 0.04 3.5 -5.9 --- --- 723.2 0.015 0.000 9.4 5 1
02/15/06 7:51 a -4.2 -4.2 -4.3 --- --- 1.7 W 0.03 2.6 -5.2 --- --- 723.2 0.016 0.000 9.4 6 1
02/15/06 7:52 a -4.2 -4.1 -4.2 --- --- 0.9 W 0.01 1.7 -4.2 --- --- 723.2 0.016 0.000 9.4 6 1
02/15/06 7:53 a -4.1 -4.0 -4.2 --- --- 1.7 W 0.03 3.5 -5.1 --- --- 723.3 0.016 0.000 9.4 6 1
02/15/06 7:54 a -4.1 -3.9 -4.2 --- --- 0.9 W 0.01 1.7 -4.1 --- --- 723.3 0.016 0.000 9.4 5 1
02/15/06 7:55 a -4.0 -3.9 -4.0 --- --- 1.7 W 0.03 2.6 -4.9 --- --- 723.3 0.016 0.000 9.4 5 1
02/15/06 7:56 a -4.0 -4.0 -4.1 --- --- 0.9 W 0.01 1.7 -4.0 --- --- 723.2 0.016 0.000 9.4 6 1
02/15/06 7:57 a -4.0 -3.9 -4.1 --- --- 0.9 W 0.01 2.6 -4.0 --- --- 723.3 0.016 0.000 9.4 6 1
02/15/06 7:58 a -4.0 -3.9 -4.0 --- --- 0.9 W 0.01 2.6 -4.0 --- --- 723.3 0.016 0.000 9.4 6 1
02/15/06 7:59 a -4.1 -4.0 -4.3 --- --- 2.6 W 0.04 3.5 -6.2 --- --- 723.3 0.016 0.000 9.4 5 1
02/15/06 8:00 a -4.4 -4.4 -4.5 --- --- 2.6 W 0.04 2.6 -6.4 --- --- 723.4 0.016 0.000 9.4 6 1
02/15/06 8:01 a -4.6 -4.6 -4.7 --- --- 1.7 W 0.03 3.5 -5.7 --- --- 723.3 0.016 0.000 9.4 6 1
02/15/06 8:02 a -4.6 -4.5 -4.7 --- --- 0.9 W 0.01 2.6 -4.6 --- --- 723.2 0.016 0.000 9.4 6 1
02/15/06 8:03 a -4.6 -4.5 -4.6 --- --- 1.7 W 0.03 2.6 -5.6 --- --- 723.2 0.016 0.000 9.4 6 1
02/15/06 8:04 a -4.5 -4.4 -4.6 --- --- 1.7 W 0.03 3.5 -5.5 --- --- 723.3 0.016 0.000 9.4 6 1
02/15/06 8:05 a -4.5 -4.4 -4.6 --- --- 0.0 W 0.00 0.9 -4.5 --- --- 723.3 0.016 0.000 9.4 6 1
02/15/06 8:06 a -4.4 -4.4 -4.5 --- --- 1.7 W 0.03 3.5 -5.4 --- --- 723.2 0.016 0.000 9.4 6 1
02/15/06 8:07 a -4.7 -4.6 -4.9 --- --- 2.6 W 0.04 2.6 -6.8 --- --- 723.3 0.016 0.000 9.4 6 1
02/15/06 8:08 a -5.1 -4.9 -5.1 --- --- 1.7 W 0.03 3.5 -6.1 --- --- 723.3 0.016 0.000 9.4 6 1
02/15/06 8:09 a -5.2 -5.1 -5.3 --- --- 2.6 W 0.04 3.5 -7.4 --- --- 723.3 0.016 0.000 9.4 6 1
02/15/06 8:10 a -5.3 -5.3 -5.4 --- --- 1.7 W 0.03 2.6 -6.4 --- --- 723.3 0.016 0.000 9.3 6 1
02/15/06 8:11 a -5.4 -5.3 -5.4 --- --- 1.7 W 0.03 2.6 -6.5 --- --- 723.3 0.016 0.000 9.3 6 1
02/15/06 8:12 a -5.2 -4.9 -5.3 --- --- 0.9 W 0.01 2.6 -5.2 --- --- 723.3 0.016 0.000 9.3 6 1
02/15/06 8:13 a -4.9 -4.9 -4.9 --- --- 0.9 W 0.01 1.7 -4.9 --- --- 723.3 0.016 0.000 9.3 6 1
02/15/06 8:14 a -4.9 -4.9 -5.0 --- --- 1.7 W 0.03 2.6 -6.0 --- --- 723.4 0.016 0.000 9.3 6 1
02/15/06 8:15 a -5.0 -5.0 -5.1 --- --- 0.9 W 0.01 1.7 -5.0 --- --- 723.4 0.016 0.000 9.3 6 1
02/15/06 8:16 a -5.1 -5.1 -5.1 --- --- 1.7 W 0.03 2.6 -6.1 --- --- 723.4 0.016 0.000 9.3 6 1
02/15/06 8:17 a -5.0 -4.8 -5.1 --- --- 1.7 W 0.03 2.6 -6.1 --- --- 723.4 0.016 0.000 9.3 6 1
02/15/06 8:18 a -4.7 -4.6 -4.8 --- --- 0.9 W 0.01 1.7 -4.7 --- --- 723.4 0.016 0.000 9.3 6 1
02/15/06 8:19 a -4.6 -4.5 -4.7 --- --- 0.0 W 0.00 0.9 -4.6 --- --- 723.4 0.016 0.000 9.3 6 1
02/15/06 8:20 a -4.4 -4.3 -4.4 --- --- 0.9 W 0.01 1.7 -4.4 --- --- 723.3 0.016 0.000 9.3 6 1
02/15/06 8:21 a -4.3 -4.2 -4.3 --- --- 0.0 W 0.00 1.7 -4.3 --- --- 723.4 0.016 0.000 9.3 6 1
02/15/06 8:22 a -4.1 -4.0 -4.2 --- --- 0.0 --- 0.00 0.0 -4.1 --- --- 723.4 0.016 0.000 9.3 6 1
02/15/06 8:23 a -3.8 -3.7 -4.0 --- --- 0.0 W 0.00 0.9 -3.8 --- --- 723.4 0.015 0.000 9.3 6 1
02/15/06 8:24 a -3.5 -3.3 -3.6 --- --- 0.0 --- 0.00 0.0 -3.5 --- --- 723.4 0.015 0.000 9.3 6 1
02/15/06 8:25 a -3.1 -3.0 -3.3 --- --- 0.0 --- 0.00 0.0 -3.1 --- --- 723.4 0.015 0.000 9.3 6 1
02/15/06 8:26 a -2.9 -2.9 -3.0 --- --- 0.0 W 0.00 0.9 -2.9 --- --- 723.4 0.015 0.000 9.3 6 1
02/15/06 8:27 a -2.8 -2.7 -2.9 --- --- 0.0 W 0.00 0.9 -2.8 --- --- 723.4 0.015 0.000 9.3 6 1
02/15/06 8:28 a -2.6 -2.5 -2.7 --- --- 0.0 W 0.00 0.9 -2.6 --- --- 723.4 0.015 0.000 9.2 6 1
02/15/06 8:29 a -2.3 -2.2 -2.4 --- --- 0.9 W 0.01 1.7 -2.3 --- --- 723.3 0.014 0.000 9.3 6 1
02/15/06 8:30 a -2.0 -1.9 -2.2 --- --- 0.9 W 0.01 1.7 -2.0 --- --- 723.4 0.014 0.000 9.3 6 1
02/15/06 8:31 a -2.0 -1.9 -2.2 --- --- 0.9 W 0.01 1.7 -2.0 --- --- 723.4 0.014 0.000 9.2 6 1
02/15/06 8:32 a -2.4 -2.2 -2.7 --- --- 0.9 W 0.01 1.7 -2.4 --- --- 723.4 0.014 0.000 9.2 6 1
02/15/06 8:33 a -2.9 -2.8 -3.1 --- --- 0.9 W 0.01 1.7 -2.9 --- --- 723.4 0.015 0.000 9.2 6 1
02/15/06 8:34 a -3.3 -3.2 -3.5 --- --- 0.9 W 0.01 1.7 -3.3 --- --- 723.4 0.015 0.000 9.2 6 1
02/15/06 8:35 a -3.7 -3.6 -3.8 --- --- 0.9 W 0.01 1.7 -3.7 --- --- 723.5 0.015 0.000 9.2 6 1
02/15/06 8:36 a -4.0 -3.8 -4.2 --- --- 0.9 W 0.01 1.7 -4.0 --- --- 723.5 0.016 0.000 9.2 6 1
02/15/06 8:37 a -4.3 -4.2 -4.4 --- --- 0.0 W 0.00 0.9 -4.3 --- --- 723.5 0.016 0.000 9.2 6 1
02/15/06 8:38 a -4.4 -4.4 -4.4 --- --- 0.0 W 0.00 0.9 -4.4 --- --- 723.6 0.016 0.000 9.2 6 1
02/15/06 8:39 a -4.5 -4.4 -4.6 --- --- 0.0 W 0.00 0.9 -4.5 --- --- 723.5 0.016 0.000 9.2 6 1
02/15/06 8:40 a -4.7 -4.6 -4.7 --- --- 0.0 W 0.00 0.9 -4.7 --- --- 723.6 0.016 0.000 9.2 6 1
02/15/06 8:41 a -4.8 -4.8 -4.9 --- --- 0.0 W 0.00 0.9 -4.8 --- --- 723.5 0.016 0.000 9.2 6 1
02/15/06 8:42 a -4.9 -4.9 -5.1 --- --- 0.9 W 0.01 1.7 -4.9 --- --- 723.5 0.016 0.000 9.2 6 1
02/15/06 8:43 a -5.1 -5.1 -5.2 --- --- 0.0 W 0.00 1.7 -5.1 --- --- 723.6 0.016 0.000 9.2 6 1
02/15/06 8:44 a -5.3 -5.3 -5.3 --- --- 0.0 W 0.00 0.9 -5.3 --- --- 723.5 0.016 0.000 9.2 6 1
02/15/06 8:45 a -5.3 -5.3 -5.4 --- --- 0.0 --- 0.00 0.0 -5.3 --- --- 723.5 0.016 0.000 9.2 6 1
02/15/06 8:46 a -5.5 -5.4 -5.6 --- --- 0.0 W 0.00 0.9 -5.5 --- --- 723.5 0.017 0.000 9.2 6 1
02/15/06 8:47 a -5.6 -5.6 -5.7 --- --- 0.9 W 0.01 1.7 -5.6 --- --- 723.4 0.017 0.000 9.2 6 1
02/15/06 8:48 a -5.7 -5.7 -5.8 --- --- 0.9 W 0.01 1.7 -5.7 --- --- 723.6 0.017 0.000 9.2 6 1
02/15/06 8:49 a -5.8 -5.8 -5.9 --- --- 0.0 --- 0.00 0.9 -5.8 --- --- 723.6 0.017 0.000 9.2 6 1
02/15/06 8:50 a -6.0 -6.0 -6.1 --- --- 0.0 W 0.00 0.9 -6.0 --- --- 723.6 0.017 0.000 9.1 6 1
02/15/06 8:51 a -6.1 -6.1 -6.1 --- --- 0.0 --- 0.00 0.0 -6.1 --- --- 723.6 0.017 0.000 9.1 6 1
02/15/06 8:52 a -6.0 -6.0 -6.1 --- --- 0.0 --- 0.00 0.0 -6.0 --- --- 723.6 0.017 0.000 9.1 6 1
02/15/06 8:53 a -6.0 -6.0 -6.1 --- --- 0.0 --- 0.00 0.0 -6.0 --- --- 723.6 0.017 0.000 9.1 6 1
02/15/06 8:54 a -6.0 -6.0 -6.1 --- --- 0.0 --- 0.00 0.0 -6.0 --- --- 723.6 0.017 0.000 9.1 6 1
02/15/06 8:55 a -6.1 -6.0 -6.1 --- --- 0.0 W 0.00 1.7 -6.1 --- --- 723.7 0.017 0.000 9.1 6 1
02/15/06 8:56 a -6.1 -6.1 -6.1 --- --- 0.9 W 0.01 1.7 -6.1 --- --- 723.6 0.017 0.000 9.1 6 1
02/15/06 8:57 a -6.1 -6.1 -6.2 --- --- 0.0 W 0.00 1.7 -6.1 --- --- 723.7 0.017 0.000 9.1 6 1
02/15/06 8:58 a -6.2 -6.2 -6.2 --- --- 0.9 W 0.01 1.7 -6.2 --- --- 723.7 0.017 0.000 9.1 6 1
02/15/06 8:59 a -6.3 -6.2 -6.3 --- --- 1.7 W 0.03 1.7 -7.5 --- --- 723.7 0.017 0.000 9.1 6 1
02/15/06 9:00 a -6.3 -6.3 -6.4 --- --- 1.7 W 0.03 1.7 -7.6 --- --- 723.6 0.017 0.000 9.1 6 1
02/15/06 9:01 a -6.4 -6.4 -6.5 --- --- 0.9 W 0.01 1.7 -6.4 --- --- 723.6 0.017 0.000 9.1 6 1
02/15/06 9:02 a -6.6 -6.5 -6.6 --- --- 0.9 W 0.01 1.7 -6.6 --- --- 723.7 0.017 0.000 9.1 6 1
02/15/06 9:03 a -6.6 -6.6 -6.6 --- --- 0.0 W 0.00 0.9 -6.6 --- --- 723.7 0.017 0.000 9.1 6 1
02/15/06 9:04 a -6.6 -6.6 -6.7 --- --- 0.0 W 0.00 0.9 -6.6 --- --- 723.7 0.017 0.000 9.1 6 1
02/15/06 9:05 a -6.7 -6.7 -6.7 --- --- 0.9 W 0.01 1.7 -6.7 --- --- 723.7 0.017 0.000 9.1 6 1
02/15/06 9:06 a -6.7 -6.7 -6.7 --- --- 0.9 W 0.01 1.7 -6.7 --- --- 723.6 0.017 0.000 9.1 6 1
02/15/06 9:07 a -6.7 -6.7 -6.7 --- --- 0.0 W 0.00 0.9 -6.7 --- --- 723.7 0.017 0.000 9.1 6 1
02/15/06 9:08 a -6.7 -6.7 -6.8 --- --- 0.9 W 0.01 0.9 -6.7 --- --- 723.7 0.017 0.000 9.1 6 1
02/15/06 9:09 a -6.8 -6.8 -6.8 --- --- 0.0 W 0.00 0.9 -6.8 --- --- 723.7 0.017 0.000 9.1 6 1
02/15/06 9:10 a -6.8 -6.8 -6.8 --- --- 0.9 W 0.01 0.9 -6.8 --- --- 723.7 0.017 0.000 9.1 6 1
02/15/06 9:11 a -6.8 -6.8 -6.8 --- --- 0.0 W 0.00 0.9 -6.8 --- --- 723.6 0.017 0.000 9.1 6 1
02/15/06 9:12 a -6.9 -6.8 -6.9 --- --- 0.0 W 0.00 0.9 -6.9 --- --- 723.8 0.018 0.000 9.1 6 1
02/15/06 9:13 a -6.9 -6.9 -6.9 --- --- 0.0 --- 0.00 0.9 -6.9 --- --- 723.7 0.018 0.000 9.0 6 1
02/15/06 9:14 a -6.8 -6.8 -6.9 --- --- 0.0 --- 0.00 0.0 -6.8 --- --- 723.7 0.017 0.000 9.1 6 1
02/15/06 9:15 a -6.7 -6.6 -6.7 --- --- 0.0 --- 0.00 0.0 -6.7 --- --- 723.7 0.017 0.000 9.1 6 1
02/15/06 9:16 a -6.4 -6.3 -6.5 --- --- 0.0 --- 0.00 0.0 -6.4 --- --- 723.8 0.017 0.000 9.1 6 1
02/15/06 9:17 a -6.3 -6.2 -6.3 --- --- 0.0 --- 0.00 0.0 -6.3 --- --- 723.7 0.017 0.000 9.0 6 1
02/15/06 9:18 a -6.1 -6.1 -6.2 --- --- 0.0 --- 0.00 0.0 -6.1 --- --- 723.7 0.017 0.000 9.0 6 1
02/15/06 9:19 a -6.1 -6.0 -6.1 --- --- 0.0 --- 0.00 0.0 -6.1 --- --- 723.8 0.017 0.000 9.0 6 1
02/15/06 9:20 a -6.0 -6.0 -6.1 --- --- 0.0 --- 0.00 0.0 -6.0 --- --- 723.8 0.017 0.000 9.0 6 1
02/15/06 9:21 a -5.9 -5.9 -5.9 --- --- 0.0 --- 0.00 0.0 -5.9 --- --- 723.9 0.017 0.000 9.0 6 1
02/15/06 9:22 a -5.9 -5.9 -6.0 --- --- 0.0 W 0.00 0.9 -5.9 --- --- 723.7 0.017 0.000 9.0 6 1
02/15/06 9:23 a -6.1 -6.1 -6.2 --- --- 0.0 W 0.00 0.9 -6.1 --- --- 723.8 0.017 0.000 9.0 6 1
02/15/06 9:24 a -6.3 -6.2 -6.4 --- --- 0.0 W 0.00 0.9 -6.3 --- --- 723.8 0.017 0.000 9.0 6 1
02/15/06 9:25 a -6.4 -6.4 -6.4 --- --- 0.0 W 0.00 0.9 -6.4 --- --- 723.8 0.017 0.000 9.0 6 1
02/15/06 9:26 a -6.4 -6.4 -6.4 --- --- 0.0 W 0.00 0.9 -6.4 --- --- 723.8 0.017 0.000 9.0 6 1
02/15/06 9:27 a -6.4 -6.4 -6.4 --- --- 0.0 W 0.00 0.9 -6.4 --- --- 723.7 0.017 0.000 9.0 6 1
02/15/06 9:28 a -6.3 -6.3 -6.4 --- --- 0.0 W 0.00 0.9 -6.3 --- --- 723.8 0.017 0.000 9.0 6 1
02/15/06 9:29 a -6.2 -6.2 -6.3 --- --- 0.0 W 0.00 0.9 -6.2 --- --- 723.8 0.017 0.000 9.0 6 1
02/15/06 9:30 a -6.2 -6.1 -6.2 --- --- 0.0 W 0.00 0.9 -6.2 --- --- 723.8 0.017 0.000 9.0 6 1
02/15/06 9:31 a -6.2 -6.2 -6.3 --- --- 0.0 W 0.00 0.9 -6.2 --- --- 723.8 0.017 0.000 9.0 6 1
02/15/06 9:32 a -6.3 -6.3 -6.3 --- --- 0.0 W 0.00 0.9 -6.3 --- --- 723.7 0.017 0.000 9.0 6 1
02/15/06 9:33 a -6.3 -6.3 -6.3 --- --- 0.0 --- 0.00 0.9 -6.3 --- --- 723.9 0.017 0.000 9.0 6 1
02/15/06 9:34 a -6.3 -6.3 -6.3 --- --- 0.0 W 0.00 0.9 -6.3 --- --- 723.8 0.017 0.000 9.0 6 1
02/15/06 9:35 a -6.4 -6.3 -6.4 --- --- 0.0 W 0.00 0.9 -6.4 --- --- 723.9 0.017 0.000 9.0 6 1
02/15/06 9:36 a -6.4 -6.4 -6.6 --- --- 0.0 W 0.00 0.9 -6.4 --- --- 723.8 0.017 0.000 9.0 6 1
02/15/06 9:37 a -6.6 -6.6 -6.6 --- --- 0.0 W 0.00 0.9 -6.6 --- --- 723.9 0.017 0.000 9.0 6 1
02/15/06 9:38 a -6.7 -6.7 -6.8 --- --- 0.0 W 0.00 0.9 -6.7 --- --- 723.8 0.017 0.000 9.0 6 1
02/15/06 9:39 a -7.0 -6.9 -7.1 --- --- 0.0 W 0.00 0.9 -7.0 --- --- 723.9 0.018 0.000 9.0 6 1
02/15/06 9:40 a -7.1 -7.1 -7.2 --- --- 0.0 --- 0.00 0.0 -7.1 --- --- 723.8 0.018 0.000 8.9 6 1
02/15/06 9:41 a -7.2 -7.2 -7.3 --- --- 0.0 W 0.00 0.9 -7.2 --- --- 723.8 0.018 0.000 8.9 6 1
02/15/06 9:42 a -7.4 -7.3 -7.4 --- --- 0.0 W 0.00 0.9 -7.4 --- --- 723.8 0.018 0.000 8.9 6 1
02/15/06 9:43 a -7.4 -7.4 -7.4 --- --- 0.0 W 0.00 0.9 -7.4 --- --- 723.8 0.018 0.000 8.9 6 1
02/15/06 9:44 a -7.5 -7.4 -7.6 --- --- 0.0 W 0.00 0.9 -7.5 --- --- 723.8 0.018 0.000 8.9 6 1
02/15/06 9:45 a -7.6 -7.5 -7.6 --- --- 0.9 W 0.01 1.7 -7.6 --- --- 723.8 0.018 0.000 8.9 6 1
02/15/06 9:46 a -7.6 -7.6 -7.6 --- --- 0.9 W 0.01 1.7 -7.6 --- --- 723.8 0.018 0.000 8.9 6 1
02/15/06 9:47 a -7.7 -7.6 -7.7 --- --- 0.0 W 0.00 0.9 -7.7 --- --- 723.8 0.018 0.000 8.9 6 1
02/15/06 9:48 a -7.7 -7.7 -7.7 --- --- 0.0 --- 0.00 0.9 -7.7 --- --- 723.9 0.018 0.000 8.9 6 1
02/15/06 9:49 a -7.7 -7.7 -7.7 --- --- 0.0 W 0.00 0.9 -7.7 --- --- 723.9 0.018 0.000 8.9 6 1
02/15/06 9:50 a -7.7 -7.7 -7.7 --- --- 0.0 W 0.00 0.9 -7.7 --- --- 723.8 0.018 0.000 8.9 6 1
02/15/06 9:51 a -7.6 -7.6 -7.7 --- --- 0.0 W 0.00 0.9 -7.6 --- --- 723.9 0.018 0.000 8.9 6 1
02/15/06 9:52 a -7.6 -7.6 -7.7 --- --- 0.0 W 0.00 0.9 -7.6 --- --- 723.8 0.018 0.000 8.9 6 1
02/15/06 9:53 a -7.7 -7.6 -7.7 --- --- 0.0 W 0.00 0.9 -7.7 --- --- 724.0 0.018 0.000 8.9 6 1
02/15/06 9:54 a -7.7 -7.7 -7.7 --- --- 0.0 W 0.00 0.9 -7.7 --- --- 723.9 0.018 0.000 8.9 6 1
02/15/06 9:55 a -7.7 -7.7 -7.7 --- --- 0.0 --- 0.00 0.9 -7.7 --- --- 723.8 0.018 0.000 8.9 6 1
02/15/06 9:56 a -7.7 -7.7 -7.7 --- --- 0.0 --- 0.00 0.0 -7.7 --- --- 724.0 0.018 0.000 8.9 6 1
02/15/06 9:57 a -7.7 -7.7 -7.7 --- --- 0.0 --- 0.00 0.9 -7.7 --- --- 723.9 0.018 0.000 8.9 6 1
02/15/06 9:58 a -7.7 -7.7 -7.8 --- --- 0.9 W 0.01 0.9 -7.7 --- --- 723.9 0.018 0.000 8.9 6 1
02/15/06 9:59 a -7.8 -7.7 -7.8 --- --- 0.0 W 0.00 0.9 -7.8 --- --- 723.9 0.018 0.000 8.9 6 1
02/15/06 10:00 a -7.8 -7.8 -7.9 --- --- 0.9 W 0.01 1.7 -7.8 --- --- 723.9 0.018 0.000 8.9 6 1
02/15/06 10:01 a -7.9 -7.9 -7.9 --- --- 0.9 W 0.01 1.7 -7.9 --- --- 723.8 0.018 0.000 8.9 6 1
02/15/06 10:02 a -8.0 -7.9 -8.0 --- --- 0.9 W 0.01 1.7 -8.0 --- --- 723.9 0.018 0.000 8.9 6 1
02/15/06 10:03 a -8.0 -8.0 -8.0 --- --- 1.7 W 0.03 1.7 -9.4 --- --- 723.9 0.018 0.000 8.9 6 1
02/15/06 10:04 a -8.1 -8.0 -8.1 --- --- 1.7 W 0.03 2.6 -9.4 --- --- 724.0 0.018 0.000 8.9 6 1
02/15/06 10:05 a -8.1 -8.1 -8.1 --- --- 1.7 W 0.03 2.6 -9.4 --- --- 723.9 0.018 0.000 8.9 6 1
02/15/06 10:06 a -8.1 -8.1 -8.1 --- --- 2.6 W 0.04 3.5 -10.6 --- --- 723.9 0.018 0.000 8.8 6 1
02/15/06 10:07 a -8.1 -8.0 -8.1 --- --- 2.6 W 0.04 3.5 -10.6 --- --- 723.9 0.018 0.000 8.9 6 1
02/15/06 10:08 a -8.1 -8.1 -8.1 --- --- 2.6 W 0.04 3.5 -10.6 --- --- 723.9 0.018 0.000 8.8 6 1
02/15/06 10:09 a -8.1 -8.1 -8.1 --- --- 2.6 W 0.04 3.5 -10.6 --- --- 723.9 0.018 0.000 8.8 6 1
02/15/06 10:10 a -8.1 -8.1 -8.1 --- --- 2.6 W 0.04 3.5 -10.6 --- --- 723.9 0.018 0.000 8.8 6 1
02/15/06 10:11 a -8.1 -8.0 -8.1 --- --- 2.6 W 0.04 2.6 -10.6 --- --- 724.0 0.018 0.000 8.8 6 1
02/15/06 10:12 a -8.1 -8.0 -8.1 --- --- 2.6 W 0.04 2.6 -10.6 --- --- 724.1 0.018 0.000 8.8 6 1
02/15/06 10:13 a -8.0 -8.0 -8.1 --- --- 2.6 W 0.04 2.6 -10.6 --- --- 723.9 0.018 0.000 8.8 6 1
02/15/06 10:14 a -8.1 -8.0 -8.1 --- --- 2.6 W 0.04 3.5 -10.6 --- --- 724.0 0.018 0.000 8.8 6 1
02/15/06 10:15 a -8.1 -8.1 -8.1 --- --- 2.6 W 0.04 2.6 -10.6 --- --- 724.0 0.018 0.000 8.8 6 1
02/15/06 10:16 a -8.0 -8.0 -8.1 --- --- 1.7 W 0.03 2.6 -9.4 --- --- 723.9 0.018 0.000 8.8 6 1
02/15/06 10:17 a -8.0 -8.0 -8.0 --- --- 1.7 W 0.03 2.6 -9.4 --- --- 723.9 0.018 0.000 8.8 6 1
02/15/06 10:18 a -8.0 -8.0 -8.1 --- --- 1.7 W 0.03 2.6 -9.4 --- --- 723.9 0.018 0.000 8.8 6 1
02/15/06 10:19 a -8.1 -8.0 -8.1 --- --- 2.6 W 0.04 2.6 -10.6 --- --- 724.0 0.018 0.000 8.8 6 1
02/15/06 10:20 a -8.1 -8.0 -8.1 --- --- 2.6 W 0.04 2.6 -10.6 --- --- 724.0 0.018 0.000 8.8 6 1
02/15/06 10:21 a -8.0 -8.0 -8.1 --- --- 2.6 W 0.04 2.6 -10.6 --- --- 723.9 0.018 0.000 8.8 6 1
02/15/06 10:22 a -8.1 -8.1 -8.1 --- --- 2.6 W 0.04 3.5 -10.6 --- --- 724.0 0.018 0.000 8.8 6 1
02/15/06 10:23 a -8.1 -8.1 -8.1 --- --- 2.6 W 0.04 3.5 -10.7 --- --- 724.0 0.018 0.000 8.8 6 1
02/15/06 10:24 a -8.1 -8.1 -8.1 --- --- 2.6 W 0.04 2.6 -10.7 --- --- 724.1 0.018 0.000 8.8 6 1
02/15/06 10:25 a -8.1 -8.1 -8.1 --- --- 1.7 W 0.03 2.6 -9.5 --- --- 724.0 0.018 0.000 8.8 6 1
02/15/06 10:26 a -8.1 -8.1 -8.2 --- --- 1.7 W 0.03 2.6 -9.5 --- --- 724.0 0.018 0.000 8.8 6 1
02/15/06 10:27 a -8.2 -8.2 -8.2 --- --- 1.7 W 0.03 2.6 -9.6 --- --- 724.0 0.018 0.000 8.8 6 1
02/15/06 10:28 a -8.2 -8.2 -8.2 --- --- 2.6 W 0.04 3.5 -10.7 --- --- 724.1 0.018 0.000 8.8 6 1
02/15/06 10:29 a -8.2 -8.2 -8.2 --- --- 2.6 W 0.04 3.5 -10.8 --- --- 724.0 0.018 0.000 8.8 6 1
02/15/06 10:30 a -8.2 -8.2 -8.2 --- --- 2.6 W 0.04 3.5 -10.8 --- --- 724.1 0.018 0.000 8.8 6 1
02/15/06 10:31 a -8.2 -8.2 -8.3 --- --- 3.5 W 0.06 4.3 -11.7 --- --- 724.0 0.018 0.000 8.8 6 1
02/15/06 10:32 a -8.2 -8.2 -8.3 --- --- 2.6 W 0.04 3.5 -10.8 --- --- 724.0 0.018 0.000 8.8 6 1
02/15/06 10:33 a -8.3 -8.3 -8.3 --- --- 3.5 W 0.06 3.5 -11.7 --- --- 724.2 0.018 0.000 8.8 6 1
02/15/06 10:34 a -8.3 -8.3 -8.3 --- --- 3.5 WNW 0.06 4.3 -11.8 --- --- 724.1 0.019 0.000 8.8 6 1
02/15/06 10:35 a -8.4 -8.3 -8.4 --- --- 4.3 NW 0.07 5.2 -12.6 --- --- 724.0 0.019 0.000 8.8 6 1
02/15/06 10:36 a -8.4 -8.4 -8.4 --- --- 4.3 NW 0.07 5.2 -12.6 --- --- 724.0 0.019 0.000 8.8 6 1
02/15/06 10:37 a -8.3 -8.3 -8.4 --- --- 4.3 NW 0.07 5.2 -12.5 --- --- 724.1 0.019 0.000 8.8 6 1
02/15/06 10:38 a -8.4 -8.4 -8.4 --- --- 3.5 NW 0.06 4.3 -11.9 --- --- 724.1 0.019 0.000 8.8 6 1
02/15/06 10:39 a -8.5 -8.4 -8.6 --- --- 3.5 NW 0.06 4.3 -12.0 --- --- 724.0 0.019 0.000 8.8 6 1
02/15/06 10:40 a -8.5 -8.4 -8.5 --- --- 3.5 NW 0.06 3.5 -12.0 --- --- 724.1 0.019 0.000 8.7 6 1
02/15/06 10:41 a -8.4 -8.4 -8.5 --- --- 3.5 NW 0.06 4.3 -11.9 --- --- 724.1 0.019 0.000 8.7 6 1
02/15/06 10:42 a -8.4 -8.4 -8.4 --- --- 3.5 NW 0.06 3.5 -11.9 --- --- 724.1 0.019 0.000 8.7 6 1
02/15/06 10:43 a -8.4 -8.4 -8.5 --- --- 2.6 NW 0.04 3.5 -11.1 --- --- 724.2 0.019 0.000 8.7 6 1
02/15/06 10:44 a -8.5 -8.5 -8.5 --- --- 2.6 NW 0.04 3.5 -11.1 --- --- 724.1 0.019 0.000 8.7 6 1
02/15/06 10:45 a -8.5 -8.5 -8.5 --- --- 2.6 NW 0.04 3.5 -11.1 --- --- 724.2 0.019 0.000 8.7 6 1
02/15/06 10:46 a -8.5 -8.5 -8.5 --- --- 2.6 NW 0.04 2.6 -11.1 --- --- 724.1 0.019 0.000 8.7 6 1
02/15/06 10:47 a -8.5 -8.4 -8.5 --- --- 2.6 NW 0.04 2.6 -11.1 --- --- 724.2 0.019 0.000 8.7 6 1
02/15/06 10:48 a -8.4 -8.4 -8.4 --- --- 2.6 NW 0.04 2.6 -11.1 --- --- 724.2 0.019 0.000 8.7 6 1
02/15/06 10:49 a -8.4 -8.4 -8.4 --- --- 1.7 NW 0.03 2.6 -9.8 --- --- 724.2 0.019 0.000 8.7 6 1
02/15/06 10:50 a -8.4 -8.4 -8.4 --- --- 1.7 NW 0.03 1.7 -9.8 --- --- 724.2 0.019 0.000 8.7 6 1
02/15/06 10:51 a -8.4 -8.4 -8.5 --- --- 1.7 NW 0.03 1.7 -9.8 --- --- 724.1 0.019 0.000 8.7 6 1
02/15/06 10:52 a -8.5 -8.5 -8.5 --- --- 1.7 NW 0.03 1.7 -9.9 --- --- 724.2 0.019 0.000 8.7 6 1
02/15/06 10:53 a -8.5 -8.5 -8.6 --- --- 0.9 NW 0.01 1.7 -8.5 --- --- 724.2 0.019 0.000 8.7 6 1
02/15/06 10:54 a -8.5 -8.5 -8.6 --- --- 1.7 NW 0.03 1.7 -9.9 --- --- 724.2 0.019 0.000 8.7 6 1
02/15/06 10:55 a -8.6 -8.6 -8.6 --- --- 1.7 NW 0.03 1.7 -10.0 --- --- 724.3 0.019 0.000 8.7 6 1
02/15/06 10:56 a -8.6 -8.6 -8.6 --- --- 1.7 NW 0.03 1.7 -10.1 --- --- 724.1 0.019 0.000 8.7 6 1
02/15/06 10:57 a -8.6 -8.6 -8.6 --- --- 1.7 NW 0.03 2.6 -10.1 --- --- 724.2 0.019 0.000 8.7 6 1
02/15/06 10:58 a -8.6 -8.6 -8.6 --- --- 1.7 NW 0.03 2.6 -10.1 --- --- 724.2 0.019 0.000 8.7 6 1
02/15/06 10:59 a -8.6 -8.6 -8.6 --- --- 1.7 NW 0.03 2.6 -10.1 --- --- 724.1 0.019 0.000 8.7 6 1
02/15/06 11:00 a -8.6 -8.6 -8.6 --- --- 1.7 NW 0.03 1.7 -10.1 --- --- 724.1 0.019 0.000 8.7 6 1
02/15/06 11:01 a -8.6 -8.6 -8.6 --- --- 0.9 NW 0.01 1.7 -8.6 --- --- 724.2 0.019 0.000 8.7 6 1
02/15/06 11:02 a -8.6 -8.6 -8.6 --- --- 0.9 NW 0.01 1.7 -8.6 --- --- 724.2 0.019 0.000 8.7 6 1
02/15/06 11:03 a -8.6 -8.6 -8.6 --- --- 0.9 NW 0.01 1.7 -8.6 --- --- 724.1 0.019 0.000 8.7 6 1
02/15/06 11:04 a -8.6 -8.6 -8.7 --- --- 0.9 NW 0.01 0.9 -8.6 --- --- 724.2 0.019 0.000 8.7 6 1
02/15/06 11:05 a -8.7 -8.6 -8.7 --- --- 1.7 NW 0.03 1.7 -10.1 --- --- 724.2 0.019 0.000 8.7 6 1
02/15/06 11:06 a -8.7 -8.6 -8.7 --- --- 1.7 NW 0.03 2.6 -10.1 --- --- 724.2 0.019 0.000 8.7 6 1
02/15/06 11:07 a -8.7 -8.6 -8.7 --- --- 1.7 NW 0.03 2.6 -10.1 --- --- 724.2 0.019 0.000 8.7 6 1
02/15/06 11:08 a -8.6 -8.6 -8.7 --- --- 1.7 NW 0.03 1.7 -10.1 --- --- 724.2 0.019 0.000 8.7 6 1
02/15/06 11:09 a -8.6 -8.6 -8.6 --- --- 0.9 NW 0.01 1.7 -8.6 --- --- 724.2 0.019 0.000 8.7 6 1
02/15/06 11:10 a -8.6 -8.6 -8.6 --- --- 0.9 NW 0.01 1.7 -8.6 --- --- 724.2 0.019 0.000 8.7 6 1
02/15/06 11:11 a -8.7 -8.6 -8.7 --- --- 0.9 NW 0.01 0.9 -8.7 --- --- 724.2 0.019 0.000 8.7 6 1
02/15/06 11:12 a -8.7 -8.7 -8.7 --- --- 0.9 NW 0.01 1.7 -8.7 --- --- 724.2 0.019 0.000 8.7 6 1
02/15/06 11:13 a -8.7 -8.7 -8.7 --- --- 1.7 NW 0.03 1.7 -10.1 --- --- 724.3 0.019 0.000 8.7 6 1
02/15/06 11:14 a -8.7 -8.6 -8.7 --- --- 1.7 NW 0.03 2.6 -10.1 --- --- 724.3 0.019 0.000 8.7 6 1
02/15/06 11:15 a -8.6 -8.6 -8.7 --- --- 0.9 NW 0.01 1.7 -8.6 --- --- 724.4 0.019 0.000 8.7 6 1
02/15/06 11:16 a -8.6 -8.6 -8.6 --- --- 0.9 NW 0.01 1.7 -8.6 --- --- 724.3 0.019 0.000 8.7 6 1
02/15/06 11:17 a -8.7 -8.6 -8.7 --- --- 0.9 NW 0.01 1.7 -8.7 --- --- 724.3 0.019 0.000 8.7 6 1
02/15/06 11:18 a -8.7 -8.6 -8.7 --- --- 0.9 NW 0.01 1.7 -8.7 --- --- 724.4 0.019 0.000 8.7 6 1
02/15/06 11:19 a -8.6 -8.6 -8.7 --- --- 0.9 NW 0.01 1.7 -8.6 --- --- 724.3 0.019 0.000 8.7 6 1
02/15/06 11:20 a -8.7 -8.6 -8.7 --- --- 0.9 NW 0.01 1.7 -8.7 --- --- 724.4 0.019 0.000 8.7 6 1
02/15/06 11:21 a -8.7 -8.7 -8.7 --- --- 0.9 NW 0.01 1.7 -8.7 --- --- 724.3 0.019 0.000 8.7 6 1
02/15/06 11:22 a -8.7 -8.7 -8.7 --- --- 0.9 NW 0.01 1.7 -8.7 --- --- 724.3 0.019 0.000 8.7 6 1
02/15/06 11:23 a -8.7 -8.7 -8.7 --- --- 0.9 NW 0.01 1.7 -8.7 --- --- 724.4 0.019 0.000 8.6 6 1
02/15/06 11:24 a -8.7 -8.7 -8.7 --- --- 0.9 NW 0.01 1.7 -8.7 --- --- 724.4 0.019 0.000 8.6 6 1
02/15/06 11:25 a -8.7 -8.7 -8.7 --- --- 0.9 NW 0.01 1.7 -8.7 --- --- 724.3 0.019 0.000 8.6 6 1
02/15/06 11:26 a -8.7 -8.7 -8.7 --- --- 0.9 NW 0.01 1.7 -8.7 --- --- 724.3 0.019 0.000 8.6 6 1
02/15/06 11:27 a -8.7 -8.7 -8.7 --- --- 0.9 NW 0.01 1.7 -8.7 --- --- 724.3 0.019 0.000 8.6 6 1
02/15/06 11:28 a -8.7 -8.7 -8.7 --- --- 0.9 NW 0.01 1.7 -8.7 --- --- 724.4 0.019 0.000 8.6 6 1
02/15/06 11:29 a -8.7 -8.7 -8.7 --- --- 0.9 NW 0.01 1.7 -8.7 --- --- 724.4 0.019 0.000 8.6 6 1
02/15/06 11:30 a -8.8 -8.7 -8.8 --- --- 0.9 NW 0.01 1.7 -8.8 --- --- 724.3 0.019 0.000 8.6 6 1
02/15/06 11:31 a -8.8 -8.8 -8.8 --- --- 0.9 NW 0.01 1.7 -8.8 --- --- 724.4 0.019 0.000 8.6 6 1
02/15/06 11:32 a -8.8 -8.8 -8.8 --- --- 0.9 NW 0.01 0.9 -8.8 --- --- 724.4 0.019 0.000 8.6 6 1
02/15/06 11:33 a -8.8 -8.8 -8.8 --- --- 0.9 NW 0.01 1.7 -8.8 --- --- 724.4 0.019 0.000 8.6 6 1
02/15/06 11:34 a -8.8 -8.8 -8.8 --- --- 0.9 NW 0.01 1.7 -8.8 --- --- 724.5 0.019 0.000 8.6 6 1
02/15/06 11:35 a -8.8 -8.8 -8.8 --- --- 0.0 NW 0.00 0.9 -8.8 --- --- 724.4 0.019 0.000 8.6 6 1
02/15/06 11:36 a -8.8 -8.8 -8.8 --- --- 0.9 NW 0.01 0.9 -8.8 --- --- 724.4 0.019 0.000 8.6 6 1
02/15/06 11:37 a -8.8 -8.8 -8.8 --- --- 0.9 NW 0.01 0.9 -8.8 --- --- 724.5 0.019 0.000 8.6 6 1
02/15/06 11:38 a -8.8 -8.8 -8.9 --- --- 0.0 NW 0.00 0.9 -8.8 --- --- 724.4 0.019 0.000 8.6 6 1
02/15/06 11:39 a -8.8 -8.8 -8.9 --- --- 0.9 NW 0.01 0.9 -8.8 --- --- 724.5 0.019 0.000 8.6 6 1
02/15/06 11:40 a -8.8 -8.8 -8.9 --- --- 0.0 NW 0.00 0.9 -8.8 --- --- 724.4 0.019 0.000 8.6 6 1
02/15/06 11:41 a -8.8 -8.8 -8.9 --- --- 0.0 NW 0.00 0.9 -8.8 --- --- 724.4 0.019 0.000 8.6 6 1
02/15/06 11:42 a -8.8 -8.8 -8.8 --- --- 0.9 NW 0.01 0.9 -8.8 --- --- 724.5 0.019 0.000 8.6 6 1
02/15/06 11:43 a -8.8 -8.8 -8.8 --- --- 0.0 NW 0.00 0.9 -8.8 --- --- 724.5 0.019 0.000 8.6 6 1
02/15/06 11:44 a -8.8 -8.8 -8.8 --- --- 0.0 NW 0.00 0.9 -8.8 --- --- 724.5 0.019 0.000 8.6 6 1
02/15/06 11:45 a -8.8 -8.8 -8.8 --- --- 0.0 NW 0.00 0.9 -8.8 --- --- 724.5 0.019 0.000 8.6 6 1
02/15/06 11:46 a -8.8 -8.8 -8.8 --- --- 0.0 NW 0.00 0.9 -8.8 --- --- 724.5 0.019 0.000 8.6 6 1
02/15/06 11:47 a -8.8 -8.8 -8.8 --- --- 0.0 NW 0.00 0.9 -8.8 --- --- 724.4 0.019 0.000 8.6 6 1
02/15/06 11:48 a -8.8 -8.7 -8.8 --- --- 0.0 NW 0.00 0.9 -8.8 --- --- 724.6 0.019 0.000 8.6 6 1
02/15/06 11:49 a -8.8 -8.7 -8.8 --- --- 0.0 NW 0.00 0.9 -8.8 --- --- 724.5 0.019 0.000 8.6 6 1
02/15/06 11:50 a -8.7 -8.7 -8.8 --- --- 0.0 NW 0.00 0.9 -8.7 --- --- 724.6 0.019 0.000 8.5 6 1
02/15/06 11:51 a -8.7 -8.7 -8.7 --- --- 0.0 --- 0.00 0.0 -8.7 --- --- 724.5 0.019 0.000 8.5 6 1
02/15/06 11:52 a -8.7 -8.7 -8.7 --- --- 0.0 --- 0.00 0.9 -8.7 --- --- 724.5 0.019 0.000 8.5 6 1
02/15/06 11:53 a -8.7 -8.7 -8.8 --- --- 0.0 --- 0.00 0.0 -8.7 --- --- 724.5 0.019 0.000 8.5 6 1
02/15/06 11:54 a -8.7 -8.7 -8.7 --- --- 0.0 NW 0.00 0.9 -8.7 --- --- 724.6 0.019 0.000 8.5 6 1
02/15/06 11:55 a -8.7 -8.7 -8.7 --- --- 0.0 --- 0.00 0.0 -8.7 --- --- 724.5 0.019 0.000 8.5 6 1
02/15/06 11:56 a -8.7 -8.7 -8.7 --- --- 0.0 --- 0.00 0.0 -8.7 --- --- 724.5 0.019 0.000 8.6 6 1
02/15/06 11:57 a -8.7 -8.7 -8.7 --- --- 0.0 --- 0.00 0.0 -8.7 --- --- 724.5 0.019 0.000 8.6 6 1
02/15/06 11:58 a -8.7 -8.7 -8.7 --- --- 0.0 --- 0.00 0.0 -8.7 --- --- 724.5 0.019 0.000 8.5 6 1
02/15/06 11:59 a -8.7 -8.7 -8.7 --- --- 0.0 --- 0.00 0.0 -8.7 --- --- 724.5 0.019 0.000 8.5 6 1
02/15/06 12:00 p -8.7 -8.7 -8.7 --- --- 0.0 --- 0.00 0.0 -8.7 --- --- 724.5 0.019 0.000 8.5 6 1
02/15/06 12:01 p -8.7 -8.7 -8.7 --- --- 0.0 --- 0.00 0.0 -8.7 --- --- 724.6 0.019 0.000 8.5 6 1
02/15/06 12:02 p -8.7 -8.7 -8.7 --- --- 0.0 --- 0.00 0.0 -8.7 --- --- 724.5 0.019 0.000 8.5 6 1
02/15/06 12:03 p -8.7 -8.7 -8.7 --- --- 0.0 --- 0.00 0.0 -8.7 --- --- 724.6 0.019 0.000 8.5 6 1
02/15/06 12:04 p -8.7 -8.7 -8.7 --- --- 0.0 --- 0.00 0.0 -8.7 --- --- 724.6 0.019 0.000 8.5 6 1
02/15/06 12:05 p -8.7 -8.7 -8.7 --- --- 0.0 --- 0.00 0.0 -8.7 --- --- 724.7 0.019 0.000 8.5 6 1
02/15/06 12:06 p -8.7 -8.7 -8.7 --- --- 0.0 --- 0.00 0.0 -8.7 --- --- 724.6 0.019 0.000 8.5 6 1
02/15/06 12:07 p -8.7 -8.7 -8.7 --- --- 0.0 --- 0.00 0.0 -8.7 --- --- 724.7 0.019 0.000 8.5 6 1
02/15/06 12:08 p -8.7 -8.7 -8.8 --- --- 0.0 --- 0.00 0.0 -8.7 --- --- 724.7 0.019 0.000 8.5 6 1
02/15/06 12:09 p -8.8 -8.7 -8.8 --- --- 0.0 --- 0.00 0.0 -8.8 --- --- 724.7 0.019 0.000 8.5 6 1
02/15/06 12:10 p -8.8 -8.7 -8.8 --- --- 0.0 --- 0.00 0.0 -8.8 --- --- 724.7 0.019 0.000 8.4 6 1
02/15/06 12:11 p -8.8 -8.7 -8.8 --- --- 0.0 --- 0.00 0.0 -8.8 --- --- 724.6 0.019 0.000 8.4 6 1
02/15/06 12:12 p -8.7 -8.7 -8.8 --- --- 0.0 --- 0.00 0.0 -8.7 --- --- 724.6 0.019 0.000 8.4 6 1
02/15/06 12:13 p -8.7 -8.7 -8.8 --- --- 0.0 --- 0.00 0.0 -8.7 --- --- 724.7 0.019 0.000 8.4 6 1
02/15/06 12:14 p -8.7 -8.7 -8.7 --- --- 0.0 --- 0.00 0.0 -8.7 --- --- 724.6 0.019 0.000 8.4 6 1
02/15/06 12:15 p -8.7 -8.7 -8.7 --- --- 0.0 --- 0.00 0.0 -8.7 --- --- 724.7 0.019 0.000 8.4 6 1
02/15/06 12:16 p -8.7 -8.7 -8.8 --- --- 0.0 --- 0.00 0.0 -8.7 --- --- 724.7 0.019 0.000 8.4 6 1
02/15/06 12:17 p -8.8 -8.8 -8.8 --- --- 0.0 --- 0.00 0.0 -8.8 --- --- 724.6 0.019 0.000 8.4 6 1
02/15/06 12:18 p -8.8 -8.8 -8.8 --- --- 0.0 --- 0.00 0.0 -8.8 --- --- 724.7 0.019 0.000 8.4 6 1
02/15/06 12:19 p -8.9 -8.8 -8.9 --- --- 0.0 --- 0.00 0.0 -8.9 --- --- 724.6 0.019 0.000 8.4 6 1
02/15/06 12:20 p -8.9 -8.9 -8.9 --- --- 0.9 NW 0.01 0.9 -8.9 --- --- 724.7 0.019 0.000 8.4 6 1
02/15/06 12:21 p -9.0 -8.9 -9.1 --- --- 0.0 --- 0.00 0.9 -9.0 --- --- 724.7 0.019 0.000 8.4 6 1
02/15/06 12:22 p -9.1 -9.1 -9.1 --- --- 0.0 --- 0.00 0.0 -9.1 --- --- 724.7 0.019 0.000 8.4 6 1
02/15/06 12:23 p -9.1 -9.1 -9.1 --- --- 0.0 NW 0.00 0.9 -9.1 --- --- 724.7 0.019 0.000 8.4 6 1
02/15/06 12:24 p -9.2 -9.1 -9.2 --- --- 0.0 --- 0.00 0.0 -9.2 --- --- 724.7 0.019 0.000 8.4 6 1
02/15/06 12:25 p -9.2 -9.2 -9.2 --- --- 0.0 NW 0.00 0.9 -9.2 --- --- 724.8 0.019 0.000 8.4 6 1
02/15/06 12:26 p -9.3 -9.2 -9.3 --- --- 0.0 NW 0.00 0.9 -9.3 --- --- 724.8 0.019 0.000 8.4 6 1
02/15/06 12:27 p -9.3 -9.3 -9.4 --- --- 0.9 NW 0.01 0.9 -9.3 --- --- 724.8 0.019 0.000 8.4 6 1
02/15/06 12:28 p -9.4 -9.4 -9.4 --- --- 0.9 NW 0.01 0.9 -9.4 --- --- 724.7 0.019 0.000 8.4 6 1
02/15/06 12:29 p -9.4 -9.4 -9.4 --- --- 0.9 NW 0.01 0.9 -9.4 --- --- 724.8 0.019 0.000 8.4 6 1
02/15/06 12:30 p -9.5 -9.4 -9.5 --- --- 0.9 NW 0.01 1.7 -9.5 --- --- 724.7 0.019 0.000 8.4 6 1
02/15/06 12:31 p -9.6 -9.5 -9.6 --- --- 0.9 NW 0.01 1.7 -9.6 --- --- 724.8 0.019 0.000 8.4 6 1
02/15/06 12:32 p -9.6 -9.6 -9.7 --- --- 0.9 NW 0.01 1.7 -9.6 --- --- 724.7 0.019 0.000 8.4 6 1
02/15/06 12:33 p -9.7 -9.7 -9.7 --- --- 0.9 NW 0.01 1.7 -9.7 --- --- 724.8 0.019 0.000 8.4 6 1
02/15/06 12:34 p -9.7 -9.7 -9.8 --- --- 1.7 NW 0.03 1.7 -11.3 --- --- 724.7 0.019 0.000 8.4 6 1
02/15/06 12:35 p -9.8 -9.8 -9.8 --- --- 1.7 NW 0.03 2.6 -11.4 --- --- 724.8 0.020 0.000 8.4 6 1
02/15/06 12:36 p -9.9 -9.8 -9.9 --- --- 1.7 NW 0.03 1.7 -11.4 --- --- 724.8 0.020 0.000 8.4 6 1
02/15/06 12:37 p -9.9 -9.9 -10.0 --- --- 1.7 NW 0.03 2.6 -11.5 --- --- 724.8 0.020 0.000 8.4 6 1
02/15/06 12:38 p -10.0 -9.9 -10.0 --- --- 1.7 NW 0.03 2.6 -11.6 --- --- 724.8 0.020 0.000 8.4 6 1
02/15/06 12:39 p -10.1 -10.0 -10.1 --- --- 1.7 NW 0.03 2.6 -11.6 --- --- 724.9 0.020 0.000 8.4 6 1
02/15/06 12:40 p -10.1 -10.1 -10.1 --- --- 1.7 NW 0.03 2.6 -11.6 --- --- 724.8 0.020 0.000 8.4 6 1
02/15/06 12:41 p -10.1 -10.1 -10.1 --- --- 2.6 NW 0.04 2.6 -12.9 --- --- 724.8 0.020 0.000 8.4 6 1
02/15/06 12:42 p -10.1 -10.1 -10.1 --- --- 1.7 NW 0.03 2.6 -11.7 --- --- 724.8 0.020 0.000 8.4 6 1
02/15/06 12:43 p -10.1 -10.1 -10.1 --- --- 1.7 NW 0.03 2.6 -11.6 --- --- 724.7 0.020 0.000 8.3 6 1
02/15/06 12:44 p -10.1 -10.0 -10.1 --- --- 1.7 NW 0.03 2.6 -11.6 --- --- 724.8 0.020 0.000 8.4 6 1
02/15/06 12:45 p -10.0 -10.0 -10.1 --- --- 1.7 NW 0.03 2.6 -11.6 --- --- 724.8 0.020 0.000 8.3 6 1
02/15/06 12:46 p -10.0 -9.9 -10.0 --- --- 1.7 NW 0.03 2.6 -11.6 --- --- 724.9 0.020 0.000 8.3 6 1
02/15/06 12:47 p -9.9 -9.9 -10.0 --- --- 1.7 NW 0.03 2.6 -11.5 --- --- 724.8 0.020 0.000 8.3 6 1
02/15/06 12:48 p -9.9 -9.9 -9.9 --- --- 2.6 NW 0.04 2.6 -12.7 --- --- 724.9 0.020 0.000 8.3 6 1
02/15/06 12:49 p -9.9 -9.9 -9.9 --- --- 2.6 NNW 0.04 3.5 -12.7 --- --- 724.8 0.020 0.000 8.3 6 1
02/15/06 12:50 p -9.9 -9.9 -9.9 --- --- 2.6 N 0.04 3.5 -12.7 --- --- 724.8 0.020 0.000 8.3 6 1
02/15/06 12:51 p -9.9 -9.9 -9.9 --- --- 3.5 NNE 0.06 3.5 -13.6 --- --- 724.8 0.020 0.000 8.3 6 1
02/15/06 12:52 p -9.9 -9.9 -9.9 --- --- 3.5 NE 0.06 3.5 -13.7 --- --- 724.7 0.020 0.000 8.4 6 1
02/15/06 12:53 p -9.9 -9.9 -9.9 --- --- 2.6 NE 0.04 3.5 -12.7 --- --- 724.8 0.020 0.000 8.4 6 1
02/15/06 12:54 p -9.9 -9.9 -9.9 --- --- 2.6 NE 0.04 3.5 -12.7 --- --- 724.8 0.020 0.000 8.4 6 1
02/15/06 12:55 p -10.0 -9.9 -10.0 --- --- 3.5 NE 0.06 3.5 -13.7 --- --- 724.8 0.020 0.000 8.4 6 1
02/15/06 12:56 p -10.0 -10.0 -10.0 --- --- 3.5 NE 0.06 4.3 -13.7 --- --- 724.8 0.020 0.000 8.4 6 1
02/15/06 12:57 p -10.1 -10.0 -10.1 --- --- 3.5 NE 0.06 4.3 -13.8 --- --- 724.8 0.020 0.000 8.4 6 1
02/15/06 12:58 p -10.1 -10.1 -10.1 --- --- 4.3 NE 0.07 4.3 -14.6 --- --- 724.9 0.020 0.000 8.5 6 1
02/15/06 12:59 p -10.2 -10.2 -10.2 --- --- 4.3 NE 0.07 5.2 -14.7 --- --- 724.9 0.020 0.000 8.5 6 1
02/15/06 1:00 p -10.3 -10.2 -10.3 --- --- 4.3 NE 0.07 5.2 -14.8 --- --- 724.8 0.020 0.000 8.6 6 1
02/15/06 1:01 p -10.3 -10.3 -10.4 --- --- 4.3 NE 0.07 4.3 -14.9 --- --- 724.8 0.020 0.000 8.6 6 1
02/15/06 1:02 p -10.4 -10.4 -10.4 --- --- 4.3 NE 0.07 4.3 -14.9 --- --- 724.8 0.020 0.000 8.6 6 1
02/15/06 1:03 p -10.4 -10.4 -10.4 --- --- 4.3 ENE 0.07 4.3 -15.0 --- --- 724.9 0.020 0.000 8.6 6 1
02/15/06 1:04 p -10.5 -10.4 -10.5 --- --- 4.3 ENE 0.07 5.2 -15.1 --- --- 724.8 0.020 0.000 8.6 6 1
02/15/06 1:05 p -10.5 -10.5 -10.5 --- --- 4.3 ENE 0.07 5.2 -15.1 --- --- 724.9 0.020 0.000 8.6 6 1
02/15/06 1:06 p -10.5 -10.5 -10.6 --- --- 4.3 ENE 0.07 5.2 -15.1 --- --- 724.9 0.020 0.000 8.7 6 1
02/15/06 1:07 p -10.5 -10.5 -10.6 --- --- 4.3 ENE 0.07 5.2 -15.1 --- --- 724.8 0.020 0.000 8.7 6 1
02/15/06 1:08 p -10.6 -10.5 -10.6 --- --- 4.3 ENE 0.07 5.2 -15.1 --- --- 724.9 0.020 0.000 8.7 6 1
02/15/06 1:09 p -10.6 -10.6 -10.6 --- --- 5.2 ENE 0.09 5.2 -15.8 --- --- 724.9 0.020 0.000 8.7 6 1
02/15/06 1:10 p -10.6 -10.6 -10.6 --- --- 5.2 ENE 0.09 5.2 -15.8 --- --- 724.9 0.020 0.000 8.7 6 1
02/15/06 1:11 p -10.6 -10.6 -10.6 --- --- 4.3 ENE 0.07 5.2 -15.1 --- --- 724.9 0.020 0.000 8.7 6 1
02/15/06 1:12 p -10.6 -10.6 -10.6 --- --- 5.2 ENE 0.09 5.2 -15.8 --- --- 724.8 0.020 0.000 8.7 6 1
02/15/06 1:13 p -10.5 -10.5 -10.6 --- --- 5.2 ENE 0.09 6.1 -15.7 --- --- 724.8 0.020 0.000 8.7 6 1
02/15/06 1:14 p -10.5 -10.5 -10.5 --- --- 4.3 ENE 0.07 5.2 -15.1 --- --- 724.8 0.020 0.000 8.8 6 1
02/15/06 1:15 p -10.5 -10.4 -10.5 --- --- 5.2 ENE 0.09 5.2 -15.7 --- --- 724.9 0.020 0.000 8.8 6 1
02/15/06 1:16 p -10.5 -10.4 -10.5 --- --- 5.2 ENE 0.09 6.1 -15.7 --- --- 724.8 0.020 0.000 8.8 6 1
02/15/06 1:17 p -10.5 -10.4 -10.5 --- --- 5.2 ENE 0.09 6.1 -15.7 --- --- 724.9 0.020 0.000 8.8 6 1
02/15/06 1:18 p -10.4 -10.4 -10.5 --- --- 4.3 ENE 0.07 5.2 -15.0 --- --- 724.9 0.020 0.000 8.8 6 1
02/15/06 1:19 p -10.4 -10.4 -10.4 --- --- 5.2 ENE 0.09 6.1 -15.7 --- --- 724.8 0.020 0.000 8.8 6 1
02/15/06 1:20 p -10.4 -10.4 -10.4 --- --- 5.2 ENE 0.09 6.1 -15.7 --- --- 724.9 0.020 0.000 8.8 6 1
02/15/06 1:21 p -10.4 -10.4 -10.5 --- --- 5.2 ENE 0.09 5.2 -15.7 --- --- 724.8 0.020 0.000 8.8 6 1
02/15/06 1:22 p -10.4 -10.4 -10.4 --- --- 5.2 ENE 0.09 5.2 -15.7 --- --- 724.8 0.020 0.000 8.8 6 1
02/15/06 1:23 p -10.4 -10.4 -10.4 --- --- 5.2 ENE 0.09 6.1 -15.7 --- --- 724.8 0.020 0.000 8.8 6 1
02/15/06 1:24 p -10.4 -10.4 -10.4 --- --- 5.2 ENE 0.09 6.1 -15.6 --- --- 724.8 0.020 0.000 8.8 6 1
02/15/06 1:25 p -10.4 -10.4 -10.4 --- --- 5.2 ENE 0.09 6.1 -15.6 --- --- 724.8 0.020 0.000 8.8 6 1
02/15/06 1:26 p -10.3 -10.3 -10.4 --- --- 5.2 ENE 0.09 5.2 -15.5 --- --- 724.8 0.020 0.000 8.8 6 1
02/15/06 1:27 p -10.3 -10.3 -10.3 --- --- 5.2 ENE 0.09 5.2 -15.5 --- --- 724.9 0.020 0.000 8.9 6 1
02/15/06 1:28 p -10.3 -10.3 -10.3 --- --- 4.3 ENE 0.07 5.2 -14.9 --- --- 724.9 0.020 0.000 8.9 6 1
02/15/06 1:29 p -10.3 -10.3 -10.3 --- --- 4.3 ENE 0.07 6.1 -14.9 --- --- 724.8 0.020 0.000 8.9 6 1
02/15/06 1:30 p -10.3 -10.3 -10.3 --- --- 5.2 ENE 0.09 5.2 -15.4 --- --- 724.8 0.020 0.000 8.9 6 1
02/15/06 1:31 p -10.3 -10.3 -10.3 --- --- 5.2 ENE 0.09 6.1 -15.4 --- --- 724.9 0.020 0.000 8.9 6 1
02/15/06 1:32 p -10.3 -10.2 -10.3 --- --- 5.2 ENE 0.09 6.1 -15.4 --- --- 724.8 0.020 0.000 8.9 6 1
02/15/06 1:33 p -10.2 -10.2 -10.2 --- --- 5.2 ENE 0.09 6.1 -15.4 --- --- 724.8 0.020 0.000 9.0 6 1
02/15/06 1:34 p -10.2 -10.2 -10.2 --- --- 5.2 ENE 0.09 6.1 -15.4 --- --- 724.9 0.020 0.000 9.0 6 1
02/15/06 1:35 p -10.2 -10.2 -10.2 --- --- 5.2 ENE 0.09 6.1 -15.4 --- --- 724.9 0.020 0.000 9.0 6 1
02/15/06 1:36 p -10.2 -10.2 -10.2 --- --- 5.2 ENE 0.09 5.2 -15.4 --- --- 724.9 0.020 0.000 9.0 6 1
02/15/06 1:37 p -10.2 -10.2 -10.2 --- --- 5.2 ENE 0.09 5.2 -15.3 --- --- 725.0 0.020 0.000 9.0 6 1
02/15/06 1:38 p -10.2 -10.2 -10.2 --- --- 5.2 ENE 0.09 6.1 -15.3 --- --- 724.9 0.020 0.000 9.1 6 1
02/15/06 1:39 p -10.2 -10.2 -10.2 --- --- 5.2 ENE 0.09 5.2 -15.3 --- --- 724.8 0.020 0.000 9.1 6 1
02/15/06 1:40 p -10.1 -10.1 -10.2 --- --- 5.2 ENE 0.09 5.2 -15.2 --- --- 724.9 0.020 0.000 9.1 6 1
02/15/06 1:41 p -10.1 -10.1 -10.1 --- --- 5.2 ENE 0.09 6.1 -15.2 --- --- 724.9 0.020 0.000 9.1 6 1
02/15/06 1:42 p -10.1 -10.1 -10.1 --- --- 5.2 ENE 0.09 5.2 -15.2 --- --- 724.9 0.020 0.000 9.1 6 1
02/15/06 1:43 p -10.1 -10.1 -10.1 --- --- 5.2 ENE 0.09 6.1 -15.2 --- --- 724.9 0.020 0.000 9.1 6 1
02/15/06 1:44 p -10.1 -10.1 -10.1 --- --- 5.2 ENE 0.09 5.2 -15.2 --- --- 724.9 0.020 0.000 9.1 6 1
02/15/06 1:45 p -10.1 -10.0 -10.1 --- --- 5.2 ENE 0.09 6.1 -15.2 --- --- 724.9 0.020 0.000 9.1 6 1
02/15/06 1:46 p -10.1 -10.1 -10.1 --- --- 5.2 ENE 0.09 6.1 -15.2 --- --- 724.9 0.020 0.000 9.1 6 1
02/15/06 1:47 p -10.0 -10.0 -10.1 --- --- 5.2 ENE 0.09 6.1 -15.1 --- --- 724.9 0.020 0.000 9.1 6 1
02/15/06 1:48 p -9.9 -9.9 -9.9 --- --- 5.2 ENE 0.09 6.1 -15.1 --- --- 724.9 0.020 0.000 9.2 6 1
02/15/06 1:49 p -9.9 -9.9 -9.9 --- --- 5.2 ENE 0.09 6.1 -15.1 --- --- 724.9 0.020 0.000 9.2 6 1
02/15/06 1:50 p -9.9 -9.9 -10.0 --- --- 5.2 ENE 0.09 6.1 -15.1 --- --- 724.8 0.020 0.000 9.2 6 1
02/15/06 1:51 p -9.9 -9.9 -9.9 --- --- 5.2 ENE 0.09 6.1 -15.1 --- --- 724.9 0.020 0.000 9.2 6 1
02/15/06 1:52 p -9.9 -9.9 -9.9 --- --- 5.2 ENE 0.09 6.1 -15.1 --- --- 724.8 0.020 0.000 9.2 6 1
02/15/06 1:53 p -9.9 -9.9 -9.9 --- --- 5.2 ENE 0.09 6.1 -15.1 --- --- 724.9 0.020 0.000 9.2 6 1
02/15/06 1:54 p -9.9 -9.9 -9.9 --- --- 5.2 ENE 0.09 6.1 -15.0 --- --- 724.9 0.020 0.000 9.2 6 1
02/15/06 1:55 p -9.9 -9.9 -9.9 --- --- 5.2 ENE 0.09 5.2 -15.0 --- --- 724.9 0.020 0.000 9.2 6 1
02/15/06 1:56 p -9.9 -9.9 -9.9 --- --- 5.2 ENE 0.09 5.2 -15.0 --- --- 724.9 0.020 0.000 9.2 6 1
02/15/06 1:57 p -9.9 -9.9 -9.9 --- --- 5.2 ENE 0.09 6.1 -15.0 --- --- 724.9 0.020 0.000 9.2 5 1
02/15/06 1:58 p -9.9 -9.9 -9.9 --- --- 5.2 ENE 0.09 6.1 -15.0 --- --- 724.9 0.020 0.000 9.2 6 1
02/15/06 1:59 p -9.9 -9.9 -9.9 --- --- 5.2 ENE 0.09 6.1 -15.1 --- --- 724.9 0.020 0.000 9.2 6 1
02/15/06 2:00 p -9.9 -9.9 -9.9 --- --- 5.2 ENE 0.09 6.1 -15.0 --- --- 724.9 0.020 0.000 9.2 6 1
02/15/06 2:01 p -9.9 -9.9 -9.9 --- --- 6.1 ENE 0.10 6.1 -15.6 --- --- 724.9 0.020 0.000 9.2 6 1
02/15/06 2:02 p -9.9 -9.8 -9.9 --- --- 5.2 ENE 0.09 6.1 -15.0 --- --- 725.0 0.020 0.000 9.2 6 1
02/15/06 2:03 p -9.9 -9.9 -9.9 --- --- 5.2 ENE 0.09 5.2 -15.0 --- --- 724.9 0.020 0.000 9.2 6 1
02/15/06 2:04 p -9.9 -9.8 -9.9 --- --- 5.2 ENE 0.09 6.1 -15.0 --- --- 725.0 0.020 0.000 9.2 6 1
02/15/06 2:05 p -9.9 -9.8 -9.9 --- --- 5.2 ENE 0.09 6.1 -15.0 --- --- 724.9 0.020 0.000 9.2 6 1
02/15/06 2:06 p -9.9 -9.9 -9.9 --- --- 5.2 ENE 0.09 6.1 -15.0 --- --- 725.0 0.020 0.000 9.2 6 1
02/15/06 2:07 p -9.8 -9.8 -9.8 --- --- 5.2 ENE 0.09 7.0 -14.9 --- --- 725.0 0.020 0.000 9.2 6 1
02/15/06 2:08 p -9.8 -9.8 -9.8 --- --- 6.1 ENE 0.10 7.0 -15.4 --- --- 725.0 0.020 0.000 9.2 6 1
02/15/06 2:09 p -9.8 -9.8 -9.8 --- --- 5.2 ENE 0.09 6.1 -14.9 --- --- 725.0 0.020 0.000 9.3 6 1
02/15/06 2:10 p -9.8 -9.8 -9.8 --- --- 5.2 ENE 0.09 6.1 -14.8 --- --- 725.0 0.020 0.000 9.3 6 1
02/15/06 2:11 p -9.7 -9.7 -9.8 --- --- 5.2 NE 0.09 7.0 -14.8 --- --- 724.9 0.019 0.000 9.3 5 1
02/15/06 2:12 p -9.8 -9.7 -9.8 --- --- 5.2 NE 0.09 6.1 -14.8 --- --- 724.9 0.020 0.000 9.3 6 1
02/15/06 2:13 p -9.7 -9.7 -9.8 --- --- 4.3 NE 0.07 6.1 -14.2 --- --- 724.9 0.019 0.000 9.3 5 1
02/15/06 2:14 p -9.7 -9.7 -9.8 --- --- 5.2 NE 0.09 6.1 -14.8 --- --- 724.9 0.019 0.000 9.3 6 1
02/15/06 2:15 p -9.8 -9.8 -9.8 --- --- 6.1 NE 0.10 6.1 -15.4 --- --- 725.0 0.020 0.000 9.3 6 1
02/15/06 2:16 p -9.8 -9.8 -9.8 --- --- 5.2 NE 0.09 6.1 -14.8 --- --- 724.9 0.020 0.000 9.3 5 1
02/15/06 2:17 p -9.8 -9.8 -9.8 --- --- 4.3 NE 0.07 6.1 -14.2 --- --- 725.0 0.020 0.000 9.3 6 1
02/15/06 2:18 p -9.8 -9.7 -9.8 --- --- 5.2 NE 0.09 6.1 -14.8 --- --- 725.1 0.020 0.000 9.3 6 1
02/15/06 2:19 p -9.7 -9.7 -9.8 --- --- 5.2 NE 0.09 6.1 -14.8 --- --- 725.0 0.019 0.000 9.3 5 1
02/15/06 2:20 p -9.8 -9.7 -9.8 --- --- 5.2 NE 0.09 6.1 -14.8 --- --- 725.0 0.020 0.000 9.3 6 1
02/15/06 2:21 p -9.7 -9.7 -9.8 --- --- 4.3 NE 0.07 5.2 -14.2 --- --- 724.9 0.019 0.000 9.3 6 1
02/15/06 2:22 p -9.8 -9.7 -9.8 --- --- 5.2 NE 0.09 6.1 -14.8 --- --- 725.0 0.020 0.000 9.3 5 1
02/15/06 2:23 p -9.8 -9.8 -9.8 --- --- 6.1 NE 0.10 7.0 -15.4 --- --- 725.1 0.020 0.000 9.3 6 1
02/15/06 2:24 p -9.8 -9.8 -9.8 --- --- 5.2 NE 0.09 6.1 -14.9 --- --- 725.0 0.020 0.000 9.3 5 1
02/15/06 2:25 p -9.8 -9.8 -9.9 --- --- 6.1 NE 0.10 7.0 -15.4 --- --- 725.0 0.020 0.000 9.3 5 1
02/15/06 2:26 p -9.9 -9.8 -9.9 --- --- 6.1 NE 0.10 7.0 -15.6 --- --- 725.1 0.020 0.000 9.3 5 1
02/15/06 2:27 p -9.9 -9.8 -9.9 --- --- 4.3 NE 0.07 6.1 -14.3 --- --- 725.1 0.020 0.000 9.3 5 1
02/15/06 2:28 p -9.8 -9.8 -9.9 --- --- 6.1 NE 0.10 7.0 -15.4 --- --- 725.0 0.020 0.000 9.3 6 1
02/15/06 2:29 p -9.8 -9.8 -9.9 --- --- 6.1 NE 0.10 7.0 -15.4 --- --- 725.0 0.020 0.000 9.3 5 1
02/15/06 2:30 p -9.9 -9.8 -9.9 --- --- 5.2 NE 0.09 6.1 -15.0 --- --- 725.0 0.020 0.000 9.3 6 1
02/15/06 2:31 p -9.8 -9.8 -9.9 --- --- 6.1 NE 0.10 6.1 -15.4 --- --- 725.1 0.020 0.000 9.3 6 1
02/15/06 2:32 p -9.8 -9.8 -9.9 --- --- 5.2 NE 0.09 6.1 -14.9 --- --- 725.1 0.020 0.000 9.3 5 1
02/15/06 2:33 p -9.8 -9.8 -9.8 --- --- 6.1 NE 0.10 6.1 -15.4 --- --- 725.0 0.020 0.000 9.3 5 1
02/15/06 2:34 p -9.7 -9.7 -9.7 --- --- 3.5 NE 0.06 5.2 -13.4 --- --- 725.0 0.019 0.000 9.4 5 1
02/15/06 2:35 p -9.7 -9.7 -9.7 --- --- 4.3 NE 0.07 5.2 -14.2 --- --- 725.1 0.019 0.000 9.4 6 1
02/15/06 2:36 p -9.7 -9.7 -9.7 --- --- 5.2 NE 0.09 6.1 -14.8 --- --- 725.0 0.019 0.000 9.4 6 1
02/15/06 2:37 p -9.7 -9.7 -9.7 --- --- 5.2 NE 0.09 7.0 -14.8 --- --- 725.0 0.019 0.000 9.4 5 1
02/15/06 2:38 p -9.7 -9.7 -9.7 --- --- 5.2 NE 0.09 6.1 -14.7 --- --- 725.0 0.019 0.000 9.3 6 1
02/15/06 2:39 p -9.7 -9.7 -9.7 --- --- 4.3 NE 0.07 5.2 -14.1 --- --- 724.9 0.019 0.000 9.4 6 1
02/15/06 2:40 p -9.7 -9.7 -9.7 --- --- 5.2 NE 0.09 6.1 -14.7 --- --- 725.0 0.019 0.000 9.4 5 1
02/15/06 2:41 p -9.6 -9.6 -9.6 --- --- 4.3 NE 0.07 5.2 -14.0 --- --- 725.1 0.019 0.000 9.4 6 1
02/15/06 2:42 p -9.6 -9.6 -9.7 --- --- 5.2 NE 0.09 5.2 -14.7 --- --- 725.0 0.019 0.000 9.4 5 1
02/15/06 2:43 p -9.6 -9.6 -9.7 --- --- 4.3 NE 0.07 5.2 -14.0 --- --- 725.0 0.019 0.000 9.4 6 1
02/15/06 2:44 p -9.7 -9.6 -9.7 --- --- 3.5 NE 0.06 3.5 -13.3 --- --- 725.0 0.019 0.000 9.4 5 1
02/15/06 2:45 p -9.6 -9.6 -9.6 --- --- 3.5 NE 0.06 4.3 -13.3 --- --- 725.1 0.019 0.000 9.4 6 1
02/15/06 2:46 p -9.6 -9.6 -9.6 --- --- 3.5 NE 0.06 4.3 -13.2 --- --- 725.1 0.019 0.000 9.4 5 1
02/15/06 2:47 p -9.5 -9.4 -9.6 --- --- 4.3 NE 0.07 4.3 -13.9 --- --- 725.2 0.019 0.000 9.4 5 1
02/15/06 2:48 p -9.4 -9.4 -9.4 --- --- 4.3 NE 0.07 4.3 -13.8 --- --- 725.1 0.019 0.000 9.4 5 1
02/15/06 2:49 p -9.4 -9.4 -9.4 --- --- 3.5 NE 0.06 4.3 -13.0 --- --- 725.2 0.019 0.000 9.4 5 1
02/15/06 2:50 p -9.4 -9.4 -9.4 --- --- 3.5 NE 0.06 4.3 -13.0 --- --- 725.1 0.019 0.000 9.3 5 1
02/15/06 2:51 p -9.4 -9.4 -9.4 --- --- 4.3 NE 0.07 5.2 -13.8 --- --- 725.1 0.019 0.000 9.3 6 1
02/15/06 2:52 p -9.4 -9.3 -9.4 --- --- 3.5 NE 0.06 4.3 -13.0 --- --- 725.1 0.019 0.000 9.3 6 1
02/15/06 2:53 p -9.4 -9.4 -9.4 --- --- 3.5 NE 0.06 4.3 -13.0 --- --- 725.1 0.019 0.000 9.3 6 1
02/15/06 2:54 p -9.4 -9.4 -9.4 --- --- 3.5 NE 0.06 4.3 -13.1 --- --- 725.1 0.019 0.000 9.2 6 1
02/15/06 2:55 p -9.3 -9.3 -9.4 --- --- 3.5 NE 0.06 4.3 -12.9 --- --- 725.1 0.019 0.000 9.2 6 1
02/15/06 2:56 p -9.3 -9.3 -9.3 --- --- 3.5 NE 0.06 4.3 -12.9 --- --- 725.2 0.019 0.000 9.2 6 1
02/15/06 2:57 p -9.3 -9.2 -9.3 --- --- 3.5 NE 0.06 4.3 -12.9 --- --- 725.2 0.019 0.000 9.2 6 1
02/15/06 2:58 p -9.3 -9.2 -9.3 --- --- 3.5 NE 0.06 3.5 -12.9 --- --- 725.2 0.019 0.000 9.2 6 1
02/15/06 2:59 p -9.2 -9.2 -9.3 --- --- 2.6 NE 0.04 3.5 -11.9 --- --- 725.1 0.019 0.000 9.1 6 1
02/15/06 3:00 p -9.2 -9.2 -9.2 --- --- 2.6 NE 0.04 3.5 -11.8 --- --- 725.2 0.019 0.000 9.1 6 1
02/15/06 3:01 p -9.2 -9.1 -9.2 --- --- 2.6 NE 0.04 3.5 -11.8 --- --- 725.1 0.019 0.000 9.1 6 1
02/15/06 3:02 p -9.1 -9.1 -9.1 --- --- 2.6 NE 0.04 3.5 -11.8 --- --- 725.2 0.019 0.000 9.1 6 1
02/15/06 3:03 p -9.1 -9.1 -9.1 --- --- 2.6 NE 0.04 3.5 -11.7 --- --- 725.2 0.019 0.000 9.1 6 1
02/15/06 3:04 p -9.1 -9.1 -9.1 --- --- 2.6 NE 0.04 2.6 -11.7 --- --- 725.2 0.019 0.000 9.1 6 1
02/15/06 3:05 p -9.0 -9.0 -9.1 --- --- 1.7 NE 0.03 2.6 -10.4 --- --- 725.1 0.019 0.000 9.1 5 1
02/15/06 3:06 p -9.1 -9.1 -9.1 --- --- 1.7 NE 0.03 2.6 -10.5 --- --- 725.2 0.019 0.000 9.1 6 1
02/15/06 3:07 p -9.1 -9.0 -9.1 --- --- 1.7 NE 0.03 2.6 -10.5 --- --- 725.1 0.019 0.000 9.1 5 1
02/15/06 3:08 p -9.1 -9.0 -9.1 --- --- 1.7 NE 0.03 2.6 -10.5 --- --- 725.1 0.019 0.000 9.1 6 1
02/15/06 3:09 p -9.1 -9.0 -9.1 --- --- 1.7 NE 0.03 2.6 -10.5 --- --- 725.1 0.019 0.000 9.1 6 1
02/15/06 3:10 p -9.1 -9.0 -9.1 --- --- 2.6 NE 0.04 2.6 -11.7 --- --- 725.2 0.019 0.000 9.1 6 1
02/15/06 3:11 p -9.1 -9.0 -9.1 --- --- 2.6 NE 0.04 2.6 -11.7 --- --- 725.2 0.019 0.000 9.0 6 1
02/15/06 3:12 p -9.1 -9.0 -9.1 --- --- 1.7 NE 0.03 2.6 -10.5 --- --- 725.2 0.019 0.000 9.0 6 1
02/15/06 3:13 p -9.1 -9.0 -9.1 --- --- 1.7 NE 0.03 2.6 -10.5 --- --- 725.2 0.019 0.000 9.0 6 1
02/15/06 3:14 p -9.1 -9.0 -9.1 --- --- 2.6 NE 0.04 2.6 -11.7 --- --- 725.2 0.019 0.000 9.0 6 1
02/15/06 3:15 p -9.1 -9.0 -9.1 --- --- 1.7 NE 0.03 2.6 -10.5 --- --- 725.2 0.019 0.000 8.9 6 1
02/15/06 3:16 p -9.0 -9.0 -9.1 --- --- 2.6 NE 0.04 3.5 -11.7 --- --- 725.2 0.019 0.000 8.9 6 1
02/15/06 3:17 p -9.1 -9.1 -9.1 --- --- 2.6 NE 0.04 3.5 -11.7 --- --- 725.2 0.019 0.000 8.9 5 1
02/15/06 3:18 p -9.1 -9.1 -9.1 --- --- 2.6 NE 0.04 3.5 -11.7 --- --- 725.2 0.019 0.000 8.9 6 1
02/15/06 3:19 p -9.1 -9.1 -9.1 --- --- 2.6 NE 0.04 3.5 -11.7 --- --- 725.3 0.019 0.000 8.9 6 1
02/15/06 3:20 p -9.1 -9.1 -9.1 --- --- 2.6 NE 0.04 3.5 -11.8 --- --- 725.3 0.019 0.000 8.9 6 1
02/15/06 3:21 p -9.1 -9.1 -9.1 --- --- 3.5 NE 0.06 3.5 -12.7 --- --- 725.3 0.019 0.000 8.9 6 1
02/15/06 3:22 p -9.2 -9.2 -9.2 --- --- 3.5 NE 0.06 3.5 -12.8 --- --- 725.3 0.019 0.000 8.9 6 1
02/15/06 3:23 p -9.2 -9.2 -9.2 --- --- 3.5 NE 0.06 3.5 -12.8 --- --- 725.3 0.019 0.000 8.9 6 1
02/15/06 3:24 p -9.2 -9.2 -9.2 --- --- 3.5 NE 0.06 3.5 -12.8 --- --- 725.3 0.019 0.000 8.9 6 1
02/15/06 3:25 p -9.3 -9.2 -9.3 --- --- 3.5 NE 0.06 3.5 -12.9 --- --- 725.2 0.019 0.000 8.8 6 1
02/15/06 3:26 p -9.3 -9.3 -9.3 --- --- 3.5 NE 0.06 3.5 -12.9 --- --- 725.4 0.019 0.000 8.8 6 1
02/15/06 3:27 p -9.3 -9.3 -9.3 --- --- 3.5 NE 0.06 3.5 -12.9 --- --- 725.3 0.019 0.000 8.8 6 1
02/15/06 3:28 p -9.3 -9.3 -9.3 --- --- 3.5 NE 0.06 4.3 -12.9 --- --- 725.3 0.019 0.000 8.8 6 1
02/15/06 3:29 p -9.3 -9.3 -9.3 --- --- 3.5 NE 0.06 3.5 -12.9 --- --- 725.4 0.019 0.000 8.8 6 1
02/15/06 3:30 p -9.3 -9.3 -9.4 --- --- 2.6 NE 0.04 3.5 -12.1 --- --- 725.4 0.019 0.000 8.8 6 1
02/15/06 3:31 p -9.4 -9.4 -9.4 --- --- 3.5 NE 0.06 3.5 -13.0 --- --- 725.4 0.019 0.000 8.8 6 1
02/15/06 3:32 p -9.4 -9.4 -9.4 --- --- 2.6 NE 0.04 3.5 -12.1 --- --- 725.4 0.019 0.000 8.8 6 1
02/15/06 3:33 p -9.4 -9.4 -9.4 --- --- 2.6 NE 0.04 3.5 -12.1 --- --- 725.3 0.019 0.000 8.8 6 1
02/15/06 3:34 p -9.4 -9.4 -9.4 --- --- 2.6 NE 0.04 3.5 -12.1 --- --- 725.3 0.019 0.000 8.8 6 1
02/15/06 3:35 p -9.4 -9.4 -9.4 --- --- 2.6 NE 0.04 3.5 -12.1 --- --- 725.3 0.019 0.000 8.8 6 1
02/15/06 3:36 p -9.4 -9.4 -9.4 --- --- 2.6 NE 0.04 3.5 -12.1 --- --- 725.4 0.019 0.000 8.8 6 1
02/15/06 3:37 p -9.4 -9.3 -9.4 --- --- 2.6 NE 0.04 3.5 -12.1 --- --- 725.3 0.019 0.000 8.7 6 1
02/15/06 3:38 p -9.4 -9.3 -9.4 --- --- 2.6 NE 0.04 2.6 -12.1 --- --- 725.3 0.019 0.000 8.7 6 1
02/15/06 3:39 p -9.3 -9.3 -9.4 --- --- 2.6 NE 0.04 2.6 -12.1 --- --- 725.3 0.019 0.000 8.7 6 1
02/15/06 3:40 p -9.3 -9.3 -9.3 --- --- 2.6 NE 0.04 2.6 -12.1 --- --- 725.3 0.019 0.000 8.7 6 1
02/15/06 3:41 p -9.3 -9.3 -9.3 --- --- 2.6 NE 0.04 2.6 -12.1 --- --- 725.3 0.019 0.000 8.7 6 1
02/15/06 3:42 p -9.3 -9.3 -9.3 --- --- 2.6 NE 0.04 2.6 -12.1 --- --- 725.3 0.019 0.000 8.7 6 1
02/15/06 3:43 p -9.3 -9.3 -9.3 --- --- 2.6 NE 0.04 2.6 -12.1 --- --- 725.3 0.019 0.000 8.7 6 1
02/15/06 3:44 p -9.3 -9.3 -9.3 --- --- 2.6 NE 0.04 3.5 -12.1 --- --- 725.3 0.019 0.000 8.7 6 1
02/15/06 3:45 p -9.4 -9.3 -9.4 --- --- 2.6 NE 0.04 3.5 -12.1 --- --- 725.4 0.019 0.000 8.7 6 1
02/15/06 3:46 p -9.4 -9.4 -9.4 --- --- 2.6 NE 0.04 3.5 -12.1 --- --- 725.4 0.019 0.000 8.7 6 1
02/15/06 3:47 p -9.4 -9.4 -9.5 --- --- 2.6 NE 0.04 3.5 -12.2 --- --- 725.3 0.019 0.000 8.7 6 1
02/15/06 3:48 p -9.5 -9.5 -9.5 --- --- 2.6 NE 0.04 3.5 -12.2 --- --- 725.4 0.019 0.000 8.7 6 1
02/15/06 3:49 p -9.5 -9.5 -9.5 --- --- 2.6 NE 0.04 3.5 -12.2 --- --- 725.4 0.019 0.000 8.7 6 1
02/15/06 3:50 p -9.6 -9.6 -9.6 --- --- 2.6 NE 0.04 3.5 -12.3 --- --- 725.4 0.019 0.000 8.7 6 1
02/15/06 3:51 p -9.6 -9.6 -9.6 --- --- 2.6 NE 0.04 3.5 -12.3 --- --- 725.4 0.019 0.000 8.7 6 1
02/15/06 3:52 p -9.6 -9.6 -9.6 --- --- 2.6 NE 0.04 2.6 -12.3 --- --- 725.4 0.019 0.000 8.7 6 1
02/15/06 3:53 p -9.6 -9.5 -9.6 --- --- 2.6 NE 0.04 2.6 -12.3 --- --- 725.3 0.019 0.000 8.6 6 1
02/15/06 3:54 p -9.6 -9.6 -9.6 --- --- 2.6 NE 0.04 2.6 -12.3 --- --- 725.3 0.019 0.000 8.6 6 1
02/15/06 3:55 p -9.6 -9.6 -9.6 --- --- 1.7 NE 0.03 2.6 -11.1 --- --- 725.3 0.019 0.000 8.6 6 1
02/15/06 3:56 p -9.6 -9.6 -9.6 --- --- 1.7 NE 0.03 2.6 -11.1 --- --- 725.4 0.019 0.000 8.6 6 1
02/15/06 3:57 p -9.6 -9.5 -9.6 --- --- 1.7 NE 0.03 2.6 -11.1 --- --- 725.5 0.019 0.000 8.6 6 1
02/15/06 3:58 p -9.6 -9.6 -9.6 --- --- 1.7 NE 0.03 2.6 -11.1 --- --- 725.4 0.019 0.000 8.6 6 1
02/15/06 3:59 p -9.6 -9.6 -9.6 --- --- 1.7 NE 0.03 2.6 -11.1 --- --- 725.4 0.019 0.000 8.6 6 1
02/15/06 4:00 p -9.6 -9.6 -9.6 --- --- 1.7 NE 0.03 2.6 -11.1 --- --- 725.4 0.019 0.000 8.6 6 1
02/15/06 4:01 p -9.6 -9.6 -9.6 --- --- 1.7 NE 0.03 2.6 -11.1 --- --- 725.4 0.019 0.000 8.6 6 1
02/15/06 4:02 p -9.6 -9.5 -9.6 --- --- 1.7 NE 0.03 2.6 -11.1 --- --- 725.4 0.019 0.000 8.6 6 1
02/15/06 4:03 p -9.5 -9.5 -9.6 --- --- 2.6 NE 0.04 2.6 -12.2 --- --- 725.6 0.019 0.000 8.6 6 1
02/15/06 4:04 p -9.5 -9.5 -9.5 --- --- 2.6 NE 0.04 2.6 -12.2 --- --- 725.4 0.019 0.000 8.6 6 1
02/15/06 4:05 p -9.5 -9.5 -9.5 --- --- 1.7 NE 0.03 2.6 -11.0 --- --- 725.5 0.019 0.000 8.6 6 1
02/15/06 4:06 p -9.5 -9.5 -9.5 --- --- 2.6 NE 0.04 2.6 -12.2 --- --- 725.5 0.019 0.000 8.6 6 1
02/15/06 4:07 p -9.5 -9.5 -9.5 --- --- 2.6 NE 0.04 2.6 -12.2 --- --- 725.5 0.019 0.000 8.6 6 1
02/15/06 4:08 p -9.5 -9.5 -9.6 --- --- 2.6 NE 0.04 2.6 -12.2 --- --- 725.5 0.019 0.000 8.5 6 1
02/15/06 4:09 p -9.5 -9.5 -9.6 --- --- 1.7 NE 0.03 2.6 -11.0 --- --- 725.6 0.019 0.000 8.5 6 1
02/15/06 4:10 p -9.5 -9.5 -9.6 --- --- 1.7 NE 0.03 2.6 -11.0 --- --- 725.6 0.019 0.000 8.5 6 1
02/15/06 4:11 p -9.5 -9.5 -9.5 --- --- 1.7 NE 0.03 2.6 -11.0 --- --- 725.6 0.019 0.000 8.5 6 1
02/15/06 4:12 p -9.5 -9.5 -9.5 --- --- 1.7 NE 0.03 2.6 -11.0 --- --- 725.6 0.019 0.000 8.5 6 1
02/15/06 4:13 p -9.5 -9.5 -9.5 --- --- 1.7 NE 0.03 2.6 -11.0 --- --- 725.5 0.019 0.000 8.5 6 1
02/15/06 4:14 p -9.5 -9.4 -9.5 --- --- 1.7 NE 0.03 1.7 -11.0 --- --- 725.5 0.019 0.000 8.5 6 1
02/15/06 4:15 p -9.4 -9.4 -9.5 --- --- 1.7 NE 0.03 2.6 -10.9 --- --- 725.5 0.019 0.000 8.5 6 1
02/15/06 4:16 p -9.4 -9.4 -9.4 --- --- 1.7 NE 0.03 1.7 -10.9 --- --- 725.5 0.019 0.000 8.5 6 1
02/15/06 4:17 p -9.4 -9.4 -9.4 --- --- 1.7 NE 0.03 1.7 -10.9 --- --- 725.5 0.019 0.000 8.5 6 1
02/15/06 4:18 p -9.3 -9.3 -9.4 --- --- 1.7 NE 0.03 1.7 -10.8 --- --- 725.5 0.019 0.000 8.6 6 1
02/15/06 4:19 p -9.3 -9.3 -9.3 --- --- 1.7 NE 0.03 1.7 -10.8 --- --- 725.5 0.019 0.000 8.6 6 1
02/15/06 4:20 p -9.3 -9.3 -9.3 --- --- 1.7 NE 0.03 1.7 -10.8 --- --- 725.5 0.019 0.000 8.6 6 1
02/15/06 4:21 p -9.3 -9.3 -9.3 --- --- 1.7 NE 0.03 1.7 -10.8 --- --- 725.5 0.019 0.000 8.6 6 1
02/15/06 4:22 p -9.3 -9.3 -9.3 --- --- 0.9 NE 0.01 1.7 -9.3 --- --- 725.5 0.019 0.000 8.6 6 1
02/15/06 4:23 p -9.2 -9.2 -9.3 --- --- 0.9 NE 0.01 1.7 -9.2 --- --- 725.6 0.019 0.000 8.7 6 1
02/15/06 4:24 p -9.2 -9.2 -9.2 --- --- 0.9 NE 0.01 0.9 -9.2 --- --- 725.6 0.019 0.000 8.7 6 1
02/15/06 4:25 p -9.2 -9.2 -9.2 --- --- 0.0 NE 0.00 0.9 -9.2 --- --- 725.5 0.019 0.000 8.7 6 1
02/15/06 4:26 p -9.2 -9.2 -9.2 --- --- 0.0 NE 0.00 0.9 -9.2 --- --- 725.5 0.019 0.000 8.7 6 1
02/15/06 4:27 p -9.2 -9.2 -9.2 --- --- 0.0 NE 0.00 0.9 -9.2 --- --- 725.6 0.019 0.000 8.7 6 1
02/15/06 4:28 p -9.2 -9.2 -9.2 --- --- 0.0 NE 0.00 0.9 -9.2 --- --- 725.5 0.019 0.000 8.7 6 1
02/15/06 4:29 p -9.2 -9.2 -9.2 --- --- 0.0 NE 0.00 0.9 -9.2 --- --- 725.6 0.019 0.000 8.7 6 1
02/15/06 4:30 p -9.2 -9.2 -9.2 --- --- 0.0 NE 0.00 0.9 -9.2 --- --- 725.6 0.019 0.000 8.8 6 1
02/15/06 4:31 p -9.2 -9.2 -9.2 --- --- 0.0 NE 0.00 0.9 -9.2 --- --- 725.6 0.019 0.000 8.8 6 1
02/15/06 4:32 p -9.2 -9.2 -9.2 --- --- 0.0 NE 0.00 0.9 -9.2 --- --- 725.6 0.019 0.000 8.8 6 1
02/15/06 4:33 p -9.2 -9.2 -9.2 --- --- 0.0 NE 0.00 0.9 -9.2 --- --- 725.6 0.019 0.000 8.8 6 1
02/15/06 4:34 p -9.2 -9.2 -9.2 --- --- 0.0 NE 0.00 0.9 -9.2 --- --- 725.6 0.019 0.000 8.8 6 1
02/15/06 4:35 p -9.2 -9.2 -9.2 --- --- 0.0 NE 0.00 0.9 -9.2 --- --- 725.6 0.019 0.000 8.8 6 1
02/15/06 4:36 p -9.2 -9.2 -9.2 --- --- 0.0 --- 0.00 0.9 -9.2 --- --- 725.6 0.019 0.000 8.8 6 1
02/15/06 4:37 p -9.2 -9.2 -9.2 --- --- 0.0 NE 0.00 0.9 -9.2 --- --- 725.6 0.019 0.000 8.8 6 1
02/15/06 4:38 p -9.2 -9.2 -9.2 --- --- 0.0 --- 0.00 0.0 -9.2 --- --- 725.6 0.019 0.000 8.8 6 1
02/15/06 4:39 p -9.2 -9.2 -9.2 --- --- 0.0 --- 0.00 0.0 -9.2 --- --- 725.6 0.019 0.000 8.9 6 1
02/15/06 4:40 p -9.2 -9.2 -9.2 --- --- 0.0 --- 0.00 0.0 -9.2 --- --- 725.6 0.019 0.000 8.9 6 1
02/15/06 4:41 p -9.2 -9.2 -9.2 --- --- 0.0 --- 0.00 0.0 -9.2 --- --- 725.6 0.019 0.000 8.9 6 1
02/15/06 4:42 p -9.2 -9.2 -9.2 --- --- 0.0 --- 0.00 0.0 -9.2 --- --- 725.6 0.019 0.000 8.9 6 1
02/15/06 4:43 p -9.2 -9.2 -9.2 --- --- 0.0 --- 0.00 0.0 -9.2 --- --- 725.6 0.019 0.000 8.9 6 1
02/15/06 4:44 p -9.2 -9.2 -9.2 --- --- 0.0 --- 0.00 0.0 -9.2 --- --- 725.6 0.019 0.000 8.9 6 1
02/15/06 4:45 p -9.2 -9.2 -9.2 --- --- 0.0 --- 0.00 0.0 -9.2 --- --- 725.7 0.019 0.000 8.9 6 1
02/15/06 4:46 p -9.2 -9.2 -9.2 --- --- 0.0 --- 0.00 0.0 -9.2 --- --- 725.7 0.019 0.000 8.9 6 1
02/15/06 4:47 p -9.2 -9.2 -9.2 --- --- 0.0 --- 0.00 0.0 -9.2 --- --- 725.6 0.019 0.000 8.9 6 1
02/15/06 4:48 p -9.2 -9.2 -9.2 --- --- 0.0 --- 0.00 0.0 -9.2 --- --- 725.6 0.019 0.000 8.9 6 1
02/15/06 4:49 p -9.2 -9.2 -9.2 --- --- 0.0 --- 0.00 0.0 -9.2 --- --- 725.6 0.019 0.000 8.9 6 1
02/15/06 4:50 p -9.1 -9.1 -9.2 --- --- 0.0 --- 0.00 0.0 -9.1 --- --- 725.7 0.019 0.000 8.9 6 1
02/15/06 4:51 p -9.1 -9.1 -9.1 --- --- 0.0 --- 0.00 0.0 -9.1 --- --- 725.6 0.019 0.000 8.9 6 1
02/15/06 4:52 p -9.0 -9.0 -9.0 --- --- 0.0 --- 0.00 0.0 -9.0 --- --- 725.8 0.019 0.000 8.9 6 1
02/15/06 4:53 p -8.9 -8.9 -9.0 --- --- 0.0 --- 0.00 0.0 -8.9 --- --- 725.7 0.019 0.000 9.0 6 1
02/15/06 4:54 p -8.9 -8.9 -8.9 --- --- 0.0 --- 0.00 0.0 -8.9 --- --- 725.6 0.019 0.000 9.0 6 1
02/15/06 4:55 p -8.9 -8.9 -8.9 --- --- 0.0 --- 0.00 0.0 -8.9 --- --- 725.6 0.019 0.000 9.0 5 1
02/15/06 4:56 p -8.9 -8.9 -8.9 --- --- 0.0 --- 0.00 0.0 -8.9 --- --- 725.7 0.019 0.000 9.0 6 1
02/15/06 4:57 p -8.9 -8.9 -8.9 --- --- 0.0 --- 0.00 0.0 -8.9 --- --- 725.7 0.019 0.000 9.0 5 1
02/15/06 4:58 p -8.9 -8.9 -8.9 --- --- 0.0 --- 0.00 0.0 -8.9 --- --- 725.7 0.019 0.000 9.0 6 1
02/15/06 4:59 p -8.9 -8.9 -8.9 --- --- 0.0 --- 0.00 0.0 -8.9 --- --- 725.6 0.019 0.000 9.1 6 1
02/15/06 5:00 p -8.9 -8.9 -8.9 --- --- 0.0 --- 0.00 0.0 -8.9 --- --- 725.7 0.019 0.000 9.1 6 1
02/15/06 5:01 p -8.9 -8.9 -9.0 --- --- 0.0 --- 0.00 0.0 -8.9 --- --- 725.7 0.019 0.000 9.1 5 1
02/15/06 5:02 p -8.9 -8.9 -9.0 --- --- 0.0 --- 0.00 0.0 -8.9 --- --- 725.6 0.019 0.000 9.1 6 1
02/15/06 5:03 p -8.9 -8.9 -9.0 --- --- 0.0 --- 0.00 0.0 -8.9 --- --- 725.7 0.019 0.000 9.1 6 1
02/15/06 5:04 p -8.9 -8.9 -8.9 --- --- 0.0 --- 0.00 0.0 -8.9 --- --- 725.7 0.019 0.000 9.1 5 1
02/15/06 5:05 p -8.9 -8.9 -8.9 --- --- 0.0 --- 0.00 0.0 -8.9 --- --- 725.7 0.019 0.000 9.1 6 1
02/15/06 5:06 p -8.9 -8.9 -8.9 --- --- 0.0 --- 0.00 0.0 -8.9 --- --- 725.8 0.019 0.000 9.1 6 1
02/15/06 5:07 p -8.9 -8.9 -9.0 --- --- 0.0 --- 0.00 0.0 -8.9 --- --- 725.7 0.019 0.000 9.1 6 1
02/15/06 5:08 p -8.9 -8.9 -9.0 --- --- 0.0 --- 0.00 0.0 -8.9 --- --- 725.8 0.019 0.000 9.1 6 1
02/15/06 5:09 p -9.0 -8.9 -9.0 --- --- 0.0 --- 0.00 0.0 -9.0 --- --- 725.7 0.019 0.000 9.1 6 1
02/15/06 5:10 p -9.0 -9.0 -9.0 --- --- 0.0 --- 0.00 0.0 -9.0 --- --- 725.7 0.019 0.000 9.1 6 1
02/15/06 5:11 p -9.0 -9.0 -9.0 --- --- 0.0 --- 0.00 0.0 -9.0 --- --- 725.8 0.019 0.000 9.1 5 1
02/15/06 5:12 p -9.0 -9.0 -9.0 --- --- 0.0 --- 0.00 0.0 -9.0 --- --- 725.8 0.019 0.000 9.1 5 1
02/15/06 5:13 p -9.0 -9.0 -9.0 --- --- 0.0 --- 0.00 0.0 -9.0 --- --- 725.8 0.019 0.000 9.1 6 1
02/15/06 5:14 p -9.0 -9.0 -9.0 --- --- 0.0 --- 0.00 0.0 -9.0 --- --- 725.9 0.019 0.000 9.1 5 1
02/15/06 5:15 p -9.0 -9.0 -9.0 --- --- 0.0 --- 0.00 0.0 -9.0 --- --- 725.9 0.019 0.000 9.1 5 1
02/15/06 5:16 p -9.0 -9.0 -9.1 --- --- 0.0 NE 0.00 0.9 -9.0 --- --- 725.8 0.019 0.000 9.1 5 1
02/15/06 5:17 p -9.0 -8.9 -9.0 --- --- 0.0 NE 0.00 0.9 -9.0 --- --- 725.8 0.019 0.000 9.1 6 1
02/15/06 5:18 p -9.0 -8.9 -9.0 --- --- 0.0 --- 0.00 0.0 -9.0 --- --- 725.9 0.019 0.000 9.1 5 1
02/15/06 5:19 p -9.0 -9.0 -9.0 --- --- 0.0 --- 0.00 0.9 -9.0 --- --- 725.9 0.019 0.000 9.1 5 1
02/15/06 5:20 p -9.0 -9.0 -9.1 --- --- 0.0 NE 0.00 0.9 -9.0 --- --- 725.9 0.019 0.000 9.2 5 1
02/15/06 5:21 p -9.1 -9.1 -9.1 --- --- 0.0 NE 0.00 0.9 -9.1 --- --- 725.9 0.019 0.000 9.2 5 1
02/15/06 5:22 p -9.1 -9.1 -9.1 --- --- 0.0 NE 0.00 0.9 -9.1 --- --- 726.0 0.019 0.000 9.2 6 1
02/15/06 5:23 p -9.1 -9.1 -9.2 --- --- 0.0 NE 0.00 0.9 -9.1 --- --- 725.9 0.019 0.000 9.2 5 1
02/15/06 5:24 p -9.2 -9.1 -9.2 --- --- 0.9 NE 0.01 0.9 -9.2 --- --- 725.9 0.019 0.000 9.2 5 1
02/15/06 5:25 p -9.2 -9.2 -9.2 --- --- 0.9 NE 0.01 0.9 -9.2 --- --- 725.9 0.019 0.000 9.2 6 1
02/15/06 5:26 p -9.2 -9.2 -9.3 --- --- 0.0 NE 0.00 0.9 -9.2 --- --- 726.0 0.019 0.000 9.2 5 1
02/15/06 5:27 p -9.3 -9.3 -9.3 --- --- 0.0 NE 0.00 0.9 -9.3 --- --- 725.9 0.019 0.000 9.2 6 1
02/15/06 5:28 p -9.3 -9.3 -9.3 --- --- 0.0 NE 0.00 0.9 -9.3 --- --- 726.0 0.019 0.000 9.2 6 1
02/15/06 5:29 p -9.3 -9.3 -9.3 --- --- 0.0 NE 0.00 0.9 -9.3 --- --- 726.0 0.019 0.000 9.2 6 1
02/15/06 5:30 p -9.3 -9.3 -9.3 --- --- 0.9 NE 0.01 0.9 -9.3 --- --- 726.0 0.019 0.000 9.2 5 1
02/15/06 5:31 p -9.3 -9.3 -9.4 --- --- 0.0 NE 0.00 0.9 -9.3 --- --- 726.0 0.019 0.000 9.2 6 1
02/15/06 5:32 p -9.3 -9.3 -9.3 --- --- 0.0 NE 0.00 0.9 -9.3 --- --- 726.0 0.019 0.000 9.2 5 1
02/15/06 5:33 p -9.3 -9.3 -9.3 --- --- 0.0 NE 0.00 0.9 -9.3 --- --- 726.0 0.019 0.000 9.2 6 1
02/15/06 5:34 p -9.3 -9.3 -9.3 --- --- 0.0 --- 0.00 0.9 -9.3 --- --- 726.0 0.019 0.000 9.2 5 1
02/15/06 5:35 p -9.3 -9.3 -9.3 --- --- 0.0 NE 0.00 0.9 -9.3 --- --- 726.0 0.019 0.000 9.2 5 1
02/15/06 5:36 p -9.3 -9.2 -9.3 --- --- 0.0 --- 0.00 0.0 -9.3 --- --- 726.0 0.019 0.000 9.2 5 1
02/15/06 5:37 p -9.2 -9.2 -9.2 --- --- 0.0 --- 0.00 0.0 -9.2 --- --- 725.9 0.019 0.000 9.2 5 1
02/15/06 5:38 p -9.2 -9.2 -9.2 --- --- 0.0 --- 0.00 0.0 -9.2 --- --- 726.0 0.019 0.000 9.2 5 1
02/15/06 5:39 p -9.2 -9.2 -9.2 --- --- 0.0 --- 0.00 0.0 -9.2 --- --- 726.1 0.019 0.000 9.3 5 1
02/15/06 5:40 p -9.2 -9.2 -9.2 --- --- 0.0 --- 0.00 0.0 -9.2 --- --- 726.0 0.019 0.000 9.3 5 1
02/15/06 5:41 p -9.2 -9.1 -9.2 --- --- 0.0 --- 0.00 0.0 -9.2 --- --- 726.0 0.019 0.000 9.3 5 1
02/15/06 5:42 p -9.1 -9.1 -9.2 --- --- 0.0 --- 0.00 0.0 -9.1 --- --- 726.0 0.019 0.000 9.3 6 1
02/15/06 5:43 p -9.1 -9.1 -9.1 --- --- 0.0 --- 0.00 0.0 -9.1 --- --- 726.0 0.019 0.000 9.3 6 1
02/15/06 5:44 p -9.1 -9.1 -9.1 --- --- 0.0 --- 0.00 0.9 -9.1 --- --- 726.0 0.019 0.000 9.3 6 1
02/15/06 5:45 p -9.1 -9.1 -9.1 --- --- 0.0 --- 0.00 0.0 -9.1 --- --- 726.0 0.019 0.000 9.3 5 1
02/15/06 5:46 p -9.1 -9.1 -9.1 --- --- 0.0 --- 0.00 0.0 -9.1 --- --- 726.0 0.019 0.000 9.3 5 1
02/15/06 5:47 p -9.0 -9.0 -9.1 --- --- 0.0 NE 0.00 0.9 -9.0 --- --- 726.1 0.019 0.000 9.3 6 1
02/15/06 5:48 p -9.0 -9.0 -9.0 --- --- 0.0 NE 0.00 0.9 -9.0 --- --- 726.1 0.019 0.000 9.3 5 1
02/15/06 5:49 p -9.0 -9.0 -9.0 --- --- 0.0 NE 0.00 0.9 -9.0 --- --- 726.2 0.019 0.000 9.3 6 1
02/15/06 5:50 p -9.0 -8.9 -9.0 --- --- 0.0 NE 0.00 0.9 -9.0 --- --- 726.2 0.019 0.000 9.3 6 1
02/15/06 5:51 p -8.9 -8.9 -9.0 --- --- 0.0 NE 0.00 0.9 -8.9 --- --- 726.2 0.019 0.000 9.3 5 1
02/15/06 5:52 p -8.9 -8.9 -9.0 --- --- 0.9 NE 0.01 1.7 -8.9 --- --- 726.2 0.019 0.000 9.3 5 1
02/15/06 5:53 p -9.0 -9.0 -9.0 --- --- 1.7 NE 0.03 2.6 -10.4 --- --- 726.2 0.019 0.000 9.3 5 1
02/15/06 5:54 p -9.0 -9.0 -9.0 --- --- 1.7 NE 0.03 2.6 -10.4 --- --- 726.2 0.019 0.000 9.2 5 1
02/15/06 5:55 p -9.1 -9.0 -9.1 --- --- 0.9 NE 0.01 1.7 -9.1 --- --- 726.2 0.019 0.000 9.2 6 1
02/15/06 5:56 p -9.0 -9.0 -9.1 --- --- 0.9 NE 0.01 1.7 -9.0 --- --- 726.3 0.019 0.000 9.2 6 1
02/15/06 5:57 p -9.0 -9.0 -9.0 --- --- 1.7 NE 0.03 1.7 -10.4 --- --- 726.3 0.019 0.000 9.2 5 1
02/15/06 5:58 p -9.0 -9.0 -9.0 --- --- 0.9 NE 0.01 1.7 -9.0 --- --- 726.2 0.019 0.000 9.2 6 1
02/15/06 5:59 p -9.0 -9.0 -9.0 --- --- 0.9 NE 0.01 1.7 -9.0 --- --- 726.2 0.019 0.000 9.2 6 1
02/15/06 6:00 p -9.0 -8.9 -9.0 --- --- 0.9 NE 0.01 1.7 -9.0 --- --- 726.3 0.019 0.000 9.2 6 1
02/15/06 6:01 p -9.0 -8.9 -9.0 --- --- 1.7 NE 0.03 2.6 -10.4 --- --- 726.3 0.019 0.000 9.1 6 1
02/15/06 6:02 p -9.0 -8.9 -9.0 --- --- 1.7 NE 0.03 2.6 -10.4 --- --- 726.3 0.019 0.000 9.1 5 1
02/15/06 6:03 p -8.9 -8.9 -8.9 --- --- 2.6 NE 0.04 2.6 -11.6 --- --- 726.3 0.019 0.000 9.1 6 1
02/15/06 6:04 p -9.0 -9.0 -9.0 --- --- 1.7 NE 0.03 2.6 -10.4 --- --- 726.3 0.019 0.000 9.1 6 1
02/15/06 6:05 p -9.0 -9.0 -9.0 --- --- 1.7 NE 0.03 2.6 -10.4 --- --- 726.3 0.019 0.000 9.1 6 1
02/15/06 6:06 p -9.0 -9.0 -9.1 --- --- 1.7 NE 0.03 2.6 -10.4 --- --- 726.3 0.019 0.000 9.1 6 1
02/15/06 6:07 p -9.0 -9.0 -9.1 --- --- 1.7 NE 0.03 2.6 -10.4 --- --- 726.3 0.019 0.000 9.1 6 1
02/15/06 6:08 p -9.0 -9.0 -9.1 --- --- 1.7 NE 0.03 2.6 -10.4 --- --- 726.3 0.019 0.000 9.0 6 1
02/15/06 6:09 p -9.0 -9.0 -9.0 --- --- 1.7 NE 0.03 3.5 -10.4 --- --- 726.3 0.019 0.000 9.0 6 1
02/15/06 6:10 p -9.0 -9.0 -9.0 --- --- 2.6 NE 0.04 3.5 -11.7 --- --- 726.3 0.019 0.000 9.0 6 1
02/15/06 6:11 p -9.0 -8.9 -9.0 --- --- 3.5 NE 0.06 3.5 -12.6 --- --- 726.4 0.019 0.000 9.0 6 1
02/15/06 6:12 p -9.1 -9.0 -9.1 --- --- 3.5 NE 0.06 3.5 -12.7 --- --- 726.3 0.019 0.000 9.0 6 1
02/15/06 6:13 p -9.1 -9.1 -9.1 --- --- 3.5 NE 0.06 4.3 -12.7 --- --- 726.4 0.019 0.000 8.9 6 1
02/15/06 6:14 p -9.1 -9.1 -9.2 --- --- 3.5 NE 0.06 4.3 -12.7 --- --- 726.3 0.019 0.000 8.9 6 1
02/15/06 6:15 p -9.2 -9.1 -9.2 --- --- 3.5 NE 0.06 4.3 -12.8 --- --- 726.4 0.019 0.000 8.9 6 1
02/15/06 6:16 p -9.2 -9.2 -9.2 --- --- 3.5 NE 0.06 3.5 -12.8 --- --- 726.4 0.019 0.000 8.9 6 1
02/15/06 6:17 p -9.2 -9.2 -9.2 --- --- 3.5 NE 0.06 3.5 -12.8 --- --- 726.4 0.019 0.000 8.9 6 1
02/15/06 6:18 p -9.2 -9.2 -9.2 --- --- 3.5 NE 0.06 4.3 -12.8 --- --- 726.5 0.019 0.000 8.9 6 1
02/15/06 6:19 p -9.2 -9.2 -9.2 --- --- 2.6 NE 0.04 3.5 -11.8 --- --- 726.5 0.019 0.000 8.9 6 1
02/15/06 6:20 p -9.2 -9.1 -9.2 --- --- 3.5 NE 0.06 3.5 -12.8 --- --- 726.5 0.019 0.000 8.9 6 1
02/15/06 6:21 p -9.1 -9.1 -9.2 --- --- 3.5 NE 0.06 3.5 -12.7 --- --- 726.5 0.019 0.000 8.9 6 1
02/15/06 6:22 p -9.1 -9.1 -9.1 --- --- 3.5 NE 0.06 3.5 -12.7 --- --- 726.5 0.019 0.000 8.9 6 1
02/15/06 6:23 p -9.0 -9.0 -9.1 --- --- 2.6 NE 0.04 3.5 -11.7 --- --- 726.5 0.019 0.000 8.9 6 1
02/15/06 6:24 p -8.9 -8.9 -8.9 --- --- 2.6 NE 0.04 3.5 -11.6 --- --- 726.5 0.019 0.000 8.9 6 1
02/15/06 6:25 p -8.9 -8.8 -8.9 --- --- 3.5 NE 0.06 3.5 -12.4 --- --- 726.5 0.019 0.000 8.8 6 1
02/15/06 6:26 p -8.8 -8.8 -8.8 --- --- 3.5 NE 0.06 4.3 -12.3 --- --- 726.5 0.019 0.000 8.9 6 1
02/15/06 6:27 p -8.8 -8.7 -8.8 --- --- 3.5 NE 0.06 4.3 -12.3 --- --- 726.5 0.019 0.000 8.8 6 1
02/15/06 6:28 p -8.7 -8.7 -8.7 --- --- 3.5 NE 0.06 4.3 -12.3 --- --- 726.5 0.019 0.000 8.8 6 1
02/15/06 6:29 p -8.7 -8.6 -8.7 --- --- 3.5 NE 0.06 4.3 -12.2 --- --- 726.5 0.019 0.000 8.8 6 1
02/15/06 6:30 p -8.6 -8.6 -8.6 --- --- 3.5 NE 0.06 4.3 -12.1 --- --- 726.5 0.019 0.000 8.8 6 1
02/15/06 6:31 p -8.6 -8.6 -8.6 --- --- 3.5 NE 0.06 4.3 -12.1 --- --- 726.6 0.019 0.000 8.8 6 1
02/15/06 6:32 p -8.6 -8.6 -8.6 --- --- 3.5 NE 0.06 4.3 -12.1 --- --- 726.6 0.019 0.000 8.8 6 1
02/15/06 6:33 p -8.6 -8.6 -8.6 --- --- 2.6 NE 0.04 4.3 -11.2 --- --- 726.5 0.019 0.000 8.8 6 1
02/15/06 6:34 p -8.6 -8.6 -8.6 --- --- 3.5 NE 0.06 4.3 -12.1 --- --- 726.6 0.019 0.000 8.8 6 1
02/15/06 6:35 p -8.6 -8.6 -8.6 --- --- 3.5 NE 0.06 3.5 -12.1 --- --- 726.6 0.019 0.000 8.8 6 1
02/15/06 6:36 p -8.6 -8.5 -8.6 --- --- 2.6 NE 0.04 3.5 -11.2 --- --- 726.6 0.019 0.000 8.8 6 1
02/15/06 6:37 p -8.5 -8.5 -8.5 --- --- 2.6 NE 0.04 3.5 -11.1 --- --- 726.6 0.019 0.000 8.8 6 1
02/15/06 6:38 p -8.5 -8.5 -8.5 --- --- 3.5 NE 0.06 3.5 -12.0 --- --- 726.6 0.019 0.000 8.8 6 1
02/15/06 6:39 p -8.4 -8.4 -8.5 --- --- 1.7 NE 0.03 3.5 -9.8 --- --- 726.6 0.019 0.000 8.7 6 1
02/15/06 6:40 p -8.4 -8.4 -8.4 --- --- 1.7 NE 0.03 2.6 -9.8 --- --- 726.6 0.019 0.000 8.7 6 1
02/15/06 6:41 p -8.4 -8.4 -8.4 --- --- 2.6 NE 0.04 3.5 -11.0 --- --- 726.6 0.019 0.000 8.7 6 1
02/15/06 6:42 p -8.4 -8.4 -8.4 --- --- 1.7 NE 0.03 2.6 -9.8 --- --- 726.7 0.019 0.000 8.7 6 1
02/15/06 6:43 p -8.4 -8.3 -8.4 --- --- 1.7 NE 0.03 2.6 -9.8 --- --- 726.7 0.019 0.000 8.7 6 1
02/15/06 6:44 p -8.4 -8.4 -8.4 --- --- 2.6 NE 0.04 3.5 -11.0 --- --- 726.7 0.019 0.000 8.7 6 1
02/15/06 6:45 p -8.4 -8.4 -8.4 --- --- 2.6 NE 0.04 3.5 -11.0 --- --- 726.7 0.019 0.000 8.7 6 1
02/15/06 6:46 p -8.4 -8.4 -8.4 --- --- 2.6 NE 0.04 3.5 -11.0 --- --- 726.7 0.019 0.000 8.7 6 1
02/15/06 6:47 p -8.4 -8.4 -8.4 --- --- 2.6 NE 0.04 3.5 -11.0 --- --- 726.8 0.019 0.000 8.7 6 1
02/15/06 6:48 p -8.4 -8.4 -8.4 --- --- 2.6 NE 0.04 3.5 -11.1 --- --- 726.7 0.019 0.000 8.7 6 1
02/15/06 6:49 p -8.4 -8.4 -8.4 --- --- 2.6 NE 0.04 3.5 -11.1 --- --- 726.7 0.019 0.000 8.7 6 1
02/15/06 6:50 p -8.4 -8.4 -8.4 --- --- 1.7 NE 0.03 3.5 -9.8 --- --- 726.8 0.019 0.000 8.7 6 1
02/15/06 6:51 p -8.4 -8.4 -8.4 --- --- 1.7 NE 0.03 3.5 -9.8 --- --- 726.8 0.019 0.000 8.7 6 1
02/15/06 6:52 p -8.4 -8.4 -8.4 --- --- 2.6 NE 0.04 3.5 -11.0 --- --- 726.8 0.019 0.000 8.7 6 1
02/15/06 6:53 p -8.4 -8.4 -8.4 --- --- 2.6 NE 0.04 3.5 -11.0 --- --- 726.9 0.019 0.000 8.7 6 1
02/15/06 6:54 p -8.4 -8.4 -8.4 --- --- 2.6 NE 0.04 3.5 -11.0 --- --- 726.8 0.019 0.000 8.7 6 1
02/15/06 6:55 p -8.4 -8.4 -8.4 --- --- 2.6 NE 0.04 3.5 -11.0 --- --- 726.9 0.019 0.000 8.7 6 1
02/15/06 6:56 p -8.4 -8.4 -8.4 --- --- 1.7 NE 0.03 3.5 -9.8 --- --- 726.9 0.019 0.000 8.7 6 1
02/15/06 6:57 p -8.4 -8.4 -8.4 --- --- 1.7 NE 0.03 2.6 -9.8 --- --- 726.9 0.019 0.000 8.6 6 1
02/15/06 6:58 p -8.4 -8.4 -8.4 --- --- 2.6 NE 0.04 2.6 -11.0 --- --- 726.9 0.019 0.000 8.6 6 1
02/15/06 6:59 p -8.4 -8.3 -8.4 --- --- 1.7 NE 0.03 2.6 -9.8 --- --- 726.9 0.019 0.000 8.6 6 1
02/15/06 7:00 p -8.3 -8.3 -8.3 --- --- 1.7 NE 0.03 2.6 -9.7 --- --- 726.8 0.019 0.000 8.6 6 1
02/15/06 7:01 p -8.3 -8.3 -8.3 --- --- 1.7 NE 0.03 2.6 -9.7 --- --- 726.8 0.019 0.000 8.6 6 1
02/15/06 7:02 p -8.2 -8.2 -8.3 --- --- 2.6 NE 0.04 2.6 -10.8 --- --- 726.9 0.018 0.000 8.6 6 1
02/15/06 7:03 p -8.2 -8.2 -8.2 --- --- 2.6 NE 0.04 2.6 -10.7 --- --- 726.9 0.018 0.000 8.6 6 1
02/15/06 7:04 p -8.2 -8.1 -8.2 --- --- 2.6 NE 0.04 2.6 -10.7 --- --- 726.9 0.018 0.000 8.6 6 1
02/15/06 7:05 p -8.2 -8.1 -8.2 --- --- 2.6 NE 0.04 3.5 -10.7 --- --- 726.9 0.018 0.000 8.6 6 1
02/15/06 7:06 p -8.1 -8.1 -8.2 --- --- 1.7 NE 0.03 3.5 -9.5 --- --- 727.0 0.018 0.000 8.6 6 1
02/15/06 7:07 p -8.1 -8.1 -8.2 --- --- 0.9 NE 0.01 2.6 -8.1 --- --- 726.9 0.018 0.000 8.6 6 1
02/15/06 7:08 p -8.1 -8.1 -8.2 --- --- 1.7 NE 0.03 3.5 -9.5 --- --- 727.0 0.018 0.000 8.6 6 1
02/15/06 7:09 p -8.1 -8.1 -8.1 --- --- 2.6 NE 0.04 2.6 -10.7 --- --- 727.0 0.018 0.000 8.6 6 1
02/15/06 7:10 p -8.2 -8.1 -8.2 --- --- 1.7 NE 0.03 2.6 -9.6 --- --- 727.0 0.018 0.000 8.6 6 1
02/15/06 7:11 p -8.2 -8.2 -8.2 --- --- 1.7 NE 0.03 2.6 -9.6 --- --- 727.0 0.018 0.000 8.6 6 1
02/15/06 7:12 p -8.2 -8.2 -8.2 --- --- 2.6 NE 0.04 3.5 -10.8 --- --- 727.0 0.018 0.000 8.6 6 1
02/15/06 7:13 p -8.2 -8.2 -8.2 --- --- 1.7 NE 0.03 2.6 -9.6 --- --- 727.0 0.018 0.000 8.6 6 1
02/15/06 7:14 p -8.2 -8.2 -8.2 --- --- 1.7 NE 0.03 2.6 -9.6 --- --- 727.0 0.018 0.000 8.6 6 1
02/15/06 7:15 p -8.2 -8.2 -8.2 --- --- 1.7 NE 0.03 3.5 -9.6 --- --- 727.0 0.018 0.000 8.6 6 1
02/15/06 7:16 p -8.2 -8.2 -8.2 --- --- 2.6 NE 0.04 3.5 -10.7 --- --- 727.0 0.018 0.000 8.6 6 1
02/15/06 7:17 p -8.2 -8.1 -8.2 --- --- 2.6 NE 0.04 3.5 -10.7 --- --- 727.0 0.018 0.000 8.6 6 1
02/15/06 7:18 p -8.1 -8.1 -8.2 --- --- 2.6 NE 0.04 2.6 -10.7 --- --- 727.1 0.018 0.000 8.6 6 1
02/15/06 7:19 p -8.1 -8.1 -8.1 --- --- 2.6 NE 0.04 3.5 -10.6 --- --- 726.9 0.018 0.000 8.5 6 1
02/15/06 7:20 p -8.0 -8.0 -8.1 --- --- 2.6 NE 0.04 3.5 -10.6 --- --- 727.0 0.018 0.000 8.5 6 1
02/15/06 7:21 p -7.9 -7.9 -8.0 --- --- 2.6 NE 0.04 3.5 -10.5 --- --- 727.0 0.018 0.000 8.5 6 1
02/15/06 7:22 p -7.9 -7.9 -7.9 --- --- 1.7 NE 0.03 3.5 -9.2 --- --- 727.0 0.018 0.000 8.5 6 1
02/15/06 7:23 p -7.9 -7.9 -7.9 --- --- 1.7 NE 0.03 3.5 -9.2 --- --- 727.0 0.018 0.000 8.5 6 1
02/15/06 7:24 p -7.9 -7.9 -7.9 --- --- 1.7 NE 0.03 3.5 -9.2 --- --- 727.0 0.018 0.000 8.5 6 1
02/15/06 7:25 p -7.9 -7.9 -7.9 --- --- 2.6 NE 0.04 3.5 -10.4 --- --- 727.0 0.018 0.000 8.5 6 1
02/15/06 7:26 p -7.9 -7.9 -7.9 --- --- 3.5 NE 0.06 3.5 -11.3 --- --- 727.1 0.018 0.000 8.5 6 1
02/15/06 7:27 p -8.0 -7.9 -8.0 --- --- 2.6 NE 0.04 3.5 -10.6 --- --- 727.1 0.018 0.000 8.5 6 1
02/15/06 7:28 p -8.1 -8.0 -8.1 --- --- 2.6 NE 0.04 3.5 -10.6 --- --- 727.1 0.018 0.000 8.5 6 1
02/15/06 7:29 p -8.1 -8.1 -8.1 --- --- 1.7 NE 0.03 3.5 -9.4 --- --- 727.1 0.018 0.000 8.5 6 1
02/15/06 7:30 p -8.1 -8.1 -8.1 --- --- 2.6 NE 0.04 3.5 -10.6 --- --- 727.2 0.018 0.000 8.5 6 1
02/15/06 7:31 p -8.1 -8.1 -8.1 --- --- 2.6 NE 0.04 3.5 -10.6 --- --- 727.2 0.018 0.000 8.6 6 1
02/15/06 7:32 p -8.1 -8.1 -8.1 --- --- 2.6 NE 0.04 3.5 -10.6 --- --- 727.2 0.018 0.000 8.6 6 1
02/15/06 7:33 p -8.1 -8.1 -8.1 --- --- 2.6 NE 0.04 3.5 -10.6 --- --- 727.1 0.018 0.000 8.6 6 1
02/15/06 7:34 p -8.1 -8.0 -8.1 --- --- 2.6 NE 0.04 4.3 -10.6 --- --- 727.1 0.018 0.000 8.6 6 1
02/15/06 7:35 p -8.0 -8.0 -8.1 --- --- 2.6 NE 0.04 3.5 -10.6 --- --- 727.1 0.018 0.000 8.6 6 1
02/15/06 7:36 p -7.9 -7.9 -8.0 --- --- 2.6 NE 0.04 3.5 -10.5 --- --- 727.1 0.018 0.000 8.6 6 1
02/15/06 7:37 p -7.9 -7.9 -7.9 --- --- 2.6 NE 0.04 3.5 -10.4 --- --- 727.2 0.018 0.000 8.6 6 1
02/15/06 7:38 p -7.8 -7.8 -7.9 --- --- 2.6 NE 0.04 3.5 -10.3 --- --- 727.2 0.018 0.000 8.6 6 1
02/15/06 7:39 p -7.8 -7.8 -7.8 --- --- 2.6 NE 0.04 3.5 -10.3 --- --- 727.2 0.018 0.000 8.6 6 1
02/15/06 7:40 p -7.8 -7.8 -7.8 --- --- 2.6 NE 0.04 3.5 -10.3 --- --- 727.2 0.018 0.000 8.6 6 1
02/15/06 7:41 p -7.8 -7.8 -7.8 --- --- 1.7 NE 0.03 3.5 -9.1 --- --- 727.3 0.018 0.000 8.6 6 1
02/15/06 7:42 p -7.7 -7.7 -7.7 --- --- 1.7 NE 0.03 3.5 -9.1 --- --- 727.2 0.018 0.000 8.6 6 1
02/15/06 7:43 p -7.7 -7.7 -7.7 --- --- 2.6 NE 0.04 3.5 -10.2 --- --- 727.2 0.018 0.000 8.6 6 1
02/15/06 7:44 p -7.7 -7.6 -7.7 --- --- 2.6 NE 0.04 3.5 -10.2 --- --- 727.2 0.018 0.000 8.6 6 1
02/15/06 7:45 p -7.7 -7.6 -7.7 --- --- 2.6 NE 0.04 3.5 -10.2 --- --- 727.2 0.018 0.000 8.6 6 1
02/15/06 7:46 p -7.6 -7.6 -7.7 --- --- 3.5 NE 0.06 4.3 -10.9 --- --- 727.2 0.018 0.000 8.6 6 1
02/15/06 7:47 p -7.6 -7.6 -7.6 --- --- 3.5 NE 0.06 4.3 -10.9 --- --- 727.1 0.018 0.000 8.6 6 1
02/15/06 7:48 p -7.6 -7.6 -7.6 --- --- 3.5 NE 0.06 4.3 -10.9 --- --- 727.1 0.018 0.000 8.5 6 1
02/15/06 7:49 p -7.5 -7.4 -7.6 --- --- 3.5 NE 0.06 4.3 -10.8 --- --- 727.2 0.018 0.000 8.5 6 1
02/15/06 7:50 p -7.4 -7.4 -7.4 --- --- 3.5 NE 0.06 5.2 -10.7 --- --- 727.2 0.018 0.000 8.5 6 1
02/15/06 7:51 p -7.4 -7.3 -7.4 --- --- 4.3 NE 0.07 5.2 -11.4 --- --- 727.2 0.018 0.000 8.5 6 1
02/15/06 7:52 p -7.4 -7.3 -7.4 --- --- 4.3 NE 0.07 5.2 -11.4 --- --- 727.2 0.018 0.000 8.5 6 1
02/15/06 7:53 p -7.3 -7.3 -7.4 --- --- 4.3 NE 0.07 4.3 -11.3 --- --- 727.2 0.018 0.000 8.5 6 1
02/15/06 7:54 p -7.3 -7.2 -7.4 --- --- 3.5 NE 0.06 4.3 -10.7 --- --- 727.2 0.018 0.000 8.4 6 1
02/15/06 7:55 p -7.2 -7.2 -7.3 --- --- 4.3 NE 0.07 4.3 -11.2 --- --- 727.2 0.018 0.000 8.4 6 1
02/15/06 7:56 p -7.2 -7.1 -7.2 --- --- 4.3 NE 0.07 4.3 -11.2 --- --- 727.2 0.018 0.000 8.4 6 1
02/15/06 7:57 p -7.1 -7.1 -7.1 --- --- 3.5 NE 0.06 4.3 -10.4 --- --- 727.3 0.018 0.000 8.4 6 1
02/15/06 7:58 p -7.1 -7.1 -7.1 --- --- 2.6 NE 0.04 4.3 -9.4 --- --- 727.2 0.018 0.000 8.4 6 1
02/15/06 7:59 p -7.1 -7.1 -7.1 --- --- 3.5 NE 0.06 3.5 -10.3 --- --- 727.3 0.018 0.000 8.4 6 1
02/15/06 8:00 p -7.0 -7.0 -7.1 --- --- 2.6 NE 0.04 3.5 -9.4 --- --- 727.3 0.018 0.000 8.4 6 1
02/15/06 8:01 p -6.9 -6.9 -7.0 --- --- 2.6 NE 0.04 3.5 -9.3 --- --- 727.3 0.018 0.000 8.4 6 1
02/15/06 8:02 p -6.9 -6.9 -6.9 --- --- 2.6 NE 0.04 3.5 -9.3 --- --- 727.3 0.018 0.000 8.4 6 1
02/15/06 8:03 p -6.9 -6.9 -6.9 --- --- 2.6 NE 0.04 3.5 -9.3 --- --- 727.2 0.018 0.000 8.4 6 1
02/15/06 8:04 p -6.9 -6.8 -6.9 --- --- 2.6 NE 0.04 4.3 -9.3 --- --- 727.3 0.018 0.000 8.4 6 1
02/15/06 8:05 p -6.8 -6.8 -6.9 --- --- 1.7 NE 0.03 3.5 -8.1 --- --- 727.3 0.017 0.000 8.4 6 1
02/15/06 8:06 p -6.8 -6.8 -6.8 --- --- 1.7 NE 0.03 3.5 -8.1 --- --- 727.3 0.017 0.000 8.4 6 1
02/15/06 8:07 p -6.8 -6.8 -6.8 --- --- 2.6 NE 0.04 3.5 -9.2 --- --- 727.2 0.017 0.000 8.4 6 1
02/15/06 8:08 p -6.8 -6.8 -6.8 --- --- 2.6 NE 0.04 3.5 -9.2 --- --- 727.3 0.017 0.000 8.4 6 1
02/15/06 8:09 p -6.8 -6.8 -6.8 --- --- 2.6 NE 0.04 3.5 -9.2 --- --- 727.2 0.017 0.000 8.4 6 1
02/15/06 8:10 p -6.8 -6.7 -6.8 --- --- 1.7 NE 0.03 3.5 -8.0 --- --- 727.3 0.017 0.000 8.4 6 1
02/15/06 8:11 p -6.8 -6.7 -6.8 --- --- 2.6 NE 0.04 3.5 -9.2 --- --- 727.4 0.017 0.000 8.4 6 1
02/15/06 8:12 p -6.7 -6.7 -6.8 --- --- 2.6 NE 0.04 3.5 -9.1 --- --- 727.3 0.017 0.000 8.4 6 1
02/15/06 8:13 p -6.7 -6.7 -6.7 --- --- 2.6 NE 0.04 3.5 -9.1 --- --- 727.3 0.017 0.000 8.4 6 1
02/15/06 8:14 p -6.7 -6.7 -6.7 --- --- 1.7 NE 0.03 2.6 -7.9 --- --- 727.4 0.017 0.000 8.4 6 1
02/15/06 8:15 p -6.7 -6.7 -6.7 --- --- 2.6 NE 0.04 3.5 -9.1 --- --- 727.4 0.017 0.000 8.4 6 1
02/15/06 8:16 p -6.7 -6.7 -6.7 --- --- 2.6 NE 0.04 3.5 -9.1 --- --- 727.4 0.017 0.000 8.4 6 1
02/15/06 8:17 p -6.7 -6.6 -6.7 --- --- 3.5 NE 0.06 4.3 -9.9 --- --- 727.4 0.017 0.000 8.4 6 1
02/15/06 8:18 p -6.7 -6.6 -6.7 --- --- 3.5 NE 0.06 4.3 -9.9 --- --- 727.4 0.017 0.000 8.4 6 1
02/15/06 8:19 p -6.6 -6.6 -6.6 --- --- 3.5 NE 0.06 4.3 -9.8 --- --- 727.4 0.017 0.000 8.4 6 1
02/15/06 8:20 p -6.6 -6.6 -6.7 --- --- 4.3 NE 0.07 5.2 -10.5 --- --- 727.4 0.017 0.000 8.4 6 1
02/15/06 8:21 p -6.7 -6.6 -6.7 --- --- 4.3 NE 0.07 5.2 -10.6 --- --- 727.4 0.017 0.000 8.4 6 1
02/15/06 8:22 p -6.7 -6.6 -6.7 --- --- 4.3 NE 0.07 5.2 -10.6 --- --- 727.4 0.017 0.000 8.4 6 1
02/15/06 8:23 p -6.7 -6.7 -6.7 --- --- 4.3 NE 0.07 5.2 -10.6 --- --- 727.4 0.017 0.000 8.4 6 1
02/15/06 8:24 p -6.6 -6.6 -6.7 --- --- 3.5 ENE 0.06 4.3 -9.8 --- --- 727.4 0.017 0.000 8.4 6 1
02/15/06 8:25 p -6.6 -6.6 -6.7 --- --- 4.3 ENE 0.07 4.3 -10.5 --- --- 727.5 0.017 0.000 8.4 6 1
02/15/06 8:26 p -6.6 -6.6 -6.7 --- --- 3.5 ENE 0.06 5.2 -9.8 --- --- 727.5 0.017 0.000 8.4 6 1
02/15/06 8:27 p -6.7 -6.6 -6.7 --- --- 4.3 ENE 0.07 5.2 -10.6 --- --- 727.5 0.017 0.000 8.4 6 1
02/15/06 8:28 p -6.7 -6.7 -6.7 --- --- 4.3 ENE 0.07 5.2 -10.6 --- --- 727.5 0.017 0.000 8.3 6 1
02/15/06 8:29 p -6.7 -6.7 -6.8 --- --- 4.3 ENE 0.07 5.2 -10.6 --- --- 727.3 0.017 0.000 8.4 6 1
02/15/06 8:30 p -6.8 -6.8 -6.9 --- --- 4.3 ENE 0.07 5.2 -10.8 --- --- 727.4 0.017 0.000 8.4 6 1
02/15/06 8:31 p -6.9 -6.9 -6.9 --- --- 3.5 ENE 0.06 5.2 -10.2 --- --- 727.4 0.018 0.000 8.4 6 1
02/15/06 8:32 p -6.9 -6.9 -7.0 --- --- 3.5 ENE 0.06 4.3 -10.2 --- --- 727.4 0.018 0.000 8.4 6 1
02/15/06 8:33 p -6.9 -6.9 -6.9 --- --- 3.5 ENE 0.06 4.3 -10.1 --- --- 727.4 0.018 0.000 8.4 6 1
02/15/06 8:34 p -6.9 -6.8 -6.9 --- --- 3.5 ENE 0.06 4.3 -10.1 --- --- 727.4 0.018 0.000 8.4 6 1
02/15/06 8:35 p -6.8 -6.8 -6.8 --- --- 3.5 ENE 0.06 4.3 -10.1 --- --- 727.4 0.017 0.000 8.4 6 1
02/15/06 8:36 p -6.8 -6.8 -6.8 --- --- 3.5 ENE 0.06 3.5 -10.0 --- --- 727.4 0.017 0.000 8.5 6 1
02/15/06 8:37 p -6.7 -6.7 -6.8 --- --- 3.5 ENE 0.06 3.5 -9.9 --- --- 727.5 0.017 0.000 8.5 6 1
02/15/06 8:38 p -6.7 -6.7 -6.7 --- --- 2.6 ENE 0.04 3.5 -9.1 --- --- 727.5 0.017 0.000 8.5 6 1
02/15/06 8:39 p -6.6 -6.6 -6.7 --- --- 2.6 ENE 0.04 3.5 -8.9 --- --- 727.4 0.017 0.000 8.6 6 1
02/15/06 8:40 p -6.6 -6.5 -6.6 --- --- 1.7 ENE 0.03 3.5 -7.8 --- --- 727.5 0.017 0.000 8.6 6 1
02/15/06 8:41 p -6.5 -6.4 -6.5 --- --- 1.7 ENE 0.03 2.6 -7.7 --- --- 727.4 0.017 0.000 8.6 6 1
02/15/06 8:42 p -6.4 -6.4 -6.4 --- --- 1.7 ENE 0.03 2.6 -7.7 --- --- 727.5 0.017 0.000 8.6 6 1
02/15/06 8:43 p -6.4 -6.4 -6.4 --- --- 1.7 ENE 0.03 2.6 -7.6 --- --- 727.5 0.017 0.000 8.6 6 1
02/15/06 8:44 p -6.4 -6.3 -6.4 --- --- 1.7 ENE 0.03 2.6 -7.6 --- --- 727.5 0.017 0.000 8.6 6 1
02/15/06 8:45 p -6.3 -6.3 -6.3 --- --- 1.7 ENE 0.03 2.6 -7.5 --- --- 727.5 0.017 0.000 8.7 6 1
02/15/06 8:46 p -6.2 -6.2 -6.2 --- --- 1.7 ENE 0.03 2.6 -7.4 --- --- 727.4 0.017 0.000 8.7 6 1
02/15/06 8:47 p -6.2 -6.2 -6.2 --- --- 2.6 ENE 0.04 2.6 -8.6 --- --- 727.5 0.017 0.000 8.7 6 1
02/15/06 8:48 p -6.2 -6.2 -6.2 --- --- 2.6 ENE 0.04 2.6 -8.6 --- --- 727.5 0.017 0.000 8.7 6 1
02/15/06 8:49 p -6.2 -6.2 -6.2 --- --- 2.6 ENE 0.04 2.6 -8.6 --- --- 727.5 0.017 0.000 8.7 6 1
02/15/06 8:50 p -6.2 -6.2 -6.2 --- --- 1.7 ENE 0.03 2.6 -7.4 --- --- 727.5 0.017 0.000 8.7 6 1
02/15/06 8:51 p -6.2 -6.2 -6.2 --- --- 1.7 ENE 0.03 2.6 -7.4 --- --- 727.6 0.017 0.000 8.7 6 1
02/15/06 8:52 p -6.2 -6.2 -6.2 --- --- 1.7 ENE 0.03 2.6 -7.3 --- --- 727.5 0.017 0.000 8.7 6 1
02/15/06 8:53 p -6.2 -6.1 -6.2 --- --- 1.7 ENE 0.03 2.6 -7.3 --- --- 727.5 0.017 0.000 8.8 6 1
02/15/06 8:54 p -6.1 -6.1 -6.1 --- --- 1.7 ENE 0.03 2.6 -7.3 --- --- 727.6 0.017 0.000 8.8 6 1
02/15/06 8:55 p -6.1 -6.1 -6.1 --- --- 1.7 ENE 0.03 2.6 -7.3 --- --- 727.5 0.017 0.000 8.8 6 1
02/15/06 8:56 p -6.1 -6.1 -6.2 --- --- 0.9 ENE 0.01 1.7 -6.1 --- --- 727.5 0.017 0.000 8.8 6 1
02/15/06 8:57 p -6.1 -6.1 -6.2 --- --- 1.7 ENE 0.03 2.6 -7.3 --- --- 727.5 0.017 0.000 8.8 6 1
02/15/06 8:58 p -6.2 -6.2 -6.2 --- --- 1.7 ENE 0.03 2.6 -7.3 --- --- 727.6 0.017 0.000 8.8 6 1
02/15/06 8:59 p -6.2 -6.2 -6.2 --- --- 1.7 ENE 0.03 2.6 -7.3 --- --- 727.6 0.017 0.000 8.8 6 1
02/15/06 9:00 p -6.2 -6.2 -6.2 --- --- 1.7 ENE 0.03 2.6 -7.3 --- --- 727.5 0.017 0.000 8.8 6 1
02/15/06 9:01 p -6.2 -6.1 -6.2 --- --- 0.9 ENE 0.01 1.7 -6.2 --- --- 727.5 0.017 0.000 8.8 6 1
02/15/06 9:02 p -6.1 -6.0 -6.1 --- --- 1.7 ENE 0.03 2.6 -7.2 --- --- 727.5 0.017 0.000 8.8 6 1
02/15/06 9:03 p -6.0 -6.0 -6.1 --- --- 1.7 ENE 0.03 2.6 -7.2 --- --- 727.7 0.017 0.000 8.8 6 1
02/15/06 9:04 p -5.9 -5.9 -5.9 --- --- 0.9 ENE 0.01 2.6 -5.9 --- --- 727.6 0.017 0.000 8.9 6 1
02/15/06 9:05 p -5.9 -5.9 -5.9 --- --- 1.7 ENE 0.03 2.6 -7.1 --- --- 727.5 0.017 0.000 8.9 6 1
02/15/06 9:06 p -5.8 -5.8 -5.9 --- --- 1.7 ENE 0.03 2.6 -7.0 --- --- 727.6 0.017 0.000 8.9 6 1
02/15/06 9:07 p -5.8 -5.8 -5.9 --- --- 2.6 ENE 0.04 3.5 -8.1 --- --- 727.6 0.017 0.000 8.9 6 1
02/15/06 9:08 p -5.9 -5.8 -5.9 --- --- 2.6 ENE 0.04 4.3 -8.2 --- --- 727.5 0.017 0.000 8.9 6 1
02/15/06 9:09 p -5.9 -5.8 -5.9 --- --- 1.7 ENE 0.03 3.5 -7.1 --- --- 727.6 0.017 0.000 8.9 6 1
02/15/06 9:10 p -5.8 -5.8 -5.9 --- --- 4.3 ENE 0.07 7.8 -9.6 --- --- 727.5 0.017 0.000 8.9 6 1
02/15/06 9:11 p -6.3 -5.9 -6.7 --- --- 8.7 NE 0.14 9.6 -12.4 --- --- 727.6 0.017 0.000 8.9 6 1
02/15/06 9:12 p -7.3 -7.0 -7.7 --- --- 8.7 NE 0.14 9.6 -13.7 --- --- 727.6 0.018 0.000 8.9 6 1
02/15/06 9:13 p -8.1 -7.9 -8.2 --- --- 8.7 NE 0.14 10.4 -14.6 --- --- 727.6 0.018 0.000 8.9 6 1
02/15/06 9:14 p -8.4 -8.3 -8.5 --- --- 8.7 NE 0.14 9.6 -15.0 --- --- 727.6 0.019 0.000 8.9 6 1
02/15/06 9:15 p -8.6 -8.5 -8.6 --- --- 7.8 NE 0.13 8.7 -14.9 --- --- 727.5 0.019 0.000 9.0 6 1
02/15/06 9:16 p -8.6 -8.5 -8.6 --- --- 7.8 NE 0.13 8.7 -14.8 --- --- 727.7 0.019 0.000 9.0 6 1
02/15/06 9:17 p -8.6 -8.5 -8.6 --- --- 7.8 NE 0.13 8.7 -14.8 --- --- 727.7 0.019 0.000 9.0 6 1
02/15/06 9:18 p -8.7 -8.6 -8.7 --- --- 7.8 NE 0.13 8.7 -14.9 --- --- 727.7 0.019 0.000 9.0 6 1
02/15/06 9:19 p -8.7 -8.7 -8.7 --- --- 7.0 NE 0.12 7.8 -14.6 --- --- 727.7 0.019 0.000 9.0 6 1
02/15/06 9:20 p -8.7 -8.6 -8.7 --- --- 6.1 NE 0.10 7.0 -14.1 --- --- 727.7 0.019 0.000 9.0 6 1
02/15/06 9:21 p -8.5 -8.4 -8.6 --- --- 6.1 NE 0.10 7.0 -13.8 --- --- 727.7 0.019 0.000 9.0 6 1
02/15/06 9:22 p -8.3 -8.3 -8.3 --- --- 6.1 NE 0.10 7.0 -13.6 --- --- 727.7 0.018 0.000 9.0 6 1
02/15/06 9:23 p -8.2 -8.1 -8.3 --- --- 5.2 NE 0.09 5.2 -12.9 --- --- 727.7 0.018 0.000 9.1 6 1
02/15/06 9:24 p -7.9 -7.9 -8.0 --- --- 4.3 NE 0.07 5.2 -12.1 --- --- 727.7 0.018 0.000 9.1 6 1
02/15/06 9:25 p -7.8 -7.8 -7.8 --- --- 4.3 NE 0.07 5.2 -11.9 --- --- 727.8 0.018 0.000 9.1 6 1
02/15/06 9:26 p -7.7 -7.6 -7.8 --- --- 4.3 NE 0.07 5.2 -11.7 --- --- 727.7 0.018 0.000 9.1 6 1
02/15/06 9:27 p -7.6 -7.4 -7.6 --- --- 3.5 NE 0.06 4.3 -10.9 --- --- 727.8 0.018 0.000 9.1 6 1
02/15/06 9:28 p -7.4 -7.3 -7.4 --- --- 4.3 NE 0.07 5.2 -11.4 --- --- 727.7 0.018 0.000 9.1 6 1
02/15/06 9:29 p -7.3 -7.2 -7.3 --- --- 4.3 NE 0.07 5.2 -11.3 --- --- 727.8 0.018 0.000 9.1 6 1
02/15/06 9:30 p -7.1 -7.1 -7.2 --- --- 3.5 NE 0.06 4.3 -10.4 --- --- 727.8 0.018 0.000 9.1 6 1
02/15/06 9:31 p -7.1 -7.1 -7.1 --- --- 2.6 NE 0.04 3.5 -9.6 --- --- 727.8 0.018 0.000 9.1 6 1
02/15/06 9:32 p -7.1 -7.1 -7.1 --- --- 2.6 NE 0.04 2.6 -9.4 --- --- 727.8 0.018 0.000 9.1 6 1
02/15/06 9:33 p -6.9 -6.9 -7.0 --- --- 2.6 NE 0.04 3.5 -9.3 --- --- 727.7 0.018 0.000 9.1 6 1
02/15/06 9:34 p -6.9 -6.9 -6.9 --- --- 3.5 NE 0.06 4.3 -10.1 --- --- 727.8 0.018 0.000 9.1 6 1
02/15/06 9:35 p -6.9 -6.9 -6.9 --- --- 3.5 NE 0.06 4.3 -10.1 --- --- 727.7 0.018 0.000 9.1 6 1
02/15/06 9:36 p -6.9 -6.9 -6.9 --- --- 2.6 NE 0.04 4.3 -9.3 --- --- 727.8 0.018 0.000 9.1 6 1
02/15/06 9:37 p -6.9 -6.8 -6.9 --- --- 2.6 NE 0.04 2.6 -9.3 --- --- 727.8 0.018 0.000 9.2 6 1
02/15/06 9:38 p -6.8 -6.8 -6.8 --- --- 2.6 NE 0.04 3.5 -9.2 --- --- 727.8 0.017 0.000 9.2 6 1
02/15/06 9:39 p -6.7 -6.7 -6.8 --- --- 2.6 NE 0.04 3.5 -9.1 --- --- 727.7 0.017 0.000 9.2 6 1
02/15/06 9:40 p -6.7 -6.7 -6.7 --- --- 1.7 NE 0.03 2.6 -7.9 --- --- 727.9 0.017 0.000 9.2 6 1
02/15/06 9:41 p -6.7 -6.7 -6.7 --- --- 2.6 NE 0.04 3.5 -9.1 --- --- 727.8 0.017 0.000 9.2 6 1
02/15/06 9:42 p -6.7 -6.7 -6.7 --- --- 2.6 ENE 0.04 3.5 -9.1 --- --- 727.9 0.017 0.000 9.2 6 1
02/15/06 9:43 p -6.7 -6.7 -6.7 --- --- 2.6 ENE 0.04 4.3 -9.1 --- --- 727.8 0.017 0.000 9.2 6 1
02/15/06 9:44 p -6.7 -6.7 -6.7 --- --- 2.6 ENE 0.04 3.5 -9.1 --- --- 727.9 0.017 0.000 9.2 6 1
02/15/06 9:45 p -6.7 -6.7 -6.7 --- --- 1.7 E 0.03 2.6 -7.9 --- --- 727.8 0.017 0.000 9.2 6 1
02/15/06 9:46 p -6.7 -6.6 -6.7 --- --- 1.7 E 0.03 2.6 -7.9 --- --- 727.9 0.017 0.000 9.2 6 1
02/15/06 9:47 p -6.6 -6.6 -6.6 --- --- 2.6 E 0.04 5.2 -8.9 --- --- 728.0 0.017 0.000 9.2 6 1
02/15/06 9:48 p -6.6 -6.6 -6.7 --- --- 5.2 ENE 0.09 6.1 -11.1 --- --- 727.9 0.017 0.000 9.2 6 1
02/15/06 9:49 p -6.9 -6.7 -6.9 --- --- 5.2 ENE 0.09 5.2 -11.4 --- --- 727.9 0.018 0.000 9.2 6 1
02/15/06 9:50 p -7.1 -7.0 -7.2 --- --- 4.3 ENE 0.07 5.2 -11.0 --- --- 727.8 0.018 0.000 9.2 6 1
02/15/06 9:51 p -7.3 -7.2 -7.4 --- --- 5.2 ENE 0.09 6.1 -11.9 --- --- 727.8 0.018 0.000 9.2 6 1
02/15/06 9:52 p -7.4 -7.4 -7.4 --- --- 4.3 ENE 0.07 5.2 -11.4 --- --- 727.8 0.018 0.000 9.2 6 1
02/15/06 9:53 p -7.4 -7.4 -7.5 --- --- 5.2 ENE 0.09 6.1 -12.1 --- --- 727.9 0.018 0.000 9.2 6 1
02/15/06 9:54 p -7.5 -7.5 -7.5 --- --- 4.3 ENE 0.07 6.1 -11.6 --- --- 727.8 0.018 0.000 9.3 6 1
02/15/06 9:55 p -7.4 -7.4 -7.5 --- --- 6.1 ENE 0.10 7.0 -12.6 --- --- 727.8 0.018 0.000 9.3 6 1
02/15/06 9:56 p -7.5 -7.4 -7.6 --- --- 6.1 ENE 0.10 7.0 -12.7 --- --- 727.9 0.018 0.000 9.3 6 1
02/15/06 9:57 p -7.6 -7.5 -7.6 --- --- 6.1 ENE 0.10 7.0 -12.7 --- --- 727.9 0.018 0.000 9.3 6 1
02/15/06 9:58 p -7.4 -7.4 -7.5 --- --- 5.2 ENE 0.09 7.0 -12.1 --- --- 727.8 0.018 0.000 9.3 6 1
02/15/06 9:59 p -7.4 -7.4 -7.4 --- --- 6.1 E 0.10 7.8 -12.5 --- --- 727.9 0.018 0.000 9.3 6 1
02/15/06 10:00 p -7.4 -7.3 -7.4 --- --- 6.1 E 0.10 7.0 -12.5 --- --- 727.9 0.018 0.000 9.3 6 1
02/15/06 10:01 p -7.4 -7.4 -7.4 --- --- 6.1 ENE 0.10 7.0 -12.6 --- --- 727.8 0.018 0.000 9.3 6 1
02/15/06 10:02 p -7.4 -7.4 -7.4 --- --- 6.1 ENE 0.10 7.0 -12.6 --- --- 728.0 0.018 0.000 9.3 6 1
02/15/06 10:03 p -7.4 -7.4 -7.4 --- --- 4.3 ENE 0.07 7.0 -11.5 --- --- 727.9 0.018 0.000 9.3 6 1
02/15/06 10:04 p -7.4 -7.4 -7.4 --- --- 4.3 ENE 0.07 5.2 -11.4 --- --- 728.0 0.018 0.000 9.3 6 1
02/15/06 10:05 p -7.3 -7.3 -7.4 --- --- 4.3 E 0.07 6.1 -11.3 --- --- 727.9 0.018 0.000 9.3 6 1
02/15/06 10:06 p -7.3 -7.3 -7.3 --- --- 3.5 E 0.06 5.2 -10.7 --- --- 728.0 0.018 0.000 9.3 6 1
02/15/06 10:07 p -7.4 -7.3 -7.4 --- --- 4.3 E 0.07 6.1 -11.4 --- --- 728.0 0.018 0.000 9.3 6 1
02/15/06 10:08 p -7.4 -7.4 -7.5 --- --- 3.5 E 0.06 5.2 -10.7 --- --- 728.0 0.018 0.000 9.3 6 1
02/15/06 10:09 p -7.6 -7.6 -7.7 --- --- 4.3 E 0.07 7.8 -11.7 --- --- 728.0 0.018 0.000 9.2 6 1
02/15/06 10:10 p -7.7 -7.7 -7.8 --- --- 4.3 ESE 0.07 6.1 -11.8 --- --- 728.1 0.018 0.000 9.2 6 1
02/15/06 10:11 p -7.8 -7.8 -7.9 --- --- 5.2 E 0.09 7.0 -12.6 --- --- 728.0 0.018 0.000 9.2 6 1
02/15/06 10:12 p -7.9 -7.8 -8.0 --- --- 6.1 E 0.10 8.7 -13.2 --- --- 728.0 0.018 0.000 9.2 6 1
02/15/06 10:13 p -8.1 -8.0 -8.1 --- --- 5.2 E 0.09 7.0 -12.8 --- --- 728.1 0.018 0.000 9.2 6 1
02/15/06 10:14 p -8.1 -8.1 -8.1 --- --- 7.0 E 0.12 8.7 -13.8 --- --- 728.1 0.018 0.000 9.2 6 1
02/15/06 10:15 p -8.2 -8.1 -8.2 --- --- 6.1 E 0.10 8.7 -13.4 --- --- 728.1 0.018 0.000 9.2 6 1
02/15/06 10:16 p -8.2 -8.2 -8.3 --- --- 7.0 E 0.12 8.7 -14.0 --- --- 728.1 0.018 0.000 9.1 6 1
02/15/06 10:17 p -8.3 -8.3 -8.4 --- --- 7.0 E 0.12 8.7 -14.1 --- --- 728.2 0.019 0.000 9.1 6 1
02/15/06 10:18 p -8.4 -8.3 -8.4 --- --- 5.2 E 0.09 7.8 -13.2 --- --- 728.2 0.019 0.000 9.1 6 1
02/15/06 10:19 p -8.4 -8.4 -8.4 --- --- 6.1 E 0.10 8.7 -13.7 --- --- 728.1 0.019 0.000 9.1 6 1
02/15/06 10:20 p -8.3 -8.3 -8.3 --- --- 7.0 E 0.12 7.8 -14.1 --- --- 728.1 0.019 0.000 9.1 6 1
02/15/06 10:21 p -8.3 -8.3 -8.3 --- --- 7.0 E 0.12 9.6 -14.1 --- --- 728.2 0.019 0.000 9.1 6 1
02/15/06 10:22 p -8.4 -8.3 -8.5 --- --- 8.7 E 0.14 9.6 -15.0 --- --- 728.2 0.019 0.000 9.1 6 1
02/15/06 10:23 p -8.5 -8.5 -8.5 --- --- 7.8 E 0.13 11.3 -14.7 --- --- 728.1 0.019 0.000 9.1 6 1
02/15/06 10:24 p -8.5 -8.5 -8.6 --- --- 7.8 E 0.13 9.6 -14.7 --- --- 728.1 0.019 0.000 9.1 6 1
02/15/06 10:25 p -8.6 -8.5 -8.6 --- --- 8.7 E 0.14 11.3 -15.2 --- --- 728.1 0.019 0.000 9.1 6 1
02/15/06 10:26 p -8.6 -8.5 -8.6 --- --- 8.7 E 0.14 10.4 -15.2 --- --- 728.1 0.019 0.000 9.1 6 1
02/15/06 10:27 p -8.6 -8.6 -8.7 --- --- 9.6 E 0.16 12.2 -15.6 --- --- 728.1 0.019 0.000 9.0 6 1
02/15/06 10:28 p -8.7 -8.7 -8.8 --- --- 9.6 E 0.16 11.3 -15.8 --- --- 728.1 0.019 0.000 9.0 6 1
02/15/06 10:29 p -8.9 -8.9 -9.0 --- --- 8.7 E 0.14 10.4 -15.6 --- --- 728.1 0.019 0.000 9.0 6 1
02/15/06 10:30 p -9.1 -9.0 -9.1 --- --- 7.8 E 0.13 9.6 -15.4 --- --- 728.1 0.019 0.000 9.0 6 1
02/15/06 10:31 p -9.1 -9.1 -9.2 --- --- 8.7 E 0.14 11.3 -15.9 --- --- 728.1 0.019 0.000 9.0 6 1
02/15/06 10:32 p -9.2 -9.2 -9.2 --- --- 9.6 E 0.16 11.3 -16.4 --- --- 728.1 0.019 0.000 9.0 6 1
02/15/06 10:33 p -9.3 -9.3 -9.3 --- --- 10.4 E 0.17 12.2 -16.8 --- --- 728.1 0.019 0.000 8.9 6 1
02/15/06 10:34 p -9.4 -9.3 -9.4 --- --- 12.2 E 0.20 14.8 -17.6 --- --- 728.0 0.019 0.000 8.9 6 1
02/15/06 10:35 p -9.3 -9.3 -9.3 --- --- 12.2 E 0.20 14.8 -17.4 --- --- 728.1 0.019 0.000 8.9 6 1
02/15/06 10:36 p -9.2 -9.2 -9.3 --- --- 12.2 E 0.20 13.9 -17.3 --- --- 728.1 0.019 0.000 8.9 6 1
02/15/06 10:37 p -9.1 -9.0 -9.1 --- --- 11.3 E 0.19 13.0 -16.8 --- --- 728.2 0.019 0.000 8.9 6 1
02/15/06 10:38 p -8.9 -8.8 -8.9 --- --- 11.3 ESE 0.19 13.0 -16.6 --- --- 728.2 0.019 0.000 8.9 5 1
02/15/06 10:39 p -8.8 -8.7 -8.8 --- --- 10.4 ESE 0.17 12.2 -16.2 --- --- 728.1 0.019 0.000 8.9 6 1
02/15/06 10:40 p -8.8 -8.7 -8.8 --- --- 11.3 E 0.19 13.0 -16.4 --- --- 728.1 0.019 0.000 8.9 6 1
02/15/06 10:41 p -8.7 -8.7 -8.8 --- --- 12.2 ESE 0.20 13.0 -16.7 --- --- 728.1 0.019 0.000 8.9 6 1
02/15/06 10:42 p -8.6 -8.6 -8.7 --- --- 13.0 ESE 0.22 13.9 -16.8 --- --- 728.2 0.019 0.000 8.9 5 1
02/15/06 10:43 p -8.6 -8.5 -8.6 --- --- 13.0 ESE 0.22 13.9 -16.7 --- --- 728.1 0.019 0.000 8.9 6 1
02/15/06 10:44 p -8.6 -8.6 -8.7 --- --- 14.8 ESE 0.25 16.5 -17.3 --- --- 728.1 0.019 0.000 8.9 5 1
02/15/06 10:45 p -8.7 -8.7 -8.8 --- --- 14.8 ESE 0.25 15.7 -17.4 --- --- 728.1 0.019 0.000 8.9 5 1
02/15/06 10:46 p -8.9 -8.8 -9.1 --- --- 16.5 ESE 0.28 18.3 -18.2 --- --- 728.1 0.019 0.000 8.9 6 1
02/15/06 10:47 p -9.0 -8.9 -9.1 --- --- 14.8 SE 0.25 16.5 -17.8 --- --- 728.1 0.019 0.000 8.9 5 1
02/15/06 10:48 p -8.8 -8.8 -8.9 --- --- 16.5 ESE 0.28 20.0 -18.0 --- --- 728.1 0.019 0.000 8.9 5 1
02/15/06 10:49 p -8.7 -8.7 -8.8 --- --- 18.3 SE 0.30 20.9 -18.3 --- --- 728.0 0.019 0.000 8.9 5 1
02/15/06 10:50 p -8.7 -8.6 -8.7 --- --- 17.4 SE 0.29 20.0 -18.0 --- --- 728.1 0.019 0.000 8.9 5 1
02/15/06 10:51 p -8.8 -8.8 -8.9 --- --- 18.3 SE 0.30 20.9 -18.4 --- --- 728.2 0.019 0.000 8.9 5 1
02/15/06 10:52 p -8.9 -8.9 -9.1 --- --- 18.3 SE 0.30 20.9 -18.6 --- --- 728.0 0.019 0.000 8.8 5 1
02/15/06 10:53 p -9.0 -9.0 -9.1 --- --- 19.1 SE 0.32 20.9 -18.8 --- --- 728.0 0.019 0.000 8.8 5 1
02/15/06 10:54 p -9.1 -9.1 -9.1 --- --- 20.0 SE 0.33 22.6 -19.1 --- --- 728.1 0.019 0.000 8.8 5 1
02/15/06 10:55 p -9.1 -9.1 -9.1 --- --- 20.0 SE 0.33 22.6 -19.2 --- --- 728.0 0.019 0.000 8.8 5 1
02/15/06 10:56 p -9.1 -9.1 -9.2 --- --- 21.7 SE 0.36 24.3 -19.5 --- --- 728.0 0.019 0.000 8.8 5 1
02/15/06 10:57 p -8.9 -8.9 -9.0 --- --- 21.7 SE 0.36 24.3 -19.3 --- --- 728.0 0.019 0.000 8.8 5 1
02/15/06 10:58 p -8.8 -8.7 -8.9 --- --- 21.7 SE 0.36 24.3 -19.2 --- --- 728.0 0.019 0.000 8.8 5 1
02/15/06 10:59 p -8.6 -8.4 -8.6 --- --- 22.6 SE 0.38 25.2 -18.9 --- --- 727.9 0.019 0.000 8.8 5 1
02/15/06 11:00 p -8.4 -8.4 -8.5 --- --- 21.7 ESE 0.36 24.3 -18.6 --- --- 728.0 0.019 0.000 8.8 5 1
02/15/06 11:01 p -8.3 -8.3 -8.4 --- --- 23.5 SE 0.39 26.1 -18.8 --- --- 727.9 0.019 0.000 8.8 5 1
02/15/06 11:03 p -8.2 -8.1 -8.2 --- --- 21.7 ESE 0.36 22.6 -18.3 --- --- 727.9 0.018 0.000 8.8 5 1
02/15/06 11:04 p -8.1 -8.0 -8.1 --- --- 21.7 ESE 0.36 23.5 -18.1 --- --- 728.0 0.018 0.000 8.8 5 1
02/15/06 11:05 p -8.0 -7.9 -8.2 --- --- 22.6 ESE 0.38 23.5 -18.2 --- --- 727.9 0.018 0.000 8.8 5 1
02/15/06 11:06 p -8.4 -8.3 -8.4 --- --- 22.6 ESE 0.38 23.5 -18.7 --- --- 728.0 0.019 0.000 8.8 5 1
02/15/06 11:07 p -8.7 -8.4 -8.9 --- --- 24.3 ESE 0.41 26.1 -19.4 --- --- 728.0 0.019 0.000 8.8 5 1
02/15/06 11:08 p -9.1 -9.0 -9.2 --- --- 25.2 ESE 0.42 27.0 -20.1 --- --- 727.7 0.019 0.000 8.8 5 1
02/15/06 11:09 p -9.3 -9.3 -9.4 --- --- 25.2 ESE 0.42 27.0 -20.4 --- --- 727.8 0.019 0.000 8.8 5 1
02/15/06 11:10 p -9.5 -9.4 -9.7 --- --- 26.1 ESE 0.43 27.8 -20.8 --- --- 727.8 0.019 0.000 8.8 5 1
02/15/06 11:11 p -9.7 -9.7 -9.8 --- --- 25.2 ESE 0.42 28.7 -21.0 --- --- 727.8 0.019 0.000 8.8 5 1
02/15/06 11:12 p -9.8 -9.8 -9.9 --- --- 26.1 ESE 0.43 27.8 -21.3 --- --- 727.8 0.020 0.000 8.8 5 1
02/15/06 11:13 p -10.0 -10.0 -10.0 --- --- 27.0 ESE 0.45 29.6 -21.7 --- --- 727.7 0.020 0.000 8.8 5 1
02/15/06 11:14 p -10.1 -10.0 -10.1 --- --- 26.1 ESE 0.43 28.7 -21.6 --- --- 727.7 0.020 0.000 8.8 5 1
02/15/06 11:15 p -10.2 -10.1 -10.3 --- --- 25.2 ESE 0.42 27.0 -21.6 --- --- 727.8 0.020 0.000 8.8 5 1
02/15/06 11:16 p -10.3 -10.3 -10.4 --- --- 26.1 ESE 0.43 27.0 -22.0 --- --- 727.9 0.020 0.000 8.9 5 1
02/15/06 11:17 p -10.4 -10.4 -10.6 --- --- 26.1 ESE 0.43 27.8 -22.1 --- --- 727.7 0.020 0.000 8.9 5 1
02/15/06 11:18 p -10.6 -10.6 -10.6 --- --- 25.2 ESE 0.42 27.0 -22.2 --- --- 727.8 0.020 0.000 8.9 5 1
02/15/06 11:19 p -10.7 -10.6 -10.7 --- --- 25.2 ESE 0.42 26.1 -22.3 --- --- 727.8 0.020 0.000 8.9 5 1
02/15/06 11:20 p -10.7 -10.7 -10.7 --- --- 25.2 ESE 0.42 26.1 -22.3 --- --- 727.8 0.020 0.000 8.9 5 1
02/15/06 11:21 p -10.7 -10.6 -10.7 --- --- 25.2 ESE 0.42 27.0 -22.3 --- --- 727.8 0.020 0.000 8.9 5 1
02/15/06 11:22 p -10.5 -10.4 -10.6 --- --- 25.2 ESE 0.42 27.8 -22.1 --- --- 727.9 0.020 0.000 8.9 5 1
02/15/06 11:23 p -10.3 -10.2 -10.4 --- --- 23.5 ESE 0.39 25.2 -21.4 --- --- 727.9 0.020 0.000 8.9 5 1
02/15/06 11:24 p -10.1 -9.9 -10.1 --- --- 23.5 ESE 0.39 25.2 -21.1 --- --- 728.0 0.020 0.000 9.0 5 1
02/15/06 11:25 p -9.8 -9.7 -9.9 --- --- 24.3 ESE 0.41 27.0 -20.9 --- --- 727.9 0.020 0.000 9.0 5 1
02/15/06 11:26 p -9.6 -9.5 -9.7 --- --- 24.3 ESE 0.41 27.0 -20.7 --- --- 727.9 0.019 0.000 9.0 5 1
02/15/06 11:27 p -9.3 -9.3 -9.4 --- --- 25.2 ESE 0.42 26.1 -20.4 --- --- 728.0 0.019 0.000 9.0 5 1
02/15/06 11:28 p -9.2 -9.2 -9.3 --- --- 24.3 ESE 0.41 26.1 -20.2 --- --- 727.9 0.019 0.000 9.0 5 1
02/15/06 11:29 p -9.1 -9.1 -9.1 --- --- 23.5 ESE 0.39 25.2 -19.8 --- --- 727.9 0.019 0.000 9.0 5 1
02/15/06 11:30 p -9.1 -9.1 -9.2 --- --- 23.5 ESE 0.39 24.3 -19.8 --- --- 727.9 0.019 0.000 9.1 5 1
02/15/06 11:31 p -9.0 -9.0 -9.1 --- --- 24.3 ESE 0.41 26.1 -19.9 --- --- 728.0 0.019 0.000 9.1 5 1
02/15/06 11:32 p -9.0 -8.9 -9.1 --- --- 22.6 ESE 0.38 24.3 -19.6 --- --- 727.9 0.019 0.000 9.1 5 1
02/15/06 11:33 p -9.1 -9.0 -9.1 --- --- 22.6 ESE 0.38 24.3 -19.6 --- --- 727.9 0.019 0.000 9.1 5 1
02/15/06 11:34 p -8.9 -8.9 -9.0 --- --- 23.5 ESE 0.39 28.7 -19.6 --- --- 728.0 0.019 0.000 9.1 5 1
02/15/06 11:35 p -8.8 -8.8 -8.9 --- --- 23.5 ESE 0.39 25.2 -19.5 --- --- 728.1 0.019 0.000 9.1 5 1
02/15/06 11:36 p -8.7 -8.7 -8.8 --- --- 23.5 ESE 0.39 24.3 -19.3 --- --- 728.0 0.019 0.000 9.1 5 1
02/15/06 11:37 p -8.8 -8.8 -8.8 --- --- 22.6 ESE 0.38 23.5 -19.2 --- --- 728.1 0.019 0.000 9.1 5 1
02/15/06 11:38 p -8.8 -8.8 -8.9 --- --- 24.3 ESE 0.41 26.1 -19.7 --- --- 728.1 0.019 0.000 9.1 5 1
02/15/06 11:39 p -8.9 -8.9 -8.9 --- --- 23.5 ESE 0.39 27.0 -19.6 --- --- 728.0 0.019 0.000 9.2 5 1
02/15/06 11:40 p -8.9 -8.8 -8.9 --- --- 24.3 ESE 0.41 27.8 -19.7 --- --- 728.0 0.019 0.000 9.2 5 1
02/15/06 11:41 p -8.9 -8.9 -8.9 --- --- 26.1 ESE 0.43 28.7 -20.1 --- --- 728.0 0.019 0.000 9.2 5 1
02/15/06 11:42 p -8.9 -8.9 -9.0 --- --- 23.5 ESE 0.39 25.2 -19.6 --- --- 728.1 0.019 0.000 9.2 5 1
02/15/06 11:43 p -8.9 -8.8 -8.9 --- --- 22.6 ESE 0.38 25.2 -19.4 --- --- 728.1 0.019 0.000 9.2 5 1
02/15/06 11:44 p -8.9 -8.8 -8.9 --- --- 22.6 ESE 0.38 25.2 -19.4 --- --- 728.0 0.019 0.000 9.2 5 1
02/15/06 11:45 p -8.7 -8.7 -8.7 --- --- 22.6 ESE 0.38 26.1 -19.2 --- --- 728.1 0.019 0.000 9.2 5 1
02/15/06 11:46 p -8.8 -8.7 -8.8 --- --- 23.5 ESE 0.39 26.1 -19.4 --- --- 728.1 0.019 0.000 9.2 5 1
02/15/06 11:47 p -8.8 -8.8 -8.8 --- --- 23.5 ESE 0.39 25.2 -19.5 --- --- 728.2 0.019 0.000 9.2 5 1
02/15/06 11:48 p -8.8 -8.8 -8.8 --- --- 22.6 ESE 0.38 25.2 -19.3 --- --- 728.1 0.019 0.000 9.2 5 1
02/15/06 11:49 p -8.7 -8.6 -8.7 --- --- 21.7 ESE 0.36 22.6 -18.9 --- --- 728.3 0.019 0.000 9.2 5 1
02/15/06 11:50 p -8.6 -8.6 -8.6 --- --- 23.5 ESE 0.39 27.8 -19.2 --- --- 728.2 0.019 0.000 9.2 5 1
02/15/06 11:51 p -8.5 -8.5 -8.6 --- --- 20.9 ESE 0.35 24.3 -18.6 --- --- 728.1 0.019 0.000 9.2 5 1
02/15/06 11:52 p -8.6 -8.5 -8.6 --- --- 22.6 ESE 0.38 23.5 -18.9 --- --- 728.2 0.019 0.000 9.2 5 1
02/15/06 11:53 p -8.5 -8.5 -8.6 --- --- 21.7 ESE 0.36 24.3 -18.7 --- --- 728.2 0.019 0.000 9.2 5 1
02/15/06 11:54 p -8.6 -8.6 -8.7 --- --- 22.6 ESE 0.38 25.2 -19.0 --- --- 728.2 0.019 0.000 9.2 5 1
02/15/06 11:55 p -8.7 -8.6 -8.8 --- --- 21.7 ESE 0.36 22.6 -19.0 --- --- 728.2 0.019 0.000 9.3 5 1
02/15/06 11:56 p -8.8 -8.7 -8.8 --- --- 21.7 ESE 0.36 22.6 -19.1 --- --- 728.2 0.019 0.000 9.2 5 1
02/15/06 11:57 p -8.7 -8.7 -8.8 --- --- 22.6 ESE 0.38 25.2 -19.2 --- --- 728.2 0.019 0.000 9.3 5 1
02/15/06 11:58 p -8.8 -8.8 -8.8 --- --- 21.7 ESE 0.36 24.3 -19.1 --- --- 728.2 0.019 0.000 9.3 5 1
02/15/06 11:59 p -8.8 -8.8 -8.9 --- --- 22.6 ESE 0.38 24.3 -19.3 --- --- 728.2 0.019 0.000 9.3 5 1
02/16/06 12:00 a -8.8 -8.7 -8.8 --- --- 21.7 ESE 0.36 23.5 -19.1 --- --- 728.2 0.019 0.000 9.3 5 1
02/16/06 12:01 a -8.6 -8.5 -8.7 --- --- 21.7 ESE 0.36 23.5 -18.8 --- --- 728.3 0.019 0.000 9.3 5 1
02/16/06 12:02 a -8.4 -8.4 -8.5 --- --- 21.7 ESE 0.36 24.3 -18.6 --- --- 728.3 0.019 0.000 9.3 5 1
02/16/06 12:03 a -8.5 -8.5 -8.6 --- --- 23.5 ESE 0.39 26.1 -19.1 --- --- 728.2 0.019 0.000 9.3 5 1
02/16/06 12:04 a -8.5 -8.4 -8.6 --- --- 21.7 ESE 0.36 23.5 -18.7 --- --- 728.3 0.019 0.000 9.3 5 1
02/16/06 12:05 a -8.3 -8.3 -8.4 --- --- 21.7 ESE 0.36 24.3 -18.5 --- --- 728.3 0.019 0.000 9.3 5 1
02/16/06 12:06 a -8.3 -8.3 -8.3 --- --- 21.7 ESE 0.36 22.6 -18.4 --- --- 728.2 0.018 0.000 9.3 5 1
02/16/06 12:07 a -8.1 -8.0 -8.2 --- --- 20.9 ESE 0.35 24.3 -18.0 --- --- 728.3 0.018 0.000 9.3 5 1
02/16/06 12:08 a -8.1 -8.1 -8.1 --- --- 20.0 E 0.33 22.6 -17.8 --- --- 728.3 0.018 0.000 9.3 5 1
02/16/06 12:09 a -8.1 -8.1 -8.1 --- --- 20.9 ESE 0.35 24.3 -18.0 --- --- 728.2 0.018 0.000 9.3 5 1
02/16/06 12:10 a -8.0 -7.9 -8.1 --- --- 21.7 ESE 0.36 24.3 -18.1 --- --- 728.2 0.018 0.000 9.3 5 1
02/16/06 12:11 a -7.9 -7.9 -7.9 --- --- 22.6 ESE 0.38 24.3 -18.1 --- --- 728.2 0.018 0.000 9.4 5 1
02/16/06 12:12 a -7.9 -7.9 -8.0 --- --- 23.5 ESE 0.39 26.1 -18.3 --- --- 728.1 0.018 0.000 9.4 5 1
02/16/06 12:13 a -8.1 -8.0 -8.2 --- --- 22.6 ESE 0.38 25.2 -18.3 --- --- 728.2 0.018 0.000 9.4 6 1
02/16/06 12:14 a -8.3 -8.3 -8.4 --- --- 24.3 ESE 0.41 26.1 -18.9 --- --- 728.2 0.018 0.000 9.4 5 1
02/16/06 12:15 a -8.8 -8.5 -9.1 --- --- 23.5 ESE 0.39 26.1 -19.4 --- --- 728.2 0.019 0.000 9.4 6 1
02/16/06 12:16 a -9.3 -9.1 -9.5 --- --- 22.6 ESE 0.38 24.3 -20.0 --- --- 728.5 0.019 0.000 9.4 6 1
02/16/06 12:17 a -9.6 -9.5 -9.7 --- --- 22.6 ESE 0.38 24.3 -20.3 --- --- 728.2 0.019 0.000 9.4 6 1
02/16/06 12:18 a -9.8 -9.7 -9.9 --- --- 22.6 ESE 0.38 25.2 -20.7 --- --- 728.2 0.020 0.000 9.4 6 1
02/16/06 12:19 a -9.9 -9.9 -9.9 --- --- 24.3 ESE 0.41 26.1 -21.1 --- --- 728.1 0.020 0.000 9.4 6 1
02/16/06 12:20 a -9.8 -9.7 -9.9 --- --- 24.3 ESE 0.41 27.8 -20.9 --- --- 728.1 0.020 0.000 9.4 6 1
02/16/06 12:21 a -9.4 -9.2 -9.7 --- --- 25.2 ESE 0.42 27.8 -20.6 --- --- 728.1 0.019 0.000 9.4 6 1
02/16/06 12:22 a -9.1 -8.9 -9.2 --- --- 23.5 ESE 0.39 24.3 -19.8 --- --- 728.2 0.019 0.000 9.4 6 1
02/16/06 12:23 a -8.8 -8.7 -8.9 --- --- 25.2 ESE 0.42 27.0 -19.8 --- --- 728.2 0.019 0.000 9.4 6 1
02/16/06 12:24 a -8.6 -8.4 -8.7 --- --- 23.5 ESE 0.39 27.0 -19.2 --- --- 728.2 0.019 0.000 9.3 6 1
02/16/06 12:25 a -8.3 -8.2 -8.4 --- --- 25.2 ESE 0.42 27.8 -19.1 --- --- 728.1 0.018 0.000 9.3 6 1
02/16/06 12:26 a -8.2 -8.2 -8.3 --- --- 27.0 ESE 0.45 29.6 -19.3 --- --- 728.1 0.018 0.000 9.3 6 1
02/16/06 12:27 a -8.3 -8.3 -8.4 --- --- 24.3 ESE 0.41 27.0 -18.9 --- --- 728.2 0.019 0.000 9.3 6 1
02/16/06 12:28 a -8.3 -8.3 -8.4 --- --- 26.1 ESE 0.43 28.7 -19.3 --- --- 728.7 0.019 0.000 9.3 6 1
02/16/06 12:29 a -8.3 -8.2 -8.3 --- --- 23.5 E 0.39 26.1 -18.7 --- --- 728.2 0.018 0.000 9.3 6 1
02/16/06 12:30 a -8.3 -8.2 -8.4 --- --- 24.3 E 0.41 26.1 -18.9 --- --- 728.1 0.018 0.000 9.3 6 1
02/16/06 12:31 a -8.3 -8.3 -8.4 --- --- 23.5 ESE 0.39 26.1 -18.8 --- --- 728.1 0.019 0.000 9.3 6 1
02/16/06 12:32 a -8.3 -8.3 -8.3 --- --- 25.2 ESE 0.42 26.1 -19.1 --- --- 728.2 0.018 0.000 9.3 6 1
02/16/06 12:33 a -8.3 -8.2 -8.3 --- --- 24.3 ESE 0.41 27.0 -18.9 --- --- 728.1 0.018 0.000 9.3 6 1
02/16/06 12:34 a -8.1 -8.1 -8.2 --- --- 24.3 ESE 0.41 26.1 -18.7 --- --- 728.1 0.018 0.000 9.3 6 1
02/16/06 12:35 a -8.0 -7.9 -8.1 --- --- 22.6 ESE 0.38 24.3 -18.2 --- --- 728.2 0.018 0.000 9.3 6 1
02/16/06 12:36 a -8.1 -7.9 -8.1 --- --- 24.3 ESE 0.41 27.8 -18.6 --- --- 728.1 0.018 0.000 9.3 6 1
02/16/06 12:37 a -8.1 -8.0 -8.1 --- --- 24.3 ESE 0.41 25.2 -18.6 --- --- 728.1 0.018 0.000 9.2 6 1
02/16/06 12:38 a -8.1 -7.9 -8.3 --- --- 24.3 ESE 0.41 26.1 -18.7 --- --- 728.1 0.018 0.000 9.2 6 1
02/16/06 12:39 a -8.4 -8.4 -8.4 --- --- 23.5 ESE 0.39 25.2 -18.9 --- --- 728.2 0.019 0.000 9.2 6 1
02/16/06 12:40 a -8.3 -8.2 -8.3 --- --- 24.3 ESE 0.41 27.0 -18.9 --- --- 728.1 0.018 0.000 9.2 6 1
02/16/06 12:41 a -8.3 -8.3 -8.3 --- --- 24.3 ESE 0.41 25.2 -18.9 --- --- 728.1 0.018 0.000 9.2 6 1
02/16/06 12:42 a -8.7 -8.5 -8.8 --- --- 24.3 ESE 0.41 25.2 -19.4 --- --- 728.1 0.019 0.000 9.2 6 1
02/16/06 12:43 a -8.8 -8.8 -8.8 --- --- 25.2 ESE 0.42 27.8 -19.8 --- --- 728.1 0.019 0.000 9.2 6 1
02/16/06 12:44 a -8.5 -8.3 -8.6 --- --- 23.5 ESE 0.39 27.0 -19.1 --- --- 728.2 0.019 0.000 9.2 6 1
02/16/06 12:45 a -8.2 -8.2 -8.3 --- --- 25.2 ESE 0.42 27.0 -18.9 --- --- 728.1 0.018 0.000 9.2 6 1
02/16/06 12:46 a -8.8 -8.7 -9.1 --- --- 25.2 ESE 0.42 27.0 -19.7 --- --- 728.2 0.019 0.000 9.2 6 1
02/16/06 12:47 a -9.2 -9.1 -9.3 --- --- 23.5 ESE 0.39 25.2 -20.0 --- --- 728.2 0.019 0.000 9.2 6 1
02/16/06 12:48 a -9.4 -9.4 -9.5 --- --- 23.5 ESE 0.39 26.1 -20.3 --- --- 728.2 0.019 0.000 9.2 6 1
02/16/06 12:49 a -9.4 -9.4 -9.4 --- --- 24.3 E 0.41 27.0 -20.4 --- --- 728.0 0.019 0.000 9.2 6 1
02/16/06 12:50 a -9.3 -9.3 -9.4 --- --- 24.3 ESE 0.41 26.1 -20.3 --- --- 728.2 0.019 0.000 9.2 6 1
02/16/06 12:51 a -9.6 -9.6 -9.7 --- --- 25.2 ESE 0.42 26.1 -20.8 --- --- 728.1 0.019 0.000 9.1 6 1
02/16/06 12:52 a -9.6 -9.6 -9.6 --- --- 24.3 ESE 0.41 26.1 -20.7 --- --- 728.1 0.019 0.000 9.1 6 1
02/16/06 12:53 a -9.6 -9.6 -9.6 --- --- 23.5 ESE 0.39 25.2 -20.6 --- --- 728.2 0.019 0.000 9.1 6 1
02/16/06 12:54 a -9.2 -9.0 -9.3 --- --- 23.5 ESE 0.39 25.2 -20.0 --- --- 728.1 0.019 0.000 9.1 6 1
02/16/06 12:55 a -8.8 -8.7 -8.8 --- --- 21.7 ESE 0.36 24.3 -19.1 --- --- 728.1 0.019 0.000 9.1 6 1
02/16/06 12:56 a -8.5 -8.4 -8.6 --- --- 22.6 ESE 0.38 25.2 -18.9 --- --- 728.1 0.019 0.000 9.1 6 1
02/16/06 12:57 a -8.4 -8.4 -8.4 --- --- 22.6 ESE 0.38 23.5 -18.7 --- --- 728.2 0.019 0.000 9.1 6 1
02/16/06 12:58 a -8.3 -8.3 -8.4 --- --- 22.6 ESE 0.38 24.3 -18.7 --- --- 728.1 0.019 0.000 9.1 6 1
02/16/06 12:59 a -8.2 -8.2 -8.3 --- --- 24.3 ESE 0.41 26.1 -18.8 --- --- 728.1 0.018 0.000 9.1 6 1
02/16/06 1:00 a -8.2 -8.2 -8.2 --- --- 24.3 ESE 0.41 27.0 -18.8 --- --- 728.1 0.018 0.000 9.1 6 1
02/16/06 1:01 a -8.2 -8.2 -8.2 --- --- 23.5 ESE 0.39 25.2 -18.6 --- --- 728.1 0.018 0.000 9.1 6 1
02/16/06 1:02 a -8.2 -8.1 -8.2 --- --- 22.6 ESE 0.38 24.3 -18.4 --- --- 728.2 0.018 0.000 9.1 6 1
02/16/06 1:03 a -8.1 -8.1 -8.2 --- --- 21.7 E 0.36 25.2 -18.2 --- --- 728.2 0.018 0.000 9.1 6 1
02/16/06 1:04 a -8.1 -8.1 -8.2 --- --- 22.6 ESE 0.38 24.3 -18.3 --- --- 728.2 0.018 0.000 9.1 6 1
02/16/06 1:05 a -8.1 -8.1 -8.1 --- --- 20.9 E 0.35 23.5 -17.9 --- --- 728.1 0.018 0.000 9.1 6 1
02/16/06 1:06 a -8.2 -8.2 -8.2 --- --- 21.7 E 0.36 23.5 -18.3 --- --- 728.1 0.018 0.000 9.2 6 1
02/16/06 1:07 a -8.2 -8.2 -8.2 --- --- 20.0 E 0.33 24.3 -18.0 --- --- 728.2 0.018 0.000 9.2 6 1
02/16/06 1:08 a -8.3 -8.2 -8.4 --- --- 20.0 E 0.33 23.5 -18.1 --- --- 728.1 0.019 0.000 9.2 6 1
02/16/06 1:09 a -8.6 -8.4 -8.6 --- --- 20.9 E 0.35 23.5 -18.6 --- --- 728.2 0.019 0.000 9.2 6 1
02/16/06 1:10 a -8.7 -8.6 -8.7 --- --- 19.1 E 0.32 21.7 -18.4 --- --- 728.1 0.019 0.000 9.2 6 1
02/16/06 1:11 a -8.8 -8.8 -8.8 --- --- 20.0 E 0.33 23.5 -18.7 --- --- 728.1 0.019 0.000 9.2 6 1
02/16/06 1:12 a -8.9 -8.9 -9.0 --- --- 20.9 E 0.35 23.5 -19.1 --- --- 728.1 0.019 0.000 9.2 6 1
02/16/06 1:13 a -9.1 -9.1 -9.2 --- --- 20.0 E 0.33 22.6 -19.2 --- --- 728.0 0.019 0.000 9.2 6 1
02/16/06 1:14 a -9.2 -9.2 -9.2 --- --- 20.9 E 0.35 22.6 -19.4 --- --- 728.1 0.019 0.000 9.2 6 1
02/16/06 1:15 a -9.3 -9.3 -9.3 --- --- 20.9 E 0.35 24.3 -19.7 --- --- 728.0 0.019 0.000 9.2 6 1
02/16/06 1:16 a -9.3 -9.3 -9.4 --- --- 21.7 E 0.36 24.3 -19.8 --- --- 728.0 0.019 0.000 9.2 6 1
02/16/06 1:17 a -9.4 -9.3 -9.4 --- --- 23.5 E 0.39 26.1 -20.3 --- --- 728.1 0.019 0.000 9.2 6 1
02/16/06 1:18 a -9.2 -9.2 -9.3 --- --- 22.6 E 0.38 25.2 -19.8 --- --- 728.1 0.019 0.000 9.2 6 1
02/16/06 1:19 a -9.3 -9.3 -9.4 --- --- 22.6 E 0.38 24.3 -20.0 --- --- 728.1 0.019 0.000 9.2 6 1
02/16/06 1:20 a -9.3 -9.3 -9.3 --- --- 23.5 E 0.39 24.3 -20.2 --- --- 728.1 0.019 0.000 9.2 6 1
02/16/06 1:21 a -9.3 -9.3 -9.3 --- --- 22.6 E 0.38 25.2 -19.9 --- --- 728.1 0.019 0.000 9.2 6 1
02/16/06 1:22 a -9.3 -9.3 -9.3 --- --- 21.7 E 0.36 22.6 -19.7 --- --- 728.1 0.019 0.000 9.2 6 1
02/16/06 1:23 a -9.3 -9.3 -9.3 --- --- 21.7 E 0.36 24.3 -19.7 --- --- 728.1 0.019 0.000 9.1 6 1
02/16/06 1:24 a -9.5 -9.4 -9.6 --- --- 21.7 E 0.36 24.3 -20.1 --- --- 728.0 0.019 0.000 9.1 6 1
02/16/06 1:25 a -9.6 -9.6 -9.6 --- --- 22.6 E 0.38 27.0 -20.3 --- --- 728.2 0.019 0.000 9.1 6 1
02/16/06 1:26 a -9.6 -9.6 -9.6 --- --- 24.3 E 0.41 27.0 -20.6 --- --- 728.1 0.019 0.000 9.1 5 1
02/16/06 1:27 a -9.7 -9.6 -9.8 --- --- 23.5 E 0.39 27.0 -20.6 --- --- 728.1 0.019 0.000 9.1 5 1
02/16/06 1:28 a -9.9 -9.9 -9.9 --- --- 23.5 E 0.39 26.1 -20.9 --- --- 728.1 0.020 0.000 9.1 5 1
02/16/06 1:29 a -9.9 -9.9 -9.9 --- --- 21.7 E 0.36 24.3 -20.6 --- --- 728.1 0.020 0.000 9.1 5 1
02/16/06 1:30 a -9.9 -9.8 -10.0 --- --- 21.7 E 0.36 24.3 -20.6 --- --- 728.1 0.020 0.000 9.1 5 1
02/16/06 1:31 a -10.2 -10.0 -10.3 --- --- 20.9 E 0.35 25.2 -20.8 --- --- 728.2 0.020 0.000 9.1 6 1
02/16/06 1:32 a -10.3 -10.3 -10.3 --- --- 21.7 E 0.36 26.1 -21.2 --- --- 728.1 0.020 0.000 9.1 5 1
02/16/06 1:33 a -10.4 -10.4 -10.4 --- --- 20.0 E 0.33 22.6 -20.9 --- --- 728.1 0.020 0.000 9.1 5 1
02/16/06 1:34 a -10.4 -10.3 -10.4 --- --- 20.9 E 0.35 23.5 -21.1 --- --- 728.1 0.020 0.000 9.1 5 1
02/16/06 1:35 a -10.3 -10.3 -10.3 --- --- 21.7 E 0.36 24.3 -21.2 --- --- 728.2 0.020 0.000 9.1 6 1
02/16/06 1:36 a -10.4 -10.3 -10.5 --- --- 20.0 E 0.33 23.5 -20.8 --- --- 728.1 0.020 0.000 9.1 5 1
02/16/06 1:37 a -10.7 -10.6 -10.7 --- --- 21.7 E 0.36 24.3 -21.6 --- --- 728.2 0.020 0.000 9.1 6 1
02/16/06 1:38 a -10.7 -10.6 -10.7 --- --- 21.7 E 0.36 24.3 -21.6 --- --- 728.1 0.020 0.000 9.1 5 1
02/16/06 1:39 a -10.7 -10.7 -10.7 --- --- 20.9 E 0.35 23.5 -21.5 --- --- 728.1 0.020 0.000 9.2 5 1
02/16/06 1:40 a -10.8 -10.7 -10.8 --- --- 21.7 E 0.36 24.3 -21.7 --- --- 728.1 0.020 0.000 9.2 5 1
02/16/06 1:41 a -10.8 -10.8 -10.8 --- --- 20.9 E 0.35 24.3 -21.6 --- --- 728.2 0.020 0.000 9.2 5 1
02/16/06 1:42 a -10.7 -10.7 -10.8 --- --- 22.6 E 0.38 26.1 -21.8 --- --- 728.1 0.020 0.000 9.2 5 1
02/16/06 1:43 a -10.9 -10.9 -10.9 --- --- 21.7 E 0.36 25.2 -21.9 --- --- 728.2 0.020 0.000 9.2 5 1
02/16/06 1:44 a -11.0 -11.0 -11.0 --- --- 20.9 E 0.35 25.2 -21.8 --- --- 728.1 0.020 0.000 9.2 5 1
02/16/06 1:45 a -11.0 -11.0 -11.1 --- --- 20.9 E 0.35 24.3 -21.8 --- --- 728.0 0.020 0.000 9.2 5 1
02/16/06 1:46 a -11.1 -11.1 -11.1 --- --- 22.6 E 0.38 26.1 -22.3 --- --- 728.1 0.020 0.000 9.2 5 1
02/16/06 1:47 a -11.2 -11.2 -11.3 --- --- 22.6 E 0.38 27.0 -22.5 --- --- 728.1 0.021 0.000 9.2 5 1
02/16/06 1:48 a -11.4 -11.3 -11.5 --- --- 22.6 E 0.38 27.0 -22.8 --- --- 728.1 0.021 0.000 9.2 6 1
02/16/06 1:49 a -11.4 -11.4 -11.4 --- --- 21.7 E 0.36 25.2 -22.7 --- --- 728.1 0.021 0.000 9.1 5 1
02/16/06 1:50 a -11.2 -11.2 -11.3 --- --- 20.9 E 0.35 24.3 -22.2 --- --- 728.1 0.021 0.000 9.1 5 1
02/16/06 1:51 a -11.1 -11.1 -11.1 --- --- 21.7 E 0.36 24.3 -22.2 --- --- 728.1 0.020 0.000 9.1 5 1
02/16/06 1:52 a -11.2 -11.1 -11.3 --- --- 20.0 E 0.33 24.3 -21.9 --- --- 728.2 0.021 0.000 9.1 5 1
02/16/06 1:53 a -11.2 -11.1 -11.3 --- --- 20.9 E 0.35 24.3 -22.2 --- --- 728.2 0.021 0.000 9.1 5 1
02/16/06 1:54 a -11.1 -11.1 -11.2 --- --- 21.7 E 0.36 24.3 -22.1 --- --- 728.2 0.020 0.000 9.1 5 1
02/16/06 1:55 a -11.1 -11.1 -11.2 --- --- 23.5 E 0.39 29.6 -22.6 --- --- 728.1 0.020 0.000 9.1 5 1
02/16/06 1:56 a -11.3 -11.2 -11.3 --- --- 22.6 E 0.38 27.8 -22.6 --- --- 728.1 0.021 0.000 9.1 5 1
02/16/06 1:57 a -11.3 -11.2 -11.3 --- --- 22.6 E 0.38 27.8 -22.6 --- --- 728.1 0.021 0.000 9.1 6 1
02/16/06 1:58 a -10.9 -10.8 -11.1 --- --- 21.7 E 0.36 29.6 -21.9 --- --- 728.1 0.020 0.000 9.1 6 1
02/16/06 1:59 a -10.8 -10.8 -10.9 --- --- 21.7 E 0.36 26.1 -21.8 --- --- 728.1 0.020 0.000 9.2 5 1
02/16/06 2:00 a -10.9 -10.8 -11.0 --- --- 20.9 E 0.35 24.3 -21.7 --- --- 728.2 0.020 0.000 9.1 5 1
02/16/06 2:01 a -10.9 -10.9 -10.9 --- --- 21.7 E 0.36 24.3 -21.9 --- --- 728.2 0.020 0.000 9.1 5 1
02/16/06 2:02 a -10.8 -10.7 -10.8 --- --- 20.9 E 0.35 24.3 -21.6 --- --- 728.2 0.020 0.000 9.1 6 1
02/16/06 2:03 a -10.9 -10.9 -10.9 --- --- 22.6 E 0.38 26.1 -22.1 --- --- 728.2 0.020 0.000 9.1 5 1
02/16/06 2:04 a -10.9 -10.9 -10.9 --- --- 22.6 E 0.38 25.2 -22.2 --- --- 728.1 0.020 0.000 9.1 5 1
02/16/06 2:05 a -10.9 -10.9 -11.0 --- --- 20.9 E 0.35 23.5 -21.8 --- --- 728.2 0.020 0.000 9.2 6 1
02/16/06 2:06 a -10.9 -10.9 -10.9 --- --- 22.6 E 0.38 24.3 -22.1 --- --- 728.1 0.020 0.000 9.2 5 1
02/16/06 2:07 a -10.9 -10.9 -10.9 --- --- 21.7 E 0.36 24.3 -21.9 --- --- 728.1 0.020 0.000 9.2 6 1
02/16/06 2:08 a -10.9 -10.9 -10.9 --- --- 22.6 E 0.38 25.2 -22.2 --- --- 728.2 0.020 0.000 9.2 5 1
02/16/06 2:09 a -10.9 -10.8 -10.9 --- --- 21.7 E 0.36 25.2 -21.9 --- --- 728.0 0.020 0.000 9.2 6 1
02/16/06 2:10 a -10.8 -10.7 -10.8 --- --- 20.9 E 0.35 26.1 -21.6 --- --- 728.1 0.020 0.000 9.2 5 1
02/16/06 2:11 a -10.8 -10.8 -10.9 --- --- 21.7 E 0.36 24.3 -21.8 --- --- 728.1 0.020 0.000 9.2 6 1
02/16/06 2:12 a -10.8 -10.8 -10.8 --- --- 20.9 E 0.35 23.5 -21.6 --- --- 728.0 0.020 0.000 9.2 5 1
02/16/06 2:13 a -10.7 -10.6 -10.8 --- --- 21.7 E 0.36 24.3 -21.7 --- --- 728.1 0.020 0.000 9.2 5 1
02/16/06 2:14 a -10.6 -10.6 -10.6 --- --- 20.9 E 0.35 23.5 -21.3 --- --- 728.2 0.020 0.000 9.2 5 1
02/16/06 2:15 a -10.6 -10.6 -10.7 --- --- 21.7 E 0.36 26.1 -21.5 --- --- 728.1 0.020 0.000 9.1 5 1
02/16/06 2:16 a -10.6 -10.5 -10.6 --- --- 21.7 E 0.36 27.8 -21.4 --- --- 728.1 0.020 0.000 9.2 5 1
02/16/06 2:17 a -10.4 -10.4 -10.5 --- --- 21.7 E 0.36 24.3 -21.3 --- --- 728.2 0.020 0.000 9.2 5 1
02/16/06 2:18 a -10.3 -10.3 -10.4 --- --- 21.7 E 0.36 24.3 -21.2 --- --- 728.2 0.020 0.000 9.2 5 1
02/16/06 2:19 a -10.4 -10.4 -10.4 --- --- 20.9 E 0.35 23.5 -21.1 --- --- 728.2 0.020 0.000 9.2 6 1
02/16/06 2:20 a -10.4 -10.3 -10.4 --- --- 21.7 E 0.36 24.3 -21.2 --- --- 728.2 0.020 0.000 9.2 6 1
02/16/06 2:21 a -10.4 -10.4 -10.4 --- --- 20.0 E 0.33 23.5 -20.9 --- --- 728.1 0.020 0.000 9.2 5 1
02/16/06 2:22 a -10.3 -10.2 -10.3 --- --- 20.9 E 0.35 22.6 -20.9 --- --- 728.1 0.020 0.000 9.2 6 1
02/16/06 2:23 a -10.2 -10.1 -10.2 --- --- 21.7 E 0.36 26.1 -20.9 --- --- 728.1 0.020 0.000 9.2 5 1
02/16/06 2:24 a -10.2 -10.1 -10.2 --- --- 19.1 ESE 0.32 23.5 -20.4 --- --- 728.1 0.020 0.000 9.2 5 1
02/16/06 2:25 a -10.1 -10.1 -10.2 --- --- 20.0 E 0.33 22.6 -20.5 --- --- 728.1 0.020 0.000 9.2 5 1
02/16/06 2:26 a -10.1 -10.1 -10.1 --- --- 19.1 E 0.32 22.6 -20.2 --- --- 728.2 0.020 0.000 9.2 5 1
02/16/06 2:27 a -9.9 -9.8 -10.1 --- --- 20.0 E 0.33 22.6 -20.3 --- --- 728.2 0.020 0.000 9.2 5 1
02/16/06 2:28 a -9.7 -9.4 -9.8 --- --- 21.7 E 0.36 26.1 -20.3 --- --- 728.2 0.019 0.000 9.2 5 1
02/16/06 2:29 a -9.3 -9.3 -9.4 --- --- 20.9 E 0.35 22.6 -19.7 --- --- 728.2 0.019 0.000 9.2 5 1
02/16/06 2:30 a -9.4 -9.4 -9.4 --- --- 21.7 E 0.36 25.2 -19.9 --- --- 728.2 0.019 0.000 9.2 5 1
02/16/06 2:31 a -9.4 -9.4 -9.4 --- --- 20.9 E 0.35 23.5 -19.8 --- --- 728.2 0.019 0.000 9.2 5 1
02/16/06 2:32 a -9.5 -9.4 -9.5 --- --- 20.0 E 0.33 23.5 -19.7 --- --- 728.2 0.019 0.000 9.2 5 1
02/16/06 2:33 a -9.6 -9.4 -9.7 --- --- 18.3 E 0.30 21.7 -19.4 --- --- 728.3 0.019 0.000 9.2 5 1
02/16/06 2:34 a -9.7 -9.6 -9.7 --- --- 19.1 E 0.32 23.5 -19.8 --- --- 728.2 0.019 0.000 9.3 5 1
02/16/06 2:35 a -9.7 -9.6 -9.8 --- --- 20.0 E 0.33 21.7 -19.9 --- --- 728.2 0.019 0.000 9.3 5 1
02/16/06 2:36 a -9.6 -9.5 -9.7 --- --- 20.0 E 0.33 22.6 -19.8 --- --- 728.2 0.019 0.000 9.3 5 1
02/16/06 2:37 a -9.6 -9.5 -9.7 --- --- 19.1 E 0.32 23.5 -19.6 --- --- 728.2 0.019 0.000 9.3 5 1
02/16/06 2:38 a -9.4 -9.2 -9.6 --- --- 20.9 E 0.35 23.5 -19.8 --- --- 728.2 0.019 0.000 9.3 5 1
02/16/06 2:39 a -9.1 -8.9 -9.2 --- --- 20.9 E 0.35 23.5 -19.3 --- --- 728.1 0.019 0.000 9.3 5 1
02/16/06 2:40 a -9.1 -8.9 -9.3 --- --- 21.7 E 0.36 25.2 -19.4 --- --- 728.1 0.019 0.000 9.3 5 1
02/16/06 2:41 a -9.4 -9.3 -9.5 --- --- 24.3 E 0.41 27.0 -20.4 --- --- 728.1 0.019 0.000 9.3 5 1
02/16/06 2:42 a -9.4 -9.4 -9.4 --- --- 20.0 E 0.33 23.5 -19.6 --- --- 728.2 0.019 0.000 9.3 5 1
02/16/06 2:43 a -9.4 -9.4 -9.5 --- --- 19.1 E 0.32 22.6 -19.4 --- --- 728.2 0.019 0.000 9.3 5 1
02/16/06 2:44 a -9.6 -9.5 -9.6 --- --- 21.7 E 0.36 23.5 -20.1 --- --- 728.2 0.019 0.000 9.3 5 1
02/16/06 2:45 a -9.7 -9.6 -9.7 --- --- 19.1 E 0.32 23.5 -19.7 --- --- 728.2 0.019 0.000 9.3 5 1
02/16/06 2:46 a -9.7 -9.7 -9.7 --- --- 20.0 E 0.33 24.3 -19.9 --- --- 728.2 0.019 0.000 9.3 5 1
02/16/06 2:47 a -9.7 -9.7 -9.7 --- --- 20.9 E 0.35 23.5 -20.2 --- --- 728.2 0.019 0.000 9.3 5 1
02/16/06 2:48 a -9.6 -9.4 -9.7 --- --- 22.6 E 0.38 27.0 -20.3 --- --- 728.2 0.019 0.000 9.3 5 1
02/16/06 2:49 a -9.5 -9.5 -9.6 --- --- 22.6 E 0.38 25.2 -20.2 --- --- 728.1 0.019 0.000 9.4 5 1
02/16/06 2:50 a -9.7 -9.7 -9.7 --- --- 25.2 E 0.42 28.7 -21.0 --- --- 728.1 0.019 0.000 9.4 5 1
02/16/06 2:51 a -9.8 -9.8 -9.8 --- --- 24.3 E 0.41 26.1 -20.9 --- --- 728.1 0.020 0.000 9.4 5 1
02/16/06 2:52 a -9.9 -9.8 -9.9 --- --- 23.5 E 0.39 26.1 -20.9 --- --- 728.2 0.020 0.000 9.4 5 1
02/16/06 2:53 a -9.9 -9.9 -9.9 --- --- 22.6 E 0.38 25.2 -20.7 --- --- 728.2 0.020 0.000 9.4 5 1
02/16/06 2:54 a -9.9 -9.9 -9.9 --- --- 21.7 E 0.36 25.2 -20.6 --- --- 728.2 0.020 0.000 9.4 5 1
02/16/06 2:55 a -9.9 -9.9 -9.9 --- --- 19.1 E 0.32 24.3 -20.0 --- --- 728.2 0.020 0.000 9.4 5 1
02/16/06 2:56 a -9.8 -9.7 -9.9 --- --- 20.9 E 0.35 23.5 -20.3 --- --- 728.1 0.020 0.000 9.4 5 1
02/16/06 2:57 a -9.6 -9.4 -9.7 --- --- 21.7 E 0.36 26.1 -20.2 --- --- 728.1 0.019 0.000 9.4 5 1
02/16/06 2:58 a -9.5 -9.4 -9.7 --- --- 21.7 E 0.36 23.5 -20.1 --- --- 728.1 0.019 0.000 9.4 5 1
02/16/06 2:59 a -9.7 -9.7 -9.8 --- --- 21.7 E 0.36 25.2 -20.3 --- --- 728.2 0.019 0.000 9.4 5 1
02/16/06 3:00 a -9.7 -9.7 -9.8 --- --- 20.0 E 0.33 23.5 -20.0 --- --- 728.1 0.019 0.000 9.4 5 1
02/16/06 3:01 a -9.8 -9.7 -9.8 --- --- 20.0 E 0.33 24.3 -20.1 --- --- 728.1 0.020 0.000 9.4 5 1
02/16/06 3:02 a -9.7 -9.7 -9.8 --- --- 19.1 E 0.32 21.7 -19.8 --- --- 728.2 0.019 0.000 9.4 5 1
02/16/06 3:03 a -9.6 -9.5 -9.7 --- --- 17.4 E 0.29 21.7 -19.2 --- --- 728.2 0.019 0.000 9.4 5 1
02/16/06 3:04 a -9.4 -9.2 -9.5 --- --- 19.1 E 0.32 22.6 -19.3 --- --- 728.2 0.019 0.000 9.4 5 1
02/16/06 3:05 a -9.1 -8.8 -9.2 --- --- 20.0 E 0.33 23.5 -19.1 --- --- 728.2 0.019 0.000 9.4 5 1
02/16/06 3:06 a -8.9 -8.8 -9.2 --- --- 19.1 E 0.32 23.5 -18.8 --- --- 728.2 0.019 0.000 9.5 5 1
02/16/06 3:07 a -9.3 -9.2 -9.3 --- --- 19.1 E 0.32 21.7 -19.2 --- --- 728.2 0.019 0.000 9.5 5 1
02/16/06 3:08 a -9.1 -9.1 -9.2 --- --- 20.9 E 0.35 25.2 -19.3 --- --- 728.2 0.019 0.000 9.5 5 1
02/16/06 3:09 a -9.0 -8.7 -9.1 --- --- 20.0 E 0.33 25.2 -19.0 --- --- 728.3 0.019 0.000 9.5 5 1
02/16/06 3:10 a -8.7 -8.7 -8.7 --- --- 18.3 E 0.30 20.9 -18.2 --- --- 728.3 0.019 0.000 9.5 5 1
02/16/06 3:11 a -8.8 -8.7 -8.9 --- --- 18.3 E 0.30 26.1 -18.3 --- --- 728.4 0.019 0.000 9.5 5 1
02/16/06 3:12 a -8.7 -8.5 -8.9 --- --- 17.4 E 0.29 21.7 -18.1 --- --- 728.3 0.019 0.000 9.5 5 1
02/16/06 3:13 a -8.4 -8.3 -8.5 --- --- 18.3 E 0.30 22.6 -17.9 --- --- 728.3 0.019 0.000 9.5 5 1
02/16/06 3:14 a -8.2 -8.0 -8.3 --- --- 18.3 E 0.30 23.5 -17.7 --- --- 728.4 0.018 0.000 9.5 5 1
02/16/06 3:15 a -7.8 -7.7 -7.8 --- --- 18.3 E 0.30 20.9 -17.1 --- --- 728.3 0.018 0.000 9.5 5 1
02/16/06 3:16 a -7.6 -7.6 -7.7 --- --- 17.4 E 0.29 20.0 -16.7 --- --- 728.4 0.018 0.000 9.5 5 1
02/16/06 3:17 a -7.6 -7.6 -7.6 --- --- 16.5 E 0.28 21.7 -16.4 --- --- 728.3 0.018 0.000 9.5 5 1
02/16/06 3:18 a -7.6 -7.6 -7.7 --- --- 16.5 E 0.28 22.6 -16.4 --- --- 728.3 0.018 0.000 9.6 5 1
02/16/06 3:19 a -7.8 -7.7 -7.8 --- --- 17.4 E 0.29 21.7 -16.9 --- --- 728.4 0.018 0.000 9.6 5 1
02/16/06 3:20 a -7.7 -7.7 -7.7 --- --- 19.1 E 0.32 23.5 -17.1 --- --- 728.3 0.018 0.000 9.6 5 1
02/16/06 3:21 a -7.7 -7.7 -7.8 --- --- 19.1 E 0.32 21.7 -17.2 --- --- 728.3 0.018 0.000 9.6 5 1
02/16/06 3:22 a -8.2 -8.1 -8.4 --- --- 19.1 E 0.32 21.7 -17.8 --- --- 728.3 0.018 0.000 9.6 5 1
02/16/06 3:23 a -8.4 -8.4 -8.4 --- --- 18.3 E 0.30 21.7 -17.8 --- --- 728.2 0.019 0.000 9.6 5 1
02/16/06 3:24 a -8.4 -8.3 -8.5 --- --- 19.1 E 0.32 20.9 -18.0 --- --- 728.3 0.019 0.000 9.6 5 1
02/16/06 3:25 a -8.5 -8.4 -8.5 --- --- 16.5 E 0.28 20.9 -17.6 --- --- 728.3 0.019 0.000 9.6 5 1
02/16/06 3:26 a -8.5 -8.4 -8.5 --- --- 18.3 E 0.30 20.9 -17.9 --- --- 728.3 0.019 0.000 9.6 5 1
02/16/06 3:27 a -8.5 -8.5 -8.6 --- --- 17.4 E 0.29 21.7 -17.8 --- --- 728.2 0.019 0.000 9.6 5 1
02/16/06 3:28 a -8.4 -8.4 -8.4 --- --- 17.4 E 0.29 21.7 -17.8 --- --- 728.2 0.019 0.000 9.6 5 1
02/16/06 3:29 a -8.3 -8.3 -8.4 --- --- 19.1 E 0.32 25.2 -17.9 --- --- 728.4 0.018 0.000 9.6 5 1
02/16/06 3:30 a -8.1 -8.0 -8.2 --- --- 17.4 E 0.29 20.9 -17.3 --- --- 728.3 0.018 0.000 9.6 5 1
02/16/06 3:31 a -8.0 -7.9 -8.0 --- --- 19.1 E 0.32 22.6 -17.6 --- --- 728.3 0.018 0.000 9.6 5 1
02/16/06 3:32 a -7.6 -7.4 -7.7 --- --- 17.4 E 0.29 22.6 -16.7 --- --- 728.3 0.018 0.000 9.7 5 1
02/16/06 3:33 a -7.3 -7.2 -7.3 --- --- 20.0 E 0.33 24.3 -16.8 --- --- 728.3 0.018 0.000 9.7 5 1
02/16/06 3:34 a -7.1 -7.0 -7.1 --- --- 17.4 E 0.29 22.6 -15.9 --- --- 728.4 0.018 0.000 9.7 5 1
02/16/06 3:35 a -7.1 -7.0 -7.1 --- --- 15.7 E 0.26 18.3 -15.5 --- --- 728.3 0.018 0.000 9.7 5 1
02/16/06 3:36 a -7.3 -7.1 -7.5 --- --- 16.5 E 0.28 20.0 -16.0 --- --- 728.4 0.018 0.000 9.7 5 1
02/16/06 3:37 a -7.4 -7.3 -7.5 --- --- 17.4 E 0.29 20.9 -16.4 --- --- 728.3 0.018 0.000 9.7 5 1
02/16/06 3:38 a -7.2 -7.2 -7.3 --- --- 17.4 E 0.29 21.7 -16.2 --- --- 728.3 0.018 0.000 9.7 5 1
02/16/06 3:39 a -7.1 -7.0 -7.1 --- --- 16.5 E 0.28 19.1 -15.7 --- --- 728.3 0.018 0.000 9.7 5 1
02/16/06 3:40 a -7.0 -6.9 -7.0 --- --- 16.5 E 0.28 22.6 -15.7 --- --- 728.4 0.018 0.000 9.7 5 1
02/16/06 3:41 a -6.9 -6.8 -6.9 --- --- 19.1 E 0.32 22.6 -16.1 --- --- 728.4 0.018 0.000 9.7 5 1
02/16/06 3:42 a -6.7 -6.6 -6.8 --- --- 16.5 E 0.28 21.7 -15.2 --- --- 728.4 0.017 0.000 9.7 5 1
02/16/06 3:43 a -6.9 -6.9 -6.9 --- --- 19.1 E 0.32 24.3 -16.1 --- --- 728.4 0.018 0.000 9.7 5 1
02/16/06 3:44 a -6.9 -6.8 -7.0 --- --- 19.1 ESE 0.32 26.1 -16.2 --- --- 728.4 0.018 0.000 9.7 5 1
02/16/06 3:45 a -6.7 -6.6 -6.7 --- --- 19.1 E 0.32 20.9 -15.8 --- --- 728.4 0.017 0.000 9.7 5 1
02/16/06 3:46 a -6.4 -6.4 -6.6 --- --- 19.1 E 0.32 24.3 -15.5 --- --- 728.3 0.017 0.000 9.7 5 1
02/16/06 3:47 a -6.6 -6.5 -6.7 --- --- 20.0 E 0.33 22.6 -15.8 --- --- 728.4 0.017 0.000 9.7 5 1
02/16/06 3:48 a -6.8 -6.5 -7.1 --- --- 20.9 ESE 0.35 24.3 -16.3 --- --- 728.4 0.017 0.000 9.7 5 1
02/16/06 3:49 a -7.3 -7.0 -7.4 --- --- 20.9 E 0.35 24.3 -17.1 --- --- 728.4 0.018 0.000 9.7 5 1
02/16/06 3:50 a -6.8 -6.6 -7.0 --- --- 20.0 ESE 0.33 22.6 -16.2 --- --- 728.3 0.017 0.000 9.7 5 1
02/16/06 3:51 a -6.5 -6.3 -6.6 --- --- 18.3 E 0.30 21.7 -15.4 --- --- 728.4 0.017 0.000 9.7 5 1
02/16/06 3:52 a -6.5 -6.3 -6.8 --- --- 20.9 E 0.35 23.5 -15.9 --- --- 728.4 0.017 0.000 9.7 5 1
02/16/06 3:53 a -7.1 -7.0 -7.2 --- --- 22.6 E 0.38 25.2 -17.1 --- --- 728.4 0.018 0.000 9.7 5 1
02/16/06 3:54 a -7.0 -6.9 -7.1 --- --- 19.1 E 0.32 22.6 -16.2 --- --- 728.4 0.018 0.000 9.7 5 1
02/16/06 3:55 a -7.3 -7.2 -7.4 --- --- 21.7 E 0.36 25.2 -17.1 --- --- 728.4 0.018 0.000 9.7 5 1
02/16/06 3:56 a -6.9 -6.6 -7.1 --- --- 17.4 E 0.29 20.9 -15.7 --- --- 728.4 0.018 0.000 9.7 5 1
02/16/06 3:57 a -6.6 -6.5 -6.6 --- --- 17.4 E 0.29 22.6 -15.3 --- --- 728.5 0.017 0.000 9.7 5 1
02/16/06 3:58 a -6.5 -6.4 -6.6 --- --- 16.5 E 0.28 20.0 -15.0 --- --- 728.5 0.017 0.000 9.7 5 1
02/16/06 3:59 a -6.7 -6.6 -6.7 --- --- 16.5 ESE 0.28 19.1 -15.2 --- --- 728.4 0.017 0.000 9.7 5 1
02/16/06 4:00 a -6.6 -6.6 -6.7 --- --- 18.3 E 0.30 20.0 -15.6 --- --- 728.5 0.017 0.000 9.7 5 1
02/16/06 4:01 a -6.6 -6.6 -6.6 --- --- 17.4 E 0.29 22.6 -15.3 --- --- 728.4 0.017 0.000 9.7 5 1
02/16/06 4:02 a -6.5 -6.4 -6.6 --- --- 18.3 E 0.30 21.7 -15.4 --- --- 728.5 0.017 0.000 9.8 5 1
02/16/06 4:03 a -6.4 -6.4 -6.5 --- --- 20.0 E 0.33 22.6 -15.7 --- --- 728.4 0.017 0.000 9.8 5 1
02/16/06 4:04 a -6.5 -6.4 -6.6 --- --- 19.1 E 0.32 21.7 -15.6 --- --- 728.5 0.017 0.000 9.8 5 1
02/16/06 4:05 a -6.6 -6.6 -6.7 --- --- 18.3 E 0.30 20.9 -15.6 --- --- 728.5 0.017 0.000 9.8 5 1
02/16/06 4:06 a -6.7 -6.6 -6.8 --- --- 18.3 E 0.30 23.5 -15.7 --- --- 728.5 0.017 0.000 9.8 5 1
02/16/06 4:07 a -6.7 -6.7 -6.8 --- --- 20.0 ESE 0.33 21.7 -16.1 --- --- 728.6 0.017 0.000 9.8 5 1
02/16/06 4:08 a -6.6 -6.5 -6.7 --- --- 20.0 ESE 0.33 22.6 -15.9 --- --- 728.6 0.017 0.000 9.8 5 1
02/16/06 4:09 a -6.4 -6.4 -6.4 --- --- 18.3 E 0.30 23.5 -15.3 --- --- 728.4 0.017 0.000 9.8 5 1
02/16/06 4:10 a -6.6 -6.5 -6.7 --- --- 19.1 ESE 0.32 25.2 -15.7 --- --- 728.5 0.017 0.000 9.8 5 1
02/16/06 4:11 a -6.4 -6.3 -6.4 --- --- 18.3 ESE 0.30 23.5 -15.2 --- --- 728.5 0.017 0.000 9.8 5 1
02/16/06 4:12 a -6.2 -6.2 -6.3 --- --- 19.1 ESE 0.32 25.2 -15.2 --- --- 728.5 0.017 0.000 9.8 5 1
02/16/06 4:13 a -6.2 -6.2 -6.3 --- --- 18.3 E 0.30 21.7 -15.0 --- --- 728.5 0.017 0.000 9.8 5 1
02/16/06 4:14 a -6.2 -6.2 -6.3 --- --- 19.1 E 0.32 25.2 -15.2 --- --- 728.5 0.017 0.000 9.8 5 1
02/16/06 4:15 a -6.4 -6.4 -6.4 --- --- 20.9 E 0.35 25.2 -15.8 --- --- 728.4 0.017 0.000 9.8 5 1
02/16/06 4:16 a -6.4 -6.4 -6.4 --- --- 22.6 ESE 0.38 25.2 -16.2 --- --- 728.5 0.017 0.000 9.8 5 1
02/16/06 4:17 a -6.4 -6.4 -6.4 --- --- 22.6 ESE 0.38 24.3 -16.2 --- --- 728.5 0.017 0.000 9.8 5 1
02/16/06 4:18 a -6.4 -6.3 -6.4 --- --- 23.5 ESE 0.39 26.1 -16.2 --- --- 728.5 0.017 0.000 9.8 5 1
02/16/06 4:19 a -6.4 -6.4 -6.5 --- --- 21.7 ESE 0.36 24.3 -16.0 --- --- 728.5 0.017 0.000 9.9 5 1
02/16/06 4:20 a -6.4 -6.3 -6.4 --- --- 20.9 ESE 0.35 24.3 -15.8 --- --- 728.5 0.017 0.000 9.9 5 1
02/16/06 4:21 a -6.3 -6.3 -6.4 --- --- 20.9 ESE 0.35 26.1 -15.7 --- --- 728.5 0.017 0.000 9.9 5 1
02/16/06 4:22 a -6.3 -6.3 -6.3 --- --- 21.7 ESE 0.36 23.5 -15.8 --- --- 728.4 0.017 0.000 9.9 5 1
02/16/06 4:23 a -6.3 -6.3 -6.4 --- --- 20.9 ESE 0.35 26.1 -15.7 --- --- 728.4 0.017 0.000 9.9 5 1
02/16/06 4:24 a -6.3 -6.3 -6.6 --- --- 19.1 E 0.32 22.6 -15.3 --- --- 728.4 0.017 0.000 9.9 5 1
02/16/06 4:25 a -6.6 -6.6 -6.7 --- --- 20.0 ESE 0.33 23.5 -15.9 --- --- 728.5 0.017 0.000 9.9 5 1
02/16/06 4:26 a -6.6 -6.6 -6.6 --- --- 22.6 ESE 0.38 26.1 -16.3 --- --- 728.6 0.017 0.000 9.9 5 1
02/16/06 4:27 a -6.4 -6.3 -6.6 --- --- 20.0 ESE 0.33 21.7 -15.7 --- --- 728.7 0.017 0.000 9.9 5 1
02/16/06 4:28 a -6.6 -6.6 -6.6 --- --- 19.1 ESE 0.32 20.9 -15.7 --- --- 728.8 0.017 0.000 9.9 5 1
02/16/06 4:29 a -6.4 -6.2 -6.6 --- --- 20.9 ESE 0.35 24.3 -15.8 --- --- 728.6 0.017 0.000 9.9 5 1
02/16/06 4:30 a -6.3 -6.2 -6.3 --- --- 21.7 ESE 0.36 23.5 -15.8 --- --- 728.6 0.017 0.000 9.9 5 1
02/16/06 4:31 a -6.3 -6.3 -6.4 --- --- 21.7 ESE 0.36 22.6 -15.9 --- --- 728.6 0.017 0.000 9.9 5 1
02/16/06 4:32 a -6.4 -6.3 -6.4 --- --- 20.0 ESE 0.33 23.5 -15.6 --- --- 728.6 0.017 0.000 9.9 5 1
02/16/06 4:33 a -6.3 -6.3 -6.3 --- --- 20.9 ESE 0.35 23.5 -15.7 --- --- 728.6 0.017 0.000 9.9 5 1
02/16/06 4:34 a -6.3 -6.3 -6.4 --- --- 18.3 E 0.30 20.9 -15.2 --- --- 728.6 0.017 0.000 9.9 5 1
02/16/06 4:35 a -6.2 -6.2 -6.3 --- --- 20.0 ESE 0.33 24.3 -15.4 --- --- 728.6 0.017 0.000 9.8 5 1
02/16/06 4:36 a -6.2 -6.2 -6.2 --- --- 19.1 ESE 0.32 24.3 -15.1 --- --- 728.7 0.017 0.000 9.8 5 1
02/16/06 4:37 a -6.0 -5.9 -6.2 --- --- 20.0 ESE 0.33 24.3 -15.1 --- --- 728.7 0.017 0.000 9.8 5 1
02/16/06 4:38 a -5.9 -5.7 -5.9 --- --- 19.1 ESE 0.32 22.6 -14.8 --- --- 728.8 0.017 0.000 9.8 5 1
02/16/06 4:39 a -5.7 -5.7 -5.8 --- --- 20.0 ESE 0.33 25.2 -14.7 --- --- 728.6 0.017 0.000 9.8 5 1
02/16/06 4:40 a -5.7 -5.7 -5.9 --- --- 18.3 ESE 0.30 21.7 -14.4 --- --- 728.6 0.017 0.000 9.8 5 1
02/16/06 4:41 a -6.1 -5.9 -6.2 --- --- 20.0 ESE 0.33 23.5 -15.2 --- --- 728.7 0.017 0.000 9.8 5 1
02/16/06 4:42 a -6.2 -6.2 -6.2 --- --- 21.7 ESE 0.36 23.5 -15.7 --- --- 728.7 0.017 0.000 9.8 5 1
02/16/06 4:43 a -6.3 -6.2 -6.3 --- --- 19.1 ESE 0.32 21.7 -15.3 --- --- 728.7 0.017 0.000 9.8 5 1
02/16/06 4:44 a -6.3 -6.3 -6.4 --- --- 21.7 ESE 0.36 23.5 -15.9 --- --- 728.6 0.017 0.000 9.8 5 1
02/16/06 4:45 a -6.4 -6.3 -6.5 --- --- 20.9 ESE 0.35 23.5 -15.8 --- --- 728.6 0.017 0.000 9.8 5 1
02/16/06 4:46 a -6.4 -6.3 -6.5 --- --- 18.3 SE 0.30 22.6 -15.2 --- --- 728.7 0.017 0.000 9.7 5 1
02/16/06 4:47 a -6.3 -6.2 -6.3 --- --- 20.9 ESE 0.35 24.3 -15.6 --- --- 728.8 0.017 0.000 9.7 5 1
02/16/06 4:48 a -6.4 -6.2 -6.6 --- --- 20.9 ESE 0.35 22.6 -15.8 --- --- 728.8 0.017 0.000 9.7 5 1
02/16/06 4:49 a -6.4 -6.4 -6.4 --- --- 20.9 ESE 0.35 23.5 -15.8 --- --- 728.7 0.017 0.000 9.7 5 1
02/16/06 4:50 a -6.3 -6.2 -6.4 --- --- 20.9 ESE 0.35 22.6 -15.7 --- --- 728.7 0.017 0.000 9.7 5 1
02/16/06 4:51 a -6.1 -5.9 -6.2 --- --- 18.3 E 0.30 19.1 -14.8 --- --- 728.7 0.017 0.000 9.7 5 1
02/16/06 4:52 a -5.9 -5.8 -6.0 --- --- 19.1 ESE 0.32 22.6 -14.8 --- --- 728.7 0.017 0.000 9.7 5 1
02/16/06 4:53 a -6.0 -6.0 -6.1 --- --- 20.0 ESE 0.33 22.6 -15.1 --- --- 728.8 0.017 0.000 9.7 5 1
02/16/06 4:54 a -5.9 -5.9 -5.9 --- --- 18.3 E 0.30 24.3 -14.7 --- --- 728.7 0.017 0.000 9.7 5 1
02/16/06 4:55 a -6.2 -6.2 -6.3 --- --- 20.0 E 0.33 23.5 -15.3 --- --- 728.7 0.017 0.000 9.7 5 1
02/16/06 4:56 a -6.3 -6.3 -6.3 --- --- 20.9 ESE 0.35 23.5 -15.7 --- --- 728.7 0.017 0.000 9.7 5 1
02/16/06 4:57 a -6.3 -6.2 -6.3 --- --- 20.9 ESE 0.35 23.5 -15.6 --- --- 728.7 0.017 0.000 9.7 5 1
02/16/06 4:58 a -6.2 -6.2 -6.3 --- --- 21.7 E 0.36 26.1 -15.7 --- --- 728.7 0.017 0.000 9.7 5 1
02/16/06 4:59 a -6.2 -6.2 -6.2 --- --- 21.7 ESE 0.36 24.3 -15.7 --- --- 728.6 0.017 0.000 9.7 5 1
02/16/06 5:00 a -6.2 -6.1 -6.2 --- --- 24.3 ESE 0.41 27.0 -16.1 --- --- 728.7 0.017 0.000 9.7 5 1
02/16/06 5:01 a -6.3 -6.2 -6.4 --- --- 22.6 ESE 0.38 25.2 -16.0 --- --- 728.6 0.017 0.000 9.7 5 1
02/16/06 5:02 a -6.6 -6.5 -6.6 --- --- 21.7 E 0.36 24.3 -16.2 --- --- 728.7 0.017 0.000 9.6 5 1
02/16/06 5:03 a -6.6 -6.3 -6.7 --- --- 21.7 ESE 0.36 24.3 -16.2 --- --- 728.6 0.017 0.000 9.6 5 1
02/16/06 5:04 a -6.3 -6.1 -6.3 --- --- 20.9 ESE 0.35 22.6 -15.6 --- --- 728.6 0.017 0.000 9.6 5 1
02/16/06 5:05 a -6.1 -6.1 -6.1 --- --- 21.7 ESE 0.36 26.1 -15.6 --- --- 728.6 0.017 0.000 9.6 5 1
02/16/06 5:06 a -6.1 -6.1 -6.2 --- --- 20.9 ESE 0.35 22.6 -15.4 --- --- 728.7 0.017 0.000 9.6 5 1
02/16/06 5:07 a -6.1 -6.1 -6.2 --- --- 21.7 ESE 0.36 23.5 -15.6 --- --- 728.7 0.017 0.000 9.6 5 1
02/16/06 5:08 a -6.2 -6.2 -6.3 --- --- 20.9 ESE 0.35 23.5 -15.6 --- --- 728.7 0.017 0.000 9.6 5 1
02/16/06 5:09 a -6.2 -6.0 -6.3 --- --- 20.0 ESE 0.33 22.6 -15.3 --- --- 728.6 0.017 0.000 9.6 5 1
02/16/06 5:10 a -6.1 -6.0 -6.2 --- --- 20.9 ESE 0.35 26.1 -15.3 --- --- 728.6 0.017 0.000 9.6 5 1
02/16/06 5:11 a -6.1 -6.1 -6.2 --- --- 19.1 ESE 0.32 22.6 -15.1 --- --- 728.7 0.017 0.000 9.6 5 1
02/16/06 5:12 a -6.1 -6.1 -6.2 --- --- 20.9 ESE 0.35 25.2 -15.3 --- --- 728.7 0.017 0.000 9.6 5 1
02/16/06 5:13 a -6.1 -6.0 -6.2 --- --- 21.7 ESE 0.36 24.3 -15.6 --- --- 728.6 0.017 0.000 9.6 5 1
02/16/06 5:14 a -6.1 -6.1 -6.2 --- --- 20.0 ESE 0.33 21.7 -15.2 --- --- 728.8 0.017 0.000 9.6 5 1
02/16/06 5:15 a -6.1 -6.1 -6.1 --- --- 18.3 E 0.30 22.6 -14.9 --- --- 728.6 0.017 0.000 9.6 4 1
02/16/06 5:16 a -6.2 -6.1 -6.3 --- --- 22.6 ESE 0.38 25.2 -15.8 --- --- 728.5 0.017 0.000 9.6 4 1
02/16/06 5:17 a -6.4 -6.3 -6.5 --- --- 21.7 ESE 0.36 24.3 -16.0 --- --- 728.6 0.017 0.000 9.6 4 1
02/16/06 5:18 a -6.4 -6.4 -6.6 --- --- 23.5 ESE 0.39 27.8 -16.3 --- --- 728.4 0.017 0.000 9.6 5 1
02/16/06 5:19 a -6.5 -6.5 -6.6 --- --- 24.3 ESE 0.41 29.6 -16.6 --- --- 728.4 0.017 0.000 9.6 5 1
02/16/06 5:20 a -6.4 -6.4 -6.5 --- --- 22.6 ESE 0.38 26.1 -16.2 --- --- 728.4 0.017 0.000 9.6 5 1
02/16/06 5:21 a -6.4 -6.3 -6.5 --- --- 18.3 ESE 0.30 20.9 -15.3 --- --- 728.5 0.017 0.000 9.7 5 1
02/16/06 5:22 a -6.3 -6.2 -6.3 --- --- 22.6 ESE 0.38 27.0 -15.9 --- --- 728.6 0.017 0.000 9.7 5 1
02/16/06 5:23 a -6.3 -6.2 -6.4 --- --- 18.3 ESE 0.30 20.0 -15.2 --- --- 728.7 0.017 0.000 9.7 5 1
02/16/06 5:24 a -6.5 -6.4 -6.6 --- --- 19.1 ESE 0.32 21.7 -15.6 --- --- 728.5 0.017 0.000 9.8 5 1
02/16/06 5:25 a -6.4 -6.3 -6.5 --- --- 20.9 ESE 0.35 22.6 -15.8 --- --- 728.6 0.017 0.000 9.8 5 1
02/16/06 5:26 a -6.4 -6.3 -6.4 --- --- 21.7 ESE 0.36 23.5 -15.9 --- --- 728.5 0.017 0.000 9.8 5 1
02/16/06 5:27 a -6.5 -6.4 -6.5 --- --- 20.9 ESE 0.35 22.6 -15.9 --- --- 728.5 0.017 0.000 9.8 5 1
02/16/06 5:28 a -6.3 -6.3 -6.4 --- --- 18.3 ESE 0.30 21.7 -15.2 --- --- 728.7 0.017 0.000 9.8 5 1
02/16/06 5:29 a -6.2 -6.2 -6.4 --- --- 17.4 ESE 0.29 18.3 -14.8 --- --- 728.6 0.017 0.000 9.8 5 1
02/16/06 5:30 a -6.2 -6.1 -6.2 --- --- 16.5 ESE 0.28 19.1 -14.6 --- --- 728.6 0.017 0.000 9.9 5 1
02/16/06 5:31 a -5.9 -5.9 -6.1 --- --- 14.8 ESE 0.25 19.1 -13.8 --- --- 728.6 0.017 0.000 9.9 5 1
02/16/06 5:32 a -5.9 -5.9 -6.0 --- --- 16.5 ESE 0.28 19.1 -14.3 --- --- 728.6 0.017 0.000 9.9 5 1
02/16/06 5:33 a -5.9 -5.8 -6.0 --- --- 18.3 ESE 0.30 19.1 -14.7 --- --- 728.6 0.017 0.000 9.9 5 1
02/16/06 5:34 a -6.0 -5.9 -6.1 --- --- 15.7 E 0.26 19.1 -14.2 --- --- 728.6 0.017 0.000 9.9 5 1
02/16/06 5:35 a -6.1 -6.1 -6.1 --- --- 14.8 E 0.25 16.5 -14.0 --- --- 728.7 0.017 0.000 9.9 5 1
02/16/06 5:36 a -6.0 -6.0 -6.0 --- --- 14.8 E 0.25 17.4 -13.9 --- --- 728.6 0.017 0.000 9.9 5 1
02/16/06 5:37 a -6.0 -6.0 -6.1 --- --- 15.7 E 0.26 21.7 -14.2 --- --- 728.6 0.017 0.000 9.9 5 1
02/16/06 5:38 a -6.1 -6.0 -6.1 --- --- 17.4 ESE 0.29 20.9 -14.6 --- --- 728.6 0.017 0.000 10.0 5 1
02/16/06 5:39 a -6.1 -6.1 -6.1 --- --- 19.1 ESE 0.32 21.7 -15.0 --- --- 728.6 0.017 0.000 10.0 5 1
02/16/06 5:40 a -6.1 -6.1 -6.1 --- --- 17.4 ESE 0.29 20.0 -14.7 --- --- 728.6 0.017 0.000 10.0 5 1
02/16/06 5:41 a -6.1 -6.1 -6.1 --- --- 15.7 ESE 0.26 17.4 -14.2 --- --- 728.7 0.017 0.000 10.0 5 1
02/16/06 5:42 a -6.0 -5.9 -6.1 --- --- 13.9 E 0.23 16.5 -13.7 --- --- 728.7 0.017 0.000 10.0 5 1
02/16/06 5:43 a -6.1 -6.0 -6.1 --- --- 14.8 E 0.25 19.1 -14.0 --- --- 728.6 0.017 0.000 10.0 5 1
02/16/06 5:44 a -5.9 -5.8 -5.9 --- --- 15.7 ESE 0.26 19.1 -14.0 --- --- 728.6 0.017 0.000 10.0 5 1
02/16/06 5:45 a -5.8 -5.7 -5.8 --- --- 15.7 E 0.26 17.4 -13.8 --- --- 728.6 0.017 0.000 10.0 5 1
02/16/06 5:46 a -5.6 -5.6 -5.8 --- --- 15.7 ESE 0.26 17.4 -13.7 --- --- 728.6 0.017 0.000 10.1 5 1
02/16/06 5:47 a -5.7 -5.6 -5.7 --- --- 16.5 ESE 0.28 17.4 -13.9 --- --- 728.6 0.017 0.000 10.1 5 1
02/16/06 5:48 a -5.6 -5.6 -5.6 --- --- 18.3 ESE 0.30 20.0 -14.2 --- --- 728.6 0.017 0.000 10.1 5 1
02/16/06 5:49 a -5.8 -5.6 -5.9 --- --- 17.4 ESE 0.29 19.1 -14.3 --- --- 728.5 0.017 0.000 10.1 5 1
02/16/06 5:50 a -5.9 -5.8 -6.0 --- --- 17.4 ESE 0.29 20.0 -14.4 --- --- 728.5 0.017 0.000 10.1 5 1
02/16/06 5:51 a -6.0 -6.0 -6.0 --- --- 16.5 ESE 0.28 18.3 -14.3 --- --- 728.5 0.017 0.000 10.1 5 1
02/16/06 5:52 a -6.1 -6.0 -6.3 --- --- 19.1 ESE 0.32 25.2 -15.1 --- --- 728.3 0.017 0.000 10.1 5 1
02/16/06 5:53 a -6.2 -6.2 -6.2 --- --- 20.0 ESE 0.33 20.9 -15.4 --- --- 728.3 0.017 0.000 10.1 5 1
02/16/06 5:54 a -6.0 -5.9 -6.0 --- --- 19.1 ESE 0.32 25.2 -14.9 --- --- 728.5 0.017 0.000 10.1 5 1
02/16/06 5:55 a -6.1 -5.9 -6.2 --- --- 17.4 ESE 0.29 20.0 -14.6 --- --- 728.5 0.017 0.000 10.1 5 1
02/16/06 5:56 a -6.3 -6.2 -6.5 --- --- 20.0 ESE 0.33 21.7 -15.6 --- --- 728.4 0.017 0.000 10.1 5 1
02/16/06 5:57 a -6.4 -6.4 -6.4 --- --- 18.3 ESE 0.30 20.9 -15.3 --- --- 728.5 0.017 0.000 10.2 5 1
02/16/06 5:58 a -6.4 -6.4 -6.5 --- --- 19.1 ESE 0.32 24.3 -15.5 --- --- 728.4 0.017 0.000 10.2 5 1
02/16/06 5:59 a -6.4 -6.4 -6.4 --- --- 20.0 ESE 0.33 22.6 -15.6 --- --- 728.4 0.017 0.000 10.2 5 1
02/16/06 6:00 a -6.4 -6.4 -6.4 --- --- 19.1 ESE 0.32 21.7 -15.5 --- --- 728.5 0.017 0.000 10.2 5 1
02/16/06 6:01 a -6.6 -6.4 -6.7 --- --- 20.0 ESE 0.33 20.9 -15.9 --- --- 728.5 0.017 0.000 10.2 5 1
02/16/06 6:02 a -6.7 -6.7 -6.8 --- --- 19.1 ESE 0.32 21.7 -15.9 --- --- 728.4 0.017 0.000 10.2 5 1
02/16/06 6:03 a -6.8 -6.8 -6.8 --- --- 18.3 ESE 0.30 20.0 -15.8 --- --- 728.4 0.017 0.000 10.2 5 1
02/16/06 6:04 a -6.8 -6.8 -6.9 --- --- 19.1 ESE 0.32 21.7 -16.0 --- --- 728.4 0.017 0.000 10.2 5 1
02/16/06 6:05 a -6.8 -6.7 -6.8 --- --- 22.6 ESE 0.38 25.2 -16.6 --- --- 728.5 0.017 0.000 10.3 5 1
02/16/06 6:06 a -6.8 -6.8 -6.8 --- --- 18.3 ESE 0.30 20.0 -15.8 --- --- 728.4 0.017 0.000 10.3 5 1
02/16/06 6:07 a -6.9 -6.9 -7.1 --- --- 17.4 ESE 0.29 19.1 -15.7 --- --- 728.5 0.018 0.000 10.3 5 1
02/16/06 6:08 a -7.1 -7.1 -7.1 --- --- 17.4 E 0.29 20.9 -15.9 --- --- 728.5 0.018 0.000 10.3 5 1
02/16/06 6:09 a -7.0 -6.9 -7.1 --- --- 16.5 E 0.28 19.1 -15.7 --- --- 728.5 0.018 0.000 10.3 5 1
02/16/06 6:10 a -6.9 -6.9 -6.9 --- --- 19.1 ESE 0.32 20.0 -16.1 --- --- 728.5 0.018 0.000 10.4 5 1
02/16/06 6:11 a -7.0 -7.0 -7.0 --- --- 19.1 E 0.32 20.0 -16.2 --- --- 728.4 0.018 0.000 10.4 5 1
02/16/06 6:12 a -7.0 -7.0 -7.0 --- --- 19.1 E 0.32 20.9 -16.2 --- --- 728.5 0.018 0.000 10.4 5 1
02/16/06 6:13 a -7.0 -7.0 -7.1 --- --- 17.4 ESE 0.29 19.1 -15.8 --- --- 728.4 0.018 0.000 10.4 5 1
02/16/06 6:14 a -7.1 -7.1 -7.1 --- --- 20.0 ESE 0.33 21.7 -16.5 --- --- 728.5 0.018 0.000 10.4 5 1
02/16/06 6:15 a -7.1 -7.0 -7.1 --- --- 20.0 ESE 0.33 21.7 -16.5 --- --- 728.5 0.018 0.000 10.4 5 1
02/16/06 6:16 a -7.2 -7.2 -7.3 --- --- 19.1 ESE 0.32 20.9 -16.4 --- --- 728.6 0.018 0.000 10.4 5 1
02/16/06 6:17 a -7.1 -7.1 -7.2 --- --- 19.1 ESE 0.32 21.7 -16.4 --- --- 728.5 0.018 0.000 10.5 5 1
02/16/06 6:18 a -7.3 -7.2 -7.5 --- --- 20.9 ESE 0.35 22.6 -17.1 --- --- 728.4 0.018 0.000 10.5 5 1
02/16/06 6:19 a -7.4 -7.3 -7.4 --- --- 19.1 ESE 0.32 22.6 -16.8 --- --- 728.4 0.018 0.000 10.5 5 1
02/16/06 6:20 a -7.3 -7.2 -7.3 --- --- 19.1 E 0.32 22.6 -16.6 --- --- 728.4 0.018 0.000 10.6 5 1
02/16/06 6:21 a -7.3 -7.3 -7.3 --- --- 18.3 ESE 0.30 21.7 -16.5 --- --- 728.5 0.018 0.000 10.6 5 1
02/16/06 6:22 a -7.2 -7.2 -7.2 --- --- 18.3 ESE 0.30 20.0 -16.3 --- --- 728.6 0.018 0.000 10.6 5 1
02/16/06 6:23 a -7.1 -7.1 -7.2 --- --- 20.0 ESE 0.33 20.9 -16.6 --- --- 728.5 0.018 0.000 10.6 5 1
02/16/06 6:24 a -7.4 -7.4 -7.6 --- --- 20.0 ESE 0.33 20.9 -17.0 --- --- 728.5 0.018 0.000 10.6 5 1
02/16/06 6:25 a -7.6 -7.6 -7.6 --- --- 16.5 ESE 0.28 20.0 -16.4 --- --- 728.5 0.018 0.000 10.6 5 1
02/16/06 6:26 a -7.4 -7.3 -7.4 --- --- 17.4 ESE 0.29 18.3 -16.4 --- --- 728.5 0.018 0.000 10.6 5 1
02/16/06 6:27 a -7.4 -7.4 -7.4 --- --- 17.4 ESE 0.29 20.0 -16.4 --- --- 728.5 0.018 0.000 10.6 4 1
02/16/06 6:28 a -7.4 -7.3 -7.4 --- --- 17.4 ESE 0.29 21.7 -16.4 --- --- 728.5 0.018 0.000 10.6 5 1
02/16/06 6:29 a -7.3 -7.1 -7.3 --- --- 20.0 ESE 0.33 22.6 -16.8 --- --- 728.5 0.018 0.000 10.6 5 1
02/16/06 6:30 a -7.2 -7.1 -7.3 --- --- 18.3 ESE 0.30 20.0 -16.3 --- --- 728.5 0.018 0.000 10.6 5 1
02/16/06 6:31 a -7.4 -7.3 -7.6 --- --- 19.1 ESE 0.32 20.9 -16.8 --- --- 728.5 0.018 0.000 10.6 5 1
02/16/06 6:32 a -7.6 -7.6 -7.7 --- --- 19.1 ESE 0.32 20.9 -17.1 --- --- 728.5 0.018 0.000 10.6 5 1
02/16/06 6:33 a -7.7 -7.6 -7.8 --- --- 20.0 ESE 0.33 20.9 -17.3 --- --- 728.5 0.018 0.000 10.6 5 1
02/16/06 6:34 a -7.6 -7.6 -7.7 --- --- 19.1 ESE 0.32 21.7 -17.1 --- --- 728.5 0.018 0.000 10.6 5 1
02/16/06 6:35 a -7.6 -7.5 -7.6 --- --- 20.9 ESE 0.35 23.5 -17.3 --- --- 728.5 0.018 0.000 10.6 4 1
02/16/06 6:36 a -7.2 -7.2 -7.3 --- --- 18.3 ESE 0.30 20.9 -16.3 --- --- 728.5 0.018 0.000 10.6 4 1
02/16/06 6:37 a -7.2 -7.2 -7.2 --- --- 20.9 ESE 0.35 22.6 -16.8 --- --- 728.5 0.018 0.000 10.6 5 1
02/16/06 6:38 a -7.3 -7.3 -7.4 --- --- 20.0 ESE 0.33 23.5 -16.8 --- --- 728.5 0.018 0.000 10.6 5 1
02/16/06 6:39 a -7.2 -7.2 -7.4 --- --- 19.1 ESE 0.32 20.9 -16.6 --- --- 728.5 0.018 0.000 10.6 4 1
02/16/06 6:40 a -7.2 -7.2 -7.4 --- --- 20.9 E 0.35 21.7 -16.9 --- --- 728.4 0.018 0.000 10.6 4 1
02/16/06 6:41 a -7.4 -7.4 -7.6 --- --- 19.1 ESE 0.32 20.9 -16.8 --- --- 728.4 0.018 0.000 10.6 4 1
02/16/06 6:42 a -7.6 -7.6 -7.6 --- --- 20.9 E 0.35 23.5 -17.3 --- --- 728.4 0.018 0.000 10.6 4 1
02/16/06 6:43 a -7.6 -7.6 -7.6 --- --- 21.7 ESE 0.36 27.8 -17.6 --- --- 728.4 0.018 0.000 10.6 4 1
02/16/06 6:44 a -7.6 -7.6 -7.6 --- --- 21.7 ESE 0.36 26.1 -17.5 --- --- 728.3 0.018 0.000 10.6 4 1
02/16/06 6:45 a -7.4 -7.3 -7.6 --- --- 20.9 ESE 0.35 23.5 -17.2 --- --- 728.3 0.018 0.000 10.6 4 1
02/16/06 6:46 a -7.3 -7.3 -7.6 --- --- 22.6 ESE 0.38 22.6 -17.4 --- --- 728.4 0.018 0.000 10.7 4 1
02/16/06 6:47 a -7.7 -7.6 -7.8 --- --- 22.6 ESE 0.38 24.3 -17.8 --- --- 728.4 0.018 0.000 10.6 4 1
02/16/06 6:48 a -7.8 -7.7 -7.8 --- --- 22.6 ESE 0.38 24.3 -17.9 --- --- 728.3 0.018 0.000 10.6 4 1
02/16/06 6:49 a -7.7 -7.6 -7.7 --- --- 22.6 ESE 0.38 24.3 -17.8 --- --- 728.3 0.018 0.000 10.6 4 1
02/16/06 6:50 a -7.5 -7.4 -7.6 --- --- 24.3 ESE 0.41 26.1 -17.8 --- --- 728.3 0.018 0.000 10.6 4 1
02/16/06 6:51 a -7.5 -7.4 -7.6 --- --- 23.5 ESE 0.39 24.3 -17.7 --- --- 728.3 0.018 0.000 10.6 4 1
02/16/06 6:52 a -7.6 -7.6 -7.6 --- --- 22.6 ESE 0.38 24.3 -17.7 --- --- 728.4 0.018 0.000 10.6 4 1
02/16/06 6:53 a -7.6 -7.6 -7.7 --- --- 22.6 ESE 0.38 25.2 -17.7 --- --- 728.3 0.018 0.000 10.6 4 1
02/16/06 6:54 a -7.7 -7.7 -7.8 --- --- 23.5 ESE 0.39 25.2 -18.0 --- --- 728.3 0.018 0.000 10.6 4 1
02/16/06 6:55 a -7.7 -7.7 -7.8 --- --- 24.3 ESE 0.41 26.1 -18.2 --- --- 728.3 0.018 0.000 10.6 4 1
02/16/06 6:56 a -7.8 -7.8 -7.9 --- --- 23.5 ESE 0.39 25.2 -18.1 --- --- 728.4 0.018 0.000 10.6 4 1
02/16/06 6:57 a -7.9 -7.9 -8.2 --- --- 24.3 ESE 0.41 27.8 -18.4 --- --- 728.2 0.018 0.000 10.6 4 1
02/16/06 6:58 a -8.1 -8.0 -8.2 --- --- 24.3 ESE 0.41 27.8 -18.7 --- --- 728.3 0.018 0.000 10.6 4 1
02/16/06 6:59 a -7.9 -7.8 -8.0 --- --- 24.3 ESE 0.41 26.1 -18.4 --- --- 728.1 0.018 0.000 10.6 4 1
02/16/06 7:00 a -7.7 -7.7 -7.8 --- --- 23.5 ESE 0.39 27.0 -18.0 --- --- 728.2 0.018 0.000 10.6 4 1
02/16/06 7:01 a -7.7 -7.6 -7.8 --- --- 23.5 ESE 0.39 25.2 -17.9 --- --- 728.3 0.018 0.000 10.6 4 1
02/16/06 7:02 a -7.7 -7.6 -7.8 --- --- 23.5 ESE 0.39 25.2 -18.0 --- --- 728.2 0.018 0.000 10.6 4 1
02/16/06 7:03 a -7.7 -7.7 -7.7 --- --- 23.5 ESE 0.39 27.8 -18.0 --- --- 728.2 0.018 0.000 10.6 4 1
02/16/06 7:04 a -7.7 -7.7 -7.7 --- --- 23.5 ESE 0.39 24.3 -18.0 --- --- 728.3 0.018 0.000 10.6 4 1
02/16/06 7:05 a -7.7 -7.7 -7.7 --- --- 21.7 ESE 0.36 25.2 -17.7 --- --- 728.2 0.018 0.000 10.6 4 1
02/16/06 7:06 a -7.6 -7.5 -7.7 --- --- 22.6 ESE 0.38 26.1 -17.7 --- --- 728.3 0.018 0.000 10.6 4 1
02/16/06 7:07 a -7.7 -7.5 -7.8 --- --- 24.3 ESE 0.41 27.0 -18.1 --- --- 728.3 0.018 0.000 10.6 4 1
02/16/06 7:08 a -7.8 -7.8 -7.9 --- --- 22.6 ESE 0.38 25.2 -18.0 --- --- 728.3 0.018 0.000 10.5 4 1
02/16/06 7:09 a -7.8 -7.8 -7.9 --- --- 24.3 ESE 0.41 27.8 -18.3 --- --- 728.3 0.018 0.000 10.5 4 1
02/16/06 7:10 a -7.9 -7.8 -7.9 --- --- 22.6 ESE 0.38 24.3 -18.1 --- --- 728.3 0.018 0.000 10.5 4 1
02/16/06 7:11 a -7.9 -7.8 -7.9 --- --- 23.5 ESE 0.39 26.1 -18.2 --- --- 728.3 0.018 0.000 10.5 4 1
02/16/06 7:12 a -8.1 -7.9 -8.1 --- --- 22.6 ESE 0.38 25.2 -18.3 --- --- 728.2 0.018 0.000 10.5 4 1
02/16/06 7:13 a -8.2 -8.1 -8.2 --- --- 20.9 ESE 0.35 23.5 -18.1 --- --- 728.3 0.018 0.000 10.4 4 1
02/16/06 7:14 a -8.1 -8.1 -8.1 --- --- 23.5 ESE 0.39 24.3 -18.5 --- --- 728.3 0.018 0.000 10.4 4 1
02/16/06 7:15 a -8.1 -8.1 -8.2 --- --- 23.5 ESE 0.39 25.2 -18.5 --- --- 728.3 0.018 0.000 10.4 4 1
02/16/06 7:16 a -8.2 -8.2 -8.3 --- --- 21.7 ESE 0.36 23.5 -18.3 --- --- 728.4 0.018 0.000 10.4 4 1
02/16/06 7:17 a -8.3 -8.3 -8.4 --- --- 23.5 ESE 0.39 25.2 -18.8 --- --- 728.2 0.019 0.000 10.4 4 1
02/16/06 7:18 a -8.2 -8.2 -8.3 --- --- 23.5 ESE 0.39 26.1 -18.7 --- --- 728.3 0.018 0.000 10.4 4 1
02/16/06 7:19 a -8.2 -8.1 -8.2 --- --- 21.7 E 0.36 25.2 -18.3 --- --- 728.2 0.018 0.000 10.4 4 1
02/16/06 7:20 a -8.1 -8.1 -8.1 --- --- 24.3 ESE 0.41 26.1 -18.6 --- --- 728.3 0.018 0.000 10.4 4 1
02/16/06 7:21 a -8.2 -8.1 -8.2 --- --- 21.7 ESE 0.36 24.3 -18.3 --- --- 728.3 0.018 0.000 10.4 4 1
02/16/06 7:22 a -8.1 -8.1 -8.2 --- --- 24.3 ESE 0.41 30.4 -18.7 --- --- 728.3 0.018 0.000 10.4 4 1
02/16/06 7:23 a -8.2 -8.1 -8.2 --- --- 21.7 ESE 0.36 24.3 -18.3 --- --- 728.5 0.018 0.000 10.4 4 1
02/16/06 7:24 a -8.2 -8.1 -8.2 --- --- 21.7 ESE 0.36 24.3 -18.3 --- --- 728.4 0.018 0.000 10.4 4 1
02/16/06 7:25 a -7.9 -7.9 -8.1 --- --- 22.6 ESE 0.38 27.0 -18.1 --- --- 728.4 0.018 0.000 10.4 4 1
02/16/06 7:26 a -8.1 -7.9 -8.3 --- --- 22.6 ESE 0.38 23.5 -18.3 --- --- 728.4 0.018 0.000 10.3 4 1
02/16/06 7:27 a -8.2 -8.2 -8.3 --- --- 22.6 ESE 0.38 27.0 -18.5 --- --- 728.3 0.018 0.000 10.3 4 1
02/16/06 7:28 a -8.3 -8.2 -8.4 --- --- 22.6 ESE 0.38 25.2 -18.6 --- --- 728.4 0.018 0.000 10.3 4 1
02/16/06 7:29 a -8.2 -8.2 -8.3 --- --- 23.5 ESE 0.39 26.1 -18.7 --- --- 728.5 0.018 0.000 10.3 4 1
02/16/06 7:30 a -8.3 -8.3 -8.4 --- --- 20.9 SE 0.35 27.0 -18.3 --- --- 728.5 0.019 0.000 10.3 4 1
02/16/06 7:31 a -8.2 -7.9 -8.4 --- --- 20.9 ESE 0.35 24.3 -18.1 --- --- 728.4 0.018 0.000 10.3 4 1
02/16/06 7:32 a -8.0 -7.9 -8.1 --- --- 20.9 ESE 0.35 25.2 -17.9 --- --- 728.4 0.018 0.000 10.3 4 1
02/16/06 7:33 a -8.0 -7.9 -8.1 --- --- 21.7 ESE 0.36 26.1 -18.1 --- --- 728.4 0.018 0.000 10.3 4 1
02/16/06 7:34 a -8.2 -8.1 -8.3 --- --- 22.6 ESE 0.38 26.1 -18.5 --- --- 728.5 0.018 0.000 10.3 4 1
02/16/06 7:35 a -8.3 -8.3 -8.3 --- --- 21.7 ESE 0.36 23.5 -18.4 --- --- 728.5 0.018 0.000 10.3 4 1
02/16/06 7:36 a -8.3 -8.3 -8.3 --- --- 20.9 ESE 0.35 27.0 -18.3 --- --- 728.5 0.019 0.000 10.3 5 1
02/16/06 7:37 a -8.2 -8.2 -8.3 --- --- 21.7 SE 0.36 24.3 -18.3 --- --- 728.5 0.018 0.000 10.3 4 1
02/16/06 7:38 a -8.3 -8.2 -8.3 --- --- 23.5 SE 0.39 27.8 -18.7 --- --- 728.5 0.018 0.000 10.3 5 1
02/16/06 7:39 a -8.1 -8.0 -8.2 --- --- 21.7 SE 0.36 25.2 -18.2 --- --- 728.5 0.018 0.000 10.3 4 1
02/16/06 7:40 a -8.1 -8.0 -8.1 --- --- 21.7 ESE 0.36 24.3 -18.1 --- --- 728.6 0.018 0.000 10.3 5 1
02/16/06 7:41 a -8.1 -8.0 -8.1 --- --- 21.7 ESE 0.36 24.3 -18.1 --- --- 728.6 0.018 0.000 10.3 5 1
02/16/06 7:42 a -8.1 -8.0 -8.1 --- --- 20.9 SE 0.35 24.3 -17.9 --- --- 728.6 0.018 0.000 10.3 4 1
02/16/06 7:43 a -8.1 -8.0 -8.1 --- --- 23.5 SE 0.39 27.0 -18.4 --- --- 728.5 0.018 0.000 10.3 4 1
02/16/06 7:44 a -8.2 -8.1 -8.2 --- --- 22.6 ESE 0.38 24.3 -18.4 --- --- 728.5 0.018 0.000 10.3 4 1
02/16/06 7:45 a -8.2 -8.1 -8.2 --- --- 22.6 SE 0.38 27.0 -18.4 --- --- 728.6 0.018 0.000 10.3 4 1
02/16/06 7:46 a -8.2 -8.2 -8.2 --- --- 20.9 SE 0.35 23.5 -18.2 --- --- 728.6 0.018 0.000 10.3 4 1
02/16/06 7:47 a -8.2 -8.2 -8.3 --- --- 21.7 SE 0.36 24.3 -18.3 --- --- 728.6 0.018 0.000 10.3 4 1
02/16/06 7:48 a -8.2 -8.1 -8.2 --- --- 20.9 SE 0.35 23.5 -18.1 --- --- 728.6 0.018 0.000 10.3 4 1
02/16/06 7:49 a -8.1 -8.0 -8.1 --- --- 22.6 SE 0.38 25.2 -18.3 --- --- 728.5 0.018 0.000 10.3 4 1
02/16/06 7:50 a -8.1 -8.0 -8.2 --- --- 22.6 SE 0.38 25.2 -18.3 --- --- 728.6 0.018 0.000 10.3 4 1
02/16/06 7:51 a -8.1 -8.0 -8.2 --- --- 22.6 SE 0.38 24.3 -18.3 --- --- 728.5 0.018 0.000 10.3 5 1
02/16/06 7:52 a -8.1 -8.0 -8.1 --- --- 20.9 SE 0.35 26.1 -17.9 --- --- 728.5 0.018 0.000 10.3 4 1
02/16/06 7:53 a -8.1 -8.1 -8.2 --- --- 22.6 SE 0.38 25.2 -18.3 --- --- 728.5 0.018 0.000 10.3 4 1
02/16/06 7:54 a -8.3 -8.2 -8.3 --- --- 20.9 SE 0.35 23.5 -18.2 --- --- 728.6 0.018 0.000 10.3 5 1
02/16/06 7:55 a -8.3 -8.3 -8.4 --- --- 21.7 SE 0.36 22.6 -18.5 --- --- 728.5 0.019 0.000 10.3 4 1
02/16/06 7:56 a -8.4 -8.4 -8.4 --- --- 23.5 SE 0.39 25.2 -18.9 --- --- 728.6 0.019 0.000 10.3 4 1
02/16/06 7:57 a -8.3 -8.3 -8.4 --- --- 23.5 SE 0.39 25.2 -18.8 --- --- 728.6 0.019 0.000 10.3 4 1
02/16/06 7:58 a -8.4 -8.3 -8.4 --- --- 22.6 SE 0.38 25.2 -18.7 --- --- 728.5 0.019 0.000 10.3 5 1
02/16/06 7:59 a -8.4 -8.4 -8.6 --- --- 22.6 SE 0.38 26.1 -18.8 --- --- 728.7 0.019 0.000 10.3 4 1
02/16/06 8:00 a -8.5 -8.5 -8.6 --- --- 23.5 SE 0.39 26.1 -19.1 --- --- 728.6 0.019 0.000 10.3 5 1
02/16/06 8:01 a -8.5 -8.4 -8.5 --- --- 22.6 SE 0.38 26.1 -18.9 --- --- 728.7 0.019 0.000 10.3 4 1
02/16/06 8:02 a -8.4 -8.4 -8.4 --- --- 22.6 SE 0.38 25.2 -18.7 --- --- 728.6 0.019 0.000 10.3 4 1
02/16/06 8:03 a -8.4 -8.4 -8.4 --- --- 22.6 SE 0.38 25.2 -18.8 --- --- 728.6 0.019 0.000 10.3 4 1
02/16/06 8:04 a -8.5 -8.4 -8.5 --- --- 23.5 SE 0.39 27.8 -19.1 --- --- 728.5 0.019 0.000 10.2 5 1
02/16/06 8:05 a -8.5 -8.5 -8.5 --- --- 24.3 ESE 0.41 27.8 -19.2 --- --- 728.5 0.019 0.000 10.2 4 1
02/16/06 8:06 a -8.5 -8.5 -8.6 --- --- 24.3 ESE 0.41 28.7 -19.2 --- --- 728.7 0.019 0.000 10.2 4 1
02/16/06 8:07 a -8.6 -8.5 -8.7 --- --- 20.9 ESE 0.35 22.6 -18.6 --- --- 728.7 0.019 0.000 10.2 5 1
02/16/06 8:08 a -8.7 -8.7 -8.8 --- --- 21.7 ESE 0.36 23.5 -19.0 --- --- 728.7 0.019 0.000 10.1 4 1
02/16/06 8:09 a -8.9 -8.8 -9.1 --- --- 20.9 ESE 0.35 22.6 -19.1 --- --- 728.7 0.019 0.000 10.1 4 1
02/16/06 8:10 a -9.2 -9.1 -9.3 --- --- 20.9 ESE 0.35 22.6 -19.5 --- --- 728.7 0.019 0.000 10.1 5 1
02/16/06 8:11 a -9.3 -9.3 -9.4 --- --- 20.9 ESE 0.35 24.3 -19.7 --- --- 728.7 0.019 0.000 10.0 4 1
02/16/06 8:12 a -9.3 -9.2 -9.3 --- --- 20.9 ESE 0.35 25.2 -19.6 --- --- 728.7 0.019 0.000 10.0 5 1
02/16/06 8:13 a -9.2 -9.1 -9.3 --- --- 22.6 ESE 0.38 26.1 -19.8 --- --- 728.6 0.019 0.000 10.0 4 1
02/16/06 8:14 a -9.1 -9.0 -9.1 --- --- 20.9 ESE 0.35 23.5 -19.3 --- --- 728.8 0.019 0.000 9.9 4 1
02/16/06 8:15 a -9.0 -8.9 -9.2 --- --- 20.9 ESE 0.35 23.5 -19.2 --- --- 728.7 0.019 0.000 9.9 4 1
02/16/06 8:16 a -9.2 -9.2 -9.3 --- --- 22.6 ESE 0.38 24.3 -19.8 --- --- 728.7 0.019 0.000 9.9 4 1
02/16/06 8:17 a -9.2 -9.2 -9.2 --- --- 21.7 ESE 0.36 25.2 -19.6 --- --- 728.7 0.019 0.000 9.9 5 1
02/16/06 8:18 a -9.2 -9.2 -9.3 --- --- 21.7 ESE 0.36 23.5 -19.7 --- --- 728.7 0.019 0.000 9.8 4 1
02/16/06 8:19 a -9.3 -9.3 -9.3 --- --- 24.3 ESE 0.41 27.8 -20.2 --- --- 728.6 0.019 0.000 9.8 4 1
02/16/06 8:20 a -9.3 -9.2 -9.4 --- --- 21.7 SE 0.36 25.2 -19.7 --- --- 728.7 0.019 0.000 9.8 4 1
02/16/06 8:21 a -9.2 -9.2 -9.3 --- --- 24.3 ESE 0.41 27.8 -20.2 --- --- 728.6 0.019 0.000 9.8 4 1
02/16/06 8:22 a -9.2 -9.2 -9.2 --- --- 22.6 ESE 0.38 27.0 -19.8 --- --- 728.6 0.019 0.000 9.7 4 1
02/16/06 8:23 a -9.2 -9.2 -9.2 --- --- 24.3 ESE 0.41 27.8 -20.1 --- --- 728.6 0.019 0.000 9.7 4 1
02/16/06 8:24 a -9.2 -9.2 -9.3 --- --- 21.7 ESE 0.36 23.5 -19.7 --- --- 728.5 0.019 0.000 9.7 4 1
02/16/06 8:25 a -9.3 -9.3 -9.4 --- --- 22.6 ESE 0.38 27.0 -20.0 --- --- 728.5 0.019 0.000 9.7 4 1
02/16/06 8:26 a -9.4 -9.4 -9.4 --- --- 23.5 ESE 0.39 26.1 -20.2 --- --- 728.6 0.019 0.000 9.7 4 1
02/16/06 8:27 a -9.4 -9.4 -9.5 --- --- 25.2 ESE 0.42 28.7 -20.6 --- --- 728.5 0.019 0.000 9.7 4 1
02/16/06 8:28 a -9.4 -9.4 -9.4 --- --- 27.0 SE 0.45 31.3 -20.8 --- --- 728.4 0.019 0.000 9.6 4 1
02/16/06 8:29 a -9.3 -9.3 -9.4 --- --- 22.6 SE 0.38 26.1 -20.0 --- --- 728.5 0.019 0.000 9.6 4 1
02/16/06 8:30 a -9.3 -9.3 -9.4 --- --- 25.2 SE 0.42 29.6 -20.4 --- --- 728.4 0.019 0.000 9.6 4 1
02/16/06 8:31 a -9.3 -9.3 -9.3 --- --- 26.1 SE 0.43 30.4 -20.6 --- --- 728.4 0.019 0.000 9.6 4 1
02/16/06 8:32 a -9.3 -9.3 -9.3 --- --- 27.8 SE 0.46 32.2 -20.9 --- --- 728.4 0.019 0.000 9.6 4 1
02/16/06 8:33 a -9.3 -9.3 -9.3 --- --- 28.7 SE 0.48 32.2 -21.1 --- --- 728.4 0.019 0.000 9.6 4 1
02/16/06 8:34 a -9.3 -9.3 -9.4 --- --- 26.1 ESE 0.43 27.8 -20.6 --- --- 728.4 0.019 0.000 9.6 4 1
02/16/06 8:35 a -9.4 -9.4 -9.5 --- --- 29.6 SE 0.49 32.2 -21.3 --- --- 728.3 0.019 0.000 9.6 4 1
02/16/06 8:36 a -9.5 -9.4 -9.5 --- --- 27.8 SE 0.46 35.7 -21.2 --- --- 728.4 0.019 0.000 9.5 4 1
02/16/06 8:37 a -9.4 -9.4 -9.5 --- --- 25.2 ESE 0.42 27.8 -20.6 --- --- 728.5 0.019 0.000 9.5 4 1
02/16/06 8:38 a -9.6 -9.5 -9.7 --- --- 23.5 ESE 0.39 26.1 -20.6 --- --- 728.4 0.019 0.000 9.5 4 1
02/16/06 8:39 a -9.7 -9.7 -9.8 --- --- 25.2 ESE 0.42 27.0 -21.0 --- --- 728.4 0.019 0.000 9.5 4 1
02/16/06 8:40 a -9.8 -9.8 -9.9 --- --- 25.2 ESE 0.42 27.8 -21.2 --- --- 728.3 0.020 0.000 9.4 4 1
02/16/06 8:41 a -10.0 -9.9 -10.0 --- --- 26.1 ESE 0.43 30.4 -21.6 --- --- 728.3 0.020 0.000 9.5 5 1
02/16/06 8:42 a -10.1 -10.1 -10.1 --- --- 25.2 ESE 0.42 30.4 -21.4 --- --- 728.4 0.020 0.000 9.5 4 1
02/16/06 8:43 a -10.1 -10.1 -10.1 --- --- 27.0 SE 0.45 30.4 -21.8 --- --- 728.3 0.020 0.000 9.5 4 1
02/16/06 8:44 a -10.1 -10.1 -10.2 --- --- 23.5 ESE 0.39 27.0 -21.2 --- --- 728.4 0.020 0.000 9.5 4 1
02/16/06 8:45 a -10.2 -10.2 -10.3 --- --- 25.2 SE 0.42 31.3 -21.7 --- --- 728.3 0.020 0.000 9.6 4 1
02/16/06 8:46 a -10.3 -10.2 -10.4 --- --- 27.0 SE 0.45 30.4 -22.1 --- --- 728.3 0.020 0.000 9.6 4 1
02/16/06 8:47 a -10.1 -10.0 -10.1 --- --- 29.6 SE 0.49 33.0 -22.2 --- --- 728.3 0.020 0.000 9.6 5 1
02/16/06 8:48 a -9.9 -9.9 -9.9 --- --- 28.7 SE 0.48 32.2 -21.9 --- --- 728.3 0.020 0.000 9.6 4 1
02/16/06 8:49 a -9.8 -9.8 -9.8 --- --- 27.0 ESE 0.45 29.6 -21.4 --- --- 728.2 0.020 0.000 9.6 4 1
02/16/06 8:50 a -9.9 -9.8 -9.9 --- --- 28.7 SE 0.48 34.8 -21.8 --- --- 728.2 0.020 0.000 9.6 5 1
02/16/06 8:51 a -10.0 -10.0 -10.0 --- --- 30.4 SE 0.51 33.9 -22.2 --- --- 728.3 0.020 0.000 9.6 5 1
02/16/06 8:52 a -9.9 -9.9 -9.9 --- --- 25.2 ESE 0.42 29.6 -21.2 --- --- 728.4 0.020 0.000 9.6 5 1
02/16/06 8:53 a -9.8 -9.8 -9.8 --- --- 26.1 ESE 0.43 29.6 -21.3 --- --- 728.3 0.020 0.000 9.6 5 1
02/16/06 8:54 a -9.8 -9.8 -9.9 --- --- 25.2 ESE 0.42 28.7 -21.2 --- --- 728.4 0.020 0.000 9.6 5 1
02/16/06 8:55 a -9.9 -9.9 -10.0 --- --- 30.4 ESE 0.51 35.7 -22.2 --- --- 728.3 0.020 0.000 9.6 4 1
02/16/06 8:56 a -10.1 -10.0 -10.1 --- --- 27.0 SE 0.45 33.0 -21.8 --- --- 728.4 0.020 0.000 9.6 4 1
02/16/06 8:57 a -10.0 -10.0 -10.0 --- --- 26.1 ESE 0.43 28.7 -21.6 --- --- 728.3 0.020 0.000 9.7 5 1
02/16/06 8:58 a -9.9 -9.9 -10.0 --- --- 27.8 SE 0.46 32.2 -21.7 --- --- 728.4 0.020 0.000 9.7 5 1
02/16/06 8:59 a -9.8 -9.8 -9.8 --- --- 21.7 SE 0.36 25.2 -20.5 --- --- 728.6 0.020 0.000 9.7 5 1
02/16/06 9:00 a -9.8 -9.8 -9.8 --- --- 22.6 SE 0.38 26.1 -20.6 --- --- 728.5 0.020 0.000 9.7 4 1
02/16/06 9:01 a -9.8 -9.8 -9.8 --- --- 20.9 SE 0.35 26.1 -20.3 --- --- 728.5 0.020 0.000 9.7 5 1
02/16/06 9:02 a -10.0 -9.9 -10.1 --- --- 26.1 SE 0.43 29.6 -21.6 --- --- 728.4 0.020 0.000 9.7 5 1
02/16/06 9:03 a -10.1 -10.1 -10.1 --- --- 22.6 SE 0.38 26.1 -20.9 --- --- 728.4 0.020 0.000 9.8 5 1
02/16/06 9:04 a -10.1 -10.1 -10.1 --- --- 25.2 SE 0.42 29.6 -21.5 --- --- 728.5 0.020 0.000 9.8 4 1
02/16/06 9:05 a -10.1 -10.1 -10.1 --- --- 23.5 SE 0.39 28.7 -21.1 --- --- 728.4 0.020 0.000 9.8 5 1
02/16/06 9:06 a -10.0 -10.0 -10.0 --- --- 25.2 SE 0.42 27.8 -21.4 --- --- 728.4 0.020 0.000 9.8 5 1
02/16/06 9:07 a -10.1 -10.1 -10.1 --- --- 27.8 SSE 0.46 31.3 -22.0 --- --- 728.5 0.020 0.000 9.8 5 1
02/16/06 9:08 a -10.1 -10.1 -10.2 --- --- 24.3 SSE 0.41 29.6 -21.3 --- --- 728.5 0.020 0.000 9.8 4 1
02/16/06 9:09 a -10.2 -10.2 -10.2 --- --- 26.1 SSE 0.43 29.6 -21.8 --- --- 728.4 0.020 0.000 9.8 5 1
02/16/06 9:10 a -10.2 -10.2 -10.2 --- --- 27.0 SE 0.45 31.3 -22.0 --- --- 728.4 0.020 0.000 9.8 5 1
02/16/06 9:11 a -10.2 -10.2 -10.3 --- --- 27.0 SSE 0.45 33.0 -22.0 --- --- 728.4 0.020 0.000 9.8 5 1
02/16/06 9:12 a -10.3 -10.3 -10.4 --- --- 25.2 SSE 0.42 30.4 -21.8 --- --- 728.4 0.020 0.000 9.8 5 1
02/16/06 9:13 a -10.4 -10.3 -10.4 --- --- 26.1 SE 0.43 29.6 -22.1 --- --- 728.3 0.020 0.000 9.8 5 1
02/16/06 9:14 a -10.3 -10.3 -10.3 --- --- 30.4 SE 0.51 42.6 -22.7 --- --- 728.3 0.020 0.000 9.8 5 1
02/16/06 9:15 a -10.4 -10.3 -10.4 --- --- 28.7 SSE 0.48 35.7 -22.5 --- --- 728.4 0.020 0.000 9.8 5 1
02/16/06 9:16 a -10.4 -10.3 -10.4 --- --- 26.1 SSE 0.43 33.0 -22.1 --- --- 728.4 0.020 0.000 9.8 5 1
02/16/06 9:17 a -10.4 -10.4 -10.4 --- --- 27.8 SSE 0.46 30.4 -22.3 --- --- 728.4 0.020 0.000 9.8 4 1
02/16/06 9:18 a -10.4 -10.4 -10.4 --- --- 25.2 SSE 0.42 28.7 -21.9 --- --- 728.4 0.020 0.000 9.8 4 1
02/16/06 9:19 a -10.4 -10.4 -10.4 --- --- 25.2 SSE 0.42 29.6 -21.9 --- --- 728.4 0.020 0.000 9.8 5 1
02/16/06 9:20 a -10.5 -10.4 -10.5 --- --- 23.5 SSE 0.39 27.8 -21.7 --- --- 728.5 0.020 0.000 9.8 5 1
02/16/06 9:21 a -10.6 -10.5 -10.6 --- --- 24.3 SSE 0.41 28.7 -21.9 --- --- 728.5 0.020 0.000 9.8 4 1
02/16/06 9:22 a -10.5 -10.5 -10.5 --- --- 24.3 SE 0.41 26.1 -21.9 --- --- 728.5 0.020 0.000 9.8 5 1
02/16/06 9:23 a -10.6 -10.5 -10.6 --- --- 21.7 SE 0.36 27.0 -21.4 --- --- 728.6 0.020 0.000 9.8 4 1
02/16/06 9:24 a -10.6 -10.6 -10.6 --- --- 20.0 SE 0.33 23.5 -21.2 --- --- 728.6 0.020 0.000 9.8 4 1
02/16/06 9:25 a -10.7 -10.6 -10.8 --- --- 20.9 SE 0.35 23.5 -21.4 --- --- 728.5 0.020 0.000 9.8 4 1
02/16/06 9:26 a -10.8 -10.8 -11.0 --- --- 23.5 SE 0.39 28.7 -22.2 --- --- 728.4 0.020 0.000 9.8 5 1
02/16/06 9:27 a -11.0 -11.0 -11.0 --- --- 23.5 SE 0.39 27.8 -22.4 --- --- 728.4 0.020 0.000 9.8 5 1
02/16/06 9:28 a -11.0 -11.0 -11.1 --- --- 26.1 SE 0.43 31.3 -22.9 --- --- 728.3 0.020 0.000 9.8 5 1
02/16/06 9:29 a -11.1 -11.1 -11.1 --- --- 22.6 SE 0.38 24.3 -22.4 --- --- 728.4 0.020 0.000 9.8 5 1
02/16/06 9:30 a -11.2 -11.1 -11.2 --- --- 21.7 SE 0.36 27.0 -22.3 --- --- 728.5 0.020 0.000 9.8 4 1
02/16/06 9:31 a -11.2 -11.1 -11.2 --- --- 21.7 SE 0.36 24.3 -22.3 --- --- 728.4 0.020 0.000 9.8 4 1
02/16/06 9:32 a -11.2 -11.2 -11.2 --- --- 21.7 SE 0.36 25.2 -22.3 --- --- 728.4 0.020 0.000 9.8 5 1
02/16/06 9:33 a -11.2 -11.2 -11.3 --- --- 24.3 SE 0.41 28.7 -22.9 --- --- 728.5 0.021 0.000 9.8 5 1
02/16/06 9:34 a -11.4 -11.3 -11.4 --- --- 22.6 SE 0.38 26.1 -22.7 --- --- 728.5 0.021 0.000 9.8 5 1
02/16/06 9:35 a -11.4 -11.4 -11.4 --- --- 22.6 SE 0.38 26.1 -22.8 --- --- 728.4 0.021 0.000 9.8 5 1
02/16/06 9:36 a -11.5 -11.4 -11.6 --- --- 23.5 SE 0.39 26.1 -23.1 --- --- 728.3 0.021 0.000 9.8 4 1
02/16/06 9:37 a -11.6 -11.6 -11.6 --- --- 23.5 SE 0.39 26.1 -23.2 --- --- 728.5 0.021 0.000 9.8 5 1
02/16/06 9:38 a -11.6 -11.5 -11.6 --- --- 23.5 ESE 0.39 27.0 -23.2 --- --- 728.4 0.021 0.000 9.8 4 1
02/16/06 9:39 a -11.6 -11.5 -11.6 --- --- 23.5 ESE 0.39 27.8 -23.2 --- --- 728.4 0.021 0.000 9.8 5 1
02/16/06 9:40 a -11.6 -11.6 -11.6 --- --- 20.0 SE 0.33 21.7 -22.4 --- --- 728.6 0.021 0.000 9.8 5 1
02/16/06 9:41 a -11.6 -11.6 -11.6 --- --- 27.0 ESE 0.45 31.3 -23.9 --- --- 728.3 0.021 0.000 9.8 5 1
02/16/06 9:42 a -11.6 -11.6 -11.6 --- --- 22.6 SE 0.38 27.8 -23.1 --- --- 728.4 0.021 0.000 9.8 4 1
02/16/06 9:43 a -11.6 -11.6 -11.6 --- --- 23.5 SE 0.39 26.1 -23.2 --- --- 728.4 0.021 0.000 9.8 4 1
02/16/06 9:44 a -11.6 -11.6 -11.6 --- --- 23.5 SE 0.39 28.7 -23.2 --- --- 728.4 0.021 0.000 9.8 5 1
02/16/06 9:45 a -11.6 -11.6 -11.7 --- --- 23.5 SE 0.39 28.7 -23.2 --- --- 728.4 0.021 0.000 9.8 5 1
02/16/06 9:46 a -11.7 -11.7 -11.7 --- --- 27.0 SE 0.45 34.8 -23.9 --- --- 728.3 0.021 0.000 9.8 4 1
02/16/06 9:47 a -11.6 -11.6 -11.7 --- --- 26.1 SE 0.43 33.9 -23.7 --- --- 728.2 0.021 0.000 9.8 5 1
02/16/06 9:48 a -11.7 -11.6 -11.7 --- --- 28.7 SSE 0.48 36.5 -24.2 --- --- 728.3 0.021 0.000 9.8 4 1
02/16/06 9:49 a -11.6 -11.6 -11.7 --- --- 32.2 SSE 0.54 39.1 -24.7 --- --- 728.3 0.021 0.000 9.8 5 1
02/16/06 9:50 a -11.4 -11.4 -11.6 --- --- 21.7 SSE 0.36 39.1 -22.7 --- --- 728.4 0.021 0.000 9.8 5 1
02/16/06 9:51 a -11.4 -11.4 -11.4 --- --- 27.8 SE 0.46 33.9 -23.7 --- --- 728.4 0.021 0.000 9.8 4 1
02/16/06 9:52 a -11.4 -11.4 -11.4 --- --- 33.0 SSE 0.55 36.5 -24.6 --- --- 728.3 0.021 0.000 9.8 4 1
02/16/06 9:53 a -11.4 -11.4 -11.4 --- --- 32.2 SSE 0.54 37.4 -24.4 --- --- 728.3 0.021 0.000 9.9 5 1
02/16/06 9:54 a -11.4 -11.3 -11.4 --- --- 30.4 SSE 0.51 33.9 -24.2 --- --- 728.3 0.021 0.000 9.9 4 1
02/16/06 9:55 a -11.3 -11.2 -11.3 --- --- 29.6 SSE 0.49 35.7 -23.9 --- --- 728.3 0.021 0.000 9.9 4 1
02/16/06 9:56 a -11.3 -11.2 -11.4 --- --- 33.9 S 0.57 37.4 -24.5 --- --- 728.2 0.021 0.000 9.9 4 1
02/16/06 9:57 a -11.6 -11.6 -11.6 --- --- 29.6 SSE 0.49 36.5 -24.2 --- --- 728.2 0.021 0.000 9.8 4 1
02/16/06 9:58 a -11.7 -11.7 -11.7 --- --- 29.6 SSE 0.49 36.5 -24.4 --- --- 728.3 0.021 0.000 9.8 5 1
02/16/06 9:59 a -11.7 -11.7 -11.7 --- --- 32.2 SSE 0.54 36.5 -24.9 --- --- 728.2 0.021 0.000 9.8 4 1
02/16/06 10:00 a -11.7 -11.6 -11.7 --- --- 26.1 SSE 0.43 29.6 -23.8 --- --- 728.4 0.021 0.000 9.8 4 1
02/16/06 10:01 a -11.4 -11.4 -11.4 --- --- 27.8 SSE 0.46 33.9 -23.8 --- --- 728.4 0.021 0.000 9.8 4 1
02/16/06 10:02 a -11.4 -11.4 -11.4 --- --- 26.1 SE 0.43 30.4 -23.4 --- --- 728.3 0.021 0.000 9.8 4 1
02/16/06 10:03 a -11.4 -11.3 -11.4 --- --- 29.6 SSE 0.49 35.7 -24.0 --- --- 728.2 0.021 0.000 9.8 4 1
02/16/06 10:04 a -11.4 -11.4 -11.4 --- --- 30.4 SSE 0.51 40.0 -24.2 --- --- 728.3 0.021 0.000 9.8 4 1
02/16/06 10:05 a -11.4 -11.4 -11.4 --- --- 27.8 SSE 0.46 31.3 -23.7 --- --- 728.4 0.021 0.000 9.8 5 1
02/16/06 10:06 a -11.5 -11.4 -11.6 --- --- 27.0 SSE 0.45 30.4 -23.7 --- --- 728.3 0.021 0.000 9.8 4 1
02/16/06 10:07 a -11.6 -11.6 -11.6 --- --- 25.2 SE 0.42 27.8 -23.5 --- --- 728.3 0.021 0.000 9.8 4 1
02/16/06 10:08 a -11.6 -11.6 -11.7 --- --- 26.1 SE 0.43 29.6 -23.7 --- --- 728.3 0.021 0.000 9.9 4 1
02/16/06 10:09 a -11.7 -11.7 -11.8 --- --- 31.3 SSE 0.52 33.9 -24.7 --- --- 728.2 0.021 0.000 9.8 5 1
02/16/06 10:10 a -11.9 -11.8 -11.9 --- --- 27.0 SE 0.45 32.2 -24.3 --- --- 728.3 0.021 0.000 9.9 4 1
02/16/06 10:11 a -12.0 -12.0 -12.1 --- --- 26.1 ESE 0.43 29.6 -24.2 --- --- 728.3 0.021 0.000 9.8 4 1
02/16/06 10:12 a -12.1 -12.1 -12.2 --- --- 27.8 SE 0.46 30.4 -24.7 --- --- 728.3 0.021 0.000 9.8 4 1
02/16/06 10:13 a -12.1 -12.1 -12.2 --- --- 26.1 SE 0.43 32.2 -24.4 --- --- 728.3 0.021 0.000 9.9 5 1
02/16/06 10:14 a -12.1 -12.1 -12.1 --- --- 25.2 SE 0.42 29.6 -24.2 --- --- 728.4 0.021 0.000 9.9 4 1
02/16/06 10:15 a -12.1 -12.0 -12.1 --- --- 27.0 SE 0.45 28.7 -24.5 --- --- 728.4 0.021 0.000 9.9 4 1
02/16/06 10:16 a -12.0 -12.0 -12.0 --- --- 28.7 SE 0.48 30.4 -24.7 --- --- 728.4 0.021 0.000 9.9 4 1
02/16/06 10:17 a -12.0 -11.9 -12.0 --- --- 26.1 SE 0.43 30.4 -24.2 --- --- 728.4 0.021 0.000 9.9 4 1
02/16/06 10:18 a -12.0 -11.9 -12.0 --- --- 31.3 SE 0.52 34.8 -25.1 --- --- 728.3 0.021 0.000 9.9 5 1
02/16/06 10:19 a -12.0 -12.0 -12.0 --- --- 28.7 SE 0.48 32.2 -24.7 --- --- 728.4 0.021 0.000 9.9 4 1
02/16/06 10:20 a -12.1 -12.0 -12.1 --- --- 27.0 SE 0.45 31.3 -24.5 --- --- 728.5 0.021 0.000 9.9 4 1
02/16/06 10:21 a -12.0 -11.9 -12.1 --- --- 27.0 SE 0.45 30.4 -24.4 --- --- 728.4 0.021 0.000 9.9 4 1
02/16/06 10:22 a -11.9 -11.9 -12.0 --- --- 27.8 SE 0.46 32.2 -24.5 --- --- 728.3 0.021 0.000 9.9 4 1
02/16/06 10:23 a -12.1 -12.0 -12.1 --- --- 31.3 SE 0.52 33.9 -25.2 --- --- 728.4 0.021 0.000 9.9 4 1
02/16/06 10:24 a -12.1 -12.1 -12.1 --- --- 26.1 SE 0.43 29.6 -24.3 --- --- 728.4 0.021 0.000 9.9 4 1
02/16/06 10:25 a -12.1 -12.1 -12.1 --- --- 28.7 SE 0.48 31.3 -24.8 --- --- 728.4 0.021 0.000 9.9 4 1
02/16/06 10:26 a -12.1 -12.1 -12.2 --- --- 31.3 SE 0.52 35.7 -25.3 --- --- 728.4 0.021 0.000 9.9 4 1
02/16/06 10:27 a -12.2 -12.1 -12.4 --- --- 26.1 ESE 0.43 34.8 -24.4 --- --- 728.5 0.021 0.000 9.9 4 1
02/16/06 10:28 a -12.5 -12.4 -12.6 --- --- 27.8 ESE 0.46 33.0 -25.2 --- --- 728.4 0.021 0.000 9.9 4 1
02/16/06 10:29 a -12.6 -12.6 -12.6 --- --- 24.3 ESE 0.41 27.8 -24.7 --- --- 728.6 0.021 0.000 9.9 4 1
02/16/06 10:30 a -12.7 -12.7 -12.7 --- --- 25.2 ESE 0.42 34.8 -25.0 --- --- 728.4 0.022 0.000 9.9 4 1
02/16/06 10:31 a -12.7 -12.6 -12.7 --- --- 29.6 ESE 0.49 37.4 -25.8 --- --- 728.4 0.022 0.000 9.9 4 1
02/16/06 10:32 a -12.8 -12.7 -12.9 --- --- 22.6 ESE 0.38 25.2 -24.6 --- --- 728.5 0.022 0.000 9.9 4 1
02/16/06 10:33 a -13.1 -12.9 -13.3 --- --- 25.2 ESE 0.42 29.6 -25.5 --- --- 728.4 0.022 0.000 9.9 4 1
02/16/06 10:34 a -13.4 -13.3 -13.6 --- --- 27.0 ESE 0.45 29.6 -26.4 --- --- 728.4 0.022 0.000 9.9 4 1
02/16/06 10:35 a -13.7 -13.6 -13.8 --- --- 27.0 ESE 0.45 28.7 -26.7 --- --- 728.5 0.022 0.000 9.9 4 1
02/16/06 10:36 a -13.8 -13.8 -13.8 --- --- 24.3 ESE 0.41 26.1 -26.4 --- --- 728.4 0.022 0.000 9.9 4 1
02/16/06 10:37 a -13.9 -13.8 -13.9 --- --- 24.3 ESE 0.41 27.8 -26.4 --- --- 728.4 0.022 0.000 9.9 4 1
02/16/06 10:38 a -13.9 -13.9 -13.9 --- --- 25.2 ESE 0.42 27.8 -26.7 --- --- 728.5 0.022 0.000 9.9 4 1
02/16/06 10:39 a -13.9 -13.9 -14.0 --- --- 24.3 SE 0.41 27.0 -26.6 --- --- 728.5 0.022 0.000 9.9 4 1
02/16/06 10:40 a -14.0 -14.0 -14.1 --- --- 29.6 ESE 0.49 34.8 -27.6 --- --- 728.3 0.022 0.000 9.9 4 1
02/16/06 10:41 a -13.8 -13.5 -14.0 --- --- 28.7 ESE 0.48 33.9 -27.2 --- --- 728.3 0.022 0.000 9.9 4 1
02/16/06 10:42 a -13.4 -13.3 -13.5 --- --- 31.3 SE 0.52 35.7 -27.1 --- --- 728.3 0.022 0.000 9.9 4 1
02/16/06 10:43 a -13.2 -12.9 -13.3 --- --- 32.2 SE 0.54 43.5 -26.9 --- --- 728.3 0.022 0.000 9.9 4 1
02/16/06 10:44 a -12.9 -12.8 -12.9 --- --- 32.2 SE 0.54 36.5 -26.5 --- --- 728.2 0.022 0.000 9.9 4 1
02/16/06 10:45 a -12.8 -12.8 -12.9 --- --- 33.9 SE 0.57 37.4 -26.7 --- --- 728.2 0.022 0.000 9.9 4 1
02/16/06 10:46 a -12.9 -12.9 -12.9 --- --- 33.0 SE 0.55 35.7 -26.7 --- --- 728.3 0.022 0.000 9.8 4 1
02/16/06 10:47 a -12.9 -12.9 -12.9 --- --- 32.2 SE 0.54 35.7 -26.5 --- --- 728.3 0.022 0.000 9.8 4 1
02/16/06 10:48 a -12.8 -12.8 -12.9 --- --- 27.0 SE 0.45 33.0 -25.6 --- --- 728.4 0.022 0.000 9.8 4 1
02/16/06 10:49 a -12.8 -12.7 -12.8 --- --- 30.4 SE 0.51 34.8 -26.1 --- --- 728.3 0.022 0.000 9.8 4 1
02/16/06 10:50 a -12.8 -12.8 -12.8 --- --- 28.7 SE 0.48 33.9 -25.8 --- --- 728.3 0.022 0.000 9.8 4 1
02/16/06 10:51 a -12.8 -12.8 -12.8 --- --- 30.4 SE 0.51 33.9 -26.2 --- --- 728.3 0.022 0.000 9.8 4 1
02/16/06 10:52 a -12.9 -12.8 -12.9 --- --- 29.6 SE 0.49 33.9 -26.1 --- --- 728.4 0.022 0.000 9.8 4 1
02/16/06 10:53 a -12.9 -12.9 -12.9 --- --- 33.0 SE 0.55 36.5 -26.6 --- --- 728.3 0.022 0.000 9.8 4 1
02/16/06 10:54 a -12.8 -12.8 -12.9 --- --- 31.3 SE 0.52 33.0 -26.3 --- --- 728.3 0.022 0.000 9.8 4 1
02/16/06 10:55 a -12.8 -12.8 -12.9 --- --- 31.3 ESE 0.52 36.5 -26.3 --- --- 728.2 0.022 0.000 9.8 4 1
02/16/06 10:56 a -13.0 -12.9 -13.1 --- --- 30.4 ESE 0.51 33.9 -26.4 --- --- 728.2 0.022 0.000 9.8 4 1
02/16/06 10:57 a -13.1 -13.0 -13.1 --- --- 31.3 ESE 0.52 34.8 -26.6 --- --- 728.2 0.022 0.000 9.8 4 1
02/16/06 10:58 a -13.2 -13.1 -13.2 --- --- 30.4 ESE 0.51 36.5 -26.6 --- --- 728.4 0.022 0.000 9.9 4 1
02/16/06 10:59 a -13.3 -13.2 -13.4 --- --- 30.4 ESE 0.51 35.7 -26.8 --- --- 728.2 0.022 0.000 9.9 4 1
02/16/06 11:00 a -13.4 -13.4 -13.4 --- --- 29.6 ESE 0.49 32.2 -26.8 --- --- 728.2 0.022 0.000 9.9 4 1
02/16/06 11:01 a -13.4 -13.4 -13.5 --- --- 30.4 ESE 0.51 36.5 -27.0 --- --- 728.3 0.022 0.000 9.8 4 1
02/16/06 11:02 a -13.5 -13.4 -13.5 --- --- 28.7 ESE 0.48 32.2 -26.8 --- --- 728.2 0.022 0.000 9.8 4 1
02/16/06 11:03 a -13.5 -13.5 -13.5 --- --- 29.6 ESE 0.49 32.2 -26.9 --- --- 728.2 0.022 0.000 9.8 4 1
02/16/06 11:04 a -13.5 -13.4 -13.5 --- --- 28.7 ESE 0.48 32.2 -26.8 --- --- 728.3 0.022 0.000 9.8 4 1
02/16/06 11:05 a -13.3 -13.2 -13.4 --- --- 28.7 ESE 0.48 33.0 -26.6 --- --- 728.1 0.022 0.000 9.8 4 1
02/16/06 11:06 a -13.2 -13.2 -13.3 --- --- 29.6 SE 0.49 33.9 -26.6 --- --- 728.2 0.022 0.000 9.8 4 1
02/16/06 11:07 a -13.3 -13.3 -13.3 --- --- 28.7 SE 0.48 35.7 -26.4 --- --- 728.2 0.022 0.000 9.8 4 1
02/16/06 11:08 a -13.2 -13.2 -13.3 --- --- 31.3 ESE 0.52 32.2 -26.8 --- --- 728.2 0.022 0.000 9.8 4 1
02/16/06 11:09 a -13.2 -13.1 -13.2 --- --- 31.3 SE 0.52 33.9 -26.7 --- --- 728.2 0.022 0.000 9.8 4 1
02/16/06 11:10 a -13.1 -13.1 -13.1 --- --- 31.3 SSE 0.52 35.7 -26.7 --- --- 728.3 0.022 0.000 9.8 4 1
02/16/06 11:11 a -13.2 -13.1 -13.2 --- --- 25.2 SE 0.42 30.4 -25.7 --- --- 728.4 0.022 0.000 9.8 4 1
02/16/06 11:12 a -13.2 -13.2 -13.2 --- --- 26.1 SE 0.43 29.6 -25.8 --- --- 728.4 0.022 0.000 9.8 4 1
02/16/06 11:13 a -13.1 -12.6 -13.3 --- --- 29.6 SSE 0.49 37.4 -26.3 --- --- 728.5 0.022 0.000 9.8 4 1
02/16/06 11:14 a -12.6 -12.5 -12.6 --- --- 27.0 SE 0.45 33.0 -25.2 --- --- 728.3 0.021 0.000 9.8 4 1
02/16/06 11:15 a -12.6 -12.5 -12.8 --- --- 27.0 SE 0.45 30.4 -25.2 --- --- 728.3 0.021 0.000 9.8 4 1
02/16/06 11:16 a -12.9 -12.8 -13.0 --- --- 26.1 SE 0.43 27.8 -25.4 --- --- 728.3 0.022 0.000 9.8 4 1
02/16/06 11:17 a -13.1 -13.0 -13.2 --- --- 26.1 SE 0.43 29.6 -25.8 --- --- 728.3 0.022 0.000 9.8 4 1
02/16/06 11:18 a -13.2 -13.2 -13.2 --- --- 26.1 SE 0.43 28.7 -25.9 --- --- 728.3 0.022 0.000 9.8 4 1
02/16/06 11:19 a -13.1 -12.9 -13.2 --- --- 28.7 SE 0.48 35.7 -26.2 --- --- 728.1 0.022 0.000 9.8 4 1
02/16/06 11:20 a -12.9 -12.9 -13.0 --- --- 31.3 SE 0.52 34.8 -26.4 --- --- 728.2 0.022 0.000 9.8 4 1
02/16/06 11:21 a -13.1 -13.0 -13.2 --- --- 26.1 SE 0.43 28.7 -25.8 --- --- 728.2 0.022 0.000 9.8 4 1
02/16/06 11:22 a -13.2 -13.2 -13.2 --- --- 26.1 SE 0.43 28.7 -25.8 --- --- 728.2 0.022 0.000 9.8 4 1
02/16/06 11:23 a -13.3 -13.2 -13.3 --- --- 29.6 SE 0.49 32.2 -26.6 --- --- 728.2 0.022 0.000 9.8 4 1
02/16/06 11:24 a -13.3 -13.3 -13.4 --- --- 29.6 ESE 0.49 32.2 -26.7 --- --- 728.1 0.022 0.000 9.8 4 1
02/16/06 11:25 a -13.4 -13.4 -13.5 --- --- 29.6 SE 0.49 39.1 -26.8 --- --- 728.1 0.022 0.000 9.8 4 1
02/16/06 11:26 a -13.5 -13.5 -13.5 --- --- 27.8 ESE 0.46 37.4 -26.6 --- --- 728.2 0.022 0.000 9.8 4 1
02/16/06 11:27 a -13.5 -13.5 -13.6 --- --- 23.5 ESE 0.39 28.7 -25.8 --- --- 728.2 0.022 0.000 9.8 4 1
02/16/06 11:28 a -13.5 -13.4 -13.6 --- --- 27.0 ESE 0.45 33.0 -26.4 --- --- 728.4 0.022 0.000 9.8 4 1
02/16/06 11:29 a -13.7 -13.7 -13.7 --- --- 29.6 SE 0.49 37.4 -27.2 --- --- 728.2 0.022 0.000 9.8 4 1
02/16/06 11:30 a -13.4 -13.2 -13.5 --- --- 25.2 SE 0.42 30.4 -25.9 --- --- 728.4 0.022 0.000 9.8 4 1
02/16/06 11:31 a -13.1 -13.1 -13.2 --- --- 28.7 SE 0.48 33.9 -26.2 --- --- 728.2 0.022 0.000 9.8 4 1
02/16/06 11:32 a -13.0 -12.9 -13.1 --- --- 23.5 ESE 0.39 28.7 -25.1 --- --- 728.2 0.022 0.000 9.8 4 1
02/16/06 11:33 a -13.1 -12.9 -13.2 --- --- 28.7 ESE 0.48 32.2 -26.2 --- --- 728.0 0.022 0.000 9.8 4 1
02/16/06 11:34 a -13.3 -13.2 -13.3 --- --- 28.7 ESE 0.48 33.9 -26.4 --- --- 728.1 0.022 0.000 9.8 4 1
02/16/06 11:35 a -13.3 -13.3 -13.4 --- --- 29.6 ESE 0.49 33.0 -26.7 --- --- 728.2 0.022 0.000 9.8 4 1
02/16/06 11:36 a -13.4 -13.4 -13.4 --- --- 31.3 ESE 0.52 33.0 -27.1 --- --- 728.2 0.022 0.000 9.8 4 1
02/16/06 11:37 a -13.4 -13.4 -13.4 --- --- 29.6 ESE 0.49 33.0 -26.8 --- --- 728.1 0.022 0.000 9.8 4 1
02/16/06 11:38 a -13.4 -13.4 -13.4 --- --- 28.7 ESE 0.48 34.8 -26.7 --- --- 728.3 0.022 0.000 9.8 4 1
02/16/06 11:39 a -13.5 -13.4 -13.5 --- --- 26.1 ESE 0.43 28.7 -26.3 --- --- 728.3 0.022 0.000 9.8 4 1
02/16/06 11:40 a -13.6 -13.6 -13.7 --- --- 27.0 ESE 0.45 31.3 -26.6 --- --- 728.3 0.022 0.000 9.8 4 1
02/16/06 11:41 a -13.7 -13.7 -13.7 --- --- 27.0 ESE 0.45 29.6 -26.7 --- --- 728.4 0.022 0.000 9.8 4 1
02/16/06 11:42 a -13.8 -13.8 -13.9 --- --- 26.1 ESE 0.43 29.6 -26.7 --- --- 728.4 0.022 0.000 9.7 4 1
02/16/06 11:43 a -13.9 -13.9 -13.9 --- --- 27.8 ESE 0.46 29.6 -27.2 --- --- 728.3 0.022 0.000 9.7 4 1
02/16/06 11:44 a -13.9 -13.9 -13.9 --- --- 28.7 ESE 0.48 30.4 -27.4 --- --- 728.3 0.022 0.000 9.7 4 1
02/16/06 11:45 a -13.9 -13.9 -14.0 --- --- 25.2 ESE 0.42 27.8 -26.7 --- --- 728.3 0.022 0.000 9.7 4 1
02/16/06 11:46 a -14.0 -14.0 -14.0 --- --- 23.5 ESE 0.39 26.1 -26.4 --- --- 728.3 0.022 0.000 9.7 4 1
02/16/06 11:47 a -14.1 -14.0 -14.1 --- --- 23.5 ESE 0.39 27.0 -26.5 --- --- 728.3 0.022 0.000 9.7 4 1
02/16/06 11:48 a -14.1 -14.1 -14.1 --- --- 26.1 ESE 0.43 27.8 -27.1 --- --- 728.2 0.023 0.000 9.7 4 1
02/16/06 11:49 a -14.1 -14.1 -14.1 --- --- 27.8 ESE 0.46 29.6 -27.4 --- --- 728.2 0.023 0.000 9.7 4 1
02/16/06 11:50 a -14.2 -14.1 -14.2 --- --- 27.8 ESE 0.46 29.6 -27.5 --- --- 728.1 0.023 0.000 9.7 4 1
02/16/06 11:51 a -14.2 -14.2 -14.2 --- --- 27.0 ESE 0.45 32.2 -27.3 --- --- 728.0 0.023 0.000 9.7 4 1
02/16/06 11:52 a -14.2 -14.2 -14.2 --- --- 30.4 ESE 0.51 32.2 -28.0 --- --- 728.1 0.023 0.000 9.7 4 1
02/16/06 11:53 a -14.2 -14.1 -14.2 --- --- 31.3 ESE 0.52 33.9 -28.1 --- --- 728.0 0.023 0.000 9.7 4 1
02/16/06 11:54 a -14.1 -14.1 -14.2 --- --- 32.2 ESE 0.54 33.9 -28.2 --- --- 728.1 0.023 0.000 9.7 4 1
02/16/06 11:55 a -14.1 -14.1 -14.1 --- --- 28.7 ESE 0.48 40.0 -27.6 --- --- 728.0 0.023 0.000 9.6 4 1
02/16/06 11:56 a -14.0 -14.0 -14.1 --- --- 29.6 ESE 0.49 34.8 -27.6 --- --- 728.1 0.022 0.000 9.6 4 1
02/16/06 11:57 a -13.9 -13.9 -14.0 --- --- 27.8 ESE 0.46 29.6 -27.1 --- --- 728.3 0.022 0.000 9.6 4 1
02/16/06 11:58 a -13.9 -13.9 -14.0 --- --- 31.3 ESE 0.52 33.9 -27.8 --- --- 728.2 0.022 0.000 9.6 4 1
02/16/06 11:59 a -14.0 -14.0 -14.0 --- --- 27.8 SE 0.46 33.9 -27.3 --- --- 728.2 0.022 0.000 9.6 4 1
02/16/06 12:00 p -14.0 -14.0 -14.0 --- --- 31.3 SE 0.52 34.8 -27.9 --- --- 728.2 0.022 0.000 9.6 4 1
02/16/06 12:01 p -14.0 -14.0 -14.0 --- --- 29.6 ESE 0.49 33.9 -27.6 --- --- 728.1 0.022 0.000 9.6 4 1
02/16/06 12:02 p -14.0 -14.0 -14.0 --- --- 33.0 SE 0.55 37.4 -28.2 --- --- 728.0 0.022 0.000 9.7 4 1
02/16/06 12:03 p -14.0 -14.0 -14.0 --- --- 29.6 SE 0.49 34.8 -27.6 --- --- 728.0 0.022 0.000 9.7 4 1
02/16/06 12:04 p -13.9 -13.8 -13.9 --- --- 33.9 SE 0.57 37.4 -28.2 --- --- 728.0 0.022 0.000 9.7 4 1
02/16/06 12:05 p -13.8 -13.8 -13.8 --- --- 33.0 SE 0.55 35.7 -27.9 --- --- 727.9 0.022 0.000 9.6 4 1
02/16/06 12:06 p -13.9 -13.8 -13.9 --- --- 33.9 SE 0.57 37.4 -28.2 --- --- 727.8 0.022 0.000 9.6 4 1
02/16/06 12:07 p -13.9 -13.9 -13.9 --- --- 35.7 ESE 0.59 37.4 -28.4 --- --- 727.7 0.022 0.000 9.6 4 1
02/16/06 12:08 p -14.0 -14.0 -14.0 --- --- 37.4 ESE 0.62 41.7 -28.8 --- --- 727.9 0.022 0.000 9.6 4 1
02/16/06 12:09 p -13.9 -13.8 -14.0 --- --- 33.9 SE 0.57 36.5 -28.2 --- --- 728.0 0.022 0.000 9.6 4 1
02/16/06 12:10 p -13.9 -13.9 -13.9 --- --- 33.0 SE 0.55 36.5 -28.1 --- --- 728.1 0.022 0.000 9.6 4 1
02/16/06 12:11 p -13.9 -13.9 -13.9 --- --- 33.0 SE 0.55 40.0 -28.0 --- --- 727.9 0.022 0.000 9.6 4 1
02/16/06 12:12 p -13.9 -13.9 -13.9 --- --- 35.7 SE 0.59 39.1 -28.4 --- --- 728.0 0.022 0.000 9.6 4 1
02/16/06 12:13 p -13.9 -13.9 -13.9 --- --- 34.8 SE 0.58 38.3 -28.4 --- --- 727.9 0.022 0.000 9.6 4 1
02/16/06 12:14 p -13.9 -13.9 -13.9 --- --- 33.0 SE 0.55 36.5 -28.1 --- --- 728.0 0.022 0.000 9.6 4 1
02/16/06 12:15 p -13.9 -13.9 -13.9 --- --- 31.3 SE 0.52 33.9 -27.7 --- --- 728.1 0.022 0.000 9.6 4 1
02/16/06 12:16 p -13.9 -13.9 -13.9 --- --- 29.6 SE 0.49 33.0 -27.4 --- --- 728.1 0.022 0.000 9.6 4 1
02/16/06 12:17 p -13.9 -13.9 -13.9 --- --- 31.3 SE 0.52 35.7 -27.7 --- --- 728.1 0.022 0.000 9.6 4 1
02/16/06 12:18 p -13.9 -13.9 -13.9 --- --- 30.4 SE 0.51 33.0 -27.6 --- --- 728.2 0.022 0.000 9.6 4 1
02/16/06 12:19 p -13.9 -13.8 -13.9 --- --- 33.0 ESE 0.55 37.4 -28.0 --- --- 728.0 0.022 0.000 9.6 4 1
02/16/06 12:20 p -13.8 -13.8 -13.8 --- --- 32.2 SE 0.54 37.4 -27.8 --- --- 728.1 0.022 0.000 9.6 4 1
02/16/06 12:21 p -13.8 -13.8 -13.8 --- --- 32.2 SE 0.54 36.5 -27.8 --- --- 728.1 0.022 0.000 9.6 4 1
02/16/06 12:22 p -13.8 -13.8 -13.8 --- --- 31.3 SE 0.52 33.9 -27.6 --- --- 728.0 0.022 0.000 9.6 4 1
02/16/06 12:23 p -13.8 -13.8 -13.8 --- --- 33.9 SE 0.57 39.1 -28.0 --- --- 727.9 0.022 0.000 9.6 4 1
02/16/06 12:24 p -13.8 -13.8 -13.9 --- --- 33.9 SE 0.57 37.4 -28.1 --- --- 727.9 0.022 0.000 9.6 4 1
02/16/06 12:25 p -13.9 -13.9 -13.9 --- --- 36.5 ESE 0.61 43.5 -28.6 --- --- 727.6 0.022 0.000 9.6 4 1
02/16/06 12:26 p -14.0 -13.9 -14.0 --- --- 34.8 ESE 0.58 39.1 -28.4 --- --- 727.8 0.022 0.000 9.6 4 1
02/16/06 12:27 p -14.1 -14.0 -14.1 --- --- 34.8 SE 0.58 38.3 -28.5 --- --- 727.9 0.022 0.000 9.6 4 1
02/16/06 12:28 p -14.1 -14.1 -14.2 --- --- 32.2 ESE 0.54 34.8 -28.2 --- --- 727.9 0.023 0.000 9.6 4 1
02/16/06 12:29 p -14.2 -14.2 -14.2 --- --- 31.3 ESE 0.52 33.9 -28.1 --- --- 727.9 0.023 0.000 9.6 4 1
02/16/06 12:30 p -14.2 -14.2 -14.3 --- --- 31.3 ESE 0.52 33.0 -28.2 --- --- 727.9 0.023 0.000 9.6 4 1
02/16/06 12:31 p -14.3 -14.3 -14.3 --- --- 30.4 ESE 0.51 33.9 -28.1 --- --- 727.9 0.023 0.000 9.6 4 1
02/16/06 12:32 p -14.3 -14.3 -14.3 --- --- 29.6 ESE 0.49 31.3 -28.0 --- --- 727.9 0.023 0.000 9.6 4 1
02/16/06 12:33 p -14.3 -14.3 -14.4 --- --- 30.4 ESE 0.51 33.9 -28.2 --- --- 727.7 0.023 0.000 9.6 4 1
02/16/06 12:34 p -14.4 -14.4 -14.4 --- --- 31.3 ESE 0.52 33.9 -28.4 --- --- 727.8 0.023 0.000 9.5 4 1
02/16/06 12:35 p -14.4 -14.3 -14.4 --- --- 30.4 ESE 0.51 33.0 -28.3 --- --- 727.8 0.023 0.000 9.5 4 1
02/16/06 12:36 p -14.3 -14.3 -14.3 --- --- 29.6 ESE 0.49 32.2 -28.1 --- --- 727.8 0.023 0.000 9.5 4 1
02/16/06 12:37 p -14.3 -14.3 -14.4 --- --- 29.6 ESE 0.49 33.9 -28.1 --- --- 727.8 0.023 0.000 9.5 4 1
02/16/06 12:38 p -14.4 -14.3 -14.4 --- --- 33.0 ESE 0.55 36.5 -28.7 --- --- 727.7 0.023 0.000 9.5 4 1
02/16/06 12:39 p -14.3 -14.3 -14.3 --- --- 33.9 ESE 0.57 36.5 -28.8 --- --- 727.5 0.023 0.000 9.5 4 1
02/16/06 12:40 p -14.3 -14.3 -14.3 --- --- 33.9 ESE 0.57 39.1 -28.8 --- --- 727.4 0.023 0.000 9.5 4 1
02/16/06 12:41 p -14.3 -14.3 -14.3 --- --- 34.8 ESE 0.58 40.0 -28.8 --- --- 727.5 0.023 0.000 9.5 4 1
02/16/06 12:42 p -14.3 -14.3 -14.3 --- --- 33.9 ESE 0.57 37.4 -28.8 --- --- 727.6 0.023 0.000 9.5 4 1
02/16/06 12:43 p -14.3 -14.3 -14.4 --- --- 33.0 ESE 0.55 40.0 -28.6 --- --- 727.5 0.023 0.000 9.4 4 1
02/16/06 12:44 p -14.4 -14.4 -14.4 --- --- 33.9 SE 0.57 42.6 -28.8 --- --- 727.3 0.023 0.000 9.4 4 1
02/16/06 12:45 p -14.4 -14.3 -14.4 --- --- 34.8 SE 0.58 39.1 -29.0 --- --- 727.5 0.023 0.000 9.4 4 1
02/16/06 12:46 p -14.3 -14.3 -14.3 --- --- 35.7 SE 0.59 41.7 -29.1 --- --- 727.4 0.023 0.000 9.4 4 1
02/16/06 12:47 p -14.3 -14.3 -14.3 --- --- 37.4 SE 0.62 39.1 -29.3 --- --- 727.3 0.023 0.000 9.4 4 1
02/16/06 12:48 p -14.3 -14.3 -14.3 --- --- 37.4 SE 0.62 40.0 -29.3 --- --- 727.2 0.023 0.000 9.4 4 1
02/16/06 12:49 p -14.3 -14.2 -14.3 --- --- 40.9 SE 0.68 43.5 -29.7 --- --- 727.0 0.023 0.000 9.4 4 1
02/16/06 12:50 p -14.1 -14.1 -14.2 --- --- 40.9 SE 0.68 43.5 -29.4 --- --- 727.3 0.023 0.000 9.4 4 1
02/16/06 12:51 p -14.1 -14.1 -14.1 --- --- 37.4 SE 0.62 43.5 -29.0 --- --- 727.4 0.023 0.000 9.4 4 1
02/16/06 12:52 p -14.1 -14.1 -14.1 --- --- 42.6 SE 0.71 45.2 -29.7 --- --- 727.1 0.023 0.000 9.4 4 1
02/16/06 12:53 p -14.1 -14.1 -14.2 --- --- 37.4 SE 0.62 40.9 -29.0 --- --- 727.4 0.023 0.000 9.4 4 1
02/16/06 12:54 p -14.2 -14.1 -14.2 --- --- 36.5 SE 0.61 39.1 -28.9 --- --- 727.4 0.023 0.000 9.4 4 1
02/16/06 12:55 p -14.2 -14.2 -14.2 --- --- 36.5 SE 0.61 41.7 -28.9 --- --- 727.5 0.023 0.000 9.4 4 1
02/16/06 12:56 p -14.2 -14.2 -14.2 --- --- 37.4 SE 0.62 41.7 -29.1 --- --- 727.4 0.023 0.000 9.4 4 1
02/16/06 12:57 p -14.2 -14.2 -14.2 --- --- 38.3 SE 0.64 43.5 -29.2 --- --- 727.4 0.023 0.000 9.4 4 1
02/16/06 12:58 p -14.2 -14.2 -14.2 --- --- 37.4 SE 0.62 45.2 -29.1 --- --- 727.3 0.023 0.000 9.4 4 1
02/16/06 12:59 p -14.2 -14.2 -14.2 --- --- 35.7 ESE 0.59 38.3 -28.8 --- --- 727.4 0.023 0.000 9.4 4 1
02/16/06 1:00 p -14.2 -14.2 -14.3 --- --- 36.5 ESE 0.61 40.0 -29.0 --- --- 727.4 0.023 0.000 9.4 4 1
02/16/06 1:01 p -14.2 -14.2 -14.3 --- --- 37.4 SE 0.62 45.2 -29.1 --- --- 727.1 0.023 0.000 9.4 4 1
02/16/06 1:02 p -14.3 -14.2 -14.3 --- --- 40.9 SE 0.68 45.2 -29.7 --- --- 727.2 0.023 0.000 9.4 4 1
02/16/06 1:03 p -14.2 -14.2 -14.3 --- --- 35.7 SE 0.59 39.1 -28.9 --- --- 727.2 0.023 0.000 9.4 4 1
02/16/06 1:04 p -14.3 -14.3 -14.3 --- --- 37.4 ESE 0.62 42.6 -29.2 --- --- 727.2 0.023 0.000 9.4 4 1
02/16/06 1:05 p -14.3 -14.3 -14.3 --- --- 35.7 SE 0.59 38.3 -29.1 --- --- 727.3 0.023 0.000 9.4 4 1
02/16/06 1:06 p -14.4 -14.3 -14.4 --- --- 37.4 ESE 0.62 42.6 -29.4 --- --- 727.1 0.023 0.000 9.4 4 1
02/16/06 1:07 p -14.3 -14.3 -14.4 --- --- 40.0 SE 0.67 49.6 -29.7 --- --- 727.2 0.023 0.000 9.3 4 1
02/16/06 1:08 p -14.3 -14.3 -14.4 --- --- 34.8 ESE 0.58 38.3 -28.9 --- --- 727.1 0.023 0.000 9.3 4 1
02/16/06 1:09 p -14.5 -14.5 -14.5 --- --- 34.8 ESE 0.58 40.9 -29.1 --- --- 727.5 0.023 0.000 9.3 4 1
02/16/06 1:10 p -14.6 -14.6 -14.7 --- --- 32.2 SE 0.54 34.8 -28.9 --- --- 727.6 0.023 0.000 9.3 4 1
02/16/06 1:11 p -14.7 -14.7 -14.7 --- --- 30.4 ESE 0.51 33.9 -28.7 --- --- 727.7 0.023 0.000 9.3 4 1
02/16/06 1:12 p -14.8 -14.8 -14.8 --- --- 30.4 SE 0.51 33.9 -28.9 --- --- 727.8 0.023 0.000 9.3 4 1
02/16/06 1:13 p -14.9 -14.9 -14.9 --- --- 29.6 SE 0.49 33.0 -28.8 --- --- 727.9 0.023 0.000 9.3 4 1
02/16/06 1:14 p -14.9 -14.9 -15.0 --- --- 31.3 ESE 0.52 35.7 -29.2 --- --- 727.5 0.023 0.000 9.3 4 1
02/16/06 1:15 p -15.1 -15.1 -15.1 --- --- 33.9 ESE 0.57 34.8 -29.8 --- --- 727.3 0.023 0.000 9.3 4 1
02/16/06 1:16 p -15.2 -15.2 -15.2 --- --- 33.9 ESE 0.57 36.5 -29.9 --- --- 727.5 0.023 0.000 9.3 4 1
02/16/06 1:17 p -15.2 -15.2 -15.3 --- --- 35.7 ESE 0.59 39.1 -30.3 --- --- 727.1 0.023 0.000 9.3 4 1
02/16/06 1:18 p -15.3 -15.2 -15.3 --- --- 38.3 ESE 0.64 44.3 -30.7 --- --- 727.2 0.023 0.000 9.3 4 1
02/16/06 1:19 p -15.2 -15.2 -15.2 --- --- 35.7 ESE 0.59 40.9 -30.2 --- --- 727.4 0.023 0.000 9.3 4 1
02/16/06 1:20 p -15.2 -15.1 -15.2 --- --- 33.9 ESE 0.57 41.7 -29.9 --- --- 727.7 0.023 0.000 9.3 4 1
02/16/06 1:21 p -15.3 -15.3 -15.3 --- --- 33.0 ESE 0.55 38.3 -29.9 --- --- 727.5 0.023 0.000 9.3 4 1
02/16/06 1:22 p -15.3 -15.2 -15.3 --- --- 33.9 ESE 0.57 38.3 -30.1 --- --- 727.3 0.023 0.000 9.3 4 1
02/16/06 1:23 p -15.2 -15.2 -15.3 --- --- 34.8 ESE 0.58 39.1 -30.2 --- --- 727.2 0.023 0.000 9.3 4 1
02/16/06 1:24 p -15.4 -15.3 -15.6 --- --- 39.1 E 0.65 47.0 -31.0 --- --- 727.1 0.023 0.000 9.3 4 1
02/16/06 1:25 p -15.4 -15.3 -15.4 --- --- 35.7 ESE 0.59 41.7 -30.5 --- --- 727.2 0.023 0.000 9.3 4 1
02/16/06 1:26 p -15.3 -15.3 -15.3 --- --- 36.5 ESE 0.61 45.2 -30.5 --- --- 727.4 0.023 0.000 9.3 4 1
02/16/06 1:27 p -15.5 -15.4 -15.6 --- --- 31.3 E 0.52 38.3 -29.9 --- --- 727.4 0.023 0.000 9.3 4 1
02/16/06 1:28 p -15.8 -15.7 -15.8 --- --- 36.5 ESE 0.61 47.0 -31.2 --- --- 727.4 0.024 0.000 9.3 4 1
02/16/06 1:29 p -15.7 -15.7 -15.7 --- --- 33.9 ESE 0.57 37.4 -30.6 --- --- 727.6 0.024 0.000 9.3 4 1
02/16/06 1:30 p -15.8 -15.8 -15.9 --- --- 31.3 ESE 0.52 35.7 -30.4 --- --- 727.7 0.024 0.000 9.3 4 1
02/16/06 1:31 p -15.9 -15.9 -15.9 --- --- 32.2 ESE 0.54 34.8 -30.7 --- --- 727.7 0.024 0.000 9.3 4 1
02/16/06 1:32 p -15.9 -15.9 -15.9 --- --- 32.2 ESE 0.54 36.5 -30.7 --- --- 727.7 0.024 0.000 9.2 4 1
02/16/06 1:33 p -16.0 -16.0 -16.1 --- --- 33.0 ESE 0.55 35.7 -30.9 --- --- 727.7 0.024 0.000 9.2 4 1
02/16/06 1:34 p -16.1 -16.1 -16.2 --- --- 27.8 E 0.46 31.3 -30.2 --- --- 727.7 0.024 0.000 9.2 4 1
02/16/06 1:35 p -16.2 -16.2 -16.3 --- --- 28.7 E 0.48 33.9 -30.5 --- --- 727.5 0.024 0.000 9.3 4 1
02/16/06 1:36 p -16.4 -16.3 -16.5 --- --- 31.3 E 0.52 38.3 -31.2 --- --- 727.5 0.024 0.000 9.3 4 1
02/16/06 1:37 p -16.6 -16.5 -16.6 --- --- 33.9 E 0.57 38.3 -31.8 --- --- 727.6 0.024 0.000 9.3 4 1
02/16/06 1:38 p -16.6 -16.6 -16.6 --- --- 31.3 E 0.52 34.8 -31.4 --- --- 727.6 0.024 0.000 9.3 4 1
02/16/06 1:39 p -16.6 -16.6 -16.6 --- --- 33.0 ESE 0.55 40.9 -31.7 --- --- 727.9 0.024 0.000 9.3 4 1
02/16/06 1:40 p -16.7 -16.6 -16.7 --- --- 30.4 ESE 0.51 32.2 -31.4 --- --- 727.8 0.024 0.000 9.3 4 1
02/16/06 1:41 p -16.7 -16.7 -16.7 --- --- 28.7 ESE 0.48 33.0 -31.1 --- --- 727.8 0.024 0.000 9.3 4 1
02/16/06 1:42 p -16.7 -16.5 -16.7 --- --- 30.4 ESE 0.51 33.9 -31.4 --- --- 727.7 0.024 0.000 9.2 4 1
02/16/06 1:43 p -16.4 -16.4 -16.5 --- --- 28.7 ESE 0.48 32.2 -30.7 --- --- 727.9 0.024 0.000 9.2 4 1
02/16/06 1:44 p -16.4 -16.4 -16.4 --- --- 29.6 ESE 0.49 33.0 -30.9 --- --- 727.8 0.024 0.000 9.2 4 1
02/16/06 1:45 p -16.5 -16.4 -16.5 --- --- 28.7 ESE 0.48 30.4 -30.9 --- --- 727.7 0.024 0.000 9.2 4 1
02/16/06 1:46 p -16.4 -16.4 -16.5 --- --- 27.0 E 0.45 30.4 -30.4 --- --- 727.8 0.024 0.000 9.2 4 1
02/16/06 1:47 p -16.5 -16.5 -16.6 --- --- 27.8 ESE 0.46 32.2 -30.7 --- --- 727.8 0.024 0.000 9.2 4 1
02/16/06 1:48 p -16.6 -16.6 -16.6 --- --- 29.6 ESE 0.49 32.2 -31.1 --- --- 727.7 0.024 0.000 9.2 4 1
02/16/06 1:49 p -16.5 -16.5 -16.6 --- --- 28.7 E 0.48 30.4 -30.9 --- --- 727.7 0.024 0.000 9.2 4 1
02/16/06 1:50 p -16.5 -16.5 -16.5 --- --- 28.7 ESE 0.48 31.3 -30.9 --- --- 727.7 0.024 0.000 9.2 4 1
02/16/06 1:51 p -16.4 -16.3 -16.5 --- --- 31.3 ESE 0.52 35.7 -31.2 --- --- 727.6 0.024 0.000 9.2 4 1
02/16/06 1:52 p -16.3 -16.2 -16.3 --- --- 31.3 ESE 0.52 33.9 -31.1 --- --- 727.6 0.024 0.000 9.2 4 1
02/16/06 1:53 p -16.2 -16.2 -16.2 --- --- 32.2 ESE 0.54 35.7 -31.1 --- --- 727.6 0.024 0.000 9.2 4 1
02/16/06 1:54 p -16.2 -16.2 -16.3 --- --- 32.2 E 0.54 35.7 -31.1 --- --- 727.5 0.024 0.000 9.2 4 1
02/16/06 1:55 p -16.3 -16.3 -16.3 --- --- 31.3 E 0.52 36.5 -31.1 --- --- 727.4 0.024 0.000 9.2 4 1
02/16/06 1:56 p -16.3 -16.3 -16.4 --- --- 31.3 E 0.52 35.7 -31.1 --- --- 727.6 0.024 0.000 9.2 4 1
02/16/06 1:57 p -16.5 -16.4 -16.6 --- --- 30.4 E 0.51 34.8 -31.2 --- --- 727.6 0.024 0.000 9.2 4 1
02/16/06 1:58 p -16.6 -16.6 -16.6 --- --- 31.3 ESE 0.52 37.4 -31.5 --- --- 727.5 0.024 0.000 9.2 4 1
02/16/06 1:59 p -16.7 -16.6 -16.7 --- --- 30.4 E 0.51 35.7 -31.4 --- --- 727.5 0.024 0.000 9.2 4 1
02/16/06 2:00 p -16.7 -16.6 -16.8 --- --- 31.3 E 0.52 35.7 -31.6 --- --- 727.5 0.024 0.000 9.2 4 1
02/16/06 2:01 p -16.8 -16.8 -16.9 --- --- 32.2 E 0.54 35.7 -31.9 --- --- 727.5 0.024 0.000 9.2 4 1
02/16/06 2:02 p -16.9 -16.9 -16.9 --- --- 32.2 E 0.54 36.5 -32.1 --- --- 727.4 0.024 0.000 9.2 4 1
02/16/06 2:03 p -16.9 -16.9 -17.0 --- --- 33.0 E 0.55 39.1 -32.3 --- --- 727.5 0.024 0.000 9.2 4 1
02/16/06 2:04 p -17.0 -17.0 -17.0 --- --- 33.0 E 0.55 37.4 -32.3 --- --- 727.5 0.025 0.000 9.1 4 1
02/16/06 2:05 p -17.1 -17.0 -17.1 --- --- 33.0 E 0.55 39.1 -32.4 --- --- 727.5 0.025 0.000 9.1 4 1
02/16/06 2:06 p -17.0 -16.9 -17.1 --- --- 36.5 ESE 0.61 44.3 -32.9 --- --- 727.3 0.025 0.000 9.1 4 1
02/16/06 2:07 p -16.6 -16.6 -16.6 --- --- 34.8 E 0.58 38.3 -32.1 --- --- 727.6 0.024 0.000 9.1 4 1
02/16/06 2:08 p -16.7 -16.6 -16.8 --- --- 33.9 E 0.57 38.3 -32.0 --- --- 727.5 0.024 0.000 9.1 4 1
02/16/06 2:09 p -16.9 -16.9 -17.1 --- --- 36.5 E 0.61 42.6 -32.8 --- --- 727.6 0.024 0.000 9.1 4 1
02/16/06 2:10 p -17.1 -17.1 -17.1 --- --- 33.9 ESE 0.57 38.3 -32.6 --- --- 727.5 0.025 0.000 9.1 4 1
02/16/06 2:11 p -17.1 -17.1 -17.2 --- --- 30.4 E 0.51 40.0 -32.1 --- --- 727.6 0.025 0.000 9.1 4 1
02/16/06 2:12 p -17.2 -17.2 -17.2 --- --- 33.0 ESE 0.55 37.4 -32.6 --- --- 727.6 0.025 0.000 9.1 4 1
02/16/06 2:13 p -17.2 -17.2 -17.2 --- --- 30.4 ESE 0.51 35.7 -32.1 --- --- 727.6 0.025 0.000 9.1 4 1
02/16/06 2:14 p -17.2 -17.2 -17.2 --- --- 35.7 ESE 0.59 39.1 -33.1 --- --- 727.7 0.025 0.000 9.1 4 1
02/16/06 2:15 p -17.2 -17.2 -17.2 --- --- 33.9 ESE 0.57 37.4 -32.8 --- --- 727.7 0.025 0.000 9.1 4 1
02/16/06 2:16 p -17.3 -17.2 -17.3 --- --- 32.2 ESE 0.54 40.0 -32.6 --- --- 727.6 0.025 0.000 9.1 4 1
02/16/06 2:17 p -17.2 -17.2 -17.3 --- --- 36.5 ESE 0.61 40.9 -33.2 --- --- 727.7 0.025 0.000 9.1 4 1
02/16/06 2:18 p -17.3 -17.3 -17.3 --- --- 33.0 ESE 0.55 39.1 -32.7 --- --- 727.6 0.025 0.000 9.1 4 1
02/16/06 2:19 p -17.2 -16.8 -17.4 --- --- 33.9 ESE 0.57 40.0 -32.8 --- --- 727.9 0.025 0.000 9.1 4 1
02/16/06 2:20 p -16.7 -16.6 -16.8 --- --- 33.9 ESE 0.57 39.1 -32.1 --- --- 727.9 0.024 0.000 9.0 4 1
02/16/06 2:21 p -16.8 -16.7 -16.9 --- --- 33.9 ESE 0.57 38.3 -32.2 --- --- 727.7 0.024 0.000 9.0 4 1
02/16/06 2:22 p -16.9 -16.8 -17.0 --- --- 37.4 ESE 0.62 42.6 -32.9 --- --- 727.5 0.024 0.000 9.0 4 1
02/16/06 2:23 p -16.7 -16.7 -16.7 --- --- 33.9 E 0.57 44.3 -32.1 --- --- 727.4 0.024 0.000 9.0 4 1
02/16/06 2:24 p -16.4 -16.2 -16.5 --- --- 38.3 ESE 0.64 49.6 -32.3 --- --- 727.8 0.024 0.000 9.0 4 1
02/16/06 2:25 p -16.2 -16.2 -16.3 --- --- 35.7 ESE 0.59 41.7 -31.7 --- --- 728.1 0.024 0.000 9.0 4 1
02/16/06 2:26 p -16.2 -16.1 -16.3 --- --- 28.7 ESE 0.48 33.9 -30.4 --- --- 728.1 0.024 0.000 9.0 4 1
02/16/06 2:27 p -16.2 -16.2 -16.3 --- --- 32.2 ESE 0.54 38.3 -31.1 --- --- 728.1 0.024 0.000 9.0 4 1
02/16/06 2:28 p -16.3 -16.3 -16.3 --- --- 34.8 ESE 0.58 38.3 -31.6 --- --- 727.8 0.024 0.000 9.0 4 1
02/16/06 2:29 p -16.2 -16.2 -16.2 --- --- 34.8 ESE 0.58 37.4 -31.6 --- --- 727.9 0.024 0.000 9.0 4 1
02/16/06 2:30 p -16.1 -16.1 -16.2 --- --- 36.5 ESE 0.61 41.7 -31.7 --- --- 727.8 0.024 0.000 9.0 4 1
02/16/06 2:31 p -16.0 -15.9 -16.0 --- --- 35.7 ESE 0.59 39.1 -31.4 --- --- 728.0 0.024 0.000 8.9 4 1
02/16/06 2:32 p -16.0 -15.9 -16.1 --- --- 30.4 ESE 0.51 42.6 -30.5 --- --- 727.8 0.024 0.000 8.9 4 1
02/16/06 2:33 p -16.0 -15.9 -16.1 --- --- 33.9 ESE 0.57 39.1 -31.1 --- --- 727.9 0.024 0.000 8.9 4 1
02/16/06 2:34 p -16.1 -16.0 -16.1 --- --- 30.4 ESE 0.51 35.7 -30.6 --- --- 728.0 0.024 0.000 8.9 4 1
02/16/06 2:35 p -16.2 -16.2 -16.2 --- --- 30.4 E 0.51 38.3 -30.7 --- --- 727.9 0.024 0.000 8.9 4 1
02/16/06 2:36 p -16.2 -16.2 -16.2 --- --- 28.7 ESE 0.48 32.2 -30.4 --- --- 728.1 0.024 0.000 8.9 4 1
02/16/06 2:37 p -16.2 -16.2 -16.3 --- --- 31.3 E 0.52 37.4 -30.9 --- --- 728.0 0.024 0.000 8.9 4 1
02/16/06 2:38 p -16.3 -16.3 -16.3 --- --- 29.6 ESE 0.49 33.0 -30.7 --- --- 728.0 0.024 0.000 8.9 4 1
02/16/06 2:39 p -16.2 -16.2 -16.3 --- --- 31.3 ESE 0.52 33.9 -30.9 --- --- 727.9 0.024 0.000 8.9 4 1
02/16/06 2:40 p -16.1 -16.1 -16.2 --- --- 30.4 ESE 0.51 33.9 -30.7 --- --- 728.1 0.024 0.000 8.9 4 1
02/16/06 2:41 p -16.1 -16.1 -16.2 --- --- 30.4 ESE 0.51 34.8 -30.7 --- --- 727.9 0.024 0.000 8.9 4 1
02/16/06 2:42 p -16.1 -16.1 -16.1 --- --- 30.4 ESE 0.51 32.2 -30.7 --- --- 727.9 0.024 0.000 8.9 4 1
02/16/06 2:43 p -16.1 -16.1 -16.1 --- --- 29.6 ESE 0.49 31.3 -30.5 --- --- 727.9 0.024 0.000 8.8 4 1
02/16/06 2:44 p -16.1 -16.1 -16.1 --- --- 31.3 ESE 0.52 32.2 -30.7 --- --- 727.8 0.024 0.000 8.8 4 1
02/16/06 2:45 p -16.1 -16.1 -16.1 --- --- 31.3 ESE 0.52 33.9 -30.7 --- --- 727.8 0.024 0.000 8.8 4 1
02/16/06 2:46 p -16.1 -16.1 -16.1 --- --- 29.6 ESE 0.49 31.3 -30.4 --- --- 727.8 0.024 0.000 8.8 3 1
02/16/06 2:47 p -16.1 -16.1 -16.1 --- --- 30.4 ESE 0.51 34.8 -30.6 --- --- 727.8 0.024 0.000 8.8 4 1
02/16/06 2:48 p -16.1 -16.1 -16.1 --- --- 27.8 ESE 0.46 29.6 -30.2 --- --- 727.8 0.024 0.000 8.8 4 1
02/16/06 2:49 p -16.1 -16.1 -16.1 --- --- 28.7 ESE 0.48 31.3 -30.3 --- --- 727.9 0.024 0.000 8.8 4 1
02/16/06 2:50 p -16.1 -16.1 -16.1 --- --- 29.6 ESE 0.49 35.7 -30.5 --- --- 727.8 0.024 0.000 8.8 3 1
02/16/06 2:51 p -16.0 -15.9 -16.1 --- --- 32.2 ESE 0.54 40.0 -30.8 --- --- 727.7 0.024 0.000 8.8 4 1
02/16/06 2:52 p -15.8 -15.8 -15.9 --- --- 30.4 ESE 0.51 35.7 -30.3 --- --- 727.7 0.024 0.000 8.8 4 1
02/16/06 2:53 p -15.8 -15.8 -15.9 --- --- 32.2 ESE 0.54 40.9 -30.6 --- --- 727.5 0.024 0.000 8.8 4 1
02/16/06 2:54 p -15.8 -15.8 -15.9 --- --- 30.4 ESE 0.51 38.3 -30.3 --- --- 727.9 0.024 0.000 8.8 4 1
02/16/06 2:55 p -15.8 -15.8 -15.8 --- --- 30.4 ESE 0.51 33.9 -30.3 --- --- 728.0 0.024 0.000 8.8 4 1
02/16/06 2:56 p -15.8 -15.8 -15.9 --- --- 27.0 ESE 0.45 30.4 -29.6 --- --- 727.9 0.024 0.000 8.8 4 1
02/16/06 2:57 p -15.9 -15.9 -16.1 --- --- 27.8 E 0.46 30.4 -29.9 --- --- 727.9 0.024 0.000 8.8 4 1
02/16/06 2:58 p -16.2 -16.1 -16.2 --- --- 31.3 ESE 0.52 33.9 -30.9 --- --- 727.8 0.024 0.000 8.8 4 1
02/16/06 2:59 p -16.2 -16.1 -16.2 --- --- 32.2 ESE 0.54 40.9 -31.1 --- --- 727.8 0.024 0.000 8.8 4 1
02/16/06 3:00 p -15.9 -15.8 -16.1 --- --- 32.2 ESE 0.54 35.7 -30.7 --- --- 727.9 0.024 0.000 8.8 4 1
02/16/06 3:01 p -15.7 -15.7 -15.8 --- --- 31.3 ESE 0.52 37.4 -30.2 --- --- 727.7 0.024 0.000 8.8 4 1
02/16/06 3:02 p -15.6 -15.6 -15.7 --- --- 30.4 SE 0.51 35.7 -29.9 --- --- 727.9 0.024 0.000 8.8 3 1
02/16/06 3:03 p -15.5 -15.4 -15.6 --- --- 32.2 ESE 0.54 36.5 -30.1 --- --- 727.6 0.023 0.000 8.8 4 1
02/16/06 3:04 p -15.5 -15.4 -15.5 --- --- 33.9 SE 0.57 40.0 -30.4 --- --- 727.8 0.023 0.000 8.8 4 1
02/16/06 3:05 p -15.5 -15.4 -15.6 --- --- 36.5 ESE 0.61 44.3 -30.8 --- --- 727.4 0.023 0.000 8.8 4 1
02/16/06 3:06 p -15.6 -15.6 -15.7 --- --- 33.0 ESE 0.55 38.3 -30.4 --- --- 727.7 0.024 0.000 8.8 3 1
02/16/06 3:07 p -15.8 -15.7 -15.8 --- --- 32.2 ESE 0.54 38.3 -30.5 --- --- 727.6 0.024 0.000 8.8 4 1
02/16/06 3:08 p -15.8 -15.8 -15.8 --- --- 33.0 ESE 0.55 38.3 -30.6 --- --- 727.7 0.024 0.000 8.8 4 1
02/16/06 3:09 p -15.8 -15.8 -15.8 --- --- 31.3 ESE 0.52 34.8 -30.3 --- --- 727.8 0.024 0.000 8.7 4 1
02/16/06 3:10 p -15.9 -15.8 -15.9 --- --- 32.2 ESE 0.54 39.1 -30.7 --- --- 727.7 0.024 0.000 8.7 3 1
02/16/06 3:11 p -15.9 -15.9 -16.1 --- --- 33.9 ESE 0.57 36.5 -31.0 --- --- 727.6 0.024 0.000 8.7 4 1
02/16/06 3:12 p -16.2 -16.1 -16.2 --- --- 31.3 ESE 0.52 35.7 -30.9 --- --- 727.9 0.024 0.000 8.7 4 1
02/16/06 3:13 p -16.3 -16.3 -16.3 --- --- 30.4 ESE 0.51 41.7 -30.9 --- --- 727.6 0.024 0.000 8.7 3 1
02/16/06 3:14 p -16.4 -16.4 -16.5 --- --- 32.2 E 0.54 36.5 -31.4 --- --- 727.6 0.024 0.000 8.7 3 1
02/16/06 3:15 p -16.6 -16.6 -16.6 --- --- 26.1 E 0.43 33.0 -30.4 --- --- 727.7 0.024 0.000 8.7 4 1
02/16/06 3:16 p -16.6 -16.6 -16.7 --- --- 28.7 E 0.48 32.2 -31.0 --- --- 727.9 0.024 0.000 8.7 4 1
02/16/06 3:17 p -16.8 -16.8 -16.8 --- --- 32.2 E 0.54 38.3 -31.9 --- --- 727.8 0.024 0.000 8.7 4 1
02/16/06 3:18 p -16.8 -16.8 -16.8 --- --- 29.6 E 0.49 34.8 -31.4 --- --- 727.9 0.024 0.000 8.7 3 1
02/16/06 3:19 p -16.8 -16.8 -16.9 --- --- 34.8 ESE 0.58 39.1 -32.4 --- --- 727.8 0.024 0.000 8.7 4 1
02/16/06 3:20 p -16.9 -16.9 -16.9 --- --- 29.6 ESE 0.49 35.7 -31.7 --- --- 728.0 0.024 0.000 8.7 4 1
02/16/06 3:21 p -16.9 -16.9 -17.0 --- --- 29.6 ESE 0.49 32.2 -31.7 --- --- 728.0 0.024 0.000 8.7 4 1
02/16/06 3:22 p -17.1 -17.1 -17.1 --- --- 30.4 E 0.51 35.7 -31.9 --- --- 727.9 0.025 0.000 8.7 4 1
02/16/06 3:23 p -17.0 -16.9 -17.0 --- --- 29.6 E 0.49 35.7 -31.7 --- --- 728.0 0.025 0.000 8.7 4 1
02/16/06 3:24 p -16.9 -16.9 -16.9 --- --- 31.3 ESE 0.52 36.5 -31.9 --- --- 728.2 0.024 0.000 8.7 3 1
02/16/06 3:25 p -16.8 -16.8 -16.9 --- --- 28.7 E 0.48 36.5 -31.3 --- --- 728.0 0.024 0.000 8.7 4 1
02/16/06 3:26 p -16.8 -16.8 -16.8 --- --- 31.3 ESE 0.52 35.7 -31.7 --- --- 728.1 0.024 0.000 8.7 4 1
02/16/06 3:27 p -16.8 -16.7 -16.8 --- --- 37.4 ESE 0.62 43.5 -32.7 --- --- 728.0 0.024 0.000 8.7 4 1
02/16/06 3:28 p -16.5 -16.3 -16.7 --- --- 29.6 ESE 0.49 38.3 -31.1 --- --- 728.1 0.024 0.000 8.6 4 1
02/16/06 3:29 p -16.3 -16.3 -16.3 --- --- 32.2 ESE 0.54 46.1 -31.3 --- --- 728.2 0.024 0.000 8.6 4 1
02/16/06 3:30 p -16.3 -16.3 -16.3 --- --- 28.7 ESE 0.48 32.2 -30.6 --- --- 728.3 0.024 0.000 8.6 3 1
02/16/06 3:31 p -16.3 -16.3 -16.3 --- --- 25.2 ESE 0.42 29.6 -29.9 --- --- 728.4 0.024 0.000 8.6 4 1
02/16/06 3:32 p -16.3 -16.3 -16.3 --- --- 28.7 E 0.48 32.2 -30.7 --- --- 728.2 0.024 0.000 8.6 3 1
02/16/06 3:33 p -16.4 -16.3 -16.5 --- --- 29.6 E 0.49 32.2 -30.9 --- --- 728.2 0.024 0.000 8.6 3 1
02/16/06 3:34 p -16.5 -16.5 -16.6 --- --- 27.8 E 0.46 31.3 -30.7 --- --- 728.1 0.024 0.000 8.6 4 1
02/16/06 3:35 p -16.6 -16.6 -16.6 --- --- 31.3 ESE 0.52 36.5 -31.5 --- --- 728.1 0.024 0.000 8.6 3 1
02/16/06 3:36 p -16.6 -16.6 -16.6 --- --- 28.7 ESE 0.48 33.9 -31.0 --- --- 728.0 0.024 0.000 8.6 3 1
02/16/06 3:37 p -16.6 -16.6 -16.7 --- --- 27.0 ESE 0.45 30.4 -30.7 --- --- 728.2 0.024 0.000 8.6 3 1
02/16/06 3:38 p -16.7 -16.7 -16.7 --- --- 29.6 E 0.49 36.5 -31.3 --- --- 728.0 0.024 0.000 8.6 4 1
02/16/06 3:39 p -16.7 -16.6 -16.7 --- --- 28.7 E 0.48 33.0 -31.1 --- --- 728.1 0.024 0.000 8.6 3 1
02/16/06 3:40 p -16.6 -16.6 -16.6 --- --- 28.7 ESE 0.48 33.0 -31.0 --- --- 728.2 0.024 0.000 8.6 3 1
02/16/06 3:41 p -16.6 -16.6 -16.6 --- --- 26.1 ESE 0.43 31.3 -30.4 --- --- 728.0 0.024 0.000 8.6 3 1
02/16/06 3:42 p -16.6 -16.5 -16.6 --- --- 33.0 ESE 0.55 40.9 -31.7 --- --- 728.2 0.024 0.000 8.6 3 1
02/16/06 3:43 p -16.4 -16.3 -16.5 --- --- 27.8 ESE 0.46 33.9 -30.6 --- --- 728.2 0.024 0.000 8.6 3 1
02/16/06 3:44 p -16.3 -16.3 -16.3 --- --- 27.8 ESE 0.46 30.4 -30.5 --- --- 728.2 0.024 0.000 8.6 3 1
02/16/06 3:45 p -16.3 -16.2 -16.3 --- --- 30.4 ESE 0.51 34.8 -30.9 --- --- 728.1 0.024 0.000 8.6 3 1
02/16/06 3:46 p -16.2 -16.2 -16.2 --- --- 30.4 ESE 0.51 37.4 -30.7 --- --- 728.1 0.024 0.000 8.6 3 1
02/16/06 3:47 p -16.2 -16.2 -16.3 --- --- 27.0 ESE 0.45 33.9 -30.2 --- --- 728.0 0.024 0.000 8.6 3 1
02/16/06 3:48 p -16.3 -16.2 -16.3 --- --- 26.1 ESE 0.43 29.6 -30.1 --- --- 728.2 0.024 0.000 8.6 3 1
02/16/06 3:49 p -16.3 -16.3 -16.3 --- --- 27.8 ESE 0.46 30.4 -30.4 --- --- 728.2 0.024 0.000 8.6 3 1
02/16/06 3:50 p -16.3 -16.3 -16.4 --- --- 25.2 ESE 0.42 28.7 -29.9 --- --- 728.2 0.024 0.000 8.6 3 1
02/16/06 3:51 p -16.5 -16.4 -16.6 --- --- 27.0 ESE 0.45 30.4 -30.6 --- --- 728.2 0.024 0.000 8.6 3 1
02/16/06 3:52 p -16.6 -16.6 -16.6 --- --- 26.1 E 0.43 28.7 -30.4 --- --- 728.2 0.024 0.000 8.6 3 1
02/16/06 3:53 p -16.7 -16.6 -16.7 --- --- 24.3 ESE 0.41 27.0 -30.2 --- --- 728.1 0.024 0.000 8.6 3 1
02/16/06 3:54 p -16.7 -16.7 -16.7 --- --- 25.2 E 0.42 28.7 -30.5 --- --- 728.2 0.024 0.000 8.6 3 1
02/16/06 3:55 p -16.8 -16.7 -16.8 --- --- 24.3 E 0.41 30.4 -30.4 --- --- 728.0 0.024 0.000 8.5 3 1
02/16/06 3:56 p -16.8 -16.8 -16.8 --- --- 25.2 E 0.42 28.7 -30.6 --- --- 728.1 0.024 0.000 8.6 3 1
02/16/06 3:57 p -16.8 -16.8 -16.9 --- --- 27.0 E 0.45 29.6 -31.0 --- --- 728.1 0.024 0.000 8.6 3 1
02/16/06 3:58 p -16.9 -16.9 -16.9 --- --- 27.0 E 0.45 31.3 -31.1 --- --- 728.0 0.024 0.000 8.5 3 1
02/16/06 3:59 p -16.9 -16.9 -16.9 --- --- 28.7 E 0.48 34.8 -31.4 --- --- 728.1 0.024 0.000 8.6 3 1
02/16/06 4:00 p -16.8 -16.8 -16.9 --- --- 27.0 ESE 0.45 33.0 -31.0 --- --- 728.1 0.024 0.000 8.5 3 1
02/16/06 4:01 p -16.9 -16.8 -16.9 --- --- 27.8 ESE 0.46 29.6 -31.2 --- --- 728.3 0.024 0.000 8.5 3 1
02/16/06 4:02 p -16.8 -16.8 -16.9 --- --- 27.0 ESE 0.45 30.4 -31.0 --- --- 728.3 0.024 0.000 8.5 3 1
02/16/06 4:03 p -16.9 -16.8 -16.9 --- --- 26.1 ESE 0.43 31.3 -30.9 --- --- 728.3 0.024 0.000 8.5 3 1
02/16/06 4:04 p -16.8 -16.8 -16.8 --- --- 25.2 ESE 0.42 28.7 -30.6 --- --- 728.4 0.024 0.000 8.5 3 1
02/16/06 4:05 p -16.8 -16.8 -16.9 --- --- 26.1 ESE 0.43 29.6 -30.8 --- --- 728.4 0.024 0.000 8.5 3 1
02/16/06 4:06 p -16.8 -16.8 -16.9 --- --- 27.0 ESE 0.45 30.4 -31.0 --- --- 728.5 0.024 0.000 8.5 3 1
02/16/06 4:07 p -16.8 -16.8 -16.8 --- --- 27.0 ESE 0.45 28.7 -31.0 --- --- 728.6 0.024 0.000 8.5 3 1
02/16/06 4:08 p -16.8 -16.8 -16.8 --- --- 26.1 ESE 0.43 27.0 -30.7 --- --- 728.7 0.024 0.000 8.5 3 1
02/16/06 4:09 p -16.8 -16.8 -16.8 --- --- 25.2 ESE 0.42 27.0 -30.6 --- --- 728.6 0.024 0.000 8.4 3 1
02/16/06 4:10 p -16.8 -16.8 -16.8 --- --- 25.2 ESE 0.42 27.0 -30.6 --- --- 728.6 0.024 0.000 8.4 3 1
02/16/06 4:11 p -16.8 -16.8 -16.8 --- --- 26.1 ESE 0.43 27.0 -30.8 --- --- 728.7 0.024 0.000 8.4 3 1
02/16/06 4:12 p -16.8 -16.8 -16.8 --- --- 24.3 ESE 0.41 25.2 -30.4 --- --- 728.8 0.024 0.000 8.4 3 1
02/16/06 4:13 p -16.8 -16.8 -16.9 --- --- 24.3 ESE 0.41 26.1 -30.4 --- --- 728.9 0.024 0.000 8.4 3 1
02/16/06 4:14 p -16.9 -16.8 -16.9 --- --- 26.1 ESE 0.43 27.0 -30.9 --- --- 728.8 0.024 0.000 8.4 3 1
02/16/06 4:15 p -16.8 -16.8 -16.8 --- --- 25.2 ESE 0.42 27.0 -30.6 --- --- 728.6 0.024 0.000 8.4 3 1
02/16/06 4:16 p -16.9 -16.8 -16.9 --- --- 26.1 ESE 0.43 27.8 -30.9 --- --- 728.6 0.024 0.000 8.4 3 1
02/16/06 4:17 p -16.8 -16.8 -16.8 --- --- 26.1 ESE 0.43 27.8 -30.8 --- --- 728.7 0.024 0.000 8.4 3 1
02/16/06 4:18 p -16.8 -16.8 -16.9 --- --- 27.0 ESE 0.45 27.8 -31.0 --- --- 728.5 0.024 0.000 8.4 3 1
02/16/06 4:19 p -16.8 -16.8 -16.8 --- --- 27.8 ESE 0.46 28.7 -31.2 --- --- 728.5 0.024 0.000 8.4 3 1
02/16/06 4:20 p -16.8 -16.8 -16.8 --- --- 27.0 ESE 0.45 28.7 -30.9 --- --- 728.6 0.024 0.000 8.4 3 1
02/16/06 4:21 p -16.8 -16.8 -16.8 --- --- 27.8 ESE 0.46 29.6 -31.1 --- --- 728.4 0.024 0.000 8.4 3 1
02/16/06 4:22 p -16.8 -16.8 -16.8 --- --- 27.8 ESE 0.46 29.6 -31.1 --- --- 728.4 0.024 0.000 8.4 3 1
02/16/06 4:23 p -16.8 -16.8 -16.8 --- --- 27.0 ESE 0.45 28.7 -30.9 --- --- 728.3 0.024 0.000 8.4 3 1
02/16/06 4:24 p -16.7 -16.7 -16.8 --- --- 27.0 ESE 0.45 28.7 -30.8 --- --- 728.3 0.024 0.000 8.4 3 1
02/16/06 4:25 p -16.7 -16.7 -16.7 --- --- 26.1 ESE 0.43 29.6 -30.7 --- --- 728.3 0.024 0.000 8.4 3 1
02/16/06 4:26 p -16.7 -16.7 -16.7 --- --- 27.0 ESE 0.45 28.7 -30.8 --- --- 728.3 0.024 0.000 8.4 3 1
02/16/06 4:27 p -16.7 -16.7 -16.7 --- --- 26.1 ESE 0.43 28.7 -30.6 --- --- 728.4 0.024 0.000 8.4 3 1
02/16/06 4:28 p -16.6 -16.6 -16.7 --- --- 26.1 ESE 0.43 29.6 -30.5 --- --- 728.5 0.024 0.000 8.4 3 1
02/16/06 4:29 p -16.6 -16.5 -16.6 --- --- 25.2 SE 0.42 29.6 -30.3 --- --- 728.5 0.024 0.000 8.4 3 1
02/16/06 4:30 p -16.4 -16.4 -16.5 --- --- 26.1 SE 0.43 28.7 -30.3 --- --- 728.4 0.024 0.000 8.4 3 1
02/16/06 4:31 p -16.4 -16.3 -16.4 --- --- 28.7 SE 0.48 31.3 -30.7 --- --- 728.4 0.024 0.000 8.4 3 1
02/16/06 4:32 p -16.3 -16.3 -16.3 --- --- 26.1 SE 0.43 27.8 -30.1 --- --- 728.5 0.024 0.000 8.4 3 1
02/16/06 4:33 p -16.2 -16.2 -16.3 --- --- 29.6 SE 0.49 33.9 -30.7 --- --- 728.4 0.024 0.000 8.4 3 1
02/16/06 4:34 p -16.1 -16.1 -16.2 --- --- 28.7 SE 0.48 34.8 -30.3 --- --- 728.6 0.024 0.000 8.4 3 1
02/16/06 4:35 p -16.1 -16.0 -16.1 --- --- 29.6 SE 0.49 33.9 -30.4 --- --- 728.2 0.024 0.000 8.4 3 1
02/16/06 4:36 p -16.0 -15.9 -16.0 --- --- 33.0 SE 0.55 34.8 -30.9 --- --- 728.2 0.024 0.000 8.4 3 1
02/16/06 4:37 p -15.9 -15.9 -15.9 --- --- 33.0 SE 0.55 36.5 -30.9 --- --- 728.3 0.024 0.000 8.4 3 1
02/16/06 4:38 p -15.8 -15.8 -15.9 --- --- 32.2 SE 0.54 35.7 -30.6 --- --- 728.3 0.024 0.000 8.4 3 1
02/16/06 4:39 p -15.8 -15.8 -15.8 --- --- 32.2 SE 0.54 35.7 -30.5 --- --- 728.2 0.024 0.000 8.4 3 1
02/16/06 4:40 p -15.8 -15.7 -15.8 --- --- 33.0 SE 0.55 35.7 -30.6 --- --- 728.2 0.024 0.000 8.4 3 1
02/16/06 4:41 p -15.7 -15.7 -15.8 --- --- 32.2 SE 0.54 34.8 -30.4 --- --- 728.2 0.024 0.000 8.4 3 1
02/16/06 4:42 p -15.7 -15.7 -15.7 --- --- 31.3 SE 0.52 33.9 -30.3 --- --- 728.4 0.024 0.000 8.4 3 1
02/16/06 4:43 p -15.7 -15.7 -15.7 --- --- 31.3 SE 0.52 35.7 -30.3 --- --- 728.3 0.024 0.000 8.4 3 1
02/16/06 4:44 p -15.7 -15.7 -15.7 --- --- 29.6 SE 0.49 33.0 -29.9 --- --- 728.4 0.024 0.000 8.4 3 1
02/16/06 4:45 p -15.7 -15.7 -15.7 --- --- 29.6 SE 0.49 33.9 -29.9 --- --- 728.3 0.024 0.000 8.4 3 1
02/16/06 4:46 p -15.7 -15.7 -15.7 --- --- 30.4 SE 0.51 36.5 -30.1 --- --- 728.3 0.024 0.000 8.4 3 1
02/16/06 4:47 p -15.7 -15.7 -15.7 --- --- 27.8 SE 0.46 31.3 -29.6 --- --- 728.4 0.024 0.000 8.3 3 1
02/16/06 4:48 p -15.7 -15.7 -15.7 --- --- 27.8 SE 0.46 30.4 -29.6 --- --- 728.4 0.024 0.000 8.3 3 1
02/16/06 4:49 p -15.7 -15.7 -15.7 --- --- 29.6 SE 0.49 33.0 -29.9 --- --- 728.4 0.024 0.000 8.4 3 1
02/16/06 4:50 p -15.7 -15.7 -15.7 --- --- 28.7 SE 0.48 32.2 -29.8 --- --- 728.5 0.024 0.000 8.3 3 1
02/16/06 4:51 p -15.7 -15.7 -15.7 --- --- 28.7 SE 0.48 31.3 -29.7 --- --- 728.5 0.024 0.000 8.3 3 1
02/16/06 4:52 p -15.7 -15.7 -15.7 --- --- 27.0 SE 0.45 32.2 -29.4 --- --- 728.5 0.024 0.000 8.3 3 1
02/16/06 4:53 p -15.7 -15.7 -15.7 --- --- 27.8 SE 0.46 32.2 -29.7 --- --- 728.5 0.024 0.000 8.3 3 1
02/16/06 4:54 p -15.7 -15.7 -15.7 --- --- 26.1 SE 0.43 27.8 -29.3 --- --- 728.5 0.024 0.000 8.3 3 1
02/16/06 4:55 p -15.7 -15.7 -15.7 --- --- 27.0 SE 0.45 30.4 -29.4 --- --- 728.5 0.024 0.000 8.3 3 1
02/16/06 4:56 p -15.8 -15.7 -15.8 --- --- 26.1 ESE 0.43 29.6 -29.4 --- --- 728.5 0.024 0.000 8.3 3 1
02/16/06 4:57 p -15.8 -15.7 -15.8 --- --- 24.3 SE 0.41 27.0 -29.0 --- --- 728.6 0.024 0.000 8.3 3 1
02/16/06 4:58 p -15.8 -15.8 -15.8 --- --- 26.1 SE 0.43 28.7 -29.4 --- --- 728.5 0.024 0.000 8.3 3 1
02/16/06 4:59 p -15.7 -15.7 -15.8 --- --- 27.8 SE 0.46 33.0 -29.7 --- --- 728.5 0.024 0.000 8.3 3 1
02/16/06 5:00 p -15.7 -15.7 -15.8 --- --- 28.7 SE 0.48 31.3 -29.8 --- --- 728.6 0.024 0.000 8.3 3 1
02/16/06 5:01 p -15.7 -15.7 -15.7 --- --- 27.0 SE 0.45 30.4 -29.4 --- --- 728.5 0.024 0.000 8.3 3 1
02/16/06 5:02 p -15.7 -15.7 -15.7 --- --- 28.7 SE 0.48 30.4 -29.8 --- --- 728.5 0.024 0.000 8.3 3 1
02/16/06 5:03 p -15.7 -15.7 -15.7 --- --- 27.8 SE 0.46 30.4 -29.7 --- --- 728.6 0.024 0.000 8.3 3 1
02/16/06 5:04 p -15.7 -15.7 -15.7 --- --- 27.8 SE 0.46 30.4 -29.7 --- --- 728.5 0.024 0.000 8.3 3 1
02/16/06 5:05 p -15.7 -15.7 -15.7 --- --- 27.0 SE 0.45 28.7 -29.4 --- --- 728.6 0.024 0.000 8.3 3 1
02/16/06 5:06 p -15.7 -15.7 -15.7 --- --- 28.7 SE 0.48 31.3 -29.8 --- --- 728.6 0.024 0.000 8.3 3 1
02/16/06 5:07 p -15.7 -15.7 -15.7 --- --- 27.0 SE 0.45 29.6 -29.4 --- --- 728.7 0.024 0.000 8.3 3 1
02/16/06 5:08 p -15.7 -15.7 -15.7 --- --- 29.6 SE 0.49 31.3 -29.9 --- --- 728.6 0.024 0.000 8.3 3 1
02/16/06 5:09 p -15.7 -15.7 -15.7 --- --- 27.8 SE 0.46 30.4 -29.6 --- --- 728.6 0.024 0.000 8.3 3 1
02/16/06 5:10 p -15.7 -15.7 -15.7 --- --- 25.2 SE 0.42 27.0 -29.1 --- --- 728.7 0.024 0.000 8.3 3 1
02/16/06 5:11 p -15.7 -15.6 -15.7 --- --- 27.0 SE 0.45 29.6 -29.4 --- --- 728.7 0.024 0.000 8.3 3 1
02/16/06 5:12 p -15.7 -15.6 -15.7 --- --- 25.2 SE 0.42 28.7 -29.1 --- --- 728.7 0.024 0.000 8.2 3 1
02/16/06 5:13 p -15.6 -15.6 -15.6 --- --- 26.1 SE 0.43 27.8 -29.2 --- --- 728.7 0.024 0.000 8.2 3 1
02/16/06 5:14 p -15.6 -15.6 -15.6 --- --- 24.3 SE 0.41 26.1 -28.8 --- --- 728.8 0.024 0.000 8.2 3 1
02/16/06 5:15 p -15.6 -15.6 -15.6 --- --- 25.2 SE 0.42 28.7 -29.0 --- --- 728.8 0.024 0.000 8.2 3 1
02/16/06 5:16 p -15.6 -15.6 -15.6 --- --- 23.5 SE 0.39 27.0 -28.6 --- --- 728.9 0.024 0.000 8.2 3 1
02/16/06 5:17 p -15.6 -15.6 -15.6 --- --- 22.6 SSE 0.38 25.2 -28.4 --- --- 728.9 0.024 0.000 8.2 3 1
02/16/06 5:18 p -15.6 -15.6 -15.6 --- --- 24.3 SSE 0.41 27.0 -28.7 --- --- 728.9 0.024 0.000 8.2 3 1
02/16/06 5:19 p -15.6 -15.6 -15.6 --- --- 23.5 SE 0.39 25.2 -28.6 --- --- 728.9 0.024 0.000 8.2 3 1
02/16/06 5:20 p -15.6 -15.6 -15.6 --- --- 23.5 SE 0.39 25.2 -28.6 --- --- 728.7 0.024 0.000 8.2 3 1
02/16/06 5:21 p -15.6 -15.5 -15.6 --- --- 23.5 SSE 0.39 28.7 -28.6 --- --- 728.8 0.024 0.000 8.2 3 1
02/16/06 5:22 p -15.5 -15.5 -15.5 --- --- 22.6 SSE 0.38 23.5 -28.3 --- --- 728.8 0.023 0.000 8.2 3 1
02/16/06 5:23 p -15.5 -15.5 -15.5 --- --- 22.6 SE 0.38 25.2 -28.3 --- --- 728.7 0.023 0.000 8.2 3 1
02/16/06 5:24 p -15.5 -15.4 -15.5 --- --- 23.5 SE 0.39 27.0 -28.4 --- --- 728.6 0.023 0.000 8.2 3 1
02/16/06 5:25 p -15.4 -15.4 -15.5 --- --- 23.5 SE 0.39 26.1 -28.4 --- --- 728.6 0.023 0.000 8.2 3 1
02/16/06 5:26 p -15.4 -15.4 -15.5 --- --- 24.3 SE 0.41 27.0 -28.6 --- --- 728.5 0.023 0.000 8.2 3 1
02/16/06 5:27 p -15.4 -15.4 -15.4 --- --- 25.2 SE 0.42 27.8 -28.7 --- --- 728.7 0.023 0.000 8.2 3 1
02/16/06 5:28 p -15.4 -15.4 -15.4 --- --- 27.0 SE 0.45 30.4 -29.1 --- --- 728.6 0.023 0.000 8.2 3 1
02/16/06 5:29 p -15.4 -15.4 -15.4 --- --- 25.2 SSE 0.42 30.4 -28.7 --- --- 728.5 0.023 0.000 8.2 3 1
02/16/06 5:30 p -15.4 -15.3 -15.4 --- --- 26.1 SE 0.43 28.7 -28.8 --- --- 728.5 0.023 0.000 8.2 3 1
02/16/06 5:31 p -15.3 -15.3 -15.3 --- --- 28.7 SE 0.48 31.3 -29.3 --- --- 728.4 0.023 0.000 8.2 3 1
02/16/06 5:32 p -15.3 -15.3 -15.3 --- --- 27.0 SE 0.45 28.7 -28.9 --- --- 728.3 0.023 0.000 8.2 3 1
02/16/06 5:33 p -15.3 -15.3 -15.3 --- --- 27.8 SE 0.46 30.4 -29.1 --- --- 728.4 0.023 0.000 8.2 3 1
02/16/06 5:34 p -15.3 -15.3 -15.3 --- --- 29.6 SE 0.49 31.3 -29.4 --- --- 728.3 0.023 0.000 8.2 3 1
02/16/06 5:35 p -15.3 -15.3 -15.3 --- --- 27.8 SE 0.46 32.2 -29.1 --- --- 728.3 0.023 0.000 8.2 3 1
02/16/06 5:36 p -15.3 -15.3 -15.3 --- --- 28.7 SE 0.48 31.3 -29.2 --- --- 728.3 0.023 0.000 8.2 3 1
02/16/06 5:37 p -15.3 -15.3 -15.3 --- --- 30.4 SE 0.51 33.9 -29.5 --- --- 728.2 0.023 0.000 8.2 3 1
02/16/06 5:38 p -15.3 -15.3 -15.3 --- --- 33.0 SE 0.55 35.7 -29.9 --- --- 728.1 0.023 0.000 8.2 3 1
02/16/06 5:39 p -15.2 -15.2 -15.3 --- --- 40.0 SE 0.67 43.5 -30.9 --- --- 727.9 0.023 0.000 8.2 3 1
02/16/06 5:40 p -15.2 -15.1 -15.2 --- --- 36.5 SE 0.61 42.6 -30.3 --- --- 728.3 0.023 0.000 8.2 3 1
02/16/06 5:41 p -15.1 -15.1 -15.1 --- --- 33.0 SSE 0.55 35.7 -29.7 --- --- 728.4 0.023 0.000 8.3 3 1
02/16/06 5:42 p -15.1 -15.1 -15.1 --- --- 31.3 SSE 0.52 33.0 -29.4 --- --- 728.3 0.023 0.000 8.3 3 1
02/16/06 5:43 p -15.1 -15.1 -15.1 --- --- 28.7 SE 0.48 35.7 -28.9 --- --- 728.3 0.023 0.000 8.3 3 1
02/16/06 5:44 p -15.1 -15.1 -15.1 --- --- 38.3 SE 0.64 43.5 -30.4 --- --- 728.0 0.023 0.000 8.3 3 1
02/16/06 5:45 p -15.1 -15.1 -15.1 --- --- 32.2 SE 0.54 34.8 -29.5 --- --- 728.2 0.023 0.000 8.3 3 1
02/16/06 5:46 p -15.1 -15.1 -15.1 --- --- 31.3 SE 0.52 33.9 -29.3 --- --- 728.3 0.023 0.000 8.3 3 1
02/16/06 5:47 p -15.1 -15.1 -15.1 --- --- 31.3 SE 0.52 33.9 -29.3 --- --- 728.3 0.023 0.000 8.3 3 1
02/16/06 5:48 p -15.1 -15.1 -15.1 --- --- 30.4 SE 0.51 35.7 -29.2 --- --- 728.3 0.023 0.000 8.3 3 1
02/16/06 5:49 p -15.1 -15.1 -15.1 --- --- 31.3 ESE 0.52 34.8 -29.3 --- --- 728.1 0.023 0.000 8.3 3 1
02/16/06 5:50 p -15.1 -15.1 -15.1 --- --- 30.4 SE 0.51 35.7 -29.2 --- --- 728.2 0.023 0.000 8.2 3 1
02/16/06 5:51 p -15.1 -15.1 -15.1 --- --- 31.3 SE 0.52 36.5 -29.3 --- --- 728.0 0.023 0.000 8.2 3 1
02/16/06 5:52 p -15.1 -15.1 -15.1 --- --- 31.3 SE 0.52 34.8 -29.3 --- --- 728.1 0.023 0.000 8.2 3 1
02/16/06 5:53 p -15.1 -15.1 -15.1 --- --- 33.0 SE 0.55 36.5 -29.6 --- --- 728.0 0.023 0.000 8.2 3 1
02/16/06 5:54 p -15.1 -15.1 -15.1 --- --- 32.2 SE 0.54 35.7 -29.6 --- --- 728.0 0.023 0.000 8.2 3 1
02/16/06 5:55 p -15.1 -15.1 -15.1 --- --- 35.7 SE 0.59 40.9 -30.1 --- --- 727.9 0.023 0.000 8.2 3 1
02/16/06 5:56 p -15.1 -15.1 -15.1 --- --- 36.5 SE 0.61 40.9 -30.2 --- --- 728.0 0.023 0.000 8.2 3 1
02/16/06 5:57 p -15.1 -15.1 -15.1 --- --- 36.5 SE 0.61 43.5 -30.2 --- --- 727.9 0.023 0.000 8.2 3 1
02/16/06 5:58 p -15.0 -15.0 -15.1 --- --- 31.3 SE 0.52 34.8 -29.3 --- --- 728.0 0.023 0.000 8.2 3 1
02/16/06 5:59 p -15.0 -15.0 -15.1 --- --- 33.9 ESE 0.57 39.1 -29.7 --- --- 728.1 0.023 0.000 8.2 3 1
02/16/06 6:00 p -15.0 -15.0 -15.0 --- --- 33.9 SE 0.57 37.4 -29.7 --- --- 727.9 0.023 0.000 8.2 3 1
02/16/06 6:01 p -15.0 -15.0 -15.0 --- --- 33.9 SE 0.57 41.7 -29.7 --- --- 727.8 0.023 0.000 8.2 3 1
02/16/06 6:02 p -15.0 -15.0 -15.0 --- --- 33.9 SE 0.57 38.3 -29.7 --- --- 727.9 0.023 0.000 8.2 3 1
02/16/06 6:03 p -14.9 -14.9 -14.9 --- --- 31.3 SE 0.52 34.8 -29.2 --- --- 728.0 0.023 0.000 8.2 3 1
02/16/06 6:04 p -14.9 -14.9 -14.9 --- --- 31.3 SE 0.52 33.9 -29.2 --- --- 728.0 0.023 0.000 8.2 3 1
02/16/06 6:05 p -14.9 -14.9 -14.9 --- --- 33.0 SE 0.55 39.1 -29.5 --- --- 727.9 0.023 0.000 8.2 3 1
02/16/06 6:06 p -14.9 -14.9 -14.9 --- --- 36.5 SE 0.61 40.9 -29.9 --- --- 727.9 0.023 0.000 8.2 3 1
02/16/06 6:07 p -14.9 -14.9 -14.9 --- --- 32.2 SE 0.54 36.5 -29.3 --- --- 727.9 0.023 0.000 8.2 3 1
02/16/06 6:08 p -14.8 -14.8 -14.9 --- --- 31.3 SE 0.52 34.8 -29.1 --- --- 728.0 0.023 0.000 8.2 3 1
02/16/06 6:09 p -14.9 -14.9 -14.9 --- --- 27.8 ESE 0.46 31.3 -28.5 --- --- 728.0 0.023 0.000 8.2 3 1
02/16/06 6:10 p -14.9 -14.9 -14.9 --- --- 27.8 ESE 0.46 29.6 -28.5 --- --- 728.0 0.023 0.000 8.2 3 1
02/16/06 6:11 p -14.9 -14.9 -14.9 --- --- 26.1 ESE 0.43 27.8 -28.2 --- --- 728.0 0.023 0.000 8.2 3 1
02/16/06 6:12 p -15.0 -15.0 -15.0 --- --- 27.0 ESE 0.45 28.7 -28.5 --- --- 728.1 0.023 0.000 8.2 3 1
02/16/06 6:13 p -15.1 -15.1 -15.1 --- --- 27.8 ESE 0.46 33.0 -28.7 --- --- 728.0 0.023 0.000 8.2 3 1
02/16/06 6:14 p -15.1 -15.1 -15.1 --- --- 30.4 ESE 0.51 38.3 -29.3 --- --- 728.0 0.023 0.000 8.2 3 1
02/16/06 6:15 p -15.2 -15.2 -15.2 --- --- 29.6 SE 0.49 33.9 -29.2 --- --- 728.1 0.023 0.000 8.2 3 1
02/16/06 6:16 p -15.1 -15.1 -15.2 --- --- 28.7 SE 0.48 33.0 -28.9 --- --- 728.2 0.023 0.000 8.2 3 1
02/16/06 6:17 p -15.1 -15.1 -15.1 --- --- 30.4 ESE 0.51 34.8 -29.3 --- --- 728.1 0.023 0.000 8.2 3 1
02/16/06 6:18 p -15.1 -15.1 -15.1 --- --- 28.7 SE 0.48 33.0 -28.9 --- --- 728.0 0.023 0.000 8.2 3 1
02/16/06 6:19 p -15.1 -15.1 -15.1 --- --- 32.2 SE 0.54 37.4 -29.5 --- --- 728.0 0.023 0.000 8.2 3 1
02/16/06 6:20 p -15.1 -15.0 -15.1 --- --- 33.0 SE 0.55 36.5 -29.6 --- --- 728.1 0.023 0.000 8.2 3 1
02/16/06 6:21 p -15.0 -15.0 -15.0 --- --- 29.6 SE 0.49 33.0 -28.9 --- --- 728.1 0.023 0.000 8.2 3 1
02/16/06 6:22 p -14.9 -14.9 -14.9 --- --- 29.6 SE 0.49 35.7 -28.9 --- --- 728.2 0.023 0.000 8.2 3 1
02/16/06 6:23 p -14.9 -14.9 -14.9 --- --- 27.0 ESE 0.45 29.6 -28.3 --- --- 728.1 0.023 0.000 8.2 3 1
02/16/06 6:24 p -14.9 -14.9 -14.9 --- --- 29.6 ESE 0.49 34.8 -28.8 --- --- 728.1 0.023 0.000 8.2 3 1
02/16/06 6:25 p -14.9 -14.9 -14.9 --- --- 30.4 SE 0.51 34.8 -28.9 --- --- 728.0 0.023 0.000 8.2 3 1
02/16/06 6:26 p -14.9 -14.9 -14.9 --- --- 33.0 SE 0.55 37.4 -29.4 --- --- 727.9 0.023 0.000 8.2 3 1
02/16/06 6:27 p -14.9 -14.9 -14.9 --- --- 30.4 ESE 0.51 33.0 -28.9 --- --- 728.0 0.023 0.000 8.2 3 1
02/16/06 6:28 p -14.9 -14.9 -14.9 --- --- 31.3 ESE 0.52 36.5 -29.1 --- --- 727.8 0.023 0.000 8.2 3 1
02/16/06 6:29 p -14.9 -14.9 -14.9 --- --- 31.3 ESE 0.52 33.9 -29.1 --- --- 728.0 0.023 0.000 8.2 3 1
02/16/06 6:30 p -14.9 -14.9 -14.9 --- --- 29.6 SE 0.49 31.3 -28.8 --- --- 728.1 0.023 0.000 8.2 3 1
02/16/06 6:31 p -14.9 -14.9 -14.9 --- --- 27.8 ESE 0.46 28.7 -28.5 --- --- 727.9 0.023 0.000 8.2 3 1
02/16/06 6:32 p -14.9 -14.9 -14.9 --- --- 32.2 ESE 0.54 35.7 -29.3 --- --- 728.0 0.023 0.000 8.1 3 1
02/16/06 6:33 p -14.9 -14.9 -14.9 --- --- 29.6 ESE 0.49 33.9 -28.9 --- --- 728.2 0.023 0.000 8.1 3 1
02/16/06 6:34 p -14.9 -14.9 -14.9 --- --- 28.7 ESE 0.48 32.2 -28.7 --- --- 728.1 0.023 0.000 8.1 3 1
02/16/06 6:35 p -14.9 -14.9 -14.9 --- --- 27.0 ESE 0.45 28.7 -28.3 --- --- 728.2 0.023 0.000 8.1 3 1
02/16/06 6:36 p -14.9 -14.9 -14.9 --- --- 27.0 ESE 0.45 32.2 -28.4 --- --- 728.2 0.023 0.000 8.1 3 1
02/16/06 6:37 p -14.9 -14.9 -14.9 --- --- 27.8 SE 0.46 30.4 -28.6 --- --- 728.2 0.023 0.000 8.1 3 1
02/16/06 6:38 p -14.9 -14.9 -14.9 --- --- 31.3 SE 0.52 36.5 -29.1 --- --- 728.1 0.023 0.000 8.1 3 1
02/16/06 6:39 p -14.8 -14.8 -14.8 --- --- 29.6 SE 0.49 32.2 -28.7 --- --- 728.1 0.023 0.000 8.1 3 1
02/16/06 6:40 p -14.8 -14.8 -14.8 --- --- 28.7 SE 0.48 32.2 -28.6 --- --- 728.1 0.023 0.000 8.1 3 1
02/16/06 6:41 p -14.8 -14.8 -14.8 --- --- 28.7 SE 0.48 32.2 -28.5 --- --- 728.2 0.023 0.000 8.1 3 1
02/16/06 6:42 p -14.7 -14.7 -14.8 --- --- 26.1 SE 0.43 33.9 -27.9 --- --- 728.2 0.023 0.000 8.1 3 1
02/16/06 6:43 p -14.7 -14.7 -14.7 --- --- 27.0 SE 0.45 28.7 -28.1 --- --- 728.3 0.023 0.000 8.1 3 1
02/16/06 6:44 p -14.7 -14.7 -14.7 --- --- 23.5 SE 0.39 27.0 -27.3 --- --- 728.3 0.023 0.000 8.1 3 1
02/16/06 6:45 p -14.7 -14.7 -14.7 --- --- 26.1 ESE 0.43 29.6 -27.9 --- --- 728.2 0.023 0.000 8.1 3 1
02/16/06 6:46 p -14.7 -14.7 -14.7 --- --- 26.1 ESE 0.43 30.4 -27.9 --- --- 728.2 0.023 0.000 8.1 3 1
02/16/06 6:47 p -14.7 -14.7 -14.7 --- --- 27.8 ESE 0.46 33.0 -28.2 --- --- 728.2 0.023 0.000 8.1 3 1
02/16/06 6:48 p -14.7 -14.7 -14.7 --- --- 27.8 SE 0.46 33.9 -28.2 --- --- 728.0 0.023 0.000 8.1 3 1
02/16/06 6:49 p -14.7 -14.7 -14.7 --- --- 27.8 SE 0.46 32.2 -28.2 --- --- 728.2 0.023 0.000 8.1 3 1
02/16/06 6:50 p -14.6 -14.6 -14.7 --- --- 28.7 SE 0.48 32.2 -28.3 --- --- 728.1 0.023 0.000 8.1 3 1
02/16/06 6:51 p -14.6 -14.6 -14.6 --- --- 29.6 ESE 0.49 31.3 -28.3 --- --- 728.1 0.023 0.000 8.1 3 1
02/16/06 6:52 p -14.6 -14.5 -14.6 --- --- 27.8 ESE 0.46 33.0 -28.1 --- --- 728.1 0.023 0.000 8.1 3 1
02/16/06 6:53 p -14.5 -14.5 -14.5 --- --- 27.8 SE 0.46 32.2 -27.9 --- --- 728.1 0.023 0.000 8.1 3 1
02/16/06 6:54 p -14.5 -14.4 -14.5 --- --- 28.7 SE 0.48 32.2 -28.1 --- --- 728.0 0.023 0.000 8.1 3 1
02/16/06 6:55 p -14.4 -14.4 -14.4 --- --- 29.6 SE 0.49 32.2 -28.2 --- --- 728.0 0.023 0.000 8.1 3 1
02/16/06 6:56 p -14.4 -14.4 -14.4 --- --- 32.2 SE 0.54 38.3 -28.6 --- --- 728.0 0.023 0.000 8.1 3 1
02/16/06 6:57 p -14.4 -14.3 -14.4 --- --- 30.4 SE 0.51 34.8 -28.3 --- --- 728.0 0.023 0.000 8.1 3 1
02/16/06 6:58 p -14.3 -14.3 -14.3 --- --- 31.3 SE 0.52 38.3 -28.3 --- --- 728.0 0.023 0.000 8.1 3 1
02/16/06 6:59 p -14.3 -14.3 -14.3 --- --- 29.6 SE 0.49 33.9 -28.1 --- --- 728.1 0.023 0.000 8.1 3 1
02/16/06 7:00 p -14.3 -14.3 -14.3 --- --- 28.7 SE 0.48 34.8 -27.9 --- --- 728.2 0.023 0.000 8.1 3 1
02/16/06 7:01 p -14.3 -14.3 -14.3 --- --- 27.8 SE 0.46 29.6 -27.7 --- --- 728.1 0.023 0.000 8.1 3 1
02/16/06 7:02 p -14.3 -14.3 -14.3 --- --- 29.6 SE 0.49 33.9 -28.1 --- --- 728.1 0.023 0.000 8.1 3 1
02/16/06 7:03 p -14.3 -14.3 -14.3 --- --- 28.7 SE 0.48 32.2 -27.9 --- --- 728.0 0.023 0.000 8.1 3 1
02/16/06 7:04 p -14.3 -14.3 -14.3 --- --- 30.4 SE 0.51 35.7 -28.1 --- --- 728.1 0.023 0.000 8.1 4 1
02/16/06 7:05 p -14.3 -14.3 -14.3 --- --- 27.8 SE 0.46 32.2 -27.7 --- --- 728.1 0.023 0.000 8.1 3 1
02/16/06 7:06 p -14.3 -14.2 -14.3 --- --- 29.6 SE 0.49 33.0 -28.0 --- --- 728.2 0.023 0.000 8.1 4 1
02/16/06 7:07 p -14.2 -14.2 -14.2 --- --- 25.2 SE 0.42 31.3 -27.1 --- --- 728.1 0.023 0.000 8.1 3 1
02/16/06 7:08 p -14.2 -14.2 -14.2 --- --- 26.1 SE 0.43 32.2 -27.3 --- --- 728.0 0.023 0.000 8.1 3 1
02/16/06 7:09 p -14.2 -14.2 -14.2 --- --- 26.1 ESE 0.43 32.2 -27.2 --- --- 728.0 0.023 0.000 8.1 3 1
02/16/06 7:10 p -14.2 -14.2 -14.2 --- --- 28.7 ESE 0.48 32.2 -27.7 --- --- 728.0 0.023 0.000 8.1 3 1
02/16/06 7:11 p -14.2 -14.2 -14.2 --- --- 27.8 ESE 0.46 29.6 -27.5 --- --- 728.1 0.023 0.000 8.1 3 1
02/16/06 7:12 p -14.2 -14.2 -14.2 --- --- 27.0 ESE 0.45 30.4 -27.3 --- --- 727.9 0.023 0.000 8.1 3 1
02/16/06 7:13 p -14.2 -14.2 -14.2 --- --- 27.0 ESE 0.45 30.4 -27.3 --- --- 727.9 0.023 0.000 8.1 3 1
02/16/06 7:14 p -14.2 -14.2 -14.2 --- --- 26.1 ESE 0.43 30.4 -27.2 --- --- 728.0 0.023 0.000 8.1 3 1
02/16/06 7:15 p -14.2 -14.2 -14.2 --- --- 26.1 ESE 0.43 33.0 -27.2 --- --- 728.0 0.023 0.000 8.1 3 1
02/16/06 7:16 p -14.2 -14.2 -14.2 --- --- 23.5 E 0.39 30.4 -26.7 --- --- 728.0 0.023 0.000 8.1 3 1
02/16/06 7:17 p -14.2 -14.2 -14.2 --- --- 23.5 ESE 0.39 28.7 -26.7 --- --- 728.1 0.023 0.000 8.1 3 1
02/16/06 7:18 p -14.2 -14.2 -14.2 --- --- 23.5 ESE 0.39 31.3 -26.7 --- --- 727.9 0.023 0.000 8.1 3 1
02/16/06 7:19 p -14.2 -14.2 -14.2 --- --- 20.0 ESE 0.33 24.3 -25.9 --- --- 728.0 0.023 0.000 8.0 3 1
02/16/06 7:20 p -14.2 -14.2 -14.2 --- --- 22.6 ESE 0.38 30.4 -26.6 --- --- 727.9 0.023 0.000 8.0 3 1
02/16/06 7:21 p -14.2 -14.2 -14.2 --- --- 25.2 ESE 0.42 33.0 -27.1 --- --- 727.8 0.023 0.000 8.0 3 1
02/16/06 7:22 p -14.2 -14.2 -14.2 --- --- 24.3 ESE 0.41 28.7 -26.9 --- --- 727.8 0.023 0.000 8.0 3 1
02/16/06 7:23 p -14.2 -14.2 -14.2 --- --- 23.5 ESE 0.39 31.3 -26.7 --- --- 727.8 0.023 0.000 8.0 3 1
02/16/06 7:24 p -14.2 -14.2 -14.2 --- --- 29.6 ESE 0.49 35.7 -27.9 --- --- 727.9 0.023 0.000 8.0 3 1
02/16/06 7:25 p -14.2 -14.2 -14.2 --- --- 22.6 ESE 0.38 26.1 -26.5 --- --- 728.1 0.023 0.000 8.0 3 1
02/16/06 7:26 p -14.2 -14.2 -14.2 --- --- 21.7 ESE 0.36 26.1 -26.3 --- --- 728.2 0.023 0.000 8.1 3 1
02/16/06 7:27 p -14.2 -14.2 -14.2 --- --- 22.6 ESE 0.38 28.7 -26.5 --- --- 728.1 0.023 0.000 8.1 3 1
02/16/06 7:28 p -14.2 -14.2 -14.2 --- --- 24.3 ESE 0.41 30.4 -26.8 --- --- 728.3 0.023 0.000 8.1 3 1
02/16/06 7:29 p -14.2 -14.2 -14.2 --- --- 22.6 SE 0.38 31.3 -26.6 --- --- 728.4 0.023 0.000 8.0 3 1
02/16/06 7:30 p -14.2 -14.2 -14.2 --- --- 19.1 ESE 0.32 28.7 -25.7 --- --- 728.2 0.023 0.000 8.1 3 1
02/16/06 7:31 p -14.1 -14.1 -14.2 --- --- 26.1 SSE 0.43 33.9 -27.1 --- --- 728.2 0.023 0.000 8.1 3 1
02/16/06 7:32 p -14.1 -14.1 -14.1 --- --- 27.8 SE 0.46 39.1 -27.4 --- --- 728.0 0.023 0.000 8.1 3 1
02/16/06 7:33 p -14.0 -13.9 -14.1 --- --- 31.3 SSE 0.52 40.0 -27.9 --- --- 728.1 0.022 0.000 8.1 4 1
02/16/06 7:34 p -13.9 -13.8 -13.9 --- --- 31.3 SSE 0.52 40.9 -27.7 --- --- 727.9 0.022 0.000 8.1 4 1
02/16/06 7:35 p -13.8 -13.7 -13.8 --- --- 29.6 SSE 0.49 36.5 -27.3 --- --- 727.8 0.022 0.000 8.2 4 1
02/16/06 7:36 p -13.7 -13.6 -13.7 --- --- 31.3 SSE 0.52 36.5 -27.4 --- --- 727.7 0.022 0.000 8.2 4 1
02/16/06 7:37 p -13.6 -13.5 -13.6 --- --- 33.9 SSE 0.57 41.7 -27.7 --- --- 727.8 0.022 0.000 8.2 4 1
02/16/06 7:38 p -13.5 -13.4 -13.5 --- --- 31.3 SSE 0.52 38.3 -27.2 --- --- 727.6 0.022 0.000 8.2 4 1
02/16/06 7:39 p -13.3 -13.3 -13.4 --- --- 33.0 SSE 0.55 39.1 -27.2 --- --- 727.6 0.022 0.000 8.2 4 1
02/16/06 7:40 p -13.3 -13.2 -13.3 --- --- 30.4 SSE 0.51 33.9 -26.8 --- --- 727.8 0.022 0.000 8.3 4 1
02/16/06 7:41 p -13.2 -13.2 -13.2 --- --- 30.4 SSE 0.51 37.4 -26.6 --- --- 727.7 0.022 0.000 8.3 4 1
02/16/06 7:42 p -13.1 -13.1 -13.2 --- --- 37.4 SSE 0.62 42.6 -27.6 --- --- 727.6 0.022 0.000 8.3 4 1
02/16/06 7:43 p -13.1 -13.1 -13.1 --- --- 35.7 SSE 0.59 43.5 -27.3 --- --- 727.5 0.022 0.000 8.3 4 1
02/16/06 7:44 p -13.0 -13.0 -13.1 --- --- 32.2 SSE 0.54 38.3 -26.7 --- --- 727.4 0.022 0.000 8.3 4 1
02/16/06 7:45 p -12.9 -12.9 -12.9 --- --- 33.0 SSE 0.55 40.0 -26.7 --- --- 727.6 0.022 0.000 8.3 4 1
02/16/06 7:46 p -12.9 -12.8 -12.9 --- --- 33.0 S 0.55 39.1 -26.6 --- --- 727.6 0.022 0.000 8.3 4 1
02/16/06 7:47 p -12.8 -12.8 -12.9 --- --- 32.2 SSE 0.54 34.8 -26.4 --- --- 727.5 0.022 0.000 8.3 4 1
02/16/06 7:48 p -12.8 -12.8 -12.8 --- --- 34.8 SSE 0.58 40.9 -26.7 --- --- 727.5 0.022 0.000 8.3 4 1
02/16/06 7:49 p -12.8 -12.8 -12.8 --- --- 32.2 SSE 0.54 37.4 -26.3 --- --- 727.4 0.022 0.000 8.3 4 1
02/16/06 7:50 p -12.7 -12.7 -12.8 --- --- 33.0 SSE 0.55 35.7 -26.4 --- --- 727.5 0.022 0.000 8.2 4 1
02/16/06 7:51 p -12.7 -12.7 -12.7 --- --- 33.0 SSE 0.55 38.3 -26.4 --- --- 727.6 0.022 0.000 8.2 4 1
02/16/06 7:52 p -12.7 -12.7 -12.7 --- --- 33.9 SSE 0.57 39.1 -26.6 --- --- 727.4 0.022 0.000 8.2 4 1
02/16/06 7:53 p -12.7 -12.6 -12.7 --- --- 33.9 SSE 0.57 41.7 -26.4 --- --- 727.4 0.022 0.000 8.2 4 1
02/16/06 7:54 p -12.7 -12.7 -12.7 --- --- 34.8 SSE 0.58 39.1 -26.6 --- --- 727.5 0.022 0.000 8.2 4 1
02/16/06 7:55 p -12.6 -12.6 -12.6 --- --- 35.7 SSE 0.59 43.5 -26.6 --- --- 727.4 0.021 0.000 8.2 4 1
02/16/06 7:56 p -12.6 -12.6 -12.6 --- --- 33.9 SSE 0.57 40.0 -26.4 --- --- 727.5 0.021 0.000 8.2 4 1
02/16/06 7:57 p -12.6 -12.6 -12.6 --- --- 33.0 SSE 0.55 40.0 -26.2 --- --- 727.5 0.021 0.000 8.2 4 1
02/16/06 7:58 p -12.6 -12.6 -12.6 --- --- 34.8 SSE 0.58 39.1 -26.4 --- --- 727.4 0.021 0.000 8.1 4 1
02/16/06 7:59 p -12.6 -12.5 -12.6 --- --- 33.9 SSE 0.57 40.0 -26.3 --- --- 727.6 0.021 0.000 8.1 4 1
02/16/06 8:00 p -12.5 -12.5 -12.6 --- --- 33.0 SSE 0.55 40.0 -26.1 --- --- 727.7 0.021 0.000 8.1 4 1
02/16/06 8:01 p -12.5 -12.5 -12.6 --- --- 33.9 SSE 0.57 42.6 -26.2 --- --- 727.4 0.021 0.000 8.1 4 1
02/16/06 8:02 p -12.5 -12.4 -12.5 --- --- 32.2 SSE 0.54 40.9 -25.9 --- --- 727.5 0.021 0.000 8.1 4 1
02/16/06 8:03 p -12.4 -12.4 -12.4 --- --- 33.0 SSE 0.55 41.7 -26.0 --- --- 727.5 0.021 0.000 8.1 4 1
02/16/06 8:04 p -12.4 -12.4 -12.4 --- --- 33.9 SSE 0.57 46.1 -26.2 --- --- 727.5 0.021 0.000 8.1 4 1
02/16/06 8:05 p -12.4 -12.4 -12.4 --- --- 34.8 SSE 0.58 40.9 -26.3 --- --- 727.4 0.021 0.000 8.1 4 1
02/16/06 8:06 p -12.4 -12.4 -12.4 --- --- 35.7 SSE 0.59 40.9 -26.4 --- --- 727.5 0.021 0.000 8.1 4 1
02/16/06 8:07 p -12.4 -12.4 -12.4 --- --- 33.9 SSE 0.57 42.6 -26.2 --- --- 727.6 0.021 0.000 8.1 4 1
02/16/06 8:08 p -12.4 -12.4 -12.4 --- --- 35.7 SSE 0.59 40.9 -26.3 --- --- 727.3 0.021 0.000 8.1 4 1
02/16/06 8:09 p -12.4 -12.3 -12.4 --- --- 33.9 SSE 0.57 38.3 -26.1 --- --- 727.5 0.021 0.000 8.1 4 1
02/16/06 8:10 p -12.3 -12.3 -12.4 --- --- 34.8 SSE 0.58 40.9 -26.1 --- --- 727.5 0.021 0.000 8.1 4 1
02/16/06 8:11 p -12.4 -12.3 -12.4 --- --- 34.8 SSE 0.58 40.0 -26.2 --- --- 727.4 0.021 0.000 8.1 4 1
02/16/06 8:12 p -12.3 -12.3 -12.4 --- --- 37.4 SSE 0.62 42.6 -26.5 --- --- 727.3 0.021 0.000 8.1 4 1
02/16/06 8:13 p -12.3 -12.3 -12.4 --- --- 36.5 SSE 0.61 41.7 -26.4 --- --- 727.4 0.021 0.000 8.1 4 1
02/16/06 8:14 p -12.3 -12.3 -12.4 --- --- 33.0 SSE 0.55 40.9 -25.9 --- --- 727.4 0.021 0.000 8.1 4 1
02/16/06 8:15 p -12.3 -12.3 -12.4 --- --- 34.8 SSE 0.58 40.0 -26.1 --- --- 727.4 0.021 0.000 8.1 4 1
02/16/06 8:16 p -12.3 -12.3 -12.4 --- --- 39.1 SSE 0.65 44.3 -26.7 --- --- 727.4 0.021 0.000 8.1 4 1
02/16/06 8:17 p -12.3 -12.3 -12.4 --- --- 35.7 SSE 0.59 46.1 -26.2 --- --- 727.3 0.021 0.000 8.1 4 1
02/16/06 8:18 p -12.3 -12.3 -12.4 --- --- 34.8 SSE 0.58 38.3 -26.1 --- --- 727.4 0.021 0.000 8.1 4 1
02/16/06 8:19 p -12.3 -12.3 -12.4 --- --- 35.7 SSE 0.59 41.7 -26.2 --- --- 727.5 0.021 0.000 8.1 4 1
02/16/06 8:20 p -12.3 -12.3 -12.4 --- --- 32.2 SSE 0.54 38.3 -25.7 --- --- 727.5 0.021 0.000 8.1 4 1
02/16/06 8:21 p -12.3 -12.3 -12.3 --- --- 33.0 SSE 0.55 36.5 -25.9 --- --- 727.5 0.021 0.000 8.1 4 1
02/16/06 8:22 p -12.3 -12.3 -12.4 --- --- 33.0 SSE 0.55 38.3 -25.9 --- --- 727.6 0.021 0.000 8.0 4 1
02/16/06 8:23 p -12.3 -12.3 -12.4 --- --- 33.0 SSE 0.55 38.3 -25.9 --- --- 727.4 0.021 0.000 8.1 4 1
02/16/06 8:24 p -12.3 -12.3 -12.3 --- --- 36.5 SSE 0.61 40.0 -26.4 --- --- 727.5 0.021 0.000 8.0 4 1
02/16/06 8:25 p -12.3 -12.3 -12.3 --- --- 31.3 SSE 0.52 42.6 -25.5 --- --- 727.5 0.021 0.000 8.0 4 1
02/16/06 8:26 p -12.3 -12.3 -12.3 --- --- 34.8 SSE 0.58 39.1 -26.1 --- --- 727.3 0.021 0.000 8.0 4 1
02/16/06 8:27 p -12.3 -12.3 -12.3 --- --- 35.7 SSE 0.59 40.9 -26.2 --- --- 727.4 0.021 0.000 8.0 4 1
02/16/06 8:28 p -12.3 -12.3 -12.3 --- --- 30.4 SSE 0.51 39.1 -25.4 --- --- 727.3 0.021 0.000 8.0 4 1
02/16/06 8:29 p -12.3 -12.3 -12.3 --- --- 33.9 SSE 0.57 37.4 -26.0 --- --- 727.4 0.021 0.000 8.0 4 1
02/16/06 8:30 p -12.3 -12.3 -12.3 --- --- 33.9 SSE 0.57 41.7 -25.9 --- --- 727.4 0.021 0.000 8.0 4 1
02/16/06 8:31 p -12.3 -12.3 -12.3 --- --- 34.8 SSE 0.58 42.6 -26.1 --- --- 727.3 0.021 0.000 8.0 4 1
02/16/06 8:32 p -12.3 -12.3 -12.3 --- --- 35.7 SSE 0.59 42.6 -26.2 --- --- 727.4 0.021 0.000 8.0 4 1
02/16/06 8:33 p -12.3 -12.3 -12.3 --- --- 33.9 SSE 0.57 39.1 -25.9 --- --- 727.3 0.021 0.000 7.9 4 1
02/16/06 8:34 p -12.3 -12.2 -12.3 --- --- 38.3 SSE 0.64 47.8 -26.6 --- --- 727.4 0.021 0.000 7.9 4 1
02/16/06 8:35 p -12.3 -12.2 -12.3 --- --- 35.7 SSE 0.59 39.1 -26.2 --- --- 727.4 0.021 0.000 7.9 4 1
02/16/06 8:36 p -12.2 -12.2 -12.3 --- --- 38.3 SSE 0.64 41.7 -26.4 --- --- 727.2 0.021 0.000 7.9 4 1
02/16/06 8:37 p -12.2 -12.2 -12.3 --- --- 37.4 SSE 0.62 43.5 -26.3 --- --- 727.3 0.021 0.000 7.9 4 1
02/16/06 8:38 p -12.2 -12.2 -12.3 --- --- 37.4 SSE 0.62 40.9 -26.3 --- --- 727.2 0.021 0.000 7.9 4 1
02/16/06 8:39 p -12.2 -12.2 -12.2 --- --- 36.5 SSE 0.61 41.7 -26.2 --- --- 727.4 0.021 0.000 7.9 4 1
02/16/06 8:40 p -12.2 -12.2 -12.2 --- --- 37.4 SSE 0.62 45.2 -26.3 --- --- 727.3 0.021 0.000 7.9 4 1
02/16/06 8:41 p -12.2 -12.1 -12.2 --- --- 33.9 SSE 0.57 41.7 -25.8 --- --- 727.4 0.021 0.000 7.9 4 1
02/16/06 8:42 p -12.1 -12.1 -12.2 --- --- 34.8 SSE 0.58 37.4 -25.8 --- --- 727.2 0.021 0.000 7.9 4 1
02/16/06 8:43 p -12.1 -12.1 -12.1 --- --- 33.9 SSE 0.57 39.1 -25.7 --- --- 727.2 0.021 0.000 7.9 4 1
02/16/06 8:44 p -12.1 -12.1 -12.1 --- --- 34.8 SSE 0.58 40.9 -25.8 --- --- 727.3 0.021 0.000 7.9 4 1
02/16/06 8:45 p -12.1 -12.1 -12.1 --- --- 30.4 SSE 0.51 37.4 -25.1 --- --- 727.2 0.021 0.000 7.9 4 1
02/16/06 8:46 p -12.1 -12.1 -12.1 --- --- 33.9 SSE 0.57 40.9 -25.6 --- --- 727.3 0.021 0.000 7.9 4 1
02/16/06 8:47 p -12.1 -12.1 -12.1 --- --- 34.8 SSE 0.58 40.0 -25.7 --- --- 727.3 0.021 0.000 7.9 4 1
02/16/06 8:48 p -12.1 -12.1 -12.1 --- --- 35.7 SSE 0.59 40.0 -25.8 --- --- 727.2 0.021 0.000 7.9 4 1
02/16/06 8:49 p -12.1 -12.1 -12.1 --- --- 33.9 SSE 0.57 39.1 -25.6 --- --- 727.3 0.021 0.000 7.9 4 1
02/16/06 8:50 p -12.1 -12.1 -12.1 --- --- 32.2 SSE 0.54 40.0 -25.3 --- --- 727.3 0.021 0.000 7.9 4 1
02/16/06 8:51 p -12.1 -12.0 -12.1 --- --- 33.9 SSE 0.57 40.0 -25.6 --- --- 727.2 0.021 0.000 7.9 4 1
02/16/06 8:52 p -12.0 -12.0 -12.1 --- --- 34.8 SSE 0.58 43.5 -25.7 --- --- 727.3 0.021 0.000 7.9 4 1
02/16/06 8:53 p -12.0 -12.0 -12.1 --- --- 36.5 SSE 0.61 42.6 -25.9 --- --- 727.3 0.021 0.000 7.9 4 1
02/16/06 8:54 p -12.1 -12.0 -12.1 --- --- 33.0 SSE 0.55 39.1 -25.5 --- --- 727.3 0.021 0.000 7.8 4 1
02/16/06 8:55 p -12.1 -12.0 -12.1 --- --- 33.9 SSE 0.57 40.0 -25.6 --- --- 727.3 0.021 0.000 7.9 4 1
02/16/06 8:56 p -12.1 -12.1 -12.1 --- --- 35.7 SSE 0.59 41.7 -25.8 --- --- 727.2 0.021 0.000 7.9 4 1
02/16/06 8:57 p -12.1 -12.1 -12.1 --- --- 36.5 SSE 0.61 42.6 -26.0 --- --- 727.2 0.021 0.000 7.8 4 1
02/16/06 8:58 p -12.1 -12.1 -12.1 --- --- 34.8 SSE 0.58 39.1 -25.7 --- --- 727.3 0.021 0.000 7.9 4 1
02/16/06 8:59 p -12.1 -12.0 -12.1 --- --- 37.4 SSE 0.62 42.6 -26.1 --- --- 727.4 0.021 0.000 7.9 4 1
02/16/06 9:00 p -12.1 -12.1 -12.1 --- --- 33.9 SSE 0.57 38.3 -25.6 --- --- 727.3 0.021 0.000 7.9 4 1
02/16/06 9:01 p -12.1 -12.0 -12.1 --- --- 33.9 SSE 0.57 42.6 -25.6 --- --- 727.3 0.021 0.000 7.9 4 1
02/16/06 9:02 p -12.1 -12.0 -12.1 --- --- 34.8 SSE 0.58 38.3 -25.7 --- --- 727.2 0.021 0.000 7.9 4 1
02/16/06 9:03 p -12.0 -12.0 -12.1 --- --- 35.7 SSE 0.59 43.5 -25.8 --- --- 727.2 0.021 0.000 7.9 4 1
02/16/06 9:04 p -12.0 -12.0 -12.1 --- --- 34.8 SSE 0.58 40.0 -25.7 --- --- 727.2 0.021 0.000 7.9 4 1
02/16/06 9:05 p -12.0 -12.0 -12.1 --- --- 33.9 SSE 0.57 45.2 -25.6 --- --- 727.3 0.021 0.000 7.9 4 1
02/16/06 9:06 p -12.0 -12.0 -12.0 --- --- 34.8 SSE 0.58 40.0 -25.7 --- --- 727.3 0.021 0.000 7.8 4 1
02/16/06 9:07 p -12.0 -12.0 -12.0 --- --- 35.7 SSE 0.59 42.6 -25.8 --- --- 727.2 0.021 0.000 7.9 4 1
02/16/06 9:08 p -12.0 -11.9 -12.0 --- --- 36.5 SSE 0.61 41.7 -25.9 --- --- 727.2 0.021 0.000 7.9 4 1
02/16/06 9:09 p -12.0 -12.0 -12.0 --- --- 36.5 SSE 0.61 41.7 -25.9 --- --- 727.2 0.021 0.000 7.9 4 1
02/16/06 9:10 p -12.0 -11.9 -12.0 --- --- 36.5 SSE 0.61 41.7 -25.9 --- --- 727.3 0.021 0.000 7.8 4 1
02/16/06 9:11 p -11.9 -11.9 -11.9 --- --- 30.4 SSE 0.51 35.7 -24.9 --- --- 727.3 0.021 0.000 7.9 4 1
02/16/06 9:12 p -11.9 -11.9 -11.9 --- --- 33.0 SSE 0.55 39.1 -25.3 --- --- 727.3 0.021 0.000 7.8 4 1
02/16/06 9:13 p -11.9 -11.9 -11.9 --- --- 33.0 SSE 0.55 38.3 -25.2 --- --- 727.3 0.021 0.000 7.8 4 1
02/16/06 9:14 p -11.9 -11.9 -11.9 --- --- 33.9 SSE 0.57 41.7 -25.4 --- --- 727.3 0.021 0.000 7.9 4 1
02/16/06 9:15 p -11.9 -11.9 -11.9 --- --- 33.0 SSE 0.55 36.5 -25.2 --- --- 727.4 0.021 0.000 7.9 4 1
02/16/06 9:16 p -11.9 -11.9 -11.9 --- --- 33.9 SSE 0.57 40.9 -25.4 --- --- 727.4 0.021 0.000 7.8 4 1
02/16/06 9:17 p -11.9 -11.9 -11.9 --- --- 34.8 SSE 0.58 40.9 -25.5 --- --- 727.3 0.021 0.000 7.8 4 1
02/16/06 9:18 p -11.9 -11.9 -11.9 --- --- 33.9 SSE 0.57 42.6 -25.4 --- --- 727.2 0.021 0.000 7.8 4 1
02/16/06 9:19 p -11.9 -11.9 -11.9 --- --- 33.9 SSE 0.57 40.0 -25.4 --- --- 727.3 0.021 0.000 7.8 4 1
02/16/06 9:20 p -11.9 -11.9 -11.9 --- --- 34.8 SSE 0.58 42.6 -25.5 --- --- 727.4 0.021 0.000 7.8 4 1
02/16/06 9:21 p -11.9 -11.9 -11.9 --- --- 33.0 SSE 0.55 37.4 -25.3 --- --- 727.3 0.021 0.000 7.8 4 1
02/16/06 9:22 p -11.9 -11.9 -11.9 --- --- 33.0 SSE 0.55 40.0 -25.3 --- --- 727.4 0.021 0.000 7.8 4 1
02/16/06 9:23 p -11.9 -11.9 -11.9 --- --- 33.0 SSE 0.55 37.4 -25.3 --- --- 727.4 0.021 0.000 7.8 4 1
02/16/06 9:24 p -11.9 -11.9 -11.9 --- --- 33.0 SSE 0.55 38.3 -25.2 --- --- 727.4 0.021 0.000 7.8 4 1
02/16/06 9:25 p -11.9 -11.9 -11.9 --- --- 33.9 SSE 0.57 37.4 -25.4 --- --- 727.4 0.021 0.000 7.8 4 1
02/16/06 9:26 p -11.9 -11.9 -12.0 --- --- 30.4 SSE 0.51 34.8 -24.9 --- --- 727.4 0.021 0.000 7.8 4 1
02/16/06 9:27 p -11.9 -11.9 -12.0 --- --- 31.3 SSE 0.52 36.5 -25.1 --- --- 727.3 0.021 0.000 7.8 4 1
02/16/06 9:28 p -12.0 -12.0 -12.0 --- --- 31.3 SSE 0.52 37.4 -25.1 --- --- 727.3 0.021 0.000 7.8 4 1
02/16/06 9:29 p -12.0 -12.0 -12.1 --- --- 33.9 SSE 0.57 43.5 -25.6 --- --- 727.3 0.021 0.000 7.8 4 1
02/16/06 9:30 p -12.0 -12.0 -12.1 --- --- 33.9 SSE 0.57 40.0 -25.6 --- --- 727.3 0.021 0.000 7.8 4 1
02/16/06 9:31 p -11.9 -11.9 -12.0 --- --- 33.0 S 0.55 39.1 -25.3 --- --- 727.3 0.021 0.000 7.8 4 1
02/16/06 9:32 p -11.9 -11.9 -11.9 --- --- 35.7 SSE 0.59 40.9 -25.7 --- --- 727.1 0.021 0.000 7.8 4 1
02/16/06 9:33 p -11.8 -11.8 -11.9 --- --- 39.1 SSE 0.65 42.6 -26.0 --- --- 727.1 0.021 0.000 7.8 4 1
02/16/06 9:34 p -11.8 -11.8 -11.8 --- --- 38.3 SSE 0.64 44.3 -25.8 --- --- 727.3 0.021 0.000 7.8 4 1
02/16/06 9:35 p -11.8 -11.7 -11.8 --- --- 35.7 SSE 0.59 40.0 -25.4 --- --- 727.2 0.021 0.000 7.8 4 1
02/16/06 9:36 p -11.7 -11.7 -11.8 --- --- 33.9 SSE 0.57 40.9 -25.2 --- --- 727.4 0.021 0.000 7.8 4 1
02/16/06 9:37 p -11.8 -11.7 -11.8 --- --- 34.8 SSE 0.58 40.0 -25.3 --- --- 727.0 0.021 0.000 7.8 4 1
02/16/06 9:38 p -11.7 -11.7 -11.8 --- --- 34.8 SSE 0.58 41.7 -25.3 --- --- 727.1 0.021 0.000 7.8 4 1
02/16/06 9:39 p -11.7 -11.7 -11.8 --- --- 35.7 SSE 0.59 38.3 -25.4 --- --- 727.0 0.021 0.000 7.8 4 1
02/16/06 9:40 p -11.7 -11.7 -11.8 --- --- 33.9 SSE 0.57 45.2 -25.2 --- --- 727.2 0.021 0.000 7.8 4 1
02/16/06 9:41 p -11.8 -11.7 -11.8 --- --- 33.0 SSE 0.55 40.0 -25.1 --- --- 727.2 0.021 0.000 7.8 4 1
02/16/06 9:42 p -11.8 -11.8 -11.8 --- --- 33.9 SSE 0.57 37.4 -25.2 --- --- 727.2 0.021 0.000 7.8 4 1
02/16/06 9:43 p -11.8 -11.8 -11.8 --- --- 33.9 SSE 0.57 39.1 -25.2 --- --- 727.2 0.021 0.000 7.8 4 1
02/16/06 9:44 p -11.8 -11.8 -11.8 --- --- 33.0 SSE 0.55 37.4 -25.2 --- --- 727.3 0.021 0.000 7.8 4 1
02/16/06 9:45 p -11.9 -11.8 -11.9 --- --- 33.0 SSE 0.55 37.4 -25.2 --- --- 727.2 0.021 0.000 7.8 4 1
02/16/06 9:46 p -11.9 -11.9 -11.9 --- --- 34.8 SSE 0.58 40.0 -25.5 --- --- 727.3 0.021 0.000 7.8 4 1
02/16/06 9:47 p -11.9 -11.9 -11.9 --- --- 35.7 SSE 0.59 44.3 -25.6 --- --- 727.3 0.021 0.000 7.8 4 1
02/16/06 9:48 p -11.9 -11.9 -11.9 --- --- 33.9 SSE 0.57 37.4 -25.4 --- --- 727.1 0.021 0.000 7.8 4 1
02/16/06 9:49 p -11.9 -11.9 -11.9 --- --- 34.8 SSE 0.58 41.7 -25.5 --- --- 727.2 0.021 0.000 7.8 4 1
02/16/06 9:50 p -11.9 -11.8 -11.9 --- --- 34.8 SSE 0.58 40.0 -25.5 --- --- 727.1 0.021 0.000 7.8 4 1
02/16/06 9:51 p -11.9 -11.8 -11.9 --- --- 33.9 SSE 0.57 37.4 -25.4 --- --- 727.2 0.021 0.000 7.8 4 1
02/16/06 9:52 p -11.9 -11.9 -11.9 --- --- 33.9 SSE 0.57 41.7 -25.4 --- --- 727.1 0.021 0.000 7.8 4 1
02/16/06 9:53 p -11.9 -11.8 -11.9 --- --- 35.7 SSE 0.59 40.9 -25.6 --- --- 727.2 0.021 0.000 7.8 4 1
02/16/06 9:54 p -11.9 -11.9 -11.9 --- --- 33.9 SSE 0.57 39.1 -25.4 --- --- 727.2 0.021 0.000 7.8 4 1
02/16/06 9:55 p -11.9 -11.8 -11.9 --- --- 34.8 SSE 0.58 40.9 -25.5 --- --- 727.1 0.021 0.000 7.8 4 1
02/16/06 9:56 p -11.9 -11.9 -11.9 --- --- 33.9 SSE 0.57 40.0 -25.4 --- --- 727.2 0.021 0.000 7.8 4 1
02/16/06 9:57 p -11.9 -11.8 -11.9 --- --- 31.3 SSE 0.52 34.8 -25.0 --- --- 727.3 0.021 0.000 7.8 4 1
02/16/06 9:58 p -11.9 -11.9 -11.9 --- --- 33.0 SSE 0.55 40.9 -25.2 --- --- 727.2 0.021 0.000 7.8 4 1
02/16/06 9:59 p -11.9 -11.9 -11.9 --- --- 33.9 SSE 0.57 39.1 -25.4 --- --- 727.3 0.021 0.000 7.8 4 1
02/16/06 10:00 p -11.9 -11.9 -11.9 --- --- 33.0 SSE 0.55 39.1 -25.3 --- --- 727.1 0.021 0.000 7.8 4 1
02/16/06 10:01 p -11.9 -11.9 -11.9 --- --- 33.0 SSE 0.55 38.3 -25.3 --- --- 727.2 0.021 0.000 7.8 4 1
02/16/06 10:02 p -11.9 -11.9 -11.9 --- --- 32.2 SSE 0.54 36.5 -25.1 --- --- 727.1 0.021 0.000 7.8 4 1
02/16/06 10:03 p -11.9 -11.8 -11.9 --- --- 33.9 SSE 0.57 44.3 -25.4 --- --- 727.2 0.021 0.000 7.8 4 1
02/16/06 10:04 p -11.8 -11.8 -11.8 --- --- 37.4 SSE 0.62 41.7 -25.8 --- --- 727.2 0.021 0.000 7.8 4 1
02/16/06 10:05 p -11.8 -11.8 -11.8 --- --- 33.9 SSE 0.57 40.9 -25.2 --- --- 727.2 0.021 0.000 7.8 4 1
02/16/06 10:06 p -11.7 -11.7 -11.8 --- --- 36.5 SSE 0.61 44.3 -25.5 --- --- 727.2 0.021 0.000 7.8 4 1
02/16/06 10:07 p -11.7 -11.7 -11.7 --- --- 33.9 SSE 0.57 39.1 -25.2 --- --- 727.0 0.021 0.000 7.8 4 1
02/16/06 10:08 p -11.7 -11.7 -11.7 --- --- 33.9 SSE 0.57 40.0 -25.1 --- --- 727.2 0.021 0.000 7.7 4 1
02/16/06 10:09 p -11.7 -11.6 -11.7 --- --- 33.0 SSE 0.55 37.4 -24.9 --- --- 727.2 0.021 0.000 7.7 4 1
02/16/06 10:10 p -11.6 -11.6 -11.6 --- --- 32.2 SSE 0.54 36.5 -24.7 --- --- 727.1 0.021 0.000 7.8 4 1
02/16/06 10:11 p -11.6 -11.6 -11.6 --- --- 33.9 SSE 0.57 38.3 -25.0 --- --- 727.0 0.021 0.000 7.7 4 1
02/16/06 10:12 p -11.6 -11.6 -11.6 --- --- 36.5 SSE 0.61 40.9 -25.3 --- --- 727.1 0.021 0.000 7.8 4 1
02/16/06 10:13 p -11.6 -11.6 -11.6 --- --- 33.0 SSE 0.55 41.7 -24.8 --- --- 727.2 0.021 0.000 7.7 4 1
02/16/06 10:14 p -11.6 -11.6 -11.6 --- --- 34.8 SSE 0.58 39.1 -25.1 --- --- 727.1 0.021 0.000 7.7 4 1
02/16/06 10:15 p -11.6 -11.5 -11.6 --- --- 36.5 SSE 0.61 42.6 -25.3 --- --- 727.1 0.021 0.000 7.7 4 1
02/16/06 10:16 p -11.5 -11.5 -11.5 --- --- 36.5 SSE 0.61 40.9 -25.2 --- --- 727.0 0.021 0.000 7.8 4 1
02/16/06 10:17 p -11.4 -11.4 -11.5 --- --- 32.2 SSE 0.54 36.5 -24.5 --- --- 727.2 0.021 0.000 7.8 4 1
02/16/06 10:18 p -11.4 -11.4 -11.4 --- --- 37.4 SSE 0.62 43.5 -25.2 --- --- 727.0 0.021 0.000 7.8 4 1
02/16/06 10:19 p -11.4 -11.3 -11.4 --- --- 36.5 SSE 0.61 40.9 -25.1 --- --- 727.1 0.021 0.000 7.8 4 1
02/16/06 10:20 p -11.3 -11.3 -11.4 --- --- 35.7 SSE 0.59 46.1 -24.8 --- --- 727.0 0.021 0.000 7.8 4 1
02/16/06 10:21 p -11.3 -11.3 -11.3 --- --- 33.0 SSE 0.55 37.4 -24.5 --- --- 727.1 0.021 0.000 7.8 4 1
02/16/06 10:22 p -11.3 -11.3 -11.3 --- --- 37.4 SSE 0.62 44.3 -25.1 --- --- 727.1 0.021 0.000 7.8 4 1
02/16/06 10:23 p -11.3 -11.3 -11.3 --- --- 33.9 SSE 0.57 40.9 -24.6 --- --- 727.2 0.021 0.000 7.8 4 1
02/16/06 10:24 p -11.3 -11.3 -11.3 --- --- 33.9 SSE 0.57 44.3 -24.5 --- --- 727.1 0.021 0.000 7.8 4 1
02/16/06 10:25 p -11.3 -11.3 -11.3 --- --- 32.2 SSE 0.54 36.5 -24.3 --- --- 727.2 0.021 0.000 7.8 4 1
02/16/06 10:26 p -11.3 -11.3 -11.3 --- --- 36.5 SSE 0.61 45.2 -24.9 --- --- 727.1 0.021 0.000 7.8 4 1
02/16/06 10:27 p -11.3 -11.3 -11.3 --- --- 32.2 SSE 0.54 34.8 -24.3 --- --- 727.1 0.021 0.000 7.8 4 1
02/16/06 10:28 p -11.3 -11.2 -11.3 --- --- 33.0 SSE 0.55 36.5 -24.4 --- --- 727.2 0.021 0.000 7.8 4 1
02/16/06 10:29 p -11.3 -11.2 -11.3 --- --- 33.9 SSE 0.57 40.9 -24.5 --- --- 727.0 0.021 0.000 7.8 4 1
02/16/06 10:30 p -11.2 -11.2 -11.2 --- --- 34.8 SSE 0.58 40.0 -24.6 --- --- 727.1 0.021 0.000 7.8 4 1
02/16/06 10:31 p -11.2 -11.2 -11.2 --- --- 30.4 SSE 0.51 37.4 -23.8 --- --- 726.9 0.020 0.000 7.8 4 1
02/16/06 10:32 p -11.2 -11.2 -11.2 --- --- 34.8 SSE 0.58 40.9 -24.5 --- --- 727.1 0.020 0.000 7.8 4 1
02/16/06 10:33 p -11.2 -11.2 -11.2 --- --- 33.9 SSE 0.57 38.3 -24.4 --- --- 727.0 0.020 0.000 7.8 4 1
02/16/06 10:34 p -11.2 -11.2 -11.2 --- --- 33.9 SSE 0.57 40.9 -24.4 --- --- 726.9 0.020 0.000 7.8 4 1
02/16/06 10:35 p -11.2 -11.2 -11.2 --- --- 33.0 SSE 0.55 37.4 -24.2 --- --- 727.0 0.020 0.000 7.8 4 1
02/16/06 10:36 p -11.2 -11.1 -11.2 --- --- 33.0 SSE 0.55 39.1 -24.2 --- --- 727.0 0.020 0.000 7.8 4 1
02/16/06 10:37 p -11.1 -11.1 -11.1 --- --- 33.9 SSE 0.57 39.1 -24.3 --- --- 726.8 0.020 0.000 7.8 4 1
02/16/06 10:38 p -11.1 -11.1 -11.1 --- --- 37.4 SSE 0.62 46.1 -24.8 --- --- 726.9 0.020 0.000 7.8 4 1
02/16/06 10:39 p -11.1 -11.0 -11.1 --- --- 33.0 SSE 0.55 38.3 -24.1 --- --- 727.0 0.020 0.000 7.8 4 1
02/16/06 10:40 p -11.0 -11.0 -11.1 --- --- 34.8 SSE 0.58 38.3 -24.3 --- --- 726.9 0.020 0.000 7.8 4 1
02/16/06 10:41 p -11.0 -10.9 -11.0 --- --- 33.9 SSE 0.57 38.3 -24.2 --- --- 726.9 0.020 0.000 7.8 4 1
02/16/06 10:42 p -10.9 -10.9 -11.0 --- --- 35.7 SSE 0.59 40.9 -24.3 --- --- 727.0 0.020 0.000 7.8 4 1
02/16/06 10:43 p -10.9 -10.9 -10.9 --- --- 34.8 SSE 0.58 38.3 -24.2 --- --- 727.0 0.020 0.000 7.8 4 1
02/16/06 10:44 p -10.9 -10.9 -10.9 --- --- 36.5 SSE 0.61 45.2 -24.3 --- --- 726.9 0.020 0.000 7.8 4 1
02/16/06 10:45 p -10.9 -10.9 -10.9 --- --- 35.7 SSE 0.59 41.7 -24.2 --- --- 727.0 0.020 0.000 7.8 4 1
02/16/06 10:46 p -10.9 -10.8 -10.9 --- --- 33.0 SSE 0.55 38.3 -23.8 --- --- 727.1 0.020 0.000 7.8 4 1
02/16/06 10:47 p -10.9 -10.8 -10.9 --- --- 33.0 SSE 0.55 38.3 -23.8 --- --- 726.9 0.020 0.000 7.8 4 1
02/16/06 10:48 p -10.8 -10.8 -10.9 --- --- 30.4 SSE 0.51 36.5 -23.4 --- --- 727.1 0.020 0.000 7.8 4 1
02/16/06 10:49 p -10.8 -10.8 -10.9 --- --- 29.6 SSE 0.49 34.8 -23.2 --- --- 727.0 0.020 0.000 7.8 4 1
02/16/06 10:50 p -10.9 -10.9 -10.9 --- --- 32.2 SSE 0.54 40.0 -23.7 --- --- 726.9 0.020 0.000 7.8 4 1
02/16/06 10:51 p -10.9 -10.9 -10.9 --- --- 31.3 SSE 0.52 40.0 -23.7 --- --- 727.0 0.020 0.000 7.8 4 1
02/16/06 10:52 p -10.9 -10.9 -10.9 --- --- 34.8 SSE 0.58 40.0 -24.2 --- --- 726.9 0.020 0.000 7.8 4 1
02/16/06 10:53 p -10.9 -10.9 -10.9 --- --- 35.7 SSE 0.59 40.0 -24.3 --- --- 727.0 0.020 0.000 7.8 4 1
02/16/06 10:54 p -10.9 -10.9 -10.9 --- --- 33.0 SSE 0.55 40.0 -23.9 --- --- 726.9 0.020 0.000 7.8 4 1
02/16/06 10:55 p -10.9 -10.9 -10.9 --- --- 33.9 SSE 0.57 37.4 -24.1 --- --- 726.9 0.020 0.000 7.8 4 1
02/16/06 10:56 p -10.9 -10.9 -10.9 --- --- 33.9 SSE 0.57 40.0 -24.1 --- --- 727.0 0.020 0.000 7.8 4 1
02/16/06 10:57 p -10.9 -10.8 -10.9 --- --- 33.0 SSE 0.55 39.1 -23.8 --- --- 726.9 0.020 0.000 7.8 4 1
02/16/06 10:58 p -10.8 -10.8 -10.9 --- --- 35.7 SSE 0.59 40.9 -24.2 --- --- 726.8 0.020 0.000 7.8 4 1
02/16/06 10:59 p -10.9 -10.9 -10.9 --- --- 35.7 SSE 0.59 42.6 -24.2 --- --- 726.8 0.020 0.000 7.8 4 1
02/16/06 11:00 p -10.8 -10.8 -10.8 --- --- 39.1 SSE 0.65 46.1 -24.6 --- --- 726.9 0.020 0.000 7.8 4 1
02/16/06 11:01 p -10.8 -10.8 -10.8 --- --- 38.3 SSE 0.64 45.2 -24.4 --- --- 726.8 0.020 0.000 7.8 4 1
02/16/06 11:02 p -10.8 -10.7 -10.8 --- --- 35.7 S 0.59 42.6 -24.1 --- --- 727.0 0.020 0.000 7.8 4 1
02/16/06 11:03 p -10.7 -10.7 -10.7 --- --- 36.5 SSE 0.61 43.5 -24.1 --- --- 726.9 0.020 0.000 7.8 4 1
02/16/06 11:04 p -10.7 -10.7 -10.7 --- --- 35.7 SSE 0.59 40.0 -24.0 --- --- 726.8 0.020 0.000 7.8 4 1
02/16/06 11:05 p -10.7 -10.6 -10.7 --- --- 40.0 SSE 0.67 44.3 -24.5 --- --- 726.7 0.020 0.000 7.8 4 1
02/16/06 11:06 p -10.7 -10.6 -10.7 --- --- 38.3 SSE 0.64 40.9 -24.3 --- --- 726.7 0.020 0.000 7.8 4 1
02/16/06 11:07 p -10.6 -10.6 -10.6 --- --- 37.4 SSE 0.62 44.3 -24.1 --- --- 726.8 0.020 0.000 7.8 4 1
02/16/06 11:08 p -10.6 -10.6 -10.6 --- --- 37.4 SSE 0.62 44.3 -24.1 --- --- 726.9 0.020 0.000 7.8 4 1
02/16/06 11:09 p -10.6 -10.6 -10.6 --- --- 34.8 SSE 0.58 40.0 -23.7 --- --- 727.0 0.020 0.000 7.8 4 1
02/16/06 11:10 p -10.6 -10.6 -10.6 --- --- 35.7 SSE 0.59 43.5 -23.8 --- --- 726.8 0.020 0.000 7.8 4 1
02/16/06 11:11 p -10.6 -10.6 -10.6 --- --- 34.8 SSE 0.58 40.9 -23.7 --- --- 726.8 0.020 0.000 7.8 4 1
02/16/06 11:12 p -10.5 -10.5 -10.6 --- --- 35.7 SSE 0.59 41.7 -23.7 --- --- 726.8 0.020 0.000 7.8 4 1
02/16/06 11:13 p -10.6 -10.6 -10.6 --- --- 38.3 SSE 0.64 48.7 -24.1 --- --- 726.7 0.020 0.000 7.8 4 1
02/16/06 11:14 p -10.6 -10.6 -10.6 --- --- 37.4 SSE 0.62 43.5 -24.0 --- --- 726.7 0.020 0.000 7.8 4 1
02/16/06 11:15 p -10.6 -10.5 -10.6 --- --- 37.4 S 0.62 44.3 -24.0 --- --- 726.8 0.020 0.000 7.8 4 1
02/16/06 11:16 p -10.5 -10.5 -10.5 --- --- 36.5 SSE 0.61 47.0 -23.8 --- --- 726.7 0.020 0.000 7.8 4 1
02/16/06 11:17 p -10.5 -10.5 -10.5 --- --- 37.4 SSE 0.62 45.2 -23.9 --- --- 726.9 0.020 0.000 7.8 4 1
02/16/06 11:18 p -10.5 -10.5 -10.5 --- --- 38.3 SSE 0.64 45.2 -24.1 --- --- 726.8 0.020 0.000 7.8 4 1
02/16/06 11:19 p -10.5 -10.5 -10.5 --- --- 37.4 SSE 0.62 47.8 -23.9 --- --- 726.7 0.020 0.000 7.8 4 1
02/16/06 11:20 p -10.5 -10.5 -10.5 --- --- 37.4 SSE 0.62 41.7 -23.9 --- --- 726.8 0.020 0.000 7.8 4 1
02/16/06 11:21 p -10.5 -10.5 -10.5 --- --- 37.4 S 0.62 43.5 -23.9 --- --- 726.9 0.020 0.000 7.8 4 1
02/16/06 11:22 p -10.5 -10.5 -10.5 --- --- 38.3 SSE 0.64 44.3 -24.1 --- --- 726.7 0.020 0.000 7.8 4 1
02/16/06 11:23 p -10.5 -10.5 -10.6 --- --- 38.3 SSE 0.64 44.3 -24.1 --- --- 726.8 0.020 0.000 7.8 4 1
02/16/06 11:24 p -10.5 -10.5 -10.5 --- --- 38.3 SSE 0.64 44.3 -24.1 --- --- 726.9 0.020 0.000 7.8 4 1
02/16/06 11:25 p -10.5 -10.5 -10.5 --- --- 34.8 SSE 0.58 37.4 -23.6 --- --- 726.9 0.020 0.000 7.8 4 1
02/16/06 11:26 p -10.5 -10.4 -10.5 --- --- 34.8 SSE 0.58 42.6 -23.6 --- --- 726.9 0.020 0.000 7.8 4 1
02/16/06 11:27 p -10.5 -10.5 -10.5 --- --- 40.9 SSE 0.68 48.7 -24.3 --- --- 726.8 0.020 0.000 7.8 4 1
02/16/06 11:28 p -10.5 -10.5 -10.5 --- --- 35.7 SSE 0.59 40.0 -23.7 --- --- 726.9 0.020 0.000 7.8 4 1
02/16/06 11:29 p -10.5 -10.5 -10.6 --- --- 36.5 SSE 0.61 42.6 -23.8 --- --- 726.8 0.020 0.000 7.8 4 1
02/16/06 11:30 p -10.5 -10.5 -10.5 --- --- 37.4 SSE 0.62 42.6 -23.9 --- --- 726.9 0.020 0.000 7.8 4 1
02/16/06 11:31 p -10.5 -10.5 -10.5 --- --- 35.7 SSE 0.59 40.0 -23.7 --- --- 726.9 0.020 0.000 7.8 4 1
02/16/06 11:32 p -10.5 -10.5 -10.5 --- --- 38.3 SSE 0.64 41.7 -24.1 --- --- 726.9 0.020 0.000 7.8 4 1
02/16/06 11:33 p -10.5 -10.5 -10.6 --- --- 36.5 S 0.61 44.3 -23.8 --- --- 727.0 0.020 0.000 7.8 4 1
02/16/06 11:34 p -10.5 -10.5 -10.6 --- --- 36.5 SSE 0.61 42.6 -23.8 --- --- 726.8 0.020 0.000 7.8 4 1
02/16/06 11:35 p -10.6 -10.6 -10.6 --- --- 39.1 SSE 0.65 44.3 -24.2 --- --- 726.7 0.020 0.000 7.8 4 1
02/16/06 11:36 p -10.6 -10.6 -10.6 --- --- 40.0 SSE 0.67 43.5 -24.3 --- --- 726.8 0.020 0.000 7.8 4 1
02/16/06 11:37 p -10.6 -10.6 -10.6 --- --- 38.3 SSE 0.64 44.3 -24.1 --- --- 726.8 0.020 0.000 7.8 4 1
02/16/06 11:38 p -10.6 -10.6 -10.6 --- --- 34.8 SSE 0.58 37.4 -23.7 --- --- 726.8 0.020 0.000 7.8 4 1
02/16/06 11:39 p -10.6 -10.5 -10.6 --- --- 39.1 SSE 0.65 45.2 -24.2 --- --- 726.8 0.020 0.000 7.8 4 1
02/16/06 11:40 p -10.6 -10.6 -10.6 --- --- 33.9 SSE 0.57 42.6 -23.5 --- --- 726.7 0.020 0.000 7.8 4 1
02/16/06 11:41 p -10.6 -10.6 -10.6 --- --- 36.5 SSE 0.61 41.7 -23.9 --- --- 726.8 0.020 0.000 7.8 4 1
02/16/06 11:42 p -10.6 -10.5 -10.6 --- --- 38.3 SSE 0.64 47.8 -24.1 --- --- 726.8 0.020 0.000 7.8 4 1
02/16/06 11:43 p -10.6 -10.6 -10.6 --- --- 40.0 SSE 0.67 44.3 -24.3 --- --- 726.8 0.020 0.000 7.8 4 1
02/16/06 11:44 p -10.6 -10.6 -10.6 --- --- 35.7 SSE 0.59 40.9 -23.8 --- --- 726.7 0.020 0.000 7.8 4 1
02/16/06 11:45 p -10.6 -10.6 -10.6 --- --- 34.8 SSE 0.58 40.0 -23.7 --- --- 726.8 0.020 0.000 7.8 4 1
02/16/06 11:46 p -10.6 -10.6 -10.6 --- --- 32.2 SSE 0.54 37.4 -23.3 --- --- 726.9 0.020 0.000 7.8 4 1
02/16/06 11:47 p -10.6 -10.6 -10.6 --- --- 32.2 SSE 0.54 36.5 -23.3 --- --- 726.9 0.020 0.000 7.8 4 1
02/16/06 11:48 p -10.6 -10.6 -10.7 --- --- 31.3 SSE 0.52 36.5 -23.2 --- --- 726.9 0.020 0.000 7.8 4 1
02/16/06 11:49 p -10.7 -10.6 -10.7 --- --- 33.0 SSE 0.55 36.5 -23.6 --- --- 726.8 0.020 0.000 7.8 4 1
02/16/06 11:50 p -10.7 -10.7 -10.7 --- --- 34.8 SSE 0.58 39.1 -23.8 --- --- 726.9 0.020 0.000 7.8 4 1
02/16/06 11:51 p -10.7 -10.7 -10.7 --- --- 34.8 SSE 0.58 39.1 -23.8 --- --- 727.0 0.020 0.000 7.8 4 1
02/16/06 11:52 p -10.7 -10.7 -10.7 --- --- 31.3 SSE 0.52 33.9 -23.4 --- --- 727.0 0.020 0.000 7.8 4 1
02/16/06 11:53 p -10.7 -10.7 -10.7 --- --- 33.0 SSE 0.55 38.3 -23.6 --- --- 726.9 0.020 0.000 7.8 4 1
02/16/06 11:54 p -10.7 -10.7 -10.7 --- --- 35.7 SSE 0.59 42.6 -24.0 --- --- 726.8 0.020 0.000 7.8 5 1
02/16/06 11:55 p -10.7 -10.7 -10.7 --- --- 32.2 SSE 0.54 35.7 -23.5 --- --- 726.9 0.020 0.000 7.8 4 1
02/16/06 11:56 p -10.7 -10.7 -10.7 --- --- 31.3 SSE 0.52 37.4 -23.4 --- --- 726.9 0.020 0.000 7.8 4 1
02/16/06 11:57 p -10.8 -10.7 -10.8 --- --- 30.4 SSE 0.51 33.9 -23.3 --- --- 726.9 0.020 0.000 7.8 4 1
02/16/06 11:58 p -10.8 -10.8 -10.8 --- --- 32.2 SSE 0.54 37.4 -23.6 --- --- 726.9 0.020 0.000 7.8 4 1
02/16/06 11:59 p -10.7 -10.7 -10.8 --- --- 33.9 SSE 0.57 42.6 -23.8 --- --- 726.9 0.020 0.000 7.8 5 1
02/17/06 12:00 a -10.7 -10.7 -10.8 --- --- 33.0 SSE 0.55 35.7 -23.6 --- --- 727.0 0.020 0.000 7.8 4 1
02/17/06 12:01 a -10.7 -10.7 -10.7 --- --- 28.7 SSE 0.48 33.9 -22.9 --- --- 726.9 0.020 0.000 7.8 5 1
02/17/06 12:02 a -10.7 -10.7 -10.7 --- --- 30.4 SSE 0.51 35.7 -23.2 --- --- 726.9 0.020 0.000 7.8 4 1
02/17/06 12:03 a -10.7 -10.7 -10.7 --- --- 30.4 SSE 0.51 33.9 -23.2 --- --- 726.9 0.020 0.000 7.8 4 1
02/17/06 12:04 a -10.7 -10.7 -10.7 --- --- 29.6 SSE 0.49 35.7 -23.1 --- --- 726.9 0.020 0.000 7.8 4 1
02/17/06 12:05 a -10.7 -10.7 -10.7 --- --- 30.4 SSE 0.51 33.0 -23.2 --- --- 727.0 0.020 0.000 7.8 4 1
02/17/06 12:06 a -10.7 -10.7 -10.8 --- --- 30.4 SSE 0.51 33.9 -23.2 --- --- 727.0 0.020 0.000 7.8 4 1
02/17/06 12:07 a -10.8 -10.8 -10.8 --- --- 31.3 SSE 0.52 34.8 -23.4 --- --- 726.9 0.020 0.000 7.8 4 1
02/17/06 12:08 a -10.8 -10.8 -10.8 --- --- 30.4 SSE 0.51 35.7 -23.3 --- --- 726.8 0.020 0.000 7.8 4 1
02/17/06 12:09 a -10.8 -10.8 -10.8 --- --- 31.3 SSE 0.52 35.7 -23.4 --- --- 726.9 0.020 0.000 7.8 5 1
02/17/06 12:10 a -10.8 -10.8 -10.8 --- --- 33.0 SSE 0.55 36.5 -23.7 --- --- 726.8 0.020 0.000 7.8 4 1
02/17/06 12:11 a -10.8 -10.8 -10.8 --- --- 31.3 SSE 0.52 40.9 -23.4 --- --- 726.9 0.020 0.000 7.8 4 1
02/17/06 12:12 a -10.8 -10.7 -10.8 --- --- 29.6 SSE 0.49 34.8 -23.2 --- --- 727.0 0.020 0.000 7.8 4 1
02/17/06 12:13 a -10.8 -10.8 -10.8 --- --- 27.8 SSE 0.46 32.2 -22.9 --- --- 726.8 0.020 0.000 7.8 4 1
02/17/06 12:14 a -10.8 -10.8 -10.8 --- --- 29.6 SSE 0.49 36.5 -23.2 --- --- 726.9 0.020 0.000 7.8 4 1
02/17/06 12:15 a -10.8 -10.8 -10.8 --- --- 30.4 SSE 0.51 34.8 -23.3 --- --- 726.9 0.020 0.000 7.8 4 1
02/17/06 12:16 a -10.8 -10.8 -10.8 --- --- 29.6 SSE 0.49 37.4 -23.2 --- --- 726.9 0.020 0.000 7.8 5 1
02/17/06 12:17 a -10.8 -10.8 -10.8 --- --- 28.7 SSE 0.48 31.3 -23.1 --- --- 727.0 0.020 0.000 7.8 4 1
02/17/06 12:18 a -10.8 -10.8 -10.8 --- --- 29.6 SSE 0.49 32.2 -23.2 --- --- 726.9 0.020 0.000 7.8 4 1
02/17/06 12:19 a -10.8 -10.8 -10.8 --- --- 30.4 SSE 0.51 35.7 -23.3 --- --- 727.0 0.020 0.000 7.8 5 1
02/17/06 12:20 a -10.7 -10.7 -10.8 --- --- 29.6 SSE 0.49 33.0 -23.1 --- --- 726.9 0.020 0.000 7.8 5 1
02/17/06 12:21 a -10.7 -10.7 -10.7 --- --- 30.4 SSE 0.51 37.4 -23.2 --- --- 726.9 0.020 0.000 7.8 5 1
02/17/06 12:22 a -10.7 -10.7 -10.7 --- --- 30.4 SSE 0.51 34.8 -23.2 --- --- 727.0 0.020 0.000 7.8 4 1
02/17/06 12:23 a -10.7 -10.7 -10.7 --- --- 27.8 SSE 0.46 29.6 -22.7 --- --- 727.0 0.020 0.000 7.8 5 1
02/17/06 12:24 a -10.6 -10.6 -10.7 --- --- 28.7 SSE 0.48 31.3 -22.8 --- --- 726.9 0.020 0.000 7.8 4 1
02/17/06 12:25 a -10.6 -10.6 -10.7 --- --- 29.6 SSE 0.49 33.9 -22.9 --- --- 727.0 0.020 0.000 7.8 4 1
02/17/06 12:26 a -10.6 -10.6 -10.6 --- --- 28.7 SSE 0.48 32.2 -22.8 --- --- 726.9 0.020 0.000 7.8 5 1
02/17/06 12:27 a -10.6 -10.6 -10.6 --- --- 27.8 SSE 0.46 31.3 -22.7 --- --- 726.8 0.020 0.000 7.8 5 1
02/17/06 12:28 a -10.6 -10.5 -10.6 --- --- 27.8 SSE 0.46 32.2 -22.6 --- --- 726.9 0.020 0.000 7.8 5 1
02/17/06 12:29 a -10.6 -10.6 -10.6 --- --- 28.7 SSE 0.48 35.7 -22.7 --- --- 726.9 0.020 0.000 7.8 5 1
02/17/06 12:30 a -10.5 -10.5 -10.6 --- --- 28.7 SSE 0.48 32.2 -22.7 --- --- 726.9 0.020 0.000 7.8 5 1
02/17/06 12:31 a -10.5 -10.5 -10.5 --- --- 28.7 SSE 0.48 31.3 -22.7 --- --- 726.9 0.020 0.000 7.8 5 1
02/17/06 12:32 a -10.4 -10.4 -10.4 --- --- 31.3 SSE 0.52 34.8 -23.0 --- --- 726.9 0.020 0.000 7.8 5 1
02/17/06 12:33 a -10.4 -10.4 -10.4 --- --- 29.6 SSE 0.49 33.0 -22.6 --- --- 726.8 0.020 0.000 7.8 4 1
02/17/06 12:34 a -10.4 -10.4 -10.4 --- --- 28.7 SSE 0.48 33.0 -22.5 --- --- 726.9 0.020 0.000 7.8 5 1
02/17/06 12:35 a -10.4 -10.4 -10.4 --- --- 33.0 SSE 0.55 39.1 -23.2 --- --- 726.9 0.020 0.000 7.8 5 1
02/17/06 12:36 a -10.4 -10.3 -10.4 --- --- 28.7 SSE 0.48 31.3 -22.5 --- --- 726.9 0.020 0.000 7.8 5 1
02/17/06 12:37 a -10.3 -10.3 -10.3 --- --- 28.7 SSE 0.48 31.3 -22.4 --- --- 727.0 0.020 0.000 7.8 5 1
02/17/06 12:38 a -10.3 -10.2 -10.3 --- --- 28.7 SSE 0.48 31.3 -22.3 --- --- 726.9 0.020 0.000 7.9 4 1
02/17/06 12:39 a -10.3 -10.2 -10.3 --- --- 28.7 SSE 0.48 33.0 -22.3 --- --- 726.9 0.020 0.000 7.9 4 1
02/17/06 12:40 a -10.3 -10.2 -10.3 --- --- 29.6 SSE 0.49 33.9 -22.5 --- --- 727.0 0.020 0.000 7.9 5 1
02/17/06 12:41 a -10.2 -10.2 -10.3 --- --- 26.1 SSE 0.43 30.4 -21.8 --- --- 726.9 0.020 0.000 7.9 4 1
02/17/06 12:42 a -10.2 -10.2 -10.3 --- --- 27.8 SSE 0.46 33.0 -22.1 --- --- 727.0 0.020 0.000 7.9 5 1
02/17/06 12:43 a -10.2 -10.2 -10.2 --- --- 27.8 SSE 0.46 32.2 -22.1 --- --- 727.0 0.020 0.000 7.9 4 1
02/17/06 12:44 a -10.2 -10.2 -10.2 --- --- 27.8 SSE 0.46 33.9 -22.1 --- --- 726.9 0.020 0.000 7.9 4 1
02/17/06 12:45 a -10.2 -10.2 -10.2 --- --- 27.0 SSE 0.45 31.3 -22.0 --- --- 726.9 0.020 0.000 7.9 4 1
02/17/06 12:46 a -10.2 -10.2 -10.2 --- --- 27.8 SSE 0.46 31.3 -22.1 --- --- 726.9 0.020 0.000 7.9 4 1
02/17/06 12:47 a -10.1 -10.1 -10.2 --- --- 28.7 SSE 0.48 32.2 -22.1 --- --- 726.8 0.020 0.000 7.9 5 1
02/17/06 12:48 a -10.1 -10.1 -10.1 --- --- 27.0 SSE 0.45 33.0 -21.8 --- --- 726.8 0.020 0.000 7.9 5 1
02/17/06 12:49 a -10.1 -10.1 -10.1 --- --- 27.8 SSE 0.46 31.3 -21.9 --- --- 726.9 0.020 0.000 7.9 4 1
02/17/06 12:50 a -10.1 -10.0 -10.1 --- --- 28.7 SSE 0.48 35.7 -22.1 --- --- 726.8 0.020 0.000 7.9 5 1
02/17/06 12:51 a -10.0 -10.0 -10.1 --- --- 29.6 SSE 0.49 33.0 -22.1 --- --- 726.8 0.020 0.000 7.9 5 1
02/17/06 12:52 a -10.0 -10.0 -10.0 --- --- 30.4 SSE 0.51 36.5 -22.2 --- --- 726.6 0.020 0.000 7.9 4 1
02/17/06 12:53 a -10.0 -9.9 -10.0 --- --- 30.4 SSE 0.51 33.9 -22.2 --- --- 726.7 0.020 0.000 7.9 5 1
02/17/06 12:54 a -9.9 -9.9 -10.0 --- --- 26.1 SSE 0.43 28.7 -21.4 --- --- 726.7 0.020 0.000 7.9 5 1
02/17/06 12:55 a -9.9 -9.9 -9.9 --- --- 27.0 SSE 0.45 31.3 -21.6 --- --- 726.6 0.020 0.000 7.9 4 1
02/17/06 12:56 a -9.9 -9.9 -9.9 --- --- 25.2 SSE 0.42 28.7 -21.3 --- --- 726.7 0.020 0.000 7.9 5 1
02/17/06 12:57 a -9.8 -9.8 -9.9 --- --- 28.7 SSE 0.48 32.2 -21.7 --- --- 726.7 0.020 0.000 7.9 5 1
02/17/06 12:58 a -9.8 -9.8 -9.8 --- --- 30.4 SSE 0.51 38.3 -22.0 --- --- 726.7 0.020 0.000 7.9 4 1
02/17/06 12:59 a -9.8 -9.8 -9.8 --- --- 33.0 SSE 0.55 39.1 -22.4 --- --- 726.7 0.020 0.000 7.9 5 1
02/17/06 1:00 a -9.8 -9.8 -9.8 --- --- 27.0 SSE 0.45 32.2 -21.4 --- --- 726.8 0.020 0.000 7.9 5 1
02/17/06 1:01 a -9.8 -9.8 -9.8 --- --- 28.7 SSE 0.48 35.7 -21.7 --- --- 726.7 0.020 0.000 7.9 5 1
02/17/06 1:02 a -9.8 -9.8 -9.8 --- --- 29.6 SSE 0.49 33.9 -21.8 --- --- 726.8 0.020 0.000 7.9 4 1
02/17/06 1:03 a -9.8 -9.7 -9.8 --- --- 28.7 SSE 0.48 33.9 -21.7 --- --- 726.8 0.020 0.000 7.9 5 1
02/17/06 1:04 a -9.7 -9.7 -9.8 --- --- 29.6 SSE 0.49 34.8 -21.7 --- --- 726.7 0.019 0.000 7.9 4 1
02/17/06 1:05 a -9.7 -9.7 -9.7 --- --- 28.7 SSE 0.48 33.9 -21.6 --- --- 726.7 0.019 0.000 7.9 5 1
02/17/06 1:06 a -9.7 -9.7 -9.7 --- --- 29.6 SSE 0.49 33.9 -21.7 --- --- 726.8 0.019 0.000 7.9 5 1
02/17/06 1:07 a -9.7 -9.7 -9.7 --- --- 27.8 SSE 0.46 33.9 -21.4 --- --- 726.8 0.019 0.000 7.9 4 1
02/17/06 1:08 a -9.7 -9.6 -9.7 --- --- 28.7 SSE 0.48 31.3 -21.5 --- --- 726.6 0.019 0.000 7.9 5 1
02/17/06 1:09 a -9.7 -9.7 -9.7 --- --- 27.0 SSE 0.45 29.6 -21.2 --- --- 726.6 0.019 0.000 7.9 5 1
02/17/06 1:10 a -9.7 -9.7 -9.7 --- --- 30.4 SSE 0.51 36.5 -21.8 --- --- 726.7 0.019 0.000 7.9 4 1
02/17/06 1:11 a -9.7 -9.7 -9.7 --- --- 28.7 SSE 0.48 33.9 -21.5 --- --- 726.6 0.019 0.000 7.9 5 1
02/17/06 1:12 a -9.7 -9.7 -9.7 --- --- 27.0 SSE 0.45 31.3 -21.2 --- --- 726.8 0.019 0.000 7.9 5 1
02/17/06 1:13 a -9.7 -9.7 -9.7 --- --- 27.8 SSE 0.46 34.8 -21.4 --- --- 726.7 0.019 0.000 7.9 5 1
02/17/06 1:14 a -9.6 -9.6 -9.7 --- --- 31.3 SSE 0.52 35.7 -21.8 --- --- 726.6 0.019 0.000 7.9 5 1
02/17/06 1:15 a -9.7 -9.7 -9.7 --- --- 29.6 SSE 0.49 34.8 -21.7 --- --- 726.8 0.019 0.000 7.9 5 1
02/17/06 1:16 a -9.6 -9.6 -9.7 --- --- 30.4 SSE 0.51 37.4 -21.7 --- --- 726.8 0.019 0.000 7.9 5 1
02/17/06 1:17 a -9.6 -9.6 -9.7 --- --- 28.7 SSE 0.48 39.1 -21.4 --- --- 726.7 0.019 0.000 7.9 5 1
02/17/06 1:18 a -9.7 -9.6 -9.7 --- --- 27.8 SSE 0.46 33.0 -21.4 --- --- 726.8 0.019 0.000 7.9 5 1
02/17/06 1:19 a -9.6 -9.6 -9.6 --- --- 28.7 SSE 0.48 34.8 -21.4 --- --- 726.6 0.019 0.000 7.9 5 1
02/17/06 1:20 a -9.6 -9.6 -9.6 --- --- 30.4 SSE 0.51 33.0 -21.7 --- --- 726.5 0.019 0.000 7.9 5 1
02/17/06 1:21 a -9.6 -9.6 -9.6 --- --- 32.2 SSE 0.54 36.5 -21.9 --- --- 726.7 0.019 0.000 7.9 5 1
02/17/06 1:22 a -9.6 -9.6 -9.6 --- --- 30.4 SSE 0.51 34.8 -21.7 --- --- 726.5 0.019 0.000 7.9 5 1
02/17/06 1:23 a -9.6 -9.6 -9.6 --- --- 31.3 SSE 0.52 39.1 -21.8 --- --- 726.6 0.019 0.000 7.9 5 1
02/17/06 1:24 a -9.6 -9.6 -9.6 --- --- 31.3 SSE 0.52 35.7 -21.8 --- --- 726.5 0.019 0.000 7.9 5 1
02/17/06 1:25 a -9.6 -9.6 -9.6 --- --- 30.4 SSE 0.51 35.7 -21.7 --- --- 726.5 0.019 0.000 7.9 5 1
02/17/06 1:26 a -9.6 -9.6 -9.6 --- --- 29.6 S 0.49 33.9 -21.6 --- --- 726.5 0.019 0.000 7.9 5 1
02/17/06 1:27 a -9.6 -9.6 -9.6 --- --- 27.8 SSE 0.46 33.0 -21.3 --- --- 726.6 0.019 0.000 7.9 5 1
02/17/06 1:28 a -9.6 -9.6 -9.6 --- --- 30.4 SSE 0.51 33.9 -21.6 --- --- 726.6 0.019 0.000 7.9 5 1
02/17/06 1:29 a -9.6 -9.6 -9.6 --- --- 30.4 S 0.51 39.1 -21.6 --- --- 726.6 0.019 0.000 7.9 5 1
02/17/06 1:30 a -9.6 -9.5 -9.6 --- --- 29.6 S 0.49 36.5 -21.5 --- --- 726.4 0.019 0.000 8.0 5 1
02/17/06 1:31 a -9.5 -9.5 -9.6 --- --- 33.0 SSE 0.55 42.6 -21.9 --- --- 726.5 0.019 0.000 7.9 5 1
02/17/06 1:32 a -9.6 -9.5 -9.6 --- --- 30.4 S 0.51 34.8 -21.6 --- --- 726.5 0.019 0.000 7.9 5 1
02/17/06 1:33 a -9.6 -9.6 -9.6 --- --- 33.0 S 0.55 38.3 -22.0 --- --- 726.3 0.019 0.000 7.9 5 1
02/17/06 1:34 a -9.6 -9.6 -9.6 --- --- 35.7 S 0.59 43.5 -22.4 --- --- 726.3 0.019 0.000 7.9 5 1
02/17/06 1:35 a -9.5 -9.5 -9.6 --- --- 30.4 S 0.51 34.8 -21.6 --- --- 726.3 0.019 0.000 7.9 5 1
02/17/06 1:36 a -9.5 -9.5 -9.6 --- --- 33.9 S 0.57 40.9 -22.1 --- --- 726.3 0.019 0.000 7.9 5 1
02/17/06 1:37 a -9.5 -9.5 -9.5 --- --- 33.9 S 0.57 39.1 -22.1 --- --- 726.4 0.019 0.000 7.9 5 1
02/17/06 1:38 a -9.5 -9.4 -9.5 --- --- 32.2 S 0.54 37.4 -21.8 --- --- 726.4 0.019 0.000 7.9 5 1
02/17/06 1:39 a -9.4 -9.4 -9.5 --- --- 33.0 S 0.55 38.3 -21.8 --- --- 726.4 0.019 0.000 7.9 5 1
02/17/06 1:40 a -9.4 -9.4 -9.4 --- --- 35.7 SSE 0.59 44.3 -22.2 --- --- 726.3 0.019 0.000 7.9 5 1
02/17/06 1:41 a -9.4 -9.3 -9.4 --- --- 33.0 S 0.55 37.4 -21.8 --- --- 726.3 0.019 0.000 7.9 5 1
02/17/06 1:42 a -9.4 -9.3 -9.4 --- --- 31.3 S 0.52 37.4 -21.6 --- --- 726.5 0.019 0.000 7.9 5 1
02/17/06 1:43 a -9.3 -9.3 -9.3 --- --- 29.6 S 0.49 34.8 -21.2 --- --- 726.4 0.019 0.000 7.9 5 1
02/17/06 1:44 a -9.3 -9.3 -9.3 --- --- 33.0 S 0.55 36.5 -21.6 --- --- 726.4 0.019 0.000 7.9 5 1
02/17/06 1:45 a -9.3 -9.3 -9.3 --- --- 37.4 S 0.62 43.5 -22.2 --- --- 726.4 0.019 0.000 7.9 5 1
02/17/06 1:46 a -9.3 -9.3 -9.3 --- --- 33.0 S 0.55 40.0 -21.7 --- --- 726.4 0.019 0.000 7.9 5 1
02/17/06 1:47 a -9.3 -9.3 -9.3 --- --- 33.9 S 0.57 39.1 -21.8 --- --- 726.2 0.019 0.000 7.9 5 1
02/17/06 1:48 a -9.3 -9.3 -9.3 --- --- 36.5 S 0.61 42.6 -22.1 --- --- 726.4 0.019 0.000 7.9 5 1
02/17/06 1:49 a -9.3 -9.3 -9.3 --- --- 35.7 S 0.59 42.6 -22.0 --- --- 726.4 0.019 0.000 8.0 5 1
02/17/06 1:50 a -9.3 -9.3 -9.3 --- --- 34.8 S 0.58 42.6 -21.9 --- --- 726.4 0.019 0.000 8.0 5 1
02/17/06 1:51 a -9.3 -9.3 -9.3 --- --- 38.3 S 0.64 43.5 -22.4 --- --- 726.3 0.019 0.000 7.9 5 1
02/17/06 1:52 a -9.3 -9.3 -9.3 --- --- 40.9 S 0.68 46.1 -22.7 --- --- 726.2 0.019 0.000 7.9 5 1
02/17/06 1:53 a -9.3 -9.3 -9.4 --- --- 33.9 S 0.57 40.0 -21.8 --- --- 726.3 0.019 0.000 8.0 5 1
02/17/06 1:54 a -9.3 -9.3 -9.3 --- --- 33.0 SSE 0.55 37.4 -21.7 --- --- 726.3 0.019 0.000 8.0 5 1
02/17/06 1:55 a -9.3 -9.3 -9.3 --- --- 40.9 S 0.68 48.7 -22.7 --- --- 726.3 0.019 0.000 8.0 5 1
02/17/06 1:56 a -9.3 -9.3 -9.3 --- --- 31.3 S 0.52 38.3 -21.4 --- --- 726.3 0.019 0.000 7.9 5 1
02/17/06 1:57 a -9.3 -9.3 -9.3 --- --- 36.5 SSE 0.61 47.0 -22.2 --- --- 726.0 0.019 0.000 7.9 5 1
02/17/06 1:58 a -9.3 -9.3 -9.4 --- --- 37.4 SSE 0.62 45.2 -22.3 --- --- 726.2 0.019 0.000 8.0 5 1
02/17/06 1:59 a -9.3 -9.3 -9.4 --- --- 39.1 SSE 0.65 45.2 -22.5 --- --- 726.3 0.019 0.000 8.0 5 1
02/17/06 2:00 a -9.4 -9.3 -9.4 --- --- 36.5 SSE 0.61 42.6 -22.2 --- --- 726.1 0.019 0.000 8.0 5 1
02/17/06 2:01 a -9.4 -9.3 -9.4 --- --- 37.4 SSE 0.62 45.2 -22.3 --- --- 726.1 0.019 0.000 8.0 5 1
02/17/06 2:02 a -9.3 -9.3 -9.4 --- --- 35.7 SSE 0.59 44.3 -22.1 --- --- 726.2 0.019 0.000 8.0 5 1
02/17/06 2:03 a -9.3 -9.3 -9.3 --- --- 37.4 SSE 0.62 43.5 -22.3 --- --- 726.1 0.019 0.000 8.0 5 1
02/17/06 2:04 a -9.3 -9.3 -9.3 --- --- 35.7 SSE 0.59 41.7 -22.1 --- --- 726.2 0.019 0.000 8.0 5 1
02/17/06 2:05 a -9.3 -9.3 -9.3 --- --- 35.7 SSE 0.59 41.7 -22.1 --- --- 726.0 0.019 0.000 8.0 5 1
02/17/06 2:06 a -9.3 -9.3 -9.3 --- --- 39.1 SSE 0.65 45.2 -22.5 --- --- 726.1 0.019 0.000 8.0 5 1
02/17/06 2:07 a -9.3 -9.3 -9.3 --- --- 36.5 SSE 0.61 40.9 -22.2 --- --- 726.2 0.019 0.000 8.0 5 1
02/17/06 2:08 a -9.3 -9.3 -9.3 --- --- 35.7 SSE 0.59 45.2 -22.1 --- --- 726.1 0.019 0.000 8.0 5 1
02/17/06 2:09 a -9.3 -9.3 -9.3 --- --- 40.0 SSE 0.67 44.3 -22.6 --- --- 726.1 0.019 0.000 8.0 5 1
02/17/06 2:10 a -9.3 -9.3 -9.3 --- --- 35.7 SSE 0.59 41.7 -22.1 --- --- 726.1 0.019 0.000 8.0 5 1
02/17/06 2:11 a -9.4 -9.3 -9.4 --- --- 38.3 SSE 0.64 46.1 -22.4 --- --- 726.2 0.019 0.000 8.0 5 1
02/17/06 2:12 a -9.4 -9.3 -9.4 --- --- 35.7 SSE 0.59 40.0 -22.1 --- --- 726.2 0.019 0.000 8.1 5 1
02/17/06 2:13 a -9.4 -9.4 -9.4 --- --- 35.7 SSE 0.59 40.9 -22.1 --- --- 726.0 0.019 0.000 8.1 5 1
02/17/06 2:14 a -9.4 -9.4 -9.4 --- --- 33.0 SSE 0.55 37.4 -21.8 --- --- 726.1 0.019 0.000 8.1 5 1
02/17/06 2:15 a -9.4 -9.3 -9.4 --- --- 34.8 SSE 0.58 40.9 -22.0 --- --- 726.1 0.019 0.000 8.1 5 1
02/17/06 2:16 a -9.3 -9.3 -9.4 --- --- 33.0 SSE 0.55 39.1 -21.7 --- --- 726.1 0.019 0.000 8.1 5 1
02/17/06 2:17 a -9.3 -9.3 -9.4 --- --- 34.8 SSE 0.58 39.1 -21.9 --- --- 726.1 0.019 0.000 8.1 5 1
02/17/06 2:18 a -9.4 -9.4 -9.4 --- --- 36.5 SSE 0.61 44.3 -22.2 --- --- 726.1 0.019 0.000 8.1 5 1
02/17/06 2:19 a -9.4 -9.4 -9.4 --- --- 35.7 SSE 0.59 42.6 -22.1 --- --- 726.2 0.019 0.000 8.1 5 1
02/17/06 2:20 a -9.4 -9.4 -9.4 --- --- 33.0 SSE 0.55 40.0 -21.8 --- --- 726.2 0.019 0.000 8.1 5 1
02/17/06 2:21 a -9.4 -9.4 -9.4 --- --- 33.0 SSE 0.55 38.3 -21.8 --- --- 726.2 0.019 0.000 8.1 5 1
02/17/06 2:22 a -9.4 -9.4 -9.4 --- --- 33.0 SSE 0.55 36.5 -21.8 --- --- 726.2 0.019 0.000 8.1 5 1
02/17/06 2:23 a -9.4 -9.4 -9.4 --- --- 34.8 SSE 0.58 37.4 -22.1 --- --- 726.1 0.019 0.000 8.1 5 1
02/17/06 2:24 a -9.4 -9.4 -9.5 --- --- 33.0 SSE 0.55 36.5 -21.8 --- --- 726.0 0.019 0.000 8.1 5 1
02/17/06 2:25 a -9.5 -9.4 -9.5 --- --- 33.9 SSE 0.57 38.3 -22.1 --- --- 726.1 0.019 0.000 8.1 5 1
02/17/06 2:26 a -9.6 -9.6 -9.6 --- --- 35.7 SSE 0.59 40.0 -22.4 --- --- 726.0 0.019 0.000 8.1 5 1
02/17/06 2:27 a -9.6 -9.6 -9.6 --- --- 34.8 SSE 0.58 39.1 -22.3 --- --- 726.0 0.019 0.000 8.1 5 1
02/17/06 2:28 a -9.6 -9.6 -9.6 --- --- 33.0 SSE 0.55 40.0 -22.0 --- --- 726.0 0.019 0.000 8.1 5 1
02/17/06 2:29 a -9.6 -9.6 -9.6 --- --- 33.9 SSE 0.57 38.3 -22.1 --- --- 726.1 0.019 0.000 8.1 5 1
02/17/06 2:30 a -9.6 -9.6 -9.6 --- --- 30.4 SSE 0.51 36.5 -21.7 --- --- 726.1 0.019 0.000 8.1 5 1
02/17/06 2:31 a -9.6 -9.5 -9.6 --- --- 35.7 SSE 0.59 39.1 -22.4 --- --- 725.9 0.019 0.000 8.1 5 1
02/17/06 2:32 a -9.5 -9.5 -9.6 --- --- 33.9 SSE 0.57 39.1 -22.1 --- --- 725.8 0.019 0.000 8.1 5 1
02/17/06 2:33 a -9.5 -9.4 -9.5 --- --- 33.0 SSE 0.55 40.0 -21.9 --- --- 726.0 0.019 0.000 8.1 5 1
02/17/06 2:34 a -9.4 -9.4 -9.4 --- --- 33.9 SSE 0.57 38.3 -22.0 --- --- 726.0 0.019 0.000 8.1 5 1
02/17/06 2:35 a -9.4 -9.4 -9.4 --- --- 33.9 SSE 0.57 40.9 -21.9 --- --- 726.0 0.019 0.000 8.1 5 1
02/17/06 2:36 a -9.4 -9.4 -9.4 --- --- 33.0 SSE 0.55 36.5 -21.8 --- --- 725.9 0.019 0.000 8.1 5 1
02/17/06 2:37 a -9.4 -9.4 -9.4 --- --- 34.8 SSE 0.58 40.0 -22.0 --- --- 726.0 0.019 0.000 8.1 5 1
02/17/06 2:38 a -9.4 -9.4 -9.4 --- --- 35.7 SSE 0.59 39.1 -22.1 --- --- 725.9 0.019 0.000 8.1 5 1
02/17/06 2:39 a -9.4 -9.3 -9.4 --- --- 34.8 SSE 0.58 38.3 -22.0 --- --- 725.8 0.019 0.000 8.1 5 1
02/17/06 2:40 a -9.3 -9.3 -9.4 --- --- 33.9 SSE 0.57 36.5 -21.8 --- --- 725.9 0.019 0.000 8.1 5 1
02/17/06 2:41 a -9.4 -9.3 -9.4 --- --- 35.7 SSE 0.59 40.9 -22.1 --- --- 725.9 0.019 0.000 8.1 5 1
02/17/06 2:42 a -9.3 -9.3 -9.3 --- --- 36.5 SSE 0.61 39.1 -22.1 --- --- 725.9 0.019 0.000 8.1 5 1
02/17/06 2:43 a -9.3 -9.3 -9.3 --- --- 33.9 SSE 0.57 37.4 -21.8 --- --- 725.9 0.019 0.000 8.1 5 1
02/17/06 2:44 a -9.3 -9.3 -9.3 --- --- 34.8 SSE 0.58 40.0 -21.9 --- --- 725.9 0.019 0.000 8.1 5 1
02/17/06 2:45 a -9.3 -9.3 -9.3 --- --- 34.8 SSE 0.58 40.9 -21.9 --- --- 725.9 0.019 0.000 8.1 5 1
02/17/06 2:46 a -9.2 -9.2 -9.2 --- --- 33.9 SSE 0.57 37.4 -21.7 --- --- 725.9 0.019 0.000 8.1 5 1
02/17/06 2:47 a -9.2 -9.2 -9.2 --- --- 33.0 SSE 0.55 37.4 -21.6 --- --- 725.9 0.019 0.000 8.1 5 1
02/17/06 2:48 a -9.2 -9.2 -9.2 --- --- 33.9 SSE 0.57 36.5 -21.7 --- --- 725.9 0.019 0.000 8.1 5 1
02/17/06 2:49 a -9.2 -9.2 -9.2 --- --- 33.9 SSE 0.57 37.4 -21.7 --- --- 725.9 0.019 0.000 8.1 5 1
02/17/06 2:50 a -9.2 -9.2 -9.2 --- --- 33.9 SSE 0.57 40.0 -21.6 --- --- 725.9 0.019 0.000 8.1 5 1
02/17/06 2:51 a -9.2 -9.1 -9.2 --- --- 33.0 SSE 0.55 38.3 -21.4 --- --- 725.9 0.019 0.000 8.1 5 1
02/17/06 2:52 a -9.2 -9.2 -9.2 --- --- 33.0 SSE 0.55 36.5 -21.4 --- --- 725.9 0.019 0.000 8.1 5 1
02/17/06 2:53 a -9.2 -9.1 -9.2 --- --- 32.2 SSE 0.54 38.3 -21.3 --- --- 725.8 0.019 0.000 8.1 5 1
02/17/06 2:54 a -9.2 -9.1 -9.2 --- --- 33.0 SSE 0.55 34.8 -21.4 --- --- 726.0 0.019 0.000 8.1 5 1
02/17/06 2:55 a -9.2 -9.1 -9.2 --- --- 33.9 SSE 0.57 41.7 -21.6 --- --- 725.9 0.019 0.000 8.1 5 1
02/17/06 2:56 a -9.1 -9.1 -9.2 --- --- 33.0 SSE 0.55 40.0 -21.4 --- --- 725.8 0.019 0.000 8.1 5 1
02/17/06 2:57 a -9.1 -9.1 -9.1 --- --- 31.3 SSE 0.52 35.7 -21.2 --- --- 725.9 0.019 0.000 8.1 5 1
02/17/06 2:58 a -9.1 -9.1 -9.1 --- --- 33.0 SSE 0.55 37.4 -21.4 --- --- 725.9 0.019 0.000 8.1 5 1
02/17/06 2:59 a -9.1 -9.1 -9.1 --- --- 33.9 SSE 0.57 40.0 -21.5 --- --- 725.9 0.019 0.000 8.1 5 1
02/17/06 3:00 a -9.1 -9.1 -9.1 --- --- 33.0 SSE 0.55 35.7 -21.4 --- --- 725.9 0.019 0.000 8.1 5 1
02/17/06 3:01 a -9.1 -9.1 -9.1 --- --- 31.3 SSE 0.52 34.8 -21.2 --- --- 726.0 0.019 0.000 8.1 5 1
02/17/06 3:02 a -9.1 -9.1 -9.1 --- --- 33.0 SSE 0.55 36.5 -21.4 --- --- 725.8 0.019 0.000 8.1 5 1
02/17/06 3:03 a -9.1 -9.1 -9.1 --- --- 33.0 SSE 0.55 38.3 -21.4 --- --- 725.8 0.019 0.000 8.2 5 1
02/17/06 3:04 a -9.1 -9.1 -9.1 --- --- 33.0 SSE 0.55 38.3 -21.3 --- --- 725.9 0.019 0.000 8.2 5 1
02/17/06 3:05 a -9.1 -9.0 -9.1 --- --- 32.2 SSE 0.54 35.7 -21.2 --- --- 725.7 0.019 0.000 8.2 5 1
02/17/06 3:06 a -9.0 -9.0 -9.1 --- --- 33.9 SSE 0.57 39.1 -21.3 --- --- 725.8 0.019 0.000 8.2 5 1
02/17/06 3:07 a -9.0 -9.0 -9.1 --- --- 34.8 SSE 0.58 37.4 -21.5 --- --- 725.8 0.019 0.000 8.2 5 1
02/17/06 3:08 a -9.1 -9.0 -9.1 --- --- 33.9 SSE 0.57 37.4 -21.4 --- --- 725.9 0.019 0.000 8.2 5 1
02/17/06 3:09 a -9.0 -9.0 -9.1 --- --- 31.3 SSE 0.52 35.7 -21.0 --- --- 725.9 0.019 0.000 8.2 5 1
02/17/06 3:10 a -9.1 -9.0 -9.1 --- --- 32.2 SSE 0.54 35.7 -21.2 --- --- 725.8 0.019 0.000 8.2 5 1
02/17/06 3:11 a -9.1 -9.0 -9.1 --- --- 32.2 SSE 0.54 35.7 -21.2 --- --- 725.9 0.019 0.000 8.2 5 1
02/17/06 3:12 a -9.0 -9.0 -9.1 --- --- 33.0 SSE 0.55 35.7 -21.2 --- --- 725.9 0.019 0.000 8.2 5 1
02/17/06 3:13 a -9.0 -9.0 -9.0 --- --- 32.2 SSE 0.54 37.4 -21.1 --- --- 725.8 0.019 0.000 8.2 5 1
02/17/06 3:14 a -9.0 -9.0 -9.1 --- --- 33.0 SSE 0.55 37.4 -21.2 --- --- 725.8 0.019 0.000 8.2 5 1
02/17/06 3:15 a -9.1 -9.1 -9.1 --- --- 33.9 SSE 0.57 38.3 -21.4 --- --- 725.8 0.019 0.000 8.2 5 1
02/17/06 3:16 a -9.1 -9.1 -9.1 --- --- 32.2 SSE 0.54 36.5 -21.2 --- --- 725.9 0.019 0.000 8.2 5 1
02/17/06 3:17 a -9.1 -9.1 -9.1 --- --- 33.0 SSE 0.55 36.5 -21.3 --- --- 725.9 0.019 0.000 8.2 5 1
02/17/06 3:18 a -9.1 -9.1 -9.1 --- --- 34.8 SSE 0.58 38.3 -21.6 --- --- 726.0 0.019 0.000 8.2 5 1
02/17/06 3:19 a -9.1 -9.1 -9.1 --- --- 32.2 SSE 0.54 36.5 -21.3 --- --- 726.0 0.019 0.000 8.2 5 1
02/17/06 3:20 a -9.1 -9.1 -9.1 --- --- 31.3 SSE 0.52 33.9 -21.2 --- --- 726.0 0.019 0.000 8.2 5 1
02/17/06 3:21 a -9.1 -9.1 -9.1 --- --- 29.6 SSE 0.49 32.2 -20.8 --- --- 726.1 0.019 0.000 8.2 5 1
02/17/06 3:22 a -9.1 -9.0 -9.1 --- --- 30.4 SSE 0.51 33.9 -20.9 --- --- 726.0 0.019 0.000 8.2 5 1
02/17/06 3:23 a -9.0 -9.0 -9.1 --- --- 32.2 SSE 0.54 39.1 -21.1 --- --- 725.9 0.019 0.000 8.2 5 1
02/17/06 3:24 a -9.1 -9.1 -9.1 --- --- 33.9 SSE 0.57 41.7 -21.4 --- --- 726.0 0.019 0.000 8.2 5 1
02/17/06 3:25 a -9.1 -9.1 -9.1 --- --- 32.2 SSE 0.54 38.3 -21.2 --- --- 725.9 0.019 0.000 8.2 5 1
02/17/06 3:26 a -9.1 -9.0 -9.1 --- --- 31.3 SSE 0.52 36.5 -21.1 --- --- 726.0 0.019 0.000 8.2 5 1
02/17/06 3:27 a -9.0 -9.0 -9.1 --- --- 30.4 SSE 0.51 33.0 -20.9 --- --- 725.9 0.019 0.000 8.2 5 1
02/17/06 3:28 a -9.0 -9.0 -9.1 --- --- 32.2 SSE 0.54 37.4 -21.1 --- --- 725.8 0.019 0.000 8.2 5 1
02/17/06 3:29 a -9.0 -9.0 -9.0 --- --- 33.0 SSE 0.55 35.7 -21.2 --- --- 725.8 0.019 0.000 8.2 5 1
02/17/06 3:30 a -9.0 -9.0 -9.0 --- --- 33.0 SSE 0.55 36.5 -21.2 --- --- 725.9 0.019 0.000 8.2 5 1
02/17/06 3:31 a -9.0 -9.0 -9.0 --- --- 30.4 SSE 0.51 33.0 -20.9 --- --- 725.9 0.019 0.000 8.2 5 1
02/17/06 3:32 a -9.1 -9.0 -9.1 --- --- 30.4 SSE 0.51 34.8 -20.9 --- --- 725.8 0.019 0.000 8.2 5 1
02/17/06 3:33 a -9.1 -9.0 -9.1 --- --- 28.7 SSE 0.48 32.2 -20.7 --- --- 725.9 0.019 0.000 8.2 5 1
02/17/06 3:34 a -9.1 -9.1 -9.1 --- --- 30.4 SSE 0.51 33.0 -20.9 --- --- 725.8 0.019 0.000 8.2 5 1
02/17/06 3:35 a -9.1 -9.1 -9.1 --- --- 31.3 SSE 0.52 35.7 -21.2 --- --- 725.9 0.019 0.000 8.2 5 1
02/17/06 3:36 a -9.1 -9.1 -9.2 --- --- 32.2 SSE 0.54 35.7 -21.3 --- --- 725.9 0.019 0.000 8.2 5 1
02/17/06 3:37 a -9.2 -9.2 -9.2 --- --- 29.6 SSE 0.49 33.9 -20.9 --- --- 725.9 0.019 0.000 8.2 5 1
02/17/06 3:38 a -9.1 -9.1 -9.2 --- --- 28.7 SSE 0.48 33.9 -20.7 --- --- 725.8 0.019 0.000 8.2 5 1
02/17/06 3:39 a -9.1 -9.1 -9.1 --- --- 33.9 SSE 0.57 40.9 -21.5 --- --- 725.7 0.019 0.000 8.2 5 1
02/17/06 3:40 a -9.2 -9.1 -9.2 --- --- 33.9 SSE 0.57 39.1 -21.6 --- --- 725.7 0.019 0.000 8.2 5 1
02/17/06 3:41 a -9.2 -9.2 -9.2 --- --- 30.4 SSE 0.51 35.7 -21.1 --- --- 725.9 0.019 0.000 8.2 5 1
02/17/06 3:42 a -9.2 -9.1 -9.2 --- --- 32.2 SSE 0.54 36.5 -21.3 --- --- 725.7 0.019 0.000 8.2 5 1
02/17/06 3:43 a -9.2 -9.2 -9.2 --- --- 31.3 SSE 0.52 38.3 -21.2 --- --- 725.8 0.019 0.000 8.2 5 1
02/17/06 3:44 a -9.2 -9.2 -9.2 --- --- 33.9 SSE 0.57 40.0 -21.7 --- --- 725.7 0.019 0.000 8.2 5 1
02/17/06 3:45 a -9.2 -9.2 -9.2 --- --- 31.3 SSE 0.52 35.7 -21.3 --- --- 725.6 0.019 0.000 8.2 5 1
02/17/06 3:46 a -9.2 -9.2 -9.2 --- --- 33.9 SSE 0.57 39.1 -21.7 --- --- 725.8 0.019 0.000 8.2 5 1
02/17/06 3:47 a -9.2 -9.2 -9.3 --- --- 29.6 SSE 0.49 31.3 -21.1 --- --- 725.8 0.019 0.000 8.2 5 1
02/17/06 3:48 a -9.3 -9.3 -9.3 --- --- 31.3 SSE 0.52 40.0 -21.4 --- --- 725.7 0.019 0.000 8.2 5 1
02/17/06 3:49 a -9.3 -9.3 -9.3 --- --- 31.3 SSE 0.52 35.7 -21.4 --- --- 725.7 0.019 0.000 8.2 5 1
02/17/06 3:50 a -9.3 -9.3 -9.3 --- --- 31.3 SSE 0.52 35.7 -21.4 --- --- 725.7 0.019 0.000 8.2 5 1
02/17/06 3:51 a -9.3 -9.3 -9.4 --- --- 33.0 SSE 0.55 35.7 -21.7 --- --- 725.9 0.019 0.000 8.2 5 1
02/17/06 3:52 a -9.4 -9.3 -9.4 --- --- 34.8 SSE 0.58 41.7 -22.0 --- --- 725.7 0.019 0.000 8.2 5 1
02/17/06 3:53 a -9.4 -9.4 -9.5 --- --- 31.3 SSE 0.52 34.8 -21.6 --- --- 725.9 0.019 0.000 8.2 5 1
02/17/06 3:54 a -9.5 -9.4 -9.5 --- --- 30.4 SSE 0.51 36.5 -21.6 --- --- 725.7 0.019 0.000 8.2 5 1
02/17/06 3:55 a -9.5 -9.5 -9.6 --- --- 32.2 SSE 0.54 35.7 -21.8 --- --- 725.8 0.019 0.000 8.2 5 1
02/17/06 3:56 a -9.4 -9.4 -9.5 --- --- 33.0 SSE 0.55 37.4 -21.8 --- --- 725.8 0.019 0.000 8.2 5 1
02/17/06 3:57 a -9.4 -9.4 -9.4 --- --- 33.0 SSE 0.55 36.5 -21.8 --- --- 725.8 0.019 0.000 8.2 5 1
02/17/06 3:58 a -9.4 -9.4 -9.4 --- --- 34.8 SSE 0.58 37.4 -22.0 --- --- 725.7 0.019 0.000 8.2 5 1
02/17/06 3:59 a -9.4 -9.3 -9.4 --- --- 32.2 SSE 0.54 36.5 -21.7 --- --- 725.8 0.019 0.000 8.2 5 1
02/17/06 4:00 a -9.3 -9.3 -9.4 --- --- 33.0 SSE 0.55 37.4 -21.7 --- --- 725.7 0.019 0.000 8.2 5 1
02/17/06 4:01 a -9.3 -9.3 -9.3 --- --- 31.3 SSE 0.52 34.8 -21.4 --- --- 725.7 0.019 0.000 8.2 5 1
02/17/06 4:02 a -9.3 -9.3 -9.3 --- --- 32.2 SSE 0.54 36.5 -21.5 --- --- 725.8 0.019 0.000 8.2 5 1
02/17/06 4:03 a -9.3 -9.3 -9.3 --- --- 33.0 SSE 0.55 37.4 -21.6 --- --- 725.7 0.019 0.000 8.2 5 1
02/17/06 4:04 a -9.3 -9.3 -9.3 --- --- 29.6 SSE 0.49 32.2 -21.2 --- --- 725.8 0.019 0.000 8.2 5 1
02/17/06 4:05 a -9.3 -9.2 -9.3 --- --- 33.0 SSE 0.55 39.1 -21.6 --- --- 725.8 0.019 0.000 8.2 5 1
02/17/06 4:06 a -9.2 -9.2 -9.3 --- --- 28.7 SSE 0.48 32.2 -20.9 --- --- 725.8 0.019 0.000 8.2 5 1
02/17/06 4:07 a -9.2 -9.2 -9.2 --- --- 28.7 SSE 0.48 33.0 -20.9 --- --- 725.9 0.019 0.000 8.2 5 1
02/17/06 4:08 a -9.2 -9.1 -9.2 --- --- 30.4 SSE 0.51 33.0 -21.1 --- --- 725.8 0.019 0.000 8.2 5 1
02/17/06 4:09 a -9.1 -9.1 -9.1 --- --- 28.7 SSE 0.48 31.3 -20.7 --- --- 725.9 0.019 0.000 8.2 5 1
02/17/06 4:10 a -9.1 -9.0 -9.1 --- --- 28.7 SSE 0.48 32.2 -20.7 --- --- 725.9 0.019 0.000 8.3 5 1
02/17/06 4:11 a -9.1 -9.0 -9.1 --- --- 27.8 SSE 0.46 32.2 -20.6 --- --- 725.8 0.019 0.000 8.2 5 1
02/17/06 4:12 a -9.1 -9.0 -9.1 --- --- 33.0 SSE 0.55 36.5 -21.3 --- --- 725.8 0.019 0.000 8.2 5 1
02/17/06 4:13 a -9.0 -9.0 -9.1 --- --- 30.4 SSE 0.51 33.0 -20.9 --- --- 725.9 0.019 0.000 8.2 5 1
02/17/06 4:14 a -9.0 -9.0 -9.0 --- --- 31.3 SSE 0.52 35.7 -21.0 --- --- 725.9 0.019 0.000 8.2 5 1
02/17/06 4:15 a -8.9 -8.9 -9.0 --- --- 29.6 SSE 0.49 33.0 -20.7 --- --- 725.8 0.019 0.000 8.3 5 1
02/17/06 4:16 a -8.9 -8.9 -9.0 --- --- 28.7 SSE 0.48 35.7 -20.5 --- --- 725.9 0.019 0.000 8.2 5 1
02/17/06 4:17 a -8.9 -8.9 -8.9 --- --- 28.7 SSE 0.48 32.2 -20.5 --- --- 725.9 0.019 0.000 8.3 5 1
02/17/06 4:18 a -8.9 -8.9 -8.9 --- --- 31.3 SSE 0.52 34.8 -20.8 --- --- 725.9 0.019 0.000 8.3 5 1
02/17/06 4:19 a -8.8 -8.8 -8.9 --- --- 30.4 SSE 0.51 37.4 -20.6 --- --- 725.8 0.019 0.000 8.3 5 1
02/17/06 4:20 a -8.8 -8.8 -8.8 --- --- 29.6 SSE 0.49 33.0 -20.4 --- --- 725.9 0.019 0.000 8.3 5 1
02/17/06 4:21 a -8.8 -8.8 -8.8 --- --- 28.7 SSE 0.48 32.2 -20.3 --- --- 726.0 0.019 0.000 8.3 5 1
02/17/06 4:22 a -8.8 -8.8 -8.8 --- --- 30.4 SSE 0.51 36.5 -20.6 --- --- 725.8 0.019 0.000 8.3 5 1
02/17/06 4:23 a -8.8 -8.8 -8.8 --- --- 30.4 SSE 0.51 36.5 -20.6 --- --- 725.9 0.019 0.000 8.3 5 1
02/17/06 4:24 a -8.8 -8.8 -8.8 --- --- 29.6 SSE 0.49 32.2 -20.4 --- --- 725.9 0.019 0.000 8.3 5 1
02/17/06 4:25 a -8.8 -8.8 -8.8 --- --- 31.3 SSE 0.52 38.3 -20.8 --- --- 725.7 0.019 0.000 8.3 5 1
02/17/06 4:26 a -8.8 -8.8 -8.8 --- --- 33.0 SSE 0.55 35.7 -20.9 --- --- 725.8 0.019 0.000 8.3 5 1
02/17/06 4:27 a -8.8 -8.8 -8.8 --- --- 33.0 SSE 0.55 37.4 -21.0 --- --- 725.9 0.019 0.000 8.3 5 1
02/17/06 4:28 a -8.9 -8.9 -8.9 --- --- 31.3 SSE 0.52 33.9 -20.8 --- --- 725.8 0.019 0.000 8.3 5 1
02/17/06 4:29 a -8.9 -8.9 -8.9 --- --- 29.6 SSE 0.49 33.9 -20.7 --- --- 726.0 0.019 0.000 8.3 5 1
02/17/06 4:30 a -8.9 -8.9 -8.9 --- --- 30.4 SSE 0.51 33.0 -20.8 --- --- 725.9 0.019 0.000 8.3 5 1
02/17/06 4:31 a -9.0 -8.9 -9.0 --- --- 30.4 SSE 0.51 38.3 -20.9 --- --- 725.9 0.019 0.000 8.3 5 1
02/17/06 4:32 a -9.0 -9.0 -9.1 --- --- 28.7 SSE 0.48 33.0 -20.6 --- --- 726.0 0.019 0.000 8.3 5 1
02/17/06 4:33 a -9.1 -9.0 -9.1 --- --- 30.4 SSE 0.51 33.9 -20.9 --- --- 725.9 0.019 0.000 8.3 5 1
02/17/06 4:34 a -9.1 -9.1 -9.1 --- --- 29.6 SSE 0.49 32.2 -20.8 --- --- 726.0 0.019 0.000 8.3 5 1
02/17/06 4:35 a -9.1 -9.1 -9.1 --- --- 28.7 SSE 0.48 32.2 -20.7 --- --- 725.9 0.019 0.000 8.3 5 1
02/17/06 4:36 a -9.1 -9.1 -9.2 --- --- 29.6 SSE 0.49 33.9 -20.9 --- --- 725.9 0.019 0.000 8.3 5 1
02/17/06 4:37 a -9.2 -9.1 -9.2 --- --- 30.4 SSE 0.51 32.2 -21.1 --- --- 725.9 0.019 0.000 8.3 5 1
02/17/06 4:38 a -9.2 -9.2 -9.2 --- --- 28.7 SSE 0.48 32.2 -20.9 --- --- 726.0 0.019 0.000 8.3 5 1
02/17/06 4:39 a -9.2 -9.2 -9.2 --- --- 30.4 SSE 0.51 34.8 -21.1 --- --- 726.0 0.019 0.000 8.3 5 1
02/17/06 4:40 a -9.2 -9.2 -9.2 --- --- 31.3 SSE 0.52 34.8 -21.2 --- --- 726.0 0.019 0.000 8.3 5 1
02/17/06 4:41 a -9.2 -9.2 -9.2 --- --- 29.6 SSE 0.49 33.9 -20.9 --- --- 726.0 0.019 0.000 8.3 5 1
02/17/06 4:42 a -9.2 -9.2 -9.2 --- --- 30.4 SSE 0.51 33.0 -21.1 --- --- 725.9 0.019 0.000 8.3 5 1
02/17/06 4:43 a -9.2 -9.2 -9.3 --- --- 31.3 SSE 0.52 35.7 -21.3 --- --- 725.8 0.019 0.000 8.3 5 1
02/17/06 4:44 a -9.3 -9.3 -9.3 --- --- 33.0 SSE 0.55 36.5 -21.6 --- --- 725.9 0.019 0.000 8.2 5 1
02/17/06 4:45 a -9.3 -9.3 -9.3 --- --- 31.3 SSE 0.52 36.5 -21.4 --- --- 725.8 0.019 0.000 8.2 5 1
02/17/06 4:46 a -9.3 -9.3 -9.3 --- --- 32.2 SSE 0.54 36.5 -21.6 --- --- 725.8 0.019 0.000 8.2 5 1
02/17/06 4:47 a -9.4 -9.3 -9.4 --- --- 31.3 SSE 0.52 35.7 -21.6 --- --- 725.7 0.019 0.000 8.2 5 1
02/17/06 4:48 a -9.4 -9.3 -9.4 --- --- 31.3 SSE 0.52 38.3 -21.6 --- --- 725.7 0.019 0.000 8.2 5 1
02/17/06 4:49 a -9.4 -9.3 -9.4 --- --- 31.3 SSE 0.52 36.5 -21.6 --- --- 725.8 0.019 0.000 8.2 5 1
02/17/06 4:50 a -9.4 -9.4 -9.4 --- --- 31.3 SSE 0.52 33.9 -21.6 --- --- 725.9 0.019 0.000 8.3 5 1
02/17/06 4:51 a -9.4 -9.4 -9.4 --- --- 31.3 SSE 0.52 35.7 -21.6 --- --- 725.8 0.019 0.000 8.2 5 1
02/17/06 4:52 a -9.4 -9.4 -9.5 --- --- 32.2 SSE 0.54 36.5 -21.7 --- --- 725.7 0.019 0.000 8.3 5 1
02/17/06 4:53 a -9.4 -9.4 -9.5 --- --- 30.4 SSE 0.51 36.5 -21.5 --- --- 725.6 0.019 0.000 8.3 5 1
02/17/06 4:54 a -9.5 -9.5 -9.5 --- --- 32.2 SSE 0.54 35.7 -21.8 --- --- 725.7 0.019 0.000 8.2 5 1
02/17/06 4:55 a -9.4 -9.4 -9.5 --- --- 32.2 SSE 0.54 36.5 -21.7 --- --- 725.7 0.019 0.000 8.3 5 1
02/17/06 4:56 a -9.4 -9.4 -9.4 --- --- 31.3 SSE 0.52 37.4 -21.6 --- --- 725.9 0.019 0.000 8.3 5 1
02/17/06 4:57 a -9.4 -9.4 -9.4 --- --- 30.4 SSE 0.51 34.8 -21.4 --- --- 725.7 0.019 0.000 8.3 5 1
02/17/06 4:58 a -9.4 -9.4 -9.4 --- --- 33.0 SSE 0.55 35.7 -21.8 --- --- 725.6 0.019 0.000 8.3 5 1
02/17/06 4:59 a -9.4 -9.3 -9.4 --- --- 34.8 SSE 0.58 37.4 -22.0 --- --- 725.7 0.019 0.000 8.3 5 1
02/17/06 5:00 a -9.3 -9.3 -9.4 --- --- 32.2 SSE 0.54 35.7 -21.6 --- --- 725.6 0.019 0.000 8.2 5 1
02/17/06 5:01 a -9.3 -9.3 -9.3 --- --- 31.3 SSE 0.52 36.5 -21.4 --- --- 725.7 0.019 0.000 8.3 5 1
02/17/06 5:02 a -9.3 -9.3 -9.3 --- --- 31.3 SSE 0.52 34.8 -21.4 --- --- 725.7 0.019 0.000 8.3 5 1
02/17/06 5:03 a -9.3 -9.3 -9.3 --- --- 30.4 SSE 0.51 33.9 -21.2 --- --- 725.7 0.019 0.000 8.3 5 1
02/17/06 5:04 a -9.3 -9.3 -9.3 --- --- 31.3 SSE 0.52 35.7 -21.4 --- --- 725.7 0.019 0.000 8.3 5 1
02/17/06 5:05 a -9.3 -9.3 -9.3 --- --- 29.6 SSE 0.49 32.2 -21.2 --- --- 725.6 0.019 0.000 8.3 5 1
02/17/06 5:06 a -9.3 -9.3 -9.4 --- --- 29.6 SSE 0.49 34.8 -21.2 --- --- 725.8 0.019 0.000 8.3 5 1
02/17/06 5:07 a -9.4 -9.3 -9.4 --- --- 29.6 SSE 0.49 33.9 -21.3 --- --- 725.6 0.019 0.000 8.3 5 1
02/17/06 5:08 a -9.4 -9.4 -9.4 --- --- 33.9 SSE 0.57 37.4 -21.9 --- --- 725.6 0.019 0.000 8.3 5 1
02/17/06 5:09 a -9.4 -9.4 -9.4 --- --- 33.0 SSE 0.55 38.3 -21.8 --- --- 725.5 0.019 0.000 8.3 5 1
02/17/06 5:10 a -9.4 -9.4 -9.4 --- --- 33.0 SSE 0.55 37.4 -21.8 --- --- 725.5 0.019 0.000 8.3 5 1
02/17/06 5:11 a -9.4 -9.4 -9.4 --- --- 31.3 SSE 0.52 35.7 -21.6 --- --- 725.7 0.019 0.000 8.3 5 1
02/17/06 5:12 a -9.4 -9.4 -9.4 --- --- 32.2 SE 0.54 36.5 -21.7 --- --- 725.7 0.019 0.000 8.3 5 1
02/17/06 5:13 a -9.4 -9.4 -9.4 --- --- 32.2 SE 0.54 37.4 -21.7 --- --- 725.5 0.019 0.000 8.3 5 1
02/17/06 5:14 a -9.4 -9.4 -9.4 --- --- 32.2 SSE 0.54 35.7 -21.7 --- --- 725.6 0.019 0.000 8.3 5 1
02/17/06 5:15 a -9.4 -9.4 -9.4 --- --- 34.8 SSE 0.58 40.0 -22.0 --- --- 725.6 0.019 0.000 8.3 5 1
02/17/06 5:16 a -9.4 -9.4 -9.4 --- --- 33.0 SSE 0.55 37.4 -21.8 --- --- 725.5 0.019 0.000 8.3 5 1
02/17/06 5:17 a -9.4 -9.4 -9.4 --- --- 33.9 SSE 0.57 38.3 -22.0 --- --- 725.4 0.019 0.000 8.3 5 1
02/17/06 5:18 a -9.4 -9.4 -9.5 --- --- 34.8 SSE 0.58 39.1 -22.1 --- --- 725.5 0.019 0.000 8.3 5 1
02/17/06 5:19 a -9.4 -9.4 -9.5 --- --- 33.9 SSE 0.57 40.9 -22.0 --- --- 725.7 0.019 0.000 8.3 5 1
02/17/06 5:20 a -9.5 -9.5 -9.6 --- --- 33.9 SSE 0.57 38.3 -22.1 --- --- 725.6 0.019 0.000 8.3 5 1
02/17/06 5:21 a -9.6 -9.6 -9.6 --- --- 33.0 SSE 0.55 37.4 -22.0 --- --- 725.6 0.019 0.000 8.3 5 1
02/17/06 5:22 a -9.6 -9.6 -9.6 --- --- 33.0 SSE 0.55 37.4 -22.1 --- --- 725.5 0.019 0.000 8.3 5 1
02/17/06 5:23 a -9.6 -9.6 -9.6 --- --- 32.2 SSE 0.54 34.8 -21.9 --- --- 725.6 0.019 0.000 8.3 5 1
02/17/06 5:24 a -9.6 -9.6 -9.7 --- --- 32.2 SSE 0.54 40.0 -21.9 --- --- 725.7 0.019 0.000 8.3 5 1
02/17/06 5:25 a -9.7 -9.7 -9.7 --- --- 30.4 SSE 0.51 34.8 -21.8 --- --- 725.7 0.019 0.000 8.3 5 1
02/17/06 5:26 a -9.7 -9.7 -9.7 --- --- 33.0 SSE 0.55 39.1 -22.2 --- --- 725.7 0.019 0.000 8.3 5 1
02/17/06 5:27 a -9.7 -9.7 -9.7 --- --- 30.4 SE 0.51 34.8 -21.8 --- --- 725.7 0.019 0.000 8.3 5 1
02/17/06 5:28 a -9.7 -9.7 -9.7 --- --- 32.2 SSE 0.54 35.7 -22.1 --- --- 725.7 0.019 0.000 8.3 5 1
02/17/06 5:29 a -9.7 -9.7 -9.7 --- --- 29.6 SSE 0.49 33.9 -21.7 --- --- 725.8 0.019 0.000 8.3 5 1
02/17/06 5:30 a -9.7 -9.7 -9.7 --- --- 29.6 SSE 0.49 34.8 -21.7 --- --- 725.8 0.019 0.000 8.3 5 1
02/17/06 5:31 a -9.7 -9.7 -9.7 --- --- 28.7 SSE 0.48 33.9 -21.6 --- --- 725.7 0.019 0.000 8.3 5 1
02/17/06 5:32 a -9.7 -9.7 -9.7 --- --- 30.4 SSE 0.51 35.7 -21.8 --- --- 725.7 0.019 0.000 8.3 5 1
02/17/06 5:33 a -9.7 -9.7 -9.7 --- --- 29.6 SSE 0.49 34.8 -21.7 --- --- 725.7 0.019 0.000 8.3 5 1
02/17/06 5:34 a -9.7 -9.7 -9.7 --- --- 27.8 SE 0.46 29.6 -21.4 --- --- 725.8 0.019 0.000 8.3 5 1
02/17/06 5:35 a -9.7 -9.7 -9.7 --- --- 29.6 SE 0.49 33.9 -21.7 --- --- 725.7 0.019 0.000 8.3 5 1
02/17/06 5:36 a -9.7 -9.7 -9.7 --- --- 27.8 SE 0.46 30.4 -21.4 --- --- 725.6 0.019 0.000 8.3 5 1
02/17/06 5:37 a -9.7 -9.7 -9.7 --- --- 27.0 SSE 0.45 29.6 -21.3 --- --- 725.8 0.019 0.000 8.3 5 1
02/17/06 5:38 a -9.7 -9.7 -9.7 --- --- 27.8 SSE 0.46 31.3 -21.4 --- --- 725.7 0.019 0.000 8.3 5 1
02/17/06 5:39 a -9.7 -9.7 -9.7 --- --- 27.0 SSE 0.45 30.4 -21.3 --- --- 725.7 0.019 0.000 8.3 5 1
02/17/06 5:40 a -9.7 -9.7 -9.8 --- --- 27.8 SSE 0.46 32.2 -21.4 --- --- 725.8 0.019 0.000 8.3 5 1
02/17/06 5:41 a -9.7 -9.7 -9.7 --- --- 29.6 SSE 0.49 34.8 -21.7 --- --- 725.6 0.019 0.000 8.3 5 1
02/17/06 5:42 a -9.7 -9.7 -9.7 --- --- 29.6 SSE 0.49 39.1 -21.7 --- --- 725.7 0.019 0.000 8.3 5 1
02/17/06 5:43 a -9.7 -9.7 -9.7 --- --- 31.3 SSE 0.52 34.8 -22.0 --- --- 725.6 0.019 0.000 8.3 5 1
02/17/06 5:44 a -9.7 -9.7 -9.7 --- --- 32.2 SSE 0.54 35.7 -22.1 --- --- 725.5 0.019 0.000 8.3 5 1
02/17/06 5:45 a -9.7 -9.7 -9.7 --- --- 31.3 SSE 0.52 35.7 -22.0 --- --- 725.5 0.019 0.000 8.3 5 1
02/17/06 5:46 a -9.7 -9.7 -9.7 --- --- 31.3 SSE 0.52 35.7 -22.0 --- --- 725.6 0.019 0.000 8.3 6 1
02/17/06 5:47 a -9.7 -9.7 -9.7 --- --- 29.6 SSE 0.49 33.9 -21.7 --- --- 725.6 0.019 0.000 8.3 6 1
02/17/06 5:48 a -9.7 -9.7 -9.7 --- --- 27.0 SSE 0.45 30.4 -21.3 --- --- 725.7 0.019 0.000 8.3 5 1
02/17/06 5:49 a -9.7 -9.7 -9.7 --- --- 27.8 SSE 0.46 30.4 -21.4 --- --- 725.6 0.019 0.000 8.3 5 1
02/17/06 5:50 a -9.7 -9.6 -9.7 --- --- 31.3 SSE 0.52 34.8 -21.9 --- --- 725.6 0.019 0.000 8.3 5 1
02/17/06 5:51 a -9.6 -9.6 -9.7 --- --- 30.4 SSE 0.51 34.8 -21.7 --- --- 725.6 0.019 0.000 8.3 5 1
02/17/06 5:52 a -9.7 -9.7 -9.7 --- --- 30.4 SSE 0.51 34.8 -21.8 --- --- 725.5 0.019 0.000 8.3 5 1
02/17/06 5:53 a -9.7 -9.7 -9.7 --- --- 29.6 SSE 0.49 36.5 -21.7 --- --- 725.6 0.019 0.000 8.3 5 1
02/17/06 5:54 a -9.7 -9.7 -9.7 --- --- 29.6 SSE 0.49 31.3 -21.7 --- --- 725.5 0.019 0.000 8.3 5 1
02/17/06 5:55 a -9.7 -9.7 -9.7 --- --- 27.8 SSE 0.46 30.4 -21.4 --- --- 725.6 0.019 0.000 8.3 5 1
02/17/06 5:56 a -9.7 -9.7 -9.7 --- --- 30.4 SSE 0.51 32.2 -21.8 --- --- 725.5 0.019 0.000 8.3 5 1
02/17/06 5:57 a -9.7 -9.7 -9.7 --- --- 29.6 SSE 0.49 32.2 -21.7 --- --- 725.6 0.019 0.000 8.3 5 1
02/17/06 5:58 a -9.7 -9.7 -9.7 --- --- 29.6 SSE 0.49 32.2 -21.7 --- --- 725.6 0.019 0.000 8.3 5 1
02/17/06 5:59 a -9.7 -9.7 -9.8 --- --- 28.7 SSE 0.48 31.3 -21.6 --- --- 725.6 0.019 0.000 8.3 5 1
02/17/06 6:00 a -9.7 -9.7 -9.8 --- --- 29.6 SE 0.49 33.0 -21.7 --- --- 725.6 0.019 0.000 8.3 5 1
02/17/06 6:01 a -9.7 -9.7 -9.8 --- --- 28.7 SSE 0.48 31.3 -21.6 --- --- 725.7 0.019 0.000 8.3 5 1
02/17/06 6:02 a -9.8 -9.8 -9.8 --- --- 30.4 SE 0.51 33.9 -21.9 --- --- 725.7 0.020 0.000 8.3 5 1
02/17/06 6:03 a -9.8 -9.8 -9.8 --- --- 29.6 SSE 0.49 32.2 -21.8 --- --- 725.7 0.020 0.000 8.3 5 1
02/17/06 6:04 a -9.8 -9.8 -9.8 --- --- 28.7 SE 0.48 31.3 -21.7 --- --- 725.7 0.020 0.000 8.3 5 1
02/17/06 6:05 a -9.8 -9.8 -9.8 --- --- 30.4 SSE 0.51 36.5 -22.0 --- --- 725.7 0.020 0.000 8.3 5 1
02/17/06 6:06 a -9.8 -9.8 -9.8 --- --- 27.8 SSE 0.46 30.4 -21.6 --- --- 725.8 0.020 0.000 8.3 5 1
02/17/06 6:07 a -9.8 -9.8 -9.9 --- --- 29.6 SSE 0.49 32.2 -21.9 --- --- 725.8 0.020 0.000 8.3 5 1
02/17/06 6:08 a -9.9 -9.9 -9.9 --- --- 27.8 SSE 0.46 30.4 -21.7 --- --- 725.8 0.020 0.000 8.3 5 1
02/17/06 6:09 a -9.9 -9.9 -9.9 --- --- 28.7 SSE 0.48 33.9 -21.9 --- --- 725.8 0.020 0.000 8.3 5 1
02/17/06 6:10 a -9.9 -9.9 -9.9 --- --- 27.8 SE 0.46 30.4 -21.7 --- --- 725.8 0.020 0.000 8.3 5 1
02/17/06 6:11 a -9.9 -9.9 -9.9 --- --- 28.7 SSE 0.48 32.2 -21.9 --- --- 725.6 0.020 0.000 8.3 5 1
02/17/06 6:12 a -9.9 -9.9 -9.9 --- --- 29.6 SE 0.49 33.9 -21.9 --- --- 725.7 0.020 0.000 8.3 5 1
02/17/06 6:13 a -9.9 -9.9 -9.9 --- --- 29.6 SSE 0.49 33.0 -22.1 --- --- 725.7 0.020 0.000 8.3 5 1
02/17/06 6:14 a -10.0 -9.9 -10.0 --- --- 32.2 SSE 0.54 35.7 -22.5 --- --- 725.7 0.020 0.000 8.2 5 1
02/17/06 6:15 a -10.0 -9.9 -10.0 --- --- 32.2 SSE 0.54 39.1 -22.5 --- --- 725.7 0.020 0.000 8.2 5 1
02/17/06 6:16 a -10.0 -10.0 -10.0 --- --- 30.4 SSE 0.51 34.8 -22.2 --- --- 725.6 0.020 0.000 8.3 5 1
02/17/06 6:17 a -10.1 -10.0 -10.1 --- --- 32.2 SSE 0.54 37.4 -22.6 --- --- 725.4 0.020 0.000 8.3 5 1
02/17/06 6:18 a -10.0 -10.0 -10.1 --- --- 31.3 SSE 0.52 35.7 -22.4 --- --- 725.6 0.020 0.000 8.3 5 1
02/17/06 6:19 a -10.1 -10.1 -10.1 --- --- 33.0 SSE 0.55 40.9 -22.7 --- --- 725.5 0.020 0.000 8.3 5 1
02/17/06 6:20 a -10.1 -10.1 -10.1 --- --- 33.0 SSE 0.55 40.9 -22.7 --- --- 725.6 0.020 0.000 8.3 5 1
02/17/06 6:21 a -10.1 -10.1 -10.1 --- --- 32.2 SSE 0.54 36.5 -22.6 --- --- 725.6 0.020 0.000 8.3 5 1
02/17/06 6:22 a -10.1 -10.1 -10.1 --- --- 31.3 SE 0.52 34.8 -22.5 --- --- 725.6 0.020 0.000 8.3 6 1
02/17/06 6:23 a -10.1 -10.1 -10.2 --- --- 30.4 SE 0.51 33.0 -22.4 --- --- 725.5 0.020 0.000 8.3 6 1
02/17/06 6:24 a -10.1 -10.1 -10.2 --- --- 30.4 SE 0.51 33.0 -22.4 --- --- 725.7 0.020 0.000 8.3 5 1
02/17/06 6:25 a -10.1 -10.1 -10.1 --- --- 29.6 SSE 0.49 33.0 -22.3 --- --- 725.7 0.020 0.000 8.3 5 1
02/17/06 6:26 a -10.1 -10.1 -10.2 --- --- 29.6 SSE 0.49 33.9 -22.3 --- --- 725.6 0.020 0.000 8.3 5 1
02/17/06 6:27 a -10.2 -10.2 -10.2 --- --- 29.6 SSE 0.49 33.9 -22.3 --- --- 725.7 0.020 0.000 8.3 6 1
02/17/06 6:28 a -10.2 -10.2 -10.2 --- --- 29.6 SSE 0.49 32.2 -22.3 --- --- 725.6 0.020 0.000 8.3 5 1
02/17/06 6:29 a -10.2 -10.2 -10.2 --- --- 28.7 SE 0.48 32.2 -22.3 --- --- 725.6 0.020 0.000 8.3 5 1
02/17/06 6:30 a -10.2 -10.2 -10.2 --- --- 28.7 SSE 0.48 32.2 -22.3 --- --- 725.6 0.020 0.000 8.3 5 1
02/17/06 6:31 a -10.2 -10.2 -10.2 --- --- 29.6 SE 0.49 34.8 -22.4 --- --- 725.6 0.020 0.000 8.3 5 1
02/17/06 6:32 a -10.2 -10.2 -10.3 --- --- 30.4 SSE 0.51 34.8 -22.6 --- --- 725.5 0.020 0.000 8.3 6 1
02/17/06 6:33 a -10.3 -10.2 -10.3 --- --- 29.6 SSE 0.49 33.0 -22.5 --- --- 725.7 0.020 0.000 8.3 5 1
02/17/06 6:34 a -10.2 -10.2 -10.3 --- --- 32.2 SSE 0.54 36.5 -22.8 --- --- 725.6 0.020 0.000 8.3 5 1
02/17/06 6:35 a -10.3 -10.3 -10.3 --- --- 30.4 SSE 0.51 33.9 -22.6 --- --- 725.5 0.020 0.000 8.3 5 1
02/17/06 6:36 a -10.3 -10.2 -10.3 --- --- 33.0 SSE 0.55 36.5 -23.0 --- --- 725.6 0.020 0.000 8.3 5 1
02/17/06 6:37 a -10.3 -10.3 -10.3 --- --- 28.7 SSE 0.48 33.9 -22.3 --- --- 725.6 0.020 0.000 8.3 6 1
02/17/06 6:38 a -10.3 -10.2 -10.3 --- --- 28.7 SSE 0.48 30.4 -22.3 --- --- 725.6 0.020 0.000 8.3 5 1
02/17/06 6:39 a -10.2 -10.2 -10.3 --- --- 28.7 SE 0.48 31.3 -22.3 --- --- 725.6 0.020 0.000 8.3 5 1
02/17/06 6:40 a -10.2 -10.2 -10.2 --- --- 28.7 SE 0.48 33.9 -22.3 --- --- 725.6 0.020 0.000 8.3 5 1
02/17/06 6:41 a -10.2 -10.2 -10.3 --- --- 28.7 SE 0.48 32.2 -22.3 --- --- 725.7 0.020 0.000 8.3 5 1
02/17/06 6:42 a -10.2 -10.2 -10.3 --- --- 30.4 SE 0.51 32.2 -22.6 --- --- 725.5 0.020 0.000 8.3 5 1
02/17/06 6:43 a -10.3 -10.2 -10.3 --- --- 29.6 SE 0.49 32.2 -22.5 --- --- 725.6 0.020 0.000 8.3 5 1
02/17/06 6:44 a -10.3 -10.3 -10.3 --- --- 28.7 SE 0.48 31.3 -22.3 --- --- 725.6 0.020 0.000 8.3 5 1
02/17/06 6:45 a -10.3 -10.3 -10.3 --- --- 27.8 SE 0.46 30.4 -22.3 --- --- 725.7 0.020 0.000 8.3 5 1
02/17/06 6:46 a -10.4 -10.4 -10.4 --- --- 27.8 SE 0.46 30.4 -22.3 --- --- 725.7 0.020 0.000 8.3 5 1
02/17/06 6:47 a -10.4 -10.4 -10.4 --- --- 28.7 SE 0.48 30.4 -22.5 --- --- 725.5 0.020 0.000 8.3 5 1
02/17/06 6:48 a -10.4 -10.4 -10.4 --- --- 29.6 SE 0.49 31.3 -22.7 --- --- 725.4 0.020 0.000 8.3 5 1
02/17/06 6:49 a -10.4 -10.4 -10.4 --- --- 30.4 SE 0.51 32.2 -22.8 --- --- 725.4 0.020 0.000 8.3 5 1
02/17/06 6:50 a -10.5 -10.4 -10.5 --- --- 32.2 SE 0.54 33.0 -23.2 --- --- 725.4 0.020 0.000 8.3 5 1
02/17/06 6:51 a -10.5 -10.5 -10.6 --- --- 31.3 SE 0.52 34.8 -23.1 --- --- 725.5 0.020 0.000 8.3 5 1
02/17/06 6:52 a -10.6 -10.5 -10.6 --- --- 30.4 SE 0.51 33.9 -23.0 --- --- 725.4 0.020 0.000 8.3 5 1
02/17/06 6:53 a -10.6 -10.6 -10.6 --- --- 30.4 SE 0.51 33.9 -23.1 --- --- 725.6 0.020 0.000 8.3 5 1
02/17/06 6:54 a -10.6 -10.6 -10.6 --- --- 29.6 SE 0.49 31.3 -22.9 --- --- 725.5 0.020 0.000 8.3 6 1
02/17/06 6:55 a -10.6 -10.6 -10.7 --- --- 30.4 SE 0.51 31.3 -23.1 --- --- 725.5 0.020 0.000 8.3 5 1
02/17/06 6:56 a -10.7 -10.6 -10.7 --- --- 29.6 SE 0.49 31.3 -23.0 --- --- 725.6 0.020 0.000 8.3 5 1
02/17/06 6:57 a -10.7 -10.6 -10.7 --- --- 27.8 SE 0.46 31.3 -22.7 --- --- 725.6 0.020 0.000 8.2 5 1
02/17/06 6:58 a -10.7 -10.6 -10.7 --- --- 28.7 SE 0.48 32.2 -22.9 --- --- 725.6 0.020 0.000 8.3 5 1
02/17/06 6:59 a -10.7 -10.7 -10.7 --- --- 28.7 SE 0.48 32.2 -22.9 --- --- 725.6 0.020 0.000 8.3 5 1
02/17/06 7:00 a -10.7 -10.7 -10.7 --- --- 28.7 SE 0.48 31.3 -22.9 --- --- 725.5 0.020 0.000 8.3 5 1
02/17/06 7:01 a -10.7 -10.7 -10.7 --- --- 28.7 SE 0.48 32.2 -22.9 --- --- 725.4 0.020 0.000 8.3 5 1
02/17/06 7:02 a -10.7 -10.7 -10.7 --- --- 28.7 SE 0.48 31.3 -22.9 --- --- 725.5 0.020 0.000 8.3 5 1
02/17/06 7:03 a -10.7 -10.6 -10.7 --- --- 28.7 SE 0.48 31.3 -22.9 --- --- 725.4 0.020 0.000 8.3 5 1
02/17/06 7:04 a -10.6 -10.6 -10.7 --- --- 28.7 SE 0.48 32.2 -22.8 --- --- 725.4 0.020 0.000 8.3 5 1
02/17/06 7:05 a -10.6 -10.6 -10.7 --- --- 30.4 SE 0.51 33.0 -23.1 --- --- 725.4 0.020 0.000 8.3 5 1
02/17/06 7:06 a -10.7 -10.6 -10.7 --- --- 30.4 SE 0.51 33.0 -23.2 --- --- 725.5 0.020 0.000 8.2 5 1
02/17/06 7:07 a -10.6 -10.6 -10.7 --- --- 29.6 SE 0.49 31.3 -22.9 --- --- 725.4 0.020 0.000 8.3 5 1
02/17/06 7:08 a -10.7 -10.6 -10.7 --- --- 30.4 SE 0.51 32.2 -23.2 --- --- 725.4 0.020 0.000 8.2 5 1
02/17/06 7:09 a -10.7 -10.7 -10.7 --- --- 28.7 SE 0.48 31.3 -22.9 --- --- 725.4 0.020 0.000 8.2 5 1
02/17/06 7:10 a -10.7 -10.7 -10.7 --- --- 29.6 SE 0.49 31.3 -23.0 --- --- 725.4 0.020 0.000 8.2 6 1
02/17/06 7:11 a -10.7 -10.7 -10.7 --- --- 29.6 SE 0.49 32.2 -23.1 --- --- 725.4 0.020 0.000 8.2 5 1
02/17/06 7:12 a -10.7 -10.7 -10.7 --- --- 31.3 SE 0.52 34.8 -23.4 --- --- 725.4 0.020 0.000 8.2 5 1
02/17/06 7:13 a -10.7 -10.7 -10.7 --- --- 30.4 SE 0.51 33.9 -23.2 --- --- 725.4 0.020 0.000 8.2 5 1
02/17/06 7:14 a -10.7 -10.7 -10.8 --- --- 28.7 SE 0.48 29.6 -22.9 --- --- 725.6 0.020 0.000 8.2 5 1
02/17/06 7:15 a -10.8 -10.7 -10.8 --- --- 27.8 SE 0.46 29.6 -22.9 --- --- 725.5 0.020 0.000 8.2 5 1
02/17/06 7:16 a -10.8 -10.7 -10.8 --- --- 28.7 SE 0.48 30.4 -23.1 --- --- 725.6 0.020 0.000 8.3 5 1
02/17/06 7:17 a -10.8 -10.7 -10.8 --- --- 27.8 SE 0.46 32.2 -22.9 --- --- 725.4 0.020 0.000 8.3 5 1
02/17/06 7:18 a -10.8 -10.8 -10.8 --- --- 28.7 SE 0.48 33.0 -23.1 --- --- 725.4 0.020 0.000 8.3 5 1
02/17/06 7:19 a -10.8 -10.8 -10.8 --- --- 29.6 SE 0.49 32.2 -23.2 --- --- 725.4 0.020 0.000 8.3 5 1
02/17/06 7:20 a -10.8 -10.8 -10.8 --- --- 29.6 SE 0.49 31.3 -23.2 --- --- 725.4 0.020 0.000 8.3 5 1
02/17/06 7:21 a -10.8 -10.8 -10.8 --- --- 28.7 SE 0.48 32.2 -23.1 --- --- 725.5 0.020 0.000 8.3 5 1
02/17/06 7:22 a -10.8 -10.8 -10.8 --- --- 30.4 SE 0.51 32.2 -23.4 --- --- 725.4 0.020 0.000 8.3 5 1
02/17/06 7:23 a -10.8 -10.8 -10.8 --- --- 29.6 SE 0.49 33.0 -23.2 --- --- 725.5 0.020 0.000 8.3 5 1
02/17/06 7:24 a -10.8 -10.8 -10.8 --- --- 29.6 SE 0.49 32.2 -23.2 --- --- 725.6 0.020 0.000 8.3 5 1
02/17/06 7:25 a -10.8 -10.8 -10.8 --- --- 28.7 SSE 0.48 31.3 -23.1 --- --- 725.7 0.020 0.000 8.3 5 1
02/17/06 7:26 a -10.8 -10.8 -10.8 --- --- 26.1 SE 0.43 27.0 -22.7 --- --- 725.6 0.020 0.000 8.3 5 1
02/17/06 7:27 a -10.8 -10.8 -10.8 --- --- 26.1 SE 0.43 31.3 -22.7 --- --- 725.7 0.020 0.000 8.3 5 1
02/17/06 7:28 a -10.8 -10.8 -10.9 --- --- 25.2 SE 0.42 27.8 -22.5 --- --- 725.7 0.020 0.000 8.3 5 1
02/17/06 7:29 a -10.9 -10.8 -10.9 --- --- 26.1 SSE 0.43 28.7 -22.7 --- --- 725.6 0.020 0.000 8.3 5 1
02/17/06 7:30 a -10.9 -10.8 -10.9 --- --- 26.1 SE 0.43 27.8 -22.7 --- --- 725.5 0.020 0.000 8.3 5 1
02/17/06 7:31 a -10.9 -10.9 -10.9 --- --- 25.2 SE 0.42 27.8 -22.6 --- --- 725.6 0.020 0.000 8.3 5 1
02/17/06 7:32 a -10.9 -10.8 -10.9 --- --- 25.2 SE 0.42 28.7 -22.6 --- --- 725.7 0.020 0.000 8.3 5 1
02/17/06 7:33 a -10.9 -10.9 -10.9 --- --- 26.1 SE 0.43 30.4 -22.7 --- --- 725.7 0.020 0.000 8.3 5 1
02/17/06 7:34 a -10.9 -10.9 -10.9 --- --- 26.1 SSE 0.43 29.6 -22.7 --- --- 725.6 0.020 0.000 8.2 5 1
02/17/06 7:35 a -10.9 -10.9 -10.9 --- --- 26.1 SE 0.43 30.4 -22.7 --- --- 725.5 0.020 0.000 8.2 5 1
02/17/06 7:36 a -10.9 -10.9 -10.9 --- --- 27.0 SSE 0.45 31.3 -22.9 --- --- 725.7 0.020 0.000 8.2 5 1
02/17/06 7:37 a -10.9 -10.9 -10.9 --- --- 27.8 SE 0.46 30.4 -23.1 --- --- 725.6 0.020 0.000 8.3 5 1
02/17/06 7:38 a -10.9 -10.9 -10.9 --- --- 26.1 SE 0.43 28.7 -22.7 --- --- 725.6 0.020 0.000 8.3 5 1
02/17/06 7:39 a -10.9 -10.9 -10.9 --- --- 27.0 SE 0.45 31.3 -22.9 --- --- 725.5 0.020 0.000 8.3 5 1
02/17/06 7:40 a -10.9 -10.9 -10.9 --- --- 26.1 SE 0.43 28.7 -22.7 --- --- 725.5 0.020 0.000 8.3 5 1
02/17/06 7:41 a -10.9 -10.9 -10.9 --- --- 25.2 SE 0.42 28.7 -22.7 --- --- 725.6 0.020 0.000 8.3 5 1
02/17/06 7:42 a -10.9 -10.9 -10.9 --- --- 27.8 SSE 0.46 31.3 -23.1 --- --- 725.5 0.020 0.000 8.3 5 1
02/17/06 7:43 a -10.9 -10.9 -10.9 --- --- 26.1 SSE 0.43 29.6 -22.8 --- --- 725.4 0.020 0.000 8.2 5 1
02/17/06 7:44 a -10.9 -10.9 -10.9 --- --- 27.0 SE 0.45 30.4 -22.9 --- --- 725.6 0.020 0.000 8.2 5 1
02/17/06 7:45 a -10.9 -10.9 -10.9 --- --- 27.8 SE 0.46 30.4 -23.1 --- --- 725.5 0.020 0.000 8.2 5 1
02/17/06 7:46 a -10.9 -10.9 -11.0 --- --- 27.8 SE 0.46 29.6 -23.1 --- --- 725.4 0.020 0.000 8.2 5 1
02/17/06 7:47 a -10.9 -10.9 -10.9 --- --- 28.7 SE 0.48 31.3 -23.3 --- --- 725.4 0.020 0.000 8.2 5 1
02/17/06 7:48 a -10.9 -10.9 -10.9 --- --- 28.7 SE 0.48 34.8 -23.3 --- --- 725.4 0.020 0.000 8.2 5 1
02/17/06 7:49 a -10.9 -10.9 -11.0 --- --- 27.8 SE 0.46 33.9 -23.1 --- --- 725.4 0.020 0.000 8.2 5 1
02/17/06 7:50 a -10.9 -10.9 -10.9 --- --- 27.8 SE 0.46 30.4 -23.1 --- --- 725.3 0.020 0.000 8.2 5 1
02/17/06 7:51 a -10.9 -10.9 -10.9 --- --- 28.7 SSE 0.48 33.0 -23.3 --- --- 725.3 0.020 0.000 8.2 5 1
02/17/06 7:52 a -10.9 -10.9 -10.9 --- --- 27.0 SSE 0.45 30.4 -22.9 --- --- 725.4 0.020 0.000 8.2 5 1
02/17/06 7:53 a -10.9 -10.9 -10.9 --- --- 28.7 SSE 0.48 33.0 -23.3 --- --- 725.3 0.020 0.000 8.2 5 1
02/17/06 7:54 a -10.9 -10.9 -10.9 --- --- 29.6 SSE 0.49 33.9 -23.3 --- --- 725.4 0.020 0.000 8.2 5 1
02/17/06 7:55 a -10.8 -10.8 -10.9 --- --- 30.4 SE 0.51 32.2 -23.4 --- --- 725.4 0.020 0.000 8.2 5 1
02/17/06 7:56 a -10.9 -10.8 -10.9 --- --- 27.8 SSE 0.46 31.3 -23.1 --- --- 725.3 0.020 0.000 8.2 5 1
02/17/06 7:57 a -10.8 -10.8 -10.8 --- --- 28.7 SE 0.48 31.3 -23.1 --- --- 725.4 0.020 0.000 8.2 5 1
02/17/06 7:58 a -10.8 -10.8 -10.8 --- --- 30.4 SSE 0.51 33.0 -23.4 --- --- 725.3 0.020 0.000 8.2 5 1
02/17/06 7:59 a -10.8 -10.8 -10.8 --- --- 27.8 SE 0.46 30.4 -22.9 --- --- 725.4 0.020 0.000 8.2 5 1
02/17/06 8:00 a -10.8 -10.8 -10.8 --- --- 27.8 SE 0.46 33.0 -22.9 --- --- 725.4 0.020 0.000 8.2 5 1
02/17/06 8:01 a -10.8 -10.8 -10.8 --- --- 27.8 SE 0.46 31.3 -22.9 --- --- 725.4 0.020 0.000 8.2 5 1
02/17/06 8:02 a -10.8 -10.8 -10.8 --- --- 27.0 SE 0.45 29.6 -22.8 --- --- 725.5 0.020 0.000 8.2 5 1
02/17/06 8:03 a -10.8 -10.8 -10.8 --- --- 28.7 SE 0.48 34.8 -23.1 --- --- 725.4 0.020 0.000 8.2 5 1
02/17/06 8:04 a -10.8 -10.8 -10.8 --- --- 29.6 SE 0.49 33.0 -23.2 --- --- 725.3 0.020 0.000 8.2 5 1
02/17/06 8:05 a -10.8 -10.8 -10.8 --- --- 30.4 SE 0.51 33.0 -23.4 --- --- 725.4 0.020 0.000 8.2 5 1
02/17/06 8:06 a -10.8 -10.8 -10.8 --- --- 28.7 SE 0.48 32.2 -23.1 --- --- 725.3 0.020 0.000 8.2 5 1
02/17/06 8:07 a -10.8 -10.7 -10.8 --- --- 28.7 SE 0.48 30.4 -23.1 --- --- 725.3 0.020 0.000 8.2 5 1
02/17/06 8:08 a -10.8 -10.7 -10.8 --- --- 28.7 SE 0.48 31.3 -23.1 --- --- 725.4 0.020 0.000 8.2 5 1
02/17/06 8:09 a -10.8 -10.7 -10.8 --- --- 28.7 SE 0.48 29.6 -23.1 --- --- 725.3 0.020 0.000 8.2 5 1
02/17/06 8:10 a -10.7 -10.7 -10.8 --- --- 30.4 SE 0.51 33.0 -23.2 --- --- 725.2 0.020 0.000 8.2 5 1
02/17/06 8:11 a -10.7 -10.7 -10.7 --- --- 29.6 SE 0.49 33.0 -23.1 --- --- 725.3 0.020 0.000 8.2 5 1
02/17/06 8:12 a -10.7 -10.7 -10.7 --- --- 28.7 SE 0.48 33.0 -22.9 --- --- 725.3 0.020 0.000 8.2 5 1
02/17/06 8:13 a -10.7 -10.7 -10.7 --- --- 29.6 SE 0.49 33.0 -23.1 --- --- 725.2 0.020 0.000 8.2 5 1
02/17/06 8:14 a -10.7 -10.7 -10.7 --- --- 31.3 SE 0.52 38.3 -23.4 --- --- 725.2 0.020 0.000 8.2 5 1
02/17/06 8:15 a -10.7 -10.7 -10.7 --- --- 30.4 SE 0.51 34.8 -23.2 --- --- 725.3 0.020 0.000 8.2 5 1
02/17/06 8:16 a -10.7 -10.7 -10.7 --- --- 31.3 SE 0.52 34.8 -23.3 --- --- 725.1 0.020 0.000 8.2 5 1
02/17/06 8:17 a -10.7 -10.7 -10.7 --- --- 32.2 SE 0.54 36.5 -23.5 --- --- 725.1 0.020 0.000 8.2 5 1
02/17/06 8:18 a -10.7 -10.7 -10.7 --- --- 30.4 SE 0.51 33.0 -23.2 --- --- 725.3 0.020 0.000 8.2 5 1
02/17/06 8:19 a -10.7 -10.7 -10.7 --- --- 29.6 SE 0.49 31.3 -23.1 --- --- 725.4 0.020 0.000 8.2 5 1
02/17/06 8:20 a -10.7 -10.7 -10.7 --- --- 29.6 SE 0.49 30.4 -23.1 --- --- 725.3 0.020 0.000 8.2 5 1
02/17/06 8:21 a -10.7 -10.7 -10.7 --- --- 27.0 SE 0.45 29.6 -22.7 --- --- 725.4 0.020 0.000 8.2 5 1
02/17/06 8:22 a -10.7 -10.7 -10.7 --- --- 27.8 SE 0.46 29.6 -22.8 --- --- 725.5 0.020 0.000 8.2 5 1
02/17/06 8:23 a -10.7 -10.7 -10.7 --- --- 27.8 SE 0.46 30.4 -22.8 --- --- 725.5 0.020 0.000 8.2 5 1
02/17/06 8:24 a -10.7 -10.7 -10.7 --- --- 27.8 SE 0.46 30.4 -22.8 --- --- 725.3 0.020 0.000 8.2 5 1
02/17/06 8:25 a -10.7 -10.7 -10.7 --- --- 28.7 SE 0.48 31.3 -22.9 --- --- 725.4 0.020 0.000 8.2 5 1
02/17/06 8:26 a -10.7 -10.7 -10.7 --- --- 29.6 SE 0.49 30.4 -23.1 --- --- 725.3 0.020 0.000 8.2 5 1
02/17/06 8:27 a -10.7 -10.7 -10.8 --- --- 29.6 SE 0.49 33.9 -23.1 --- --- 725.3 0.020 0.000 8.2 5 1
02/17/06 8:28 a -10.8 -10.7 -10.8 --- --- 30.4 SE 0.51 35.7 -23.3 --- --- 725.2 0.020 0.000 8.2 5 1
02/17/06 8:29 a -10.7 -10.7 -10.8 --- --- 31.3 SE 0.52 35.7 -23.4 --- --- 725.2 0.020 0.000 8.2 5 1
02/17/06 8:30 a -10.7 -10.7 -10.8 --- --- 30.4 SE 0.51 34.8 -23.2 --- --- 725.3 0.020 0.000 8.2 5 1
02/17/06 8:31 a -10.7 -10.7 -10.8 --- --- 27.8 SE 0.46 30.4 -22.8 --- --- 725.4 0.020 0.000 8.2 5 1
02/17/06 8:32 a -10.8 -10.7 -10.8 --- --- 27.8 SE 0.46 30.4 -22.9 --- --- 725.4 0.020 0.000 8.2 5 1
02/17/06 8:33 a -10.8 -10.8 -10.8 --- --- 27.0 SE 0.45 29.6 -22.7 --- --- 725.5 0.020 0.000 8.2 5 1
02/17/06 8:34 a -10.8 -10.7 -10.8 --- --- 26.1 SE 0.43 28.7 -22.6 --- --- 725.4 0.020 0.000 8.2 5 1
02/17/06 8:35 a -10.8 -10.8 -10.8 --- --- 26.1 SE 0.43 28.7 -22.6 --- --- 725.5 0.020 0.000 8.2 5 1
02/17/06 8:36 a -10.8 -10.8 -10.8 --- --- 25.2 SE 0.42 27.8 -22.4 --- --- 725.4 0.020 0.000 8.2 5 1
02/17/06 8:37 a -10.8 -10.8 -10.8 --- --- 27.0 SE 0.45 28.7 -22.8 --- --- 725.4 0.020 0.000 8.2 5 1
02/17/06 8:38 a -10.8 -10.8 -10.8 --- --- 27.0 SE 0.45 29.6 -22.8 --- --- 725.5 0.020 0.000 8.2 5 1
02/17/06 8:39 a -10.8 -10.8 -10.8 --- --- 25.2 SE 0.42 28.7 -22.5 --- --- 725.4 0.020 0.000 8.2 5 1
02/17/06 8:40 a -10.8 -10.8 -10.8 --- --- 27.0 SE 0.45 31.3 -22.7 --- --- 725.3 0.020 0.000 8.2 5 1
02/17/06 8:41 a -10.8 -10.8 -10.8 --- --- 29.6 SE 0.49 32.2 -23.2 --- --- 725.1 0.020 0.000 8.2 5 1
02/17/06 8:42 a -10.8 -10.8 -10.8 --- --- 29.6 SE 0.49 32.2 -23.2 --- --- 725.3 0.020 0.000 8.2 5 1
02/17/06 8:43 a -10.8 -10.8 -10.8 --- --- 29.6 SE 0.49 31.3 -23.2 --- --- 725.2 0.020 0.000 8.2 5 1
02/17/06 8:44 a -10.8 -10.8 -10.8 --- --- 29.6 SE 0.49 32.2 -23.2 --- --- 725.2 0.020 0.000 8.2 5 1
02/17/06 8:45 a -10.8 -10.8 -10.8 --- --- 31.3 SE 0.52 33.0 -23.5 --- --- 725.2 0.020 0.000 8.2 5 1
02/17/06 8:46 a -10.8 -10.8 -10.8 --- --- 30.4 SE 0.51 32.2 -23.4 --- --- 725.2 0.020 0.000 8.2 5 1
02/17/06 8:47 a -10.8 -10.8 -10.8 --- --- 28.7 SE 0.48 30.4 -23.1 --- --- 725.3 0.020 0.000 8.2 5 1
02/17/06 8:48 a -10.8 -10.8 -10.8 --- --- 31.3 SE 0.52 34.8 -23.5 --- --- 725.2 0.020 0.000 8.2 5 1
02/17/06 8:49 a -10.8 -10.8 -10.8 --- --- 28.7 SE 0.48 31.3 -23.1 --- --- 725.2 0.020 0.000 8.2 5 1
02/17/06 8:50 a -10.8 -10.8 -10.8 --- --- 30.4 SE 0.51 33.0 -23.3 --- --- 725.2 0.020 0.000 8.2 5 1
02/17/06 8:51 a -10.8 -10.8 -10.8 --- --- 29.6 SE 0.49 33.0 -23.2 --- --- 725.2 0.020 0.000 8.2 5 1
02/17/06 8:52 a -10.8 -10.8 -10.8 --- --- 31.3 SE 0.52 33.9 -23.4 --- --- 725.3 0.020 0.000 8.2 5 1
02/17/06 8:53 a -10.8 -10.8 -10.8 --- --- 31.3 SE 0.52 34.8 -23.4 --- --- 725.4 0.020 0.000 8.2 5 1
02/17/06 8:54 a -10.8 -10.8 -10.8 --- --- 30.4 SE 0.51 33.9 -23.3 --- --- 725.3 0.020 0.000 8.2 5 1
02/17/06 8:55 a -10.8 -10.8 -10.8 --- --- 28.7 SE 0.48 31.3 -23.1 --- --- 725.3 0.020 0.000 8.2 5 1
02/17/06 8:56 a -10.8 -10.8 -10.8 --- --- 28.7 SE 0.48 30.4 -23.1 --- --- 725.4 0.020 0.000 8.2 5 1
02/17/06 8:57 a -10.8 -10.8 -10.8 --- --- 27.8 SE 0.46 30.4 -22.9 --- --- 725.3 0.020 0.000 8.2 5 1
02/17/06 8:58 a -10.8 -10.8 -10.8 --- --- 28.7 SE 0.48 32.2 -23.1 --- --- 725.5 0.020 0.000 8.2 5 1
02/17/06 8:59 a -10.8 -10.8 -10.8 --- --- 28.7 SE 0.48 31.3 -23.1 --- --- 725.4 0.020 0.000 8.2 5 1
02/17/06 9:00 a -10.8 -10.8 -10.9 --- --- 27.0 SE 0.45 30.4 -22.8 --- --- 725.4 0.020 0.000 8.2 5 1
02/17/06 9:01 a -10.9 -10.9 -10.9 --- --- 27.0 SE 0.45 29.6 -22.9 --- --- 725.4 0.020 0.000 8.2 5 1
02/17/06 9:03 a -10.9 -10.9 -10.9 --- --- 26.1 SE 0.43 27.8 -22.8 --- --- 725.5 0.020 0.000 8.2 5 1
02/17/06 9:04 a -10.9 -10.9 -10.9 --- --- 26.1 SE 0.43 28.7 -22.8 --- --- 725.4 0.020 0.000 8.2 5 1
02/17/06 9:05 a -10.9 -10.9 -11.0 --- --- 27.8 SE 0.46 31.3 -23.1 --- --- 725.3 0.020 0.000 8.2 5 1
02/17/06 9:06 a -11.0 -11.0 -11.0 --- --- 29.6 SE 0.49 31.3 -23.5 --- --- 725.3 0.020 0.000 8.2 5 1
02/17/06 9:07 a -11.0 -11.0 -11.1 --- --- 29.6 SE 0.49 32.2 -23.5 --- --- 725.3 0.020 0.000 8.2 5 1
02/17/06 9:08 a -11.1 -11.1 -11.1 --- --- 29.6 SE 0.49 33.0 -23.6 --- --- 725.3 0.020 0.000 8.2 5 1
02/17/06 9:09 a -11.1 -11.1 -11.1 --- --- 28.7 SE 0.48 32.2 -23.4 --- --- 725.3 0.020 0.000 8.2 5 1
02/17/06 9:10 a -11.1 -11.1 -11.1 --- --- 27.8 SE 0.46 30.4 -23.3 --- --- 725.3 0.020 0.000 8.2 5 1
02/17/06 9:11 a -11.1 -11.1 -11.2 --- --- 27.0 SE 0.45 28.7 -23.2 --- --- 725.4 0.020 0.000 8.2 5 1
02/17/06 9:12 a -11.2 -11.2 -11.2 --- --- 26.1 SE 0.43 28.7 -23.1 --- --- 725.4 0.020 0.000 8.2 5 1
02/17/06 9:13 a -11.2 -11.2 -11.2 --- --- 26.1 SE 0.43 28.7 -23.2 --- --- 725.4 0.021 0.000 8.2 5 1
02/17/06 9:14 a -11.2 -11.2 -11.2 --- --- 25.2 SE 0.42 27.8 -23.1 --- --- 725.4 0.021 0.000 8.2 5 1
02/17/06 9:15 a -11.3 -11.2 -11.3 --- --- 27.0 SE 0.45 30.4 -23.4 --- --- 725.4 0.021 0.000 8.2 5 1
02/17/06 9:16 a -11.3 -11.3 -11.3 --- --- 27.8 SE 0.46 29.6 -23.6 --- --- 725.3 0.021 0.000 8.2 5 1
02/17/06 9:17 a -11.3 -11.3 -11.3 --- --- 27.0 SE 0.45 28.7 -23.4 --- --- 725.3 0.021 0.000 8.2 5 1
02/17/06 9:18 a -11.3 -11.3 -11.3 --- --- 27.0 SE 0.45 27.8 -23.5 --- --- 725.4 0.021 0.000 8.2 5 1
02/17/06 9:19 a -11.3 -11.3 -11.4 --- --- 26.1 SE 0.43 27.8 -23.3 --- --- 725.4 0.021 0.000 8.2 5 1
02/17/06 9:20 a -11.4 -11.3 -11.4 --- --- 26.1 SE 0.43 27.0 -23.4 --- --- 725.4 0.021 0.000 8.2 5 1
02/17/06 9:21 a -11.4 -11.4 -11.4 --- --- 25.2 SE 0.42 27.0 -23.3 --- --- 725.5 0.021 0.000 8.2 5 1
02/17/06 9:22 a -11.4 -11.4 -11.4 --- --- 25.2 SE 0.42 27.0 -23.3 --- --- 725.5 0.021 0.000 8.2 5 1
02/17/06 9:23 a -11.4 -11.4 -11.4 --- --- 25.2 SE 0.42 26.1 -23.3 --- --- 725.6 0.021 0.000 8.2 5 1
02/17/06 9:24 a -11.4 -11.4 -11.4 --- --- 24.3 SE 0.41 26.1 -23.1 --- --- 725.5 0.021 0.000 8.2 5 1
02/17/06 9:25 a -11.4 -11.3 -11.4 --- --- 24.3 SE 0.41 26.1 -23.1 --- --- 725.5 0.021 0.000 8.2 5 1
02/17/06 9:26 a -11.3 -11.3 -11.4 --- --- 23.5 SE 0.39 26.1 -22.8 --- --- 725.6 0.021 0.000 8.2 5 1
02/17/06 9:27 a -11.3 -11.3 -11.4 --- --- 22.6 SE 0.38 24.3 -22.7 --- --- 725.6 0.021 0.000 8.2 5 1
02/17/06 9:28 a -11.3 -11.3 -11.4 --- --- 20.0 SE 0.33 20.9 -22.1 --- --- 725.6 0.021 0.000 8.2 5 1
02/17/06 9:29 a -11.3 -11.3 -11.4 --- --- 20.9 SE 0.35 22.6 -22.3 --- --- 725.7 0.021 0.000 8.2 5 1
02/17/06 9:30 a -11.3 -11.3 -11.4 --- --- 22.6 SE 0.38 24.3 -22.7 --- --- 725.5 0.021 0.000 8.2 5 1
02/17/06 9:31 a -11.3 -11.3 -11.4 --- --- 20.9 SE 0.35 23.5 -22.3 --- --- 725.5 0.021 0.000 8.2 5 1
02/17/06 9:32 a -11.3 -11.3 -11.4 --- --- 19.1 SE 0.32 21.7 -21.9 --- --- 725.5 0.021 0.000 8.2 5 1
02/17/06 9:33 a -11.3 -11.3 -11.4 --- --- 20.9 SE 0.35 23.5 -22.3 --- --- 725.5 0.021 0.000 8.2 5 1
02/17/06 9:34 a -11.3 -11.3 -11.3 --- --- 20.9 SE 0.35 22.6 -22.3 --- --- 725.5 0.021 0.000 8.2 5 1
02/17/06 9:35 a -11.3 -11.3 -11.3 --- --- 20.9 SE 0.35 22.6 -22.3 --- --- 725.4 0.021 0.000 8.2 5 1
02/17/06 9:36 a -11.3 -11.3 -11.3 --- --- 20.0 SE 0.33 21.7 -22.1 --- --- 725.5 0.021 0.000 8.2 5 1
02/17/06 9:37 a -11.3 -11.3 -11.4 --- --- 21.7 SE 0.36 24.3 -22.5 --- --- 725.4 0.021 0.000 8.2 5 1
02/17/06 9:38 a -11.4 -11.3 -11.4 --- --- 22.6 SE 0.38 24.3 -22.7 --- --- 725.3 0.021 0.000 8.2 5 1
02/17/06 9:39 a -11.3 -11.3 -11.4 --- --- 22.6 SE 0.38 24.3 -22.7 --- --- 725.3 0.021 0.000 8.2 5 1
02/17/06 9:40 a -11.3 -11.3 -11.4 --- --- 23.5 SE 0.39 25.2 -22.8 --- --- 725.4 0.021 0.000 8.2 5 1
02/17/06 9:41 a -11.3 -11.3 -11.4 --- --- 25.2 ESE 0.42 27.0 -23.2 --- --- 725.2 0.021 0.000 8.2 5 1
02/17/06 9:42 a -11.3 -11.3 -11.3 --- --- 27.0 ESE 0.45 28.7 -23.4 --- --- 725.2 0.021 0.000 8.2 5 1
02/17/06 9:43 a -11.3 -11.3 -11.3 --- --- 26.1 ESE 0.43 28.7 -23.3 --- --- 725.3 0.021 0.000 8.2 5 1
02/17/06 9:44 a -11.3 -11.2 -11.3 --- --- 26.1 ESE 0.43 28.7 -23.3 --- --- 725.2 0.021 0.000 8.2 5 1
02/17/06 9:45 a -11.3 -11.2 -11.3 --- --- 27.8 ESE 0.46 29.6 -23.6 --- --- 725.1 0.021 0.000 8.2 5 1
02/17/06 9:46 a -11.2 -11.2 -11.2 --- --- 28.7 ESE 0.48 30.4 -23.7 --- --- 725.2 0.021 0.000 8.2 5 1
02/17/06 9:47 a -11.3 -11.2 -11.3 --- --- 29.6 ESE 0.49 33.0 -23.8 --- --- 725.1 0.021 0.000 8.2 5 1
02/17/06 9:48 a -11.3 -11.3 -11.3 --- --- 28.7 ESE 0.48 30.4 -23.7 --- --- 725.1 0.021 0.000 8.2 5 1
02/17/06 9:49 a -11.3 -11.3 -11.4 --- --- 27.8 ESE 0.46 30.4 -23.7 --- --- 725.1 0.021 0.000 8.2 5 1
02/17/06 9:50 a -11.4 -11.4 -11.4 --- --- 30.4 E 0.51 34.8 -24.2 --- --- 725.2 0.021 0.000 8.2 5 1
02/17/06 9:51 a -11.5 -11.5 -11.6 --- --- 27.8 ESE 0.46 32.2 -23.9 --- --- 725.2 0.021 0.000 8.2 6 1
02/17/06 9:52 a -11.7 -11.6 -11.8 --- --- 28.7 E 0.48 31.3 -24.2 --- --- 725.1 0.021 0.000 8.2 5 1
02/17/06 9:53 a -11.8 -11.7 -11.8 --- --- 27.8 E 0.46 32.2 -24.3 --- --- 725.3 0.021 0.000 8.2 5 1
02/17/06 9:54 a -11.9 -11.9 -12.1 --- --- 27.0 ESE 0.45 32.2 -24.3 --- --- 725.3 0.021 0.000 8.2 5 1
02/17/06 9:55 a -12.1 -12.0 -12.1 --- --- 26.1 ESE 0.43 27.8 -24.3 --- --- 725.4 0.021 0.000 8.2 5 1
02/17/06 9:56 a -12.2 -12.2 -12.2 --- --- 26.1 E 0.43 28.7 -24.4 --- --- 725.2 0.021 0.000 8.2 5 1
02/17/06 9:57 a -12.3 -12.3 -12.3 --- --- 27.8 ESE 0.46 30.4 -24.9 --- --- 725.3 0.021 0.000 8.2 5 1
02/17/06 9:58 a -12.4 -12.4 -12.4 --- --- 26.1 ESE 0.43 29.6 -24.8 --- --- 725.3 0.021 0.000 8.2 5 1
02/17/06 9:59 a -12.6 -12.4 -12.6 --- --- 26.1 ESE 0.43 29.6 -25.0 --- --- 725.2 0.021 0.000 8.2 5 1
02/17/06 10:00 a -12.6 -12.6 -12.7 --- --- 28.7 ESE 0.48 30.4 -25.6 --- --- 725.3 0.021 0.000 8.2 5 1
02/17/06 10:01 a -12.7 -12.7 -12.8 --- --- 27.0 ESE 0.45 29.6 -25.4 --- --- 725.3 0.022 0.000 8.2 5 1
02/17/06 10:02 a -12.8 -12.8 -12.8 --- --- 23.5 ESE 0.39 27.0 -24.8 --- --- 725.4 0.022 0.000 8.2 5 1
02/17/06 10:03 a -12.8 -12.8 -12.8 --- --- 27.8 ESE 0.46 30.4 -25.7 --- --- 725.3 0.022 0.000 8.2 5 1
02/17/06 10:04 a -12.8 -12.8 -12.9 --- --- 27.8 ESE 0.46 33.0 -25.7 --- --- 725.1 0.022 0.000 8.2 5 1
02/17/06 10:05 a -12.9 -12.9 -12.9 --- --- 24.3 E 0.41 28.7 -25.2 --- --- 725.2 0.022 0.000 8.2 5 1
02/17/06 10:06 a -12.9 -12.9 -12.9 --- --- 22.6 E 0.38 26.1 -24.8 --- --- 725.3 0.022 0.000 8.2 5 1
02/17/06 10:07 a -12.9 -12.9 -13.0 --- --- 26.1 ESE 0.43 30.4 -25.5 --- --- 725.3 0.022 0.000 8.2 5 1
02/17/06 10:08 a -13.0 -12.9 -13.1 --- --- 23.5 ESE 0.39 25.2 -25.1 --- --- 725.4 0.022 0.000 8.2 5 1
02/17/06 10:09 a -13.1 -13.1 -13.1 --- --- 25.2 ESE 0.42 29.6 -25.5 --- --- 725.4 0.022 0.000 8.2 5 1
02/17/06 10:10 a -13.1 -13.1 -13.1 --- --- 24.3 ESE 0.41 30.4 -25.3 --- --- 725.2 0.022 0.000 8.2 5 1
02/17/06 10:11 a -13.1 -13.1 -13.1 --- --- 25.2 E 0.42 28.7 -25.6 --- --- 725.3 0.022 0.000 8.2 5 1
02/17/06 10:12 a -13.1 -13.1 -13.1 --- --- 22.6 ESE 0.38 24.3 -25.1 --- --- 725.4 0.022 0.000 8.2 5 1
02/17/06 10:13 a -13.1 -13.1 -13.1 --- --- 24.3 ESE 0.41 25.2 -25.4 --- --- 725.4 0.022 0.000 8.2 5 1
02/17/06 10:14 a -13.1 -13.1 -13.1 --- --- 25.2 ESE 0.42 27.0 -25.6 --- --- 725.3 0.022 0.000 8.2 5 1
02/17/06 10:15 a -13.1 -13.1 -13.2 --- --- 23.5 E 0.39 28.7 -25.2 --- --- 725.4 0.022 0.000 8.2 5 1
02/17/06 10:16 a -13.2 -13.2 -13.2 --- --- 22.6 E 0.38 26.1 -25.1 --- --- 725.4 0.022 0.000 8.2 5 1
02/17/06 10:17 a -13.2 -13.2 -13.3 --- --- 23.5 E 0.39 28.7 -25.4 --- --- 725.3 0.022 0.000 8.2 5 1
02/17/06 10:18 a -13.3 -13.2 -13.3 --- --- 26.1 ESE 0.43 29.6 -26.0 --- --- 725.2 0.022 0.000 8.2 5 1
02/17/06 10:19 a -13.3 -13.3 -13.4 --- --- 23.5 E 0.39 27.0 -25.6 --- --- 725.3 0.022 0.000 8.2 5 1
02/17/06 10:20 a -13.4 -13.4 -13.4 --- --- 26.1 ESE 0.43 28.7 -26.1 --- --- 725.2 0.022 0.000 8.2 5 1
02/17/06 10:21 a -13.4 -13.4 -13.4 --- --- 26.1 ESE 0.43 28.7 -26.2 --- --- 725.2 0.022 0.000 8.2 5 1
02/17/06 10:22 a -13.4 -13.4 -13.4 --- --- 28.7 ESE 0.48 30.4 -26.6 --- --- 725.1 0.022 0.000 8.2 5 1
02/17/06 10:23 a -13.4 -13.3 -13.4 --- --- 23.5 E 0.39 27.0 -25.6 --- --- 725.3 0.022 0.000 8.2 5 1
02/17/06 10:24 a -13.4 -13.4 -13.4 --- --- 23.5 E 0.39 26.1 -25.6 --- --- 725.3 0.022 0.000 8.2 5 1
02/17/06 10:25 a -13.4 -13.4 -13.4 --- --- 24.3 E 0.41 27.0 -25.8 --- --- 725.2 0.022 0.000 8.2 5 1
02/17/06 10:26 a -13.4 -13.4 -13.4 --- --- 24.3 ESE 0.41 28.7 -25.9 --- --- 725.2 0.022 0.000 8.2 5 1
02/17/06 10:27 a -13.4 -13.4 -13.4 --- --- 24.3 E 0.41 28.7 -25.9 --- --- 725.3 0.022 0.000 8.2 5 1
02/17/06 10:28 a -13.5 -13.4 -13.6 --- --- 26.1 E 0.43 28.7 -26.3 --- --- 725.3 0.022 0.000 8.2 5 1
02/17/06 10:29 a -13.6 -13.5 -13.6 --- --- 22.6 ESE 0.38 27.0 -25.7 --- --- 725.3 0.022 0.000 8.2 5 1
02/17/06 10:30 a -13.6 -13.6 -13.6 --- --- 25.2 E 0.42 29.6 -26.2 --- --- 725.2 0.022 0.000 8.2 5 1
02/17/06 10:31 a -13.6 -13.6 -13.6 --- --- 23.5 E 0.39 27.8 -25.9 --- --- 725.3 0.022 0.000 8.2 5 1
02/17/06 10:32 a -13.6 -13.6 -13.6 --- --- 25.2 ESE 0.42 29.6 -26.3 --- --- 725.3 0.022 0.000 8.2 5 1
02/17/06 10:33 a -13.6 -13.6 -13.7 --- --- 26.1 ESE 0.43 28.7 -26.4 --- --- 725.3 0.022 0.000 8.2 5 1
02/17/06 10:34 a -13.7 -13.7 -13.7 --- --- 25.2 E 0.42 28.7 -26.3 --- --- 725.1 0.022 0.000 8.2 5 1
02/17/06 10:35 a -13.7 -13.7 -13.7 --- --- 24.3 E 0.41 27.0 -26.2 --- --- 725.3 0.022 0.000 8.2 5 1
02/17/06 10:36 a -13.8 -13.7 -13.8 --- --- 26.1 E 0.43 28.7 -26.7 --- --- 725.3 0.022 0.000 8.2 5 1
02/17/06 10:37 a -13.8 -13.8 -13.8 --- --- 23.5 E 0.39 26.1 -26.2 --- --- 725.2 0.022 0.000 8.1 5 1
02/17/06 10:38 a -13.8 -13.8 -13.8 --- --- 23.5 E 0.39 28.7 -26.2 --- --- 725.3 0.022 0.000 8.2 5 1
02/17/06 10:39 a -13.8 -13.8 -13.9 --- --- 22.6 E 0.38 27.0 -26.0 --- --- 725.2 0.022 0.000 8.2 5 1
02/17/06 10:40 a -13.9 -13.9 -13.9 --- --- 20.9 E 0.35 26.1 -25.7 --- --- 725.2 0.022 0.000 8.1 5 1
02/17/06 10:41 a -13.9 -13.9 -13.9 --- --- 21.7 E 0.36 25.2 -26.0 --- --- 725.3 0.022 0.000 8.1 5 1
02/17/06 10:42 a -13.9 -13.9 -14.0 --- --- 22.6 E 0.38 26.1 -26.2 --- --- 725.2 0.022 0.000 8.1 5 1
02/17/06 10:43 a -13.9 -13.9 -14.0 --- --- 25.2 E 0.42 28.7 -26.7 --- --- 725.3 0.022 0.000 8.1 5 1
02/17/06 10:44 a -13.9 -13.9 -14.0 --- --- 21.7 ESE 0.36 25.2 -26.0 --- --- 725.3 0.022 0.000 8.1 5 1
02/17/06 10:45 a -14.0 -13.9 -14.0 --- --- 24.3 E 0.41 27.8 -26.6 --- --- 725.1 0.022 0.000 8.1 5 1
02/17/06 10:46 a -13.9 -13.9 -14.0 --- --- 23.5 E 0.39 27.0 -26.3 --- --- 725.2 0.022 0.000 8.2 5 1
02/17/06 10:47 a -14.0 -13.9 -14.0 --- --- 23.5 E 0.39 27.0 -26.4 --- --- 725.3 0.022 0.000 8.1 5 1
02/17/06 10:48 a -13.9 -13.9 -14.0 --- --- 20.9 E 0.35 24.3 -25.8 --- --- 725.2 0.022 0.000 8.1 5 1
02/17/06 10:49 a -14.0 -14.0 -14.1 --- --- 20.9 E 0.35 23.5 -25.8 --- --- 725.2 0.022 0.000 8.1 5 1
02/17/06 10:50 a -14.1 -14.0 -14.1 --- --- 20.0 E 0.33 25.2 -25.7 --- --- 725.2 0.022 0.000 8.1 5 1
02/17/06 10:51 a -14.1 -14.0 -14.1 --- --- 20.0 E 0.33 24.3 -25.7 --- --- 725.2 0.022 0.000 8.1 5 1
02/17/06 10:52 a -14.0 -13.9 -14.1 --- --- 21.7 E 0.36 26.1 -26.1 --- --- 725.2 0.022 0.000 8.1 5 1
02/17/06 10:53 a -14.0 -14.0 -14.0 --- --- 19.1 E 0.32 22.6 -25.4 --- --- 725.4 0.022 0.000 8.1 5 1
02/17/06 10:54 a -14.0 -13.9 -14.0 --- --- 17.4 E 0.29 22.6 -25.0 --- --- 725.5 0.022 0.000 8.1 5 1
02/17/06 10:55 a -14.0 -13.9 -14.0 --- --- 18.3 E 0.30 20.9 -25.2 --- --- 725.3 0.022 0.000 8.1 5 1
02/17/06 10:56 a -13.9 -13.9 -14.0 --- --- 20.0 E 0.33 23.5 -25.6 --- --- 725.2 0.022 0.000 8.1 5 1
02/17/06 10:57 a -13.9 -13.9 -14.0 --- --- 20.9 E 0.35 24.3 -25.8 --- --- 725.4 0.022 0.000 8.1 5 1
02/17/06 10:58 a -13.9 -13.9 -13.9 --- --- 20.0 E 0.33 25.2 -25.6 --- --- 725.2 0.022 0.000 8.1 5 1
02/17/06 10:59 a -13.9 -13.9 -13.9 --- --- 20.9 E 0.35 25.2 -25.8 --- --- 725.3 0.022 0.000 8.1 5 1
02/17/06 11:00 a -13.9 -13.9 -13.9 --- --- 18.3 ESE 0.30 21.7 -25.2 --- --- 725.2 0.022 0.000 8.1 5 1
02/17/06 11:01 a -13.9 -13.8 -13.9 --- --- 18.3 E 0.30 21.7 -25.1 --- --- 725.3 0.022 0.000 8.1 5 1
02/17/06 11:02 a -13.9 -13.8 -13.9 --- --- 20.0 E 0.33 24.3 -25.5 --- --- 725.3 0.022 0.000 8.1 5 1
02/17/06 11:03 a -13.8 -13.8 -13.8 --- --- 18.3 E 0.30 20.9 -25.0 --- --- 725.2 0.022 0.000 8.1 5 1
02/17/06 11:04 a -13.8 -13.7 -13.8 --- --- 19.1 E 0.32 21.7 -25.2 --- --- 725.2 0.022 0.000 8.1 5 1
02/17/06 11:05 a -13.7 -13.7 -13.7 --- --- 20.0 E 0.33 23.5 -25.3 --- --- 725.4 0.022 0.000 8.1 5 1
02/17/06 11:06 a -13.7 -13.6 -13.7 --- --- 18.3 E 0.30 25.2 -24.8 --- --- 725.1 0.022 0.000 8.1 5 1
02/17/06 11:07 a -13.6 -13.6 -13.6 --- --- 18.3 E 0.30 22.6 -24.7 --- --- 725.1 0.022 0.000 8.1 5 1
02/17/06 11:08 a -13.6 -13.6 -13.6 --- --- 18.3 E 0.30 21.7 -24.6 --- --- 725.2 0.022 0.000 8.1 5 1
02/17/06 11:09 a -13.6 -13.6 -13.6 --- --- 18.3 E 0.30 21.7 -24.6 --- --- 725.3 0.022 0.000 8.1 5 1
02/17/06 11:10 a -13.6 -13.6 -13.6 --- --- 18.3 E 0.30 22.6 -24.6 --- --- 725.1 0.022 0.000 8.1 5 1
02/17/06 11:11 a -13.6 -13.6 -13.6 --- --- 21.7 E 0.36 27.0 -25.6 --- --- 724.8 0.022 0.000 8.1 5 1
02/17/06 11:12 a -13.6 -13.6 -13.6 --- --- 19.1 E 0.32 24.3 -24.9 --- --- 725.1 0.022 0.000 8.1 5 1
02/17/06 11:13 a -13.6 -13.6 -13.6 --- --- 21.7 E 0.36 26.1 -25.6 --- --- 725.1 0.022 0.000 8.1 5 1
02/17/06 11:14 a -13.6 -13.6 -13.6 --- --- 20.9 E 0.35 27.0 -25.3 --- --- 725.2 0.022 0.000 8.2 5 1
02/17/06 11:15 a -13.6 -13.6 -13.6 --- --- 20.9 E 0.35 25.2 -25.3 --- --- 725.0 0.022 0.000 8.2 5 1
02/17/06 11:16 a -13.6 -13.6 -13.6 --- --- 22.6 E 0.38 27.8 -25.7 --- --- 725.1 0.022 0.000 8.2 5 1
02/17/06 11:17 a -13.6 -13.5 -13.6 --- --- 20.0 E 0.33 23.5 -25.1 --- --- 725.2 0.022 0.000 8.2 5 1
02/17/06 11:18 a -13.5 -13.5 -13.6 --- --- 22.6 ESE 0.38 27.8 -25.6 --- --- 724.9 0.022 0.000 8.2 5 1
02/17/06 11:19 a -13.6 -13.5 -13.6 --- --- 21.7 E 0.36 28.7 -25.4 --- --- 724.9 0.022 0.000 8.2 5 1
02/17/06 11:20 a -13.5 -13.5 -13.5 --- --- 22.6 E 0.38 28.7 -25.6 --- --- 725.1 0.022 0.000 8.2 5 1
02/17/06 11:21 a -13.5 -13.5 -13.5 --- --- 22.6 ESE 0.38 24.3 -25.6 --- --- 725.1 0.022 0.000 8.2 5 1
02/17/06 11:22 a -13.4 -13.4 -13.5 --- --- 21.7 E 0.36 24.3 -25.3 --- --- 725.2 0.022 0.000 8.2 5 1
02/17/06 11:23 a -13.4 -13.4 -13.4 --- --- 20.9 E 0.35 27.0 -25.1 --- --- 725.1 0.022 0.000 8.2 5 1
02/17/06 11:24 a -13.4 -13.4 -13.5 --- --- 19.1 E 0.32 23.5 -24.7 --- --- 725.1 0.022 0.000 8.2 5 1
02/17/06 11:25 a -13.5 -13.4 -13.5 --- --- 19.1 E 0.32 22.6 -24.8 --- --- 725.0 0.022 0.000 8.2 5 1
02/17/06 11:26 a -13.5 -13.5 -13.5 --- --- 20.0 E 0.33 22.6 -25.0 --- --- 725.1 0.022 0.000 8.2 5 1
02/17/06 11:27 a -13.6 -13.6 -13.6 --- --- 20.0 E 0.33 29.6 -25.1 --- --- 724.9 0.022 0.000 8.2 5 1
02/17/06 11:28 a -13.6 -13.5 -13.6 --- --- 21.7 E 0.36 24.3 -25.4 --- --- 725.0 0.022 0.000 8.2 5 1
02/17/06 11:29 a -13.6 -13.6 -13.6 --- --- 19.1 E 0.32 24.3 -24.8 --- --- 725.0 0.022 0.000 8.1 5 1
02/17/06 11:30 a -13.6 -13.6 -13.6 --- --- 20.0 E 0.33 22.6 -25.1 --- --- 725.1 0.022 0.000 8.1 5 1
02/17/06 11:31 a -13.6 -13.6 -13.6 --- --- 19.1 E 0.32 21.7 -24.8 --- --- 725.0 0.022 0.000 8.1 5 1
02/17/06 11:32 a -13.6 -13.6 -13.6 --- --- 20.0 E 0.33 24.3 -25.1 --- --- 725.0 0.022 0.000 8.1 5 1
02/17/06 11:33 a -13.6 -13.6 -13.7 --- --- 17.4 E 0.29 22.6 -24.5 --- --- 725.1 0.022 0.000 8.1 5 1
02/17/06 11:34 a -13.6 -13.6 -13.7 --- --- 18.3 E 0.30 21.7 -24.7 --- --- 725.0 0.022 0.000 8.1 5 1
02/17/06 11:35 a -13.7 -13.7 -13.7 --- --- 21.7 ESE 0.36 27.0 -25.6 --- --- 724.8 0.022 0.000 8.1 5 1
02/17/06 11:36 a -13.7 -13.7 -13.7 --- --- 17.4 E 0.29 20.0 -24.6 --- --- 724.9 0.022 0.000 8.1 5 1
02/17/06 11:37 a -13.7 -13.7 -13.7 --- --- 20.0 E 0.33 23.5 -25.2 --- --- 724.7 0.022 0.000 8.1 5 1
02/17/06 11:38 a -13.7 -13.7 -13.7 --- --- 20.0 E 0.33 24.3 -25.2 --- --- 724.8 0.022 0.000 8.1 5 1
02/17/06 11:39 a -13.6 -13.6 -13.7 --- --- 24.3 E 0.41 33.9 -26.1 --- --- 724.7 0.022 0.000 8.1 5 1
02/17/06 11:40 a -13.6 -13.6 -13.6 --- --- 22.6 E 0.38 26.1 -25.7 --- --- 724.9 0.022 0.000 8.1 5 1
02/17/06 11:41 a -13.6 -13.5 -13.6 --- --- 22.6 ESE 0.38 27.0 -25.7 --- --- 724.8 0.022 0.000 8.1 5 1
02/17/06 11:42 a -13.6 -13.5 -13.6 --- --- 21.7 E 0.36 24.3 -25.4 --- --- 724.7 0.022 0.000 8.1 5 1
02/17/06 11:43 a -13.5 -13.5 -13.6 --- --- 21.7 E 0.36 27.0 -25.4 --- --- 724.8 0.022 0.000 8.1 5 1
02/17/06 11:44 a -13.4 -13.4 -13.5 --- --- 20.0 E 0.33 24.3 -24.9 --- --- 724.9 0.022 0.000 8.1 5 1
02/17/06 11:45 a -13.4 -13.4 -13.4 --- --- 23.5 E 0.39 27.8 -25.7 --- --- 724.9 0.022 0.000 8.1 5 1
02/17/06 11:46 a -13.4 -13.3 -13.4 --- --- 20.0 ESE 0.33 26.1 -24.8 --- --- 724.9 0.022 0.000 8.1 5 1
02/17/06 11:47 a -13.3 -13.3 -13.4 --- --- 20.0 ESE 0.33 29.6 -24.8 --- --- 724.9 0.022 0.000 8.1 5 1
02/17/06 11:48 a -13.3 -13.3 -13.3 --- --- 20.9 E 0.35 27.0 -24.9 --- --- 724.8 0.022 0.000 8.1 5 1
02/17/06 11:49 a -13.3 -13.3 -13.3 --- --- 21.7 E 0.36 26.1 -25.1 --- --- 724.9 0.022 0.000 8.1 5 1
02/17/06 11:50 a -13.3 -13.2 -13.3 --- --- 20.9 E 0.35 23.5 -24.9 --- --- 724.9 0.022 0.000 8.1 5 1
02/17/06 11:51 a -13.2 -13.2 -13.2 --- --- 21.7 E 0.36 27.8 -25.0 --- --- 725.0 0.022 0.000 8.1 5 1
02/17/06 11:52 a -13.2 -13.2 -13.2 --- --- 20.9 E 0.35 25.2 -24.7 --- --- 724.9 0.022 0.000 8.1 5 1
02/17/06 11:53 a -13.2 -13.2 -13.2 --- --- 20.0 ESE 0.33 27.8 -24.6 --- --- 724.8 0.022 0.000 8.1 5 1
02/17/06 11:54 a -13.2 -13.1 -13.2 --- --- 20.0 E 0.33 23.5 -24.6 --- --- 724.9 0.022 0.000 8.1 5 1
02/17/06 11:55 a -13.2 -13.1 -13.2 --- --- 19.1 E 0.32 21.7 -24.3 --- --- 725.0 0.022 0.000 8.1 5 1
02/17/06 11:56 a -13.1 -13.1 -13.2 --- --- 20.9 E 0.35 24.3 -24.7 --- --- 725.0 0.022 0.000 8.1 5 1
02/17/06 11:57 a -13.1 -13.1 -13.2 --- --- 20.9 E 0.35 23.5 -24.7 --- --- 725.0 0.022 0.000 8.1 5 1
02/17/06 11:58 a -13.1 -13.1 -13.2 --- --- 21.7 E 0.36 28.7 -24.9 --- --- 725.0 0.022 0.000 8.1 5 1
02/17/06 11:59 a -13.1 -13.1 -13.2 --- --- 20.0 ESE 0.33 24.3 -24.4 --- --- 725.0 0.022 0.000 8.1 5 1
02/17/06 12:00 p -13.1 -13.1 -13.2 --- --- 20.0 E 0.33 24.3 -24.4 --- --- 724.9 0.022 0.000 8.1 5 1
02/17/06 12:01 p -13.1 -13.1 -13.2 --- --- 21.7 E 0.36 27.0 -24.9 --- --- 725.0 0.022 0.000 8.1 5 1
02/17/06 12:02 p -13.1 -13.1 -13.1 --- --- 17.4 E 0.29 20.9 -23.8 --- --- 725.0 0.022 0.000 8.1 5 1
02/17/06 12:03 p -13.1 -13.1 -13.1 --- --- 22.6 E 0.38 27.0 -25.0 --- --- 724.8 0.022 0.000 8.1 5 1
02/17/06 12:04 p -13.1 -13.1 -13.1 --- --- 21.7 ESE 0.36 25.2 -24.8 --- --- 724.9 0.022 0.000 8.1 5 1
02/17/06 12:05 p -13.1 -13.1 -13.1 --- --- 24.3 ESE 0.41 28.7 -25.3 --- --- 724.9 0.022 0.000 8.1 5 1
02/17/06 12:06 p -13.1 -13.1 -13.1 --- --- 27.0 ESE 0.45 33.0 -25.8 --- --- 724.7 0.022 0.000 8.1 5 1
02/17/06 12:07 p -13.1 -13.0 -13.1 --- --- 27.0 ESE 0.45 33.0 -25.8 --- --- 724.8 0.022 0.000 8.1 5 1
02/17/06 12:08 p -13.0 -12.9 -13.1 --- --- 21.7 ESE 0.36 24.3 -24.7 --- --- 724.9 0.022 0.000 8.1 5 1
02/17/06 12:09 p -12.9 -12.9 -13.0 --- --- 24.3 ESE 0.41 30.4 -25.2 --- --- 724.8 0.022 0.000 8.1 5 1
02/17/06 12:10 p -12.9 -12.9 -12.9 --- --- 27.8 ESE 0.46 29.6 -25.8 --- --- 724.7 0.022 0.000 8.1 5 1
02/17/06 12:11 p -12.9 -12.9 -12.9 --- --- 26.1 ESE 0.43 28.7 -25.4 --- --- 724.7 0.022 0.000 8.1 5 1
02/17/06 12:12 p -12.9 -12.8 -12.9 --- --- 26.1 ESE 0.43 31.3 -25.4 --- --- 724.6 0.022 0.000 8.1 5 1
02/17/06 12:13 p -12.8 -12.8 -12.8 --- --- 27.8 ESE 0.46 33.0 -25.7 --- --- 724.6 0.022 0.000 8.1 5 1
02/17/06 12:14 p -12.8 -12.8 -12.8 --- --- 25.2 ESE 0.42 27.8 -25.1 --- --- 724.6 0.022 0.000 8.1 5 1
02/17/06 12:15 p -12.7 -12.7 -12.7 --- --- 27.0 ESE 0.45 32.2 -25.4 --- --- 724.6 0.022 0.000 8.1 5 1
02/17/06 12:16 p -12.7 -12.7 -12.7 --- --- 26.1 ESE 0.43 30.4 -25.2 --- --- 724.6 0.022 0.000 8.1 5 1
02/17/06 12:17 p -12.7 -12.7 -12.7 --- --- 26.1 ESE 0.43 31.3 -25.2 --- --- 724.6 0.022 0.000 8.1 5 1
02/17/06 12:18 p -12.7 -12.6 -12.7 --- --- 29.6 ESE 0.49 36.5 -25.8 --- --- 724.5 0.022 0.000 8.1 5 1
02/17/06 12:19 p -12.6 -12.6 -12.7 --- --- 29.6 ESE 0.49 33.0 -25.7 --- --- 724.6 0.021 0.000 8.1 5 1
02/17/06 12:20 p -12.6 -12.6 -12.7 --- --- 26.1 ESE 0.43 31.3 -25.1 --- --- 724.5 0.021 0.000 8.1 5 1
02/17/06 12:21 p -12.6 -12.6 -12.6 --- --- 26.1 ESE 0.43 29.6 -25.1 --- --- 724.7 0.021 0.000 8.1 5 1
02/17/06 12:22 p -12.6 -12.6 -12.6 --- --- 23.5 ESE 0.39 26.1 -24.5 --- --- 724.7 0.021 0.000 8.1 5 1
02/17/06 12:23 p -12.6 -12.6 -12.6 --- --- 27.0 SE 0.45 29.6 -25.2 --- --- 724.6 0.021 0.000 8.1 5 1
02/17/06 12:24 p -12.6 -12.5 -12.6 --- --- 25.2 ESE 0.42 29.6 -24.8 --- --- 724.7 0.021 0.000 8.1 5 1
02/17/06 12:25 p -12.5 -12.5 -12.6 --- --- 27.0 ESE 0.45 29.6 -25.1 --- --- 724.6 0.021 0.000 8.1 5 1
02/17/06 12:26 p -12.5 -12.5 -12.6 --- --- 26.1 SE 0.43 28.7 -24.9 --- --- 724.7 0.021 0.000 8.1 5 1
02/17/06 12:27 p -12.5 -12.4 -12.5 --- --- 27.0 SE 0.45 28.7 -25.1 --- --- 724.5 0.021 0.000 8.1 5 1
02/17/06 12:28 p -12.5 -12.4 -12.5 --- --- 26.1 ESE 0.43 27.0 -24.9 --- --- 724.5 0.021 0.000 8.1 5 1
02/17/06 12:29 p -12.4 -12.4 -12.4 --- --- 27.0 ESE 0.45 31.3 -25.0 --- --- 724.5 0.021 0.000 8.1 5 1
02/17/06 12:30 p -12.4 -12.4 -12.4 --- --- 29.6 ESE 0.49 36.5 -25.4 --- --- 724.5 0.021 0.000 8.1 5 1
02/17/06 12:31 p -12.4 -12.4 -12.4 --- --- 27.0 ESE 0.45 30.4 -25.0 --- --- 724.5 0.021 0.000 8.1 5 1
02/17/06 12:32 p -12.4 -12.4 -12.4 --- --- 27.8 SE 0.46 32.2 -25.2 --- --- 724.5 0.021 0.000 8.1 5 1
02/17/06 12:33 p -12.4 -12.4 -12.4 --- --- 25.2 SE 0.42 27.8 -24.7 --- --- 724.7 0.021 0.000 8.1 5 1
02/17/06 12:34 p -12.4 -12.4 -12.4 --- --- 26.1 ESE 0.43 28.7 -24.8 --- --- 724.5 0.021 0.000 8.1 5 1
02/17/06 12:35 p -12.4 -12.4 -12.4 --- --- 25.2 ESE 0.42 27.0 -24.7 --- --- 724.5 0.021 0.000 8.1 5 1
02/17/06 12:36 p -12.4 -12.4 -12.4 --- --- 24.3 ESE 0.41 26.1 -24.5 --- --- 724.6 0.021 0.000 8.1 5 1
02/17/06 12:37 p -12.5 -12.4 -12.5 --- --- 25.2 ESE 0.42 27.0 -24.8 --- --- 724.5 0.021 0.000 8.0 5 1
02/17/06 12:38 p -12.5 -12.4 -12.5 --- --- 26.1 SE 0.43 27.8 -24.9 --- --- 724.6 0.021 0.000 8.1 5 1
02/17/06 12:39 p -12.5 -12.4 -12.6 --- --- 26.1 SE 0.43 27.8 -24.9 --- --- 724.5 0.021 0.000 8.0 5 1
02/17/06 12:40 p -12.5 -12.5 -12.6 --- --- 24.3 SE 0.41 26.1 -24.6 --- --- 724.6 0.021 0.000 8.0 5 1
02/17/06 12:41 p -12.6 -12.5 -12.6 --- --- 25.2 SE 0.42 27.0 -24.8 --- --- 724.5 0.021 0.000 8.0 5 1
02/17/06 12:42 p -12.5 -12.5 -12.6 --- --- 24.3 SE 0.41 26.1 -24.6 --- --- 724.6 0.021 0.000 8.0 5 1
02/17/06 12:43 p -12.5 -12.5 -12.5 --- --- 24.3 SE 0.41 26.1 -24.6 --- --- 724.6 0.021 0.000 8.0 5 1
02/17/06 12:44 p -12.6 -12.5 -12.6 --- --- 25.2 SE 0.42 26.1 -24.8 --- --- 724.6 0.021 0.000 8.0 5 1
02/17/06 12:45 p -12.5 -12.5 -12.6 --- --- 24.3 SE 0.41 26.1 -24.6 --- --- 724.5 0.021 0.000 8.0 5 1
02/17/06 12:46 p -12.5 -12.5 -12.6 --- --- 24.3 SE 0.41 26.1 -24.6 --- --- 724.5 0.021 0.000 8.0 5 1
02/17/06 12:47 p -12.6 -12.5 -12.6 --- --- 24.3 SE 0.41 26.1 -24.7 --- --- 724.4 0.021 0.000 8.0 5 1
02/17/06 12:48 p -12.6 -12.5 -12.6 --- --- 23.5 SE 0.39 25.2 -24.5 --- --- 724.6 0.021 0.000 8.0 5 1
02/17/06 12:49 p -12.5 -12.5 -12.5 --- --- 23.5 SE 0.39 25.2 -24.4 --- --- 724.6 0.021 0.000 8.0 5 1
02/17/06 12:50 p -12.5 -12.5 -12.6 --- --- 23.5 SE 0.39 27.8 -24.4 --- --- 724.5 0.021 0.000 8.0 5 1
02/17/06 12:51 p -12.6 -12.6 -12.6 --- --- 24.3 SE 0.41 26.1 -24.7 --- --- 724.5 0.021 0.000 8.0 5 1
02/17/06 12:52 p -12.6 -12.6 -12.6 --- --- 24.3 SE 0.41 27.0 -24.7 --- --- 724.5 0.021 0.000 8.0 5 1
02/17/06 12:53 p -12.6 -12.6 -12.6 --- --- 25.2 SE 0.42 27.0 -24.8 --- --- 724.4 0.021 0.000 7.9 5 1
02/17/06 12:54 p -12.6 -12.6 -12.6 --- --- 27.0 SE 0.45 28.7 -25.2 --- --- 724.4 0.021 0.000 7.9 5 1
02/17/06 12:55 p -12.6 -12.6 -12.6 --- --- 24.3 SE 0.41 27.0 -24.7 --- --- 724.4 0.021 0.000 7.9 5 1
02/17/06 12:56 p -12.6 -12.6 -12.6 --- --- 23.5 SE 0.39 26.1 -24.6 --- --- 724.4 0.021 0.000 8.0 5 1
02/17/06 12:57 p -12.6 -12.6 -12.7 --- --- 24.3 ESE 0.41 26.1 -24.7 --- --- 724.4 0.021 0.000 7.9 5 1
02/17/06 12:58 p -12.7 -12.6 -12.7 --- --- 24.3 ESE 0.41 25.2 -24.8 --- --- 724.5 0.022 0.000 8.0 5 1
02/17/06 12:59 p -12.7 -12.6 -12.7 --- --- 24.3 ESE 0.41 27.8 -24.8 --- --- 724.4 0.022 0.000 7.9 5 1
02/17/06 1:00 p -12.7 -12.7 -12.7 --- --- 22.6 ESE 0.38 26.1 -24.6 --- --- 724.4 0.022 0.000 7.9 5 1
02/17/06 1:01 p -12.7 -12.7 -12.8 --- --- 23.5 ESE 0.39 26.1 -24.7 --- --- 724.5 0.022 0.000 7.9 5 1
02/17/06 1:02 p -12.8 -12.7 -12.8 --- --- 24.3 SE 0.41 25.2 -24.9 --- --- 724.5 0.022 0.000 7.9 5 1
02/17/06 1:03 p -12.8 -12.8 -12.8 --- --- 24.3 SE 0.41 26.1 -24.9 --- --- 724.5 0.022 0.000 7.9 5 1
02/17/06 1:04 p -12.8 -12.8 -12.8 --- --- 22.6 SE 0.38 23.5 -24.7 --- --- 724.6 0.022 0.000 7.9 5 1
02/17/06 1:05 p -12.8 -12.8 -12.9 --- --- 23.5 SE 0.39 25.2 -24.9 --- --- 724.6 0.022 0.000 7.9 5 1
02/17/06 1:06 p -12.9 -12.9 -12.9 --- --- 24.3 SE 0.41 25.2 -25.1 --- --- 724.6 0.022 0.000 7.9 5 1
02/17/06 1:07 p -12.9 -12.9 -12.9 --- --- 23.5 SE 0.39 24.3 -24.9 --- --- 724.7 0.022 0.000 7.9 5 1
02/17/06 1:08 p -12.9 -12.9 -12.9 --- --- 23.5 SE 0.39 24.3 -24.9 --- --- 724.8 0.022 0.000 7.9 5 1
02/17/06 1:09 p -12.9 -12.9 -12.9 --- --- 23.5 SE 0.39 25.2 -25.0 --- --- 724.6 0.022 0.000 7.9 5 1
02/17/06 1:10 p -12.9 -12.9 -12.9 --- --- 24.3 SE 0.41 27.0 -25.2 --- --- 724.7 0.022 0.000 7.9 5 1
02/17/06 1:11 p -12.9 -12.8 -12.9 --- --- 24.3 SE 0.41 26.1 -25.1 --- --- 724.6 0.022 0.000 7.9 5 1
02/17/06 1:12 p -12.9 -12.9 -12.9 --- --- 23.5 SE 0.39 25.2 -24.9 --- --- 724.7 0.022 0.000 7.9 5 1
02/17/06 1:13 p -12.9 -12.9 -12.9 --- --- 26.1 SE 0.43 27.0 -25.4 --- --- 724.6 0.022 0.000 7.9 5 1
02/17/06 1:14 p -12.9 -12.9 -12.9 --- --- 25.2 SE 0.42 27.0 -25.3 --- --- 724.6 0.022 0.000 7.9 5 1
02/17/06 1:15 p -12.9 -12.9 -12.9 --- --- 25.2 SE 0.42 27.0 -25.3 --- --- 724.5 0.022 0.000 7.9 5 1
02/17/06 1:16 p -12.9 -12.9 -12.9 --- --- 25.2 SE 0.42 26.1 -25.3 --- --- 724.6 0.022 0.000 7.9 5 1
02/17/06 1:17 p -12.9 -12.9 -12.9 --- --- 26.1 SE 0.43 27.8 -25.4 --- --- 724.6 0.022 0.000 7.9 5 1
02/17/06 1:18 p -12.9 -12.8 -12.9 --- --- 24.3 SE 0.41 27.0 -25.1 --- --- 724.6 0.022 0.000 7.9 5 1
02/17/06 1:19 p -12.8 -12.8 -12.9 --- --- 26.1 SE 0.43 28.7 -25.4 --- --- 724.6 0.022 0.000 8.0 5 1
02/17/06 1:20 p -12.8 -12.8 -12.9 --- --- 26.1 SE 0.43 28.7 -25.4 --- --- 724.5 0.022 0.000 8.0 5 1
02/17/06 1:21 p -12.8 -12.8 -12.8 --- --- 26.1 SE 0.43 31.3 -25.4 --- --- 724.6 0.022 0.000 7.9 5 1
02/17/06 1:22 p -12.8 -12.8 -12.8 --- --- 25.2 SE 0.42 27.0 -25.2 --- --- 724.5 0.022 0.000 8.0 5 1
02/17/06 1:23 p -12.8 -12.8 -12.8 --- --- 27.0 SE 0.45 30.4 -25.6 --- --- 724.4 0.022 0.000 7.9 5 1
02/17/06 1:24 p -12.8 -12.8 -12.8 --- --- 28.7 SE 0.48 33.9 -25.8 --- --- 724.4 0.022 0.000 8.0 5 1
02/17/06 1:25 p -12.8 -12.7 -12.8 --- --- 29.6 SE 0.49 32.2 -25.9 --- --- 724.4 0.022 0.000 8.0 5 1
02/17/06 1:26 p -12.7 -12.7 -12.8 --- --- 28.7 SE 0.48 32.2 -25.7 --- --- 724.5 0.022 0.000 8.0 5 1
02/17/06 1:27 p -12.7 -12.7 -12.8 --- --- 27.0 SE 0.45 31.3 -25.4 --- --- 724.4 0.022 0.000 8.0 5 1
02/17/06 1:28 p -12.7 -12.7 -12.8 --- --- 27.8 SE 0.46 30.4 -25.6 --- --- 724.3 0.022 0.000 7.9 5 1
02/17/06 1:29 p -12.7 -12.7 -12.7 --- --- 27.0 SE 0.45 29.6 -25.3 --- --- 724.4 0.022 0.000 8.0 5 1
02/17/06 1:30 p -12.7 -12.7 -12.7 --- --- 28.7 SE 0.48 32.2 -25.6 --- --- 724.5 0.022 0.000 8.0 5 1
02/17/06 1:31 p -12.7 -12.7 -12.7 --- --- 27.0 SE 0.45 29.6 -25.4 --- --- 724.4 0.022 0.000 7.9 5 1
02/17/06 1:32 p -12.7 -12.7 -12.7 --- --- 27.8 SE 0.46 30.4 -25.4 --- --- 724.6 0.022 0.000 8.0 5 1
02/17/06 1:33 p -12.7 -12.7 -12.7 --- --- 27.8 SE 0.46 32.2 -25.4 --- --- 724.5 0.022 0.000 8.0 5 1
02/17/06 1:34 p -12.7 -12.7 -12.7 --- --- 27.0 SE 0.45 29.6 -25.4 --- --- 724.5 0.022 0.000 8.0 5 1
02/17/06 1:35 p -12.7 -12.6 -12.7 --- --- 27.8 SE 0.46 32.2 -25.4 --- --- 724.4 0.022 0.000 8.0 5 1
02/17/06 1:36 p -12.7 -12.7 -12.7 --- --- 29.6 SE 0.49 32.2 -25.8 --- --- 724.4 0.022 0.000 8.0 5 1
02/17/06 1:37 p -12.7 -12.7 -12.7 --- --- 27.8 SE 0.46 30.4 -25.4 --- --- 724.3 0.022 0.000 8.0 5 1
02/17/06 1:38 p -12.7 -12.7 -12.7 --- --- 27.8 SE 0.46 29.6 -25.6 --- --- 724.3 0.022 0.000 8.0 5 1
02/17/06 1:39 p -12.7 -12.7 -12.7 --- --- 28.7 SE 0.48 31.3 -25.7 --- --- 724.5 0.022 0.000 8.0 5 1
02/17/06 1:40 p -12.7 -12.7 -12.8 --- --- 27.0 SE 0.45 32.2 -25.4 --- --- 724.3 0.022 0.000 8.0 5 1
02/17/06 1:41 p -12.7 -12.7 -12.8 --- --- 27.8 SE 0.46 30.4 -25.6 --- --- 724.3 0.022 0.000 8.0 5 1
02/17/06 1:42 p -12.8 -12.7 -12.8 --- --- 30.4 SE 0.51 33.0 -26.1 --- --- 724.2 0.022 0.000 8.0 5 1
02/17/06 1:43 p -12.8 -12.8 -12.8 --- --- 28.7 ESE 0.48 30.4 -25.8 --- --- 724.2 0.022 0.000 8.0 5 1
02/17/06 1:44 p -12.8 -12.8 -12.8 --- --- 30.4 ESE 0.51 33.0 -26.1 --- --- 724.1 0.022 0.000 8.0 5 1
02/17/06 1:45 p -12.8 -12.8 -12.8 --- --- 29.6 ESE 0.49 31.3 -25.9 --- --- 724.2 0.022 0.000 8.0 5 1
02/17/06 1:46 p -12.8 -12.8 -12.8 --- --- 29.6 ESE 0.49 31.3 -25.9 --- --- 724.2 0.022 0.000 8.0 5 1
02/17/06 1:47 p -12.8 -12.8 -12.8 --- --- 30.4 SE 0.51 32.2 -26.2 --- --- 724.1 0.022 0.000 8.0 5 1
02/17/06 1:48 p -12.8 -12.8 -12.8 --- --- 28.7 ESE 0.48 31.3 -25.8 --- --- 724.2 0.022 0.000 8.0 5 1
02/17/06 1:49 p -12.8 -12.8 -12.8 --- --- 28.7 SE 0.48 29.6 -25.8 --- --- 724.2 0.022 0.000 8.0 5 1
02/17/06 1:50 p -12.8 -12.8 -12.9 --- --- 28.7 ESE 0.48 30.4 -25.8 --- --- 724.2 0.022 0.000 8.0 5 1
02/17/06 1:51 p -12.8 -12.8 -12.9 --- --- 27.8 ESE 0.46 29.6 -25.7 --- --- 724.2 0.022 0.000 8.0 5 1
02/17/06 1:52 p -12.9 -12.9 -12.9 --- --- 27.8 ESE 0.46 31.3 -25.8 --- --- 724.3 0.022 0.000 8.0 5 1
02/17/06 1:53 p -12.9 -12.9 -12.9 --- --- 26.1 SE 0.43 27.8 -25.4 --- --- 724.2 0.022 0.000 8.0 5 1
02/17/06 1:54 p -12.9 -12.9 -12.9 --- --- 27.8 SE 0.46 28.7 -25.8 --- --- 724.3 0.022 0.000 8.0 5 1
02/17/06 1:55 p -12.9 -12.9 -13.0 --- --- 28.7 SE 0.48 33.0 -26.0 --- --- 724.1 0.022 0.000 8.0 5 1
02/17/06 1:56 p -12.9 -12.9 -13.0 --- --- 29.6 SE 0.49 33.0 -26.2 --- --- 724.2 0.022 0.000 8.0 5 1
02/17/06 1:57 p -12.9 -12.9 -13.0 --- --- 28.7 ESE 0.48 31.3 -26.0 --- --- 724.2 0.022 0.000 8.0 5 1
02/17/06 1:58 p -12.9 -12.9 -12.9 --- --- 30.4 ESE 0.51 34.8 -26.3 --- --- 724.0 0.022 0.000 8.0 5 1
02/17/06 1:59 p -12.9 -12.9 -12.9 --- --- 30.4 ESE 0.51 33.9 -26.3 --- --- 723.9 0.022 0.000 8.0 5 1
02/17/06 2:00 p -12.9 -12.9 -12.9 --- --- 29.6 SE 0.49 33.9 -26.2 --- --- 724.1 0.022 0.000 8.0 5 1
02/17/06 2:01 p -12.9 -12.9 -12.9 --- --- 31.3 SE 0.52 35.7 -26.3 --- --- 724.0 0.022 0.000 8.0 5 1
02/17/06 2:03 p -12.9 -12.9 -12.9 --- --- 26.1 SE 0.43 30.4 -25.4 --- --- 724.1 0.022 0.000 8.0 5 1
02/17/06 2:04 p -12.9 -12.9 -12.9 --- --- 27.8 SE 0.46 30.4 -25.8 --- --- 724.2 0.022 0.000 8.0 5 1
02/17/06 2:05 p -12.9 -12.8 -12.9 --- --- 29.6 SE 0.49 32.2 -26.1 --- --- 724.0 0.022 0.000 8.0 5 1
02/17/06 2:06 p -12.9 -12.8 -12.9 --- --- 27.8 SE 0.46 30.4 -25.8 --- --- 724.2 0.022 0.000 7.9 5 1
02/17/06 2:07 p -12.8 -12.8 -12.9 --- --- 27.0 ESE 0.45 31.3 -25.6 --- --- 724.3 0.022 0.000 8.0 5 1
02/17/06 2:08 p -12.8 -12.8 -12.8 --- --- 28.7 ESE 0.48 31.3 -25.8 --- --- 724.2 0.022 0.000 8.0 5 1
02/17/06 2:09 p -12.8 -12.8 -12.8 --- --- 27.8 ESE 0.46 32.2 -25.7 --- --- 724.2 0.022 0.000 8.0 5 1
02/17/06 2:10 p -12.8 -12.8 -12.8 --- --- 27.8 SE 0.46 32.2 -25.7 --- --- 724.2 0.022 0.000 8.0 5 1
02/17/06 2:11 p -12.9 -12.8 -12.9 --- --- 25.2 ESE 0.42 27.8 -25.3 --- --- 724.2 0.022 0.000 8.0 5 1
02/17/06 2:12 p -12.9 -12.9 -12.9 --- --- 31.3 ESE 0.52 39.1 -26.3 --- --- 723.9 0.022 0.000 8.0 5 1
02/17/06 2:13 p -12.9 -12.8 -12.9 --- --- 27.8 ESE 0.46 31.3 -25.8 --- --- 724.1 0.022 0.000 8.0 5 1
02/17/06 2:14 p -12.9 -12.9 -12.9 --- --- 27.0 ESE 0.45 31.3 -25.6 --- --- 724.3 0.022 0.000 8.0 5 1
02/17/06 2:15 p -12.9 -12.9 -12.9 --- --- 27.0 SE 0.45 30.4 -25.6 --- --- 724.3 0.022 0.000 8.0 5 1
02/17/06 2:16 p -12.9 -12.9 -12.9 --- --- 28.7 SE 0.48 32.2 -25.9 --- --- 724.2 0.022 0.000 8.0 5 1
02/17/06 2:17 p -12.9 -12.9 -12.9 --- --- 26.1 SE 0.43 30.4 -25.4 --- --- 724.3 0.022 0.000 8.0 5 1
02/17/06 2:18 p -12.9 -12.9 -12.9 --- --- 28.7 SE 0.48 35.7 -25.9 --- --- 724.1 0.022 0.000 8.0 5 1
02/17/06 2:19 p -12.9 -12.9 -12.9 --- --- 27.8 SE 0.46 31.3 -25.8 --- --- 724.2 0.022 0.000 8.0 5 1
02/17/06 2:20 p -12.9 -12.8 -12.9 --- --- 31.3 SE 0.52 34.8 -26.3 --- --- 724.1 0.022 0.000 8.0 5 1
02/17/06 2:21 p -12.9 -12.9 -12.9 --- --- 31.3 SE 0.52 33.9 -26.3 --- --- 724.2 0.022 0.000 8.0 5 1
02/17/06 2:22 p -12.9 -12.9 -12.9 --- --- 28.7 SE 0.48 33.0 -25.9 --- --- 724.2 0.022 0.000 8.0 5 1
02/17/06 2:23 p -12.9 -12.9 -12.9 --- --- 28.7 SE 0.48 30.4 -25.9 --- --- 724.3 0.022 0.000 8.0 5 1
02/17/06 2:24 p -12.9 -12.9 -12.9 --- --- 28.7 SE 0.48 33.0 -25.9 --- --- 724.3 0.022 0.000 8.0 5 1
02/17/06 2:25 p -12.9 -12.9 -12.9 --- --- 29.6 SE 0.49 32.2 -26.2 --- --- 724.2 0.022 0.000 8.0 5 1
02/17/06 2:26 p -12.9 -12.9 -12.9 --- --- 29.6 SE 0.49 32.2 -26.1 --- --- 724.2 0.022 0.000 8.0 5 1
02/17/06 2:27 p -12.9 -12.9 -13.0 --- --- 28.7 SE 0.48 31.3 -26.0 --- --- 724.4 0.022 0.000 8.0 5 1
02/17/06 2:28 p -12.9 -12.9 -13.0 --- --- 27.8 SE 0.46 30.4 -25.8 --- --- 724.4 0.022 0.000 7.9 5 1
02/17/06 2:29 p -13.0 -12.9 -13.1 --- --- 28.7 SE 0.48 32.2 -26.1 --- --- 724.4 0.022 0.000 7.9 5 1
02/17/06 2:30 p -13.0 -13.0 -13.1 --- --- 27.8 SE 0.46 31.3 -25.9 --- --- 724.4 0.022 0.000 7.9 5 1
02/17/06 2:31 p -13.0 -13.0 -13.1 --- --- 27.0 SE 0.45 29.6 -25.8 --- --- 724.3 0.022 0.000 7.9 5 1
02/17/06 2:32 p -13.0 -13.0 -13.1 --- --- 29.6 SE 0.49 32.2 -26.2 --- --- 724.3 0.022 0.000 7.9 5 1
02/17/06 2:33 p -13.0 -12.9 -13.1 --- --- 29.6 SE 0.49 33.0 -26.2 --- --- 724.3 0.022 0.000 7.9 5 1
02/17/06 2:34 p -13.1 -13.0 -13.1 --- --- 28.7 SE 0.48 33.9 -26.2 --- --- 724.3 0.022 0.000 7.9 5 1
02/17/06 2:35 p -13.1 -13.0 -13.1 --- --- 29.6 SE 0.49 34.8 -26.3 --- --- 724.3 0.022 0.000 7.9 5 1
02/17/06 2:36 p -13.1 -13.0 -13.1 --- --- 30.4 SE 0.51 33.9 -26.4 --- --- 724.3 0.022 0.000 7.9 5 1
02/17/06 2:37 p -13.1 -13.1 -13.1 --- --- 27.0 SE 0.45 33.0 -25.9 --- --- 724.3 0.022 0.000 7.9 5 1
02/17/06 2:38 p -13.1 -13.1 -13.1 --- --- 27.0 SE 0.45 28.7 -25.9 --- --- 724.4 0.022 0.000 7.9 5 1
02/17/06 2:39 p -13.1 -13.1 -13.1 --- --- 27.8 SE 0.46 31.3 -26.0 --- --- 724.3 0.022 0.000 7.9 5 1
02/17/06 2:40 p -13.1 -13.1 -13.2 --- --- 28.7 SE 0.48 31.3 -26.2 --- --- 724.4 0.022 0.000 7.9 5 1
02/17/06 2:41 p -13.2 -13.1 -13.2 --- --- 28.7 SE 0.48 31.3 -26.3 --- --- 724.4 0.022 0.000 7.9 5 1
02/17/06 2:42 p -13.1 -13.1 -13.2 --- --- 28.7 SE 0.48 33.0 -26.2 --- --- 724.3 0.022 0.000 7.9 5 1
02/17/06 2:43 p -13.1 -13.1 -13.2 --- --- 28.7 SE 0.48 31.3 -26.2 --- --- 724.3 0.022 0.000 7.9 5 1
02/17/06 2:44 p -13.1 -13.1 -13.2 --- --- 29.6 SE 0.49 34.8 -26.4 --- --- 724.3 0.022 0.000 7.9 5 1
02/17/06 2:45 p -13.2 -13.1 -13.2 --- --- 29.6 SE 0.49 33.0 -26.4 --- --- 724.5 0.022 0.000 7.9 5 1
02/17/06 2:46 p -13.2 -13.1 -13.2 --- --- 30.4 SE 0.51 33.9 -26.6 --- --- 724.3 0.022 0.000 7.9 5 1
02/17/06 2:47 p -13.2 -13.2 -13.2 --- --- 31.3 SE 0.52 34.8 -26.7 --- --- 724.2 0.022 0.000 7.9 5 1
02/17/06 2:48 p -13.2 -13.2 -13.2 --- --- 30.4 SE 0.51 32.2 -26.6 --- --- 724.2 0.022 0.000 7.9 5 1
02/17/06 2:49 p -13.2 -13.2 -13.2 --- --- 30.4 SE 0.51 35.7 -26.6 --- --- 724.1 0.022 0.000 7.9 5 1
02/17/06 2:50 p -13.2 -13.2 -13.2 --- --- 30.4 SE 0.51 33.0 -26.6 --- --- 724.3 0.022 0.000 7.9 5 1
02/17/06 2:51 p -13.2 -13.2 -13.2 --- --- 29.6 SE 0.49 33.9 -26.4 --- --- 724.1 0.022 0.000 7.9 5 1
02/17/06 2:52 p -13.2 -13.2 -13.2 --- --- 31.3 SE 0.52 36.5 -26.7 --- --- 724.1 0.022 0.000 7.9 5 1
02/17/06 2:53 p -13.2 -13.2 -13.2 --- --- 33.0 SE 0.55 39.1 -27.1 --- --- 724.2 0.022 0.000 7.9 5 1
02/17/06 2:54 p -13.2 -13.2 -13.3 --- --- 28.7 SE 0.48 38.3 -26.4 --- --- 724.2 0.022 0.000 7.9 5 1
02/17/06 2:55 p -13.2 -13.2 -13.2 --- --- 31.3 SE 0.52 33.9 -26.8 --- --- 724.2 0.022 0.000 7.9 5 1
02/17/06 2:56 p -13.2 -13.2 -13.3 --- --- 31.3 SE 0.52 33.9 -26.8 --- --- 724.1 0.022 0.000 7.9 5 1
02/17/06 2:57 p -13.2 -13.2 -13.3 --- --- 31.3 SE 0.52 34.8 -26.8 --- --- 724.2 0.022 0.000 7.9 5 1
02/17/06 2:58 p -13.3 -13.2 -13.3 --- --- 28.7 ESE 0.48 32.2 -26.4 --- --- 724.3 0.022 0.000 7.9 5 1
02/17/06 2:59 p -13.3 -13.2 -13.3 --- --- 31.3 SE 0.52 37.4 -26.9 --- --- 724.1 0.022 0.000 7.9 5 1
02/17/06 3:00 p -13.3 -13.2 -13.3 --- --- 27.8 SE 0.46 30.4 -26.3 --- --- 724.1 0.022 0.000 7.9 5 1
02/17/06 3:01 p -13.3 -13.3 -13.3 --- --- 29.6 SE 0.49 32.2 -26.6 --- --- 724.4 0.022 0.000 7.9 5 1
02/17/06 3:02 p -13.3 -13.3 -13.3 --- --- 27.0 SE 0.45 29.6 -26.2 --- --- 724.3 0.022 0.000 7.9 5 1
02/17/06 3:03 p -13.3 -13.3 -13.3 --- --- 30.4 SE 0.51 33.0 -26.8 --- --- 724.3 0.022 0.000 7.9 5 1
02/17/06 3:04 p -13.3 -13.3 -13.3 --- --- 28.7 SE 0.48 33.0 -26.4 --- --- 724.3 0.022 0.000 7.9 5 1
02/17/06 3:05 p -13.3 -13.3 -13.3 --- --- 28.7 SE 0.48 31.3 -26.6 --- --- 724.2 0.022 0.000 7.9 5 1
02/17/06 3:06 p -13.3 -13.3 -13.4 --- --- 28.7 SE 0.48 35.7 -26.6 --- --- 724.3 0.022 0.000 7.9 5 1
02/17/06 3:07 p -13.3 -13.3 -13.3 --- --- 30.4 SE 0.51 34.8 -26.8 --- --- 724.3 0.022 0.000 7.9 5 1
02/17/06 3:08 p -13.3 -13.3 -13.4 --- --- 27.8 SE 0.46 32.2 -26.4 --- --- 724.2 0.022 0.000 7.9 5 1
02/17/06 3:09 p -13.4 -13.3 -13.4 --- --- 28.7 SE 0.48 35.7 -26.6 --- --- 724.4 0.022 0.000 7.9 5 1
02/17/06 3:10 p -13.4 -13.4 -13.4 --- --- 29.6 SE 0.49 34.8 -26.8 --- --- 724.4 0.022 0.000 7.9 5 1
02/17/06 3:11 p -13.4 -13.4 -13.4 --- --- 28.7 SE 0.48 35.7 -26.6 --- --- 724.3 0.022 0.000 7.9 5 1
02/17/06 3:12 p -13.4 -13.4 -13.4 --- --- 29.6 SE 0.49 31.3 -26.8 --- --- 724.2 0.022 0.000 7.9 5 1
02/17/06 3:13 p -13.4 -13.4 -13.4 --- --- 28.7 SE 0.48 32.2 -26.6 --- --- 724.2 0.022 0.000 7.9 5 1
02/17/06 3:14 p -13.4 -13.4 -13.4 --- --- 29.6 SE 0.49 33.0 -26.8 --- --- 724.2 0.022 0.000 7.9 5 1
02/17/06 3:15 p -13.4 -13.4 -13.4 --- --- 30.4 SE 0.51 33.9 -27.0 --- --- 724.1 0.022 0.000 7.9 5 1
02/17/06 3:16 p -13.4 -13.4 -13.4 --- --- 29.6 SE 0.49 32.2 -26.8 --- --- 724.4 0.022 0.000 7.9 5 1
02/17/06 3:17 p -13.4 -13.4 -13.4 --- --- 28.7 SE 0.48 33.0 -26.7 --- --- 724.2 0.022 0.000 7.9 5 1
02/17/06 3:18 p -13.4 -13.4 -13.4 --- --- 28.7 ESE 0.48 33.9 -26.6 --- --- 724.2 0.022 0.000 7.9 5 1
02/17/06 3:19 p -13.4 -13.4 -13.4 --- --- 29.6 SE 0.49 34.8 -26.8 --- --- 724.1 0.022 0.000 7.9 5 1
02/17/06 3:20 p -13.4 -13.4 -13.4 --- --- 33.0 SE 0.55 37.4 -27.4 --- --- 724.1 0.022 0.000 7.9 4 1
02/17/06 3:21 p -13.4 -13.4 -13.4 --- --- 30.4 SE 0.51 33.9 -27.0 --- --- 724.2 0.022 0.000 7.9 5 1
02/17/06 3:22 p -13.4 -13.4 -13.4 --- --- 27.0 SE 0.45 28.7 -26.4 --- --- 724.3 0.022 0.000 7.9 5 1
02/17/06 3:23 p -13.4 -13.4 -13.4 --- --- 28.7 SE 0.48 33.0 -26.7 --- --- 724.3 0.022 0.000 7.9 5 1
02/17/06 3:24 p -13.4 -13.4 -13.4 --- --- 29.6 ESE 0.49 33.0 -26.8 --- --- 724.2 0.022 0.000 7.9 5 1
02/17/06 3:25 p -13.4 -13.4 -13.4 --- --- 28.7 ESE 0.48 33.9 -26.7 --- --- 724.3 0.022 0.000 7.9 5 1
02/17/06 3:26 p -13.4 -13.4 -13.4 --- --- 29.6 SE 0.49 33.0 -26.8 --- --- 724.2 0.022 0.000 7.9 4 1
02/17/06 3:27 p -13.4 -13.4 -13.4 --- --- 29.6 SE 0.49 33.9 -26.8 --- --- 724.2 0.022 0.000 7.8 5 1
02/17/06 3:28 p -13.4 -13.4 -13.4 --- --- 31.3 SE 0.52 33.9 -27.1 --- --- 724.1 0.022 0.000 7.8 4 1
02/17/06 3:29 p -13.4 -13.4 -13.4 --- --- 35.7 SE 0.59 40.0 -27.8 --- --- 724.2 0.022 0.000 7.9 5 1
02/17/06 3:30 p -13.4 -13.4 -13.4 --- --- 31.3 SE 0.52 34.8 -27.1 --- --- 724.2 0.022 0.000 7.8 5 1
02/17/06 3:31 p -13.4 -13.4 -13.4 --- --- 33.0 SE 0.55 36.5 -27.4 --- --- 724.1 0.022 0.000 7.8 5 1
02/17/06 3:32 p -13.4 -13.4 -13.4 --- --- 30.4 SE 0.51 33.9 -27.0 --- --- 724.1 0.022 0.000 7.8 5 1
02/17/06 3:33 p -13.4 -13.4 -13.4 --- --- 31.3 SE 0.52 36.5 -27.1 --- --- 724.1 0.022 0.000 7.8 5 1
02/17/06 3:34 p -13.4 -13.4 -13.4 --- --- 27.8 SE 0.46 30.4 -26.4 --- --- 724.2 0.022 0.000 7.8 5 1
02/17/06 3:35 p -13.4 -13.4 -13.4 --- --- 26.1 ESE 0.43 31.3 -26.1 --- --- 724.2 0.022 0.000 7.8 5 1
02/17/06 3:36 p -13.4 -13.4 -13.4 --- --- 26.1 ESE 0.43 28.7 -26.1 --- --- 724.2 0.022 0.000 7.8 5 1
02/17/06 3:37 p -13.4 -13.4 -13.4 --- --- 28.7 ESE 0.48 32.2 -26.6 --- --- 724.1 0.022 0.000 7.8 5 1
02/17/06 3:38 p -13.4 -13.4 -13.4 --- --- 28.7 ESE 0.48 31.3 -26.7 --- --- 724.1 0.022 0.000 7.8 5 1
02/17/06 3:39 p -13.4 -13.4 -13.4 --- --- 29.6 ESE 0.49 34.8 -26.8 --- --- 723.9 0.022 0.000 7.8 4 1
02/17/06 3:40 p -13.5 -13.4 -13.5 --- --- 31.3 ESE 0.52 35.7 -27.2 --- --- 723.9 0.022 0.000 7.8 5 1
02/17/06 3:41 p -13.5 -13.5 -13.6 --- --- 30.4 ESE 0.51 33.0 -27.1 --- --- 724.1 0.022 0.000 7.8 4 1
02/17/06 3:42 p -13.6 -13.5 -13.6 --- --- 30.4 ESE 0.51 37.4 -27.1 --- --- 723.8 0.022 0.000 7.8 5 1
02/17/06 3:43 p -13.6 -13.6 -13.6 --- --- 32.2 ESE 0.54 36.5 -27.4 --- --- 723.9 0.022 0.000 7.8 5 1
02/17/06 3:44 p -13.6 -13.6 -13.6 --- --- 33.0 ESE 0.55 39.1 -27.6 --- --- 723.7 0.022 0.000 7.8 5 1
02/17/06 3:45 p -13.6 -13.6 -13.7 --- --- 34.8 ESE 0.58 37.4 -27.9 --- --- 723.7 0.022 0.000 7.8 5 1
02/17/06 3:46 p -13.6 -13.6 -13.7 --- --- 32.2 ESE 0.54 37.4 -27.5 --- --- 723.8 0.022 0.000 7.8 5 1
02/17/06 3:47 p -13.6 -13.6 -13.6 --- --- 28.7 ESE 0.48 33.0 -26.9 --- --- 724.1 0.022 0.000 7.8 5 1
02/17/06 3:48 p -13.7 -13.6 -13.7 --- --- 28.7 ESE 0.48 34.8 -27.0 --- --- 724.0 0.022 0.000 7.8 5 1
02/17/06 3:49 p -13.7 -13.7 -13.7 --- --- 30.4 ESE 0.51 33.0 -27.3 --- --- 723.9 0.022 0.000 7.8 5 1
02/17/06 3:50 p -13.7 -13.7 -13.7 --- --- 32.2 ESE 0.54 37.4 -27.6 --- --- 723.8 0.022 0.000 7.8 5 1
02/17/06 3:51 p -13.7 -13.7 -13.7 --- --- 31.3 ESE 0.52 35.7 -27.4 --- --- 723.9 0.022 0.000 7.8 5 1
02/17/06 3:52 p -13.7 -13.7 -13.7 --- --- 30.4 ESE 0.51 36.5 -27.3 --- --- 724.0 0.022 0.000 7.8 5 1
02/17/06 3:53 p -13.7 -13.7 -13.7 --- --- 30.4 ESE 0.51 33.0 -27.3 --- --- 723.8 0.022 0.000 7.8 5 1
02/17/06 3:54 p -13.7 -13.7 -13.7 --- --- 30.4 ESE 0.51 33.9 -27.3 --- --- 724.1 0.022 0.000 7.8 5 1
02/17/06 3:55 p -13.7 -13.7 -13.7 --- --- 29.6 ESE 0.49 32.2 -27.2 --- --- 724.0 0.022 0.000 7.8 5 1
02/17/06 3:56 p -13.7 -13.7 -13.7 --- --- 29.6 ESE 0.49 33.9 -27.2 --- --- 723.9 0.022 0.000 7.8 5 1
02/17/06 3:57 p -13.7 -13.7 -13.7 --- --- 29.6 ESE 0.49 33.0 -27.2 --- --- 724.0 0.022 0.000 7.8 5 1
02/17/06 3:58 p -13.7 -13.7 -13.7 --- --- 29.6 ESE 0.49 33.9 -27.2 --- --- 724.0 0.022 0.000 7.8 5 1
02/17/06 3:59 p -13.7 -13.7 -13.7 --- --- 29.6 ESE 0.49 33.9 -27.2 --- --- 724.1 0.022 0.000 7.8 5 1
02/17/06 4:00 p -13.7 -13.6 -13.7 --- --- 29.6 SE 0.49 36.5 -27.2 --- --- 724.1 0.022 0.000 7.8 5 1
02/17/06 4:01 p -13.7 -13.6 -13.7 --- --- 31.3 ESE 0.52 35.7 -27.4 --- --- 724.0 0.022 0.000 7.8 5 1
02/17/06 4:02 p -13.6 -13.6 -13.7 --- --- 30.4 ESE 0.51 33.0 -27.2 --- --- 724.0 0.022 0.000 7.8 5 1
02/17/06 4:03 p -13.6 -13.6 -13.6 --- --- 30.4 ESE 0.51 35.7 -27.2 --- --- 724.0 0.022 0.000 7.8 5 1
02/17/06 4:04 p -13.6 -13.6 -13.6 --- --- 31.3 ESE 0.52 42.6 -27.3 --- --- 723.8 0.022 0.000 7.8 5 1
02/17/06 4:05 p -13.6 -13.6 -13.6 --- --- 29.6 ESE 0.49 33.0 -27.0 --- --- 724.1 0.022 0.000 7.8 5 1
02/17/06 4:06 p -13.6 -13.6 -13.6 --- --- 28.7 ESE 0.48 33.0 -26.8 --- --- 724.0 0.022 0.000 7.8 5 1
02/17/06 4:07 p -13.6 -13.6 -13.6 --- --- 28.7 ESE 0.48 32.2 -26.8 --- --- 724.0 0.022 0.000 7.8 5 1
02/17/06 4:08 p -13.6 -13.5 -13.6 --- --- 30.4 ESE 0.51 35.7 -27.1 --- --- 724.1 0.022 0.000 7.8 5 1
02/17/06 4:09 p -13.5 -13.5 -13.6 --- --- 31.3 ESE 0.52 38.3 -27.2 --- --- 724.0 0.022 0.000 7.8 5 1
02/17/06 4:10 p -13.5 -13.5 -13.6 --- --- 27.8 SE 0.46 31.3 -26.6 --- --- 724.1 0.022 0.000 7.8 5 1
02/17/06 4:11 p -13.5 -13.5 -13.5 --- --- 33.0 ESE 0.55 39.1 -27.5 --- --- 724.1 0.022 0.000 7.8 5 1
02/17/06 4:12 p -13.5 -13.4 -13.5 --- --- 31.3 ESE 0.52 37.4 -27.2 --- --- 724.1 0.022 0.000 7.8 5 1
02/17/06 4:13 p -13.5 -13.4 -13.5 --- --- 28.7 ESE 0.48 32.2 -26.8 --- --- 724.0 0.022 0.000 7.8 5 1
02/17/06 4:14 p -13.4 -13.4 -13.5 --- --- 30.4 ESE 0.51 33.0 -27.0 --- --- 724.2 0.022 0.000 7.8 5 1
02/17/06 4:15 p -13.4 -13.4 -13.5 --- --- 30.4 ESE 0.51 35.7 -27.0 --- --- 724.0 0.022 0.000 7.7 5 1
02/17/06 4:16 p -13.4 -13.4 -13.4 --- --- 29.6 ESE 0.49 34.8 -26.8 --- --- 724.1 0.022 0.000 7.7 5 1
02/17/06 4:17 p -13.4 -13.4 -13.4 --- --- 32.2 ESE 0.54 36.5 -27.3 --- --- 724.0 0.022 0.000 7.7 5 1
02/17/06 4:18 p -13.4 -13.4 -13.4 --- --- 31.3 ESE 0.52 42.6 -27.1 --- --- 724.0 0.022 0.000 7.7 5 1
02/17/06 4:19 p -13.4 -13.4 -13.4 --- --- 28.7 ESE 0.48 33.0 -26.6 --- --- 724.1 0.022 0.000 7.7 5 1
02/17/06 4:20 p -13.4 -13.3 -13.4 --- --- 29.6 ESE 0.49 33.0 -26.8 --- --- 724.1 0.022 0.000 7.7 5 1
02/17/06 4:21 p -13.4 -13.3 -13.4 --- --- 30.4 ESE 0.51 36.5 -26.9 --- --- 724.0 0.022 0.000 7.7 5 1
02/17/06 4:22 p -13.4 -13.4 -13.4 --- --- 30.4 ESE 0.51 34.8 -26.9 --- --- 724.1 0.022 0.000 7.7 4 1
02/17/06 4:23 p -13.4 -13.3 -13.4 --- --- 28.7 ESE 0.48 33.0 -26.6 --- --- 724.1 0.022 0.000 7.7 4 1
02/17/06 4:24 p -13.4 -13.3 -13.4 --- --- 28.7 ESE 0.48 31.3 -26.6 --- --- 724.1 0.022 0.000 7.7 5 1
02/17/06 4:25 p -13.3 -13.3 -13.4 --- --- 33.9 ESE 0.57 42.6 -27.4 --- --- 723.8 0.022 0.000 7.7 4 1
02/17/06 4:26 p -13.4 -13.4 -13.4 --- --- 33.0 SE 0.55 36.5 -27.3 --- --- 724.0 0.022 0.000 7.7 5 1
02/17/06 4:27 p -13.4 -13.3 -13.4 --- --- 33.9 SE 0.57 40.9 -27.4 --- --- 723.9 0.022 0.000 7.7 4 1
02/17/06 4:28 p -13.3 -13.3 -13.3 --- --- 29.6 SE 0.49 33.0 -26.7 --- --- 724.1 0.022 0.000 7.7 5 1
02/17/06 4:29 p -13.3 -13.3 -13.3 --- --- 33.9 SE 0.57 37.4 -27.4 --- --- 723.8 0.022 0.000 7.7 5 1
02/17/06 4:30 p -13.3 -13.3 -13.3 --- --- 33.0 SE 0.55 35.7 -27.2 --- --- 724.1 0.022 0.000 7.7 5 1
02/17/06 4:31 p -13.3 -13.3 -13.3 --- --- 30.4 SE 0.51 34.8 -26.8 --- --- 724.0 0.022 0.000 7.7 5 1
02/17/06 4:32 p -13.3 -13.3 -13.3 --- --- 30.4 SE 0.51 36.5 -26.8 --- --- 724.1 0.022 0.000 7.7 5 1
02/17/06 4:33 p -13.2 -13.2 -13.3 --- --- 30.4 SE 0.51 33.0 -26.7 --- --- 724.0 0.022 0.000 7.7 5 1
02/17/06 4:34 p -13.2 -13.2 -13.2 --- --- 29.6 SE 0.49 33.9 -26.6 --- --- 724.0 0.022 0.000 7.7 5 1
02/17/06 4:35 p -13.2 -13.2 -13.2 --- --- 28.7 SE 0.48 31.3 -26.4 --- --- 724.2 0.022 0.000 7.7 5 1
02/17/06 4:36 p -13.2 -13.2 -13.2 --- --- 27.8 SE 0.46 30.4 -26.2 --- --- 724.1 0.022 0.000 7.7 5 1
02/17/06 4:37 p -13.2 -13.2 -13.2 --- --- 29.6 SE 0.49 32.2 -26.4 --- --- 724.0 0.022 0.000 7.7 5 1
02/17/06 4:38 p -13.2 -13.2 -13.2 --- --- 27.8 SE 0.46 30.4 -26.2 --- --- 724.0 0.022 0.000 7.7 5 1
02/17/06 4:39 p -13.2 -13.2 -13.2 --- --- 28.7 SE 0.48 33.9 -26.3 --- --- 724.0 0.022 0.000 7.7 4 1
02/17/06 4:40 p -13.2 -13.2 -13.2 --- --- 28.7 SE 0.48 31.3 -26.3 --- --- 724.0 0.022 0.000 7.7 5 1
02/17/06 4:41 p -13.2 -13.2 -13.2 --- --- 27.8 SE 0.46 31.3 -26.2 --- --- 724.1 0.022 0.000 7.7 4 1
02/17/06 4:42 p -13.2 -13.2 -13.2 --- --- 29.6 SE 0.49 32.2 -26.4 --- --- 724.0 0.022 0.000 7.7 4 1
02/17/06 4:43 p -13.2 -13.2 -13.2 --- --- 28.7 SE 0.48 32.2 -26.3 --- --- 724.0 0.022 0.000 7.7 5 1
02/17/06 4:44 p -13.2 -13.2 -13.2 --- --- 27.8 SE 0.46 33.0 -26.2 --- --- 724.1 0.022 0.000 7.7 5 1
02/17/06 4:45 p -13.2 -13.1 -13.2 --- --- 27.8 SE 0.46 32.2 -26.2 --- --- 724.1 0.022 0.000 7.7 4 1
02/17/06 4:46 p -13.2 -13.2 -13.2 --- --- 27.0 SE 0.45 32.2 -26.0 --- --- 724.1 0.022 0.000 7.7 5 1
02/17/06 4:47 p -13.1 -13.1 -13.2 --- --- 29.6 SE 0.49 35.7 -26.4 --- --- 723.9 0.022 0.000 7.7 5 1
02/17/06 4:48 p -13.1 -13.1 -13.2 --- --- 28.7 SE 0.48 33.9 -26.2 --- --- 724.0 0.022 0.000 7.7 5 1
02/17/06 4:49 p -13.1 -13.1 -13.2 --- --- 29.6 SE 0.49 34.8 -26.4 --- --- 723.9 0.022 0.000 7.7 4 1
02/17/06 4:50 p -13.1 -13.1 -13.1 --- --- 27.0 SE 0.45 28.7 -25.9 --- --- 724.0 0.022 0.000 7.7 5 1
02/17/06 4:51 p -13.1 -13.1 -13.1 --- --- 27.0 ESE 0.45 30.4 -25.9 --- --- 724.0 0.022 0.000 7.7 5 1
02/17/06 4:52 p -13.1 -13.1 -13.1 --- --- 28.7 ESE 0.48 32.2 -26.2 --- --- 724.0 0.022 0.000 7.7 5 1
02/17/06 4:53 p -13.1 -13.1 -13.1 --- --- 29.6 SE 0.49 34.8 -26.4 --- --- 723.8 0.022 0.000 7.7 4 1
02/17/06 4:54 p -13.1 -13.1 -13.1 --- --- 28.7 ESE 0.48 36.5 -26.2 --- --- 723.9 0.022 0.000 7.7 5 1
02/17/06 4:55 p -13.1 -13.1 -13.1 --- --- 29.6 ESE 0.49 33.9 -26.4 --- --- 723.9 0.022 0.000 7.7 5 1
02/17/06 4:56 p -13.1 -13.1 -13.1 --- --- 30.4 ESE 0.51 33.9 -26.5 --- --- 723.9 0.022 0.000 7.7 4 1
02/17/06 4:57 p -13.1 -13.1 -13.1 --- --- 28.7 ESE 0.48 32.2 -26.2 --- --- 723.9 0.022 0.000 7.7 5 1
02/17/06 4:58 p -13.1 -13.1 -13.1 --- --- 29.6 ESE 0.49 33.9 -26.4 --- --- 723.9 0.022 0.000 7.7 5 1
02/17/06 4:59 p -13.1 -13.1 -13.1 --- --- 29.6 ESE 0.49 38.3 -26.4 --- --- 723.9 0.022 0.000 7.7 5 1
02/17/06 5:00 p -13.1 -13.1 -13.1 --- --- 27.0 ESE 0.45 31.3 -25.9 --- --- 724.0 0.022 0.000 7.7 5 1
02/17/06 5:01 p -13.1 -13.1 -13.1 --- --- 27.8 ESE 0.46 30.4 -26.1 --- --- 723.8 0.022 0.000 7.7 5 1
02/17/06 5:02 p -13.1 -13.1 -13.2 --- --- 27.8 ESE 0.46 31.3 -26.1 --- --- 723.9 0.022 0.000 7.7 5 1
02/17/06 5:03 p -13.1 -13.1 -13.2 --- --- 29.6 ESE 0.49 32.2 -26.4 --- --- 723.9 0.022 0.000 7.7 5 1
02/17/06 5:04 p -13.1 -13.1 -13.2 --- --- 27.8 ESE 0.46 32.2 -26.1 --- --- 724.0 0.022 0.000 7.7 5 1
02/17/06 5:05 p -13.1 -13.1 -13.2 --- --- 27.0 ESE 0.45 28.7 -25.9 --- --- 724.0 0.022 0.000 7.7 4 1
02/17/06 5:06 p -13.1 -13.1 -13.2 --- --- 27.0 ESE 0.45 31.3 -25.9 --- --- 723.8 0.022 0.000 7.7 5 1
02/17/06 5:07 p -13.2 -13.2 -13.2 --- --- 30.4 ESE 0.51 32.2 -26.6 --- --- 723.8 0.022 0.000 7.7 4 1
02/17/06 5:08 p -13.2 -13.2 -13.2 --- --- 28.7 ESE 0.48 31.3 -26.3 --- --- 724.0 0.022 0.000 7.7 4 1
02/17/06 5:09 p -13.2 -13.2 -13.2 --- --- 29.6 ESE 0.49 31.3 -26.4 --- --- 723.9 0.022 0.000 7.7 4 1
02/17/06 5:10 p -13.2 -13.2 -13.2 --- --- 30.4 ESE 0.51 33.9 -26.6 --- --- 724.0 0.022 0.000 7.7 4 1
02/17/06 5:11 p -13.2 -13.2 -13.2 --- --- 30.4 ESE 0.51 33.9 -26.6 --- --- 723.8 0.022 0.000 7.7 4 1
02/17/06 5:12 p -13.2 -13.2 -13.2 --- --- 31.3 ESE 0.52 37.4 -26.7 --- --- 723.8 0.022 0.000 7.7 4 1
02/17/06 5:13 p -13.2 -13.2 -13.2 --- --- 29.6 ESE 0.49 34.8 -26.6 --- --- 723.9 0.022 0.000 7.7 5 1
02/17/06 5:14 p -13.2 -13.2 -13.2 --- --- 28.7 ESE 0.48 32.2 -26.4 --- --- 723.9 0.022 0.000 7.7 4 1
02/17/06 5:15 p -13.2 -13.2 -13.2 --- --- 27.8 ESE 0.46 32.2 -26.2 --- --- 724.1 0.022 0.000 7.7 4 1
02/17/06 5:16 p -13.2 -13.2 -13.2 --- --- 29.6 ESE 0.49 38.3 -26.6 --- --- 723.7 0.022 0.000 7.7 5 1
02/17/06 5:17 p -13.2 -13.2 -13.2 --- --- 31.3 ESE 0.52 35.7 -26.7 --- --- 723.8 0.022 0.000 7.7 5 1
02/17/06 5:18 p -13.2 -13.2 -13.2 --- --- 31.3 ESE 0.52 33.0 -26.7 --- --- 723.9 0.022 0.000 7.7 5 1
02/17/06 5:19 p -13.2 -13.1 -13.2 --- --- 29.6 ESE 0.49 31.3 -26.4 --- --- 723.8 0.022 0.000 7.7 4 1
02/17/06 5:20 p -13.2 -13.1 -13.2 --- --- 30.4 ESE 0.51 35.7 -26.6 --- --- 723.9 0.022 0.000 7.7 4 1
02/17/06 5:21 p -13.1 -13.1 -13.2 --- --- 31.3 ESE 0.52 34.8 -26.7 --- --- 723.7 0.022 0.000 7.7 4 1
02/17/06 5:22 p -13.1 -13.1 -13.2 --- --- 30.4 ESE 0.51 33.9 -26.5 --- --- 723.8 0.022 0.000 7.7 4 1
02/17/06 5:23 p -13.1 -13.1 -13.1 --- --- 29.6 ESE 0.49 33.9 -26.4 --- --- 723.8 0.022 0.000 7.7 4 1
02/17/06 5:24 p -13.1 -13.1 -13.1 --- --- 29.6 ESE 0.49 35.7 -26.4 --- --- 723.7 0.022 0.000 7.7 4 1
02/17/06 5:25 p -13.1 -13.1 -13.1 --- --- 28.7 ESE 0.48 31.3 -26.2 --- --- 723.8 0.022 0.000 7.7 4 1
02/17/06 5:26 p -13.1 -13.1 -13.1 --- --- 29.6 ESE 0.49 35.7 -26.3 --- --- 723.7 0.022 0.000 7.7 4 1
02/17/06 5:27 p -13.1 -13.0 -13.1 --- --- 31.3 ESE 0.52 36.5 -26.6 --- --- 723.8 0.022 0.000 7.7 5 1
02/17/06 5:28 p -13.1 -13.0 -13.1 --- --- 30.4 ESE 0.51 39.1 -26.4 --- --- 723.7 0.022 0.000 7.7 4 1
02/17/06 5:29 p -13.1 -13.0 -13.1 --- --- 28.7 ESE 0.48 30.4 -26.2 --- --- 723.6 0.022 0.000 7.7 5 1
02/17/06 5:30 p -13.0 -12.9 -13.1 --- --- 31.3 ESE 0.52 38.3 -26.5 --- --- 723.7 0.022 0.000 7.7 5 1
02/17/06 5:31 p -13.0 -12.9 -13.1 --- --- 29.6 ESE 0.49 33.0 -26.2 --- --- 723.5 0.022 0.000 7.7 5 1
02/17/06 5:32 p -13.0 -13.0 -13.0 --- --- 32.2 ESE 0.54 36.5 -26.7 --- --- 723.6 0.022 0.000 7.7 4 1
02/17/06 5:33 p -13.0 -12.9 -13.1 --- --- 29.6 ESE 0.49 32.2 -26.2 --- --- 723.6 0.022 0.000 7.7 4 1
02/17/06 5:34 p -12.9 -12.9 -12.9 --- --- 31.3 ESE 0.52 34.8 -26.4 --- --- 723.8 0.022 0.000 7.7 4 1
02/17/06 5:35 p -12.9 -12.9 -12.9 --- --- 29.6 ESE 0.49 33.0 -26.2 --- --- 723.7 0.022 0.000 7.7 4 1
02/17/06 5:36 p -12.9 -12.8 -12.9 --- --- 31.3 ESE 0.52 36.5 -26.3 --- --- 723.6 0.022 0.000 7.7 5 1
02/17/06 5:37 p -12.8 -12.8 -12.9 --- --- 32.2 ESE 0.54 34.8 -26.4 --- --- 723.6 0.022 0.000 7.7 4 1
02/17/06 5:38 p -12.8 -12.8 -12.8 --- --- 33.0 ESE 0.55 39.1 -26.6 --- --- 723.6 0.022 0.000 7.7 4 1
02/17/06 5:39 p -12.8 -12.8 -12.8 --- --- 31.3 ESE 0.52 33.9 -26.3 --- --- 723.7 0.022 0.000 7.7 4 1
02/17/06 5:40 p -12.8 -12.8 -12.8 --- --- 31.3 ESE 0.52 33.9 -26.2 --- --- 723.5 0.022 0.000 7.7 4 1
02/17/06 5:41 p -12.8 -12.8 -12.8 --- --- 30.4 ESE 0.51 37.4 -26.1 --- --- 723.6 0.022 0.000 7.7 4 1
02/17/06 5:42 p -12.8 -12.8 -12.8 --- --- 33.0 ESE 0.55 37.4 -26.5 --- --- 723.5 0.022 0.000 7.7 5 1
02/17/06 5:43 p -12.8 -12.7 -12.8 --- --- 33.9 ESE 0.57 39.1 -26.6 --- --- 723.6 0.022 0.000 7.7 5 1
02/17/06 5:44 p -12.7 -12.7 -12.8 --- --- 32.2 ESE 0.54 35.7 -26.3 --- --- 723.5 0.022 0.000 7.7 5 1
02/17/06 5:45 p -12.7 -12.7 -12.7 --- --- 32.2 ESE 0.54 34.8 -26.3 --- --- 723.5 0.022 0.000 7.7 5 1
02/17/06 5:46 p -12.7 -12.7 -12.7 --- --- 31.3 ESE 0.52 33.9 -26.1 --- --- 723.4 0.022 0.000 7.7 5 1
02/17/06 5:47 p -12.7 -12.7 -12.7 --- --- 29.6 ESE 0.49 33.0 -25.8 --- --- 723.6 0.022 0.000 7.7 5 1
02/17/06 5:48 p -12.7 -12.7 -12.7 --- --- 28.7 ESE 0.48 33.0 -25.7 --- --- 723.5 0.022 0.000 7.7 5 1
02/17/06 5:49 p -12.7 -12.7 -12.7 --- --- 33.0 ESE 0.55 38.3 -26.3 --- --- 723.4 0.022 0.000 7.7 4 1
02/17/06 5:50 p -12.7 -12.7 -12.7 --- --- 33.0 ESE 0.55 35.7 -26.3 --- --- 723.3 0.022 0.000 7.7 5 1
02/17/06 5:51 p -12.7 -12.6 -12.7 --- --- 32.2 ESE 0.54 37.4 -26.2 --- --- 723.3 0.022 0.000 7.7 4 1
02/17/06 5:52 p -12.7 -12.6 -12.7 --- --- 32.2 SE 0.54 36.5 -26.2 --- --- 723.5 0.022 0.000 7.7 5 1
02/17/06 5:53 p -12.6 -12.6 -12.7 --- --- 31.3 SE 0.52 39.1 -26.0 --- --- 723.6 0.021 0.000 7.7 4 1
02/17/06 5:54 p -12.6 -12.6 -12.6 --- --- 28.7 SE 0.48 31.3 -25.6 --- --- 723.8 0.021 0.000 7.7 4 1
02/17/06 5:55 p -12.6 -12.6 -12.7 --- --- 30.4 SE 0.51 36.5 -25.8 --- --- 723.6 0.021 0.000 7.7 5 1
02/17/06 5:56 p -12.6 -12.6 -12.7 --- --- 29.6 ESE 0.49 33.9 -25.7 --- --- 723.6 0.021 0.000 7.7 5 1
02/17/06 5:57 p -12.7 -12.6 -12.7 --- --- 27.8 SE 0.46 34.8 -25.4 --- --- 723.7 0.022 0.000 7.7 4 1
02/17/06 5:58 p -12.6 -12.6 -12.7 --- --- 32.2 SE 0.54 35.7 -26.1 --- --- 723.4 0.021 0.000 7.6 5 1
02/17/06 5:59 p -12.6 -12.6 -12.6 --- --- 29.6 SE 0.49 32.2 -25.7 --- --- 723.5 0.021 0.000 7.7 4 1
02/17/06 6:00 p -12.6 -12.6 -12.6 --- --- 30.4 SE 0.51 33.9 -25.8 --- --- 723.6 0.021 0.000 7.7 4 1
02/17/06 6:01 p -12.6 -12.6 -12.6 --- --- 32.2 SE 0.54 37.4 -26.1 --- --- 723.5 0.021 0.000 7.7 4 1
02/17/06 6:02 p -12.6 -12.6 -12.6 --- --- 30.4 SE 0.51 33.0 -25.8 --- --- 723.5 0.021 0.000 7.7 4 1
02/17/06 6:03 p -12.6 -12.6 -12.6 --- --- 32.2 SE 0.54 36.5 -26.1 --- --- 723.4 0.021 0.000 7.6 4 1
02/17/06 6:04 p -12.6 -12.6 -12.6 --- --- 32.2 SE 0.54 34.8 -26.1 --- --- 723.5 0.021 0.000 7.6 5 1
02/17/06 6:05 p -12.6 -12.6 -12.6 --- --- 29.6 SE 0.49 33.9 -25.6 --- --- 723.4 0.021 0.000 7.6 4 1
02/17/06 6:06 p -12.6 -12.6 -12.6 --- --- 30.4 ESE 0.51 33.9 -25.8 --- --- 723.5 0.021 0.000 7.6 4 1
02/17/06 6:07 p -12.6 -12.6 -12.6 --- --- 29.6 ESE 0.49 31.3 -25.6 --- --- 723.5 0.021 0.000 7.6 5 1
02/17/06 6:08 p -12.6 -12.6 -12.6 --- --- 28.7 SE 0.48 33.9 -25.4 --- --- 723.5 0.021 0.000 7.6 4 1
02/17/06 6:09 p -12.6 -12.6 -12.6 --- --- 28.7 ESE 0.48 31.3 -25.4 --- --- 723.4 0.021 0.000 7.6 5 1
02/17/06 6:10 p -12.6 -12.6 -12.6 --- --- 29.6 ESE 0.49 32.2 -25.6 --- --- 723.4 0.021 0.000 7.6 5 1
02/17/06 6:11 p -12.6 -12.6 -12.6 --- --- 30.4 ESE 0.51 33.9 -25.8 --- --- 723.3 0.021 0.000 7.6 4 1
02/17/06 6:12 p -12.6 -12.6 -12.6 --- --- 27.8 ESE 0.46 30.4 -25.4 --- --- 723.5 0.021 0.000 7.6 4 1
02/17/06 6:13 p -12.6 -12.6 -12.6 --- --- 29.6 ESE 0.49 32.2 -25.7 --- --- 723.5 0.021 0.000 7.6 4 1
02/17/06 6:14 p -12.6 -12.6 -12.6 --- --- 29.6 ESE 0.49 31.3 -25.7 --- --- 723.4 0.021 0.000 7.6 4 1
02/17/06 6:15 p -12.6 -12.6 -12.6 --- --- 29.6 ESE 0.49 33.0 -25.7 --- --- 723.4 0.021 0.000 7.6 4 1
02/17/06 6:16 p -12.6 -12.6 -12.7 --- --- 30.4 ESE 0.51 33.0 -25.8 --- --- 723.5 0.021 0.000 7.7 4 1
02/17/06 6:17 p -12.6 -12.6 -12.7 --- --- 28.7 ESE 0.48 32.2 -25.6 --- --- 723.3 0.021 0.000 7.6 4 1
02/17/06 6:18 p -12.6 -12.6 -12.7 --- --- 29.6 SE 0.49 33.0 -25.7 --- --- 723.4 0.021 0.000 7.6 5 1
02/17/06 6:19 p -12.6 -12.6 -12.6 --- --- 28.7 ESE 0.48 31.3 -25.6 --- --- 723.4 0.021 0.000 7.7 4 1
02/17/06 6:20 p -12.6 -12.6 -12.6 --- --- 28.7 ESE 0.48 29.6 -25.6 --- --- 723.5 0.021 0.000 7.7 4 1
02/17/06 6:21 p -12.6 -12.6 -12.6 --- --- 27.0 ESE 0.45 29.6 -25.2 --- --- 723.5 0.021 0.000 7.6 4 1
02/17/06 6:22 p -12.6 -12.6 -12.6 --- --- 27.0 ESE 0.45 28.7 -25.2 --- --- 723.4 0.021 0.000 7.7 5 1
02/17/06 6:23 p -12.6 -12.6 -12.6 --- --- 26.1 SE 0.43 30.4 -25.1 --- --- 723.6 0.021 0.000 7.7 4 1
02/17/06 6:24 p -12.6 -12.6 -12.6 --- --- 27.0 ESE 0.45 28.7 -25.2 --- --- 723.6 0.021 0.000 7.7 5 1
02/17/06 6:25 p -12.6 -12.6 -12.6 --- --- 26.1 ESE 0.43 27.8 -25.1 --- --- 723.6 0.021 0.000 7.7 5 1
02/17/06 6:26 p -12.6 -12.6 -12.7 --- --- 26.1 ESE 0.43 27.0 -25.1 --- --- 723.5 0.021 0.000 7.7 4 1
02/17/06 6:27 p -12.7 -12.6 -12.7 --- --- 25.2 SE 0.42 27.8 -25.0 --- --- 723.6 0.022 0.000 7.7 4 1
02/17/06 6:28 p -12.6 -12.6 -12.6 --- --- 24.3 SE 0.41 27.0 -24.7 --- --- 723.6 0.021 0.000 7.7 4 1
02/17/06 6:29 p -12.6 -12.6 -12.7 --- --- 23.5 ESE 0.39 25.2 -24.6 --- --- 723.5 0.021 0.000 7.7 4 1
02/17/06 6:30 p -12.7 -12.7 -12.7 --- --- 24.3 SE 0.41 27.8 -24.8 --- --- 723.5 0.022 0.000 7.7 4 1
02/17/06 6:31 p -12.7 -12.7 -12.7 --- --- 24.3 ESE 0.41 27.0 -24.8 --- --- 723.6 0.022 0.000 7.6 5 1
02/17/06 6:32 p -12.7 -12.7 -12.7 --- --- 24.3 ESE 0.41 27.0 -24.8 --- --- 723.5 0.022 0.000 7.7 5 1
02/17/06 6:33 p -12.7 -12.6 -12.7 --- --- 24.3 ESE 0.41 26.1 -24.8 --- --- 723.6 0.022 0.000 7.7 4 1
02/17/06 6:34 p -12.6 -12.6 -12.7 --- --- 23.5 ESE 0.39 27.0 -24.6 --- --- 723.5 0.021 0.000 7.7 5 1
02/17/06 6:35 p -12.6 -12.6 -12.7 --- --- 22.6 ESE 0.38 23.5 -24.4 --- --- 723.5 0.021 0.000 7.7 4 1
02/17/06 6:36 p -12.7 -12.7 -12.7 --- --- 23.5 ESE 0.39 25.2 -24.7 --- --- 723.5 0.022 0.000 7.7 4 1
02/17/06 6:37 p -12.7 -12.7 -12.7 --- --- 22.6 SE 0.38 25.2 -24.6 --- --- 723.6 0.022 0.000 7.7 5 1
02/17/06 6:38 p -12.7 -12.7 -12.8 --- --- 23.5 ESE 0.39 25.2 -24.7 --- --- 723.5 0.022 0.000 7.7 4 1
02/17/06 6:39 p -12.7 -12.7 -12.8 --- --- 24.3 SE 0.41 26.1 -24.9 --- --- 723.6 0.022 0.000 7.6 5 1
02/17/06 6:40 p -12.7 -12.7 -12.7 --- --- 24.3 ESE 0.41 26.1 -24.9 --- --- 723.5 0.022 0.000 7.7 4 1
02/17/06 6:41 p -12.7 -12.7 -12.7 --- --- 22.6 ESE 0.38 24.3 -24.6 --- --- 723.5 0.022 0.000 7.6 5 1
02/17/06 6:42 p -12.7 -12.6 -12.7 --- --- 21.7 SE 0.36 24.3 -24.3 --- --- 723.5 0.022 0.000 7.6 4 1
02/17/06 6:43 p -12.7 -12.6 -12.7 --- --- 22.6 SE 0.38 23.5 -24.4 --- --- 723.6 0.022 0.000 7.6 4 1
02/17/06 6:44 p -12.6 -12.6 -12.7 --- --- 21.7 ESE 0.36 23.5 -24.2 --- --- 723.5 0.021 0.000 7.6 4 1
02/17/06 6:45 p -12.6 -12.6 -12.7 --- --- 23.5 ESE 0.39 25.2 -24.6 --- --- 723.5 0.021 0.000 7.7 4 1
02/17/06 6:46 p -12.6 -12.6 -12.7 --- --- 23.5 ESE 0.39 24.3 -24.6 --- --- 723.4 0.021 0.000 7.7 4 1
02/17/06 6:47 p -12.7 -12.6 -12.7 --- --- 23.5 ESE 0.39 25.2 -24.7 --- --- 723.4 0.022 0.000 7.6 4 1
02/17/06 6:48 p -12.7 -12.7 -12.7 --- --- 22.6 ESE 0.38 23.5 -24.4 --- --- 723.5 0.022 0.000 7.6 4 1
02/17/06 6:49 p -12.7 -12.7 -12.7 --- --- 23.5 ESE 0.39 27.0 -24.7 --- --- 723.5 0.022 0.000 7.6 4 1
02/17/06 6:50 p -12.7 -12.7 -12.8 --- --- 20.9 ESE 0.35 26.1 -24.2 --- --- 723.5 0.022 0.000 7.6 4 1
02/17/06 6:51 p -12.8 -12.7 -12.8 --- --- 21.7 SE 0.36 22.6 -24.4 --- --- 723.5 0.022 0.000 7.6 4 1
02/17/06 6:52 p -12.8 -12.7 -12.8 --- --- 24.3 ESE 0.41 26.1 -24.9 --- --- 723.5 0.022 0.000 7.6 4 1
02/17/06 6:53 p -12.8 -12.8 -12.8 --- --- 22.6 ESE 0.38 24.3 -24.6 --- --- 723.5 0.022 0.000 7.6 5 1
02/17/06 6:54 p -12.8 -12.8 -12.8 --- --- 21.7 ESE 0.36 23.5 -24.4 --- --- 723.5 0.022 0.000 7.6 4 1
02/17/06 6:55 p -12.8 -12.8 -12.8 --- --- 20.0 ESE 0.33 21.7 -24.1 --- --- 723.5 0.022 0.000 7.6 4 1
02/17/06 6:56 p -12.8 -12.8 -12.8 --- --- 20.0 ESE 0.33 21.7 -24.1 --- --- 723.5 0.022 0.000 7.6 4 1
02/17/06 6:57 p -12.8 -12.8 -12.8 --- --- 20.0 ESE 0.33 21.7 -24.1 --- --- 723.5 0.022 0.000 7.6 5 1
02/17/06 6:58 p -12.8 -12.8 -12.8 --- --- 20.0 ESE 0.33 20.9 -24.1 --- --- 723.5 0.022 0.000 7.6 4 1
02/17/06 6:59 p -12.8 -12.8 -12.8 --- --- 19.1 ESE 0.32 20.9 -23.9 --- --- 723.6 0.022 0.000 7.6 4 1
02/17/06 7:00 p -12.8 -12.8 -12.8 --- --- 20.0 ESE 0.33 20.9 -24.1 --- --- 723.5 0.022 0.000 7.6 4 1
02/17/06 7:01 p -12.8 -12.8 -12.8 --- --- 20.9 ESE 0.35 21.7 -24.3 --- --- 723.4 0.022 0.000 7.6 4 1
02/17/06 7:02 p -12.8 -12.8 -12.8 --- --- 20.9 ESE 0.35 21.7 -24.3 --- --- 723.5 0.022 0.000 7.6 4 1
02/17/06 7:03 p -12.8 -12.8 -12.8 --- --- 21.7 ESE 0.36 23.5 -24.5 --- --- 723.5 0.022 0.000 7.6 5 1
02/17/06 7:04 p -12.8 -12.8 -12.8 --- --- 20.0 ESE 0.33 21.7 -24.1 --- --- 723.5 0.022 0.000 7.6 5 1
02/17/06 7:05 p -12.8 -12.8 -12.9 --- --- 21.7 ESE 0.36 25.2 -24.5 --- --- 723.4 0.022 0.000 7.7 4 1
02/17/06 7:06 p -12.8 -12.8 -12.9 --- --- 25.2 ESE 0.42 29.6 -25.2 --- --- 723.3 0.022 0.000 7.6 4 1
02/17/06 7:07 p -12.8 -12.8 -12.8 --- --- 24.3 ESE 0.41 27.8 -25.1 --- --- 723.3 0.022 0.000 7.7 5 1
02/17/06 7:08 p -12.8 -12.7 -12.8 --- --- 21.7 ESE 0.36 27.8 -24.4 --- --- 723.4 0.022 0.000 7.7 5 1
02/17/06 7:09 p -12.7 -12.7 -12.7 --- --- 21.7 ESE 0.36 22.6 -24.3 --- --- 723.4 0.022 0.000 7.7 4 1
02/17/06 7:10 p -12.7 -12.6 -12.7 --- --- 19.1 SE 0.32 21.7 -23.7 --- --- 723.4 0.022 0.000 7.6 4 1
02/17/06 7:11 p -12.6 -12.6 -12.6 --- --- 20.9 SE 0.35 24.3 -24.0 --- --- 723.5 0.021 0.000 7.7 4 1
02/17/06 7:12 p -12.6 -12.5 -12.6 --- --- 19.1 SE 0.32 21.7 -23.6 --- --- 723.4 0.021 0.000 7.7 4 1
02/17/06 7:13 p -12.5 -12.5 -12.6 --- --- 20.9 SE 0.35 23.5 -23.8 --- --- 723.4 0.021 0.000 7.7 4 1
02/17/06 7:14 p -12.4 -12.4 -12.5 --- --- 21.7 SE 0.36 24.3 -24.0 --- --- 723.4 0.021 0.000 7.7 4 1
02/17/06 7:15 p -12.4 -12.4 -12.4 --- --- 21.7 ESE 0.36 25.2 -24.0 --- --- 723.4 0.021 0.000 7.7 4 1
02/17/06 7:16 p -12.4 -12.4 -12.4 --- --- 22.6 ESE 0.38 25.2 -24.1 --- --- 723.4 0.021 0.000 7.7 5 1
02/17/06 7:17 p -12.4 -12.3 -12.4 --- --- 20.9 ESE 0.35 21.7 -23.7 --- --- 723.4 0.021 0.000 7.7 4 1
02/17/06 7:18 p -12.3 -12.3 -12.3 --- --- 21.7 SE 0.36 24.3 -23.8 --- --- 723.3 0.021 0.000 7.7 4 1
02/17/06 7:19 p -12.3 -12.3 -12.3 --- --- 22.6 SE 0.38 26.1 -23.9 --- --- 723.3 0.021 0.000 7.7 4 1
02/17/06 7:20 p -12.2 -12.2 -12.3 --- --- 25.2 ESE 0.42 27.8 -24.4 --- --- 723.4 0.021 0.000 7.7 4 1
02/17/06 7:21 p -12.2 -12.2 -12.2 --- --- 22.6 ESE 0.38 25.2 -23.9 --- --- 723.3 0.021 0.000 7.7 4 1
02/17/06 7:22 p -12.2 -12.1 -12.2 --- --- 27.0 ESE 0.45 28.7 -24.6 --- --- 723.1 0.021 0.000 7.7 4 1
02/17/06 7:23 p -12.1 -12.1 -12.2 --- --- 25.2 SE 0.42 27.0 -24.2 --- --- 723.3 0.021 0.000 7.7 4 1
02/17/06 7:24 p -12.1 -12.1 -12.2 --- --- 21.7 SE 0.36 22.6 -23.6 --- --- 723.3 0.021 0.000 7.7 5 1
02/17/06 7:25 p -12.1 -12.1 -12.1 --- --- 21.7 SE 0.36 23.5 -23.4 --- --- 723.4 0.021 0.000 7.7 4 1
02/17/06 7:26 p -12.1 -12.1 -12.1 --- --- 21.7 SE 0.36 22.6 -23.4 --- --- 723.4 0.021 0.000 7.7 4 1
02/17/06 7:27 p -12.0 -12.0 -12.1 --- --- 20.9 SE 0.35 22.6 -23.2 --- --- 723.5 0.021 0.000 7.7 4 1
02/17/06 7:28 p -12.0 -12.0 -12.1 --- --- 20.9 SE 0.35 22.6 -23.2 --- --- 723.3 0.021 0.000 7.7 5 1
02/17/06 7:29 p -12.0 -11.9 -12.0 --- --- 20.0 SE 0.33 21.7 -23.0 --- --- 723.4 0.021 0.000 7.7 4 1
02/17/06 7:30 p -12.0 -11.9 -12.0 --- --- 24.3 SE 0.41 26.1 -23.9 --- --- 723.3 0.021 0.000 7.7 4 1
02/17/06 7:31 p -11.9 -11.9 -12.0 --- --- 21.7 SE 0.36 25.2 -23.3 --- --- 723.3 0.021 0.000 7.7 4 1
02/17/06 7:32 p -11.9 -11.9 -12.0 --- --- 21.7 SE 0.36 24.3 -23.3 --- --- 723.3 0.021 0.000 7.7 4 1
02/17/06 7:33 p -11.9 -11.9 -11.9 --- --- 24.3 SE 0.41 29.6 -23.8 --- --- 723.2 0.021 0.000 7.7 4 1
02/17/06 7:34 p -11.9 -11.9 -11.9 --- --- 21.7 SE 0.36 26.1 -23.2 --- --- 723.4 0.021 0.000 7.7 4 1
02/17/06 7:35 p -11.9 -11.9 -11.9 --- --- 20.9 ESE 0.35 22.6 -23.1 --- --- 723.3 0.021 0.000 7.7 4 1
02/17/06 7:36 p -11.9 -11.8 -11.9 --- --- 20.0 SE 0.33 21.7 -22.8 --- --- 723.3 0.021 0.000 7.7 4 1
02/17/06 7:37 p -11.8 -11.8 -11.9 --- --- 19.1 SE 0.32 21.7 -22.6 --- --- 723.2 0.021 0.000 7.7 4 1
02/17/06 7:38 p -11.8 -11.8 -11.9 --- --- 19.1 SE 0.32 20.0 -22.6 --- --- 723.3 0.021 0.000 7.7 4 1
02/17/06 7:39 p -11.8 -11.8 -11.8 --- --- 18.3 SE 0.30 20.0 -22.4 --- --- 723.4 0.021 0.000 7.7 4 1
02/17/06 7:40 p -11.8 -11.8 -11.8 --- --- 18.3 SE 0.30 19.1 -22.4 --- --- 723.5 0.021 0.000 7.7 4 1
02/17/06 7:41 p -11.8 -11.8 -11.8 --- --- 17.4 SE 0.29 18.3 -22.2 --- --- 723.5 0.021 0.000 7.7 4 1
02/17/06 7:42 p -11.8 -11.8 -11.8 --- --- 17.4 SE 0.29 18.3 -22.2 --- --- 723.6 0.021 0.000 7.7 4 1
02/17/06 7:43 p -11.8 -11.8 -11.8 --- --- 17.4 SE 0.29 19.1 -22.1 --- --- 723.4 0.021 0.000 7.7 4 1
02/17/06 7:44 p -11.8 -11.8 -11.8 --- --- 16.5 SE 0.28 17.4 -21.9 --- --- 723.4 0.021 0.000 7.7 4 1
02/17/06 7:45 p -11.8 -11.8 -11.8 --- --- 17.4 SE 0.29 18.3 -22.2 --- --- 723.4 0.021 0.000 7.7 5 1
02/17/06 7:46 p -11.8 -11.8 -11.8 --- --- 17.4 SE 0.29 19.1 -22.2 --- --- 723.5 0.021 0.000 7.7 4 1
02/17/06 7:47 p -11.8 -11.8 -11.8 --- --- 17.4 SE 0.29 18.3 -22.2 --- --- 723.5 0.021 0.000 7.7 4 1
02/17/06 7:48 p -11.8 -11.8 -11.8 --- --- 14.8 ESE 0.25 16.5 -21.4 --- --- 723.5 0.021 0.000 7.7 4 1
02/17/06 7:49 p -11.8 -11.8 -11.8 --- --- 13.0 ESE 0.22 15.7 -20.9 --- --- 723.5 0.021 0.000 7.7 4 1
02/17/06 7:50 p -11.8 -11.8 -11.8 --- --- 12.2 SE 0.20 16.5 -20.6 --- --- 723.4 0.021 0.000 7.7 4 1
02/17/06 7:51 p -11.8 -11.8 -11.8 --- --- 15.7 ESE 0.26 17.4 -21.7 --- --- 723.4 0.021 0.000 7.7 4 1
02/17/06 7:52 p -11.8 -11.8 -11.9 --- --- 16.5 SE 0.28 18.3 -21.9 --- --- 723.4 0.021 0.000 7.7 4 1
02/17/06 7:53 p -11.8 -11.8 -11.9 --- --- 18.3 SE 0.30 20.9 -22.4 --- --- 723.4 0.021 0.000 7.7 4 1
02/17/06 7:54 p -11.8 -11.8 -11.9 --- --- 18.3 SE 0.30 20.9 -22.4 --- --- 723.4 0.021 0.000 7.7 4 1
02/17/06 7:55 p -11.8 -11.8 -11.8 --- --- 15.7 SE 0.26 17.4 -21.7 --- --- 723.4 0.021 0.000 7.7 4 1
02/17/06 7:56 p -11.8 -11.8 -11.8 --- --- 14.8 SE 0.25 17.4 -21.4 --- --- 723.5 0.021 0.000 7.7 4 1
02/17/06 7:57 p -11.8 -11.8 -11.8 --- --- 19.1 SE 0.32 22.6 -22.6 --- --- 723.5 0.021 0.000 7.7 4 1
02/17/06 7:58 p -11.8 -11.8 -11.8 --- --- 19.1 SE 0.32 21.7 -22.6 --- --- 723.5 0.021 0.000 7.7 4 1
02/17/06 7:59 p -11.9 -11.8 -11.9 --- --- 15.7 SE 0.26 19.1 -21.7 --- --- 723.5 0.021 0.000 7.7 4 1
02/17/06 8:00 p -11.9 -11.9 -11.9 --- --- 16.5 SE 0.28 18.3 -22.0 --- --- 723.5 0.021 0.000 7.7 4 1
02/17/06 8:01 p -11.9 -11.9 -11.9 --- --- 16.5 ESE 0.28 19.1 -22.1 --- --- 723.4 0.021 0.000 7.7 4 1
02/17/06 8:02 p -12.0 -11.9 -12.0 --- --- 20.9 ESE 0.35 26.1 -23.2 --- --- 723.2 0.021 0.000 7.7 5 1
02/17/06 8:03 p -12.0 -11.9 -12.0 --- --- 16.5 ESE 0.28 21.7 -22.1 --- --- 723.4 0.021 0.000 7.7 4 1
02/17/06 8:04 p -12.0 -12.0 -12.0 --- --- 14.8 ESE 0.25 21.7 -21.7 --- --- 723.3 0.021 0.000 7.7 5 1
02/17/06 8:05 p -12.0 -11.9 -12.1 --- --- 15.7 ESE 0.26 19.1 -21.9 --- --- 723.3 0.021 0.000 7.7 4 1
02/17/06 8:06 p -11.9 -11.9 -11.9 --- --- 18.3 ESE 0.30 21.7 -22.5 --- --- 723.3 0.021 0.000 7.7 4 1
02/17/06 8:07 p -11.9 -11.9 -11.9 --- --- 15.7 ESE 0.26 20.0 -21.8 --- --- 723.3 0.021 0.000 7.8 4 1
02/17/06 8:08 p -11.9 -11.9 -11.9 --- --- 15.7 ESE 0.26 22.6 -21.7 --- --- 723.3 0.021 0.000 7.7 4 1
02/17/06 8:09 p -11.8 -11.8 -11.8 --- --- 16.5 ESE 0.28 18.3 -21.9 --- --- 723.3 0.021 0.000 7.8 4 1
02/17/06 8:10 p -11.8 -11.8 -11.8 --- --- 18.3 ESE 0.30 25.2 -22.3 --- --- 723.3 0.021 0.000 7.7 4 1
02/17/06 8:11 p -11.7 -11.7 -11.8 --- --- 16.5 SE 0.28 20.0 -21.8 --- --- 723.2 0.021 0.000 7.8 5 1
02/17/06 8:12 p -11.7 -11.6 -11.7 --- --- 17.4 ESE 0.29 19.1 -21.9 --- --- 723.3 0.021 0.000 7.8 4 1
02/17/06 8:13 p -11.6 -11.6 -11.6 --- --- 16.5 ESE 0.28 19.1 -21.6 --- --- 723.3 0.021 0.000 7.8 4 1
02/17/06 8:14 p -11.6 -11.6 -11.6 --- --- 19.1 ESE 0.32 20.9 -22.2 --- --- 723.2 0.021 0.000 7.7 4 1
02/17/06 8:15 p -11.5 -11.4 -11.6 --- --- 17.4 ESE 0.29 19.1 -21.7 --- --- 723.3 0.021 0.000 7.7 4 1
02/17/06 8:16 p -11.4 -11.4 -11.4 --- --- 15.7 ESE 0.26 16.5 -21.2 --- --- 723.3 0.021 0.000 7.8 4 1
02/17/06 8:17 p -11.4 -11.4 -11.4 --- --- 14.8 ESE 0.25 17.4 -20.8 --- --- 723.3 0.021 0.000 7.8 4 1
02/17/06 8:18 p -11.4 -11.3 -11.4 --- --- 18.3 ESE 0.30 21.7 -21.8 --- --- 723.2 0.021 0.000 7.8 4 1
02/17/06 8:19 p -11.4 -11.3 -11.4 --- --- 15.7 ESE 0.26 18.3 -21.1 --- --- 723.3 0.021 0.000 7.8 4 1
02/17/06 8:20 p -11.3 -11.3 -11.4 --- --- 17.4 ESE 0.29 20.0 -21.5 --- --- 723.3 0.021 0.000 7.8 4 1
02/17/06 8:21 p -11.3 -11.3 -11.4 --- --- 13.0 E 0.22 17.4 -20.2 --- --- 723.0 0.021 0.000 7.7 4 1
02/17/06 8:22 p -11.3 -11.3 -11.3 --- --- 17.4 ESE 0.29 19.1 -21.5 --- --- 723.2 0.021 0.000 7.7 4 1
02/17/06 8:23 p -11.3 -11.3 -11.3 --- --- 20.0 ESE 0.33 21.7 -22.1 --- --- 723.1 0.021 0.000 7.8 4 1
02/17/06 8:24 p -11.3 -11.3 -11.3 --- --- 19.1 ESE 0.32 26.1 -21.9 --- --- 723.1 0.021 0.000 7.7 4 1
02/17/06 8:25 p -11.3 -11.3 -11.3 --- --- 20.9 E 0.35 33.0 -22.3 --- --- 723.1 0.021 0.000 7.8 5 1
02/17/06 8:26 p -11.3 -11.3 -11.3 --- --- 20.9 ESE 0.35 23.5 -22.2 --- --- 723.2 0.021 0.000 7.8 4 1
02/17/06 8:27 p -11.3 -11.3 -11.3 --- --- 17.4 SE 0.29 18.3 -21.4 --- --- 723.1 0.021 0.000 7.7 4 1
02/17/06 8:28 p -11.3 -11.2 -11.3 --- --- 17.4 ESE 0.29 20.0 -21.4 --- --- 723.1 0.021 0.000 7.8 4 1
02/17/06 8:29 p -11.2 -11.2 -11.2 --- --- 19.1 ESE 0.32 20.9 -21.8 --- --- 723.1 0.021 0.000 7.8 4 1
02/17/06 8:30 p -11.2 -11.2 -11.2 --- --- 20.0 ESE 0.33 21.7 -21.9 --- --- 723.2 0.020 0.000 7.8 4 1
02/17/06 8:31 p -11.2 -11.2 -11.2 --- --- 19.1 SE 0.32 21.7 -21.7 --- --- 723.1 0.020 0.000 7.8 4 1
02/17/06 8:32 p -11.1 -11.1 -11.1 --- --- 18.3 SE 0.30 22.6 -21.4 --- --- 723.2 0.020 0.000 7.8 5 1
02/17/06 8:33 p -11.1 -11.1 -11.1 --- --- 17.4 ESE 0.29 18.3 -21.2 --- --- 723.1 0.020 0.000 7.8 4 1
02/17/06 8:34 p -11.1 -11.1 -11.1 --- --- 20.0 ESE 0.33 26.1 -21.7 --- --- 723.0 0.020 0.000 7.8 4 1
02/17/06 8:35 p -11.1 -11.1 -11.1 --- --- 20.9 ESE 0.35 22.6 -22.0 --- --- 722.9 0.020 0.000 7.8 5 1
02/17/06 8:36 p -11.1 -11.1 -11.1 --- --- 18.3 ESE 0.30 20.9 -21.4 --- --- 723.0 0.020 0.000 7.8 4 1
02/17/06 8:37 p -11.1 -11.1 -11.1 --- --- 19.1 ESE 0.32 21.7 -21.6 --- --- 723.0 0.020 0.000 7.8 4 1
02/17/06 8:38 p -11.1 -11.1 -11.1 --- --- 18.3 ESE 0.30 19.1 -21.4 --- --- 722.9 0.020 0.000 7.8 4 1
02/17/06 8:39 p -11.1 -11.1 -11.1 --- --- 18.3 SE 0.30 20.0 -21.4 --- --- 723.1 0.020 0.000 7.8 4 1
02/17/06 8:40 p -11.1 -11.1 -11.1 --- --- 18.3 ESE 0.30 19.1 -21.4 --- --- 723.0 0.020 0.000 7.8 4 1
02/17/06 8:41 p -11.2 -11.1 -11.2 --- --- 19.1 ESE 0.32 20.0 -21.7 --- --- 723.0 0.020 0.000 7.8 4 1
02/17/06 8:42 p -11.2 -11.2 -11.2 --- --- 19.1 ESE 0.32 23.5 -21.8 --- --- 722.8 0.021 0.000 7.8 5 1
02/17/06 8:43 p -11.2 -11.2 -11.3 --- --- 21.7 ESE 0.36 24.3 -22.3 --- --- 722.9 0.021 0.000 7.8 4 1
02/17/06 8:44 p -11.3 -11.2 -11.3 --- --- 21.7 ESE 0.36 24.3 -22.4 --- --- 722.8 0.021 0.000 7.8 4 1
02/17/06 8:45 p -11.3 -11.3 -11.3 --- --- 21.7 ESE 0.36 25.2 -22.4 --- --- 722.9 0.021 0.000 7.8 4 1
02/17/06 8:46 p -11.3 -11.3 -11.3 --- --- 20.0 ESE 0.33 25.2 -22.1 --- --- 722.8 0.021 0.000 7.8 4 1
02/17/06 8:47 p -11.3 -11.3 -11.3 --- --- 20.9 ESE 0.35 24.3 -22.2 --- --- 722.8 0.021 0.000 7.8 4 1
02/17/06 8:48 p -11.3 -11.2 -11.3 --- --- 21.7 ESE 0.36 27.0 -22.4 --- --- 722.7 0.021 0.000 7.8 4 1
02/17/06 8:49 p -11.2 -11.2 -11.2 --- --- 20.0 ESE 0.33 21.7 -21.9 --- --- 722.9 0.021 0.000 7.8 4 1
02/17/06 8:50 p -11.2 -11.2 -11.2 --- --- 20.0 ESE 0.33 22.6 -21.9 --- --- 722.9 0.021 0.000 7.8 5 1
02/17/06 8:51 p -11.2 -11.2 -11.2 --- --- 18.3 ESE 0.30 20.0 -21.6 --- --- 722.8 0.021 0.000 7.8 4 1
02/17/06 8:52 p -11.2 -11.2 -11.2 --- --- 20.0 ESE 0.33 20.9 -21.9 --- --- 722.9 0.021 0.000 7.8 5 1
02/17/06 8:53 p -11.2 -11.2 -11.2 --- --- 20.0 ESE 0.33 21.7 -21.9 --- --- 722.9 0.021 0.000 7.8 4 1
02/17/06 8:54 p -11.2 -11.2 -11.2 --- --- 20.0 ESE 0.33 21.7 -21.9 --- --- 722.9 0.020 0.000 7.8 4 1
02/17/06 8:55 p -11.2 -11.2 -11.2 --- --- 19.1 ESE 0.32 20.9 -21.8 --- --- 722.8 0.021 0.000 7.8 5 1
02/17/06 8:56 p -11.2 -11.2 -11.2 --- --- 20.9 ESE 0.35 25.2 -22.2 --- --- 722.8 0.021 0.000 7.8 4 1
02/17/06 8:57 p -11.2 -11.2 -11.2 --- --- 23.5 ESE 0.39 27.0 -22.7 --- --- 722.8 0.021 0.000 7.8 4 1
02/17/06 8:58 p -11.2 -11.2 -11.2 --- --- 21.7 ESE 0.36 23.5 -22.3 --- --- 722.7 0.021 0.000 7.8 4 1
02/17/06 8:59 p -11.2 -11.2 -11.2 --- --- 23.5 ESE 0.39 25.2 -22.7 --- --- 722.8 0.021 0.000 7.8 4 1
02/17/06 9:00 p -11.2 -11.2 -11.2 --- --- 24.3 ESE 0.41 27.8 -22.9 --- --- 722.7 0.021 0.000 7.8 5 1
02/17/06 9:01 p -11.2 -11.2 -11.2 --- --- 24.3 ESE 0.41 28.7 -22.8 --- --- 722.8 0.020 0.000 7.8 4 1
02/17/06 9:02 p -11.2 -11.1 -11.2 --- --- 21.7 ESE 0.36 24.3 -22.3 --- --- 722.8 0.020 0.000 7.8 4 1
02/17/06 9:03 p -11.1 -11.1 -11.2 --- --- 20.9 ESE 0.35 21.7 -22.0 --- --- 722.8 0.020 0.000 7.8 4 1
02/17/06 9:04 p -11.1 -11.1 -11.1 --- --- 20.0 ESE 0.33 20.9 -21.7 --- --- 722.9 0.020 0.000 7.8 4 1
02/17/06 9:05 p -11.0 -11.0 -11.1 --- --- 19.1 ESE 0.32 21.7 -21.4 --- --- 722.8 0.020 0.000 7.9 4 1
02/17/06 9:06 p -11.1 -11.1 -11.1 --- --- 21.7 ESE 0.36 23.5 -22.1 --- --- 722.7 0.020 0.000 7.8 4 1
02/17/06 9:07 p -11.0 -11.0 -11.0 --- --- 21.7 ESE 0.36 25.2 -22.1 --- --- 722.7 0.020 0.000 7.8 4 1
02/17/06 9:08 p -11.0 -11.0 -11.0 --- --- 23.5 SE 0.39 25.2 -22.4 --- --- 722.8 0.020 0.000 7.8 4 1
02/17/06 9:09 p -11.0 -11.0 -11.0 --- --- 21.7 SE 0.36 23.5 -22.1 --- --- 722.8 0.020 0.000 7.8 5 1
02/17/06 9:10 p -10.9 -10.9 -11.0 --- --- 18.3 SE 0.30 20.9 -21.2 --- --- 722.8 0.020 0.000 7.9 4 1
02/17/06 9:11 p -11.0 -10.9 -11.0 --- --- 21.7 SE 0.36 23.5 -22.1 --- --- 722.7 0.020 0.000 7.8 4 1
02/17/06 9:12 p -10.9 -10.9 -10.9 --- --- 22.6 ESE 0.38 25.2 -22.2 --- --- 722.7 0.020 0.000 7.9 4 1
02/17/06 9:13 p -10.9 -10.9 -10.9 --- --- 21.7 SE 0.36 25.2 -21.9 --- --- 722.7 0.020 0.000 7.8 4 1
02/17/06 9:14 p -10.9 -10.9 -10.9 --- --- 20.0 ESE 0.33 23.5 -21.5 --- --- 722.7 0.020 0.000 7.8 4 1
02/17/06 9:15 p -10.9 -10.9 -10.9 --- --- 20.9 ESE 0.35 24.3 -21.7 --- --- 722.7 0.020 0.000 7.9 4 1
02/17/06 9:16 p -10.8 -10.8 -10.9 --- --- 23.5 ESE 0.39 27.0 -22.2 --- --- 722.6 0.020 0.000 7.9 5 1
02/17/06 9:17 p -10.8 -10.8 -10.8 --- --- 25.2 ESE 0.42 29.6 -22.5 --- --- 722.7 0.020 0.000 7.9 4 1
02/17/06 9:18 p -10.8 -10.8 -10.8 --- --- 23.5 SE 0.39 25.2 -22.2 --- --- 722.7 0.020 0.000 7.9 4 1
02/17/06 9:19 p -10.8 -10.8 -10.8 --- --- 20.9 ESE 0.35 23.5 -21.7 --- --- 722.7 0.020 0.000 7.9 4 1
02/17/06 9:20 p -10.8 -10.7 -10.8 --- --- 22.6 SE 0.38 27.0 -21.9 --- --- 722.7 0.020 0.000 7.9 4 1
02/17/06 9:21 p -10.7 -10.7 -10.8 --- --- 20.0 SE 0.33 21.7 -21.3 --- --- 722.7 0.020 0.000 7.9 5 1
02/17/06 9:22 p -10.8 -10.7 -10.8 --- --- 20.0 ESE 0.33 21.7 -21.4 --- --- 722.6 0.020 0.000 7.9 4 1
02/17/06 9:23 p -10.7 -10.7 -10.8 --- --- 20.0 ESE 0.33 23.5 -21.3 --- --- 722.7 0.020 0.000 7.8 4 1
02/17/06 9:24 p -10.7 -10.7 -10.8 --- --- 20.0 ESE 0.33 21.7 -21.3 --- --- 722.7 0.020 0.000 7.9 4 1
02/17/06 9:25 p -10.7 -10.7 -10.7 --- --- 20.9 ESE 0.35 23.5 -21.5 --- --- 722.7 0.020 0.000 7.9 4 1
02/17/06 9:26 p -10.7 -10.7 -10.7 --- --- 20.9 ESE 0.35 22.6 -21.5 --- --- 722.7 0.020 0.000 7.9 5 1
02/17/06 9:27 p -10.7 -10.7 -10.7 --- --- 19.1 ESE 0.32 20.9 -21.1 --- --- 722.7 0.020 0.000 7.9 4 1
02/17/06 9:28 p -10.7 -10.7 -10.8 --- --- 20.0 ESE 0.33 21.7 -21.3 --- --- 722.6 0.020 0.000 7.9 4 1
02/17/06 9:29 p -10.7 -10.7 -10.8 --- --- 20.0 SE 0.33 21.7 -21.3 --- --- 722.6 0.020 0.000 7.9 4 1
02/17/06 9:30 p -10.7 -10.7 -10.8 --- --- 20.9 ESE 0.35 21.7 -21.5 --- --- 722.6 0.020 0.000 7.9 4 1
02/17/06 9:31 p -10.7 -10.7 -10.8 --- --- 20.9 SE 0.35 22.6 -21.5 --- --- 722.6 0.020 0.000 7.9 4 1
02/17/06 9:32 p -10.7 -10.7 -10.7 --- --- 22.6 SE 0.38 23.5 -21.8 --- --- 722.7 0.020 0.000 7.9 4 1
02/17/06 9:33 p -10.7 -10.7 -10.8 --- --- 21.7 SE 0.36 24.3 -21.7 --- --- 722.6 0.020 0.000 7.9 4 1
02/17/06 9:34 p -10.7 -10.7 -10.8 --- --- 20.0 SE 0.33 21.7 -21.3 --- --- 722.5 0.020 0.000 7.9 4 1
02/17/06 9:35 p -10.7 -10.7 -10.8 --- --- 20.9 SE 0.35 22.6 -21.5 --- --- 722.6 0.020 0.000 7.9 4 1
02/17/06 9:36 p -10.7 -10.7 -10.8 --- --- 23.5 SE 0.39 27.8 -22.0 --- --- 722.4 0.020 0.000 7.9 4 1
02/17/06 9:37 p -10.7 -10.7 -10.7 --- --- 27.0 ESE 0.45 29.6 -22.7 --- --- 722.5 0.020 0.000 7.9 4 1
02/17/06 9:38 p -10.7 -10.7 -10.8 --- --- 24.3 SE 0.41 26.1 -22.2 --- --- 722.5 0.020 0.000 7.9 4 1
02/17/06 9:39 p -10.7 -10.7 -10.8 --- --- 21.7 SE 0.36 23.5 -21.7 --- --- 722.6 0.020 0.000 7.9 4 1
02/17/06 9:40 p -10.7 -10.7 -10.7 --- --- 21.7 ESE 0.36 23.5 -21.7 --- --- 722.6 0.020 0.000 7.9 5 1
02/17/06 9:41 p -10.7 -10.7 -10.7 --- --- 21.7 SE 0.36 22.6 -21.7 --- --- 722.6 0.020 0.000 7.8 4 1
02/17/06 9:42 p -10.7 -10.7 -10.7 --- --- 20.9 ESE 0.35 22.6 -21.5 --- --- 722.6 0.020 0.000 7.9 4 1
02/17/06 9:43 p -10.7 -10.7 -10.7 --- --- 20.9 ESE 0.35 23.5 -21.5 --- --- 722.6 0.020 0.000 7.9 4 1
02/17/06 9:44 p -10.7 -10.7 -10.8 --- --- 20.9 ESE 0.35 22.6 -21.5 --- --- 722.5 0.020 0.000 7.9 5 1
02/17/06 9:45 p -10.7 -10.7 -10.8 --- --- 20.9 SE 0.35 22.6 -21.5 --- --- 722.5 0.020 0.000 7.9 4 1
02/17/06 9:46 p -10.8 -10.7 -10.8 --- --- 20.9 ESE 0.35 27.0 -21.6 --- --- 722.5 0.020 0.000 7.9 4 1
02/17/06 9:47 p -10.7 -10.7 -10.8 --- --- 22.6 ESE 0.38 24.3 -21.8 --- --- 722.5 0.020 0.000 7.9 4 1
02/17/06 9:48 p -10.8 -10.7 -10.8 --- --- 20.9 ESE 0.35 23.5 -21.6 --- --- 722.5 0.020 0.000 7.9 4 1
02/17/06 9:49 p -10.8 -10.7 -10.8 --- --- 22.6 ESE 0.38 25.2 -21.9 --- --- 722.4 0.020 0.000 7.9 4 1
02/17/06 9:50 p -10.8 -10.8 -10.8 --- --- 25.2 ESE 0.42 27.8 -22.4 --- --- 722.4 0.020 0.000 7.9 4 1
02/17/06 9:51 p -10.8 -10.7 -10.8 --- --- 22.6 ESE 0.38 25.2 -21.9 --- --- 722.5 0.020 0.000 7.9 5 1
02/17/06 9:52 p -10.8 -10.7 -10.8 --- --- 21.7 ESE 0.36 22.6 -21.7 --- --- 722.5 0.020 0.000 7.9 4 1
02/17/06 9:53 p -10.8 -10.8 -10.8 --- --- 20.9 SE 0.35 24.3 -21.6 --- --- 722.5 0.020 0.000 7.9 4 1
02/17/06 9:54 p -10.8 -10.8 -10.8 --- --- 23.5 ESE 0.39 27.0 -22.1 --- --- 722.5 0.020 0.000 7.9 4 1
02/17/06 9:55 p -10.8 -10.7 -10.8 --- --- 20.9 ESE 0.35 23.5 -21.6 --- --- 722.5 0.020 0.000 7.9 4 1
02/17/06 9:56 p -10.7 -10.7 -10.8 --- --- 20.9 ESE 0.35 22.6 -21.5 --- --- 722.4 0.020 0.000 7.9 4 1
02/17/06 9:57 p -10.7 -10.7 -10.8 --- --- 23.5 SE 0.39 26.1 -22.0 --- --- 722.4 0.020 0.000 7.9 4 1
02/17/06 9:58 p -10.7 -10.7 -10.8 --- --- 27.0 SE 0.45 32.2 -22.7 --- --- 722.3 0.020 0.000 7.9 4 1
02/17/06 9:59 p -10.7 -10.7 -10.7 --- --- 23.5 SE 0.39 27.0 -22.0 --- --- 722.5 0.020 0.000 7.9 4 1
02/17/06 10:00 p -10.7 -10.7 -10.7 --- --- 24.3 SE 0.41 30.4 -22.2 --- --- 722.4 0.020 0.000 7.9 4 1
02/17/06 10:01 p -10.7 -10.7 -10.7 --- --- 24.3 ESE 0.41 27.0 -22.2 --- --- 722.3 0.020 0.000 7.9 4 1
02/17/06 10:02 p -10.7 -10.6 -10.7 --- --- 23.5 ESE 0.39 29.6 -21.9 --- --- 722.5 0.020 0.000 7.9 4 1
02/17/06 10:03 p -10.6 -10.6 -10.7 --- --- 23.5 ESE 0.39 30.4 -21.9 --- --- 722.6 0.020 0.000 7.9 4 1
02/17/06 10:04 p -10.6 -10.6 -10.6 --- --- 24.3 ESE 0.41 27.8 -22.1 --- --- 722.3 0.020 0.000 7.9 4 1
02/17/06 10:05 p -10.6 -10.6 -10.6 --- --- 26.1 ESE 0.43 30.4 -22.3 --- --- 722.4 0.020 0.000 7.9 4 1
02/17/06 10:06 p -10.6 -10.5 -10.6 --- --- 22.6 ESE 0.38 26.1 -21.6 --- --- 722.5 0.020 0.000 7.9 4 1
02/17/06 10:07 p -10.5 -10.5 -10.5 --- --- 21.7 ESE 0.36 26.1 -21.4 --- --- 722.4 0.020 0.000 8.0 4 1
02/17/06 10:08 p -10.5 -10.5 -10.5 --- --- 24.3 ESE 0.41 27.0 -21.9 --- --- 722.4 0.020 0.000 7.9 5 1
02/17/06 10:09 p -10.5 -10.4 -10.5 --- --- 25.2 SE 0.42 27.8 -22.1 --- --- 722.4 0.020 0.000 7.9 4 1
02/17/06 10:10 p -10.4 -10.4 -10.4 --- --- 22.6 SE 0.38 25.2 -21.5 --- --- 722.4 0.020 0.000 7.9 4 1
02/17/06 10:11 p -10.4 -10.4 -10.4 --- --- 22.6 ESE 0.38 25.2 -21.4 --- --- 722.5 0.020 0.000 7.9 4 1
02/17/06 10:12 p -10.4 -10.3 -10.4 --- --- 21.7 ESE 0.36 23.5 -21.2 --- --- 722.5 0.020 0.000 7.9 4 1
02/17/06 10:13 p -10.3 -10.3 -10.4 --- --- 23.5 ESE 0.39 26.1 -21.5 --- --- 722.4 0.020 0.000 8.0 4 1
02/17/06 10:14 p -10.3 -10.3 -10.3 --- --- 23.5 ESE 0.39 25.2 -21.4 --- --- 722.5 0.020 0.000 7.9 4 1
02/17/06 10:15 p -10.3 -10.2 -10.3 --- --- 22.6 ESE 0.38 23.5 -21.3 --- --- 722.4 0.020 0.000 8.0 4 1
02/17/06 10:16 p -10.3 -10.2 -10.3 --- --- 21.7 ESE 0.36 23.5 -21.1 --- --- 722.5 0.020 0.000 8.0 4 1
02/17/06 10:17 p -10.2 -10.2 -10.2 --- --- 22.6 ESE 0.38 26.1 -21.2 --- --- 722.4 0.020 0.000 8.0 4 1
02/17/06 10:18 p -10.2 -10.2 -10.2 --- --- 24.3 SE 0.41 26.1 -21.5 --- --- 722.3 0.020 0.000 8.0 4 1
02/17/06 10:19 p -10.2 -10.2 -10.2 --- --- 24.3 SE 0.41 26.1 -21.5 --- --- 722.4 0.020 0.000 8.0 5 1
02/17/06 10:20 p -10.2 -10.2 -10.2 --- --- 24.3 SE 0.41 26.1 -21.4 --- --- 722.4 0.020 0.000 8.0 4 1
02/17/06 10:21 p -10.2 -10.2 -10.2 --- --- 24.3 SE 0.41 27.8 -21.4 --- --- 722.5 0.020 0.000 8.0 5 1
02/17/06 10:22 p -10.2 -10.2 -10.2 --- --- 25.2 SE 0.42 27.8 -21.6 --- --- 722.4 0.020 0.000 8.0 4 1
02/17/06 10:23 p -10.2 -10.2 -10.2 --- --- 25.2 SE 0.42 27.0 -21.6 --- --- 722.3 0.020 0.000 8.0 4 1
02/17/06 10:24 p -10.2 -10.2 -10.2 --- --- 25.2 SE 0.42 27.8 -21.6 --- --- 722.3 0.020 0.000 8.0 4 1
02/17/06 10:25 p -10.2 -10.1 -10.2 --- --- 25.2 SE 0.42 27.8 -21.6 --- --- 722.3 0.020 0.000 8.0 4 1
02/17/06 10:26 p -10.1 -10.1 -10.1 --- --- 25.2 SE 0.42 28.7 -21.5 --- --- 722.2 0.020 0.000 8.0 4 1
02/17/06 10:27 p -10.1 -10.1 -10.2 --- --- 27.0 SE 0.45 29.6 -21.8 --- --- 722.3 0.020 0.000 8.0 4 1
02/17/06 10:28 p -10.1 -10.1 -10.1 --- --- 25.2 SE 0.42 26.1 -21.5 --- --- 722.2 0.020 0.000 8.0 4 1
02/17/06 10:29 p -10.1 -10.1 -10.1 --- --- 27.8 SE 0.46 30.4 -21.9 --- --- 722.2 0.020 0.000 8.0 4 1
02/17/06 10:30 p -10.1 -10.0 -10.1 --- --- 28.7 SE 0.48 32.2 -22.1 --- --- 722.1 0.020 0.000 8.0 4 1
02/17/06 10:31 p -10.0 -10.0 -10.1 --- --- 28.7 SE 0.48 30.4 -21.9 --- --- 722.1 0.020 0.000 8.0 4 1
02/17/06 10:32 p -10.0 -10.0 -10.0 --- --- 28.7 SE 0.48 32.2 -21.9 --- --- 722.2 0.020 0.000 8.0 5 1
02/17/06 10:33 p -10.0 -10.0 -10.0 --- --- 28.7 SE 0.48 29.6 -21.9 --- --- 722.1 0.020 0.000 8.0 5 1
02/17/06 10:34 p -10.0 -9.9 -10.0 --- --- 27.0 SE 0.45 28.7 -21.7 --- --- 722.2 0.020 0.000 7.9 4 1
02/17/06 10:35 p -9.9 -9.9 -10.0 --- --- 27.0 SE 0.45 29.6 -21.6 --- --- 722.2 0.020 0.000 8.0 4 1
02/17/06 10:36 p -9.9 -9.9 -9.9 --- --- 27.8 SE 0.46 29.6 -21.7 --- --- 722.2 0.020 0.000 8.0 5 1
02/17/06 10:37 p -9.9 -9.9 -10.0 --- --- 27.0 SE 0.45 29.6 -21.6 --- --- 722.2 0.020 0.000 7.9 4 1
02/17/06 10:38 p -9.9 -9.9 -9.9 --- --- 27.0 SE 0.45 29.6 -21.6 --- --- 722.2 0.020 0.000 7.9 4 1
02/17/06 10:39 p -9.9 -9.9 -9.9 --- --- 27.0 SE 0.45 28.7 -21.6 --- --- 722.1 0.020 0.000 8.0 4 1
02/17/06 10:40 p -10.0 -9.9 -10.0 --- --- 27.0 SE 0.45 28.7 -21.7 --- --- 722.2 0.020 0.000 7.9 4 1
02/17/06 10:41 p -10.0 -9.9 -10.0 --- --- 27.0 SE 0.45 29.6 -21.7 --- --- 722.2 0.020 0.000 7.9 4 1
02/17/06 10:42 p -10.0 -10.0 -10.1 --- --- 26.1 SE 0.43 28.7 -21.6 --- --- 722.2 0.020 0.000 7.9 4 1
02/17/06 10:43 p -10.1 -10.1 -10.1 --- --- 24.3 SE 0.41 27.0 -21.3 --- --- 722.2 0.020 0.000 8.0 4 1
02/17/06 10:44 p -10.1 -10.1 -10.1 --- --- 24.3 SE 0.41 26.1 -21.3 --- --- 722.2 0.020 0.000 8.0 4 1
02/17/06 10:45 p -10.1 -10.1 -10.2 --- --- 25.2 SE 0.42 27.0 -21.5 --- --- 722.1 0.020 0.000 8.0 4 1
02/17/06 10:46 p -10.2 -10.1 -10.2 --- --- 25.2 SE 0.42 27.0 -21.6 --- --- 722.1 0.020 0.000 7.9 4 1
02/17/06 10:47 p -10.1 -10.1 -10.2 --- --- 23.5 SE 0.39 26.1 -21.2 --- --- 722.2 0.020 0.000 8.0 5 1
02/17/06 10:48 p -10.1 -10.1 -10.2 --- --- 24.3 SE 0.41 27.0 -21.4 --- --- 722.1 0.020 0.000 8.0 4 1
02/17/06 10:49 p -10.2 -10.2 -10.2 --- --- 25.2 SE 0.42 27.8 -21.6 --- --- 722.1 0.020 0.000 8.0 4 1
02/17/06 10:50 p -10.2 -10.1 -10.2 --- --- 26.1 SE 0.43 27.8 -21.8 --- --- 722.2 0.020 0.000 8.0 4 1
02/17/06 10:51 p -10.2 -10.2 -10.2 --- --- 27.0 SE 0.45 28.7 -22.0 --- --- 722.1 0.020 0.000 8.0 4 1
02/17/06 10:52 p -10.2 -10.2 -10.2 --- --- 26.1 SE 0.43 28.7 -21.8 --- --- 722.0 0.020 0.000 8.0 4 1
02/17/06 10:53 p -10.2 -10.2 -10.2 --- --- 25.2 SE 0.42 28.7 -21.7 --- --- 722.1 0.020 0.000 8.0 4 1
02/17/06 10:54 p -10.2 -10.2 -10.2 --- --- 27.0 SE 0.45 29.6 -22.0 --- --- 722.1 0.020 0.000 8.0 4 1
02/17/06 10:55 p -10.2 -10.2 -10.2 --- --- 26.1 SE 0.43 29.6 -21.8 --- --- 722.0 0.020 0.000 8.0 5 1
02/17/06 10:56 p -10.2 -10.2 -10.2 --- --- 27.0 SE 0.45 29.6 -22.0 --- --- 722.0 0.020 0.000 8.0 4 1
02/17/06 10:57 p -10.2 -10.2 -10.2 --- --- 27.8 SE 0.46 30.4 -22.1 --- --- 721.9 0.020 0.000 8.0 4 1
02/17/06 10:58 p -10.1 -10.1 -10.2 --- --- 27.0 SE 0.45 30.4 -21.8 --- --- 721.9 0.020 0.000 8.0 5 1
02/17/06 10:59 p -10.1 -10.1 -10.1 --- --- 27.0 SE 0.45 29.6 -21.8 --- --- 722.0 0.020 0.000 8.0 5 1
02/17/06 11:00 p -10.1 -10.0 -10.1 --- --- 26.1 SE 0.43 27.8 -21.6 --- --- 721.9 0.020 0.000 8.0 4 1
02/17/06 11:01 p -10.0 -10.0 -10.1 --- --- 27.8 SE 0.46 29.6 -21.8 --- --- 722.0 0.020 0.000 8.1 4 1
02/17/06 11:02 p -10.0 -9.9 -10.1 --- --- 27.0 SE 0.45 28.7 -21.7 --- --- 722.0 0.020 0.000 8.0 4 1
02/17/06 11:03 p -10.0 -9.9 -10.0 --- --- 27.0 SE 0.45 28.7 -21.7 --- --- 722.0 0.020 0.000 8.0 5 1
02/17/06 11:04 p -9.9 -9.9 -9.9 --- --- 27.8 SE 0.46 30.4 -21.7 --- --- 722.0 0.020 0.000 8.1 4 1
02/17/06 11:05 p -9.9 -9.9 -9.9 --- --- 26.1 SE 0.43 28.7 -21.4 --- --- 722.0 0.020 0.000 8.0 4 1
02/17/06 11:06 p -9.9 -9.8 -9.9 --- --- 26.1 SE 0.43 28.7 -21.4 --- --- 722.0 0.020 0.000 8.0 4 1
02/17/06 11:07 p -9.8 -9.8 -9.8 --- --- 27.8 SE 0.46 29.6 -21.6 --- --- 722.0 0.020 0.000 8.1 4 1
02/17/06 11:08 p -9.8 -9.8 -9.8 --- --- 26.1 SE 0.43 29.6 -21.3 --- --- 722.0 0.020 0.000 8.1 4 1
02/17/06 11:09 p -9.8 -9.8 -9.8 --- --- 26.1 SE 0.43 27.8 -21.3 --- --- 722.0 0.020 0.000 8.1 4 1
02/17/06 11:10 p -9.8 -9.7 -9.8 --- --- 27.8 SE 0.46 29.6 -21.5 --- --- 722.0 0.020 0.000 8.1 4 1
02/17/06 11:11 p -9.7 -9.7 -9.8 --- --- 25.2 SE 0.42 27.8 -21.0 --- --- 721.9 0.019 0.000 8.1 4 1
02/17/06 11:12 p -9.7 -9.7 -9.7 --- --- 23.5 SE 0.39 25.2 -20.7 --- --- 722.0 0.019 0.000 8.1 4 1
02/17/06 11:13 p -9.7 -9.6 -9.7 --- --- 22.6 SE 0.38 25.2 -20.4 --- --- 722.1 0.019 0.000 8.1 5 1
02/17/06 11:14 p -9.6 -9.6 -9.6 --- --- 23.5 SE 0.39 25.2 -20.4 --- --- 722.0 0.019 0.000 8.1 4 1
02/17/06 11:15 p -9.5 -9.4 -9.5 --- --- 22.6 SE 0.38 25.2 -20.2 --- --- 722.0 0.019 0.000 8.1 4 1
02/17/06 11:16 p -9.4 -9.3 -9.4 --- --- 25.2 ESE 0.42 28.7 -20.6 --- --- 721.8 0.019 0.000 8.1 4 1
02/17/06 11:17 p -9.3 -9.3 -9.3 --- --- 27.8 SE 0.46 29.6 -20.9 --- --- 721.8 0.019 0.000 8.1 4 1
02/17/06 11:18 p -9.2 -9.2 -9.3 --- --- 24.3 SE 0.41 26.1 -20.2 --- --- 722.0 0.019 0.000 8.1 4 1
02/17/06 11:19 p -9.2 -9.1 -9.2 --- --- 25.2 ESE 0.42 30.4 -20.2 --- --- 721.9 0.019 0.000 8.1 4 1
02/17/06 11:20 p -9.1 -9.1 -9.1 --- --- 27.0 SE 0.45 33.9 -20.4 --- --- 721.8 0.019 0.000 8.1 5 1
02/17/06 11:21 p -9.1 -9.1 -9.1 --- --- 28.7 SE 0.48 31.3 -20.7 --- --- 721.8 0.019 0.000 8.1 5 1
02/17/06 11:22 p -9.1 -9.1 -9.1 --- --- 27.8 SE 0.46 30.4 -20.6 --- --- 722.0 0.019 0.000 8.1 5 1
02/17/06 11:23 p -9.1 -9.0 -9.1 --- --- 25.2 SE 0.42 29.6 -20.1 --- --- 721.9 0.019 0.000 8.1 4 1
02/17/06 11:24 p -9.1 -9.1 -9.1 --- --- 27.0 SE 0.45 29.6 -20.4 --- --- 721.9 0.019 0.000 8.1 5 1
02/17/06 11:25 p -9.1 -9.1 -9.1 --- --- 25.2 SE 0.42 27.8 -20.2 --- --- 722.0 0.019 0.000 8.1 5 1
02/17/06 11:26 p -9.2 -9.1 -9.2 --- --- 24.3 SE 0.41 27.8 -20.1 --- --- 721.9 0.019 0.000 8.1 5 1
02/17/06 11:27 p -9.2 -9.2 -9.2 --- --- 27.8 SE 0.46 29.6 -20.7 --- --- 722.0 0.019 0.000 8.1 5 1
02/17/06 11:28 p -9.2 -9.2 -9.3 --- --- 24.3 SE 0.41 27.0 -20.2 --- --- 722.0 0.019 0.000 8.1 5 1
02/17/06 11:29 p -9.3 -9.3 -9.3 --- --- 24.3 SE 0.41 27.8 -20.2 --- --- 721.9 0.019 0.000 8.1 5 1
02/17/06 11:30 p -9.3 -9.3 -9.3 --- --- 27.0 SE 0.45 31.3 -20.8 --- --- 721.9 0.019 0.000 8.1 5 1
02/17/06 11:31 p -9.4 -9.4 -9.4 --- --- 26.1 SE 0.43 28.7 -20.7 --- --- 721.8 0.019 0.000 8.1 5 1
02/17/06 11:32 p -9.4 -9.4 -9.4 --- --- 27.0 ESE 0.45 29.6 -20.9 --- --- 721.8 0.019 0.000 8.1 5 1
02/17/06 11:33 p -9.5 -9.5 -9.5 --- --- 25.2 ESE 0.42 27.8 -20.7 --- --- 721.8 0.019 0.000 8.1 5 1
02/17/06 11:34 p -9.6 -9.5 -9.6 --- --- 26.1 ESE 0.43 27.0 -20.9 --- --- 721.8 0.019 0.000 8.1 5 1
02/17/06 11:35 p -9.6 -9.6 -9.6 --- --- 27.8 ESE 0.46 30.4 -21.3 --- --- 721.8 0.019 0.000 8.1 5 1
02/17/06 11:36 p -9.7 -9.7 -9.7 --- --- 24.3 ESE 0.41 28.7 -20.8 --- --- 721.8 0.019 0.000 8.1 5 1
02/17/06 11:37 p -9.7 -9.7 -9.8 --- --- 24.3 ESE 0.41 27.0 -20.8 --- --- 721.8 0.019 0.000 8.1 5 1
02/17/06 11:38 p -9.8 -9.7 -9.8 --- --- 26.1 ESE 0.43 30.4 -21.2 --- --- 721.8 0.020 0.000 8.1 5 1
02/17/06 11:39 p -9.8 -9.8 -9.9 --- --- 26.1 ESE 0.43 27.8 -21.3 --- --- 721.9 0.020 0.000 8.1 5 1
02/17/06 11:40 p -9.9 -9.9 -10.0 --- --- 26.1 SE 0.43 29.6 -21.4 --- --- 721.9 0.020 0.000 8.1 5 1
02/17/06 11:41 p -10.0 -10.0 -10.1 --- --- 24.3 SE 0.41 26.1 -21.2 --- --- 722.0 0.020 0.000 8.2 5 1
02/17/06 11:42 p -10.1 -10.1 -10.1 --- --- 23.5 SE 0.39 27.0 -21.1 --- --- 721.9 0.020 0.000 8.2 5 1
02/17/06 11:43 p -10.1 -10.1 -10.2 --- --- 22.6 ESE 0.38 24.3 -21.1 --- --- 721.9 0.020 0.000 8.2 5 1
02/17/06 11:44 p -10.2 -10.2 -10.2 --- --- 23.5 ESE 0.39 25.2 -21.3 --- --- 721.8 0.020 0.000 8.2 5 1
02/17/06 11:45 p -10.2 -10.2 -10.2 --- --- 22.6 ESE 0.38 26.1 -21.1 --- --- 722.0 0.020 0.000 8.2 5 1
02/17/06 11:46 p -10.2 -10.2 -10.2 --- --- 22.6 ESE 0.38 24.3 -21.2 --- --- 722.0 0.020 0.000 8.2 5 1
02/17/06 11:47 p -10.2 -10.2 -10.3 --- --- 22.6 ESE 0.38 24.3 -21.2 --- --- 721.9 0.020 0.000 8.2 5 1
02/17/06 11:48 p -10.3 -10.3 -10.3 --- --- 22.6 ESE 0.38 24.3 -21.3 --- --- 722.0 0.020 0.000 8.2 5 1
02/17/06 11:49 p -10.3 -10.3 -10.3 --- --- 24.3 ESE 0.41 27.0 -21.6 --- --- 722.0 0.020 0.000 8.2 5 1
02/17/06 11:50 p -10.3 -10.3 -10.3 --- --- 24.3 ESE 0.41 25.2 -21.7 --- --- 721.8 0.020 0.000 8.2 5 1
02/17/06 11:51 p -10.3 -10.3 -10.4 --- --- 23.5 ESE 0.39 25.2 -21.5 --- --- 721.8 0.020 0.000 8.2 5 1
02/17/06 11:52 p -10.4 -10.4 -10.4 --- --- 22.6 ESE 0.38 23.5 -21.4 --- --- 721.9 0.020 0.000 8.2 5 1
02/17/06 11:53 p -10.4 -10.4 -10.4 --- --- 21.7 ESE 0.36 23.5 -21.3 --- --- 721.8 0.020 0.000 8.2 5 1
02/17/06 11:54 p -10.4 -10.4 -10.4 --- --- 25.2 ESE 0.42 27.8 -22.0 --- --- 721.8 0.020 0.000 8.2 5 1
02/17/06 11:55 p -10.5 -10.4 -10.5 --- --- 24.3 ESE 0.41 26.1 -21.9 --- --- 721.8 0.020 0.000 8.3 5 1
02/17/06 11:56 p -10.5 -10.4 -10.5 --- --- 23.5 ESE 0.39 25.2 -21.7 --- --- 721.8 0.020 0.000 8.3 5 1
02/17/06 11:57 p -10.5 -10.5 -10.5 --- --- 23.5 ESE 0.39 25.2 -21.7 --- --- 721.8 0.020 0.000 8.3 5 1
02/17/06 11:58 p -10.5 -10.5 -10.6 --- --- 23.5 ESE 0.39 25.2 -21.7 --- --- 721.8 0.020 0.000 8.3 5 1
02/17/06 11:59 p -10.6 -10.6 -10.6 --- --- 24.3 ESE 0.41 25.2 -21.9 --- --- 721.9 0.020 0.000 8.3 5 1
02/18/06 12:00 a -10.6 -10.6 -10.6 --- --- 23.5 ESE 0.39 27.0 -21.8 --- --- 721.8 0.020 0.000 8.3 5 1
02/18/06 12:01 a -10.6 -10.6 -10.6 --- --- 26.1 ESE 0.43 28.7 -22.3 --- --- 721.7 0.020 0.000 8.3 5 1
02/18/06 12:02 a -10.6 -10.6 -10.6 --- --- 25.2 ESE 0.42 27.0 -22.2 --- --- 721.7 0.020 0.000 8.4 5 1
02/18/06 12:03 a -10.6 -10.6 -10.6 --- --- 22.6 ESE 0.38 25.2 -21.7 --- --- 721.9 0.020 0.000 8.4 5 1
02/18/06 12:04 a -10.6 -10.6 -10.6 --- --- 22.6 ESE 0.38 23.5 -21.7 --- --- 721.8 0.020 0.000 8.4 5 1
02/18/06 12:05 a -10.6 -10.6 -10.6 --- --- 22.6 ESE 0.38 24.3 -21.7 --- --- 721.8 0.020 0.000 8.4 5 1
02/18/06 12:06 a -10.6 -10.6 -10.6 --- --- 22.6 ESE 0.38 24.3 -21.7 --- --- 721.7 0.020 0.000 8.4 5 1
02/18/06 12:07 a -10.6 -10.6 -10.6 --- --- 22.6 ESE 0.38 27.8 -21.7 --- --- 721.8 0.020 0.000 8.4 5 1
02/18/06 12:08 a -10.6 -10.6 -10.7 --- --- 24.3 ESE 0.41 27.0 -22.1 --- --- 721.7 0.020 0.000 8.4 5 1
02/18/06 12:09 a -10.7 -10.6 -10.7 --- --- 25.2 SE 0.42 27.8 -22.3 --- --- 721.8 0.020 0.000 8.5 5 1
02/18/06 12:10 a -10.6 -10.6 -10.6 --- --- 21.7 SE 0.36 26.1 -21.5 --- --- 721.8 0.020 0.000 8.5 5 1
02/18/06 12:11 a -10.6 -10.6 -10.6 --- --- 19.1 SE 0.32 21.7 -20.9 --- --- 721.8 0.020 0.000 8.5 5 1
02/18/06 12:12 a -10.6 -10.6 -10.6 --- --- 23.5 ESE 0.39 25.2 -21.9 --- --- 721.8 0.020 0.000 8.6 5 1
02/18/06 12:13 a -10.6 -10.6 -10.6 --- --- 22.6 ESE 0.38 24.3 -21.7 --- --- 721.8 0.020 0.000 8.6 5 1
02/18/06 12:14 a -10.6 -10.6 -10.6 --- --- 22.6 ESE 0.38 24.3 -21.7 --- --- 721.9 0.020 0.000 8.6 5 1
02/18/06 12:15 a -10.6 -10.6 -10.6 --- --- 21.7 ESE 0.36 23.5 -21.5 --- --- 721.8 0.020 0.000 8.7 5 1
02/18/06 12:16 a -10.6 -10.6 -10.6 --- --- 24.3 ESE 0.41 27.8 -21.9 --- --- 721.7 0.020 0.000 8.7 5 1
02/18/06 12:17 a -10.6 -10.6 -10.6 --- --- 22.6 ESE 0.38 26.1 -21.6 --- --- 721.8 0.020 0.000 8.7 5 1
02/18/06 12:18 a -10.6 -10.6 -10.6 --- --- 21.7 ESE 0.36 25.2 -21.5 --- --- 721.9 0.020 0.000 8.7 5 1
02/18/06 12:19 a -10.6 -10.6 -10.6 --- --- 21.7 ESE 0.36 24.3 -21.5 --- --- 721.8 0.020 0.000 8.8 5 1
02/18/06 12:20 a -10.6 -10.6 -10.6 --- --- 22.6 ESE 0.38 24.3 -21.7 --- --- 721.7 0.020 0.000 8.8 5 1
02/18/06 12:21 a -10.6 -10.6 -10.6 --- --- 21.7 ESE 0.36 23.5 -21.5 --- --- 721.7 0.020 0.000 8.8 5 1
02/18/06 12:22 a -10.6 -10.6 -10.6 --- --- 22.6 ESE 0.38 25.2 -21.7 --- --- 721.7 0.020 0.000 8.8 5 1
02/18/06 12:23 a -10.6 -10.6 -10.6 --- --- 22.6 ESE 0.38 25.2 -21.7 --- --- 721.7 0.020 0.000 8.8 5 1
02/18/06 12:24 a -10.6 -10.6 -10.6 --- --- 23.5 ESE 0.39 27.0 -21.9 --- --- 721.7 0.020 0.000 8.8 5 1
02/18/06 12:25 a -10.6 -10.6 -10.7 --- --- 23.5 ESE 0.39 27.8 -21.9 --- --- 721.7 0.020 0.000 8.9 6 1
02/18/06 12:26 a -10.7 -10.6 -10.7 --- --- 22.6 ESE 0.38 24.3 -21.8 --- --- 721.7 0.020 0.000 8.9 5 1
02/18/06 12:27 a -10.7 -10.7 -10.7 --- --- 23.5 ESE 0.39 24.3 -21.9 --- --- 721.8 0.020 0.000 8.9 5 1
02/18/06 12:28 a -10.7 -10.7 -10.7 --- --- 23.5 ESE 0.39 26.1 -22.0 --- --- 721.7 0.020 0.000 8.9 5 1
02/18/06 12:29 a -10.7 -10.7 -10.7 --- --- 21.7 ESE 0.36 25.2 -21.7 --- --- 721.7 0.020 0.000 8.9 5 1
02/18/06 12:30 a -10.7 -10.7 -10.7 --- --- 23.5 ESE 0.39 29.6 -22.0 --- --- 721.8 0.020 0.000 8.9 5 1
02/18/06 12:31 a -10.7 -10.7 -10.7 --- --- 23.5 ESE 0.39 27.8 -22.0 --- --- 721.8 0.020 0.000 8.9 5 1
02/18/06 12:32 a -10.8 -10.7 -10.8 --- --- 24.3 ESE 0.41 26.1 -22.3 --- --- 721.7 0.020 0.000 8.9 5 1
02/18/06 12:33 a -10.8 -10.7 -10.8 --- --- 24.3 ESE 0.41 26.1 -22.3 --- --- 721.7 0.020 0.000 8.9 5 1
02/18/06 12:34 a -10.8 -10.8 -10.8 --- --- 20.9 ESE 0.35 23.5 -21.6 --- --- 721.7 0.020 0.000 9.0 5 1
02/18/06 12:35 a -10.8 -10.8 -10.8 --- --- 21.7 ESE 0.36 22.6 -21.7 --- --- 721.7 0.020 0.000 9.0 5 1
02/18/06 12:36 a -10.8 -10.8 -10.8 --- --- 20.9 ESE 0.35 22.6 -21.6 --- --- 721.8 0.020 0.000 9.0 5 1
02/18/06 12:37 a -10.8 -10.8 -10.8 --- --- 22.6 ESE 0.38 26.1 -21.9 --- --- 721.7 0.020 0.000 9.0 5 1
02/18/06 12:38 a -10.8 -10.8 -10.8 --- --- 22.6 ESE 0.38 25.2 -21.9 --- --- 721.6 0.020 0.000 9.0 5 1
02/18/06 12:39 a -10.8 -10.7 -10.8 --- --- 21.7 ESE 0.36 23.5 -21.7 --- --- 721.6 0.020 0.000 9.0 5 1
02/18/06 12:40 a -10.8 -10.7 -10.8 --- --- 22.6 ESE 0.38 23.5 -21.9 --- --- 721.6 0.020 0.000 9.0 5 1
02/18/06 12:41 a -10.7 -10.7 -10.8 --- --- 20.9 ESE 0.35 23.5 -21.5 --- --- 721.6 0.020 0.000 9.1 5 1
02/18/06 12:42 a -10.8 -10.8 -10.8 --- --- 22.6 ESE 0.38 27.0 -21.9 --- --- 721.6 0.020 0.000 9.1 5 1
02/18/06 12:43 a -10.8 -10.8 -10.8 --- --- 21.7 ESE 0.36 23.5 -21.8 --- --- 721.5 0.020 0.000 9.1 5 1
02/18/06 12:44 a -10.8 -10.8 -10.8 --- --- 20.9 ESE 0.35 22.6 -21.7 --- --- 721.5 0.020 0.000 9.1 6 1
02/18/06 12:45 a -10.9 -10.8 -10.9 --- --- 22.6 ESE 0.38 25.2 -22.1 --- --- 721.5 0.020 0.000 9.2 5 1
02/18/06 12:46 a -10.9 -10.8 -10.9 --- --- 23.5 ESE 0.39 26.1 -22.2 --- --- 721.4 0.020 0.000 9.2 6 1
02/18/06 12:47 a -10.9 -10.9 -10.9 --- --- 21.7 ESE 0.36 23.5 -21.9 --- --- 721.5 0.020 0.000 9.2 6 1
02/18/06 12:48 a -10.9 -10.9 -10.9 --- --- 20.9 ESE 0.35 22.6 -21.7 --- --- 721.6 0.020 0.000 9.2 6 1
02/18/06 12:49 a -10.9 -10.9 -10.9 --- --- 21.7 ESE 0.36 22.6 -21.9 --- --- 721.5 0.020 0.000 9.2 5 1
02/18/06 12:50 a -10.9 -10.9 -10.9 --- --- 21.7 ESE 0.36 22.6 -21.9 --- --- 721.5 0.020 0.000 9.2 5 1
02/18/06 12:51 a -10.9 -10.9 -10.9 --- --- 21.7 ESE 0.36 22.6 -21.9 --- --- 721.6 0.020 0.000 9.1 6 1
02/18/06 12:52 a -10.9 -10.9 -10.9 --- --- 21.7 ESE 0.36 22.6 -21.9 --- --- 721.6 0.020 0.000 9.1 5 1
02/18/06 12:53 a -10.9 -10.9 -10.9 --- --- 23.5 ESE 0.39 27.0 -22.3 --- --- 721.4 0.020 0.000 9.1 5 1
02/18/06 12:54 a -11.0 -11.0 -11.0 --- --- 20.9 ESE 0.35 24.3 -21.8 --- --- 721.6 0.020 0.000 9.1 5 1
02/18/06 12:55 a -11.0 -11.0 -11.0 --- --- 20.9 ESE 0.35 21.7 -21.8 --- --- 721.6 0.020 0.000 9.1 5 1
02/18/06 12:56 a -10.9 -10.9 -11.0 --- --- 21.7 ESE 0.36 23.5 -21.9 --- --- 721.6 0.020 0.000 9.1 5 1
02/18/06 12:57 a -10.9 -10.9 -10.9 --- --- 21.7 ESE 0.36 23.5 -21.9 --- --- 721.5 0.020 0.000 9.2 5 1
02/18/06 12:58 a -10.9 -10.9 -10.9 --- --- 21.7 ESE 0.36 24.3 -21.9 --- --- 721.5 0.020 0.000 9.2 5 1
02/18/06 12:59 a -10.9 -10.9 -10.9 --- --- 21.7 ESE 0.36 24.3 -21.9 --- --- 721.5 0.020 0.000 9.3 5 1
02/18/06 1:00 a -10.9 -10.8 -10.9 --- --- 21.7 ESE 0.36 25.2 -21.9 --- --- 721.4 0.020 0.000 9.3 5 1
02/18/06 1:01 a -10.8 -10.8 -10.8 --- --- 20.0 ESE 0.33 20.9 -21.4 --- --- 721.5 0.020 0.000 9.3 5 1
02/18/06 1:02 a -10.8 -10.8 -10.8 --- --- 22.6 ESE 0.38 25.2 -21.9 --- --- 721.4 0.020 0.000 9.3 5 1
02/18/06 1:03 a -10.7 -10.7 -10.7 --- --- 22.6 SE 0.38 23.5 -21.8 --- --- 721.5 0.020 0.000 9.3 5 1
02/18/06 1:04 a -10.7 -10.6 -10.7 --- --- 22.6 ESE 0.38 24.3 -21.8 --- --- 721.6 0.020 0.000 9.3 5 1
02/18/06 1:05 a -10.6 -10.6 -10.6 --- --- 20.0 ESE 0.33 22.6 -21.1 --- --- 721.5 0.020 0.000 9.4 5 1
02/18/06 1:06 a -10.5 -10.5 -10.6 --- --- 20.9 ESE 0.35 21.7 -21.2 --- --- 721.5 0.020 0.000 9.4 5 1
02/18/06 1:07 a -10.4 -10.4 -10.5 --- --- 20.9 ESE 0.35 21.7 -21.1 --- --- 721.5 0.020 0.000 9.4 5 1
02/18/06 1:08 a -10.4 -10.3 -10.4 --- --- 21.7 ESE 0.36 23.5 -21.2 --- --- 721.5 0.020 0.000 9.4 5 1
02/18/06 1:09 a -10.3 -10.3 -10.3 --- --- 21.7 ESE 0.36 24.3 -21.2 --- --- 721.5 0.020 0.000 9.4 5 1
02/18/06 1:10 a -10.3 -10.3 -10.3 --- --- 23.5 ESE 0.39 26.1 -21.4 --- --- 721.4 0.020 0.000 9.4 5 1
02/18/06 1:11 a -10.3 -10.3 -10.3 --- --- 21.7 ESE 0.36 23.5 -21.1 --- --- 721.5 0.020 0.000 9.5 5 1
02/18/06 1:12 a -10.2 -10.2 -10.3 --- --- 23.5 ESE 0.39 25.2 -21.3 --- --- 721.4 0.020 0.000 9.5 5 1
02/18/06 1:13 a -10.3 -10.2 -10.3 --- --- 21.7 SE 0.36 25.2 -21.1 --- --- 721.5 0.020 0.000 9.5 5 1
02/18/06 1:14 a -10.2 -10.2 -10.3 --- --- 22.6 SE 0.38 24.3 -21.2 --- --- 721.4 0.020 0.000 9.5 5 1
02/18/06 1:15 a -10.2 -10.2 -10.2 --- --- 20.9 SE 0.35 23.5 -20.8 --- --- 721.5 0.020 0.000 9.5 5 1
02/18/06 1:16 a -10.2 -10.1 -10.2 --- --- 20.9 ESE 0.35 22.6 -20.8 --- --- 721.4 0.020 0.000 9.6 6 1
02/18/06 1:17 a -10.1 -9.9 -10.1 --- --- 20.9 ESE 0.35 21.7 -20.6 --- --- 721.5 0.020 0.000 9.6 5 1
02/18/06 1:18 a -9.8 -9.8 -9.9 --- --- 20.9 ESE 0.35 22.6 -20.3 --- --- 721.4 0.020 0.000 9.6 5 1
02/18/06 1:19 a -9.7 -9.7 -9.8 --- --- 20.9 ESE 0.35 22.6 -20.2 --- --- 721.4 0.019 0.000 9.6 6 1
02/18/06 1:20 a -9.5 -9.5 -9.6 --- --- 22.6 ESE 0.38 24.3 -20.2 --- --- 721.5 0.019 0.000 9.6 5 1
02/18/06 1:21 a -9.4 -9.4 -9.5 --- --- 22.6 SE 0.38 24.3 -20.1 --- --- 721.4 0.019 0.000 9.6 5 1
02/18/06 1:22 a -9.4 -9.4 -9.4 --- --- 20.9 ESE 0.35 22.6 -19.7 --- --- 721.4 0.019 0.000 9.6 5 1
02/18/06 1:23 a -9.4 -9.3 -9.4 --- --- 21.7 ESE 0.36 28.7 -19.9 --- --- 721.4 0.019 0.000 9.6 6 1
02/18/06 1:24 a -9.3 -9.3 -9.4 --- --- 19.1 ESE 0.32 20.0 -19.3 --- --- 721.4 0.019 0.000 9.6 6 1
02/18/06 1:25 a -9.3 -9.3 -9.3 --- --- 19.1 ESE 0.32 21.7 -19.3 --- --- 721.5 0.019 0.000 9.6 6 1
02/18/06 1:26 a -9.3 -9.3 -9.3 --- --- 19.1 SE 0.32 22.6 -19.2 --- --- 721.5 0.019 0.000 9.6 6 1
02/18/06 1:27 a -9.3 -9.3 -9.3 --- --- 19.1 ESE 0.32 20.0 -19.3 --- --- 721.4 0.019 0.000 9.6 6 1
02/18/06 1:28 a -9.4 -9.4 -9.4 --- --- 22.6 SE 0.38 26.1 -20.1 --- --- 721.4 0.019 0.000 9.6 6 1
02/18/06 1:29 a -9.4 -9.4 -9.4 --- --- 19.1 ESE 0.32 21.7 -19.4 --- --- 721.5 0.019 0.000 9.6 6 1
02/18/06 1:30 a -9.4 -9.4 -9.5 --- --- 19.1 SE 0.32 20.9 -19.4 --- --- 721.5 0.019 0.000 9.6 6 1
02/18/06 1:31 a -9.4 -9.4 -9.4 --- --- 22.6 ESE 0.38 27.8 -20.1 --- --- 721.4 0.019 0.000 9.6 6 1
02/18/06 1:32 a -9.4 -9.4 -9.4 --- --- 20.9 ESE 0.35 24.3 -19.8 --- --- 721.4 0.019 0.000 9.6 6 1
02/18/06 1:33 a -9.4 -9.4 -9.4 --- --- 20.0 ESE 0.33 23.5 -19.6 --- --- 721.4 0.019 0.000 9.6 6 1
02/18/06 1:34 a -9.4 -9.3 -9.4 --- --- 18.3 ESE 0.30 20.0 -19.2 --- --- 721.5 0.019 0.000 9.6 6 1
02/18/06 1:35 a -9.3 -9.3 -9.3 --- --- 18.3 ESE 0.30 19.1 -19.1 --- --- 721.4 0.019 0.000 9.6 6 1
02/18/06 1:36 a -9.3 -9.3 -9.3 --- --- 19.1 ESE 0.32 20.9 -19.2 --- --- 721.3 0.019 0.000 9.6 6 1
02/18/06 1:37 a -9.3 -9.3 -9.3 --- --- 20.0 ESE 0.33 21.7 -19.4 --- --- 721.4 0.019 0.000 9.6 6 1
02/18/06 1:38 a -9.3 -9.3 -9.3 --- --- 19.1 ESE 0.32 21.7 -19.2 --- --- 721.4 0.019 0.000 9.6 6 1
02/18/06 1:39 a -9.3 -9.3 -9.3 --- --- 19.1 E 0.32 23.5 -19.2 --- --- 721.4 0.019 0.000 9.5 6 1
02/18/06 1:40 a -9.3 -9.3 -9.4 --- --- 18.3 ESE 0.30 20.9 -19.1 --- --- 721.4 0.019 0.000 9.5 6 1
02/18/06 1:41 a -9.3 -9.3 -9.4 --- --- 19.1 ESE 0.32 20.0 -19.3 --- --- 721.4 0.019 0.000 9.5 6 1
02/18/06 1:42 a -9.4 -9.3 -9.4 --- --- 19.1 ESE 0.32 21.7 -19.3 --- --- 721.3 0.019 0.000 9.5 6 1
02/18/06 1:43 a -9.4 -9.4 -9.4 --- --- 20.9 ESE 0.35 22.6 -19.7 --- --- 721.3 0.019 0.000 9.5 6 1
02/18/06 1:44 a -9.4 -9.4 -9.4 --- --- 20.9 ESE 0.35 22.6 -19.7 --- --- 721.3 0.019 0.000 9.5 6 1
02/18/06 1:45 a -9.4 -9.4 -9.5 --- --- 20.0 ESE 0.33 23.5 -19.6 --- --- 721.2 0.019 0.000 9.4 6 1
02/18/06 1:46 a -9.5 -9.4 -9.5 --- --- 19.1 ESE 0.32 22.6 -19.5 --- --- 721.3 0.019 0.000 9.5 6 1
02/18/06 1:47 a -9.5 -9.4 -9.5 --- --- 20.9 ESE 0.35 22.6 -19.9 --- --- 721.3 0.019 0.000 9.5 6 1
02/18/06 1:48 a -9.5 -9.4 -9.5 --- --- 18.3 ESE 0.30 20.0 -19.3 --- --- 721.4 0.019 0.000 9.5 6 1
02/18/06 1:49 a -9.4 -9.4 -9.5 --- --- 17.4 ESE 0.29 21.7 -19.0 --- --- 721.2 0.019 0.000 9.5 6 1
02/18/06 1:50 a -9.4 -9.4 -9.4 --- --- 21.7 ESE 0.36 24.3 -19.9 --- --- 721.3 0.019 0.000 9.5 6 1
02/18/06 1:51 a -9.4 -9.4 -9.5 --- --- 21.7 ESE 0.36 27.0 -19.9 --- --- 721.3 0.019 0.000 9.5 6 1
02/18/06 1:52 a -9.4 -9.4 -9.4 --- --- 21.7 ESE 0.36 24.3 -19.9 --- --- 721.1 0.019 0.000 9.5 6 1
02/18/06 1:53 a -9.4 -9.4 -9.4 --- --- 20.0 ESE 0.33 22.6 -19.6 --- --- 721.2 0.019 0.000 9.5 6 1
02/18/06 1:54 a -9.4 -9.4 -9.4 --- --- 19.1 ESE 0.32 21.7 -19.4 --- --- 721.2 0.019 0.000 9.5 6 1
02/18/06 1:55 a -9.4 -9.4 -9.4 --- --- 20.0 ESE 0.33 22.6 -19.6 --- --- 721.1 0.019 0.000 9.6 6 1
02/18/06 1:56 a -9.4 -9.4 -9.4 --- --- 20.0 ESE 0.33 24.3 -19.6 --- --- 721.2 0.019 0.000 9.6 6 1
02/18/06 1:57 a -9.4 -9.4 -9.4 --- --- 18.3 ESE 0.30 20.9 -19.2 --- --- 721.2 0.019 0.000 9.6 6 1
02/18/06 1:58 a -9.4 -9.4 -9.4 --- --- 17.4 E 0.29 19.1 -18.9 --- --- 721.2 0.019 0.000 9.6 6 1
02/18/06 1:59 a -9.4 -9.4 -9.4 --- --- 17.4 ESE 0.29 20.0 -18.9 --- --- 721.2 0.019 0.000 9.6 6 1
02/18/06 2:00 a -9.4 -9.4 -9.4 --- --- 20.0 ESE 0.33 23.5 -19.6 --- --- 721.2 0.019 0.000 9.6 6 1
02/18/06 2:01 a -9.4 -9.3 -9.4 --- --- 20.0 ESE 0.33 24.3 -19.6 --- --- 721.2 0.019 0.000 9.6 6 1
02/18/06 2:02 a -9.4 -9.3 -9.4 --- --- 20.9 ESE 0.35 24.3 -19.7 --- --- 721.2 0.019 0.000 9.6 6 1
02/18/06 2:03 a -9.3 -9.3 -9.3 --- --- 20.9 ESE 0.35 22.6 -19.7 --- --- 721.1 0.019 0.000 9.6 6 1
02/18/06 2:04 a -9.4 -9.4 -9.4 --- --- 18.3 ESE 0.30 21.7 -19.2 --- --- 721.2 0.019 0.000 9.6 6 1
02/18/06 2:05 a -9.4 -9.4 -9.4 --- --- 18.3 ESE 0.30 21.7 -19.2 --- --- 721.2 0.019 0.000 9.6 6 1
02/18/06 2:06 a -9.4 -9.4 -9.4 --- --- 20.0 ESE 0.33 21.7 -19.6 --- --- 721.1 0.019 0.000 9.6 6 1
02/18/06 2:07 a -9.4 -9.4 -9.4 --- --- 20.0 SE 0.33 20.9 -19.6 --- --- 721.1 0.019 0.000 9.6 6 1
02/18/06 2:08 a -9.4 -9.4 -9.4 --- --- 20.9 SE 0.35 24.3 -19.8 --- --- 721.1 0.019 0.000 9.6 6 1
02/18/06 2:09 a -9.4 -9.4 -9.5 --- --- 18.3 ESE 0.30 20.9 -19.2 --- --- 721.2 0.019 0.000 9.6 6 1
02/18/06 2:10 a -9.5 -9.4 -9.5 --- --- 18.3 SE 0.30 20.9 -19.3 --- --- 721.3 0.019 0.000 9.6 6 1
02/18/06 2:11 a -9.5 -9.5 -9.6 --- --- 16.5 ESE 0.28 19.1 -18.9 --- --- 721.2 0.019 0.000 9.6 6 1
02/18/06 2:12 a -9.6 -9.5 -9.6 --- --- 18.3 ESE 0.30 20.0 -19.4 --- --- 721.2 0.019 0.000 9.6 6 1
02/18/06 2:13 a -9.5 -9.4 -9.5 --- --- 16.5 ESE 0.28 19.1 -18.9 --- --- 721.2 0.019 0.000 9.7 6 1
02/18/06 2:14 a -9.4 -9.3 -9.4 --- --- 18.3 ESE 0.30 25.2 -19.2 --- --- 721.0 0.019 0.000 9.7 6 1
02/18/06 2:15 a -9.3 -9.3 -9.3 --- --- 18.3 ESE 0.30 21.7 -19.0 --- --- 721.2 0.019 0.000 9.7 6 1
02/18/06 2:16 a -9.2 -9.2 -9.3 --- --- 20.0 ESE 0.33 21.7 -19.3 --- --- 721.1 0.019 0.000 9.7 6 1
02/18/06 2:17 a -9.1 -9.1 -9.1 --- --- 19.1 ESE 0.32 23.5 -19.0 --- --- 721.2 0.019 0.000 9.7 6 1
02/18/06 2:18 a -9.0 -8.9 -9.1 --- --- 19.1 ESE 0.32 25.2 -18.8 --- --- 721.1 0.019 0.000 9.7 6 1
02/18/06 2:19 a -8.9 -8.8 -8.9 --- --- 18.3 ESE 0.30 21.7 -18.5 --- --- 721.2 0.019 0.000 9.7 6 1
02/18/06 2:20 a -8.7 -8.7 -8.8 --- --- 18.3 ESE 0.30 21.7 -18.3 --- --- 721.1 0.019 0.000 9.7 6 1
02/18/06 2:21 a -8.7 -8.6 -8.7 --- --- 20.0 ESE 0.33 20.9 -18.6 --- --- 721.1 0.019 0.000 9.7 6 1
02/18/06 2:22 a -8.6 -8.5 -8.6 --- --- 16.5 ESE 0.28 20.9 -17.7 --- --- 721.2 0.019 0.000 9.7 6 1
02/18/06 2:23 a -8.4 -8.4 -8.4 --- --- 16.5 ESE 0.28 18.3 -17.6 --- --- 721.1 0.019 0.000 9.7 6 1
02/18/06 2:24 a -8.4 -8.3 -8.4 --- --- 16.5 ESE 0.28 18.3 -17.4 --- --- 721.1 0.019 0.000 9.7 6 1
02/18/06 2:25 a -8.3 -8.2 -8.3 --- --- 17.4 ESE 0.29 19.1 -17.6 --- --- 721.0 0.018 0.000 9.7 6 1
02/18/06 2:26 a -8.2 -8.1 -8.2 --- --- 18.3 E 0.30 24.3 -17.6 --- --- 720.9 0.018 0.000 9.7 6 1
02/18/06 2:27 a -8.1 -8.1 -8.1 --- --- 19.1 ESE 0.32 23.5 -17.7 --- --- 721.0 0.018 0.000 9.8 6 1
02/18/06 2:28 a -8.0 -7.9 -8.1 --- --- 16.5 SE 0.28 20.0 -16.9 --- --- 721.1 0.018 0.000 9.8 6 1
02/18/06 2:29 a -7.9 -7.9 -7.9 --- --- 16.5 ESE 0.28 19.1 -16.9 --- --- 721.1 0.018 0.000 9.8 6 1
02/18/06 2:30 a -7.9 -7.9 -7.9 --- --- 16.5 ESE 0.28 18.3 -16.8 --- --- 721.1 0.018 0.000 9.8 6 1
02/18/06 2:31 a -7.9 -7.9 -7.9 --- --- 14.8 E 0.25 20.9 -16.4 --- --- 721.1 0.018 0.000 9.8 6 1
02/18/06 2:33 a -7.9 -7.9 -7.9 --- --- 18.3 E 0.30 23.5 -17.2 --- --- 721.0 0.018 0.000 9.8 6 1
02/18/06 2:34 a -7.9 -7.9 -7.9 --- --- 17.4 ESE 0.29 19.1 -17.1 --- --- 721.2 0.018 0.000 9.8 6 1
02/18/06 2:35 a -7.9 -7.9 -8.0 --- --- 17.4 E 0.29 20.0 -17.1 --- --- 721.2 0.018 0.000 9.8 6 1
02/18/06 2:36 a -8.0 -8.0 -8.1 --- --- 16.5 ESE 0.28 20.9 -16.9 --- --- 721.2 0.018 0.000 9.8 6 1
02/18/06 2:37 a -8.1 -8.1 -8.1 --- --- 19.1 E 0.32 24.3 -17.6 --- --- 721.0 0.018 0.000 9.8 6 1
02/18/06 2:38 a -8.2 -8.2 -8.3 --- --- 18.3 ESE 0.30 26.1 -17.7 --- --- 721.1 0.018 0.000 9.8 6 1
02/18/06 2:39 a -8.3 -8.3 -8.3 --- --- 14.8 ESE 0.25 16.5 -16.9 --- --- 721.2 0.018 0.000 9.8 6 1
02/18/06 2:40 a -8.4 -8.4 -8.4 --- --- 14.8 ESE 0.25 20.0 -17.0 --- --- 721.2 0.019 0.000 9.8 6 1
02/18/06 2:41 a -8.5 -8.5 -8.6 --- --- 13.0 ESE 0.22 15.7 -16.7 --- --- 721.2 0.019 0.000 9.8 6 1
02/18/06 2:42 a -8.6 -8.6 -8.6 --- --- 13.9 SE 0.23 18.3 -17.1 --- --- 721.2 0.019 0.000 9.8 6 1
02/18/06 2:43 a -8.6 -8.6 -8.6 --- --- 15.7 SE 0.26 19.1 -17.6 --- --- 721.2 0.019 0.000 9.8 6 1
02/18/06 2:44 a -8.6 -8.4 -8.6 --- --- 18.3 SE 0.30 21.7 -18.1 --- --- 721.1 0.019 0.000 9.8 6 1
02/18/06 2:45 a -8.4 -8.4 -8.5 --- --- 15.7 ESE 0.26 20.9 -17.3 --- --- 721.2 0.019 0.000 9.8 6 1
02/18/06 2:46 a -8.5 -8.4 -8.5 --- --- 15.7 SE 0.26 19.1 -17.4 --- --- 721.2 0.019 0.000 9.8 6 1
02/18/06 2:47 a -8.5 -8.5 -8.5 --- --- 16.5 ESE 0.28 19.1 -17.6 --- --- 721.2 0.019 0.000 9.8 6 1
02/18/06 2:48 a -8.6 -8.6 -8.6 --- --- 19.1 SE 0.32 21.7 -18.2 --- --- 721.0 0.019 0.000 9.8 6 1
02/18/06 2:49 a -8.6 -8.6 -8.7 --- --- 19.1 E 0.32 27.8 -18.3 --- --- 721.1 0.019 0.000 9.8 6 1
02/18/06 2:50 a -8.7 -8.7 -8.7 --- --- 15.7 ESE 0.26 20.0 -17.6 --- --- 721.1 0.019 0.000 9.8 6 1
02/18/06 2:51 a -8.7 -8.7 -8.7 --- --- 18.3 SE 0.30 21.7 -18.3 --- --- 721.1 0.019 0.000 9.8 6 1
02/18/06 2:52 a -8.7 -8.7 -8.7 --- --- 17.4 E 0.29 21.7 -18.1 --- --- 721.1 0.019 0.000 9.8 6 1
02/18/06 2:53 a -8.7 -8.7 -8.7 --- --- 12.2 E 0.20 17.4 -16.6 --- --- 721.1 0.019 0.000 9.8 6 1
02/18/06 2:54 a -8.7 -8.7 -8.7 --- --- 12.2 E 0.20 14.8 -16.7 --- --- 721.1 0.019 0.000 9.8 6 1
02/18/06 2:55 a -8.7 -8.7 -8.8 --- --- 15.7 ESE 0.26 20.0 -17.7 --- --- 721.1 0.019 0.000 9.8 6 1
02/18/06 2:56 a -8.8 -8.8 -8.8 --- --- 14.8 ESE 0.25 16.5 -17.5 --- --- 721.1 0.019 0.000 9.8 6 1
02/18/06 2:57 a -8.8 -8.8 -8.8 --- --- 16.5 SE 0.28 21.7 -18.0 --- --- 721.1 0.019 0.000 9.9 6 1
02/18/06 2:58 a -8.7 -8.7 -8.8 --- --- 14.8 ESE 0.25 19.1 -17.4 --- --- 721.1 0.019 0.000 9.9 6 1
02/18/06 2:59 a -8.7 -8.6 -8.7 --- --- 12.2 ESE 0.20 15.7 -16.6 --- --- 721.1 0.019 0.000 9.9 6 1
02/18/06 3:00 a -8.6 -8.6 -8.6 --- --- 17.4 ESE 0.29 27.0 -17.8 --- --- 720.9 0.019 0.000 9.9 6 1
02/18/06 3:01 a -8.5 -8.5 -8.6 --- --- 13.0 SE 0.22 16.5 -16.7 --- --- 721.1 0.019 0.000 9.9 6 1
02/18/06 3:02 a -8.5 -8.5 -8.5 --- --- 15.7 ESE 0.26 20.9 -17.4 --- --- 721.1 0.019 0.000 9.9 6 1
02/18/06 3:03 a -8.5 -8.5 -8.5 --- --- 13.0 ESE 0.22 16.5 -16.7 --- --- 721.0 0.019 0.000 9.9 6 1
02/18/06 3:04 a -8.5 -8.5 -8.6 --- --- 12.2 SE 0.20 14.8 -16.4 --- --- 721.2 0.019 0.000 9.9 6 1
02/18/06 3:05 a -8.6 -8.6 -8.6 --- --- 11.3 ESE 0.19 14.8 -16.2 --- --- 721.2 0.019 0.000 9.9 6 1
02/18/06 3:06 a -8.6 -8.6 -8.6 --- --- 12.2 ESE 0.20 15.7 -16.6 --- --- 721.1 0.019 0.000 9.9 6 1
02/18/06 3:07 a -8.6 -8.6 -8.6 --- --- 11.3 SE 0.19 13.0 -16.3 --- --- 721.2 0.019 0.000 9.9 6 1
02/18/06 3:08 a -8.7 -8.6 -8.7 --- --- 12.2 SE 0.20 17.4 -16.6 --- --- 721.1 0.019 0.000 9.9 6 1
02/18/06 3:09 a -8.7 -8.7 -8.7 --- --- 12.2 SE 0.20 17.4 -16.6 --- --- 721.1 0.019 0.000 9.9 6 1
02/18/06 3:10 a -8.7 -8.7 -8.7 --- --- 13.9 SE 0.23 18.3 -17.2 --- --- 721.1 0.019 0.000 9.9 6 1
02/18/06 3:11 a -8.7 -8.6 -8.7 --- --- 14.8 SSE 0.25 20.0 -17.4 --- --- 721.1 0.019 0.000 9.9 6 1
02/18/06 3:12 a -8.6 -8.6 -8.7 --- --- 16.5 SSE 0.28 20.0 -17.8 --- --- 721.1 0.019 0.000 9.9 6 1
02/18/06 3:13 a -8.6 -8.6 -8.6 --- --- 15.7 SSE 0.26 20.0 -17.6 --- --- 721.1 0.019 0.000 9.9 6 1
02/18/06 3:14 a -8.5 -8.5 -8.6 --- --- 15.7 SSE 0.26 18.3 -17.4 --- --- 721.1 0.019 0.000 9.9 6 1
02/18/06 3:15 a -8.5 -8.5 -8.5 --- --- 17.4 SSE 0.29 20.0 -17.8 --- --- 721.2 0.019 0.000 9.9 6 1
02/18/06 3:16 a -8.4 -8.4 -8.4 --- --- 13.0 SSE 0.22 16.5 -16.6 --- --- 721.1 0.019 0.000 9.9 6 1
02/18/06 3:17 a -8.4 -8.3 -8.4 --- --- 11.3 SSE 0.19 12.2 -16.0 --- --- 721.3 0.019 0.000 9.9 6 1
02/18/06 3:18 a -8.3 -8.3 -8.3 --- --- 10.4 SE 0.17 13.0 -15.6 --- --- 721.1 0.018 0.000 9.9 6 1
02/18/06 3:19 a -8.3 -8.2 -8.3 --- --- 9.6 ESE 0.16 13.0 -15.2 --- --- 721.1 0.018 0.000 9.9 6 1
02/18/06 3:20 a -8.2 -8.2 -8.2 --- --- 12.2 ESE 0.20 14.8 -16.0 --- --- 721.2 0.018 0.000 9.9 6 1
02/18/06 3:21 a -8.2 -8.2 -8.2 --- --- 9.6 E 0.16 12.2 -15.1 --- --- 721.2 0.018 0.000 9.9 5 1
02/18/06 3:22 a -8.2 -8.2 -8.2 --- --- 9.6 ESE 0.16 12.2 -15.1 --- --- 721.2 0.018 0.000 9.9 6 1
02/18/06 3:23 a -8.2 -8.2 -8.2 --- --- 7.8 ESE 0.13 7.8 -14.4 --- --- 721.1 0.018 0.000 9.9 6 1
02/18/06 3:24 a -8.2 -8.2 -8.3 --- --- 9.6 ESE 0.16 14.8 -15.1 --- --- 721.0 0.018 0.000 9.9 6 1
02/18/06 3:25 a -8.3 -8.3 -8.3 --- --- 6.1 ESE 0.10 7.8 -13.6 --- --- 721.1 0.018 0.000 9.9 6 1
02/18/06 3:26 a -8.3 -8.2 -8.3 --- --- 9.6 SE 0.16 13.0 -15.2 --- --- 721.1 0.018 0.000 9.9 6 1
02/18/06 3:27 a -8.2 -8.2 -8.2 --- --- 10.4 ESE 0.17 15.7 -15.4 --- --- 721.0 0.018 0.000 9.9 6 1
02/18/06 3:28 a -8.2 -8.2 -8.2 --- --- 8.7 ESE 0.14 10.4 -14.8 --- --- 721.2 0.018 0.000 9.9 6 1
02/18/06 3:29 a -8.2 -8.2 -8.2 --- --- 11.3 ESE 0.19 13.9 -15.7 --- --- 721.0 0.018 0.000 9.9 6 1
02/18/06 3:30 a -8.2 -8.2 -8.2 --- --- 11.3 ESE 0.19 13.0 -15.7 --- --- 721.0 0.018 0.000 9.9 6 1
02/18/06 3:31 a -8.2 -8.1 -8.2 --- --- 11.3 ESE 0.19 13.9 -15.7 --- --- 721.0 0.018 0.000 9.9 6 1
02/18/06 3:32 a -8.1 -8.1 -8.1 --- --- 10.4 ESE 0.17 13.0 -15.3 --- --- 721.0 0.018 0.000 9.9 6 1
02/18/06 3:33 a -8.1 -8.1 -8.1 --- --- 9.6 ESE 0.16 13.9 -15.0 --- --- 721.0 0.018 0.000 9.9 6 1
02/18/06 3:34 a -8.1 -8.1 -8.1 --- --- 8.7 E 0.14 11.3 -14.7 --- --- 721.0 0.018 0.000 9.9 6 1
02/18/06 3:35 a -8.1 -8.1 -8.2 --- --- 7.8 E 0.13 10.4 -14.3 --- --- 721.0 0.018 0.000 9.9 6 1
02/18/06 3:36 a -8.2 -8.2 -8.2 --- --- 9.6 E 0.16 11.3 -15.1 --- --- 721.1 0.018 0.000 9.9 6 1
02/18/06 3:37 a -8.2 -8.2 -8.3 --- --- 9.6 E 0.16 13.9 -15.1 --- --- 721.0 0.018 0.000 9.9 6 1
02/18/06 3:38 a -8.3 -8.3 -8.3 --- --- 11.3 E 0.19 17.4 -15.9 --- --- 721.0 0.019 0.000 9.9 6 1
02/18/06 3:39 a -8.3 -8.3 -8.4 --- --- 9.6 E 0.16 13.0 -15.3 --- --- 721.0 0.019 0.000 9.9 6 1
02/18/06 3:40 a -8.4 -8.4 -8.4 --- --- 8.7 E 0.14 11.3 -15.0 --- --- 721.0 0.019 0.000 9.9 6 1
02/18/06 3:41 a -8.4 -8.4 -8.4 --- --- 8.7 E 0.14 11.3 -15.0 --- --- 721.0 0.019 0.000 9.9 6 1
02/18/06 3:42 a -8.4 -8.4 -8.4 --- --- 9.6 E 0.16 13.0 -15.3 --- --- 721.1 0.019 0.000 9.9 6 1
02/18/06 3:43 a -8.4 -8.4 -8.4 --- --- 10.4 E 0.17 11.3 -15.7 --- --- 721.1 0.019 0.000 9.9 6 1
02/18/06 3:44 a -8.5 -8.4 -8.5 --- --- 9.6 E 0.16 14.8 -15.5 --- --- 721.1 0.019 0.000 9.9 6 1
02/18/06 3:45 a -8.5 -8.5 -8.5 --- --- 10.4 E 0.17 13.0 -15.8 --- --- 721.1 0.019 0.000 9.9 6 1
02/18/06 3:46 a -8.5 -8.5 -8.6 --- --- 10.4 E 0.17 12.2 -15.8 --- --- 721.1 0.019 0.000 9.9 6 1
02/18/06 3:47 a -8.6 -8.6 -8.6 --- --- 12.2 E 0.20 14.8 -16.5 --- --- 721.0 0.019 0.000 9.9 6 1
02/18/06 3:48 a -8.6 -8.6 -8.6 --- --- 10.4 E 0.17 13.0 -15.9 --- --- 721.1 0.019 0.000 9.9 6 1
02/18/06 3:49 a -8.6 -8.6 -8.6 --- --- 12.2 E 0.20 14.8 -16.6 --- --- 721.0 0.019 0.000 9.8 6 1
02/18/06 3:50 a -8.6 -8.6 -8.6 --- --- 13.0 E 0.22 16.5 -16.8 --- --- 721.0 0.019 0.000 9.8 5 1
02/18/06 3:51 a -8.6 -8.6 -8.6 --- --- 13.0 ESE 0.22 18.3 -16.7 --- --- 721.0 0.019 0.000 9.8 6 1
02/18/06 3:52 a -8.5 -8.5 -8.6 --- --- 15.7 ESE 0.26 18.3 -17.4 --- --- 721.0 0.019 0.000 9.8 6 1
02/18/06 3:53 a -8.4 -8.4 -8.4 --- --- 11.3 E 0.19 13.9 -16.1 --- --- 721.1 0.019 0.000 9.8 5 1
02/18/06 3:54 a -8.4 -8.4 -8.4 --- --- 11.3 E 0.19 13.9 -16.0 --- --- 720.9 0.019 0.000 9.8 6 1
02/18/06 3:55 a -8.4 -8.4 -8.4 --- --- 13.0 E 0.22 18.3 -16.6 --- --- 721.0 0.019 0.000 9.8 5 1
02/18/06 3:56 a -8.3 -8.3 -8.3 --- --- 11.3 E 0.19 16.5 -15.9 --- --- 720.9 0.019 0.000 9.8 5 1
02/18/06 3:57 a -8.3 -8.3 -8.3 --- --- 13.9 ESE 0.23 17.4 -16.7 --- --- 721.0 0.019 0.000 9.7 5 1
02/18/06 3:58 a -8.3 -8.3 -8.3 --- --- 15.7 ESE 0.26 17.4 -17.1 --- --- 721.0 0.018 0.000 9.7 6 1
02/18/06 3:59 a -8.3 -8.2 -8.3 --- --- 12.2 ESE 0.20 18.3 -16.1 --- --- 721.0 0.018 0.000 9.7 6 1
02/18/06 4:00 a -8.2 -8.2 -8.2 --- --- 15.7 ESE 0.26 18.3 -17.1 --- --- 720.9 0.018 0.000 9.7 5 1
02/18/06 4:01 a -8.2 -8.2 -8.2 --- --- 14.8 ESE 0.25 17.4 -16.8 --- --- 720.9 0.018 0.000 9.7 5 1
02/18/06 4:02 a -8.2 -8.2 -8.2 --- --- 15.7 SE 0.26 17.4 -16.9 --- --- 720.9 0.018 0.000 9.7 5 1
02/18/06 4:03 a -8.2 -8.1 -8.2 --- --- 16.5 SE 0.28 17.4 -17.2 --- --- 720.9 0.018 0.000 9.7 5 1
02/18/06 4:04 a -8.1 -8.1 -8.2 --- --- 16.5 SE 0.28 19.1 -17.1 --- --- 721.0 0.018 0.000 9.6 5 1
02/18/06 4:05 a -8.1 -8.1 -8.1 --- --- 15.7 SE 0.26 17.4 -16.8 --- --- 720.9 0.018 0.000 9.6 5 1
02/18/06 4:07 a -8.0 -8.0 -8.0 --- --- 11.3 ESE 0.19 13.0 -15.5 --- --- 720.9 0.018 0.000 9.6 5 1
02/18/06 4:08 a -7.9 -7.9 -7.9 --- --- 12.2 ESE 0.20 14.8 -15.7 --- --- 720.8 0.018 0.000 9.6 5 1
02/18/06 4:09 a -7.9 -7.9 -7.9 --- --- 14.8 ESE 0.25 18.3 -16.4 --- --- 720.9 0.018 0.000 9.6 5 1
02/18/06 4:10 a -7.9 -7.9 -7.9 --- --- 15.7 ESE 0.26 17.4 -16.6 --- --- 720.9 0.018 0.000 9.6 5 1
02/18/06 4:11 a -7.8 -7.8 -7.9 --- --- 13.9 ESE 0.23 16.5 -16.1 --- --- 720.9 0.018 0.000 9.6 5 1
02/18/06 4:12 a -7.8 -7.7 -7.8 --- --- 14.8 ESE 0.25 17.4 -16.2 --- --- 720.8 0.018 0.000 9.6 5 1
02/18/06 4:13 a -7.7 -7.7 -7.7 --- --- 13.9 ESE 0.23 17.4 -15.9 --- --- 720.9 0.018 0.000 9.5 5 1
02/18/06 4:14 a -7.7 -7.7 -7.7 --- --- 13.0 ESE 0.22 14.8 -15.6 --- --- 720.9 0.018 0.000 9.5 5 1
02/18/06 4:15 a -7.7 -7.6 -7.7 --- --- 14.8 SE 0.25 16.5 -16.1 --- --- 720.8 0.018 0.000 9.4 5 1
02/18/06 4:16 a -7.6 -7.6 -7.6 --- --- 13.9 ESE 0.23 16.5 -15.8 --- --- 720.9 0.018 0.000 9.4 5 1
02/18/06 4:17 a -7.6 -7.6 -7.6 --- --- 13.9 ESE 0.23 15.7 -15.7 --- --- 720.8 0.018 0.000 9.4 5 1
02/18/06 4:18 a -7.6 -7.6 -7.6 --- --- 13.9 ESE 0.23 16.5 -15.7 --- --- 720.8 0.018 0.000 9.4 5 1
02/18/06 4:19 a -7.6 -7.6 -7.6 --- --- 13.9 ESE 0.23 16.5 -15.7 --- --- 720.8 0.018 0.000 9.4 5 1
02/18/06 4:20 a -7.6 -7.6 -7.6 --- --- 15.7 ESE 0.26 16.5 -16.2 --- --- 720.7 0.018 0.000 9.4 5 1
02/18/06 4:21 a -7.6 -7.5 -7.6 --- --- 14.8 ESE 0.25 17.4 -15.9 --- --- 720.9 0.018 0.000 9.4 5 1
02/18/06 4:22 a -7.6 -7.5 -7.6 --- --- 13.9 ESE 0.23 15.7 -15.7 --- --- 720.9 0.018 0.000 9.4 5 1
02/18/06 4:23 a -7.6 -7.6 -7.6 --- --- 15.7 ESE 0.26 17.4 -16.2 --- --- 720.8 0.018 0.000 9.4 5 1
02/18/06 4:24 a -7.6 -7.6 -7.6 --- --- 14.8 ESE 0.25 16.5 -16.0 --- --- 720.8 0.018 0.000 9.3 5 1
02/18/06 4:25 a -7.6 -7.6 -7.6 --- --- 13.9 ESE 0.23 16.5 -15.8 --- --- 720.8 0.018 0.000 9.3 5 1
02/18/06 4:26 a -7.6 -7.6 -7.6 --- --- 13.9 ESE 0.23 16.5 -15.7 --- --- 720.8 0.018 0.000 9.3 5 1
02/18/06 4:27 a -7.6 -7.5 -7.6 --- --- 15.7 SE 0.26 20.0 -16.2 --- --- 720.8 0.018 0.000 9.3 5 1
02/18/06 4:28 a -7.6 -7.6 -7.6 --- --- 13.9 ESE 0.23 14.8 -15.7 --- --- 720.9 0.018 0.000 9.3 5 1
02/18/06 4:29 a -7.5 -7.5 -7.6 --- --- 15.7 ESE 0.26 20.0 -16.1 --- --- 720.8 0.018 0.000 9.3 5 1
02/18/06 4:30 a -7.5 -7.5 -7.5 --- --- 14.8 SE 0.25 15.7 -15.9 --- --- 720.8 0.018 0.000 9.3 5 1
02/18/06 4:31 a -7.5 -7.5 -7.5 --- --- 16.5 ESE 0.28 17.4 -16.3 --- --- 720.8 0.018 0.000 9.3 5 1
02/18/06 4:32 a -7.4 -7.4 -7.5 --- --- 14.8 ESE 0.25 17.4 -15.8 --- --- 720.8 0.018 0.000 9.2 5 1
02/18/06 4:33 a -7.5 -7.5 -7.5 --- --- 13.9 ESE 0.23 14.8 -15.6 --- --- 720.8 0.018 0.000 9.2 5 1
02/18/06 4:34 a -7.5 -7.4 -7.5 --- --- 13.9 ESE 0.23 15.7 -15.6 --- --- 720.9 0.018 0.000 9.2 5 1
02/18/06 4:35 a -7.5 -7.5 -7.5 --- --- 14.8 SE 0.25 16.5 -15.9 --- --- 720.6 0.018 0.000 9.2 5 1
02/18/06 4:36 a -7.5 -7.5 -7.6 --- --- 15.7 ESE 0.26 16.5 -16.1 --- --- 720.6 0.018 0.000 9.2 5 1
02/18/06 4:37 a -7.6 -7.5 -7.6 --- --- 15.7 ESE 0.26 18.3 -16.2 --- --- 720.7 0.018 0.000 9.2 5 1
02/18/06 4:38 a -7.6 -7.6 -7.6 --- --- 17.4 ESE 0.29 19.1 -16.7 --- --- 720.6 0.018 0.000 9.2 5 1
02/18/06 4:39 a -7.6 -7.6 -7.6 --- --- 18.3 ESE 0.30 19.1 -16.8 --- --- 720.6 0.018 0.000 9.2 5 1
02/18/06 4:40 a -7.7 -7.7 -7.7 --- --- 15.7 ESE 0.26 17.4 -16.3 --- --- 720.7 0.018 0.000 9.2 5 1
02/18/06 4:41 a -7.7 -7.7 -7.7 --- --- 15.7 ESE 0.26 17.4 -16.4 --- --- 720.6 0.018 0.000 9.2 5 1
02/18/06 4:42 a -7.7 -7.7 -7.8 --- --- 15.7 ESE 0.26 20.0 -16.4 --- --- 720.6 0.018 0.000 9.1 5 1
02/18/06 4:43 a -7.8 -7.8 -7.8 --- --- 16.5 ESE 0.28 19.1 -16.7 --- --- 720.6 0.018 0.000 9.1 5 1
02/18/06 4:44 a -7.8 -7.8 -7.8 --- --- 17.4 ESE 0.29 20.0 -16.9 --- --- 720.6 0.018 0.000 9.1 5 1
02/18/06 4:45 a -7.8 -7.8 -7.8 --- --- 13.9 E 0.23 17.4 -16.0 --- --- 720.6 0.018 0.000 9.1 5 1
02/18/06 4:46 a -7.8 -7.8 -7.8 --- --- 16.5 ESE 0.28 18.3 -16.7 --- --- 720.5 0.018 0.000 9.1 5 1
02/18/06 4:47 a -7.8 -7.8 -7.8 --- --- 15.7 E 0.26 18.3 -16.6 --- --- 720.5 0.018 0.000 9.1 5 1
02/18/06 4:48 a -7.8 -7.8 -7.8 --- --- 15.7 ESE 0.26 20.0 -16.6 --- --- 720.5 0.018 0.000 9.1 5 1
02/18/06 4:49 a -7.9 -7.8 -7.9 --- --- 18.3 ESE 0.30 20.9 -17.2 --- --- 720.5 0.018 0.000 9.1 5 1
02/18/06 4:50 a -7.9 -7.9 -7.9 --- --- 14.8 ESE 0.25 18.3 -16.4 --- --- 720.5 0.018 0.000 9.1 5 1
02/18/06 4:51 a -7.9 -7.9 -7.9 --- --- 15.7 E 0.26 20.0 -16.6 --- --- 720.4 0.018 0.000 9.1 5 1
02/18/06 4:52 a -7.9 -7.9 -7.9 --- --- 17.4 ESE 0.29 20.9 -17.0 --- --- 720.5 0.018 0.000 9.1 5 1
02/18/06 4:53 a -7.9 -7.9 -7.9 --- --- 18.3 ESE 0.30 20.9 -17.2 --- --- 720.4 0.018 0.000 9.1 5 1
02/18/06 4:54 a -7.9 -7.9 -7.9 --- --- 16.5 ESE 0.28 20.0 -16.8 --- --- 720.4 0.018 0.000 9.1 5 1
02/18/06 4:55 a -7.9 -7.9 -7.9 --- --- 17.4 ESE 0.29 20.9 -17.0 --- --- 720.4 0.018 0.000 9.1 5 1
02/18/06 4:56 a -7.8 -7.7 -7.8 --- --- 17.4 ESE 0.29 18.3 -16.9 --- --- 720.5 0.018 0.000 9.1 5 1
02/18/06 4:57 a -7.7 -7.6 -7.7 --- --- 14.8 ESE 0.25 19.1 -16.1 --- --- 720.4 0.018 0.000 9.2 5 1
02/18/06 4:58 a -7.6 -7.6 -7.6 --- --- 17.4 ESE 0.29 20.0 -16.7 --- --- 720.5 0.018 0.000 9.2 5 1
02/18/06 4:59 a -7.6 -7.6 -7.6 --- --- 15.7 E 0.26 19.1 -16.2 --- --- 720.5 0.018 0.000 9.2 5 1
02/18/06 5:00 a -7.6 -7.6 -7.6 --- --- 15.7 ESE 0.26 18.3 -16.2 --- --- 720.5 0.018 0.000 9.2 5 1
02/18/06 5:01 a -7.6 -7.6 -7.6 --- --- 15.7 ESE 0.26 19.1 -16.2 --- --- 720.4 0.018 0.000 9.2 5 1
02/18/06 5:02 a -7.4 -7.3 -7.5 --- --- 17.4 ESE 0.29 23.5 -16.4 --- --- 720.4 0.018 0.000 9.2 5 1
02/18/06 5:03 a -7.2 -7.1 -7.2 --- --- 19.1 ESE 0.32 20.9 -16.4 --- --- 720.4 0.018 0.000 9.3 5 1
02/18/06 5:04 a -7.1 -7.0 -7.1 --- --- 17.4 ESE 0.29 20.0 -15.9 --- --- 720.4 0.018 0.000 9.3 5 1
02/18/06 5:05 a -6.9 -6.9 -6.9 --- --- 18.3 ESE 0.30 20.9 -16.0 --- --- 720.4 0.018 0.000 9.3 5 1
02/18/06 5:06 a -6.8 -6.8 -6.9 --- --- 17.4 E 0.29 20.9 -15.7 --- --- 720.4 0.017 0.000 9.3 5 1
02/18/06 5:07 a -6.7 -6.7 -6.8 --- --- 15.7 ESE 0.26 19.1 -15.1 --- --- 720.3 0.017 0.000 9.4 5 1
02/18/06 5:08 a -6.6 -6.6 -6.7 --- --- 14.8 ESE 0.25 18.3 -14.7 --- --- 720.3 0.017 0.000 9.4 5 1
02/18/06 5:09 a -6.6 -6.6 -6.6 --- --- 15.7 E 0.26 18.3 -14.9 --- --- 720.4 0.017 0.000 9.4 5 1
02/18/06 5:10 a -6.7 -6.6 -6.7 --- --- 17.4 ESE 0.29 19.1 -15.4 --- --- 720.3 0.017 0.000 9.4 5 1
02/18/06 5:11 a -6.8 -6.8 -6.9 --- --- 16.5 ESE 0.28 18.3 -15.4 --- --- 720.3 0.017 0.000 9.4 5 1
02/18/06 5:12 a -6.9 -6.9 -7.0 --- --- 16.5 E 0.28 19.1 -15.6 --- --- 720.3 0.018 0.000 9.4 5 1
02/18/06 5:13 a -7.1 -7.1 -7.1 --- --- 15.7 E 0.26 19.1 -15.5 --- --- 720.2 0.018 0.000 9.4 5 1
02/18/06 5:14 a -7.1 -7.1 -7.1 --- --- 17.4 E 0.29 22.6 -15.9 --- --- 720.3 0.018 0.000 9.5 5 1
02/18/06 5:15 a -7.3 -7.2 -7.3 --- --- 18.3 E 0.30 21.7 -16.4 --- --- 720.2 0.018 0.000 9.4 5 1
02/18/06 5:16 a -7.3 -7.2 -7.3 --- --- 18.3 ESE 0.30 20.9 -16.4 --- --- 720.3 0.018 0.000 9.5 5 1
02/18/06 5:17 a -7.3 -7.3 -7.3 --- --- 15.7 E 0.26 19.1 -15.9 --- --- 720.1 0.018 0.000 9.5 5 1
02/18/06 5:18 a -7.2 -7.2 -7.2 --- --- 20.0 ESE 0.33 21.7 -16.7 --- --- 720.2 0.018 0.000 9.5 5 1
02/18/06 5:19 a -7.2 -7.2 -7.3 --- --- 17.4 ESE 0.29 19.1 -16.2 --- --- 720.2 0.018 0.000 9.5 5 1
02/18/06 5:20 a -7.4 -7.3 -7.4 --- --- 19.1 ESE 0.32 23.5 -16.8 --- --- 720.2 0.018 0.000 9.5 5 1
02/18/06 5:21 a -7.6 -7.6 -7.6 --- --- 18.3 ESE 0.30 20.9 -16.8 --- --- 720.2 0.018 0.000 9.5 5 1
02/18/06 5:22 a -7.7 -7.7 -7.8 --- --- 18.3 ESE 0.30 20.0 -16.9 --- --- 720.2 0.018 0.000 9.5 5 1
02/18/06 5:23 a -7.8 -7.8 -7.9 --- --- 17.4 ESE 0.29 22.6 -16.9 --- --- 720.2 0.018 0.000 9.5 5 1
02/18/06 5:24 a -7.9 -7.9 -7.9 --- --- 17.4 ESE 0.29 20.9 -17.1 --- --- 720.3 0.018 0.000 9.5 5 1
02/18/06 5:25 a -7.9 -7.9 -8.0 --- --- 17.4 ESE 0.29 20.0 -17.1 --- --- 720.2 0.018 0.000 9.5 5 1
02/18/06 5:26 a -8.1 -8.0 -8.1 --- --- 17.4 ESE 0.29 21.7 -17.2 --- --- 720.2 0.018 0.000 9.5 5 1
02/18/06 5:27 a -8.2 -8.1 -8.2 --- --- 18.3 ESE 0.30 20.9 -17.6 --- --- 720.2 0.018 0.000 9.5 5 1
02/18/06 5:28 a -8.2 -8.2 -8.2 --- --- 18.3 ESE 0.30 20.9 -17.6 --- --- 720.3 0.018 0.000 9.5 5 1
02/18/06 5:29 a -8.3 -8.2 -8.3 --- --- 18.3 ESE 0.30 20.9 -17.7 --- --- 720.2 0.018 0.000 9.5 5 1
02/18/06 5:30 a -8.3 -8.3 -8.4 --- --- 20.0 ESE 0.33 23.5 -18.1 --- --- 720.1 0.018 0.000 9.5 5 1
02/18/06 5:31 a -8.4 -8.4 -8.4 --- --- 15.7 E 0.26 20.9 -17.3 --- --- 720.2 0.019 0.000 9.5 5 1
02/18/06 5:32 a -8.4 -8.4 -8.4 --- --- 17.4 ESE 0.29 20.0 -17.8 --- --- 720.2 0.019 0.000 9.5 5 1
02/18/06 5:33 a -8.5 -8.5 -8.5 --- --- 16.5 ESE 0.28 18.3 -17.6 --- --- 720.2 0.019 0.000 9.5 5 1
02/18/06 5:34 a -8.6 -8.6 -8.6 --- --- 16.5 ESE 0.28 20.9 -17.7 --- --- 720.3 0.019 0.000 9.5 5 1
02/18/06 5:35 a -8.6 -8.6 -8.6 --- --- 15.7 ESE 0.26 17.4 -17.4 --- --- 720.2 0.019 0.000 9.5 5 1
02/18/06 5:36 a -8.6 -8.6 -8.6 --- --- 16.5 E 0.28 19.1 -17.8 --- --- 720.2 0.019 0.000 9.5 5 1
02/18/06 5:37 a -8.6 -8.6 -8.6 --- --- 18.3 ESE 0.30 20.0 -18.1 --- --- 720.2 0.019 0.000 9.5 5 1
02/18/06 5:38 a -8.7 -8.7 -8.7 --- --- 18.3 ESE 0.30 19.1 -18.2 --- --- 720.1 0.019 0.000 9.5 5 1
02/18/06 5:39 a -8.7 -8.7 -8.7 --- --- 19.1 ESE 0.32 21.7 -18.4 --- --- 720.1 0.019 0.000 9.5 5 1
02/18/06 5:40 a -8.7 -8.7 -8.8 --- --- 20.0 ESE 0.33 22.6 -18.7 --- --- 720.1 0.019 0.000 9.5 5 1
02/18/06 5:41 a -8.8 -8.8 -8.8 --- --- 19.1 SE 0.32 23.5 -18.6 --- --- 720.2 0.019 0.000 9.5 5 1
02/18/06 5:42 a -8.9 -8.8 -8.9 --- --- 20.9 SE 0.35 23.5 -19.1 --- --- 720.1 0.019 0.000 9.5 5 1
02/18/06 5:43 a -8.9 -8.9 -8.9 --- --- 20.9 SE 0.35 22.6 -19.1 --- --- 720.0 0.019 0.000 9.5 5 1
02/18/06 5:44 a -8.8 -8.8 -8.8 --- --- 20.9 SE 0.35 24.3 -19.0 --- --- 720.0 0.019 0.000 9.6 5 1
02/18/06 5:45 a -8.8 -8.8 -8.8 --- --- 20.9 SE 0.35 24.3 -19.0 --- --- 720.0 0.019 0.000 9.6 5 1
02/18/06 5:46 a -8.7 -8.7 -8.8 --- --- 21.7 SE 0.36 24.3 -19.0 --- --- 720.0 0.019 0.000 9.6 5 1
02/18/06 5:47 a -8.7 -8.7 -8.7 --- --- 22.6 SE 0.38 25.2 -19.2 --- --- 720.0 0.019 0.000 9.5 5 1
02/18/06 5:48 a -8.7 -8.6 -8.7 --- --- 21.7 SE 0.36 25.2 -18.9 --- --- 720.0 0.019 0.000 9.6 5 1
02/18/06 5:49 a -8.4 -8.3 -8.6 --- --- 21.7 SE 0.36 23.5 -18.6 --- --- 719.9 0.019 0.000 9.6 5 1
02/18/06 5:50 a -8.3 -8.2 -8.3 --- --- 21.7 SE 0.36 27.0 -18.4 --- --- 719.9 0.018 0.000 9.6 5 1
02/18/06 5:51 a -8.1 -8.0 -8.2 --- --- 18.3 SE 0.30 23.5 -17.4 --- --- 720.1 0.018 0.000 9.6 5 1
02/18/06 5:52 a -7.9 -7.9 -8.0 --- --- 20.0 SE 0.33 22.6 -17.7 --- --- 720.0 0.018 0.000 9.6 5 1
02/18/06 5:53 a -7.9 -7.8 -7.9 --- --- 20.0 SE 0.33 22.6 -17.6 --- --- 720.0 0.018 0.000 9.6 5 1
02/18/06 5:54 a -7.7 -7.7 -7.8 --- --- 20.0 SE 0.33 21.7 -17.4 --- --- 720.1 0.018 0.000 9.6 5 1
02/18/06 5:55 a -7.6 -7.6 -7.7 --- --- 20.0 SE 0.33 21.7 -17.2 --- --- 720.0 0.018 0.000 9.7 5 1
02/18/06 5:56 a -7.6 -7.6 -7.6 --- --- 20.9 SE 0.35 25.2 -17.3 --- --- 720.0 0.018 0.000 9.7 5 1
02/18/06 5:57 a -7.6 -7.6 -7.6 --- --- 20.9 SE 0.35 22.6 -17.3 --- --- 719.9 0.018 0.000 9.7 5 1
02/18/06 5:58 a -7.6 -7.6 -7.7 --- --- 20.0 SE 0.33 22.6 -17.2 --- --- 720.0 0.018 0.000 9.7 5 1
02/18/06 5:59 a -7.7 -7.7 -7.8 --- --- 21.7 SE 0.36 25.2 -17.7 --- --- 719.9 0.018 0.000 9.7 5 1
02/18/06 6:00 a -7.8 -7.8 -7.9 --- --- 21.7 SE 0.36 24.3 -17.8 --- --- 719.9 0.018 0.000 9.7 5 1
02/18/06 6:01 a -7.9 -7.9 -7.9 --- --- 19.1 SE 0.32 20.9 -17.4 --- --- 720.0 0.018 0.000 9.7 5 1
02/18/06 6:02 a -8.0 -7.9 -8.0 --- --- 20.0 SE 0.33 22.6 -17.7 --- --- 719.9 0.018 0.000 9.7 5 1
02/18/06 6:03 a -8.1 -8.1 -8.1 --- --- 21.7 SE 0.36 23.5 -18.1 --- --- 720.0 0.018 0.000 9.7 5 1
02/18/06 6:04 a -8.1 -8.1 -8.1 --- --- 20.9 SE 0.35 22.6 -18.0 --- --- 720.1 0.018 0.000 9.7 5 1
02/18/06 6:05 a -8.2 -8.2 -8.2 --- --- 20.0 SE 0.33 21.7 -17.9 --- --- 720.0 0.018 0.000 9.7 5 1
02/18/06 6:06 a -8.2 -8.2 -8.2 --- --- 22.6 SE 0.38 24.3 -18.5 --- --- 719.9 0.018 0.000 9.7 5 1
02/18/06 6:07 a -8.2 -8.2 -8.2 --- --- 21.7 SE 0.36 24.3 -18.3 --- --- 719.9 0.018 0.000 9.7 5 1
02/18/06 6:08 a -8.2 -8.2 -8.3 --- --- 20.0 SE 0.33 23.5 -18.0 --- --- 720.1 0.018 0.000 9.6 5 1
02/18/06 6:09 a -8.3 -8.3 -8.3 --- --- 20.9 SE 0.35 22.6 -18.2 --- --- 720.0 0.018 0.000 9.6 5 1
02/18/06 6:10 a -8.3 -8.3 -8.3 --- --- 19.1 SE 0.32 23.5 -17.9 --- --- 720.1 0.018 0.000 9.6 5 1
02/18/06 6:11 a -8.3 -8.3 -8.3 --- --- 19.1 SE 0.32 20.9 -17.9 --- --- 720.0 0.018 0.000 9.6 5 1
02/18/06 6:12 a -8.2 -8.2 -8.3 --- --- 18.3 SE 0.30 21.7 -17.7 --- --- 720.1 0.018 0.000 9.6 5 1
02/18/06 6:13 a -8.1 -8.1 -8.2 --- --- 19.1 SE 0.32 21.7 -17.7 --- --- 720.0 0.018 0.000 9.6 5 1
02/18/06 6:14 a -8.0 -8.0 -8.1 --- --- 19.1 SE 0.32 20.0 -17.6 --- --- 720.0 0.018 0.000 9.6 5 1
02/18/06 6:15 a -8.0 -8.0 -8.0 --- --- 19.1 SE 0.32 20.9 -17.6 --- --- 719.9 0.018 0.000 9.6 5 1
02/18/06 6:16 a -7.8 -7.7 -7.9 --- --- 20.0 SE 0.33 22.6 -17.5 --- --- 719.9 0.018 0.000 9.6 5 1
02/18/06 6:17 a -7.7 -7.6 -7.7 --- --- 19.1 SE 0.32 20.9 -17.1 --- --- 719.9 0.018 0.000 9.6 5 1
02/18/06 6:18 a -7.5 -7.4 -7.6 --- --- 20.9 SE 0.35 21.7 -17.3 --- --- 720.0 0.018 0.000 9.7 5 1
02/18/06 6:19 a -7.4 -7.3 -7.4 --- --- 20.9 SE 0.35 23.5 -17.1 --- --- 720.0 0.018 0.000 9.7 5 1
02/18/06 6:20 a -7.2 -7.2 -7.3 --- --- 22.6 SE 0.38 24.3 -17.2 --- --- 719.9 0.018 0.000 9.7 5 1
02/18/06 6:21 a -7.1 -7.1 -7.2 --- --- 20.9 SE 0.35 24.3 -16.7 --- --- 719.9 0.018 0.000 9.8 5 1
02/18/06 6:22 a -7.0 -7.0 -7.1 --- --- 20.0 SE 0.33 23.5 -16.4 --- --- 720.0 0.018 0.000 9.8 5 1
02/18/06 6:23 a -6.9 -6.9 -7.0 --- --- 20.0 SE 0.33 22.6 -16.3 --- --- 720.0 0.018 0.000 9.8 5 1
02/18/06 6:24 a -6.9 -6.9 -6.9 --- --- 19.1 SE 0.32 20.9 -16.2 --- --- 720.0 0.018 0.000 9.8 5 1
02/18/06 6:25 a -6.9 -6.8 -6.9 --- --- 18.3 SE 0.30 21.7 -15.9 --- --- 720.1 0.018 0.000 9.8 5 1
02/18/06 6:26 a -6.8 -6.8 -6.8 --- --- 18.3 SE 0.30 19.1 -15.8 --- --- 720.0 0.017 0.000 9.9 5 1
02/18/06 6:27 a -6.8 -6.8 -6.8 --- --- 17.4 SE 0.29 20.9 -15.6 --- --- 719.9 0.017 0.000 9.9 5 1
02/18/06 6:28 a -6.8 -6.7 -6.8 --- --- 17.4 SE 0.29 20.0 -15.6 --- --- 720.0 0.017 0.000 9.9 5 1
02/18/06 6:29 a -6.7 -6.7 -6.7 --- --- 17.4 SE 0.29 19.1 -15.5 --- --- 720.0 0.017 0.000 9.9 5 1
02/18/06 6:30 a -6.7 -6.7 -6.7 --- --- 17.4 SE 0.29 20.9 -15.5 --- --- 720.0 0.017 0.000 9.9 5 1
02/18/06 6:31 a -6.7 -6.7 -6.7 --- --- 19.1 SE 0.32 20.9 -15.8 --- --- 720.0 0.017 0.000 9.9 5 1
02/18/06 6:32 a -6.7 -6.6 -6.7 --- --- 17.4 SE 0.29 19.1 -15.4 --- --- 720.0 0.017 0.000 9.9 5 1
02/18/06 6:33 a -6.6 -6.6 -6.7 --- --- 18.3 SE 0.30 20.0 -15.6 --- --- 720.1 0.017 0.000 10.0 5 1
02/18/06 6:34 a -6.6 -6.6 -6.6 --- --- 19.1 SE 0.32 20.9 -15.7 --- --- 720.0 0.017 0.000 10.0 5 1
02/18/06 6:35 a -6.6 -6.6 -6.6 --- --- 17.4 SE 0.29 20.0 -15.3 --- --- 720.0 0.017 0.000 10.0 5 1
02/18/06 6:36 a -6.6 -6.6 -6.7 --- --- 16.5 SE 0.28 17.4 -15.2 --- --- 720.0 0.017 0.000 10.0 5 1
02/18/06 6:37 a -6.7 -6.7 -6.7 --- --- 17.4 SE 0.29 19.1 -15.4 --- --- 720.0 0.017 0.000 10.0 5 1
02/18/06 6:38 a -6.7 -6.6 -6.7 --- --- 17.4 SE 0.29 18.3 -15.4 --- --- 720.0 0.017 0.000 10.0 5 1
02/18/06 6:39 a -6.6 -6.6 -6.7 --- --- 18.3 SE 0.30 20.9 -15.6 --- --- 720.0 0.017 0.000 10.1 5 1
02/18/06 6:40 a -6.6 -6.6 -6.6 --- --- 18.3 SE 0.30 20.0 -15.6 --- --- 720.0 0.017 0.000 10.1 5 1
02/18/06 6:41 a -6.6 -6.6 -6.6 --- --- 17.4 SE 0.29 19.1 -15.3 --- --- 720.0 0.017 0.000 10.1 5 1
02/18/06 6:42 a -6.6 -6.6 -6.6 --- --- 17.4 SE 0.29 18.3 -15.3 --- --- 720.0 0.017 0.000 10.1 5 1
02/18/06 6:43 a -6.6 -6.6 -6.6 --- --- 17.4 SE 0.29 19.1 -15.3 --- --- 720.1 0.017 0.000 10.1 5 1
02/18/06 6:44 a -6.6 -6.6 -6.6 --- --- 16.5 SE 0.28 18.3 -15.2 --- --- 720.0 0.017 0.000 10.1 5 1
02/18/06 6:45 a -6.6 -6.6 -6.6 --- --- 16.5 SE 0.28 18.3 -15.1 --- --- 720.0 0.017 0.000 10.1 5 1
02/18/06 6:46 a -6.6 -6.6 -6.6 --- --- 15.7 SE 0.26 16.5 -14.9 --- --- 720.0 0.017 0.000 10.1 5 1
02/18/06 6:47 a -6.6 -6.6 -6.6 --- --- 16.5 SE 0.28 17.4 -15.2 --- --- 720.0 0.017 0.000 10.1 5 1
02/18/06 6:48 a -6.6 -6.6 -6.6 --- --- 17.4 SE 0.29 19.1 -15.3 --- --- 720.0 0.017 0.000 10.1 5 1
02/18/06 6:49 a -6.6 -6.6 -6.6 --- --- 17.4 SE 0.29 19.1 -15.3 --- --- 720.0 0.017 0.000 10.1 5 1
02/18/06 6:50 a -6.6 -6.6 -6.6 --- --- 16.5 SE 0.28 17.4 -15.1 --- --- 720.0 0.017 0.000 10.1 5 1
02/18/06 6:51 a -6.5 -6.5 -6.6 --- --- 16.5 SE 0.28 17.4 -15.0 --- --- 720.0 0.017 0.000 10.1 5 1
02/18/06 6:52 a -6.6 -6.6 -6.6 --- --- 17.4 SE 0.29 19.1 -15.3 --- --- 720.0 0.017 0.000 10.1 5 1
02/18/06 6:53 a -6.6 -6.6 -6.6 --- --- 17.4 SE 0.29 18.3 -15.3 --- --- 720.0 0.017 0.000 10.1 5 1
02/18/06 6:54 a -6.6 -6.6 -6.7 --- --- 17.4 SE 0.29 19.1 -15.3 --- --- 720.0 0.017 0.000 10.1 5 1
02/18/06 6:55 a -6.7 -6.6 -6.7 --- --- 16.5 SE 0.28 17.4 -15.2 --- --- 720.0 0.017 0.000 10.2 5 1
02/18/06 6:56 a -6.7 -6.7 -6.7 --- --- 15.7 SE 0.26 16.5 -15.0 --- --- 720.0 0.017 0.000 10.2 5 1
02/18/06 6:57 a -6.7 -6.7 -6.7 --- --- 15.7 SE 0.26 17.4 -15.0 --- --- 720.0 0.017 0.000 10.2 5 1
02/18/06 6:58 a -6.7 -6.7 -6.7 --- --- 14.8 SE 0.25 16.5 -14.8 --- --- 720.0 0.017 0.000 10.1 5 1
02/18/06 6:59 a -6.7 -6.7 -6.7 --- --- 15.7 SE 0.26 17.4 -15.0 --- --- 720.0 0.017 0.000 10.1 5 1
02/18/06 7:00 a -6.7 -6.7 -6.7 --- --- 14.8 SE 0.25 15.7 -14.8 --- --- 719.9 0.017 0.000 10.1 5 1
02/18/06 7:01 a -6.7 -6.7 -6.7 --- --- 16.5 SE 0.28 17.4 -15.2 --- --- 719.9 0.017 0.000 10.1 5 1
02/18/06 7:02 a -6.7 -6.7 -6.7 --- --- 14.8 SE 0.25 17.4 -14.8 --- --- 719.9 0.017 0.000 10.1 5 1
02/18/06 7:03 a -6.7 -6.7 -6.7 --- --- 14.8 SE 0.25 16.5 -14.8 --- --- 720.0 0.017 0.000 10.1 5 1
02/18/06 7:04 a -6.7 -6.7 -6.7 --- --- 13.9 SE 0.23 15.7 -14.6 --- --- 719.9 0.017 0.000 10.1 5 1
02/18/06 7:05 a -6.7 -6.7 -6.7 --- --- 15.7 SE 0.26 15.7 -15.0 --- --- 719.9 0.017 0.000 10.1 5 1
02/18/06 7:06 a -6.7 -6.7 -6.7 --- --- 14.8 SE 0.25 15.7 -14.8 --- --- 720.0 0.017 0.000 10.1 5 1
02/18/06 7:07 a -6.7 -6.7 -6.7 --- --- 14.8 SE 0.25 15.7 -14.8 --- --- 719.9 0.017 0.000 10.1 5 1
02/18/06 7:08 a -6.6 -6.6 -6.7 --- --- 15.7 SE 0.26 16.5 -14.9 --- --- 719.9 0.017 0.000 10.1 5 1
02/18/06 7:09 a -6.6 -6.6 -6.6 --- --- 15.7 SE 0.26 17.4 -14.9 --- --- 720.0 0.017 0.000 10.0 5 1
02/18/06 7:10 a -6.6 -6.6 -6.6 --- --- 16.5 SE 0.28 18.3 -15.1 --- --- 719.8 0.017 0.000 10.0 5 1
02/18/06 7:11 a -6.6 -6.6 -6.6 --- --- 15.7 SE 0.26 18.3 -14.9 --- --- 719.8 0.017 0.000 10.0 5 1
02/18/06 7:12 a -6.6 -6.6 -6.7 --- --- 17.4 SE 0.29 18.3 -15.3 --- --- 719.9 0.017 0.000 10.0 5 1
02/18/06 7:13 a -6.7 -6.7 -6.7 --- --- 16.5 SE 0.28 19.1 -15.2 --- --- 719.8 0.017 0.000 9.9 5 1
02/18/06 7:14 a -6.7 -6.7 -6.7 --- --- 16.5 SE 0.28 18.3 -15.2 --- --- 719.9 0.017 0.000 9.9 5 1
02/18/06 7:15 a -6.8 -6.8 -6.8 --- --- 16.5 SE 0.28 18.3 -15.4 --- --- 719.9 0.017 0.000 9.9 5 1
02/18/06 7:16 a -6.9 -6.9 -7.0 --- --- 16.5 SE 0.28 18.3 -15.6 --- --- 719.9 0.018 0.000 9.9 5 1
02/18/06 7:17 a -7.1 -7.0 -7.3 --- --- 16.5 ESE 0.28 18.3 -15.8 --- --- 719.9 0.018 0.000 9.9 5 1
02/18/06 7:18 a -7.3 -7.3 -7.4 --- --- 16.5 SE 0.28 18.3 -16.1 --- --- 719.9 0.018 0.000 9.9 5 1
02/18/06 7:19 a -7.6 -7.4 -7.6 --- --- 16.5 SE 0.28 17.4 -16.4 --- --- 719.9 0.018 0.000 9.8 5 1
02/18/06 7:20 a -7.7 -7.6 -7.7 --- --- 14.8 ESE 0.25 17.4 -16.1 --- --- 719.9 0.018 0.000 9.8 5 1
02/18/06 7:21 a -7.7 -7.7 -7.8 --- --- 15.7 SE 0.26 16.5 -16.4 --- --- 719.9 0.018 0.000 9.8 5 1
02/18/06 7:22 a -7.7 -7.7 -7.7 --- --- 15.7 SE 0.26 18.3 -16.4 --- --- 719.8 0.018 0.000 9.8 5 1
02/18/06 7:23 a -7.7 -7.6 -7.7 --- --- 16.5 SE 0.28 20.0 -16.5 --- --- 719.8 0.018 0.000 9.8 5 1
02/18/06 7:24 a -7.6 -7.6 -7.6 --- --- 16.5 SE 0.28 17.4 -16.4 --- --- 719.8 0.018 0.000 9.7 5 1
02/18/06 7:25 a -7.6 -7.6 -7.7 --- --- 16.5 ESE 0.28 18.3 -16.4 --- --- 719.8 0.018 0.000 9.7 5 1
02/18/06 7:26 a -7.8 -7.7 -7.8 --- --- 15.7 ESE 0.26 17.4 -16.4 --- --- 719.8 0.018 0.000 9.7 5 1
02/18/06 7:27 a -7.8 -7.8 -7.9 --- --- 15.7 ESE 0.26 19.1 -16.6 --- --- 719.8 0.018 0.000 9.7 5 1
02/18/06 7:28 a -7.9 -7.9 -8.0 --- --- 15.7 SE 0.26 17.4 -16.7 --- --- 719.8 0.018 0.000 9.6 5 1
02/18/06 7:29 a -8.0 -8.0 -8.1 --- --- 15.7 SE 0.26 18.3 -16.7 --- --- 719.8 0.018 0.000 9.6 5 1
02/18/06 7:30 a -8.1 -8.1 -8.1 --- --- 15.7 SE 0.26 17.4 -16.8 --- --- 719.8 0.018 0.000 9.6 5 1
02/18/06 7:31 a -8.2 -8.1 -8.2 --- --- 14.8 SE 0.25 15.7 -16.7 --- --- 719.7 0.018 0.000 9.6 5 1
02/18/06 7:32 a -8.3 -8.3 -8.3 --- --- 14.8 SE 0.25 16.5 -16.9 --- --- 719.8 0.018 0.000 9.5 5 1
02/18/06 7:33 a -8.3 -8.3 -8.4 --- --- 13.9 SE 0.23 14.8 -16.7 --- --- 719.8 0.019 0.000 9.5 5 1
02/18/06 7:34 a -8.4 -8.4 -8.5 --- --- 15.7 SE 0.26 16.5 -17.3 --- --- 719.8 0.019 0.000 9.4 5 1
02/18/06 7:35 a -8.5 -8.5 -8.6 --- --- 16.5 SE 0.28 18.3 -17.6 --- --- 719.8 0.019 0.000 9.4 5 1
02/18/06 7:36 a -8.6 -8.6 -8.7 --- --- 14.8 SE 0.25 16.5 -17.3 --- --- 719.7 0.019 0.000 9.4 5 1
02/18/06 7:37 a -8.7 -8.6 -8.7 --- --- 14.8 SE 0.25 16.5 -17.4 --- --- 719.7 0.019 0.000 9.4 5 1
02/18/06 7:38 a -8.7 -8.7 -8.7 --- --- 14.8 ESE 0.25 16.5 -17.4 --- --- 719.7 0.019 0.000 9.3 5 1
02/18/06 7:39 a -8.8 -8.7 -8.8 --- --- 15.7 ESE 0.26 16.5 -17.8 --- --- 719.6 0.019 0.000 9.3 5 1
02/18/06 7:40 a -8.9 -8.8 -8.9 --- --- 14.8 ESE 0.25 15.7 -17.7 --- --- 719.7 0.019 0.000 9.3 5 1
02/18/06 7:41 a -8.9 -8.9 -8.9 --- --- 14.8 ESE 0.25 15.7 -17.7 --- --- 719.7 0.019 0.000 9.3 5 1
02/18/06 7:42 a -8.9 -8.9 -8.9 --- --- 15.7 ESE 0.26 16.5 -17.8 --- --- 719.6 0.019 0.000 9.3 5 1
02/18/06 7:43 a -8.9 -8.9 -8.9 --- --- 14.8 ESE 0.25 16.5 -17.7 --- --- 719.7 0.019 0.000 9.3 5 1
02/18/06 7:44 a -8.9 -8.9 -9.0 --- --- 16.5 ESE 0.28 18.3 -18.2 --- --- 719.7 0.019 0.000 9.3 5 1
02/18/06 7:45 a -9.0 -9.0 -9.1 --- --- 14.8 ESE 0.25 16.5 -17.8 --- --- 719.7 0.019 0.000 9.3 5 1
02/18/06 7:46 a -9.0 -9.0 -9.1 --- --- 14.8 ESE 0.25 15.7 -17.8 --- --- 719.7 0.019 0.000 9.3 5 1
02/18/06 7:47 a -8.9 -8.8 -9.0 --- --- 13.9 ESE 0.23 15.7 -17.5 --- --- 719.7 0.019 0.000 9.3 5 1
02/18/06 7:48 a -8.8 -8.8 -8.8 --- --- 13.9 ESE 0.23 15.7 -17.3 --- --- 719.5 0.019 0.000 9.3 5 1
02/18/06 7:49 a -8.7 -8.7 -8.8 --- --- 14.8 ESE 0.25 16.5 -17.4 --- --- 719.7 0.019 0.000 9.3 5 1
02/18/06 7:50 a -8.7 -8.7 -8.7 --- --- 14.8 ESE 0.25 16.5 -17.4 --- --- 719.7 0.019 0.000 9.3 5 1
02/18/06 7:51 a -8.7 -8.7 -8.7 --- --- 14.8 ESE 0.25 17.4 -17.4 --- --- 719.6 0.019 0.000 9.3 5 1
02/18/06 7:52 a -8.7 -8.6 -8.7 --- --- 14.8 ESE 0.25 15.7 -17.4 --- --- 719.6 0.019 0.000 9.4 5 1
02/18/06 7:53 a -8.5 -8.4 -8.6 --- --- 14.8 ESE 0.25 16.5 -17.2 --- --- 719.6 0.019 0.000 9.4 5 1
02/18/06 7:54 a -8.4 -8.4 -8.4 --- --- 14.8 ESE 0.25 15.7 -17.1 --- --- 719.5 0.019 0.000 9.4 5 1
02/18/06 7:55 a -8.3 -8.3 -8.4 --- --- 14.8 ESE 0.25 15.7 -16.9 --- --- 719.6 0.019 0.000 9.4 5 1
02/18/06 7:56 a -8.3 -8.3 -8.3 --- --- 13.9 ESE 0.23 14.8 -16.7 --- --- 719.5 0.018 0.000 9.4 5 1
02/18/06 7:57 a -8.3 -8.3 -8.3 --- --- 14.8 ESE 0.25 16.5 -16.9 --- --- 719.6 0.018 0.000 9.4 5 1
02/18/06 7:58 a -8.3 -8.3 -8.3 --- --- 13.9 ESE 0.23 14.8 -16.7 --- --- 719.6 0.018 0.000 9.4 5 1
02/18/06 7:59 a -8.4 -8.3 -8.4 --- --- 13.9 ESE 0.23 15.7 -16.8 --- --- 719.6 0.019 0.000 9.4 5 1
02/18/06 8:00 a -8.4 -8.4 -8.5 --- --- 11.3 ESE 0.19 12.2 -16.1 --- --- 719.5 0.019 0.000 9.4 5 1
02/18/06 8:01 a -8.6 -8.5 -8.6 --- --- 13.0 ESE 0.22 14.8 -16.7 --- --- 719.6 0.019 0.000 9.4 5 1
02/18/06 8:02 a -8.7 -8.6 -8.7 --- --- 13.0 ESE 0.22 14.8 -16.9 --- --- 719.6 0.019 0.000 9.4 5 1
02/18/06 8:03 a -8.8 -8.7 -8.8 --- --- 13.0 ESE 0.22 14.8 -17.0 --- --- 719.6 0.019 0.000 9.4 5 1
02/18/06 8:04 a -8.9 -8.8 -8.9 --- --- 13.0 ESE 0.22 13.0 -17.2 --- --- 719.6 0.019 0.000 9.4 5 1
02/18/06 8:05 a -9.0 -8.9 -9.1 --- --- 13.0 ESE 0.22 13.9 -17.3 --- --- 719.5 0.019 0.000 9.4 5 1
02/18/06 8:06 a -9.1 -9.1 -9.2 --- --- 13.0 ESE 0.22 14.8 -17.4 --- --- 719.6 0.019 0.000 9.4 5 1
02/18/06 8:07 a -9.2 -9.2 -9.2 --- --- 12.2 ESE 0.20 13.0 -17.3 --- --- 719.6 0.019 0.000 9.4 5 1
02/18/06 8:08 a -9.2 -9.2 -9.3 --- --- 13.0 ESE 0.22 14.8 -17.6 --- --- 719.6 0.019 0.000 9.4 5 1
02/18/06 8:09 a -9.3 -9.3 -9.3 --- --- 12.2 ESE 0.20 13.9 -17.4 --- --- 719.5 0.019 0.000 9.4 5 1
02/18/06 8:10 a -9.3 -9.3 -9.4 --- --- 13.9 ESE 0.23 14.8 -17.9 --- --- 719.6 0.019 0.000 9.4 5 1
02/18/06 8:11 a -9.4 -9.4 -9.5 --- --- 11.3 ESE 0.19 13.0 -17.3 --- --- 719.6 0.019 0.000 9.4 5 1
02/18/06 8:12 a -9.5 -9.5 -9.6 --- --- 12.2 ESE 0.20 13.0 -17.7 --- --- 719.6 0.019 0.000 9.4 5 1
02/18/06 8:13 a -9.6 -9.6 -9.6 --- --- 12.2 ESE 0.20 13.9 -17.7 --- --- 719.5 0.019 0.000 9.4 5 1
02/18/06 8:14 a -9.6 -9.6 -9.7 --- --- 10.4 ESE 0.17 12.2 -17.2 --- --- 719.5 0.019 0.000 9.4 5 1
02/18/06 8:15 a -9.7 -9.7 -9.7 --- --- 8.7 E 0.14 10.4 -16.6 --- --- 719.6 0.019 0.000 9.4 5 1
02/18/06 8:16 a -9.7 -9.7 -9.7 --- --- 7.8 E 0.13 10.4 -16.2 --- --- 719.6 0.019 0.000 9.4 5 1
02/18/06 8:17 a -9.7 -9.7 -9.7 --- --- 9.6 E 0.16 11.3 -17.0 --- --- 719.7 0.019 0.000 9.4 5 1
02/18/06 8:18 a -9.8 -9.8 -9.8 --- --- 8.7 E 0.14 10.4 -16.7 --- --- 719.7 0.020 0.000 9.4 5 1
02/18/06 8:19 a -9.8 -9.8 -9.8 --- --- 7.8 E 0.13 9.6 -16.3 --- --- 719.6 0.020 0.000 9.4 5 1
02/18/06 8:20 a -9.8 -9.8 -9.8 --- --- 6.1 E 0.10 7.8 -15.4 --- --- 719.6 0.020 0.000 9.4 5 1
02/18/06 8:21 a -9.8 -9.8 -9.8 --- --- 7.8 E 0.13 9.6 -16.4 --- --- 719.6 0.020 0.000 9.4 5 1
02/18/06 8:22 a -9.8 -9.8 -9.8 --- --- 6.1 E 0.10 7.8 -15.4 --- --- 719.6 0.020 0.000 9.5 5 1
02/18/06 8:23 a -9.8 -9.8 -9.8 --- --- 6.1 E 0.10 7.0 -15.4 --- --- 719.6 0.020 0.000 9.5 5 1
02/18/06 8:24 a -9.7 -9.7 -9.8 --- --- 6.1 E 0.10 7.8 -15.3 --- --- 719.7 0.019 0.000 9.5 5 1
02/18/06 8:25 a -9.7 -9.7 -9.7 --- --- 6.1 E 0.10 7.8 -15.3 --- --- 719.6 0.019 0.000 9.5 5 1
02/18/06 8:26 a -9.7 -9.7 -9.7 --- --- 5.2 E 0.09 7.0 -14.7 --- --- 719.7 0.019 0.000 9.5 5 1
02/18/06 8:27 a -9.7 -9.7 -9.7 --- --- 5.2 E 0.09 7.8 -14.8 --- --- 719.6 0.019 0.000 9.5 5 1
02/18/06 8:28 a -9.7 -9.7 -9.8 --- --- 6.1 E 0.10 7.8 -15.3 --- --- 719.6 0.019 0.000 9.5 5 1
02/18/06 8:29 a -9.8 -9.8 -9.8 --- --- 7.8 E 0.13 8.7 -16.4 --- --- 719.6 0.020 0.000 9.5 5 1
02/18/06 8:30 a -9.9 -9.8 -9.9 --- --- 7.8 E 0.13 9.6 -16.4 --- --- 719.6 0.020 0.000 9.5 5 1
02/18/06 8:31 a -9.9 -9.9 -10.0 --- --- 7.8 E 0.13 9.6 -16.5 --- --- 719.5 0.020 0.000 9.5 5 1
02/18/06 8:32 a -10.1 -10.0 -10.1 --- --- 7.8 E 0.13 9.6 -16.7 --- --- 719.6 0.020 0.000 9.5 5 1
02/18/06 8:33 a -10.1 -10.1 -10.1 --- --- 8.7 ENE 0.14 9.6 -17.1 --- --- 719.5 0.020 0.000 9.5 5 1
02/18/06 8:34 a -10.1 -10.1 -10.1 --- --- 8.7 ENE 0.14 10.4 -17.1 --- --- 719.6 0.020 0.000 9.5 5 1
02/18/06 8:35 a -10.0 -9.9 -10.0 --- --- 7.8 E 0.13 9.6 -16.6 --- --- 719.6 0.020 0.000 9.5 5 1
02/18/06 8:36 a -9.9 -9.9 -9.9 --- --- 7.8 ENE 0.13 9.6 -16.4 --- --- 719.6 0.020 0.000 9.6 5 1
02/18/06 8:37 a -9.8 -9.8 -9.8 --- --- 8.7 ENE 0.14 9.6 -16.8 --- --- 719.7 0.020 0.000 9.6 5 1
02/18/06 8:38 a -9.7 -9.7 -9.7 --- --- 7.8 ENE 0.13 8.7 -16.2 --- --- 719.5 0.019 0.000 9.6 5 1
02/18/06 8:39 a -9.6 -9.6 -9.6 --- --- 7.0 ENE 0.12 7.8 -15.7 --- --- 719.5 0.019 0.000 9.6 5 1
02/18/06 8:40 a -9.6 -9.6 -9.6 --- --- 7.0 ENE 0.12 7.8 -15.7 --- --- 719.6 0.019 0.000 9.6 5 1
02/18/06 8:41 a -9.6 -9.6 -9.6 --- --- 7.0 ENE 0.12 7.8 -15.6 --- --- 719.6 0.019 0.000 9.6 5 1
02/18/06 8:42 a -9.5 -9.5 -9.6 --- --- 6.1 ENE 0.10 7.0 -15.1 --- --- 719.6 0.019 0.000 9.6 5 1
02/18/06 8:43 a -9.5 -9.5 -9.5 --- --- 5.2 ENE 0.09 6.1 -14.5 --- --- 719.6 0.019 0.000 9.6 5 1
02/18/06 8:44 a -9.5 -9.4 -9.5 --- --- 5.2 ENE 0.09 6.1 -14.5 --- --- 719.6 0.019 0.000 9.6 5 1
02/18/06 8:45 a -9.4 -9.4 -9.4 --- --- 5.2 ENE 0.09 6.1 -14.4 --- --- 719.6 0.019 0.000 9.6 5 1
02/18/06 8:46 a -9.4 -9.4 -9.4 --- --- 5.2 ENE 0.09 6.1 -14.4 --- --- 719.6 0.019 0.000 9.6 5 1
02/18/06 8:47 a -9.4 -9.4 -9.4 --- --- 5.2 ENE 0.09 6.1 -14.4 --- --- 719.6 0.019 0.000 9.6 5 1
02/18/06 8:48 a -9.4 -9.4 -9.4 --- --- 5.2 ENE 0.09 6.1 -14.4 --- --- 719.7 0.019 0.000 9.6 5 1
02/18/06 8:49 a -9.3 -9.3 -9.3 --- --- 5.2 ENE 0.09 6.1 -14.3 --- --- 719.7 0.019 0.000 9.6 5 1
02/18/06 8:50 a -9.3 -9.3 -9.3 --- --- 5.2 ENE 0.09 6.1 -14.3 --- --- 719.7 0.019 0.000 9.6 5 1
02/18/06 8:51 a -9.3 -9.3 -9.3 --- --- 5.2 ENE 0.09 6.1 -14.3 --- --- 719.6 0.019 0.000 9.6 5 1
02/18/06 8:52 a -9.2 -9.2 -9.3 --- --- 5.2 ENE 0.09 5.2 -14.2 --- --- 719.7 0.019 0.000 9.6 5 1
02/18/06 8:53 a -9.2 -9.2 -9.2 --- --- 4.3 ENE 0.07 5.2 -13.6 --- --- 719.6 0.019 0.000 9.6 5 1
02/18/06 8:54 a -9.2 -9.2 -9.2 --- --- 4.3 ENE 0.07 5.2 -13.5 --- --- 719.7 0.019 0.000 9.5 5 1
02/18/06 8:55 a -9.2 -9.1 -9.2 --- --- 4.3 ENE 0.07 5.2 -13.5 --- --- 719.7 0.019 0.000 9.5 5 1
02/18/06 8:56 a -9.1 -9.1 -9.1 --- --- 4.3 ENE 0.07 5.2 -13.4 --- --- 719.7 0.019 0.000 9.5 5 1
02/18/06 8:57 a -9.1 -9.1 -9.1 --- --- 4.3 ENE 0.07 5.2 -13.4 --- --- 719.7 0.019 0.000 9.5 5 1
02/18/06 8:58 a -9.1 -9.1 -9.1 --- --- 4.3 ENE 0.07 5.2 -13.4 --- --- 719.7 0.019 0.000 9.4 5 1
02/18/06 8:59 a -9.1 -9.1 -9.1 --- --- 4.3 ENE 0.07 5.2 -13.4 --- --- 719.7 0.019 0.000 9.4 5 1
02/18/06 9:00 a -9.0 -9.0 -9.0 --- --- 3.5 ENE 0.06 4.3 -12.6 --- --- 719.7 0.019 0.000 9.4 5 1
02/18/06 9:01 a -8.9 -8.9 -8.9 --- --- 3.5 ENE 0.06 4.3 -12.5 --- --- 719.7 0.019 0.000 9.4 5 1
02/18/06 9:02 a -8.9 -8.9 -8.9 --- --- 3.5 ENE 0.06 4.3 -12.5 --- --- 719.6 0.019 0.000 9.4 5 1
02/18/06 9:03 a -8.9 -8.9 -8.9 --- --- 3.5 ENE 0.06 4.3 -12.5 --- --- 719.6 0.019 0.000 9.4 5 1
02/18/06 9:04 a -8.9 -8.9 -8.9 --- --- 4.3 ENE 0.07 4.3 -13.2 --- --- 719.7 0.019 0.000 9.4 5 1
02/18/06 9:05 a -8.9 -8.8 -8.9 --- --- 4.3 ENE 0.07 4.3 -13.2 --- --- 719.7 0.019 0.000 9.4 5 1
02/18/06 9:06 a -8.8 -8.8 -8.8 --- --- 4.3 ENE 0.07 5.2 -13.1 --- --- 719.8 0.019 0.000 9.3 5 1
02/18/06 9:07 a -8.8 -8.8 -8.8 --- --- 4.3 ENE 0.07 5.2 -13.1 --- --- 719.7 0.019 0.000 9.3 5 1
02/18/06 9:08 a -8.8 -8.8 -8.8 --- --- 6.1 ENE 0.10 6.1 -14.3 --- --- 719.7 0.019 0.000 9.3 5 1
02/18/06 9:09 a -8.8 -8.8 -8.8 --- --- 5.2 NE 0.09 6.1 -13.7 --- --- 719.7 0.019 0.000 9.3 5 1
02/18/06 9:10 a -8.8 -8.8 -8.8 --- --- 4.3 NE 0.07 5.2 -13.1 --- --- 719.6 0.019 0.000 9.3 5 1
02/18/06 9:11 a -8.8 -8.8 -8.8 --- --- 3.5 NE 0.06 5.2 -12.3 --- --- 719.7 0.019 0.000 9.3 5 1
02/18/06 9:12 a -8.8 -8.8 -8.8 --- --- 4.3 NE 0.07 4.3 -13.1 --- --- 719.7 0.019 0.000 9.3 5 1
02/18/06 9:13 a -8.8 -8.8 -8.8 --- --- 3.5 NE 0.06 4.3 -12.3 --- --- 719.6 0.019 0.000 9.3 5 1
02/18/06 9:14 a -8.7 -8.7 -8.8 --- --- 3.5 NE 0.06 4.3 -12.3 --- --- 719.7 0.019 0.000 9.3 5 1
02/18/06 9:15 a -8.7 -8.7 -8.7 --- --- 3.5 NE 0.06 4.3 -12.3 --- --- 719.7 0.019 0.000 9.2 5 1
02/18/06 9:16 a -8.7 -8.7 -8.7 --- --- 3.5 NE 0.06 4.3 -12.2 --- --- 719.6 0.019 0.000 9.2 5 1
02/18/06 9:17 a -8.7 -8.7 -8.7 --- --- 4.3 NE 0.07 5.2 -12.9 --- --- 719.5 0.019 0.000 9.2 5 1
02/18/06 9:18 a -8.7 -8.7 -8.7 --- --- 3.5 NE 0.06 4.3 -12.2 --- --- 719.6 0.019 0.000 9.2 5 1
02/18/06 9:19 a -8.7 -8.7 -8.7 --- --- 3.5 NE 0.06 3.5 -12.2 --- --- 719.6 0.019 0.000 9.2 5 1
02/18/06 9:20 a -8.7 -8.7 -8.7 --- --- 2.6 NE 0.04 2.6 -11.3 --- --- 719.6 0.019 0.000 9.2 5 1
02/18/06 9:21 a -8.6 -8.6 -8.7 --- --- 2.6 NE 0.04 3.5 -11.2 --- --- 719.6 0.019 0.000 9.2 5 1
02/18/06 9:22 a -8.6 -8.6 -8.6 --- --- 1.7 NE 0.03 3.5 -10.1 --- --- 719.6 0.019 0.000 9.2 5 1
02/18/06 9:23 a -8.6 -8.6 -8.6 --- --- 0.9 NE 0.01 1.7 -8.6 --- --- 719.6 0.019 0.000 9.2 5 1
02/18/06 9:24 a -8.6 -8.5 -8.6 --- --- 0.9 NE 0.01 2.6 -8.6 --- --- 719.6 0.019 0.000 9.2 5 1
02/18/06 9:25 a -8.5 -8.4 -8.5 --- --- 2.6 NE 0.04 2.6 -11.1 --- --- 719.6 0.019 0.000 9.2 5 1
02/18/06 9:26 a -8.4 -8.4 -8.4 --- --- 2.6 NE 0.04 2.6 -11.1 --- --- 719.6 0.019 0.000 9.2 5 1
02/18/06 9:27 a -8.4 -8.3 -8.4 --- --- 2.6 NE 0.04 2.6 -11.0 --- --- 719.6 0.019 0.000 9.1 5 1
02/18/06 9:28 a -8.3 -8.3 -8.3 --- --- 1.7 NE 0.03 2.6 -9.7 --- --- 719.6 0.019 0.000 9.1 5 1
02/18/06 9:29 a -8.3 -8.3 -8.3 --- --- 1.7 NE 0.03 3.5 -9.7 --- --- 719.6 0.018 0.000 9.1 5 1
02/18/06 9:30 a -8.3 -8.3 -8.3 --- --- 2.6 NE 0.04 2.6 -10.8 --- --- 719.6 0.018 0.000 9.1 5 1
02/18/06 9:31 a -8.2 -8.2 -8.3 --- --- 1.7 NE 0.03 3.5 -9.6 --- --- 719.5 0.018 0.000 9.1 5 1
02/18/06 9:32 a -8.2 -8.2 -8.2 --- --- 0.9 NE 0.01 2.6 -8.2 --- --- 719.5 0.018 0.000 9.1 5 1
02/18/06 9:33 a -8.2 -8.2 -8.2 --- --- 0.0 NE 0.00 0.9 -8.2 --- --- 719.5 0.018 0.000 9.1 5 1
02/18/06 9:34 a -8.2 -8.2 -8.2 --- --- 0.0 --- 0.00 0.0 -8.2 --- --- 719.5 0.018 0.000 9.1 5 1
02/18/06 9:35 a -8.1 -8.1 -8.2 --- --- 0.0 --- 0.00 0.0 -8.1 --- --- 719.6 0.018 0.000 9.1 5 1
02/18/06 9:36 a -8.1 -8.1 -8.1 --- --- 0.0 --- 0.00 0.0 -8.1 --- --- 719.5 0.018 0.000 9.1 5 1
02/18/06 9:37 a -8.1 -8.1 -8.1 --- --- 0.0 --- 0.00 0.0 -8.1 --- --- 719.6 0.018 0.000 9.1 5 1
02/18/06 9:38 a -8.0 -8.0 -8.1 --- --- 0.0 --- 0.00 0.0 -8.0 --- --- 719.6 0.018 0.000 9.1 5 1
02/18/06 9:39 a -8.0 -8.0 -8.0 --- --- 0.0 --- 0.00 0.0 -8.0 --- --- 719.5 0.018 0.000 9.1 5 1
02/18/06 9:40 a -8.0 -8.0 -8.0 --- --- 0.0 --- 0.00 0.0 -8.0 --- --- 719.5 0.018 0.000 9.1 5 1
02/18/06 9:41 a -8.0 -8.0 -8.1 --- --- 0.0 --- 0.00 0.0 -8.0 --- --- 719.5 0.018 0.000 9.0 5 1
02/18/06 9:42 a -8.1 -8.1 -8.1 --- --- 0.0 --- 0.00 0.0 -8.1 --- --- 719.5 0.018 0.000 9.0 5 1
02/18/06 9:43 a -8.1 -8.1 -8.1 --- --- 0.0 --- 0.00 0.0 -8.1 --- --- 719.5 0.018 0.000 9.0 5 1
02/18/06 9:44 a -8.1 -8.1 -8.1 --- --- 0.0 --- 0.00 0.0 -8.1 --- --- 719.5 0.018 0.000 9.0 5 1
02/18/06 9:45 a -8.1 -8.1 -8.1 --- --- 0.0 --- 0.00 0.0 -8.1 --- --- 719.5 0.018 0.000 9.0 5 1
02/18/06 9:46 a -8.1 -8.1 -8.1 --- --- 0.0 --- 0.00 0.0 -8.1 --- --- 719.5 0.018 0.000 9.0 5 1
02/18/06 9:47 a -8.1 -8.1 -8.1 --- --- 0.0 --- 0.00 0.0 -8.1 --- --- 719.6 0.018 0.000 8.9 5 1
02/18/06 9:48 a -8.1 -8.1 -8.1 --- --- 0.0 --- 0.00 0.0 -8.1 --- --- 719.6 0.018 0.000 8.9 5 1
02/18/06 9:49 a -8.1 -8.1 -8.1 --- --- 0.0 --- 0.00 0.0 -8.1 --- --- 719.5 0.018 0.000 8.9 5 1
02/18/06 9:50 a -8.1 -8.0 -8.1 --- --- 0.0 NE 0.00 0.9 -8.1 --- --- 719.4 0.018 0.000 8.9 5 1
02/18/06 9:51 a -8.0 -8.0 -8.0 --- --- 0.0 NE 0.00 0.9 -8.0 --- --- 719.4 0.018 0.000 8.9 5 1
02/18/06 9:52 a -8.0 -7.9 -8.0 --- --- 0.9 NE 0.01 0.9 -8.0 --- --- 719.5 0.018 0.000 8.9 5 1
02/18/06 9:53 a -7.9 -7.9 -7.9 --- --- 0.0 NE 0.00 0.9 -7.9 --- --- 719.4 0.018 0.000 8.9 5 1
02/18/06 9:54 a -7.9 -7.9 -7.9 --- --- 0.9 NE 0.01 1.7 -7.9 --- --- 719.4 0.018 0.000 8.9 5 1
02/18/06 9:55 a -7.9 -7.9 -7.9 --- --- 1.7 NE 0.03 2.6 -9.3 --- --- 719.4 0.018 0.000 8.9 5 1
02/18/06 9:56 a -7.9 -7.9 -7.9 --- --- 1.7 NE 0.03 1.7 -9.3 --- --- 719.3 0.018 0.000 8.9 5 1
02/18/06 9:57 a -8.0 -8.0 -8.0 --- --- 1.7 NE 0.03 2.6 -9.4 --- --- 719.4 0.018 0.000 8.9 5 1
02/18/06 9:58 a -8.0 -8.0 -8.0 --- --- 1.7 NE 0.03 2.6 -9.4 --- --- 719.4 0.018 0.000 8.9 5 1
02/18/06 9:59 a -8.1 -8.1 -8.1 --- --- 1.7 NE 0.03 2.6 -9.4 --- --- 719.3 0.018 0.000 8.9 5 1
02/18/06 10:00 a -8.1 -8.1 -8.1 --- --- 1.7 NE 0.03 2.6 -9.4 --- --- 719.4 0.018 0.000 8.9 5 1
02/18/06 10:01 a -8.1 -8.1 -8.1 --- --- 1.7 NE 0.03 2.6 -9.5 --- --- 719.4 0.018 0.000 8.9 5 1
02/18/06 10:02 a -8.1 -8.1 -8.2 --- --- 1.7 NE 0.03 2.6 -9.5 --- --- 719.3 0.018 0.000 8.9 5 1
02/18/06 10:03 a -8.2 -8.2 -8.2 --- --- 1.7 NE 0.03 2.6 -9.6 --- --- 719.3 0.018 0.000 8.9 5 1
02/18/06 10:04 a -8.2 -8.2 -8.2 --- --- 1.7 NE 0.03 2.6 -9.6 --- --- 719.4 0.018 0.000 8.9 5 1
02/18/06 10:05 a -8.2 -8.2 -8.2 --- --- 2.6 NE 0.04 2.6 -10.8 --- --- 719.4 0.018 0.000 8.9 5 1
02/18/06 10:07 a -8.3 -8.3 -8.3 --- --- 2.6 NE 0.04 2.6 -10.8 --- --- 719.4 0.018 0.000 8.8 5 1
02/18/06 10:08 a -8.2 -8.2 -8.2 --- --- 1.7 NE 0.03 2.6 -9.6 --- --- 719.4 0.018 0.000 8.8 5 1
02/18/06 10:09 a -8.2 -8.2 -8.3 --- --- 0.9 NE 0.01 1.7 -8.2 --- --- 719.3 0.018 0.000 8.8 5 1
02/18/06 10:10 a -8.3 -8.2 -8.3 --- --- 0.9 NE 0.01 0.9 -8.3 --- --- 719.3 0.018 0.000 8.8 5 1
02/18/06 10:11 a -8.2 -8.2 -8.3 --- --- 0.0 NE 0.00 0.9 -8.2 --- --- 719.3 0.018 0.000 8.8 5 1
02/18/06 10:12 a -8.2 -8.2 -8.2 --- --- 0.9 NE 0.01 0.9 -8.2 --- --- 719.3 0.018 0.000 8.8 5 1
02/18/06 10:13 a -8.2 -8.2 -8.2 --- --- 0.0 NE 0.00 0.9 -8.2 --- --- 719.3 0.018 0.000 8.8 5 1
02/18/06 10:14 a -8.2 -8.2 -8.2 --- --- 0.0 NE 0.00 0.9 -8.2 --- --- 719.3 0.018 0.000 8.8 5 1
02/18/06 10:15 a -8.2 -8.2 -8.3 --- --- 0.0 --- 0.00 0.0 -8.2 --- --- 719.4 0.018 0.000 8.8 5 1
02/18/06 10:16 a -8.2 -8.2 -8.2 --- --- 0.9 NE 0.01 0.9 -8.2 --- --- 719.2 0.018 0.000 8.8 5 1
02/18/06 10:17 a -8.2 -8.2 -8.3 --- --- 0.0 NE 0.00 0.9 -8.2 --- --- 719.3 0.018 0.000 8.8 5 1
02/18/06 10:18 a -8.3 -8.3 -8.3 --- --- 0.0 NE 0.00 0.9 -8.3 --- --- 719.3 0.018 0.000 8.8 5 1
02/18/06 10:19 a -8.3 -8.3 -8.3 --- --- 0.0 NE 0.00 0.9 -8.3 --- --- 719.3 0.018 0.000 8.8 5 1
02/18/06 10:20 a -8.3 -8.3 -8.3 --- --- 0.0 NE 0.00 0.9 -8.3 --- --- 719.3 0.018 0.000 8.8 5 1
02/18/06 10:21 a -8.2 -8.2 -8.3 --- --- 1.7 NE 0.03 2.6 -9.6 --- --- 719.3 0.018 0.000 8.8 5 1
02/18/06 10:22 a -8.2 -8.2 -8.2 --- --- 0.9 NE 0.01 2.6 -8.2 --- --- 719.3 0.018 0.000 8.8 5 1
02/18/06 10:23 a -8.2 -8.2 -8.2 --- --- 1.7 NE 0.03 2.6 -9.6 --- --- 719.3 0.018 0.000 8.8 5 1
02/18/06 10:24 a -8.2 -8.2 -8.2 --- --- 2.6 NE 0.04 2.6 -10.7 --- --- 719.2 0.018 0.000 8.8 5 1
02/18/06 10:25 a -8.2 -8.2 -8.2 --- --- 2.6 NE 0.04 3.5 -10.8 --- --- 719.3 0.018 0.000 8.8 5 1
02/18/06 10:26 a -8.2 -8.2 -8.2 --- --- 1.7 NE 0.03 2.6 -9.6 --- --- 719.2 0.018 0.000 8.8 5 1
02/18/06 10:27 a -8.2 -8.2 -8.2 --- --- 1.7 NE 0.03 2.6 -9.6 --- --- 719.2 0.018 0.000 8.8 5 1
02/18/06 10:28 a -8.2 -8.2 -8.2 --- --- 1.7 NE 0.03 2.6 -9.6 --- --- 719.3 0.018 0.000 8.8 5 1
02/18/06 10:29 a -8.2 -8.2 -8.2 --- --- 2.6 NE 0.04 2.6 -10.7 --- --- 719.2 0.018 0.000 8.7 5 1
02/18/06 10:30 a -8.2 -8.2 -8.2 --- --- 2.6 NE 0.04 2.6 -10.7 --- --- 719.2 0.018 0.000 8.7 5 1
02/18/06 10:31 a -8.2 -8.2 -8.2 --- --- 1.7 NE 0.03 2.6 -9.6 --- --- 719.1 0.018 0.000 8.7 5 1
02/18/06 10:32 a -8.1 -8.1 -8.2 --- --- 1.7 NE 0.03 2.6 -9.5 --- --- 719.2 0.018 0.000 8.7 5 1
02/18/06 10:33 a -8.1 -8.1 -8.1 --- --- 1.7 NE 0.03 2.6 -9.5 --- --- 719.1 0.018 0.000 8.7 5 1
02/18/06 10:34 a -8.1 -8.1 -8.1 --- --- 1.7 NE 0.03 2.6 -9.5 --- --- 719.2 0.018 0.000 8.7 5 1
02/18/06 10:35 a -8.1 -8.1 -8.1 --- --- 1.7 NE 0.03 2.6 -9.5 --- --- 719.1 0.018 0.000 8.7 5 1
02/18/06 10:36 a -8.1 -8.1 -8.1 --- --- 1.7 NE 0.03 2.6 -9.5 --- --- 719.2 0.018 0.000 8.7 5 1
02/18/06 10:37 a -8.1 -8.1 -8.1 --- --- 0.9 NE 0.01 1.7 -8.1 --- --- 719.2 0.018 0.000 8.7 5 1
02/18/06 10:38 a -8.1 -8.1 -8.1 --- --- 0.9 NE 0.01 0.9 -8.1 --- --- 719.1 0.018 0.000 8.7 5 1
02/18/06 10:39 a -8.1 -8.1 -8.1 --- --- 0.9 NE 0.01 1.7 -8.1 --- --- 719.2 0.018 0.000 8.7 5 1
02/18/06 10:40 a -8.1 -8.0 -8.1 --- --- 0.9 NE 0.01 0.9 -8.1 --- --- 719.2 0.018 0.000 8.7 5 1
02/18/06 10:41 a -8.0 -8.0 -8.0 --- --- 0.0 NE 0.00 0.9 -8.0 --- --- 719.1 0.018 0.000 8.7 5 1
02/18/06 10:42 a -8.0 -8.0 -8.0 --- --- 0.0 --- 0.00 0.0 -8.0 --- --- 719.1 0.018 0.000 8.7 5 1
02/18/06 10:43 a -8.0 -8.0 -8.0 --- --- 0.9 NE 0.01 1.7 -8.0 --- --- 719.2 0.018 0.000 8.7 5 1
02/18/06 10:44 a -8.0 -8.0 -8.0 --- --- 0.9 NE 0.01 1.7 -8.0 --- --- 719.2 0.018 0.000 8.7 5 1
02/18/06 10:45 a -8.0 -7.9 -8.0 --- --- 1.7 NE 0.03 1.7 -9.4 --- --- 719.1 0.018 0.000 8.7 5 1
02/18/06 10:46 a -8.0 -8.0 -8.0 --- --- 1.7 NE 0.03 1.7 -9.4 --- --- 719.1 0.018 0.000 8.7 5 1
02/18/06 10:47 a -8.0 -8.0 -8.0 --- --- 1.7 NE 0.03 1.7 -9.4 --- --- 719.1 0.018 0.000 8.7 5 1
02/18/06 10:48 a -8.0 -8.0 -8.1 --- --- 1.7 NE 0.03 1.7 -9.4 --- --- 719.1 0.018 0.000 8.7 5 1
02/18/06 10:49 a -8.0 -8.0 -8.1 --- --- 0.9 NE 0.01 2.6 -8.0 --- --- 719.1 0.018 0.000 8.7 5 1
02/18/06 10:50 a -8.1 -8.0 -8.1 --- --- 1.7 NE 0.03 2.6 -9.4 --- --- 719.2 0.018 0.000 8.6 5 1
02/18/06 10:51 a -8.1 -8.1 -8.1 --- --- 1.7 NE 0.03 2.6 -9.4 --- --- 719.1 0.018 0.000 8.6 5 1
02/18/06 10:52 a -8.1 -8.1 -8.1 --- --- 1.7 NE 0.03 2.6 -9.4 --- --- 719.2 0.018 0.000 8.6 5 1
02/18/06 10:53 a -8.1 -8.1 -8.1 --- --- 1.7 NE 0.03 2.6 -9.4 --- --- 719.1 0.018 0.000 8.6 5 1
02/18/06 10:54 a -8.1 -8.1 -8.1 --- --- 1.7 NE 0.03 1.7 -9.4 --- --- 719.2 0.018 0.000 8.6 5 1
02/18/06 10:55 a -8.1 -8.1 -8.1 --- --- 1.7 NE 0.03 1.7 -9.4 --- --- 719.2 0.018 0.000 8.6 5 1
02/18/06 10:56 a -8.1 -8.1 -8.1 --- --- 1.7 NE 0.03 1.7 -9.5 --- --- 719.1 0.018 0.000 8.6 5 1
02/18/06 10:57 a -8.1 -8.1 -8.1 --- --- 0.9 NE 0.01 1.7 -8.1 --- --- 719.2 0.018 0.000 8.6 5 1
02/18/06 10:58 a -8.1 -8.1 -8.1 --- --- 0.9 NE 0.01 1.7 -8.1 --- --- 719.1 0.018 0.000 8.6 5 1
02/18/06 10:59 a -8.1 -8.1 -8.2 --- --- 0.0 --- 0.00 0.9 -8.1 --- --- 719.1 0.018 0.000 8.6 5 1
02/18/06 11:00 a -8.1 -8.1 -8.1 --- --- 0.0 --- 0.00 0.0 -8.1 --- --- 719.0 0.018 0.000 8.6 5 1
02/18/06 11:01 a -8.1 -8.1 -8.2 --- --- 0.0 --- 0.00 0.0 -8.1 --- --- 719.1 0.018 0.000 8.6 5 1
02/18/06 11:02 a -8.1 -8.1 -8.1 --- --- 0.0 --- 0.00 0.0 -8.1 --- --- 719.0 0.018 0.000 8.6 5 1
02/18/06 11:03 a -8.1 -8.1 -8.1 --- --- 0.0 --- 0.00 0.0 -8.1 --- --- 719.0 0.018 0.000 8.6 5 1
02/18/06 11:04 a -8.1 -8.1 -8.1 --- --- 0.0 --- 0.00 0.0 -8.1 --- --- 719.0 0.018 0.000 8.6 5 1
02/18/06 11:05 a -8.1 -8.1 -8.1 --- --- 0.0 --- 0.00 0.0 -8.1 --- --- 719.0 0.018 0.000 8.6 5 1
02/18/06 11:06 a -8.1 -8.1 -8.1 --- --- 0.0 --- 0.00 0.0 -8.1 --- --- 719.0 0.018 0.000 8.6 5 1
02/18/06 11:07 a -8.1 -8.1 -8.1 --- --- 0.0 --- 0.00 0.0 -8.1 --- --- 719.0 0.018 0.000 8.6 5 1
02/18/06 11:08 a -8.1 -8.1 -8.1 --- --- 0.0 --- 0.00 0.0 -8.1 --- --- 719.1 0.018 0.000 8.6 5 1
02/18/06 11:09 a -8.1 -8.1 -8.1 --- --- 0.0 --- 0.00 0.0 -8.1 --- --- 719.1 0.018 0.000 8.6 5 1
02/18/06 11:10 a -8.1 -8.1 -8.1 --- --- 0.0 --- 0.00 0.0 -8.1 --- --- 719.0 0.018 0.000 8.6 5 1
02/18/06 11:11 a -8.1 -8.1 -8.1 --- --- 0.0 --- 0.00 0.0 -8.1 --- --- 719.1 0.018 0.000 8.6 5 1
02/18/06 11:12 a -8.1 -8.1 -8.1 --- --- 0.0 --- 0.00 0.0 -8.1 --- --- 719.0 0.018 0.000 8.6 5 1
02/18/06 11:13 a -8.1 -8.1 -8.1 --- --- 0.0 --- 0.00 0.0 -8.1 --- --- 719.0 0.018 0.000 8.6 5 1
02/18/06 11:14 a -8.1 -8.0 -8.1 --- --- 0.0 --- 0.00 0.0 -8.1 --- --- 719.1 0.018 0.000 8.6 5 1
02/18/06 11:15 a -8.1 -8.0 -8.1 --- --- 0.0 --- 0.00 0.0 -8.1 --- --- 719.0 0.018 0.000 8.6 5 1
02/18/06 11:16 a -8.1 -8.0 -8.1 --- --- 0.0 NE 0.00 0.9 -8.1 --- --- 719.0 0.018 0.000 8.6 5 1
02/18/06 11:17 a -8.0 -8.0 -8.1 --- --- 0.0 --- 0.00 0.0 -8.0 --- --- 719.0 0.018 0.000 8.6 5 1
02/18/06 11:18 a -8.1 -8.1 -8.1 --- --- 0.0 --- 0.00 0.0 -8.1 --- --- 719.0 0.018 0.000 8.6 5 1
02/18/06 11:19 a -8.1 -8.0 -8.1 --- --- 0.0 --- 0.00 0.0 -8.1 --- --- 719.0 0.018 0.000 8.6 5 1
02/18/06 11:20 a -8.1 -8.1 -8.1 --- --- 0.0 --- 0.00 0.0 -8.1 --- --- 719.0 0.018 0.000 8.6 5 1
02/18/06 11:21 a -8.1 -8.1 -8.1 --- --- 0.0 --- 0.00 0.0 -8.1 --- --- 719.0 0.018 0.000 8.6 5 1
02/18/06 11:22 a -8.1 -8.1 -8.1 --- --- 0.0 --- 0.00 0.0 -8.1 --- --- 718.9 0.018 0.000 8.6 5 1
02/18/06 11:23 a -8.1 -8.1 -8.1 --- --- 0.0 --- 0.00 0.0 -8.1 --- --- 719.0 0.018 0.000 8.6 5 1
02/18/06 11:24 a -8.1 -8.1 -8.1 --- --- 0.9 NE 0.01 1.7 -8.1 --- --- 718.9 0.018 0.000 8.5 5 1
02/18/06 11:25 a -8.1 -8.1 -8.1 --- --- 1.7 NE 0.03 1.7 -9.5 --- --- 718.9 0.018 0.000 8.5 5 1
02/18/06 11:26 a -8.1 -8.1 -8.1 --- --- 0.9 NE 0.01 1.7 -8.1 --- --- 718.9 0.018 0.000 8.5 5 1
02/18/06 11:27 a -8.1 -8.1 -8.1 --- --- 0.0 NE 0.00 0.9 -8.1 --- --- 719.0 0.018 0.000 8.5 5 1
02/18/06 11:28 a -8.1 -8.1 -8.1 --- --- 0.0 --- 0.00 0.0 -8.1 --- --- 718.9 0.018 0.000 8.5 5 1
02/18/06 11:29 a -8.1 -8.1 -8.1 --- --- 0.0 --- 0.00 0.9 -8.1 --- --- 718.9 0.018 0.000 8.5 5 1
02/18/06 11:30 a -8.1 -8.1 -8.1 --- --- 0.0 --- 0.00 0.0 -8.1 --- --- 718.9 0.018 0.000 8.5 5 1
02/18/06 11:31 a -8.1 -8.1 -8.2 --- --- 0.0 --- 0.00 0.0 -8.1 --- --- 718.9 0.018 0.000 8.5 5 1
02/18/06 11:32 a -8.2 -8.1 -8.2 --- --- 0.9 NE 0.01 1.7 -8.2 --- --- 718.9 0.018 0.000 8.5 5 1
02/18/06 11:33 a -8.2 -8.1 -8.2 --- --- 0.0 NE 0.00 0.9 -8.2 --- --- 718.9 0.018 0.000 8.5 5 1
02/18/06 11:34 a -8.2 -8.2 -8.2 --- --- 0.0 --- 0.00 0.0 -8.2 --- --- 719.0 0.018 0.000 8.5 5 1
02/18/06 11:35 a -8.2 -8.2 -8.2 --- --- 0.0 --- 0.00 0.0 -8.2 --- --- 718.9 0.018 0.000 8.5 5 1
02/18/06 11:36 a -8.2 -8.2 -8.2 --- --- 0.0 --- 0.00 0.0 -8.2 --- --- 718.9 0.018 0.000 8.5 5 1
02/18/06 11:37 a -8.2 -8.2 -8.2 --- --- 0.0 NE 0.00 0.9 -8.2 --- --- 718.9 0.018 0.000 8.5 5 1
02/18/06 11:38 a -8.2 -8.2 -8.2 --- --- 0.9 NE 0.01 0.9 -8.2 --- --- 718.9 0.018 0.000 8.5 5 1
02/18/06 11:39 a -8.2 -8.2 -8.2 --- --- 0.0 --- 0.00 0.0 -8.2 --- --- 718.9 0.018 0.000 8.5 5 1
02/18/06 11:40 a -8.2 -8.2 -8.2 --- --- 0.0 --- 0.00 0.0 -8.2 --- --- 718.8 0.018 0.000 8.5 5 1
02/18/06 11:41 a -8.2 -8.2 -8.2 --- --- 0.0 --- 0.00 0.0 -8.2 --- --- 718.8 0.018 0.000 8.4 5 1
02/18/06 11:42 a -8.2 -8.2 -8.2 --- --- 0.0 --- 0.00 0.0 -8.2 --- --- 718.8 0.018 0.000 8.4 5 1
02/18/06 11:43 a -8.2 -8.2 -8.2 --- --- 0.0 --- 0.00 0.0 -8.2 --- --- 718.9 0.018 0.000 8.4 5 1
02/18/06 11:44 a -8.2 -8.2 -8.2 --- --- 0.9 NE 0.01 0.9 -8.2 --- --- 718.9 0.018 0.000 8.4 5 1
02/18/06 11:45 a -8.2 -8.2 -8.2 --- --- 0.9 NE 0.01 0.9 -8.2 --- --- 718.8 0.018 0.000 8.4 5 1
02/18/06 11:46 a -8.2 -8.2 -8.2 --- --- 0.9 NE 0.01 0.9 -8.2 --- --- 718.8 0.018 0.000 8.4 4 1
02/18/06 11:47 a -8.2 -8.2 -8.2 --- --- 0.0 NE 0.00 1.7 -8.2 --- --- 718.8 0.018 0.000 8.4 5 1
02/18/06 11:48 a -8.2 -8.2 -8.2 --- --- 0.9 NE 0.01 0.9 -8.2 --- --- 718.8 0.018 0.000 8.4 5 1
02/18/06 11:49 a -8.2 -8.2 -8.2 --- --- 0.9 NE 0.01 0.9 -8.2 --- --- 718.8 0.018 0.000 8.4 5 1
02/18/06 11:50 a -8.2 -8.2 -8.2 --- --- 0.9 NE 0.01 0.9 -8.2 --- --- 718.8 0.018 0.000 8.4 5 1
02/18/06 11:51 a -8.2 -8.2 -8.2 --- --- 0.0 NE 0.00 0.9 -8.2 --- --- 718.8 0.018 0.000 8.4 5 1
02/18/06 11:52 a -8.3 -8.2 -8.3 --- --- 0.0 --- 0.00 0.9 -8.3 --- --- 718.8 0.018 0.000 8.4 5 1
02/18/06 11:53 a -8.3 -8.3 -8.3 --- --- 0.9 NE 0.01 1.7 -8.3 --- --- 718.8 0.018 0.000 8.4 5 1
02/18/06 11:54 a -8.2 -8.2 -8.2 --- --- 0.0 NE 0.00 0.9 -8.2 --- --- 718.8 0.018 0.000 8.4 5 1
02/18/06 11:55 a -8.2 -8.2 -8.2 --- --- 0.0 --- 0.00 0.0 -8.2 --- --- 718.8 0.018 0.000 8.4 5 1
02/18/06 11:56 a -8.3 -8.3 -8.3 --- --- 0.0 --- 0.00 0.0 -8.3 --- --- 718.8 0.018 0.000 8.4 5 1
02/18/06 11:57 a -8.2 -8.2 -8.3 --- --- 0.0 NE 0.00 0.9 -8.2 --- --- 718.8 0.018 0.000 8.4 5 1
02/18/06 11:58 a -8.2 -8.2 -8.2 --- --- 0.0 NE 0.00 0.9 -8.2 --- --- 718.7 0.018 0.000 8.4 5 1
02/18/06 11:59 a -8.2 -8.2 -8.2 --- --- 0.9 NE 0.01 1.7 -8.2 --- --- 718.7 0.018 0.000 8.4 5 1
02/18/06 12:00 p -8.2 -8.2 -8.3 --- --- 0.0 NE 0.00 0.9 -8.2 --- --- 718.8 0.018 0.000 8.4 4 1
02/18/06 12:01 p -8.3 -8.3 -8.3 --- --- 0.0 NE 0.00 0.9 -8.3 --- --- 718.7 0.018 0.000 8.5 5 1
02/18/06 12:02 p -8.3 -8.3 -8.3 --- --- 0.0 --- 0.00 0.0 -8.3 --- --- 718.7 0.018 0.000 8.5 4 1
02/18/06 12:03 p -8.3 -8.3 -8.3 --- --- 0.0 --- 0.00 0.0 -8.3 --- --- 718.7 0.018 0.000 8.5 5 1
02/18/06 12:04 p -8.3 -8.3 -8.3 --- --- 0.9 NE 0.01 1.7 -8.3 --- --- 718.7 0.019 0.000 8.5 5 1
02/18/06 12:05 p -8.3 -8.3 -8.3 --- --- 0.9 NE 0.01 0.9 -8.3 --- --- 718.6 0.019 0.000 8.5 5 1
02/18/06 12:06 p -8.3 -8.3 -8.3 --- --- 0.9 NE 0.01 1.7 -8.3 --- --- 718.7 0.019 0.000 8.5 5 1
02/18/06 12:07 p -8.4 -8.3 -8.4 --- --- 1.7 NE 0.03 1.7 -9.8 --- --- 718.7 0.019 0.000 8.6 4 1
02/18/06 12:08 p -8.4 -8.4 -8.4 --- --- 0.9 NE 0.01 1.7 -8.4 --- --- 718.7 0.019 0.000 8.6 5 1
02/18/06 12:09 p -8.4 -8.4 -8.5 --- --- 0.0 NE 0.00 0.9 -8.4 --- --- 718.7 0.019 0.000 8.6 4 1
02/18/06 12:10 p -8.5 -8.5 -8.5 --- --- 0.0 NE 0.00 0.9 -8.5 --- --- 718.7 0.019 0.000 8.6 5 1
02/18/06 12:11 p -8.5 -8.5 -8.5 --- --- 1.7 NE 0.03 2.6 -9.9 --- --- 718.6 0.019 0.000 8.6 4 1
02/18/06 12:12 p -8.5 -8.5 -8.5 --- --- 1.7 NE 0.03 2.6 -9.9 --- --- 718.6 0.019 0.000 8.6 5 1
02/18/06 12:13 p -8.5 -8.5 -8.5 --- --- 1.7 NE 0.03 2.6 -9.9 --- --- 718.7 0.019 0.000 8.6 4 1
02/18/06 12:14 p -8.5 -8.5 -8.5 --- --- 1.7 NE 0.03 2.6 -9.9 --- --- 718.6 0.019 0.000 8.5 5 1
02/18/06 12:15 p -8.5 -8.5 -8.6 --- --- 1.7 NE 0.03 2.6 -9.9 --- --- 718.5 0.019 0.000 8.5 4 1
02/18/06 12:16 p -8.6 -8.5 -8.6 --- --- 2.6 NE 0.04 2.6 -11.2 --- --- 718.6 0.019 0.000 8.5 5 1
02/18/06 12:17 p -8.6 -8.5 -8.6 --- --- 2.6 NE 0.04 3.5 -11.2 --- --- 718.6 0.019 0.000 8.5 4 1
02/18/06 12:18 p -8.6 -8.6 -8.6 --- --- 2.6 NE 0.04 3.5 -11.2 --- --- 718.5 0.019 0.000 8.5 5 1
02/18/06 12:19 p -8.6 -8.6 -8.6 --- --- 2.6 NE 0.04 3.5 -11.2 --- --- 718.6 0.019 0.000 8.5 5 1
02/18/06 12:20 p -8.6 -8.6 -8.6 --- --- 3.5 NE 0.06 3.5 -12.1 --- --- 718.6 0.019 0.000 8.5 5 1
02/18/06 12:21 p -8.6 -8.6 -8.6 --- --- 2.6 NE 0.04 3.5 -11.2 --- --- 718.6 0.019 0.000 8.4 4 1
02/18/06 12:22 p -8.6 -8.6 -8.6 --- --- 2.6 NE 0.04 3.5 -11.2 --- --- 718.6 0.019 0.000 8.4 5 1
02/18/06 12:23 p -8.6 -8.6 -8.6 --- --- 3.5 NE 0.06 4.3 -12.1 --- --- 718.6 0.019 0.000 8.4 5 1
02/18/06 12:24 p -8.6 -8.6 -8.6 --- --- 2.6 NE 0.04 3.5 -11.2 --- --- 718.5 0.019 0.000 8.4 5 1
02/18/06 12:25 p -8.6 -8.6 -8.6 --- --- 3.5 NE 0.06 3.5 -12.1 --- --- 718.6 0.019 0.000 8.4 5 1
02/18/06 12:26 p -8.7 -8.6 -8.7 --- --- 3.5 NE 0.06 3.5 -12.2 --- --- 718.5 0.019 0.000 8.4 5 1
02/18/06 12:27 p -8.7 -8.7 -8.7 --- --- 2.6 NE 0.04 3.5 -11.3 --- --- 718.6 0.019 0.000 8.4 5 1
02/18/06 12:28 p -8.7 -8.7 -8.7 --- --- 3.5 NE 0.06 3.5 -12.2 --- --- 718.6 0.019 0.000 8.4 5 1
02/18/06 12:29 p -8.7 -8.7 -8.7 --- --- 2.6 NE 0.04 3.5 -11.3 --- --- 718.5 0.019 0.000 8.4 5 1
02/18/06 12:30 p -8.7 -8.7 -8.7 --- --- 2.6 NE 0.04 2.6 -11.3 --- --- 718.6 0.019 0.000 8.4 5 1
02/18/06 12:31 p -8.7 -8.7 -8.7 --- --- 2.6 NE 0.04 3.5 -11.3 --- --- 718.5 0.019 0.000 8.4 5 1
02/18/06 12:32 p -8.7 -8.7 -8.7 --- --- 2.6 NE 0.04 3.5 -11.3 --- --- 718.6 0.019 0.000 8.4 5 1
02/18/06 12:33 p -8.7 -8.7 -8.7 --- --- 2.6 NE 0.04 3.5 -11.3 --- --- 718.6 0.019 0.000 8.4 5 1
02/18/06 12:34 p -8.7 -8.7 -8.7 --- --- 2.6 NE 0.04 3.5 -11.3 --- --- 718.5 0.019 0.000 8.4 4 1
02/18/06 12:35 p -8.7 -8.7 -8.7 --- --- 3.5 NE 0.06 3.5 -12.3 --- --- 718.5 0.019 0.000 8.4 5 1
02/18/06 12:36 p -8.7 -8.7 -8.8 --- --- 2.6 NE 0.04 3.5 -11.3 --- --- 718.5 0.019 0.000 8.4 5 1
02/18/06 12:37 p -8.8 -8.8 -8.8 --- --- 2.6 NE 0.04 4.3 -11.4 --- --- 718.5 0.019 0.000 8.4 5 1
02/18/06 12:38 p -8.8 -8.8 -8.8 --- --- 3.5 NNE 0.06 4.3 -12.3 --- --- 718.5 0.019 0.000 8.4 5 1
02/18/06 12:39 p -8.8 -8.8 -8.8 --- --- 3.5 NNE 0.06 4.3 -12.3 --- --- 718.6 0.019 0.000 8.4 4 1
02/18/06 12:40 p -8.8 -8.8 -8.8 --- --- 3.5 NNW 0.06 4.3 -12.3 --- --- 718.5 0.019 0.000 8.4 5 1
02/18/06 12:41 p -8.8 -8.8 -8.8 --- --- 2.6 NNW 0.04 3.5 -11.4 --- --- 718.4 0.019 0.000 8.4 5 1
02/18/06 12:42 p -8.8 -8.8 -8.8 --- --- 3.5 NNW 0.06 4.3 -12.3 --- --- 718.5 0.019 0.000 8.4 5 1
02/18/06 12:43 p -8.8 -8.8 -8.8 --- --- 4.3 NNW 0.07 5.2 -13.1 --- --- 718.5 0.019 0.000 8.4 5 1
02/18/06 12:44 p -8.8 -8.8 -8.8 --- --- 3.5 NNW 0.06 4.3 -12.4 --- --- 718.5 0.019 0.000 8.4 5 1
02/18/06 12:45 p -8.8 -8.8 -8.8 --- --- 3.5 NNW 0.06 5.2 -12.4 --- --- 718.5 0.019 0.000 8.4 5 1
02/18/06 12:46 p -8.8 -8.8 -8.8 --- --- 3.5 NNW 0.06 4.3 -12.4 --- --- 718.5 0.019 0.000 8.4 5 1
02/18/06 12:47 p -8.8 -8.8 -8.8 --- --- 4.3 NNW 0.07 5.2 -13.1 --- --- 718.5 0.019 0.000 8.4 5 1
02/18/06 12:48 p -8.8 -8.8 -8.8 --- --- 4.3 NNW 0.07 5.2 -13.1 --- --- 718.4 0.019 0.000 8.4 5 1
02/18/06 12:49 p -8.8 -8.8 -8.8 --- --- 3.5 NNW 0.06 5.2 -12.4 --- --- 718.4 0.019 0.000 8.4 5 1
02/18/06 12:50 p -8.8 -8.8 -8.8 --- --- 3.5 NNW 0.06 4.3 -12.4 --- --- 718.4 0.019 0.000 8.4 5 1
02/18/06 12:51 p -8.8 -8.8 -8.8 --- --- 4.3 NNW 0.07 5.2 -13.1 --- --- 718.4 0.019 0.000 8.4 5 1
02/18/06 12:52 p -8.8 -8.8 -8.8 --- --- 4.3 NNW 0.07 5.2 -13.1 --- --- 718.4 0.019 0.000 8.4 5 1
02/18/06 12:53 p -8.8 -8.8 -8.8 --- --- 4.3 NNW 0.07 5.2 -13.1 --- --- 718.4 0.019 0.000 8.4 5 1
02/18/06 12:54 p -8.8 -8.8 -8.8 --- --- 5.2 NNW 0.09 5.2 -13.7 --- --- 718.4 0.019 0.000 8.4 5 1
02/18/06 12:55 p -8.8 -8.8 -8.8 --- --- 4.3 NNW 0.07 5.2 -13.1 --- --- 718.4 0.019 0.000 8.4 5 1
02/18/06 12:56 p -8.8 -8.8 -8.8 --- --- 5.2 NNW 0.09 5.2 -13.7 --- --- 718.4 0.019 0.000 8.4 5 1
02/18/06 12:57 p -8.9 -8.8 -8.9 --- --- 5.2 NNW 0.09 6.1 -13.8 --- --- 718.4 0.019 0.000 8.3 5 1
02/18/06 12:58 p -8.9 -8.9 -8.9 --- --- 5.2 NNW 0.09 6.1 -13.8 --- --- 718.3 0.019 0.000 8.3 4 1
02/18/06 12:59 p -8.9 -8.9 -8.9 --- --- 5.2 NNW 0.09 7.0 -13.8 --- --- 718.3 0.019 0.000 8.4 5 1
02/18/06 1:00 p -8.9 -8.9 -8.9 --- --- 5.2 NNW 0.09 7.0 -13.8 --- --- 718.2 0.019 0.000 8.4 5 1
02/18/06 1:01 p -8.9 -8.9 -8.9 --- --- 5.2 NNW 0.09 6.1 -13.8 --- --- 718.3 0.019 0.000 8.4 5 1
02/18/06 1:02 p -8.9 -8.9 -8.9 --- --- 5.2 NNW 0.09 7.0 -13.8 --- --- 718.3 0.019 0.000 8.4 5 1
02/18/06 1:03 p -8.9 -8.9 -8.9 --- --- 5.2 NNW 0.09 6.1 -13.8 --- --- 718.3 0.019 0.000 8.4 5 1
02/18/06 1:04 p -8.9 -8.9 -8.9 --- --- 5.2 NNW 0.09 6.1 -13.8 --- --- 718.3 0.019 0.000 8.4 5 1
02/18/06 1:05 p -8.9 -8.9 -8.9 --- --- 5.2 NNW 0.09 6.1 -13.8 --- --- 718.2 0.019 0.000 8.4 5 1
02/18/06 1:06 p -8.9 -8.9 -8.9 --- --- 5.2 NNW 0.09 6.1 -13.8 --- --- 718.2 0.019 0.000 8.4 5 1
02/18/06 1:07 p -8.9 -8.9 -8.9 --- --- 5.2 NNW 0.09 6.1 -13.8 --- --- 718.2 0.019 0.000 8.4 5 1
02/18/06 1:08 p -8.9 -8.9 -8.9 --- --- 4.3 NNW 0.07 6.1 -13.2 --- --- 718.2 0.019 0.000 8.4 5 1
02/18/06 1:09 p -8.9 -8.9 -8.9 --- --- 4.3 NNW 0.07 5.2 -13.2 --- --- 718.2 0.019 0.000 8.5 5 1
02/18/06 1:10 p -8.9 -8.9 -8.9 --- --- 5.2 NNW 0.09 6.1 -13.8 --- --- 718.2 0.019 0.000 8.5 5 1
02/18/06 1:11 p -8.9 -8.9 -9.0 --- --- 5.2 NNW 0.09 5.2 -13.8 --- --- 718.2 0.019 0.000 8.5 5 1
02/18/06 1:12 p -9.0 -8.9 -9.0 --- --- 5.2 NNW 0.09 6.1 -13.9 --- --- 718.1 0.019 0.000 8.5 5 1
02/18/06 1:13 p -9.0 -9.0 -9.0 --- --- 5.2 NNW 0.09 6.1 -13.9 --- --- 718.2 0.019 0.000 8.5 5 1
02/18/06 1:14 p -9.0 -9.0 -9.0 --- --- 5.2 NNW 0.09 6.1 -13.9 --- --- 718.2 0.019 0.000 8.6 5 1
02/18/06 1:15 p -9.0 -9.0 -9.0 --- --- 5.2 NNW 0.09 6.1 -13.9 --- --- 718.2 0.019 0.000 8.6 4 1
02/18/06 1:16 p -9.1 -9.0 -9.1 --- --- 4.3 NNW 0.07 5.2 -13.4 --- --- 718.2 0.019 0.000 8.6 5 1
02/18/06 1:17 p -9.1 -9.1 -9.1 --- --- 5.2 NNW 0.09 5.2 -14.0 --- --- 718.1 0.019 0.000 8.6 5 1
02/18/06 1:18 p -9.1 -9.1 -9.1 --- --- 5.2 NNW 0.09 6.1 -14.0 --- --- 718.1 0.019 0.000 8.6 5 1
02/18/06 1:19 p -9.1 -9.1 -9.1 --- --- 5.2 NNW 0.09 6.1 -14.0 --- --- 718.1 0.019 0.000 8.6 4 1
02/18/06 1:20 p -9.1 -9.1 -9.1 --- --- 5.2 NNW 0.09 6.1 -14.0 --- --- 718.2 0.019 0.000 8.6 5 1
02/18/06 1:21 p -9.1 -9.1 -9.1 --- --- 5.2 NNW 0.09 6.1 -14.1 --- --- 718.1 0.019 0.000 8.6 5 1
02/18/06 1:22 p -9.1 -9.1 -9.1 --- --- 5.2 NNW 0.09 5.2 -14.1 --- --- 718.1 0.019 0.000 8.6 5 1
02/18/06 1:23 p -9.1 -9.1 -9.1 --- --- 4.3 NNW 0.07 5.2 -13.4 --- --- 718.1 0.019 0.000 8.6 5 1
02/18/06 1:24 p -9.1 -9.1 -9.1 --- --- 4.3 NNW 0.07 5.2 -13.4 --- --- 718.1 0.019 0.000 8.7 5 1
02/18/06 1:25 p -9.1 -9.1 -9.1 --- --- 4.3 NNW 0.07 5.2 -13.4 --- --- 718.1 0.019 0.000 8.7 5 1
02/18/06 1:26 p -9.1 -9.1 -9.2 --- --- 5.2 NNW 0.09 5.2 -14.1 --- --- 718.1 0.019 0.000 8.7 5 1
02/18/06 1:27 p -9.1 -9.1 -9.2 --- --- 4.3 NNW 0.07 5.2 -13.4 --- --- 718.1 0.019 0.000 8.7 5 1
02/18/06 1:28 p -9.1 -9.1 -9.2 --- --- 4.3 NNW 0.07 4.3 -13.4 --- --- 718.1 0.019 0.000 8.7 5 1
02/18/06 1:29 p -9.1 -9.1 -9.1 --- --- 4.3 NNW 0.07 5.2 -13.4 --- --- 718.1 0.019 0.000 8.7 5 1
02/18/06 1:30 p -9.1 -9.1 -9.1 --- --- 4.3 NNW 0.07 5.2 -13.4 --- --- 718.1 0.019 0.000 8.7 5 1
02/18/06 1:31 p -9.1 -9.1 -9.1 --- --- 5.2 NNW 0.09 5.2 -14.1 --- --- 718.1 0.019 0.000 8.8 4 1
02/18/06 1:32 p -9.1 -9.1 -9.2 --- --- 4.3 NNW 0.07 5.2 -13.4 --- --- 718.0 0.019 0.000 8.8 5 1
02/18/06 1:33 p -9.1 -9.1 -9.1 --- --- 4.3 NNW 0.07 5.2 -13.4 --- --- 718.1 0.019 0.000 8.8 5 1
02/18/06 1:34 p -9.2 -9.1 -9.2 --- --- 4.3 NNW 0.07 5.2 -13.5 --- --- 718.1 0.019 0.000 8.8 5 1
02/18/06 1:35 p -9.2 -9.2 -9.2 --- --- 4.3 NNW 0.07 5.2 -13.5 --- --- 718.1 0.019 0.000 8.8 5 1
02/18/06 1:36 p -9.2 -9.2 -9.2 --- --- 4.3 NNW 0.07 5.2 -13.5 --- --- 718.1 0.019 0.000 8.8 5 1
02/18/06 1:37 p -9.2 -9.2 -9.2 --- --- 4.3 NNW 0.07 6.1 -13.5 --- --- 718.0 0.019 0.000 8.8 5 1
02/18/06 1:38 p -9.2 -9.2 -9.2 --- --- 4.3 NNW 0.07 5.2 -13.6 --- --- 718.1 0.019 0.000 8.9 5 1
02/18/06 1:39 p -9.2 -9.2 -9.2 --- --- 4.3 NNW 0.07 5.2 -13.6 --- --- 718.1 0.019 0.000 8.9 5 1
02/18/06 1:40 p -9.2 -9.2 -9.2 --- --- 4.3 NNW 0.07 5.2 -13.6 --- --- 718.1 0.019 0.000 8.9 5 1
02/18/06 1:41 p -9.2 -9.2 -9.2 --- --- 4.3 NNW 0.07 5.2 -13.6 --- --- 718.0 0.019 0.000 8.9 5 1
02/18/06 1:42 p -9.2 -9.2 -9.2 --- --- 4.3 NNW 0.07 5.2 -13.6 --- --- 718.1 0.019 0.000 8.9 5 1
02/18/06 1:43 p -9.2 -9.2 -9.2 --- --- 4.3 NNW 0.07 5.2 -13.6 --- --- 718.0 0.019 0.000 8.9 5 1
02/18/06 1:44 p -9.2 -9.2 -9.2 --- --- 4.3 NNW 0.07 5.2 -13.6 --- --- 718.0 0.019 0.000 8.9 5 1
02/18/06 1:45 p -9.2 -9.2 -9.2 --- --- 4.3 NNW 0.07 5.2 -13.6 --- --- 718.0 0.019 0.000 8.9 5 1
02/18/06 1:46 p -9.2 -9.2 -9.2 --- --- 5.2 NNW 0.09 6.1 -14.1 --- --- 718.0 0.019 0.000 9.0 5 1
02/18/06 1:47 p -9.2 -9.2 -9.2 --- --- 5.2 NNW 0.09 6.1 -14.2 --- --- 718.0 0.019 0.000 9.0 5 1
02/18/06 1:48 p -9.2 -9.2 -9.2 --- --- 4.3 NNW 0.07 5.2 -13.6 --- --- 718.0 0.019 0.000 9.0 5 1
02/18/06 1:49 p -9.2 -9.2 -9.2 --- --- 5.2 NNW 0.09 7.0 -14.2 --- --- 718.0 0.019 0.000 9.0 5 1
02/18/06 1:50 p -9.2 -9.2 -9.2 --- --- 6.1 NNW 0.10 7.0 -14.7 --- --- 718.0 0.019 0.000 9.1 4 1
02/18/06 1:51 p -9.2 -9.2 -9.2 --- --- 6.1 NNW 0.10 7.0 -14.7 --- --- 718.0 0.019 0.000 9.1 5 1
02/18/06 1:52 p -9.2 -9.2 -9.2 --- --- 6.1 NNW 0.10 7.0 -14.7 --- --- 718.0 0.019 0.000 9.1 5 1
02/18/06 1:53 p -9.2 -9.2 -9.2 --- --- 5.2 NNW 0.09 6.1 -14.2 --- --- 718.0 0.019 0.000 9.1 5 1
02/18/06 1:54 p -9.2 -9.2 -9.2 --- --- 5.2 NNW 0.09 6.1 -14.2 --- --- 718.0 0.019 0.000 9.1 5 1
02/18/06 1:55 p -9.2 -9.2 -9.2 --- --- 4.3 NNW 0.07 5.2 -13.6 --- --- 717.9 0.019 0.000 9.1 5 1
02/18/06 1:56 p -9.2 -9.2 -9.2 --- --- 4.3 NNW 0.07 5.2 -13.6 --- --- 718.0 0.019 0.000 9.1 5 1
02/18/06 1:57 p -9.2 -9.2 -9.2 --- --- 3.5 N 0.06 4.3 -12.8 --- --- 717.9 0.019 0.000 9.1 5 1
02/18/06 1:58 p -9.3 -9.2 -9.3 --- --- 4.3 N 0.07 5.2 -13.6 --- --- 717.9 0.019 0.000 9.1 5 1
02/18/06 1:59 p -9.3 -9.3 -9.3 --- --- 4.3 N 0.07 6.1 -13.6 --- --- 717.9 0.019 0.000 9.1 5 1
02/18/06 2:00 p -9.3 -9.2 -9.3 --- --- 5.2 N 0.09 6.1 -14.3 --- --- 717.9 0.019 0.000 9.1 5 1
02/18/06 2:01 p -9.3 -9.3 -9.3 --- --- 5.2 N 0.09 7.0 -14.3 --- --- 717.8 0.019 0.000 9.1 5 1
02/18/06 2:02 p -9.3 -9.3 -9.3 --- --- 6.1 N 0.10 7.0 -14.8 --- --- 717.9 0.019 0.000 9.1 5 1
02/18/06 2:03 p -9.3 -9.3 -9.3 --- --- 5.2 N 0.09 6.1 -14.3 --- --- 718.0 0.019 0.000 9.2 5 1
02/18/06 2:04 p -9.3 -9.3 -9.3 --- --- 5.2 N 0.09 6.1 -14.3 --- --- 717.9 0.019 0.000 9.1 5 1
02/18/06 2:05 p -9.3 -9.3 -9.3 --- --- 6.1 N 0.10 7.0 -14.8 --- --- 717.9 0.019 0.000 9.1 5 1
02/18/06 2:06 p -9.3 -9.3 -9.3 --- --- 7.0 N 0.12 7.8 -15.3 --- --- 717.9 0.019 0.000 9.2 5 1
02/18/06 2:07 p -9.3 -9.3 -9.3 --- --- 6.1 N 0.10 7.0 -14.8 --- --- 717.9 0.019 0.000 9.2 5 1
02/18/06 2:08 p -9.3 -9.3 -9.3 --- --- 6.1 N 0.10 7.8 -14.8 --- --- 717.8 0.019 0.000 9.2 5 1
02/18/06 2:09 p -9.3 -9.3 -9.3 --- --- 6.1 N 0.10 7.0 -14.8 --- --- 717.9 0.019 0.000 9.2 5 1
02/18/06 2:10 p -9.3 -9.3 -9.3 --- --- 6.1 N 0.10 7.0 -14.8 --- --- 717.8 0.019 0.000 9.2 5 1
02/18/06 2:11 p -9.3 -9.3 -9.3 --- --- 5.2 N 0.09 5.2 -14.3 --- --- 717.8 0.019 0.000 9.2 5 1
02/18/06 2:12 p -9.3 -9.3 -9.3 --- --- 5.2 N 0.09 6.1 -14.3 --- --- 717.9 0.019 0.000 9.2 5 1
02/18/06 2:13 p -9.3 -9.3 -9.4 --- --- 5.2 N 0.09 6.1 -14.3 --- --- 717.9 0.019 0.000 9.2 5 1
02/18/06 2:14 p -9.3 -9.3 -9.4 --- --- 5.2 N 0.09 6.1 -14.3 --- --- 717.8 0.019 0.000 9.2 5 1
02/18/06 2:15 p -9.3 -9.3 -9.3 --- --- 5.2 N 0.09 6.1 -14.3 --- --- 717.8 0.019 0.000 9.2 5 1
02/18/06 2:16 p -9.3 -9.3 -9.3 --- --- 4.3 N 0.07 5.2 -13.7 --- --- 717.9 0.019 0.000 9.2 5 1
02/18/06 2:17 p -9.3 -9.3 -9.3 --- --- 4.3 N 0.07 5.2 -13.7 --- --- 717.8 0.019 0.000 9.2 5 1
02/18/06 2:18 p -9.3 -9.3 -9.3 --- --- 5.2 N 0.09 6.1 -14.3 --- --- 717.8 0.019 0.000 9.2 5 1
02/18/06 2:19 p -9.3 -9.3 -9.3 --- --- 5.2 N 0.09 6.1 -14.3 --- --- 717.9 0.019 0.000 9.2 5 1
02/18/06 2:20 p -9.3 -9.3 -9.3 --- --- 5.2 N 0.09 6.1 -14.3 --- --- 717.9 0.019 0.000 9.2 5 1
02/18/06 2:21 p -9.3 -9.3 -9.3 --- --- 5.2 N 0.09 7.0 -14.3 --- --- 717.8 0.019 0.000 9.2 5 1
02/18/06 2:22 p -9.3 -9.2 -9.3 --- --- 6.1 N 0.10 7.0 -14.8 --- --- 717.8 0.019 0.000 9.2 4 1
02/18/06 2:23 p -9.2 -9.2 -9.2 --- --- 7.0 N 0.12 7.8 -15.2 --- --- 717.8 0.019 0.000 9.2 5 1
02/18/06 2:24 p -9.3 -9.2 -9.3 --- --- 6.1 N 0.10 7.8 -14.8 --- --- 717.8 0.019 0.000 9.2 5 1
02/18/06 2:25 p -9.3 -9.3 -9.3 --- --- 6.1 N 0.10 7.8 -14.8 --- --- 717.8 0.019 0.000 9.2 5 1
02/18/06 2:26 p -9.3 -9.3 -9.3 --- --- 6.1 N 0.10 7.8 -14.8 --- --- 717.9 0.019 0.000 9.2 4 1
02/18/06 2:27 p -9.3 -9.3 -9.3 --- --- 7.8 N 0.13 9.6 -15.7 --- --- 717.8 0.019 0.000 9.2 5 1
02/18/06 2:28 p -9.3 -9.3 -9.3 --- --- 8.7 N 0.14 9.6 -16.1 --- --- 717.8 0.019 0.000 9.2 4 1
02/18/06 2:29 p -9.3 -9.3 -9.3 --- --- 7.8 N 0.13 8.7 -15.8 --- --- 717.7 0.019 0.000 9.2 5 1
02/18/06 2:30 p -9.3 -9.3 -9.3 --- --- 7.0 N 0.12 8.7 -15.3 --- --- 717.8 0.019 0.000 9.2 5 1
02/18/06 2:31 p -9.3 -9.3 -9.3 --- --- 7.0 N 0.12 7.8 -15.3 --- --- 717.8 0.019 0.000 9.2 5 1
02/18/06 2:32 p -9.3 -9.3 -9.4 --- --- 7.0 N 0.12 9.6 -15.3 --- --- 717.8 0.019 0.000 9.2 5 1
02/18/06 2:33 p -9.4 -9.4 -9.4 --- --- 8.7 N 0.14 9.6 -16.2 --- --- 717.8 0.019 0.000 9.2 5 1
02/18/06 2:34 p -9.4 -9.4 -9.4 --- --- 7.0 N 0.12 9.6 -15.4 --- --- 717.8 0.019 0.000 9.3 5 1
02/18/06 2:35 p -9.4 -9.4 -9.4 --- --- 6.1 N 0.10 7.8 -14.9 --- --- 717.8 0.019 0.000 9.3 5 1
02/18/06 2:36 p -9.4 -9.4 -9.4 --- --- 7.0 N 0.12 8.7 -15.4 --- --- 717.8 0.019 0.000 9.3 5 1
02/18/06 2:37 p -9.4 -9.4 -9.4 --- --- 7.0 N 0.12 8.7 -15.4 --- --- 717.8 0.019 0.000 9.3 5 1
02/18/06 2:38 p -9.4 -9.4 -9.4 --- --- 7.0 N 0.12 9.6 -15.4 --- --- 717.9 0.019 0.000 9.3 5 1
02/18/06 2:39 p -9.4 -9.4 -9.4 --- --- 8.7 N 0.14 10.4 -16.3 --- --- 717.9 0.019 0.000 9.3 4 1
02/18/06 2:40 p -9.4 -9.4 -9.4 --- --- 8.7 N 0.14 11.3 -16.3 --- --- 717.9 0.019 0.000 9.3 5 1
02/18/06 2:41 p -9.4 -9.4 -9.5 --- --- 8.7 N 0.14 10.4 -16.3 --- --- 717.8 0.019 0.000 9.3 5 1
02/18/06 2:42 p -9.5 -9.4 -9.5 --- --- 7.8 N 0.13 9.6 -16.0 --- --- 717.8 0.019 0.000 9.3 5 1
02/18/06 2:43 p -9.5 -9.5 -9.5 --- --- 7.8 N 0.13 9.6 -16.0 --- --- 717.8 0.019 0.000 9.3 5 1
02/18/06 2:44 p -9.5 -9.5 -9.6 --- --- 9.6 N 0.16 12.2 -16.7 --- --- 717.8 0.019 0.000 9.3 5 1
02/18/06 2:45 p -9.6 -9.6 -9.6 --- --- 9.6 N 0.16 10.4 -16.8 --- --- 717.8 0.019 0.000 9.3 5 1
02/18/06 2:46 p -9.6 -9.6 -9.6 --- --- 9.6 N 0.16 10.4 -16.8 --- --- 717.8 0.019 0.000 9.3 5 1
02/18/06 2:47 p -9.6 -9.6 -9.6 --- --- 8.7 N 0.14 10.4 -16.5 --- --- 717.8 0.019 0.000 9.3 5 1
02/18/06 2:48 p -9.6 -9.6 -9.6 --- --- 7.8 N 0.13 10.4 -16.1 --- --- 717.8 0.019 0.000 9.3 5 1
02/18/06 2:49 p -9.6 -9.6 -9.6 --- --- 7.8 N 0.13 10.4 -16.1 --- --- 717.9 0.019 0.000 9.3 5 1
02/18/06 2:50 p -9.6 -9.5 -9.6 --- --- 7.8 N 0.13 8.7 -16.1 --- --- 717.9 0.019 0.000 9.3 5 1
02/18/06 2:51 p -9.5 -9.5 -9.5 --- --- 7.0 N 0.12 8.7 -15.6 --- --- 717.9 0.019 0.000 9.3 5 1
02/18/06 2:52 p -9.5 -9.5 -9.6 --- --- 7.8 N 0.13 9.6 -16.0 --- --- 717.8 0.019 0.000 9.3 5 1
02/18/06 2:53 p -9.5 -9.5 -9.5 --- --- 7.0 N 0.12 7.8 -15.6 --- --- 717.9 0.019 0.000 9.3 5 1
02/18/06 2:54 p -9.4 -9.4 -9.5 --- --- 6.1 N 0.10 7.8 -15.0 --- --- 717.9 0.019 0.000 9.3 5 1
02/18/06 2:55 p -9.4 -9.4 -9.5 --- --- 6.1 N 0.10 7.8 -15.0 --- --- 717.9 0.019 0.000 9.3 5 1
02/18/06 2:56 p -9.4 -9.4 -9.4 --- --- 7.8 N 0.13 10.4 -15.9 --- --- 717.8 0.019 0.000 9.3 5 1
02/18/06 2:57 p -9.4 -9.4 -9.4 --- --- 6.1 N 0.10 7.0 -15.0 --- --- 717.7 0.019 0.000 9.3 5 1
02/18/06 2:58 p -9.4 -9.4 -9.4 --- --- 7.0 N 0.12 7.8 -15.4 --- --- 717.8 0.019 0.000 9.3 5 1
02/18/06 2:59 p -9.4 -9.4 -9.4 --- --- 6.1 N 0.10 7.0 -15.0 --- --- 717.8 0.019 0.000 9.3 5 1
02/18/06 3:00 p -9.4 -9.4 -9.4 --- --- 6.1 N 0.10 7.0 -14.9 --- --- 717.9 0.019 0.000 9.3 5 1
02/18/06 3:01 p -9.4 -9.4 -9.4 --- --- 6.1 N 0.10 7.8 -14.9 --- --- 717.7 0.019 0.000 9.3 5 1
02/18/06 3:02 p -9.4 -9.4 -9.4 --- --- 7.0 N 0.12 7.8 -15.4 --- --- 717.9 0.019 0.000 9.2 5 1
02/18/06 3:03 p -9.4 -9.4 -9.4 --- --- 6.1 N 0.10 7.8 -15.0 --- --- 717.8 0.019 0.000 9.2 5 1
02/18/06 3:04 p -9.4 -9.4 -9.5 --- --- 7.0 N 0.12 9.6 -15.5 --- --- 717.9 0.019 0.000 9.2 5 1
02/18/06 3:05 p -9.4 -9.4 -9.4 --- --- 7.0 N 0.12 8.7 -15.5 --- --- 717.9 0.019 0.000 9.2 5 1
02/18/06 3:06 p -9.4 -9.4 -9.4 --- --- 6.1 N 0.10 7.8 -15.0 --- --- 717.8 0.019 0.000 9.2 5 1
02/18/06 3:07 p -9.4 -9.4 -9.4 --- --- 6.1 N 0.10 7.0 -15.0 --- --- 717.9 0.019 0.000 9.2 5 1
02/18/06 3:08 p -9.4 -9.4 -9.4 --- --- 6.1 N 0.10 7.0 -15.0 --- --- 717.8 0.019 0.000 9.2 5 1
02/18/06 3:09 p -9.4 -9.4 -9.4 --- --- 7.0 N 0.12 9.6 -15.5 --- --- 717.9 0.019 0.000 9.2 5 1
02/18/06 3:10 p -9.4 -9.4 -9.4 --- --- 6.1 N 0.10 7.8 -14.9 --- --- 717.9 0.019 0.000 9.2 5 1
02/18/06 3:11 p -9.4 -9.3 -9.4 --- --- 6.1 N 0.10 7.8 -14.9 --- --- 717.9 0.019 0.000 9.2 5 1
02/18/06 3:12 p -9.3 -9.3 -9.3 --- --- 6.1 N 0.10 7.0 -14.8 --- --- 717.9 0.019 0.000 9.2 5 1
02/18/06 3:13 p -9.3 -9.3 -9.3 --- --- 7.0 N 0.12 7.8 -15.3 --- --- 717.8 0.019 0.000 9.2 5 1
02/18/06 3:14 p -9.3 -9.2 -9.3 --- --- 6.1 N 0.10 7.8 -14.8 --- --- 717.8 0.019 0.000 9.2 5 1
02/18/06 3:15 p -9.2 -9.2 -9.2 --- --- 6.1 N 0.10 7.0 -14.7 --- --- 717.8 0.019 0.000 9.2 5 1
02/18/06 3:16 p -9.2 -9.2 -9.2 --- --- 6.1 N 0.10 7.0 -14.7 --- --- 717.7 0.019 0.000 9.2 5 1
02/18/06 3:17 p -9.2 -9.1 -9.2 --- --- 6.1 N 0.10 7.0 -14.7 --- --- 717.8 0.019 0.000 9.1 5 1
02/18/06 3:18 p -9.1 -9.1 -9.1 --- --- 6.1 N 0.10 7.8 -14.6 --- --- 717.8 0.019 0.000 9.1 5 1
02/18/06 3:19 p -9.1 -9.1 -9.1 --- --- 6.1 N 0.10 7.8 -14.6 --- --- 717.7 0.019 0.000 9.1 5 1
02/18/06 3:20 p -9.1 -9.1 -9.1 --- --- 6.1 N 0.10 7.0 -14.5 --- --- 717.8 0.019 0.000 9.1 5 1
02/18/06 3:21 p -9.1 -9.1 -9.1 --- --- 6.1 N 0.10 7.0 -14.6 --- --- 717.7 0.019 0.000 9.1 5 1
02/18/06 3:22 p -9.1 -9.1 -9.1 --- --- 6.1 N 0.10 6.1 -14.6 --- --- 717.8 0.019 0.000 9.1 5 1
02/18/06 3:23 p -9.1 -9.1 -9.1 --- --- 6.1 N 0.10 7.8 -14.6 --- --- 717.8 0.019 0.000 9.1 5 1
02/18/06 3:24 p -9.1 -9.1 -9.1 --- --- 7.0 N 0.12 7.8 -15.1 --- --- 717.9 0.019 0.000 9.1 5 1
02/18/06 3:25 p -9.1 -9.1 -9.1 --- --- 7.8 N 0.13 9.6 -15.4 --- --- 717.8 0.019 0.000 9.1 5 1
02/18/06 3:26 p -9.1 -9.1 -9.1 --- --- 6.1 N 0.10 7.0 -14.5 --- --- 717.9 0.019 0.000 9.1 5 1
02/18/06 3:27 p -9.1 -9.0 -9.1 --- --- 6.1 N 0.10 7.0 -14.5 --- --- 717.8 0.019 0.000 9.1 5 1
02/18/06 3:28 p -9.0 -9.0 -9.0 --- --- 7.0 N 0.12 7.8 -14.9 --- --- 717.8 0.019 0.000 9.1 5 1
02/18/06 3:29 p -9.0 -9.0 -9.0 --- --- 7.0 N 0.12 9.6 -14.9 --- --- 717.8 0.019 0.000 9.1 5 1
02/18/06 3:30 p -9.0 -9.0 -9.0 --- --- 9.6 NNW 0.16 11.3 -16.1 --- --- 717.9 0.019 0.000 9.1 5 1
02/18/06 3:31 p -9.0 -9.0 -9.0 --- --- 8.7 NNW 0.14 10.4 -15.8 --- --- 717.8 0.019 0.000 9.1 5 1
02/18/06 3:32 p -9.0 -9.0 -9.0 --- --- 7.0 N 0.12 8.7 -14.9 --- --- 717.8 0.019 0.000 9.1 5 1
02/18/06 3:33 p -9.0 -8.9 -9.0 --- --- 7.8 N 0.13 9.6 -15.4 --- --- 717.8 0.019 0.000 9.1 5 1
02/18/06 3:34 p -9.0 -9.0 -9.0 --- --- 7.0 N 0.12 8.7 -14.9 --- --- 717.7 0.019 0.000 9.1 5 1
02/18/06 3:35 p -9.0 -9.0 -9.0 --- --- 7.8 NNW 0.13 9.6 -15.4 --- --- 717.8 0.019 0.000 9.1 5 1
02/18/06 3:36 p -9.0 -9.0 -9.1 --- --- 7.8 N 0.13 9.6 -15.4 --- --- 717.8 0.019 0.000 9.1 5 1
02/18/06 3:37 p -9.1 -9.0 -9.1 --- --- 7.8 NNW 0.13 11.3 -15.4 --- --- 717.7 0.019 0.000 9.1 5 1
02/18/06 3:38 p -9.0 -9.0 -9.1 --- --- 7.0 N 0.12 8.7 -14.9 --- --- 717.8 0.019 0.000 9.0 5 1
02/18/06 3:39 p -9.0 -9.0 -9.0 --- --- 7.8 N 0.13 12.2 -15.4 --- --- 717.8 0.019 0.000 9.0 5 1
02/18/06 3:40 p -8.9 -8.9 -9.0 --- --- 7.0 N 0.12 8.7 -14.9 --- --- 717.8 0.019 0.000 9.0 5 1
02/18/06 3:41 p -9.0 -9.0 -9.0 --- --- 7.0 N 0.12 8.7 -14.9 --- --- 717.7 0.019 0.000 9.0 5 1
02/18/06 3:42 p -9.0 -9.0 -9.1 --- --- 7.8 N 0.13 8.7 -15.4 --- --- 717.7 0.019 0.000 9.0 5 1
02/18/06 3:43 p -9.1 -9.0 -9.1 --- --- 8.7 N 0.14 10.4 -15.8 --- --- 717.8 0.019 0.000 9.0 5 1
02/18/06 3:44 p -9.0 -9.0 -9.0 --- --- 7.0 N 0.12 7.8 -14.9 --- --- 717.7 0.019 0.000 9.0 5 1
02/18/06 3:45 p -8.9 -8.9 -9.0 --- --- 7.0 N 0.12 10.4 -14.9 --- --- 717.8 0.019 0.000 9.0 5 1
02/18/06 3:46 p -8.9 -8.9 -8.9 --- --- 6.1 N 0.10 7.8 -14.4 --- --- 717.7 0.019 0.000 9.0 5 1
02/18/06 3:47 p -8.9 -8.9 -9.0 --- --- 6.1 N 0.10 7.0 -14.4 --- --- 717.7 0.019 0.000 9.0 5 1
02/18/06 3:48 p -8.9 -8.9 -9.0 --- --- 6.1 N 0.10 7.8 -14.4 --- --- 717.7 0.019 0.000 9.0 5 1
02/18/06 3:49 p -8.9 -8.9 -9.0 --- --- 8.7 NNW 0.14 9.6 -15.7 --- --- 717.8 0.019 0.000 9.0 5 1
02/18/06 3:50 p -8.9 -8.9 -8.9 --- --- 7.0 NNW 0.12 8.7 -14.9 --- --- 717.8 0.019 0.000 9.0 5 1
02/18/06 3:51 p -8.9 -8.9 -8.9 --- --- 7.0 N 0.12 8.7 -14.9 --- --- 717.8 0.019 0.000 8.9 5 1
02/18/06 3:52 p -8.9 -8.9 -8.9 --- --- 7.8 NNW 0.13 9.6 -15.2 --- --- 717.8 0.019 0.000 8.9 5 1
02/18/06 3:53 p -8.9 -8.8 -8.9 --- --- 7.0 NNW 0.12 8.7 -14.8 --- --- 717.7 0.019 0.000 8.9 5 1
02/18/06 3:54 p -8.9 -8.8 -8.9 --- --- 7.8 NNW 0.13 7.8 -15.2 --- --- 717.7 0.019 0.000 8.9 5 1
02/18/06 3:55 p -8.9 -8.9 -8.9 --- --- 7.0 NNW 0.12 7.8 -14.8 --- --- 717.7 0.019 0.000 8.9 5 1
02/18/06 3:56 p -8.9 -8.9 -8.9 --- --- 7.0 NNW 0.12 8.7 -14.8 --- --- 717.7 0.019 0.000 8.9 5 1
02/18/06 3:57 p -8.9 -8.9 -8.9 --- --- 8.7 NNW 0.14 8.7 -15.6 --- --- 717.8 0.019 0.000 8.9 5 1
02/18/06 3:58 p -8.9 -8.9 -8.9 --- --- 8.7 NNW 0.14 9.6 -15.6 --- --- 717.8 0.019 0.000 8.9 5 1
02/18/06 3:59 p -8.9 -8.9 -8.9 --- --- 8.7 NNW 0.14 9.6 -15.6 --- --- 717.8 0.019 0.000 8.9 5 1
02/18/06 4:00 p -8.9 -8.9 -8.9 --- --- 7.8 NNW 0.13 10.4 -15.2 --- --- 717.7 0.019 0.000 8.9 5 1
02/18/06 4:01 p -8.8 -8.8 -8.9 --- --- 7.8 NNW 0.13 10.4 -15.2 --- --- 717.7 0.019 0.000 8.9 5 1
02/18/06 4:02 p -8.8 -8.8 -8.8 --- --- 9.6 NNW 0.16 11.3 -15.9 --- --- 717.6 0.019 0.000 8.9 5 1
02/18/06 4:03 p -8.8 -8.8 -8.8 --- --- 6.1 N 0.10 7.8 -14.2 --- --- 717.7 0.019 0.000 8.9 5 1
02/18/06 4:04 p -8.8 -8.8 -8.8 --- --- 7.0 NNW 0.12 7.8 -14.7 --- --- 717.6 0.019 0.000 8.9 5 1
02/18/06 4:05 p -8.8 -8.8 -8.8 --- --- 6.1 N 0.10 7.8 -14.2 --- --- 717.8 0.019 0.000 8.9 5 1
02/18/06 4:07 p -8.8 -8.8 -8.8 --- --- 6.1 N 0.10 7.8 -14.2 --- --- 717.8 0.019 0.000 8.9 5 1
02/18/06 4:08 p -8.8 -8.8 -8.8 --- --- 6.1 N 0.10 7.8 -14.2 --- --- 717.7 0.019 0.000 8.9 5 1
02/18/06 4:09 p -8.7 -8.7 -8.8 --- --- 7.8 NNW 0.13 10.4 -15.0 --- --- 717.7 0.019 0.000 8.9 5 1
02/18/06 4:10 p -8.7 -8.7 -8.7 --- --- 8.7 NNW 0.14 10.4 -15.4 --- --- 717.7 0.019 0.000 8.9 5 1
02/18/06 4:11 p -8.7 -8.7 -8.7 --- --- 7.0 NNW 0.12 8.7 -14.6 --- --- 717.8 0.019 0.000 8.9 5 1
02/18/06 4:12 p -8.7 -8.7 -8.7 --- --- 7.0 NNW 0.12 8.7 -14.6 --- --- 717.7 0.019 0.000 8.9 5 1
02/18/06 4:13 p -8.7 -8.7 -8.7 --- --- 7.0 NNW 0.12 7.8 -14.6 --- --- 717.8 0.019 0.000 8.9 5 1
02/18/06 4:14 p -8.7 -8.7 -8.7 --- --- 6.1 N 0.10 7.8 -14.1 --- --- 717.7 0.019 0.000 8.9 5 1
02/18/06 4:15 p -8.7 -8.7 -8.8 --- --- 7.8 NNW 0.13 8.7 -15.0 --- --- 717.6 0.019 0.000 8.9 5 1
02/18/06 4:16 p -8.8 -8.8 -8.8 --- --- 7.0 NNW 0.12 7.8 -14.7 --- --- 717.7 0.019 0.000 8.9 5 1
02/18/06 4:17 p -8.8 -8.8 -8.8 --- --- 7.8 NNW 0.13 8.7 -15.1 --- --- 717.8 0.019 0.000 8.9 5 1
02/18/06 4:18 p -8.8 -8.8 -8.8 --- --- 7.8 NNW 0.13 8.7 -15.1 --- --- 717.7 0.019 0.000 8.9 5 1
02/18/06 4:19 p -8.8 -8.8 -8.8 --- --- 7.8 NNW 0.13 9.6 -15.1 --- --- 717.7 0.019 0.000 8.9 5 1
02/18/06 4:20 p -8.8 -8.7 -8.8 --- --- 9.6 NNW 0.16 10.4 -15.8 --- --- 717.7 0.019 0.000 8.9 5 1
02/18/06 4:21 p -8.7 -8.7 -8.7 --- --- 8.7 NNW 0.14 9.6 -15.4 --- --- 717.7 0.019 0.000 8.9 5 1
02/18/06 4:22 p -8.7 -8.7 -8.7 --- --- 7.0 NNW 0.12 8.7 -14.6 --- --- 717.7 0.019 0.000 8.9 5 1
02/18/06 4:23 p -8.7 -8.7 -8.7 --- --- 7.8 N 0.13 10.4 -14.9 --- --- 717.7 0.019 0.000 8.9 5 1
02/18/06 4:24 p -8.7 -8.7 -8.7 --- --- 9.6 NNW 0.16 11.3 -15.7 --- --- 717.7 0.019 0.000 8.8 5 1
02/18/06 4:25 p -8.7 -8.7 -8.7 --- --- 7.8 NNW 0.13 9.6 -14.9 --- --- 717.7 0.019 0.000 8.8 5 1
02/18/06 4:26 p -8.7 -8.7 -8.7 --- --- 9.6 NNW 0.16 10.4 -15.7 --- --- 717.7 0.019 0.000 8.8 5 1
02/18/06 4:27 p -8.7 -8.7 -8.7 --- --- 9.6 NNW 0.16 11.3 -15.7 --- --- 717.6 0.019 0.000 8.8 5 1
02/18/06 4:28 p -8.7 -8.7 -8.7 --- --- 8.7 NNW 0.14 11.3 -15.3 --- --- 717.6 0.019 0.000 8.8 5 1
02/18/06 4:29 p -8.6 -8.6 -8.7 --- --- 7.8 N 0.13 9.6 -14.9 --- --- 717.6 0.019 0.000 8.8 5 1
02/18/06 4:30 p -8.6 -8.6 -8.6 --- --- 9.6 NNW 0.16 11.3 -15.6 --- --- 717.6 0.019 0.000 8.8 5 1
02/18/06 4:31 p -8.6 -8.6 -8.6 --- --- 9.6 NNW 0.16 12.2 -15.6 --- --- 717.6 0.019 0.000 8.8 5 1
02/18/06 4:32 p -8.6 -8.5 -8.6 --- --- 8.7 NNW 0.14 10.4 -15.2 --- --- 717.7 0.019 0.000 8.8 5 1
02/18/06 4:33 p -8.5 -8.5 -8.6 --- --- 9.6 NNW 0.16 11.3 -15.5 --- --- 717.7 0.019 0.000 8.8 5 1
02/18/06 4:34 p -8.6 -8.5 -8.6 --- --- 8.7 NNW 0.14 9.6 -15.2 --- --- 717.7 0.019 0.000 8.8 5 1
02/18/06 4:35 p -8.5 -8.5 -8.5 --- --- 7.8 NNW 0.13 10.4 -14.7 --- --- 717.7 0.019 0.000 8.8 5 1
02/18/06 4:36 p -8.5 -8.4 -8.5 --- --- 7.8 NNW 0.13 10.4 -14.7 --- --- 717.7 0.019 0.000 8.8 5 1
02/18/06 4:37 p -8.4 -8.4 -8.4 --- --- 7.8 NNW 0.13 9.6 -14.7 --- --- 717.7 0.019 0.000 8.8 5 1
02/18/06 4:38 p -8.4 -8.4 -8.4 --- --- 8.7 NNW 0.14 9.6 -15.1 --- --- 717.6 0.019 0.000 8.8 5 1
02/18/06 4:39 p -8.4 -8.4 -8.4 --- --- 7.8 NNW 0.13 10.4 -14.7 --- --- 717.6 0.019 0.000 8.8 5 1
02/18/06 4:40 p -8.4 -8.4 -8.4 --- --- 9.6 NNW 0.16 11.3 -15.4 --- --- 717.7 0.019 0.000 8.8 5 1
02/18/06 4:41 p -8.4 -8.4 -8.4 --- --- 9.6 NNW 0.16 11.3 -15.3 --- --- 717.7 0.019 0.000 8.8 5 1
02/18/06 4:42 p -8.4 -8.4 -8.4 --- --- 8.7 NNW 0.14 10.4 -15.0 --- --- 717.7 0.019 0.000 8.8 5 1
02/18/06 4:43 p -8.4 -8.4 -8.4 --- --- 6.1 NNW 0.10 7.8 -13.7 --- --- 717.7 0.019 0.000 8.8 5 1
02/18/06 4:44 p -8.3 -8.3 -8.4 --- --- 7.8 N 0.13 9.6 -14.6 --- --- 717.7 0.019 0.000 8.8 5 1
02/18/06 4:45 p -8.4 -8.4 -8.4 --- --- 7.8 NNW 0.13 11.3 -14.6 --- --- 717.6 0.019 0.000 8.8 5 1
02/18/06 4:46 p -8.4 -8.4 -8.4 --- --- 9.6 NNW 0.16 11.3 -15.3 --- --- 717.6 0.019 0.000 8.8 5 1
02/18/06 4:47 p -8.4 -8.3 -8.4 --- --- 9.6 NNW 0.16 11.3 -15.3 --- --- 717.6 0.019 0.000 8.8 5 1
02/18/06 4:48 p -8.3 -8.3 -8.3 --- --- 10.4 NNW 0.17 11.3 -15.6 --- --- 717.6 0.019 0.000 8.8 5 1
02/18/06 4:49 p -8.3 -8.3 -8.3 --- --- 8.7 NNW 0.14 9.6 -14.9 --- --- 717.6 0.019 0.000 8.8 5 1
02/18/06 4:50 p -8.3 -8.3 -8.3 --- --- 8.7 NNW 0.14 10.4 -14.9 --- --- 717.5 0.019 0.000 8.8 5 1
02/18/06 4:51 p -8.3 -8.3 -8.3 --- --- 9.6 NNW 0.16 11.3 -15.3 --- --- 717.6 0.019 0.000 8.8 5 1
02/18/06 4:52 p -8.3 -8.3 -8.3 --- --- 9.6 NNW 0.16 11.3 -15.3 --- --- 717.6 0.019 0.000 8.8 5 1
02/18/06 4:53 p -8.3 -8.3 -8.3 --- --- 10.4 NNW 0.17 12.2 -15.6 --- --- 717.7 0.019 0.000 8.8 5 1
02/18/06 4:54 p -8.3 -8.3 -8.3 --- --- 9.6 NNW 0.16 11.3 -15.2 --- --- 717.5 0.018 0.000 8.8 5 1
02/18/06 4:55 p -8.3 -8.3 -8.3 --- --- 8.7 NNW 0.14 11.3 -14.8 --- --- 717.6 0.018 0.000 8.8 5 1
02/18/06 4:56 p -8.3 -8.3 -8.3 --- --- 8.7 NNW 0.14 11.3 -14.8 --- --- 717.6 0.018 0.000 8.8 6 1
02/18/06 4:57 p -8.3 -8.3 -8.3 --- --- 8.7 NNW 0.14 11.3 -14.8 --- --- 717.7 0.018 0.000 8.8 5 1
02/18/06 4:58 p -8.3 -8.2 -8.3 --- --- 9.6 NNW 0.16 12.2 -15.2 --- --- 717.6 0.018 0.000 8.8 5 1
02/18/06 4:59 p -8.2 -8.2 -8.2 --- --- 10.4 NNW 0.17 12.2 -15.4 --- --- 717.7 0.018 0.000 8.8 5 1
02/18/06 5:00 p -8.2 -8.2 -8.2 --- --- 10.4 NNW 0.17 13.0 -15.4 --- --- 717.7 0.018 0.000 8.8 5 1
02/18/06 5:01 p -8.2 -8.1 -8.2 --- --- 9.6 NNW 0.16 11.3 -15.1 --- --- 717.7 0.018 0.000 8.8 5 1
02/18/06 5:02 p -8.1 -8.1 -8.1 --- --- 11.3 NNW 0.19 12.2 -15.6 --- --- 717.6 0.018 0.000 8.8 5 1
02/18/06 5:03 p -8.1 -8.1 -8.1 --- --- 10.4 NNW 0.17 11.3 -15.3 --- --- 717.7 0.018 0.000 8.8 6 1
02/18/06 5:04 p -8.1 -8.1 -8.1 --- --- 11.3 NNW 0.19 12.2 -15.6 --- --- 717.7 0.018 0.000 8.8 5 1
02/18/06 5:05 p -8.1 -8.1 -8.1 --- --- 11.3 NNW 0.19 13.0 -15.6 --- --- 717.7 0.018 0.000 8.8 5 1
02/18/06 5:06 p -8.1 -8.1 -8.1 --- --- 10.4 NNW 0.17 13.0 -15.3 --- --- 717.6 0.018 0.000 8.8 5 1
02/18/06 5:07 p -8.1 -8.1 -8.1 --- --- 8.7 NNW 0.14 10.4 -14.6 --- --- 717.5 0.018 0.000 8.8 5 1
02/18/06 5:08 p -8.1 -8.1 -8.1 --- --- 8.7 NNW 0.14 9.6 -14.6 --- --- 717.6 0.018 0.000 8.8 5 1
02/18/06 5:09 p -8.1 -8.1 -8.1 --- --- 9.6 NNW 0.16 11.3 -14.9 --- --- 717.6 0.018 0.000 8.8 5 1
02/18/06 5:10 p -8.1 -8.1 -8.1 --- --- 9.6 NNW 0.16 11.3 -14.9 --- --- 717.6 0.018 0.000 8.8 5 1
02/18/06 5:11 p -8.1 -8.1 -8.1 --- --- 9.6 NNW 0.16 12.2 -14.9 --- --- 717.6 0.018 0.000 8.8 5 1
02/18/06 5:12 p -8.1 -8.1 -8.1 --- --- 7.0 N 0.12 8.7 -13.8 --- --- 717.7 0.018 0.000 8.8 6 1
02/18/06 5:13 p -8.1 -8.1 -8.1 --- --- 10.4 NNW 0.17 11.3 -15.3 --- --- 717.6 0.018 0.000 8.8 5 1
02/18/06 5:14 p -8.1 -8.1 -8.1 --- --- 9.6 NNW 0.16 12.2 -14.9 --- --- 717.5 0.018 0.000 8.8 6 1
02/18/06 5:15 p -8.1 -8.1 -8.1 --- --- 9.6 NNW 0.16 11.3 -14.9 --- --- 717.6 0.018 0.000 8.8 6 1
02/18/06 5:16 p -8.1 -8.1 -8.1 --- --- 9.6 NNW 0.16 12.2 -14.9 --- --- 717.7 0.018 0.000 8.8 6 1
02/18/06 5:17 p -8.0 -8.0 -8.1 --- --- 7.0 N 0.12 8.7 -13.7 --- --- 717.7 0.018 0.000 8.8 6 1
02/18/06 5:18 p -8.0 -8.0 -8.0 --- --- 7.0 N 0.12 9.6 -13.7 --- --- 717.6 0.018 0.000 8.8 6 1
02/18/06 5:19 p -8.0 -8.0 -8.0 --- --- 8.7 NNW 0.14 10.4 -14.5 --- --- 717.8 0.018 0.000 8.8 5 1
02/18/06 5:20 p -8.0 -8.0 -8.1 --- --- 10.4 NNW 0.17 13.0 -15.2 --- --- 717.7 0.018 0.000 8.8 6 1
02/18/06 5:21 p -8.1 -8.1 -8.1 --- --- 9.6 NNW 0.16 11.3 -14.9 --- --- 717.8 0.018 0.000 8.8 6 1
02/18/06 5:22 p -8.1 -8.1 -8.1 --- --- 8.7 NNW 0.14 10.4 -14.6 --- --- 717.7 0.018 0.000 8.7 6 1
02/18/06 5:23 p -8.1 -8.1 -8.1 --- --- 7.8 NNW 0.13 9.6 -14.2 --- --- 717.7 0.018 0.000 8.8 6 1
02/18/06 5:24 p -8.1 -8.1 -8.1 --- --- 7.8 NNW 0.13 9.6 -14.2 --- --- 717.7 0.018 0.000 8.7 6 1
02/18/06 5:25 p -8.1 -8.1 -8.1 --- --- 9.6 NNW 0.16 10.4 -14.9 --- --- 717.7 0.018 0.000 8.8 6 1
02/18/06 5:26 p -8.1 -8.1 -8.1 --- --- 8.7 NNW 0.14 9.6 -14.7 --- --- 717.7 0.018 0.000 8.7 6 1
02/18/06 5:27 p -8.1 -8.1 -8.1 --- --- 9.6 NNW 0.16 11.3 -15.0 --- --- 717.7 0.018 0.000 8.8 6 1
02/18/06 5:28 p -8.1 -8.1 -8.1 --- --- 9.6 NNW 0.16 12.2 -15.0 --- --- 717.6 0.018 0.000 8.8 6 1
02/18/06 5:29 p -8.1 -8.1 -8.1 --- --- 10.4 NNW 0.17 12.2 -15.3 --- --- 717.6 0.018 0.000 8.7 6 1
02/18/06 5:30 p -8.1 -8.1 -8.1 --- --- 11.3 NNW 0.19 13.9 -15.6 --- --- 717.5 0.018 0.000 8.7 6 1
02/18/06 5:31 p -8.0 -8.0 -8.1 --- --- 10.4 NNW 0.17 12.2 -15.2 --- --- 717.6 0.018 0.000 8.7 6 1
02/18/06 5:32 p -8.0 -8.0 -8.0 --- --- 10.4 NNW 0.17 13.0 -15.2 --- --- 717.6 0.018 0.000 8.8 6 1
02/18/06 5:33 p -8.0 -8.0 -8.0 --- --- 10.4 NNW 0.17 12.2 -15.2 --- --- 717.5 0.018 0.000 8.8 6 1
02/18/06 5:34 p -8.0 -7.9 -8.0 --- --- 10.4 NNW 0.17 13.0 -15.2 --- --- 717.6 0.018 0.000 8.8 6 1
02/18/06 5:35 p -7.9 -7.9 -7.9 --- --- 13.0 NNW 0.22 16.5 -15.9 --- --- 717.6 0.018 0.000 8.8 6 1
02/18/06 5:36 p -7.9 -7.9 -7.9 --- --- 13.0 NW 0.22 15.7 -15.9 --- --- 717.5 0.018 0.000 8.8 6 1
02/18/06 5:37 p -7.9 -7.9 -7.9 --- --- 10.4 NNW 0.17 12.2 -15.1 --- --- 717.5 0.018 0.000 8.7 6 1
02/18/06 5:38 p -7.9 -7.9 -7.9 --- --- 8.7 NNW 0.14 10.4 -14.4 --- --- 717.6 0.018 0.000 8.7 6 1
02/18/06 5:39 p -7.9 -7.9 -7.9 --- --- 9.6 NNW 0.16 13.9 -14.8 --- --- 717.6 0.018 0.000 8.8 6 1
02/18/06 5:40 p -8.0 -7.9 -8.0 --- --- 11.3 NNW 0.19 13.9 -15.5 --- --- 717.5 0.018 0.000 8.7 6 1
02/18/06 5:41 p -8.0 -8.0 -8.0 --- --- 11.3 NNW 0.19 13.9 -15.5 --- --- 717.5 0.018 0.000 8.7 6 1
02/18/06 5:42 p -8.0 -8.0 -8.0 --- --- 11.3 NNW 0.19 13.0 -15.5 --- --- 717.5 0.018 0.000 8.7 6 1
02/18/06 5:43 p -8.0 -8.0 -8.0 --- --- 10.4 NNW 0.17 12.2 -15.2 --- --- 717.5 0.018 0.000 8.7 6 1
02/18/06 5:44 p -8.0 -8.0 -8.1 --- --- 11.3 NNW 0.19 13.0 -15.5 --- --- 717.6 0.018 0.000 8.7 6 1
02/18/06 5:45 p -8.1 -8.1 -8.1 --- --- 9.6 NNW 0.16 11.3 -14.9 --- --- 717.6 0.018 0.000 8.7 6 1
02/18/06 5:46 p -8.1 -8.1 -8.1 --- --- 9.6 NNW 0.16 10.4 -14.9 --- --- 717.6 0.018 0.000 8.7 6 1
02/18/06 5:47 p -8.1 -8.1 -8.1 --- --- 8.7 NNW 0.14 11.3 -14.7 --- --- 717.6 0.018 0.000 8.7 6 1
02/18/06 5:48 p -8.2 -8.1 -8.2 --- --- 9.6 NNW 0.16 11.3 -15.1 --- --- 717.5 0.018 0.000 8.7 6 1
02/18/06 5:49 p -8.2 -8.2 -8.2 --- --- 9.6 NNW 0.16 11.3 -15.1 --- --- 717.6 0.018 0.000 8.7 6 1
02/18/06 5:50 p -8.2 -8.2 -8.2 --- --- 10.4 NW 0.17 11.3 -15.4 --- --- 717.5 0.018 0.000 8.7 6 1
02/18/06 5:51 p -8.2 -8.2 -8.3 --- --- 8.7 NNW 0.14 10.4 -14.8 --- --- 717.6 0.018 0.000 8.7 6 1
02/18/06 5:52 p -8.3 -8.3 -8.3 --- --- 8.7 NNW 0.14 11.3 -14.9 --- --- 717.6 0.019 0.000 8.7 6 1
02/18/06 5:53 p -8.4 -8.3 -8.4 --- --- 10.4 NNW 0.17 13.0 -15.7 --- --- 717.5 0.019 0.000 8.7 6 1
02/18/06 5:54 p -8.4 -8.4 -8.4 --- --- 9.6 NNW 0.16 11.3 -15.3 --- --- 717.5 0.019 0.000 8.7 6 1
02/18/06 5:55 p -8.4 -8.4 -8.4 --- --- 8.7 NW 0.14 10.4 -15.0 --- --- 717.5 0.019 0.000 8.7 6 1
02/18/06 5:56 p -8.4 -8.4 -8.4 --- --- 8.7 NNW 0.14 10.4 -15.0 --- --- 717.6 0.019 0.000 8.7 6 1
02/18/06 5:57 p -8.4 -8.4 -8.4 --- --- 8.7 NNW 0.14 9.6 -15.1 --- --- 717.6 0.019 0.000 8.7 6 1
02/18/06 5:58 p -8.5 -8.5 -8.5 --- --- 7.8 NNW 0.13 10.4 -14.7 --- --- 717.5 0.019 0.000 8.7 6 1
02/18/06 5:59 p -8.5 -8.5 -8.5 --- --- 8.7 NNW 0.14 10.4 -15.1 --- --- 717.7 0.019 0.000 8.7 6 1
02/18/06 6:00 p -8.4 -8.4 -8.4 --- --- 8.7 NNW 0.14 10.4 -15.1 --- --- 717.7 0.019 0.000 8.7 6 1
02/18/06 6:01 p -8.4 -8.4 -8.4 --- --- 8.7 NNW 0.14 10.4 -15.1 --- --- 717.7 0.019 0.000 8.7 6 1
02/18/06 6:02 p -8.4 -8.4 -8.4 --- --- 9.6 NNW 0.16 11.3 -15.4 --- --- 717.6 0.019 0.000 8.7 6 1
02/18/06 6:03 p -8.4 -8.4 -8.4 --- --- 10.4 NNW 0.17 12.2 -15.7 --- --- 717.6 0.019 0.000 8.7 6 1
02/18/06 6:04 p -8.4 -8.4 -8.4 --- --- 10.4 NNW 0.17 11.3 -15.7 --- --- 717.6 0.019 0.000 8.7 6 1
02/18/06 6:05 p -8.4 -8.4 -8.4 --- --- 8.7 NNW 0.14 11.3 -15.1 --- --- 717.7 0.019 0.000 8.7 6 1
02/18/06 6:06 p -8.4 -8.3 -8.4 --- --- 9.6 NNW 0.16 11.3 -15.3 --- --- 717.5 0.019 0.000 8.7 6 1
02/18/06 6:07 p -8.3 -8.3 -8.3 --- --- 8.7 N 0.14 10.4 -14.9 --- --- 717.5 0.019 0.000 8.7 6 1
02/18/06 6:08 p -8.3 -8.3 -8.4 --- --- 10.4 NNW 0.17 13.0 -15.6 --- --- 717.6 0.019 0.000 8.7 6 1
02/18/06 6:09 p -8.3 -8.3 -8.4 --- --- 11.3 NNW 0.19 12.2 -15.9 --- --- 717.6 0.019 0.000 8.7 6 1
02/18/06 6:10 p -8.4 -8.4 -8.4 --- --- 10.4 NNW 0.17 12.2 -15.7 --- --- 717.4 0.019 0.000 8.7 6 1
02/18/06 6:11 p -8.4 -8.4 -8.4 --- --- 11.3 NNW 0.19 12.2 -16.1 --- --- 717.5 0.019 0.000 8.7 6 1
02/18/06 6:12 p -8.4 -8.4 -8.4 --- --- 12.2 NNW 0.20 16.5 -16.3 --- --- 717.5 0.019 0.000 8.7 6 1
02/18/06 6:13 p -8.4 -8.4 -8.4 --- --- 13.0 NNW 0.22 14.8 -16.6 --- --- 717.5 0.019 0.000 8.7 6 1
02/18/06 6:14 p -8.4 -8.4 -8.4 --- --- 14.8 NNW 0.25 16.5 -17.0 --- --- 717.6 0.019 0.000 8.7 6 1
02/18/06 6:15 p -8.3 -8.3 -8.4 --- --- 11.3 NNW 0.19 14.8 -15.9 --- --- 717.5 0.019 0.000 8.7 6 1
02/18/06 6:16 p -8.3 -8.3 -8.3 --- --- 12.2 NNW 0.20 14.8 -16.2 --- --- 717.5 0.019 0.000 8.7 6 1
02/18/06 6:17 p -8.3 -8.3 -8.3 --- --- 12.2 NNW 0.20 14.8 -16.2 --- --- 717.6 0.019 0.000 8.7 6 1
02/18/06 6:18 p -8.3 -8.3 -8.3 --- --- 13.0 NNW 0.22 13.9 -16.4 --- --- 717.6 0.018 0.000 8.7 6 1
02/18/06 6:19 p -8.3 -8.3 -8.3 --- --- 11.3 NNW 0.19 13.0 -15.8 --- --- 717.5 0.018 0.000 8.7 6 1
02/18/06 6:20 p -8.3 -8.3 -8.3 --- --- 13.9 NNW 0.23 15.7 -16.7 --- --- 717.5 0.018 0.000 8.7 6 1
02/18/06 6:21 p -8.3 -8.2 -8.3 --- --- 14.8 NNW 0.25 19.1 -16.9 --- --- 717.5 0.018 0.000 8.7 6 1
02/18/06 6:22 p -8.2 -8.2 -8.2 --- --- 15.7 NNW 0.26 20.9 -17.1 --- --- 717.4 0.018 0.000 8.7 6 1
02/18/06 6:23 p -8.2 -8.1 -8.2 --- --- 16.5 NNW 0.28 19.1 -17.2 --- --- 717.5 0.018 0.000 8.7 6 1
02/18/06 6:24 p -8.1 -8.0 -8.1 --- --- 15.7 NNW 0.26 19.1 -16.8 --- --- 717.6 0.018 0.000 8.7 6 1
02/18/06 6:25 p -8.0 -8.0 -8.0 --- --- 16.5 NNW 0.28 19.1 -16.9 --- --- 717.5 0.018 0.000 8.7 6 1
02/18/06 6:26 p -8.0 -8.0 -8.0 --- --- 16.5 NNW 0.28 20.9 -16.9 --- --- 717.4 0.018 0.000 8.7 6 1
02/18/06 6:27 p -8.0 -8.0 -8.0 --- --- 16.5 NNW 0.28 19.1 -16.9 --- --- 717.5 0.018 0.000 8.7 6 1
02/18/06 6:28 p -8.0 -8.0 -8.0 --- --- 12.2 N 0.20 14.8 -15.8 --- --- 717.5 0.018 0.000 8.7 6 1
02/18/06 6:29 p -8.0 -8.0 -8.0 --- --- 9.6 N 0.16 12.2 -14.8 --- --- 717.4 0.018 0.000 8.7 6 1
02/18/06 6:30 p -8.0 -8.0 -8.0 --- --- 14.8 NNW 0.25 18.3 -16.5 --- --- 717.4 0.018 0.000 8.7 6 1
02/18/06 6:31 p -8.0 -8.0 -8.0 --- --- 15.7 NNW 0.26 18.3 -16.7 --- --- 717.5 0.018 0.000 8.7 6 1
02/18/06 6:32 p -8.0 -8.0 -8.0 --- --- 13.0 NNW 0.22 16.5 -16.1 --- --- 717.4 0.018 0.000 8.7 6 1
02/18/06 6:33 p -8.0 -8.0 -8.1 --- --- 13.9 NNW 0.23 15.7 -16.3 --- --- 717.5 0.018 0.000 8.6 6 1
02/18/06 6:34 p -8.1 -8.1 -8.1 --- --- 13.0 NNW 0.22 13.9 -16.1 --- --- 717.5 0.018 0.000 8.6 6 1
02/18/06 6:35 p -8.1 -8.1 -8.1 --- --- 13.9 NNW 0.23 15.7 -16.4 --- --- 717.5 0.018 0.000 8.6 6 1
02/18/06 6:36 p -8.1 -8.1 -8.1 --- --- 13.9 NNW 0.23 16.5 -16.4 --- --- 717.5 0.018 0.000 8.6 6 1
02/18/06 6:37 p -8.1 -8.1 -8.1 --- --- 11.3 NNW 0.19 13.9 -15.6 --- --- 717.5 0.018 0.000 8.6 6 1
02/18/06 6:38 p -8.1 -8.1 -8.1 --- --- 9.6 NNW 0.16 11.3 -14.9 --- --- 717.6 0.018 0.000 8.6 6 1
02/18/06 6:39 p -8.1 -8.1 -8.1 --- --- 13.0 NNW 0.22 16.5 -16.1 --- --- 717.5 0.018 0.000 8.6 6 1
02/18/06 6:40 p -8.1 -8.1 -8.1 --- --- 13.0 NNW 0.22 14.8 -16.1 --- --- 717.6 0.018 0.000 8.7 6 1
02/18/06 6:41 p -8.1 -8.1 -8.1 --- --- 12.2 NNW 0.20 14.8 -15.8 --- --- 717.6 0.018 0.000 8.7 6 1
02/18/06 6:42 p -8.1 -8.1 -8.1 --- --- 12.2 NNW 0.20 13.9 -15.8 --- --- 717.5 0.018 0.000 8.6 6 1
02/18/06 6:43 p -8.1 -8.1 -8.1 --- --- 12.2 NNW 0.20 13.9 -15.8 --- --- 717.6 0.018 0.000 8.7 6 1
02/18/06 6:44 p -8.1 -8.1 -8.1 --- --- 10.4 NNW 0.17 12.2 -15.3 --- --- 717.6 0.018 0.000 8.6 6 1
02/18/06 6:45 p -8.1 -8.1 -8.1 --- --- 11.3 NNW 0.19 13.0 -15.6 --- --- 717.6 0.018 0.000 8.6 6 1
02/18/06 6:46 p -8.1 -8.1 -8.1 --- --- 11.3 NNW 0.19 14.8 -15.6 --- --- 717.6 0.018 0.000 8.6 6 1
02/18/06 6:47 p -8.1 -8.0 -8.1 --- --- 13.0 NNW 0.22 15.7 -16.1 --- --- 717.6 0.018 0.000 8.6 6 1
02/18/06 6:48 p -8.0 -8.0 -8.0 --- --- 13.9 NNW 0.23 16.5 -16.3 --- --- 717.6 0.018 0.000 8.6 6 1
02/18/06 6:49 p -8.0 -8.0 -8.0 --- --- 13.0 NNW 0.22 16.5 -16.1 --- --- 717.6 0.018 0.000 8.6 6 1
02/18/06 6:50 p -7.9 -7.9 -7.9 --- --- 11.3 NNW 0.19 14.8 -15.4 --- --- 717.6 0.018 0.000 8.6 6 1
02/18/06 6:51 p -7.9 -7.9 -7.9 --- --- 12.2 NNW 0.20 15.7 -15.7 --- --- 717.5 0.018 0.000 8.6 6 1
02/18/06 6:52 p -7.9 -7.9 -7.9 --- --- 13.9 NNW 0.23 16.5 -16.1 --- --- 717.5 0.018 0.000 8.6 6 1
02/18/06 6:53 p -7.9 -7.9 -7.9 --- --- 13.0 NNW 0.22 16.5 -15.9 --- --- 717.5 0.018 0.000 8.6 6 1
02/18/06 6:54 p -7.9 -7.9 -7.9 --- --- 13.9 NNW 0.23 15.7 -16.2 --- --- 717.5 0.018 0.000 8.6 6 1
02/18/06 6:55 p -7.9 -7.9 -7.9 --- --- 13.0 NNW 0.22 14.8 -15.9 --- --- 717.4 0.018 0.000 8.6 6 1
02/18/06 6:56 p -7.9 -7.9 -7.9 --- --- 14.8 NNW 0.25 17.4 -16.4 --- --- 717.5 0.018 0.000 8.6 6 1
02/18/06 6:57 p -7.9 -7.9 -7.9 --- --- 13.0 NNW 0.22 16.5 -15.9 --- --- 717.5 0.018 0.000 8.6 6 1
02/18/06 6:58 p -7.9 -7.9 -7.9 --- --- 13.0 NNW 0.22 14.8 -15.9 --- --- 717.5 0.018 0.000 8.6 6 1
02/18/06 6:59 p -7.9 -7.9 -7.9 --- --- 11.3 NNW 0.19 13.0 -15.4 --- --- 717.5 0.018 0.000 8.6 6 1
02/18/06 7:00 p -8.0 -7.9 -8.0 --- --- 10.4 NNW 0.17 11.3 -15.2 --- --- 717.5 0.018 0.000 8.6 6 1
02/18/06 7:01 p -8.0 -8.0 -8.0 --- --- 10.4 NNW 0.17 12.2 -15.2 --- --- 717.5 0.018 0.000 8.6 6 1
02/18/06 7:02 p -8.0 -8.0 -8.1 --- --- 13.0 NNW 0.22 15.7 -16.1 --- --- 717.5 0.018 0.000 8.6 6 1
02/18/06 7:03 p -8.0 -8.0 -8.1 --- --- 12.2 NNW 0.20 13.9 -15.8 --- --- 717.5 0.018 0.000 8.6 6 1
02/18/06 7:04 p -8.0 -7.9 -8.0 --- --- 10.4 NNW 0.17 13.0 -15.2 --- --- 717.5 0.018 0.000 8.6 6 1
02/18/06 7:05 p -7.9 -7.9 -8.0 --- --- 10.4 NNW 0.17 11.3 -15.1 --- --- 717.5 0.018 0.000 8.6 6 1
02/18/06 7:06 p -8.0 -8.0 -8.0 --- --- 8.7 N 0.14 10.4 -14.5 --- --- 717.5 0.018 0.000 8.6 6 1
02/18/06 7:07 p -7.9 -7.9 -8.0 --- --- 12.2 NNW 0.20 13.9 -15.7 --- --- 717.5 0.018 0.000 8.6 6 1
02/18/06 7:08 p -7.9 -7.9 -7.9 --- --- 11.3 NNW 0.19 13.0 -15.4 --- --- 717.5 0.018 0.000 8.6 6 1
02/18/06 7:09 p -7.9 -7.9 -7.9 --- --- 10.4 NNW 0.17 12.2 -15.1 --- --- 717.5 0.018 0.000 8.6 6 1
02/18/06 7:10 p -7.9 -7.9 -7.9 --- --- 10.4 NNW 0.17 12.2 -15.1 --- --- 717.6 0.018 0.000 8.6 6 1
02/18/06 7:11 p -7.9 -7.9 -7.9 --- --- 10.4 NNW 0.17 13.9 -15.1 --- --- 717.5 0.018 0.000 8.6 6 1
02/18/06 7:12 p -7.9 -7.9 -7.9 --- --- 13.0 NNW 0.22 16.5 -15.9 --- --- 717.5 0.018 0.000 8.6 6 1
02/18/06 7:13 p -7.9 -7.8 -7.9 --- --- 10.4 N 0.17 14.8 -15.1 --- --- 717.5 0.018 0.000 8.6 6 1
02/18/06 7:14 p -7.8 -7.8 -7.8 --- --- 7.8 N 0.13 10.4 -13.9 --- --- 717.6 0.018 0.000 8.6 6 1
02/18/06 7:15 p -7.8 -7.8 -7.9 --- --- 7.8 N 0.13 10.4 -13.9 --- --- 717.6 0.018 0.000 8.6 6 1
02/18/06 7:16 p -7.9 -7.9 -7.9 --- --- 7.8 NNW 0.13 9.6 -14.0 --- --- 717.6 0.018 0.000 8.6 6 1
02/18/06 7:17 p -7.9 -7.9 -7.9 --- --- 8.7 NNW 0.14 11.3 -14.4 --- --- 717.5 0.018 0.000 8.6 6 1
02/18/06 7:18 p -7.9 -7.9 -7.9 --- --- 10.4 NNW 0.17 13.0 -15.1 --- --- 717.5 0.018 0.000 8.6 6 1
02/18/06 7:19 p -7.9 -7.9 -7.9 --- --- 13.0 NNW 0.22 15.7 -15.9 --- --- 717.5 0.018 0.000 8.6 6 1
02/18/06 7:20 p -7.8 -7.8 -7.9 --- --- 9.6 NNW 0.16 13.9 -14.7 --- --- 717.5 0.018 0.000 8.6 6 1
02/18/06 7:21 p -7.8 -7.8 -7.8 --- --- 12.2 NNW 0.20 13.9 -15.6 --- --- 717.5 0.018 0.000 8.6 6 1
02/18/06 7:22 p -7.8 -7.8 -7.8 --- --- 12.2 NNW 0.20 14.8 -15.5 --- --- 717.5 0.018 0.000 8.6 6 1
02/18/06 7:23 p -7.8 -7.8 -7.8 --- --- 14.8 NNW 0.25 15.7 -16.3 --- --- 717.5 0.018 0.000 8.6 6 1
02/18/06 7:24 p -7.7 -7.7 -7.8 --- --- 9.6 N 0.16 12.2 -14.5 --- --- 717.6 0.018 0.000 8.6 6 1
02/18/06 7:25 p -7.7 -7.7 -7.7 --- --- 12.2 NNW 0.20 14.8 -15.4 --- --- 717.6 0.018 0.000 8.6 6 1
02/18/06 7:26 p -7.8 -7.7 -7.8 --- --- 13.9 NNW 0.23 17.4 -16.0 --- --- 717.6 0.018 0.000 8.6 6 1
02/18/06 7:27 p -7.7 -7.7 -7.7 --- --- 13.0 NNW 0.22 15.7 -15.6 --- --- 717.6 0.018 0.000 8.6 6 1
02/18/06 7:28 p -7.7 -7.6 -7.7 --- --- 13.0 NNW 0.22 15.7 -15.6 --- --- 717.5 0.018 0.000 8.6 6 1
02/18/06 7:29 p -7.6 -7.6 -7.6 --- --- 13.9 NNW 0.23 14.8 -15.8 --- --- 717.6 0.018 0.000 8.6 6 1
02/18/06 7:30 p -7.6 -7.6 -7.6 --- --- 12.2 NNW 0.20 15.7 -15.3 --- --- 717.6 0.018 0.000 8.6 6 1
02/18/06 7:31 p -7.6 -7.6 -7.6 --- --- 12.2 NNW 0.20 15.7 -15.2 --- --- 717.5 0.018 0.000 8.6 6 1
02/18/06 7:32 p -7.6 -7.6 -7.6 --- --- 11.3 NNW 0.19 15.7 -14.9 --- --- 717.5 0.018 0.000 8.6 6 1
02/18/06 7:33 p -7.6 -7.6 -7.6 --- --- 9.6 NNW 0.16 11.3 -14.3 --- --- 717.6 0.018 0.000 8.6 6 1
02/18/06 7:34 p -7.6 -7.6 -7.6 --- --- 11.3 NNW 0.19 12.2 -14.9 --- --- 717.6 0.018 0.000 8.6 6 1
02/18/06 7:35 p -7.6 -7.6 -7.6 --- --- 13.9 NNW 0.23 17.4 -15.8 --- --- 717.7 0.018 0.000 8.6 6 1
02/18/06 7:36 p -7.6 -7.6 -7.6 --- --- 12.2 NNW 0.20 15.7 -15.2 --- --- 717.6 0.018 0.000 8.6 6 1
02/18/06 7:37 p -7.6 -7.6 -7.6 --- --- 9.6 NNW 0.16 12.2 -14.3 --- --- 717.6 0.018 0.000 8.6 6 1
02/18/06 7:38 p -7.6 -7.6 -7.6 --- --- 12.2 NNW 0.20 13.0 -15.2 --- --- 717.6 0.018 0.000 8.6 6 1
02/18/06 7:39 p -7.6 -7.6 -7.6 --- --- 10.4 NNW 0.17 12.2 -14.6 --- --- 717.6 0.018 0.000 8.6 6 1
02/18/06 7:40 p -7.6 -7.6 -7.6 --- --- 9.6 NNW 0.16 12.2 -14.3 --- --- 717.6 0.018 0.000 8.6 6 1
02/18/06 7:41 p -7.6 -7.6 -7.6 --- --- 9.6 NNW 0.16 12.2 -14.3 --- --- 717.6 0.018 0.000 8.6 6 1
02/18/06 7:42 p -7.6 -7.6 -7.6 --- --- 9.6 NNW 0.16 13.0 -14.3 --- --- 717.6 0.018 0.000 8.6 6 1
02/18/06 7:43 p -7.6 -7.6 -7.6 --- --- 13.0 NNW 0.22 13.9 -15.6 --- --- 717.6 0.018 0.000 8.6 6 1
02/18/06 7:44 p -7.6 -7.6 -7.6 --- --- 12.2 NNW 0.20 13.9 -15.2 --- --- 717.5 0.018 0.000 8.6 6 1
02/18/06 7:45 p -7.6 -7.6 -7.6 --- --- 7.8 N 0.13 12.2 -13.6 --- --- 717.6 0.018 0.000 8.6 6 1
02/18/06 7:46 p -7.6 -7.6 -7.6 --- --- 12.2 NNW 0.20 14.8 -15.2 --- --- 717.7 0.018 0.000 8.6 6 1
02/18/06 7:47 p -7.6 -7.6 -7.6 --- --- 13.0 NNW 0.22 15.7 -15.4 --- --- 717.5 0.018 0.000 8.6 6 1
02/18/06 7:48 p -7.6 -7.6 -7.6 --- --- 11.3 NNW 0.19 13.0 -14.9 --- --- 717.6 0.018 0.000 8.6 6 1
02/18/06 7:49 p -7.6 -7.6 -7.6 --- --- 9.6 NNW 0.16 11.3 -14.3 --- --- 717.7 0.018 0.000 8.6 6 1
02/18/06 7:50 p -7.6 -7.6 -7.6 --- --- 10.4 NNW 0.17 13.0 -14.6 --- --- 717.6 0.018 0.000 8.7 6 1
02/18/06 7:51 p -7.6 -7.6 -7.6 --- --- 10.4 NNW 0.17 13.0 -14.6 --- --- 717.7 0.018 0.000 8.7 6 1
02/18/06 7:52 p -7.6 -7.5 -7.6 --- --- 7.8 NNW 0.13 10.4 -13.6 --- --- 717.7 0.018 0.000 8.7 6 1
02/18/06 7:53 p -7.6 -7.5 -7.6 --- --- 11.3 NNW 0.19 14.8 -14.9 --- --- 717.6 0.018 0.000 8.6 6 1
02/18/06 7:54 p -7.5 -7.5 -7.6 --- --- 10.4 NNW 0.17 13.9 -14.6 --- --- 717.7 0.018 0.000 8.7 6 1
02/18/06 7:55 p -7.5 -7.5 -7.5 --- --- 10.4 NNW 0.17 12.2 -14.6 --- --- 717.7 0.018 0.000 8.7 6 1
02/18/06 7:56 p -7.5 -7.5 -7.5 --- --- 11.3 NNW 0.19 13.0 -14.8 --- --- 717.8 0.018 0.000 8.7 6 1
02/18/06 7:57 p -7.5 -7.5 -7.5 --- --- 10.4 NNW 0.17 12.2 -14.6 --- --- 717.7 0.018 0.000 8.7 6 1
02/18/06 7:58 p -7.5 -7.5 -7.5 --- --- 13.0 NNW 0.22 15.7 -15.4 --- --- 717.7 0.018 0.000 8.7 6 1
02/18/06 7:59 p -7.5 -7.4 -7.5 --- --- 12.2 NNW 0.20 14.8 -15.1 --- --- 717.6 0.018 0.000 8.7 6 1
02/18/06 8:00 p -7.4 -7.4 -7.5 --- --- 10.4 NNW 0.17 13.0 -14.5 --- --- 717.6 0.018 0.000 8.7 6 1
02/18/06 8:01 p -7.4 -7.4 -7.4 --- --- 11.3 NNW 0.19 12.2 -14.8 --- --- 717.7 0.018 0.000 8.7 6 1
02/18/06 8:02 p -7.4 -7.4 -7.4 --- --- 10.4 NNW 0.17 13.0 -14.4 --- --- 717.6 0.018 0.000 8.7 6 1
02/18/06 8:03 p -7.4 -7.4 -7.4 --- --- 11.3 NNW 0.19 12.2 -14.7 --- --- 717.7 0.018 0.000 8.7 6 1
02/18/06 8:04 p -7.4 -7.4 -7.4 --- --- 12.2 NNW 0.20 13.9 -15.0 --- --- 717.7 0.018 0.000 8.7 6 1
02/18/06 8:05 p -7.4 -7.4 -7.4 --- --- 11.3 NNW 0.19 14.8 -14.7 --- --- 717.7 0.018 0.000 8.7 6 1
02/18/06 8:06 p -7.4 -7.3 -7.4 --- --- 10.4 NNW 0.17 12.2 -14.4 --- --- 717.7 0.018 0.000 8.7 6 1
02/18/06 8:07 p -7.3 -7.3 -7.4 --- --- 10.4 NNW 0.17 12.2 -14.3 --- --- 717.7 0.018 0.000 8.7 6 1
02/18/06 8:08 p -7.4 -7.4 -7.4 --- --- 12.2 NNW 0.20 14.8 -15.0 --- --- 717.8 0.018 0.000 8.7 6 1
02/18/06 8:09 p -7.4 -7.4 -7.4 --- --- 13.0 NNW 0.22 15.7 -15.2 --- --- 717.7 0.018 0.000 8.7 6 1
02/18/06 8:10 p -7.4 -7.4 -7.4 --- --- 12.2 NNW 0.20 14.8 -15.0 --- --- 717.6 0.018 0.000 8.7 6 1
02/18/06 8:11 p -7.4 -7.3 -7.4 --- --- 12.2 NNW 0.20 13.9 -15.0 --- --- 717.7 0.018 0.000 8.7 6 1
02/18/06 8:12 p -7.4 -7.4 -7.4 --- --- 12.2 NNW 0.20 13.9 -15.0 --- --- 717.7 0.018 0.000 8.7 6 1
02/18/06 8:13 p -7.4 -7.4 -7.4 --- --- 9.6 NNW 0.16 12.2 -14.1 --- --- 717.7 0.018 0.000 8.7 6 1
02/18/06 8:14 p -7.4 -7.4 -7.4 --- --- 10.4 NNW 0.17 13.0 -14.4 --- --- 717.6 0.018 0.000 8.7 6 1
02/18/06 8:15 p -7.4 -7.4 -7.4 --- --- 11.3 NNW 0.19 12.2 -14.7 --- --- 717.7 0.018 0.000 8.7 6 1
02/18/06 8:16 p -7.4 -7.4 -7.4 --- --- 10.4 NNW 0.17 12.2 -14.4 --- --- 717.8 0.018 0.000 8.7 6 1
02/18/06 8:17 p -7.4 -7.4 -7.4 --- --- 10.4 NNW 0.17 13.0 -14.4 --- --- 717.7 0.018 0.000 8.7 6 1
02/18/06 8:18 p -7.4 -7.4 -7.4 --- --- 12.2 NNW 0.20 14.8 -15.0 --- --- 717.7 0.018 0.000 8.7 6 1
02/18/06 8:19 p -7.4 -7.4 -7.4 --- --- 11.3 NNW 0.19 13.9 -14.7 --- --- 717.7 0.018 0.000 8.7 6 1
02/18/06 8:20 p -7.4 -7.4 -7.4 --- --- 10.4 NNW 0.17 12.2 -14.5 --- --- 717.7 0.018 0.000 8.7 6 1
02/18/06 8:21 p -7.4 -7.4 -7.4 --- --- 11.3 NNW 0.19 12.2 -14.7 --- --- 717.8 0.018 0.000 8.7 6 1
02/18/06 8:22 p -7.4 -7.4 -7.4 --- --- 9.6 NNW 0.16 12.2 -14.2 --- --- 717.7 0.018 0.000 8.7 6 1
02/18/06 8:23 p -7.4 -7.4 -7.4 --- --- 10.4 NNW 0.17 11.3 -14.4 --- --- 717.8 0.018 0.000 8.7 7 1
02/18/06 8:24 p -7.4 -7.4 -7.4 --- --- 11.3 NNW 0.19 12.2 -14.8 --- --- 717.8 0.018 0.000 8.7 7 1
02/18/06 8:25 p -7.4 -7.4 -7.4 --- --- 12.2 NNW 0.20 13.9 -15.1 --- --- 717.7 0.018 0.000 8.7 7 1
02/18/06 8:26 p -7.4 -7.4 -7.4 --- --- 11.3 NNW 0.19 13.9 -14.7 --- --- 717.8 0.018 0.000 8.7 6 1
02/18/06 8:27 p -7.3 -7.3 -7.4 --- --- 11.3 NNW 0.19 13.0 -14.7 --- --- 717.8 0.018 0.000 8.7 6 1
02/18/06 8:28 p -7.3 -7.3 -7.3 --- --- 12.2 NNW 0.20 13.9 -14.9 --- --- 717.8 0.018 0.000 8.7 7 1
02/18/06 8:29 p -7.3 -7.3 -7.3 --- --- 12.2 NNW 0.20 13.0 -14.9 --- --- 717.8 0.018 0.000 8.7 6 1
02/18/06 8:30 p -7.3 -7.3 -7.3 --- --- 11.3 NNW 0.19 13.0 -14.7 --- --- 717.8 0.018 0.000 8.7 7 1
02/18/06 8:31 p -7.3 -7.3 -7.3 --- --- 12.2 NNW 0.20 12.2 -14.9 --- --- 717.8 0.018 0.000 8.7 6 1
02/18/06 8:32 p -7.3 -7.3 -7.3 --- --- 11.3 NNW 0.19 13.9 -14.7 --- --- 717.8 0.018 0.000 8.7 6 1
02/18/06 8:33 p -7.3 -7.3 -7.3 --- --- 11.3 NNW 0.19 13.0 -14.6 --- --- 717.8 0.018 0.000 8.7 7 1
02/18/06 8:34 p -7.3 -7.3 -7.3 --- --- 11.3 NNW 0.19 14.8 -14.6 --- --- 717.8 0.018 0.000 8.7 7 1
02/18/06 8:35 p -7.3 -7.3 -7.3 --- --- 11.3 NNW 0.19 13.9 -14.7 --- --- 717.8 0.018 0.000 8.7 7 1
02/18/06 8:36 p -7.3 -7.2 -7.3 --- --- 12.2 NNW 0.20 14.8 -14.8 --- --- 717.8 0.018 0.000 8.7 6 1
02/18/06 8:37 p -7.2 -7.2 -7.3 --- --- 13.0 NNW 0.22 14.8 -15.1 --- --- 717.8 0.018 0.000 8.7 7 1
02/18/06 8:38 p -7.2 -7.2 -7.2 --- --- 13.9 NNW 0.23 14.8 -15.2 --- --- 717.9 0.018 0.000 8.7 6 1
02/18/06 8:39 p -7.2 -7.2 -7.2 --- --- 11.3 NNW 0.19 13.0 -14.4 --- --- 717.8 0.018 0.000 8.7 7 1
02/18/06 8:40 p -7.2 -7.2 -7.2 --- --- 13.9 NNW 0.23 16.5 -15.2 --- --- 717.9 0.018 0.000 8.7 7 1
02/18/06 8:41 p -7.2 -7.2 -7.2 --- --- 13.0 NNW 0.22 14.8 -14.9 --- --- 717.8 0.018 0.000 8.7 7 1
02/18/06 8:42 p -7.2 -7.2 -7.2 --- --- 10.4 NNW 0.17 13.0 -14.1 --- --- 717.8 0.018 0.000 8.7 7 1
02/18/06 8:43 p -7.2 -7.2 -7.2 --- --- 11.3 NNW 0.19 13.0 -14.4 --- --- 717.9 0.018 0.000 8.7 7 1
02/18/06 8:44 p -7.2 -7.1 -7.2 --- --- 12.2 NNW 0.20 13.0 -14.7 --- --- 717.8 0.018 0.000 8.7 6 1
02/18/06 8:45 p -7.2 -7.2 -7.2 --- --- 11.3 NNW 0.19 13.9 -14.4 --- --- 717.8 0.018 0.000 8.7 7 1
02/18/06 8:46 p -7.2 -7.2 -7.3 --- --- 11.3 NNW 0.19 13.0 -14.5 --- --- 717.8 0.018 0.000 8.7 7 1
02/18/06 8:47 p -7.3 -7.3 -7.3 --- --- 13.0 NNW 0.22 15.7 -15.1 --- --- 717.8 0.018 0.000 8.7 7 1
02/18/06 8:48 p -7.2 -7.2 -7.3 --- --- 14.8 NNW 0.25 17.4 -15.5 --- --- 717.8 0.018 0.000 8.7 7 1
02/18/06 8:49 p -7.2 -7.1 -7.2 --- --- 11.3 NNW 0.19 13.9 -14.4 --- --- 717.8 0.018 0.000 8.7 7 1
02/18/06 8:50 p -7.1 -7.1 -7.2 --- --- 12.2 NNW 0.20 13.0 -14.6 --- --- 717.8 0.018 0.000 8.7 7 1
02/18/06 8:51 p -7.2 -7.2 -7.2 --- --- 11.3 NNW 0.19 13.9 -14.4 --- --- 717.8 0.018 0.000 8.7 7 1
02/18/06 8:52 p -7.2 -7.2 -7.2 --- --- 12.2 NNW 0.20 13.9 -14.7 --- --- 717.8 0.018 0.000 8.7 7 1
02/18/06 8:53 p -7.1 -7.1 -7.2 --- --- 12.2 NNW 0.20 13.9 -14.6 --- --- 717.8 0.018 0.000 8.7 7 1
02/18/06 8:54 p -7.2 -7.1 -7.2 --- --- 13.0 NNW 0.22 16.5 -14.9 --- --- 717.8 0.018 0.000 8.7 7 1
02/18/06 8:55 p -7.1 -7.1 -7.1 --- --- 12.2 NNW 0.20 13.0 -14.6 --- --- 717.8 0.018 0.000 8.7 7 1
02/18/06 8:56 p -7.2 -7.1 -7.2 --- --- 12.2 NNW 0.20 13.9 -14.7 --- --- 717.9 0.018 0.000 8.7 7 1
02/18/06 8:57 p -7.2 -7.1 -7.2 --- --- 13.0 NNW 0.22 14.8 -14.9 --- --- 717.9 0.018 0.000 8.7 7 1
02/18/06 8:58 p -7.1 -7.1 -7.2 --- --- 12.2 NNW 0.20 13.9 -14.6 --- --- 717.8 0.018 0.000 8.7 7 1
02/18/06 8:59 p -7.2 -7.2 -7.2 --- --- 10.4 NNW 0.17 12.2 -14.1 --- --- 717.8 0.018 0.000 8.7 7 1
02/18/06 9:00 p -7.2 -7.2 -7.2 --- --- 11.3 NNW 0.19 13.0 -14.4 --- --- 717.8 0.018 0.000 8.7 7 1
02/18/06 9:01 p -7.2 -7.2 -7.2 --- --- 12.2 NNW 0.20 13.9 -14.8 --- --- 717.9 0.018 0.000 8.7 7 1
02/18/06 9:02 p -7.2 -7.2 -7.2 --- --- 11.3 NNW 0.19 13.0 -14.5 --- --- 717.8 0.018 0.000 8.7 7 1
02/18/06 9:03 p -7.2 -7.2 -7.2 --- --- 12.2 NNW 0.20 13.9 -14.7 --- --- 717.8 0.018 0.000 8.7 7 1
02/18/06 9:04 p -7.2 -7.2 -7.2 --- --- 10.4 NNW 0.17 12.2 -14.1 --- --- 717.9 0.018 0.000 8.7 7 1
02/18/06 9:05 p -7.2 -7.2 -7.2 --- --- 11.3 NNW 0.19 13.0 -14.4 --- --- 717.9 0.018 0.000 8.7 7 1
02/18/06 9:06 p -7.2 -7.2 -7.2 --- --- 12.2 NNW 0.20 13.9 -14.7 --- --- 717.9 0.018 0.000 8.7 7 1
02/18/06 9:07 p -7.1 -7.1 -7.2 --- --- 11.3 NNW 0.19 12.2 -14.3 --- --- 717.9 0.018 0.000 8.7 7 1
02/18/06 9:08 p -7.1 -7.1 -7.1 --- --- 12.2 NNW 0.20 13.9 -14.6 --- --- 717.9 0.018 0.000 8.7 7 1
02/18/06 9:09 p -7.2 -7.2 -7.2 --- --- 12.2 NNW 0.20 13.0 -14.7 --- --- 717.9 0.018 0.000 8.7 7 1
02/18/06 9:10 p -7.2 -7.1 -7.2 --- --- 11.3 NNW 0.19 13.0 -14.4 --- --- 717.9 0.018 0.000 8.7 7 1
02/18/06 9:11 p -7.1 -7.1 -7.1 --- --- 12.2 NNW 0.20 13.9 -14.6 --- --- 718.0 0.018 0.000 8.7 7 1
02/18/06 9:12 p -7.1 -7.1 -7.1 --- --- 12.2 NNW 0.20 13.9 -14.6 --- --- 718.0 0.018 0.000 8.7 7 1
02/18/06 9:13 p -7.1 -7.1 -7.1 --- --- 11.3 NNW 0.19 13.9 -14.3 --- --- 717.9 0.018 0.000 8.7 7 1
02/18/06 9:14 p -7.1 -7.0 -7.1 --- --- 11.3 NNW 0.19 13.0 -14.3 --- --- 717.9 0.018 0.000 8.7 7 1
02/18/06 9:15 p -7.0 -7.0 -7.1 --- --- 12.2 NNW 0.20 15.7 -14.5 --- --- 717.9 0.018 0.000 8.7 7 1
02/18/06 9:16 p -7.0 -6.9 -7.0 --- --- 13.0 NNW 0.22 15.7 -14.7 --- --- 717.8 0.018 0.000 8.7 7 1
02/18/06 9:17 p -6.9 -6.9 -6.9 --- --- 11.3 NNW 0.19 13.9 -14.2 --- --- 717.8 0.018 0.000 8.7 7 1
02/18/06 9:18 p -6.9 -6.9 -6.9 --- --- 11.3 NNW 0.19 15.7 -14.2 --- --- 717.9 0.018 0.000 8.7 7 1
02/18/06 9:19 p -6.9 -6.9 -6.9 --- --- 13.9 NNW 0.23 17.4 -14.9 --- --- 717.9 0.018 0.000 8.7 7 1
02/18/06 9:20 p -6.9 -6.9 -6.9 --- --- 12.2 NNW 0.20 14.8 -14.4 --- --- 717.9 0.018 0.000 8.7 7 1
02/18/06 9:21 p -6.9 -6.9 -7.0 --- --- 13.9 NNW 0.23 16.5 -14.9 --- --- 717.9 0.018 0.000 8.7 7 1
02/18/06 9:22 p -7.0 -7.0 -7.0 --- --- 14.8 NNW 0.25 17.4 -15.2 --- --- 717.9 0.018 0.000 8.7 7 1
02/18/06 9:23 p -7.0 -7.0 -7.0 --- --- 11.3 NNW 0.19 15.7 -14.2 --- --- 717.9 0.018 0.000 8.7 7 1
02/18/06 9:24 p -7.0 -6.9 -7.0 --- --- 12.2 NNW 0.20 14.8 -14.5 --- --- 717.9 0.018 0.000 8.7 7 1
02/18/06 9:25 p -6.9 -6.9 -7.0 --- --- 13.9 NNW 0.23 17.4 -14.9 --- --- 717.9 0.018 0.000 8.7 7 1
02/18/06 9:26 p -6.9 -6.9 -6.9 --- --- 14.8 NNW 0.25 16.5 -15.2 --- --- 717.9 0.018 0.000 8.7 7 1
02/18/06 9:27 p -6.9 -6.9 -6.9 --- --- 14.8 NNW 0.25 17.4 -15.2 --- --- 717.9 0.018 0.000 8.7 7 1
02/18/06 9:28 p -6.9 -6.9 -6.9 --- --- 12.2 NNW 0.20 16.5 -14.3 --- --- 718.0 0.018 0.000 8.7 7 1
02/18/06 9:29 p -6.9 -6.9 -6.9 --- --- 13.0 NNW 0.22 15.7 -14.7 --- --- 717.9 0.018 0.000 8.7 7 1
02/18/06 9:30 p -6.9 -6.9 -6.9 --- --- 13.0 NNW 0.22 13.9 -14.6 --- --- 717.9 0.018 0.000 8.7 7 1
02/18/06 9:31 p -6.9 -6.9 -6.9 --- --- 14.8 NNW 0.25 17.4 -15.1 --- --- 717.9 0.018 0.000 8.7 7 1
02/18/06 9:32 p -6.9 -6.9 -6.9 --- --- 13.9 NNW 0.23 18.3 -14.8 --- --- 717.9 0.018 0.000 8.7 7 1
02/18/06 9:33 p -6.8 -6.8 -6.9 --- --- 11.3 NNW 0.19 13.9 -14.0 --- --- 717.9 0.017 0.000 8.7 7 1
02/18/06 9:34 p -6.8 -6.8 -6.8 --- --- 13.9 NNW 0.23 16.5 -14.8 --- --- 717.9 0.017 0.000 8.7 7 1
02/18/06 9:35 p -6.8 -6.8 -6.8 --- --- 12.2 NNW 0.20 13.9 -14.2 --- --- 717.9 0.017 0.000 8.7 7 1
02/18/06 9:36 p -6.8 -6.8 -6.8 --- --- 15.7 NNW 0.26 18.3 -15.2 --- --- 717.9 0.017 0.000 8.8 7 1
02/18/06 9:37 p -6.8 -6.8 -6.8 --- --- 12.2 NNW 0.20 18.3 -14.2 --- --- 717.9 0.017 0.000 8.8 7 1
02/18/06 9:38 p -6.8 -6.8 -6.8 --- --- 13.0 NNW 0.22 14.8 -14.4 --- --- 717.9 0.017 0.000 8.8 7 1
02/18/06 9:39 p -6.7 -6.7 -6.8 --- --- 13.9 NNW 0.23 15.7 -14.6 --- --- 717.9 0.017 0.000 8.8 7 1
02/18/06 9:40 p -6.7 -6.7 -6.7 --- --- 13.0 NNW 0.22 13.9 -14.3 --- --- 717.8 0.017 0.000 8.8 7 1
02/18/06 9:41 p -6.7 -6.6 -6.7 --- --- 13.9 NNW 0.23 15.7 -14.6 --- --- 717.9 0.017 0.000 8.7 7 1
02/18/06 9:42 p -6.6 -6.6 -6.6 --- --- 13.0 NNW 0.22 14.8 -14.3 --- --- 717.9 0.017 0.000 8.8 7 1
02/18/06 9:43 p -6.6 -6.6 -6.6 --- --- 13.9 NNW 0.23 15.7 -14.5 --- --- 717.9 0.017 0.000 8.8 7 1
02/18/06 9:44 p -6.6 -6.6 -6.7 --- --- 11.3 NNW 0.19 14.8 -13.7 --- --- 717.9 0.017 0.000 8.7 7 1
02/18/06 9:45 p -6.7 -6.7 -6.7 --- --- 11.3 NNW 0.19 13.9 -13.8 --- --- 717.9 0.017 0.000 8.8 7 1
02/18/06 9:46 p -6.8 -6.7 -6.8 --- --- 14.8 NNW 0.25 16.5 -14.9 --- --- 717.9 0.017 0.000 8.8 7 1
02/18/06 9:47 p -6.7 -6.7 -6.8 --- --- 11.3 NNW 0.19 13.9 -13.9 --- --- 718.0 0.017 0.000 8.8 7 1
02/18/06 9:48 p -6.8 -6.8 -6.8 --- --- 9.6 NNW 0.16 11.3 -13.3 --- --- 718.0 0.017 0.000 8.8 7 1
02/18/06 9:49 p -6.8 -6.8 -6.8 --- --- 10.4 NNW 0.17 13.9 -13.7 --- --- 717.9 0.017 0.000 8.8 7 1
02/18/06 9:50 p -6.8 -6.8 -6.8 --- --- 13.0 NNW 0.22 14.8 -14.4 --- --- 717.9 0.017 0.000 8.8 7 1
02/18/06 9:51 p -6.8 -6.8 -6.8 --- --- 13.9 NNW 0.23 15.7 -14.7 --- --- 717.9 0.017 0.000 8.8 7 1
02/18/06 9:52 p -6.7 -6.7 -6.7 --- --- 11.3 NNW 0.19 13.9 -13.9 --- --- 717.9 0.017 0.000 8.8 7 1
02/18/06 9:53 p -6.7 -6.7 -6.8 --- --- 13.9 NNW 0.23 14.8 -14.6 --- --- 717.9 0.017 0.000 8.8 7 1
02/18/06 9:54 p -6.7 -6.7 -6.7 --- --- 13.9 NNW 0.23 15.7 -14.6 --- --- 717.8 0.017 0.000 8.8 7 1
02/18/06 9:55 p -6.7 -6.7 -6.7 --- --- 13.0 NNW 0.22 15.7 -14.3 --- --- 717.9 0.017 0.000 8.8 7 1
02/18/06 9:56 p -6.7 -6.7 -6.7 --- --- 12.2 NNW 0.20 14.8 -14.1 --- --- 717.8 0.017 0.000 8.8 7 1
02/18/06 9:57 p -6.7 -6.7 -6.7 --- --- 12.2 NNW 0.20 13.9 -14.1 --- --- 717.8 0.017 0.000 8.8 7 1
02/18/06 9:58 p -6.7 -6.6 -6.7 --- --- 13.9 NNW 0.23 16.5 -14.6 --- --- 717.9 0.017 0.000 8.8 7 1
02/18/06 9:59 p -6.6 -6.6 -6.6 --- --- 13.0 NNW 0.22 14.8 -14.3 --- --- 717.9 0.017 0.000 8.8 7 1
02/18/06 10:00 p -6.6 -6.6 -6.6 --- --- 13.0 NNW 0.22 13.9 -14.3 --- --- 718.0 0.017 0.000 8.8 7 1
02/18/06 10:01 p -6.6 -6.6 -6.6 --- --- 11.3 NNW 0.19 13.9 -13.7 --- --- 718.0 0.017 0.000 8.8 7 1
02/18/06 10:02 p -6.6 -6.6 -6.6 --- --- 11.3 NNW 0.19 13.0 -13.7 --- --- 718.0 0.017 0.000 8.8 7 1
02/18/06 10:03 p -6.6 -6.6 -6.6 --- --- 10.4 NNW 0.17 13.0 -13.4 --- --- 717.8 0.017 0.000 8.8 7 1
02/18/06 10:04 p -6.6 -6.6 -6.6 --- --- 11.3 NNW 0.19 13.0 -13.7 --- --- 717.9 0.017 0.000 8.8 7 1
02/18/06 10:05 p -6.7 -6.6 -6.7 --- --- 11.3 NNW 0.19 13.0 -13.8 --- --- 718.0 0.017 0.000 8.8 7 1
02/18/06 10:06 p -6.7 -6.7 -6.8 --- --- 11.3 NNW 0.19 13.9 -13.9 --- --- 718.0 0.017 0.000 8.8 7 1
02/18/06 10:07 p -6.7 -6.7 -6.7 --- --- 10.4 NNW 0.17 13.0 -13.6 --- --- 718.0 0.017 0.000 8.8 7 1
02/18/06 10:08 p -6.7 -6.7 -6.7 --- --- 12.2 NNW 0.20 13.9 -14.1 --- --- 718.0 0.017 0.000 8.8 7 1
02/18/06 10:09 p -6.7 -6.7 -6.7 --- --- 12.2 NNW 0.20 13.9 -14.1 --- --- 717.9 0.017 0.000 8.8 7 1
02/18/06 10:10 p -6.7 -6.7 -6.7 --- --- 12.2 NNW 0.20 15.7 -14.1 --- --- 718.0 0.017 0.000 8.8 7 1
02/18/06 10:11 p -6.6 -6.6 -6.6 --- --- 13.9 NNW 0.23 15.7 -14.5 --- --- 717.9 0.017 0.000 8.8 7 1
02/18/06 10:12 p -6.6 -6.6 -6.6 --- --- 9.6 NNW 0.16 12.2 -13.1 --- --- 717.9 0.017 0.000 8.8 7 1
02/18/06 10:13 p -6.6 -6.6 -6.7 --- --- 12.2 NNW 0.20 15.7 -14.0 --- --- 717.8 0.017 0.000 8.8 7 1
02/18/06 10:14 p -6.6 -6.6 -6.6 --- --- 13.0 NNW 0.22 14.8 -14.3 --- --- 717.9 0.017 0.000 8.8 7 1
02/18/06 10:15 p -6.6 -6.6 -6.6 --- --- 10.4 NNW 0.17 13.0 -13.4 --- --- 717.8 0.017 0.000 8.8 7 1
02/18/06 10:16 p -6.6 -6.6 -6.6 --- --- 10.4 NNW 0.17 11.3 -13.4 --- --- 718.0 0.017 0.000 8.8 7 1
02/18/06 10:17 p -6.6 -6.6 -6.6 --- --- 13.0 NNW 0.22 14.8 -14.2 --- --- 717.9 0.017 0.000 8.8 7 1
02/18/06 10:18 p -6.6 -6.6 -6.6 --- --- 13.0 NNW 0.22 14.8 -14.2 --- --- 718.0 0.017 0.000 8.8 7 1
02/18/06 10:19 p -6.6 -6.6 -6.6 --- --- 11.3 NNW 0.19 12.2 -13.7 --- --- 717.9 0.017 0.000 8.8 7 1
02/18/06 10:20 p -6.5 -6.5 -6.6 --- --- 10.4 NNW 0.17 12.2 -13.3 --- --- 718.0 0.017 0.000 8.8 7 1
02/18/06 10:21 p -6.6 -6.6 -6.6 --- --- 13.9 NNW 0.23 15.7 -14.4 --- --- 718.0 0.017 0.000 8.8 7 1
02/18/06 10:22 p -6.6 -6.6 -6.6 --- --- 9.6 NNW 0.16 13.0 -13.1 --- --- 717.9 0.017 0.000 8.8 7 1
02/18/06 10:23 p -6.6 -6.6 -6.6 --- --- 11.3 NNW 0.19 13.9 -13.7 --- --- 718.0 0.017 0.000 8.8 7 1
02/18/06 10:24 p -6.7 -6.7 -6.7 --- --- 12.2 NNW 0.20 14.8 -14.1 --- --- 717.9 0.017 0.000 8.8 7 1
02/18/06 10:25 p -6.7 -6.6 -6.7 --- --- 13.9 NNW 0.23 16.5 -14.6 --- --- 718.0 0.017 0.000 8.8 7 1
02/18/06 10:26 p -6.6 -6.6 -6.6 --- --- 14.8 NNW 0.25 16.5 -14.7 --- --- 717.9 0.017 0.000 8.8 7 1
02/18/06 10:27 p -6.6 -6.6 -6.6 --- --- 13.9 NNW 0.23 16.5 -14.5 --- --- 718.0 0.017 0.000 8.8 7 1
02/18/06 10:28 p -6.6 -6.6 -6.6 --- --- 13.9 NNW 0.23 16.5 -14.5 --- --- 718.0 0.017 0.000 8.8 7 1
02/18/06 10:29 p -6.6 -6.6 -6.6 --- --- 12.2 NNW 0.20 14.8 -14.0 --- --- 718.0 0.017 0.000 8.8 7 1
02/18/06 10:30 p -6.6 -6.6 -6.7 --- --- 9.6 NNW 0.16 11.3 -13.1 --- --- 718.0 0.017 0.000 8.8 7 1
02/18/06 10:31 p -6.6 -6.6 -6.7 --- --- 12.2 NNW 0.20 15.7 -14.0 --- --- 718.0 0.017 0.000 8.8 7 1
02/18/06 10:32 p -6.5 -6.5 -6.6 --- --- 12.2 NNW 0.20 14.8 -13.8 --- --- 717.9 0.017 0.000 8.8 7 1
02/18/06 10:33 p -6.5 -6.4 -6.5 --- --- 13.9 NNW 0.23 15.7 -14.3 --- --- 717.9 0.017 0.000 8.9 7 1
02/18/06 10:34 p -6.5 -6.4 -6.5 --- --- 11.3 NNW 0.19 15.7 -13.6 --- --- 717.9 0.017 0.000 8.8 7 1
02/18/06 10:35 p -6.4 -6.4 -6.5 --- --- 8.7 NNW 0.14 10.4 -12.6 --- --- 717.9 0.017 0.000 8.8 7 1
02/18/06 10:36 p -6.4 -6.4 -6.4 --- --- 11.3 NNW 0.19 13.9 -13.5 --- --- 718.0 0.017 0.000 8.9 7 1
02/18/06 10:37 p -6.4 -6.4 -6.4 --- --- 13.0 NNW 0.22 14.8 -13.9 --- --- 717.9 0.017 0.000 8.9 7 1
02/18/06 10:38 p -6.4 -6.3 -6.4 --- --- 13.9 NNW 0.23 15.7 -14.2 --- --- 717.9 0.017 0.000 8.9 7 1
02/18/06 10:39 p -6.3 -6.3 -6.3 --- --- 13.0 NNW 0.22 14.8 -13.9 --- --- 718.0 0.017 0.000 8.9 7 1
02/18/06 10:40 p -6.4 -6.4 -6.4 --- --- 11.3 NNW 0.19 12.2 -13.5 --- --- 717.9 0.017 0.000 8.9 7 1
02/18/06 10:41 p -6.4 -6.4 -6.4 --- --- 10.4 NNW 0.17 12.2 -13.2 --- --- 717.9 0.017 0.000 8.9 7 1
02/18/06 10:42 p -6.4 -6.4 -6.4 --- --- 11.3 NNW 0.19 13.0 -13.5 --- --- 718.1 0.017 0.000 8.9 7 1
02/18/06 10:43 p -6.4 -6.4 -6.4 --- --- 12.2 NNW 0.20 13.9 -13.7 --- --- 718.0 0.017 0.000 8.9 7 1
02/18/06 10:44 p -6.4 -6.4 -6.4 --- --- 10.4 NNW 0.17 13.0 -13.2 --- --- 718.0 0.017 0.000 8.9 7 1
02/18/06 10:45 p -6.4 -6.4 -6.4 --- --- 10.4 NNW 0.17 13.9 -13.2 --- --- 718.0 0.017 0.000 8.9 7 1
02/18/06 10:46 p -6.4 -6.4 -6.4 --- --- 10.4 NNW 0.17 11.3 -13.2 --- --- 718.0 0.017 0.000 8.9 7 1
02/18/06 10:47 p -6.4 -6.4 -6.4 --- --- 11.3 NNW 0.19 13.0 -13.5 --- --- 718.0 0.017 0.000 8.9 7 1
02/18/06 10:48 p -6.4 -6.4 -6.4 --- --- 10.4 NNW 0.17 11.3 -13.2 --- --- 718.0 0.017 0.000 8.9 7 1
02/18/06 10:49 p -6.4 -6.4 -6.4 --- --- 12.2 NNW 0.20 16.5 -13.7 --- --- 718.1 0.017 0.000 8.9 7 1
02/18/06 10:50 p -6.5 -6.4 -6.5 --- --- 11.3 NNW 0.19 13.0 -13.6 --- --- 718.0 0.017 0.000 8.9 7 1
02/18/06 10:51 p -6.5 -6.5 -6.6 --- --- 10.4 NNW 0.17 12.2 -13.3 --- --- 718.0 0.017 0.000 8.9 7 1
02/18/06 10:52 p -6.5 -6.5 -6.5 --- --- 9.6 NNW 0.16 12.2 -13.0 --- --- 718.0 0.017 0.000 8.9 7 1
02/18/06 10:53 p -6.5 -6.5 -6.5 --- --- 13.0 NNW 0.22 13.9 -14.1 --- --- 718.0 0.017 0.000 8.9 7 1
02/18/06 10:54 p -6.5 -6.4 -6.5 --- --- 12.2 NNW 0.20 14.8 -13.8 --- --- 718.1 0.017 0.000 8.9 7 1
02/18/06 10:55 p -6.5 -6.5 -6.5 --- --- 8.7 NNW 0.14 13.0 -12.7 --- --- 718.0 0.017 0.000 8.9 7 1
02/18/06 10:56 p -6.6 -6.5 -6.6 --- --- 13.0 NNW 0.22 16.5 -14.2 --- --- 718.0 0.017 0.000 8.9 7 1
02/18/06 10:57 p -6.5 -6.5 -6.5 --- --- 13.0 NNW 0.22 14.8 -14.1 --- --- 718.0 0.017 0.000 8.9 7 1
02/18/06 10:58 p -6.5 -6.4 -6.5 --- --- 12.2 NNW 0.20 14.8 -13.8 --- --- 718.1 0.017 0.000 8.9 7 1
02/18/06 10:59 p -6.4 -6.4 -6.5 --- --- 10.4 NNW 0.17 13.0 -13.2 --- --- 718.0 0.017 0.000 8.9 7 1
02/18/06 11:00 p -6.6 -6.6 -6.6 --- --- 12.2 NNW 0.20 15.7 -13.9 --- --- 718.0 0.017 0.000 8.9 7 1
02/18/06 11:01 p -6.6 -6.6 -6.6 --- --- 11.3 NNW 0.19 13.0 -13.7 --- --- 718.0 0.017 0.000 8.9 7 1
02/18/06 11:02 p -6.5 -6.5 -6.6 --- --- 11.3 NNW 0.19 13.0 -13.6 --- --- 718.0 0.017 0.000 8.9 7 1
02/18/06 11:03 p -6.4 -6.4 -6.4 --- --- 11.3 NNW 0.19 12.2 -13.5 --- --- 718.0 0.017 0.000 8.9 7 1
02/18/06 11:04 p -6.4 -6.4 -6.4 --- --- 12.2 NNW 0.20 13.9 -13.8 --- --- 718.0 0.017 0.000 8.9 7 1
02/18/06 11:05 p -6.4 -6.4 -6.4 --- --- 12.2 NNW 0.20 14.8 -13.8 --- --- 718.0 0.017 0.000 8.9 7 1
02/18/06 11:06 p -6.4 -6.4 -6.5 --- --- 10.4 NNW 0.17 12.2 -13.2 --- --- 718.0 0.017 0.000 8.9 7 1
02/18/06 11:07 p -6.5 -6.5 -6.5 --- --- 8.7 NNW 0.14 10.4 -12.7 --- --- 718.1 0.017 0.000 8.9 7 1
02/18/06 11:08 p -6.4 -6.4 -6.5 --- --- 11.3 NNW 0.19 13.0 -13.5 --- --- 718.0 0.017 0.000 8.9 7 1
02/18/06 11:09 p -6.4 -6.4 -6.4 --- --- 12.2 NNW 0.20 14.8 -13.7 --- --- 718.0 0.017 0.000 8.9 7 1
02/18/06 11:10 p -6.4 -6.3 -6.4 --- --- 12.2 NNW 0.20 13.9 -13.7 --- --- 718.0 0.017 0.000 8.9 7 1
02/18/06 11:11 p -6.3 -6.3 -6.4 --- --- 12.2 NNW 0.20 14.8 -13.7 --- --- 718.0 0.017 0.000 8.9 7 1
02/18/06 11:12 p -6.4 -6.3 -6.4 --- --- 10.4 NNW 0.17 13.9 -13.2 --- --- 718.0 0.017 0.000 8.9 7 1
02/18/06 11:13 p -6.3 -6.3 -6.4 --- --- 9.6 NNW 0.16 11.3 -12.8 --- --- 718.1 0.017 0.000 8.9 7 1
02/18/06 11:14 p -6.4 -6.3 -6.4 --- --- 11.3 NNW 0.19 13.0 -13.4 --- --- 718.0 0.017 0.000 8.9 7 1
02/18/06 11:15 p -6.3 -6.3 -6.3 --- --- 11.3 NNW 0.19 13.9 -13.4 --- --- 718.0 0.017 0.000 8.9 7 1
02/18/06 11:16 p -6.4 -6.3 -6.4 --- --- 8.7 NNW 0.14 10.4 -12.5 --- --- 718.0 0.017 0.000 8.9 7 1
02/18/06 11:17 p -6.4 -6.4 -6.4 --- --- 8.7 NNW 0.14 10.4 -12.5 --- --- 718.1 0.017 0.000 8.9 7 1
02/18/06 11:18 p -6.3 -6.3 -6.4 --- --- 10.4 NNW 0.17 13.0 -13.1 --- --- 718.0 0.017 0.000 8.9 7 1
02/18/06 11:19 p -6.3 -6.3 -6.3 --- --- 10.4 NNW 0.17 13.0 -13.0 --- --- 718.0 0.017 0.000 9.0 7 1
02/18/06 11:20 p -6.3 -6.3 -6.3 --- --- 12.2 NNW 0.20 15.7 -13.7 --- --- 718.1 0.017 0.000 9.0 7 1
02/18/06 11:21 p -6.4 -6.3 -6.4 --- --- 11.3 NNW 0.19 12.2 -13.4 --- --- 718.0 0.017 0.000 9.0 7 1
02/18/06 11:22 p -6.4 -6.4 -6.4 --- --- 10.4 NNW 0.17 12.2 -13.2 --- --- 718.1 0.017 0.000 9.0 7 1
02/18/06 11:23 p -6.4 -6.3 -6.4 --- --- 11.3 NNW 0.19 13.9 -13.4 --- --- 718.0 0.017 0.000 9.0 7 1
02/18/06 11:24 p -6.4 -6.4 -6.4 --- --- 10.4 NNW 0.17 13.9 -13.2 --- --- 718.1 0.017 0.000 9.0 7 1
02/18/06 11:25 p -6.4 -6.4 -6.4 --- --- 9.6 NNW 0.16 11.3 -12.8 --- --- 718.1 0.017 0.000 9.0 7 1
02/18/06 11:26 p -6.4 -6.3 -6.4 --- --- 9.6 NW 0.16 11.3 -12.8 --- --- 718.0 0.017 0.000 9.0 7 1
02/18/06 11:27 p -6.3 -6.3 -6.3 --- --- 8.7 NNW 0.14 8.7 -12.4 --- --- 718.1 0.017 0.000 9.0 7 1
02/18/06 11:28 p -6.4 -6.3 -6.4 --- --- 7.8 NNW 0.13 8.7 -12.2 --- --- 718.0 0.017 0.000 9.0 7 1
02/18/06 11:29 p -6.4 -6.4 -6.4 --- --- 9.6 NNW 0.16 13.0 -12.9 --- --- 718.0 0.017 0.000 9.0 7 1
02/18/06 11:30 p -6.4 -6.4 -6.5 --- --- 11.3 NNW 0.19 12.2 -13.5 --- --- 718.0 0.017 0.000 9.0 7 1
02/18/06 11:31 p -6.5 -6.4 -6.5 --- --- 10.4 NW 0.17 11.3 -13.3 --- --- 718.0 0.017 0.000 9.0 7 1
02/18/06 11:32 p -6.4 -6.4 -6.4 --- --- 9.6 NNW 0.16 11.3 -12.9 --- --- 718.1 0.017 0.000 9.0 7 1
02/18/06 11:33 p -6.4 -6.4 -6.4 --- --- 8.7 NNW 0.14 10.4 -12.5 --- --- 718.1 0.017 0.000 9.0 7 1
02/18/06 11:34 p -6.4 -6.4 -6.4 --- --- 9.6 NNW 0.16 10.4 -12.9 --- --- 718.1 0.017 0.000 9.0 7 1
02/18/06 11:35 p -6.4 -6.4 -6.5 --- --- 8.7 NNW 0.14 10.4 -12.6 --- --- 718.1 0.017 0.000 9.0 7 1
02/18/06 11:36 p -6.6 -6.5 -6.6 --- --- 9.6 NNW 0.16 11.3 -13.1 --- --- 718.1 0.017 0.000 9.0 7 1
02/18/06 11:37 p -6.6 -6.6 -6.6 --- --- 9.6 NNW 0.16 11.3 -13.1 --- --- 718.1 0.017 0.000 9.0 7 1
02/18/06 11:38 p -6.6 -6.6 -6.6 --- --- 7.8 NNW 0.13 9.6 -12.3 --- --- 718.2 0.017 0.000 9.0 7 1
02/18/06 11:39 p -6.5 -6.5 -6.6 --- --- 8.7 NNW 0.14 10.4 -12.7 --- --- 718.1 0.017 0.000 9.0 7 1
02/18/06 11:40 p -6.5 -6.5 -6.6 --- --- 9.6 NNW 0.16 11.3 -13.0 --- --- 718.0 0.017 0.000 9.0 7 1
02/18/06 11:41 p -6.5 -6.5 -6.5 --- --- 9.6 NNW 0.16 11.3 -13.0 --- --- 718.1 0.017 0.000 9.0 7 1
02/18/06 11:42 p -6.6 -6.6 -6.6 --- --- 7.8 NW 0.13 9.6 -12.3 --- --- 718.1 0.017 0.000 9.0 7 1
02/18/06 11:43 p -6.6 -6.6 -6.6 --- --- 8.7 NNW 0.14 9.6 -12.7 --- --- 718.1 0.017 0.000 9.1 7 1
02/18/06 11:44 p -6.6 -6.6 -6.6 --- --- 10.4 NW 0.17 11.3 -13.4 --- --- 718.1 0.017 0.000 9.1 7 1
02/18/06 11:45 p -6.6 -6.6 -6.7 --- --- 8.7 NW 0.14 10.4 -12.8 --- --- 718.1 0.017 0.000 9.1 7 1
02/18/06 11:46 p -6.7 -6.6 -6.7 --- --- 8.7 NNW 0.14 9.6 -12.8 --- --- 718.1 0.017 0.000 9.1 7 1
02/18/06 11:47 p -6.7 -6.7 -6.7 --- --- 7.8 NNW 0.13 9.6 -12.5 --- --- 718.1 0.017 0.000 9.1 7 1
02/18/06 11:48 p -6.7 -6.7 -6.8 --- --- 11.3 NNW 0.19 14.8 -13.9 --- --- 718.0 0.017 0.000 9.1 7 1
02/18/06 11:49 p -6.8 -6.7 -6.8 --- --- 12.2 NNW 0.20 13.9 -14.2 --- --- 718.1 0.017 0.000 9.1 7 1
02/18/06 11:50 p -6.8 -6.8 -6.8 --- --- 9.6 NW 0.16 11.3 -13.3 --- --- 718.1 0.017 0.000 9.1 7 1
02/18/06 11:51 p -6.8 -6.8 -6.8 --- --- 9.6 NW 0.16 10.4 -13.3 --- --- 718.1 0.017 0.000 9.1 7 1
02/18/06 11:52 p -6.8 -6.8 -6.8 --- --- 8.7 NNW 0.14 10.4 -13.0 --- --- 718.2 0.017 0.000 9.1 7 1
02/18/06 11:53 p -6.8 -6.8 -6.8 --- --- 9.6 NNW 0.16 10.4 -13.3 --- --- 718.1 0.017 0.000 9.1 7 1
02/18/06 11:54 p -6.8 -6.8 -6.8 --- --- 8.7 NNW 0.14 9.6 -13.1 --- --- 718.2 0.017 0.000 9.1 7 1
02/18/06 11:55 p -6.8 -6.8 -6.8 --- --- 8.7 NNW 0.14 8.7 -13.1 --- --- 718.1 0.017 0.000 9.1 7 1
02/18/06 11:56 p -6.8 -6.8 -6.8 --- --- 9.6 NNW 0.16 11.3 -13.4 --- --- 718.1 0.017 0.000 9.1 7 1
02/18/06 11:57 p -6.9 -6.9 -6.9 --- --- 10.4 NNW 0.17 11.3 -13.8 --- --- 718.1 0.018 0.000 9.0 7 1
02/18/06 11:58 p -6.9 -6.9 -6.9 --- --- 10.4 NNW 0.17 12.2 -13.8 --- --- 718.1 0.018 0.000 9.1 7 1
02/18/06 11:59 p -6.9 -6.9 -6.9 --- --- 10.4 NNW 0.17 13.0 -13.8 --- --- 718.2 0.018 0.000 9.1 7 1
02/19/06 12:00 a -6.9 -6.9 -6.9 --- --- 8.7 NNW 0.14 10.4 -13.2 --- --- 718.1 0.018 0.000 9.1 7 1
02/19/06 12:01 a -6.9 -6.9 -6.9 --- --- 8.7 NNW 0.14 10.4 -13.2 --- --- 718.1 0.018 0.000 9.1 7 1
02/19/06 12:02 a -6.9 -6.9 -7.0 --- --- 9.6 NNW 0.16 10.4 -13.6 --- --- 718.0 0.018 0.000 9.1 7 1
02/19/06 12:03 a -7.0 -7.0 -7.0 --- --- 12.2 NNW 0.20 13.0 -14.5 --- --- 718.0 0.018 0.000 9.1 7 1
02/19/06 12:04 a -7.0 -7.0 -7.0 --- --- 11.3 NNW 0.19 13.0 -14.2 --- --- 718.1 0.018 0.000 9.1 7 1
02/19/06 12:05 a -7.0 -6.9 -7.0 --- --- 11.3 NNW 0.19 13.9 -14.2 --- --- 718.0 0.018 0.000 9.1 7 1
02/19/06 12:06 a -6.9 -6.9 -6.9 --- --- 11.3 NNW 0.19 12.2 -14.2 --- --- 718.1 0.018 0.000 9.1 7 1
02/19/06 12:07 a -6.9 -6.9 -7.0 --- --- 9.6 NNW 0.16 11.3 -13.6 --- --- 718.0 0.018 0.000 9.1 7 1
02/19/06 12:08 a -7.0 -7.0 -7.0 --- --- 8.7 NNW 0.14 10.4 -13.3 --- --- 718.1 0.018 0.000 9.1 7 1
02/19/06 12:09 a -6.9 -6.9 -7.0 --- --- 8.7 NNW 0.14 12.2 -13.2 --- --- 718.1 0.018 0.000 9.1 7 1
02/19/06 12:10 a -6.9 -6.9 -6.9 --- --- 10.4 NNW 0.17 12.2 -13.8 --- --- 718.1 0.018 0.000 9.1 7 1
02/19/06 12:11 a -6.9 -6.9 -6.9 --- --- 11.3 NNW 0.19 13.0 -14.1 --- --- 718.0 0.018 0.000 9.1 7 1
02/19/06 12:12 a -6.9 -6.9 -6.9 --- --- 12.2 NNW 0.20 13.0 -14.3 --- --- 718.1 0.018 0.000 9.1 7 1
02/19/06 12:13 a -6.9 -6.9 -6.9 --- --- 9.6 NNW 0.16 13.0 -13.6 --- --- 718.0 0.018 0.000 9.1 7 1
02/19/06 12:14 a -6.9 -6.9 -6.9 --- --- 10.4 NNW 0.17 13.0 -13.8 --- --- 718.1 0.018 0.000 9.1 7 1
02/19/06 12:15 a -6.9 -6.9 -6.9 --- --- 9.6 NNW 0.16 11.3 -13.4 --- --- 718.0 0.018 0.000 9.1 7 1
02/19/06 12:16 a -6.9 -6.9 -6.9 --- --- 8.7 NNW 0.14 10.4 -13.1 --- --- 718.0 0.018 0.000 9.1 7 1
02/19/06 12:17 a -6.9 -6.9 -6.9 --- --- 9.6 NNW 0.16 12.2 -13.6 --- --- 718.1 0.018 0.000 9.1 7 1
02/19/06 12:18 a -6.9 -6.9 -6.9 --- --- 9.6 NNW 0.16 12.2 -13.4 --- --- 718.1 0.018 0.000 9.1 7 1
02/19/06 12:19 a -6.9 -6.9 -6.9 --- --- 8.7 NNW 0.14 11.3 -13.1 --- --- 718.0 0.018 0.000 9.1 7 1
02/19/06 12:20 a -6.9 -6.9 -6.9 --- --- 9.6 NNW 0.16 12.2 -13.6 --- --- 718.1 0.018 0.000 9.1 7 1
02/19/06 12:21 a -6.8 -6.8 -6.9 --- --- 10.4 NNW 0.17 13.0 -13.7 --- --- 718.0 0.017 0.000 9.1 7 1
02/19/06 12:22 a -6.8 -6.8 -6.8 --- --- 10.4 NNW 0.17 13.9 -13.7 --- --- 718.0 0.017 0.000 9.1 7 1
02/19/06 12:23 a -6.7 -6.7 -6.8 --- --- 11.3 NNW 0.19 14.8 -13.9 --- --- 718.1 0.017 0.000 9.1 7 1
02/19/06 12:24 a -6.7 -6.6 -6.7 --- --- 12.2 NNW 0.20 14.8 -14.1 --- --- 718.1 0.017 0.000 9.1 7 1
02/19/06 12:25 a -6.7 -6.6 -6.7 --- --- 12.2 NNW 0.20 13.9 -14.1 --- --- 718.0 0.017 0.000 9.1 7 1
02/19/06 12:26 a -6.7 -6.7 -6.8 --- --- 11.3 NNW 0.19 13.0 -13.9 --- --- 718.0 0.017 0.000 9.1 7 1
02/19/06 12:27 a -6.8 -6.7 -6.8 --- --- 11.3 NNW 0.19 13.0 -13.9 --- --- 718.0 0.017 0.000 9.1 7 1
02/19/06 12:28 a -6.7 -6.7 -6.7 --- --- 12.2 NNW 0.20 13.9 -14.1 --- --- 718.0 0.017 0.000 9.1 7 1
02/19/06 12:29 a -6.6 -6.6 -6.7 --- --- 13.0 NNW 0.22 14.8 -14.3 --- --- 718.0 0.017 0.000 9.1 7 1
02/19/06 12:30 a -6.7 -6.7 -6.7 --- --- 11.3 NNW 0.19 13.0 -13.8 --- --- 718.0 0.017 0.000 9.1 7 1
02/19/06 12:31 a -6.7 -6.6 -6.7 --- --- 12.2 NNW 0.20 13.0 -14.1 --- --- 718.1 0.017 0.000 9.1 7 1
02/19/06 12:32 a -6.7 -6.6 -6.7 --- --- 13.0 NNW 0.22 14.8 -14.3 --- --- 718.0 0.017 0.000 9.2 7 1
02/19/06 12:33 a -6.7 -6.7 -6.7 --- --- 12.2 NNW 0.20 14.8 -14.1 --- --- 718.0 0.017 0.000 9.2 7 1
02/19/06 12:34 a -6.7 -6.7 -6.8 --- --- 11.3 NNW 0.19 13.0 -13.9 --- --- 718.0 0.017 0.000 9.2 7 1
02/19/06 12:35 a -6.8 -6.8 -6.8 --- --- 11.3 NNW 0.19 13.9 -14.0 --- --- 718.0 0.017 0.000 9.2 7 1
02/19/06 12:36 a -6.9 -6.9 -6.9 --- --- 11.3 NNW 0.19 13.9 -14.1 --- --- 718.1 0.018 0.000 9.2 7 1
02/19/06 12:37 a -6.9 -6.9 -6.9 --- --- 13.0 NNW 0.22 14.8 -14.7 --- --- 718.1 0.018 0.000 9.2 7 1
02/19/06 12:38 a -7.0 -6.9 -7.0 --- --- 13.0 NNW 0.22 13.9 -14.7 --- --- 718.0 0.018 0.000 9.2 7 1
02/19/06 12:39 a -7.0 -6.9 -7.0 --- --- 13.0 NNW 0.22 15.7 -14.7 --- --- 718.1 0.018 0.000 9.1 7 1
02/19/06 12:40 a -6.8 -6.8 -6.8 --- --- 11.3 NNW 0.19 13.0 -14.0 --- --- 718.1 0.017 0.000 9.2 7 1
02/19/06 12:41 a -6.7 -6.7 -6.7 --- --- 13.0 NNW 0.22 15.7 -14.4 --- --- 718.1 0.017 0.000 9.2 7 1
02/19/06 12:42 a -6.8 -6.7 -6.8 --- --- 12.2 NNW 0.20 15.7 -14.2 --- --- 718.1 0.017 0.000 9.2 7 1
02/19/06 12:43 a -6.8 -6.8 -6.8 --- --- 12.2 NNW 0.20 13.9 -14.3 --- --- 718.1 0.017 0.000 9.2 7 1
02/19/06 12:44 a -6.8 -6.8 -6.8 --- --- 11.3 NNW 0.19 13.9 -13.9 --- --- 718.1 0.017 0.000 9.2 7 1
02/19/06 12:45 a -6.8 -6.8 -6.8 --- --- 14.8 NNW 0.25 20.0 -14.9 --- --- 718.1 0.017 0.000 9.2 7 1
02/19/06 12:46 a -6.8 -6.8 -6.8 --- --- 14.8 NNW 0.25 17.4 -14.9 --- --- 718.1 0.017 0.000 9.2 7 1
02/19/06 12:47 a -6.8 -6.8 -6.8 --- --- 12.2 NNW 0.20 15.7 -14.2 --- --- 718.1 0.017 0.000 9.2 7 1
02/19/06 12:48 a -6.8 -6.7 -6.8 --- --- 13.9 NNW 0.23 16.5 -14.7 --- --- 718.1 0.017 0.000 9.2 7 1
02/19/06 12:49 a -6.8 -6.8 -6.8 --- --- 15.7 NNW 0.26 17.4 -15.2 --- --- 718.1 0.017 0.000 9.2 7 1
02/19/06 12:50 a -6.8 -6.7 -6.8 --- --- 11.3 NNW 0.19 13.9 -13.9 --- --- 718.1 0.017 0.000 9.2 7 1
02/19/06 12:51 a -6.7 -6.7 -6.7 --- --- 11.3 NNW 0.19 13.0 -13.8 --- --- 718.1 0.017 0.000 9.2 7 1
02/19/06 12:52 a -6.7 -6.7 -6.7 --- --- 13.0 NNW 0.22 15.7 -14.3 --- --- 718.1 0.017 0.000 9.2 7 1
02/19/06 12:53 a -6.6 -6.6 -6.7 --- --- 12.2 NNW 0.20 15.7 -14.0 --- --- 718.1 0.017 0.000 9.2 7 1
02/19/06 12:54 a -6.6 -6.6 -6.6 --- --- 12.2 NNW 0.20 14.8 -13.9 --- --- 718.1 0.017 0.000 9.2 7 1
02/19/06 12:55 a -6.6 -6.6 -6.6 --- --- 11.3 NNW 0.19 13.9 -13.7 --- --- 718.2 0.017 0.000 9.2 7 1
02/19/06 12:56 a -6.6 -6.6 -6.6 --- --- 11.3 NNW 0.19 15.7 -13.7 --- --- 718.2 0.017 0.000 9.2 7 1
02/19/06 12:57 a -6.5 -6.4 -6.5 --- --- 11.3 NNW 0.19 18.3 -13.6 --- --- 718.2 0.017 0.000 9.2 7 1
02/19/06 12:58 a -6.4 -6.4 -6.4 --- --- 13.9 NNW 0.23 18.3 -14.3 --- --- 718.2 0.017 0.000 9.2 7 1
02/19/06 12:59 a -6.4 -6.4 -6.4 --- --- 10.4 NNW 0.17 11.3 -13.2 --- --- 718.1 0.017 0.000 9.2 7 1
02/19/06 1:00 a -6.4 -6.4 -6.4 --- --- 11.3 NNW 0.19 13.0 -13.4 --- --- 718.1 0.017 0.000 9.2 7 1
02/19/06 1:01 a -6.3 -6.3 -6.4 --- --- 11.3 NNW 0.19 13.9 -13.4 --- --- 718.2 0.017 0.000 9.2 7 1
02/19/06 1:02 a -6.3 -6.3 -6.3 --- --- 12.2 NNW 0.20 13.9 -13.7 --- --- 718.1 0.017 0.000 9.2 7 1
02/19/06 1:03 a -6.3 -6.3 -6.3 --- --- 13.9 NNW 0.23 16.5 -14.1 --- --- 718.1 0.017 0.000 9.2 7 1
02/19/06 1:04 a -6.3 -6.2 -6.3 --- --- 13.9 NNW 0.23 16.5 -14.1 --- --- 718.1 0.017 0.000 9.2 7 1
02/19/06 1:05 a -6.2 -6.1 -6.2 --- --- 17.4 NNW 0.29 20.0 -14.8 --- --- 718.1 0.017 0.000 9.2 7 1
02/19/06 1:06 a -6.1 -6.1 -6.1 --- --- 15.7 NNW 0.26 17.4 -14.3 --- --- 718.2 0.017 0.000 9.2 7 1
02/19/06 1:07 a -6.1 -6.1 -6.2 --- --- 14.8 NNW 0.25 16.5 -14.1 --- --- 718.1 0.017 0.000 9.2 7 1
02/19/06 1:08 a -6.2 -6.1 -6.2 --- --- 15.7 NNW 0.26 17.4 -14.4 --- --- 718.1 0.017 0.000 9.2 7 1
02/19/06 1:09 a -6.1 -6.1 -6.2 --- --- 15.7 NNW 0.26 17.4 -14.3 --- --- 718.1 0.017 0.000 9.2 7 1
02/19/06 1:10 a -6.2 -6.2 -6.2 --- --- 15.7 NNW 0.26 19.1 -14.4 --- --- 718.2 0.017 0.000 9.2 7 1
02/19/06 1:11 a -6.2 -6.2 -6.2 --- --- 13.0 NNW 0.22 15.7 -13.8 --- --- 718.2 0.017 0.000 9.2 7 1
02/19/06 1:12 a -6.1 -6.0 -6.1 --- --- 14.8 NNW 0.25 18.3 -14.0 --- --- 718.1 0.017 0.000 9.2 7 1
02/19/06 1:13 a -5.9 -5.9 -6.0 --- --- 14.8 NNW 0.25 17.4 -13.8 --- --- 718.0 0.017 0.000 9.2 7 1
02/19/06 1:14 a -5.8 -5.7 -5.8 --- --- 14.8 NNW 0.25 16.5 -13.7 --- --- 718.1 0.017 0.000 9.2 7 1
02/19/06 1:15 a -5.7 -5.7 -5.8 --- --- 18.3 NNW 0.30 20.0 -14.4 --- --- 718.0 0.017 0.000 9.2 7 1
02/19/06 1:16 a -5.8 -5.8 -5.9 --- --- 15.7 NNW 0.26 17.4 -13.9 --- --- 718.0 0.017 0.000 9.2 7 1
02/19/06 1:17 a -5.9 -5.9 -5.9 --- --- 19.1 NNW 0.32 21.7 -14.8 --- --- 718.1 0.017 0.000 9.2 7 1
02/19/06 1:18 a -6.0 -5.9 -6.0 --- --- 17.4 NNW 0.29 20.9 -14.6 --- --- 718.1 0.017 0.000 9.2 7 1
02/19/06 1:19 a -6.0 -6.0 -6.0 --- --- 16.5 NNW 0.28 17.4 -14.3 --- --- 718.0 0.017 0.000 9.2 7 1
02/19/06 1:20 a -5.9 -5.9 -5.9 --- --- 14.8 NNW 0.25 17.4 -13.8 --- --- 718.0 0.017 0.000 9.2 7 1
02/19/06 1:21 a -5.9 -5.9 -5.9 --- --- 15.7 NNW 0.26 19.1 -14.0 --- --- 718.1 0.017 0.000 9.2 7 1
02/19/06 1:22 a -5.9 -5.8 -5.9 --- --- 13.9 NW 0.23 14.8 -13.6 --- --- 718.0 0.017 0.000 9.2 7 1
02/19/06 1:23 a -5.8 -5.8 -5.9 --- --- 17.4 NW 0.29 22.6 -14.3 --- --- 718.0 0.017 0.000 9.2 7 1
02/19/06 1:24 a -5.9 -5.9 -6.0 --- --- 16.5 NW 0.28 19.1 -14.3 --- --- 718.1 0.017 0.000 9.2 7 1
02/19/06 1:25 a -6.0 -6.0 -6.0 --- --- 18.3 NNW 0.30 20.9 -14.7 --- --- 718.0 0.017 0.000 9.2 7 1
02/19/06 1:26 a -5.9 -5.9 -5.9 --- --- 17.4 NNW 0.29 20.9 -14.5 --- --- 718.0 0.017 0.000 9.2 7 1
02/19/06 1:27 a -5.9 -5.9 -6.0 --- --- 16.5 NNW 0.28 20.0 -14.3 --- --- 718.1 0.017 0.000 9.2 7 1
02/19/06 1:28 a -5.9 -5.8 -5.9 --- --- 16.5 NNW 0.28 19.1 -14.2 --- --- 718.1 0.017 0.000 9.2 7 1
02/19/06 1:29 a -5.8 -5.8 -5.8 --- --- 14.8 NW 0.25 16.5 -13.7 --- --- 718.1 0.017 0.000 9.2 7 1
02/19/06 1:30 a -5.7 -5.7 -5.7 --- --- 15.7 NNW 0.26 19.1 -13.7 --- --- 718.1 0.017 0.000 9.2 7 1
02/19/06 1:31 a -5.7 -5.7 -5.7 --- --- 14.8 NNW 0.25 17.4 -13.5 --- --- 718.1 0.017 0.000 9.2 7 1
02/19/06 1:32 a -5.9 -5.8 -5.9 --- --- 13.9 NNW 0.23 18.3 -13.6 --- --- 718.1 0.017 0.000 9.2 7 1
02/19/06 1:33 a -5.8 -5.8 -5.9 --- --- 16.5 NW 0.28 19.1 -14.1 --- --- 718.0 0.017 0.000 9.2 7 1
02/19/06 1:34 a -5.7 -5.7 -5.8 --- --- 16.5 NW 0.28 19.1 -14.0 --- --- 718.1 0.017 0.000 9.2 7 1
02/19/06 1:35 a -5.8 -5.8 -5.9 --- --- 18.3 NNW 0.30 20.9 -14.5 --- --- 718.0 0.017 0.000 9.2 7 1
02/19/06 1:36 a -6.0 -5.9 -6.1 --- --- 13.0 NNW 0.22 15.7 -13.4 --- --- 718.1 0.017 0.000 9.2 7 1
02/19/06 1:37 a -6.0 -6.0 -6.1 --- --- 16.5 NNW 0.28 20.0 -14.3 --- --- 718.0 0.017 0.000 9.2 7 1
02/19/06 1:38 a -5.9 -5.9 -5.9 --- --- 17.4 NNW 0.29 20.0 -14.4 --- --- 718.0 0.017 0.000 9.2 7 1
02/19/06 1:39 a -5.9 -5.9 -5.9 --- --- 16.5 NNW 0.28 20.0 -14.2 --- --- 718.0 0.017 0.000 9.2 7 1
02/19/06 1:40 a -5.9 -5.8 -5.9 --- --- 16.5 NW 0.28 19.1 -14.2 --- --- 718.0 0.017 0.000 9.2 7 1
02/19/06 1:41 a -5.8 -5.8 -5.8 --- --- 13.9 NNW 0.23 16.5 -13.5 --- --- 718.1 0.017 0.000 9.2 7 1
02/19/06 1:42 a -5.9 -5.9 -5.9 --- --- 17.4 NW 0.29 20.9 -14.4 --- --- 718.1 0.017 0.000 9.2 7 1
02/19/06 1:43 a -5.8 -5.7 -5.9 --- --- 13.9 NNW 0.23 16.5 -13.4 --- --- 718.1 0.017 0.000 9.2 7 1
02/19/06 1:44 a -5.7 -5.7 -5.8 --- --- 16.5 NNW 0.28 20.0 -14.0 --- --- 718.1 0.017 0.000 9.2 7 1
02/19/06 1:45 a -5.7 -5.7 -5.8 --- --- 18.3 NW 0.30 20.9 -14.4 --- --- 718.1 0.017 0.000 9.2 7 1
02/19/06 1:46 a -5.7 -5.7 -5.8 --- --- 14.8 NW 0.25 18.3 -13.6 --- --- 718.2 0.017 0.000 9.2 7 1
02/19/06 1:47 a -5.8 -5.7 -5.8 --- --- 17.4 NNW 0.29 20.9 -14.3 --- --- 718.1 0.017 0.000 9.2 7 1
02/19/06 1:48 a -5.8 -5.8 -5.8 --- --- 15.7 NNW 0.26 18.3 -13.9 --- --- 718.1 0.017 0.000 9.2 7 1
02/19/06 1:49 a -5.8 -5.8 -5.9 --- --- 18.3 NNW 0.30 22.6 -14.5 --- --- 718.1 0.017 0.000 9.2 7 1
02/19/06 1:50 a -5.9 -5.9 -5.9 --- --- 15.7 NW 0.26 19.1 -14.1 --- --- 718.1 0.017 0.000 9.2 7 1
02/19/06 1:51 a -5.9 -5.9 -6.0 --- --- 16.5 NNW 0.28 20.0 -14.3 --- --- 718.1 0.017 0.000 9.2 7 1
02/19/06 1:52 a -6.1 -6.0 -6.2 --- --- 14.8 NNW 0.25 16.5 -14.0 --- --- 718.1 0.017 0.000 9.2 7 1
02/19/06 1:53 a -6.2 -6.1 -6.2 --- --- 18.3 NNW 0.30 21.7 -14.9 --- --- 718.2 0.017 0.000 9.2 7 1
02/19/06 1:54 a -6.1 -6.0 -6.1 --- --- 15.7 NW 0.26 18.3 -14.2 --- --- 718.1 0.017 0.000 9.2 7 1
02/19/06 1:55 a -5.9 -5.9 -6.0 --- --- 16.5 NW 0.28 20.0 -14.3 --- --- 718.1 0.017 0.000 9.2 7 1
02/19/06 1:56 a -5.9 -5.8 -5.9 --- --- 17.4 NW 0.29 19.1 -14.4 --- --- 718.1 0.017 0.000 9.2 7 1
02/19/06 1:57 a -5.8 -5.7 -5.8 --- --- 17.4 NW 0.29 20.0 -14.3 --- --- 718.2 0.017 0.000 9.2 7 1
02/19/06 1:58 a -5.7 -5.7 -5.7 --- --- 13.9 NW 0.23 15.7 -13.3 --- --- 718.2 0.017 0.000 9.2 7 1
02/19/06 1:59 a -5.7 -5.7 -5.8 --- --- 16.5 NW 0.28 21.7 -14.0 --- --- 718.1 0.017 0.000 9.2 7 1
02/19/06 2:00 a -5.8 -5.8 -5.8 --- --- 20.0 NW 0.33 21.7 -14.9 --- --- 718.2 0.017 0.000 9.2 7 1
02/19/06 2:01 a -5.8 -5.8 -5.8 --- --- 17.4 NW 0.29 20.0 -14.3 --- --- 718.1 0.017 0.000 9.2 7 1
02/19/06 2:02 a -5.8 -5.8 -5.8 --- --- 15.7 NW 0.26 18.3 -13.9 --- --- 718.1 0.017 0.000 9.2 7 1
02/19/06 2:03 a -5.8 -5.8 -5.8 --- --- 15.7 NNW 0.26 21.7 -13.9 --- --- 718.1 0.017 0.000 9.2 7 1
02/19/06 2:04 a -5.8 -5.7 -5.8 --- --- 17.4 NW 0.29 21.7 -14.3 --- --- 718.1 0.017 0.000 9.2 7 1
02/19/06 2:05 a -5.8 -5.7 -5.8 --- --- 14.8 NW 0.25 19.1 -13.7 --- --- 718.1 0.017 0.000 9.2 7 1
02/19/06 2:06 a -5.7 -5.7 -5.8 --- --- 18.3 NW 0.30 21.7 -14.4 --- --- 718.1 0.017 0.000 9.2 7 1
02/19/06 2:07 a -5.7 -5.6 -5.7 --- --- 20.0 NNW 0.33 21.7 -14.7 --- --- 718.0 0.017 0.000 9.2 7 1
02/19/06 2:08 a -5.7 -5.7 -5.7 --- --- 17.4 NW 0.29 21.7 -14.2 --- --- 718.1 0.017 0.000 9.2 7 1
02/19/06 2:09 a -5.6 -5.5 -5.6 --- --- 14.8 NW 0.25 20.0 -13.3 --- --- 718.0 0.017 0.000 9.2 7 1
02/19/06 2:10 a -5.4 -5.4 -5.4 --- --- 14.8 NW 0.25 20.9 -13.2 --- --- 718.0 0.017 0.000 9.2 7 1
02/19/06 2:11 a -5.4 -5.4 -5.4 --- --- 16.5 NW 0.28 20.0 -13.6 --- --- 718.0 0.016 0.000 9.2 7 1
02/19/06 2:12 a -5.3 -5.3 -5.4 --- --- 17.4 NW 0.29 20.9 -13.7 --- --- 718.1 0.016 0.000 9.2 7 1
02/19/06 2:13 a -5.3 -5.3 -5.3 --- --- 14.8 NW 0.25 17.4 -13.0 --- --- 718.0 0.016 0.000 9.2 7 1
02/19/06 2:14 a -5.3 -5.3 -5.3 --- --- 19.1 NW 0.32 20.9 -13.9 --- --- 718.0 0.016 0.000 9.2 7 1
02/19/06 2:15 a -5.3 -5.3 -5.3 --- --- 15.7 NW 0.26 18.3 -13.2 --- --- 718.0 0.016 0.000 9.2 7 1
02/19/06 2:16 a -5.4 -5.3 -5.6 --- --- 16.5 NNW 0.28 21.7 -13.6 --- --- 718.0 0.016 0.000 9.2 7 1
02/19/06 2:17 a -5.6 -5.5 -5.6 --- --- 18.3 NW 0.30 20.9 -14.2 --- --- 718.1 0.017 0.000 9.2 7 1
02/19/06 2:18 a -5.5 -5.5 -5.5 --- --- 13.0 NW 0.22 15.7 -12.8 --- --- 718.0 0.017 0.000 9.2 7 1
02/19/06 2:19 a -5.5 -5.5 -5.6 --- --- 18.3 NW 0.30 20.9 -14.1 --- --- 718.1 0.017 0.000 9.2 7 1
02/19/06 2:20 a -5.6 -5.6 -5.6 --- --- 17.4 NW 0.29 22.6 -13.9 --- --- 718.1 0.017 0.000 9.2 7 1
02/19/06 2:21 a -5.6 -5.6 -5.6 --- --- 16.5 NW 0.28 20.9 -13.8 --- --- 718.0 0.017 0.000 9.2 7 1
02/19/06 2:22 a -5.6 -5.6 -5.6 --- --- 17.4 NNW 0.29 21.7 -14.1 --- --- 718.0 0.017 0.000 9.2 7 1
02/19/06 2:23 a -5.6 -5.6 -5.6 --- --- 18.3 NW 0.30 21.7 -14.2 --- --- 718.1 0.017 0.000 9.2 7 1
02/19/06 2:24 a -5.6 -5.6 -5.7 --- --- 17.4 NW 0.29 20.0 -14.1 --- --- 718.1 0.017 0.000 9.2 7 1
02/19/06 2:25 a -5.6 -5.6 -5.7 --- --- 19.1 NW 0.32 21.7 -14.4 --- --- 718.1 0.017 0.000 9.2 8 1
02/19/06 2:26 a -5.7 -5.6 -5.7 --- --- 18.3 NNW 0.30 22.6 -14.3 --- --- 718.2 0.017 0.000 9.2 7 1
02/19/06 2:27 a -5.7 -5.7 -5.7 --- --- 20.0 NW 0.33 22.6 -14.7 --- --- 718.0 0.017 0.000 9.2 8 1
02/19/06 2:28 a -5.7 -5.7 -5.7 --- --- 19.1 NW 0.32 25.2 -14.5 --- --- 718.0 0.017 0.000 9.2 7 1
02/19/06 2:29 a -5.8 -5.7 -5.8 --- --- 18.3 NW 0.30 21.7 -14.4 --- --- 718.0 0.017 0.000 9.2 7 1
02/19/06 2:30 a -5.8 -5.8 -5.8 --- --- 17.4 NW 0.29 20.9 -14.3 --- --- 718.1 0.017 0.000 9.2 7 1
02/19/06 2:31 a -5.8 -5.8 -5.9 --- --- 18.3 NNW 0.30 20.9 -14.5 --- --- 718.0 0.017 0.000 9.2 8 1
02/19/06 2:32 a -5.9 -5.9 -5.9 --- --- 16.5 NW 0.28 20.0 -14.3 --- --- 718.0 0.017 0.000 9.1 7 1
02/19/06 2:33 a -5.9 -5.9 -5.9 --- --- 17.4 NW 0.29 19.1 -14.5 --- --- 718.0 0.017 0.000 9.1 7 1
02/19/06 2:34 a -5.8 -5.8 -5.8 --- --- 16.5 NW 0.28 20.0 -14.1 --- --- 718.1 0.017 0.000 9.1 8 1
02/19/06 2:35 a -5.8 -5.8 -5.8 --- --- 16.5 NNW 0.28 20.9 -14.1 --- --- 718.1 0.017 0.000 9.1 8 1
02/19/06 2:36 a -5.9 -5.8 -5.9 --- --- 16.5 NNW 0.28 19.1 -14.2 --- --- 718.1 0.017 0.000 9.1 7 1
02/19/06 2:37 a -5.9 -5.9 -5.9 --- --- 14.8 NNW 0.25 19.1 -13.8 --- --- 718.1 0.017 0.000 9.1 8 1
02/19/06 2:38 a -6.0 -5.9 -6.0 --- --- 18.3 NNW 0.30 20.0 -14.7 --- --- 718.2 0.017 0.000 9.1 8 1
02/19/06 2:39 a -5.9 -5.9 -6.0 --- --- 15.7 NNW 0.26 18.3 -14.1 --- --- 718.1 0.017 0.000 9.1 7 1
02/19/06 2:40 a -6.0 -6.0 -6.1 --- --- 19.1 NNW 0.32 23.5 -14.9 --- --- 718.1 0.017 0.000 9.1 7 1
02/19/06 2:41 a -5.9 -5.9 -6.0 --- --- 15.7 NW 0.26 20.0 -14.1 --- --- 718.2 0.017 0.000 9.1 7 1
02/19/06 2:42 a -5.8 -5.8 -5.9 --- --- 17.4 NW 0.29 20.0 -14.3 --- --- 718.1 0.017 0.000 9.1 7 1
02/19/06 2:43 a -5.8 -5.8 -5.8 --- --- 19.1 NNW 0.32 20.9 -14.6 --- --- 718.1 0.017 0.000 9.1 8 1
02/19/06 2:44 a -5.7 -5.7 -5.8 --- --- 17.4 NW 0.29 20.9 -14.2 --- --- 718.1 0.017 0.000 9.1 7 1
02/19/06 2:45 a -5.7 -5.7 -5.7 --- --- 17.4 NW 0.29 20.9 -14.2 --- --- 718.1 0.017 0.000 9.1 7 1
02/19/06 2:46 a -5.6 -5.6 -5.7 --- --- 18.3 NNW 0.30 20.9 -14.2 --- --- 718.1 0.017 0.000 9.1 7 1
02/19/06 2:47 a -5.6 -5.6 -5.6 --- --- 16.5 NW 0.28 20.0 -13.8 --- --- 718.1 0.017 0.000 9.1 7 1
02/19/06 2:48 a -5.7 -5.7 -5.7 --- --- 19.1 NW 0.32 20.9 -14.5 --- --- 718.2 0.017 0.000 9.1 7 1
02/19/06 2:49 a -5.7 -5.7 -5.7 --- --- 14.8 NW 0.25 17.4 -13.6 --- --- 718.0 0.017 0.000 9.1 7 1
02/19/06 2:50 a -5.8 -5.8 -5.8 --- --- 17.4 NNW 0.29 20.0 -14.3 --- --- 718.0 0.017 0.000 9.1 7 1
02/19/06 2:51 a -5.8 -5.8 -5.8 --- --- 18.3 NNW 0.30 20.0 -14.5 --- --- 718.0 0.017 0.000 9.1 7 1
02/19/06 2:52 a -5.8 -5.8 -5.9 --- --- 16.5 NW 0.28 19.1 -14.1 --- --- 718.1 0.017 0.000 9.1 7 1
02/19/06 2:53 a -6.0 -6.0 -6.1 --- --- 18.3 NNW 0.30 24.3 -14.7 --- --- 718.1 0.017 0.000 9.1 7 1
02/19/06 2:54 a -6.1 -6.1 -6.1 --- --- 19.1 NW 0.32 20.9 -15.1 --- --- 718.1 0.017 0.000 9.1 8 1
02/19/06 2:55 a -6.0 -6.0 -6.1 --- --- 17.4 NNW 0.29 20.0 -14.6 --- --- 718.1 0.017 0.000 9.1 7 1
02/19/06 2:56 a -6.1 -6.1 -6.1 --- --- 15.7 NW 0.26 17.4 -14.2 --- --- 718.1 0.017 0.000 9.1 7 1
02/19/06 2:57 a -6.1 -6.1 -6.1 --- --- 13.0 NNW 0.22 15.7 -13.6 --- --- 718.2 0.017 0.000 9.1 7 1
02/19/06 2:58 a -6.0 -5.8 -6.1 --- --- 15.7 NNW 0.26 19.1 -14.2 --- --- 718.1 0.017 0.000 9.1 7 1
02/19/06 2:59 a -5.7 -5.7 -5.7 --- --- 18.3 NNW 0.30 21.7 -14.4 --- --- 718.1 0.017 0.000 9.1 7 1
02/19/06 3:00 a -5.8 -5.7 -5.9 --- --- 18.3 NNW 0.30 20.9 -14.4 --- --- 718.1 0.017 0.000 9.1 7 1
02/19/06 3:01 a -6.1 -5.9 -6.1 --- --- 14.8 NNW 0.25 17.4 -14.0 --- --- 718.1 0.017 0.000 9.1 7 1
02/19/06 3:02 a -6.1 -5.9 -6.1 --- --- 16.5 NW 0.28 20.0 -14.4 --- --- 718.1 0.017 0.000 9.2 7 1
02/19/06 3:03 a -5.8 -5.8 -5.9 --- --- 15.7 NNW 0.26 19.1 -13.9 --- --- 718.1 0.017 0.000 9.2 7 1
02/19/06 3:04 a -5.9 -5.9 -5.9 --- --- 17.4 NW 0.29 20.0 -14.5 --- --- 718.2 0.017 0.000 9.2 7 1
02/19/06 3:05 a -5.9 -5.8 -5.9 --- --- 19.1 NW 0.32 21.7 -14.8 --- --- 718.1 0.017 0.000 9.2 7 1
02/19/06 3:06 a -5.9 -5.8 -5.9 --- --- 18.3 NW 0.30 20.9 -14.6 --- --- 718.2 0.017 0.000 9.2 7 1
02/19/06 3:07 a -5.9 -5.9 -5.9 --- --- 15.7 NW 0.26 20.9 -14.0 --- --- 718.2 0.017 0.000 9.2 7 1
02/19/06 3:08 a -5.8 -5.8 -5.9 --- --- 18.3 NNW 0.30 20.0 -14.5 --- --- 718.2 0.017 0.000 9.2 7 1
02/19/06 3:09 a -5.8 -5.8 -5.8 --- --- 18.3 NNW 0.30 21.7 -14.5 --- --- 718.0 0.017 0.000 9.2 7 1
02/19/06 3:10 a -5.8 -5.8 -5.8 --- --- 20.0 NW 0.33 21.7 -14.9 --- --- 718.1 0.017 0.000 9.2 7 1
02/19/06 3:11 a -5.9 -5.8 -6.1 --- --- 17.4 NNW 0.29 24.3 -14.5 --- --- 718.2 0.017 0.000 9.2 7 1
02/19/06 3:12 a -6.1 -6.0 -6.1 --- --- 15.7 NW 0.26 20.0 -14.2 --- --- 718.3 0.017 0.000 9.1 7 1
02/19/06 3:13 a -5.9 -5.8 -6.0 --- --- 15.7 NNW 0.26 19.1 -14.1 --- --- 718.1 0.017 0.000 9.2 7 1
02/19/06 3:14 a -5.8 -5.8 -5.8 --- --- 20.0 NW 0.33 21.7 -14.8 --- --- 718.2 0.017 0.000 9.2 7 1
02/19/06 3:15 a -5.8 -5.7 -5.8 --- --- 20.0 NW 0.33 21.7 -14.9 --- --- 718.2 0.017 0.000 9.2 7 1
02/19/06 3:16 a -5.7 -5.7 -5.7 --- --- 15.7 NNW 0.26 16.5 -13.8 --- --- 718.3 0.017 0.000 9.2 7 1
02/19/06 3:17 a -5.8 -5.7 -5.8 --- --- 17.4 NW 0.29 20.9 -14.3 --- --- 718.3 0.017 0.000 9.2 7 1
02/19/06 3:18 a -5.8 -5.8 -5.8 --- --- 15.7 NW 0.26 20.0 -13.8 --- --- 718.3 0.017 0.000 9.2 7 1
02/19/06 3:19 a -5.9 -5.8 -6.1 --- --- 13.0 NNW 0.22 16.5 -13.4 --- --- 718.3 0.017 0.000 9.2 7 1
02/19/06 3:20 a -6.2 -6.1 -6.3 --- --- 14.8 NW 0.25 20.0 -14.2 --- --- 718.2 0.017 0.000 9.2 7 1
02/19/06 3:21 a -6.3 -6.3 -6.3 --- --- 13.9 NW 0.23 22.6 -14.1 --- --- 718.3 0.017 0.000 9.2 7 1
02/19/06 3:22 a -6.3 -6.3 -6.3 --- --- 18.3 NNW 0.30 20.9 -15.2 --- --- 718.2 0.017 0.000 9.2 7 1
02/19/06 3:23 a -6.4 -6.3 -6.4 --- --- 15.7 NNW 0.26 20.9 -14.7 --- --- 718.3 0.017 0.000 9.2 7 1
02/19/06 3:24 a -6.6 -6.4 -6.6 --- --- 15.7 NNW 0.26 20.9 -14.9 --- --- 718.2 0.017 0.000 9.2 7 1
02/19/06 3:25 a -6.6 -6.6 -6.6 --- --- 17.4 NW 0.29 20.9 -15.3 --- --- 718.2 0.017 0.000 9.2 7 1
02/19/06 3:26 a -6.6 -6.6 -6.6 --- --- 13.9 NNW 0.23 17.4 -14.4 --- --- 718.3 0.017 0.000 9.2 7 1
02/19/06 3:27 a -6.7 -6.6 -6.7 --- --- 14.8 NNW 0.25 20.0 -14.8 --- --- 718.2 0.017 0.000 9.2 7 1
02/19/06 3:28 a -6.8 -6.8 -6.8 --- --- 15.7 NNW 0.26 18.3 -15.2 --- --- 718.3 0.017 0.000 9.2 7 1
02/19/06 3:29 a -6.7 -6.7 -6.8 --- --- 11.3 NNW 0.19 13.0 -13.9 --- --- 718.3 0.017 0.000 9.2 7 1
02/19/06 3:30 a -6.7 -6.7 -6.7 --- --- 13.9 NW 0.23 16.5 -14.6 --- --- 718.3 0.017 0.000 9.2 7 1
02/19/06 3:31 a -6.6 -6.6 -6.6 --- --- 15.7 NW 0.26 19.1 -14.9 --- --- 718.3 0.017 0.000 9.2 7 1
02/19/06 3:32 a -6.6 -6.6 -6.6 --- --- 15.7 NW 0.26 20.9 -14.9 --- --- 718.4 0.017 0.000 9.2 7 1
02/19/06 3:33 a -6.6 -6.6 -6.6 --- --- 15.7 NW 0.26 19.1 -14.9 --- --- 718.2 0.017 0.000 9.2 7 1
02/19/06 3:34 a -6.6 -6.4 -6.6 --- --- 13.9 NNW 0.23 16.5 -14.4 --- --- 718.3 0.017 0.000 9.2 7 1
02/19/06 3:35 a -6.4 -6.4 -6.4 --- --- 12.2 NNW 0.20 15.7 -13.8 --- --- 718.2 0.017 0.000 9.2 7 1
02/19/06 3:36 a -6.4 -6.3 -6.5 --- --- 14.8 NNW 0.25 19.1 -14.5 --- --- 718.3 0.017 0.000 9.2 7 1
02/19/06 3:37 a -6.2 -6.2 -6.3 --- --- 11.3 NNW 0.19 16.5 -13.2 --- --- 718.3 0.017 0.000 9.2 7 1
02/19/06 3:38 a -6.2 -6.2 -6.3 --- --- 11.3 NNW 0.19 14.8 -13.2 --- --- 718.4 0.017 0.000 9.2 7 1
02/19/06 3:39 a -6.3 -6.3 -6.4 --- --- 13.9 NW 0.23 17.4 -14.1 --- --- 718.3 0.017 0.000 9.2 7 1
02/19/06 3:40 a -6.3 -6.2 -6.3 --- --- 13.0 NW 0.22 15.7 -13.8 --- --- 718.3 0.017 0.000 9.2 7 1
02/19/06 3:41 a -6.1 -5.9 -6.2 --- --- 14.8 NW 0.25 18.3 -14.0 --- --- 718.3 0.017 0.000 9.2 7 1
02/19/06 3:42 a -5.9 -5.9 -6.0 --- --- 15.7 NNW 0.26 20.9 -14.0 --- --- 718.3 0.017 0.000 9.2 7 1
02/19/06 3:43 a -6.1 -6.0 -6.2 --- --- 12.2 NW 0.20 16.5 -13.3 --- --- 718.3 0.017 0.000 9.2 7 1
02/19/06 3:44 a -6.1 -6.1 -6.2 --- --- 11.3 NW 0.19 13.9 -13.1 --- --- 718.3 0.017 0.000 9.2 7 1
02/19/06 3:45 a -5.9 -5.6 -6.1 --- --- 14.8 NNW 0.25 19.1 -13.8 --- --- 718.3 0.017 0.000 9.2 7 1
02/19/06 3:46 a -5.6 -5.6 -5.6 --- --- 13.9 NNW 0.23 18.3 -13.2 --- --- 718.3 0.017 0.000 9.3 7 1
02/19/06 3:47 a -5.8 -5.6 -6.1 --- --- 13.9 NNW 0.23 19.1 -13.5 --- --- 718.3 0.017 0.000 9.3 7 1
02/19/06 3:48 a -6.0 -5.8 -6.1 --- --- 15.7 NW 0.26 19.1 -14.2 --- --- 718.4 0.017 0.000 9.3 7 1
02/19/06 3:49 a -5.8 -5.7 -5.8 --- --- 17.4 NW 0.29 19.1 -14.3 --- --- 718.3 0.017 0.000 9.3 7 1
02/19/06 3:50 a -5.6 -5.5 -5.7 --- --- 14.8 NW 0.25 20.0 -13.3 --- --- 718.3 0.017 0.000 9.3 7 1
02/19/06 3:51 a -5.4 -5.4 -5.5 --- --- 16.5 NNW 0.28 20.0 -13.6 --- --- 718.3 0.017 0.000 9.3 7 1
02/19/06 3:52 a -5.4 -5.4 -5.6 --- --- 18.3 NNW 0.30 21.7 -14.0 --- --- 718.2 0.017 0.000 9.3 7 1
02/19/06 3:53 a -5.5 -5.4 -5.6 --- --- 14.8 NW 0.25 19.1 -13.3 --- --- 718.4 0.017 0.000 9.3 7 1
02/19/06 3:54 a -5.4 -5.4 -5.4 --- --- 14.8 NW 0.25 19.1 -13.2 --- --- 718.4 0.016 0.000 9.3 7 1
02/19/06 3:55 a -5.3 -5.3 -5.4 --- --- 15.7 NNW 0.26 20.0 -13.2 --- --- 718.4 0.016 0.000 9.3 7 1
02/19/06 3:56 a -5.2 -5.2 -5.3 --- --- 17.4 NNW 0.29 23.5 -13.5 --- --- 718.3 0.016 0.000 9.3 7 1
02/19/06 3:57 a -5.3 -5.3 -5.3 --- --- 14.8 NW 0.25 19.1 -13.0 --- --- 718.3 0.016 0.000 9.4 7 1
02/19/06 3:58 a -5.2 -5.2 -5.3 --- --- 13.9 NNW 0.23 16.5 -12.7 --- --- 718.3 0.016 0.000 9.4 7 1
02/19/06 3:59 a -5.3 -5.3 -5.4 --- --- 13.0 NW 0.22 19.1 -12.6 --- --- 718.3 0.016 0.000 9.4 7 1
02/19/06 4:00 a -5.2 -5.2 -5.2 --- --- 19.1 NW 0.32 20.9 -13.9 --- --- 718.3 0.016 0.000 9.4 7 1
02/19/06 4:01 a -5.2 -5.2 -5.2 --- --- 18.3 NW 0.30 20.0 -13.6 --- --- 718.4 0.016 0.000 9.4 7 1
02/19/06 4:02 a -5.1 -5.1 -5.1 --- --- 17.4 NW 0.29 20.9 -13.3 --- --- 718.3 0.016 0.000 9.4 7 1
02/19/06 4:03 a -5.2 -5.1 -5.3 --- --- 16.5 NW 0.28 20.9 -13.3 --- --- 718.4 0.016 0.000 9.4 7 1
02/19/06 4:04 a -5.3 -5.3 -5.3 --- --- 19.1 NW 0.32 20.9 -14.1 --- --- 718.4 0.016 0.000 9.4 7 1
02/19/06 4:05 a -5.3 -5.2 -5.3 --- --- 16.5 NW 0.28 20.0 -13.4 --- --- 718.4 0.016 0.000 9.4 7 1
02/19/06 4:07 a -5.4 -5.4 -5.4 --- --- 16.5 NW 0.28 18.3 -13.6 --- --- 718.4 0.016 0.000 9.4 7 1
02/19/06 4:08 a -5.4 -5.3 -5.4 --- --- 13.9 NW 0.23 19.1 -12.9 --- --- 718.4 0.016 0.000 9.4 7 1
02/19/06 4:09 a -5.3 -5.3 -5.3 --- --- 13.0 NW 0.22 15.7 -12.6 --- --- 718.4 0.016 0.000 9.4 7 1
02/19/06 4:10 a -5.3 -5.3 -5.3 --- --- 16.5 NW 0.28 20.9 -13.4 --- --- 718.4 0.016 0.000 9.4 7 1
02/19/06 4:11 a -5.2 -5.2 -5.3 --- --- 19.1 NW 0.32 20.9 -13.9 --- --- 718.3 0.016 0.000 9.4 7 1
02/19/06 4:12 a -5.2 -5.2 -5.2 --- --- 15.7 NW 0.26 20.0 -13.1 --- --- 718.4 0.016 0.000 9.4 7 1
02/19/06 4:13 a -5.2 -5.2 -5.3 --- --- 20.0 NW 0.33 20.9 -14.1 --- --- 718.4 0.016 0.000 9.4 7 1
02/19/06 4:14 a -5.3 -5.3 -5.4 --- --- 14.8 NW 0.25 19.1 -13.1 --- --- 718.3 0.016 0.000 9.4 7 1
02/19/06 4:15 a -5.4 -5.4 -5.4 --- --- 14.8 NW 0.25 19.1 -13.2 --- --- 718.4 0.016 0.000 9.4 7 1
02/19/06 4:16 a -5.5 -5.4 -5.6 --- --- 15.7 NNW 0.26 20.0 -13.5 --- --- 718.4 0.017 0.000 9.4 7 1
02/19/06 4:17 a -5.7 -5.6 -5.7 --- --- 18.3 NNW 0.30 22.6 -14.3 --- --- 718.3 0.017 0.000 9.4 7 1
02/19/06 4:18 a -5.8 -5.7 -5.8 --- --- 12.2 NNW 0.20 15.7 -12.9 --- --- 718.3 0.017 0.000 9.4 7 1
02/19/06 4:19 a -5.8 -5.8 -5.8 --- --- 18.3 NW 0.30 20.9 -14.4 --- --- 718.4 0.017 0.000 9.4 7 1
02/19/06 4:20 a -5.8 -5.8 -5.8 --- --- 18.3 NW 0.30 20.9 -14.4 --- --- 718.4 0.017 0.000 9.4 7 1
02/19/06 4:21 a -5.7 -5.7 -5.8 --- --- 18.3 NW 0.30 23.5 -14.4 --- --- 718.4 0.017 0.000 9.4 7 1
02/19/06 4:22 a -5.8 -5.8 -5.9 --- --- 16.5 NW 0.28 20.9 -14.1 --- --- 718.4 0.017 0.000 9.4 7 1
02/19/06 4:23 a -5.9 -5.9 -6.0 --- --- 18.3 NW 0.30 20.9 -14.7 --- --- 718.3 0.017 0.000 9.4 7 1
02/19/06 4:24 a -5.9 -5.8 -5.9 --- --- 15.7 NNW 0.26 18.3 -14.0 --- --- 718.5 0.017 0.000 9.4 7 1
02/19/06 4:25 a -5.9 -5.9 -6.0 --- --- 17.4 NW 0.29 20.0 -14.5 --- --- 718.4 0.017 0.000 9.4 7 1
02/19/06 4:26 a -6.0 -5.9 -6.0 --- --- 19.1 NW 0.32 21.7 -14.9 --- --- 718.4 0.017 0.000 9.4 7 1
02/19/06 4:27 a -5.9 -5.9 -6.0 --- --- 20.0 NW 0.33 21.7 -15.0 --- --- 718.3 0.017 0.000 9.4 7 1
02/19/06 4:28 a -5.9 -5.9 -5.9 --- --- 17.4 NNW 0.29 21.7 -14.4 --- --- 718.3 0.017 0.000 9.4 7 1
02/19/06 4:29 a -6.0 -6.0 -6.1 --- --- 19.1 NW 0.32 21.7 -14.9 --- --- 718.3 0.017 0.000 9.4 7 1
02/19/06 4:30 a -6.1 -6.1 -6.1 --- --- 18.3 NW 0.30 20.0 -14.9 --- --- 718.3 0.017 0.000 9.4 7 1
02/19/06 4:31 a -6.1 -6.1 -6.1 --- --- 19.1 NW 0.32 21.7 -15.0 --- --- 718.4 0.017 0.000 9.4 7 1
02/19/06 4:32 a -6.1 -6.1 -6.2 --- --- 17.4 NW 0.29 20.9 -14.7 --- --- 718.4 0.017 0.000 9.4 7 1
02/19/06 4:33 a -6.2 -6.2 -6.3 --- --- 17.4 NNW 0.29 21.7 -14.8 --- --- 718.3 0.017 0.000 9.4 7 1
02/19/06 4:34 a -6.3 -6.2 -6.3 --- --- 19.1 NW 0.32 20.9 -15.3 --- --- 718.4 0.017 0.000 9.4 7 1
02/19/06 4:35 a -6.2 -6.1 -6.2 --- --- 17.4 NW 0.29 19.1 -14.8 --- --- 718.3 0.017 0.000 9.4 7 1
02/19/06 4:36 a -6.1 -6.1 -6.2 --- --- 16.5 NW 0.28 21.7 -14.5 --- --- 718.4 0.017 0.000 9.4 7 1
02/19/06 4:37 a -6.2 -6.2 -6.2 --- --- 17.4 NNW 0.29 20.9 -14.8 --- --- 718.4 0.017 0.000 9.4 7 1
02/19/06 4:38 a -6.3 -6.3 -6.3 --- --- 19.1 NNW 0.32 20.9 -15.3 --- --- 718.4 0.017 0.000 9.4 7 1
02/19/06 4:39 a -6.3 -6.3 -6.3 --- --- 16.5 NNW 0.28 18.3 -14.8 --- --- 718.4 0.017 0.000 9.4 7 1
02/19/06 4:40 a -6.5 -6.4 -6.6 --- --- 14.8 NW 0.25 18.3 -14.6 --- --- 718.5 0.017 0.000 9.3 7 1
02/19/06 4:41 a -6.5 -6.5 -6.5 --- --- 16.5 NW 0.28 19.1 -15.0 --- --- 718.4 0.017 0.000 9.3 7 1
02/19/06 4:42 a -6.5 -6.5 -6.5 --- --- 17.4 NW 0.29 20.9 -15.2 --- --- 718.4 0.017 0.000 9.3 7 1
02/19/06 4:43 a -6.6 -6.6 -6.6 --- --- 15.7 NW 0.26 19.1 -14.9 --- --- 718.5 0.017 0.000 9.3 7 1
02/19/06 4:44 a -6.6 -6.6 -6.6 --- --- 14.8 NNW 0.25 17.4 -14.7 --- --- 718.5 0.017 0.000 9.3 7 1
02/19/06 4:45 a -6.6 -6.6 -6.7 --- --- 18.3 NNW 0.30 20.9 -15.6 --- --- 718.4 0.017 0.000 9.3 7 1
02/19/06 4:46 a -6.7 -6.7 -6.7 --- --- 20.0 NW 0.33 21.7 -16.0 --- --- 718.4 0.017 0.000 9.3 7 1
02/19/06 4:47 a -6.6 -6.6 -6.6 --- --- 14.8 NNW 0.25 19.1 -14.7 --- --- 718.4 0.017 0.000 9.3 7 1
02/19/06 4:48 a -6.7 -6.7 -6.7 --- --- 18.3 NW 0.30 20.9 -15.6 --- --- 718.3 0.017 0.000 9.3 7 1
02/19/06 4:49 a -6.8 -6.7 -6.8 --- --- 18.3 NW 0.30 20.9 -15.8 --- --- 718.3 0.017 0.000 9.3 7 1
02/19/06 4:50 a -6.7 -6.7 -6.8 --- --- 13.0 NW 0.22 15.7 -14.4 --- --- 718.4 0.017 0.000 9.3 7 1
02/19/06 4:51 a -6.7 -6.7 -6.7 --- --- 18.3 NNW 0.30 20.9 -15.7 --- --- 718.4 0.017 0.000 9.3 7 1
02/19/06 4:52 a -6.8 -6.7 -6.8 --- --- 14.8 NNW 0.25 18.3 -14.9 --- --- 718.5 0.017 0.000 9.3 7 1
02/19/06 4:53 a -6.9 -6.8 -6.9 --- --- 17.4 NNW 0.29 23.5 -15.7 --- --- 718.5 0.018 0.000 9.3 7 1
02/19/06 4:54 a -6.9 -6.9 -6.9 --- --- 19.1 NNW 0.32 20.9 -16.2 --- --- 718.5 0.018 0.000 9.3 7 1
02/19/06 4:55 a -6.9 -6.9 -6.9 --- --- 19.1 NNW 0.32 22.6 -16.2 --- --- 718.5 0.018 0.000 9.3 7 1
02/19/06 4:56 a -7.0 -6.9 -7.0 --- --- 13.0 NNW 0.22 19.1 -14.7 --- --- 718.5 0.018 0.000 9.3 7 1
02/19/06 4:57 a -7.0 -7.0 -7.1 --- --- 16.5 NNW 0.28 19.1 -15.7 --- --- 718.5 0.018 0.000 9.3 7 1
02/19/06 4:58 a -7.1 -7.1 -7.1 --- --- 13.0 NNW 0.22 14.8 -14.8 --- --- 718.6 0.018 0.000 9.3 7 1
02/19/06 4:59 a -7.1 -7.1 -7.1 --- --- 14.8 NNW 0.25 18.3 -15.3 --- --- 718.6 0.018 0.000 9.3 7 1
02/19/06 5:00 a -7.1 -7.1 -7.1 --- --- 12.2 NW 0.20 13.0 -14.6 --- --- 718.6 0.018 0.000 9.3 7 1
02/19/06 5:01 a -7.1 -7.1 -7.1 --- --- 13.0 NNW 0.22 17.4 -14.8 --- --- 718.5 0.018 0.000 9.3 7 1
02/19/06 5:02 a -7.1 -7.1 -7.2 --- --- 12.2 N 0.20 16.5 -14.6 --- --- 718.6 0.018 0.000 9.3 7 1
02/19/06 5:03 a -7.2 -7.2 -7.2 --- --- 10.4 NNW 0.17 14.8 -14.1 --- --- 718.5 0.018 0.000 9.3 7 1
02/19/06 5:04 a -7.2 -7.2 -7.2 --- --- 11.3 NW 0.19 13.0 -14.4 --- --- 718.6 0.018 0.000 9.3 7 1
02/19/06 5:05 a -7.2 -7.1 -7.2 --- --- 13.9 NNW 0.23 18.3 -15.2 --- --- 718.6 0.018 0.000 9.3 7 1
02/19/06 5:06 a -7.1 -7.1 -7.1 --- --- 14.8 NNW 0.25 16.5 -15.4 --- --- 718.6 0.018 0.000 9.3 7 1
02/19/06 5:07 a -7.2 -7.1 -7.2 --- --- 9.6 NNW 0.16 14.8 -13.8 --- --- 718.5 0.018 0.000 9.3 7 1
02/19/06 5:08 a -7.2 -7.1 -7.2 --- --- 10.4 NW 0.17 15.7 -14.1 --- --- 718.6 0.018 0.000 9.3 7 1
02/19/06 5:09 a -7.1 -7.1 -7.1 --- --- 14.8 NNW 0.25 17.4 -15.3 --- --- 718.6 0.018 0.000 9.3 7 1
02/19/06 5:10 a -7.1 -7.1 -7.2 --- --- 10.4 NNW 0.17 13.9 -14.1 --- --- 718.6 0.018 0.000 9.3 7 1
02/19/06 5:11 a -7.1 -7.1 -7.2 --- --- 13.0 NNW 0.22 19.1 -14.9 --- --- 718.6 0.018 0.000 9.3 7 1
02/19/06 5:12 a -7.1 -7.1 -7.1 --- --- 11.3 NNW 0.19 13.9 -14.3 --- --- 718.7 0.018 0.000 9.3 7 1
02/19/06 5:13 a -7.1 -7.1 -7.1 --- --- 11.3 NNW 0.19 13.0 -14.3 --- --- 718.6 0.018 0.000 9.3 7 1
02/19/06 5:14 a -7.2 -7.2 -7.2 --- --- 11.3 NNW 0.19 13.9 -14.4 --- --- 718.6 0.018 0.000 9.3 7 1
02/19/06 5:15 a -7.2 -7.2 -7.2 --- --- 13.0 NNW 0.22 20.0 -15.1 --- --- 718.7 0.018 0.000 9.3 7 1
02/19/06 5:16 a -7.2 -7.2 -7.3 --- --- 14.8 NNW 0.25 18.3 -15.5 --- --- 718.7 0.018 0.000 9.3 7 1
02/19/06 5:17 a -7.2 -7.2 -7.3 --- --- 12.2 NNW 0.20 15.7 -14.8 --- --- 718.7 0.018 0.000 9.3 7 1
02/19/06 5:18 a -7.3 -7.3 -7.3 --- --- 11.3 NNW 0.19 13.9 -14.7 --- --- 718.6 0.018 0.000 9.3 7 1
02/19/06 5:19 a -7.3 -7.2 -7.3 --- --- 15.7 NNW 0.26 19.1 -15.8 --- --- 718.6 0.018 0.000 9.3 7 1
02/19/06 5:20 a -7.2 -7.2 -7.2 --- --- 13.0 NW 0.22 16.5 -15.1 --- --- 718.7 0.018 0.000 9.3 7 1
02/19/06 5:21 a -7.2 -7.2 -7.2 --- --- 12.2 NNW 0.20 14.8 -14.7 --- --- 718.7 0.018 0.000 9.3 7 1
02/19/06 5:22 a -7.2 -7.2 -7.2 --- --- 13.0 NNW 0.22 16.5 -15.1 --- --- 718.6 0.018 0.000 9.3 7 1
02/19/06 5:23 a -7.2 -7.2 -7.3 --- --- 13.9 NNW 0.23 17.4 -15.3 --- --- 718.6 0.018 0.000 9.3 7 1
02/19/06 5:24 a -7.3 -7.3 -7.3 --- --- 15.7 NNW 0.26 17.4 -15.9 --- --- 718.6 0.018 0.000 9.3 7 1
02/19/06 5:25 a -7.3 -7.3 -7.4 --- --- 14.8 NNW 0.25 19.1 -15.7 --- --- 718.6 0.018 0.000 9.3 7 1
02/19/06 5:26 a -7.3 -7.3 -7.4 --- --- 14.8 NNW 0.25 19.1 -15.7 --- --- 718.7 0.018 0.000 9.3 7 1
02/19/06 5:27 a -7.3 -7.3 -7.3 --- --- 15.7 NNW 0.26 20.0 -15.9 --- --- 718.6 0.018 0.000 9.3 7 1
02/19/06 5:28 a -7.2 -7.2 -7.3 --- --- 14.8 NNW 0.25 18.3 -15.5 --- --- 718.7 0.018 0.000 9.3 7 1
02/19/06 5:29 a -7.2 -7.2 -7.3 --- --- 13.0 NNW 0.22 20.0 -15.1 --- --- 718.7 0.018 0.000 9.3 7 1
02/19/06 5:30 a -7.3 -7.3 -7.3 --- --- 15.7 NNW 0.26 20.0 -15.8 --- --- 718.6 0.018 0.000 9.3 7 1
02/19/06 5:31 a -7.3 -7.2 -7.3 --- --- 12.2 NW 0.20 16.5 -14.8 --- --- 718.7 0.018 0.000 9.3 7 1
02/19/06 5:32 a -7.2 -7.2 -7.2 --- --- 19.1 NW 0.32 20.9 -16.4 --- --- 718.5 0.018 0.000 9.3 7 1
02/19/06 5:33 a -7.1 -7.1 -7.2 --- --- 15.7 NNW 0.26 20.9 -15.6 --- --- 718.6 0.018 0.000 9.3 7 1
02/19/06 5:34 a -7.1 -7.1 -7.1 --- --- 15.7 NNW 0.26 18.3 -15.5 --- --- 718.6 0.018 0.000 9.3 7 1
02/19/06 5:35 a -7.1 -7.1 -7.1 --- --- 15.7 NW 0.26 23.5 -15.5 --- --- 718.5 0.018 0.000 9.3 7 1
02/19/06 5:36 a -7.0 -7.0 -7.1 --- --- 18.3 NW 0.30 21.7 -16.1 --- --- 718.6 0.018 0.000 9.3 7 1
02/19/06 5:37 a -7.1 -7.0 -7.1 --- --- 15.7 NNW 0.26 20.0 -15.5 --- --- 718.6 0.018 0.000 9.3 7 1
02/19/06 5:38 a -7.1 -7.0 -7.1 --- --- 18.3 NNW 0.30 21.7 -16.1 --- --- 718.6 0.018 0.000 9.3 7 1
02/19/06 5:39 a -7.0 -6.9 -7.1 --- --- 19.1 NW 0.32 22.6 -16.2 --- --- 718.6 0.018 0.000 9.3 7 1
02/19/06 5:40 a -6.9 -6.9 -6.9 --- --- 19.1 NW 0.32 22.6 -16.2 --- --- 718.6 0.018 0.000 9.2 7 1
02/19/06 5:41 a -6.9 -6.9 -7.0 --- --- 13.9 NNW 0.23 20.9 -14.9 --- --- 718.7 0.018 0.000 9.2 7 1
02/19/06 5:42 a -7.1 -7.0 -7.1 --- --- 13.0 NNW 0.22 16.5 -14.8 --- --- 718.7 0.018 0.000 9.2 7 1
02/19/06 5:43 a -7.1 -7.0 -7.1 --- --- 18.3 NW 0.30 20.0 -16.1 --- --- 718.7 0.018 0.000 9.2 7 1
02/19/06 5:44 a -7.0 -6.9 -7.0 --- --- 17.4 NW 0.29 20.0 -15.8 --- --- 718.7 0.018 0.000 9.2 7 1
02/19/06 5:45 a -6.9 -6.9 -6.9 --- --- 18.3 NW 0.30 20.9 -16.0 --- --- 718.7 0.018 0.000 9.2 7 1
02/19/06 5:46 a -6.9 -6.9 -6.9 --- --- 13.0 NW 0.22 16.5 -14.6 --- --- 718.7 0.018 0.000 9.2 7 1
02/19/06 5:47 a -7.0 -6.9 -7.1 --- --- 15.7 NNW 0.26 22.6 -15.4 --- --- 718.6 0.018 0.000 9.2 7 1
02/19/06 5:48 a -7.1 -7.1 -7.1 --- --- 19.1 NW 0.32 21.7 -16.3 --- --- 718.7 0.018 0.000 9.2 7 1
02/19/06 5:49 a -7.1 -7.0 -7.1 --- --- 16.5 NNW 0.28 19.1 -15.7 --- --- 718.7 0.018 0.000 9.2 7 1
02/19/06 5:50 a -7.0 -6.9 -7.0 --- --- 19.1 NW 0.32 20.9 -16.2 --- --- 718.7 0.018 0.000 9.2 7 1
02/19/06 5:51 a -6.9 -6.9 -6.9 --- --- 16.5 NW 0.28 20.0 -15.6 --- --- 718.7 0.018 0.000 9.2 7 1
02/19/06 5:52 a -6.9 -6.9 -6.9 --- --- 16.5 NNW 0.28 20.9 -15.6 --- --- 718.7 0.018 0.000 9.2 7 1
02/19/06 5:53 a -6.9 -6.9 -7.0 --- --- 19.1 NW 0.32 22.6 -16.2 --- --- 718.6 0.018 0.000 9.2 7 1
02/19/06 5:54 a -7.0 -6.9 -7.0 --- --- 20.0 NW 0.33 20.9 -16.4 --- --- 718.7 0.018 0.000 9.2 7 1
02/19/06 5:55 a -6.9 -6.9 -6.9 --- --- 19.1 NNW 0.32 20.9 -16.2 --- --- 718.7 0.018 0.000 9.2 7 1
02/19/06 5:56 a -6.9 -6.9 -7.0 --- --- 18.3 NNW 0.30 20.9 -16.0 --- --- 718.7 0.018 0.000 9.2 7 1
02/19/06 5:57 a -7.0 -7.0 -7.0 --- --- 16.5 NW 0.28 20.0 -15.7 --- --- 718.7 0.018 0.000 9.2 7 1
02/19/06 5:58 a -7.0 -6.9 -7.0 --- --- 19.1 NW 0.32 21.7 -16.2 --- --- 718.7 0.018 0.000 9.2 7 1
02/19/06 5:59 a -6.9 -6.9 -7.0 --- --- 18.3 NW 0.30 21.7 -16.0 --- --- 718.8 0.018 0.000 9.2 7 1
02/19/06 6:00 a -7.0 -6.9 -7.0 --- --- 18.3 NW 0.30 20.9 -16.1 --- --- 718.9 0.018 0.000 9.2 7 1
02/19/06 6:01 a -7.0 -7.0 -7.1 --- --- 17.4 NNW 0.29 20.0 -15.8 --- --- 718.9 0.018 0.000 9.2 7 1
02/19/06 6:02 a -7.1 -7.1 -7.1 --- --- 17.4 NNW 0.29 20.0 -15.9 --- --- 718.9 0.018 0.000 9.2 7 1
02/19/06 6:03 a -7.1 -7.1 -7.1 --- --- 16.5 NNW 0.28 20.9 -15.7 --- --- 718.8 0.018 0.000 9.2 7 1
02/19/06 6:04 a -7.1 -7.1 -7.1 --- --- 13.0 NNW 0.22 18.3 -14.8 --- --- 718.9 0.018 0.000 9.2 7 1
02/19/06 6:05 a -7.1 -7.1 -7.1 --- --- 17.4 NNW 0.29 20.9 -15.9 --- --- 718.8 0.018 0.000 9.2 7 1
02/19/06 6:06 a -7.1 -7.0 -7.1 --- --- 15.7 NW 0.26 20.0 -15.5 --- --- 718.9 0.018 0.000 9.2 7 1
02/19/06 6:07 a -7.0 -7.0 -7.0 --- --- 14.8 NNW 0.25 16.5 -15.2 --- --- 718.8 0.018 0.000 9.2 7 1
02/19/06 6:08 a -7.0 -7.0 -7.0 --- --- 14.8 NNW 0.25 18.3 -15.2 --- --- 718.8 0.018 0.000 9.2 7 1
02/19/06 6:09 a -7.0 -7.0 -7.0 --- --- 17.4 NW 0.29 20.0 -15.8 --- --- 718.8 0.018 0.000 9.2 7 1
02/19/06 6:10 a -7.0 -6.9 -7.0 --- --- 17.4 NNW 0.29 20.0 -15.8 --- --- 718.9 0.018 0.000 9.2 7 1
02/19/06 6:11 a -7.0 -7.0 -7.0 --- --- 13.9 NNW 0.23 15.7 -15.0 --- --- 718.9 0.018 0.000 9.2 7 1
02/19/06 6:12 a -6.9 -6.9 -7.0 --- --- 16.5 NW 0.28 20.0 -15.6 --- --- 718.8 0.018 0.000 9.1 7 1
02/19/06 6:13 a -6.9 -6.9 -6.9 --- --- 13.9 NNW 0.23 15.7 -14.9 --- --- 718.9 0.018 0.000 9.1 7 1
02/19/06 6:14 a -7.0 -7.0 -7.1 --- --- 12.2 NNW 0.20 14.8 -14.5 --- --- 718.9 0.018 0.000 9.1 7 1
02/19/06 6:15 a -7.1 -7.1 -7.1 --- --- 13.0 NNW 0.22 14.8 -14.8 --- --- 718.9 0.018 0.000 9.2 7 1
02/19/06 6:16 a -7.0 -7.0 -7.1 --- --- 14.8 NW 0.25 18.3 -15.2 --- --- 718.9 0.018 0.000 9.1 7 1
02/19/06 6:17 a -7.0 -7.0 -7.1 --- --- 14.8 NW 0.25 18.3 -15.2 --- --- 718.9 0.018 0.000 9.1 7 1
02/19/06 6:18 a -7.1 -7.1 -7.1 --- --- 13.9 NW 0.23 17.4 -15.1 --- --- 718.9 0.018 0.000 9.1 7 1
02/19/06 6:19 a -7.1 -7.1 -7.1 --- --- 17.4 NNW 0.29 19.1 -15.9 --- --- 718.9 0.018 0.000 9.1 7 1
02/19/06 6:20 a -7.1 -7.1 -7.1 --- --- 13.0 NW 0.22 16.5 -14.8 --- --- 719.0 0.018 0.000 9.1 7 1
02/19/06 6:21 a -7.1 -7.1 -7.2 --- --- 13.9 NNW 0.23 17.4 -15.1 --- --- 719.0 0.018 0.000 9.1 7 1
02/19/06 6:22 a -7.1 -7.1 -7.1 --- --- 13.9 NNW 0.23 18.3 -15.1 --- --- 719.0 0.018 0.000 9.1 7 1
02/19/06 6:23 a -7.1 -7.1 -7.2 --- --- 12.2 NNW 0.20 16.5 -14.6 --- --- 719.0 0.018 0.000 9.1 7 1
02/19/06 6:24 a -7.2 -7.1 -7.2 --- --- 14.8 NNW 0.25 15.7 -15.4 --- --- 718.9 0.018 0.000 9.1 7 1
02/19/06 6:25 a -7.1 -7.1 -7.1 --- --- 15.7 NW 0.26 19.1 -15.6 --- --- 719.0 0.018 0.000 9.2 7 1
02/19/06 6:26 a -7.1 -7.1 -7.1 --- --- 12.2 NW 0.20 13.9 -14.6 --- --- 719.0 0.018 0.000 9.2 7 1
02/19/06 6:27 a -7.1 -7.1 -7.1 --- --- 14.8 NNW 0.25 17.4 -15.4 --- --- 719.0 0.018 0.000 9.2 7 1
02/19/06 6:28 a -7.1 -7.1 -7.1 --- --- 15.7 NW 0.26 17.4 -15.5 --- --- 719.0 0.018 0.000 9.2 7 1
02/19/06 6:29 a -7.1 -7.1 -7.1 --- --- 17.4 NNW 0.29 20.0 -15.9 --- --- 719.0 0.018 0.000 9.1 7 1
02/19/06 6:30 a -7.1 -7.1 -7.2 --- --- 13.0 NNW 0.22 16.5 -14.9 --- --- 719.0 0.018 0.000 9.1 7 1
02/19/06 6:31 a -7.1 -7.1 -7.1 --- --- 14.8 NNW 0.25 15.7 -15.4 --- --- 719.0 0.018 0.000 9.1 7 1
02/19/06 6:32 a -7.1 -7.1 -7.1 --- --- 15.7 NNW 0.26 17.4 -15.6 --- --- 719.0 0.018 0.000 9.1 7 1
02/19/06 6:33 a -7.1 -7.1 -7.1 --- --- 12.2 NNW 0.20 15.7 -14.6 --- --- 719.0 0.018 0.000 9.1 7 1
02/19/06 6:34 a -7.1 -7.1 -7.1 --- --- 16.5 NNW 0.28 19.1 -15.8 --- --- 719.0 0.018 0.000 9.1 7 1
02/19/06 6:35 a -7.1 -7.1 -7.1 --- --- 15.7 NNW 0.26 18.3 -15.5 --- --- 719.0 0.018 0.000 9.1 7 1
02/19/06 6:36 a -7.1 -7.1 -7.1 --- --- 14.8 NW 0.25 17.4 -15.4 --- --- 719.0 0.018 0.000 9.1 7 1
02/19/06 6:37 a -7.1 -7.1 -7.1 --- --- 13.9 NNW 0.23 15.7 -15.1 --- --- 719.1 0.018 0.000 9.1 7 1
02/19/06 6:38 a -7.2 -7.1 -7.2 --- --- 14.8 NNW 0.25 17.4 -15.4 --- --- 719.2 0.018 0.000 9.1 7 1
02/19/06 6:39 a -7.2 -7.2 -7.2 --- --- 10.4 NNW 0.17 14.8 -14.1 --- --- 719.1 0.018 0.000 9.1 7 1
02/19/06 6:40 a -7.2 -7.2 -7.2 --- --- 12.2 NNW 0.20 14.8 -14.7 --- --- 719.1 0.018 0.000 9.1 7 1
02/19/06 6:41 a -7.2 -7.2 -7.2 --- --- 15.7 NNW 0.26 18.3 -15.7 --- --- 719.0 0.018 0.000 9.1 7 1
02/19/06 6:42 a -7.2 -7.2 -7.2 --- --- 11.3 NNW 0.19 15.7 -14.4 --- --- 719.0 0.018 0.000 9.1 7 1
02/19/06 6:43 a -7.2 -7.2 -7.2 --- --- 13.0 NNW 0.22 15.7 -14.9 --- --- 719.1 0.018 0.000 9.1 7 1
02/19/06 6:44 a -7.2 -7.2 -7.2 --- --- 13.0 NNW 0.22 15.7 -15.1 --- --- 719.1 0.018 0.000 9.1 7 1
02/19/06 6:45 a -7.2 -7.2 -7.3 --- --- 9.6 NNW 0.16 11.3 -13.9 --- --- 719.1 0.018 0.000 9.1 7 1
02/19/06 6:46 a -7.2 -7.2 -7.2 --- --- 12.2 NNW 0.20 13.9 -14.8 --- --- 719.1 0.018 0.000 9.2 7 1
02/19/06 6:47 a -7.2 -7.2 -7.2 --- --- 13.9 NNW 0.23 15.7 -15.2 --- --- 719.0 0.018 0.000 9.2 7 1
02/19/06 6:48 a -7.2 -7.2 -7.2 --- --- 14.8 NNW 0.25 16.5 -15.4 --- --- 719.1 0.018 0.000 9.2 7 1
02/19/06 6:49 a -7.2 -7.2 -7.2 --- --- 13.0 NNW 0.22 16.5 -14.9 --- --- 719.1 0.018 0.000 9.2 7 1
02/19/06 6:50 a -7.2 -7.2 -7.2 --- --- 11.3 NNW 0.19 13.9 -14.5 --- --- 719.2 0.018 0.000 9.2 7 1
02/19/06 6:51 a -7.2 -7.2 -7.2 --- --- 13.0 NNW 0.22 15.7 -15.1 --- --- 719.1 0.018 0.000 9.2 7 1
02/19/06 6:52 a -7.2 -7.2 -7.3 --- --- 12.2 NNW 0.20 13.9 -14.8 --- --- 719.2 0.018 0.000 9.2 7 1
02/19/06 6:53 a -7.3 -7.2 -7.3 --- --- 12.2 NNW 0.20 13.9 -14.8 --- --- 719.2 0.018 0.000 9.2 7 1
02/19/06 6:54 a -7.3 -7.2 -7.3 --- --- 12.2 NNW 0.20 13.9 -14.8 --- --- 719.2 0.018 0.000 9.2 7 1
02/19/06 6:55 a -7.3 -7.2 -7.3 --- --- 13.0 NNW 0.22 15.7 -15.1 --- --- 719.2 0.018 0.000 9.2 7 1
02/19/06 6:56 a -7.3 -7.3 -7.3 --- --- 13.9 NNW 0.23 17.4 -15.4 --- --- 719.2 0.018 0.000 9.2 7 1
02/19/06 6:57 a -7.3 -7.3 -7.4 --- --- 13.0 NNW 0.22 17.4 -15.2 --- --- 719.3 0.018 0.000 9.2 7 1
02/19/06 6:58 a -7.3 -7.3 -7.4 --- --- 13.9 NNW 0.23 17.4 -15.4 --- --- 719.2 0.018 0.000 9.2 7 1
02/19/06 6:59 a -7.3 -7.3 -7.4 --- --- 11.3 NNW 0.19 13.0 -14.7 --- --- 719.2 0.018 0.000 9.2 7 1
02/19/06 7:00 a -7.3 -7.3 -7.3 --- --- 10.4 N 0.17 14.8 -14.3 --- --- 719.2 0.018 0.000 9.2 7 1
02/19/06 7:01 a -7.3 -7.3 -7.3 --- --- 14.8 NNW 0.25 17.4 -15.7 --- --- 719.2 0.018 0.000 9.2 7 1
02/19/06 7:02 a -7.3 -7.3 -7.3 --- --- 13.9 NNW 0.23 14.8 -15.4 --- --- 719.2 0.018 0.000 9.2 7 1
02/19/06 7:03 a -7.3 -7.3 -7.3 --- --- 13.0 NNW 0.22 15.7 -15.2 --- --- 719.2 0.018 0.000 9.2 7 1
02/19/06 7:04 a -7.4 -7.3 -7.4 --- --- 13.9 NNW 0.23 16.5 -15.5 --- --- 719.2 0.018 0.000 9.2 7 1
02/19/06 7:05 a -7.3 -7.3 -7.4 --- --- 13.9 NNW 0.23 18.3 -15.4 --- --- 719.2 0.018 0.000 9.2 7 1
02/19/06 7:06 a -7.3 -7.3 -7.3 --- --- 12.2 NNW 0.20 14.8 -14.9 --- --- 719.2 0.018 0.000 9.2 7 1
02/19/06 7:07 a -7.3 -7.3 -7.4 --- --- 13.9 NNW 0.23 16.5 -15.4 --- --- 719.2 0.018 0.000 9.2 7 1
02/19/06 7:08 a -7.3 -7.3 -7.4 --- --- 14.8 NNW 0.25 16.5 -15.7 --- --- 719.2 0.018 0.000 9.2 7 1
02/19/06 7:09 a -7.3 -7.3 -7.3 --- --- 13.9 NNW 0.23 15.7 -15.3 --- --- 719.3 0.018 0.000 9.2 7 1
02/19/06 7:10 a -7.3 -7.3 -7.3 --- --- 15.7 NNW 0.26 18.3 -15.8 --- --- 719.3 0.018 0.000 9.2 7 1
02/19/06 7:11 a -7.4 -7.3 -7.4 --- --- 13.9 NNW 0.23 17.4 -15.5 --- --- 719.2 0.018 0.000 9.2 7 1
02/19/06 7:12 a -7.3 -7.3 -7.3 --- --- 15.7 NNW 0.26 19.1 -15.9 --- --- 719.2 0.018 0.000 9.2 7 1
02/19/06 7:13 a -7.3 -7.3 -7.3 --- --- 12.2 NNW 0.20 14.8 -14.9 --- --- 719.2 0.018 0.000 9.2 7 1
02/19/06 7:14 a -7.3 -7.3 -7.3 --- --- 11.3 NNW 0.19 13.0 -14.7 --- --- 719.2 0.018 0.000 9.2 7 1
02/19/06 7:15 a -7.3 -7.2 -7.3 --- --- 16.5 NNW 0.28 17.4 -16.0 --- --- 719.2 0.018 0.000 9.2 7 1
02/19/06 7:16 a -7.3 -7.3 -7.3 --- --- 16.5 NNW 0.28 19.1 -16.1 --- --- 719.2 0.018 0.000 9.2 7 1
02/19/06 7:17 a -7.3 -7.3 -7.3 --- --- 12.2 NNW 0.20 13.9 -14.8 --- --- 719.2 0.018 0.000 9.2 7 1
02/19/06 7:18 a -7.3 -7.3 -7.4 --- --- 12.2 NNW 0.20 14.8 -14.9 --- --- 719.2 0.018 0.000 9.2 7 1
02/19/06 7:19 a -7.4 -7.4 -7.4 --- --- 14.8 NNW 0.25 15.7 -15.7 --- --- 719.2 0.018 0.000 9.2 7 1
02/19/06 7:20 a -7.4 -7.3 -7.4 --- --- 13.9 NNW 0.23 16.5 -15.5 --- --- 719.2 0.018 0.000 9.2 7 1
02/19/06 7:21 a -7.4 -7.4 -7.4 --- --- 13.9 NNW 0.23 16.5 -15.5 --- --- 719.2 0.018 0.000 9.2 7 1
02/19/06 7:22 a -7.4 -7.4 -7.4 --- --- 13.0 NNW 0.22 15.7 -15.2 --- --- 719.3 0.018 0.000 9.2 7 1
02/19/06 7:23 a -7.4 -7.4 -7.4 --- --- 12.2 NNW 0.20 13.9 -15.0 --- --- 719.2 0.018 0.000 9.2 7 1
02/19/06 7:24 a -7.4 -7.3 -7.4 --- --- 14.8 NNW 0.25 18.3 -15.7 --- --- 719.2 0.018 0.000 9.2 7 1
02/19/06 7:25 a -7.4 -7.4 -7.4 --- --- 14.8 NNW 0.25 16.5 -15.7 --- --- 719.2 0.018 0.000 9.2 7 1
02/19/06 7:26 a -7.4 -7.3 -7.4 --- --- 12.2 NNW 0.20 14.8 -15.0 --- --- 719.3 0.018 0.000 9.2 7 1
02/19/06 7:27 a -7.4 -7.4 -7.4 --- --- 13.0 NNW 0.22 13.9 -15.2 --- --- 719.2 0.018 0.000 9.2 7 1
02/19/06 7:28 a -7.4 -7.4 -7.4 --- --- 12.2 NNW 0.20 13.0 -15.0 --- --- 719.2 0.018 0.000 9.2 7 1
02/19/06 7:29 a -7.4 -7.4 -7.4 --- --- 12.2 NNW 0.20 14.8 -15.0 --- --- 719.3 0.018 0.000 9.2 7 1
02/19/06 7:30 a -7.4 -7.4 -7.4 --- --- 13.0 NNW 0.22 16.5 -15.2 --- --- 719.2 0.018 0.000 9.2 7 1
02/19/06 7:31 a -7.3 -7.3 -7.4 --- --- 13.9 NNW 0.23 16.5 -15.4 --- --- 719.2 0.018 0.000 9.2 7 1
02/19/06 7:32 a -7.4 -7.4 -7.4 --- --- 13.9 NNW 0.23 15.7 -15.5 --- --- 719.3 0.018 0.000 9.2 7 1
02/19/06 7:33 a -7.4 -7.3 -7.4 --- --- 14.8 NNW 0.25 16.5 -15.7 --- --- 719.3 0.018 0.000 9.2 7 1
02/19/06 7:34 a -7.3 -7.3 -7.3 --- --- 13.0 NNW 0.22 16.5 -15.2 --- --- 719.2 0.018 0.000 9.2 7 1
02/19/06 7:35 a -7.3 -7.3 -7.4 --- --- 14.8 NNW 0.25 15.7 -15.7 --- --- 719.2 0.018 0.000 9.2 7 1
02/19/06 7:36 a -7.3 -7.3 -7.4 --- --- 14.8 NNW 0.25 15.7 -15.7 --- --- 719.2 0.018 0.000 9.2 7 1
02/19/06 7:37 a -7.3 -7.3 -7.3 --- --- 13.9 NNW 0.23 15.7 -15.4 --- --- 719.2 0.018 0.000 9.2 7 1
02/19/06 7:38 a -7.3 -7.3 -7.4 --- --- 13.0 NNW 0.22 15.7 -15.2 --- --- 719.3 0.018 0.000 9.2 7 1
02/19/06 7:39 a -7.3 -7.3 -7.4 --- --- 13.9 NNW 0.23 19.1 -15.4 --- --- 719.2 0.018 0.000 9.2 7 1
02/19/06 7:40 a -7.3 -7.3 -7.4 --- --- 14.8 NNW 0.25 19.1 -15.7 --- --- 719.3 0.018 0.000 9.2 7 1
02/19/06 7:41 a -7.3 -7.3 -7.4 --- --- 11.3 NNW 0.19 14.8 -14.7 --- --- 719.2 0.018 0.000 9.2 7 1
02/19/06 7:42 a -7.4 -7.4 -7.4 --- --- 12.2 NNW 0.20 14.8 -15.0 --- --- 719.2 0.018 0.000 9.2 7 1
02/19/06 7:43 a -7.4 -7.4 -7.4 --- --- 13.9 NNW 0.23 15.7 -15.5 --- --- 719.2 0.018 0.000 9.2 7 1
02/19/06 7:44 a -7.4 -7.4 -7.4 --- --- 14.8 NNW 0.25 16.5 -15.7 --- --- 719.2 0.018 0.000 9.2 7 1
02/19/06 7:45 a -7.4 -7.4 -7.4 --- --- 14.8 NNW 0.25 18.3 -15.8 --- --- 719.2 0.018 0.000 9.2 7 1
02/19/06 7:46 a -7.4 -7.4 -7.5 --- --- 13.9 NNW 0.23 15.7 -15.6 --- --- 719.2 0.018 0.000 9.2 7 1
02/19/06 7:47 a -7.5 -7.5 -7.5 --- --- 12.2 NNW 0.20 14.8 -15.1 --- --- 719.3 0.018 0.000 9.2 7 1
02/19/06 7:48 a -7.5 -7.5 -7.5 --- --- 13.0 NNW 0.22 15.7 -15.4 --- --- 719.3 0.018 0.000 9.2 7 1
02/19/06 7:49 a -7.5 -7.5 -7.5 --- --- 15.7 NNW 0.26 18.3 -16.1 --- --- 719.3 0.018 0.000 9.2 7 1
02/19/06 7:50 a -7.4 -7.4 -7.4 --- --- 16.5 NNW 0.28 19.1 -16.2 --- --- 719.2 0.018 0.000 9.2 7 1
02/19/06 7:51 a -7.5 -7.4 -7.5 --- --- 13.9 NNW 0.23 17.4 -15.6 --- --- 719.3 0.018 0.000 9.2 7 1
02/19/06 7:52 a -7.5 -7.5 -7.6 --- --- 12.2 NNW 0.20 13.0 -15.1 --- --- 719.3 0.018 0.000 9.2 7 1
02/19/06 7:53 a -7.6 -7.6 -7.6 --- --- 13.0 NNW 0.22 14.8 -15.4 --- --- 719.3 0.018 0.000 9.2 7 1
02/19/06 7:54 a -7.6 -7.5 -7.6 --- --- 12.2 NNW 0.20 14.8 -15.2 --- --- 719.3 0.018 0.000 9.2 7 1
02/19/06 7:55 a -7.6 -7.6 -7.6 --- --- 13.9 NNW 0.23 16.5 -15.7 --- --- 719.3 0.018 0.000 9.2 7 1
02/19/06 7:56 a -7.6 -7.6 -7.6 --- --- 10.4 NNW 0.17 13.0 -14.6 --- --- 719.3 0.018 0.000 9.2 7 1
02/19/06 7:57 a -7.6 -7.6 -7.6 --- --- 13.0 NNW 0.22 16.5 -15.6 --- --- 719.4 0.018 0.000 9.2 7 1
02/19/06 7:58 a -7.6 -7.6 -7.6 --- --- 11.3 NNW 0.19 13.9 -15.0 --- --- 719.4 0.018 0.000 9.2 7 1
02/19/06 7:59 a -7.6 -7.6 -7.6 --- --- 8.7 N 0.14 11.3 -14.1 --- --- 719.4 0.018 0.000 9.2 7 1
02/19/06 8:00 a -7.6 -7.5 -7.6 --- --- 12.2 NNW 0.20 13.9 -15.2 --- --- 719.4 0.018 0.000 9.2 7 1
02/19/06 8:01 a -7.6 -7.6 -7.6 --- --- 10.4 NNW 0.17 12.2 -14.6 --- --- 719.3 0.018 0.000 9.2 7 1
02/19/06 8:02 a -7.6 -7.6 -7.6 --- --- 13.9 NNW 0.23 20.0 -15.7 --- --- 719.4 0.018 0.000 9.2 7 1
02/19/06 8:03 a -7.6 -7.6 -7.6 --- --- 14.8 NNW 0.25 19.1 -15.9 --- --- 719.4 0.018 0.000 9.2 7 1
02/19/06 8:04 a -7.6 -7.6 -7.6 --- --- 13.0 NNW 0.22 19.1 -15.4 --- --- 719.3 0.018 0.000 9.2 7 1
02/19/06 8:05 a -7.6 -7.6 -7.6 --- --- 10.4 NNW 0.17 13.0 -14.7 --- --- 719.3 0.018 0.000 9.2 7 1
02/19/06 8:06 a -7.7 -7.7 -7.7 --- --- 11.3 NNW 0.19 13.0 -15.1 --- --- 719.3 0.018 0.000 9.2 7 1
02/19/06 8:07 a -7.7 -7.7 -7.7 --- --- 14.8 NNW 0.25 17.4 -16.1 --- --- 719.4 0.018 0.000 9.2 7 1
02/19/06 8:08 a -7.6 -7.6 -7.7 --- --- 13.9 NNW 0.23 16.5 -15.8 --- --- 719.4 0.018 0.000 9.2 7 1
02/19/06 8:09 a -7.6 -7.6 -7.7 --- --- 11.3 NNW 0.19 13.0 -15.0 --- --- 719.4 0.018 0.000 9.2 7 1
02/19/06 8:10 a -7.7 -7.6 -7.7 --- --- 10.4 NNW 0.17 12.2 -14.8 --- --- 719.3 0.018 0.000 9.2 7 1
02/19/06 8:11 a -7.6 -7.6 -7.7 --- --- 13.9 NNW 0.23 16.5 -15.8 --- --- 719.3 0.018 0.000 9.2 7 1
02/19/06 8:12 a -7.7 -7.7 -7.7 --- --- 12.2 NNW 0.20 13.9 -15.3 --- --- 719.4 0.018 0.000 9.2 7 1
02/19/06 8:13 a -7.7 -7.6 -7.7 --- --- 13.0 NNW 0.22 14.8 -15.6 --- --- 719.4 0.018 0.000 9.2 7 1
02/19/06 8:14 a -7.6 -7.6 -7.6 --- --- 13.0 NNW 0.22 15.7 -15.6 --- --- 719.3 0.018 0.000 9.2 7 1
02/19/06 8:15 a -7.6 -7.6 -7.7 --- --- 13.9 NNW 0.23 15.7 -15.8 --- --- 719.4 0.018 0.000 9.2 7 1
02/19/06 8:16 a -7.6 -7.6 -7.6 --- --- 13.0 NNW 0.22 14.8 -15.6 --- --- 719.3 0.018 0.000 9.2 7 1
02/19/06 8:17 a -7.7 -7.6 -7.7 --- --- 12.2 NNW 0.20 14.8 -15.3 --- --- 719.4 0.018 0.000 9.2 7 1
02/19/06 8:18 a -7.7 -7.6 -7.7 --- --- 13.9 NNW 0.23 16.5 -15.8 --- --- 719.4 0.018 0.000 9.2 7 1
02/19/06 8:19 a -7.7 -7.6 -7.7 --- --- 12.2 NNW 0.20 13.9 -15.3 --- --- 719.4 0.018 0.000 9.2 7 1
02/19/06 8:20 a -7.7 -7.7 -7.7 --- --- 13.0 NNW 0.22 15.7 -15.6 --- --- 719.4 0.018 0.000 9.2 7 1
02/19/06 8:21 a -7.7 -7.6 -7.7 --- --- 12.2 NNW 0.20 14.8 -15.3 --- --- 719.5 0.018 0.000 9.2 7 1
02/19/06 8:22 a -7.7 -7.7 -7.7 --- --- 13.9 NNW 0.23 15.7 -15.8 --- --- 719.4 0.018 0.000 9.2 7 1
02/19/06 8:23 a -7.7 -7.7 -7.7 --- --- 13.9 NNW 0.23 15.7 -15.8 --- --- 719.4 0.018 0.000 9.2 7 1
02/19/06 8:24 a -7.7 -7.7 -7.7 --- --- 12.2 NNW 0.20 13.0 -15.3 --- --- 719.5 0.018 0.000 9.2 7 1
02/19/06 8:25 a -7.7 -7.7 -7.7 --- --- 13.0 NNW 0.22 15.7 -15.6 --- --- 719.4 0.018 0.000 9.2 7 1
02/19/06 8:26 a -7.7 -7.6 -7.7 --- --- 15.7 NNW 0.26 19.1 -16.3 --- --- 719.4 0.018 0.000 9.2 7 1
02/19/06 8:27 a -7.7 -7.6 -7.7 --- --- 13.0 NNW 0.22 14.8 -15.6 --- --- 719.5 0.018 0.000 9.2 7 1
02/19/06 8:28 a -7.7 -7.7 -7.7 --- --- 12.2 NNW 0.20 13.9 -15.3 --- --- 719.4 0.018 0.000 9.2 7 1
02/19/06 8:29 a -7.7 -7.7 -7.7 --- --- 13.9 NNW 0.23 18.3 -15.8 --- --- 719.5 0.018 0.000 9.2 7 1
02/19/06 8:30 a -7.7 -7.6 -7.7 --- --- 11.3 NNW 0.19 14.8 -15.1 --- --- 719.4 0.018 0.000 9.2 7 1
02/19/06 8:31 a -7.6 -7.6 -7.7 --- --- 13.0 NNW 0.22 14.8 -15.6 --- --- 719.5 0.018 0.000 9.2 7 1
02/19/06 8:32 a -7.7 -7.7 -7.7 --- --- 12.2 NNW 0.20 13.9 -15.3 --- --- 719.5 0.018 0.000 9.2 7 1
02/19/06 8:33 a -7.7 -7.7 -7.8 --- --- 13.0 NNW 0.22 14.8 -15.7 --- --- 719.5 0.018 0.000 9.2 7 1
02/19/06 8:34 a -7.7 -7.7 -7.7 --- --- 13.0 NNW 0.22 14.8 -15.7 --- --- 719.6 0.018 0.000 9.2 7 1
02/19/06 8:35 a -7.7 -7.7 -7.7 --- --- 10.4 NNW 0.17 12.2 -14.8 --- --- 719.5 0.018 0.000 9.2 7 1
02/19/06 8:36 a -7.7 -7.7 -7.7 --- --- 11.3 NNW 0.19 12.2 -15.1 --- --- 719.5 0.018 0.000 9.2 7 1
02/19/06 8:37 a -7.7 -7.7 -7.7 --- --- 11.3 NNW 0.19 14.8 -15.1 --- --- 719.5 0.018 0.000 9.2 7 1
02/19/06 8:38 a -7.8 -7.7 -7.8 --- --- 8.7 N 0.14 10.4 -14.2 --- --- 719.5 0.018 0.000 9.2 7 1
02/19/06 8:39 a -7.8 -7.8 -7.8 --- --- 13.9 NNW 0.23 16.5 -16.0 --- --- 719.4 0.018 0.000 9.2 7 1
02/19/06 8:40 a -7.8 -7.8 -7.8 --- --- 13.0 NNW 0.22 13.9 -15.7 --- --- 719.4 0.018 0.000 9.2 7 1
02/19/06 8:41 a -7.8 -7.8 -7.8 --- --- 13.0 NNW 0.22 14.8 -15.7 --- --- 719.4 0.018 0.000 9.2 7 1
02/19/06 8:42 a -7.8 -7.8 -7.8 --- --- 10.4 NNW 0.17 13.9 -14.9 --- --- 719.5 0.018 0.000 9.2 7 1
02/19/06 8:43 a -7.8 -7.8 -7.8 --- --- 9.6 NNW 0.16 11.3 -14.6 --- --- 719.5 0.018 0.000 9.2 7 1
02/19/06 8:44 a -7.7 -7.7 -7.8 --- --- 12.2 NNW 0.20 14.8 -15.4 --- --- 719.4 0.018 0.000 9.2 7 1
02/19/06 8:45 a -7.7 -7.7 -7.7 --- --- 11.3 NNW 0.19 13.9 -15.1 --- --- 719.5 0.018 0.000 9.2 7 1
02/19/06 8:46 a -7.7 -7.7 -7.8 --- --- 12.2 NNW 0.20 13.0 -15.4 --- --- 719.5 0.018 0.000 9.2 7 1
02/19/06 8:47 a -7.8 -7.8 -7.8 --- --- 11.3 NNW 0.19 13.9 -15.2 --- --- 719.4 0.018 0.000 9.2 7 1
02/19/06 8:48 a -7.8 -7.7 -7.8 --- --- 11.3 NNW 0.19 12.2 -15.2 --- --- 719.5 0.018 0.000 9.2 7 1
02/19/06 8:49 a -7.8 -7.7 -7.8 --- --- 11.3 NNW 0.19 13.0 -15.2 --- --- 719.5 0.018 0.000 9.2 7 1
02/19/06 8:50 a -7.7 -7.7 -7.7 --- --- 11.3 NNW 0.19 13.9 -15.1 --- --- 719.5 0.018 0.000 9.2 7 1
02/19/06 8:51 a -7.8 -7.7 -7.8 --- --- 13.9 NNW 0.23 16.5 -16.0 --- --- 719.5 0.018 0.000 9.2 7 1
02/19/06 8:52 a -7.8 -7.8 -7.8 --- --- 13.0 NNW 0.22 13.9 -15.7 --- --- 719.5 0.018 0.000 9.2 7 1
02/19/06 8:53 a -7.8 -7.8 -7.8 --- --- 12.2 NNW 0.20 14.8 -15.5 --- --- 719.5 0.018 0.000 9.2 7 1
02/19/06 8:54 a -7.8 -7.8 -7.8 --- --- 13.0 NNW 0.22 15.7 -15.7 --- --- 719.5 0.018 0.000 9.2 7 1
02/19/06 8:55 a -7.8 -7.8 -7.8 --- --- 12.2 NNW 0.20 15.7 -15.5 --- --- 719.5 0.018 0.000 9.2 7 1
02/19/06 8:56 a -7.7 -7.7 -7.7 --- --- 13.9 NNW 0.23 15.7 -15.9 --- --- 719.5 0.018 0.000 9.2 7 1
02/19/06 8:57 a -7.7 -7.7 -7.7 --- --- 9.6 NNW 0.16 13.0 -14.5 --- --- 719.5 0.018 0.000 9.2 7 1
02/19/06 8:58 a -7.7 -7.7 -7.7 --- --- 11.3 NNW 0.19 14.8 -15.1 --- --- 719.6 0.018 0.000 9.2 7 1
02/19/06 8:59 a -7.7 -7.7 -7.8 --- --- 12.2 NNW 0.20 14.8 -15.4 --- --- 719.5 0.018 0.000 9.2 7 1
02/19/06 9:00 a -7.8 -7.7 -7.8 --- --- 13.0 NNW 0.22 15.7 -15.7 --- --- 719.5 0.018 0.000 9.2 7 1
02/19/06 9:01 a -7.8 -7.7 -7.8 --- --- 11.3 NNW 0.19 13.0 -15.2 --- --- 719.6 0.018 0.000 9.2 7 1
02/19/06 9:02 a -7.8 -7.7 -7.8 --- --- 13.0 NNW 0.22 16.5 -15.7 --- --- 719.5 0.018 0.000 9.2 7 1
02/19/06 9:03 a -7.8 -7.8 -7.8 --- --- 16.5 NNW 0.28 17.4 -16.7 --- --- 719.5 0.018 0.000 9.2 7 1
02/19/06 9:04 a -7.8 -7.8 -7.8 --- --- 11.3 NNW 0.19 14.8 -15.2 --- --- 719.6 0.018 0.000 9.2 7 1
02/19/06 9:05 a -7.8 -7.8 -7.8 --- --- 12.2 NNW 0.20 17.4 -15.5 --- --- 719.5 0.018 0.000 9.2 7 1
02/19/06 9:06 a -7.8 -7.8 -7.8 --- --- 13.9 NNW 0.23 16.5 -16.0 --- --- 719.5 0.018 0.000 9.2 7 1
02/19/06 9:07 a -7.8 -7.8 -7.8 --- --- 13.0 NNW 0.22 15.7 -15.8 --- --- 719.5 0.018 0.000 9.2 7 1
02/19/06 9:08 a -7.8 -7.8 -7.8 --- --- 12.2 NNW 0.20 13.0 -15.6 --- --- 719.6 0.018 0.000 9.2 7 1
02/19/06 9:09 a -7.8 -7.8 -7.8 --- --- 13.9 NNW 0.23 17.4 -16.0 --- --- 719.5 0.018 0.000 9.2 7 1
02/19/06 9:10 a -7.8 -7.7 -7.8 --- --- 12.2 NNW 0.20 14.8 -15.5 --- --- 719.6 0.018 0.000 9.2 7 1
02/19/06 9:11 a -7.7 -7.7 -7.7 --- --- 13.0 NNW 0.22 16.5 -15.7 --- --- 719.5 0.018 0.000 9.2 7 1
02/19/06 9:12 a -7.7 -7.7 -7.7 --- --- 13.9 NNW 0.23 16.5 -15.8 --- --- 719.6 0.018 0.000 9.2 7 1
02/19/06 9:13 a -7.7 -7.7 -7.7 --- --- 12.2 NNW 0.20 15.7 -15.3 --- --- 719.6 0.018 0.000 9.2 7 1
02/19/06 9:14 a -7.6 -7.6 -7.7 --- --- 13.9 NNW 0.23 17.4 -15.8 --- --- 719.5 0.018 0.000 9.2 7 1
02/19/06 9:15 a -7.6 -7.6 -7.6 --- --- 11.3 NNW 0.19 14.8 -15.0 --- --- 719.6 0.018 0.000 9.2 7 1
02/19/06 9:16 a -7.7 -7.7 -7.7 --- --- 13.0 NNW 0.22 16.5 -15.6 --- --- 719.6 0.018 0.000 9.2 7 1
02/19/06 9:17 a -7.7 -7.7 -7.7 --- --- 14.8 NNW 0.25 17.4 -16.2 --- --- 719.6 0.018 0.000 9.2 7 1
02/19/06 9:18 a -7.8 -7.7 -7.8 --- --- 12.2 NNW 0.20 14.8 -15.5 --- --- 719.5 0.018 0.000 9.2 7 1
02/19/06 9:19 a -7.8 -7.8 -7.8 --- --- 11.3 NNW 0.19 13.0 -15.2 --- --- 719.6 0.018 0.000 9.2 7 1
02/19/06 9:20 a -7.8 -7.8 -7.8 --- --- 13.0 NNW 0.22 16.5 -15.7 --- --- 719.6 0.018 0.000 9.2 7 1
02/19/06 9:21 a -7.8 -7.8 -7.8 --- --- 13.0 NNW 0.22 17.4 -15.8 --- --- 719.6 0.018 0.000 9.2 7 1
02/19/06 9:22 a -7.8 -7.8 -7.8 --- --- 14.8 NNW 0.25 17.4 -16.3 --- --- 719.6 0.018 0.000 9.2 7 1
02/19/06 9:23 a -7.8 -7.8 -7.8 --- --- 13.9 NNW 0.23 16.5 -16.0 --- --- 719.6 0.018 0.000 9.2 7 1
02/19/06 9:24 a -7.8 -7.8 -7.8 --- --- 13.0 NNW 0.22 14.8 -15.7 --- --- 719.6 0.018 0.000 9.2 7 1
02/19/06 9:25 a -7.8 -7.8 -7.8 --- --- 11.3 NNW 0.19 13.0 -15.3 --- --- 719.7 0.018 0.000 9.2 7 1
02/19/06 9:26 a -7.8 -7.8 -7.8 --- --- 11.3 NNW 0.19 13.0 -15.3 --- --- 719.6 0.018 0.000 9.2 7 1
02/19/06 9:27 a -7.8 -7.8 -7.8 --- --- 11.3 NNW 0.19 12.2 -15.3 --- --- 719.7 0.018 0.000 9.2 7 1
02/19/06 9:28 a -7.8 -7.8 -7.9 --- --- 13.0 NNW 0.22 14.8 -15.8 --- --- 719.7 0.018 0.000 9.2 7 1
02/19/06 9:29 a -7.8 -7.8 -7.9 --- --- 12.2 NNW 0.20 13.9 -15.6 --- --- 719.7 0.018 0.000 9.2 7 1
02/19/06 9:30 a -7.8 -7.8 -7.8 --- --- 16.5 NNW 0.28 20.0 -16.7 --- --- 719.6 0.018 0.000 9.2 7 1
02/19/06 9:31 a -7.8 -7.8 -7.8 --- --- 13.0 NNW 0.22 15.7 -15.8 --- --- 719.7 0.018 0.000 9.2 7 1
02/19/06 9:32 a -7.8 -7.8 -7.8 --- --- 12.2 NNW 0.20 15.7 -15.6 --- --- 719.7 0.018 0.000 9.2 7 1
02/19/06 9:33 a -7.8 -7.8 -7.9 --- --- 17.4 NNW 0.29 20.9 -16.9 --- --- 719.6 0.018 0.000 9.2 7 1
02/19/06 9:34 a -7.8 -7.8 -7.8 --- --- 15.7 NNW 0.26 18.3 -16.6 --- --- 719.6 0.018 0.000 9.2 7 1
02/19/06 9:35 a -7.9 -7.8 -7.9 --- --- 14.8 NNW 0.25 16.5 -16.4 --- --- 719.6 0.018 0.000 9.2 7 1
02/19/06 9:36 a -7.9 -7.9 -7.9 --- --- 16.5 NNW 0.28 19.1 -16.9 --- --- 719.7 0.018 0.000 9.2 7 1
02/19/06 9:37 a -7.9 -7.9 -7.9 --- --- 13.9 NNW 0.23 16.5 -16.2 --- --- 719.7 0.018 0.000 9.2 7 1
02/19/06 9:38 a -7.9 -7.9 -7.9 --- --- 12.2 NNW 0.20 15.7 -15.7 --- --- 719.8 0.018 0.000 9.2 7 1
02/19/06 9:39 a -8.0 -7.9 -8.0 --- --- 13.9 NNW 0.23 18.3 -16.3 --- --- 719.7 0.018 0.000 9.2 7 1
02/19/06 9:40 a -8.1 -8.0 -8.1 --- --- 14.8 NNW 0.25 16.5 -16.6 --- --- 719.8 0.018 0.000 9.2 7 1
02/19/06 9:41 a -8.1 -8.0 -8.1 --- --- 14.8 NNW 0.25 16.5 -16.6 --- --- 719.7 0.018 0.000 9.2 7 1
02/19/06 9:42 a -8.1 -8.1 -8.1 --- --- 13.9 NNW 0.23 16.5 -16.3 --- --- 719.8 0.018 0.000 9.2 7 1
02/19/06 9:43 a -8.1 -8.0 -8.1 --- --- 12.2 NNW 0.20 13.9 -15.8 --- --- 719.8 0.018 0.000 9.2 7 1
02/19/06 9:44 a -8.0 -8.0 -8.0 --- --- 13.0 NNW 0.22 14.8 -16.1 --- --- 719.7 0.018 0.000 9.2 7 1
02/19/06 9:45 a -8.0 -8.0 -8.0 --- --- 15.7 NNW 0.26 16.5 -16.7 --- --- 719.7 0.018 0.000 9.2 7 1
02/19/06 9:46 a -8.0 -8.0 -8.0 --- --- 13.9 NNW 0.23 16.5 -16.3 --- --- 719.7 0.018 0.000 9.2 7 1
02/19/06 9:47 a -8.1 -8.1 -8.1 --- --- 14.8 NNW 0.25 16.5 -16.6 --- --- 719.8 0.018 0.000 9.2 7 1
02/19/06 9:48 a -8.1 -8.1 -8.1 --- --- 13.9 NNW 0.23 15.7 -16.3 --- --- 719.8 0.018 0.000 9.1 7 1
02/19/06 9:49 a -8.1 -8.1 -8.1 --- --- 13.9 NNW 0.23 15.7 -16.3 --- --- 719.8 0.018 0.000 9.1 7 1
02/19/06 9:50 a -8.1 -8.1 -8.1 --- --- 13.0 NNW 0.22 15.7 -16.1 --- --- 719.7 0.018 0.000 9.1 7 1
02/19/06 9:51 a -8.1 -8.1 -8.1 --- --- 15.7 NNW 0.26 17.4 -16.8 --- --- 719.8 0.018 0.000 9.1 7 1
02/19/06 9:52 a -8.1 -8.1 -8.1 --- --- 14.8 NNW 0.25 19.1 -16.6 --- --- 719.7 0.018 0.000 9.1 7 1
02/19/06 9:53 a -8.0 -8.0 -8.1 --- --- 11.3 NNW 0.19 13.0 -15.5 --- --- 719.7 0.018 0.000 9.1 7 1
02/19/06 9:54 a -8.1 -8.0 -8.1 --- --- 13.9 NNW 0.23 16.5 -16.3 --- --- 719.7 0.018 0.000 9.1 7 1
02/19/06 9:55 a -8.1 -8.1 -8.1 --- --- 13.0 NNW 0.22 14.8 -16.1 --- --- 719.8 0.018 0.000 9.1 7 1
02/19/06 9:56 a -8.1 -8.1 -8.2 --- --- 12.2 NNW 0.20 13.9 -15.9 --- --- 719.8 0.018 0.000 9.1 7 1
02/19/06 9:57 a -8.1 -8.1 -8.2 --- --- 14.8 NNW 0.25 17.4 -16.7 --- --- 719.8 0.018 0.000 9.1 7 1
02/19/06 9:58 a -8.1 -8.1 -8.1 --- --- 14.8 NNW 0.25 16.5 -16.6 --- --- 719.8 0.018 0.000 9.1 7 1
02/19/06 9:59 a -8.1 -8.1 -8.1 --- --- 13.0 NNW 0.22 15.7 -16.1 --- --- 719.8 0.018 0.000 9.1 7 1
02/19/06 10:00 a -8.1 -8.1 -8.1 --- --- 12.2 NNW 0.20 14.8 -15.9 --- --- 719.9 0.018 0.000 9.1 7 1
02/19/06 10:01 a -8.1 -8.1 -8.1 --- --- 13.9 NNW 0.23 15.7 -16.3 --- --- 719.9 0.018 0.000 9.1 7 1
02/19/06 10:02 a -8.1 -8.1 -8.1 --- --- 13.0 NNW 0.22 15.7 -16.1 --- --- 719.9 0.018 0.000 9.1 7 1
02/19/06 10:03 a -8.1 -8.1 -8.1 --- --- 12.2 NNW 0.20 13.9 -15.8 --- --- 719.9 0.018 0.000 9.1 7 1
02/19/06 10:04 a -8.1 -8.1 -8.1 --- --- 13.0 NNW 0.22 13.9 -16.1 --- --- 720.0 0.018 0.000 9.1 7 1
02/19/06 10:05 a -8.1 -8.1 -8.1 --- --- 12.2 NNW 0.20 13.0 -15.8 --- --- 719.9 0.018 0.000 9.1 7 1
02/19/06 10:06 a -8.1 -8.1 -8.1 --- --- 13.0 NNW 0.22 13.9 -16.1 --- --- 720.0 0.018 0.000 9.1 7 1
02/19/06 10:07 a -8.1 -8.1 -8.1 --- --- 11.3 NNW 0.19 12.2 -15.6 --- --- 720.0 0.018 0.000 9.1 7 1
02/19/06 10:08 a -8.2 -8.1 -8.2 --- --- 12.2 NNW 0.20 14.8 -16.0 --- --- 720.0 0.018 0.000 9.1 7 1
02/19/06 10:09 a -8.2 -8.2 -8.2 --- --- 12.2 NNW 0.20 13.0 -16.0 --- --- 720.1 0.018 0.000 9.1 7 1
02/19/06 10:10 a -8.1 -8.1 -8.1 --- --- 13.9 NNW 0.23 15.7 -16.4 --- --- 719.9 0.018 0.000 9.1 7 1
02/19/06 10:11 a -8.1 -8.1 -8.1 --- --- 13.0 NNW 0.22 15.7 -16.2 --- --- 720.0 0.018 0.000 9.1 7 1
02/19/06 10:12 a -8.1 -8.1 -8.1 --- --- 13.9 NNW 0.23 15.7 -16.3 --- --- 720.0 0.018 0.000 9.1 7 1
02/19/06 10:13 a -8.1 -8.1 -8.1 --- --- 12.2 NNW 0.20 14.8 -15.8 --- --- 720.0 0.018 0.000 9.1 7 1
02/19/06 10:14 a -8.1 -8.1 -8.1 --- --- 12.2 NNW 0.20 15.7 -15.8 --- --- 720.0 0.018 0.000 9.1 7 1
02/19/06 10:15 a -8.1 -8.1 -8.1 --- --- 13.9 NNW 0.23 16.5 -16.4 --- --- 719.9 0.018 0.000 9.1 7 1
02/19/06 10:16 a -8.1 -8.1 -8.1 --- --- 13.9 NNW 0.23 16.5 -16.3 --- --- 719.9 0.018 0.000 9.1 7 1
02/19/06 10:17 a -8.1 -8.1 -8.1 --- --- 14.8 NNW 0.25 17.4 -16.6 --- --- 719.9 0.018 0.000 9.1 7 1
02/19/06 10:18 a -8.1 -8.1 -8.1 --- --- 15.7 NNW 0.26 19.1 -16.8 --- --- 719.9 0.018 0.000 9.1 7 1
02/19/06 10:19 a -8.1 -8.1 -8.1 --- --- 15.7 NNW 0.26 17.4 -16.8 --- --- 719.9 0.018 0.000 9.1 7 1
02/19/06 10:20 a -8.1 -8.1 -8.1 --- --- 13.0 NNW 0.22 14.8 -16.1 --- --- 719.9 0.018 0.000 9.1 7 1
02/19/06 10:21 a -8.1 -8.1 -8.2 --- --- 12.2 NNW 0.20 14.8 -15.9 --- --- 719.9 0.018 0.000 9.1 7 1
02/19/06 10:22 a -8.2 -8.2 -8.2 --- --- 12.2 NNW 0.20 13.9 -16.0 --- --- 719.9 0.018 0.000 9.1 7 1
02/19/06 10:23 a -8.2 -8.2 -8.2 --- --- 12.2 NNW 0.20 13.9 -16.1 --- --- 720.0 0.018 0.000 9.1 7 1
02/19/06 10:24 a -8.2 -8.2 -8.2 --- --- 12.2 NNW 0.20 13.0 -16.1 --- --- 719.9 0.018 0.000 9.1 7 1
02/19/06 10:25 a -8.2 -8.2 -8.2 --- --- 12.2 NNW 0.20 13.9 -16.1 --- --- 720.0 0.018 0.000 9.1 7 1
02/19/06 10:26 a -8.2 -8.2 -8.2 --- --- 13.0 NNW 0.22 13.9 -16.2 --- --- 720.0 0.018 0.000 9.1 7 1
02/19/06 10:27 a -8.2 -8.2 -8.2 --- --- 13.0 NNW 0.22 14.8 -16.2 --- --- 720.0 0.018 0.000 9.1 7 1
02/19/06 10:28 a -8.2 -8.2 -8.2 --- --- 11.3 NNW 0.19 12.2 -15.8 --- --- 720.0 0.018 0.000 9.1 7 1
02/19/06 10:29 a -8.2 -8.2 -8.3 --- --- 11.3 NNW 0.19 13.0 -15.8 --- --- 720.1 0.018 0.000 9.1 7 1
02/19/06 10:30 a -8.2 -8.2 -8.3 --- --- 12.2 NNW 0.20 14.8 -16.1 --- --- 720.1 0.018 0.000 9.1 7 1
02/19/06 10:31 a -8.2 -8.2 -8.2 --- --- 14.8 NNW 0.25 16.5 -16.8 --- --- 720.1 0.018 0.000 9.1 7 1
02/19/06 10:32 a -8.1 -8.1 -8.2 --- --- 15.7 NNW 0.26 16.5 -16.9 --- --- 720.1 0.018 0.000 9.1 7 1
02/19/06 10:33 a -8.1 -8.1 -8.2 --- --- 13.9 NNW 0.23 14.8 -16.4 --- --- 720.1 0.018 0.000 9.1 7 1
02/19/06 10:34 a -8.1 -8.1 -8.2 --- --- 12.2 NNW 0.20 14.8 -15.9 --- --- 720.1 0.018 0.000 9.1 7 1
02/19/06 10:35 a -8.1 -8.1 -8.2 --- --- 13.0 NNW 0.22 15.7 -16.2 --- --- 720.1 0.018 0.000 9.1 7 1
02/19/06 10:36 a -8.2 -8.1 -8.2 --- --- 14.8 NNW 0.25 15.7 -16.7 --- --- 720.1 0.018 0.000 9.1 7 1
02/19/06 10:37 a -8.2 -8.1 -8.2 --- --- 13.9 NNW 0.23 15.7 -16.5 --- --- 720.1 0.018 0.000 9.1 7 1
02/19/06 10:38 a -8.2 -8.2 -8.2 --- --- 14.8 NNW 0.25 16.5 -16.8 --- --- 720.0 0.018 0.000 9.1 7 1
02/19/06 10:39 a -8.2 -8.2 -8.3 --- --- 13.9 NNW 0.23 15.7 -16.6 --- --- 720.1 0.018 0.000 9.1 7 1
02/19/06 10:40 a -8.3 -8.3 -8.3 --- --- 13.0 NNW 0.22 13.9 -16.4 --- --- 720.1 0.018 0.000 9.1 7 1
02/19/06 10:41 a -8.3 -8.3 -8.4 --- --- 13.0 NNW 0.22 13.9 -16.4 --- --- 720.1 0.019 0.000 9.1 7 1
02/19/06 10:42 a -8.4 -8.4 -8.4 --- --- 13.9 NNW 0.23 15.7 -16.8 --- --- 720.1 0.019 0.000 9.1 7 1
02/19/06 10:43 a -8.4 -8.4 -8.4 --- --- 13.9 NNW 0.23 15.7 -16.8 --- --- 720.2 0.019 0.000 9.1 7 1
02/19/06 10:44 a -8.3 -8.3 -8.3 --- --- 12.2 NNW 0.20 13.9 -16.2 --- --- 720.1 0.019 0.000 9.1 7 1
02/19/06 10:45 a -8.4 -8.4 -8.4 --- --- 13.0 NNW 0.22 13.9 -16.6 --- --- 720.2 0.019 0.000 9.1 7 1
02/19/06 10:46 a -8.3 -8.3 -8.4 --- --- 13.9 NNW 0.23 15.7 -16.7 --- --- 720.2 0.019 0.000 9.1 7 1
02/19/06 10:47 a -8.3 -8.3 -8.3 --- --- 14.8 NNW 0.25 16.5 -16.9 --- --- 720.2 0.018 0.000 9.1 7 1
02/19/06 10:48 a -8.3 -8.3 -8.3 --- --- 13.0 NNW 0.22 15.7 -16.4 --- --- 720.2 0.019 0.000 9.1 7 1
02/19/06 10:49 a -8.3 -8.3 -8.4 --- --- 11.3 NNW 0.19 13.0 -15.9 --- --- 720.1 0.019 0.000 9.1 7 1
02/19/06 10:50 a -8.5 -8.4 -8.5 --- --- 12.2 NNW 0.20 13.9 -16.4 --- --- 720.1 0.019 0.000 9.1 7 1
02/19/06 10:51 a -8.6 -8.6 -8.6 --- --- 13.0 NNW 0.22 14.8 -16.7 --- --- 720.1 0.019 0.000 9.1 7 1
02/19/06 10:52 a -8.5 -8.5 -8.6 --- --- 13.9 NNW 0.23 15.7 -16.9 --- --- 720.2 0.019 0.000 9.1 7 1
02/19/06 10:53 a -8.4 -8.4 -8.4 --- --- 13.9 NNW 0.23 16.5 -16.8 --- --- 720.1 0.019 0.000 9.1 7 1
02/19/06 10:54 a -8.4 -8.4 -8.5 --- --- 13.9 NNW 0.23 16.5 -16.8 --- --- 720.1 0.019 0.000 9.1 7 1
02/19/06 10:55 a -8.5 -8.5 -8.5 --- --- 13.9 NNW 0.23 15.7 -16.9 --- --- 720.1 0.019 0.000 9.1 7 1
02/19/06 10:56 a -8.5 -8.4 -8.6 --- --- 12.2 NNW 0.20 13.9 -16.4 --- --- 720.2 0.019 0.000 9.0 7 1
02/19/06 10:57 a -8.6 -8.6 -8.6 --- --- 13.9 NNW 0.23 15.7 -17.1 --- --- 720.2 0.019 0.000 9.0 7 1
02/19/06 10:58 a -8.6 -8.5 -8.6 --- --- 15.7 NNW 0.26 19.1 -17.4 --- --- 720.2 0.019 0.000 9.0 7 1
02/19/06 10:59 a -8.4 -8.4 -8.4 --- --- 13.9 NNW 0.23 16.5 -16.8 --- --- 720.2 0.019 0.000 9.0 7 1
02/19/06 11:00 a -8.4 -8.4 -8.4 --- --- 13.0 NNW 0.22 14.8 -16.6 --- --- 720.2 0.019 0.000 9.0 7 1
02/19/06 11:01 a -8.4 -8.4 -8.4 --- --- 13.0 NNW 0.22 15.7 -16.6 --- --- 720.2 0.019 0.000 9.0 7 1
02/19/06 11:02 a -8.4 -8.4 -8.4 --- --- 13.9 NNW 0.23 15.7 -16.8 --- --- 720.2 0.019 0.000 9.0 7 1
02/19/06 11:03 a -8.4 -8.4 -8.4 --- --- 15.7 NNW 0.26 17.4 -17.3 --- --- 720.2 0.019 0.000 9.0 7 1
02/19/06 11:04 a -8.4 -8.4 -8.4 --- --- 15.7 NW 0.26 19.1 -17.3 --- --- 720.2 0.019 0.000 9.0 7 1
02/19/06 11:05 a -8.4 -8.4 -8.4 --- --- 13.0 NNW 0.22 14.8 -16.6 --- --- 720.2 0.019 0.000 9.0 7 1
02/19/06 11:06 a -8.4 -8.4 -8.4 --- --- 13.0 NNW 0.22 16.5 -16.6 --- --- 720.2 0.019 0.000 9.0 7 1
02/19/06 11:07 a -8.5 -8.4 -8.6 --- --- 14.8 NNW 0.25 17.4 -17.2 --- --- 720.2 0.019 0.000 9.0 7 1
02/19/06 11:08 a -8.6 -8.5 -8.6 --- --- 14.8 NNW 0.25 18.3 -17.2 --- --- 720.2 0.019 0.000 9.0 7 1
02/19/06 11:09 a -8.5 -8.5 -8.6 --- --- 15.7 NW 0.26 17.4 -17.4 --- --- 720.2 0.019 0.000 9.0 7 1
02/19/06 11:10 a -8.5 -8.5 -8.5 --- --- 13.0 NNW 0.22 15.7 -16.7 --- --- 720.2 0.019 0.000 8.9 7 1
02/19/06 11:11 a -8.4 -8.4 -8.6 --- --- 14.8 NNW 0.25 17.4 -17.1 --- --- 720.2 0.019 0.000 8.9 7 1
02/19/06 11:12 a -8.6 -8.5 -8.6 --- --- 15.7 NNW 0.26 19.1 -17.4 --- --- 720.2 0.019 0.000 8.9 7 1
02/19/06 11:13 a -8.5 -8.4 -8.5 --- --- 14.8 NNW 0.25 16.5 -17.2 --- --- 720.2 0.019 0.000 8.9 7 1
02/19/06 11:14 a -8.4 -8.4 -8.4 --- --- 13.9 NNW 0.23 16.5 -16.8 --- --- 720.2 0.019 0.000 8.9 7 1
02/19/06 11:15 a -8.4 -8.4 -8.4 --- --- 13.9 NNW 0.23 15.7 -16.8 --- --- 720.1 0.019 0.000 8.9 7 1
02/19/06 11:16 a -8.5 -8.4 -8.5 --- --- 13.9 NNW 0.23 15.7 -16.9 --- --- 720.3 0.019 0.000 8.9 7 1
02/19/06 11:17 a -8.5 -8.5 -8.6 --- --- 13.9 NNW 0.23 15.7 -16.9 --- --- 720.2 0.019 0.000 8.9 7 1
02/19/06 11:18 a -8.6 -8.6 -8.6 --- --- 13.0 NNW 0.22 14.8 -16.7 --- --- 720.2 0.019 0.000 8.9 7 1
02/19/06 11:19 a -8.6 -8.6 -8.6 --- --- 14.8 NNW 0.25 17.4 -17.3 --- --- 720.3 0.019 0.000 8.9 7 1
02/19/06 11:20 a -8.6 -8.6 -8.6 --- --- 13.9 NNW 0.23 15.7 -17.0 --- --- 720.2 0.019 0.000 8.9 7 1
02/19/06 11:21 a -8.6 -8.6 -8.6 --- --- 13.9 NNW 0.23 16.5 -17.0 --- --- 720.3 0.019 0.000 8.9 7 1
02/19/06 11:22 a -8.6 -8.6 -8.7 --- --- 12.2 NNW 0.20 13.9 -16.6 --- --- 720.3 0.019 0.000 8.9 7 1
02/19/06 11:23 a -8.7 -8.7 -8.7 --- --- 13.0 NNW 0.22 14.8 -16.9 --- --- 720.2 0.019 0.000 8.9 7 1
02/19/06 11:24 a -8.7 -8.6 -8.7 --- --- 13.0 NNW 0.22 14.8 -16.9 --- --- 720.2 0.019 0.000 8.9 7 1
02/19/06 11:25 a -8.6 -8.6 -8.7 --- --- 13.0 NNW 0.22 14.8 -16.8 --- --- 720.2 0.019 0.000 8.9 7 1
02/19/06 11:26 a -8.7 -8.7 -8.7 --- --- 13.9 NNW 0.23 15.7 -17.2 --- --- 720.2 0.019 0.000 8.9 7 1
02/19/06 11:27 a -8.6 -8.6 -8.7 --- --- 13.0 NNW 0.22 14.8 -16.8 --- --- 720.2 0.019 0.000 8.9 7 1
02/19/06 11:28 a -8.7 -8.7 -8.7 --- --- 12.2 NNW 0.20 13.0 -16.7 --- --- 720.2 0.019 0.000 8.9 7 1
02/19/06 11:29 a -8.7 -8.7 -8.7 --- --- 13.9 NNW 0.23 16.5 -17.2 --- --- 720.3 0.019 0.000 8.9 7 1
02/19/06 11:30 a -8.6 -8.6 -8.7 --- --- 13.0 NNW 0.22 14.8 -16.8 --- --- 720.2 0.019 0.000 8.9 7 1
02/19/06 11:31 a -8.6 -8.6 -8.6 --- --- 13.9 NNW 0.23 16.5 -17.0 --- --- 720.3 0.019 0.000 8.9 7 1
02/19/06 11:32 a -8.6 -8.6 -8.6 --- --- 13.0 NNW 0.22 15.7 -16.8 --- --- 720.3 0.019 0.000 8.9 7 1
02/19/06 11:33 a -8.6 -8.6 -8.6 --- --- 12.2 NNW 0.20 14.8 -16.5 --- --- 720.3 0.019 0.000 8.9 7 1
02/19/06 11:34 a -8.6 -8.6 -8.7 --- --- 13.0 NNW 0.22 14.8 -16.8 --- --- 720.2 0.019 0.000 8.9 7 1
02/19/06 11:35 a -8.7 -8.7 -8.7 --- --- 13.0 NNW 0.22 14.8 -16.9 --- --- 720.3 0.019 0.000 8.9 7 1
02/19/06 11:36 a -8.6 -8.6 -8.7 --- --- 12.2 NNW 0.20 13.0 -16.6 --- --- 720.4 0.019 0.000 8.9 7 1
02/19/06 11:37 a -8.7 -8.7 -8.7 --- --- 12.2 NNW 0.20 14.8 -16.7 --- --- 720.4 0.019 0.000 8.9 7 1
02/19/06 11:38 a -8.7 -8.7 -8.7 --- --- 12.2 NNW 0.20 14.8 -16.7 --- --- 720.3 0.019 0.000 8.9 7 1
02/19/06 11:39 a -8.8 -8.7 -8.8 --- --- 12.2 NNW 0.20 13.9 -16.8 --- --- 720.4 0.019 0.000 8.9 7 1
02/19/06 11:40 a -8.7 -8.7 -8.8 --- --- 11.3 NNW 0.19 13.0 -16.4 --- --- 720.4 0.019 0.000 8.9 7 1
02/19/06 11:41 a -8.7 -8.7 -8.7 --- --- 13.0 NNW 0.22 14.8 -16.9 --- --- 720.3 0.019 0.000 8.9 7 1
02/19/06 11:42 a -8.6 -8.6 -8.7 --- --- 11.3 NNW 0.19 13.9 -16.3 --- --- 720.4 0.019 0.000 8.9 7 1
02/19/06 11:43 a -8.7 -8.6 -8.7 --- --- 13.0 NNW 0.22 15.7 -16.9 --- --- 720.4 0.019 0.000 8.9 7 1
02/19/06 11:44 a -8.7 -8.7 -8.7 --- --- 13.0 NNW 0.22 14.8 -16.9 --- --- 720.4 0.019 0.000 8.9 7 1
02/19/06 11:45 a -8.7 -8.7 -8.7 --- --- 13.9 NNW 0.23 15.7 -17.2 --- --- 720.4 0.019 0.000 8.9 7 1
02/19/06 11:46 a -8.7 -8.7 -8.7 --- --- 13.0 NNW 0.22 16.5 -16.9 --- --- 720.4 0.019 0.000 8.9 7 1
02/19/06 11:47 a -8.7 -8.6 -8.7 --- --- 13.9 NNW 0.23 15.7 -17.2 --- --- 720.3 0.019 0.000 8.9 7 1
02/19/06 11:48 a -8.6 -8.6 -8.7 --- --- 13.0 NNW 0.22 14.8 -16.8 --- --- 720.4 0.019 0.000 8.9 7 1
02/19/06 11:49 a -8.6 -8.6 -8.7 --- --- 13.0 NNW 0.22 13.9 -16.8 --- --- 720.3 0.019 0.000 8.9 7 1
02/19/06 11:50 a -8.7 -8.7 -8.7 --- --- 12.2 NNW 0.20 13.0 -16.6 --- --- 720.5 0.019 0.000 8.9 7 1
02/19/06 11:51 a -8.8 -8.8 -8.8 --- --- 13.0 NNW 0.22 14.8 -17.0 --- --- 720.4 0.019 0.000 8.9 7 1
02/19/06 11:52 a -8.7 -8.7 -8.8 --- --- 13.0 NNW 0.22 14.8 -16.9 --- --- 720.4 0.019 0.000 8.9 7 1
02/19/06 11:53 a -8.7 -8.7 -8.7 --- --- 13.9 NNW 0.23 16.5 -17.2 --- --- 720.4 0.019 0.000 8.9 7 1
02/19/06 11:54 a -8.7 -8.7 -8.7 --- --- 13.0 NNW 0.22 13.9 -16.9 --- --- 720.4 0.019 0.000 8.9 7 1
02/19/06 11:55 a -8.7 -8.7 -8.7 --- --- 13.0 NNW 0.22 13.9 -16.9 --- --- 720.4 0.019 0.000 8.9 7 1
02/19/06 11:56 a -8.6 -8.6 -8.7 --- --- 13.9 NNW 0.23 16.5 -17.1 --- --- 720.4 0.019 0.000 8.9 7 1
02/19/06 11:57 a -8.6 -8.6 -8.7 --- --- 14.8 NNW 0.25 17.4 -17.3 --- --- 720.4 0.019 0.000 8.9 7 1
02/19/06 11:58 a -8.7 -8.7 -8.7 --- --- 13.9 NNW 0.23 14.8 -17.2 --- --- 720.4 0.019 0.000 8.9 7 1
02/19/06 11:59 a -8.7 -8.7 -8.7 --- --- 13.0 NNW 0.22 14.8 -16.9 --- --- 720.4 0.019 0.000 8.9 7 1
02/19/06 12:00 p -8.7 -8.7 -8.7 --- --- 14.8 NNW 0.25 17.4 -17.4 --- --- 720.5 0.019 0.000 8.9 7 1
02/19/06 12:01 p -8.7 -8.7 -8.8 --- --- 13.0 NNW 0.22 15.7 -16.9 --- --- 720.4 0.019 0.000 8.9 7 1
02/19/06 12:02 p -8.8 -8.8 -8.8 --- --- 13.9 NNW 0.23 15.7 -17.3 --- --- 720.4 0.019 0.000 8.9 7 1
02/19/06 12:03 p -8.8 -8.7 -8.8 --- --- 14.8 NNW 0.25 16.5 -17.5 --- --- 720.4 0.019 0.000 8.9 7 1
02/19/06 12:04 p -8.7 -8.7 -8.7 --- --- 13.9 NNW 0.23 17.4 -17.2 --- --- 720.4 0.019 0.000 8.9 7 1
02/19/06 12:05 p -8.7 -8.7 -8.8 --- --- 13.9 NNW 0.23 18.3 -17.2 --- --- 720.4 0.019 0.000 8.9 7 1
02/19/06 12:06 p -8.7 -8.7 -8.8 --- --- 14.8 NNW 0.25 16.5 -17.4 --- --- 720.4 0.019 0.000 8.8 7 1
02/19/06 12:07 p -8.7 -8.7 -8.7 --- --- 13.9 NNW 0.23 15.7 -17.2 --- --- 720.4 0.019 0.000 8.8 7 1
02/19/06 12:08 p -8.7 -8.7 -8.7 --- --- 13.9 NNW 0.23 16.5 -17.2 --- --- 720.4 0.019 0.000 8.8 7 1
02/19/06 12:09 p -8.8 -8.7 -8.8 --- --- 15.7 NNW 0.26 17.4 -17.8 --- --- 720.4 0.019 0.000 8.8 7 1
02/19/06 12:10 p -8.8 -8.8 -8.8 --- --- 14.8 NNW 0.25 17.4 -17.5 --- --- 720.4 0.019 0.000 8.8 7 1
02/19/06 12:11 p -8.8 -8.7 -8.8 --- --- 14.8 NNW 0.25 17.4 -17.5 --- --- 720.4 0.019 0.000 8.8 7 1
02/19/06 12:12 p -8.8 -8.8 -8.8 --- --- 13.9 NNW 0.23 15.7 -17.3 --- --- 720.4 0.019 0.000 8.8 7 1
02/19/06 12:13 p -8.8 -8.8 -8.8 --- --- 14.8 NNW 0.25 18.3 -17.5 --- --- 720.5 0.019 0.000 8.8 7 1
02/19/06 12:14 p -8.8 -8.8 -8.8 --- --- 16.5 NNW 0.28 17.4 -18.0 --- --- 720.4 0.019 0.000 8.8 7 1
02/19/06 12:15 p -8.8 -8.7 -8.8 --- --- 16.5 NNW 0.28 18.3 -17.9 --- --- 720.4 0.019 0.000 8.8 7 1
02/19/06 12:16 p -8.7 -8.7 -8.7 --- --- 15.7 NNW 0.26 17.4 -17.6 --- --- 720.5 0.019 0.000 8.8 7 1
02/19/06 12:17 p -8.7 -8.7 -8.7 --- --- 14.8 NNW 0.25 17.4 -17.4 --- --- 720.3 0.019 0.000 8.8 7 1
02/19/06 12:18 p -8.7 -8.7 -8.7 --- --- 16.5 NNW 0.28 20.0 -17.8 --- --- 720.5 0.019 0.000 8.8 7 1
02/19/06 12:19 p -8.7 -8.7 -8.7 --- --- 16.5 NNW 0.28 19.1 -17.8 --- --- 720.5 0.019 0.000 8.8 7 1
02/19/06 12:20 p -8.6 -8.6 -8.7 --- --- 14.8 NNW 0.25 16.5 -17.3 --- --- 720.5 0.019 0.000 8.8 7 1
02/19/06 12:21 p -8.6 -8.6 -8.6 --- --- 18.3 NNW 0.30 20.0 -18.1 --- --- 720.5 0.019 0.000 8.8 7 1
02/19/06 12:22 p -8.6 -8.6 -8.6 --- --- 13.9 NNW 0.23 18.3 -17.0 --- --- 720.6 0.019 0.000 8.8 7 1
02/19/06 12:23 p -8.6 -8.6 -8.7 --- --- 14.8 NNW 0.25 16.5 -17.2 --- --- 720.5 0.019 0.000 8.8 7 1
02/19/06 12:24 p -8.7 -8.6 -8.7 --- --- 16.5 NNW 0.28 19.1 -17.8 --- --- 720.6 0.019 0.000 8.8 7 1
02/19/06 12:25 p -8.6 -8.6 -8.7 --- --- 14.8 NNW 0.25 17.4 -17.3 --- --- 720.6 0.019 0.000 8.8 7 1
02/19/06 12:26 p -8.7 -8.7 -8.7 --- --- 16.5 NNW 0.28 19.1 -17.8 --- --- 720.5 0.019 0.000 8.8 7 1
02/19/06 12:27 p -8.7 -8.7 -8.7 --- --- 12.2 NNW 0.20 14.8 -16.6 --- --- 720.6 0.019 0.000 8.8 7 1
02/19/06 12:28 p -8.7 -8.7 -8.7 --- --- 13.9 NNW 0.23 15.7 -17.2 --- --- 720.6 0.019 0.000 8.8 7 1
02/19/06 12:29 p -8.7 -8.7 -8.7 --- --- 15.7 NNW 0.26 19.1 -17.7 --- --- 720.5 0.019 0.000 8.8 7 1
02/19/06 12:30 p -8.7 -8.7 -8.7 --- --- 17.4 NNW 0.29 20.0 -18.0 --- --- 720.5 0.019 0.000 8.8 7 1
02/19/06 12:31 p -8.6 -8.6 -8.6 --- --- 15.7 NNW 0.26 19.1 -17.6 --- --- 720.6 0.019 0.000 8.8 7 1
02/19/06 12:32 p -8.6 -8.6 -8.6 --- --- 12.2 NNW 0.20 14.8 -16.5 --- --- 720.6 0.019 0.000 8.8 7 1
02/19/06 12:33 p -8.6 -8.6 -8.7 --- --- 13.9 NNW 0.23 20.0 -17.1 --- --- 720.6 0.019 0.000 8.7 7 1
02/19/06 12:34 p -8.6 -8.6 -8.7 --- --- 15.7 NNW 0.26 20.0 -17.6 --- --- 720.5 0.019 0.000 8.7 7 1
02/19/06 12:35 p -8.7 -8.6 -8.7 --- --- 11.3 NNW 0.19 13.9 -16.3 --- --- 720.6 0.019 0.000 8.7 7 1
02/19/06 12:36 p -8.7 -8.7 -8.7 --- --- 13.9 NNW 0.23 17.4 -17.2 --- --- 720.5 0.019 0.000 8.7 7 1
02/19/06 12:37 p -8.7 -8.7 -8.7 --- --- 15.7 NNW 0.26 18.3 -17.6 --- --- 720.5 0.019 0.000 8.7 7 1
02/19/06 12:38 p -8.6 -8.6 -8.7 --- --- 14.8 NNW 0.25 19.1 -17.3 --- --- 720.5 0.019 0.000 8.7 7 1
02/19/06 12:39 p -8.5 -8.5 -8.5 --- --- 11.3 NNW 0.19 13.9 -16.1 --- --- 720.6 0.019 0.000 8.7 7 1
02/19/06 12:40 p -8.6 -8.5 -8.6 --- --- 13.9 NNW 0.23 16.5 -17.0 --- --- 720.6 0.019 0.000 8.7 7 1
02/19/06 12:41 p -8.6 -8.6 -8.6 --- --- 15.7 NNW 0.26 18.3 -17.4 --- --- 720.6 0.019 0.000 8.7 7 1
02/19/06 12:42 p -8.6 -8.6 -8.6 --- --- 15.7 NNW 0.26 17.4 -17.4 --- --- 720.6 0.019 0.000 8.7 7 1
02/19/06 12:43 p -8.6 -8.6 -8.6 --- --- 14.8 NNW 0.25 16.5 -17.2 --- --- 720.6 0.019 0.000 8.7 7 1
02/19/06 12:44 p -8.6 -8.6 -8.6 --- --- 14.8 NNW 0.25 16.5 -17.2 --- --- 720.5 0.019 0.000 8.7 7 1
02/19/06 12:45 p -8.6 -8.5 -8.6 --- --- 15.7 NNW 0.26 17.4 -17.4 --- --- 720.6 0.019 0.000 8.7 7 1
02/19/06 12:46 p -8.6 -8.6 -8.6 --- --- 13.9 NNW 0.23 16.5 -17.0 --- --- 720.6 0.019 0.000 8.7 7 1
02/19/06 12:47 p -8.6 -8.6 -8.6 --- --- 11.3 NNW 0.19 13.9 -16.3 --- --- 720.6 0.019 0.000 8.7 7 1
02/19/06 12:48 p -8.6 -8.6 -8.7 --- --- 13.0 NNW 0.22 14.8 -16.8 --- --- 720.7 0.019 0.000 8.7 7 1
02/19/06 12:49 p -8.6 -8.6 -8.6 --- --- 14.8 NNW 0.25 16.5 -17.2 --- --- 720.5 0.019 0.000 8.7 7 1
02/19/06 12:50 p -8.6 -8.5 -8.6 --- --- 16.5 NNW 0.28 19.1 -17.7 --- --- 720.7 0.019 0.000 8.7 7 1
02/19/06 12:51 p -8.5 -8.5 -8.5 --- --- 12.2 NNW 0.20 14.8 -16.4 --- --- 720.6 0.019 0.000 8.7 7 1
02/19/06 12:52 p -8.6 -8.5 -8.6 --- --- 13.0 NNW 0.22 15.7 -16.7 --- --- 720.6 0.019 0.000 8.7 7 1
02/19/06 12:53 p -8.6 -8.6 -8.7 --- --- 12.2 NNW 0.20 14.8 -16.6 --- --- 720.6 0.019 0.000 8.7 7 1
02/19/06 12:54 p -8.7 -8.7 -8.7 --- --- 14.8 NNW 0.25 19.1 -17.4 --- --- 720.7 0.019 0.000 8.7 7 1
02/19/06 12:55 p -8.7 -8.6 -8.7 --- --- 14.8 NNW 0.25 18.3 -17.4 --- --- 720.6 0.019 0.000 8.7 7 1
02/19/06 12:56 p -8.6 -8.6 -8.6 --- --- 14.8 NNW 0.25 16.5 -17.2 --- --- 720.6 0.019 0.000 8.6 7 1
02/19/06 12:57 p -8.6 -8.6 -8.7 --- --- 12.2 NNW 0.20 14.8 -16.6 --- --- 720.6 0.019 0.000 8.6 7 1
02/19/06 12:58 p -8.7 -8.7 -8.7 --- --- 13.0 NNW 0.22 14.8 -16.9 --- --- 720.7 0.019 0.000 8.6 7 1
02/19/06 12:59 p -8.7 -8.7 -8.7 --- --- 13.0 NNW 0.22 14.8 -16.9 --- --- 720.7 0.019 0.000 8.6 7 1
02/19/06 1:00 p -8.6 -8.6 -8.7 --- --- 15.7 NNW 0.26 18.3 -17.6 --- --- 720.7 0.019 0.000 8.7 7 1
02/19/06 1:01 p -8.6 -8.5 -8.6 --- --- 14.8 NNW 0.25 16.5 -17.2 --- --- 720.7 0.019 0.000 8.7 7 1
02/19/06 1:02 p -8.5 -8.5 -8.5 --- --- 13.0 NNW 0.22 14.8 -16.7 --- --- 720.8 0.019 0.000 8.6 7 1
02/19/06 1:03 p -8.5 -8.5 -8.6 --- --- 13.0 NNW 0.22 15.7 -16.7 --- --- 720.7 0.019 0.000 8.6 7 1
02/19/06 1:04 p -8.6 -8.6 -8.6 --- --- 12.2 NNW 0.20 14.8 -16.5 --- --- 720.8 0.019 0.000 8.6 7 1
02/19/06 1:05 p -8.6 -8.6 -8.6 --- --- 13.0 NNW 0.22 14.8 -16.7 --- --- 720.7 0.019 0.000 8.6 7 1
02/19/06 1:06 p -8.6 -8.6 -8.6 --- --- 13.0 NNW 0.22 15.7 -16.7 --- --- 720.7 0.019 0.000 8.6 7 1
02/19/06 1:07 p -8.6 -8.6 -8.6 --- --- 13.9 NNW 0.23 14.8 -17.0 --- --- 720.7 0.019 0.000 8.6 7 1
02/19/06 1:08 p -8.5 -8.5 -8.5 --- --- 14.8 NNW 0.25 16.5 -17.2 --- --- 720.7 0.019 0.000 8.6 7 1
02/19/06 1:09 p -8.4 -8.4 -8.4 --- --- 13.0 NNW 0.22 13.9 -16.6 --- --- 720.7 0.019 0.000 8.6 7 1
02/19/06 1:10 p -8.5 -8.5 -8.5 --- --- 13.0 NNW 0.22 14.8 -16.7 --- --- 720.8 0.019 0.000 8.6 7 1
02/19/06 1:11 p -8.5 -8.5 -8.6 --- --- 14.8 NNW 0.25 16.5 -17.2 --- --- 720.8 0.019 0.000 8.6 7 1
02/19/06 1:12 p -8.5 -8.5 -8.5 --- --- 13.9 NNW 0.23 15.7 -16.9 --- --- 720.9 0.019 0.000 8.6 7 1
02/19/06 1:13 p -8.5 -8.4 -8.5 --- --- 13.0 NNW 0.22 14.8 -16.7 --- --- 720.8 0.019 0.000 8.6 7 1
02/19/06 1:14 p -8.5 -8.4 -8.5 --- --- 12.2 NNW 0.20 13.9 -16.4 --- --- 720.8 0.019 0.000 8.6 7 1
02/19/06 1:15 p -8.6 -8.5 -8.6 --- --- 13.9 NNW 0.23 16.5 -17.0 --- --- 720.7 0.019 0.000 8.6 7 1
02/19/06 1:16 p -8.6 -8.6 -8.6 --- --- 17.4 NNW 0.29 19.1 -17.8 --- --- 720.7 0.019 0.000 8.6 7 1
02/19/06 1:17 p -8.6 -8.5 -8.6 --- --- 14.8 NNW 0.25 16.5 -17.2 --- --- 720.8 0.019 0.000 8.6 7 1
02/19/06 1:18 p -8.6 -8.5 -8.6 --- --- 13.9 NNW 0.23 15.7 -17.0 --- --- 720.8 0.019 0.000 8.6 7 1
02/19/06 1:19 p -8.5 -8.5 -8.5 --- --- 13.9 NNW 0.23 15.7 -16.9 --- --- 720.8 0.019 0.000 8.6 7 1
02/19/06 1:20 p -8.4 -8.4 -8.5 --- --- 13.0 NNW 0.22 14.8 -16.6 --- --- 720.8 0.019 0.000 8.6 7 1
02/19/06 1:21 p -8.6 -8.5 -8.6 --- --- 12.2 NNW 0.20 13.0 -16.5 --- --- 720.8 0.019 0.000 8.6 7 1
02/19/06 1:22 p -8.6 -8.6 -8.6 --- --- 13.0 NNW 0.22 14.8 -16.8 --- --- 720.8 0.019 0.000 8.6 7 1
02/19/06 1:23 p -8.6 -8.6 -8.6 --- --- 14.8 NNW 0.25 17.4 -17.2 --- --- 720.6 0.019 0.000 8.6 7 1
02/19/06 1:24 p -8.4 -8.4 -8.5 --- --- 15.7 NNW 0.26 19.1 -17.3 --- --- 720.7 0.019 0.000 8.6 7 1
02/19/06 1:25 p -8.4 -8.4 -8.4 --- --- 15.7 NNW 0.26 18.3 -17.3 --- --- 720.7 0.019 0.000 8.6 7 1
02/19/06 1:26 p -8.4 -8.4 -8.4 --- --- 14.8 NNW 0.25 16.5 -17.1 --- --- 720.7 0.019 0.000 8.6 7 1
02/19/06 1:27 p -8.4 -8.4 -8.4 --- --- 13.0 NNW 0.22 14.8 -16.6 --- --- 720.7 0.019 0.000 8.6 7 1
02/19/06 1:28 p -8.4 -8.4 -8.5 --- --- 14.8 NNW 0.25 19.1 -17.1 --- --- 720.8 0.019 0.000 8.6 7 1
02/19/06 1:29 p -8.4 -8.4 -8.4 --- --- 15.7 NNW 0.26 17.4 -17.3 --- --- 720.8 0.019 0.000 8.6 7 1
02/19/06 1:30 p -8.4 -8.4 -8.4 --- --- 14.8 NNW 0.25 18.3 -17.1 --- --- 720.8 0.019 0.000 8.6 7 1
02/19/06 1:31 p -8.4 -8.4 -8.4 --- --- 15.7 NNW 0.26 16.5 -17.3 --- --- 720.8 0.019 0.000 8.6 7 1
02/19/06 1:32 p -8.4 -8.4 -8.4 --- --- 13.9 NNW 0.23 18.3 -16.8 --- --- 720.8 0.019 0.000 8.6 7 1
02/19/06 1:33 p -8.5 -8.5 -8.5 --- --- 13.9 NNW 0.23 16.5 -16.9 --- --- 720.8 0.019 0.000 8.6 7 1
02/19/06 1:34 p -8.5 -8.4 -8.5 --- --- 14.8 NNW 0.25 15.7 -17.2 --- --- 720.7 0.019 0.000 8.6 7 1
02/19/06 1:35 p -8.4 -8.4 -8.4 --- --- 13.0 NNW 0.22 16.5 -16.6 --- --- 720.8 0.019 0.000 8.6 7 1
02/19/06 1:36 p -8.5 -8.5 -8.5 --- --- 14.8 NNW 0.25 17.4 -17.2 --- --- 720.8 0.019 0.000 8.6 7 1
02/19/06 1:37 p -8.5 -8.5 -8.5 --- --- 13.0 NNW 0.22 16.5 -16.7 --- --- 720.9 0.019 0.000 8.6 7 1
02/19/06 1:38 p -8.5 -8.5 -8.5 --- --- 11.3 NNW 0.19 13.9 -16.1 --- --- 720.8 0.019 0.000 8.6 7 1
02/19/06 1:39 p -8.5 -8.5 -8.6 --- --- 13.0 NNW 0.22 15.7 -16.7 --- --- 720.8 0.019 0.000 8.6 7 1
02/19/06 1:40 p -8.5 -8.4 -8.6 --- --- 13.9 NNW 0.23 15.7 -16.9 --- --- 720.9 0.019 0.000 8.7 7 1
02/19/06 1:41 p -8.4 -8.4 -8.4 --- --- 12.2 NNW 0.20 15.7 -16.3 --- --- 720.9 0.019 0.000 8.7 7 1
02/19/06 1:42 p -8.4 -8.4 -8.4 --- --- 12.2 NNW 0.20 13.9 -16.3 --- --- 721.0 0.019 0.000 8.7 7 1
02/19/06 1:43 p -8.4 -8.4 -8.5 --- --- 13.0 NNW 0.22 15.7 -16.6 --- --- 720.9 0.019 0.000 8.7 7 1
02/19/06 1:44 p -8.5 -8.5 -8.6 --- --- 13.9 NNW 0.23 14.8 -16.9 --- --- 720.9 0.019 0.000 8.7 7 1
02/19/06 1:45 p -8.5 -8.4 -8.5 --- --- 13.0 NNW 0.22 14.8 -16.7 --- --- 720.9 0.019 0.000 8.7 7 1
02/19/06 1:46 p -8.4 -8.4 -8.5 --- --- 11.3 NNW 0.19 13.9 -16.1 --- --- 720.9 0.019 0.000 8.7 7 1
02/19/06 1:47 p -8.4 -8.4 -8.5 --- --- 12.2 NNW 0.20 13.9 -16.3 --- --- 720.9 0.019 0.000 8.7 7 1
02/19/06 1:48 p -8.4 -8.4 -8.4 --- --- 13.0 NNW 0.22 14.8 -16.6 --- --- 720.9 0.019 0.000 8.7 7 1
02/19/06 1:49 p -8.4 -8.4 -8.4 --- --- 13.9 NNW 0.23 16.5 -16.8 --- --- 720.9 0.019 0.000 8.7 7 1
02/19/06 1:50 p -8.3 -8.3 -8.4 --- --- 13.9 NNW 0.23 17.4 -16.7 --- --- 720.9 0.019 0.000 8.7 7 1
02/19/06 1:51 p -8.3 -8.3 -8.3 --- --- 13.9 NNW 0.23 16.5 -16.7 --- --- 721.0 0.018 0.000 8.7 6 1
02/19/06 1:52 p -8.3 -8.3 -8.3 --- --- 11.3 NNW 0.19 13.0 -15.8 --- --- 721.0 0.018 0.000 8.7 7 1
02/19/06 1:53 p -8.3 -8.3 -8.3 --- --- 13.9 NNW 0.23 15.7 -16.7 --- --- 721.0 0.019 0.000 8.7 7 1
02/19/06 1:54 p -8.3 -8.3 -8.3 --- --- 13.9 NNW 0.23 15.7 -16.7 --- --- 721.0 0.019 0.000 8.7 7 1
02/19/06 1:55 p -8.3 -8.3 -8.3 --- --- 15.7 NNW 0.26 17.4 -17.1 --- --- 721.0 0.018 0.000 8.7 7 1
02/19/06 1:56 p -8.3 -8.2 -8.3 --- --- 13.0 NNW 0.22 14.8 -16.4 --- --- 720.9 0.018 0.000 8.7 7 1
02/19/06 1:57 p -8.2 -8.2 -8.2 --- --- 12.2 NNW 0.20 15.7 -16.1 --- --- 720.9 0.018 0.000 8.7 7 1
02/19/06 1:58 p -8.2 -8.2 -8.2 --- --- 12.2 NNW 0.20 14.8 -16.1 --- --- 721.0 0.018 0.000 8.7 6 1
02/19/06 1:59 p -8.2 -8.2 -8.2 --- --- 13.9 NNW 0.23 16.5 -16.6 --- --- 721.0 0.018 0.000 8.7 7 1
02/19/06 2:00 p -8.3 -8.2 -8.3 --- --- 14.8 NNW 0.25 17.4 -16.9 --- --- 721.0 0.018 0.000 8.7 7 1
02/19/06 2:01 p -8.2 -8.2 -8.2 --- --- 14.8 NNW 0.25 18.3 -16.8 --- --- 720.9 0.018 0.000 8.7 7 1
02/19/06 2:02 p -8.2 -8.2 -8.2 --- --- 13.9 NNW 0.23 16.5 -16.6 --- --- 721.0 0.018 0.000 8.7 7 1
02/19/06 2:03 p -8.2 -8.2 -8.3 --- --- 13.9 NNW 0.23 15.7 -16.6 --- --- 721.0 0.018 0.000 8.7 7 1
02/19/06 2:04 p -8.3 -8.2 -8.3 --- --- 12.2 NNW 0.20 13.9 -16.1 --- --- 721.0 0.018 0.000 8.7 7 1
02/19/06 2:05 p -8.3 -8.3 -8.3 --- --- 13.0 NNW 0.22 14.8 -16.4 --- --- 721.0 0.018 0.000 8.7 6 1
02/19/06 2:06 p -8.3 -8.3 -8.3 --- --- 11.3 NNW 0.19 14.8 -15.8 --- --- 721.0 0.018 0.000 8.7 7 1
02/19/06 2:07 p -8.3 -8.3 -8.3 --- --- 12.2 NNW 0.20 14.8 -16.1 --- --- 721.1 0.018 0.000 8.7 7 1
02/19/06 2:08 p -8.3 -8.3 -8.3 --- --- 11.3 NNW 0.19 13.0 -15.8 --- --- 721.0 0.018 0.000 8.7 7 1
02/19/06 2:09 p -8.3 -8.3 -8.3 --- --- 13.0 NNW 0.22 15.7 -16.4 --- --- 721.0 0.018 0.000 8.7 7 1
02/19/06 2:10 p -8.3 -8.3 -8.3 --- --- 13.0 NNW 0.22 14.8 -16.4 --- --- 721.1 0.019 0.000 8.7 7 1
02/19/06 2:11 p -8.3 -8.3 -8.3 --- --- 13.0 NNW 0.22 16.5 -16.4 --- --- 721.0 0.019 0.000 8.7 7 1
02/19/06 2:12 p -8.3 -8.2 -8.3 --- --- 12.2 NNW 0.20 13.0 -16.1 --- --- 721.1 0.018 0.000 8.7 7 1
02/19/06 2:13 p -8.2 -8.2 -8.3 --- --- 13.0 NNW 0.22 14.8 -16.3 --- --- 721.0 0.018 0.000 8.7 7 1
02/19/06 2:14 p -8.3 -8.3 -8.3 --- --- 13.0 NNW 0.22 15.7 -16.4 --- --- 721.1 0.018 0.000 8.7 6 1
02/19/06 2:15 p -8.3 -8.3 -8.3 --- --- 13.0 NNW 0.22 14.8 -16.4 --- --- 721.0 0.018 0.000 8.7 7 1
02/19/06 2:16 p -8.3 -8.3 -8.3 --- --- 13.0 NNW 0.22 13.9 -16.4 --- --- 721.1 0.019 0.000 8.7 7 1
02/19/06 2:17 p -8.4 -8.3 -8.4 --- --- 14.8 NNW 0.25 17.4 -17.0 --- --- 721.1 0.019 0.000 8.7 7 1
02/19/06 2:18 p -8.3 -8.3 -8.4 --- --- 10.4 NNW 0.17 13.0 -15.6 --- --- 721.0 0.019 0.000 8.7 6 1
02/19/06 2:19 p -8.3 -8.3 -8.3 --- --- 11.3 NNW 0.19 13.9 -15.8 --- --- 721.1 0.018 0.000 8.7 7 1
02/19/06 2:20 p -8.3 -8.3 -8.4 --- --- 13.0 NNW 0.22 15.7 -16.4 --- --- 721.1 0.019 0.000 8.7 7 1
02/19/06 2:21 p -8.4 -8.4 -8.4 --- --- 13.9 NNW 0.23 15.7 -16.8 --- --- 721.0 0.019 0.000 8.7 7 1
02/19/06 2:22 p -8.4 -8.4 -8.4 --- --- 13.0 NW 0.22 16.5 -16.6 --- --- 721.1 0.019 0.000 8.6 7 1
02/19/06 2:23 p -8.4 -8.4 -8.4 --- --- 17.4 NNW 0.29 20.9 -17.7 --- --- 721.0 0.019 0.000 8.6 7 1
02/19/06 2:24 p -8.3 -8.3 -8.4 --- --- 14.8 NNW 0.25 19.1 -16.9 --- --- 721.1 0.019 0.000 8.6 7 1
02/19/06 2:25 p -8.3 -8.3 -8.3 --- --- 11.3 NNW 0.19 13.9 -15.9 --- --- 721.1 0.019 0.000 8.6 7 1
02/19/06 2:26 p -8.4 -8.3 -8.4 --- --- 13.0 NNW 0.22 16.5 -16.6 --- --- 721.1 0.019 0.000 8.6 7 1
02/19/06 2:27 p -8.4 -8.4 -8.4 --- --- 13.9 NNW 0.23 16.5 -16.8 --- --- 721.1 0.019 0.000 8.6 7 1
02/19/06 2:28 p -8.4 -8.4 -8.4 --- --- 16.5 NW 0.28 20.0 -17.4 --- --- 721.1 0.019 0.000 8.6 7 1
02/19/06 2:29 p -8.4 -8.4 -8.4 --- --- 13.0 NNW 0.22 20.0 -16.6 --- --- 721.2 0.019 0.000 8.6 7 1
02/19/06 2:30 p -8.4 -8.4 -8.4 --- --- 17.4 NW 0.29 21.7 -17.7 --- --- 721.1 0.019 0.000 8.6 6 1
02/19/06 2:31 p -8.4 -8.4 -8.5 --- --- 12.2 NW 0.20 13.9 -16.3 --- --- 721.1 0.019 0.000 8.6 6 1
02/19/06 2:32 p -8.5 -8.5 -8.5 --- --- 13.0 NW 0.22 16.5 -16.7 --- --- 721.2 0.019 0.000 8.6 7 1
02/19/06 2:33 p -8.5 -8.5 -8.5 --- --- 12.2 NW 0.20 14.8 -16.4 --- --- 721.2 0.019 0.000 8.6 7 1
02/19/06 2:34 p -8.6 -8.5 -8.6 --- --- 12.2 NW 0.20 13.9 -16.5 --- --- 721.2 0.019 0.000 8.6 7 1
02/19/06 2:35 p -8.6 -8.6 -8.6 --- --- 11.3 NNW 0.19 12.2 -16.3 --- --- 721.1 0.019 0.000 8.6 7 1
02/19/06 2:36 p -8.6 -8.6 -8.6 --- --- 11.3 NNW 0.19 13.0 -16.3 --- --- 721.2 0.019 0.000 8.6 7 1
02/19/06 2:37 p -8.6 -8.6 -8.7 --- --- 11.3 NW 0.19 13.9 -16.3 --- --- 721.2 0.019 0.000 8.6 7 1
02/19/06 2:38 p -8.7 -8.7 -8.7 --- --- 13.0 NNW 0.22 15.7 -16.9 --- --- 721.1 0.019 0.000 8.6 7 1
02/19/06 2:39 p -8.6 -8.6 -8.7 --- --- 13.9 NNW 0.23 17.4 -17.1 --- --- 721.2 0.019 0.000 8.6 7 1
02/19/06 2:40 p -8.6 -8.6 -8.6 --- --- 14.8 NNW 0.25 16.5 -17.2 --- --- 721.2 0.019 0.000 8.6 7 1
02/19/06 2:41 p -8.6 -8.6 -8.6 --- --- 13.9 NNW 0.23 16.5 -17.0 --- --- 721.2 0.019 0.000 8.6 7 1
02/19/06 2:42 p -8.6 -8.6 -8.6 --- --- 13.9 NNW 0.23 15.7 -17.1 --- --- 721.2 0.019 0.000 8.6 7 1
02/19/06 2:43 p -8.6 -8.6 -8.6 --- --- 12.2 NNW 0.20 13.9 -16.6 --- --- 721.2 0.019 0.000 8.6 7 1
02/19/06 2:44 p -8.6 -8.6 -8.6 --- --- 12.2 NNW 0.20 13.9 -16.6 --- --- 721.3 0.019 0.000 8.6 7 1
02/19/06 2:45 p -8.6 -8.6 -8.6 --- --- 10.4 NNW 0.17 11.3 -15.9 --- --- 721.3 0.019 0.000 8.6 7 1
02/19/06 2:46 p -8.7 -8.7 -8.7 --- --- 11.3 NNW 0.19 13.9 -16.3 --- --- 721.3 0.019 0.000 8.6 7 1
02/19/06 2:47 p -8.7 -8.7 -8.7 --- --- 12.2 NNW 0.20 13.9 -16.6 --- --- 721.3 0.019 0.000 8.6 7 1
02/19/06 2:48 p -8.7 -8.7 -8.7 --- --- 14.8 NNW 0.25 17.4 -17.4 --- --- 721.2 0.019 0.000 8.6 7 1
02/19/06 2:49 p -8.7 -8.7 -8.7 --- --- 12.2 NW 0.20 15.7 -16.6 --- --- 721.3 0.019 0.000 8.6 7 1
02/19/06 2:50 p -8.7 -8.7 -8.7 --- --- 10.4 NNW 0.17 12.2 -16.1 --- --- 721.3 0.019 0.000 8.6 7 1
02/19/06 2:51 p -8.7 -8.7 -8.8 --- --- 13.0 NNW 0.22 14.8 -16.9 --- --- 721.2 0.019 0.000 8.6 7 1
02/19/06 2:52 p -8.8 -8.8 -8.8 --- --- 13.9 NNW 0.23 14.8 -17.3 --- --- 721.3 0.019 0.000 8.6 7 1
02/19/06 2:53 p -8.8 -8.8 -8.8 --- --- 12.2 NNW 0.20 13.9 -16.8 --- --- 721.2 0.019 0.000 8.6 7 1
02/19/06 2:54 p -8.8 -8.8 -8.8 --- --- 13.0 NNW 0.22 13.9 -17.0 --- --- 721.3 0.019 0.000 8.6 7 1
02/19/06 2:55 p -8.8 -8.8 -8.8 --- --- 12.2 NNW 0.20 14.8 -16.8 --- --- 721.2 0.019 0.000 8.6 7 1
02/19/06 2:56 p -8.8 -8.7 -8.8 --- --- 12.2 NNW 0.20 13.9 -16.8 --- --- 721.2 0.019 0.000 8.6 6 1
02/19/06 2:57 p -8.8 -8.8 -8.8 --- --- 12.2 NNW 0.20 13.9 -16.8 --- --- 721.4 0.019 0.000 8.6 7 1
02/19/06 2:58 p -8.8 -8.8 -8.8 --- --- 13.0 NNW 0.22 15.7 -17.1 --- --- 721.4 0.019 0.000 8.6 6 1
02/19/06 2:59 p -8.8 -8.8 -8.8 --- --- 13.9 NNW 0.23 16.5 -17.3 --- --- 721.4 0.019 0.000 8.6 6 1
02/19/06 3:00 p -8.8 -8.8 -8.8 --- --- 11.3 NNW 0.19 13.0 -16.4 --- --- 721.4 0.019 0.000 8.6 6 1
02/19/06 3:01 p -8.9 -8.8 -8.9 --- --- 10.4 NNW 0.17 13.9 -16.3 --- --- 721.4 0.019 0.000 8.6 7 1
02/19/06 3:02 p -8.9 -8.9 -8.9 --- --- 15.7 NNW 0.26 18.3 -17.8 --- --- 721.4 0.019 0.000 8.6 7 1
02/19/06 3:03 p -8.8 -8.8 -8.8 --- --- 13.0 NNW 0.22 15.7 -17.1 --- --- 721.3 0.019 0.000 8.6 7 1
02/19/06 3:04 p -8.8 -8.7 -8.8 --- --- 15.7 NNW 0.26 18.3 -17.8 --- --- 721.3 0.019 0.000 8.6 7 1
02/19/06 3:05 p -8.7 -8.7 -8.7 --- --- 13.9 NNW 0.23 17.4 -17.2 --- --- 721.3 0.019 0.000 8.5 7 1
02/19/06 3:06 p -8.7 -8.7 -8.7 --- --- 17.4 NNW 0.29 20.9 -18.1 --- --- 721.2 0.019 0.000 8.5 7 1
02/19/06 3:07 p -8.7 -8.7 -8.7 --- --- 13.9 NNW 0.23 18.3 -17.2 --- --- 721.3 0.019 0.000 8.5 7 1
02/19/06 3:08 p -8.7 -8.7 -8.7 --- --- 13.0 NNW 0.22 20.0 -16.9 --- --- 721.2 0.019 0.000 8.5 6 1
02/19/06 3:09 p -8.6 -8.6 -8.7 --- --- 16.5 NNW 0.28 20.9 -17.8 --- --- 721.3 0.019 0.000 8.5 7 1
02/19/06 3:10 p -8.6 -8.6 -8.6 --- --- 13.9 NNW 0.23 15.7 -17.0 --- --- 721.4 0.019 0.000 8.5 6 1
02/19/06 3:11 p -8.7 -8.6 -8.7 --- --- 15.7 NNW 0.26 19.1 -17.6 --- --- 721.3 0.019 0.000 8.5 7 1
02/19/06 3:12 p -8.7 -8.6 -8.7 --- --- 19.1 NW 0.32 20.9 -18.4 --- --- 721.3 0.019 0.000 8.5 6 1
02/19/06 3:13 p -8.6 -8.6 -8.6 --- --- 14.8 NW 0.25 19.1 -17.2 --- --- 721.3 0.019 0.000 8.5 7 1
02/19/06 3:14 p -8.6 -8.5 -8.6 --- --- 14.8 NW 0.25 20.0 -17.2 --- --- 721.3 0.019 0.000 8.4 7 1
02/19/06 3:15 p -8.6 -8.5 -8.6 --- --- 14.8 NNW 0.25 19.1 -17.2 --- --- 721.3 0.019 0.000 8.4 7 1
02/19/06 3:16 p -8.6 -8.6 -8.6 --- --- 20.0 NW 0.33 21.7 -18.5 --- --- 721.3 0.019 0.000 8.4 6 1
02/19/06 3:17 p -8.5 -8.5 -8.6 --- --- 12.2 NW 0.20 16.5 -16.4 --- --- 721.4 0.019 0.000 8.4 7 1
02/19/06 3:18 p -8.6 -8.5 -8.6 --- --- 14.8 NNW 0.25 17.4 -17.2 --- --- 721.3 0.019 0.000 8.4 6 1
02/19/06 3:19 p -8.6 -8.6 -8.7 --- --- 15.7 NNW 0.26 17.4 -17.6 --- --- 721.4 0.019 0.000 8.4 6 1
02/19/06 3:20 p -8.7 -8.7 -8.7 --- --- 13.9 NNW 0.23 17.4 -17.2 --- --- 721.3 0.019 0.000 8.4 6 1
02/19/06 3:21 p -8.7 -8.7 -8.7 --- --- 13.0 NW 0.22 13.9 -16.9 --- --- 721.3 0.019 0.000 8.4 7 1
02/19/06 3:22 p -8.7 -8.6 -8.7 --- --- 13.0 NNW 0.22 15.7 -16.9 --- --- 721.3 0.019 0.000 8.4 7 1
02/19/06 3:23 p -8.6 -8.6 -8.6 --- --- 18.3 NNW 0.30 23.5 -18.1 --- --- 721.2 0.019 0.000 8.4 7 1
02/19/06 3:24 p -8.6 -8.6 -8.6 --- --- 14.8 NW 0.25 19.1 -17.2 --- --- 721.3 0.019 0.000 8.4 6 1
02/19/06 3:25 p -8.6 -8.6 -8.7 --- --- 13.9 NNW 0.23 16.5 -17.1 --- --- 721.4 0.019 0.000 8.4 6 1
02/19/06 3:26 p -8.7 -8.7 -8.7 --- --- 14.8 NNW 0.25 17.4 -17.4 --- --- 721.3 0.019 0.000 8.4 7 1
02/19/06 3:27 p -8.7 -8.6 -8.7 --- --- 13.9 NNW 0.23 16.5 -17.2 --- --- 721.4 0.019 0.000 8.4 7 1
02/19/06 3:28 p -8.7 -8.7 -8.7 --- --- 13.0 NNW 0.22 15.7 -16.9 --- --- 721.3 0.019 0.000 8.4 7 1
02/19/06 3:29 p -8.7 -8.7 -8.7 --- --- 13.9 NNW 0.23 15.7 -17.2 --- --- 721.3 0.019 0.000 8.4 7 1
02/19/06 3:30 p -8.7 -8.7 -8.7 --- --- 13.9 NNW 0.23 15.7 -17.2 --- --- 721.4 0.019 0.000 8.4 7 1
02/19/06 3:31 p -8.7 -8.7 -8.7 --- --- 13.9 NW 0.23 14.8 -17.2 --- --- 721.4 0.019 0.000 8.4 6 1
02/19/06 3:32 p -8.7 -8.6 -8.7 --- --- 14.8 NNW 0.25 19.1 -17.4 --- --- 721.4 0.019 0.000 8.4 7 1
02/19/06 3:33 p -8.6 -8.6 -8.6 --- --- 13.0 NNW 0.22 13.9 -16.7 --- --- 721.5 0.019 0.000 8.4 7 1
02/19/06 3:34 p -8.6 -8.6 -8.6 --- --- 13.0 NNW 0.22 15.7 -16.8 --- --- 721.4 0.019 0.000 8.4 6 1
02/19/06 3:35 p -8.6 -8.6 -8.6 --- --- 13.9 NNW 0.23 15.7 -17.1 --- --- 721.4 0.019 0.000 8.4 7 1
02/19/06 3:36 p -8.6 -8.6 -8.6 --- --- 13.9 NNW 0.23 18.3 -17.1 --- --- 721.4 0.019 0.000 8.4 7 1
02/19/06 3:37 p -8.6 -8.6 -8.7 --- --- 13.0 NW 0.22 16.5 -16.8 --- --- 721.4 0.019 0.000 8.4 6 1
02/19/06 3:38 p -8.7 -8.7 -8.7 --- --- 11.3 NNW 0.19 13.9 -16.3 --- --- 721.5 0.019 0.000 8.4 7 1
02/19/06 3:39 p -8.7 -8.6 -8.7 --- --- 13.9 NNW 0.23 17.4 -17.2 --- --- 721.5 0.019 0.000 8.4 7 1
02/19/06 3:40 p -8.6 -8.6 -8.6 --- --- 11.3 NNW 0.19 14.8 -16.3 --- --- 721.5 0.019 0.000 8.4 7 1
02/19/06 3:41 p -8.7 -8.6 -8.7 --- --- 13.9 NNW 0.23 15.7 -17.2 --- --- 721.5 0.019 0.000 8.4 7 1
02/19/06 3:42 p -8.7 -8.7 -8.7 --- --- 13.9 NNW 0.23 17.4 -17.2 --- --- 721.5 0.019 0.000 8.4 7 1
02/19/06 3:43 p -8.6 -8.6 -8.7 --- --- 14.8 NNW 0.25 17.4 -17.3 --- --- 721.4 0.019 0.000 8.4 7 1
02/19/06 3:44 p -8.6 -8.6 -8.6 --- --- 14.8 NW 0.25 17.4 -17.3 --- --- 721.5 0.019 0.000 8.4 7 1
02/19/06 3:45 p -8.5 -8.5 -8.6 --- --- 12.2 NNW 0.20 15.7 -16.4 --- --- 721.5 0.019 0.000 8.4 7 1
02/19/06 3:46 p -8.6 -8.6 -8.6 --- --- 18.3 NW 0.30 21.7 -18.1 --- --- 721.6 0.019 0.000 8.4 7 1
02/19/06 3:47 p -8.6 -8.6 -8.7 --- --- 13.9 NW 0.23 15.7 -17.1 --- --- 721.6 0.019 0.000 8.4 7 1
02/19/06 3:48 p -8.7 -8.7 -8.8 --- --- 14.8 NW 0.25 18.3 -17.4 --- --- 721.6 0.019 0.000 8.4 7 1
02/19/06 3:49 p -8.8 -8.7 -8.8 --- --- 13.9 NW 0.23 14.8 -17.3 --- --- 721.6 0.019 0.000 8.4 7 1
02/19/06 3:50 p -8.7 -8.7 -8.7 --- --- 12.2 NW 0.20 16.5 -16.6 --- --- 721.5 0.019 0.000 8.3 7 1
02/19/06 3:51 p -8.7 -8.6 -8.7 --- --- 16.5 NNW 0.28 20.0 -17.8 --- --- 721.5 0.019 0.000 8.4 7 1
02/19/06 3:52 p -8.6 -8.6 -8.6 --- --- 13.9 NNW 0.23 17.4 -17.1 --- --- 721.6 0.019 0.000 8.4 7 1
02/19/06 3:53 p -8.7 -8.6 -8.7 --- --- 14.8 NW 0.25 18.3 -17.4 --- --- 721.6 0.019 0.000 8.4 7 1
02/19/06 3:54 p -8.7 -8.7 -8.7 --- --- 14.8 NW 0.25 18.3 -17.4 --- --- 721.6 0.019 0.000 8.3 7 1
02/19/06 3:55 p -8.7 -8.7 -8.8 --- --- 13.9 NNW 0.23 15.7 -17.2 --- --- 721.6 0.019 0.000 8.3 6 1
02/19/06 3:56 p -8.8 -8.8 -8.8 --- --- 11.3 NNW 0.19 14.8 -16.6 --- --- 721.6 0.019 0.000 8.3 6 1
02/19/06 3:57 p -8.8 -8.8 -8.9 --- --- 13.9 NW 0.23 15.7 -17.3 --- --- 721.6 0.019 0.000 8.3 7 1
02/19/06 3:58 p -8.9 -8.9 -8.9 --- --- 12.2 NNW 0.20 14.8 -16.9 --- --- 721.7 0.019 0.000 8.3 7 1
02/19/06 3:59 p -8.9 -8.9 -9.0 --- --- 11.3 NNW 0.19 12.2 -16.7 --- --- 721.7 0.019 0.000 8.3 7 1
02/19/06 4:00 p -9.0 -9.0 -9.0 --- --- 10.4 NNW 0.17 12.2 -16.4 --- --- 721.7 0.019 0.000 8.3 7 1
02/19/06 4:01 p -9.1 -9.0 -9.1 --- --- 9.6 NNW 0.16 11.3 -16.2 --- --- 721.8 0.019 0.000 8.3 7 1
02/19/06 4:02 p -9.1 -9.1 -9.2 --- --- 9.6 NW 0.16 10.4 -16.2 --- --- 721.8 0.019 0.000 8.4 7 1
02/19/06 4:03 p -9.2 -9.1 -9.2 --- --- 10.4 NNW 0.17 14.8 -16.7 --- --- 721.8 0.019 0.000 8.4 6 1
02/19/06 4:04 p -9.1 -8.9 -9.1 --- --- 13.0 N 0.22 17.4 -17.4 --- --- 721.7 0.019 0.000 8.4 7 1
02/19/06 4:05 p -8.9 -8.9 -9.0 --- --- 13.9 NW 0.23 17.4 -17.5 --- --- 721.8 0.019 0.000 8.4 7 1
02/19/06 4:06 p -9.0 -9.0 -9.1 --- --- 13.0 NNW 0.22 14.8 -17.3 --- --- 721.8 0.019 0.000 8.4 7 1
02/19/06 4:07 p -9.1 -9.0 -9.1 --- --- 13.0 NNW 0.22 18.3 -17.4 --- --- 721.8 0.019 0.000 8.4 7 1
02/19/06 4:08 p -9.0 -9.0 -9.1 --- --- 14.8 NNW 0.25 20.0 -17.8 --- --- 721.7 0.019 0.000 8.4 7 1
02/19/06 4:09 p -9.1 -9.1 -9.1 --- --- 17.4 NW 0.29 19.1 -18.5 --- --- 721.8 0.019 0.000 8.4 7 1
02/19/06 4:10 p -9.1 -9.1 -9.1 --- --- 16.5 NW 0.28 20.0 -18.3 --- --- 721.7 0.019 0.000 8.4 7 1
02/19/06 4:11 p -9.0 -8.9 -9.1 --- --- 16.5 NW 0.28 20.0 -18.2 --- --- 721.8 0.019 0.000 8.4 7 1
02/19/06 4:12 p -8.9 -8.8 -8.9 --- --- 18.3 NW 0.30 22.6 -18.5 --- --- 721.8 0.019 0.000 8.4 7 1
02/19/06 4:13 p -8.9 -8.9 -8.9 --- --- 13.0 NNW 0.22 15.7 -17.2 --- --- 721.8 0.019 0.000 8.4 6 1
02/19/06 4:14 p -9.1 -9.0 -9.1 --- --- 15.7 NNW 0.26 20.0 -18.1 --- --- 721.8 0.019 0.000 8.4 6 1
02/19/06 4:15 p -9.1 -8.9 -9.1 --- --- 13.9 NNW 0.23 19.1 -17.7 --- --- 721.8 0.019 0.000 8.4 6 1
02/19/06 4:16 p -8.9 -8.8 -8.9 --- --- 9.6 N 0.16 11.3 -15.9 --- --- 721.8 0.019 0.000 8.4 7 1
02/19/06 4:17 p -9.0 -8.8 -9.1 --- --- 11.3 NNW 0.19 13.0 -16.7 --- --- 721.9 0.019 0.000 8.4 6 1
02/19/06 4:18 p -9.1 -9.1 -9.1 --- --- 12.2 NNW 0.20 15.7 -17.2 --- --- 721.8 0.019 0.000 8.4 6 1
02/19/06 4:19 p -9.1 -9.1 -9.1 --- --- 12.2 NNW 0.20 14.8 -17.2 --- --- 721.9 0.019 0.000 8.4 7 1
02/19/06 4:20 p -9.1 -9.1 -9.1 --- --- 12.2 NNW 0.20 14.8 -17.1 --- --- 721.9 0.019 0.000 8.4 7 1
02/19/06 4:21 p -9.1 -9.1 -9.2 --- --- 11.3 NNW 0.19 13.9 -16.9 --- --- 722.0 0.019 0.000 8.4 6 1
02/19/06 4:22 p -9.2 -9.2 -9.2 --- --- 11.3 NNW 0.19 14.8 -17.1 --- --- 721.9 0.019 0.000 8.4 7 1
02/19/06 4:23 p -9.3 -9.2 -9.3 --- --- 12.2 NNW 0.20 13.9 -17.4 --- --- 722.0 0.019 0.000 8.4 7 1
02/19/06 4:24 p -9.2 -9.2 -9.3 --- --- 10.4 NNW 0.17 12.2 -16.7 --- --- 722.0 0.019 0.000 8.4 7 1
02/19/06 4:25 p -9.2 -9.2 -9.3 --- --- 12.2 NNW 0.20 14.8 -17.3 --- --- 722.0 0.019 0.000 8.4 7 1
02/19/06 4:26 p -9.2 -9.2 -9.3 --- --- 12.2 NW 0.20 14.8 -17.3 --- --- 721.9 0.019 0.000 8.4 6 1
02/19/06 4:27 p -9.2 -9.2 -9.2 --- --- 13.0 NNW 0.22 14.8 -17.5 --- --- 721.9 0.019 0.000 8.4 7 1
02/19/06 4:28 p -9.2 -9.2 -9.2 --- --- 13.9 NNW 0.23 16.5 -17.8 --- --- 721.9 0.019 0.000 8.4 6 1
02/19/06 4:29 p -9.2 -9.2 -9.2 --- --- 13.0 NNW 0.22 15.7 -17.5 --- --- 722.0 0.019 0.000 8.4 7 1
02/19/06 4:30 p -9.2 -9.2 -9.2 --- --- 11.3 NNW 0.19 13.9 -16.9 --- --- 721.9 0.019 0.000 8.4 7 1
02/19/06 4:31 p -9.2 -9.2 -9.2 --- --- 13.0 NW 0.22 15.7 -17.6 --- --- 721.9 0.019 0.000 8.4 7 1
02/19/06 4:32 p -9.2 -9.2 -9.2 --- --- 12.2 NNW 0.20 14.8 -17.3 --- --- 722.0 0.019 0.000 8.4 7 1
02/19/06 4:33 p -9.2 -9.2 -9.3 --- --- 13.0 NNW 0.22 15.7 -17.6 --- --- 722.0 0.019 0.000 8.4 7 1
02/19/06 4:34 p -9.3 -9.3 -9.3 --- --- 12.2 NNW 0.20 13.9 -17.4 --- --- 722.0 0.019 0.000 8.4 7 1
02/19/06 4:35 p -9.2 -9.2 -9.2 --- --- 11.3 NNW 0.19 13.0 -17.1 --- --- 722.1 0.019 0.000 8.4 6 1
02/19/06 4:36 p -9.2 -9.2 -9.2 --- --- 11.3 NNW 0.19 17.4 -17.1 --- --- 722.0 0.019 0.000 8.4 6 1
02/19/06 4:37 p -9.2 -9.2 -9.2 --- --- 11.3 NW 0.19 13.0 -17.1 --- --- 722.1 0.019 0.000 8.4 6 1
02/19/06 4:38 p -9.3 -9.3 -9.3 --- --- 10.4 NNW 0.17 13.0 -16.8 --- --- 722.1 0.019 0.000 8.4 7 1
02/19/06 4:39 p -9.3 -9.3 -9.3 --- --- 9.6 NW 0.16 11.3 -16.4 --- --- 722.1 0.019 0.000 8.4 6 1
02/19/06 4:40 p -9.4 -9.4 -9.4 --- --- 7.8 NW 0.13 10.4 -15.8 --- --- 722.1 0.019 0.000 8.4 6 1
02/19/06 4:41 p -9.4 -9.4 -9.4 --- --- 10.4 NNW 0.17 12.2 -17.0 --- --- 722.2 0.019 0.000 8.4 6 1
02/19/06 4:42 p -9.4 -9.3 -9.4 --- --- 8.7 NW 0.14 10.4 -16.2 --- --- 722.2 0.019 0.000 8.4 7 1
02/19/06 4:43 p -9.3 -9.3 -9.4 --- --- 8.7 NW 0.14 10.4 -16.2 --- --- 722.2 0.019 0.000 8.4 7 1
02/19/06 4:44 p -9.4 -9.4 -9.4 --- --- 9.6 NNW 0.16 11.3 -16.7 --- --- 722.2 0.019 0.000 8.4 6 1
02/19/06 4:45 p -9.4 -9.4 -9.4 --- --- 9.6 NNW 0.16 11.3 -16.6 --- --- 722.2 0.019 0.000 8.4 6 1
02/19/06 4:46 p -9.4 -9.4 -9.4 --- --- 8.7 NW 0.14 10.4 -16.2 --- --- 722.2 0.019 0.000 8.4 6 1
02/19/06 4:47 p -9.4 -9.4 -9.5 --- --- 9.6 NW 0.16 10.4 -16.7 --- --- 722.1 0.019 0.000 8.4 6 1
02/19/06 4:48 p -9.5 -9.5 -9.6 --- --- 8.7 NW 0.14 9.6 -16.4 --- --- 722.2 0.019 0.000 8.4 6 1
02/19/06 4:49 p -9.6 -9.6 -9.7 --- --- 8.7 NW 0.14 10.4 -16.5 --- --- 722.1 0.019 0.000 8.4 6 1
02/19/06 4:50 p -9.6 -9.6 -9.7 --- --- 8.7 NW 0.14 11.3 -16.5 --- --- 722.2 0.019 0.000 8.4 7 1
02/19/06 4:51 p -9.6 -9.6 -9.6 --- --- 9.6 NW 0.16 11.3 -16.9 --- --- 722.1 0.019 0.000 8.4 7 1
02/19/06 4:52 p -9.6 -9.6 -9.6 --- --- 10.4 NW 0.17 12.2 -17.2 --- --- 722.2 0.019 0.000 8.4 6 1
02/19/06 4:53 p -9.5 -9.4 -9.6 --- --- 11.3 NNW 0.19 13.9 -17.4 --- --- 722.2 0.019 0.000 8.4 7 1
02/19/06 4:54 p -9.4 -9.4 -9.4 --- --- 9.6 NW 0.16 11.3 -16.7 --- --- 722.2 0.019 0.000 8.4 6 1
02/19/06 4:55 p -9.4 -9.4 -9.5 --- --- 10.4 NW 0.17 13.0 -17.0 --- --- 722.1 0.019 0.000 8.4 6 1
02/19/06 4:56 p -9.4 -9.4 -9.5 --- --- 8.7 NNW 0.14 10.4 -16.3 --- --- 722.1 0.019 0.000 8.4 6 1
02/19/06 4:57 p -9.4 -9.4 -9.4 --- --- 9.6 NNW 0.16 11.3 -16.7 --- --- 722.2 0.019 0.000 8.5 6 1
02/19/06 4:58 p -9.4 -9.4 -9.4 --- --- 9.6 NNW 0.16 11.3 -16.7 --- --- 722.2 0.019 0.000 8.4 7 1
02/19/06 4:59 p -9.4 -9.4 -9.4 --- --- 10.4 NNW 0.17 11.3 -17.0 --- --- 722.2 0.019 0.000 8.4 7 1
02/19/06 5:00 p -9.4 -9.4 -9.4 --- --- 10.4 NNW 0.17 11.3 -16.9 --- --- 722.2 0.019 0.000 8.4 6 1
02/19/06 5:01 p -9.4 -9.4 -9.4 --- --- 9.6 NW 0.16 11.3 -16.6 --- --- 722.2 0.019 0.000 8.4 6 1
02/19/06 5:02 p -9.4 -9.4 -9.4 --- --- 10.4 NNW 0.17 11.3 -16.9 --- --- 722.2 0.019 0.000 8.4 7 1
02/19/06 5:03 p -9.4 -9.4 -9.4 --- --- 11.3 NNW 0.19 13.0 -17.3 --- --- 722.1 0.019 0.000 8.4 6 1
02/19/06 5:04 p -9.4 -9.3 -9.4 --- --- 10.4 NNW 0.17 13.9 -16.9 --- --- 722.2 0.019 0.000 8.4 6 1
02/19/06 5:05 p -9.3 -9.3 -9.3 --- --- 12.2 NNW 0.20 13.0 -17.4 --- --- 722.2 0.019 0.000 8.4 6 1
02/19/06 5:06 p -9.4 -9.4 -9.4 --- --- 11.3 NW 0.19 13.9 -17.2 --- --- 722.2 0.019 0.000 8.4 6 1
02/19/06 5:07 p -9.4 -9.4 -9.4 --- --- 10.4 NW 0.17 12.2 -16.9 --- --- 722.2 0.019 0.000 8.4 6 1
02/19/06 5:08 p -9.3 -9.3 -9.4 --- --- 11.3 NW 0.19 13.0 -17.2 --- --- 722.3 0.019 0.000 8.4 6 1
02/19/06 5:09 p -9.4 -9.3 -9.4 --- --- 7.8 NW 0.13 9.6 -15.8 --- --- 722.2 0.019 0.000 8.4 6 1
02/19/06 5:10 p -9.4 -9.4 -9.4 --- --- 9.6 NW 0.16 12.2 -16.6 --- --- 722.3 0.019 0.000 8.5 6 1
02/19/06 5:11 p -9.4 -9.4 -9.5 --- --- 9.6 NW 0.16 12.2 -16.7 --- --- 722.3 0.019 0.000 8.5 6 1
02/19/06 5:12 p -9.5 -9.5 -9.5 --- --- 12.2 NW 0.20 13.9 -17.7 --- --- 722.2 0.019 0.000 8.4 6 1
02/19/06 5:13 p -9.4 -9.3 -9.5 --- --- 12.2 NW 0.20 14.8 -17.6 --- --- 722.3 0.019 0.000 8.5 6 1
02/19/06 5:14 p -9.3 -9.2 -9.3 --- --- 11.3 NW 0.19 14.8 -17.1 --- --- 722.3 0.019 0.000 8.5 6 1
02/19/06 5:15 p -9.2 -9.1 -9.2 --- --- 10.4 NNW 0.17 15.7 -16.7 --- --- 722.3 0.019 0.000 8.5 6 1
02/19/06 5:16 p -9.2 -9.1 -9.2 --- --- 11.3 NW 0.19 13.9 -16.9 --- --- 722.2 0.019 0.000 8.5 6 1
02/19/06 5:17 p -9.3 -9.2 -9.3 --- --- 14.8 NW 0.25 18.3 -18.1 --- --- 722.2 0.019 0.000 8.5 6 1
02/19/06 5:18 p -9.2 -9.1 -9.3 --- --- 13.9 NNW 0.23 18.3 -17.8 --- --- 722.4 0.019 0.000 8.5 6 1
02/19/06 5:19 p -9.1 -9.1 -9.1 --- --- 13.0 NW 0.22 20.9 -17.4 --- --- 722.3 0.019 0.000 8.5 6 1
02/19/06 5:20 p -9.1 -9.0 -9.1 --- --- 17.4 NW 0.29 20.0 -18.5 --- --- 722.4 0.019 0.000 8.5 6 1
02/19/06 5:21 p -9.0 -9.0 -9.1 --- --- 14.8 NNW 0.25 20.9 -17.8 --- --- 722.4 0.019 0.000 8.5 6 1
02/19/06 5:22 p -9.0 -8.9 -9.1 --- --- 12.2 NW 0.20 15.7 -17.1 --- --- 722.4 0.019 0.000 8.5 6 1
02/19/06 5:23 p -9.1 -8.9 -9.1 --- --- 11.3 NW 0.19 16.5 -16.8 --- --- 722.5 0.019 0.000 8.5 6 1
02/19/06 5:24 p -9.1 -9.1 -9.1 --- --- 12.2 NW 0.20 14.8 -17.2 --- --- 722.4 0.019 0.000 8.5 6 1
02/19/06 5:25 p -9.1 -9.0 -9.1 --- --- 14.8 NW 0.25 18.3 -17.8 --- --- 722.4 0.019 0.000 8.5 6 1
02/19/06 5:26 p -8.9 -8.8 -9.0 --- --- 20.9 NW 0.35 24.3 -19.1 --- --- 722.4 0.019 0.000 8.5 6 1
02/19/06 5:27 p -8.7 -8.7 -8.8 --- --- 13.0 NW 0.22 20.0 -16.9 --- --- 722.5 0.019 0.000 8.4 6 1
02/19/06 5:28 p -8.7 -8.7 -8.7 --- --- 10.4 NW 0.17 14.8 -16.0 --- --- 722.5 0.019 0.000 8.4 6 1
02/19/06 5:29 p -8.8 -8.7 -8.9 --- --- 12.2 NW 0.20 17.4 -16.8 --- --- 722.5 0.019 0.000 8.4 6 1
02/19/06 5:30 p -8.9 -8.9 -8.9 --- --- 14.8 NNW 0.25 18.3 -17.7 --- --- 722.4 0.019 0.000 8.4 6 1
02/19/06 5:31 p -8.9 -8.8 -8.9 --- --- 17.4 NW 0.29 19.1 -18.3 --- --- 722.4 0.019 0.000 8.4 6 1
02/19/06 5:32 p -8.8 -8.8 -8.8 --- --- 12.2 NW 0.20 13.9 -16.8 --- --- 722.5 0.019 0.000 8.4 6 1
02/19/06 5:33 p -8.8 -8.8 -8.9 --- --- 9.6 NNW 0.16 12.2 -15.9 --- --- 722.5 0.019 0.000 8.4 6 1
02/19/06 5:34 p -8.9 -8.9 -8.9 --- --- 12.2 NW 0.20 16.5 -16.9 --- --- 722.5 0.019 0.000 8.4 6 1
02/19/06 5:35 p -9.0 -8.9 -9.0 --- --- 13.0 NW 0.22 16.5 -17.3 --- --- 722.5 0.019 0.000 8.4 6 1
02/19/06 5:36 p -9.0 -9.0 -9.0 --- --- 10.4 NNW 0.17 15.7 -16.4 --- --- 722.5 0.019 0.000 8.4 6 1
02/19/06 5:37 p -8.9 -8.9 -9.0 --- --- 13.0 NNW 0.22 14.8 -17.2 --- --- 722.5 0.019 0.000 8.4 6 1
02/19/06 5:38 p -8.9 -8.9 -9.1 --- --- 11.3 NNW 0.19 13.9 -16.7 --- --- 722.4 0.019 0.000 8.4 6 1
02/19/06 5:39 p -9.0 -8.9 -9.1 --- --- 11.3 NNW 0.19 13.9 -16.7 --- --- 722.6 0.019 0.000 8.4 6 1
02/19/06 5:40 p -9.0 -8.9 -9.1 --- --- 12.2 NNW 0.20 15.7 -17.1 --- --- 722.5 0.019 0.000 8.4 6 1
02/19/06 5:41 p -9.1 -9.1 -9.2 --- --- 15.7 NNW 0.26 20.0 -18.1 --- --- 722.5 0.019 0.000 8.4 6 1
02/19/06 5:42 p -8.9 -8.9 -9.0 --- --- 12.2 NNW 0.20 15.7 -16.9 --- --- 722.5 0.019 0.000 8.4 6 1
02/19/06 5:43 p -8.8 -8.8 -8.9 --- --- 13.9 NW 0.23 19.1 -17.3 --- --- 722.4 0.019 0.000 8.4 6 1
02/19/06 5:44 p -8.8 -8.7 -8.8 --- --- 15.7 NNW 0.26 20.0 -17.8 --- --- 722.5 0.019 0.000 8.4 6 1
02/19/06 5:45 p -8.7 -8.7 -8.7 --- --- 15.7 NNW 0.26 18.3 -17.7 --- --- 722.5 0.019 0.000 8.4 6 1
02/19/06 5:46 p -8.7 -8.6 -8.7 --- --- 13.9 NNW 0.23 18.3 -17.2 --- --- 722.5 0.019 0.000 8.4 6 1
02/19/06 5:47 p -8.6 -8.5 -8.6 --- --- 13.0 NNW 0.22 19.1 -16.7 --- --- 722.4 0.019 0.000 8.4 6 1
02/19/06 5:48 p -8.6 -8.6 -8.7 --- --- 16.5 NW 0.28 22.6 -17.8 --- --- 722.5 0.019 0.000 8.4 6 1
02/19/06 5:49 p -8.4 -8.4 -8.5 --- --- 19.1 NW 0.32 21.7 -18.1 --- --- 722.6 0.019 0.000 8.4 6 1
02/19/06 5:50 p -8.4 -8.4 -8.4 --- --- 10.4 NW 0.17 14.8 -15.7 --- --- 722.6 0.019 0.000 8.4 6 1
02/19/06 5:51 p -8.6 -8.6 -8.7 --- --- 13.0 NNW 0.22 17.4 -16.8 --- --- 722.5 0.019 0.000 8.4 6 1
02/19/06 5:52 p -8.8 -8.7 -8.8 --- --- 15.7 NNW 0.26 19.1 -17.8 --- --- 722.6 0.019 0.000 8.4 6 1
02/19/06 5:53 p -8.7 -8.6 -8.7 --- --- 13.9 NNW 0.23 19.1 -17.2 --- --- 722.6 0.019 0.000 8.4 6 1
02/19/06 5:54 p -8.7 -8.7 -8.7 --- --- 19.1 NNW 0.32 21.7 -18.4 --- --- 722.6 0.019 0.000 8.4 6 1
02/19/06 5:55 p -8.7 -8.7 -8.8 --- --- 10.4 NNW 0.17 15.7 -16.0 --- --- 722.6 0.019 0.000 8.4 6 1
02/19/06 5:56 p -8.8 -8.8 -8.8 --- --- 8.7 NNW 0.14 10.4 -15.6 --- --- 722.7 0.019 0.000 8.4 6 1
02/19/06 5:57 p -8.8 -8.8 -8.9 --- --- 11.3 NNW 0.19 13.9 -16.6 --- --- 722.7 0.019 0.000 8.4 6 1
02/19/06 5:58 p -8.8 -8.8 -8.9 --- --- 13.0 NNW 0.22 17.4 -17.1 --- --- 722.7 0.019 0.000 8.4 6 1
02/19/06 5:59 p -8.7 -8.7 -8.8 --- --- 13.0 NNW 0.22 20.0 -16.9 --- --- 722.6 0.019 0.000 8.4 6 1
02/19/06 6:00 p -8.7 -8.7 -8.7 --- --- 14.8 NNW 0.25 18.3 -17.4 --- --- 722.6 0.019 0.000 8.4 6 1
02/19/06 6:01 p -8.6 -8.6 -8.7 --- --- 11.3 NNW 0.19 14.8 -16.3 --- --- 722.6 0.019 0.000 8.4 6 1
02/19/06 6:02 p -8.6 -8.6 -8.7 --- --- 16.5 NNW 0.28 20.9 -17.8 --- --- 722.6 0.019 0.000 8.4 6 1
02/19/06 6:03 p -8.6 -8.5 -8.7 --- --- 15.7 NNW 0.26 18.3 -17.6 --- --- 722.6 0.019 0.000 8.5 6 1
02/19/06 6:04 p -8.4 -8.4 -8.5 --- --- 12.2 NNW 0.20 16.5 -16.3 --- --- 722.6 0.019 0.000 8.4 6 1
02/19/06 6:05 p -8.5 -8.4 -8.6 --- --- 13.9 NNW 0.23 16.5 -16.9 --- --- 722.6 0.019 0.000 8.4 6 1
02/19/06 6:06 p -8.6 -8.6 -8.7 --- --- 15.7 NW 0.26 19.1 -17.6 --- --- 722.6 0.019 0.000 8.4 6 1
02/19/06 6:07 p -8.5 -8.5 -8.5 --- --- 14.8 NNW 0.25 19.1 -17.2 --- --- 722.6 0.019 0.000 8.4 6 1
02/19/06 6:08 p -8.6 -8.6 -8.6 --- --- 12.2 NW 0.20 15.7 -16.5 --- --- 722.7 0.019 0.000 8.4 6 1
02/19/06 6:09 p -8.7 -8.6 -8.7 --- --- 12.2 NNW 0.20 13.9 -16.6 --- --- 722.6 0.019 0.000 8.4 6 1
02/19/06 6:10 p -8.7 -8.7 -8.8 --- --- 13.0 NNW 0.22 16.5 -16.9 --- --- 722.7 0.019 0.000 8.4 6 1
02/19/06 6:11 p -8.6 -8.6 -8.7 --- --- 13.0 NNW 0.22 19.1 -16.8 --- --- 722.7 0.019 0.000 8.4 6 1
02/19/06 6:12 p -8.5 -8.4 -8.6 --- --- 13.9 NNW 0.23 17.4 -16.9 --- --- 722.7 0.019 0.000 8.4 6 1
02/19/06 6:13 p -8.4 -8.4 -8.4 --- --- 13.9 NNW 0.23 16.5 -16.8 --- --- 722.7 0.019 0.000 8.4 6 1
02/19/06 6:14 p -8.4 -8.4 -8.5 --- --- 14.8 NNW 0.25 17.4 -17.1 --- --- 722.7 0.019 0.000 8.4 6 1
02/19/06 6:15 p -8.4 -8.4 -8.4 --- --- 13.9 NNW 0.23 16.5 -16.8 --- --- 722.8 0.019 0.000 8.4 6 1
02/19/06 6:16 p -8.5 -8.4 -8.5 --- --- 13.0 NNW 0.22 15.7 -16.7 --- --- 722.7 0.019 0.000 8.4 6 1
02/19/06 6:17 p -8.5 -8.5 -8.6 --- --- 12.2 NNW 0.20 13.9 -16.4 --- --- 722.7 0.019 0.000 8.4 6 1
02/19/06 6:18 p -8.5 -8.4 -8.6 --- --- 13.9 NNW 0.23 17.4 -16.9 --- --- 722.7 0.019 0.000 8.4 6 1
02/19/06 6:19 p -8.3 -8.3 -8.3 --- --- 15.7 NNW 0.26 19.1 -17.1 --- --- 722.7 0.018 0.000 8.4 6 1
02/19/06 6:20 p -8.3 -8.3 -8.3 --- --- 14.8 NNW 0.25 18.3 -16.9 --- --- 722.7 0.019 0.000 8.4 6 1
02/19/06 6:21 p -8.3 -8.3 -8.3 --- --- 15.7 NNW 0.26 19.1 -17.2 --- --- 722.7 0.019 0.000 8.4 6 1
02/19/06 6:22 p -8.4 -8.3 -8.4 --- --- 14.8 NNW 0.25 17.4 -17.0 --- --- 722.7 0.019 0.000 8.4 6 1
02/19/06 6:23 p -8.4 -8.4 -8.4 --- --- 13.9 NNW 0.23 16.5 -16.8 --- --- 722.8 0.019 0.000 8.4 6 1
02/19/06 6:24 p -8.4 -8.4 -8.4 --- --- 16.5 NNW 0.28 20.0 -17.4 --- --- 722.7 0.019 0.000 8.4 6 1
02/19/06 6:25 p -8.4 -8.4 -8.4 --- --- 15.7 NNW 0.26 17.4 -17.3 --- --- 722.7 0.019 0.000 8.4 6 1
02/19/06 6:26 p -8.4 -8.4 -8.4 --- --- 17.4 NNW 0.29 20.9 -17.7 --- --- 722.7 0.019 0.000 8.4 6 1
02/19/06 6:27 p -8.3 -8.3 -8.4 --- --- 14.8 NNW 0.25 18.3 -16.9 --- --- 722.7 0.019 0.000 8.4 6 1
02/19/06 6:28 p -8.4 -8.4 -8.4 --- --- 14.8 NNW 0.25 17.4 -17.1 --- --- 722.8 0.019 0.000 8.4 6 1
02/19/06 6:29 p -8.5 -8.4 -8.5 --- --- 17.4 NNW 0.29 20.0 -17.8 --- --- 722.7 0.019 0.000 8.4 6 1
02/19/06 6:30 p -8.4 -8.3 -8.4 --- --- 16.5 NNW 0.28 20.9 -17.4 --- --- 722.8 0.019 0.000 8.4 6 1
02/19/06 6:31 p -8.3 -8.3 -8.3 --- --- 16.5 NNW 0.28 20.0 -17.3 --- --- 722.8 0.018 0.000 8.4 6 1
02/19/06 6:32 p -8.4 -8.3 -8.4 --- --- 12.2 NNW 0.20 14.8 -16.3 --- --- 722.8 0.019 0.000 8.4 6 1
02/19/06 6:33 p -8.4 -8.4 -8.4 --- --- 14.8 NNW 0.25 17.4 -17.1 --- --- 722.8 0.019 0.000 8.4 6 1
02/19/06 6:34 p -8.4 -8.4 -8.5 --- --- 13.9 NNW 0.23 14.8 -16.8 --- --- 722.8 0.019 0.000 8.4 6 1
02/19/06 6:35 p -8.5 -8.5 -8.6 --- --- 14.8 NNW 0.25 16.5 -17.2 --- --- 722.8 0.019 0.000 8.4 6 1
02/19/06 6:36 p -8.5 -8.4 -8.5 --- --- 14.8 NNW 0.25 16.5 -17.2 --- --- 722.9 0.019 0.000 8.4 6 1
02/19/06 6:37 p -8.4 -8.4 -8.5 --- --- 14.8 NNW 0.25 16.5 -17.1 --- --- 722.8 0.019 0.000 8.4 6 1
02/19/06 6:38 p -8.4 -8.3 -8.4 --- --- 13.9 NNW 0.23 16.5 -16.8 --- --- 722.9 0.019 0.000 8.4 6 1
02/19/06 6:39 p -8.3 -8.3 -8.3 --- --- 13.0 NNW 0.22 15.7 -16.4 --- --- 722.9 0.019 0.000 8.4 6 1
02/19/06 6:40 p -8.3 -8.3 -8.4 --- --- 11.3 NNW 0.19 13.9 -15.9 --- --- 723.0 0.019 0.000 8.3 6 1
02/19/06 6:41 p -8.4 -8.4 -8.5 --- --- 10.4 NNW 0.17 13.0 -15.7 --- --- 722.9 0.019 0.000 8.3 6 1
02/19/06 6:42 p -8.5 -8.4 -8.5 --- --- 12.2 NNW 0.20 13.9 -16.4 --- --- 722.9 0.019 0.000 8.3 6 1
02/19/06 6:43 p -8.4 -8.4 -8.4 --- --- 11.3 NNW 0.19 13.0 -16.1 --- --- 722.9 0.019 0.000 8.3 6 1
02/19/06 6:44 p -8.4 -8.4 -8.4 --- --- 11.3 NNW 0.19 13.9 -16.0 --- --- 723.0 0.019 0.000 8.4 6 1
02/19/06 6:45 p -8.4 -8.4 -8.5 --- --- 9.6 NNW 0.16 11.3 -15.4 --- --- 722.9 0.019 0.000 8.3 6 1
02/19/06 6:46 p -8.4 -8.4 -8.5 --- --- 9.6 NNW 0.16 11.3 -15.4 --- --- 722.9 0.019 0.000 8.4 6 1
02/19/06 6:47 p -8.4 -8.4 -8.5 --- --- 10.4 NNW 0.17 12.2 -15.7 --- --- 722.9 0.019 0.000 8.4 6 1
02/19/06 6:48 p -8.4 -8.4 -8.5 --- --- 9.6 NNW 0.16 10.4 -15.4 --- --- 723.0 0.019 0.000 8.4 6 1
02/19/06 6:49 p -8.5 -8.5 -8.5 --- --- 8.7 NNW 0.14 10.4 -15.1 --- --- 723.0 0.019 0.000 8.4 6 1
02/19/06 6:50 p -8.5 -8.5 -8.6 --- --- 7.8 NNW 0.13 10.4 -14.7 --- --- 723.0 0.019 0.000 8.4 6 1
02/19/06 6:51 p -8.5 -8.4 -8.5 --- --- 9.6 NNW 0.16 11.3 -15.5 --- --- 723.0 0.019 0.000 8.4 6 1
02/19/06 6:52 p -8.4 -8.4 -8.4 --- --- 7.8 NW 0.13 9.6 -14.6 --- --- 723.0 0.019 0.000 8.4 6 1
02/19/06 6:53 p -8.4 -8.4 -8.4 --- --- 7.0 NNW 0.12 7.8 -14.2 --- --- 723.0 0.019 0.000 8.4 6 1
02/19/06 6:54 p -8.4 -8.4 -8.5 --- --- 5.2 NW 0.09 7.0 -13.3 --- --- 723.1 0.019 0.000 8.4 6 1
02/19/06 6:55 p -8.5 -8.5 -8.6 --- --- 5.2 NW 0.09 5.2 -13.3 --- --- 723.0 0.019 0.000 8.4 6 1
02/19/06 6:56 p -8.6 -8.6 -8.6 --- --- 4.3 NW 0.07 5.2 -12.8 --- --- 723.0 0.019 0.000 8.4 6 1
02/19/06 6:57 p -8.6 -8.6 -8.6 --- --- 3.5 NW 0.06 4.3 -12.1 --- --- 723.1 0.019 0.000 8.4 6 1
02/19/06 6:58 p -8.6 -8.6 -8.6 --- --- 4.3 NW 0.07 5.2 -12.8 --- --- 723.1 0.019 0.000 8.4 6 1
02/19/06 6:59 p -8.6 -8.5 -8.6 --- --- 4.3 NW 0.07 5.2 -12.8 --- --- 723.1 0.019 0.000 8.4 6 1
02/19/06 7:00 p -8.5 -8.5 -8.5 --- --- 4.3 NW 0.07 4.3 -12.7 --- --- 723.1 0.019 0.000 8.4 6 1
02/19/06 7:01 p -8.5 -8.5 -8.5 --- --- 3.5 NW 0.06 4.3 -12.0 --- --- 723.2 0.019 0.000 8.4 6 1
02/19/06 7:02 p -8.5 -8.5 -8.5 --- --- 3.5 NW 0.06 3.5 -12.0 --- --- 723.2 0.019 0.000 8.4 6 1
02/19/06 7:03 p -8.5 -8.5 -8.6 --- --- 2.6 W 0.04 3.5 -11.1 --- --- 723.2 0.019 0.000 8.4 6 1
02/19/06 7:04 p -8.6 -8.6 -8.6 --- --- 3.5 WSW 0.06 4.3 -12.1 --- --- 723.3 0.019 0.000 8.4 6 1
02/19/06 7:05 p -8.6 -8.6 -8.6 --- --- 4.3 WSW 0.07 5.2 -12.8 --- --- 723.3 0.019 0.000 8.4 6 1
02/19/06 7:06 p -8.6 -8.6 -8.6 --- --- 5.2 WSW 0.09 7.8 -13.4 --- --- 723.2 0.019 0.000 8.4 6 1
02/19/06 7:07 p -8.6 -8.6 -8.7 --- --- 5.2 SW 0.09 7.8 -13.4 --- --- 723.3 0.019 0.000 8.4 6 1
02/19/06 7:08 p -8.8 -8.7 -8.8 --- --- 4.3 SW 0.07 5.2 -13.1 --- --- 723.3 0.019 0.000 8.4 6 1
02/19/06 7:09 p -8.8 -8.8 -8.8 --- --- 4.3 SW 0.07 4.3 -13.1 --- --- 723.3 0.019 0.000 8.4 6 1
02/19/06 7:10 p -8.8 -8.8 -8.8 --- --- 3.5 SW 0.06 4.3 -12.4 --- --- 723.3 0.019 0.000 8.4 6 1
02/19/06 7:11 p -8.8 -8.8 -8.8 --- --- 1.7 SW 0.03 2.6 -10.2 --- --- 723.3 0.019 0.000 8.4 6 1
02/19/06 7:12 p -8.8 -8.8 -8.8 --- --- 2.6 SW 0.04 3.5 -11.4 --- --- 723.3 0.019 0.000 8.4 6 1
02/19/06 7:13 p -8.8 -8.8 -8.8 --- --- 2.6 SW 0.04 3.5 -11.5 --- --- 723.3 0.019 0.000 8.4 6 1
02/19/06 7:14 p -8.8 -8.8 -8.8 --- --- 3.5 SW 0.06 4.3 -12.4 --- --- 723.4 0.019 0.000 8.4 6 1
02/19/06 7:15 p -8.9 -8.8 -8.9 --- --- 4.3 SW 0.07 5.2 -13.2 --- --- 723.3 0.019 0.000 8.4 6 1
02/19/06 7:16 p -8.9 -8.9 -8.9 --- --- 3.5 WSW 0.06 4.3 -12.4 --- --- 723.4 0.019 0.000 8.4 6 1
02/19/06 7:17 p -9.0 -8.9 -9.0 --- --- 2.6 WSW 0.04 3.5 -11.7 --- --- 723.4 0.019 0.000 8.4 6 1
02/19/06 7:18 p -9.0 -9.0 -9.0 --- --- 2.6 WSW 0.04 3.5 -11.7 --- --- 723.4 0.019 0.000 8.4 6 1
02/19/06 7:19 p -8.9 -8.9 -9.0 --- --- 1.7 WSW 0.03 2.6 -10.4 --- --- 723.4 0.019 0.000 8.4 6 1
02/19/06 7:20 p -8.9 -8.9 -8.9 --- --- 1.7 WSW 0.03 1.7 -10.4 --- --- 723.4 0.019 0.000 8.4 6 1
02/19/06 7:21 p -8.9 -8.9 -8.9 --- --- 0.9 WSW 0.01 1.7 -8.9 --- --- 723.4 0.019 0.000 8.4 6 1
02/19/06 7:22 p -8.9 -8.9 -8.9 --- --- 1.7 WSW 0.03 2.6 -10.3 --- --- 723.4 0.019 0.000 8.4 6 1
02/19/06 7:23 p -8.9 -8.9 -8.9 --- --- 1.7 WSW 0.03 2.6 -10.3 --- --- 723.4 0.019 0.000 8.4 6 1
02/19/06 7:24 p -8.9 -8.9 -8.9 --- --- 0.9 WSW 0.01 1.7 -8.9 --- --- 723.3 0.019 0.000 8.4 6 1
02/19/06 7:25 p -8.8 -8.8 -8.9 --- --- 1.7 WSW 0.03 2.6 -10.3 --- --- 723.5 0.019 0.000 8.4 6 1
02/19/06 7:26 p -8.8 -8.8 -8.8 --- --- 1.7 WSW 0.03 3.5 -10.3 --- --- 723.5 0.019 0.000 8.4 6 1
02/19/06 7:27 p -8.8 -8.8 -8.8 --- --- 0.9 WSW 0.01 1.7 -8.8 --- --- 723.4 0.019 0.000 8.4 6 1
02/19/06 7:28 p -8.8 -8.8 -8.8 --- --- 1.7 WSW 0.03 2.6 -10.2 --- --- 723.5 0.019 0.000 8.4 6 1
02/19/06 7:29 p -8.7 -8.7 -8.8 --- --- 0.0 WSW 0.00 1.7 -8.7 --- --- 723.5 0.019 0.000 8.4 6 1
02/19/06 7:30 p -8.7 -8.7 -8.7 --- --- 0.0 --- 0.00 0.0 -8.7 --- --- 723.5 0.019 0.000 8.4 6 1
02/19/06 7:31 p -8.7 -8.6 -8.7 --- --- 0.0 --- 0.00 0.0 -8.7 --- --- 723.5 0.019 0.000 8.4 6 1
02/19/06 7:32 p -8.6 -8.6 -8.6 --- --- 0.0 --- 0.00 0.0 -8.6 --- --- 723.4 0.019 0.000 8.4 6 1
02/19/06 7:33 p -8.6 -8.6 -8.6 --- --- 0.0 WSW 0.00 0.9 -8.6 --- --- 723.5 0.019 0.000 8.4 6 1
02/19/06 7:34 p -8.6 -8.6 -8.6 --- --- 0.0 --- 0.00 0.0 -8.6 --- --- 723.4 0.019 0.000 8.4 6 1
02/19/06 7:35 p -8.6 -8.6 -8.6 --- --- 0.0 WSW 0.00 0.9 -8.6 --- --- 723.5 0.019 0.000 8.4 6 1
02/19/06 7:36 p -8.6 -8.6 -8.6 --- --- 0.0 --- 0.00 0.0 -8.6 --- --- 723.5 0.019 0.000 8.4 6 1
02/19/06 7:37 p -8.5 -8.5 -8.6 --- --- 0.0 --- 0.00 0.0 -8.5 --- --- 723.6 0.019 0.000 8.4 6 1
02/19/06 7:38 p -8.5 -8.5 -8.5 --- --- 0.0 WSW 0.00 0.9 -8.5 --- --- 723.5 0.019 0.000 8.5 6 1
02/19/06 7:39 p -8.5 -8.5 -8.5 --- --- 0.0 WSW 0.00 0.9 -8.5 --- --- 723.5 0.019 0.000 8.5 6 1
02/19/06 7:40 p -8.4 -8.4 -8.5 --- --- 0.0 --- 0.00 0.0 -8.4 --- --- 723.5 0.019 0.000 8.5 6 1
02/19/06 7:41 p -8.4 -8.4 -8.5 --- --- 0.9 WSW 0.01 2.6 -8.4 --- --- 723.5 0.019 0.000 8.5 6 1
02/19/06 7:42 p -8.5 -8.5 -8.6 --- --- 0.9 WSW 0.01 1.7 -8.5 --- --- 723.5 0.019 0.000 8.5 6 1
02/19/06 7:43 p -8.6 -8.6 -8.6 --- --- 2.6 WSW 0.04 2.6 -11.2 --- --- 723.5 0.019 0.000 8.6 6 1
02/19/06 7:44 p -8.7 -8.6 -8.7 --- --- 1.7 WSW 0.03 2.6 -10.1 --- --- 723.5 0.019 0.000 8.6 6 1
02/19/06 7:45 p -8.7 -8.7 -8.7 --- --- 2.6 WSW 0.04 3.5 -11.3 --- --- 723.5 0.019 0.000 8.6 6 1
02/19/06 7:46 p -8.7 -8.7 -8.7 --- --- 0.0 WSW 0.00 1.7 -8.7 --- --- 723.5 0.019 0.000 8.6 6 1
02/19/06 7:47 p -8.7 -8.6 -8.7 --- --- 0.0 WSW 0.00 0.9 -8.7 --- --- 723.5 0.019 0.000 8.6 6 1
02/19/06 7:48 p -8.7 -8.6 -8.7 --- --- 1.7 WSW 0.03 2.6 -10.1 --- --- 723.4 0.019 0.000 8.6 6 1
02/19/06 7:49 p -8.7 -8.7 -8.7 --- --- 0.0 WSW 0.00 1.7 -8.7 --- --- 723.5 0.019 0.000 8.6 6 1
02/19/06 7:50 p -8.7 -8.7 -8.7 --- --- 1.7 WSW 0.03 1.7 -10.1 --- --- 723.5 0.019 0.000 8.6 6 1
02/19/06 7:51 p -8.7 -8.7 -8.7 --- --- 1.7 WSW 0.03 2.6 -10.1 --- --- 723.6 0.019 0.000 8.6 6 1
02/19/06 7:52 p -8.7 -8.7 -8.7 --- --- 0.9 WSW 0.01 1.7 -8.7 --- --- 723.6 0.019 0.000 8.6 6 1
02/19/06 7:53 p -8.7 -8.6 -8.7 --- --- 0.9 WSW 0.01 1.7 -8.7 --- --- 723.5 0.019 0.000 8.6 6 1
02/19/06 7:54 p -8.6 -8.6 -8.6 --- --- 0.0 WSW 0.00 0.9 -8.6 --- --- 723.6 0.019 0.000 8.6 7 1
02/19/06 7:55 p -8.6 -8.6 -8.6 --- --- 1.7 WSW 0.03 2.6 -10.0 --- --- 723.6 0.019 0.000 8.6 7 1
02/19/06 7:56 p -8.6 -8.6 -8.6 --- --- 1.7 WSW 0.03 3.5 -10.0 --- --- 723.7 0.019 0.000 8.6 7 1
02/19/06 7:57 p -8.6 -8.6 -8.6 --- --- 1.7 WSW 0.03 1.7 -10.0 --- --- 723.7 0.019 0.000 8.6 7 1
02/19/06 7:58 p -8.6 -8.6 -8.6 --- --- 1.7 WSW 0.03 1.7 -10.0 --- --- 723.7 0.019 0.000 8.6 7 1
02/19/06 7:59 p -8.6 -8.6 -8.6 --- --- 1.7 WSW 0.03 1.7 -10.0 --- --- 723.6 0.019 0.000 8.6 7 1
02/19/06 8:00 p -8.6 -8.6 -8.6 --- --- 0.9 WSW 0.01 1.7 -8.6 --- --- 723.6 0.019 0.000 8.6 7 1
02/19/06 8:01 p -8.6 -8.6 -8.6 --- --- 1.7 WSW 0.03 2.6 -10.1 --- --- 723.6 0.019 0.000 8.6 7 1
02/19/06 8:02 p -8.6 -8.6 -8.6 --- --- 1.7 WSW 0.03 2.6 -10.0 --- --- 723.6 0.019 0.000 8.6 7 1
02/19/06 8:03 p -8.6 -8.6 -8.6 --- --- 1.7 WSW 0.03 2.6 -10.0 --- --- 723.7 0.019 0.000 8.6 7 1
02/19/06 8:04 p -8.6 -8.5 -8.6 --- --- 0.9 WSW 0.01 1.7 -8.6 --- --- 723.7 0.019 0.000 8.6 7 1
02/19/06 8:05 p -8.5 -8.5 -8.5 --- --- 2.6 WSW 0.04 3.5 -11.1 --- --- 723.7 0.019 0.000 8.6 7 1
02/19/06 8:06 p -8.5 -8.4 -8.5 --- --- 0.9 W 0.01 2.6 -8.5 --- --- 723.6 0.019 0.000 8.6 7 1
02/19/06 8:07 p -8.4 -8.4 -8.4 --- --- 0.9 W 0.01 1.7 -8.4 --- --- 723.7 0.019 0.000 8.6 7 1
02/19/06 8:08 p -8.4 -8.4 -8.4 --- --- 0.0 W 0.00 0.9 -8.4 --- --- 723.6 0.019 0.000 8.6 7 1
02/19/06 8:09 p -8.4 -8.3 -8.4 --- --- 0.0 W 0.00 1.7 -8.4 --- --- 723.7 0.019 0.000 8.6 7 1
02/19/06 8:10 p -8.3 -8.3 -8.3 --- --- 1.7 W 0.03 1.7 -9.7 --- --- 723.7 0.019 0.000 8.6 7 1
02/19/06 8:11 p -8.3 -8.3 -8.3 --- --- 1.7 W 0.03 2.6 -9.7 --- --- 723.6 0.019 0.000 8.5 7 1
02/19/06 8:12 p -8.3 -8.3 -8.3 --- --- 1.7 W 0.03 2.6 -9.7 --- --- 723.8 0.018 0.000 8.6 7 1
02/19/06 8:13 p -8.3 -8.3 -8.3 --- --- 0.9 W 0.01 1.7 -8.3 --- --- 723.6 0.018 0.000 8.6 7 1
02/19/06 8:14 p -8.3 -8.3 -8.3 --- --- 0.9 W 0.01 1.7 -8.3 --- --- 723.6 0.019 0.000 8.6 7 1
02/19/06 8:15 p -8.3 -8.3 -8.4 --- --- 0.9 W 0.01 1.7 -8.3 --- --- 723.7 0.019 0.000 8.6 7 1
02/19/06 8:16 p -8.4 -8.3 -8.4 --- --- 1.7 W 0.03 2.6 -9.8 --- --- 723.7 0.019 0.000 8.6 7 1
02/19/06 8:17 p -8.4 -8.3 -8.4 --- --- 1.7 W 0.03 2.6 -9.8 --- --- 723.7 0.019 0.000 8.6 7 1
02/19/06 8:18 p -8.4 -8.4 -8.4 --- --- 4.3 W 0.07 5.2 -12.6 --- --- 723.7 0.019 0.000 8.6 7 1
02/19/06 8:19 p -8.4 -8.4 -8.4 --- --- 2.6 WNW 0.04 4.3 -11.0 --- --- 723.6 0.019 0.000 8.6 7 1
02/19/06 8:20 p -8.4 -8.4 -8.4 --- --- 2.6 W 0.04 4.3 -11.0 --- --- 723.7 0.019 0.000 8.6 7 1
02/19/06 8:21 p -8.4 -8.4 -8.4 --- --- 3.5 W 0.06 5.2 -11.9 --- --- 723.6 0.019 0.000 8.6 7 1
02/19/06 8:22 p -8.4 -8.4 -8.4 --- --- 3.5 WSW 0.06 5.2 -11.9 --- --- 723.7 0.019 0.000 8.6 7 1
02/19/06 8:23 p -8.4 -8.3 -8.4 --- --- 3.5 SW 0.06 6.1 -11.9 --- --- 723.7 0.019 0.000 8.6 7 1
02/19/06 8:24 p -8.3 -8.3 -8.4 --- --- 5.2 SW 0.09 7.8 -13.1 --- --- 723.6 0.019 0.000 8.6 7 1
02/19/06 8:25 p -8.4 -8.3 -8.4 --- --- 4.3 SSW 0.07 6.1 -12.6 --- --- 723.6 0.019 0.000 8.6 7 1
02/19/06 8:26 p -8.3 -8.3 -8.3 --- --- 3.5 SW 0.06 5.2 -11.8 --- --- 723.6 0.019 0.000 8.6 7 1
02/19/06 8:27 p -8.3 -8.3 -8.3 --- --- 4.3 SW 0.07 5.2 -12.5 --- --- 723.7 0.019 0.000 8.6 7 1
02/19/06 8:28 p -8.3 -8.3 -8.3 --- --- 3.5 SW 0.06 5.2 -11.7 --- --- 723.7 0.018 0.000 8.6 7 1
02/19/06 8:29 p -8.3 -8.2 -8.3 --- --- 3.5 SW 0.06 6.1 -11.7 --- --- 723.7 0.018 0.000 8.6 7 1
02/19/06 8:30 p -8.2 -8.2 -8.2 --- --- 3.5 SW 0.06 5.2 -11.7 --- --- 723.8 0.018 0.000 8.6 7 1
02/19/06 8:31 p -8.2 -8.2 -8.2 --- --- 3.5 SW 0.06 4.3 -11.7 --- --- 723.8 0.018 0.000 8.6 7 1
02/19/06 8:32 p -8.2 -8.1 -8.2 --- --- 3.5 SW 0.06 5.2 -11.6 --- --- 723.8 0.018 0.000 8.6 7 1
02/19/06 8:33 p -8.1 -8.1 -8.1 --- --- 1.7 SW 0.03 3.5 -9.5 --- --- 723.8 0.018 0.000 8.6 7 1
02/19/06 8:34 p -8.1 -8.1 -8.1 --- --- 1.7 SW 0.03 1.7 -9.4 --- --- 723.8 0.018 0.000 8.6 7 1
02/19/06 8:35 p -8.1 -8.0 -8.1 --- --- 2.6 SW 0.04 3.5 -10.6 --- --- 723.8 0.018 0.000 8.6 7 1
02/19/06 8:36 p -8.0 -8.0 -8.0 --- --- 1.7 SW 0.03 2.6 -9.4 --- --- 723.8 0.018 0.000 8.6 7 1
02/19/06 8:37 p -8.0 -7.9 -8.0 --- --- 0.9 SW 0.01 1.7 -8.0 --- --- 723.8 0.018 0.000 8.6 7 1
02/19/06 8:38 p -7.9 -7.9 -7.9 --- --- 1.7 SW 0.03 2.6 -9.2 --- --- 723.8 0.018 0.000 8.7 7 1
02/19/06 8:39 p -7.9 -7.9 -7.9 --- --- 4.3 SW 0.07 5.2 -12.0 --- --- 723.8 0.018 0.000 8.7 7 1
02/19/06 8:40 p -7.9 -7.9 -7.9 --- --- 3.5 WSW 0.06 5.2 -11.3 --- --- 723.8 0.018 0.000 8.7 7 1
02/19/06 8:41 p -7.9 -7.9 -7.9 --- --- 3.5 SW 0.06 5.2 -11.3 --- --- 723.8 0.018 0.000 8.7 7 1
02/19/06 8:42 p -7.9 -7.9 -7.9 --- --- 5.2 W 0.09 9.6 -12.6 --- --- 723.9 0.018 0.000 8.7 7 1
02/19/06 8:43 p -7.8 -7.8 -7.9 --- --- 3.5 W 0.06 5.2 -11.2 --- --- 723.8 0.018 0.000 8.7 7 1
02/19/06 8:44 p -7.8 -7.8 -7.8 --- --- 4.3 WSW 0.07 6.1 -11.9 --- --- 723.8 0.018 0.000 8.7 7 1
02/19/06 8:45 p -7.8 -7.8 -7.8 --- --- 4.3 WSW 0.07 7.0 -11.9 --- --- 723.7 0.018 0.000 8.7 7 1
02/19/06 8:46 p -7.8 -7.8 -7.8 --- --- 5.2 WSW 0.09 9.6 -12.4 --- --- 723.8 0.018 0.000 8.7 7 1
02/19/06 8:47 p -7.7 -7.7 -7.8 --- --- 6.1 W 0.10 8.7 -12.9 --- --- 723.8 0.018 0.000 8.7 6 1
02/19/06 8:48 p -7.7 -7.7 -7.7 --- --- 4.3 WSW 0.07 5.2 -11.7 --- --- 723.7 0.018 0.000 8.7 7 1
02/19/06 8:49 p -7.7 -7.7 -7.7 --- --- 3.5 WSW 0.06 5.2 -11.1 --- --- 723.9 0.018 0.000 8.7 7 1
02/19/06 8:50 p -7.7 -7.7 -7.7 --- --- 2.6 SW 0.04 4.3 -10.2 --- --- 723.8 0.018 0.000 8.7 7 1
02/19/06 8:51 p -7.7 -7.6 -7.7 --- --- 1.7 SW 0.03 5.2 -9.0 --- --- 723.8 0.018 0.000 8.7 6 1
02/19/06 8:52 p -7.6 -7.6 -7.6 --- --- 3.5 WSW 0.06 5.2 -10.9 --- --- 723.9 0.018 0.000 8.7 7 1
02/19/06 8:53 p -7.6 -7.6 -7.7 --- --- 4.3 WSW 0.07 5.2 -11.7 --- --- 723.9 0.018 0.000 8.7 7 1
02/19/06 8:54 p -7.7 -7.7 -7.8 --- --- 4.3 W 0.07 5.2 -11.8 --- --- 724.0 0.018 0.000 8.7 7 1
02/19/06 8:55 p -7.8 -7.8 -7.8 --- --- 2.6 WNW 0.04 3.5 -10.3 --- --- 723.9 0.018 0.000 8.7 7 1
02/19/06 8:56 p -7.8 -7.8 -7.8 --- --- 1.7 WNW 0.03 2.6 -9.2 --- --- 724.0 0.018 0.000 8.7 6 1
02/19/06 8:57 p -7.8 -7.8 -7.8 --- --- 1.7 WNW 0.03 2.6 -9.1 --- --- 724.0 0.018 0.000 8.7 7 1
02/19/06 8:58 p -7.8 -7.8 -7.8 --- --- 2.6 WNW 0.04 3.5 -10.3 --- --- 724.1 0.018 0.000 8.7 6 1
02/19/06 8:59 p -7.8 -7.8 -7.8 --- --- 4.3 WSW 0.07 6.1 -11.9 --- --- 724.1 0.018 0.000 8.7 6 1
02/19/06 9:00 p -7.8 -7.8 -7.8 --- --- 3.5 W 0.06 4.3 -11.2 --- --- 724.0 0.018 0.000 8.7 7 1
02/19/06 9:01 p -7.8 -7.8 -7.8 --- --- 1.7 W 0.03 2.6 -9.2 --- --- 723.9 0.018 0.000 8.7 6 1
02/19/06 9:02 p -7.7 -7.7 -7.8 --- --- 2.6 W 0.04 2.6 -10.2 --- --- 724.0 0.018 0.000 8.8 6 1
02/19/06 9:03 p -7.7 -7.6 -7.7 --- --- 0.0 W 0.00 0.9 -7.7 --- --- 724.0 0.018 0.000 8.8 6 1
02/19/06 9:04 p -7.6 -7.5 -7.6 --- --- 0.0 --- 0.00 0.0 -7.6 --- --- 724.1 0.018 0.000 8.8 7 1
02/19/06 9:05 p -7.5 -7.4 -7.5 --- --- 0.9 W 0.01 2.6 -7.5 --- --- 724.1 0.018 0.000 8.8 6 1
02/19/06 9:06 p -7.4 -7.4 -7.4 --- --- 2.6 NNW 0.04 4.3 -9.9 --- --- 724.1 0.018 0.000 8.8 6 1
02/19/06 9:07 p -7.4 -7.4 -7.4 --- --- 3.5 SW 0.06 6.1 -10.8 --- --- 724.2 0.018 0.000 8.8 7 1
02/19/06 9:08 p -7.4 -7.3 -7.4 --- --- 1.7 SW 0.03 2.6 -8.7 --- --- 724.0 0.018 0.000 8.8 7 1
02/19/06 9:09 p -7.2 -7.2 -7.3 --- --- 2.6 SW 0.04 3.5 -9.7 --- --- 724.1 0.018 0.000 8.8 6 1
02/19/06 9:10 p -7.1 -7.1 -7.2 --- --- 0.9 S 0.01 3.5 -7.1 --- --- 724.1 0.018 0.000 8.8 7 1
02/19/06 9:11 p -7.1 -7.0 -7.1 --- --- 0.9 S 0.01 2.6 -7.1 --- --- 724.2 0.018 0.000 8.8 7 1
02/19/06 9:12 p -6.9 -6.8 -6.9 --- --- 1.7 ESE 0.03 3.5 -8.2 --- --- 724.1 0.018 0.000 8.8 7 1
02/19/06 9:13 p -6.8 -6.8 -6.8 --- --- 1.7 ESE 0.03 3.5 -8.1 --- --- 724.2 0.017 0.000 8.8 7 1
02/19/06 9:14 p -6.8 -6.8 -6.9 --- --- 2.6 ESE 0.04 3.5 -9.2 --- --- 724.2 0.017 0.000 8.8 6 1
02/19/06 9:15 p -6.8 -6.8 -6.8 --- --- 2.6 ESE 0.04 3.5 -9.2 --- --- 724.2 0.017 0.000 8.8 7 1
02/19/06 9:16 p -6.7 -6.7 -6.7 --- --- 0.9 ESE 0.01 3.5 -6.7 --- --- 724.3 0.017 0.000 8.8 7 1
02/19/06 9:17 p -6.6 -6.6 -6.6 --- --- 2.6 ESE 0.04 3.5 -8.9 --- --- 724.2 0.017 0.000 8.8 7 1
02/19/06 9:18 p -6.6 -6.6 -6.6 --- --- 1.7 ESE 0.03 2.6 -7.8 --- --- 724.3 0.017 0.000 8.8 6 1
02/19/06 9:19 p -6.5 -6.5 -6.6 --- --- 1.7 ESE 0.03 2.6 -7.7 --- --- 724.3 0.017 0.000 8.8 7 1
02/19/06 9:20 p -6.4 -6.4 -6.5 --- --- 0.9 ESE 0.01 1.7 -6.4 --- --- 724.2 0.017 0.000 8.8 7 1
02/19/06 9:21 p -6.4 -6.4 -6.4 --- --- 0.9 ESE 0.01 1.7 -6.4 --- --- 724.3 0.017 0.000 8.8 7 1
02/19/06 9:22 p -6.4 -6.4 -6.4 --- --- 2.6 ESE 0.04 3.5 -8.7 --- --- 724.3 0.017 0.000 8.9 7 1
02/19/06 9:23 p -6.4 -6.4 -6.4 --- --- 3.5 ESE 0.06 3.5 -9.6 --- --- 724.2 0.017 0.000 8.9 7 1
02/19/06 9:24 p -6.4 -6.4 -6.4 --- --- 2.6 ESE 0.04 3.5 -8.8 --- --- 724.3 0.017 0.000 8.8 7 1
02/19/06 9:25 p -6.4 -6.4 -6.4 --- --- 2.6 ESE 0.04 4.3 -8.7 --- --- 724.3 0.017 0.000 8.9 7 1
02/19/06 9:26 p -6.4 -6.4 -6.4 --- --- 1.7 ESE 0.03 4.3 -7.7 --- --- 724.3 0.017 0.000 8.9 7 1
02/19/06 9:27 p -6.4 -6.3 -6.4 --- --- 1.7 ESE 0.03 2.6 -7.6 --- --- 724.4 0.017 0.000 8.9 7 1
02/19/06 9:28 p -6.4 -6.4 -6.4 --- --- 1.7 ESE 0.03 2.6 -7.6 --- --- 724.4 0.017 0.000 8.9 7 1
02/19/06 9:29 p -6.4 -6.4 -6.4 --- --- 2.6 ESE 0.04 3.5 -8.8 --- --- 724.4 0.017 0.000 8.9 7 1
02/19/06 9:30 p -6.5 -6.4 -6.6 --- --- 2.6 ESE 0.04 3.5 -8.8 --- --- 724.3 0.017 0.000 8.9 7 1
02/19/06 9:31 p -6.6 -6.5 -6.6 --- --- 2.6 ESE 0.04 4.3 -8.9 --- --- 724.4 0.017 0.000 8.9 7 1
02/19/06 9:32 p -6.6 -6.6 -6.6 --- --- 1.7 ESE 0.03 3.5 -7.8 --- --- 724.3 0.017 0.000 8.9 7 1
02/19/06 9:33 p -6.6 -6.5 -6.6 --- --- 1.7 ESE 0.03 2.6 -7.8 --- --- 724.4 0.017 0.000 8.9 7 1
02/19/06 9:34 p -6.5 -6.4 -6.5 --- --- 2.6 ESE 0.04 3.5 -8.8 --- --- 724.3 0.017 0.000 8.9 7 1
02/19/06 9:35 p -6.4 -6.3 -6.4 --- --- 2.6 ESE 0.04 3.5 -8.7 --- --- 724.4 0.017 0.000 8.9 7 1
02/19/06 9:36 p -6.3 -6.3 -6.3 --- --- 3.5 ESE 0.06 5.2 -9.5 --- --- 724.3 0.017 0.000 8.9 7 1
02/19/06 9:37 p -6.4 -6.3 -6.5 --- --- 5.2 ENE 0.09 6.1 -10.8 --- --- 724.5 0.017 0.000 8.8 7 1
02/19/06 9:38 p -6.6 -6.6 -6.7 --- --- 5.2 ENE 0.09 6.1 -11.1 --- --- 724.5 0.017 0.000 8.8 7 1
02/19/06 9:39 p -6.7 -6.7 -6.8 --- --- 5.2 ENE 0.09 6.1 -11.2 --- --- 724.4 0.017 0.000 8.8 7 1
02/19/06 9:40 p -6.8 -6.8 -6.8 --- --- 5.2 ENE 0.09 6.1 -11.3 --- --- 724.5 0.017 0.000 8.9 7 1
02/19/06 9:41 p -6.8 -6.8 -6.8 --- --- 5.2 ENE 0.09 6.1 -11.3 --- --- 724.4 0.017 0.000 8.9 7 1
02/19/06 9:42 p -6.8 -6.7 -6.8 --- --- 5.2 ENE 0.09 6.1 -11.3 --- --- 724.5 0.017 0.000 8.9 7 1
02/19/06 9:43 p -6.7 -6.7 -6.7 --- --- 6.1 ENE 0.10 7.0 -11.7 --- --- 724.4 0.017 0.000 8.9 7 1
02/19/06 9:44 p -6.7 -6.7 -6.7 --- --- 5.2 ENE 0.09 7.0 -11.2 --- --- 724.5 0.017 0.000 8.9 7 1
02/19/06 9:45 p -6.7 -6.7 -6.7 --- --- 6.1 ENE 0.10 7.0 -11.7 --- --- 724.5 0.017 0.000 8.9 7 1
02/19/06 9:46 p -6.7 -6.7 -6.7 --- --- 6.1 ENE 0.10 7.8 -11.7 --- --- 724.5 0.017 0.000 8.9 7 1
02/19/06 9:47 p -6.7 -6.6 -6.7 --- --- 6.1 ENE 0.10 7.0 -11.7 --- --- 724.6 0.017 0.000 8.9 7 1
02/19/06 9:48 p -6.7 -6.7 -6.8 --- --- 5.2 NE 0.09 7.0 -11.2 --- --- 724.5 0.017 0.000 8.9 7 1
02/19/06 9:49 p -6.8 -6.8 -6.8 --- --- 6.1 NE 0.10 7.0 -11.8 --- --- 724.5 0.017 0.000 8.9 7 1
02/19/06 9:50 p -6.8 -6.8 -6.8 --- --- 6.1 NE 0.10 7.8 -11.8 --- --- 724.5 0.017 0.000 8.9 7 1
02/19/06 9:51 p -6.8 -6.7 -6.8 --- --- 6.1 NE 0.10 7.0 -11.8 --- --- 724.6 0.017 0.000 8.9 7 1
02/19/06 9:52 p -6.7 -6.7 -6.8 --- --- 6.1 NE 0.10 7.0 -11.7 --- --- 724.6 0.017 0.000 8.9 7 1
02/19/06 9:53 p -6.7 -6.7 -6.7 --- --- 6.1 NE 0.10 7.8 -11.7 --- --- 724.6 0.017 0.000 8.9 7 1
02/19/06 9:54 p -6.7 -6.7 -6.7 --- --- 5.2 NE 0.09 7.0 -11.2 --- --- 724.6 0.017 0.000 8.9 7 1
02/19/06 9:55 p -6.7 -6.7 -6.7 --- --- 6.1 NE 0.10 7.0 -11.7 --- --- 724.5 0.017 0.000 8.9 7 1
02/19/06 9:56 p -6.7 -6.7 -6.8 --- --- 5.2 NE 0.09 6.1 -11.2 --- --- 724.5 0.017 0.000 8.9 7 1
02/19/06 9:57 p -6.7 -6.7 -6.7 --- --- 5.2 NE 0.09 6.1 -11.2 --- --- 724.6 0.017 0.000 8.9 7 1
02/19/06 9:58 p -6.7 -6.7 -6.7 --- --- 6.1 NE 0.10 7.8 -11.7 --- --- 724.5 0.017 0.000 8.9 7 1
02/19/06 9:59 p -6.7 -6.7 -6.7 --- --- 5.2 NE 0.09 6.1 -11.2 --- --- 724.6 0.017 0.000 8.9 7 1
02/19/06 10:00 p -6.7 -6.7 -6.8 --- --- 6.1 NE 0.10 7.0 -11.7 --- --- 724.7 0.017 0.000 8.9 7 1
02/19/06 10:01 p -6.7 -6.7 -6.8 --- --- 6.1 NE 0.10 7.0 -11.7 --- --- 724.6 0.017 0.000 8.9 7 1
02/19/06 10:02 p -6.8 -6.7 -6.8 --- --- 6.1 NE 0.10 7.0 -11.8 --- --- 724.6 0.017 0.000 8.9 7 1
02/19/06 10:03 p -6.7 -6.7 -6.8 --- --- 5.2 NE 0.09 7.0 -11.2 --- --- 724.6 0.017 0.000 8.9 7 1
02/19/06 10:04 p -6.7 -6.7 -6.7 --- --- 6.1 NE 0.10 7.8 -11.7 --- --- 724.6 0.017 0.000 8.9 7 1
02/19/06 10:05 p -6.7 -6.7 -6.7 --- --- 6.1 NE 0.10 7.0 -11.7 --- --- 724.6 0.017 0.000 8.9 7 1
02/19/06 10:06 p -6.6 -6.6 -6.7 --- --- 5.2 NE 0.09 6.1 -11.1 --- --- 724.6 0.017 0.000 8.9 7 1
02/19/06 10:07 p -6.6 -6.5 -6.6 --- --- 6.1 ENE 0.10 7.0 -11.5 --- --- 724.6 0.017 0.000 8.9 7 1
02/19/06 10:08 p -6.5 -6.5 -6.5 --- --- 6.1 ENE 0.10 7.0 -11.4 --- --- 724.7 0.017 0.000 8.9 7 1
02/19/06 10:09 p -6.4 -6.4 -6.5 --- --- 6.1 ENE 0.10 7.0 -11.4 --- --- 724.7 0.017 0.000 8.9 7 1
02/19/06 10:10 p -6.5 -6.5 -6.5 --- --- 5.2 ENE 0.09 6.1 -10.9 --- --- 724.7 0.017 0.000 8.9 7 1
02/19/06 10:11 p -6.5 -6.4 -6.5 --- --- 6.1 NE 0.10 6.1 -11.4 --- --- 724.7 0.017 0.000 8.9 7 1
02/19/06 10:12 p -6.5 -6.4 -6.5 --- --- 6.1 ENE 0.10 7.0 -11.4 --- --- 724.8 0.017 0.000 8.9 7 1
02/19/06 10:13 p -6.6 -6.5 -6.6 --- --- 5.2 ENE 0.09 7.0 -11.0 --- --- 724.7 0.017 0.000 8.9 7 1
02/19/06 10:14 p -6.7 -6.6 -6.7 --- --- 5.2 ENE 0.09 6.1 -11.2 --- --- 724.7 0.017 0.000 8.9 7 1
02/19/06 10:15 p -6.7 -6.7 -6.7 --- --- 4.3 ENE 0.07 6.1 -10.6 --- --- 724.7 0.017 0.000 9.0 7 1
02/19/06 10:16 p -6.7 -6.6 -6.7 --- --- 5.2 ENE 0.09 6.1 -11.2 --- --- 724.7 0.017 0.000 9.0 7 1
02/19/06 10:17 p -6.6 -6.5 -6.6 --- --- 5.2 ENE 0.09 6.1 -11.0 --- --- 724.7 0.017 0.000 9.0 7 1
02/19/06 10:18 p -6.5 -6.4 -6.6 --- --- 5.2 ENE 0.09 6.1 -10.9 --- --- 724.7 0.017 0.000 9.0 7 1
02/19/06 10:19 p -6.4 -6.4 -6.5 --- --- 6.1 ENE 0.10 7.0 -11.4 --- --- 724.8 0.017 0.000 9.0 7 1
02/19/06 10:20 p -6.5 -6.5 -6.6 --- --- 6.1 ENE 0.10 7.0 -11.4 --- --- 724.8 0.017 0.000 9.1 7 1
02/19/06 10:21 p -6.6 -6.5 -6.6 --- --- 5.2 ENE 0.09 6.1 -11.0 --- --- 724.7 0.017 0.000 9.1 7 1
02/19/06 10:22 p -6.5 -6.4 -6.5 --- --- 6.1 ENE 0.10 7.0 -11.4 --- --- 724.7 0.017 0.000 9.1 7 1
02/19/06 10:23 p -6.4 -6.4 -6.4 --- --- 7.0 ENE 0.12 7.8 -11.8 --- --- 724.7 0.017 0.000 9.1 7 1
02/19/06 10:24 p -6.4 -6.4 -6.4 --- --- 7.0 ENE 0.12 7.0 -11.8 --- --- 724.8 0.017 0.000 9.1 7 1
02/19/06 10:25 p -6.5 -6.5 -6.6 --- --- 7.0 ENE 0.12 8.7 -11.9 --- --- 724.8 0.017 0.000 9.1 7 1
02/19/06 10:26 p -6.6 -6.6 -6.7 --- --- 7.8 ENE 0.13 8.7 -12.4 --- --- 724.7 0.017 0.000 9.1 7 1
02/19/06 10:27 p -6.7 -6.7 -6.7 --- --- 7.0 ENE 0.12 7.8 -12.2 --- --- 724.9 0.017 0.000 9.1 7 1
02/19/06 10:28 p -6.7 -6.6 -6.7 --- --- 7.0 ENE 0.12 7.8 -12.1 --- --- 724.8 0.017 0.000 9.1 7 1
02/19/06 10:29 p -6.6 -6.6 -6.7 --- --- 7.0 ENE 0.12 7.0 -12.0 --- --- 724.8 0.017 0.000 9.1 7 1
02/19/06 10:30 p -6.7 -6.7 -6.7 --- --- 7.0 ENE 0.12 7.8 -12.1 --- --- 724.8 0.017 0.000 9.1 7 1
02/19/06 10:31 p -6.6 -6.6 -6.7 --- --- 7.0 ENE 0.12 7.8 -12.0 --- --- 724.8 0.017 0.000 9.1 7 1
02/19/06 10:32 p -6.6 -6.6 -6.6 --- --- 7.0 ENE 0.12 7.8 -11.9 --- --- 724.7 0.017 0.000 9.1 7 1
02/19/06 10:33 p -6.6 -6.5 -6.6 --- --- 7.0 ENE 0.12 7.8 -11.9 --- --- 724.8 0.017 0.000 9.1 7 1
02/19/06 10:34 p -6.4 -6.3 -6.4 --- --- 6.1 ENE 0.10 7.0 -11.3 --- --- 724.8 0.017 0.000 9.1 7 1
02/19/06 10:35 p -6.3 -6.2 -6.3 --- --- 7.0 ENE 0.12 7.8 -11.6 --- --- 724.8 0.017 0.000 9.1 7 1
02/19/06 10:36 p -6.3 -6.2 -6.3 --- --- 7.0 ENE 0.12 7.0 -11.6 --- --- 724.8 0.017 0.000 9.1 7 1
02/19/06 10:37 p -6.3 -6.3 -6.4 --- --- 6.1 ENE 0.10 7.0 -11.2 --- --- 724.8 0.017 0.000 9.1 7 1
02/19/06 10:38 p -6.4 -6.4 -6.4 --- --- 6.1 ENE 0.10 7.0 -11.3 --- --- 724.9 0.017 0.000 9.1 7 1
02/19/06 10:39 p -6.4 -6.4 -6.5 --- --- 6.1 ENE 0.10 8.7 -11.4 --- --- 724.8 0.017 0.000 9.1 7 1
02/19/06 10:40 p -6.6 -6.5 -6.6 --- --- 7.0 NE 0.12 7.8 -11.9 --- --- 724.9 0.017 0.000 9.1 7 1
02/19/06 10:41 p -6.6 -6.6 -6.7 --- --- 7.0 NE 0.12 8.7 -12.0 --- --- 724.9 0.017 0.000 9.1 7 1
02/19/06 10:42 p -6.8 -6.7 -6.8 --- --- 7.0 NE 0.12 8.7 -12.2 --- --- 724.9 0.017 0.000 9.1 7 1
02/19/06 10:43 p -6.8 -6.8 -6.8 --- --- 7.0 NE 0.12 7.8 -12.2 --- --- 724.8 0.017 0.000 9.1 7 1
02/19/06 10:44 p -6.8 -6.8 -6.9 --- --- 7.8 NE 0.13 7.8 -12.7 --- --- 724.8 0.017 0.000 9.1 7 1
02/19/06 10:45 p -6.9 -6.9 -6.9 --- --- 7.8 NE 0.13 8.7 -12.8 --- --- 724.9 0.018 0.000 9.1 7 1
02/19/06 10:46 p -6.9 -6.9 -6.9 --- --- 7.8 NE 0.13 8.7 -12.8 --- --- 724.8 0.018 0.000 9.1 7 1
02/19/06 10:47 p -6.9 -6.8 -6.9 --- --- 7.0 NE 0.12 7.8 -12.4 --- --- 724.7 0.018 0.000 9.1 7 1
02/19/06 10:48 p -6.8 -6.8 -6.8 --- --- 7.0 NE 0.12 8.7 -12.3 --- --- 724.8 0.017 0.000 9.1 7 1
02/19/06 10:49 p -6.8 -6.8 -6.8 --- --- 7.8 NE 0.13 9.6 -12.7 --- --- 724.8 0.017 0.000 9.1 7 1
02/19/06 10:50 p -6.8 -6.7 -6.8 --- --- 7.0 NNE 0.12 8.7 -12.2 --- --- 724.7 0.017 0.000 9.1 7 1
02/19/06 10:51 p -6.6 -6.4 -6.7 --- --- 7.0 N 0.12 7.8 -11.9 --- --- 724.8 0.017 0.000 9.1 7 1
02/19/06 10:52 p -6.3 -6.2 -6.3 --- --- 7.0 N 0.12 7.8 -11.6 --- --- 724.8 0.017 0.000 9.1 7 1
02/19/06 10:53 p -6.2 -6.2 -6.2 --- --- 6.1 N 0.10 8.7 -11.1 --- --- 724.8 0.017 0.000 9.1 7 1
02/19/06 10:54 p -6.3 -6.2 -6.3 --- --- 5.2 N 0.09 7.0 -10.7 --- --- 724.8 0.017 0.000 9.1 7 1
02/19/06 10:55 p -6.2 -6.2 -6.3 --- --- 6.1 N 0.10 7.0 -11.1 --- --- 724.8 0.017 0.000 9.1 7 1
02/19/06 10:56 p -6.3 -6.3 -6.4 --- --- 7.0 NNE 0.12 7.8 -11.7 --- --- 724.8 0.017 0.000 9.1 7 1
02/19/06 10:57 p -6.4 -6.3 -6.4 --- --- 7.0 NE 0.12 8.7 -11.8 --- --- 724.8 0.017 0.000 9.1 7 1
02/19/06 10:58 p -6.4 -6.3 -6.4 --- --- 8.7 NE 0.14 9.6 -12.5 --- --- 724.8 0.017 0.000 9.1 7 1
02/19/06 10:59 p -6.4 -6.4 -6.4 --- --- 7.8 NE 0.13 9.6 -12.2 --- --- 724.9 0.017 0.000 9.1 7 1
02/19/06 11:00 p -6.4 -6.4 -6.5 --- --- 7.8 NE 0.13 8.7 -12.2 --- --- 724.8 0.017 0.000 9.1 7 1
02/19/06 11:01 p -6.5 -6.4 -6.5 --- --- 7.0 NNE 0.12 8.7 -11.9 --- --- 724.9 0.017 0.000 9.1 7 1
02/19/06 11:02 p -6.4 -6.4 -6.4 --- --- 7.0 NNE 0.12 7.8 -11.8 --- --- 724.9 0.017 0.000 9.1 7 1
02/19/06 11:03 p -6.4 -6.4 -6.4 --- --- 7.0 NE 0.12 7.8 -11.8 --- --- 724.8 0.017 0.000 9.1 7 1
02/19/06 11:04 p -6.4 -6.3 -6.4 --- --- 7.8 NE 0.13 8.7 -12.2 --- --- 724.8 0.017 0.000 9.1 7 1
02/19/06 11:05 p -6.4 -6.4 -6.4 --- --- 7.0 NE 0.12 7.8 -11.8 --- --- 724.9 0.017 0.000 9.1 7 1
02/19/06 11:06 p -6.4 -6.3 -6.4 --- --- 6.1 NE 0.10 7.8 -11.3 --- --- 724.9 0.017 0.000 9.1 7 1
02/19/06 11:07 p -6.3 -6.3 -6.3 --- --- 6.1 NNE 0.10 7.8 -11.2 --- --- 724.8 0.017 0.000 9.1 7 1
02/19/06 11:08 p -6.3 -6.2 -6.3 --- --- 6.1 NNE 0.10 8.7 -11.2 --- --- 724.8 0.017 0.000 9.1 7 1
02/19/06 11:09 p -6.0 -5.9 -6.1 --- --- 7.0 N 0.12 7.8 -11.3 --- --- 725.0 0.017 0.000 9.1 7 1
02/19/06 11:10 p -5.9 -5.8 -5.9 --- --- 5.2 N 0.09 6.1 -10.2 --- --- 724.9 0.017 0.000 9.1 7 1
02/19/06 11:11 p -5.8 -5.7 -5.8 --- --- 7.0 N 0.12 8.7 -11.0 --- --- 724.9 0.017 0.000 9.1 7 1
02/19/06 11:12 p -5.7 -5.7 -5.7 --- --- 6.1 N 0.10 7.0 -10.4 --- --- 724.9 0.017 0.000 9.1 7 1
02/19/06 11:13 p -5.6 -5.5 -5.7 --- --- 5.2 N 0.09 6.1 -9.8 --- --- 724.9 0.017 0.000 9.1 7 1
02/19/06 11:14 p -5.5 -5.3 -5.6 --- --- 4.3 N 0.07 5.2 -9.2 --- --- 725.0 0.017 0.000 9.1 7 1
02/19/06 11:15 p -5.3 -5.2 -5.3 --- --- 6.1 NE 0.10 7.8 -10.0 --- --- 725.0 0.016 0.000 9.1 7 1
02/19/06 11:16 p -5.6 -5.4 -5.8 --- --- 6.1 NNE 0.10 7.8 -10.4 --- --- 725.0 0.017 0.000 9.1 7 1
02/19/06 11:17 p -5.8 -5.7 -5.8 --- --- 6.1 NE 0.10 8.7 -10.6 --- --- 725.0 0.017 0.000 9.1 7 1
02/19/06 11:18 p -5.7 -5.6 -5.7 --- --- 7.0 NE 0.12 8.7 -10.9 --- --- 725.0 0.017 0.000 9.1 7 1
02/19/06 11:19 p -5.7 -5.7 -5.8 --- --- 7.0 NNE 0.12 7.8 -10.9 --- --- 725.0 0.017 0.000 9.1 7 1
02/19/06 11:20 p -5.8 -5.7 -5.8 --- --- 8.7 NE 0.14 9.6 -11.8 --- --- 725.0 0.017 0.000 9.1 7 1
02/19/06 11:21 p -5.6 -5.4 -5.7 --- --- 7.0 NE 0.12 8.7 -10.8 --- --- 725.1 0.017 0.000 9.1 7 1
02/19/06 11:22 p -5.3 -5.3 -5.4 --- --- 8.7 NE 0.14 11.3 -11.2 --- --- 725.0 0.016 0.000 9.2 7 1
02/19/06 11:23 p -5.2 -5.1 -5.3 --- --- 8.7 ENE 0.14 10.4 -11.1 --- --- 725.1 0.016 0.000 9.2 7 1
02/19/06 11:24 p -4.7 -4.6 -4.9 --- --- 9.6 ENE 0.16 10.4 -10.8 --- --- 725.0 0.016 0.000 9.2 7 1
02/19/06 11:25 p -4.5 -4.4 -4.6 --- --- 7.8 ENE 0.13 8.7 -9.8 --- --- 725.1 0.016 0.000 9.2 7 1
02/19/06 11:26 p -4.4 -4.4 -4.5 --- --- 7.8 ENE 0.13 8.7 -9.7 --- --- 725.1 0.016 0.000 9.2 7 1
02/19/06 11:27 p -4.6 -4.5 -4.6 --- --- 7.8 NE 0.13 8.7 -9.9 --- --- 725.1 0.016 0.000 9.2 7 1
02/19/06 11:28 p -4.7 -4.7 -4.8 --- --- 7.8 NE 0.13 8.7 -10.1 --- --- 725.1 0.016 0.000 9.2 7 1
02/19/06 11:29 p -4.9 -4.8 -5.0 --- --- 7.8 NE 0.13 8.7 -10.3 --- --- 725.1 0.016 0.000 9.2 7 1
02/19/06 11:30 p -5.2 -5.1 -5.3 --- --- 8.7 NE 0.14 9.6 -11.0 --- --- 725.1 0.016 0.000 9.2 7 1
02/19/06 11:31 p -5.5 -5.4 -5.6 --- --- 8.7 ENE 0.14 9.6 -11.4 --- --- 725.0 0.017 0.000 9.2 7 1
02/19/06 11:32 p -5.7 -5.6 -5.7 --- --- 7.8 NE 0.13 9.6 -11.3 --- --- 725.1 0.017 0.000 9.2 7 1
02/19/06 11:33 p -5.7 -5.7 -5.7 --- --- 7.8 ENE 0.13 9.6 -11.3 --- --- 725.2 0.017 0.000 9.2 7 1
02/19/06 11:34 p -5.8 -5.7 -5.9 --- --- 8.7 ENE 0.14 10.4 -11.8 --- --- 725.1 0.017 0.000 9.2 7 1
02/19/06 11:35 p -6.0 -5.9 -6.1 --- --- 8.7 ENE 0.14 9.6 -12.1 --- --- 725.2 0.017 0.000 9.2 7 1
02/19/06 11:36 p -6.2 -6.1 -6.3 --- --- 8.7 ENE 0.14 9.6 -12.3 --- --- 725.1 0.017 0.000 9.2 7 1
02/19/06 11:37 p -6.4 -6.4 -6.5 --- --- 7.8 ENE 0.13 8.7 -12.2 --- --- 725.1 0.017 0.000 9.2 7 1
02/19/06 11:38 p -6.6 -6.5 -6.6 --- --- 7.8 NE 0.13 8.7 -12.3 --- --- 725.2 0.017 0.000 9.2 7 1
02/19/06 11:39 p -6.4 -6.2 -6.6 --- --- 7.0 NE 0.12 8.7 -11.8 --- --- 725.1 0.017 0.000 9.2 7 1
02/19/06 11:40 p -6.0 -5.9 -6.1 --- --- 7.8 NE 0.13 8.7 -11.7 --- --- 725.2 0.017 0.000 9.2 7 1
02/19/06 11:41 p -5.9 -5.8 -5.9 --- --- 7.0 NE 0.12 9.6 -11.2 --- --- 725.2 0.017 0.000 9.1 7 1
02/19/06 11:42 p -5.7 -5.6 -5.8 --- --- 7.0 NE 0.12 8.7 -10.9 --- --- 725.2 0.017 0.000 9.1 7 1
02/19/06 11:43 p -5.2 -4.9 -5.5 --- --- 7.0 NE 0.12 8.7 -10.3 --- --- 725.1 0.016 0.000 9.2 7 1
02/19/06 11:44 p -4.6 -4.4 -4.8 --- --- 7.0 NE 0.12 8.7 -9.6 --- --- 725.1 0.016 0.000 9.1 7 1
02/19/06 11:45 p -4.2 -4.1 -4.3 --- --- 5.2 NE 0.09 7.0 -8.2 --- --- 725.1 0.016 0.000 9.2 7 1
02/19/06 11:46 p -4.1 -4.0 -4.1 --- --- 7.0 NE 0.12 7.8 -8.9 --- --- 725.2 0.016 0.000 9.2 7 1
02/19/06 11:47 p -4.1 -4.0 -4.2 --- --- 7.8 NE 0.13 8.7 -9.3 --- --- 725.2 0.016 0.000 9.2 7 1
02/19/06 11:48 p -4.5 -4.4 -4.7 --- --- 7.8 NE 0.13 8.7 -9.8 --- --- 725.1 0.016 0.000 9.2 7 1
02/19/06 11:49 p -4.8 -4.7 -4.9 --- --- 7.8 NE 0.13 8.7 -10.2 --- --- 725.2 0.016 0.000 9.2 7 1
02/19/06 11:50 p -5.1 -5.0 -5.3 --- --- 8.7 NE 0.14 9.6 -10.9 --- --- 725.2 0.016 0.000 9.2 7 1
02/19/06 11:51 p -5.4 -5.4 -5.6 --- --- 8.7 NE 0.14 9.6 -11.3 --- --- 725.2 0.017 0.000 9.2 7 1
02/19/06 11:52 p -5.7 -5.6 -5.7 --- --- 7.8 NE 0.13 8.7 -11.3 --- --- 725.1 0.017 0.000 9.2 7 1
02/19/06 11:53 p -5.8 -5.8 -5.8 --- --- 6.1 NE 0.10 8.7 -10.6 --- --- 725.3 0.017 0.000 9.2 7 1
02/19/06 11:54 p -5.9 -5.9 -6.0 --- --- 7.8 NE 0.13 9.6 -11.6 --- --- 725.3 0.017 0.000 9.2 7 1
02/19/06 11:55 p -6.1 -6.1 -6.1 --- --- 7.0 NNE 0.12 8.7 -11.3 --- --- 725.3 0.017 0.000 9.2 7 1
02/19/06 11:56 p -6.2 -6.1 -6.2 --- --- 6.1 NNE 0.10 8.7 -11.1 --- --- 725.3 0.017 0.000 9.2 7 1
02/19/06 11:57 p -6.2 -6.2 -6.3 --- --- 7.8 NE 0.13 9.6 -11.9 --- --- 725.2 0.017 0.000 9.2 7 1
02/19/06 11:58 p -6.3 -6.2 -6.3 --- --- 7.8 NE 0.13 9.6 -12.0 --- --- 725.2 0.017 0.000 9.2 7 1
02/19/06 11:59 p -6.3 -6.3 -6.4 --- --- 8.7 NE 0.14 9.6 -12.4 --- --- 725.3 0.017 0.000 9.2 7 1
02/20/06 12:00 a -6.5 -6.4 -6.5 --- --- 8.7 NE 0.14 9.6 -12.7 --- --- 725.3 0.017 0.000 9.2 7 1
02/20/06 12:01 a -6.5 -6.5 -6.6 --- --- 7.8 NE 0.13 9.6 -12.3 --- --- 725.2 0.017 0.000 9.2 7 1
02/20/06 12:02 a -6.6 -6.5 -6.6 --- --- 7.8 NE 0.13 8.7 -12.3 --- --- 725.2 0.017 0.000 9.2 7 1
02/20/06 12:03 a -6.6 -6.5 -6.6 --- --- 6.1 NNE 0.10 8.7 -11.5 --- --- 725.4 0.017 0.000 9.2 7 1
02/20/06 12:04 a -6.7 -6.6 -6.8 --- --- 7.8 NNE 0.13 8.7 -12.5 --- --- 725.3 0.017 0.000 9.2 7 1
02/20/06 12:05 a -6.9 -6.9 -6.9 --- --- 8.7 NNE 0.14 9.6 -13.1 --- --- 725.2 0.018 0.000 9.2 7 1
02/20/06 12:06 a -6.7 -6.6 -6.8 --- --- 7.0 NNE 0.12 8.7 -12.2 --- --- 725.4 0.017 0.000 9.2 7 1
02/20/06 12:07 a -6.6 -6.5 -6.6 --- --- 7.0 NE 0.12 8.7 -11.9 --- --- 725.4 0.017 0.000 9.2 7 1
02/20/06 12:08 a -6.4 -6.3 -6.4 --- --- 7.0 NE 0.12 8.7 -11.8 --- --- 725.4 0.017 0.000 9.2 7 1
02/20/06 12:09 a -6.3 -6.2 -6.3 --- --- 7.0 NE 0.12 8.7 -11.6 --- --- 725.3 0.017 0.000 9.2 7 1
02/20/06 12:10 a -6.2 -6.2 -6.2 --- --- 7.0 NE 0.12 7.8 -11.5 --- --- 725.3 0.017 0.000 9.2 7 1
02/20/06 12:11 a -6.1 -6.1 -6.1 --- --- 7.0 NE 0.12 7.8 -11.4 --- --- 725.3 0.017 0.000 9.2 7 1
02/20/06 12:12 a -6.1 -6.1 -6.1 --- --- 7.0 NE 0.12 8.7 -11.3 --- --- 725.3 0.017 0.000 9.2 7 1
02/20/06 12:13 a -6.0 -5.9 -6.1 --- --- 7.0 NE 0.12 8.7 -11.3 --- --- 725.3 0.017 0.000 9.1 7 1
02/20/06 12:14 a -5.9 -5.8 -5.9 --- --- 6.1 NE 0.10 7.8 -10.7 --- --- 725.4 0.017 0.000 9.2 7 1
02/20/06 12:15 a -5.8 -5.8 -5.8 --- --- 6.1 NE 0.10 7.0 -10.7 --- --- 725.4 0.017 0.000 9.2 7 1
02/20/06 12:16 a -5.7 -5.7 -5.8 --- --- 6.1 NE 0.10 7.0 -10.5 --- --- 725.3 0.017 0.000 9.2 7 1
02/20/06 12:17 a -5.6 -5.6 -5.6 --- --- 6.1 NE 0.10 6.1 -10.4 --- --- 725.4 0.017 0.000 9.2 7 1
02/20/06 12:18 a -5.4 -5.4 -5.5 --- --- 5.2 NE 0.09 6.1 -9.7 --- --- 725.4 0.017 0.000 9.2 7 1
02/20/06 12:19 a -5.3 -5.3 -5.4 --- --- 4.3 NE 0.07 5.2 -9.0 --- --- 725.3 0.016 0.000 9.2 7 1
02/20/06 12:20 a -5.2 -5.2 -5.3 --- --- 5.2 NE 0.09 6.1 -9.4 --- --- 725.4 0.016 0.000 9.2 7 1
02/20/06 12:21 a -5.1 -5.1 -5.1 --- --- 5.2 NE 0.09 6.1 -9.3 --- --- 725.3 0.016 0.000 9.2 7 1
02/20/06 12:22 a -5.1 -5.0 -5.1 --- --- 5.2 NE 0.09 6.1 -9.2 --- --- 725.4 0.016 0.000 9.2 7 1
02/20/06 12:23 a -4.9 -4.9 -4.9 --- --- 5.2 NE 0.09 6.1 -9.1 --- --- 725.4 0.016 0.000 9.2 7 1
02/20/06 12:24 a -4.8 -4.7 -4.8 --- --- 3.5 NE 0.06 5.2 -7.7 --- --- 725.5 0.016 0.000 9.2 7 1
02/20/06 12:25 a -4.7 -4.7 -4.7 --- --- 3.5 NE 0.06 4.3 -7.6 --- --- 725.4 0.016 0.000 9.2 7 1
02/20/06 12:26 a -4.6 -4.5 -4.6 --- --- 4.3 NE 0.07 5.2 -8.1 --- --- 725.4 0.016 0.000 9.2 7 1
02/20/06 12:27 a -4.4 -4.4 -4.5 --- --- 4.3 NE 0.07 5.2 -7.9 --- --- 725.4 0.016 0.000 9.2 7 1
02/20/06 12:28 a -4.4 -4.4 -4.4 --- --- 5.2 NE 0.09 6.1 -8.4 --- --- 725.4 0.016 0.000 9.2 7 1
02/20/06 12:29 a -4.4 -4.4 -4.4 --- --- 5.2 ENE 0.09 6.1 -8.5 --- --- 725.5 0.016 0.000 9.3 7 1
02/20/06 12:30 a -4.5 -4.4 -4.5 --- --- 4.3 ENE 0.07 6.1 -8.0 --- --- 725.5 0.016 0.000 9.3 7 1
02/20/06 12:31 a -4.5 -4.5 -4.5 --- --- 4.3 ENE 0.07 6.1 -8.0 --- --- 725.4 0.016 0.000 9.2 7 1
02/20/06 12:32 a -4.5 -4.4 -4.5 --- --- 4.3 E 0.07 6.1 -8.0 --- --- 725.4 0.016 0.000 9.2 7 1
02/20/06 12:33 a -4.6 -4.5 -4.6 --- --- 4.3 E 0.07 6.1 -8.1 --- --- 725.3 0.016 0.000 9.2 7 1
02/20/06 12:34 a -4.7 -4.6 -4.7 --- --- 4.3 E 0.07 6.1 -8.2 --- --- 725.5 0.016 0.000 9.2 7 1
02/20/06 12:35 a -4.7 -4.7 -4.7 --- --- 4.3 E 0.07 7.0 -8.2 --- --- 725.4 0.016 0.000 9.3 7 1
02/20/06 12:36 a -4.8 -4.8 -4.9 --- --- 5.2 E 0.09 7.0 -8.9 --- --- 725.6 0.016 0.000 9.3 7 1
02/20/06 12:37 a -5.0 -4.9 -5.1 --- --- 5.2 ENE 0.09 7.8 -9.2 --- --- 725.5 0.016 0.000 9.2 7 1
02/20/06 12:38 a -5.1 -5.1 -5.2 --- --- 6.1 ENE 0.10 7.0 -9.8 --- --- 725.5 0.016 0.000 9.3 7 1
02/20/06 12:39 a -5.3 -5.2 -5.3 --- --- 5.2 E 0.09 7.8 -9.5 --- --- 725.5 0.016 0.000 9.3 7 1
02/20/06 12:40 a -5.4 -5.3 -5.4 --- --- 4.3 E 0.07 6.1 -9.1 --- --- 725.6 0.016 0.000 9.3 7 1
02/20/06 12:41 a -5.3 -5.3 -5.4 --- --- 5.2 E 0.09 7.0 -9.6 --- --- 725.5 0.016 0.000 9.3 7 1
02/20/06 12:42 a -5.3 -5.3 -5.3 --- --- 4.3 E 0.07 6.1 -8.9 --- --- 725.5 0.016 0.000 9.3 7 1
02/20/06 12:43 a -5.3 -5.3 -5.3 --- --- 5.2 E 0.09 7.0 -9.5 --- --- 725.6 0.016 0.000 9.3 7 1
02/20/06 12:44 a -5.3 -5.3 -5.3 --- --- 5.2 ENE 0.09 6.1 -9.5 --- --- 725.4 0.016 0.000 9.3 7 1
02/20/06 12:45 a -5.3 -5.2 -5.3 --- --- 3.5 E 0.06 4.3 -8.3 --- --- 725.5 0.016 0.000 9.3 7 1
02/20/06 12:46 a -5.2 -5.1 -5.2 --- --- 5.2 E 0.09 7.0 -9.3 --- --- 725.4 0.016 0.000 9.3 7 1
02/20/06 12:47 a -5.1 -5.1 -5.2 --- --- 5.2 E 0.09 7.0 -9.3 --- --- 725.5 0.016 0.000 9.3 7 1
02/20/06 12:48 a -5.1 -5.1 -5.1 --- --- 4.3 E 0.07 6.1 -8.7 --- --- 725.4 0.016 0.000 9.3 7 1
02/20/06 12:49 a -5.2 -5.1 -5.2 --- --- 5.2 E 0.09 7.0 -9.3 --- --- 725.6 0.016 0.000 9.3 7 1
02/20/06 12:50 a -5.2 -5.2 -5.2 --- --- 4.3 E 0.07 6.1 -8.9 --- --- 725.6 0.016 0.000 9.3 7 1
02/20/06 12:51 a -5.2 -5.1 -5.2 --- --- 4.3 E 0.07 6.1 -8.8 --- --- 725.5 0.016 0.000 9.3 7 1
02/20/06 12:52 a -5.1 -5.1 -5.1 --- --- 5.2 E 0.09 7.0 -9.3 --- --- 725.4 0.016 0.000 9.3 7 1
02/20/06 12:53 a -5.2 -5.1 -5.2 --- --- 5.2 ENE 0.09 7.0 -9.3 --- --- 725.4 0.016 0.000 9.3 7 1
02/20/06 12:54 a -5.1 -5.1 -5.2 --- --- 4.3 ENE 0.07 5.2 -8.7 --- --- 725.6 0.016 0.000 9.3 7 1
02/20/06 12:55 a -5.1 -5.1 -5.1 --- --- 4.3 ENE 0.07 5.2 -8.7 --- --- 725.6 0.016 0.000 9.3 7 1
02/20/06 12:56 a -5.1 -5.1 -5.1 --- --- 4.3 ENE 0.07 5.2 -8.7 --- --- 725.5 0.016 0.000 9.3 7 1
02/20/06 12:57 a -5.1 -5.0 -5.1 --- --- 4.3 ENE 0.07 7.0 -8.7 --- --- 725.5 0.016 0.000 9.2 7 1
02/20/06 12:58 a -4.9 -4.9 -5.0 --- --- 5.2 ENE 0.09 7.0 -9.1 --- --- 725.6 0.016 0.000 9.3 7 1
02/20/06 12:59 a -5.0 -5.0 -5.0 --- --- 5.2 ENE 0.09 7.0 -9.2 --- --- 725.6 0.016 0.000 9.3 7 1
02/20/06 1:00 a -5.1 -5.0 -5.1 --- --- 4.3 ENE 0.07 6.1 -8.7 --- --- 725.6 0.016 0.000 9.3 7 1
02/20/06 1:01 a -5.1 -5.0 -5.1 --- --- 5.2 ENE 0.09 6.1 -9.2 --- --- 725.6 0.016 0.000 9.3 7 1
02/20/06 1:02 a -5.0 -5.0 -5.0 --- --- 5.2 ENE 0.09 7.0 -9.2 --- --- 725.6 0.016 0.000 9.2 7 1
02/20/06 1:03 a -5.0 -5.0 -5.1 --- --- 6.1 ENE 0.10 7.0 -9.6 --- --- 725.7 0.016 0.000 9.2 7 1
02/20/06 1:04 a -5.1 -5.1 -5.2 --- --- 7.0 ENE 0.12 7.8 -10.2 --- --- 725.7 0.016 0.000 9.2 7 1
02/20/06 1:05 a -5.2 -5.2 -5.2 --- --- 7.0 NE 0.12 7.8 -10.3 --- --- 725.7 0.016 0.000 9.2 7 1
02/20/06 1:07 a -5.2 -5.2 -5.2 --- --- 7.0 NE 0.12 8.7 -10.3 --- --- 725.7 0.016 0.000 9.2 7 1
02/20/06 1:08 a -5.2 -5.2 -5.2 --- --- 7.0 NE 0.12 7.8 -10.3 --- --- 725.7 0.016 0.000 9.2 7 1
02/20/06 1:09 a -5.3 -5.2 -5.3 --- --- 7.0 NE 0.12 7.8 -10.4 --- --- 725.7 0.016 0.000 9.2 7 1
02/20/06 1:10 a -5.3 -5.2 -5.3 --- --- 6.1 NE 0.10 7.0 -10.0 --- --- 725.6 0.016 0.000 9.2 7 1
02/20/06 1:11 a -5.2 -5.1 -5.2 --- --- 5.2 ENE 0.09 7.0 -9.3 --- --- 725.7 0.016 0.000 9.2 7 1
02/20/06 1:12 a -5.1 -5.1 -5.1 --- --- 6.1 ENE 0.10 7.8 -9.8 --- --- 725.7 0.016 0.000 9.2 7 1
02/20/06 1:13 a -5.1 -5.0 -5.1 --- --- 5.2 ENE 0.09 7.0 -9.2 --- --- 725.7 0.016 0.000 9.2 7 1
02/20/06 1:14 a -5.0 -4.9 -5.0 --- --- 6.1 ENE 0.10 7.8 -9.6 --- --- 725.7 0.016 0.000 9.2 7 1
02/20/06 1:15 a -5.0 -5.0 -5.0 --- --- 7.0 ENE 0.12 7.8 -10.1 --- --- 725.7 0.016 0.000 9.2 7 1
02/20/06 1:16 a -4.9 -4.9 -4.9 --- --- 7.0 ENE 0.12 8.7 -10.0 --- --- 725.8 0.016 0.000 9.2 7 1
02/20/06 1:17 a -4.9 -4.9 -4.9 --- --- 7.8 ENE 0.13 9.6 -10.4 --- --- 725.7 0.016 0.000 9.2 7 1
02/20/06 1:18 a -5.0 -4.9 -5.0 --- --- 8.7 ENE 0.14 10.4 -10.8 --- --- 725.7 0.016 0.000 9.2 7 1
02/20/06 1:19 a -5.0 -5.0 -5.1 --- --- 9.6 ENE 0.16 11.3 -11.1 --- --- 725.7 0.016 0.000 9.2 7 1
02/20/06 1:20 a -5.2 -5.1 -5.2 --- --- 8.7 ENE 0.14 9.6 -11.0 --- --- 725.7 0.016 0.000 9.2 7 1
02/20/06 1:21 a -5.3 -5.3 -5.4 --- --- 9.6 ENE 0.16 10.4 -11.6 --- --- 725.7 0.016 0.000 9.2 7 1
02/20/06 1:22 a -5.4 -5.4 -5.4 --- --- 7.0 ENE 0.12 7.8 -10.6 --- --- 725.8 0.016 0.000 9.2 7 1
02/20/06 1:23 a -5.4 -5.4 -5.4 --- --- 7.8 ENE 0.13 7.8 -10.9 --- --- 725.7 0.016 0.000 9.2 7 1
02/20/06 1:24 a -5.4 -5.4 -5.4 --- --- 7.8 ENE 0.13 8.7 -11.0 --- --- 725.8 0.017 0.000 9.2 7 1
02/20/06 1:25 a -5.4 -5.4 -5.4 --- --- 7.8 ENE 0.13 9.6 -11.0 --- --- 725.7 0.017 0.000 9.2 7 1
02/20/06 1:26 a -5.4 -5.4 -5.4 --- --- 8.7 ENE 0.14 9.6 -11.3 --- --- 725.8 0.017 0.000 9.2 7 1
02/20/06 1:27 a -5.4 -5.4 -5.4 --- --- 8.7 NE 0.14 9.6 -11.3 --- --- 725.8 0.017 0.000 9.2 7 1
02/20/06 1:28 a -5.4 -5.4 -5.4 --- --- 7.8 ENE 0.13 8.7 -11.0 --- --- 725.8 0.017 0.000 9.2 7 1
02/20/06 1:29 a -5.5 -5.5 -5.5 --- --- 6.1 NE 0.10 7.0 -10.2 --- --- 725.8 0.017 0.000 9.2 7 1
02/20/06 1:30 a -5.5 -5.4 -5.5 --- --- 7.0 NE 0.12 7.8 -10.7 --- --- 725.8 0.017 0.000 9.2 7 1
02/20/06 1:31 a -5.6 -5.5 -5.6 --- --- 6.1 NE 0.10 7.0 -10.3 --- --- 725.8 0.017 0.000 9.2 7 1
02/20/06 1:32 a -5.5 -5.4 -5.6 --- --- 6.1 ENE 0.10 7.8 -10.2 --- --- 725.8 0.017 0.000 9.2 7 1
02/20/06 1:33 a -5.3 -5.3 -5.4 --- --- 5.2 ENE 0.09 7.0 -9.6 --- --- 725.8 0.016 0.000 9.2 7 1
02/20/06 1:34 a -5.3 -5.2 -5.3 --- --- 5.2 ENE 0.09 6.1 -9.5 --- --- 725.8 0.016 0.000 9.2 7 1
02/20/06 1:35 a -5.2 -5.1 -5.2 --- --- 5.2 ENE 0.09 7.8 -9.3 --- --- 725.8 0.016 0.000 9.2 7 1
02/20/06 1:36 a -5.1 -5.1 -5.1 --- --- 6.1 ENE 0.10 7.8 -9.8 --- --- 725.8 0.016 0.000 9.2 7 1
02/20/06 1:37 a -5.1 -5.1 -5.2 --- --- 7.0 ENE 0.12 8.7 -10.2 --- --- 725.8 0.016 0.000 9.2 7 1
02/20/06 1:38 a -5.1 -5.1 -5.1 --- --- 6.1 ENE 0.10 7.8 -9.8 --- --- 725.8 0.016 0.000 9.2 7 1
02/20/06 1:39 a -5.1 -5.1 -5.2 --- --- 7.0 ENE 0.12 7.8 -10.2 --- --- 725.8 0.016 0.000 9.2 7 1
02/20/06 1:40 a -5.2 -5.2 -5.2 --- --- 8.7 E 0.14 9.6 -11.1 --- --- 725.8 0.016 0.000 9.2 7 1
02/20/06 1:41 a -5.2 -5.2 -5.2 --- --- 7.0 ENE 0.12 8.7 -10.3 --- --- 725.8 0.016 0.000 9.2 7 1
02/20/06 1:42 a -5.1 -5.1 -5.2 --- --- 7.0 ENE 0.12 7.8 -10.2 --- --- 725.8 0.016 0.000 9.2 7 1
02/20/06 1:43 a -5.1 -5.1 -5.1 --- --- 6.1 ENE 0.10 7.8 -9.7 --- --- 725.8 0.016 0.000 9.2 7 1
02/20/06 1:44 a -5.1 -5.1 -5.1 --- --- 7.0 ENE 0.12 9.6 -10.2 --- --- 725.8 0.016 0.000 9.2 7 1
02/20/06 1:45 a -5.2 -5.1 -5.2 --- --- 7.8 ENE 0.13 9.6 -10.7 --- --- 725.9 0.016 0.000 9.2 7 1
02/20/06 1:46 a -5.2 -5.2 -5.2 --- --- 7.0 E 0.12 9.6 -10.3 --- --- 725.9 0.016 0.000 9.2 7 1
02/20/06 1:47 a -5.2 -5.2 -5.2 --- --- 7.8 ENE 0.13 9.6 -10.7 --- --- 725.9 0.016 0.000 9.2 7 1
02/20/06 1:48 a -5.2 -5.2 -5.2 --- --- 8.7 ENE 0.14 10.4 -11.1 --- --- 725.9 0.016 0.000 9.2 7 1
02/20/06 1:49 a -5.2 -5.1 -5.2 --- --- 8.7 ENE 0.14 9.6 -11.0 --- --- 725.8 0.016 0.000 9.2 7 1
02/20/06 1:50 a -5.1 -5.1 -5.2 --- --- 8.7 ENE 0.14 9.6 -10.9 --- --- 725.9 0.016 0.000 9.2 7 1
02/20/06 1:51 a -5.1 -5.1 -5.2 --- --- 8.7 ENE 0.14 11.3 -10.9 --- --- 725.9 0.016 0.000 9.2 7 1
02/20/06 1:52 a -5.1 -5.1 -5.1 --- --- 8.7 ENE 0.14 9.6 -10.9 --- --- 726.0 0.016 0.000 9.2 7 1
02/20/06 1:53 a -5.1 -5.1 -5.1 --- --- 7.0 ENE 0.12 8.7 -10.1 --- --- 726.0 0.016 0.000 9.2 7 1
02/20/06 1:54 a -5.1 -5.0 -5.1 --- --- 7.0 NE 0.12 8.7 -10.1 --- --- 725.9 0.016 0.000 9.2 7 1
02/20/06 1:55 a -5.1 -5.1 -5.2 --- --- 7.0 NE 0.12 8.7 -10.2 --- --- 725.9 0.016 0.000 9.2 7 1
02/20/06 1:56 a -5.2 -5.2 -5.2 --- --- 7.8 NE 0.13 9.6 -10.7 --- --- 725.9 0.016 0.000 9.2 7 1
02/20/06 1:57 a -5.2 -5.2 -5.3 --- --- 7.0 ENE 0.12 7.8 -10.3 --- --- 725.8 0.016 0.000 9.2 7 1
02/20/06 1:58 a -5.2 -5.2 -5.2 --- --- 7.0 ENE 0.12 8.7 -10.3 --- --- 725.9 0.016 0.000 9.2 7 1
02/20/06 1:59 a -5.2 -5.2 -5.2 --- --- 7.8 ENE 0.13 8.7 -10.7 --- --- 725.9 0.016 0.000 9.2 7 1
02/20/06 2:00 a -5.1 -5.1 -5.2 --- --- 7.0 ENE 0.12 8.7 -10.2 --- --- 725.9 0.016 0.000 9.2 7 1
02/20/06 2:01 a -5.2 -5.1 -5.2 --- --- 7.8 ENE 0.13 8.7 -10.7 --- --- 725.9 0.016 0.000 9.2 7 1
02/20/06 2:02 a -5.2 -5.2 -5.2 --- --- 7.8 ENE 0.13 9.6 -10.7 --- --- 726.0 0.016 0.000 9.2 7 1
02/20/06 2:03 a -5.2 -5.2 -5.2 --- --- 8.7 ENE 0.14 9.6 -11.0 --- --- 725.9 0.016 0.000 9.2 7 1
02/20/06 2:04 a -5.3 -5.3 -5.3 --- --- 8.7 ENE 0.14 9.6 -11.1 --- --- 725.9 0.016 0.000 9.2 7 1
02/20/06 2:05 a -5.3 -5.2 -5.3 --- --- 7.8 ENE 0.13 9.6 -10.8 --- --- 726.0 0.016 0.000 9.2 7 1
02/20/06 2:06 a -5.3 -5.3 -5.3 --- --- 7.0 ENE 0.12 8.7 -10.4 --- --- 725.9 0.016 0.000 9.2 7 1
02/20/06 2:07 a -5.3 -5.3 -5.3 --- --- 6.1 ENE 0.10 7.0 -10.0 --- --- 726.0 0.016 0.000 9.2 7 1
02/20/06 2:08 a -5.3 -5.3 -5.4 --- --- 7.0 NE 0.12 7.8 -10.4 --- --- 726.0 0.016 0.000 9.2 7 1
02/20/06 2:09 a -5.5 -5.4 -5.6 --- --- 7.8 ENE 0.13 9.6 -11.1 --- --- 726.0 0.017 0.000 9.2 7 1
02/20/06 2:10 a -5.5 -5.4 -5.6 --- --- 7.0 ENE 0.12 8.7 -10.7 --- --- 726.0 0.017 0.000 9.2 7 1
02/20/06 2:11 a -5.4 -5.4 -5.4 --- --- 6.1 ENE 0.10 7.8 -10.1 --- --- 726.0 0.016 0.000 9.2 7 1
02/20/06 2:12 a -5.4 -5.4 -5.4 --- --- 6.1 ENE 0.10 7.0 -10.1 --- --- 726.0 0.016 0.000 9.2 7 1
02/20/06 2:13 a -5.3 -5.3 -5.4 --- --- 6.1 ENE 0.10 7.0 -10.1 --- --- 725.9 0.016 0.000 9.2 7 1
02/20/06 2:14 a -5.3 -5.3 -5.3 --- --- 7.0 ENE 0.12 7.8 -10.4 --- --- 726.0 0.016 0.000 9.2 7 1
02/20/06 2:15 a -5.3 -5.2 -5.3 --- --- 6.1 ENE 0.10 8.7 -10.0 --- --- 726.0 0.016 0.000 9.2 7 1
02/20/06 2:16 a -5.2 -5.1 -5.2 --- --- 7.0 ENE 0.12 8.7 -10.3 --- --- 726.0 0.016 0.000 9.2 7 1
02/20/06 2:17 a -5.1 -5.1 -5.1 --- --- 6.1 ENE 0.10 7.8 -9.8 --- --- 726.0 0.016 0.000 9.2 7 1
02/20/06 2:18 a -4.9 -4.9 -5.0 --- --- 6.1 ENE 0.10 7.8 -9.6 --- --- 726.0 0.016 0.000 9.2 7 1
02/20/06 2:19 a -5.0 -4.9 -5.1 --- --- 7.0 E 0.12 7.8 -10.1 --- --- 726.0 0.016 0.000 9.2 7 1
02/20/06 2:20 a -5.0 -4.9 -5.1 --- --- 5.2 E 0.09 7.8 -9.2 --- --- 726.0 0.016 0.000 9.2 7 1
02/20/06 2:21 a -4.9 -4.9 -5.0 --- --- 6.1 E 0.10 7.8 -9.6 --- --- 726.0 0.016 0.000 9.2 7 1
02/20/06 2:22 a -4.9 -4.8 -4.9 --- --- 7.0 ENE 0.12 8.7 -10.0 --- --- 725.9 0.016 0.000 9.2 7 1
02/20/06 2:23 a -4.9 -4.8 -4.9 --- --- 7.8 ENE 0.13 7.8 -10.3 --- --- 726.1 0.016 0.000 9.2 7 1
02/20/06 2:24 a -4.8 -4.8 -4.8 --- --- 7.0 ENE 0.12 7.8 -9.8 --- --- 726.1 0.016 0.000 9.2 7 1
02/20/06 2:25 a -4.8 -4.7 -4.8 --- --- 7.0 ENE 0.12 7.8 -9.8 --- --- 726.1 0.016 0.000 9.2 7 1
02/20/06 2:26 a -4.7 -4.7 -4.7 --- --- 6.1 ENE 0.10 7.0 -9.3 --- --- 726.0 0.016 0.000 9.2 7 1
02/20/06 2:27 a -4.7 -4.7 -4.7 --- --- 5.2 ENE 0.09 6.1 -8.8 --- --- 726.0 0.016 0.000 9.2 7 1
02/20/06 2:28 a -4.7 -4.7 -4.7 --- --- 6.1 ENE 0.10 7.0 -9.3 --- --- 726.0 0.016 0.000 9.2 7 1
02/20/06 2:29 a -4.7 -4.7 -4.7 --- --- 6.1 ENE 0.10 7.0 -9.2 --- --- 726.0 0.016 0.000 9.2 7 1
02/20/06 2:30 a -4.8 -4.7 -4.8 --- --- 7.0 ENE 0.12 7.8 -9.8 --- --- 726.1 0.016 0.000 9.2 7 1
02/20/06 2:31 a -4.9 -4.9 -4.9 --- --- 7.0 ENE 0.12 7.8 -9.9 --- --- 726.0 0.016 0.000 9.2 7 1
02/20/06 2:32 a -5.0 -4.9 -5.0 --- --- 6.1 ENE 0.10 7.8 -9.6 --- --- 726.1 0.016 0.000 9.2 7 1
02/20/06 2:33 a -5.0 -5.0 -5.0 --- --- 6.1 E 0.10 7.8 -9.6 --- --- 726.0 0.016 0.000 9.2 7 1
02/20/06 2:34 a -5.0 -5.0 -5.0 --- --- 5.2 E 0.09 7.0 -9.2 --- --- 726.0 0.016 0.000 9.2 7 1
02/20/06 2:35 a -5.0 -5.0 -5.1 --- --- 7.0 ENE 0.12 7.8 -10.1 --- --- 726.1 0.016 0.000 9.2 7 1
02/20/06 2:36 a -4.9 -4.9 -4.9 --- --- 7.0 ENE 0.12 7.8 -10.0 --- --- 726.1 0.016 0.000 9.2 7 1
02/20/06 2:37 a -4.9 -4.9 -4.9 --- --- 7.0 ENE 0.12 7.8 -9.9 --- --- 726.1 0.016 0.000 9.2 7 1
02/20/06 2:38 a -4.9 -4.8 -4.9 --- --- 7.0 ENE 0.12 8.7 -9.9 --- --- 726.1 0.016 0.000 9.2 7 1
02/20/06 2:39 a -4.9 -4.9 -5.0 --- --- 6.1 E 0.10 7.0 -9.6 --- --- 726.1 0.016 0.000 9.2 7 1
02/20/06 2:40 a -5.0 -4.9 -5.0 --- --- 7.0 E 0.12 9.6 -10.1 --- --- 726.1 0.016 0.000 9.2 7 1
02/20/06 2:41 a -4.9 -4.9 -4.9 --- --- 8.7 E 0.14 10.4 -10.7 --- --- 726.1 0.016 0.000 9.2 7 1
02/20/06 2:42 a -4.8 -4.8 -4.9 --- --- 7.0 ESE 0.12 10.4 -9.8 --- --- 726.1 0.016 0.000 9.2 7 1
02/20/06 2:43 a -4.7 -4.7 -4.7 --- --- 6.1 E 0.10 8.7 -9.3 --- --- 726.0 0.016 0.000 9.2 7 1
02/20/06 2:44 a -4.7 -4.7 -4.7 --- --- 6.1 E 0.10 7.8 -9.3 --- --- 726.1 0.016 0.000 9.2 7 1
02/20/06 2:45 a -4.8 -4.7 -4.8 --- --- 7.8 ENE 0.13 9.6 -10.2 --- --- 726.1 0.016 0.000 9.3 7 1
02/20/06 2:46 a -4.9 -4.8 -4.9 --- --- 7.8 ENE 0.13 9.6 -10.3 --- --- 726.0 0.016 0.000 9.3 7 1
02/20/06 2:47 a -4.9 -4.9 -4.9 --- --- 6.1 ENE 0.10 8.7 -9.6 --- --- 726.1 0.016 0.000 9.2 7 1
02/20/06 2:48 a -4.8 -4.8 -4.9 --- --- 5.2 ENE 0.09 7.0 -8.9 --- --- 726.1 0.016 0.000 9.2 7 1
02/20/06 2:49 a -4.8 -4.8 -4.9 --- --- 6.1 E 0.10 8.7 -9.4 --- --- 726.0 0.016 0.000 9.2 7 1
02/20/06 2:50 a -4.9 -4.9 -5.0 --- --- 6.1 E 0.10 8.7 -9.6 --- --- 726.1 0.016 0.000 9.3 7 1
02/20/06 2:51 a -5.0 -4.9 -5.0 --- --- 7.8 E 0.13 11.3 -10.4 --- --- 726.1 0.016 0.000 9.2 7 1
02/20/06 2:52 a -5.1 -5.1 -5.1 --- --- 10.4 ENE 0.17 12.2 -11.5 --- --- 726.0 0.016 0.000 9.2 7 1
02/20/06 2:53 a -5.1 -5.1 -5.2 --- --- 7.8 ENE 0.13 9.6 -10.6 --- --- 726.2 0.016 0.000 9.2 7 1
02/20/06 2:54 a -5.1 -5.1 -5.1 --- --- 7.0 ENE 0.12 8.7 -10.1 --- --- 726.2 0.016 0.000 9.2 7 1
02/20/06 2:55 a -5.1 -5.1 -5.2 --- --- 7.0 E 0.12 8.7 -10.1 --- --- 726.1 0.016 0.000 9.2 7 1
02/20/06 2:56 a -5.2 -5.2 -5.2 --- --- 7.0 E 0.12 11.3 -10.3 --- --- 726.1 0.016 0.000 9.3 7 1
02/20/06 2:57 a -5.2 -5.2 -5.2 --- --- 10.4 E 0.17 12.2 -11.7 --- --- 726.1 0.016 0.000 9.3 7 1
02/20/06 2:58 a -5.2 -5.2 -5.2 --- --- 7.8 ESE 0.13 9.6 -10.7 --- --- 726.1 0.016 0.000 9.3 7 1
02/20/06 2:59 a -5.2 -5.2 -5.2 --- --- 7.0 ESE 0.12 10.4 -10.3 --- --- 726.1 0.016 0.000 9.3 7 1
02/20/06 3:00 a -5.2 -5.1 -5.2 --- --- 7.8 E 0.13 9.6 -10.7 --- --- 726.1 0.016 0.000 9.3 7 1
02/20/06 3:01 a -5.3 -5.2 -5.4 --- --- 7.0 E 0.12 8.7 -10.4 --- --- 726.2 0.016 0.000 9.3 7 1
02/20/06 3:02 a -5.4 -5.4 -5.4 --- --- 7.0 E 0.12 8.7 -10.6 --- --- 726.1 0.016 0.000 9.3 7 1
02/20/06 3:03 a -5.4 -5.4 -5.4 --- --- 6.1 E 0.10 9.6 -10.2 --- --- 726.2 0.017 0.000 9.3 7 1
02/20/06 3:04 a -5.4 -5.4 -5.6 --- --- 6.1 E 0.10 7.8 -10.2 --- --- 726.1 0.017 0.000 9.3 7 1
02/20/06 3:05 a -5.6 -5.5 -5.6 --- --- 6.1 E 0.10 9.6 -10.3 --- --- 726.2 0.017 0.000 9.3 7 1
02/20/06 3:06 a -5.6 -5.6 -5.6 --- --- 7.0 E 0.12 8.7 -10.7 --- --- 726.1 0.017 0.000 9.3 7 1
02/20/06 3:07 a -5.5 -5.4 -5.5 --- --- 6.1 E 0.10 8.7 -10.2 --- --- 726.2 0.017 0.000 9.3 7 1
02/20/06 3:08 a -5.4 -5.4 -5.5 --- --- 7.0 E 0.12 8.7 -10.6 --- --- 726.2 0.017 0.000 9.3 7 1
02/20/06 3:09 a -5.5 -5.5 -5.6 --- --- 7.0 E 0.12 9.6 -10.7 --- --- 726.2 0.017 0.000 9.3 7 1
02/20/06 3:10 a -5.4 -5.4 -5.5 --- --- 7.0 E 0.12 7.8 -10.6 --- --- 726.1 0.017 0.000 9.3 7 1
02/20/06 3:11 a -5.4 -5.4 -5.4 --- --- 6.1 ENE 0.10 7.0 -10.2 --- --- 726.2 0.017 0.000 9.3 7 1
02/20/06 3:12 a -5.4 -5.4 -5.4 --- --- 6.1 E 0.10 7.8 -10.2 --- --- 726.1 0.017 0.000 9.3 7 1
02/20/06 3:13 a -5.5 -5.5 -5.6 --- --- 5.2 E 0.09 8.7 -9.8 --- --- 726.2 0.017 0.000 9.3 7 1
02/20/06 3:14 a -5.6 -5.6 -5.6 --- --- 6.1 E 0.10 8.7 -10.3 --- --- 726.2 0.017 0.000 9.3 7 1
02/20/06 3:15 a -5.6 -5.5 -5.6 --- --- 7.0 ESE 0.12 7.8 -10.7 --- --- 726.2 0.017 0.000 9.3 7 1
02/20/06 3:16 a -5.5 -5.5 -5.6 --- --- 5.2 E 0.09 7.0 -9.8 --- --- 726.2 0.017 0.000 9.3 7 1
02/20/06 3:17 a -5.6 -5.6 -5.6 --- --- 5.2 E 0.09 7.0 -9.8 --- --- 726.2 0.017 0.000 9.3 7 1
02/20/06 3:18 a -5.5 -5.5 -5.6 --- --- 4.3 E 0.07 7.0 -9.2 --- --- 726.3 0.017 0.000 9.3 7 1
02/20/06 3:19 a -5.5 -5.4 -5.5 --- --- 5.2 E 0.09 7.8 -9.8 --- --- 726.2 0.017 0.000 9.3 7 1
02/20/06 3:20 a -5.4 -5.3 -5.4 --- --- 6.1 E 0.10 8.7 -10.1 --- --- 726.3 0.016 0.000 9.3 7 1
02/20/06 3:21 a -5.3 -5.3 -5.3 --- --- 6.1 E 0.10 7.8 -10.1 --- --- 726.3 0.016 0.000 9.3 7 1
02/20/06 3:22 a -5.2 -5.2 -5.2 --- --- 4.3 E 0.07 7.0 -8.9 --- --- 726.3 0.016 0.000 9.3 7 1
02/20/06 3:23 a -5.2 -5.2 -5.2 --- --- 7.8 E 0.13 9.6 -10.7 --- --- 726.2 0.016 0.000 9.3 7 1
02/20/06 3:24 a -5.2 -5.2 -5.2 --- --- 7.8 E 0.13 9.6 -10.7 --- --- 726.3 0.016 0.000 9.3 7 1
02/20/06 3:25 a -5.2 -5.1 -5.2 --- --- 6.1 E 0.10 7.8 -9.8 --- --- 726.2 0.016 0.000 9.3 7 1
02/20/06 3:26 a -5.2 -5.2 -5.3 --- --- 6.1 E 0.10 8.7 -9.8 --- --- 726.3 0.016 0.000 9.3 7 1
02/20/06 3:27 a -5.3 -5.3 -5.4 --- --- 7.0 E 0.12 8.7 -10.4 --- --- 726.3 0.016 0.000 9.3 7 1
02/20/06 3:28 a -5.4 -5.4 -5.4 --- --- 5.2 E 0.09 7.0 -9.7 --- --- 726.3 0.017 0.000 9.3 7 1
02/20/06 3:29 a -5.4 -5.4 -5.4 --- --- 7.8 E 0.13 9.6 -11.0 --- --- 726.3 0.017 0.000 9.3 7 1
02/20/06 3:30 a -5.4 -5.3 -5.4 --- --- 7.8 E 0.13 9.6 -10.9 --- --- 726.3 0.016 0.000 9.3 7 1
02/20/06 3:31 a -5.4 -5.4 -5.4 --- --- 6.1 E 0.10 7.8 -10.1 --- --- 726.3 0.016 0.000 9.3 7 1
02/20/06 3:32 a -5.5 -5.5 -5.6 --- --- 7.0 E 0.12 8.7 -10.7 --- --- 726.2 0.017 0.000 9.3 7 1
02/20/06 3:33 a -5.6 -5.5 -5.6 --- --- 7.0 E 0.12 8.7 -10.7 --- --- 726.2 0.017 0.000 9.3 7 1
02/20/06 3:34 a -5.6 -5.6 -5.6 --- --- 6.1 E 0.10 8.7 -10.3 --- --- 726.3 0.017 0.000 9.3 7 1
02/20/06 3:35 a -5.6 -5.6 -5.6 --- --- 7.0 E 0.12 8.7 -10.8 --- --- 726.4 0.017 0.000 9.3 7 1
02/20/06 3:36 a -5.6 -5.6 -5.6 --- --- 8.7 E 0.14 11.3 -11.6 --- --- 726.2 0.017 0.000 9.3 7 1
02/20/06 3:37 a -5.4 -5.4 -5.5 --- --- 7.0 E 0.12 10.4 -10.6 --- --- 726.2 0.017 0.000 9.3 7 1
02/20/06 3:38 a -5.4 -5.4 -5.4 --- --- 6.1 E 0.10 7.8 -10.1 --- --- 726.3 0.016 0.000 9.3 7 1
02/20/06 3:39 a -5.4 -5.4 -5.4 --- --- 6.1 E 0.10 7.8 -10.1 --- --- 726.3 0.016 0.000 9.3 7 1
02/20/06 3:40 a -5.4 -5.4 -5.4 --- --- 7.0 ESE 0.12 10.4 -10.6 --- --- 726.3 0.016 0.000 9.3 7 1
02/20/06 3:41 a -5.3 -5.3 -5.4 --- --- 9.6 ESE 0.16 11.3 -11.6 --- --- 726.3 0.016 0.000 9.3 7 1
02/20/06 3:42 a -5.2 -5.1 -5.3 --- --- 10.4 ESE 0.17 12.2 -11.7 --- --- 726.4 0.016 0.000 9.3 7 1
02/20/06 3:43 a -5.1 -5.1 -5.1 --- --- 8.7 ESE 0.14 11.3 -10.9 --- --- 726.4 0.016 0.000 9.3 7 1
02/20/06 3:44 a -5.1 -5.1 -5.1 --- --- 7.0 E 0.12 9.6 -10.1 --- --- 726.4 0.016 0.000 9.3 7 1
02/20/06 3:45 a -5.1 -5.1 -5.2 --- --- 7.0 E 0.12 9.6 -10.2 --- --- 726.4 0.016 0.000 9.3 7 1
02/20/06 3:46 a -5.1 -5.1 -5.1 --- --- 7.8 E 0.13 9.6 -10.6 --- --- 726.3 0.016 0.000 9.3 7 1
02/20/06 3:47 a -5.1 -5.1 -5.1 --- --- 6.1 ESE 0.10 8.7 -9.7 --- --- 726.4 0.016 0.000 9.3 7 1
02/20/06 3:48 a -5.0 -4.9 -5.0 --- --- 8.7 ESE 0.14 10.4 -10.8 --- --- 726.5 0.016 0.000 9.3 7 1
02/20/06 3:49 a -4.9 -4.9 -5.0 --- --- 7.0 E 0.12 9.6 -10.0 --- --- 726.4 0.016 0.000 9.3 7 1
02/20/06 3:50 a -5.0 -5.0 -5.1 --- --- 6.1 E 0.10 8.7 -9.6 --- --- 726.3 0.016 0.000 9.3 7 1
02/20/06 3:51 a -5.2 -5.2 -5.3 --- --- 6.1 E 0.10 8.7 -9.9 --- --- 726.4 0.016 0.000 9.3 7 1
02/20/06 3:52 a -5.3 -5.3 -5.3 --- --- 7.0 E 0.12 8.7 -10.4 --- --- 726.4 0.016 0.000 9.3 7 1
02/20/06 3:53 a -5.4 -5.4 -5.4 --- --- 7.8 E 0.13 9.6 -10.9 --- --- 726.4 0.016 0.000 9.3 7 1
02/20/06 3:54 a -5.4 -5.4 -5.5 --- --- 8.7 ENE 0.14 9.6 -11.3 --- --- 726.5 0.017 0.000 9.3 7 1
02/20/06 3:55 a -5.5 -5.5 -5.6 --- --- 8.7 ENE 0.14 9.6 -11.4 --- --- 726.3 0.017 0.000 9.3 7 1
02/20/06 3:56 a -5.5 -5.5 -5.6 --- --- 6.1 E 0.10 7.8 -10.2 --- --- 726.4 0.017 0.000 9.3 7 1
02/20/06 3:57 a -5.6 -5.6 -5.6 --- --- 6.1 E 0.10 8.7 -10.3 --- --- 726.4 0.017 0.000 9.3 7 1
02/20/06 3:58 a -5.6 -5.6 -5.7 --- --- 6.1 E 0.10 9.6 -10.4 --- --- 726.4 0.017 0.000 9.3 7 1
02/20/06 3:59 a -5.7 -5.7 -5.7 --- --- 6.1 E 0.10 7.8 -10.4 --- --- 726.5 0.017 0.000 9.3 7 1
02/20/06 4:00 a -5.7 -5.7 -5.8 --- --- 7.0 E 0.12 8.7 -10.9 --- --- 726.5 0.017 0.000 9.3 7 1
02/20/06 4:01 a -5.8 -5.8 -5.8 --- --- 6.1 E 0.10 8.7 -10.6 --- --- 726.5 0.017 0.000 9.3 7 1
02/20/06 4:02 a -5.8 -5.8 -5.8 --- --- 6.1 E 0.10 8.7 -10.7 --- --- 726.4 0.017 0.000 9.3 7 1
02/20/06 4:03 a -5.8 -5.8 -5.8 --- --- 6.1 E 0.10 9.6 -10.7 --- --- 726.4 0.017 0.000 9.3 7 1
02/20/06 4:04 a -5.8 -5.8 -5.8 --- --- 7.8 E 0.13 10.4 -11.4 --- --- 726.4 0.017 0.000 9.3 7 1
02/20/06 4:05 a -5.8 -5.8 -5.9 --- --- 8.7 E 0.14 11.3 -11.8 --- --- 726.4 0.017 0.000 9.3 7 1
02/20/06 4:06 a -5.9 -5.8 -5.9 --- --- 7.0 ESE 0.12 10.4 -11.2 --- --- 726.5 0.017 0.000 9.3 7 1
02/20/06 4:07 a -5.9 -5.9 -5.9 --- --- 7.8 E 0.13 9.6 -11.6 --- --- 726.5 0.017 0.000 9.4 7 1
02/20/06 4:08 a -5.9 -5.9 -6.0 --- --- 7.0 E 0.12 8.7 -11.2 --- --- 726.5 0.017 0.000 9.3 7 1
02/20/06 4:09 a -6.0 -6.0 -6.1 --- --- 7.8 E 0.13 9.6 -11.7 --- --- 726.5 0.017 0.000 9.3 7 1
02/20/06 4:10 a -6.1 -6.1 -6.1 --- --- 7.0 E 0.12 8.7 -11.3 --- --- 726.4 0.017 0.000 9.3 7 1
02/20/06 4:11 a -6.1 -6.1 -6.1 --- --- 7.0 E 0.12 7.8 -11.3 --- --- 726.4 0.017 0.000 9.4 7 1
02/20/06 4:12 a -6.1 -6.1 -6.2 --- --- 7.0 E 0.12 9.6 -11.4 --- --- 726.5 0.017 0.000 9.3 7 1
02/20/06 4:13 a -6.1 -6.1 -6.2 --- --- 7.0 E 0.12 9.6 -11.4 --- --- 726.5 0.017 0.000 9.3 7 1
02/20/06 4:14 a -6.2 -6.2 -6.3 --- --- 7.0 E 0.12 10.4 -11.6 --- --- 726.4 0.017 0.000 9.3 7 1
02/20/06 4:15 a -6.3 -6.2 -6.3 --- --- 7.0 E 0.12 9.6 -11.6 --- --- 726.5 0.017 0.000 9.3 7 1
02/20/06 4:16 a -6.3 -6.2 -6.3 --- --- 7.0 E 0.12 8.7 -11.6 --- --- 726.5 0.017 0.000 9.3 7 1
02/20/06 4:17 a -6.3 -6.2 -6.3 --- --- 7.0 E 0.12 8.7 -11.6 --- --- 726.5 0.017 0.000 9.3 7 1
02/20/06 4:18 a -6.2 -6.2 -6.3 --- --- 7.0 E 0.12 8.7 -11.6 --- --- 726.5 0.017 0.000 9.3 7 1
02/20/06 4:19 a -6.2 -6.2 -6.2 --- --- 7.8 E 0.13 9.6 -11.9 --- --- 726.5 0.017 0.000 9.3 7 1
02/20/06 4:20 a -6.2 -6.2 -6.2 --- --- 7.0 E 0.12 9.6 -11.5 --- --- 726.5 0.017 0.000 9.3 7 1
02/20/06 4:21 a -6.1 -6.1 -6.2 --- --- 7.8 E 0.13 10.4 -11.8 --- --- 726.5 0.017 0.000 9.3 7 1
02/20/06 4:22 a -6.1 -6.1 -6.1 --- --- 7.8 E 0.13 9.6 -11.8 --- --- 726.5 0.017 0.000 9.3 7 1
02/20/06 4:23 a -6.1 -6.1 -6.1 --- --- 7.8 E 0.13 8.7 -11.7 --- --- 726.5 0.017 0.000 9.3 7 1
02/20/06 4:24 a -6.1 -6.1 -6.1 --- --- 6.1 E 0.10 8.7 -10.9 --- --- 726.5 0.017 0.000 9.3 7 1
02/20/06 4:25 a -6.0 -6.0 -6.1 --- --- 6.1 E 0.10 7.8 -10.8 --- --- 726.5 0.017 0.000 9.3 7 1
02/20/06 4:26 a -5.9 -5.9 -5.9 --- --- 6.1 E 0.10 8.7 -10.8 --- --- 726.6 0.017 0.000 9.3 7 1
02/20/06 4:27 a -5.9 -5.8 -5.9 --- --- 7.8 ENE 0.13 8.7 -11.6 --- --- 726.6 0.017 0.000 9.3 7 1
02/20/06 4:28 a -5.8 -5.7 -5.8 --- --- 7.8 ENE 0.13 8.7 -11.4 --- --- 726.5 0.017 0.000 9.3 7 1
02/20/06 4:29 a -5.7 -5.6 -5.7 --- --- 7.8 ENE 0.13 8.7 -11.3 --- --- 726.5 0.017 0.000 9.3 7 1
02/20/06 4:30 a -5.6 -5.5 -5.6 --- --- 7.0 ENE 0.12 8.7 -10.7 --- --- 726.5 0.017 0.000 9.3 7 1
02/20/06 4:31 a -5.5 -5.4 -5.5 --- --- 7.0 E 0.12 8.7 -10.7 --- --- 726.5 0.017 0.000 9.3 7 1
02/20/06 4:32 a -5.5 -5.5 -5.5 --- --- 6.1 E 0.10 7.0 -10.2 --- --- 726.5 0.017 0.000 9.3 7 1
02/20/06 4:33 a -5.5 -5.4 -5.5 --- --- 5.2 E 0.09 7.0 -9.8 --- --- 726.5 0.017 0.000 9.3 7 1
02/20/06 4:34 a -5.4 -5.4 -5.4 --- --- 6.1 E 0.10 7.8 -10.2 --- --- 726.5 0.017 0.000 9.3 7 1
02/20/06 4:35 a -5.4 -5.4 -5.4 --- --- 7.0 E 0.12 10.4 -10.6 --- --- 726.5 0.017 0.000 9.3 7 1
02/20/06 4:36 a -5.4 -5.3 -5.4 --- --- 7.8 E 0.13 9.6 -10.9 --- --- 726.5 0.016 0.000 9.3 7 1
02/20/06 4:37 a -5.2 -5.1 -5.3 --- --- 7.0 E 0.12 9.6 -10.3 --- --- 726.6 0.016 0.000 9.4 7 1
02/20/06 4:38 a -5.1 -5.1 -5.1 --- --- 6.1 E 0.10 8.7 -9.8 --- --- 726.6 0.016 0.000 9.4 7 1
02/20/06 4:39 a -5.1 -5.0 -5.1 --- --- 7.0 E 0.12 9.6 -10.1 --- --- 726.5 0.016 0.000 9.4 7 1
02/20/06 4:40 a -5.1 -5.1 -5.1 --- --- 7.0 E 0.12 8.7 -10.1 --- --- 726.5 0.016 0.000 9.4 7 1
02/20/06 4:41 a -5.2 -5.1 -5.2 --- --- 7.0 E 0.12 9.6 -10.3 --- --- 726.4 0.016 0.000 9.4 7 1
02/20/06 4:42 a -5.2 -5.1 -5.2 --- --- 6.1 ESE 0.10 8.7 -9.8 --- --- 726.5 0.016 0.000 9.4 7 1
02/20/06 4:43 a -5.1 -5.1 -5.1 --- --- 7.8 E 0.13 10.4 -10.5 --- --- 726.5 0.016 0.000 9.4 7 1
02/20/06 4:44 a -5.1 -5.1 -5.1 --- --- 8.7 E 0.14 10.4 -10.9 --- --- 726.5 0.016 0.000 9.4 7 1
02/20/06 4:45 a -5.1 -5.0 -5.1 --- --- 9.6 ESE 0.16 11.3 -11.2 --- --- 726.5 0.016 0.000 9.4 7 1
02/20/06 4:46 a -5.0 -4.9 -5.0 --- --- 9.6 ESE 0.16 10.4 -11.1 --- --- 726.5 0.016 0.000 9.4 7 1
02/20/06 4:47 a -4.9 -4.8 -4.9 --- --- 9.6 ESE 0.16 10.4 -11.0 --- --- 726.6 0.016 0.000 9.4 7 1
02/20/06 4:48 a -4.9 -4.9 -4.9 --- --- 8.7 ESE 0.14 10.4 -10.7 --- --- 726.6 0.016 0.000 9.4 7 1
02/20/06 4:49 a -4.9 -4.8 -4.9 --- --- 8.7 ESE 0.14 10.4 -10.7 --- --- 726.6 0.016 0.000 9.4 7 1
02/20/06 4:50 a -4.9 -4.9 -5.0 --- --- 8.7 E 0.14 10.4 -10.7 --- --- 726.6 0.016 0.000 9.4 7 1
02/20/06 4:51 a -4.9 -4.9 -5.0 --- --- 9.6 ESE 0.16 12.2 -11.1 --- --- 726.5 0.016 0.000 9.4 7 1
02/20/06 4:52 a -5.0 -4.9 -5.1 --- --- 11.3 ESE 0.19 12.2 -11.7 --- --- 726.5 0.016 0.000 9.4 7 1
02/20/06 4:53 a -5.2 -5.1 -5.3 --- --- 12.2 ESE 0.20 13.9 -12.2 --- --- 726.5 0.016 0.000 9.4 7 1
02/20/06 4:54 a -5.3 -5.3 -5.4 --- --- 12.2 ESE 0.20 13.0 -12.4 --- --- 726.5 0.016 0.000 9.4 7 1
02/20/06 4:55 a -5.4 -5.4 -5.4 --- --- 11.3 ESE 0.19 13.0 -12.2 --- --- 726.5 0.016 0.000 9.4 7 1
02/20/06 4:56 a -5.4 -5.4 -5.4 --- --- 10.4 SE 0.17 11.3 -11.9 --- --- 726.5 0.016 0.000 9.4 7 1
02/20/06 4:57 a -5.5 -5.4 -5.5 --- --- 9.6 ESE 0.16 10.4 -11.7 --- --- 726.6 0.017 0.000 9.4 7 1
02/20/06 4:58 a -5.5 -5.5 -5.6 --- --- 8.7 ESE 0.14 10.4 -11.4 --- --- 726.6 0.017 0.000 9.4 7 1
02/20/06 4:59 a -5.6 -5.5 -5.6 --- --- 8.7 ESE 0.14 10.4 -11.5 --- --- 726.6 0.017 0.000 9.4 7 1
02/20/06 5:00 a -5.5 -5.5 -5.5 --- --- 9.6 ESE 0.16 10.4 -11.7 --- --- 726.5 0.017 0.000 9.4 7 1
02/20/06 5:01 a -5.6 -5.6 -5.6 --- --- 10.4 SE 0.17 12.2 -12.1 --- --- 726.5 0.017 0.000 9.4 7 1
02/20/06 5:02 a -5.6 -5.6 -5.6 --- --- 10.4 SE 0.17 11.3 -12.2 --- --- 726.5 0.017 0.000 9.4 7 1
02/20/06 5:03 a -5.7 -5.6 -5.7 --- --- 10.4 SE 0.17 11.3 -12.2 --- --- 726.5 0.017 0.000 9.4 7 1
02/20/06 5:04 a -5.6 -5.6 -5.7 --- --- 10.4 SE 0.17 11.3 -12.2 --- --- 726.5 0.017 0.000 9.4 7 1
02/20/06 5:05 a -5.6 -5.6 -5.6 --- --- 10.4 SE 0.17 11.3 -12.1 --- --- 726.5 0.017 0.000 9.4 7 1
02/20/06 5:06 a -5.6 -5.6 -5.7 --- --- 9.6 SE 0.16 10.4 -11.8 --- --- 726.5 0.017 0.000 9.4 7 1
02/20/06 5:07 a -5.7 -5.7 -5.7 --- --- 8.7 SE 0.14 9.6 -11.6 --- --- 726.5 0.017 0.000 9.4 7 1
02/20/06 5:08 a -5.7 -5.6 -5.7 --- --- 8.7 SE 0.14 10.4 -11.6 --- --- 726.5 0.017 0.000 9.4 7 1
02/20/06 5:09 a -5.6 -5.5 -5.6 --- --- 9.6 SSE 0.16 11.3 -11.8 --- --- 726.5 0.017 0.000 9.4 7 1
02/20/06 5:10 a -5.4 -5.4 -5.5 --- --- 8.7 SE 0.14 9.6 -11.3 --- --- 726.6 0.017 0.000 9.4 7 1
02/20/06 5:11 a -5.4 -5.4 -5.4 --- --- 8.7 SE 0.14 9.6 -11.3 --- --- 726.5 0.017 0.000 9.4 7 1
02/20/06 5:12 a -5.4 -5.4 -5.4 --- --- 9.6 SE 0.16 10.4 -11.6 --- --- 726.5 0.016 0.000 9.4 7 1
02/20/06 5:13 a -5.4 -5.4 -5.4 --- --- 7.8 SE 0.13 9.6 -11.0 --- --- 726.5 0.017 0.000 9.4 7 1
02/20/06 5:14 a -5.4 -5.4 -5.4 --- --- 8.7 SE 0.14 9.6 -11.3 --- --- 726.5 0.016 0.000 9.4 7 1
02/20/06 5:15 a -5.4 -5.4 -5.4 --- --- 7.8 SE 0.13 8.7 -10.9 --- --- 726.5 0.016 0.000 9.4 7 1
02/20/06 5:16 a -5.3 -5.3 -5.4 --- --- 7.8 SE 0.13 8.7 -10.8 --- --- 726.6 0.016 0.000 9.4 7 1
02/20/06 5:17 a -5.3 -5.3 -5.3 --- --- 8.7 SE 0.14 8.7 -11.2 --- --- 726.5 0.016 0.000 9.4 7 1
02/20/06 5:18 a -5.4 -5.3 -5.4 --- --- 8.7 SE 0.14 9.6 -11.3 --- --- 726.7 0.016 0.000 9.4 7 1
02/20/06 5:19 a -5.4 -5.4 -5.4 --- --- 7.8 ESE 0.13 9.6 -10.9 --- --- 726.6 0.016 0.000 9.4 7 1
02/20/06 5:20 a -5.4 -5.3 -5.4 --- --- 7.8 ESE 0.13 9.6 -10.9 --- --- 726.6 0.016 0.000 9.4 7 1
02/20/06 5:21 a -5.4 -5.4 -5.4 --- --- 7.8 E 0.13 8.7 -10.9 --- --- 726.7 0.016 0.000 9.4 7 1
02/20/06 5:22 a -5.4 -5.4 -5.5 --- --- 8.7 SE 0.14 10.4 -11.3 --- --- 726.6 0.017 0.000 9.4 7 1
02/20/06 5:23 a -5.6 -5.5 -5.6 --- --- 10.4 SE 0.17 11.3 -12.1 --- --- 726.6 0.017 0.000 9.4 7 1
02/20/06 5:24 a -5.6 -5.6 -5.6 --- --- 8.7 SE 0.14 10.4 -11.6 --- --- 726.6 0.017 0.000 9.4 7 1
02/20/06 5:25 a -5.6 -5.6 -5.6 --- --- 8.7 SE 0.14 9.6 -11.6 --- --- 726.6 0.017 0.000 9.4 7 1
02/20/06 5:26 a -5.6 -5.6 -5.6 --- --- 8.7 SE 0.14 9.6 -11.6 --- --- 726.6 0.017 0.000 9.4 7 1
02/20/06 5:27 a -5.6 -5.6 -5.6 --- --- 8.7 SE 0.14 9.6 -11.6 --- --- 726.6 0.017 0.000 9.4 7 1
02/20/06 5:28 a -5.6 -5.6 -5.7 --- --- 8.7 SE 0.14 9.6 -11.6 --- --- 726.6 0.017 0.000 9.4 7 1
02/20/06 5:29 a -5.5 -5.5 -5.6 --- --- 7.8 SE 0.13 9.6 -11.1 --- --- 726.7 0.017 0.000 9.4 7 1
02/20/06 5:30 a -5.4 -5.4 -5.5 --- --- 8.7 SE 0.14 9.6 -11.3 --- --- 726.6 0.017 0.000 9.4 7 1
02/20/06 5:31 a -5.4 -5.4 -5.4 --- --- 8.7 SE 0.14 9.6 -11.3 --- --- 726.7 0.017 0.000 9.4 7 1
02/20/06 5:32 a -5.4 -5.4 -5.4 --- --- 7.8 SE 0.13 8.7 -11.0 --- --- 726.6 0.017 0.000 9.4 7 1
02/20/06 5:33 a -5.4 -5.4 -5.4 --- --- 7.8 SE 0.13 8.7 -11.0 --- --- 726.6 0.017 0.000 9.4 7 1
02/20/06 5:34 a -5.4 -5.4 -5.4 --- --- 7.8 SE 0.13 8.7 -11.0 --- --- 726.7 0.017 0.000 9.4 7 1
02/20/06 5:35 a -5.4 -5.4 -5.4 --- --- 7.8 SE 0.13 8.7 -10.9 --- --- 726.7 0.016 0.000 9.4 7 1
02/20/06 5:36 a -5.4 -5.4 -5.4 --- --- 7.8 SE 0.13 8.7 -10.9 --- --- 726.6 0.016 0.000 9.4 7 1
02/20/06 5:37 a -5.4 -5.3 -5.4 --- --- 8.7 SE 0.14 8.7 -11.3 --- --- 726.7 0.016 0.000 9.4 7 1
02/20/06 5:38 a -5.3 -5.3 -5.3 --- --- 8.7 SE 0.14 9.6 -11.2 --- --- 726.7 0.016 0.000 9.4 7 1
02/20/06 5:39 a -5.3 -5.3 -5.3 --- --- 9.6 SE 0.16 10.4 -11.6 --- --- 726.7 0.016 0.000 9.4 7 1
02/20/06 5:40 a -5.3 -5.3 -5.4 --- --- 8.7 SSE 0.14 9.6 -11.2 --- --- 726.6 0.016 0.000 9.4 7 1
02/20/06 5:41 a -5.3 -5.3 -5.3 --- --- 8.7 SE 0.14 9.6 -11.2 --- --- 726.7 0.016 0.000 9.4 7 1
02/20/06 5:42 a -5.4 -5.4 -5.4 --- --- 8.7 SE 0.14 9.6 -11.3 --- --- 726.7 0.016 0.000 9.4 7 1
02/20/06 5:43 a -5.4 -5.4 -5.4 --- --- 7.8 SE 0.13 8.7 -10.9 --- --- 726.7 0.016 0.000 9.4 7 1
02/20/06 5:44 a -5.4 -5.4 -5.4 --- --- 7.8 SSE 0.13 8.7 -11.0 --- --- 726.7 0.017 0.000 9.4 7 1
02/20/06 5:45 a -5.4 -5.4 -5.4 --- --- 7.8 SSE 0.13 8.7 -11.0 --- --- 726.7 0.017 0.000 9.4 7 1
02/20/06 5:46 a -5.4 -5.4 -5.4 --- --- 7.0 SSE 0.12 7.8 -10.6 --- --- 726.7 0.016 0.000 9.4 7 1
02/20/06 5:47 a -5.4 -5.4 -5.4 --- --- 7.0 SE 0.12 7.8 -10.6 --- --- 726.7 0.016 0.000 9.4 7 1
02/20/06 5:48 a -5.4 -5.4 -5.4 --- --- 7.0 SE 0.12 7.0 -10.6 --- --- 726.7 0.016 0.000 9.4 7 1
02/20/06 5:49 a -5.4 -5.4 -5.4 --- --- 7.0 SE 0.12 7.8 -10.6 --- --- 726.7 0.017 0.000 9.4 7 1
02/20/06 5:50 a -5.4 -5.4 -5.4 --- --- 7.0 SSE 0.12 8.7 -10.6 --- --- 726.8 0.017 0.000 9.4 7 1
02/20/06 5:51 a -5.5 -5.4 -5.6 --- --- 5.2 SSE 0.09 7.8 -9.8 --- --- 726.8 0.017 0.000 9.4 7 1
02/20/06 5:52 a -5.6 -5.6 -5.6 --- --- 4.3 SSE 0.07 6.1 -9.3 --- --- 726.8 0.017 0.000 9.4 7 1
02/20/06 5:53 a -5.6 -5.6 -5.6 --- --- 4.3 SSE 0.07 5.2 -9.3 --- --- 726.7 0.017 0.000 9.4 7 1
02/20/06 5:54 a -5.5 -5.5 -5.6 --- --- 5.2 SSE 0.09 6.1 -9.8 --- --- 726.8 0.017 0.000 9.4 7 1
02/20/06 5:55 a -5.6 -5.5 -5.6 --- --- 4.3 SSE 0.07 6.1 -9.3 --- --- 726.9 0.017 0.000 9.4 7 1
02/20/06 5:56 a -5.6 -5.5 -5.6 --- --- 3.5 SSE 0.06 4.3 -8.6 --- --- 726.9 0.017 0.000 9.4 7 1
02/20/06 5:57 a -5.5 -5.5 -5.5 --- --- 3.5 SSE 0.06 4.3 -8.6 --- --- 726.9 0.017 0.000 9.4 7 1
02/20/06 5:58 a -5.5 -5.4 -5.5 --- --- 3.5 SE 0.06 4.3 -8.6 --- --- 726.9 0.017 0.000 9.4 7 1
02/20/06 5:59 a -5.4 -5.4 -5.4 --- --- 4.3 SE 0.07 6.1 -9.1 --- --- 726.9 0.017 0.000 9.4 7 1
02/20/06 6:00 a -5.5 -5.4 -5.6 --- --- 5.2 SE 0.09 6.1 -9.8 --- --- 726.9 0.017 0.000 9.4 7 1
02/20/06 6:01 a -5.5 -5.4 -5.5 --- --- 5.2 SE 0.09 7.0 -9.8 --- --- 726.9 0.017 0.000 9.4 7 1
02/20/06 6:02 a -5.4 -5.4 -5.5 --- --- 4.3 SE 0.07 4.3 -9.1 --- --- 726.9 0.017 0.000 9.4 7 1
02/20/06 6:03 a -5.4 -5.4 -5.4 --- --- 5.2 SSE 0.09 7.0 -9.7 --- --- 726.9 0.017 0.000 9.4 7 1
02/20/06 6:04 a -5.5 -5.5 -5.6 --- --- 6.1 SSE 0.10 7.0 -10.2 --- --- 726.9 0.017 0.000 9.4 7 1
02/20/06 6:05 a -5.6 -5.6 -5.7 --- --- 5.2 SSE 0.09 6.1 -9.9 --- --- 726.9 0.017 0.000 9.4 7 1
02/20/06 6:06 a -5.7 -5.7 -5.7 --- --- 4.3 SSE 0.07 5.2 -9.4 --- --- 726.9 0.017 0.000 9.4 7 1
02/20/06 6:07 a -5.7 -5.7 -5.8 --- --- 5.2 SSE 0.09 6.1 -10.0 --- --- 726.9 0.017 0.000 9.4 7 1
02/20/06 6:08 a -5.8 -5.7 -5.8 --- --- 4.3 S 0.07 7.0 -9.5 --- --- 727.0 0.017 0.000 9.4 7 1
02/20/06 6:09 a -5.8 -5.7 -5.8 --- --- 6.1 S 0.10 7.8 -10.6 --- --- 726.9 0.017 0.000 9.4 7 1
02/20/06 6:10 a -5.8 -5.8 -5.8 --- --- 8.7 SSE 0.14 10.4 -11.8 --- --- 726.9 0.017 0.000 9.4 7 1
02/20/06 6:11 a -5.8 -5.8 -5.8 --- --- 8.7 SSE 0.14 9.6 -11.8 --- --- 726.9 0.017 0.000 9.4 7 1
02/20/06 6:12 a -5.9 -5.8 -5.9 --- --- 7.8 SSE 0.13 8.7 -11.6 --- --- 726.9 0.017 0.000 9.4 7 1
02/20/06 6:13 a -5.9 -5.9 -5.9 --- --- 7.0 SSE 0.12 7.8 -11.2 --- --- 726.9 0.017 0.000 9.4 7 1
02/20/06 6:14 a -5.9 -5.8 -5.9 --- --- 7.0 SSE 0.12 7.8 -11.2 --- --- 726.9 0.017 0.000 9.4 7 1
02/20/06 6:15 a -5.8 -5.8 -5.8 --- --- 7.8 SE 0.13 8.7 -11.4 --- --- 726.8 0.017 0.000 9.4 7 1
02/20/06 6:16 a -5.8 -5.8 -5.8 --- --- 8.7 SE 0.14 9.6 -11.8 --- --- 727.0 0.017 0.000 9.4 7 1
02/20/06 6:17 a -5.9 -5.8 -5.9 --- --- 8.7 SE 0.14 9.6 -11.9 --- --- 727.0 0.017 0.000 9.4 7 1
02/20/06 6:18 a -5.9 -5.9 -5.9 --- --- 7.0 SE 0.12 8.7 -11.2 --- --- 726.9 0.017 0.000 9.4 7 1
02/20/06 6:19 a -5.9 -5.9 -5.9 --- --- 7.8 SE 0.13 9.6 -11.6 --- --- 726.9 0.017 0.000 9.4 7 1
02/20/06 6:20 a -5.9 -5.9 -5.9 --- --- 7.8 SE 0.13 8.7 -11.6 --- --- 727.0 0.017 0.000 9.4 7 1
02/20/06 6:21 a -5.9 -5.9 -5.9 --- --- 7.0 SE 0.12 9.6 -11.2 --- --- 726.9 0.017 0.000 9.4 7 1
02/20/06 6:22 a -5.9 -5.9 -6.0 --- --- 7.8 SSE 0.13 8.7 -11.6 --- --- 726.9 0.017 0.000 9.4 7 1
02/20/06 6:23 a -6.0 -6.0 -6.1 --- --- 7.8 SE 0.13 7.8 -11.7 --- --- 726.9 0.017 0.000 9.4 7 1
02/20/06 6:24 a -6.0 -6.0 -6.0 --- --- 7.8 SE 0.13 7.8 -11.7 --- --- 727.0 0.017 0.000 9.4 7 1
02/20/06 6:25 a -6.1 -6.0 -6.1 --- --- 7.8 SE 0.13 8.7 -11.7 --- --- 726.9 0.017 0.000 9.4 7 1
02/20/06 6:26 a -6.1 -6.0 -6.1 --- --- 7.8 SE 0.13 8.7 -11.7 --- --- 726.9 0.017 0.000 9.4 7 1
02/20/06 6:27 a -6.0 -6.0 -6.1 --- --- 7.0 SE 0.12 7.8 -11.3 --- --- 727.0 0.017 0.000 9.4 7 1
02/20/06 6:28 a -6.1 -6.0 -6.1 --- --- 7.0 SE 0.12 7.8 -11.3 --- --- 726.9 0.017 0.000 9.4 7 1
02/20/06 6:29 a -6.1 -6.0 -6.1 --- --- 7.8 ESE 0.13 8.7 -11.7 --- --- 727.0 0.017 0.000 9.4 7 1
02/20/06 6:30 a -6.1 -6.1 -6.1 --- --- 7.0 SE 0.12 8.7 -11.4 --- --- 726.9 0.017 0.000 9.4 7 1
02/20/06 6:31 a -6.1 -6.1 -6.2 --- --- 7.0 SE 0.12 7.8 -11.4 --- --- 726.9 0.017 0.000 9.4 7 1
02/20/06 6:32 a -6.2 -6.1 -6.2 --- --- 7.0 ESE 0.12 7.8 -11.5 --- --- 726.9 0.017 0.000 9.4 7 1
02/20/06 6:33 a -6.2 -6.2 -6.2 --- --- 6.1 ESE 0.10 7.0 -11.1 --- --- 726.9 0.017 0.000 9.4 7 1
02/20/06 6:34 a -6.2 -6.2 -6.2 --- --- 6.1 ESE 0.10 7.0 -11.1 --- --- 726.9 0.017 0.000 9.4 7 1
02/20/06 6:35 a -6.2 -6.2 -6.2 --- --- 6.1 ESE 0.10 7.0 -11.1 --- --- 726.9 0.017 0.000 9.4 7 1
02/20/06 6:36 a -6.2 -6.1 -6.2 --- --- 6.1 E 0.10 7.8 -11.1 --- --- 726.9 0.017 0.000 9.4 7 1
02/20/06 6:37 a -6.2 -6.2 -6.2 --- --- 6.1 ESE 0.10 7.0 -11.1 --- --- 726.9 0.017 0.000 9.4 7 1
02/20/06 6:38 a -6.2 -6.2 -6.3 --- --- 6.1 E 0.10 7.0 -11.1 --- --- 726.9 0.017 0.000 9.4 7 1
02/20/06 6:39 a -6.2 -6.2 -6.2 --- --- 7.0 ESE 0.12 7.8 -11.6 --- --- 726.8 0.017 0.000 9.4 7 1
02/20/06 6:40 a -6.2 -6.2 -6.2 --- --- 7.0 E 0.12 7.8 -11.6 --- --- 726.9 0.017 0.000 9.4 7 1
02/20/06 6:41 a -6.2 -6.2 -6.2 --- --- 7.0 E 0.12 7.8 -11.6 --- --- 726.9 0.017 0.000 9.4 7 1
02/20/06 6:42 a -6.2 -6.2 -6.2 --- --- 7.0 E 0.12 7.8 -11.6 --- --- 726.8 0.017 0.000 9.4 7 1
02/20/06 6:43 a -6.2 -6.2 -6.3 --- --- 7.0 E 0.12 7.8 -11.6 --- --- 726.8 0.017 0.000 9.4 7 1
02/20/06 6:44 a -6.2 -6.2 -6.2 --- --- 6.1 E 0.10 7.8 -11.1 --- --- 726.8 0.017 0.000 9.4 7 1
02/20/06 6:45 a -6.2 -6.2 -6.3 --- --- 6.1 E 0.10 7.8 -11.1 --- --- 726.8 0.017 0.000 9.4 7 1
02/20/06 6:46 a -6.3 -6.3 -6.3 --- --- 5.2 E 0.09 7.0 -10.7 --- --- 726.7 0.017 0.000 9.4 7 1
02/20/06 6:47 a -6.3 -6.3 -6.3 --- --- 6.1 E 0.10 7.8 -11.2 --- --- 726.7 0.017 0.000 9.4 7 1
02/20/06 6:48 a -6.3 -6.2 -6.3 --- --- 6.1 E 0.10 7.8 -11.2 --- --- 726.7 0.017 0.000 9.4 7 1
02/20/06 6:49 a -6.2 -6.2 -6.2 --- --- 6.1 E 0.10 7.8 -11.1 --- --- 726.7 0.017 0.000 9.4 7 1
02/20/06 6:50 a -6.2 -6.2 -6.2 --- --- 6.1 E 0.10 8.7 -11.1 --- --- 726.7 0.017 0.000 9.4 7 1
02/20/06 6:51 a -6.1 -6.1 -6.2 --- --- 7.8 E 0.13 9.6 -11.8 --- --- 726.7 0.017 0.000 9.4 7 1
02/20/06 6:52 a -6.0 -5.9 -6.1 --- --- 9.6 ESE 0.16 11.3 -12.4 --- --- 726.7 0.017 0.000 9.4 7 1
02/20/06 6:53 a -5.8 -5.7 -5.8 --- --- 10.4 ESE 0.17 11.3 -12.4 --- --- 726.7 0.017 0.000 9.4 7 1
02/20/06 6:54 a -5.7 -5.6 -5.7 --- --- 12.2 ESE 0.20 13.0 -12.8 --- --- 726.7 0.017 0.000 9.4 7 1
02/20/06 6:55 a -5.7 -5.6 -5.7 --- --- 12.2 ESE 0.20 13.0 -12.8 --- --- 726.7 0.017 0.000 9.4 7 1
02/20/06 6:56 a -5.7 -5.7 -5.7 --- --- 12.2 ESE 0.20 13.0 -12.8 --- --- 726.9 0.017 0.000 9.4 7 1
02/20/06 6:57 a -5.6 -5.6 -5.7 --- --- 12.2 ESE 0.20 13.0 -12.7 --- --- 726.8 0.017 0.000 9.4 7 1
02/20/06 6:58 a -5.6 -5.6 -5.7 --- --- 11.3 ESE 0.19 12.2 -12.4 --- --- 726.9 0.017 0.000 9.5 7 1
02/20/06 6:59 a -5.7 -5.7 -5.7 --- --- 11.3 ESE 0.19 12.2 -12.6 --- --- 726.7 0.017 0.000 9.5 7 1
02/20/06 7:00 a -5.7 -5.7 -5.7 --- --- 11.3 ESE 0.19 12.2 -12.6 --- --- 726.8 0.017 0.000 9.5 7 1
02/20/06 7:01 a -5.7 -5.7 -5.7 --- --- 12.2 ESE 0.20 13.0 -12.8 --- --- 726.8 0.017 0.000 9.5 7 1
02/20/06 7:02 a -5.7 -5.7 -5.7 --- --- 12.2 ESE 0.20 13.0 -12.8 --- --- 726.8 0.017 0.000 9.5 7 1
02/20/06 7:03 a -5.8 -5.8 -5.8 --- --- 12.2 ESE 0.20 13.9 -12.9 --- --- 726.7 0.017 0.000 9.5 8 1
02/20/06 7:04 a -5.9 -5.9 -6.0 --- --- 13.0 E 0.22 13.9 -13.3 --- --- 726.7 0.017 0.000 9.5 7 1
02/20/06 7:05 a -6.0 -5.9 -6.0 --- --- 13.9 ESE 0.23 16.5 -13.7 --- --- 726.7 0.017 0.000 9.5 8 1
02/20/06 7:06 a -6.0 -6.0 -6.1 --- --- 15.7 ESE 0.26 17.4 -14.2 --- --- 726.8 0.017 0.000 9.5 7 1
02/20/06 7:07 a -6.2 -6.1 -6.2 --- --- 15.7 ESE 0.26 17.4 -14.4 --- --- 726.7 0.017 0.000 9.5 8 1
02/20/06 7:08 a -6.3 -6.3 -6.3 --- --- 15.7 ESE 0.26 17.4 -14.5 --- --- 726.7 0.017 0.000 9.5 7 1
02/20/06 7:09 a -6.3 -6.3 -6.4 --- --- 13.9 E 0.23 15.7 -14.1 --- --- 726.8 0.017 0.000 9.5 7 1
02/20/06 7:10 a -6.3 -6.3 -6.4 --- --- 13.9 E 0.23 15.7 -14.1 --- --- 726.7 0.017 0.000 9.5 7 1
02/20/06 7:11 a -6.4 -6.4 -6.4 --- --- 13.0 ESE 0.22 14.8 -13.9 --- --- 726.8 0.017 0.000 9.5 7 1
02/20/06 7:12 a -6.4 -6.4 -6.5 --- --- 13.9 ESE 0.23 15.7 -14.3 --- --- 726.8 0.017 0.000 9.5 7 1
02/20/06 7:13 a -6.4 -6.4 -6.6 --- --- 13.9 E 0.23 15.7 -14.3 --- --- 726.7 0.017 0.000 9.5 8 1
02/20/06 7:14 a -6.6 -6.6 -6.6 --- --- 13.0 E 0.22 14.8 -14.2 --- --- 726.6 0.017 0.000 9.5 7 1
02/20/06 7:15 a -6.7 -6.7 -6.7 --- --- 11.3 E 0.19 13.0 -13.8 --- --- 726.6 0.017 0.000 9.5 8 1
02/20/06 7:16 a -6.7 -6.7 -6.8 --- --- 13.9 E 0.23 16.5 -14.6 --- --- 726.7 0.017 0.000 9.5 7 1
02/20/06 7:17 a -6.8 -6.8 -6.9 --- --- 12.2 E 0.20 14.8 -14.3 --- --- 726.6 0.017 0.000 9.5 8 1
02/20/06 7:18 a -6.9 -6.9 -7.0 --- --- 13.0 E 0.22 17.4 -14.7 --- --- 726.5 0.018 0.000 9.5 7 1
02/20/06 7:19 a -6.9 -6.9 -7.0 --- --- 15.7 ESE 0.26 17.4 -15.4 --- --- 726.6 0.018 0.000 9.5 8 1
02/20/06 7:20 a -6.9 -6.9 -6.9 --- --- 15.7 ESE 0.26 19.1 -15.4 --- --- 726.5 0.018 0.000 9.5 7 1
02/20/06 7:21 a -6.9 -6.9 -6.9 --- --- 15.7 E 0.26 17.4 -15.4 --- --- 726.5 0.018 0.000 9.5 7 1
02/20/06 7:22 a -7.0 -6.9 -7.1 --- --- 19.1 ESE 0.32 21.7 -16.2 --- --- 726.4 0.018 0.000 9.5 8 1
02/20/06 7:23 a -7.0 -7.0 -7.1 --- --- 19.1 E 0.32 20.9 -16.2 --- --- 726.4 0.018 0.000 9.5 8 1
02/20/06 7:24 a -7.1 -7.0 -7.1 --- --- 20.0 ESE 0.33 23.5 -16.5 --- --- 726.3 0.018 0.000 9.5 8 1
02/20/06 7:25 a -7.1 -7.1 -7.1 --- --- 20.0 ESE 0.33 21.7 -16.6 --- --- 726.3 0.018 0.000 9.5 7 1
02/20/06 7:26 a -7.2 -7.1 -7.2 --- --- 17.4 E 0.29 20.0 -16.1 --- --- 726.3 0.018 0.000 9.5 7 1
02/20/06 7:27 a -7.2 -7.2 -7.2 --- --- 18.3 E 0.30 21.7 -16.3 --- --- 726.3 0.018 0.000 9.5 7 1
02/20/06 7:28 a -7.3 -7.2 -7.3 --- --- 20.0 ESE 0.33 23.5 -16.8 --- --- 726.4 0.018 0.000 9.5 8 1
02/20/06 7:29 a -7.3 -7.3 -7.3 --- --- 19.1 ESE 0.32 20.9 -16.7 --- --- 726.4 0.018 0.000 9.5 8 1
02/20/06 7:30 a -7.3 -7.3 -7.4 --- --- 20.0 ESE 0.33 21.7 -16.8 --- --- 726.4 0.018 0.000 9.5 7 1
02/20/06 7:31 a -7.4 -7.4 -7.4 --- --- 19.1 ESE 0.32 20.9 -16.8 --- --- 726.4 0.018 0.000 9.5 8 1
02/20/06 7:32 a -7.4 -7.3 -7.4 --- --- 19.1 ESE 0.32 22.6 -16.8 --- --- 726.3 0.018 0.000 9.5 7 1
02/20/06 7:33 a -7.3 -7.3 -7.4 --- --- 19.1 ESE 0.32 20.9 -16.7 --- --- 726.4 0.018 0.000 9.5 8 1
02/20/06 7:34 a -7.3 -7.3 -7.3 --- --- 19.1 ESE 0.32 20.9 -16.7 --- --- 726.3 0.018 0.000 9.4 7 1
02/20/06 7:35 a -7.3 -7.2 -7.3 --- --- 19.1 ESE 0.32 22.6 -16.6 --- --- 726.4 0.018 0.000 9.4 8 1
02/20/06 7:36 a -7.2 -7.2 -7.3 --- --- 18.3 ESE 0.30 23.5 -16.3 --- --- 726.4 0.018 0.000 9.4 8 1
02/20/06 7:37 a -7.2 -7.2 -7.2 --- --- 18.3 ESE 0.30 20.0 -16.3 --- --- 726.4 0.018 0.000 9.4 7 1
02/20/06 7:38 a -7.2 -7.2 -7.3 --- --- 17.4 E 0.29 21.7 -16.2 --- --- 726.3 0.018 0.000 9.4 7 1
02/20/06 7:39 a -7.3 -7.3 -7.3 --- --- 19.1 E 0.32 21.7 -16.6 --- --- 726.2 0.018 0.000 9.4 8 1
02/20/06 7:40 a -7.4 -7.3 -7.4 --- --- 19.1 E 0.32 21.7 -16.8 --- --- 726.4 0.018 0.000 9.5 7 1
02/20/06 7:41 a -7.4 -7.3 -7.4 --- --- 20.0 E 0.33 21.7 -16.9 --- --- 726.2 0.018 0.000 9.5 8 1
02/20/06 7:42 a -7.4 -7.4 -7.5 --- --- 21.7 ESE 0.36 23.5 -17.3 --- --- 726.3 0.018 0.000 9.4 8 1
02/20/06 7:43 a -7.4 -7.4 -7.5 --- --- 20.0 ESE 0.33 23.5 -17.0 --- --- 726.2 0.018 0.000 9.4 8 1
02/20/06 7:44 a -7.6 -7.5 -7.6 --- --- 20.9 ESE 0.35 22.6 -17.3 --- --- 726.3 0.018 0.000 9.4 7 1
02/20/06 7:45 a -7.5 -7.5 -7.5 --- --- 20.0 ESE 0.33 22.6 -17.1 --- --- 726.3 0.018 0.000 9.4 7 1
02/20/06 7:46 a -7.6 -7.6 -7.6 --- --- 19.1 ESE 0.32 20.9 -16.9 --- --- 726.3 0.018 0.000 9.5 7 1
02/20/06 7:47 a -7.6 -7.6 -7.6 --- --- 20.0 ESE 0.33 21.7 -17.2 --- --- 726.3 0.018 0.000 9.4 7 1
02/20/06 7:48 a -7.6 -7.6 -7.7 --- --- 21.7 ESE 0.36 24.3 -17.6 --- --- 726.2 0.018 0.000 9.4 7 1
02/20/06 7:49 a -7.7 -7.7 -7.7 --- --- 20.9 E 0.35 23.5 -17.5 --- --- 726.2 0.018 0.000 9.4 8 1
02/20/06 7:50 a -7.7 -7.7 -7.7 --- --- 20.0 ESE 0.33 22.6 -17.3 --- --- 726.3 0.018 0.000 9.4 7 1
02/20/06 7:51 a -7.7 -7.7 -7.7 --- --- 20.0 E 0.33 21.7 -17.3 --- --- 726.2 0.018 0.000 9.4 8 1
02/20/06 7:52 a -7.7 -7.7 -7.7 --- --- 19.1 E 0.32 22.6 -17.2 --- --- 726.3 0.018 0.000 9.4 7 1
02/20/06 7:53 a -7.7 -7.7 -7.8 --- --- 19.1 E 0.32 21.7 -17.2 --- --- 726.3 0.018 0.000 9.5 8 1
02/20/06 7:54 a -7.8 -7.8 -7.8 --- --- 19.1 E 0.32 22.6 -17.3 --- --- 726.3 0.018 0.000 9.4 8 1
02/20/06 7:55 a -7.8 -7.8 -7.8 --- --- 20.0 E 0.33 22.6 -17.5 --- --- 726.2 0.018 0.000 9.4 7 1
02/20/06 7:56 a -7.8 -7.8 -7.9 --- --- 18.3 E 0.30 20.9 -17.2 --- --- 726.3 0.018 0.000 9.4 7 1
02/20/06 7:57 a -7.9 -7.9 -7.9 --- --- 16.5 E 0.28 19.1 -16.8 --- --- 726.2 0.018 0.000 9.4 7 1
02/20/06 7:58 a -7.9 -7.9 -8.0 --- --- 15.7 E 0.26 20.0 -16.7 --- --- 726.2 0.018 0.000 9.4 7 1
02/20/06 7:59 a -8.0 -8.0 -8.0 --- --- 13.9 E 0.23 18.3 -16.3 --- --- 726.3 0.018 0.000 9.4 8 1
02/20/06 8:00 a -8.1 -8.1 -8.1 --- --- 14.8 E 0.25 17.4 -16.6 --- --- 726.3 0.018 0.000 9.4 7 1
02/20/06 8:01 a -8.1 -8.1 -8.1 --- --- 16.5 E 0.28 20.0 -17.1 --- --- 726.3 0.018 0.000 9.4 8 1
02/20/06 8:02 a -8.2 -8.1 -8.2 --- --- 15.7 E 0.26 18.3 -16.9 --- --- 726.3 0.018 0.000 9.4 7 1
02/20/06 8:03 a -8.2 -8.2 -8.2 --- --- 14.8 E 0.25 18.3 -16.7 --- --- 726.2 0.018 0.000 9.4 8 1
02/20/06 8:04 a -8.2 -8.2 -8.2 --- --- 14.8 E 0.25 18.3 -16.7 --- --- 726.3 0.018 0.000 9.4 7 1
02/20/06 8:05 a -8.2 -8.2 -8.2 --- --- 15.7 E 0.26 18.3 -17.1 --- --- 726.3 0.018 0.000 9.4 7 1
02/20/06 8:07 a -8.2 -8.2 -8.2 --- --- 16.5 E 0.28 18.3 -17.3 --- --- 726.3 0.018 0.000 9.4 7 1
02/20/06 8:08 a -8.2 -8.2 -8.3 --- --- 14.8 E 0.25 17.4 -16.8 --- --- 726.3 0.018 0.000 9.4 8 1
02/20/06 8:09 a -8.2 -8.2 -8.3 --- --- 17.4 E 0.29 21.7 -17.4 --- --- 726.3 0.018 0.000 9.4 8 1
02/20/06 8:10 a -8.2 -8.2 -8.2 --- --- 16.5 E 0.28 18.3 -17.3 --- --- 726.3 0.018 0.000 9.4 7 1
02/20/06 8:11 a -8.2 -8.2 -8.2 --- --- 16.5 E 0.28 20.0 -17.3 --- --- 726.3 0.018 0.000 9.4 7 1
02/20/06 8:12 a -8.2 -8.2 -8.2 --- --- 15.7 E 0.26 18.3 -16.9 --- --- 726.2 0.018 0.000 9.4 8 1
02/20/06 8:13 a -8.2 -8.2 -8.2 --- --- 16.5 E 0.28 17.4 -17.3 --- --- 726.3 0.018 0.000 9.4 7 1
02/20/06 8:14 a -8.2 -8.2 -8.3 --- --- 17.4 E 0.29 20.0 -17.4 --- --- 726.3 0.018 0.000 9.4 7 1
02/20/06 8:15 a -8.2 -8.2 -8.2 --- --- 17.4 E 0.29 20.0 -17.4 --- --- 726.2 0.018 0.000 9.4 8 1
02/20/06 8:16 a -8.2 -8.2 -8.2 --- --- 16.5 E 0.28 20.0 -17.3 --- --- 726.2 0.018 0.000 9.4 8 1
02/20/06 8:17 a -8.2 -8.2 -8.2 --- --- 17.4 E 0.29 21.7 -17.4 --- --- 726.2 0.018 0.000 9.4 8 1
02/20/06 8:18 a -8.2 -8.2 -8.2 --- --- 17.4 E 0.29 20.0 -17.4 --- --- 726.2 0.018 0.000 9.4 7 1
02/20/06 8:19 a -8.2 -8.2 -8.2 --- --- 17.4 E 0.29 20.0 -17.4 --- --- 726.2 0.018 0.000 9.4 7 1
02/20/06 8:20 a -8.2 -8.2 -8.2 --- --- 17.4 E 0.29 20.9 -17.4 --- --- 726.2 0.018 0.000 9.4 7 1
02/20/06 8:21 a -8.2 -8.2 -8.2 --- --- 17.4 E 0.29 20.0 -17.4 --- --- 726.2 0.018 0.000 9.4 8 1
02/20/06 8:22 a -8.2 -8.2 -8.2 --- --- 19.1 E 0.32 21.7 -17.8 --- --- 726.2 0.018 0.000 9.4 7 1
02/20/06 8:23 a -8.2 -8.1 -8.2 --- --- 18.3 E 0.30 22.6 -17.6 --- --- 726.2 0.018 0.000 9.4 7 1
02/20/06 8:24 a -8.1 -8.1 -8.2 --- --- 19.1 E 0.32 22.6 -17.7 --- --- 726.2 0.018 0.000 9.4 7 1
02/20/06 8:25 a -8.2 -8.1 -8.2 --- --- 17.4 E 0.29 20.0 -17.4 --- --- 726.3 0.018 0.000 9.4 8 1
02/20/06 8:26 a -8.2 -8.2 -8.2 --- --- 17.4 E 0.29 22.6 -17.4 --- --- 726.3 0.018 0.000 9.4 7 1
02/20/06 8:27 a -8.2 -8.2 -8.2 --- --- 16.5 E 0.28 19.1 -17.3 --- --- 726.3 0.018 0.000 9.4 8 1
02/20/06 8:28 a -8.2 -8.2 -8.2 --- --- 17.4 E 0.29 20.9 -17.4 --- --- 726.3 0.018 0.000 9.4 7 1
02/20/06 8:29 a -8.2 -8.2 -8.3 --- --- 19.1 E 0.32 22.6 -17.8 --- --- 726.2 0.018 0.000 9.4 8 1
02/20/06 8:30 a -8.2 -8.2 -8.3 --- --- 17.4 E 0.29 20.0 -17.4 --- --- 726.4 0.018 0.000 9.4 8 1
02/20/06 8:31 a -8.2 -8.2 -8.3 --- --- 18.3 E 0.30 21.7 -17.7 --- --- 726.3 0.018 0.000 9.4 7 1
02/20/06 8:32 a -8.2 -8.2 -8.3 --- --- 19.1 E 0.32 21.7 -17.8 --- --- 726.3 0.018 0.000 9.4 8 1
02/20/06 8:33 a -8.2 -8.2 -8.3 --- --- 17.4 E 0.29 20.9 -17.4 --- --- 726.4 0.018 0.000 9.4 7 1
02/20/06 8:34 a -8.2 -8.2 -8.2 --- --- 18.3 E 0.30 20.9 -17.7 --- --- 726.4 0.018 0.000 9.4 7 1
02/20/06 8:35 a -8.2 -8.2 -8.2 --- --- 17.4 E 0.29 20.9 -17.4 --- --- 726.4 0.018 0.000 9.4 8 1
02/20/06 8:36 a -8.2 -8.2 -8.2 --- --- 16.5 E 0.28 19.1 -17.3 --- --- 726.4 0.018 0.000 9.4 8 1
02/20/06 8:37 a -8.2 -8.2 -8.2 --- --- 14.8 E 0.25 19.1 -16.8 --- --- 726.5 0.018 0.000 9.3 7 1
02/20/06 8:38 a -8.2 -8.2 -8.2 --- --- 15.7 E 0.26 17.4 -17.1 --- --- 726.4 0.018 0.000 9.4 8 1
02/20/06 8:39 a -8.2 -8.2 -8.2 --- --- 15.7 E 0.26 17.4 -16.9 --- --- 726.4 0.018 0.000 9.4 7 1
02/20/06 8:40 a -8.2 -8.2 -8.2 --- --- 16.5 E 0.28 19.1 -17.2 --- --- 726.5 0.018 0.000 9.3 8 1
02/20/06 8:41 a -8.1 -8.1 -8.2 --- --- 14.8 E 0.25 18.3 -16.7 --- --- 726.4 0.018 0.000 9.3 8 1
02/20/06 8:42 a -8.1 -8.1 -8.1 --- --- 15.7 E 0.26 18.3 -16.8 --- --- 726.5 0.018 0.000 9.3 7 1
02/20/06 8:43 a -8.1 -8.1 -8.1 --- --- 16.5 E 0.28 18.3 -17.1 --- --- 726.6 0.018 0.000 9.3 7 1
02/20/06 8:44 a -8.1 -8.1 -8.1 --- --- 15.7 E 0.26 18.3 -16.8 --- --- 726.5 0.018 0.000 9.3 7 1
02/20/06 8:45 a -8.1 -8.1 -8.1 --- --- 15.7 E 0.26 17.4 -16.8 --- --- 726.4 0.018 0.000 9.3 7 1
02/20/06 8:46 a -8.1 -8.1 -8.1 --- --- 15.7 E 0.26 18.3 -16.9 --- --- 726.4 0.018 0.000 9.3 7 1
02/20/06 8:47 a -8.1 -8.1 -8.1 --- --- 16.5 E 0.28 19.1 -17.1 --- --- 726.5 0.018 0.000 9.3 8 1
02/20/06 8:48 a -8.0 -8.0 -8.1 --- --- 16.5 E 0.28 20.0 -16.9 --- --- 726.5 0.018 0.000 9.3 8 1
02/20/06 8:49 a -8.1 -8.0 -8.1 --- --- 15.7 E 0.26 18.3 -16.8 --- --- 726.5 0.018 0.000 9.3 8 1
02/20/06 8:50 a -8.0 -8.0 -8.1 --- --- 14.8 E 0.25 16.5 -16.5 --- --- 726.4 0.018 0.000 9.3 8 1
02/20/06 8:51 a -8.0 -8.0 -8.0 --- --- 14.8 E 0.25 17.4 -16.5 --- --- 726.4 0.018 0.000 9.3 8 1
02/20/06 8:52 a -8.0 -8.0 -8.1 --- --- 15.7 E 0.26 19.1 -16.7 --- --- 726.4 0.018 0.000 9.3 8 1
02/20/06 8:53 a -8.1 -8.1 -8.1 --- --- 15.7 E 0.26 18.3 -16.8 --- --- 726.5 0.018 0.000 9.3 7 1
02/20/06 8:54 a -8.1 -8.0 -8.1 --- --- 14.8 E 0.25 20.0 -16.6 --- --- 726.4 0.018 0.000 9.3 8 1
02/20/06 8:55 a -8.1 -8.1 -8.1 --- --- 16.5 E 0.28 18.3 -17.1 --- --- 726.4 0.018 0.000 9.3 8 1
02/20/06 8:56 a -8.1 -8.1 -8.1 --- --- 14.8 E 0.25 17.4 -16.7 --- --- 726.4 0.018 0.000 9.3 8 1
02/20/06 8:57 a -8.1 -8.1 -8.1 --- --- 14.8 E 0.25 17.4 -16.7 --- --- 726.4 0.018 0.000 9.3 8 1
02/20/06 8:58 a -8.1 -8.1 -8.2 --- --- 15.7 E 0.26 18.3 -16.9 --- --- 726.5 0.018 0.000 9.3 8 1
02/20/06 8:59 a -8.2 -8.1 -8.2 --- --- 15.7 E 0.26 17.4 -16.9 --- --- 726.5 0.018 0.000 9.3 8 1
02/20/06 9:00 a -8.2 -8.2 -8.2 --- --- 14.8 E 0.25 17.4 -16.7 --- --- 726.5 0.018 0.000 9.3 8 1
02/20/06 9:01 a -8.2 -8.2 -8.2 --- --- 14.8 E 0.25 18.3 -16.7 --- --- 726.5 0.018 0.000 9.3 7 1
02/20/06 9:02 a -8.2 -8.2 -8.2 --- --- 15.7 E 0.26 18.3 -17.1 --- --- 726.4 0.018 0.000 9.3 7 1
02/20/06 9:03 a -8.2 -8.2 -8.2 --- --- 15.7 E 0.26 18.3 -17.1 --- --- 726.5 0.018 0.000 9.3 8 1
02/20/06 9:04 a -8.2 -8.2 -8.3 --- --- 14.8 E 0.25 19.1 -16.8 --- --- 726.5 0.018 0.000 9.3 8 1
02/20/06 9:05 a -8.3 -8.2 -8.3 --- --- 15.7 E 0.26 19.1 -17.1 --- --- 726.5 0.018 0.000 9.3 7 1
02/20/06 9:06 a -8.3 -8.3 -8.3 --- --- 14.8 E 0.25 19.1 -16.9 --- --- 726.4 0.018 0.000 9.3 8 1
02/20/06 9:07 a -8.3 -8.3 -8.3 --- --- 16.5 E 0.28 20.0 -17.4 --- --- 726.5 0.019 0.000 9.3 8 1
02/20/06 9:08 a -8.3 -8.3 -8.4 --- --- 15.7 E 0.26 20.9 -17.2 --- --- 726.5 0.019 0.000 9.3 8 1
02/20/06 9:09 a -8.4 -8.3 -8.4 --- --- 14.8 E 0.25 17.4 -17.0 --- --- 726.5 0.019 0.000 9.3 8 1
02/20/06 9:10 a -8.4 -8.4 -8.4 --- --- 16.5 E 0.28 20.9 -17.6 --- --- 726.5 0.019 0.000 9.3 8 1
02/20/06 9:11 a -8.4 -8.4 -8.4 --- --- 16.5 E 0.28 18.3 -17.6 --- --- 726.5 0.019 0.000 9.3 7 1
02/20/06 9:12 a -8.4 -8.4 -8.5 --- --- 15.7 E 0.26 19.1 -17.3 --- --- 726.6 0.019 0.000 9.3 8 1
02/20/06 9:13 a -8.5 -8.5 -8.5 --- --- 17.4 E 0.29 20.0 -17.8 --- --- 726.6 0.019 0.000 9.3 8 1
02/20/06 9:14 a -8.5 -8.5 -8.5 --- --- 15.7 E 0.26 17.4 -17.4 --- --- 726.6 0.019 0.000 9.3 7 1
02/20/06 9:15 a -8.6 -8.6 -8.6 --- --- 16.5 E 0.28 20.0 -17.7 --- --- 726.5 0.019 0.000 9.3 8 1
02/20/06 9:16 a -8.6 -8.6 -8.6 --- --- 16.5 E 0.28 20.0 -17.7 --- --- 726.6 0.019 0.000 9.3 8 1
02/20/06 9:17 a -8.6 -8.6 -8.6 --- --- 18.3 E 0.30 21.7 -18.1 --- --- 726.5 0.019 0.000 9.3 8 1
02/20/06 9:18 a -8.6 -8.6 -8.6 --- --- 17.4 E 0.29 20.9 -17.8 --- --- 726.6 0.019 0.000 9.2 8 1
02/20/06 9:19 a -8.6 -8.6 -8.6 --- --- 16.5 E 0.28 19.1 -17.7 --- --- 726.6 0.019 0.000 9.2 8 1
02/20/06 9:20 a -8.6 -8.6 -8.6 --- --- 17.4 E 0.29 20.9 -17.9 --- --- 726.6 0.019 0.000 9.2 7 1
02/20/06 9:21 a -8.6 -8.6 -8.6 --- --- 17.4 E 0.29 20.9 -17.9 --- --- 726.6 0.019 0.000 9.2 7 1
02/20/06 9:22 a -8.6 -8.6 -8.6 --- --- 16.5 E 0.28 20.0 -17.8 --- --- 726.6 0.019 0.000 9.2 8 1
02/20/06 9:23 a -8.6 -8.6 -8.6 --- --- 17.4 ENE 0.29 20.9 -17.9 --- --- 726.7 0.019 0.000 9.2 7 1
02/20/06 9:24 a -8.6 -8.6 -8.6 --- --- 15.7 E 0.26 19.1 -17.6 --- --- 726.6 0.019 0.000 9.2 8 1
02/20/06 9:25 a -8.6 -8.6 -8.6 --- --- 19.1 E 0.32 21.7 -18.3 --- --- 726.6 0.019 0.000 9.2 8 1
02/20/06 9:26 a -8.6 -8.6 -8.6 --- --- 20.0 ENE 0.33 21.7 -18.4 --- --- 726.5 0.019 0.000 9.2 7 1
02/20/06 9:27 a -8.6 -8.6 -8.6 --- --- 16.5 E 0.28 19.1 -17.8 --- --- 726.6 0.019 0.000 9.2 8 1
02/20/06 9:28 a -8.6 -8.6 -8.6 --- --- 15.7 E 0.26 19.1 -17.6 --- --- 726.6 0.019 0.000 9.2 8 1
02/20/06 9:29 a -8.6 -8.6 -8.6 --- --- 14.8 E 0.25 18.3 -17.3 --- --- 726.6 0.019 0.000 9.2 8 1
02/20/06 9:30 a -8.6 -8.6 -8.6 --- --- 17.4 E 0.29 20.9 -17.9 --- --- 726.6 0.019 0.000 9.2 8 1
02/20/06 9:31 a -8.6 -8.6 -8.7 --- --- 18.3 E 0.30 20.9 -18.1 --- --- 726.7 0.019 0.000 9.2 8 1
02/20/06 9:32 a -8.6 -8.6 -8.7 --- --- 15.7 E 0.26 18.3 -17.6 --- --- 726.6 0.019 0.000 9.2 8 1
02/20/06 9:33 a -8.7 -8.7 -8.7 --- --- 15.7 E 0.26 17.4 -17.6 --- --- 726.6 0.019 0.000 9.2 8 1
02/20/06 9:34 a -8.7 -8.6 -8.7 --- --- 15.7 E 0.26 19.1 -17.6 --- --- 726.7 0.019 0.000 9.2 8 1
02/20/06 9:35 a -8.6 -8.6 -8.6 --- --- 15.7 E 0.26 20.0 -17.6 --- --- 726.6 0.019 0.000 9.2 8 1
02/20/06 9:36 a -8.6 -8.6 -8.7 --- --- 17.4 E 0.29 20.0 -17.9 --- --- 726.7 0.019 0.000 9.2 8 1
02/20/06 9:37 a -8.6 -8.6 -8.6 --- --- 15.7 E 0.26 18.3 -17.6 --- --- 726.7 0.019 0.000 9.2 7 1
02/20/06 9:38 a -8.6 -8.6 -8.6 --- --- 16.5 E 0.28 19.1 -17.8 --- --- 726.7 0.019 0.000 9.2 8 1
02/20/06 9:39 a -8.6 -8.6 -8.7 --- --- 14.8 E 0.25 16.5 -17.3 --- --- 726.7 0.019 0.000 9.2 8 1
02/20/06 9:40 a -8.6 -8.6 -8.7 --- --- 14.8 E 0.25 17.4 -17.3 --- --- 726.7 0.019 0.000 9.2 8 1
02/20/06 9:41 a -8.6 -8.6 -8.6 --- --- 14.8 E 0.25 16.5 -17.3 --- --- 726.7 0.019 0.000 9.2 8 1
02/20/06 9:42 a -8.6 -8.6 -8.6 --- --- 13.9 E 0.23 17.4 -17.1 --- --- 726.8 0.019 0.000 9.2 8 1
02/20/06 9:43 a -8.7 -8.6 -8.7 --- --- 13.9 E 0.23 15.7 -17.2 --- --- 726.8 0.019 0.000 9.2 8 1
02/20/06 9:44 a -8.7 -8.7 -8.7 --- --- 14.8 E 0.25 16.5 -17.4 --- --- 726.7 0.019 0.000 9.2 8 1
02/20/06 9:45 a -8.7 -8.7 -8.7 --- --- 14.8 E 0.25 18.3 -17.4 --- --- 726.6 0.019 0.000 9.2 8 1
02/20/06 9:46 a -8.7 -8.7 -8.7 --- --- 15.7 E 0.26 18.3 -17.7 --- --- 726.8 0.019 0.000 9.2 8 1
02/20/06 9:47 a -8.7 -8.7 -8.7 --- --- 14.8 E 0.25 16.5 -17.4 --- --- 726.6 0.019 0.000 9.2 7 1
02/20/06 9:48 a -8.7 -8.7 -8.7 --- --- 13.9 E 0.23 15.7 -17.2 --- --- 726.7 0.019 0.000 9.2 8 1
02/20/06 9:49 a -8.7 -8.7 -8.7 --- --- 15.7 E 0.26 18.3 -17.6 --- --- 726.7 0.019 0.000 9.1 8 1
02/20/06 9:50 a -8.7 -8.7 -8.7 --- --- 14.8 E 0.25 17.4 -17.4 --- --- 726.7 0.019 0.000 9.1 8 1
02/20/06 9:51 a -8.7 -8.7 -8.7 --- --- 16.5 E 0.28 18.3 -17.8 --- --- 726.7 0.019 0.000 9.1 8 1
02/20/06 9:52 a -8.7 -8.7 -8.7 --- --- 14.8 E 0.25 17.4 -17.4 --- --- 726.8 0.019 0.000 9.2 7 1
02/20/06 9:53 a -8.7 -8.7 -8.7 --- --- 12.2 E 0.20 15.7 -16.7 --- --- 726.8 0.019 0.000 9.2 7 1
02/20/06 9:54 a -8.7 -8.7 -8.7 --- --- 13.9 E 0.23 18.3 -17.2 --- --- 726.8 0.019 0.000 9.1 8 1
02/20/06 9:55 a -8.7 -8.7 -8.7 --- --- 16.5 E 0.28 18.3 -17.8 --- --- 726.7 0.019 0.000 9.1 8 1
02/20/06 9:56 a -8.7 -8.7 -8.7 --- --- 13.0 E 0.22 14.8 -16.9 --- --- 726.7 0.019 0.000 9.1 8 1
02/20/06 9:57 a -8.7 -8.7 -8.8 --- --- 13.9 E 0.23 15.7 -17.2 --- --- 726.7 0.019 0.000 9.1 8 1
02/20/06 9:58 a -8.7 -8.7 -8.8 --- --- 12.2 E 0.20 14.8 -16.7 --- --- 726.8 0.019 0.000 9.1 8 1
02/20/06 9:59 a -8.7 -8.7 -8.7 --- --- 10.4 E 0.17 13.0 -16.1 --- --- 726.8 0.019 0.000 9.1 8 1
02/20/06 10:00 a -8.7 -8.7 -8.7 --- --- 13.0 E 0.22 14.8 -16.9 --- --- 726.7 0.019 0.000 9.1 8 1
02/20/06 10:01 a -8.8 -8.7 -8.8 --- --- 12.2 E 0.20 14.8 -16.8 --- --- 726.8 0.019 0.000 9.1 8 1
02/20/06 10:02 a -8.7 -8.7 -8.8 --- --- 12.2 E 0.20 13.9 -16.7 --- --- 726.8 0.019 0.000 9.1 8 1
02/20/06 10:03 a -8.8 -8.7 -8.8 --- --- 13.0 E 0.22 16.5 -17.0 --- --- 726.8 0.019 0.000 9.1 8 1
02/20/06 10:04 a -8.8 -8.7 -8.8 --- --- 13.0 E 0.22 14.8 -17.0 --- --- 726.7 0.019 0.000 9.1 8 1
02/20/06 10:05 a -8.8 -8.7 -8.8 --- --- 13.0 E 0.22 15.7 -17.0 --- --- 726.8 0.019 0.000 9.1 8 1
02/20/06 10:06 a -8.8 -8.7 -8.8 --- --- 12.2 E 0.20 14.8 -16.8 --- --- 726.8 0.019 0.000 9.1 7 1
02/20/06 10:07 a -8.8 -8.7 -8.8 --- --- 12.2 E 0.20 13.9 -16.8 --- --- 726.9 0.019 0.000 9.1 8 1
02/20/06 10:08 a -8.8 -8.7 -8.8 --- --- 13.0 E 0.22 15.7 -17.0 --- --- 726.8 0.019 0.000 9.1 8 1
02/20/06 10:09 a -8.8 -8.7 -8.8 --- --- 13.0 E 0.22 14.8 -17.0 --- --- 726.8 0.019 0.000 9.1 8 1
02/20/06 10:10 a -8.8 -8.7 -8.8 --- --- 13.9 E 0.23 15.7 -17.3 --- --- 726.8 0.019 0.000 9.1 8 1
02/20/06 10:11 a -8.7 -8.7 -8.8 --- --- 15.7 E 0.26 17.4 -17.7 --- --- 726.8 0.019 0.000 9.1 8 1
02/20/06 10:12 a -8.7 -8.7 -8.7 --- --- 13.9 E 0.23 16.5 -17.2 --- --- 726.9 0.019 0.000 9.1 8 1
02/20/06 10:13 a -8.7 -8.7 -8.7 --- --- 13.9 ESE 0.23 17.4 -17.2 --- --- 726.9 0.019 0.000 9.1 8 1
02/20/06 10:14 a -8.7 -8.7 -8.7 --- --- 12.2 E 0.20 13.9 -16.7 --- --- 726.8 0.019 0.000 9.1 8 1
02/20/06 10:15 a -8.7 -8.7 -8.7 --- --- 11.3 E 0.19 13.0 -16.4 --- --- 726.8 0.019 0.000 9.1 8 1
02/20/06 10:16 a -8.7 -8.7 -8.7 --- --- 13.0 E 0.22 15.7 -16.9 --- --- 726.8 0.019 0.000 9.1 8 1
02/20/06 10:17 a -8.7 -8.7 -8.7 --- --- 12.2 E 0.20 13.9 -16.7 --- --- 726.9 0.019 0.000 9.1 8 1
02/20/06 10:18 a -8.7 -8.7 -8.7 --- --- 12.2 E 0.20 16.5 -16.7 --- --- 726.8 0.019 0.000 9.1 8 1
02/20/06 10:19 a -8.7 -8.7 -8.7 --- --- 14.8 ESE 0.25 16.5 -17.4 --- --- 726.9 0.019 0.000 9.1 8 1
02/20/06 10:20 a -8.7 -8.7 -8.7 --- --- 15.7 E 0.26 16.5 -17.6 --- --- 726.8 0.019 0.000 9.1 8 1
02/20/06 10:21 a -8.7 -8.7 -8.7 --- --- 15.7 ESE 0.26 16.5 -17.6 --- --- 726.8 0.019 0.000 9.1 8 1
02/20/06 10:22 a -8.7 -8.7 -8.7 --- --- 14.8 ESE 0.25 17.4 -17.4 --- --- 726.8 0.019 0.000 9.1 8 1
02/20/06 10:23 a -8.7 -8.7 -8.7 --- --- 14.8 ESE 0.25 16.5 -17.4 --- --- 726.8 0.019 0.000 9.0 8 1
02/20/06 10:24 a -8.7 -8.7 -8.7 --- --- 13.9 ESE 0.23 15.7 -17.2 --- --- 726.9 0.019 0.000 9.1 8 1
02/20/06 10:25 a -8.7 -8.7 -8.7 --- --- 13.0 ESE 0.22 13.9 -16.9 --- --- 726.9 0.019 0.000 9.0 8 1
02/20/06 10:26 a -8.7 -8.7 -8.7 --- --- 11.3 E 0.19 13.9 -16.3 --- --- 726.9 0.019 0.000 9.0 8 1
02/20/06 10:27 a -8.7 -8.6 -8.7 --- --- 13.0 E 0.22 15.7 -16.9 --- --- 726.8 0.019 0.000 9.0 8 1
02/20/06 10:28 a -8.7 -8.7 -8.7 --- --- 12.2 E 0.20 14.8 -16.6 --- --- 726.8 0.019 0.000 9.0 8 1
02/20/06 10:29 a -8.7 -8.6 -8.7 --- --- 13.0 E 0.22 15.7 -16.9 --- --- 726.9 0.019 0.000 9.0 8 1
02/20/06 10:30 a -8.7 -8.6 -8.7 --- --- 11.3 E 0.19 13.0 -16.3 --- --- 726.9 0.019 0.000 9.0 8 1
02/20/06 10:31 a -8.6 -8.6 -8.7 --- --- 11.3 E 0.19 13.0 -16.3 --- --- 726.8 0.019 0.000 9.0 8 1
02/20/06 10:32 a -8.6 -8.6 -8.7 --- --- 11.3 E 0.19 13.9 -16.3 --- --- 726.8 0.019 0.000 9.0 8 1
02/20/06 10:33 a -8.6 -8.6 -8.7 --- --- 10.4 E 0.17 13.0 -15.9 --- --- 726.9 0.019 0.000 9.0 8 1
02/20/06 10:34 a -8.6 -8.6 -8.7 --- --- 12.2 E 0.20 15.7 -16.6 --- --- 726.8 0.019 0.000 9.0 8 1
02/20/06 10:35 a -8.6 -8.6 -8.6 --- --- 12.2 E 0.20 15.7 -16.6 --- --- 726.8 0.019 0.000 9.0 8 1
02/20/06 10:36 a -8.6 -8.6 -8.6 --- --- 10.4 E 0.17 13.0 -15.9 --- --- 726.9 0.019 0.000 9.0 8 1
02/20/06 10:37 a -8.6 -8.6 -8.6 --- --- 10.4 E 0.17 12.2 -15.9 --- --- 726.9 0.019 0.000 9.0 8 1
02/20/06 10:38 a -8.6 -8.6 -8.6 --- --- 10.4 E 0.17 13.0 -15.9 --- --- 726.8 0.019 0.000 9.0 8 1
02/20/06 10:39 a -8.6 -8.6 -8.7 --- --- 10.4 E 0.17 12.2 -15.9 --- --- 726.9 0.019 0.000 9.0 8 1
02/20/06 10:40 a -8.7 -8.7 -8.7 --- --- 12.2 E 0.20 13.9 -16.6 --- --- 726.9 0.019 0.000 9.0 8 1
02/20/06 10:41 a -8.7 -8.6 -8.7 --- --- 8.7 E 0.14 11.3 -15.3 --- --- 726.9 0.019 0.000 9.0 8 1
02/20/06 10:42 a -8.6 -8.6 -8.7 --- --- 10.4 E 0.17 12.2 -15.9 --- --- 726.9 0.019 0.000 9.0 8 1
02/20/06 10:43 a -8.7 -8.6 -8.7 --- --- 9.6 E 0.16 12.2 -15.7 --- --- 726.9 0.019 0.000 8.9 8 1
02/20/06 10:44 a -8.7 -8.7 -8.7 --- --- 10.4 E 0.17 12.2 -16.0 --- --- 726.9 0.019 0.000 8.9 8 1
02/20/06 10:45 a -8.7 -8.7 -8.7 --- --- 9.6 E 0.16 12.2 -15.7 --- --- 726.9 0.019 0.000 8.9 8 1
02/20/06 10:46 a -8.7 -8.7 -8.7 --- --- 8.7 E 0.14 12.2 -15.3 --- --- 727.0 0.019 0.000 8.9 8 1
02/20/06 10:47 a -8.7 -8.7 -8.7 --- --- 8.7 E 0.14 11.3 -15.3 --- --- 726.9 0.019 0.000 8.9 8 1
02/20/06 10:48 a -8.7 -8.7 -8.7 --- --- 9.6 E 0.16 11.3 -15.7 --- --- 727.0 0.019 0.000 8.9 8 1
02/20/06 10:49 a -8.7 -8.7 -8.7 --- --- 9.6 E 0.16 11.3 -15.8 --- --- 726.9 0.019 0.000 8.9 8 1
02/20/06 10:50 a -8.7 -8.7 -8.8 --- --- 9.6 E 0.16 11.3 -15.8 --- --- 726.9 0.019 0.000 8.9 8 1
02/20/06 10:51 a -8.7 -8.7 -8.8 --- --- 9.6 E 0.16 11.3 -15.8 --- --- 726.9 0.019 0.000 8.9 8 1
02/20/06 10:52 a -8.7 -8.7 -8.8 --- --- 8.7 E 0.14 11.3 -15.4 --- --- 726.9 0.019 0.000 8.9 8 1
02/20/06 10:53 a -8.7 -8.7 -8.8 --- --- 9.6 E 0.16 10.4 -15.8 --- --- 726.8 0.019 0.000 8.9 8 1
02/20/06 10:54 a -8.7 -8.7 -8.8 --- --- 7.8 E 0.13 10.4 -15.0 --- --- 727.0 0.019 0.000 8.9 8 1
02/20/06 10:55 a -8.8 -8.7 -8.8 --- --- 8.7 E 0.14 11.3 -15.5 --- --- 727.0 0.019 0.000 8.9 8 1
02/20/06 10:56 a -8.8 -8.8 -8.8 --- --- 9.6 E 0.16 12.2 -15.8 --- --- 726.9 0.019 0.000 8.9 8 1
02/20/06 10:57 a -8.7 -8.7 -8.8 --- --- 9.6 E 0.16 12.2 -15.8 --- --- 726.9 0.019 0.000 8.9 8 1
02/20/06 10:58 a -8.7 -8.7 -8.8 --- --- 9.6 E 0.16 13.0 -15.8 --- --- 726.9 0.019 0.000 8.9 8 1
02/20/06 10:59 a -8.8 -8.7 -8.8 --- --- 11.3 ENE 0.19 13.0 -16.4 --- --- 727.0 0.019 0.000 8.9 8 1
02/20/06 11:00 a -8.7 -8.7 -8.8 --- --- 11.3 ENE 0.19 13.9 -16.4 --- --- 727.0 0.019 0.000 8.9 8 1
02/20/06 11:01 a -8.7 -8.7 -8.7 --- --- 12.2 ENE 0.20 13.0 -16.7 --- --- 726.9 0.019 0.000 8.9 8 1
02/20/06 11:02 a -8.7 -8.7 -8.7 --- --- 11.3 E 0.19 13.0 -16.4 --- --- 727.0 0.019 0.000 8.9 8 1
02/20/06 11:03 a -8.7 -8.7 -8.7 --- --- 10.4 E 0.17 13.0 -16.1 --- --- 727.0 0.019 0.000 8.9 8 1
02/20/06 11:04 a -8.7 -8.7 -8.7 --- --- 9.6 E 0.16 11.3 -15.8 --- --- 727.0 0.019 0.000 8.9 8 1
02/20/06 11:05 a -8.7 -8.7 -8.7 --- --- 10.4 ENE 0.17 13.9 -16.1 --- --- 727.0 0.019 0.000 8.9 8 1
02/20/06 11:06 a -8.7 -8.7 -8.7 --- --- 8.7 ENE 0.14 11.3 -15.4 --- --- 727.0 0.019 0.000 8.9 8 1
02/20/06 11:07 a -8.7 -8.7 -8.7 --- --- 7.8 E 0.13 13.0 -14.9 --- --- 726.9 0.019 0.000 8.9 8 1
02/20/06 11:08 a -8.7 -8.7 -8.7 --- --- 11.3 ENE 0.19 13.0 -16.4 --- --- 727.0 0.019 0.000 8.9 8 1
02/20/06 11:09 a -8.7 -8.7 -8.7 --- --- 10.4 ENE 0.17 13.0 -16.1 --- --- 727.0 0.019 0.000 8.9 8 1
02/20/06 11:10 a -8.7 -8.7 -8.7 --- --- 9.6 ENE 0.16 10.4 -15.8 --- --- 726.8 0.019 0.000 8.9 8 1
02/20/06 11:11 a -8.7 -8.7 -8.7 --- --- 12.2 ENE 0.20 14.8 -16.7 --- --- 727.0 0.019 0.000 8.9 8 1
02/20/06 11:12 a -8.7 -8.7 -8.7 --- --- 11.3 ENE 0.19 13.0 -16.4 --- --- 727.0 0.019 0.000 8.9 8 1
02/20/06 11:13 a -8.7 -8.7 -8.7 --- --- 8.7 E 0.14 11.3 -15.3 --- --- 727.0 0.019 0.000 8.9 8 1
02/20/06 11:14 a -8.7 -8.7 -8.7 --- --- 7.0 E 0.12 8.7 -14.6 --- --- 727.0 0.019 0.000 8.9 8 1
02/20/06 11:15 a -8.6 -8.6 -8.6 --- --- 7.8 E 0.13 9.6 -14.9 --- --- 727.0 0.019 0.000 8.9 8 1
02/20/06 11:16 a -8.6 -8.6 -8.6 --- --- 7.0 E 0.12 8.7 -14.4 --- --- 727.1 0.019 0.000 8.9 8 1
02/20/06 11:17 a -8.6 -8.6 -8.6 --- --- 7.8 ENE 0.13 8.7 -14.8 --- --- 727.1 0.019 0.000 8.9 8 1
02/20/06 11:18 a -8.6 -8.6 -8.6 --- --- 9.6 ENE 0.16 11.3 -15.6 --- --- 727.0 0.019 0.000 8.9 8 1
02/20/06 11:19 a -8.6 -8.5 -8.6 --- --- 9.6 ENE 0.16 11.3 -15.6 --- --- 727.0 0.019 0.000 8.9 8 1
02/20/06 11:20 a -8.5 -8.5 -8.6 --- --- 10.4 ENE 0.17 11.3 -15.8 --- --- 726.9 0.019 0.000 8.9 8 1
02/20/06 11:21 a -8.6 -8.6 -8.6 --- --- 8.7 ENE 0.14 10.4 -15.2 --- --- 727.0 0.019 0.000 8.8 8 1
02/20/06 11:22 a -8.6 -8.6 -8.6 --- --- 9.6 ENE 0.16 11.3 -15.6 --- --- 727.0 0.019 0.000 8.9 8 1
02/20/06 11:23 a -8.7 -8.6 -8.7 --- --- 9.6 ENE 0.16 10.4 -15.7 --- --- 727.0 0.019 0.000 8.8 8 1
02/20/06 11:24 a -8.6 -8.6 -8.7 --- --- 9.6 ENE 0.16 10.4 -15.6 --- --- 727.0 0.019 0.000 8.8 8 1
02/20/06 11:25 a -8.6 -8.6 -8.6 --- --- 8.7 ENE 0.14 10.4 -15.3 --- --- 727.0 0.019 0.000 8.8 8 1
02/20/06 11:26 a -8.6 -8.6 -8.6 --- --- 9.6 ENE 0.16 11.3 -15.6 --- --- 727.0 0.019 0.000 8.8 8 1
02/20/06 11:27 a -8.6 -8.6 -8.6 --- --- 9.6 ENE 0.16 10.4 -15.6 --- --- 727.0 0.019 0.000 8.8 8 1
02/20/06 11:28 a -8.7 -8.6 -8.7 --- --- 7.0 ENE 0.12 10.4 -14.6 --- --- 727.1 0.019 0.000 8.8 8 1
02/20/06 11:29 a -8.7 -8.7 -8.7 --- --- 10.4 ENE 0.17 11.3 -16.1 --- --- 727.0 0.019 0.000 8.8 8 1
02/20/06 11:30 a -8.7 -8.7 -8.8 --- --- 10.4 ENE 0.17 12.2 -16.1 --- --- 727.1 0.019 0.000 8.8 8 1
02/20/06 11:31 a -8.7 -8.7 -8.7 --- --- 10.4 ENE 0.17 11.3 -16.1 --- --- 727.0 0.019 0.000 8.8 8 1
02/20/06 11:32 a -8.7 -8.7 -8.7 --- --- 8.7 ENE 0.14 11.3 -15.4 --- --- 727.0 0.019 0.000 8.8 8 1
02/20/06 11:33 a -8.7 -8.7 -8.7 --- --- 9.6 ENE 0.16 10.4 -15.8 --- --- 727.1 0.019 0.000 8.8 8 1
02/20/06 11:34 a -8.7 -8.7 -8.7 --- --- 8.7 ENE 0.14 10.4 -15.3 --- --- 727.0 0.019 0.000 8.8 8 1
02/20/06 11:35 a -8.7 -8.7 -8.7 --- --- 9.6 ENE 0.16 11.3 -15.7 --- --- 727.1 0.019 0.000 8.8 8 1
02/20/06 11:36 a -8.7 -8.7 -8.7 --- --- 11.3 ENE 0.19 12.2 -16.3 --- --- 727.0 0.019 0.000 8.8 8 1
02/20/06 11:37 a -8.6 -8.6 -8.7 --- --- 9.6 ENE 0.16 12.2 -15.6 --- --- 727.1 0.019 0.000 8.8 8 1
02/20/06 11:38 a -8.6 -8.5 -8.6 --- --- 7.8 ENE 0.13 9.6 -14.8 --- --- 727.1 0.019 0.000 8.8 8 1
02/20/06 11:39 a -8.6 -8.6 -8.6 --- --- 7.0 ENE 0.12 9.6 -14.4 --- --- 727.0 0.019 0.000 8.8 8 1
02/20/06 11:40 a -8.6 -8.6 -8.6 --- --- 9.6 ENE 0.16 11.3 -15.6 --- --- 727.0 0.019 0.000 8.8 8 1
02/20/06 11:41 a -8.6 -8.6 -8.6 --- --- 11.3 ENE 0.19 13.0 -16.3 --- --- 727.0 0.019 0.000 8.8 8 1
02/20/06 11:42 a -8.6 -8.6 -8.7 --- --- 10.4 ENE 0.17 13.0 -15.9 --- --- 727.0 0.019 0.000 8.8 8 1
02/20/06 11:43 a -8.6 -8.6 -8.6 --- --- 10.4 ENE 0.17 11.3 -15.9 --- --- 727.0 0.019 0.000 8.8 8 1
02/20/06 11:44 a -8.6 -8.6 -8.7 --- --- 8.7 ENE 0.14 10.4 -15.3 --- --- 727.0 0.019 0.000 8.8 8 1
02/20/06 11:45 a -8.7 -8.6 -8.7 --- --- 10.4 ENE 0.17 11.3 -16.0 --- --- 727.0 0.019 0.000 8.8 8 1
02/20/06 11:46 a -8.7 -8.6 -8.7 --- --- 10.4 ENE 0.17 12.2 -16.0 --- --- 727.0 0.019 0.000 8.8 8 1
02/20/06 11:47 a -8.6 -8.6 -8.6 --- --- 9.6 ENE 0.16 11.3 -15.6 --- --- 727.0 0.019 0.000 8.8 8 1
02/20/06 11:48 a -8.6 -8.6 -8.7 --- --- 10.4 ENE 0.17 12.2 -15.9 --- --- 727.0 0.019 0.000 8.8 8 1
02/20/06 11:49 a -8.6 -8.6 -8.7 --- --- 10.4 ENE 0.17 12.2 -15.9 --- --- 727.1 0.019 0.000 8.8 8 1
02/20/06 11:50 a -8.6 -8.6 -8.6 --- --- 10.4 NE 0.17 11.3 -15.9 --- --- 727.0 0.019 0.000 8.8 8 1
02/20/06 11:51 a -8.6 -8.6 -8.6 --- --- 8.7 NE 0.14 10.4 -15.2 --- --- 727.1 0.019 0.000 8.8 8 1
02/20/06 11:52 a -8.6 -8.6 -8.6 --- --- 8.7 NE 0.14 10.4 -15.2 --- --- 727.0 0.019 0.000 8.8 8 1
02/20/06 11:53 a -8.6 -8.6 -8.6 --- --- 8.7 ENE 0.14 9.6 -15.3 --- --- 727.0 0.019 0.000 8.8 8 1
02/20/06 11:54 a -8.6 -8.6 -8.6 --- --- 8.7 NE 0.14 11.3 -15.3 --- --- 727.1 0.019 0.000 8.8 8 1
02/20/06 11:55 a -8.6 -8.6 -8.6 --- --- 9.6 NE 0.16 10.4 -15.6 --- --- 727.0 0.019 0.000 8.8 8 1
02/20/06 11:56 a -8.6 -8.6 -8.6 --- --- 9.6 NE 0.16 11.3 -15.6 --- --- 726.9 0.019 0.000 8.8 8 1
02/20/06 11:57 a -8.6 -8.6 -8.6 --- --- 9.6 NE 0.16 11.3 -15.6 --- --- 727.0 0.019 0.000 8.8 8 1
02/20/06 11:58 a -8.6 -8.6 -8.7 --- --- 10.4 NE 0.17 12.2 -15.9 --- --- 726.9 0.019 0.000 8.7 8 1
02/20/06 11:59 a -8.6 -8.6 -8.7 --- --- 11.3 NE 0.19 12.2 -16.3 --- --- 727.0 0.019 0.000 8.7 8 1
02/20/06 12:00 p -8.6 -8.6 -8.7 --- --- 10.4 NE 0.17 12.2 -15.9 --- --- 727.0 0.019 0.000 8.7 8 1
02/20/06 12:01 p -8.6 -8.6 -8.6 --- --- 11.3 NE 0.19 12.2 -16.3 --- --- 727.0 0.019 0.000 8.8 8 1
02/20/06 12:02 p -8.6 -8.6 -8.6 --- --- 11.3 NE 0.19 13.0 -16.3 --- --- 726.9 0.019 0.000 8.7 8 1
02/20/06 12:03 p -8.6 -8.6 -8.6 --- --- 11.3 NE 0.19 12.2 -16.3 --- --- 727.0 0.019 0.000 8.8 8 1
02/20/06 12:04 p -8.6 -8.6 -8.6 --- --- 11.3 NE 0.19 13.0 -16.3 --- --- 727.0 0.019 0.000 8.8 8 1
02/20/06 12:05 p -8.6 -8.6 -8.6 --- --- 11.3 NE 0.19 13.0 -16.3 --- --- 727.0 0.019 0.000 8.7 8 1
02/20/06 12:06 p -8.6 -8.6 -8.6 --- --- 13.9 NE 0.23 15.7 -17.1 --- --- 727.0 0.019 0.000 8.7 8 1
02/20/06 12:07 p -8.6 -8.6 -8.6 --- --- 13.0 NE 0.22 13.9 -16.8 --- --- 726.9 0.019 0.000 8.8 8 1
02/20/06 12:08 p -8.6 -8.6 -8.6 --- --- 11.3 NE 0.19 13.9 -16.2 --- --- 726.9 0.019 0.000 8.7 8 1
02/20/06 12:09 p -8.6 -8.6 -8.6 --- --- 12.2 NE 0.20 13.9 -16.5 --- --- 727.0 0.019 0.000 8.7 8 1
02/20/06 12:10 p -8.6 -8.6 -8.6 --- --- 11.3 NE 0.19 12.2 -16.2 --- --- 727.0 0.019 0.000 8.7 8 1
02/20/06 12:11 p -8.6 -8.6 -8.6 --- --- 12.2 NE 0.20 13.9 -16.5 --- --- 727.0 0.019 0.000 8.7 7 1
02/20/06 12:12 p -8.6 -8.6 -8.6 --- --- 10.4 NE 0.17 12.2 -15.9 --- --- 727.0 0.019 0.000 8.7 8 1
02/20/06 12:13 p -8.6 -8.5 -8.6 --- --- 9.6 NE 0.16 12.2 -15.6 --- --- 727.0 0.019 0.000 8.7 8 1
02/20/06 12:14 p -8.5 -8.5 -8.6 --- --- 9.6 NE 0.16 11.3 -15.5 --- --- 727.1 0.019 0.000 8.7 8 1
02/20/06 12:15 p -8.6 -8.6 -8.6 --- --- 11.3 NE 0.19 12.2 -16.2 --- --- 727.0 0.019 0.000 8.7 8 1
02/20/06 12:16 p -8.6 -8.6 -8.6 --- --- 11.3 NE 0.19 12.2 -16.2 --- --- 727.0 0.019 0.000 8.7 7 1
02/20/06 12:17 p -8.6 -8.6 -8.6 --- --- 11.3 NE 0.19 13.0 -16.3 --- --- 727.0 0.019 0.000 8.7 8 1
02/20/06 12:18 p -8.6 -8.6 -8.6 --- --- 8.7 NE 0.14 9.6 -15.3 --- --- 726.9 0.019 0.000 8.7 8 1
02/20/06 12:19 p -8.6 -8.6 -8.7 --- --- 9.6 NE 0.16 10.4 -15.6 --- --- 726.9 0.019 0.000 8.7 8 1
02/20/06 12:20 p -8.6 -8.6 -8.6 --- --- 9.6 NE 0.16 11.3 -15.6 --- --- 726.9 0.019 0.000 8.7 8 1
02/20/06 12:21 p -8.6 -8.6 -8.6 --- --- 10.4 NE 0.17 11.3 -15.9 --- --- 726.9 0.019 0.000 8.7 8 1
02/20/06 12:22 p -8.5 -8.5 -8.5 --- --- 9.6 NE 0.16 12.2 -15.5 --- --- 727.0 0.019 0.000 8.7 8 1
02/20/06 12:23 p -8.5 -8.5 -8.5 --- --- 9.6 NE 0.16 12.2 -15.5 --- --- 727.0 0.019 0.000 8.7 8 1
02/20/06 12:24 p -8.5 -8.5 -8.5 --- --- 9.6 NE 0.16 10.4 -15.5 --- --- 726.9 0.019 0.000 8.7 8 1
02/20/06 12:25 p -8.5 -8.5 -8.5 --- --- 11.3 NE 0.19 13.0 -16.1 --- --- 726.9 0.019 0.000 8.7 8 1
02/20/06 12:26 p -8.5 -8.5 -8.5 --- --- 10.4 NE 0.17 12.2 -15.8 --- --- 726.9 0.019 0.000 8.7 8 1
02/20/06 12:27 p -8.5 -8.5 -8.5 --- --- 10.4 NE 0.17 12.2 -15.8 --- --- 727.0 0.019 0.000 8.7 8 1
02/20/06 12:28 p -8.5 -8.5 -8.5 --- --- 11.3 NE 0.19 12.2 -16.1 --- --- 726.9 0.019 0.000 8.7 7 1
02/20/06 12:29 p -8.5 -8.5 -8.5 --- --- 11.3 NE 0.19 13.0 -16.1 --- --- 726.9 0.019 0.000 8.7 7 1
02/20/06 12:30 p -8.5 -8.4 -8.5 --- --- 9.6 NE 0.16 13.0 -15.5 --- --- 726.8 0.019 0.000 8.7 8 1
02/20/06 12:31 p -8.4 -8.4 -8.5 --- --- 11.3 NE 0.19 13.0 -16.1 --- --- 726.8 0.019 0.000 8.7 8 1
02/20/06 12:32 p -8.4 -8.4 -8.4 --- --- 10.4 NE 0.17 13.0 -15.7 --- --- 726.8 0.019 0.000 8.7 8 1
02/20/06 12:33 p -8.4 -8.4 -8.4 --- --- 10.4 NE 0.17 13.0 -15.7 --- --- 726.9 0.019 0.000 8.7 7 1
02/20/06 12:34 p -8.4 -8.4 -8.4 --- --- 10.4 NE 0.17 13.0 -15.7 --- --- 726.8 0.019 0.000 8.7 8 1
02/20/06 12:35 p -8.4 -8.4 -8.4 --- --- 9.6 NE 0.16 12.2 -15.4 --- --- 726.9 0.019 0.000 8.7 7 1
02/20/06 12:36 p -8.4 -8.4 -8.5 --- --- 10.4 NE 0.17 12.2 -15.7 --- --- 726.9 0.019 0.000 8.7 8 1
02/20/06 12:37 p -8.5 -8.4 -8.5 --- --- 10.4 NE 0.17 12.2 -15.8 --- --- 726.9 0.019 0.000 8.7 7 1
02/20/06 12:38 p -8.5 -8.5 -8.5 --- --- 8.7 NE 0.14 10.4 -15.1 --- --- 726.9 0.019 0.000 8.7 8 1
02/20/06 12:39 p -8.5 -8.5 -8.6 --- --- 10.4 NE 0.17 11.3 -15.8 --- --- 727.0 0.019 0.000 8.7 8 1
02/20/06 12:40 p -8.6 -8.6 -8.6 --- --- 10.4 NE 0.17 12.2 -15.9 --- --- 726.8 0.019 0.000 8.7 8 1
02/20/06 12:41 p -8.6 -8.6 -8.6 --- --- 10.4 NE 0.17 12.2 -15.9 --- --- 726.9 0.019 0.000 8.7 8 1
02/20/06 12:42 p -8.6 -8.6 -8.6 --- --- 10.4 NE 0.17 11.3 -15.9 --- --- 726.9 0.019 0.000 8.7 8 1
02/20/06 12:43 p -8.6 -8.6 -8.6 --- --- 9.6 NE 0.16 12.2 -15.6 --- --- 726.9 0.019 0.000 8.7 8 1
02/20/06 12:44 p -8.6 -8.6 -8.6 --- --- 10.4 NE 0.17 11.3 -15.9 --- --- 726.9 0.019 0.000 8.8 8 1
02/20/06 12:45 p -8.6 -8.6 -8.7 --- --- 9.6 NE 0.16 11.3 -15.6 --- --- 726.9 0.019 0.000 8.8 8 1
02/20/06 12:46 p -8.7 -8.7 -8.7 --- --- 9.6 NE 0.16 10.4 -15.7 --- --- 726.9 0.019 0.000 8.8 8 1
02/20/06 12:47 p -8.7 -8.7 -8.7 --- --- 9.6 NE 0.16 11.3 -15.8 --- --- 726.9 0.019 0.000 8.8 8 1
02/20/06 12:48 p -8.7 -8.7 -8.7 --- --- 8.7 NE 0.14 10.4 -15.4 --- --- 726.9 0.019 0.000 8.8 8 1
02/20/06 12:49 p -8.7 -8.6 -8.7 --- --- 8.7 NE 0.14 10.4 -15.3 --- --- 726.9 0.019 0.000 8.8 7 1
02/20/06 12:50 p -8.6 -8.6 -8.7 --- --- 8.7 ENE 0.14 9.6 -15.3 --- --- 727.0 0.019 0.000 8.8 7 1
02/20/06 12:51 p -8.6 -8.6 -8.6 --- --- 10.4 NE 0.17 12.2 -15.9 --- --- 727.0 0.019 0.000 8.8 8 1
02/20/06 12:52 p -8.7 -8.7 -8.7 --- --- 9.6 NE 0.16 10.4 -15.7 --- --- 726.9 0.019 0.000 8.8 8 1
02/20/06 12:53 p -8.7 -8.7 -8.7 --- --- 8.7 NE 0.14 9.6 -15.4 --- --- 726.9 0.019 0.000 8.8 8 1
02/20/06 12:54 p -8.8 -8.8 -8.8 --- --- 9.6 NE 0.16 10.4 -15.9 --- --- 727.0 0.019 0.000 8.8 8 1
02/20/06 12:55 p -8.8 -8.8 -8.8 --- --- 10.4 NE 0.17 11.3 -16.2 --- --- 727.0 0.019 0.000 8.8 8 1
02/20/06 12:56 p -8.9 -8.9 -8.9 --- --- 10.4 NE 0.17 11.3 -16.3 --- --- 726.9 0.019 0.000 8.7 8 1
02/20/06 12:57 p -8.9 -8.9 -9.0 --- --- 9.6 NE 0.16 10.4 -16.1 --- --- 726.9 0.019 0.000 8.7 8 1
02/20/06 12:58 p -9.1 -9.0 -9.1 --- --- 8.7 NE 0.14 9.6 -15.8 --- --- 726.9 0.019 0.000 8.7 8 1
02/20/06 12:59 p -9.1 -9.1 -9.1 --- --- 7.8 NE 0.13 9.6 -15.5 --- --- 726.9 0.019 0.000 8.7 8 1
02/20/06 1:00 p -9.2 -9.2 -9.2 --- --- 7.0 NE 0.12 7.8 -15.1 --- --- 726.9 0.019 0.000 8.7 8 1
02/20/06 1:01 p -9.3 -9.3 -9.3 --- --- 7.0 NE 0.12 8.7 -15.3 --- --- 726.9 0.019 0.000 8.7 8 1
02/20/06 1:02 p -9.3 -9.3 -9.3 --- --- 7.0 NE 0.12 8.7 -15.3 --- --- 726.9 0.019 0.000 8.7 8 1
02/20/06 1:03 p -9.3 -9.2 -9.3 --- --- 7.8 NE 0.13 8.7 -15.7 --- --- 726.9 0.019 0.000 8.7 8 1
02/20/06 1:04 p -9.2 -9.2 -9.2 --- --- 7.8 NE 0.13 8.7 -15.6 --- --- 726.9 0.019 0.000 8.7 8 1
02/20/06 1:05 p -9.1 -9.1 -9.2 --- --- 8.7 NE 0.14 10.4 -15.9 --- --- 726.9 0.019 0.000 8.6 8 1
02/20/06 1:06 p -9.1 -9.1 -9.1 --- --- 7.0 NE 0.12 8.7 -15.0 --- --- 726.8 0.019 0.000 8.6 8 1
02/20/06 1:07 p -9.1 -9.1 -9.1 --- --- 7.0 NE 0.12 8.7 -15.0 --- --- 726.9 0.019 0.000 8.6 7 1
02/20/06 1:08 p -9.1 -9.1 -9.1 --- --- 8.7 NE 0.14 11.3 -15.9 --- --- 726.9 0.019 0.000 8.6 8 1
02/20/06 1:09 p -9.0 -9.0 -9.1 --- --- 8.7 NE 0.14 10.4 -15.8 --- --- 726.9 0.019 0.000 8.7 8 1
02/20/06 1:10 p -8.9 -8.9 -9.0 --- --- 7.8 NE 0.13 9.6 -15.3 --- --- 726.9 0.019 0.000 8.6 8 1
02/20/06 1:11 p -8.9 -8.9 -8.9 --- --- 8.7 NE 0.14 10.4 -15.7 --- --- 726.8 0.019 0.000 8.7 8 1
02/20/06 1:12 p -8.9 -8.9 -8.9 --- --- 8.7 NE 0.14 10.4 -15.7 --- --- 726.8 0.019 0.000 8.6 8 1
02/20/06 1:13 p -8.9 -8.9 -8.9 --- --- 7.8 NE 0.13 8.7 -15.2 --- --- 726.8 0.019 0.000 8.7 8 1
02/20/06 1:14 p -8.9 -8.9 -8.9 --- --- 8.7 NE 0.14 9.6 -15.6 --- --- 726.8 0.019 0.000 8.6 8 1
02/20/06 1:15 p -8.9 -8.8 -8.9 --- --- 8.7 NE 0.14 10.4 -15.6 --- --- 726.8 0.019 0.000 8.7 7 1
02/20/06 1:16 p -8.9 -8.8 -8.9 --- --- 8.7 NE 0.14 9.6 -15.6 --- --- 726.8 0.019 0.000 8.7 8 1
02/20/06 1:17 p -8.9 -8.9 -8.9 --- --- 8.7 NE 0.14 10.4 -15.7 --- --- 726.8 0.019 0.000 8.6 8 1
02/20/06 1:18 p -8.9 -8.9 -8.9 --- --- 8.7 NNE 0.14 9.6 -15.7 --- --- 726.8 0.019 0.000 8.6 7 1
02/20/06 1:19 p -8.9 -8.9 -8.9 --- --- 8.7 NE 0.14 10.4 -15.7 --- --- 726.8 0.019 0.000 8.6 7 1
02/20/06 1:20 p -8.9 -8.9 -8.9 --- --- 8.7 NE 0.14 9.6 -15.7 --- --- 726.9 0.019 0.000 8.6 8 1
02/20/06 1:21 p -8.9 -8.9 -9.0 --- --- 8.7 NE 0.14 9.6 -15.7 --- --- 726.8 0.019 0.000 8.6 7 1
02/20/06 1:22 p -9.0 -8.9 -9.0 --- --- 7.8 NE 0.13 9.6 -15.4 --- --- 726.7 0.019 0.000 8.7 7 1
02/20/06 1:23 p -9.1 -9.0 -9.1 --- --- 7.8 NE 0.13 9.6 -15.4 --- --- 726.8 0.019 0.000 8.7 8 1
02/20/06 1:24 p -9.2 -9.1 -9.2 --- --- 7.8 NE 0.13 9.6 -15.6 --- --- 726.7 0.019 0.000 8.7 8 1
02/20/06 1:25 p -9.3 -9.3 -9.3 --- --- 7.8 NE 0.13 8.7 -15.7 --- --- 726.9 0.019 0.000 8.7 7 1
02/20/06 1:26 p -9.4 -9.4 -9.4 --- --- 7.0 NE 0.12 8.7 -15.4 --- --- 726.8 0.019 0.000 8.6 7 1
02/20/06 1:27 p -9.4 -9.4 -9.6 --- --- 6.1 ENE 0.10 7.0 -15.0 --- --- 726.8 0.019 0.000 8.7 7 1
02/20/06 1:28 p -9.7 -9.6 -9.9 --- --- 7.8 ENE 0.13 8.7 -16.2 --- --- 726.8 0.019 0.000 8.7 8 1
02/20/06 1:29 p -10.0 -9.9 -10.1 --- --- 7.0 ENE 0.12 8.7 -16.2 --- --- 726.7 0.020 0.000 8.7 7 1
02/20/06 1:30 p -10.2 -10.1 -10.2 --- --- 7.0 ENE 0.12 7.8 -16.3 --- --- 726.7 0.020 0.000 8.7 7 1
02/20/06 1:31 p -10.3 -10.3 -10.4 --- --- 6.1 ENE 0.10 7.0 -16.1 --- --- 726.7 0.020 0.000 8.7 7 1
02/20/06 1:32 p -10.5 -10.4 -10.6 --- --- 7.0 ENE 0.12 7.8 -16.8 --- --- 726.7 0.020 0.000 8.7 7 1
02/20/06 1:33 p -10.6 -10.6 -10.6 --- --- 7.8 NE 0.13 8.7 -17.3 --- --- 726.6 0.020 0.000 8.7 8 1
02/20/06 1:34 p -10.4 -10.4 -10.5 --- --- 7.8 ENE 0.13 9.6 -17.1 --- --- 726.6 0.020 0.000 8.7 7 1
02/20/06 1:35 p -10.3 -10.3 -10.4 --- --- 8.7 ENE 0.14 9.6 -17.4 --- --- 726.7 0.020 0.000 8.7 7 1
02/20/06 1:36 p -10.2 -10.1 -10.2 --- --- 8.7 ENE 0.14 11.3 -17.2 --- --- 726.7 0.020 0.000 8.7 7 1
02/20/06 1:37 p -9.9 -9.8 -10.0 --- --- 9.6 ENE 0.16 11.3 -17.3 --- --- 726.6 0.020 0.000 8.7 7 1
02/20/06 1:38 p -9.7 -9.7 -9.8 --- --- 9.6 ENE 0.16 11.3 -17.0 --- --- 726.6 0.019 0.000 8.7 7 1
02/20/06 1:39 p -9.6 -9.6 -9.7 --- --- 9.6 ENE 0.16 11.3 -16.9 --- --- 726.5 0.019 0.000 8.7 7 1
02/20/06 1:40 p -9.6 -9.4 -9.6 --- --- 9.6 ENE 0.16 11.3 -16.8 --- --- 726.7 0.019 0.000 8.7 7 1
02/20/06 1:41 p -9.4 -9.4 -9.4 --- --- 10.4 ENE 0.17 11.3 -17.0 --- --- 726.7 0.019 0.000 8.7 7 1
02/20/06 1:42 p -9.4 -9.3 -9.4 --- --- 9.6 ENE 0.16 11.3 -16.6 --- --- 726.6 0.019 0.000 8.7 7 1
02/20/06 1:43 p -9.3 -9.3 -9.3 --- --- 9.6 ENE 0.16 11.3 -16.4 --- --- 726.6 0.019 0.000 8.7 7 1
02/20/06 1:44 p -9.2 -9.2 -9.2 --- --- 9.6 ENE 0.16 11.3 -16.4 --- --- 726.7 0.019 0.000 8.7 7 1
02/20/06 1:45 p -9.2 -9.2 -9.2 --- --- 10.4 ENE 0.17 11.3 -16.7 --- --- 726.6 0.019 0.000 8.7 7 1
02/20/06 1:46 p -9.2 -9.2 -9.2 --- --- 8.7 ENE 0.14 10.4 -15.9 --- --- 726.7 0.019 0.000 8.7 7 1
02/20/06 1:47 p -9.3 -9.2 -9.3 --- --- 8.7 ENE 0.14 10.4 -16.1 --- --- 726.6 0.019 0.000 8.7 7 1
02/20/06 1:48 p -9.4 -9.3 -9.4 --- --- 10.4 ENE 0.17 11.3 -16.9 --- --- 726.7 0.019 0.000 8.7 7 1
02/20/06 1:49 p -9.4 -9.3 -9.4 --- --- 10.4 ENE 0.17 11.3 -16.9 --- --- 726.7 0.019 0.000 8.7 7 1
02/20/06 1:50 p -9.4 -9.4 -9.4 --- --- 9.6 ENE 0.16 10.4 -16.6 --- --- 726.7 0.019 0.000 8.7 7 1
02/20/06 1:51 p -9.4 -9.3 -9.4 --- --- 8.7 NE 0.14 12.2 -16.2 --- --- 726.6 0.019 0.000 8.7 7 1
02/20/06 1:52 p -9.2 -9.2 -9.3 --- --- 10.4 NE 0.17 12.2 -16.7 --- --- 726.6 0.019 0.000 8.7 7 1
02/20/06 1:53 p -9.1 -9.1 -9.2 --- --- 9.6 NE 0.16 11.3 -16.2 --- --- 726.6 0.019 0.000 8.7 7 1
02/20/06 1:54 p -9.1 -9.1 -9.1 --- --- 9.6 NE 0.16 10.4 -16.2 --- --- 726.6 0.019 0.000 8.7 7 1
02/20/06 1:55 p -9.1 -9.1 -9.1 --- --- 11.3 NE 0.19 12.2 -16.8 --- --- 726.7 0.019 0.000 8.7 7 1
02/20/06 1:56 p -9.1 -9.1 -9.1 --- --- 10.4 ENE 0.17 11.3 -16.5 --- --- 726.6 0.019 0.000 8.7 7 1
02/20/06 1:57 p -9.1 -9.1 -9.1 --- --- 9.6 ENE 0.16 10.4 -16.2 --- --- 726.7 0.019 0.000 8.7 7 1
02/20/06 1:58 p -9.1 -9.1 -9.2 --- --- 9.6 ENE 0.16 10.4 -16.2 --- --- 726.7 0.019 0.000 8.7 7 1
02/20/06 1:59 p -9.2 -9.2 -9.2 --- --- 9.6 ENE 0.16 10.4 -16.3 --- --- 726.6 0.019 0.000 8.7 7 1
02/20/06 2:00 p -9.3 -9.2 -9.4 --- --- 9.6 ENE 0.16 10.4 -16.4 --- --- 726.7 0.019 0.000 8.6 7 1
02/20/06 2:01 p -9.5 -9.4 -9.6 --- --- 9.6 ENE 0.16 10.4 -16.7 --- --- 726.6 0.019 0.000 8.6 7 1
02/20/06 2:02 p -9.7 -9.6 -9.7 --- --- 8.7 ENE 0.14 9.6 -16.6 --- --- 726.7 0.019 0.000 8.6 7 1
02/20/06 2:03 p -9.7 -9.7 -9.7 --- --- 8.7 ENE 0.14 9.6 -16.7 --- --- 726.6 0.019 0.000 8.6 7 1
02/20/06 2:04 p -9.7 -9.7 -9.7 --- --- 8.7 ENE 0.14 9.6 -16.6 --- --- 726.6 0.019 0.000 8.6 7 1
02/20/06 2:05 p -9.6 -9.6 -9.7 --- --- 8.7 ENE 0.14 8.7 -16.5 --- --- 726.7 0.019 0.000 8.6 7 1
02/20/06 2:06 p -9.5 -9.4 -9.6 --- --- 7.8 ENE 0.13 9.6 -16.0 --- --- 726.7 0.019 0.000 8.7 7 1
02/20/06 2:07 p -9.4 -9.4 -9.4 --- --- 7.0 ENE 0.12 7.8 -15.4 --- --- 726.7 0.019 0.000 8.7 7 1
02/20/06 2:08 p -9.4 -9.4 -9.5 --- --- 7.0 ENE 0.12 7.8 -15.5 --- --- 726.6 0.019 0.000 8.7 7 1
02/20/06 2:09 p -9.4 -9.4 -9.5 --- --- 6.1 ENE 0.10 6.1 -15.0 --- --- 726.6 0.019 0.000 8.7 7 1
02/20/06 2:10 p -9.4 -9.4 -9.4 --- --- 6.1 ENE 0.10 7.0 -15.0 --- --- 726.6 0.019 0.000 8.7 7 1
02/20/06 2:11 p -9.4 -9.4 -9.4 --- --- 7.0 ENE 0.12 7.8 -15.5 --- --- 726.6 0.019 0.000 8.7 7 1
02/20/06 2:12 p -9.4 -9.4 -9.4 --- --- 7.0 ENE 0.12 7.8 -15.4 --- --- 726.6 0.019 0.000 8.6 7 1
02/20/06 2:13 p -9.4 -9.4 -9.4 --- --- 7.8 NE 0.13 8.7 -15.8 --- --- 726.6 0.019 0.000 8.6 7 1
02/20/06 2:14 p -9.4 -9.4 -9.4 --- --- 7.8 ENE 0.13 8.7 -15.9 --- --- 726.6 0.019 0.000 8.6 7 1
02/20/06 2:15 p -9.4 -9.4 -9.4 --- --- 7.0 ENE 0.12 7.8 -15.5 --- --- 726.6 0.019 0.000 8.6 7 1
02/20/06 2:16 p -9.4 -9.4 -9.4 --- --- 5.2 ENE 0.09 7.0 -14.4 --- --- 726.7 0.019 0.000 8.6 7 1
02/20/06 2:17 p -9.4 -9.4 -9.4 --- --- 6.1 NE 0.10 7.0 -15.0 --- --- 726.6 0.019 0.000 8.6 7 1
02/20/06 2:18 p -9.4 -9.4 -9.4 --- --- 7.0 NE 0.12 7.8 -15.5 --- --- 726.7 0.019 0.000 8.6 7 1
02/20/06 2:19 p -9.4 -9.4 -9.4 --- --- 7.8 NE 0.13 8.7 -15.8 --- --- 726.6 0.019 0.000 8.6 7 1
02/20/06 2:20 p -9.3 -9.2 -9.3 --- --- 7.8 NE 0.13 8.7 -15.8 --- --- 726.7 0.019 0.000 8.6 7 1
02/20/06 2:21 p -9.2 -9.2 -9.2 --- --- 7.0 NE 0.12 7.8 -15.2 --- --- 726.6 0.019 0.000 8.6 7 1
02/20/06 2:22 p -9.2 -9.2 -9.2 --- --- 7.8 NE 0.13 8.7 -15.6 --- --- 726.6 0.019 0.000 8.6 7 1
02/20/06 2:23 p -9.2 -9.2 -9.2 --- --- 7.8 NE 0.13 7.8 -15.6 --- --- 726.7 0.019 0.000 8.6 7 1
02/20/06 2:24 p -9.2 -9.2 -9.2 --- --- 7.0 NE 0.12 7.8 -15.1 --- --- 726.6 0.019 0.000 8.6 7 1
02/20/06 2:25 p -9.1 -9.1 -9.1 --- --- 6.1 NE 0.10 7.0 -14.6 --- --- 726.7 0.019 0.000 8.6 7 1
02/20/06 2:26 p -9.0 -8.9 -9.1 --- --- 6.1 NE 0.10 7.0 -14.4 --- --- 726.7 0.019 0.000 8.6 7 1
02/20/06 2:27 p -8.9 -8.9 -8.9 --- --- 6.1 NE 0.10 7.0 -14.4 --- --- 726.6 0.019 0.000 8.6 7 1
02/20/06 2:28 p -8.9 -8.9 -8.9 --- --- 6.1 NE 0.10 7.0 -14.3 --- --- 726.6 0.019 0.000 8.6 7 1
02/20/06 2:29 p -8.9 -8.8 -8.9 --- --- 6.1 NE 0.10 7.0 -14.3 --- --- 726.5 0.019 0.000 8.6 7 1
02/20/06 2:30 p -8.8 -8.8 -8.8 --- --- 5.2 NE 0.09 6.1 -13.7 --- --- 726.6 0.019 0.000 8.7 7 1
02/20/06 2:31 p -8.8 -8.7 -8.8 --- --- 5.2 NE 0.09 6.1 -13.7 --- --- 726.6 0.019 0.000 8.7 7 1
02/20/06 2:32 p -8.7 -8.7 -8.7 --- --- 4.3 NE 0.07 5.2 -13.0 --- --- 726.6 0.019 0.000 8.7 7 1
02/20/06 2:33 p -8.7 -8.7 -8.7 --- --- 4.3 NE 0.07 5.2 -13.0 --- --- 726.5 0.019 0.000 8.7 7 1
02/20/06 2:34 p -8.7 -8.7 -8.8 --- --- 4.3 NE 0.07 5.2 -13.0 --- --- 726.5 0.019 0.000 8.7 7 1
02/20/06 2:35 p -8.8 -8.8 -8.8 --- --- 4.3 NE 0.07 4.3 -13.1 --- --- 726.6 0.019 0.000 8.7 7 1
02/20/06 2:36 p -8.8 -8.8 -8.8 --- --- 3.5 NE 0.06 4.3 -12.3 --- --- 726.5 0.019 0.000 8.7 7 1
02/20/06 2:37 p -8.8 -8.8 -8.8 --- --- 2.6 NE 0.04 2.6 -11.4 --- --- 726.6 0.019 0.000 8.8 7 1
02/20/06 2:38 p -8.7 -8.7 -8.8 --- --- 1.7 NE 0.03 2.6 -10.2 --- --- 726.4 0.019 0.000 8.7 7 1
02/20/06 2:39 p -8.7 -8.7 -8.7 --- --- 1.7 NE 0.03 2.6 -10.2 --- --- 726.5 0.019 0.000 8.7 7 1
02/20/06 2:40 p -8.7 -8.7 -8.7 --- --- 1.7 NE 0.03 2.6 -10.1 --- --- 726.5 0.019 0.000 8.7 7 1
02/20/06 2:41 p -8.7 -8.6 -8.7 --- --- 2.6 NE 0.04 3.5 -11.3 --- --- 726.5 0.019 0.000 8.7 7 1
02/20/06 2:42 p -8.7 -8.6 -8.7 --- --- 2.6 NE 0.04 3.5 -11.3 --- --- 726.5 0.019 0.000 8.7 7 1
02/20/06 2:43 p -8.7 -8.7 -8.7 --- --- 2.6 NE 0.04 3.5 -11.3 --- --- 726.5 0.019 0.000 8.7 7 1
02/20/06 2:44 p -8.7 -8.7 -8.7 --- --- 2.6 ENE 0.04 3.5 -11.3 --- --- 726.6 0.019 0.000 8.7 7 1
02/20/06 2:45 p -8.7 -8.7 -8.7 --- --- 2.6 ENE 0.04 3.5 -11.3 --- --- 726.5 0.019 0.000 8.7 7 1
02/20/06 2:46 p -8.7 -8.7 -8.7 --- --- 1.7 ENE 0.03 2.6 -10.1 --- --- 726.6 0.019 0.000 8.7 7 1
02/20/06 2:47 p -8.7 -8.7 -8.7 --- --- 1.7 ENE 0.03 2.6 -10.1 --- --- 726.4 0.019 0.000 8.7 7 1
02/20/06 2:48 p -8.7 -8.7 -8.7 --- --- 1.7 ENE 0.03 2.6 -10.1 --- --- 726.5 0.019 0.000 8.6 7 1
02/20/06 2:49 p -8.7 -8.7 -8.7 --- --- 2.6 ENE 0.04 2.6 -11.3 --- --- 726.5 0.019 0.000 8.6 7 1
02/20/06 2:50 p -8.7 -8.7 -8.7 --- --- 1.7 ENE 0.03 2.6 -10.2 --- --- 726.5 0.019 0.000 8.6 7 1
02/20/06 2:51 p -8.7 -8.7 -8.7 --- --- 1.7 ENE 0.03 2.6 -10.2 --- --- 726.5 0.019 0.000 8.6 7 1
02/20/06 2:52 p -8.7 -8.7 -8.7 --- --- 1.7 ENE 0.03 2.6 -10.2 --- --- 726.4 0.019 0.000 8.6 7 1
02/20/06 2:53 p -8.7 -8.7 -8.8 --- --- 1.7 ENE 0.03 2.6 -10.2 --- --- 726.5 0.019 0.000 8.6 7 1
02/20/06 2:54 p -8.7 -8.7 -8.8 --- --- 2.6 ENE 0.04 2.6 -11.3 --- --- 726.5 0.019 0.000 8.6 7 1
02/20/06 2:55 p -8.8 -8.7 -8.8 --- --- 1.7 ENE 0.03 2.6 -10.2 --- --- 726.5 0.019 0.000 8.6 7 1
02/20/06 2:56 p -8.8 -8.8 -8.8 --- --- 2.6 ENE 0.04 3.5 -11.4 --- --- 726.4 0.019 0.000 8.6 7 1
02/20/06 2:57 p -8.8 -8.8 -8.8 --- --- 2.6 ENE 0.04 2.6 -11.4 --- --- 726.4 0.019 0.000 8.6 7 1
02/20/06 2:58 p -8.8 -8.8 -8.8 --- --- 2.6 ENE 0.04 3.5 -11.4 --- --- 726.4 0.019 0.000 8.6 7 1
02/20/06 2:59 p -8.8 -8.8 -8.8 --- --- 2.6 ENE 0.04 3.5 -11.4 --- --- 726.4 0.019 0.000 8.6 7 1
02/20/06 3:00 p -8.8 -8.8 -8.8 --- --- 2.6 ENE 0.04 3.5 -11.5 --- --- 726.4 0.019 0.000 8.6 7 1
02/20/06 3:01 p -8.8 -8.8 -8.8 --- --- 2.6 ESE 0.04 3.5 -11.5 --- --- 726.4 0.019 0.000 8.7 7 1
02/20/06 3:02 p -8.8 -8.8 -8.8 --- --- 2.6 ESE 0.04 3.5 -11.5 --- --- 726.3 0.019 0.000 8.7 7 1
02/20/06 3:03 p -8.8 -8.8 -8.9 --- --- 2.6 ESE 0.04 4.3 -11.5 --- --- 726.4 0.019 0.000 8.7 7 1
02/20/06 3:04 p -8.9 -8.9 -8.9 --- --- 3.5 ESE 0.06 3.5 -12.4 --- --- 726.4 0.019 0.000 8.7 7 1
02/20/06 3:05 p -8.9 -8.9 -8.9 --- --- 3.5 ESE 0.06 4.3 -12.4 --- --- 726.5 0.019 0.000 8.8 7 1
02/20/06 3:06 p -8.9 -8.9 -9.0 --- --- 3.5 ESE 0.06 3.5 -12.5 --- --- 726.4 0.019 0.000 8.8 7 1
02/20/06 3:07 p -9.0 -9.0 -9.1 --- --- 3.5 ESE 0.06 4.3 -12.6 --- --- 726.4 0.019 0.000 8.8 7 1
02/20/06 3:08 p -9.1 -9.1 -9.1 --- --- 4.3 ESE 0.07 4.3 -13.4 --- --- 726.4 0.019 0.000 8.8 7 1
02/20/06 3:09 p -9.1 -9.1 -9.2 --- --- 4.3 ESE 0.07 4.3 -13.4 --- --- 726.5 0.019 0.000 8.8 7 1
02/20/06 3:10 p -9.2 -9.2 -9.2 --- --- 4.3 ESE 0.07 4.3 -13.5 --- --- 726.4 0.019 0.000 8.8 7 1
02/20/06 3:11 p -9.2 -9.2 -9.2 --- --- 4.3 ESE 0.07 5.2 -13.6 --- --- 726.4 0.019 0.000 8.9 7 1
02/20/06 3:12 p -9.3 -9.2 -9.3 --- --- 4.3 ESE 0.07 5.2 -13.6 --- --- 726.4 0.019 0.000 8.9 7 1
02/20/06 3:13 p -9.3 -9.3 -9.3 --- --- 4.3 ESE 0.07 5.2 -13.7 --- --- 726.4 0.019 0.000 8.9 7 1
02/20/06 3:14 p -9.3 -9.3 -9.4 --- --- 4.3 ESE 0.07 5.2 -13.7 --- --- 726.4 0.019 0.000 8.9 7 1
02/20/06 3:15 p -9.4 -9.3 -9.4 --- --- 4.3 ESE 0.07 5.2 -13.8 --- --- 726.4 0.019 0.000 8.9 7 1
02/20/06 3:16 p -9.4 -9.3 -9.4 --- --- 4.3 ESE 0.07 5.2 -13.8 --- --- 726.4 0.019 0.000 8.9 7 1
02/20/06 3:17 p -9.3 -9.3 -9.4 --- --- 4.3 ESE 0.07 5.2 -13.7 --- --- 726.4 0.019 0.000 8.9 7 1
02/20/06 3:18 p -9.3 -9.3 -9.3 --- --- 4.3 SE 0.07 5.2 -13.7 --- --- 726.3 0.019 0.000 9.0 7 1
02/20/06 3:19 p -9.3 -9.3 -9.3 --- --- 5.2 SE 0.09 5.2 -14.3 --- --- 726.4 0.019 0.000 9.0 7 1
02/20/06 3:20 p -9.3 -9.3 -9.3 --- --- 4.3 SE 0.07 5.2 -13.6 --- --- 726.4 0.019 0.000 9.0 7 1
02/20/06 3:21 p -9.3 -9.3 -9.3 --- --- 4.3 SE 0.07 4.3 -13.6 --- --- 726.5 0.019 0.000 9.1 7 1
02/20/06 3:22 p -9.3 -9.3 -9.3 --- --- 4.3 SE 0.07 5.2 -13.6 --- --- 726.4 0.019 0.000 9.1 7 1
02/20/06 3:23 p -9.3 -9.3 -9.3 --- --- 4.3 SE 0.07 5.2 -13.6 --- --- 726.4 0.019 0.000 9.1 7 1
02/20/06 3:24 p -9.3 -9.3 -9.3 --- --- 3.5 SE 0.06 4.3 -12.9 --- --- 726.3 0.019 0.000 9.1 7 1
02/20/06 3:25 p -9.4 -9.4 -9.4 --- --- 4.3 SE 0.07 4.3 -13.8 --- --- 726.4 0.019 0.000 9.1 7 1
02/20/06 3:26 p -9.4 -9.4 -9.4 --- --- 4.3 SE 0.07 4.3 -13.8 --- --- 726.4 0.019 0.000 9.1 7 1
02/20/06 3:27 p -9.4 -9.4 -9.5 --- --- 4.3 ESE 0.07 4.3 -13.8 --- --- 726.4 0.019 0.000 9.1 7 1
02/20/06 3:28 p -9.5 -9.4 -9.5 --- --- 4.3 ESE 0.07 4.3 -13.9 --- --- 726.5 0.019 0.000 9.1 7 1
02/20/06 3:29 p -9.4 -9.4 -9.5 --- --- 4.3 ESE 0.07 4.3 -13.8 --- --- 726.4 0.019 0.000 9.1 7 1
02/20/06 3:30 p -9.5 -9.5 -9.5 --- --- 3.5 ESE 0.06 4.3 -13.2 --- --- 726.4 0.019 0.000 9.2 7 1
02/20/06 3:31 p -9.5 -9.5 -9.5 --- --- 3.5 ESE 0.06 4.3 -13.2 --- --- 726.4 0.019 0.000 9.2 7 1
02/20/06 3:32 p -9.5 -9.5 -9.5 --- --- 3.5 ESE 0.06 4.3 -13.2 --- --- 726.3 0.019 0.000 9.2 7 1
02/20/06 3:33 p -9.5 -9.5 -9.5 --- --- 3.5 ESE 0.06 4.3 -13.2 --- --- 726.4 0.019 0.000 9.2 7 1
02/20/06 3:34 p -9.5 -9.5 -9.6 --- --- 3.5 ESE 0.06 4.3 -13.2 --- --- 726.4 0.019 0.000 9.2 7 1
02/20/06 3:35 p -9.6 -9.6 -9.6 --- --- 3.5 ESE 0.06 4.3 -13.2 --- --- 726.3 0.019 0.000 9.2 7 1
02/20/06 3:36 p -9.6 -9.6 -9.6 --- --- 4.3 ESE 0.07 5.2 -14.0 --- --- 726.3 0.019 0.000 9.2 7 1
02/20/06 3:37 p -9.6 -9.6 -9.6 --- --- 3.5 ESE 0.06 4.3 -13.3 --- --- 726.4 0.019 0.000 9.2 7 1
02/20/06 3:38 p -9.7 -9.6 -9.7 --- --- 3.5 ESE 0.06 4.3 -13.3 --- --- 726.4 0.019 0.000 9.2 7 1
02/20/06 3:39 p -9.7 -9.7 -9.7 --- --- 3.5 ESE 0.06 4.3 -13.4 --- --- 726.4 0.019 0.000 9.3 7 1
02/20/06 3:40 p -9.7 -9.7 -9.8 --- --- 3.5 ESE 0.06 4.3 -13.4 --- --- 726.4 0.019 0.000 9.3 7 1
02/20/06 3:41 p -9.8 -9.8 -9.8 --- --- 3.5 ESE 0.06 4.3 -13.6 --- --- 726.3 0.020 0.000 9.3 7 1
02/20/06 3:42 p -9.8 -9.8 -9.9 --- --- 3.5 ESE 0.06 4.3 -13.6 --- --- 726.4 0.020 0.000 9.3 7 1
02/20/06 3:43 p -9.9 -9.8 -9.9 --- --- 3.5 ESE 0.06 4.3 -13.6 --- --- 726.4 0.020 0.000 9.3 7 1
02/20/06 3:44 p -9.9 -9.8 -9.9 --- --- 3.5 ESE 0.06 4.3 -13.6 --- --- 726.4 0.020 0.000 9.3 7 1
02/20/06 3:45 p -9.9 -9.9 -9.9 --- --- 3.5 ESE 0.06 4.3 -13.7 --- --- 726.4 0.020 0.000 9.3 7 1
02/20/06 3:46 p -9.9 -9.9 -9.9 --- --- 3.5 ESE 0.06 4.3 -13.7 --- --- 726.4 0.020 0.000 9.3 7 1
02/20/06 3:47 p -9.9 -9.9 -9.9 --- --- 3.5 ESE 0.06 4.3 -13.6 --- --- 726.4 0.020 0.000 9.3 7 1
02/20/06 3:48 p -9.9 -9.9 -9.9 --- --- 3.5 ESE 0.06 4.3 -13.7 --- --- 726.4 0.020 0.000 9.3 7 1
02/20/06 3:49 p -9.9 -9.9 -9.9 --- --- 3.5 ESE 0.06 4.3 -13.7 --- --- 726.4 0.020 0.000 9.3 7 1
02/20/06 3:50 p -9.9 -9.9 -9.9 --- --- 3.5 ESE 0.06 4.3 -13.6 --- --- 726.4 0.020 0.000 9.3 7 1
02/20/06 3:51 p -9.9 -9.9 -9.9 --- --- 3.5 ESE 0.06 4.3 -13.6 --- --- 726.3 0.020 0.000 9.3 7 1
02/20/06 3:52 p -9.9 -9.9 -9.9 --- --- 3.5 ESE 0.06 4.3 -13.7 --- --- 726.4 0.020 0.000 9.3 7 1
02/20/06 3:53 p -9.9 -9.9 -10.0 --- --- 3.5 ESE 0.06 4.3 -13.7 --- --- 726.3 0.020 0.000 9.4 7 1
02/20/06 3:54 p -9.9 -9.9 -9.9 --- --- 3.5 ESE 0.06 4.3 -13.7 --- --- 726.4 0.020 0.000 9.4 7 1
02/20/06 3:55 p -9.9 -9.9 -10.0 --- --- 3.5 ESE 0.06 4.3 -13.7 --- --- 726.4 0.020 0.000 9.4 7 1
02/20/06 3:56 p -9.9 -9.9 -10.0 --- --- 3.5 ESE 0.06 4.3 -13.7 --- --- 726.4 0.020 0.000 9.4 7 1
02/20/06 3:57 p -9.9 -9.9 -10.0 --- --- 4.3 ESE 0.07 5.2 -14.4 --- --- 726.4 0.020 0.000 9.4 7 1
02/20/06 3:58 p -9.9 -9.9 -9.9 --- --- 3.5 ESE 0.06 6.1 -13.7 --- --- 726.4 0.020 0.000 9.4 7 1
02/20/06 3:59 p -9.9 -9.9 -9.9 --- --- 4.3 ESE 0.07 4.3 -14.4 --- --- 726.4 0.020 0.000 9.4 7 1
02/20/06 4:00 p -9.9 -9.9 -9.9 --- --- 4.3 ESE 0.07 4.3 -14.4 --- --- 726.5 0.020 0.000 9.4 7 1
02/20/06 4:01 p -9.9 -9.9 -9.9 --- --- 3.5 ESE 0.06 4.3 -13.7 --- --- 726.3 0.020 0.000 9.4 7 1
02/20/06 4:02 p -9.9 -9.9 -9.9 --- --- 2.6 ESE 0.04 3.5 -12.7 --- --- 726.4 0.020 0.000 9.4 7 1
02/20/06 4:03 p -9.9 -9.9 -10.0 --- --- 2.6 ESE 0.04 3.5 -12.7 --- --- 726.4 0.020 0.000 9.4 7 1
02/20/06 4:04 p -9.9 -9.9 -10.0 --- --- 2.6 ESE 0.04 3.5 -12.7 --- --- 726.4 0.020 0.000 9.5 7 1
02/20/06 4:05 p -9.9 -9.9 -10.0 --- --- 2.6 ESE 0.04 3.5 -12.7 --- --- 726.4 0.020 0.000 9.5 7 1
02/20/06 4:06 p -9.9 -9.9 -9.9 --- --- 2.6 ESE 0.04 3.5 -12.7 --- --- 726.3 0.020 0.000 9.5 7 1
02/20/06 4:07 p -9.9 -9.9 -9.9 --- --- 2.6 ESE 0.04 3.5 -12.7 --- --- 726.4 0.020 0.000 9.5 7 1
02/20/06 4:08 p -9.9 -9.9 -9.9 --- --- 1.7 ESE 0.03 2.6 -11.4 --- --- 726.3 0.020 0.000 9.5 7 1
02/20/06 4:09 p -9.9 -9.9 -9.9 --- --- 2.6 ESE 0.04 3.5 -12.7 --- --- 726.4 0.020 0.000 9.5 7 1
02/20/06 4:10 p -9.9 -9.8 -9.9 --- --- 2.6 ESE 0.04 3.5 -12.7 --- --- 726.4 0.020 0.000 9.6 7 1
02/20/06 4:11 p -9.9 -9.8 -9.9 --- --- 2.6 ESE 0.04 2.6 -12.7 --- --- 726.4 0.020 0.000 9.6 7 1
02/20/06 4:12 p -9.8 -9.8 -9.8 --- --- 2.6 ESE 0.04 2.6 -12.6 --- --- 726.4 0.020 0.000 9.6 7 1
02/20/06 4:13 p -9.8 -9.8 -9.8 --- --- 2.6 ESE 0.04 3.5 -12.6 --- --- 726.4 0.020 0.000 9.6 7 1
02/20/06 4:14 p -9.8 -9.8 -9.8 --- --- 1.7 ESE 0.03 2.6 -11.3 --- --- 726.4 0.020 0.000 9.6 7 1
02/20/06 4:15 p -9.8 -9.7 -9.8 --- --- 2.6 ESE 0.04 3.5 -12.6 --- --- 726.4 0.020 0.000 9.6 7 1
02/20/06 4:16 p -9.7 -9.7 -9.7 --- --- 2.6 ESE 0.04 2.6 -12.5 --- --- 726.4 0.019 0.000 9.6 7 1
02/20/06 4:17 p -9.7 -9.7 -9.7 --- --- 2.6 ESE 0.04 3.5 -12.5 --- --- 726.4 0.019 0.000 9.6 7 1
02/20/06 4:18 p -9.7 -9.7 -9.7 --- --- 2.6 ESE 0.04 2.6 -12.5 --- --- 726.4 0.019 0.000 9.6 7 1
02/20/06 4:19 p -9.7 -9.6 -9.7 --- --- 2.6 ESE 0.04 3.5 -12.4 --- --- 726.5 0.019 0.000 9.6 7 1
02/20/06 4:20 p -9.6 -9.6 -9.6 --- --- 2.6 ESE 0.04 3.5 -12.4 --- --- 726.5 0.019 0.000 9.6 7 1
02/20/06 4:21 p -9.6 -9.6 -9.6 --- --- 1.7 ESE 0.03 2.6 -11.1 --- --- 726.5 0.019 0.000 9.6 7 1
02/20/06 4:22 p -9.6 -9.6 -9.6 --- --- 1.7 ESE 0.03 2.6 -11.1 --- --- 726.5 0.019 0.000 9.6 7 1
02/20/06 4:23 p -9.6 -9.6 -9.6 --- --- 2.6 ESE 0.04 2.6 -12.4 --- --- 726.4 0.019 0.000 9.6 7 1
02/20/06 4:24 p -9.6 -9.6 -9.6 --- --- 2.6 ESE 0.04 3.5 -12.3 --- --- 726.4 0.019 0.000 9.6 7 1
02/20/06 4:25 p -9.6 -9.6 -9.6 --- --- 2.6 ESE 0.04 3.5 -12.3 --- --- 726.5 0.019 0.000 9.5 7 1
02/20/06 4:26 p -9.5 -9.5 -9.5 --- --- 1.7 ESE 0.03 2.6 -11.0 --- --- 726.5 0.019 0.000 9.5 7 1
02/20/06 4:27 p -9.4 -9.4 -9.5 --- --- 2.6 ESE 0.04 3.5 -12.2 --- --- 726.5 0.019 0.000 9.5 7 1
02/20/06 4:28 p -9.4 -9.4 -9.4 --- --- 2.6 ESE 0.04 3.5 -12.1 --- --- 726.5 0.019 0.000 9.4 7 1
02/20/06 4:29 p -9.4 -9.4 -9.4 --- --- 2.6 ESE 0.04 3.5 -12.1 --- --- 726.5 0.019 0.000 9.4 7 1
02/20/06 4:30 p -9.3 -9.3 -9.4 --- --- 2.6 ESE 0.04 3.5 -12.1 --- --- 726.5 0.019 0.000 9.4 7 1
02/20/06 4:31 p -9.3 -9.3 -9.3 --- --- 2.6 ESE 0.04 3.5 -12.1 --- --- 726.4 0.019 0.000 9.4 7 1
02/20/06 4:32 p -9.3 -9.3 -9.3 --- --- 2.6 ESE 0.04 3.5 -12.0 --- --- 726.5 0.019 0.000 9.4 7 1
02/20/06 4:33 p -9.3 -9.2 -9.3 --- --- 2.6 ESE 0.04 4.3 -12.0 --- --- 726.5 0.019 0.000 9.4 7 1
02/20/06 4:34 p -9.2 -9.2 -9.3 --- --- 2.6 ESE 0.04 3.5 -11.9 --- --- 726.5 0.019 0.000 9.4 7 1
02/20/06 4:35 p -9.2 -9.2 -9.2 --- --- 3.5 ESE 0.06 3.5 -12.8 --- --- 726.5 0.019 0.000 9.4 7 1
02/20/06 4:36 p -9.2 -9.2 -9.2 --- --- 2.6 ESE 0.04 4.3 -11.8 --- --- 726.5 0.019 0.000 9.3 7 1
02/20/06 4:37 p -9.2 -9.2 -9.2 --- --- 2.6 ESE 0.04 3.5 -11.8 --- --- 726.5 0.019 0.000 9.3 7 1
02/20/06 4:38 p -9.2 -9.1 -9.2 --- --- 2.6 ESE 0.04 3.5 -11.8 --- --- 726.4 0.019 0.000 9.3 7 1
02/20/06 4:39 p -9.1 -9.1 -9.2 --- --- 2.6 ESE 0.04 3.5 -11.8 --- --- 726.6 0.019 0.000 9.3 7 1
02/20/06 4:40 p -9.1 -9.1 -9.1 --- --- 2.6 ESE 0.04 3.5 -11.8 --- --- 726.5 0.019 0.000 9.3 7 1
02/20/06 4:41 p -9.1 -9.1 -9.1 --- --- 2.6 ESE 0.04 3.5 -11.8 --- --- 726.5 0.019 0.000 9.3 7 1
02/20/06 4:42 p -9.1 -9.1 -9.1 --- --- 2.6 ESE 0.04 3.5 -11.7 --- --- 726.4 0.019 0.000 9.3 7 1
02/20/06 4:43 p -9.1 -9.1 -9.1 --- --- 2.6 ESE 0.04 3.5 -11.7 --- --- 726.4 0.019 0.000 9.3 7 1
02/20/06 4:44 p -9.1 -9.0 -9.1 --- --- 1.7 ESE 0.03 2.6 -10.5 --- --- 726.5 0.019 0.000 9.3 7 1
02/20/06 4:45 p -9.1 -9.0 -9.1 --- --- 1.7 ESE 0.03 2.6 -10.5 --- --- 726.5 0.019 0.000 9.3 7 1
02/20/06 4:46 p -9.1 -9.0 -9.1 --- --- 2.6 ESE 0.04 3.5 -11.7 --- --- 726.5 0.019 0.000 9.3 7 1
02/20/06 4:47 p -9.0 -9.0 -9.1 --- --- 2.6 ESE 0.04 3.5 -11.7 --- --- 726.6 0.019 0.000 9.2 7 1
02/20/06 4:48 p -9.0 -9.0 -9.1 --- --- 3.5 ESE 0.06 4.3 -12.6 --- --- 726.5 0.019 0.000 9.2 7 1
02/20/06 4:49 p -9.1 -9.1 -9.1 --- --- 2.6 ESE 0.04 4.3 -11.7 --- --- 726.6 0.019 0.000 9.2 7 1
02/20/06 4:50 p -9.1 -9.1 -9.1 --- --- 3.5 ESE 0.06 4.3 -12.7 --- --- 726.6 0.019 0.000 9.2 7 1
02/20/06 4:51 p -9.1 -9.1 -9.1 --- --- 3.5 ESE 0.06 4.3 -12.7 --- --- 726.6 0.019 0.000 9.2 7 1
02/20/06 4:52 p -9.1 -9.1 -9.1 --- --- 2.6 ESE 0.04 3.5 -11.7 --- --- 726.6 0.019 0.000 9.2 7 1
02/20/06 4:53 p -9.1 -9.0 -9.1 --- --- 2.6 ESE 0.04 3.5 -11.7 --- --- 726.5 0.019 0.000 9.2 7 1
02/20/06 4:54 p -9.0 -9.0 -9.1 --- --- 2.6 ESE 0.04 3.5 -11.7 --- --- 726.6 0.019 0.000 9.2 7 1
02/20/06 4:55 p -9.0 -9.0 -9.1 --- --- 1.7 ESE 0.03 2.6 -10.4 --- --- 726.5 0.019 0.000 9.2 7 1
02/20/06 4:56 p -9.0 -9.0 -9.1 --- --- 1.7 ESE 0.03 2.6 -10.4 --- --- 726.5 0.019 0.000 9.2 7 1
02/20/06 4:57 p -9.0 -9.0 -9.0 --- --- 1.7 ESE 0.03 2.6 -10.4 --- --- 726.5 0.019 0.000 9.2 7 1
02/20/06 4:58 p -9.0 -9.0 -9.0 --- --- 1.7 ESE 0.03 2.6 -10.4 --- --- 726.5 0.019 0.000 9.2 7 1
02/20/06 4:59 p -9.0 -9.0 -9.0 --- --- 2.6 ESE 0.04 2.6 -11.7 --- --- 726.6 0.019 0.000 9.2 7 1
02/20/06 5:00 p -9.0 -9.0 -9.0 --- --- 2.6 ESE 0.04 2.6 -11.7 --- --- 726.6 0.019 0.000 9.2 7 1
02/20/06 5:01 p -9.0 -8.9 -9.0 --- --- 2.6 ESE 0.04 2.6 -11.7 --- --- 726.6 0.019 0.000 9.2 7 1
02/20/06 5:02 p -8.9 -8.9 -9.0 --- --- 2.6 ESE 0.04 3.5 -11.6 --- --- 726.6 0.019 0.000 9.2 7 1
02/20/06 5:03 p -8.9 -8.9 -8.9 --- --- 2.6 ESE 0.04 3.5 -11.6 --- --- 726.5 0.019 0.000 9.2 7 1
02/20/06 5:04 p -8.9 -8.9 -8.9 --- --- 2.6 ESE 0.04 3.5 -11.6 --- --- 726.7 0.019 0.000 9.1 7 1
02/20/06 5:05 p -8.9 -8.9 -8.9 --- --- 2.6 ESE 0.04 3.5 -11.6 --- --- 726.6 0.019 0.000 9.1 7 1
02/20/06 5:06 p -8.9 -8.9 -8.9 --- --- 2.6 ESE 0.04 3.5 -11.6 --- --- 726.5 0.019 0.000 9.1 7 1
02/20/06 5:07 p -8.9 -8.8 -8.9 --- --- 3.5 ESE 0.06 4.3 -12.4 --- --- 726.6 0.019 0.000 9.1 7 1
02/20/06 5:08 p -8.8 -8.8 -8.8 --- --- 3.5 ESE 0.06 4.3 -12.4 --- --- 726.5 0.019 0.000 9.1 7 1
02/20/06 5:09 p -8.8 -8.8 -8.9 --- --- 3.5 ESE 0.06 4.3 -12.4 --- --- 726.5 0.019 0.000 9.1 7 1
02/20/06 5:10 p -8.8 -8.8 -8.8 --- --- 3.5 ESE 0.06 3.5 -12.4 --- --- 726.6 0.019 0.000 9.1 7 1
02/20/06 5:11 p -8.8 -8.8 -8.8 --- --- 3.5 ESE 0.06 4.3 -12.4 --- --- 726.5 0.019 0.000 9.1 7 1
02/20/06 5:12 p -8.8 -8.8 -8.8 --- --- 3.5 ESE 0.06 3.5 -12.4 --- --- 726.5 0.019 0.000 9.1 7 1
02/20/06 5:13 p -8.8 -8.8 -8.8 --- --- 2.6 ESE 0.04 3.5 -11.5 --- --- 726.6 0.019 0.000 9.1 7 1
02/20/06 5:14 p -8.8 -8.8 -8.8 --- --- 2.6 ESE 0.04 3.5 -11.5 --- --- 726.5 0.019 0.000 9.1 7 1
02/20/06 5:15 p -8.8 -8.8 -8.8 --- --- 3.5 ESE 0.06 3.5 -12.4 --- --- 726.6 0.019 0.000 9.1 7 1
02/20/06 5:16 p -8.8 -8.8 -8.8 --- --- 2.6 ESE 0.04 4.3 -11.5 --- --- 726.5 0.019 0.000 9.1 7 1
02/20/06 5:17 p -8.8 -8.8 -8.8 --- --- 2.6 ESE 0.04 3.5 -11.5 --- --- 726.6 0.019 0.000 9.1 7 1
02/20/06 5:18 p -8.8 -8.8 -8.8 --- --- 3.5 ESE 0.06 4.3 -12.4 --- --- 726.6 0.019 0.000 9.1 7 1
02/20/06 5:19 p -8.8 -8.8 -8.8 --- --- 3.5 ESE 0.06 4.3 -12.4 --- --- 726.6 0.019 0.000 9.1 7 1
02/20/06 5:20 p -8.8 -8.8 -8.8 --- --- 2.6 ESE 0.04 4.3 -11.5 --- --- 726.5 0.019 0.000 9.0 7 1
02/20/06 5:21 p -8.8 -8.8 -8.8 --- --- 3.5 ESE 0.06 4.3 -12.4 --- --- 726.6 0.019 0.000 9.0 7 1
02/20/06 5:22 p -8.8 -8.8 -8.8 --- --- 3.5 ESE 0.06 4.3 -12.4 --- --- 726.5 0.019 0.000 9.1 7 1
02/20/06 5:23 p -8.8 -8.8 -8.8 --- --- 3.5 ESE 0.06 4.3 -12.4 --- --- 726.6 0.019 0.000 9.1 7 1
02/20/06 5:24 p -8.8 -8.8 -8.8 --- --- 3.5 ESE 0.06 4.3 -12.4 --- --- 726.5 0.019 0.000 9.1 7 1
02/20/06 5:25 p -8.8 -8.8 -8.8 --- --- 2.6 ESE 0.04 4.3 -11.5 --- --- 726.6 0.019 0.000 9.1 7 1
02/20/06 5:26 p -8.8 -8.8 -8.8 --- --- 3.5 ESE 0.06 4.3 -12.4 --- --- 726.5 0.019 0.000 9.1 7 1
02/20/06 5:27 p -8.8 -8.8 -8.8 --- --- 3.5 ESE 0.06 4.3 -12.3 --- --- 726.5 0.019 0.000 9.0 7 1
02/20/06 5:28 p -8.8 -8.8 -8.8 --- --- 2.6 ESE 0.04 3.5 -11.4 --- --- 726.5 0.019 0.000 9.0 7 1
02/20/06 5:29 p -8.8 -8.8 -8.8 --- --- 3.5 ESE 0.06 4.3 -12.3 --- --- 726.5 0.019 0.000 9.0 7 1
02/20/06 5:30 p -8.8 -8.8 -8.8 --- --- 3.5 ESE 0.06 4.3 -12.3 --- --- 726.5 0.019 0.000 9.0 7 1
02/20/06 5:31 p -8.8 -8.7 -8.8 --- --- 3.5 ESE 0.06 4.3 -12.3 --- --- 726.6 0.019 0.000 9.0 7 1
02/20/06 5:32 p -8.7 -8.7 -8.7 --- --- 3.5 ESE 0.06 4.3 -12.3 --- --- 726.6 0.019 0.000 8.9 7 1
02/20/06 5:33 p -8.7 -8.7 -8.7 --- --- 3.5 ESE 0.06 4.3 -12.3 --- --- 726.6 0.019 0.000 8.9 7 1
02/20/06 5:34 p -8.7 -8.7 -8.7 --- --- 3.5 ESE 0.06 3.5 -12.2 --- --- 726.6 0.019 0.000 8.9 7 1
02/20/06 5:35 p -8.7 -8.7 -8.7 --- --- 3.5 ESE 0.06 4.3 -12.2 --- --- 726.5 0.019 0.000 8.9 7 1
02/20/06 5:36 p -8.7 -8.7 -8.7 --- --- 3.5 ESE 0.06 4.3 -12.2 --- --- 726.5 0.019 0.000 8.9 7 1
02/20/06 5:37 p -8.7 -8.7 -8.7 --- --- 3.5 ESE 0.06 4.3 -12.2 --- --- 726.5 0.019 0.000 8.9 7 1
02/20/06 5:38 p -8.6 -8.6 -8.7 --- --- 3.5 ESE 0.06 4.3 -12.1 --- --- 726.5 0.019 0.000 8.9 7 1
02/20/06 5:39 p -8.6 -8.6 -8.6 --- --- 2.6 ESE 0.04 3.5 -11.2 --- --- 726.5 0.019 0.000 8.9 7 1
02/20/06 5:40 p -8.6 -8.6 -8.6 --- --- 2.6 ESE 0.04 4.3 -11.2 --- --- 726.5 0.019 0.000 8.9 7 1
02/20/06 5:41 p -8.6 -8.6 -8.6 --- --- 2.6 ESE 0.04 3.5 -11.2 --- --- 726.5 0.019 0.000 8.9 7 1
02/20/06 5:42 p -8.5 -8.5 -8.6 --- --- 1.7 ESE 0.03 2.6 -9.9 --- --- 726.5 0.019 0.000 8.9 7 1
02/20/06 5:43 p -8.5 -8.5 -8.5 --- --- 1.7 ESE 0.03 2.6 -9.9 --- --- 726.6 0.019 0.000 8.9 7 1
02/20/06 5:44 p -8.5 -8.4 -8.5 --- --- 1.7 ESE 0.03 2.6 -9.9 --- --- 726.5 0.019 0.000 8.9 7 1
02/20/06 5:45 p -8.4 -8.4 -8.5 --- --- 1.7 ESE 0.03 2.6 -9.8 --- --- 726.5 0.019 0.000 8.9 7 1
02/20/06 5:46 p -8.4 -8.4 -8.5 --- --- 1.7 ESE 0.03 2.6 -9.8 --- --- 726.5 0.019 0.000 8.9 7 1
02/20/06 5:47 p -8.4 -8.4 -8.4 --- --- 1.7 ESE 0.03 2.6 -9.8 --- --- 726.6 0.019 0.000 8.9 7 1
02/20/06 5:48 p -8.4 -8.4 -8.4 --- --- 1.7 ESE 0.03 2.6 -9.8 --- --- 726.5 0.019 0.000 8.9 7 1
02/20/06 5:49 p -8.4 -8.4 -8.4 --- --- 1.7 ESE 0.03 2.6 -9.8 --- --- 726.5 0.019 0.000 8.9 7 1
02/20/06 5:50 p -8.4 -8.4 -8.4 --- --- 1.7 ESE 0.03 2.6 -9.8 --- --- 726.6 0.019 0.000 8.9 7 1
02/20/06 5:51 p -8.4 -8.4 -8.4 --- --- 1.7 ESE 0.03 2.6 -9.8 --- --- 726.6 0.019 0.000 8.9 7 1
02/20/06 5:52 p -8.4 -8.3 -8.4 --- --- 1.7 ESE 0.03 2.6 -9.8 --- --- 726.6 0.019 0.000 8.9 7 1
02/20/06 5:53 p -8.3 -8.3 -8.3 --- --- 1.7 ESE 0.03 2.6 -9.7 --- --- 726.5 0.019 0.000 8.9 7 1
02/20/06 5:54 p -8.3 -8.3 -8.3 --- --- 1.7 ESE 0.03 2.6 -9.7 --- --- 726.6 0.019 0.000 8.9 7 1
02/20/06 5:55 p -8.3 -8.3 -8.3 --- --- 1.7 ESE 0.03 2.6 -9.7 --- --- 726.6 0.018 0.000 8.9 7 1
02/20/06 5:56 p -8.3 -8.3 -8.3 --- --- 1.7 ESE 0.03 2.6 -9.7 --- --- 726.6 0.018 0.000 8.9 7 1
02/20/06 5:57 p -8.2 -8.2 -8.3 --- --- 2.6 ESE 0.04 2.6 -10.8 --- --- 726.5 0.018 0.000 8.9 7 1
02/20/06 5:58 p -8.2 -8.2 -8.2 --- --- 2.6 ESE 0.04 3.5 -10.8 --- --- 726.6 0.018 0.000 8.9 7 1
02/20/06 5:59 p -8.2 -8.2 -8.2 --- --- 2.6 ESE 0.04 3.5 -10.8 --- --- 726.5 0.018 0.000 8.9 7 1
02/20/06 6:00 p -8.2 -8.2 -8.2 --- --- 1.7 ESE 0.03 3.5 -9.6 --- --- 726.5 0.018 0.000 8.9 7 1
02/20/06 6:01 p -8.2 -8.2 -8.2 --- --- 2.6 ESE 0.04 3.5 -10.7 --- --- 726.6 0.018 0.000 8.9 7 1
02/20/06 6:02 p -8.2 -8.2 -8.2 --- --- 3.5 ESE 0.06 4.3 -11.6 --- --- 726.6 0.018 0.000 8.9 7 1
02/20/06 6:03 p -8.2 -8.2 -8.2 --- --- 3.5 ESE 0.06 4.3 -11.6 --- --- 726.6 0.018 0.000 8.8 7 1
02/20/06 6:04 p -8.2 -8.2 -8.2 --- --- 3.5 ESE 0.06 4.3 -11.7 --- --- 726.6 0.018 0.000 8.8 7 1
02/20/06 6:05 p -8.2 -8.2 -8.2 --- --- 3.5 ESE 0.06 4.3 -11.7 --- --- 726.6 0.018 0.000 8.8 8 1
02/20/06 6:06 p -8.2 -8.2 -8.2 --- --- 2.6 ESE 0.04 3.5 -10.8 --- --- 726.6 0.018 0.000 8.8 7 1
02/20/06 6:07 p -8.2 -8.2 -8.2 --- --- 2.6 ESE 0.04 4.3 -10.8 --- --- 726.5 0.018 0.000 8.8 7 1
02/20/06 6:08 p -8.2 -8.2 -8.2 --- --- 2.6 ESE 0.04 4.3 -10.8 --- --- 726.6 0.018 0.000 8.8 7 1
02/20/06 6:09 p -8.2 -8.2 -8.2 --- --- 2.6 ESE 0.04 4.3 -10.8 --- --- 726.7 0.018 0.000 8.8 7 1
02/20/06 6:10 p -8.2 -8.2 -8.2 --- --- 2.6 ESE 0.04 3.5 -10.8 --- --- 726.7 0.018 0.000 8.8 7 1
02/20/06 6:11 p -8.2 -8.2 -8.2 --- --- 2.6 ESE 0.04 3.5 -10.8 --- --- 726.6 0.018 0.000 8.8 7 1
02/20/06 6:12 p -8.2 -8.2 -8.2 --- --- 2.6 ESE 0.04 4.3 -10.8 --- --- 726.5 0.018 0.000 8.8 8 1
02/20/06 6:13 p -8.2 -8.2 -8.2 --- --- 3.5 ESE 0.06 4.3 -11.7 --- --- 726.7 0.018 0.000 8.8 7 1
02/20/06 6:14 p -8.2 -8.2 -8.2 --- --- 2.6 ESE 0.04 5.2 -10.8 --- --- 726.5 0.018 0.000 8.8 8 1
02/20/06 6:15 p -8.3 -8.3 -8.3 --- --- 3.5 ESE 0.06 4.3 -11.7 --- --- 726.6 0.018 0.000 8.8 8 1
02/20/06 6:16 p -8.3 -8.2 -8.3 --- --- 3.5 ESE 0.06 4.3 -11.7 --- --- 726.6 0.018 0.000 8.8 8 1
02/20/06 6:17 p -8.2 -8.2 -8.2 --- --- 4.3 ESE 0.07 5.2 -12.4 --- --- 726.6 0.018 0.000 8.8 8 1
02/20/06 6:18 p -8.2 -8.2 -8.2 --- --- 2.6 ESE 0.04 4.3 -10.7 --- --- 726.6 0.018 0.000 8.8 8 1
02/20/06 6:19 p -8.1 -8.1 -8.1 --- --- 1.7 ESE 0.03 3.5 -9.5 --- --- 726.5 0.018 0.000 8.8 7 1
02/20/06 6:20 p -8.1 -8.1 -8.1 --- --- 2.6 ESE 0.04 2.6 -10.7 --- --- 726.7 0.018 0.000 8.8 7 1
02/20/06 6:21 p -8.1 -8.1 -8.1 --- --- 3.5 ESE 0.06 5.2 -11.6 --- --- 726.6 0.018 0.000 8.8 8 1
02/20/06 6:22 p -8.2 -8.2 -8.2 --- --- 5.2 ESE 0.09 6.1 -12.9 --- --- 726.6 0.018 0.000 8.8 7 1
02/20/06 6:23 p -8.3 -8.2 -8.3 --- --- 5.2 ESE 0.09 7.0 -13.1 --- --- 726.5 0.018 0.000 8.8 7 1
02/20/06 6:24 p -8.3 -8.3 -8.4 --- --- 4.3 ESE 0.07 6.1 -12.5 --- --- 726.6 0.019 0.000 8.8 7 1
02/20/06 6:25 p -8.4 -8.4 -8.5 --- --- 6.1 E 0.10 7.0 -13.8 --- --- 726.7 0.019 0.000 8.8 8 1
02/20/06 6:26 p -8.5 -8.5 -8.5 --- --- 5.2 E 0.09 6.1 -13.3 --- --- 726.7 0.019 0.000 8.8 7 1
02/20/06 6:27 p -8.6 -8.5 -8.6 --- --- 6.1 E 0.10 6.1 -13.9 --- --- 726.6 0.019 0.000 8.8 7 1
02/20/06 6:28 p -8.6 -8.6 -8.6 --- --- 6.1 E 0.10 7.0 -14.0 --- --- 726.6 0.019 0.000 8.8 7 1
02/20/06 6:29 p -8.6 -8.6 -8.6 --- --- 6.1 E 0.10 7.0 -14.0 --- --- 726.7 0.019 0.000 8.8 7 1
02/20/06 6:30 p -8.6 -8.6 -8.6 --- --- 5.2 ENE 0.09 7.0 -13.4 --- --- 726.6 0.019 0.000 8.8 7 1
02/20/06 6:31 p -8.6 -8.5 -8.6 --- --- 6.1 ENE 0.10 7.0 -13.9 --- --- 726.7 0.019 0.000 8.8 7 1
02/20/06 6:32 p -8.5 -8.5 -8.5 --- --- 7.0 ENE 0.12 8.7 -14.3 --- --- 726.6 0.019 0.000 8.8 7 1
02/20/06 6:33 p -8.5 -8.4 -8.5 --- --- 7.0 E 0.12 7.0 -14.3 --- --- 726.5 0.019 0.000 8.8 7 1
02/20/06 6:34 p -8.4 -8.4 -8.4 --- --- 7.0 ENE 0.12 7.8 -14.3 --- --- 726.7 0.019 0.000 8.8 7 1
02/20/06 6:35 p -8.5 -8.4 -8.5 --- --- 7.0 ENE 0.12 7.8 -14.3 --- --- 726.6 0.019 0.000 8.8 7 1
02/20/06 6:36 p -8.5 -8.5 -8.6 --- --- 7.0 ENE 0.12 7.0 -14.3 --- --- 726.6 0.019 0.000 8.8 7 1
02/20/06 6:37 p -8.6 -8.6 -8.6 --- --- 7.0 ENE 0.12 7.8 -14.4 --- --- 726.6 0.019 0.000 8.8 7 1
02/20/06 6:38 p -8.6 -8.6 -8.6 --- --- 7.0 ENE 0.12 7.8 -14.4 --- --- 726.6 0.019 0.000 8.8 7 1
02/20/06 6:39 p -8.6 -8.6 -8.6 --- --- 7.8 ENE 0.13 7.8 -14.9 --- --- 726.5 0.019 0.000 8.8 7 1
02/20/06 6:40 p -8.6 -8.6 -8.6 --- --- 7.0 ENE 0.12 7.8 -14.4 --- --- 726.6 0.019 0.000 8.8 7 1
02/20/06 6:41 p -8.6 -8.6 -8.6 --- --- 7.8 ENE 0.13 7.8 -14.9 --- --- 726.6 0.019 0.000 8.8 7 1
02/20/06 6:42 p -8.6 -8.6 -8.6 --- --- 7.8 ENE 0.13 8.7 -14.9 --- --- 726.6 0.019 0.000 8.8 7 1
02/20/06 6:43 p -8.6 -8.6 -8.6 --- --- 7.0 ENE 0.12 7.8 -14.4 --- --- 726.6 0.019 0.000 8.8 7 1
02/20/06 6:44 p -8.5 -8.5 -8.6 --- --- 7.0 ENE 0.12 7.8 -14.3 --- --- 726.7 0.019 0.000 8.8 7 1
02/20/06 6:45 p -8.5 -8.4 -8.5 --- --- 7.0 ENE 0.12 7.8 -14.3 --- --- 726.6 0.019 0.000 8.8 7 1
02/20/06 6:46 p -8.4 -8.4 -8.4 --- --- 6.1 ENE 0.10 7.0 -13.8 --- --- 726.6 0.019 0.000 8.8 7 1
02/20/06 6:47 p -8.4 -8.4 -8.4 --- --- 6.1 ENE 0.10 7.0 -13.7 --- --- 726.7 0.019 0.000 8.8 7 1
02/20/06 6:48 p -8.4 -8.3 -8.4 --- --- 7.0 ENE 0.12 7.8 -14.2 --- --- 726.7 0.019 0.000 8.8 7 1
02/20/06 6:49 p -8.4 -8.3 -8.4 --- --- 7.8 ENE 0.13 7.8 -14.6 --- --- 726.6 0.019 0.000 8.8 7 1
02/20/06 6:50 p -8.4 -8.4 -8.4 --- --- 7.0 ENE 0.12 7.8 -14.2 --- --- 726.7 0.019 0.000 8.8 8 1
02/20/06 6:51 p -8.4 -8.4 -8.4 --- --- 7.8 ENE 0.13 7.8 -14.6 --- --- 726.6 0.019 0.000 8.8 7 1
02/20/06 6:52 p -8.4 -8.4 -8.4 --- --- 7.0 ENE 0.12 7.8 -14.2 --- --- 726.6 0.019 0.000 8.7 7 1
02/20/06 6:53 p -8.4 -8.4 -8.4 --- --- 7.0 E 0.12 7.8 -14.2 --- --- 726.6 0.019 0.000 8.8 7 1
02/20/06 6:54 p -8.4 -8.4 -8.4 --- --- 7.0 ENE 0.12 7.8 -14.2 --- --- 726.6 0.019 0.000 8.8 8 1
02/20/06 6:55 p -8.4 -8.4 -8.4 --- --- 7.8 ENE 0.13 8.7 -14.7 --- --- 726.7 0.019 0.000 8.8 7 1
02/20/06 6:56 p -8.4 -8.4 -8.5 --- --- 7.0 E 0.12 7.8 -14.3 --- --- 726.7 0.019 0.000 8.7 8 1
02/20/06 6:57 p -8.5 -8.5 -8.5 --- --- 7.0 E 0.12 7.8 -14.3 --- --- 726.6 0.019 0.000 8.7 7 1
02/20/06 6:58 p -8.5 -8.4 -8.5 --- --- 6.1 ENE 0.10 7.8 -13.8 --- --- 726.6 0.019 0.000 8.7 7 1
02/20/06 6:59 p -8.4 -8.4 -8.5 --- --- 6.1 ENE 0.10 7.0 -13.8 --- --- 726.6 0.019 0.000 8.7 7 1
02/20/06 7:00 p -8.4 -8.4 -8.4 --- --- 6.1 ENE 0.10 7.0 -13.8 --- --- 726.6 0.019 0.000 8.7 7 1
02/20/06 7:01 p -8.4 -8.4 -8.4 --- --- 6.1 ENE 0.10 7.0 -13.7 --- --- 726.7 0.019 0.000 8.7 7 1
02/20/06 7:02 p -8.4 -8.4 -8.4 --- --- 6.1 ENE 0.10 7.8 -13.7 --- --- 726.7 0.019 0.000 8.7 7 1
02/20/06 7:03 p -8.4 -8.4 -8.4 --- --- 7.0 ENE 0.12 7.8 -14.2 --- --- 726.7 0.019 0.000 8.7 8 1
02/20/06 7:04 p -8.4 -8.3 -8.4 --- --- 5.2 ENE 0.09 6.1 -13.2 --- --- 726.7 0.019 0.000 8.7 8 1
02/20/06 7:05 p -8.4 -8.4 -8.4 --- --- 6.1 ENE 0.10 7.0 -13.7 --- --- 726.6 0.019 0.000 8.7 8 1
02/20/06 7:06 p -8.4 -8.4 -8.4 --- --- 7.0 ENE 0.12 7.0 -14.2 --- --- 726.7 0.019 0.000 8.7 7 1
02/20/06 7:07 p -8.4 -8.4 -8.4 --- --- 5.2 ENE 0.09 6.1 -13.2 --- --- 726.6 0.019 0.000 8.7 8 1
02/20/06 7:08 p -8.3 -8.3 -8.4 --- --- 4.3 ENE 0.07 5.2 -12.5 --- --- 726.7 0.019 0.000 8.7 7 1
02/20/06 7:09 p -8.4 -8.3 -8.4 --- --- 7.0 ENE 0.12 7.8 -14.2 --- --- 726.6 0.019 0.000 8.7 7 1
02/20/06 7:10 p -8.4 -8.3 -8.4 --- --- 6.1 ENE 0.10 7.0 -13.7 --- --- 726.7 0.019 0.000 8.7 7 1
02/20/06 7:11 p -8.3 -8.3 -8.4 --- --- 6.1 ENE 0.10 7.0 -13.7 --- --- 726.6 0.019 0.000 8.7 7 1
02/20/06 7:12 p -8.3 -8.3 -8.4 --- --- 7.0 ENE 0.12 7.0 -14.1 --- --- 726.7 0.019 0.000 8.8 8 1
02/20/06 7:13 p -8.3 -8.3 -8.3 --- --- 7.0 ENE 0.12 7.8 -14.1 --- --- 726.7 0.019 0.000 8.8 7 1
02/20/06 7:14 p -8.3 -8.3 -8.3 --- --- 7.0 ENE 0.12 7.8 -14.1 --- --- 726.7 0.019 0.000 8.8 8 1
02/20/06 7:15 p -8.4 -8.4 -8.4 --- --- 6.1 ENE 0.10 7.0 -13.7 --- --- 726.7 0.019 0.000 8.8 7 1
02/20/06 7:16 p -8.4 -8.4 -8.4 --- --- 7.0 ENE 0.12 7.8 -14.2 --- --- 726.8 0.019 0.000 8.8 8 1
02/20/06 7:17 p -8.4 -8.4 -8.4 --- --- 7.0 ENE 0.12 7.8 -14.2 --- --- 726.8 0.019 0.000 8.8 7 1
02/20/06 7:18 p -8.4 -8.4 -8.4 --- --- 6.1 ENE 0.10 7.0 -13.7 --- --- 726.6 0.019 0.000 8.8 8 1
02/20/06 7:19 p -8.4 -8.4 -8.4 --- --- 6.1 ENE 0.10 7.8 -13.7 --- --- 726.7 0.019 0.000 8.9 8 1
02/20/06 7:20 p -8.4 -8.4 -8.4 --- --- 7.8 ENE 0.13 7.8 -14.6 --- --- 726.7 0.019 0.000 8.9 8 1
02/20/06 7:21 p -8.4 -8.4 -8.4 --- --- 7.0 ENE 0.12 7.8 -14.2 --- --- 726.6 0.019 0.000 8.9 7 1
02/20/06 7:22 p -8.4 -8.4 -8.4 --- --- 6.1 ENE 0.10 7.0 -13.7 --- --- 726.7 0.019 0.000 8.9 7 1
02/20/06 7:23 p -8.4 -8.4 -8.4 --- --- 6.1 ENE 0.10 7.8 -13.7 --- --- 726.6 0.019 0.000 8.9 7 1
02/20/06 7:24 p -8.3 -8.3 -8.4 --- --- 7.0 ENE 0.12 7.0 -14.1 --- --- 726.6 0.019 0.000 8.8 8 1
02/20/06 7:25 p -8.3 -8.3 -8.3 --- --- 6.1 ENE 0.10 7.0 -13.7 --- --- 726.7 0.019 0.000 8.8 7 1
02/20/06 7:26 p -8.3 -8.3 -8.3 --- --- 6.1 ENE 0.10 7.0 -13.6 --- --- 726.6 0.018 0.000 8.8 8 1
02/20/06 7:27 p -8.3 -8.3 -8.3 --- --- 6.1 ENE 0.10 7.8 -13.6 --- --- 726.6 0.018 0.000 8.8 7 1
02/20/06 7:28 p -8.2 -8.2 -8.2 --- --- 7.0 ENE 0.12 7.8 -14.0 --- --- 726.6 0.018 0.000 8.8 8 1
02/20/06 7:29 p -8.2 -8.2 -8.2 --- --- 5.2 ENE 0.09 7.0 -13.0 --- --- 726.6 0.018 0.000 8.8 7 1
02/20/06 7:30 p -8.2 -8.2 -8.2 --- --- 6.1 ENE 0.10 7.0 -13.4 --- --- 726.7 0.018 0.000 8.8 7 1
02/20/06 7:31 p -8.2 -8.2 -8.2 --- --- 7.0 ENE 0.12 7.8 -14.0 --- --- 726.7 0.018 0.000 8.8 7 1
02/20/06 7:32 p -8.2 -8.2 -8.3 --- --- 6.1 ENE 0.10 7.0 -13.5 --- --- 726.7 0.018 0.000 8.7 8 1
02/20/06 7:33 p -8.3 -8.3 -8.3 --- --- 7.0 NE 0.12 7.8 -14.1 --- --- 726.6 0.018 0.000 8.7 8 1
02/20/06 7:34 p -8.4 -8.3 -8.4 --- --- 7.8 ENE 0.13 8.7 -14.6 --- --- 726.7 0.019 0.000 8.7 8 1
02/20/06 7:35 p -8.4 -8.4 -8.4 --- --- 7.8 ENE 0.13 8.7 -14.6 --- --- 726.7 0.019 0.000 8.7 8 1
02/20/06 7:36 p -8.4 -8.4 -8.4 --- --- 7.8 ENE 0.13 8.7 -14.6 --- --- 726.7 0.019 0.000 8.7 7 1
02/20/06 7:37 p -8.3 -8.3 -8.3 --- --- 7.8 ENE 0.13 8.7 -14.6 --- --- 726.6 0.019 0.000 8.7 8 1
02/20/06 7:38 p -8.3 -8.3 -8.3 --- --- 7.8 ENE 0.13 8.7 -14.6 --- --- 726.6 0.019 0.000 8.7 8 1
02/20/06 7:39 p -8.3 -8.3 -8.3 --- --- 7.0 NE 0.12 7.8 -14.1 --- --- 726.6 0.019 0.000 8.7 8 1
02/20/06 7:40 p -8.3 -8.3 -8.3 --- --- 8.7 NE 0.14 9.6 -14.8 --- --- 726.6 0.018 0.000 8.7 7 1
02/20/06 7:41 p -8.3 -8.3 -8.3 --- --- 8.7 NE 0.14 9.6 -14.9 --- --- 726.6 0.019 0.000 8.7 8 1
02/20/06 7:42 p -8.3 -8.3 -8.4 --- --- 8.7 NE 0.14 9.6 -14.9 --- --- 726.6 0.019 0.000 8.7 8 1
02/20/06 7:43 p -8.3 -8.3 -8.4 --- --- 7.8 NE 0.13 8.7 -14.6 --- --- 726.6 0.019 0.000 8.7 8 1
02/20/06 7:44 p -8.4 -8.4 -8.4 --- --- 7.0 NE 0.12 7.8 -14.2 --- --- 726.6 0.019 0.000 8.7 8 1
02/20/06 7:45 p -8.4 -8.4 -8.4 --- --- 8.7 NE 0.14 9.6 -15.0 --- --- 726.6 0.019 0.000 8.7 7 1
02/20/06 7:46 p -8.4 -8.4 -8.4 --- --- 7.8 NE 0.13 8.7 -14.6 --- --- 726.6 0.019 0.000 8.7 8 1
02/20/06 7:47 p -8.4 -8.4 -8.4 --- --- 7.0 NE 0.12 8.7 -14.2 --- --- 726.6 0.019 0.000 8.7 8 1
02/20/06 7:48 p -8.4 -8.4 -8.4 --- --- 7.8 ENE 0.13 8.7 -14.6 --- --- 726.6 0.019 0.000 8.7 7 1
02/20/06 7:49 p -8.4 -8.4 -8.4 --- --- 7.0 NE 0.12 8.7 -14.2 --- --- 726.7 0.019 0.000 8.7 7 1
02/20/06 7:50 p -8.4 -8.4 -8.4 --- --- 7.0 NE 0.12 7.8 -14.2 --- --- 726.7 0.019 0.000 8.7 8 1
02/20/06 7:51 p -8.4 -8.4 -8.4 --- --- 7.8 ENE 0.13 8.7 -14.6 --- --- 726.7 0.019 0.000 8.7 8 1
02/20/06 7:52 p -8.4 -8.4 -8.4 --- --- 7.0 ENE 0.12 7.8 -14.2 --- --- 726.7 0.019 0.000 8.7 8 1
02/20/06 7:53 p -8.4 -8.4 -8.4 --- --- 7.0 ENE 0.12 7.8 -14.2 --- --- 726.6 0.019 0.000 8.7 8 1
02/20/06 7:54 p -8.4 -8.4 -8.4 --- --- 5.2 ENE 0.09 7.0 -13.2 --- --- 726.7 0.019 0.000 8.7 8 1
02/20/06 7:55 p -8.4 -8.4 -8.4 --- --- 7.0 ENE 0.12 8.7 -14.2 --- --- 726.7 0.019 0.000 8.7 8 1
02/20/06 7:56 p -8.4 -8.4 -8.5 --- --- 7.8 ENE 0.13 7.8 -14.7 --- --- 726.6 0.019 0.000 8.7 7 1
02/20/06 7:57 p -8.5 -8.5 -8.6 --- --- 6.1 E 0.10 8.7 -13.8 --- --- 726.7 0.019 0.000 8.7 8 1
02/20/06 7:58 p -8.6 -8.5 -8.6 --- --- 5.2 E 0.09 7.0 -13.4 --- --- 726.6 0.019 0.000 8.7 8 1
02/20/06 7:59 p -8.7 -8.6 -8.7 --- --- 7.0 E 0.12 8.7 -14.6 --- --- 726.7 0.019 0.000 8.7 8 1
02/20/06 8:00 p -8.7 -8.7 -8.7 --- --- 7.0 E 0.12 8.7 -14.6 --- --- 726.5 0.019 0.000 8.7 8 1
02/20/06 8:01 p -8.7 -8.7 -8.7 --- --- 5.2 E 0.09 7.0 -13.6 --- --- 726.6 0.019 0.000 8.7 8 1
02/20/06 8:02 p -8.7 -8.7 -8.7 --- --- 6.1 E 0.10 7.8 -14.1 --- --- 726.7 0.019 0.000 8.7 8 1
02/20/06 8:03 p -8.7 -8.7 -8.8 --- --- 7.0 E 0.12 7.8 -14.6 --- --- 726.7 0.019 0.000 8.7 7 1
02/20/06 8:04 p -8.7 -8.7 -8.7 --- --- 6.1 E 0.10 7.0 -14.1 --- --- 726.6 0.019 0.000 8.7 8 1
02/20/06 8:05 p -8.7 -8.7 -8.7 --- --- 7.0 E 0.12 7.8 -14.6 --- --- 726.6 0.019 0.000 8.7 8 1
02/20/06 8:06 p -8.7 -8.7 -8.7 --- --- 6.1 E 0.10 7.0 -14.1 --- --- 726.7 0.019 0.000 8.7 8 1
02/20/06 8:07 p -8.7 -8.7 -8.7 --- --- 6.1 E 0.10 7.8 -14.1 --- --- 726.6 0.019 0.000 8.7 7 1
02/20/06 8:08 p -8.7 -8.7 -8.7 --- --- 4.3 E 0.07 7.8 -12.9 --- --- 726.7 0.019 0.000 8.7 8 1
02/20/06 8:09 p -8.7 -8.6 -8.7 --- --- 4.3 E 0.07 6.1 -12.9 --- --- 726.6 0.019 0.000 8.7 7 1
02/20/06 8:10 p -8.6 -8.6 -8.6 --- --- 5.2 E 0.09 7.0 -13.4 --- --- 726.7 0.019 0.000 8.6 8 1
02/20/06 8:11 p -8.6 -8.6 -8.6 --- --- 6.1 ENE 0.10 7.0 -13.9 --- --- 726.6 0.019 0.000 8.7 7 1
02/20/06 8:12 p -8.5 -8.5 -8.6 --- --- 6.1 ENE 0.10 7.0 -13.8 --- --- 726.7 0.019 0.000 8.7 7 1
02/20/06 8:13 p -8.5 -8.4 -8.5 --- --- 5.2 ENE 0.09 6.1 -13.3 --- --- 726.6 0.019 0.000 8.7 8 1
02/20/06 8:14 p -8.4 -8.4 -8.4 --- --- 5.2 ENE 0.09 6.1 -13.3 --- --- 726.6 0.019 0.000 8.7 8 1
02/20/06 8:15 p -8.4 -8.4 -8.4 --- --- 6.1 ENE 0.10 7.0 -13.7 --- --- 726.6 0.019 0.000 8.7 7 1
02/20/06 8:16 p -8.4 -8.4 -8.4 --- --- 5.2 ENE 0.09 7.0 -13.2 --- --- 726.5 0.019 0.000 8.8 8 1
02/20/06 8:17 p -8.4 -8.3 -8.4 --- --- 4.3 ENE 0.07 7.0 -12.6 --- --- 726.6 0.019 0.000 8.8 8 1
02/20/06 8:18 p -8.3 -8.3 -8.3 --- --- 6.1 ENE 0.10 7.0 -13.7 --- --- 726.5 0.019 0.000 8.8 8 1
02/20/06 8:19 p -8.3 -8.3 -8.3 --- --- 6.1 ENE 0.10 6.1 -13.6 --- --- 726.6 0.018 0.000 8.8 7 1
02/20/06 8:20 p -8.3 -8.3 -8.3 --- --- 5.2 ENE 0.09 6.1 -13.1 --- --- 726.5 0.018 0.000 8.9 8 1
02/20/06 8:21 p -8.3 -8.3 -8.3 --- --- 6.1 ENE 0.10 7.0 -13.6 --- --- 726.6 0.018 0.000 8.9 7 1
02/20/06 8:22 p -8.3 -8.3 -8.3 --- --- 5.2 ENE 0.09 6.1 -13.1 --- --- 726.6 0.018 0.000 8.9 8 1
02/20/06 8:23 p -8.3 -8.3 -8.3 --- --- 4.3 E 0.07 7.0 -12.5 --- --- 726.5 0.019 0.000 8.9 7 1
02/20/06 8:24 p -8.4 -8.3 -8.4 --- --- 5.2 ENE 0.09 6.1 -13.2 --- --- 726.5 0.019 0.000 8.9 8 1
02/20/06 8:25 p -8.4 -8.4 -8.4 --- --- 4.3 ENE 0.07 5.2 -12.7 --- --- 726.5 0.019 0.000 8.9 8 1
02/20/06 8:26 p -8.5 -8.5 -8.5 --- --- 4.3 ENE 0.07 5.2 -12.7 --- --- 726.5 0.019 0.000 9.0 8 1
02/20/06 8:27 p -8.6 -8.5 -8.6 --- --- 6.1 ENE 0.10 7.0 -13.9 --- --- 726.6 0.019 0.000 9.0 7 1
02/20/06 8:28 p -8.6 -8.6 -8.7 --- --- 5.2 ENE 0.09 6.1 -13.4 --- --- 726.6 0.019 0.000 9.1 7 1
02/20/06 8:29 p -8.7 -8.6 -8.7 --- --- 5.2 ENE 0.09 6.1 -13.5 --- --- 726.6 0.019 0.000 9.1 7 1
02/20/06 8:30 p -8.7 -8.7 -8.7 --- --- 6.1 ENE 0.10 7.0 -14.1 --- --- 726.5 0.019 0.000 9.1 8 1
02/20/06 8:31 p -8.7 -8.7 -8.8 --- --- 6.1 ENE 0.10 7.0 -14.1 --- --- 726.5 0.019 0.000 9.1 7 1
02/20/06 8:32 p -8.8 -8.8 -8.8 --- --- 6.1 ENE 0.10 7.0 -14.2 --- --- 726.6 0.019 0.000 9.1 8 1
02/20/06 8:33 p -8.8 -8.7 -8.8 --- --- 6.1 ENE 0.10 7.0 -14.2 --- --- 726.6 0.019 0.000 9.1 8 1
02/20/06 8:34 p -8.8 -8.8 -8.8 --- --- 5.2 ENE 0.09 6.1 -13.7 --- --- 726.6 0.019 0.000 9.1 8 1
02/20/06 8:35 p -8.7 -8.7 -8.8 --- --- 6.1 ENE 0.10 7.8 -14.1 --- --- 726.6 0.019 0.000 9.1 8 1
02/20/06 8:36 p -8.8 -8.7 -8.8 --- --- 5.2 E 0.09 7.0 -13.7 --- --- 726.5 0.019 0.000 9.2 8 1
02/20/06 8:37 p -8.8 -8.8 -8.8 --- --- 7.0 ENE 0.12 7.8 -14.7 --- --- 726.6 0.019 0.000 9.2 7 1
02/20/06 8:38 p -8.8 -8.8 -8.8 --- --- 6.1 ENE 0.10 7.8 -14.3 --- --- 726.6 0.019 0.000 9.2 7 1
02/20/06 8:39 p -8.8 -8.7 -8.8 --- --- 6.1 ENE 0.10 7.8 -14.2 --- --- 726.6 0.019 0.000 9.2 8 1
02/20/06 8:40 p -8.7 -8.7 -8.8 --- --- 6.1 ENE 0.10 7.0 -14.1 --- --- 726.6 0.019 0.000 9.2 8 1
02/20/06 8:41 p -8.7 -8.7 -8.8 --- --- 6.1 ENE 0.10 7.8 -14.1 --- --- 726.6 0.019 0.000 9.2 7 1
02/20/06 8:42 p -8.7 -8.7 -8.7 --- --- 7.0 ENE 0.12 7.8 -14.6 --- --- 726.6 0.019 0.000 9.2 7 1
02/20/06 8:43 p -8.7 -8.7 -8.7 --- --- 6.1 ENE 0.10 7.8 -14.1 --- --- 726.6 0.019 0.000 9.3 7 1
02/20/06 8:44 p -8.7 -8.7 -8.7 --- --- 6.1 ENE 0.10 7.8 -14.1 --- --- 726.6 0.019 0.000 9.3 8 1
02/20/06 8:45 p -8.7 -8.7 -8.7 --- --- 5.2 ENE 0.09 6.1 -13.5 --- --- 726.6 0.019 0.000 9.3 7 1
02/20/06 8:46 p -8.7 -8.6 -8.7 --- --- 6.1 ENE 0.10 7.8 -14.1 --- --- 726.6 0.019 0.000 9.3 7 1
02/20/06 8:47 p -8.6 -8.6 -8.6 --- --- 5.2 ENE 0.09 7.0 -13.4 --- --- 726.6 0.019 0.000 9.3 7 1
02/20/06 8:48 p -8.6 -8.6 -8.6 --- --- 4.3 E 0.07 6.1 -12.8 --- --- 726.6 0.019 0.000 9.3 7 1
02/20/06 8:49 p -8.6 -8.5 -8.6 --- --- 4.3 E 0.07 5.2 -12.8 --- --- 726.6 0.019 0.000 9.3 7 1
02/20/06 8:50 p -8.5 -8.5 -8.5 --- --- 4.3 E 0.07 6.1 -12.7 --- --- 726.7 0.019 0.000 9.3 7 1
02/20/06 8:51 p -8.5 -8.4 -8.5 --- --- 5.2 E 0.09 7.0 -13.3 --- --- 726.5 0.019 0.000 9.3 7 1
02/20/06 8:52 p -8.4 -8.4 -8.5 --- --- 4.3 E 0.07 5.2 -12.7 --- --- 726.6 0.019 0.000 9.3 7 1
02/20/06 8:53 p -8.4 -8.4 -8.4 --- --- 4.3 E 0.07 6.1 -12.7 --- --- 726.6 0.019 0.000 9.4 7 1
02/20/06 8:54 p -8.5 -8.4 -8.5 --- --- 5.2 E 0.09 7.8 -13.3 --- --- 726.6 0.019 0.000 9.4 7 1
02/20/06 8:55 p -8.5 -8.5 -8.5 --- --- 6.1 E 0.10 7.8 -13.8 --- --- 726.6 0.019 0.000 9.4 7 1
02/20/06 8:56 p -8.4 -8.4 -8.4 --- --- 6.1 E 0.10 7.0 -13.8 --- --- 726.6 0.019 0.000 9.4 7 1
02/20/06 8:57 p -8.4 -8.4 -8.4 --- --- 6.1 E 0.10 7.8 -13.7 --- --- 726.7 0.019 0.000 9.4 7 1
02/20/06 8:58 p -8.4 -8.4 -8.4 --- --- 5.2 ENE 0.09 6.1 -13.2 --- --- 726.7 0.019 0.000 9.4 7 1
02/20/06 8:59 p -8.3 -8.3 -8.3 --- --- 6.1 ENE 0.10 7.8 -13.7 --- --- 726.6 0.019 0.000 9.4 7 1
02/20/06 9:00 p -8.3 -8.3 -8.3 --- --- 6.1 ENE 0.10 7.0 -13.7 --- --- 726.6 0.019 0.000 9.4 7 1
02/20/06 9:01 p -8.3 -8.3 -8.4 --- --- 5.2 E 0.09 6.1 -13.1 --- --- 726.7 0.019 0.000 9.4 7 1
02/20/06 9:02 p -8.4 -8.4 -8.4 --- --- 5.2 E 0.09 7.0 -13.2 --- --- 726.7 0.019 0.000 9.4 7 1
02/20/06 9:03 p -8.4 -8.4 -8.4 --- --- 4.3 E 0.07 6.1 -12.6 --- --- 726.7 0.019 0.000 9.5 7 1
02/20/06 9:04 p -8.4 -8.4 -8.4 --- --- 4.3 E 0.07 6.1 -12.6 --- --- 726.7 0.019 0.000 9.5 7 1
02/20/06 9:05 p -8.4 -8.4 -8.4 --- --- 4.3 E 0.07 6.1 -12.6 --- --- 726.7 0.019 0.000 9.5 7 1
02/20/06 9:06 p -8.3 -8.3 -8.4 --- --- 4.3 E 0.07 6.1 -12.5 --- --- 726.7 0.019 0.000 9.5 7 1
02/20/06 9:07 p -8.3 -8.3 -8.4 --- --- 4.3 E 0.07 6.1 -12.5 --- --- 726.7 0.019 0.000 9.5 7 1
02/20/06 9:08 p -8.3 -8.3 -8.3 --- --- 7.0 E 0.12 7.8 -14.1 --- --- 726.8 0.019 0.000 9.5 7 1
02/20/06 9:09 p -8.3 -8.2 -8.3 --- --- 8.7 ESE 0.14 9.6 -14.8 --- --- 726.7 0.018 0.000 9.6 7 1
02/20/06 9:10 p -8.2 -8.2 -8.2 --- --- 9.6 ESE 0.16 10.4 -15.1 --- --- 726.8 0.018 0.000 9.6 7 1
02/20/06 9:11 p -8.2 -8.1 -8.2 --- --- 8.7 E 0.14 10.4 -14.7 --- --- 726.6 0.018 0.000 9.6 7 1
02/20/06 9:12 p -8.1 -8.1 -8.1 --- --- 8.7 E 0.14 10.4 -14.7 --- --- 726.8 0.018 0.000 9.6 7 1
02/20/06 9:13 p -8.1 -8.1 -8.1 --- --- 7.8 E 0.13 9.6 -14.3 --- --- 726.7 0.018 0.000 9.6 7 1
02/20/06 9:14 p -8.1 -8.0 -8.1 --- --- 7.0 E 0.12 9.6 -13.8 --- --- 726.7 0.018 0.000 9.6 7 1
02/20/06 9:15 p -8.0 -8.0 -8.1 --- --- 7.0 E 0.12 9.6 -13.7 --- --- 726.7 0.018 0.000 9.6 7 1
02/20/06 9:16 p -8.0 -8.0 -8.0 --- --- 6.1 E 0.10 8.7 -13.3 --- --- 726.6 0.018 0.000 9.6 7 1
02/20/06 9:17 p -8.0 -7.9 -8.0 --- --- 7.0 E 0.12 7.8 -13.7 --- --- 726.7 0.018 0.000 9.6 7 1
02/20/06 9:18 p -8.0 -8.0 -8.0 --- --- 6.1 E 0.10 8.7 -13.3 --- --- 726.7 0.018 0.000 9.6 7 1
02/20/06 9:19 p -8.0 -8.0 -8.0 --- --- 6.1 E 0.10 8.7 -13.3 --- --- 726.7 0.018 0.000 9.6 7 1
02/20/06 9:20 p -7.9 -7.9 -7.9 --- --- 6.1 E 0.10 8.7 -13.2 --- --- 726.8 0.018 0.000 9.6 7 1
02/20/06 9:21 p -7.9 -7.9 -8.0 --- --- 5.2 E 0.09 7.0 -12.7 --- --- 726.7 0.018 0.000 9.6 7 1
02/20/06 9:22 p -8.0 -8.0 -8.0 --- --- 6.1 E 0.10 7.8 -13.3 --- --- 726.7 0.018 0.000 9.6 7 1
02/20/06 9:23 p -8.0 -7.9 -8.0 --- --- 7.0 E 0.12 8.7 -13.7 --- --- 726.7 0.018 0.000 9.6 7 1
02/20/06 9:24 p -7.9 -7.9 -8.0 --- --- 5.2 E 0.09 7.0 -12.7 --- --- 726.8 0.018 0.000 9.6 7 1
02/20/06 9:25 p -7.9 -7.9 -8.0 --- --- 5.2 ESE 0.09 7.8 -12.7 --- --- 726.8 0.018 0.000 9.6 7 1
02/20/06 9:26 p -7.8 -7.8 -7.8 --- --- 6.1 ESE 0.10 7.8 -13.1 --- --- 726.7 0.018 0.000 9.6 7 1
02/20/06 9:27 p -7.8 -7.8 -7.8 --- --- 6.1 E 0.10 7.0 -13.0 --- --- 726.8 0.018 0.000 9.6 7 1
02/20/06 9:28 p -7.8 -7.7 -7.8 --- --- 6.1 E 0.10 7.8 -13.0 --- --- 726.8 0.018 0.000 9.5 7 1
02/20/06 9:29 p -7.8 -7.7 -7.8 --- --- 5.2 E 0.09 7.0 -12.4 --- --- 726.8 0.018 0.000 9.5 7 1
02/20/06 9:30 p -7.8 -7.8 -7.8 --- --- 6.1 E 0.10 7.8 -13.1 --- --- 726.8 0.018 0.000 9.5 7 1
02/20/06 9:31 p -7.8 -7.8 -7.8 --- --- 4.3 E 0.07 7.0 -11.9 --- --- 726.8 0.018 0.000 9.5 7 1
02/20/06 9:32 p -7.8 -7.8 -7.8 --- --- 7.0 E 0.12 8.7 -13.4 --- --- 726.8 0.018 0.000 9.4 7 1
02/20/06 9:33 p -7.8 -7.8 -7.8 --- --- 6.1 E 0.10 7.8 -13.1 --- --- 726.9 0.018 0.000 9.4 7 1
02/20/06 9:34 p -7.8 -7.7 -7.8 --- --- 6.1 E 0.10 7.8 -13.0 --- --- 726.8 0.018 0.000 9.4 7 1
02/20/06 9:35 p -7.8 -7.8 -7.8 --- --- 5.2 E 0.09 7.0 -12.4 --- --- 726.9 0.018 0.000 9.4 7 1
02/20/06 9:36 p -7.8 -7.8 -7.8 --- --- 5.2 E 0.09 7.0 -12.6 --- --- 726.8 0.018 0.000 9.4 7 1
02/20/06 9:37 p -7.8 -7.8 -7.8 --- --- 6.1 E 0.10 7.8 -13.1 --- --- 726.9 0.018 0.000 9.4 7 1
02/20/06 9:38 p -7.8 -7.8 -7.8 --- --- 6.1 E 0.10 7.8 -13.1 --- --- 726.8 0.018 0.000 9.4 7 1
02/20/06 9:39 p -7.8 -7.8 -7.8 --- --- 6.1 E 0.10 7.8 -13.1 --- --- 726.9 0.018 0.000 9.4 7 1
02/20/06 9:40 p -7.9 -7.8 -7.9 --- --- 6.1 E 0.10 8.7 -13.1 --- --- 726.8 0.018 0.000 9.4 7 1
02/20/06 9:41 p -7.9 -7.8 -7.9 --- --- 6.1 ESE 0.10 7.8 -13.1 --- --- 726.9 0.018 0.000 9.4 7 1
02/20/06 9:42 p -7.8 -7.7 -7.8 --- --- 7.0 E 0.12 8.7 -13.4 --- --- 726.8 0.018 0.000 9.4 7 1
02/20/06 9:43 p -7.7 -7.6 -7.7 --- --- 7.0 E 0.12 8.7 -13.3 --- --- 726.8 0.018 0.000 9.4 7 1
02/20/06 9:44 p -7.6 -7.5 -7.6 --- --- 6.1 E 0.10 7.8 -12.7 --- --- 726.8 0.018 0.000 9.4 7 1
02/20/06 9:45 p -7.4 -7.4 -7.5 --- --- 7.8 ESE 0.13 9.6 -13.4 --- --- 726.8 0.018 0.000 9.3 7 1
02/20/06 9:46 p -7.3 -7.2 -7.4 --- --- 5.2 E 0.09 7.8 -11.9 --- --- 726.8 0.018 0.000 9.3 7 1
02/20/06 9:47 p -7.2 -7.2 -7.3 --- --- 5.2 E 0.09 7.8 -11.8 --- --- 726.8 0.018 0.000 9.3 8 1
02/20/06 9:48 p -7.2 -7.1 -7.2 --- --- 7.8 SE 0.13 8.7 -13.1 --- --- 727.0 0.018 0.000 9.3 7 1
02/20/06 9:49 p -7.1 -7.1 -7.2 --- --- 6.1 ESE 0.10 7.8 -12.2 --- --- 726.9 0.018 0.000 9.3 8 1
02/20/06 9:50 p -7.1 -7.1 -7.1 --- --- 6.1 ESE 0.10 7.8 -12.2 --- --- 726.8 0.018 0.000 9.3 8 1
02/20/06 9:51 p -7.0 -7.0 -7.1 --- --- 6.1 ESE 0.10 7.8 -12.1 --- --- 726.8 0.018 0.000 9.3 7 1
02/20/06 9:52 p -6.9 -6.9 -6.9 --- --- 7.0 ESE 0.12 7.8 -12.4 --- --- 726.9 0.018 0.000 9.3 8 1
02/20/06 9:53 p -6.8 -6.8 -6.9 --- --- 5.2 ESE 0.09 7.0 -11.3 --- --- 726.9 0.017 0.000 9.3 7 1
02/20/06 9:54 p -6.8 -6.7 -6.8 --- --- 5.2 E 0.09 6.1 -11.3 --- --- 726.8 0.017 0.000 9.3 8 1
02/20/06 9:55 p -6.7 -6.7 -6.7 --- --- 5.2 E 0.09 6.1 -11.2 --- --- 726.8 0.017 0.000 9.3 7 1
02/20/06 9:56 p -6.7 -6.7 -6.7 --- --- 5.2 E 0.09 7.0 -11.2 --- --- 726.9 0.017 0.000 9.3 8 1
02/20/06 9:57 p -6.7 -6.7 -6.7 --- --- 5.2 E 0.09 7.0 -11.2 --- --- 726.9 0.017 0.000 9.3 8 1
02/20/06 9:58 p -6.7 -6.7 -6.7 --- --- 5.2 E 0.09 7.0 -11.2 --- --- 726.8 0.017 0.000 9.3 8 1
02/20/06 9:59 p -6.7 -6.7 -6.7 --- --- 6.1 E 0.10 7.8 -11.7 --- --- 726.9 0.017 0.000 9.3 8 1
02/20/06 10:00 p -6.7 -6.7 -6.7 --- --- 5.2 E 0.09 7.0 -11.2 --- --- 726.8 0.017 0.000 9.3 8 1
02/20/06 10:01 p -6.7 -6.7 -6.8 --- --- 5.2 E 0.09 7.8 -11.2 --- --- 726.9 0.017 0.000 9.3 8 1
02/20/06 10:02 p -6.8 -6.8 -6.8 --- --- 6.1 E 0.10 7.0 -11.8 --- --- 726.8 0.017 0.000 9.3 8 1
02/20/06 10:03 p -6.7 -6.7 -6.8 --- --- 4.3 ESE 0.07 6.1 -10.6 --- --- 726.8 0.017 0.000 9.3 8 1
02/20/06 10:04 p -6.7 -6.7 -6.7 --- --- 6.1 E 0.10 7.8 -11.7 --- --- 726.8 0.017 0.000 9.3 8 1
02/20/06 10:05 p -6.7 -6.6 -6.7 --- --- 5.2 ESE 0.09 6.1 -11.2 --- --- 726.9 0.017 0.000 9.2 7 1
02/20/06 10:06 p -6.6 -6.6 -6.6 --- --- 6.1 ESE 0.10 7.0 -11.6 --- --- 726.8 0.017 0.000 9.3 8 1
02/20/06 10:07 p -6.6 -6.5 -6.6 --- --- 6.1 ESE 0.10 7.0 -11.5 --- --- 726.9 0.017 0.000 9.2 8 1
02/20/06 10:08 p -6.6 -6.5 -6.6 --- --- 6.1 ESE 0.10 7.0 -11.5 --- --- 726.9 0.017 0.000 9.2 8 1
02/20/06 10:09 p -6.6 -6.6 -6.6 --- --- 6.1 SE 0.10 7.8 -11.5 --- --- 726.9 0.017 0.000 9.2 8 1
02/20/06 10:10 p -6.6 -6.6 -6.6 --- --- 7.8 SE 0.13 9.6 -12.3 --- --- 726.9 0.017 0.000 9.2 8 1
02/20/06 10:11 p -6.6 -6.6 -6.6 --- --- 7.8 SE 0.13 8.7 -12.3 --- --- 726.8 0.017 0.000 9.2 8 1
02/20/06 10:12 p -6.6 -6.6 -6.6 --- --- 8.7 SE 0.14 9.6 -12.7 --- --- 726.8 0.017 0.000 9.2 8 1
02/20/06 10:13 p -6.6 -6.6 -6.6 --- --- 7.8 SE 0.13 8.7 -12.4 --- --- 726.7 0.017 0.000 9.2 8 1
02/20/06 10:14 p -6.6 -6.6 -6.6 --- --- 7.0 SE 0.12 8.7 -11.9 --- --- 726.7 0.017 0.000 9.2 8 1
02/20/06 10:15 p -6.6 -6.6 -6.6 --- --- 7.8 SE 0.13 7.8 -12.3 --- --- 726.9 0.017 0.000 9.2 8 1
02/20/06 10:16 p -6.5 -6.5 -6.5 --- --- 6.1 SE 0.10 7.0 -11.4 --- --- 726.8 0.017 0.000 9.2 8 1
02/20/06 10:17 p -6.5 -6.5 -6.5 --- --- 6.1 SE 0.10 7.0 -11.4 --- --- 726.8 0.017 0.000 9.2 8 1
02/20/06 10:18 p -6.5 -6.4 -6.5 --- --- 7.0 SE 0.12 8.7 -11.9 --- --- 726.8 0.017 0.000 9.2 8 1
02/20/06 10:19 p -6.4 -6.4 -6.4 --- --- 7.0 SE 0.12 8.7 -11.8 --- --- 726.9 0.017 0.000 9.2 8 1
02/20/06 10:20 p -6.4 -6.4 -6.4 --- --- 7.0 SE 0.12 8.7 -11.8 --- --- 726.9 0.017 0.000 9.2 8 1
02/20/06 10:21 p -6.4 -6.4 -6.4 --- --- 7.0 SE 0.12 7.8 -11.8 --- --- 726.9 0.017 0.000 9.2 8 1
02/20/06 10:22 p -6.4 -6.4 -6.4 --- --- 6.1 SE 0.10 7.0 -11.3 --- --- 726.8 0.017 0.000 9.2 8 1
02/20/06 10:23 p -6.4 -6.4 -6.4 --- --- 6.1 SE 0.10 7.0 -11.3 --- --- 726.9 0.017 0.000 9.2 8 1
02/20/06 10:24 p -6.4 -6.3 -6.4 --- --- 6.1 SE 0.10 7.0 -11.3 --- --- 726.8 0.017 0.000 9.2 8 1
02/20/06 10:25 p -6.4 -6.4 -6.4 --- --- 6.1 SE 0.10 7.0 -11.3 --- --- 726.8 0.017 0.000 9.2 8 1
02/20/06 10:26 p -6.4 -6.4 -6.4 --- --- 6.1 SE 0.10 7.0 -11.4 --- --- 726.7 0.017 0.000 9.2 8 1
02/20/06 10:27 p -6.3 -6.3 -6.4 --- --- 5.2 SE 0.09 6.1 -10.7 --- --- 726.7 0.017 0.000 9.2 8 1
02/20/06 10:28 p -6.4 -6.3 -6.4 --- --- 5.2 SE 0.09 6.1 -10.8 --- --- 726.8 0.017 0.000 9.2 8 1
02/20/06 10:29 p -6.3 -6.2 -6.3 --- --- 5.2 ESE 0.09 5.2 -10.7 --- --- 726.8 0.017 0.000 9.2 8 1
02/20/06 10:30 p -6.2 -6.2 -6.2 --- --- 4.3 ESE 0.07 5.2 -10.0 --- --- 726.8 0.017 0.000 9.2 8 1
02/20/06 10:31 p -6.1 -6.0 -6.1 --- --- 5.2 ESE 0.09 7.0 -10.4 --- --- 726.8 0.017 0.000 9.2 8 1
02/20/06 10:32 p -6.0 -6.0 -6.0 --- --- 5.2 ESE 0.09 6.1 -10.3 --- --- 726.8 0.017 0.000 9.2 8 1
02/20/06 10:33 p -5.9 -5.9 -6.0 --- --- 5.2 ESE 0.09 6.1 -10.3 --- --- 726.8 0.017 0.000 9.2 8 1
02/20/06 10:34 p -5.8 -5.8 -5.9 --- --- 6.1 ESE 0.10 7.0 -10.7 --- --- 726.7 0.017 0.000 9.2 8 1
02/20/06 10:35 p -5.8 -5.7 -5.8 --- --- 6.1 ESE 0.10 7.0 -10.6 --- --- 726.8 0.017 0.000 9.2 8 1
02/20/06 10:36 p -5.7 -5.7 -5.8 --- --- 6.1 ESE 0.10 7.0 -10.5 --- --- 726.8 0.017 0.000 9.2 8 1
02/20/06 10:37 p -5.8 -5.8 -5.9 --- --- 6.1 ESE 0.10 7.0 -10.7 --- --- 726.8 0.017 0.000 9.2 8 1
02/20/06 10:38 p -5.9 -5.8 -5.9 --- --- 6.1 ESE 0.10 7.0 -10.7 --- --- 726.8 0.017 0.000 9.2 8 1
02/20/06 10:39 p -5.9 -5.8 -5.9 --- --- 7.0 ESE 0.12 7.8 -11.2 --- --- 726.8 0.017 0.000 9.2 8 1
02/20/06 10:40 p -6.0 -5.9 -6.0 --- --- 6.1 SE 0.10 7.0 -10.8 --- --- 726.8 0.017 0.000 9.2 8 1
02/20/06 10:41 p -6.0 -6.0 -6.1 --- --- 6.1 ESE 0.10 7.8 -10.8 --- --- 726.9 0.017 0.000 9.1 8 1
02/20/06 10:42 p -6.1 -6.0 -6.1 --- --- 7.0 ESE 0.12 7.8 -11.3 --- --- 726.8 0.017 0.000 9.1 8 1
02/20/06 10:43 p -6.0 -5.9 -6.0 --- --- 6.1 ESE 0.10 7.0 -10.8 --- --- 726.8 0.017 0.000 9.1 8 1
02/20/06 10:44 p -6.1 -6.0 -6.1 --- --- 7.0 SE 0.12 7.8 -11.3 --- --- 726.9 0.017 0.000 9.1 8 1
02/20/06 10:45 p -6.1 -6.1 -6.1 --- --- 7.8 SE 0.13 8.7 -11.8 --- --- 726.8 0.017 0.000 9.2 8 1
02/20/06 10:46 p -6.1 -6.1 -6.2 --- --- 6.1 SE 0.10 7.8 -11.0 --- --- 726.7 0.017 0.000 9.1 8 1
02/20/06 10:47 p -6.1 -6.1 -6.1 --- --- 5.2 ESE 0.09 6.1 -10.4 --- --- 726.8 0.017 0.000 9.1 8 1
02/20/06 10:48 p -6.1 -6.0 -6.1 --- --- 5.2 ESE 0.09 7.0 -10.4 --- --- 726.8 0.017 0.000 9.1 8 1
02/20/06 10:49 p -6.0 -6.0 -6.1 --- --- 5.2 ESE 0.09 6.1 -10.3 --- --- 726.8 0.017 0.000 9.2 8 1
02/20/06 10:50 p -6.1 -6.1 -6.1 --- --- 5.2 ESE 0.09 6.1 -10.5 --- --- 726.8 0.017 0.000 9.2 8 1
02/20/06 10:51 p -6.2 -6.1 -6.2 --- --- 5.2 ESE 0.09 6.1 -10.6 --- --- 726.8 0.017 0.000 9.2 8 1
02/20/06 10:52 p -6.1 -6.1 -6.2 --- --- 5.2 ESE 0.09 7.0 -10.5 --- --- 726.8 0.017 0.000 9.2 8 1
02/20/06 10:53 p -6.2 -6.2 -6.2 --- --- 6.1 ESE 0.10 7.0 -11.1 --- --- 726.8 0.017 0.000 9.1 8 1
02/20/06 10:54 p -6.2 -6.2 -6.3 --- --- 6.1 ESE 0.10 7.8 -11.1 --- --- 726.8 0.017 0.000 9.1 8 1
02/20/06 10:55 p -6.2 -6.2 -6.2 --- --- 5.2 ESE 0.09 6.1 -10.6 --- --- 726.8 0.017 0.000 9.1 8 1
02/20/06 10:56 p -6.1 -6.1 -6.2 --- --- 5.2 ESE 0.09 6.1 -10.5 --- --- 726.8 0.017 0.000 9.1 8 1
02/20/06 10:57 p -6.2 -6.1 -6.2 --- --- 5.2 ESE 0.09 6.1 -10.6 --- --- 726.9 0.017 0.000 9.1 8 1
02/20/06 10:58 p -6.1 -6.1 -6.1 --- --- 4.3 ESE 0.07 5.2 -9.9 --- --- 726.9 0.017 0.000 9.1 8 1
02/20/06 10:59 p -6.1 -6.0 -6.1 --- --- 4.3 ESE 0.07 5.2 -9.8 --- --- 726.8 0.017 0.000 9.1 8 1
02/20/06 11:00 p -5.9 -5.9 -6.0 --- --- 4.3 ESE 0.07 5.2 -9.7 --- --- 726.9 0.017 0.000 9.1 8 1
02/20/06 11:01 p -6.0 -5.9 -6.0 --- --- 5.2 ESE 0.09 6.1 -10.3 --- --- 726.9 0.017 0.000 9.1 8 1
02/20/06 11:02 p -6.0 -6.0 -6.0 --- --- 4.3 ESE 0.07 5.2 -9.8 --- --- 726.9 0.017 0.000 9.1 8 1
02/20/06 11:03 p -6.0 -6.0 -6.1 --- --- 3.5 ESE 0.06 4.3 -9.1 --- --- 726.8 0.017 0.000 9.1 8 1
02/20/06 11:04 p -6.1 -6.1 -6.1 --- --- 3.5 ESE 0.06 4.3 -9.2 --- --- 726.9 0.017 0.000 9.1 8 1
02/20/06 11:05 p -6.2 -6.2 -6.3 --- --- 4.3 ESE 0.07 5.2 -10.1 --- --- 726.8 0.017 0.000 9.1 8 1
02/20/06 11:06 p -6.3 -6.3 -6.4 --- --- 4.3 E 0.07 6.1 -10.2 --- --- 726.8 0.017 0.000 9.1 8 1
02/20/06 11:07 p -6.4 -6.4 -6.5 --- --- 5.2 E 0.09 6.1 -10.9 --- --- 726.9 0.017 0.000 9.1 8 1
02/20/06 11:08 p -6.6 -6.5 -6.6 --- --- 5.2 ENE 0.09 6.1 -11.0 --- --- 726.8 0.017 0.000 9.1 8 1
02/20/06 11:09 p -6.6 -6.6 -6.6 --- --- 6.1 ENE 0.10 7.0 -11.6 --- --- 726.8 0.017 0.000 9.1 8 1
02/20/06 11:10 p -6.7 -6.6 -6.7 --- --- 6.1 ENE 0.10 7.0 -11.7 --- --- 726.9 0.017 0.000 9.1 8 1
02/20/06 11:11 p -6.7 -6.7 -6.8 --- --- 6.1 ENE 0.10 7.0 -11.7 --- --- 726.8 0.017 0.000 9.1 8 1
02/20/06 11:12 p -6.8 -6.8 -6.8 --- --- 6.1 ENE 0.10 7.0 -11.8 --- --- 726.8 0.017 0.000 9.1 8 1
02/20/06 11:13 p -6.8 -6.8 -6.8 --- --- 6.1 ENE 0.10 6.1 -11.8 --- --- 726.9 0.017 0.000 9.1 8 1
02/20/06 11:14 p -6.8 -6.7 -6.8 --- --- 5.2 ENE 0.09 6.1 -11.3 --- --- 726.9 0.017 0.000 9.1 8 1
02/20/06 11:15 p -6.7 -6.7 -6.7 --- --- 5.2 ENE 0.09 6.1 -11.2 --- --- 726.9 0.017 0.000 9.1 8 1
02/20/06 11:16 p -6.7 -6.7 -6.7 --- --- 5.2 ENE 0.09 6.1 -11.2 --- --- 726.9 0.017 0.000 9.1 8 1
02/20/06 11:17 p -6.7 -6.7 -6.7 --- --- 5.2 ENE 0.09 6.1 -11.2 --- --- 726.8 0.017 0.000 9.1 8 1
02/20/06 11:18 p -6.7 -6.7 -6.8 --- --- 6.1 ENE 0.10 7.0 -11.7 --- --- 726.9 0.017 0.000 9.1 8 1
02/20/06 11:19 p -6.8 -6.8 -6.8 --- --- 5.2 ENE 0.09 6.1 -11.3 --- --- 726.9 0.017 0.000 9.1 8 1
02/20/06 11:20 p -6.8 -6.8 -6.8 --- --- 5.2 ENE 0.09 6.1 -11.3 --- --- 726.9 0.017 0.000 9.1 8 1
02/20/06 11:21 p -6.7 -6.7 -6.8 --- --- 5.2 ENE 0.09 6.1 -11.2 --- --- 726.8 0.017 0.000 9.1 8 1
02/20/06 11:22 p -6.7 -6.6 -6.7 --- --- 4.3 ENE 0.07 5.2 -10.6 --- --- 726.8 0.017 0.000 9.1 8 1
02/20/06 11:23 p -6.6 -6.6 -6.6 --- --- 4.3 ENE 0.07 4.3 -10.5 --- --- 726.8 0.017 0.000 9.1 8 1
02/20/06 11:24 p -6.5 -6.4 -6.5 --- --- 4.3 ENE 0.07 5.2 -10.4 --- --- 726.7 0.017 0.000 9.1 8 1
02/20/06 11:25 p -6.4 -6.4 -6.4 --- --- 4.3 ENE 0.07 5.2 -10.2 --- --- 726.8 0.017 0.000 9.1 8 1
02/20/06 11:26 p -6.3 -6.3 -6.3 --- --- 4.3 ENE 0.07 4.3 -10.1 --- --- 726.8 0.017 0.000 9.1 8 1
02/20/06 11:27 p -6.2 -6.1 -6.2 --- --- 3.5 ENE 0.06 4.3 -9.4 --- --- 726.8 0.017 0.000 9.1 8 1
02/20/06 11:28 p -6.1 -6.1 -6.2 --- --- 3.5 ENE 0.06 4.3 -9.2 --- --- 726.8 0.017 0.000 9.1 8 1
02/20/06 11:29 p -5.9 -5.9 -6.0 --- --- 2.6 ENE 0.04 3.5 -8.2 --- --- 726.8 0.017 0.000 9.1 8 1
02/20/06 11:30 p -5.8 -5.7 -5.8 --- --- 2.6 ENE 0.04 2.6 -8.0 --- --- 726.7 0.017 0.000 9.1 8 1
02/20/06 11:31 p -5.5 -5.4 -5.6 --- --- 2.6 ENE 0.04 4.3 -7.7 --- --- 726.7 0.017 0.000 9.1 8 1
02/20/06 11:32 p -5.3 -5.2 -5.4 --- --- 1.7 ENE 0.03 2.6 -6.4 --- --- 726.8 0.016 0.000 9.1 8 1
02/20/06 11:33 p -5.1 -5.0 -5.1 --- --- 1.7 ENE 0.03 2.6 -6.1 --- --- 726.7 0.016 0.000 9.1 8 1
02/20/06 11:34 p -4.8 -4.7 -4.9 --- --- 1.7 ENE 0.03 2.6 -5.9 --- --- 726.8 0.016 0.000 9.1 8 1
02/20/06 11:35 p -4.6 -4.6 -4.7 --- --- 1.7 ENE 0.03 2.6 -5.7 --- --- 726.7 0.016 0.000 9.1 8 1
02/20/06 11:36 p -4.5 -4.4 -4.6 --- --- 3.5 ENE 0.06 4.3 -7.4 --- --- 726.7 0.016 0.000 9.1 8 1
02/20/06 11:37 p -4.4 -4.3 -4.4 --- --- 3.5 ENE 0.06 3.5 -7.2 --- --- 726.7 0.016 0.000 9.1 8 1
02/20/06 11:38 p -4.2 -4.0 -4.3 --- --- 3.5 ENE 0.06 3.5 -7.0 --- --- 726.7 0.016 0.000 9.1 8 1
02/20/06 11:39 p -3.8 -3.6 -3.9 --- --- 3.5 ENE 0.06 3.5 -6.6 --- --- 726.6 0.015 0.000 9.1 8 1
02/20/06 11:40 p -3.4 -3.3 -3.6 --- --- 3.5 ENE 0.06 4.3 -6.2 --- --- 726.8 0.015 0.000 9.1 8 1
02/20/06 11:41 p -3.2 -3.1 -3.2 --- --- 3.5 ENE 0.06 3.5 -5.8 --- --- 726.7 0.015 0.000 9.1 8 1
02/20/06 11:42 p -3.1 -3.1 -3.1 --- --- 3.5 ENE 0.06 3.5 -5.7 --- --- 726.6 0.015 0.000 9.1 8 1
02/20/06 11:43 p -3.2 -3.2 -3.2 --- --- 2.6 ENE 0.04 3.5 -5.1 --- --- 726.7 0.015 0.000 9.1 8 1
02/20/06 11:44 p -2.9 -2.8 -3.1 --- --- 2.6 ENE 0.04 3.5 -4.8 --- --- 726.7 0.015 0.000 9.1 8 1
02/20/06 11:45 p -2.7 -2.6 -2.7 --- --- 2.6 ENE 0.04 2.6 -4.5 --- --- 726.6 0.015 0.000 9.1 8 1
02/20/06 11:46 p -2.6 -2.5 -2.6 --- --- 1.7 ENE 0.03 2.6 -3.4 --- --- 726.7 0.015 0.000 9.1 8 1
02/20/06 11:47 p -2.6 -2.5 -2.6 --- --- 1.7 ENE 0.03 2.6 -3.4 --- --- 726.6 0.015 0.000 9.2 8 1
02/20/06 11:48 p -2.4 -2.4 -2.5 --- --- 1.7 ENE 0.03 1.7 -3.3 --- --- 726.8 0.014 0.000 9.1 8 1
02/20/06 11:49 p -2.6 -2.5 -2.7 --- --- 1.7 ENE 0.03 2.6 -3.4 --- --- 726.7 0.015 0.000 9.1 8 1
02/20/06 11:50 p -2.9 -2.8 -3.2 --- --- 1.7 ENE 0.03 3.5 -3.8 --- --- 726.7 0.015 0.000 9.1 8 1
02/20/06 11:51 p -3.3 -3.2 -3.6 --- --- 2.6 ENE 0.04 4.3 -5.3 --- --- 726.7 0.015 0.000 9.1 8 1
02/20/06 11:52 p -3.7 -3.6 -3.7 --- --- 3.5 ENE 0.06 4.3 -6.4 --- --- 726.7 0.015 0.000 9.1 8 1
02/20/06 11:53 p -3.7 -3.7 -3.7 --- --- 2.6 ENE 0.04 4.3 -5.7 --- --- 726.7 0.015 0.000 9.1 8 1
02/20/06 11:54 p -3.9 -3.7 -4.2 --- --- 3.5 ENE 0.06 4.3 -6.7 --- --- 726.7 0.015 0.000 9.1 8 1
02/20/06 11:55 p -4.3 -4.3 -4.5 --- --- 2.6 ENE 0.04 4.3 -6.4 --- --- 726.7 0.016 0.000 9.1 8 1
02/20/06 11:56 p -4.6 -4.6 -4.8 --- --- 2.6 ENE 0.04 4.3 -6.7 --- --- 726.8 0.016 0.000 9.1 8 1
02/20/06 11:57 p -4.8 -4.8 -4.9 --- --- 2.6 ENE 0.04 4.3 -6.9 --- --- 726.7 0.016 0.000 9.1 8 1
02/20/06 11:58 p -4.9 -4.9 -5.0 --- --- 2.6 ENE 0.04 3.5 -7.1 --- --- 726.6 0.016 0.000 9.1 8 1
02/20/06 11:59 p -5.1 -5.1 -5.2 --- --- 4.3 ENE 0.07 5.2 -8.7 --- --- 726.6 0.016 0.000 9.1 8 1
02/21/06 12:00 a -5.3 -5.3 -5.3 --- --- 3.5 ENE 0.06 4.3 -8.3 --- --- 726.7 0.016 0.000 9.1 8 1
02/21/06 12:01 a -5.4 -5.4 -5.4 --- --- 3.5 ENE 0.06 4.3 -8.4 --- --- 726.7 0.016 0.000 9.1 8 1
02/21/06 12:02 a -5.3 -5.2 -5.3 --- --- 3.5 ENE 0.06 4.3 -8.3 --- --- 726.7 0.016 0.000 9.1 8 1
02/21/06 12:03 a -5.1 -5.0 -5.2 --- --- 3.5 ENE 0.06 3.5 -8.1 --- --- 726.7 0.016 0.000 9.1 8 1
02/21/06 12:04 a -4.8 -4.5 -4.9 --- --- 3.5 ENE 0.06 4.3 -7.7 --- --- 726.7 0.016 0.000 9.1 8 1
02/21/06 12:05 a -4.3 -4.0 -4.4 --- --- 2.6 ENE 0.04 3.5 -6.3 --- --- 726.7 0.016 0.000 9.1 8 1
02/21/06 12:06 a -3.7 -3.6 -3.9 --- --- 2.6 ENE 0.04 2.6 -5.6 --- --- 726.6 0.015 0.000 9.1 8 1
02/21/06 12:07 a -3.7 -3.7 -3.8 --- --- 1.7 ENE 0.03 2.6 -4.7 --- --- 726.7 0.015 0.000 9.1 8 1
02/21/06 12:08 a -3.8 -3.7 -3.8 --- --- 1.7 ENE 0.03 1.7 -4.7 --- --- 726.7 0.015 0.000 9.1 8 1
02/21/06 12:09 a -3.7 -3.7 -3.7 --- --- 1.7 ENE 0.03 1.7 -4.7 --- --- 726.6 0.015 0.000 9.1 8 1
02/21/06 12:10 a -3.7 -3.7 -3.7 --- --- 0.9 ENE 0.01 1.7 -3.7 --- --- 726.6 0.015 0.000 9.1 8 1
02/21/06 12:11 a -3.7 -3.7 -3.7 --- --- 0.9 ENE 0.01 1.7 -3.7 --- --- 726.7 0.015 0.000 9.1 8 1
02/21/06 12:12 a -3.6 -3.5 -3.7 --- --- 0.0 ENE 0.00 0.9 -3.6 --- --- 726.6 0.015 0.000 9.1 8 1
02/21/06 12:13 a -3.4 -3.3 -3.5 --- --- 1.7 ENE 0.03 2.6 -4.3 --- --- 726.6 0.015 0.000 9.1 8 1
02/21/06 12:14 a -3.2 -3.1 -3.3 --- --- 1.7 ENE 0.03 2.6 -4.1 --- --- 726.6 0.015 0.000 9.2 8 1
02/21/06 12:15 a -2.9 -2.8 -3.1 --- --- 2.6 ENE 0.04 3.5 -4.8 --- --- 726.6 0.015 0.000 9.2 8 1
02/21/06 12:16 a -2.7 -2.7 -2.8 --- --- 3.5 ENE 0.06 4.3 -5.3 --- --- 726.6 0.015 0.000 9.1 8 1
02/21/06 12:17 a -3.0 -2.9 -3.1 --- --- 4.3 ENE 0.07 5.2 -6.3 --- --- 726.6 0.015 0.000 9.1 8 1
02/21/06 12:18 a -3.4 -3.2 -3.6 --- --- 4.3 E 0.07 5.2 -6.7 --- --- 726.6 0.015 0.000 9.1 8 1
02/21/06 12:19 a -3.8 -3.7 -3.9 --- --- 4.3 E 0.07 6.1 -7.2 --- --- 726.5 0.015 0.000 9.1 8 1
02/21/06 12:20 a -4.0 -3.9 -4.2 --- --- 2.6 E 0.04 4.3 -6.0 --- --- 726.6 0.016 0.000 9.1 8 1
02/21/06 12:21 a -4.1 -4.1 -4.2 --- --- 3.5 E 0.06 5.2 -6.9 --- --- 726.6 0.016 0.000 9.1 8 1
02/21/06 12:22 a -4.1 -4.1 -4.1 --- --- 3.5 E 0.06 5.2 -6.9 --- --- 726.7 0.016 0.000 9.1 8 1
02/21/06 12:23 a -4.2 -4.1 -4.2 --- --- 4.3 E 0.07 5.2 -7.6 --- --- 726.6 0.016 0.000 9.1 8 1
02/21/06 12:24 a -3.9 -3.8 -4.0 --- --- 4.3 E 0.07 5.2 -7.3 --- --- 726.5 0.015 0.000 9.2 8 1
02/21/06 12:25 a -3.7 -3.7 -3.8 --- --- 4.3 E 0.07 5.2 -7.1 --- --- 726.6 0.015 0.000 9.2 8 1
02/21/06 12:26 a -3.8 -3.8 -3.9 --- --- 4.3 E 0.07 6.1 -7.2 --- --- 726.6 0.015 0.000 9.2 8 1
02/21/06 12:27 a -3.9 -3.9 -3.9 --- --- 5.2 E 0.09 6.1 -7.8 --- --- 726.5 0.015 0.000 9.2 8 1
02/21/06 12:28 a -4.0 -3.9 -4.0 --- --- 5.2 E 0.09 6.1 -7.9 --- --- 726.6 0.016 0.000 9.2 8 1
02/21/06 12:29 a -4.1 -4.0 -4.1 --- --- 6.1 E 0.10 6.1 -8.5 --- --- 726.6 0.016 0.000 9.2 8 1
02/21/06 12:30 a -4.1 -4.0 -4.1 --- --- 6.1 E 0.10 7.0 -8.6 --- --- 726.5 0.016 0.000 9.2 8 1
02/21/06 12:31 a -4.0 -4.0 -4.0 --- --- 6.1 E 0.10 7.0 -8.4 --- --- 726.6 0.016 0.000 9.2 8 1
02/21/06 12:32 a -4.1 -4.0 -4.2 --- --- 6.1 E 0.10 7.0 -8.6 --- --- 726.6 0.016 0.000 9.2 8 1
02/21/06 12:33 a -4.3 -4.2 -4.3 --- --- 6.1 E 0.10 7.0 -8.8 --- --- 726.5 0.016 0.000 9.2 8 1
02/21/06 12:34 a -4.6 -4.4 -4.7 --- --- 5.2 E 0.09 6.1 -8.6 --- --- 726.6 0.016 0.000 9.1 8 1
02/21/06 12:35 a -4.7 -4.7 -4.8 --- --- 5.2 E 0.09 7.0 -8.8 --- --- 726.6 0.016 0.000 9.1 8 1
02/21/06 12:36 a -4.9 -4.8 -4.9 --- --- 5.2 E 0.09 6.1 -9.0 --- --- 726.5 0.016 0.000 9.1 8 1
02/21/06 12:37 a -5.0 -4.9 -5.1 --- --- 5.2 E 0.09 7.0 -9.2 --- --- 726.6 0.016 0.000 9.1 8 1
02/21/06 12:38 a -5.1 -5.0 -5.1 --- --- 4.3 E 0.07 7.0 -8.7 --- --- 726.4 0.016 0.000 9.1 8 1
02/21/06 12:39 a -5.1 -5.1 -5.2 --- --- 4.3 E 0.07 6.1 -8.7 --- --- 726.6 0.016 0.000 9.1 8 1
02/21/06 12:40 a -5.3 -5.2 -5.4 --- --- 5.2 E 0.09 7.0 -9.6 --- --- 726.5 0.016 0.000 9.1 8 1
02/21/06 12:41 a -5.6 -5.5 -5.7 --- --- 5.2 E 0.09 6.1 -9.8 --- --- 726.6 0.017 0.000 9.1 8 1
02/21/06 12:42 a -5.7 -5.7 -5.7 --- --- 5.2 E 0.09 6.1 -10.0 --- --- 726.5 0.017 0.000 9.1 8 1
02/21/06 12:43 a -5.7 -5.7 -5.8 --- --- 4.3 E 0.07 6.1 -9.4 --- --- 726.6 0.017 0.000 9.1 8 1
02/21/06 12:44 a -5.8 -5.7 -5.8 --- --- 4.3 E 0.07 6.1 -9.5 --- --- 726.6 0.017 0.000 9.1 8 1
02/21/06 12:45 a -5.8 -5.8 -5.9 --- --- 4.3 E 0.07 6.1 -9.6 --- --- 726.5 0.017 0.000 9.1 8 1
02/21/06 12:46 a -5.9 -5.9 -6.0 --- --- 5.2 E 0.09 6.1 -10.3 --- --- 726.6 0.017 0.000 9.1 8 1
02/21/06 12:47 a -5.9 -5.8 -6.0 --- --- 6.1 E 0.10 7.0 -10.8 --- --- 726.6 0.017 0.000 9.1 8 1
02/21/06 12:48 a -5.8 -5.8 -5.9 --- --- 5.2 E 0.09 6.1 -10.2 --- --- 726.5 0.017 0.000 9.2 8 1
02/21/06 12:49 a -5.6 -5.4 -5.7 --- --- 6.1 E 0.10 7.0 -10.4 --- --- 726.5 0.017 0.000 9.2 8 1
02/21/06 12:50 a -5.4 -5.4 -5.5 --- --- 5.2 E 0.09 7.0 -9.7 --- --- 726.5 0.017 0.000 9.2 8 1
02/21/06 12:51 a -5.6 -5.6 -5.7 --- --- 6.1 E 0.10 7.0 -10.4 --- --- 726.5 0.017 0.000 9.2 8 1
02/21/06 12:52 a -5.9 -5.8 -5.9 --- --- 5.2 E 0.09 7.8 -10.2 --- --- 726.5 0.017 0.000 9.2 9 1
02/21/06 12:53 a -6.1 -6.0 -6.2 --- --- 6.1 E 0.10 7.0 -10.9 --- --- 726.5 0.017 0.000 9.2 8 1
02/21/06 12:54 a -6.2 -6.2 -6.3 --- --- 6.1 E 0.10 7.8 -11.1 --- --- 726.5 0.017 0.000 9.2 9 1
02/21/06 12:55 a -6.2 -6.1 -6.3 --- --- 6.1 E 0.10 7.0 -11.1 --- --- 726.5 0.017 0.000 9.2 8 1
02/21/06 12:56 a -6.1 -6.0 -6.1 --- --- 5.2 E 0.09 7.0 -10.5 --- --- 726.5 0.017 0.000 9.2 8 1
02/21/06 12:57 a -5.9 -5.9 -5.9 --- --- 6.1 E 0.10 7.8 -10.8 --- --- 726.4 0.017 0.000 9.2 8 1
02/21/06 12:58 a -5.8 -5.8 -5.8 --- --- 6.1 E 0.10 7.0 -10.6 --- --- 726.5 0.017 0.000 9.2 8 1
02/21/06 12:59 a -5.6 -5.3 -5.8 --- --- 6.1 E 0.10 7.8 -10.4 --- --- 726.4 0.017 0.000 9.2 8 1
02/21/06 1:00 a -5.1 -4.9 -5.3 --- --- 6.1 E 0.10 7.0 -9.8 --- --- 726.5 0.016 0.000 9.3 8 1
02/21/06 1:01 a -4.7 -4.7 -4.8 --- --- 6.1 E 0.10 8.7 -9.3 --- --- 726.5 0.016 0.000 9.3 9 1
02/21/06 1:02 a -4.7 -4.7 -4.8 --- --- 6.1 E 0.10 7.8 -9.3 --- --- 726.5 0.016 0.000 9.3 8 1
02/21/06 1:03 a -5.0 -4.8 -5.2 --- --- 7.0 E 0.12 7.8 -10.1 --- --- 726.4 0.016 0.000 9.3 9 1
02/21/06 1:04 a -5.3 -5.2 -5.3 --- --- 7.0 E 0.12 7.8 -10.4 --- --- 726.5 0.016 0.000 9.3 8 1
02/21/06 1:05 a -5.4 -5.3 -5.7 --- --- 7.0 E 0.12 7.8 -10.6 --- --- 726.5 0.017 0.000 9.3 8 1
02/21/06 1:06 a -5.7 -5.7 -5.8 --- --- 6.1 E 0.10 7.0 -10.5 --- --- 726.4 0.017 0.000 9.3 8 1
02/21/06 1:07 a -5.9 -5.8 -5.9 --- --- 7.0 E 0.12 8.7 -11.2 --- --- 726.3 0.017 0.000 9.3 8 1
02/21/06 1:08 a -6.1 -6.0 -6.1 --- --- 7.0 E 0.12 7.8 -11.3 --- --- 726.4 0.017 0.000 9.3 8 1
02/21/06 1:09 a -6.1 -6.1 -6.1 --- --- 6.1 E 0.10 7.8 -10.9 --- --- 726.4 0.017 0.000 9.3 8 1
02/21/06 1:10 a -6.1 -6.1 -6.1 --- --- 7.0 E 0.12 7.8 -11.4 --- --- 726.4 0.017 0.000 9.3 8 1
02/21/06 1:11 a -6.1 -5.9 -6.1 --- --- 7.0 E 0.12 7.8 -11.3 --- --- 726.4 0.017 0.000 9.3 8 1
02/21/06 1:12 a -5.7 -5.5 -5.9 --- --- 7.0 E 0.12 8.7 -10.9 --- --- 726.4 0.017 0.000 9.3 8 1
02/21/06 1:13 a -5.2 -5.0 -5.4 --- --- 6.1 E 0.10 7.0 -9.9 --- --- 726.3 0.016 0.000 9.3 8 1
02/21/06 1:14 a -4.8 -4.6 -4.9 --- --- 6.1 E 0.10 7.8 -9.4 --- --- 726.3 0.016 0.000 9.3 8 1
02/21/06 1:15 a -4.5 -4.5 -4.6 --- --- 7.0 E 0.12 7.8 -9.4 --- --- 726.3 0.016 0.000 9.3 8 1
02/21/06 1:16 a -4.4 -4.3 -4.4 --- --- 7.0 E 0.12 8.7 -9.3 --- --- 726.4 0.016 0.000 9.4 9 1
02/21/06 1:17 a -4.6 -4.4 -4.7 --- --- 5.2 E 0.09 7.8 -8.6 --- --- 726.3 0.016 0.000 9.4 8 1
02/21/06 1:18 a -5.0 -4.8 -5.3 --- --- 6.1 E 0.10 7.8 -9.6 --- --- 726.3 0.016 0.000 9.4 8 1
02/21/06 1:19 a -5.3 -5.3 -5.4 --- --- 5.2 E 0.09 6.1 -9.6 --- --- 726.4 0.016 0.000 9.4 9 1
02/21/06 1:20 a -5.6 -5.5 -5.8 --- --- 5.2 E 0.09 7.0 -9.9 --- --- 726.4 0.017 0.000 9.4 9 1
02/21/06 1:21 a -5.9 -5.8 -6.0 --- --- 6.1 E 0.10 7.0 -10.7 --- --- 726.4 0.017 0.000 9.4 9 1
02/21/06 1:22 a -6.1 -6.0 -6.1 --- --- 5.2 E 0.09 7.0 -10.4 --- --- 726.4 0.017 0.000 9.5 8 1
02/21/06 1:23 a -6.1 -6.1 -6.2 --- --- 6.1 E 0.10 7.8 -11.0 --- --- 726.4 0.017 0.000 9.4 9 1
02/21/06 1:24 a -6.1 -6.1 -6.1 --- --- 6.1 E 0.10 7.0 -10.9 --- --- 726.4 0.017 0.000 9.5 9 1
02/21/06 1:25 a -6.0 -5.9 -6.1 --- --- 6.1 E 0.10 7.8 -10.8 --- --- 726.4 0.017 0.000 9.5 9 1
02/21/06 1:26 a -5.9 -5.9 -6.0 --- --- 7.0 E 0.12 7.8 -11.2 --- --- 726.3 0.017 0.000 9.5 9 1
02/21/06 1:27 a -6.0 -5.9 -6.0 --- --- 7.8 ENE 0.13 7.8 -11.7 --- --- 726.3 0.017 0.000 9.5 8 1
02/21/06 1:28 a -5.9 -5.7 -5.9 --- --- 7.0 E 0.12 7.8 -11.2 --- --- 726.3 0.017 0.000 9.5 8 1
02/21/06 1:29 a -5.4 -5.2 -5.6 --- --- 7.0 E 0.12 7.8 -10.6 --- --- 726.4 0.017 0.000 9.5 8 1
02/21/06 1:30 a -5.2 -5.2 -5.3 --- --- 7.0 E 0.12 7.8 -10.3 --- --- 726.3 0.016 0.000 9.5 8 1
02/21/06 1:31 a -5.4 -5.3 -5.6 --- --- 6.1 E 0.10 7.8 -10.2 --- --- 726.4 0.017 0.000 9.5 8 1
02/21/06 1:32 a -5.7 -5.6 -5.8 --- --- 6.1 E 0.10 7.0 -10.4 --- --- 726.3 0.017 0.000 9.4 8 1
02/21/06 1:33 a -5.8 -5.8 -5.8 --- --- 6.1 ENE 0.10 7.0 -10.6 --- --- 726.3 0.017 0.000 9.5 8 1
02/21/06 1:34 a -5.7 -5.6 -5.8 --- --- 6.1 ENE 0.10 7.0 -10.5 --- --- 726.4 0.017 0.000 9.5 8 1
02/21/06 1:35 a -5.2 -4.7 -5.6 --- --- 6.1 ENE 0.10 7.0 -9.8 --- --- 726.4 0.016 0.000 9.5 8 1
02/21/06 1:36 a -4.6 -4.4 -4.7 --- --- 6.1 ENE 0.10 7.0 -9.2 --- --- 726.4 0.016 0.000 9.5 8 1
02/21/06 1:37 a -4.4 -4.4 -4.4 --- --- 6.1 ENE 0.10 7.0 -8.9 --- --- 726.4 0.016 0.000 9.5 8 1
02/21/06 1:38 a -4.7 -4.6 -4.9 --- --- 6.1 E 0.10 7.0 -9.2 --- --- 726.4 0.016 0.000 9.6 8 1
02/21/06 1:39 a -4.9 -4.8 -4.9 --- --- 5.2 E 0.09 7.0 -9.0 --- --- 726.5 0.016 0.000 9.6 8 1
02/21/06 1:40 a -4.5 -4.2 -4.7 --- --- 6.1 E 0.10 7.0 -9.1 --- --- 726.5 0.016 0.000 9.6 9 1
02/21/06 1:41 a -3.9 -3.6 -4.2 --- --- 5.2 E 0.09 7.0 -7.8 --- --- 726.4 0.015 0.000 9.6 8 1
02/21/06 1:42 a -3.3 -3.1 -3.4 --- --- 5.2 E 0.09 7.0 -7.1 --- --- 726.3 0.015 0.000 9.6 8 1
02/21/06 1:43 a -2.9 -2.7 -3.1 --- --- 6.1 E 0.10 7.8 -7.1 --- --- 726.3 0.015 0.000 9.6 9 1
02/21/06 1:44 a -2.8 -2.7 -2.8 --- --- 6.1 E 0.10 7.0 -6.9 --- --- 726.3 0.015 0.000 9.7 8 1
02/21/06 1:45 a -2.9 -2.8 -3.1 --- --- 7.0 E 0.12 7.8 -7.5 --- --- 726.2 0.015 0.000 9.7 8 1
02/21/06 1:46 a -3.1 -3.1 -3.3 --- --- 7.0 ENE 0.12 8.7 -7.8 --- --- 726.2 0.015 0.000 9.8 8 1
02/21/06 1:47 a -3.7 -3.3 -3.9 --- --- 6.1 E 0.10 7.8 -8.1 --- --- 726.3 0.015 0.000 9.8 8 1
02/21/06 1:48 a -4.1 -3.9 -4.3 --- --- 5.2 E 0.09 7.0 -8.1 --- --- 726.3 0.016 0.000 9.8 8 1
02/21/06 1:49 a -4.4 -4.3 -4.7 --- --- 6.1 E 0.10 7.0 -8.9 --- --- 726.2 0.016 0.000 9.8 8 1
02/21/06 1:50 a -4.7 -4.7 -4.8 --- --- 5.2 E 0.09 7.0 -8.8 --- --- 726.2 0.016 0.000 9.8 9 1
02/21/06 1:51 a -4.9 -4.8 -5.1 --- --- 6.1 E 0.10 7.8 -9.6 --- --- 726.3 0.016 0.000 9.8 9 1
02/21/06 1:52 a -5.3 -5.1 -5.4 --- --- 7.0 E 0.12 7.8 -10.4 --- --- 726.3 0.016 0.000 9.8 8 1
02/21/06 1:53 a -5.4 -5.1 -5.4 --- --- 6.1 E 0.10 7.8 -10.1 --- --- 726.2 0.016 0.000 9.8 8 1
02/21/06 1:54 a -5.0 -4.7 -5.1 --- --- 7.0 E 0.12 8.7 -10.1 --- --- 726.2 0.016 0.000 9.8 8 1
02/21/06 1:55 a -4.3 -3.9 -4.7 --- --- 6.1 E 0.10 7.8 -8.8 --- --- 726.3 0.016 0.000 9.8 8 1
02/21/06 1:56 a -3.5 -3.4 -3.6 --- --- 6.1 E 0.10 7.0 -7.8 --- --- 726.3 0.015 0.000 9.8 8 1
02/21/06 1:57 a -3.2 -3.1 -3.3 --- --- 5.2 E 0.09 6.1 -7.1 --- --- 726.2 0.015 0.000 9.8 8 1
02/21/06 1:58 a -3.3 -3.1 -3.7 --- --- 5.2 E 0.09 7.0 -7.1 --- --- 726.3 0.015 0.000 9.8 8 1
02/21/06 1:59 a -3.7 -3.5 -3.7 --- --- 5.2 E 0.09 7.0 -7.6 --- --- 726.3 0.015 0.000 9.8 8 1
02/21/06 2:00 a -3.3 -3.0 -3.5 --- --- 6.1 E 0.10 7.8 -7.6 --- --- 726.3 0.015 0.000 9.8 8 1
02/21/06 2:01 a -2.8 -2.7 -3.0 --- --- 6.1 E 0.10 7.0 -7.0 --- --- 726.3 0.015 0.000 9.8 8 1
02/21/06 2:02 a -2.6 -2.6 -2.7 --- --- 5.2 E 0.09 7.0 -6.3 --- --- 726.3 0.015 0.000 9.8 8 1
02/21/06 2:03 a -2.5 -2.4 -2.7 --- --- 6.1 E 0.10 7.0 -6.6 --- --- 726.3 0.014 0.000 9.8 8 1
02/21/06 2:04 a -2.2 -2.1 -2.2 --- --- 6.1 E 0.10 7.0 -6.2 --- --- 726.3 0.014 0.000 9.8 8 1
02/21/06 2:05 a -2.1 -2.1 -2.2 --- --- 5.2 E 0.09 7.0 -5.7 --- --- 726.2 0.014 0.000 9.8 8 1
02/21/06 2:06 a -2.1 -2.1 -2.2 --- --- 7.0 E 0.12 7.8 -6.6 --- --- 726.2 0.014 0.000 9.9 8 1
02/21/06 2:07 a -2.2 -2.1 -2.3 --- --- 7.0 E 0.12 7.8 -6.6 --- --- 726.2 0.014 0.000 9.9 8 1
02/21/06 2:08 a -2.4 -2.3 -2.5 --- --- 7.8 E 0.13 8.7 -7.3 --- --- 726.1 0.014 0.000 9.9 8 1
02/21/06 2:09 a -2.4 -2.2 -2.5 --- --- 7.8 E 0.13 8.7 -7.2 --- --- 726.2 0.014 0.000 9.9 8 1
02/21/06 2:10 a -2.1 -2.0 -2.2 --- --- 7.8 E 0.13 9.6 -6.8 --- --- 726.2 0.014 0.000 9.9 8 1
02/21/06 2:11 a -1.8 -1.7 -2.0 --- --- 7.8 E 0.13 8.7 -6.6 --- --- 726.2 0.014 0.000 9.9 8 1
02/21/06 2:12 a -1.7 -1.4 -1.7 --- --- 8.7 E 0.14 9.6 -6.7 --- --- 726.3 0.014 0.000 9.9 8 1
02/21/06 2:13 a -1.3 -1.2 -1.4 --- --- 7.8 E 0.13 9.6 -5.9 --- --- 726.3 0.014 0.000 9.9 8 1
02/21/06 2:14 a -1.2 -1.2 -1.2 --- --- 7.8 E 0.13 8.7 -5.7 --- --- 726.1 0.014 0.000 9.9 8 1
02/21/06 2:15 a -1.0 -0.9 -1.2 --- --- 7.8 E 0.13 8.7 -5.6 --- --- 726.1 0.013 0.000 9.9 8 1
02/21/06 2:16 a -0.8 -0.7 -0.9 --- --- 7.8 E 0.13 8.7 -5.3 --- --- 726.1 0.013 0.000 9.9 9 1
02/21/06 2:17 a -0.7 -0.6 -0.7 --- --- 7.8 E 0.13 8.7 -5.1 --- --- 726.2 0.013 0.000 9.9 9 1
02/21/06 2:18 a -0.7 -0.7 -0.7 --- --- 7.8 E 0.13 9.6 -5.2 --- --- 726.2 0.013 0.000 9.9 9 1
02/21/06 2:19 a -0.7 -0.7 -0.8 --- --- 7.8 E 0.13 8.7 -5.2 --- --- 726.2 0.013 0.000 9.9 9 1
02/21/06 2:20 a -0.7 -0.7 -0.8 --- --- 7.8 E 0.13 8.7 -5.2 --- --- 726.1 0.013 0.000 9.9 9 1
02/21/06 2:21 a -0.7 -0.7 -0.7 --- --- 8.7 E 0.14 8.7 -5.4 --- --- 726.2 0.013 0.000 9.9 9 1
02/21/06 2:22 a -0.7 -0.7 -0.8 --- --- 7.8 E 0.13 9.6 -5.2 --- --- 726.1 0.013 0.000 9.9 9 1
02/21/06 2:23 a -0.8 -0.8 -0.8 --- --- 8.7 E 0.14 9.6 -5.6 --- --- 726.1 0.013 0.000 9.8 9 1
02/21/06 2:24 a -0.8 -0.7 -0.8 --- --- 8.7 E 0.14 9.6 -5.6 --- --- 726.2 0.013 0.000 9.8 9 1
02/21/06 2:25 a -0.7 -0.6 -0.7 --- --- 8.7 E 0.14 8.7 -5.4 --- --- 726.1 0.013 0.000 9.8 9 1
02/21/06 2:26 a -0.4 -0.3 -0.6 --- --- 7.8 E 0.13 8.7 -4.8 --- --- 726.1 0.013 0.000 9.8 9 1
02/21/06 2:27 a -0.3 -0.3 -0.3 --- --- 7.8 E 0.13 7.8 -4.7 --- --- 726.2 0.013 0.000 9.8 9 1
02/21/06 2:28 a -0.4 -0.3 -0.6 --- --- 7.0 E 0.12 8.7 -4.4 --- --- 726.2 0.013 0.000 9.8 9 1
02/21/06 2:29 a -0.6 -0.6 -0.7 --- --- 7.0 E 0.12 8.7 -4.7 --- --- 726.2 0.013 0.000 9.8 9 1
02/21/06 2:30 a -0.7 -0.6 -0.8 --- --- 6.1 E 0.10 7.8 -4.4 --- --- 726.1 0.013 0.000 9.8 9 1
02/21/06 2:31 a -0.9 -0.8 -1.2 --- --- 7.0 E 0.12 8.7 -5.1 --- --- 726.1 0.013 0.000 9.7 9 1
02/21/06 2:32 a -1.1 -1.1 -1.2 --- --- 7.8 E 0.13 9.6 -5.7 --- --- 726.2 0.014 0.000 9.7 9 1
02/21/06 2:33 a -1.3 -1.1 -1.4 --- --- 7.0 E 0.12 7.8 -5.6 --- --- 726.1 0.014 0.000 9.7 9 1
02/21/06 2:34 a -1.6 -1.6 -1.7 --- --- 7.0 E 0.12 8.7 -5.9 --- --- 726.1 0.014 0.000 9.7 9 1
02/21/06 2:35 a -1.8 -1.7 -1.8 --- --- 7.0 E 0.12 8.7 -6.2 --- --- 726.2 0.014 0.000 9.7 9 1
02/21/06 2:36 a -2.1 -2.1 -2.2 --- --- 7.8 E 0.13 8.7 -6.9 --- --- 726.1 0.014 0.000 9.7 9 1
02/21/06 2:37 a -2.2 -2.2 -2.2 --- --- 7.8 E 0.13 8.7 -7.1 --- --- 726.1 0.014 0.000 9.7 9 1
02/21/06 2:38 a -2.2 -2.2 -2.3 --- --- 7.0 E 0.12 7.8 -6.7 --- --- 726.1 0.014 0.000 9.7 9 1
02/21/06 2:39 a -2.4 -2.4 -2.5 --- --- 7.0 E 0.12 7.8 -6.9 --- --- 726.1 0.014 0.000 9.7 9 1
02/21/06 2:40 a -2.6 -2.5 -2.7 --- --- 7.0 E 0.12 8.7 -7.1 --- --- 726.1 0.015 0.000 9.7 9 1
02/21/06 2:41 a -2.6 -2.3 -2.7 --- --- 7.0 E 0.12 7.8 -7.1 --- --- 726.1 0.015 0.000 9.7 9 1
02/21/06 2:42 a -2.3 -2.3 -2.4 --- --- 7.0 E 0.12 8.7 -6.8 --- --- 726.1 0.014 0.000 9.7 9 1
02/21/06 2:43 a -2.5 -2.4 -2.6 --- --- 6.1 E 0.10 7.8 -6.6 --- --- 726.1 0.014 0.000 9.7 9 1
02/21/06 2:44 a -2.4 -2.3 -2.6 --- --- 7.0 E 0.12 7.8 -6.9 --- --- 726.2 0.014 0.000 9.7 9 1
02/21/06 2:45 a -2.4 -2.3 -2.6 --- --- 6.1 E 0.10 7.8 -6.5 --- --- 726.1 0.014 0.000 9.7 9 1
02/21/06 2:46 a -2.6 -2.6 -2.7 --- --- 7.0 E 0.12 7.8 -7.2 --- --- 726.2 0.015 0.000 9.7 9 1
02/21/06 2:47 a -2.7 -2.7 -2.7 --- --- 6.1 E 0.10 7.0 -6.8 --- --- 726.2 0.015 0.000 9.7 9 1
02/21/06 2:48 a -2.8 -2.7 -2.8 --- --- 7.0 ENE 0.12 7.8 -7.3 --- --- 726.1 0.015 0.000 9.7 9 1
02/21/06 2:49 a -2.8 -2.8 -2.9 --- --- 7.0 E 0.12 7.8 -7.4 --- --- 726.2 0.015 0.000 9.7 9 1
02/21/06 2:50 a -2.9 -2.9 -2.9 --- --- 7.0 E 0.12 7.8 -7.5 --- --- 726.2 0.015 0.000 9.7 9 1
02/21/06 2:51 a -2.8 -2.8 -2.8 --- --- 7.0 E 0.12 7.8 -7.4 --- --- 726.2 0.015 0.000 9.7 9 1
02/21/06 2:52 a -2.8 -2.7 -2.8 --- --- 6.1 ENE 0.10 7.8 -6.9 --- --- 726.2 0.015 0.000 9.7 9 1
02/21/06 2:53 a -2.7 -2.7 -2.7 --- --- 6.1 E 0.10 7.0 -6.8 --- --- 726.2 0.015 0.000 9.7 9 1
02/21/06 2:54 a -2.7 -2.6 -2.7 --- --- 6.1 ENE 0.10 7.0 -6.8 --- --- 726.2 0.015 0.000 9.6 9 1
02/21/06 2:55 a -2.6 -2.6 -2.6 --- --- 6.1 ENE 0.10 7.0 -6.7 --- --- 726.3 0.015 0.000 9.6 9 1
02/21/06 2:56 a -2.5 -2.4 -2.5 --- --- 6.1 ENE 0.10 7.0 -6.6 --- --- 726.2 0.014 0.000 9.6 9 1
02/21/06 2:57 a -2.6 -2.5 -2.6 --- --- 7.0 ENE 0.12 7.8 -7.1 --- --- 726.2 0.015 0.000 9.6 9 1
02/21/06 2:58 a -2.6 -2.6 -2.7 --- --- 7.0 ENE 0.12 7.8 -7.2 --- --- 726.3 0.015 0.000 9.6 9 1
02/21/06 2:59 a -2.6 -2.6 -2.7 --- --- 7.8 E 0.13 8.7 -7.5 --- --- 726.2 0.015 0.000 9.6 9 1
02/21/06 3:00 a -2.7 -2.7 -2.7 --- --- 7.8 E 0.13 8.7 -7.7 --- --- 726.3 0.015 0.000 9.6 9 1
02/21/06 3:01 a -2.6 -2.6 -2.6 --- --- 7.0 E 0.12 7.8 -7.2 --- --- 726.3 0.015 0.000 9.6 9 1
02/21/06 3:02 a -2.6 -2.6 -2.6 --- --- 7.0 E 0.12 7.8 -7.1 --- --- 726.2 0.015 0.000 9.6 9 1
02/21/06 3:03 a -2.6 -2.6 -2.6 --- --- 7.0 E 0.12 8.7 -7.2 --- --- 726.2 0.015 0.000 9.6 9 1
02/21/06 3:04 a -2.5 -2.4 -2.6 --- --- 7.0 E 0.12 8.7 -7.0 --- --- 726.2 0.014 0.000 9.6 9 1
02/21/06 3:05 a -2.3 -2.3 -2.3 --- --- 7.0 E 0.12 7.8 -6.8 --- --- 726.2 0.014 0.000 9.6 9 1
02/21/06 3:06 a -2.2 -2.2 -2.2 --- --- 7.0 E 0.12 8.7 -6.6 --- --- 726.2 0.014 0.000 9.6 9 1
02/21/06 3:07 a -2.1 -2.1 -2.2 --- --- 7.0 E 0.12 8.7 -6.6 --- --- 726.2 0.014 0.000 9.6 9 1
02/21/06 3:08 a -2.1 -2.1 -2.1 --- --- 7.8 E 0.13 8.7 -6.9 --- --- 726.2 0.014 0.000 9.6 9 1
02/21/06 3:09 a -2.2 -2.2 -2.3 --- --- 7.8 ENE 0.13 9.6 -7.1 --- --- 726.3 0.014 0.000 9.6 9 1
02/21/06 3:10 a -2.4 -2.3 -2.4 --- --- 7.8 ENE 0.13 9.6 -7.2 --- --- 726.2 0.014 0.000 9.6 9 1
02/21/06 3:11 a -2.4 -2.4 -2.4 --- --- 8.7 ENE 0.14 9.6 -7.6 --- --- 726.1 0.014 0.000 9.6 9 1
02/21/06 3:12 a -2.3 -2.2 -2.3 --- --- 8.7 ENE 0.14 9.6 -7.4 --- --- 726.2 0.014 0.000 9.6 8 1
02/21/06 3:13 a -2.2 -2.2 -2.2 --- --- 8.7 ENE 0.14 9.6 -7.3 --- --- 726.2 0.014 0.000 9.6 9 1
02/21/06 3:14 a -2.2 -2.2 -2.2 --- --- 8.7 ENE 0.14 9.6 -7.3 --- --- 726.2 0.014 0.000 9.6 8 1
02/21/06 3:15 a -2.2 -2.2 -2.2 --- --- 8.7 ENE 0.14 9.6 -7.3 --- --- 726.2 0.014 0.000 9.6 8 1
02/21/06 3:16 a -2.2 -2.2 -2.2 --- --- 8.7 ENE 0.14 9.6 -7.3 --- --- 726.2 0.014 0.000 9.6 8 1
02/21/06 3:17 a -2.2 -2.1 -2.2 --- --- 8.7 ENE 0.14 9.6 -7.3 --- --- 726.2 0.014 0.000 9.6 8 1
02/21/06 3:18 a -2.2 -2.1 -2.2 --- --- 8.7 ENE 0.14 9.6 -7.3 --- --- 726.2 0.014 0.000 9.6 9 1
02/21/06 3:19 a -2.2 -2.1 -2.2 --- --- 8.7 ENE 0.14 9.6 -7.3 --- --- 726.2 0.014 0.000 9.6 8 1
02/21/06 3:20 a -2.1 -2.1 -2.2 --- --- 8.7 ENE 0.14 9.6 -7.2 --- --- 726.3 0.014 0.000 9.6 8 1
02/21/06 3:21 a -2.2 -2.1 -2.2 --- --- 8.7 ENE 0.14 9.6 -7.3 --- --- 726.2 0.014 0.000 9.6 8 1
02/21/06 3:22 a -2.2 -2.1 -2.3 --- --- 8.7 ENE 0.14 9.6 -7.3 --- --- 726.1 0.014 0.000 9.6 8 1
02/21/06 3:23 a -2.3 -2.2 -2.3 --- --- 8.7 ENE 0.14 9.6 -7.4 --- --- 726.2 0.014 0.000 9.6 8 1
02/21/06 3:24 a -2.2 -2.1 -2.2 --- --- 7.8 ENE 0.13 8.7 -6.9 --- --- 726.2 0.014 0.000 9.6 8 1
02/21/06 3:25 a -1.9 -1.9 -1.9 --- --- 7.8 ENE 0.13 8.7 -6.7 --- --- 726.2 0.014 0.000 9.6 8 1
02/21/06 3:26 a -1.7 -1.6 -1.8 --- --- 7.0 ENE 0.12 7.8 -6.1 --- --- 726.2 0.014 0.000 9.6 8 1
02/21/06 3:27 a -1.5 -1.4 -1.6 --- --- 7.8 ENE 0.13 8.7 -6.2 --- --- 726.2 0.014 0.000 9.6 8 1
02/21/06 3:28 a -1.2 -1.2 -1.3 --- --- 7.8 ENE 0.13 8.7 -5.8 --- --- 726.3 0.014 0.000 9.6 8 1
02/21/06 3:29 a -1.2 -1.2 -1.2 --- --- 7.8 ENE 0.13 8.7 -5.7 --- --- 726.3 0.014 0.000 9.6 8 1
02/21/06 3:30 a -1.2 -1.2 -1.3 --- --- 7.8 ENE 0.13 8.7 -5.8 --- --- 726.2 0.014 0.000 9.6 8 1
02/21/06 3:31 a -1.2 -1.2 -1.2 --- --- 7.8 ENE 0.13 8.7 -5.8 --- --- 726.3 0.014 0.000 9.6 8 1
02/21/06 3:32 a -1.2 -1.2 -1.2 --- --- 7.8 ENE 0.13 8.7 -5.7 --- --- 726.2 0.014 0.000 9.6 8 1
02/21/06 3:33 a -1.1 -1.1 -1.1 --- --- 7.0 ENE 0.12 7.8 -5.3 --- --- 726.3 0.014 0.000 9.6 8 1
02/21/06 3:34 a -1.2 -1.1 -1.2 --- --- 7.0 ENE 0.12 7.8 -5.4 --- --- 726.3 0.014 0.000 9.6 8 1
02/21/06 3:35 a -1.3 -1.3 -1.3 --- --- 7.0 ENE 0.12 7.8 -5.6 --- --- 726.2 0.014 0.000 9.6 8 1
02/21/06 3:36 a -1.2 -1.2 -1.3 --- --- 7.0 ENE 0.12 7.8 -5.4 --- --- 726.3 0.014 0.000 9.6 8 1
02/21/06 3:37 a -1.2 -1.2 -1.3 --- --- 7.0 ENE 0.12 7.8 -5.4 --- --- 726.2 0.014 0.000 9.6 8 1
02/21/06 3:38 a -1.3 -1.3 -1.4 --- --- 7.8 ENE 0.13 8.7 -5.9 --- --- 726.3 0.014 0.000 9.6 8 1
02/21/06 3:39 a -1.2 -1.2 -1.3 --- --- 7.0 ENE 0.12 8.7 -5.4 --- --- 726.2 0.014 0.000 9.6 8 1
02/21/06 3:40 a -1.2 -1.1 -1.2 --- --- 7.0 ENE 0.12 8.7 -5.4 --- --- 726.2 0.014 0.000 9.6 8 1
02/21/06 3:41 a -1.1 -1.0 -1.1 --- --- 7.8 ENE 0.13 7.8 -5.6 --- --- 726.3 0.013 0.000 9.7 8 1
02/21/06 3:42 a -0.9 -0.9 -0.9 --- --- 7.0 ENE 0.12 7.8 -5.1 --- --- 726.3 0.013 0.000 9.7 8 1
02/21/06 3:43 a -0.8 -0.8 -0.9 --- --- 6.1 ENE 0.10 7.8 -4.6 --- --- 726.3 0.013 0.000 9.7 8 1
02/21/06 3:44 a -0.8 -0.8 -0.9 --- --- 7.0 ENE 0.12 7.8 -5.0 --- --- 726.3 0.013 0.000 9.7 8 1
02/21/06 3:45 a -0.9 -0.9 -0.9 --- --- 7.0 ENE 0.12 7.8 -5.1 --- --- 726.2 0.013 0.000 9.7 8 1
02/21/06 3:46 a -1.0 -0.9 -1.1 --- --- 7.0 ENE 0.12 7.8 -5.2 --- --- 726.3 0.013 0.000 9.7 8 1
02/21/06 3:47 a -1.1 -1.1 -1.2 --- --- 7.0 ENE 0.12 7.8 -5.3 --- --- 726.3 0.014 0.000 9.7 8 1
02/21/06 3:48 a -1.2 -1.2 -1.2 --- --- 7.0 ENE 0.12 7.8 -5.4 --- --- 726.2 0.014 0.000 9.7 8 1
02/21/06 3:49 a -1.2 -1.1 -1.2 --- --- 7.0 ENE 0.12 7.8 -5.4 --- --- 726.3 0.014 0.000 9.7 8 1
02/21/06 3:50 a -1.1 -1.1 -1.1 --- --- 7.0 ENE 0.12 7.8 -5.3 --- --- 726.3 0.014 0.000 9.7 8 1
02/21/06 3:51 a -1.1 -1.1 -1.1 --- --- 7.0 ENE 0.12 7.8 -5.3 --- --- 726.2 0.013 0.000 9.7 8 1
02/21/06 3:52 a -1.2 -1.1 -1.3 --- --- 6.1 ENE 0.10 7.0 -5.0 --- --- 726.2 0.014 0.000 9.7 8 1
02/21/06 3:53 a -1.4 -1.4 -1.4 --- --- 7.0 NE 0.12 7.0 -5.7 --- --- 726.3 0.014 0.000 9.7 8 1
02/21/06 3:54 a -1.6 -1.6 -1.6 --- --- 7.0 NE 0.12 7.8 -5.9 --- --- 726.3 0.014 0.000 9.7 8 1
02/21/06 3:55 a -1.4 -1.4 -1.4 --- --- 7.0 NE 0.12 7.8 -5.7 --- --- 726.2 0.014 0.000 9.7 8 1
02/21/06 3:56 a -1.5 -1.4 -1.6 --- --- 7.0 NE 0.12 7.8 -5.8 --- --- 726.2 0.014 0.000 9.7 8 1
02/21/06 3:57 a -1.5 -1.4 -1.6 --- --- 7.0 ENE 0.12 7.8 -5.8 --- --- 726.2 0.014 0.000 9.7 8 1
02/21/06 3:58 a -1.4 -1.4 -1.4 --- --- 7.0 ENE 0.12 7.8 -5.7 --- --- 726.2 0.014 0.000 9.7 8 1
02/21/06 3:59 a -1.4 -1.4 -1.4 --- --- 6.1 NE 0.10 7.0 -5.3 --- --- 726.2 0.014 0.000 9.7 8 1
02/21/06 4:00 a -1.5 -1.4 -1.6 --- --- 7.0 NE 0.12 7.8 -5.8 --- --- 726.2 0.014 0.000 9.7 8 1
02/21/06 4:01 a -1.3 -1.3 -1.4 --- --- 7.0 NE 0.12 7.8 -5.6 --- --- 726.2 0.014 0.000 9.7 8 1
02/21/06 4:02 a -1.2 -1.1 -1.2 --- --- 7.0 NE 0.12 7.8 -5.4 --- --- 726.3 0.014 0.000 9.7 8 1
02/21/06 4:03 a -1.1 -1.1 -1.1 --- --- 7.0 NE 0.12 7.8 -5.3 --- --- 726.3 0.013 0.000 9.7 8 1
02/21/06 4:04 a -1.1 -1.1 -1.1 --- --- 7.0 NE 0.12 7.8 -5.3 --- --- 726.3 0.013 0.000 9.7 8 1
02/21/06 4:05 a -1.1 -1.1 -1.2 --- --- 7.0 NE 0.12 7.8 -5.3 --- --- 726.3 0.014 0.000 9.7 8 1
02/21/06 4:06 a -1.2 -1.1 -1.2 --- --- 7.8 NE 0.13 7.8 -5.7 --- --- 726.2 0.014 0.000 9.7 8 1
02/21/06 4:07 a -1.3 -1.3 -1.3 --- --- 7.8 NE 0.13 7.8 -5.9 --- --- 726.2 0.014 0.000 9.7 8 1
02/21/06 4:08 a -1.3 -1.3 -1.4 --- --- 7.8 NE 0.13 7.8 -5.9 --- --- 726.3 0.014 0.000 9.7 8 1
02/21/06 4:09 a -1.3 -1.2 -1.3 --- --- 7.0 NE 0.12 7.8 -5.6 --- --- 726.3 0.014 0.000 9.8 8 1
02/21/06 4:10 a -1.3 -1.2 -1.4 --- --- 7.8 NE 0.13 8.7 -5.9 --- --- 726.3 0.014 0.000 9.8 8 1
02/21/06 4:11 a -1.4 -1.4 -1.6 --- --- 7.8 NE 0.13 8.7 -6.1 --- --- 726.2 0.014 0.000 9.7 8 1
02/21/06 4:12 a -1.6 -1.6 -1.7 --- --- 7.8 NE 0.13 8.7 -6.3 --- --- 726.3 0.014 0.000 9.7 8 1
02/21/06 4:13 a -1.8 -1.7 -1.9 --- --- 7.0 NE 0.12 7.8 -6.2 --- --- 726.3 0.014 0.000 9.7 8 1
02/21/06 4:14 a -1.8 -1.8 -1.9 --- --- 7.0 ENE 0.12 7.8 -6.2 --- --- 726.3 0.014 0.000 9.7 8 1
02/21/06 4:15 a -1.8 -1.7 -1.8 --- --- 7.0 NE 0.12 7.8 -6.2 --- --- 726.3 0.014 0.000 9.7 8 1
02/21/06 4:16 a -1.6 -1.5 -1.7 --- --- 7.0 ENE 0.12 7.8 -5.9 --- --- 726.3 0.014 0.000 9.8 8 1
02/21/06 4:17 a -1.4 -1.3 -1.5 --- --- 7.8 ENE 0.13 8.7 -6.0 --- --- 726.3 0.014 0.000 9.8 8 1
02/21/06 4:18 a -1.3 -1.2 -1.3 --- --- 7.0 ENE 0.12 8.7 -5.6 --- --- 726.3 0.014 0.000 9.8 8 1
02/21/06 4:19 a -1.2 -1.2 -1.2 --- --- 7.0 ENE 0.12 7.8 -5.4 --- --- 726.3 0.014 0.000 9.8 8 1
02/21/06 4:20 a -1.2 -1.2 -1.2 --- --- 7.0 NE 0.12 7.8 -5.4 --- --- 726.3 0.014 0.000 9.8 8 1
02/21/06 4:21 a -1.2 -1.1 -1.2 --- --- 7.0 ENE 0.12 7.8 -5.4 --- --- 726.3 0.014 0.000 9.8 8 1
02/21/06 4:22 a -1.2 -1.1 -1.2 --- --- 7.8 NE 0.13 7.8 -5.7 --- --- 726.2 0.014 0.000 9.8 8 1
02/21/06 4:23 a -1.1 -1.1 -1.1 --- --- 7.0 ENE 0.12 7.8 -5.3 --- --- 726.3 0.014 0.000 9.8 8 1
02/21/06 4:24 a -1.1 -1.0 -1.1 --- --- 7.0 NE 0.12 7.8 -5.3 --- --- 726.3 0.013 0.000 9.8 8 1
02/21/06 4:25 a -1.2 -1.1 -1.2 --- --- 6.1 ENE 0.10 7.8 -5.0 --- --- 726.3 0.014 0.000 9.8 8 1
02/21/06 4:26 a -1.2 -1.2 -1.3 --- --- 7.8 NE 0.13 8.7 -5.8 --- --- 726.2 0.014 0.000 9.8 8 1
02/21/06 4:27 a -1.3 -1.3 -1.3 --- --- 7.8 NE 0.13 7.8 -5.9 --- --- 726.3 0.014 0.000 9.8 8 1
02/21/06 4:28 a -1.3 -1.3 -1.3 --- --- 7.0 NE 0.12 7.8 -5.6 --- --- 726.2 0.014 0.000 9.8 8 1
02/21/06 4:29 a -1.3 -1.3 -1.3 --- --- 7.0 NE 0.12 7.8 -5.6 --- --- 726.3 0.014 0.000 9.8 8 1
02/21/06 4:30 a -1.2 -1.2 -1.2 --- --- 7.0 ENE 0.12 7.8 -5.4 --- --- 726.2 0.014 0.000 9.8 8 1
02/21/06 4:31 a -1.2 -1.2 -1.2 --- --- 7.0 ENE 0.12 7.8 -5.4 --- --- 726.3 0.014 0.000 9.8 8 1
02/21/06 4:32 a -1.2 -1.2 -1.2 --- --- 7.0 NE 0.12 7.8 -5.4 --- --- 726.3 0.014 0.000 9.8 8 1
02/21/06 4:33 a -1.3 -1.2 -1.4 --- --- 6.1 NE 0.10 7.0 -5.2 --- --- 726.3 0.014 0.000 9.8 8 1
02/21/06 4:34 a -1.4 -1.4 -1.4 --- --- 6.1 NE 0.10 7.0 -5.3 --- --- 726.3 0.014 0.000 9.8 8 1
02/21/06 4:35 a -1.3 -1.1 -1.4 --- --- 6.1 ENE 0.10 7.8 -5.2 --- --- 726.2 0.014 0.000 9.9 8 1
02/21/06 4:36 a -1.1 -1.1 -1.1 --- --- 6.1 ENE 0.10 7.8 -4.9 --- --- 726.2 0.014 0.000 9.9 8 1
02/21/06 4:37 a -1.0 -1.0 -1.1 --- --- 6.1 NE 0.10 7.0 -4.8 --- --- 726.3 0.013 0.000 9.9 8 1
02/21/06 4:38 a -1.0 -0.9 -1.0 --- --- 7.8 ENE 0.13 7.8 -5.6 --- --- 726.2 0.013 0.000 9.9 8 1
02/21/06 4:39 a -0.9 -0.9 -0.9 --- --- 7.0 ENE 0.12 7.8 -5.1 --- --- 726.2 0.013 0.000 9.9 8 1
02/21/06 4:40 a -0.9 -0.9 -0.9 --- --- 6.1 ENE 0.10 7.0 -4.8 --- --- 726.2 0.013 0.000 9.9 8 1
02/21/06 4:41 a -0.9 -0.9 -0.9 --- --- 6.1 ENE 0.10 7.0 -4.8 --- --- 726.2 0.013 0.000 9.9 8 1
02/21/06 4:42 a -0.9 -0.9 -1.1 --- --- 7.0 NE 0.12 7.8 -5.1 --- --- 726.2 0.013 0.000 9.9 8 1
02/21/06 4:43 a -1.2 -1.1 -1.2 --- --- 7.0 ENE 0.12 7.8 -5.4 --- --- 726.3 0.014 0.000 9.9 8 1
02/21/06 4:44 a -1.3 -1.2 -1.3 --- --- 7.8 ENE 0.13 7.8 -5.9 --- --- 726.3 0.014 0.000 9.9 8 1
02/21/06 4:45 a -1.1 -0.8 -1.3 --- --- 6.1 ENE 0.10 7.8 -4.9 --- --- 726.3 0.014 0.000 9.9 8 1
02/21/06 4:46 a -0.7 -0.6 -0.8 --- --- 5.2 ENE 0.09 6.1 -4.1 --- --- 726.2 0.013 0.000 9.9 8 1
02/21/06 4:47 a -0.4 -0.4 -0.6 --- --- 5.2 NE 0.09 6.1 -3.7 --- --- 726.2 0.013 0.000 9.9 8 1
02/21/06 4:48 a -0.6 -0.6 -0.7 --- --- 6.1 NE 0.10 7.0 -4.3 --- --- 726.2 0.013 0.000 9.9 8 1
02/21/06 4:49 a -0.8 -0.7 -1.1 --- --- 7.0 NE 0.12 7.8 -5.0 --- --- 726.2 0.013 0.000 9.9 8 1
02/21/06 4:50 a -1.2 -1.1 -1.4 --- --- 6.1 NE 0.10 7.0 -5.0 --- --- 726.2 0.014 0.000 9.9 8 1
02/21/06 4:51 a -1.4 -1.4 -1.4 --- --- 6.1 NE 0.10 7.0 -5.3 --- --- 726.2 0.014 0.000 10.0 8 1
02/21/06 4:52 a -1.3 -1.1 -1.4 --- --- 5.2 NE 0.09 7.0 -4.7 --- --- 726.3 0.014 0.000 10.0 8 1
02/21/06 4:53 a -1.1 -0.8 -1.1 --- --- 6.1 NE 0.10 7.0 -4.9 --- --- 726.3 0.013 0.000 10.0 8 1
02/21/06 4:54 a -0.8 -0.8 -0.9 --- --- 6.1 NE 0.10 6.1 -4.6 --- --- 726.2 0.013 0.000 10.0 8 1
02/21/06 4:55 a -0.7 -0.7 -0.9 --- --- 5.2 NE 0.09 6.1 -4.1 --- --- 726.3 0.013 0.000 10.0 8 1
02/21/06 4:56 a -0.7 -0.7 -0.7 --- --- 5.2 NE 0.09 5.2 -4.0 --- --- 726.2 0.013 0.000 10.0 8 1
02/21/06 4:57 a -0.7 -0.7 -0.7 --- --- 5.2 NE 0.09 6.1 -4.0 --- --- 726.2 0.013 0.000 10.0 8 1
02/21/06 4:58 a -0.7 -0.7 -0.7 --- --- 6.1 NE 0.10 7.0 -4.5 --- --- 726.2 0.013 0.000 10.0 8 1
02/21/06 4:59 a -0.8 -0.7 -0.8 --- --- 6.1 NE 0.10 7.0 -4.6 --- --- 726.2 0.013 0.000 10.0 8 1
02/21/06 5:00 a -0.8 -0.8 -0.9 --- --- 6.1 NE 0.10 7.0 -4.6 --- --- 726.2 0.013 0.000 10.0 8 1
02/21/06 5:01 a -0.8 -0.8 -0.8 --- --- 6.1 NE 0.10 7.0 -4.6 --- --- 726.2 0.013 0.000 10.0 8 1
02/21/06 5:02 a -0.8 -0.8 -0.8 --- --- 7.0 NE 0.12 7.8 -4.9 --- --- 726.2 0.013 0.000 10.0 8 1
02/21/06 5:03 a -0.9 -0.8 -0.9 --- --- 6.1 NE 0.10 7.0 -4.7 --- --- 726.3 0.013 0.000 10.0 8 1
02/21/06 5:04 a -0.9 -0.9 -0.9 --- --- 5.2 NE 0.09 6.1 -4.3 --- --- 726.2 0.013 0.000 10.0 8 1
02/21/06 5:05 a -0.9 -0.8 -0.9 --- --- 6.1 NE 0.10 7.8 -4.7 --- --- 726.2 0.013 0.000 10.1 8 1
02/21/06 5:06 a -0.9 -0.9 -1.0 --- --- 7.0 NE 0.12 7.8 -5.1 --- --- 726.2 0.013 0.000 10.1 8 1
02/21/06 5:07 a -0.9 -0.9 -1.0 --- --- 6.1 NE 0.10 7.0 -4.8 --- --- 726.3 0.013 0.000 10.1 8 1
02/21/06 5:08 a -0.8 -0.7 -0.9 --- --- 6.1 NE 0.10 7.0 -4.6 --- --- 726.2 0.013 0.000 10.1 8 1
02/21/06 5:09 a -0.6 -0.6 -0.7 --- --- 6.1 NE 0.10 7.0 -4.3 --- --- 726.2 0.013 0.000 10.1 8 1
02/21/06 5:10 a -0.7 -0.7 -0.7 --- --- 7.0 NE 0.12 7.8 -4.8 --- --- 726.2 0.013 0.000 10.1 8 1
02/21/06 5:11 a -0.8 -0.8 -0.9 --- --- 7.0 NE 0.12 7.8 -5.0 --- --- 726.3 0.013 0.000 10.1 8 1
02/21/06 5:12 a -0.9 -0.9 -0.9 --- --- 6.1 NE 0.10 7.0 -4.8 --- --- 726.3 0.013 0.000 10.1 8 1
02/21/06 5:13 a -0.8 -0.7 -0.8 --- --- 5.2 NE 0.09 6.1 -4.1 --- --- 726.3 0.013 0.000 10.1 8 1
02/21/06 5:14 a -0.6 -0.5 -0.6 --- --- 6.1 NE 0.10 7.8 -4.3 --- --- 726.1 0.013 0.000 10.1 8 1
02/21/06 5:15 a -0.6 -0.6 -0.6 --- --- 7.0 ENE 0.12 7.8 -4.7 --- --- 726.2 0.013 0.000 10.1 8 1
02/21/06 5:16 a -0.7 -0.7 -0.7 --- --- 6.1 ENE 0.10 7.0 -4.5 --- --- 726.1 0.013 0.000 10.1 8 1
02/21/06 5:17 a -0.7 -0.7 -0.8 --- --- 6.1 NE 0.10 7.0 -4.5 --- --- 726.2 0.013 0.000 10.1 8 1
02/21/06 5:18 a -0.8 -0.7 -0.8 --- --- 6.1 NE 0.10 7.0 -4.6 --- --- 726.1 0.013 0.000 10.2 8 1
02/21/06 5:19 a -0.8 -0.8 -0.8 --- --- 7.0 NE 0.12 7.8 -4.9 --- --- 726.1 0.013 0.000 10.2 8 1
02/21/06 5:20 a -0.9 -0.9 -1.0 --- --- 7.0 NE 0.12 7.0 -5.1 --- --- 726.1 0.013 0.000 10.2 8 1
02/21/06 5:21 a -0.9 -0.9 -0.9 --- --- 6.1 NE 0.10 7.0 -4.7 --- --- 726.2 0.013 0.000 10.2 8 1
02/21/06 5:22 a -0.8 -0.8 -0.8 --- --- 6.1 NE 0.10 7.0 -4.6 --- --- 726.2 0.013 0.000 10.2 8 1
02/21/06 5:23 a -0.7 -0.7 -0.7 --- --- 6.1 NE 0.10 7.0 -4.5 --- --- 726.2 0.013 0.000 10.1 8 1
02/21/06 5:24 a -0.6 -0.6 -0.7 --- --- 7.0 NE 0.12 7.0 -4.7 --- --- 726.2 0.013 0.000 10.2 8 1
02/21/06 5:25 a -0.7 -0.7 -0.8 --- --- 6.1 NE 0.10 6.1 -4.5 --- --- 726.3 0.013 0.000 10.2 8 1
02/21/06 5:26 a -0.7 -0.7 -0.7 --- --- 6.1 NE 0.10 6.1 -4.4 --- --- 726.2 0.013 0.000 10.2 8 1
02/21/06 5:27 a -0.6 -0.6 -0.7 --- --- 5.2 NE 0.09 6.1 -3.9 --- --- 726.2 0.013 0.000 10.2 8 1
02/21/06 5:28 a -0.6 -0.6 -0.7 --- --- 6.1 NE 0.10 7.0 -4.3 --- --- 726.2 0.013 0.000 10.2 8 1
02/21/06 5:29 a -0.7 -0.7 -0.7 --- --- 6.1 NE 0.10 7.0 -4.4 --- --- 726.2 0.013 0.000 10.2 8 1
02/21/06 5:30 a -0.7 -0.6 -0.7 --- --- 6.1 NE 0.10 7.0 -4.4 --- --- 726.2 0.013 0.000 10.2 8 1
02/21/06 5:31 a -0.7 -0.7 -0.7 --- --- 7.0 NE 0.12 7.8 -4.8 --- --- 726.2 0.013 0.000 10.2 8 1
02/21/06 5:32 a -0.8 -0.7 -0.9 --- --- 7.0 NE 0.12 7.8 -5.0 --- --- 726.2 0.013 0.000 10.2 8 1
02/21/06 5:33 a -1.0 -0.9 -1.1 --- --- 6.1 NE 0.10 7.0 -4.8 --- --- 726.2 0.013 0.000 10.2 8 1
02/21/06 5:34 a -1.1 -0.9 -1.1 --- --- 6.1 NE 0.10 7.0 -4.9 --- --- 726.2 0.013 0.000 10.2 8 1
02/21/06 5:35 a -0.9 -0.8 -0.9 --- --- 7.0 NE 0.12 7.8 -5.1 --- --- 726.2 0.013 0.000 10.2 8 1
02/21/06 5:36 a -0.9 -0.8 -0.9 --- --- 6.1 NE 0.10 7.0 -4.7 --- --- 726.2 0.013 0.000 10.2 8 1
02/21/06 5:37 a -0.8 -0.8 -0.9 --- --- 5.2 NE 0.09 7.0 -4.2 --- --- 726.2 0.013 0.000 10.2 8 1
02/21/06 5:38 a -0.8 -0.7 -0.8 --- --- 7.0 NE 0.12 7.8 -4.9 --- --- 726.2 0.013 0.000 10.2 8 1
02/21/06 5:39 a -0.9 -0.8 -1.1 --- --- 7.0 NE 0.12 7.0 -5.1 --- --- 726.2 0.013 0.000 10.2 8 1
02/21/06 5:40 a -1.1 -1.1 -1.1 --- --- 6.1 NE 0.10 7.0 -4.9 --- --- 726.2 0.013 0.000 10.2 8 1
02/21/06 5:41 a -1.0 -0.9 -1.1 --- --- 5.2 NE 0.09 6.1 -4.4 --- --- 726.2 0.013 0.000 10.2 8 1
02/21/06 5:42 a -0.9 -0.9 -1.0 --- --- 6.1 NE 0.10 6.1 -4.7 --- --- 726.2 0.013 0.000 10.2 8 1
02/21/06 5:43 a -1.1 -1.0 -1.1 --- --- 6.1 NE 0.10 6.1 -4.9 --- --- 726.2 0.013 0.000 10.2 8 1
02/21/06 5:44 a -0.9 -0.9 -1.1 --- --- 6.1 NE 0.10 7.0 -4.8 --- --- 726.2 0.013 0.000 10.2 8 1
02/21/06 5:45 a -0.9 -0.9 -0.9 --- --- 6.1 NE 0.10 6.1 -4.8 --- --- 726.1 0.013 0.000 10.2 8 1
02/21/06 5:46 a -0.9 -0.9 -1.0 --- --- 6.1 NE 0.10 7.0 -4.8 --- --- 726.1 0.013 0.000 10.2 8 1
02/21/06 5:47 a -1.0 -0.9 -1.0 --- --- 5.2 NE 0.09 6.1 -4.4 --- --- 726.1 0.013 0.000 10.2 8 1
02/21/06 5:48 a -0.9 -0.8 -0.9 --- --- 6.1 NE 0.10 7.0 -4.7 --- --- 726.2 0.013 0.000 10.2 8 1
02/21/06 5:49 a -0.9 -0.8 -0.9 --- --- 5.2 NE 0.09 6.1 -4.3 --- --- 726.2 0.013 0.000 10.2 8 1
02/21/06 5:50 a -0.8 -0.8 -0.8 --- --- 6.1 NE 0.10 6.1 -4.6 --- --- 726.2 0.013 0.000 10.2 8 1
02/21/06 5:51 a -0.8 -0.7 -0.8 --- --- 6.1 NE 0.10 6.1 -4.6 --- --- 726.2 0.013 0.000 10.2 8 1
02/21/06 5:52 a -0.7 -0.7 -0.7 --- --- 5.2 NE 0.09 6.1 -4.1 --- --- 726.2 0.013 0.000 10.3 8 1
02/21/06 5:53 a -0.6 -0.4 -0.7 --- --- 4.3 NE 0.07 5.2 -3.4 --- --- 726.2 0.013 0.000 10.3 8 1
02/21/06 5:54 a -0.3 -0.3 -0.4 --- --- 4.3 NE 0.07 5.2 -3.1 --- --- 726.2 0.013 0.000 10.3 8 1
02/21/06 5:55 a -0.3 -0.3 -0.4 --- --- 5.2 NE 0.09 6.1 -3.6 --- --- 726.2 0.013 0.000 10.3 8 1
02/21/06 5:56 a -0.3 -0.2 -0.3 --- --- 6.1 NE 0.10 7.0 -3.9 --- --- 726.2 0.013 0.000 10.3 8 1
02/21/06 5:57 a -0.4 -0.3 -0.5 --- --- 6.1 NE 0.10 7.0 -4.1 --- --- 726.2 0.013 0.000 10.3 8 1
02/21/06 5:58 a -0.7 -0.7 -0.8 --- --- 6.1 NE 0.10 6.1 -4.4 --- --- 726.2 0.013 0.000 10.3 8 1
02/21/06 5:59 a -0.9 -0.9 -0.9 --- --- 5.2 NE 0.09 6.1 -4.3 --- --- 726.3 0.013 0.000 10.4 8 1
02/21/06 6:00 a -0.8 -0.7 -0.8 --- --- 5.2 NE 0.09 6.1 -4.1 --- --- 726.1 0.013 0.000 10.4 8 1
02/21/06 6:01 a -0.9 -0.7 -1.1 --- --- 3.5 NNE 0.06 5.2 -3.2 --- --- 726.2 0.013 0.000 10.4 8 1
02/21/06 6:02 a -1.2 -1.1 -1.2 --- --- 5.2 NNE 0.09 6.1 -4.6 --- --- 726.1 0.014 0.000 10.4 8 1
02/21/06 6:03 a -1.0 -0.9 -1.1 --- --- 6.1 NE 0.10 6.1 -4.8 --- --- 726.2 0.013 0.000 10.5 8 1
02/21/06 6:04 a -0.8 -0.7 -0.8 --- --- 5.2 NE 0.09 6.1 -4.1 --- --- 726.2 0.013 0.000 10.5 8 1
02/21/06 6:05 a -0.8 -0.8 -0.9 --- --- 6.1 NE 0.10 7.0 -4.6 --- --- 726.2 0.013 0.000 10.6 8 1
02/21/06 6:06 a -0.9 -0.9 -0.9 --- --- 5.2 NE 0.09 6.1 -4.3 --- --- 726.1 0.013 0.000 10.6 8 1
02/21/06 6:07 a -0.7 -0.5 -0.7 --- --- 4.3 NE 0.07 5.2 -3.5 --- --- 726.2 0.013 0.000 10.6 8 1
02/21/06 6:08 a -0.4 -0.4 -0.5 --- --- 4.3 NNE 0.07 5.2 -3.3 --- --- 726.2 0.013 0.000 10.6 8 1
02/21/06 6:09 a -0.3 -0.3 -0.4 --- --- 4.3 NE 0.07 5.2 -3.1 --- --- 726.2 0.013 0.000 10.6 8 1
02/21/06 6:10 a -0.3 -0.3 -0.4 --- --- 5.2 NE 0.09 5.2 -3.6 --- --- 726.2 0.013 0.000 10.6 8 1
02/21/06 6:11 a -0.3 -0.3 -0.3 --- --- 5.2 NE 0.09 6.1 -3.6 --- --- 726.2 0.013 0.000 10.7 8 1
02/21/06 6:12 a -0.5 -0.4 -0.7 --- --- 6.1 NE 0.10 6.1 -4.2 --- --- 726.2 0.013 0.000 10.7 8 1
02/21/06 6:13 a -1.8 -0.7 -3.0 --- --- 3.5 N 0.06 6.1 -4.3 --- --- 726.2 0.014 0.000 10.7 8 1
02/21/06 6:14 a -3.0 -2.7 -3.1 --- --- 2.6 N 0.04 4.3 -4.9 --- --- 726.3 0.015 0.000 10.7 8 1
02/21/06 6:15 a -2.2 -1.9 -2.7 --- --- 3.5 NNE 0.06 4.3 -4.7 --- --- 726.2 0.014 0.000 10.7 8 1
02/21/06 6:16 a -1.4 -1.1 -1.6 --- --- 4.3 NE 0.07 5.2 -4.4 --- --- 726.3 0.014 0.000 10.7 8 1
02/21/06 6:17 a -1.0 -0.8 -1.1 --- --- 5.2 NE 0.09 6.1 -4.4 --- --- 726.3 0.013 0.000 10.7 8 1
02/21/06 6:18 a -0.9 -0.8 -0.9 --- --- 5.2 NE 0.09 6.1 -4.3 --- --- 726.2 0.013 0.000 10.7 8 1
02/21/06 6:19 a -0.9 -0.9 -1.1 --- --- 6.1 NE 0.10 6.1 -4.8 --- --- 726.2 0.013 0.000 10.7 8 1
02/21/06 6:20 a -0.9 -0.9 -1.1 --- --- 5.2 NE 0.09 6.1 -4.3 --- --- 726.3 0.013 0.000 10.7 8 1
02/21/06 6:21 a -1.0 -0.9 -1.1 --- --- 5.2 NE 0.09 6.1 -4.4 --- --- 726.3 0.013 0.000 10.7 8 1
02/21/06 6:22 a -1.0 -0.9 -1.1 --- --- 5.2 NE 0.09 6.1 -4.4 --- --- 726.2 0.013 0.000 10.8 8 1
02/21/06 6:23 a -1.0 -0.9 -1.1 --- --- 5.2 NNE 0.09 6.1 -4.4 --- --- 726.2 0.013 0.000 10.8 8 1
02/21/06 6:24 a -1.2 -1.1 -1.3 --- --- 6.1 NE 0.10 6.1 -5.0 --- --- 726.2 0.014 0.000 10.8 8 1
02/21/06 6:25 a -1.2 -1.2 -1.3 --- --- 6.1 NE 0.10 7.0 -5.1 --- --- 726.3 0.014 0.000 10.8 8 1
02/21/06 6:26 a -1.2 -1.2 -1.3 --- --- 6.1 NE 0.10 7.0 -5.1 --- --- 726.2 0.014 0.000 10.8 8 1
02/21/06 6:27 a -1.4 -1.3 -1.4 --- --- 5.2 NE 0.09 7.0 -4.8 --- --- 726.2 0.014 0.000 10.8 8 1
02/21/06 6:28 a -1.3 -1.1 -1.3 --- --- 4.3 NE 0.07 6.1 -4.2 --- --- 726.2 0.014 0.000 10.8 8 1
02/21/06 6:29 a -1.3 -1.1 -1.5 --- --- 2.6 NE 0.04 4.3 -3.0 --- --- 726.2 0.014 0.000 10.9 8 1
02/21/06 6:30 a -1.2 -1.2 -1.3 --- --- 0.9 NE 0.01 1.7 -1.2 --- --- 726.1 0.014 0.000 10.9 8 1
02/21/06 6:31 a -0.9 -0.4 -1.2 --- --- 0.0 NE 0.00 0.9 -0.9 --- --- 726.2 0.013 0.000 10.9 8 1
02/21/06 6:32 a -0.3 0.0 -0.4 --- --- 0.9 NE 0.01 1.7 -0.3 --- --- 726.2 0.013 0.000 10.9 8 1
02/21/06 6:33 a 0.3 0.3 0.0 --- --- 1.7 NE 0.03 2.6 -0.3 --- --- 726.3 0.013 0.000 10.8 8 1
02/21/06 6:34 a -0.1 0.0 -0.3 --- --- 1.7 NE 0.03 2.6 -0.7 --- --- 726.3 0.013 0.000 10.8 8 1
02/21/06 6:35 a -0.2 -0.2 -0.2 --- --- 1.7 NE 0.03 3.5 -0.8 --- --- 726.3 0.013 0.000 10.9 8 1
02/21/06 6:36 a -0.2 -0.1 -0.6 --- --- 3.5 NNE 0.06 4.3 -2.4 --- --- 726.3 0.013 0.000 10.9 8 1
02/21/06 6:37 a -1.0 -1.0 -1.3 --- --- 3.5 NNE 0.06 4.3 -3.3 --- --- 726.2 0.013 0.000 10.9 8 1
02/21/06 6:38 a -1.7 -1.6 -1.8 --- --- 0.9 NNE 0.01 2.6 -1.7 --- --- 726.2 0.014 0.000 10.9 8 1
02/21/06 6:39 a -1.5 -1.4 -1.6 --- --- 2.6 NNE 0.04 3.5 -3.2 --- --- 726.2 0.014 0.000 10.9 8 1
02/21/06 6:40 a -1.4 -1.3 -1.7 --- --- 4.3 NNE 0.07 5.2 -4.4 --- --- 726.2 0.014 0.000 10.9 8 1
02/21/06 6:41 a -1.8 -1.7 -1.8 --- --- 3.5 NNE 0.06 4.3 -4.2 --- --- 726.2 0.014 0.000 10.9 8 1
02/21/06 6:42 a -1.8 -1.8 -1.8 --- --- 3.5 N 0.06 3.5 -4.2 --- --- 726.2 0.014 0.000 10.9 8 1
02/21/06 6:43 a -2.1 -2.0 -2.4 --- --- 3.5 N 0.06 4.3 -4.6 --- --- 726.2 0.014 0.000 11.0 8 1
02/21/06 6:44 a -2.2 -2.1 -2.3 --- --- 2.6 N 0.04 4.3 -3.9 --- --- 726.2 0.014 0.000 11.0 8 1
02/21/06 6:45 a -2.0 -2.0 -2.1 --- --- 3.5 N 0.06 4.3 -4.5 --- --- 726.2 0.014 0.000 11.0 8 1
02/21/06 6:46 a -1.9 -1.9 -2.0 --- --- 2.6 N 0.04 3.5 -3.7 --- --- 726.2 0.014 0.000 11.1 8 1
02/21/06 6:47 a -2.6 -2.4 -2.8 --- --- 0.9 N 0.01 2.6 -2.6 --- --- 726.2 0.015 0.000 11.0 8 1
02/21/06 6:48 a -2.6 -2.4 -2.7 --- --- 0.9 N 0.01 1.7 -2.6 --- --- 726.2 0.015 0.000 11.0 8 1
02/21/06 6:49 a -2.3 -2.2 -2.5 --- --- 0.9 N 0.01 0.9 -2.3 --- --- 726.2 0.014 0.000 11.0 8 1
02/21/06 6:50 a -2.8 -2.7 -2.9 --- --- 1.7 N 0.03 2.6 -3.6 --- --- 726.1 0.015 0.000 11.0 8 1
02/21/06 6:51 a -2.8 -2.7 -2.9 --- --- 2.6 N 0.04 3.5 -4.6 --- --- 726.2 0.015 0.000 11.1 8 1
02/21/06 6:52 a -2.9 -2.8 -3.1 --- --- 3.5 N 0.06 4.3 -5.5 --- --- 726.1 0.015 0.000 11.1 8 1
02/21/06 6:53 a -3.3 -3.2 -3.4 --- --- 2.6 N 0.04 4.3 -5.2 --- --- 726.1 0.015 0.000 11.1 8 1
02/21/06 6:54 a -3.6 -3.5 -3.8 --- --- 2.6 N 0.04 3.5 -5.6 --- --- 726.2 0.015 0.000 11.1 8 1
02/21/06 6:55 a -3.8 -3.8 -3.9 --- --- 4.3 N 0.07 5.2 -7.2 --- --- 726.1 0.015 0.000 11.1 8 1
02/21/06 6:56 a -4.1 -4.0 -4.2 --- --- 3.5 N 0.06 5.2 -6.9 --- --- 726.1 0.016 0.000 11.1 8 1
02/21/06 6:57 a -4.2 -4.2 -4.2 --- --- 3.5 N 0.06 4.3 -7.0 --- --- 726.2 0.016 0.000 11.1 8 1
02/21/06 6:58 a -4.1 -4.1 -4.1 --- --- 2.6 N 0.04 4.3 -6.2 --- --- 726.1 0.016 0.000 11.1 8 1
02/21/06 6:59 a -4.1 -4.0 -4.1 --- --- 3.5 N 0.06 4.3 -6.9 --- --- 726.2 0.016 0.000 11.1 8 1
02/21/06 7:00 a -4.0 -4.0 -4.0 --- --- 2.6 N 0.04 3.5 -6.0 --- --- 726.2 0.016 0.000 11.1 8 1
02/21/06 7:01 a -4.1 -4.1 -4.1 --- --- 2.6 N 0.04 2.6 -6.1 --- --- 726.2 0.016 0.000 11.1 8 1
02/21/06 7:02 a -4.2 -4.1 -4.2 --- --- 2.6 N 0.04 3.5 -6.2 --- --- 726.2 0.016 0.000 11.1 8 1
02/21/06 7:03 a -4.2 -4.1 -4.3 --- --- 2.6 N 0.04 3.5 -6.3 --- --- 726.1 0.016 0.000 11.1 8 1
02/21/06 7:04 a -4.2 -4.2 -4.2 --- --- 2.6 N 0.04 3.5 -6.3 --- --- 726.1 0.016 0.000 11.0 8 1
02/21/06 7:05 a -4.3 -4.2 -4.3 --- --- 1.7 N 0.03 2.6 -5.3 --- --- 726.1 0.016 0.000 11.0 8 1
02/21/06 7:06 a -4.2 -4.2 -4.3 --- --- 2.6 N 0.04 3.5 -6.3 --- --- 726.1 0.016 0.000 11.0 8 1
02/21/06 7:07 a -4.2 -4.1 -4.3 --- --- 0.9 N 0.01 3.5 -4.2 --- --- 726.1 0.016 0.000 11.0 8 1
02/21/06 7:08 a -4.1 -3.9 -4.1 --- --- 1.7 N 0.03 3.5 -5.1 --- --- 726.0 0.016 0.000 11.0 8 1
02/21/06 7:09 a -3.7 -3.3 -3.9 --- --- 1.7 N 0.03 2.6 -4.6 --- --- 726.1 0.015 0.000 11.0 8 1
02/21/06 7:10 a -3.0 -2.7 -3.3 --- --- 1.7 N 0.03 2.6 -3.9 --- --- 726.1 0.015 0.000 11.0 8 1
02/21/06 7:11 a -2.4 -2.1 -2.7 --- --- 0.9 N 0.01 2.6 -2.4 --- --- 726.1 0.014 0.000 11.0 8 1
02/21/06 7:12 a -2.2 -2.1 -2.3 --- --- 2.6 N 0.04 3.5 -4.0 --- --- 726.1 0.014 0.000 11.0 8 1
02/21/06 7:13 a -2.4 -2.3 -2.5 --- --- 3.5 N 0.06 4.3 -4.9 --- --- 726.1 0.014 0.000 11.0 8 1
02/21/06 7:14 a -2.6 -2.5 -2.8 --- --- 3.5 N 0.06 4.3 -5.1 --- --- 726.2 0.015 0.000 11.0 8 1
02/21/06 7:15 a -3.0 -2.8 -3.2 --- --- 4.3 N 0.07 4.3 -6.3 --- --- 726.1 0.015 0.000 11.0 8 1
02/21/06 7:16 a -3.2 -3.1 -3.3 --- --- 4.3 N 0.07 4.3 -6.4 --- --- 726.1 0.015 0.000 11.0 8 1
02/21/06 7:17 a -3.3 -3.2 -3.4 --- --- 3.5 N 0.06 3.5 -5.9 --- --- 726.1 0.015 0.000 10.9 8 1
02/21/06 7:18 a -3.5 -3.4 -3.6 --- --- 3.5 N 0.06 3.5 -6.2 --- --- 726.1 0.015 0.000 10.9 8 1
02/21/06 7:19 a -3.4 -3.3 -3.6 --- --- 3.5 N 0.06 3.5 -6.2 --- --- 726.1 0.015 0.000 10.9 8 1
02/21/06 7:20 a -3.4 -3.4 -3.5 --- --- 2.6 N 0.04 3.5 -5.3 --- --- 726.2 0.015 0.000 10.9 8 1
02/21/06 7:21 a -3.5 -3.5 -3.5 --- --- 2.6 N 0.04 2.6 -5.4 --- --- 726.1 0.015 0.000 10.9 8 1
02/21/06 7:22 a -3.5 -3.4 -3.6 --- --- 1.7 N 0.03 2.6 -4.4 --- --- 726.1 0.015 0.000 10.9 8 1
02/21/06 7:23 a -3.3 -3.1 -3.4 --- --- 1.7 N 0.03 2.6 -4.2 --- --- 726.1 0.015 0.000 10.9 8 1
02/21/06 7:24 a -3.2 -3.2 -3.2 --- --- 1.7 N 0.03 1.7 -4.1 --- --- 726.2 0.015 0.000 10.9 8 1
02/21/06 7:25 a -3.1 -3.0 -3.2 --- --- 1.7 N 0.03 2.6 -4.0 --- --- 726.1 0.015 0.000 10.9 8 1
02/21/06 7:26 a -2.8 -2.8 -2.9 --- --- 1.7 N 0.03 2.6 -3.7 --- --- 726.2 0.015 0.000 10.9 8 1
02/21/06 7:27 a -2.9 -2.8 -2.9 --- --- 1.7 N 0.03 1.7 -3.7 --- --- 726.1 0.015 0.000 10.8 8 1
02/21/06 7:28 a -3.0 -2.9 -3.1 --- --- 1.7 N 0.03 1.7 -3.9 --- --- 726.2 0.015 0.000 10.8 8 1
02/21/06 7:29 a -3.1 -3.1 -3.3 --- --- 1.7 N 0.03 2.6 -4.0 --- --- 726.1 0.015 0.000 10.8 8 1
02/21/06 7:30 a -3.4 -3.3 -3.4 --- --- 1.7 N 0.03 1.7 -4.3 --- --- 726.1 0.015 0.000 10.8 8 1
02/21/06 7:31 a -3.4 -3.3 -3.5 --- --- 1.7 N 0.03 2.6 -4.3 --- --- 726.1 0.015 0.000 10.8 8 1
02/21/06 7:32 a -3.6 -3.5 -3.6 --- --- 1.7 N 0.03 1.7 -4.5 --- --- 726.2 0.015 0.000 10.8 8 1
02/21/06 7:33 a -3.5 -3.4 -3.6 --- --- 0.9 N 0.01 1.7 -3.5 --- --- 726.2 0.015 0.000 10.8 8 1
02/21/06 7:34 a -3.6 -3.5 -3.6 --- --- 1.7 N 0.03 3.5 -4.5 --- --- 726.2 0.015 0.000 10.8 8 1
02/21/06 7:35 a -3.4 -3.2 -3.6 --- --- 2.6 N 0.04 3.5 -5.3 --- --- 726.1 0.015 0.000 10.8 8 1
02/21/06 7:36 a -3.2 -3.2 -3.2 --- --- 3.5 N 0.06 3.5 -5.8 --- --- 726.2 0.015 0.000 10.8 8 1
02/21/06 7:37 a -3.1 -3.1 -3.1 --- --- 2.6 N 0.04 3.5 -5.0 --- --- 726.2 0.015 0.000 10.8 8 1
02/21/06 7:38 a -3.3 -3.1 -3.5 --- --- 2.6 N 0.04 3.5 -5.3 --- --- 726.2 0.015 0.000 10.8 8 1
02/21/06 7:39 a -3.6 -3.5 -3.7 --- --- 3.5 N 0.06 4.3 -6.3 --- --- 726.2 0.015 0.000 10.8 8 1
02/21/06 7:40 a -3.7 -3.7 -3.7 --- --- 3.5 N 0.06 4.3 -6.5 --- --- 726.2 0.015 0.000 10.8 8 1
02/21/06 7:41 a -3.8 -3.8 -3.9 --- --- 3.5 N 0.06 3.5 -6.6 --- --- 726.2 0.015 0.000 10.7 8 1
02/21/06 7:42 a -3.7 -3.7 -3.8 --- --- 3.5 N 0.06 4.3 -6.5 --- --- 726.2 0.015 0.000 10.7 8 1
02/21/06 7:43 a -3.7 -3.7 -3.9 --- --- 3.5 N 0.06 3.5 -6.5 --- --- 726.2 0.015 0.000 10.7 8 1
02/21/06 7:44 a -3.8 -3.7 -3.8 --- --- 3.5 N 0.06 4.3 -6.6 --- --- 726.1 0.015 0.000 10.7 8 1
02/21/06 7:45 a -3.7 -3.7 -3.8 --- --- 4.3 N 0.07 5.2 -7.1 --- --- 726.2 0.015 0.000 10.7 8 1
02/21/06 7:46 a -4.1 -4.1 -4.3 --- --- 3.5 N 0.06 4.3 -6.9 --- --- 726.2 0.016 0.000 10.7 8 1
02/21/06 7:47 a -4.4 -4.3 -4.4 --- --- 3.5 N 0.06 4.3 -7.2 --- --- 726.2 0.016 0.000 10.6 8 1
02/21/06 7:48 a -4.4 -4.3 -4.4 --- --- 3.5 N 0.06 4.3 -7.2 --- --- 726.2 0.016 0.000 10.6 8 1
02/21/06 7:49 a -4.5 -4.4 -4.6 --- --- 3.5 N 0.06 4.3 -7.4 --- --- 726.3 0.016 0.000 10.6 8 1
02/21/06 7:50 a -4.6 -4.5 -4.6 --- --- 4.3 N 0.07 4.3 -8.1 --- --- 726.2 0.016 0.000 10.6 8 1
02/21/06 7:51 a -4.6 -4.6 -4.6 --- --- 3.5 N 0.06 3.5 -7.4 --- --- 726.2 0.016 0.000 10.6 8 1
02/21/06 7:52 a -4.8 -4.7 -4.9 --- --- 2.6 N 0.04 3.5 -6.9 --- --- 726.2 0.016 0.000 10.6 8 1
02/21/06 7:53 a -4.9 -4.9 -4.9 --- --- 2.6 N 0.04 3.5 -7.1 --- --- 726.2 0.016 0.000 10.6 8 1
02/21/06 7:54 a -4.9 -4.9 -4.9 --- --- 2.6 N 0.04 3.5 -7.1 --- --- 726.3 0.016 0.000 10.6 8 1
02/21/06 7:55 a -4.7 -4.5 -4.8 --- --- 2.6 N 0.04 3.5 -6.8 --- --- 726.2 0.016 0.000 10.6 8 1
02/21/06 7:56 a -4.3 -4.2 -4.4 --- --- 3.5 N 0.06 4.3 -7.1 --- --- 726.2 0.016 0.000 10.6 8 1
02/21/06 7:57 a -3.9 -3.8 -3.9 --- --- 3.5 N 0.06 4.3 -6.7 --- --- 726.2 0.015 0.000 10.6 8 1
02/21/06 7:58 a -3.8 -3.7 -3.9 --- --- 3.5 N 0.06 3.5 -6.6 --- --- 726.2 0.015 0.000 10.6 8 1
02/21/06 7:59 a -3.7 -3.6 -3.9 --- --- 2.6 N 0.04 3.5 -5.7 --- --- 726.2 0.015 0.000 10.6 8 1
02/21/06 8:00 a -3.6 -3.6 -3.7 --- --- 3.5 N 0.06 3.5 -6.3 --- --- 726.1 0.015 0.000 10.6 8 1
02/21/06 8:01 a -3.4 -3.4 -3.6 --- --- 3.5 N 0.06 4.3 -6.2 --- --- 726.2 0.015 0.000 10.6 8 1
02/21/06 8:02 a -3.5 -3.4 -3.5 --- --- 3.5 N 0.06 4.3 -6.2 --- --- 726.2 0.015 0.000 10.6 8 1
02/21/06 8:03 a -3.5 -3.4 -3.7 --- --- 3.5 N 0.06 4.3 -6.2 --- --- 726.2 0.015 0.000 10.5 8 1
02/21/06 8:04 a -3.7 -3.7 -3.7 --- --- 3.5 N 0.06 4.3 -6.5 --- --- 726.2 0.015 0.000 10.5 8 1
02/21/06 8:05 a -3.6 -3.6 -3.7 --- --- 3.5 N 0.06 4.3 -6.3 --- --- 726.2 0.015 0.000 10.5 8 1
02/21/06 8:06 a -3.6 -3.4 -3.6 --- --- 3.5 N 0.06 3.5 -6.3 --- --- 726.2 0.015 0.000 10.5 8 1
02/21/06 8:07 a -3.4 -3.3 -3.4 --- --- 0.9 N 0.01 1.7 -3.4 --- --- 726.2 0.015 0.000 10.5 8 1
02/21/06 8:08 a -3.4 -3.4 -3.6 --- --- 1.7 N 0.03 2.6 -4.3 --- --- 726.2 0.015 0.000 10.5 8 1
02/21/06 8:09 a -3.5 -3.5 -3.5 --- --- 2.6 N 0.04 3.5 -5.4 --- --- 726.2 0.015 0.000 10.5 8 1
02/21/06 8:10 a -3.6 -3.5 -3.6 --- --- 2.6 N 0.04 3.5 -5.5 --- --- 726.2 0.015 0.000 10.4 8 1
02/21/06 8:11 a -3.5 -3.5 -3.6 --- --- 3.5 N 0.06 3.5 -6.2 --- --- 726.1 0.015 0.000 10.4 8 1
02/21/06 8:12 a -3.4 -3.4 -3.4 --- --- 3.5 N 0.06 4.3 -6.1 --- --- 726.2 0.015 0.000 10.4 8 1
02/21/06 8:13 a -3.5 -3.4 -3.6 --- --- 3.5 N 0.06 4.3 -6.2 --- --- 726.2 0.015 0.000 10.4 8 1
02/21/06 8:14 a -3.6 -3.6 -3.7 --- --- 3.5 N 0.06 4.3 -6.3 --- --- 726.2 0.015 0.000 10.4 8 1
02/21/06 8:15 a -3.7 -3.6 -3.8 --- --- 3.5 N 0.06 5.2 -6.4 --- --- 726.2 0.015 0.000 10.4 8 1
02/21/06 8:16 a -3.8 -3.8 -4.0 --- --- 4.3 NNW 0.07 4.3 -7.2 --- --- 726.2 0.015 0.000 10.4 8 1
02/21/06 8:17 a -4.1 -4.1 -4.1 --- --- 2.6 NNW 0.04 3.5 -6.1 --- --- 726.2 0.016 0.000 10.4 8 1
02/21/06 8:18 a -4.2 -4.1 -4.2 --- --- 2.6 NNW 0.04 3.5 -6.2 --- --- 726.2 0.016 0.000 10.4 8 1
02/21/06 8:19 a -4.2 -4.2 -4.2 --- --- 3.5 NNW 0.06 4.3 -7.1 --- --- 726.3 0.016 0.000 10.4 8 1
02/21/06 8:20 a -4.2 -4.2 -4.3 --- --- 2.6 NNW 0.04 3.5 -6.2 --- --- 726.2 0.016 0.000 10.4 8 1
02/21/06 8:21 a -4.3 -4.2 -4.3 --- --- 2.6 NNW 0.04 3.5 -6.3 --- --- 726.2 0.016 0.000 10.4 8 1
02/21/06 8:22 a -4.2 -4.2 -4.3 --- --- 4.3 NNW 0.07 5.2 -7.7 --- --- 726.2 0.016 0.000 10.4 8 1
02/21/06 8:23 a -4.4 -4.4 -4.4 --- --- 3.5 NNW 0.06 4.3 -7.2 --- --- 726.3 0.016 0.000 10.4 8 1
02/21/06 8:24 a -4.3 -4.2 -4.3 --- --- 2.6 NNW 0.04 4.3 -6.3 --- --- 726.2 0.016 0.000 10.3 8 1
02/21/06 8:25 a -4.2 -4.2 -4.3 --- --- 3.5 NNW 0.06 4.3 -7.1 --- --- 726.2 0.016 0.000 10.3 8 1
02/21/06 8:26 a -4.2 -4.2 -4.2 --- --- 2.6 NNW 0.04 3.5 -6.2 --- --- 726.1 0.016 0.000 10.3 8 1
02/21/06 8:27 a -4.2 -4.1 -4.2 --- --- 3.5 NNW 0.06 4.3 -7.0 --- --- 726.2 0.016 0.000 10.4 8 1
02/21/06 8:28 a -4.2 -4.2 -4.2 --- --- 4.3 NNW 0.07 4.3 -7.6 --- --- 726.2 0.016 0.000 10.4 8 1
02/21/06 8:29 a -4.1 -4.0 -4.2 --- --- 3.5 NNW 0.06 4.3 -6.9 --- --- 726.2 0.016 0.000 10.3 8 1
02/21/06 8:30 a -3.9 -3.9 -3.9 --- --- 3.5 NNW 0.06 3.5 -6.7 --- --- 726.2 0.015 0.000 10.3 8 1
02/21/06 8:31 a -4.0 -3.9 -4.2 --- --- 3.5 NNW 0.06 4.3 -6.8 --- --- 726.1 0.016 0.000 10.3 8 1
02/21/06 8:32 a -4.3 -4.2 -4.3 --- --- 3.5 NNW 0.06 4.3 -7.1 --- --- 726.1 0.016 0.000 10.3 8 1
02/21/06 8:33 a -4.3 -4.2 -4.3 --- --- 3.5 NNW 0.06 4.3 -7.1 --- --- 726.2 0.016 0.000 10.3 8 1
02/21/06 8:34 a -4.2 -4.0 -4.2 --- --- 3.5 NNW 0.06 4.3 -7.0 --- --- 726.1 0.016 0.000 10.3 8 1
02/21/06 8:35 a -4.0 -4.0 -4.1 --- --- 3.5 NNW 0.06 4.3 -6.8 --- --- 726.2 0.016 0.000 10.3 8 1
02/21/06 8:36 a -4.1 -4.1 -4.1 --- --- 3.5 NNW 0.06 4.3 -6.9 --- --- 726.1 0.016 0.000 10.3 8 1
02/21/06 8:37 a -4.2 -4.1 -4.3 --- --- 3.5 NNW 0.06 5.2 -7.0 --- --- 726.1 0.016 0.000 10.3 8 1
02/21/06 8:38 a -4.2 -4.2 -4.2 --- --- 3.5 NNW 0.06 4.3 -7.1 --- --- 726.1 0.016 0.000 10.3 8 1
02/21/06 8:39 a -4.4 -4.2 -4.6 --- --- 4.3 NNW 0.07 5.2 -7.9 --- --- 726.2 0.016 0.000 10.3 8 1
02/21/06 8:40 a -4.6 -4.6 -4.6 --- --- 4.3 NNW 0.07 4.3 -8.2 --- --- 726.2 0.016 0.000 10.3 8 1
02/21/06 8:41 a -4.6 -4.6 -4.7 --- --- 4.3 NNW 0.07 4.3 -8.2 --- --- 726.1 0.016 0.000 10.3 8 1
02/21/06 8:42 a -4.6 -4.6 -4.7 --- --- 4.3 NNW 0.07 5.2 -8.2 --- --- 726.2 0.016 0.000 10.3 8 1
02/21/06 8:43 a -4.6 -4.6 -4.7 --- --- 4.3 NNW 0.07 5.2 -8.1 --- --- 726.2 0.016 0.000 10.3 8 1
02/21/06 8:44 a -4.7 -4.7 -4.9 --- --- 5.2 NNW 0.09 6.1 -8.8 --- --- 726.3 0.016 0.000 10.3 8 1
02/21/06 8:45 a -4.9 -4.9 -4.9 --- --- 5.2 NNW 0.09 6.1 -9.1 --- --- 726.2 0.016 0.000 10.3 8 1
02/21/06 8:46 a -4.9 -4.9 -4.9 --- --- 5.2 NNW 0.09 6.1 -9.1 --- --- 726.1 0.016 0.000 10.3 8 1
02/21/06 8:47 a -5.0 -4.9 -5.1 --- --- 5.2 NNW 0.09 6.1 -9.2 --- --- 726.1 0.016 0.000 10.3 8 1
02/21/06 8:48 a -5.1 -5.1 -5.2 --- --- 5.2 NNW 0.09 5.2 -9.3 --- --- 726.0 0.016 0.000 10.3 8 1
02/21/06 8:49 a -5.2 -5.2 -5.3 --- --- 5.2 NNW 0.09 6.1 -9.4 --- --- 726.2 0.016 0.000 10.3 8 1
02/21/06 8:50 a -5.3 -5.2 -5.3 --- --- 5.2 NNW 0.09 6.1 -9.5 --- --- 726.1 0.016 0.000 10.3 8 1
02/21/06 8:51 a -5.1 -5.1 -5.3 --- --- 4.3 NNW 0.07 5.2 -8.7 --- --- 726.2 0.016 0.000 10.3 8 1
02/21/06 8:52 a -4.9 -4.9 -5.1 --- --- 4.3 NNW 0.07 5.2 -8.6 --- --- 726.2 0.016 0.000 10.3 8 1
02/21/06 8:53 a -5.0 -4.9 -5.1 --- --- 6.1 NNW 0.10 7.0 -9.6 --- --- 726.1 0.016 0.000 10.3 8 1
02/21/06 8:54 a -5.1 -5.1 -5.2 --- --- 6.1 NNW 0.10 7.0 -9.8 --- --- 726.2 0.016 0.000 10.3 8 1
02/21/06 8:55 a -5.2 -5.2 -5.3 --- --- 5.2 NNW 0.09 6.1 -9.4 --- --- 726.2 0.016 0.000 10.3 8 1
02/21/06 8:56 a -5.4 -5.4 -5.4 --- --- 6.1 NNW 0.10 7.0 -10.1 --- --- 726.2 0.016 0.000 10.3 8 1
02/21/06 8:57 a -5.4 -5.4 -5.4 --- --- 6.1 NNW 0.10 7.0 -10.2 --- --- 726.2 0.017 0.000 10.3 8 1
02/21/06 8:58 a -5.4 -5.4 -5.4 --- --- 6.1 NNW 0.10 7.0 -10.2 --- --- 726.2 0.017 0.000 10.3 8 1
02/21/06 8:59 a -5.5 -5.5 -5.6 --- --- 6.1 NNW 0.10 7.0 -10.2 --- --- 726.2 0.017 0.000 10.3 8 1
02/21/06 9:00 a -5.4 -5.4 -5.4 --- --- 6.1 NNW 0.10 7.8 -10.2 --- --- 726.2 0.017 0.000 10.3 8 1
02/21/06 9:01 a -5.4 -5.4 -5.4 --- --- 7.0 NNW 0.12 7.8 -10.6 --- --- 726.2 0.017 0.000 10.2 8 1
02/21/06 9:02 a -5.4 -5.4 -5.5 --- --- 6.1 NNW 0.10 7.0 -10.2 --- --- 726.1 0.017 0.000 10.2 8 1
02/21/06 9:03 a -5.5 -5.4 -5.6 --- --- 7.0 NNW 0.12 7.8 -10.7 --- --- 726.2 0.017 0.000 10.2 8 1
02/21/06 9:04 a -5.5 -5.4 -5.5 --- --- 6.1 NNW 0.10 7.0 -10.2 --- --- 726.1 0.017 0.000 10.2 8 1
02/21/06 9:05 a -5.4 -5.4 -5.5 --- --- 7.0 NNW 0.12 7.8 -10.6 --- --- 726.2 0.017 0.000 10.2 8 1
02/21/06 9:06 a -5.5 -5.5 -5.6 --- --- 7.0 NNW 0.12 8.7 -10.7 --- --- 726.2 0.017 0.000 10.2 8 1
02/21/06 9:07 a -5.6 -5.6 -5.6 --- --- 7.0 NNW 0.12 7.8 -10.8 --- --- 726.2 0.017 0.000 10.2 8 1
02/21/06 9:08 a -5.6 -5.6 -5.6 --- --- 6.1 NNW 0.10 7.0 -10.4 --- --- 726.3 0.017 0.000 10.2 8 1
02/21/06 9:09 a -5.6 -5.6 -5.6 --- --- 6.1 NNW 0.10 7.0 -10.3 --- --- 726.2 0.017 0.000 10.2 8 1
02/21/06 9:10 a -5.6 -5.6 -5.6 --- --- 6.1 NNW 0.10 7.0 -10.4 --- --- 726.2 0.017 0.000 10.2 8 1
02/21/06 9:11 a -5.6 -5.6 -5.6 --- --- 7.0 NNW 0.12 8.7 -10.7 --- --- 726.2 0.017 0.000 10.2 8 1
02/21/06 9:12 a -5.7 -5.6 -5.7 --- --- 7.0 NNW 0.12 7.8 -10.9 --- --- 726.1 0.017 0.000 10.2 8 1
02/21/06 9:13 a -5.7 -5.7 -5.7 --- --- 7.0 NNW 0.12 7.8 -10.9 --- --- 726.1 0.017 0.000 10.2 8 1
02/21/06 9:14 a -5.7 -5.7 -5.8 --- --- 7.0 NNW 0.12 7.8 -10.9 --- --- 726.2 0.017 0.000 10.2 8 1
02/21/06 9:15 a -5.8 -5.8 -5.8 --- --- 7.0 NNW 0.12 7.8 -11.0 --- --- 726.2 0.017 0.000 10.2 8 1
02/21/06 9:16 a -5.8 -5.8 -5.8 --- --- 7.0 NNW 0.12 7.8 -11.0 --- --- 726.2 0.017 0.000 10.2 8 1
02/21/06 9:17 a -5.8 -5.8 -5.9 --- --- 7.8 NNW 0.13 8.7 -11.4 --- --- 726.1 0.017 0.000 10.2 8 1
02/21/06 9:18 a -5.9 -5.9 -5.9 --- --- 8.7 NNW 0.14 9.6 -11.9 --- --- 726.1 0.017 0.000 10.2 8 1
02/21/06 9:19 a -5.9 -5.9 -6.0 --- --- 8.7 NNW 0.14 9.6 -11.9 --- --- 726.1 0.017 0.000 10.2 8 1
02/21/06 9:20 a -5.9 -5.9 -6.0 --- --- 7.8 NNW 0.13 8.7 -11.6 --- --- 726.1 0.017 0.000 10.2 8 1
02/21/06 9:21 a -6.1 -6.0 -6.2 --- --- 7.8 NNW 0.13 9.6 -11.8 --- --- 726.3 0.017 0.000 10.2 8 1
02/21/06 9:22 a -6.1 -6.1 -6.1 --- --- 7.8 NNW 0.13 9.6 -11.8 --- --- 726.2 0.017 0.000 10.2 8 1
02/21/06 9:23 a -6.1 -6.1 -6.2 --- --- 7.8 NNW 0.13 9.6 -11.8 --- --- 726.2 0.017 0.000 10.2 8 1
02/21/06 9:24 a -6.2 -6.2 -6.2 --- --- 7.8 NNW 0.13 8.7 -11.9 --- --- 726.2 0.017 0.000 10.2 8 1
02/21/06 9:25 a -6.2 -6.2 -6.2 --- --- 7.8 NNW 0.13 8.7 -11.9 --- --- 726.2 0.017 0.000 10.2 8 1
02/21/06 9:26 a -6.1 -6.1 -6.2 --- --- 8.7 NNW 0.14 8.7 -12.2 --- --- 726.2 0.017 0.000 10.2 8 1
02/21/06 9:27 a -6.1 -6.0 -6.1 --- --- 7.8 NW 0.13 8.7 -11.7 --- --- 726.3 0.017 0.000 10.2 8 1
02/21/06 9:28 a -6.1 -6.0 -6.1 --- --- 8.7 NW 0.14 9.6 -12.1 --- --- 726.2 0.017 0.000 10.2 8 1
02/21/06 9:29 a -6.2 -6.2 -6.3 --- --- 9.6 NNW 0.16 11.3 -12.7 --- --- 726.1 0.017 0.000 10.2 8 1
02/21/06 9:30 a -6.3 -6.3 -6.4 --- --- 8.7 NNW 0.14 10.4 -12.4 --- --- 726.3 0.017 0.000 10.2 8 1
02/21/06 9:31 a -6.4 -6.4 -6.4 --- --- 8.7 NNW 0.14 10.4 -12.5 --- --- 726.2 0.017 0.000 10.2 8 1
02/21/06 9:32 a -6.4 -6.4 -6.4 --- --- 10.4 NNW 0.17 13.0 -13.2 --- --- 726.2 0.017 0.000 10.2 8 1
02/21/06 9:33 a -6.4 -6.4 -6.4 --- --- 8.7 NNW 0.14 10.4 -12.6 --- --- 726.2 0.017 0.000 10.2 8 1
02/21/06 9:34 a -6.4 -6.4 -6.4 --- --- 8.7 NNW 0.14 9.6 -12.6 --- --- 726.2 0.017 0.000 10.2 8 1
02/21/06 9:35 a -6.4 -6.4 -6.4 --- --- 8.7 NNW 0.14 9.6 -12.5 --- --- 726.2 0.017 0.000 10.2 8 1
02/21/06 9:36 a -6.4 -6.4 -6.4 --- --- 7.8 NNW 0.13 8.7 -12.2 --- --- 726.3 0.017 0.000 10.2 8 1
02/21/06 9:37 a -6.4 -6.4 -6.5 --- --- 8.7 NNW 0.14 10.4 -12.6 --- --- 726.2 0.017 0.000 10.2 8 1
02/21/06 9:38 a -6.5 -6.5 -6.5 --- --- 9.6 NNW 0.16 10.4 -13.0 --- --- 726.2 0.017 0.000 10.2 8 1
02/21/06 9:39 a -6.4 -6.4 -6.5 --- --- 8.7 NNW 0.14 9.6 -12.6 --- --- 726.2 0.017 0.000 10.2 8 1
02/21/06 9:40 a -6.4 -6.4 -6.5 --- --- 7.8 NNW 0.13 8.7 -12.2 --- --- 726.2 0.017 0.000 10.2 8 1
02/21/06 9:41 a -6.5 -6.4 -6.6 --- --- 7.8 NNW 0.13 9.6 -12.3 --- --- 726.3 0.017 0.000 10.2 8 1
02/21/06 9:42 a -6.6 -6.6 -6.6 --- --- 7.8 NNW 0.13 10.4 -12.3 --- --- 726.2 0.017 0.000 10.2 8 1
02/21/06 9:43 a -6.6 -6.6 -6.7 --- --- 10.4 NNW 0.17 11.3 -13.4 --- --- 726.2 0.017 0.000 10.2 8 1
02/21/06 9:44 a -6.7 -6.7 -6.7 --- --- 8.7 NNW 0.14 9.6 -12.8 --- --- 726.2 0.017 0.000 10.2 8 1
02/21/06 9:45 a -6.7 -6.6 -6.7 --- --- 8.7 NNW 0.14 9.6 -12.8 --- --- 726.3 0.017 0.000 10.2 8 1
02/21/06 9:46 a -6.6 -6.6 -6.6 --- --- 7.8 NNW 0.13 8.7 -12.4 --- --- 726.3 0.017 0.000 10.2 8 1
02/21/06 9:47 a -6.7 -6.6 -6.7 --- --- 8.7 NNW 0.14 9.6 -12.8 --- --- 726.2 0.017 0.000 10.2 8 1
02/21/06 9:48 a -6.7 -6.7 -6.7 --- --- 8.7 NNW 0.14 9.6 -12.9 --- --- 726.2 0.017 0.000 10.2 8 1
02/21/06 9:49 a -6.8 -6.7 -6.8 --- --- 7.8 NNW 0.13 9.6 -12.6 --- --- 726.2 0.017 0.000 10.2 8 1
02/21/06 9:50 a -6.8 -6.8 -6.8 --- --- 9.6 NNW 0.16 10.4 -13.3 --- --- 726.2 0.017 0.000 10.2 8 1
02/21/06 9:51 a -6.8 -6.7 -6.8 --- --- 8.7 NNW 0.14 10.4 -13.0 --- --- 726.2 0.017 0.000 10.2 8 1
02/21/06 9:52 a -6.7 -6.7 -6.7 --- --- 8.7 NNW 0.14 10.4 -12.9 --- --- 726.2 0.017 0.000 10.2 8 1
02/21/06 9:53 a -6.8 -6.7 -6.8 --- --- 8.7 NNW 0.14 10.4 -13.0 --- --- 726.2 0.017 0.000 10.2 8 1
02/21/06 9:54 a -6.8 -6.8 -6.9 --- --- 9.6 NNW 0.16 10.4 -13.4 --- --- 726.3 0.017 0.000 10.2 8 1
02/21/06 9:55 a -6.9 -6.9 -6.9 --- --- 8.7 NNW 0.14 10.4 -13.1 --- --- 726.3 0.018 0.000 10.2 8 1
02/21/06 9:56 a -6.9 -6.9 -6.9 --- --- 8.7 NNW 0.14 10.4 -13.2 --- --- 726.3 0.018 0.000 10.2 8 1
02/21/06 9:57 a -6.9 -6.9 -6.9 --- --- 9.6 NNW 0.16 10.4 -13.4 --- --- 726.2 0.018 0.000 10.2 8 1
02/21/06 9:58 a -6.9 -6.9 -6.9 --- --- 9.6 NNW 0.16 10.4 -13.4 --- --- 726.3 0.018 0.000 10.2 8 1
02/21/06 9:59 a -6.9 -6.9 -6.9 --- --- 8.7 NNW 0.14 10.4 -13.1 --- --- 726.2 0.018 0.000 10.2 8 1
02/21/06 10:00 a -6.9 -6.9 -7.0 --- --- 9.6 NNW 0.16 10.4 -13.6 --- --- 726.3 0.018 0.000 10.2 8 1
02/21/06 10:01 a -7.0 -6.9 -7.0 --- --- 9.6 NNW 0.16 11.3 -13.6 --- --- 726.2 0.018 0.000 10.2 8 1
02/21/06 10:02 a -7.0 -6.9 -7.0 --- --- 8.7 NNW 0.14 9.6 -13.3 --- --- 726.3 0.018 0.000 10.2 8 1
02/21/06 10:03 a -6.9 -6.9 -7.0 --- --- 7.8 NNW 0.13 9.6 -12.8 --- --- 726.2 0.018 0.000 10.2 8 1
02/21/06 10:04 a -6.9 -6.9 -6.9 --- --- 7.8 NNW 0.13 8.7 -12.8 --- --- 726.2 0.018 0.000 10.2 8 1
02/21/06 10:05 a -6.9 -6.9 -7.0 --- --- 8.7 NNW 0.14 9.6 -13.2 --- --- 726.2 0.018 0.000 10.1 8 1
02/21/06 10:06 a -7.0 -7.0 -7.1 --- --- 7.8 NNW 0.13 8.7 -12.9 --- --- 726.2 0.018 0.000 10.1 8 1
02/21/06 10:07 a -7.1 -7.1 -7.1 --- --- 8.7 NNW 0.14 9.6 -13.3 --- --- 726.3 0.018 0.000 10.1 8 1
02/21/06 10:08 a -7.1 -7.1 -7.2 --- --- 8.7 NNW 0.14 10.4 -13.4 --- --- 726.3 0.018 0.000 10.1 8 1
02/21/06 10:09 a -7.2 -7.2 -7.2 --- --- 8.7 NNW 0.14 8.7 -13.5 --- --- 726.3 0.018 0.000 10.1 8 1
02/21/06 10:10 a -7.3 -7.3 -7.3 --- --- 8.7 NNW 0.14 9.6 -13.6 --- --- 726.3 0.018 0.000 10.1 8 1
02/21/06 10:11 a -7.4 -7.3 -7.4 --- --- 7.0 NNW 0.12 8.7 -13.0 --- --- 726.3 0.018 0.000 10.1 8 1
02/21/06 10:12 a -7.4 -7.4 -7.5 --- --- 7.0 NNW 0.12 8.7 -13.1 --- --- 726.3 0.018 0.000 10.1 8 1
02/21/06 10:13 a -7.4 -7.4 -7.4 --- --- 7.0 NNW 0.12 8.7 -13.0 --- --- 726.3 0.018 0.000 10.1 8 1
02/21/06 10:14 a -7.3 -7.3 -7.3 --- --- 7.8 NNW 0.13 9.6 -13.3 --- --- 726.2 0.018 0.000 10.1 8 1
02/21/06 10:15 a -7.3 -7.3 -7.3 --- --- 8.7 NNW 0.14 9.6 -13.6 --- --- 726.2 0.018 0.000 10.1 8 1
02/21/06 10:16 a -7.3 -7.2 -7.3 --- --- 7.0 NNW 0.12 7.8 -12.8 --- --- 726.3 0.018 0.000 10.1 8 1
02/21/06 10:17 a -7.3 -7.3 -7.4 --- --- 7.8 NNW 0.13 9.6 -13.3 --- --- 726.3 0.018 0.000 10.1 8 1
02/21/06 10:18 a -7.4 -7.3 -7.4 --- --- 8.7 NNW 0.14 10.4 -13.8 --- --- 726.2 0.018 0.000 10.1 8 1
02/21/06 10:19 a -7.4 -7.4 -7.4 --- --- 8.7 NNW 0.14 9.6 -13.8 --- --- 726.3 0.018 0.000 10.1 8 1
02/21/06 10:20 a -7.4 -7.4 -7.4 --- --- 8.7 NNW 0.14 9.6 -13.8 --- --- 726.2 0.018 0.000 10.1 8 1
02/21/06 10:21 a -7.4 -7.3 -7.4 --- --- 8.7 NNW 0.14 10.4 -13.8 --- --- 726.2 0.018 0.000 10.1 8 1
02/21/06 10:22 a -7.3 -7.3 -7.4 --- --- 7.0 NNW 0.12 8.7 -12.9 --- --- 726.2 0.018 0.000 10.1 8 1
02/21/06 10:23 a -7.4 -7.4 -7.4 --- --- 8.7 NNW 0.14 10.4 -13.8 --- --- 726.3 0.018 0.000 10.1 8 1
02/21/06 10:24 a -7.4 -7.4 -7.4 --- --- 7.8 NNW 0.13 8.7 -13.4 --- --- 726.2 0.018 0.000 10.1 8 1
02/21/06 10:25 a -7.4 -7.4 -7.4 --- --- 7.0 NNW 0.12 8.7 -13.1 --- --- 726.2 0.018 0.000 10.1 8 1
02/21/06 10:26 a -7.5 -7.4 -7.5 --- --- 9.6 NNW 0.16 10.4 -14.2 --- --- 726.3 0.018 0.000 10.1 8 1
02/21/06 10:27 a -7.5 -7.5 -7.5 --- --- 8.7 NNW 0.14 9.6 -13.9 --- --- 726.2 0.018 0.000 10.1 8 1
02/21/06 10:28 a -7.6 -7.5 -7.6 --- --- 9.6 NNW 0.16 11.3 -14.3 --- --- 726.3 0.018 0.000 10.1 8 1
02/21/06 10:29 a -7.6 -7.6 -7.6 --- --- 10.4 NNW 0.17 11.3 -14.6 --- --- 726.3 0.018 0.000 10.1 8 1
02/21/06 10:30 a -7.6 -7.6 -7.6 --- --- 9.6 NNW 0.16 11.3 -14.3 --- --- 726.3 0.018 0.000 10.1 8 1
02/21/06 10:31 a -7.6 -7.6 -7.6 --- --- 7.8 NNW 0.13 9.6 -13.6 --- --- 726.3 0.018 0.000 10.1 8 1
02/21/06 10:32 a -7.6 -7.6 -7.7 --- --- 8.7 NNW 0.14 9.6 -14.1 --- --- 726.2 0.018 0.000 10.1 8 1
02/21/06 10:33 a -7.7 -7.6 -7.7 --- --- 8.7 NNW 0.14 10.4 -14.1 --- --- 726.3 0.018 0.000 10.1 8 1
02/21/06 10:34 a -7.6 -7.6 -7.6 --- --- 7.8 NNW 0.13 8.7 -13.7 --- --- 726.2 0.018 0.000 10.1 8 1
02/21/06 10:35 a -7.6 -7.6 -7.6 --- --- 7.8 NW 0.13 8.7 -13.7 --- --- 726.2 0.018 0.000 10.1 8 1
02/21/06 10:36 a -7.6 -7.6 -7.6 --- --- 7.0 NW 0.12 7.8 -13.2 --- --- 726.2 0.018 0.000 10.1 8 1
02/21/06 10:37 a -7.6 -7.6 -7.6 --- --- 7.0 NNW 0.12 10.4 -13.2 --- --- 726.2 0.018 0.000 10.1 8 1
02/21/06 10:38 a -7.6 -7.6 -7.6 --- --- 8.7 NNW 0.14 9.6 -14.1 --- --- 726.2 0.018 0.000 10.1 8 1
02/21/06 10:39 a -7.6 -7.6 -7.6 --- --- 8.7 NNW 0.14 10.4 -14.1 --- --- 726.3 0.018 0.000 10.1 8 1
02/21/06 10:40 a -7.6 -7.6 -7.6 --- --- 7.0 NNW 0.12 7.8 -13.2 --- --- 726.2 0.018 0.000 10.1 8 1
02/21/06 10:41 a -7.6 -7.6 -7.6 --- --- 7.8 NNW 0.13 8.7 -13.7 --- --- 726.3 0.018 0.000 10.1 8 1
02/21/06 10:42 a -7.7 -7.6 -7.7 --- --- 9.6 NNW 0.16 11.3 -14.4 --- --- 726.2 0.018 0.000 10.1 8 1
02/21/06 10:43 a -7.7 -7.7 -7.8 --- --- 11.3 NNW 0.19 13.0 -15.1 --- --- 726.3 0.018 0.000 10.1 8 1
02/21/06 10:44 a -7.8 -7.8 -7.8 --- --- 10.4 NNW 0.17 12.2 -15.0 --- --- 726.2 0.018 0.000 10.1 8 1
02/21/06 10:45 a -7.8 -7.7 -7.8 --- --- 8.7 NNW 0.14 10.4 -14.2 --- --- 726.3 0.018 0.000 10.1 8 1
02/21/06 10:46 a -7.8 -7.7 -7.8 --- --- 8.7 NNW 0.14 10.4 -14.2 --- --- 726.3 0.018 0.000 10.1 8 1
02/21/06 10:47 a -7.8 -7.8 -7.8 --- --- 8.7 NNW 0.14 9.6 -14.2 --- --- 726.3 0.018 0.000 10.1 8 1
02/21/06 10:48 a -7.9 -7.8 -7.9 --- --- 10.4 NNW 0.17 11.3 -15.1 --- --- 726.3 0.018 0.000 10.1 8 1
02/21/06 10:49 a -7.9 -7.9 -8.0 --- --- 9.6 NNW 0.16 10.4 -14.8 --- --- 726.3 0.018 0.000 10.1 8 1
02/21/06 10:50 a -8.1 -8.0 -8.1 --- --- 10.4 NNW 0.17 13.0 -15.3 --- --- 726.2 0.018 0.000 10.1 8 1
02/21/06 10:51 a -8.1 -8.1 -8.1 --- --- 11.3 NNW 0.19 13.0 -15.6 --- --- 726.3 0.018 0.000 10.1 8 1
02/21/06 10:52 a -8.1 -8.1 -8.1 --- --- 10.4 NW 0.17 13.0 -15.3 --- --- 726.2 0.018 0.000 10.1 8 1
02/21/06 10:53 a -8.1 -8.1 -8.1 --- --- 10.4 NNW 0.17 13.0 -15.3 --- --- 726.3 0.018 0.000 10.1 8 1
02/21/06 10:54 a -8.1 -8.0 -8.1 --- --- 11.3 NNW 0.19 13.9 -15.6 --- --- 726.2 0.018 0.000 10.1 8 1
02/21/06 10:55 a -8.0 -8.0 -8.0 --- --- 10.4 NNW 0.17 12.2 -15.2 --- --- 726.2 0.018 0.000 10.1 8 1
02/21/06 10:56 a -8.1 -8.1 -8.1 --- --- 10.4 NNW 0.17 13.0 -15.3 --- --- 726.3 0.018 0.000 10.1 8 1
02/21/06 10:57 a -8.1 -8.1 -8.1 --- --- 10.4 NNW 0.17 12.2 -15.3 --- --- 726.3 0.018 0.000 10.1 8 1
02/21/06 10:58 a -8.1 -8.1 -8.2 --- --- 8.7 NNW 0.14 11.3 -14.7 --- --- 726.2 0.018 0.000 10.1 8 1
02/21/06 10:59 a -8.2 -8.2 -8.2 --- --- 12.2 NNW 0.20 13.9 -16.0 --- --- 726.3 0.018 0.000 10.1 8 1
02/21/06 11:00 a -8.2 -8.2 -8.2 --- --- 10.4 NNW 0.17 11.3 -15.4 --- --- 726.3 0.018 0.000 10.1 8 1
02/21/06 11:01 a -8.2 -8.2 -8.2 --- --- 10.4 NNW 0.17 11.3 -15.4 --- --- 726.4 0.018 0.000 10.1 8 1
02/21/06 11:02 a -8.3 -8.2 -8.3 --- --- 9.6 NNW 0.16 11.3 -15.2 --- --- 726.3 0.018 0.000 10.0 8 1
02/21/06 11:03 a -8.2 -8.2 -8.3 --- --- 9.6 NNW 0.16 10.4 -15.1 --- --- 726.3 0.018 0.000 10.0 8 1
02/21/06 11:04 a -8.3 -8.2 -8.3 --- --- 10.4 NNW 0.17 12.2 -15.6 --- --- 726.3 0.018 0.000 10.0 8 1
02/21/06 11:05 a -8.3 -8.2 -8.3 --- --- 9.6 NNW 0.16 10.4 -15.2 --- --- 726.2 0.018 0.000 10.0 8 1
02/21/06 11:06 a -8.3 -8.3 -8.3 --- --- 11.3 NNW 0.19 12.2 -15.8 --- --- 726.2 0.018 0.000 10.0 8 1
02/21/06 11:07 a -8.3 -8.3 -8.3 --- --- 11.3 NNW 0.19 13.9 -15.8 --- --- 726.3 0.018 0.000 10.0 8 1
02/21/06 11:08 a -8.3 -8.2 -8.3 --- --- 11.3 NNW 0.19 13.0 -15.8 --- --- 726.3 0.018 0.000 10.0 8 1
02/21/06 11:09 a -8.2 -8.2 -8.2 --- --- 10.4 NNW 0.17 12.2 -15.4 --- --- 726.3 0.018 0.000 10.0 8 1
02/21/06 11:10 a -8.2 -8.2 -8.2 --- --- 10.4 NNW 0.17 13.0 -15.4 --- --- 726.3 0.018 0.000 10.0 8 1
02/21/06 11:11 a -8.1 -8.1 -8.2 --- --- 11.3 NNW 0.19 13.0 -15.6 --- --- 726.3 0.018 0.000 10.0 8 1
02/21/06 11:12 a -8.0 -7.9 -8.1 --- --- 9.6 NNW 0.16 13.9 -14.8 --- --- 726.2 0.018 0.000 10.0 8 1
02/21/06 11:13 a -7.9 -7.9 -8.0 --- --- 11.3 NNW 0.19 13.9 -15.4 --- --- 726.2 0.018 0.000 10.0 8 1
02/21/06 11:14 a -8.1 -8.1 -8.1 --- --- 9.6 NNW 0.16 12.2 -14.9 --- --- 726.2 0.018 0.000 10.0 8 1
02/21/06 11:15 a -8.1 -8.1 -8.1 --- --- 9.6 NNW 0.16 11.3 -15.0 --- --- 726.3 0.018 0.000 10.0 8 1
02/21/06 11:16 a -8.1 -8.1 -8.2 --- --- 12.2 NNW 0.20 14.8 -15.9 --- --- 726.2 0.018 0.000 10.0 8 1
02/21/06 11:17 a -8.1 -8.1 -8.2 --- --- 12.2 NNW 0.20 13.0 -15.9 --- --- 726.3 0.018 0.000 10.0 8 1
02/21/06 11:18 a -8.1 -8.1 -8.1 --- --- 11.3 NNW 0.19 13.9 -15.6 --- --- 726.3 0.018 0.000 10.0 8 1
02/21/06 11:19 a -8.1 -8.1 -8.1 --- --- 13.0 NNW 0.22 14.8 -16.1 --- --- 726.2 0.018 0.000 10.0 8 1
02/21/06 11:20 a -8.1 -8.1 -8.1 --- --- 10.4 NNW 0.17 12.2 -15.3 --- --- 726.2 0.018 0.000 10.0 8 1
02/21/06 11:21 a -8.1 -8.1 -8.1 --- --- 9.6 NW 0.16 11.3 -14.9 --- --- 726.3 0.018 0.000 10.0 8 1
02/21/06 11:22 a -8.1 -8.1 -8.1 --- --- 10.4 NNW 0.17 14.8 -15.3 --- --- 726.2 0.018 0.000 10.0 8 1
02/21/06 11:23 a -8.1 -8.1 -8.1 --- --- 11.3 NNW 0.19 12.2 -15.6 --- --- 726.3 0.018 0.000 10.0 8 1
02/21/06 11:24 a -8.1 -8.1 -8.1 --- --- 10.4 NW 0.17 11.3 -15.3 --- --- 726.2 0.018 0.000 10.0 8 1
02/21/06 11:25 a -8.1 -8.1 -8.2 --- --- 10.4 NNW 0.17 13.0 -15.3 --- --- 726.3 0.018 0.000 10.0 8 1
02/21/06 11:26 a -8.1 -8.1 -8.1 --- --- 10.4 NW 0.17 12.2 -15.3 --- --- 726.3 0.018 0.000 9.9 8 1
02/21/06 11:27 a -8.1 -8.1 -8.2 --- --- 10.4 NNW 0.17 12.2 -15.3 --- --- 726.2 0.018 0.000 9.9 8 1
02/21/06 11:28 a -8.1 -8.1 -8.2 --- --- 10.4 NNW 0.17 11.3 -15.3 --- --- 726.3 0.018 0.000 10.0 8 1
02/21/06 11:29 a -8.1 -8.1 -8.1 --- --- 9.6 NW 0.16 11.3 -15.0 --- --- 726.3 0.018 0.000 9.9 8 1
02/21/06 11:30 a -8.2 -8.2 -8.2 --- --- 10.4 NNW 0.17 13.0 -15.4 --- --- 726.3 0.018 0.000 9.9 8 1
02/21/06 11:31 a -8.2 -8.2 -8.2 --- --- 11.3 NNW 0.19 12.2 -15.7 --- --- 726.2 0.018 0.000 9.9 8 1
02/21/06 11:32 a -8.2 -8.1 -8.2 --- --- 9.6 NW 0.16 11.3 -15.1 --- --- 726.2 0.018 0.000 9.9 8 1
02/21/06 11:33 a -8.1 -8.1 -8.1 --- --- 10.4 NW 0.17 12.2 -15.3 --- --- 726.3 0.018 0.000 9.9 8 1
02/21/06 11:34 a -8.2 -8.1 -8.2 --- --- 12.2 NW 0.20 13.9 -16.0 --- --- 726.3 0.018 0.000 9.9 8 1
02/21/06 11:35 a -8.1 -8.1 -8.2 --- --- 11.3 NW 0.19 13.0 -15.6 --- --- 726.2 0.018 0.000 9.9 8 1
02/21/06 11:36 a -8.1 -8.1 -8.1 --- --- 11.3 NW 0.19 12.2 -15.6 --- --- 726.2 0.018 0.000 9.9 8 1
02/21/06 11:37 a -8.1 -8.1 -8.1 --- --- 10.4 NW 0.17 12.2 -15.3 --- --- 726.2 0.018 0.000 9.9 8 1
02/21/06 11:38 a -8.1 -8.1 -8.1 --- --- 10.4 NW 0.17 13.0 -15.3 --- --- 726.2 0.018 0.000 9.9 8 1
02/21/06 11:39 a -8.1 -8.1 -8.1 --- --- 12.2 NW 0.20 13.0 -15.8 --- --- 726.2 0.018 0.000 9.9 8 1
02/21/06 11:40 a -8.1 -8.0 -8.1 --- --- 11.3 NW 0.19 14.8 -15.6 --- --- 726.3 0.018 0.000 9.9 8 1
02/21/06 11:41 a -7.9 -7.9 -8.0 --- --- 14.8 NW 0.25 16.5 -16.4 --- --- 726.2 0.018 0.000 9.9 8 1
02/21/06 11:42 a -7.9 -7.9 -7.9 --- --- 12.2 NW 0.20 14.8 -15.6 --- --- 726.3 0.018 0.000 9.9 8 1
02/21/06 11:43 a -7.9 -7.9 -8.0 --- --- 10.4 NW 0.17 15.7 -15.1 --- --- 726.3 0.018 0.000 9.9 8 1
02/21/06 11:44 a -8.0 -8.0 -8.0 --- --- 12.2 NNW 0.20 13.9 -15.8 --- --- 726.3 0.018 0.000 9.9 8 1
02/21/06 11:45 a -7.9 -7.9 -8.0 --- --- 10.4 NNW 0.17 13.9 -15.1 --- --- 726.2 0.018 0.000 9.9 8 1
02/21/06 11:46 a -8.0 -7.9 -8.0 --- --- 12.2 NNW 0.20 14.8 -15.8 --- --- 726.3 0.018 0.000 9.9 8 1
02/21/06 11:47 a -8.0 -7.9 -8.0 --- --- 12.2 NW 0.20 13.9 -15.8 --- --- 726.2 0.018 0.000 9.9 8 1
02/21/06 11:48 a -7.9 -7.9 -7.9 --- --- 10.4 NNW 0.17 12.2 -15.1 --- --- 726.2 0.018 0.000 9.9 8 1
02/21/06 11:49 a -7.9 -7.9 -8.0 --- --- 9.6 NNW 0.16 10.4 -14.8 --- --- 726.2 0.018 0.000 9.9 8 1
02/21/06 11:50 a -8.0 -8.0 -8.1 --- --- 10.4 NNW 0.17 12.2 -15.2 --- --- 726.3 0.018 0.000 9.9 8 1
02/21/06 11:51 a -8.1 -8.1 -8.1 --- --- 10.4 NW 0.17 11.3 -15.3 --- --- 726.1 0.018 0.000 9.9 8 1
02/21/06 11:52 a -8.1 -8.1 -8.2 --- --- 10.4 NW 0.17 13.0 -15.3 --- --- 726.2 0.018 0.000 9.9 8 1
02/21/06 11:53 a -8.2 -8.2 -8.2 --- --- 10.4 NW 0.17 12.2 -15.4 --- --- 726.3 0.018 0.000 9.9 8 1
02/21/06 11:54 a -8.2 -8.1 -8.2 --- --- 12.2 NW 0.20 13.0 -16.0 --- --- 726.3 0.018 0.000 9.9 8 1
02/21/06 11:55 a -8.1 -8.0 -8.1 --- --- 11.3 NW 0.19 13.9 -15.6 --- --- 726.2 0.018 0.000 9.9 8 1
02/21/06 11:56 a -8.0 -8.0 -8.1 --- --- 9.6 NW 0.16 12.2 -14.8 --- --- 726.2 0.018 0.000 9.9 8 1
02/21/06 11:57 a -8.1 -8.1 -8.1 --- --- 11.3 NNW 0.19 13.0 -15.6 --- --- 726.3 0.018 0.000 9.9 8 1
02/21/06 11:58 a -8.0 -8.0 -8.1 --- --- 10.4 NNW 0.17 12.2 -15.2 --- --- 726.2 0.018 0.000 9.9 8 1
02/21/06 11:59 a -8.1 -8.1 -8.1 --- --- 10.4 NW 0.17 12.2 -15.3 --- --- 726.3 0.018 0.000 9.9 8 1
02/21/06 12:00 p -8.1 -8.1 -8.2 --- --- 8.7 NW 0.14 11.3 -14.7 --- --- 726.2 0.018 0.000 9.9 8 1
02/21/06 12:01 p -8.2 -8.1 -8.2 --- --- 11.3 NNW 0.19 12.2 -15.7 --- --- 726.3 0.018 0.000 9.9 8 1
02/21/06 12:02 p -8.2 -8.2 -8.2 --- --- 8.7 NW 0.14 10.4 -14.7 --- --- 726.3 0.018 0.000 9.8 8 1
02/21/06 12:03 p -8.2 -8.2 -8.2 --- --- 9.6 NNW 0.16 10.4 -15.1 --- --- 726.2 0.018 0.000 9.8 8 1
02/21/06 12:04 p -8.2 -8.2 -8.2 --- --- 10.4 NW 0.17 12.2 -15.4 --- --- 726.2 0.018 0.000 9.8 8 1
02/21/06 12:05 p -8.2 -8.2 -8.2 --- --- 10.4 NW 0.17 11.3 -15.4 --- --- 726.2 0.018 0.000 9.8 8 1
02/21/06 12:06 p -8.2 -8.2 -8.2 --- --- 11.3 NW 0.19 13.0 -15.7 --- --- 726.2 0.018 0.000 9.8 8 1
02/21/06 12:07 p -8.1 -8.1 -8.2 --- --- 10.4 NNW 0.17 11.3 -15.3 --- --- 726.2 0.018 0.000 9.8 8 1
02/21/06 12:08 p -8.2 -8.1 -8.2 --- --- 11.3 NNW 0.19 13.0 -15.7 --- --- 726.2 0.018 0.000 9.8 8 1
02/21/06 12:09 p -8.2 -8.1 -8.2 --- --- 10.4 NNW 0.17 13.0 -15.4 --- --- 726.3 0.018 0.000 9.8 8 1
02/21/06 12:10 p -8.2 -8.2 -8.2 --- --- 10.4 NNW 0.17 12.2 -15.4 --- --- 726.2 0.018 0.000 9.8 8 1
02/21/06 12:11 p -8.2 -8.2 -8.2 --- --- 10.4 NW 0.17 11.3 -15.4 --- --- 726.2 0.018 0.000 9.8 8 1
02/21/06 12:12 p -8.1 -8.1 -8.1 --- --- 10.4 NNW 0.17 13.0 -15.3 --- --- 726.2 0.018 0.000 9.8 8 1
02/21/06 12:13 p -8.1 -8.1 -8.1 --- --- 8.7 NW 0.14 12.2 -14.7 --- --- 726.2 0.018 0.000 9.8 8 1
02/21/06 12:14 p -8.2 -8.2 -8.2 --- --- 8.7 NNW 0.14 12.2 -14.7 --- --- 726.2 0.018 0.000 9.8 8 1
02/21/06 12:15 p -8.2 -8.2 -8.3 --- --- 10.4 NW 0.17 12.2 -15.4 --- --- 726.2 0.018 0.000 9.8 8 1
02/21/06 12:16 p -8.2 -8.2 -8.3 --- --- 10.4 NNW 0.17 13.0 -15.4 --- --- 726.2 0.018 0.000 9.8 8 1
02/21/06 12:17 p -8.2 -8.1 -8.2 --- --- 11.3 NNW 0.19 13.0 -15.7 --- --- 726.2 0.018 0.000 9.8 8 1
02/21/06 12:18 p -8.1 -8.0 -8.1 --- --- 11.3 NNW 0.19 13.9 -15.6 --- --- 726.2 0.018 0.000 9.8 8 1
02/21/06 12:19 p -8.1 -8.0 -8.1 --- --- 10.4 NNW 0.17 12.2 -15.3 --- --- 726.2 0.018 0.000 9.8 8 1
02/21/06 12:20 p -8.0 -8.0 -8.1 --- --- 8.7 NNW 0.14 10.4 -14.5 --- --- 726.1 0.018 0.000 9.8 8 1
02/21/06 12:21 p -8.1 -8.1 -8.1 --- --- 9.6 NNW 0.16 11.3 -14.9 --- --- 726.2 0.018 0.000 9.8 8 1
02/21/06 12:22 p -8.1 -8.0 -8.1 --- --- 10.4 NNW 0.17 13.0 -15.3 --- --- 726.2 0.018 0.000 9.8 8 1
02/21/06 12:23 p -8.1 -8.1 -8.2 --- --- 10.4 NNW 0.17 13.0 -15.3 --- --- 726.2 0.018 0.000 9.8 8 1
02/21/06 12:24 p -8.1 -8.1 -8.1 --- --- 10.4 NNW 0.17 12.2 -15.3 --- --- 726.1 0.018 0.000 9.8 8 1
02/21/06 12:25 p -8.1 -8.1 -8.2 --- --- 10.4 NNW 0.17 12.2 -15.3 --- --- 726.2 0.018 0.000 9.8 8 1
02/21/06 12:26 p -8.2 -8.1 -8.2 --- --- 10.4 NNW 0.17 11.3 -15.4 --- --- 726.3 0.018 0.000 9.8 8 1
02/21/06 12:27 p -8.2 -8.2 -8.2 --- --- 10.4 NNW 0.17 11.3 -15.4 --- --- 726.3 0.018 0.000 9.8 8 1
02/21/06 12:28 p -8.2 -8.2 -8.2 --- --- 8.7 NNW 0.14 10.4 -14.7 --- --- 726.2 0.018 0.000 9.8 8 1
02/21/06 12:29 p -8.1 -8.1 -8.2 --- --- 8.7 NNW 0.14 11.3 -14.7 --- --- 726.2 0.018 0.000 9.8 8 1
02/21/06 12:30 p -8.2 -8.1 -8.2 --- --- 8.7 NNW 0.14 9.6 -14.7 --- --- 726.3 0.018 0.000 9.8 8 1
02/21/06 12:31 p -8.2 -8.2 -8.2 --- --- 9.6 NNW 0.16 10.4 -15.1 --- --- 726.3 0.018 0.000 9.8 8 1
02/21/06 12:32 p -8.2 -8.2 -8.3 --- --- 9.6 NNW 0.16 10.4 -15.1 --- --- 726.1 0.018 0.000 9.8 8 1
02/21/06 12:33 p -8.2 -8.1 -8.2 --- --- 7.8 NNW 0.13 9.6 -14.3 --- --- 726.2 0.018 0.000 9.8 8 1
02/21/06 12:34 p -8.1 -8.1 -8.1 --- --- 8.7 NNW 0.14 10.4 -14.6 --- --- 726.2 0.018 0.000 9.8 8 1
02/21/06 12:35 p -8.1 -8.1 -8.1 --- --- 9.6 NNW 0.16 11.3 -15.0 --- --- 726.2 0.018 0.000 9.8 8 1
02/21/06 12:36 p -8.1 -8.1 -8.1 --- --- 11.3 NNW 0.19 13.0 -15.6 --- --- 726.1 0.018 0.000 9.8 8 1
02/21/06 12:37 p -8.1 -8.1 -8.1 --- --- 8.7 NNW 0.14 10.4 -14.7 --- --- 726.1 0.018 0.000 9.8 8 1
02/21/06 12:38 p -8.2 -8.1 -8.2 --- --- 8.7 NNW 0.14 10.4 -14.7 --- --- 726.2 0.018 0.000 9.8 8 1
02/21/06 12:39 p -8.2 -8.2 -8.2 --- --- 9.6 NNW 0.16 11.3 -15.1 --- --- 726.2 0.018 0.000 9.8 8 1
02/21/06 12:40 p -8.2 -8.2 -8.3 --- --- 8.7 NNW 0.14 10.4 -14.8 --- --- 726.3 0.018 0.000 9.8 8 1
02/21/06 12:41 p -8.2 -8.1 -8.2 --- --- 11.3 NNW 0.19 13.9 -15.7 --- --- 726.3 0.018 0.000 9.8 8 1
02/21/06 12:42 p -8.0 -7.9 -8.1 --- --- 8.7 NNW 0.14 9.6 -14.5 --- --- 726.2 0.018 0.000 9.8 8 1
02/21/06 12:43 p -8.1 -8.0 -8.2 --- --- 7.8 NNW 0.13 8.7 -14.3 --- --- 726.3 0.018 0.000 9.8 8 1
02/21/06 12:44 p -8.2 -8.2 -8.2 --- --- 8.7 NNW 0.14 11.3 -14.8 --- --- 726.2 0.018 0.000 9.8 8 1
02/21/06 12:45 p -8.3 -8.2 -8.3 --- --- 9.6 NNW 0.16 11.3 -15.2 --- --- 726.2 0.018 0.000 9.8 8 1
02/21/06 12:46 p -8.2 -8.2 -8.2 --- --- 9.6 NNW 0.16 11.3 -15.1 --- --- 726.2 0.018 0.000 9.8 8 1
02/21/06 12:47 p -8.2 -8.2 -8.2 --- --- 8.7 NNW 0.14 9.6 -14.7 --- --- 726.2 0.018 0.000 9.8 8 1
02/21/06 12:48 p -8.2 -8.1 -8.2 --- --- 8.7 NNW 0.14 9.6 -14.7 --- --- 726.2 0.018 0.000 9.8 8 1
02/21/06 12:49 p -8.2 -8.2 -8.2 --- --- 8.7 NNW 0.14 9.6 -14.7 --- --- 726.3 0.018 0.000 9.8 8 1
02/21/06 12:50 p -8.3 -8.2 -8.3 --- --- 8.7 NNW 0.14 10.4 -14.8 --- --- 726.2 0.018 0.000 9.8 8 1
02/21/06 12:51 p -8.2 -8.2 -8.2 --- --- 8.7 NNW 0.14 11.3 -14.8 --- --- 726.2 0.018 0.000 9.7 8 1
02/21/06 12:52 p -8.2 -8.2 -8.2 --- --- 9.6 NNW 0.16 10.4 -15.1 --- --- 726.2 0.018 0.000 9.7 8 1
02/21/06 12:53 p -8.2 -8.2 -8.2 --- --- 9.6 NNW 0.16 13.0 -15.1 --- --- 726.1 0.018 0.000 9.7 8 1
02/21/06 12:54 p -8.1 -8.1 -8.1 --- --- 10.4 NNW 0.17 11.3 -15.3 --- --- 726.2 0.018 0.000 9.7 8 1
02/21/06 12:55 p -8.1 -8.1 -8.1 --- --- 10.4 NW 0.17 12.2 -15.3 --- --- 726.2 0.018 0.000 9.7 8 1
02/21/06 12:56 p -8.0 -7.9 -8.0 --- --- 10.4 NW 0.17 12.2 -15.2 --- --- 726.2 0.018 0.000 9.7 8 1
02/21/06 12:57 p -8.1 -8.1 -8.1 --- --- 9.6 NNW 0.16 11.3 -14.9 --- --- 726.2 0.018 0.000 9.7 8 1
02/21/06 12:58 p -8.1 -8.0 -8.1 --- --- 9.6 NW 0.16 11.3 -14.9 --- --- 726.1 0.018 0.000 9.7 8 1
02/21/06 12:59 p -8.1 -8.1 -8.1 --- --- 10.4 NW 0.17 12.2 -15.3 --- --- 726.2 0.018 0.000 9.7 8 1
02/21/06 1:00 p -8.1 -8.1 -8.1 --- --- 9.6 NW 0.16 10.4 -14.9 --- --- 726.2 0.018 0.000 9.7 8 1
02/21/06 1:01 p -8.2 -8.1 -8.2 --- --- 9.6 NW 0.16 12.2 -15.1 --- --- 726.2 0.018 0.000 9.7 8 1
02/21/06 1:02 p -8.1 -8.1 -8.2 --- --- 8.7 NW 0.14 10.4 -14.7 --- --- 726.2 0.018 0.000 9.7 8 1
02/21/06 1:03 p -8.0 -7.9 -8.1 --- --- 10.4 NNW 0.17 12.2 -15.2 --- --- 726.2 0.018 0.000 9.7 8 1
02/21/06 1:04 p -7.9 -7.9 -7.9 --- --- 9.6 NW 0.16 10.4 -14.7 --- --- 726.2 0.018 0.000 9.7 8 1
02/21/06 1:05 p -7.8 -7.8 -7.9 --- --- 8.7 NNW 0.14 12.2 -14.3 --- --- 726.2 0.018 0.000 9.7 8 1
02/21/06 1:06 p -7.9 -7.9 -7.9 --- --- 8.7 NNW 0.14 11.3 -14.4 --- --- 726.2 0.018 0.000 9.7 8 1
02/21/06 1:07 p -7.9 -7.9 -8.0 --- --- 7.8 NNW 0.13 9.6 -14.1 --- --- 726.2 0.018 0.000 9.7 8 1
02/21/06 1:08 p -8.0 -8.0 -8.1 --- --- 7.0 NNW 0.12 7.0 -13.7 --- --- 726.2 0.018 0.000 9.7 8 1
02/21/06 1:09 p -8.1 -8.1 -8.2 --- --- 8.7 NNW 0.14 9.6 -14.7 --- --- 726.3 0.018 0.000 9.7 8 1
02/21/06 1:10 p -8.1 -8.1 -8.1 --- --- 8.7 NW 0.14 10.4 -14.7 --- --- 726.3 0.018 0.000 9.7 8 1
02/21/06 1:11 p -8.1 -8.1 -8.1 --- --- 8.7 NNW 0.14 9.6 -14.7 --- --- 726.2 0.018 0.000 9.7 8 1
02/21/06 1:12 p -8.1 -8.1 -8.1 --- --- 8.7 NNW 0.14 9.6 -14.7 --- --- 726.2 0.018 0.000 9.7 8 1
02/21/06 1:13 p -8.1 -8.1 -8.1 --- --- 7.8 NNW 0.13 8.7 -14.3 --- --- 726.3 0.018 0.000 9.7 8 1
02/21/06 1:14 p -8.2 -8.1 -8.3 --- --- 7.8 NW 0.13 8.7 -14.3 --- --- 726.3 0.018 0.000 9.7 8 1
02/21/06 1:15 p -8.3 -8.2 -8.3 --- --- 7.8 NNW 0.13 9.6 -14.5 --- --- 726.2 0.018 0.000 9.7 8 1
02/21/06 1:16 p -8.1 -8.0 -8.1 --- --- 8.7 NNW 0.14 11.3 -14.6 --- --- 726.2 0.018 0.000 9.7 8 1
02/21/06 1:17 p -8.0 -8.0 -8.0 --- --- 8.7 NNW 0.14 9.6 -14.5 --- --- 726.3 0.018 0.000 9.7 8 1
02/21/06 1:18 p -7.9 -7.9 -8.0 --- --- 8.7 NNW 0.14 11.3 -14.4 --- --- 726.2 0.018 0.000 9.7 8 1
02/21/06 1:19 p -7.9 -7.8 -7.9 --- --- 7.8 NNW 0.13 11.3 -14.0 --- --- 726.3 0.018 0.000 9.7 8 1
02/21/06 1:20 p -7.8 -7.8 -7.9 --- --- 11.3 NW 0.19 12.2 -15.3 --- --- 726.2 0.018 0.000 9.7 8 1
02/21/06 1:21 p -7.9 -7.9 -7.9 --- --- 10.4 NW 0.17 11.3 -15.1 --- --- 726.2 0.018 0.000 9.7 8 1
02/21/06 1:22 p -7.9 -7.9 -7.9 --- --- 7.0 NW 0.12 8.7 -13.6 --- --- 726.2 0.018 0.000 9.7 8 1
02/21/06 1:23 p -8.0 -8.0 -8.1 --- --- 9.6 NNW 0.16 12.2 -14.8 --- --- 726.1 0.018 0.000 9.7 8 1
02/21/06 1:24 p -8.0 -8.0 -8.1 --- --- 7.8 NNW 0.13 8.7 -14.1 --- --- 726.3 0.018 0.000 9.7 8 1
02/21/06 1:25 p -8.0 -8.0 -8.1 --- --- 8.7 NW 0.14 9.6 -14.5 --- --- 726.2 0.018 0.000 9.7 8 1
02/21/06 1:26 p -8.1 -8.1 -8.1 --- --- 8.7 NW 0.14 9.6 -14.7 --- --- 726.2 0.018 0.000 9.7 8 1
02/21/06 1:27 p -8.1 -8.1 -8.1 --- --- 7.8 NW 0.13 9.6 -14.3 --- --- 726.2 0.018 0.000 9.7 8 1
02/21/06 1:28 p -8.1 -8.1 -8.1 --- --- 7.8 NW 0.13 8.7 -14.2 --- --- 726.1 0.018 0.000 9.7 8 1
02/21/06 1:29 p -8.2 -8.1 -8.2 --- --- 7.0 NW 0.12 8.7 -13.9 --- --- 726.2 0.018 0.000 9.7 8 1
02/21/06 1:30 p -8.2 -8.2 -8.2 --- --- 7.0 NW 0.12 8.7 -14.0 --- --- 726.2 0.018 0.000 9.7 8 1
02/21/06 1:31 p -8.1 -8.1 -8.2 --- --- 7.8 NNW 0.13 8.7 -14.3 --- --- 726.2 0.018 0.000 9.7 8 1
02/21/06 1:32 p -8.0 -7.9 -8.1 --- --- 7.0 NNW 0.12 8.7 -13.7 --- --- 726.2 0.018 0.000 9.7 8 1
02/21/06 1:33 p -8.0 -7.9 -8.1 --- --- 7.0 NW 0.12 8.7 -13.7 --- --- 726.2 0.018 0.000 9.7 8 1
02/21/06 1:34 p -8.1 -8.1 -8.2 --- --- 7.8 NW 0.13 8.7 -14.2 --- --- 726.2 0.018 0.000 9.7 8 1
02/21/06 1:35 p -8.2 -8.2 -8.2 --- --- 8.7 NW 0.14 11.3 -14.8 --- --- 726.2 0.018 0.000 9.7 8 1
02/21/06 1:36 p -8.2 -8.1 -8.2 --- --- 10.4 NW 0.17 12.2 -15.4 --- --- 726.2 0.018 0.000 9.7 8 1
02/21/06 1:37 p -7.9 -7.9 -8.1 --- --- 9.6 NW 0.16 12.2 -14.8 --- --- 726.2 0.018 0.000 9.7 8 1
02/21/06 1:38 p -7.9 -7.9 -7.9 --- --- 8.7 NW 0.14 10.4 -14.4 --- --- 726.2 0.018 0.000 9.7 8 1
02/21/06 1:39 p -7.9 -7.9 -7.9 --- --- 8.7 NNW 0.14 9.6 -14.4 --- --- 726.2 0.018 0.000 9.8 8 1
02/21/06 1:40 p -7.9 -7.9 -7.9 --- --- 7.8 NW 0.13 10.4 -14.0 --- --- 726.2 0.018 0.000 9.8 8 1
02/21/06 1:41 p -7.9 -7.9 -8.0 --- --- 7.8 NW 0.13 8.7 -14.1 --- --- 726.2 0.018 0.000 9.8 8 1
02/21/06 1:42 p -8.1 -8.0 -8.1 --- --- 7.0 NW 0.12 8.7 -13.8 --- --- 726.3 0.018 0.000 9.8 8 1
02/21/06 1:43 p -8.1 -8.1 -8.2 --- --- 7.0 NW 0.12 8.7 -13.8 --- --- 726.2 0.018 0.000 9.8 8 1
02/21/06 1:44 p -8.2 -8.2 -8.3 --- --- 7.0 NNW 0.12 7.8 -13.9 --- --- 726.2 0.018 0.000 9.8 8 1
02/21/06 1:45 p -8.3 -8.3 -8.3 --- --- 8.7 NW 0.14 9.6 -14.8 --- --- 726.2 0.018 0.000 9.8 8 1
02/21/06 1:46 p -8.2 -8.1 -8.2 --- --- 8.7 NW 0.14 10.4 -14.7 --- --- 726.2 0.018 0.000 9.8 8 1
02/21/06 1:47 p -8.1 -8.0 -8.1 --- --- 7.8 NW 0.13 9.6 -14.2 --- --- 726.3 0.018 0.000 9.8 8 1
02/21/06 1:48 p -7.9 -7.9 -8.0 --- --- 7.8 NW 0.13 10.4 -14.1 --- --- 726.2 0.018 0.000 9.8 8 1
02/21/06 1:49 p -7.9 -7.9 -7.9 --- --- 5.2 NNW 0.09 6.1 -12.7 --- --- 726.3 0.018 0.000 9.8 8 1
02/21/06 1:50 p -7.9 -7.9 -7.9 --- --- 6.1 NNW 0.10 7.0 -13.2 --- --- 726.3 0.018 0.000 9.8 8 1
02/21/06 1:51 p -8.1 -8.1 -8.1 --- --- 7.0 NNW 0.12 8.7 -13.8 --- --- 726.3 0.018 0.000 9.8 8 1
02/21/06 1:52 p -8.1 -8.1 -8.1 --- --- 6.1 NNW 0.10 8.7 -13.3 --- --- 726.1 0.018 0.000 9.8 8 1
02/21/06 1:53 p -8.2 -8.2 -8.2 --- --- 8.7 NNW 0.14 9.6 -14.7 --- --- 726.2 0.018 0.000 9.8 8 1
02/21/06 1:54 p -8.1 -8.1 -8.1 --- --- 7.8 NNW 0.13 9.6 -14.3 --- --- 726.2 0.018 0.000 9.8 8 1
02/21/06 1:55 p -8.1 -8.1 -8.1 --- --- 7.0 NNW 0.12 9.6 -13.8 --- --- 726.3 0.018 0.000 9.8 8 1
02/21/06 1:56 p -8.2 -8.1 -8.2 --- --- 7.0 NNW 0.12 8.7 -13.9 --- --- 726.2 0.018 0.000 9.8 8 1
02/21/06 1:57 p -8.1 -8.1 -8.1 --- --- 6.1 NNW 0.10 7.0 -13.3 --- --- 726.2 0.018 0.000 9.8 8 1
02/21/06 1:58 p -8.2 -8.1 -8.2 --- --- 7.0 NNW 0.12 7.8 -13.9 --- --- 726.3 0.018 0.000 9.7 8 1
02/21/06 1:59 p -8.3 -8.3 -8.3 --- --- 7.0 NNW 0.12 7.8 -14.1 --- --- 726.2 0.018 0.000 9.7 8 1
02/21/06 2:00 p -8.4 -8.3 -8.4 --- --- 7.0 NNW 0.12 7.8 -14.2 --- --- 726.2 0.019 0.000 9.7 8 1
02/21/06 2:01 p -8.4 -8.3 -8.4 --- --- 7.0 NNW 0.12 7.0 -14.2 --- --- 726.3 0.019 0.000 9.7 8 1
02/21/06 2:02 p -8.4 -8.4 -8.4 --- --- 7.0 NW 0.12 8.7 -14.2 --- --- 726.2 0.019 0.000 9.7 8 1
02/21/06 2:03 p -8.3 -8.3 -8.4 --- --- 7.8 NW 0.13 8.7 -14.6 --- --- 726.2 0.019 0.000 9.7 8 1
02/21/06 2:04 p -8.3 -8.3 -8.3 --- --- 6.1 NW 0.10 7.0 -13.7 --- --- 726.2 0.019 0.000 9.7 8 1
02/21/06 2:05 p -8.3 -8.3 -8.3 --- --- 7.0 NW 0.12 8.7 -14.1 --- --- 726.2 0.018 0.000 9.7 8 1
02/21/06 2:06 p -8.3 -8.2 -8.3 --- --- 7.0 NW 0.12 7.0 -14.1 --- --- 726.2 0.018 0.000 9.7 8 1
02/21/06 2:07 p -8.2 -8.2 -8.2 --- --- 6.1 NW 0.10 7.8 -13.5 --- --- 726.2 0.018 0.000 9.7 8 1
02/21/06 2:08 p -8.2 -8.2 -8.2 --- --- 6.1 NW 0.10 7.0 -13.5 --- --- 726.3 0.018 0.000 9.7 8 1
02/21/06 2:09 p -8.2 -8.2 -8.2 --- --- 5.2 NW 0.09 6.1 -13.0 --- --- 726.2 0.018 0.000 9.7 8 1
02/21/06 2:10 p -8.2 -8.2 -8.2 --- --- 6.1 NW 0.10 7.8 -13.5 --- --- 726.3 0.018 0.000 9.7 8 1
02/21/06 2:11 p -8.2 -8.1 -8.2 --- --- 6.1 NW 0.10 7.8 -13.4 --- --- 726.3 0.018 0.000 9.7 8 1
02/21/06 2:12 p -8.1 -8.1 -8.1 --- --- 7.0 NW 0.12 9.6 -13.8 --- --- 726.2 0.018 0.000 9.7 8 1
02/21/06 2:13 p -8.0 -7.9 -8.1 --- --- 7.8 NNW 0.13 9.6 -14.1 --- --- 726.2 0.018 0.000 9.7 8 1
02/21/06 2:14 p -7.9 -7.9 -8.0 --- --- 7.8 NW 0.13 8.7 -14.1 --- --- 726.2 0.018 0.000 9.7 8 1
02/21/06 2:15 p -8.0 -8.0 -8.1 --- --- 7.8 NW 0.13 9.6 -14.1 --- --- 726.1 0.018 0.000 9.7 8 1
02/21/06 2:16 p -8.0 -7.9 -8.1 --- --- 7.8 NW 0.13 10.4 -14.1 --- --- 726.2 0.018 0.000 9.7 8 1
02/21/06 2:17 p -7.9 -7.9 -7.9 --- --- 7.0 NW 0.12 8.7 -13.6 --- --- 726.2 0.018 0.000 9.7 8 1
02/21/06 2:18 p -7.9 -7.9 -7.9 --- --- 7.8 NNW 0.13 9.6 -14.1 --- --- 726.2 0.018 0.000 9.7 8 1
02/21/06 2:19 p -7.8 -7.8 -7.8 --- --- 6.1 NW 0.10 8.7 -13.1 --- --- 726.2 0.018 0.000 9.7 8 1
02/21/06 2:20 p -7.8 -7.8 -7.8 --- --- 7.0 NW 0.12 8.7 -13.5 --- --- 726.2 0.018 0.000 9.7 8 1
02/21/06 2:21 p -7.8 -7.8 -7.8 --- --- 7.0 NW 0.12 7.8 -13.5 --- --- 726.2 0.018 0.000 9.6 8 1
02/21/06 2:22 p -7.9 -7.9 -7.9 --- --- 6.1 NW 0.10 7.8 -13.2 --- --- 726.2 0.018 0.000 9.6 8 1
02/21/06 2:23 p -8.0 -8.0 -8.1 --- --- 6.1 NW 0.10 7.8 -13.3 --- --- 726.3 0.018 0.000 9.6 8 1
02/21/06 2:24 p -8.1 -8.1 -8.1 --- --- 6.1 NW 0.10 7.0 -13.3 --- --- 726.2 0.018 0.000 9.6 8 1
02/21/06 2:25 p -8.1 -8.1 -8.1 --- --- 6.1 NW 0.10 7.8 -13.3 --- --- 726.2 0.018 0.000 9.6 8 1
02/21/06 2:26 p -8.1 -8.1 -8.1 --- --- 5.2 NW 0.09 6.1 -12.9 --- --- 726.2 0.018 0.000 9.6 8 1
02/21/06 2:27 p -8.2 -8.1 -8.2 --- --- 5.2 NW 0.09 5.2 -12.9 --- --- 726.2 0.018 0.000 9.6 8 1
02/21/06 2:28 p -8.3 -8.2 -8.3 --- --- 6.1 NW 0.10 7.0 -13.6 --- --- 726.1 0.018 0.000 9.6 8 1
02/21/06 2:29 p -8.3 -8.3 -8.3 --- --- 5.2 NW 0.09 6.1 -13.1 --- --- 726.2 0.018 0.000 9.6 8 1
02/21/06 2:30 p -8.3 -8.2 -8.3 --- --- 7.0 NW 0.12 7.8 -14.1 --- --- 726.2 0.018 0.000 9.6 8 1
02/21/06 2:31 p -8.2 -8.2 -8.2 --- --- 6.1 NW 0.10 7.0 -13.5 --- --- 726.1 0.018 0.000 9.6 8 1
02/21/06 2:32 p -8.2 -8.2 -8.2 --- --- 6.1 NW 0.10 6.1 -13.5 --- --- 726.2 0.018 0.000 9.6 8 1
02/21/06 2:33 p -8.2 -8.2 -8.2 --- --- 7.0 NW 0.12 8.7 -13.9 --- --- 726.2 0.018 0.000 9.6 8 1
02/21/06 2:34 p -8.1 -8.1 -8.2 --- --- 6.1 NW 0.10 7.8 -13.4 --- --- 726.1 0.018 0.000 9.6 8 1
02/21/06 2:35 p -8.1 -8.1 -8.2 --- --- 7.0 NW 0.12 8.7 -13.8 --- --- 726.1 0.018 0.000 9.6 8 1
02/21/06 2:36 p -8.1 -8.1 -8.1 --- --- 5.2 NW 0.09 6.1 -12.8 --- --- 726.1 0.018 0.000 9.6 8 1
02/21/06 2:37 p -8.1 -8.0 -8.1 --- --- 5.2 NW 0.09 7.0 -12.8 --- --- 726.1 0.018 0.000 9.6 8 1
02/21/06 2:38 p -8.1 -8.0 -8.1 --- --- 5.2 NW 0.09 7.0 -12.8 --- --- 726.1 0.018 0.000 9.6 8 1
02/21/06 2:39 p -8.1 -8.0 -8.1 --- --- 5.2 NW 0.09 6.1 -12.8 --- --- 726.2 0.018 0.000 9.6 8 1
02/21/06 2:40 p -8.0 -8.0 -8.0 --- --- 5.2 NW 0.09 6.1 -12.7 --- --- 726.1 0.018 0.000 9.6 8 1
02/21/06 2:41 p -8.0 -8.0 -8.1 --- --- 6.1 NW 0.10 7.0 -13.3 --- --- 726.2 0.018 0.000 9.6 8 1
02/21/06 2:42 p -8.0 -8.0 -8.0 --- --- 5.2 NW 0.09 7.0 -12.7 --- --- 726.2 0.018 0.000 9.6 8 1
02/21/06 2:43 p -7.9 -7.9 -8.0 --- --- 6.1 NW 0.10 7.8 -13.2 --- --- 726.1 0.018 0.000 9.6 8 1
02/21/06 2:44 p -7.9 -7.9 -7.9 --- --- 6.1 NW 0.10 7.0 -13.2 --- --- 726.2 0.018 0.000 9.6 8 1
02/21/06 2:45 p -7.9 -7.9 -7.9 --- --- 6.1 NW 0.10 7.0 -13.2 --- --- 726.1 0.018 0.000 9.6 8 1
02/21/06 2:46 p -7.9 -7.9 -7.9 --- --- 4.3 NW 0.07 7.0 -12.0 --- --- 726.2 0.018 0.000 9.6 8 1
02/21/06 2:47 p -7.9 -7.9 -7.9 --- --- 5.2 NW 0.09 6.1 -12.6 --- --- 726.1 0.018 0.000 9.6 8 1
02/21/06 2:48 p -7.9 -7.9 -7.9 --- --- 5.2 NW 0.09 7.0 -12.7 --- --- 726.2 0.018 0.000 9.6 8 1
02/21/06 2:49 p -7.9 -7.9 -7.9 --- --- 5.2 NW 0.09 6.1 -12.7 --- --- 726.1 0.018 0.000 9.6 8 1
02/21/06 2:50 p -8.0 -7.9 -8.0 --- --- 4.3 NW 0.07 5.2 -12.1 --- --- 726.2 0.018 0.000 9.5 8 1
02/21/06 2:51 p -8.0 -8.0 -8.1 --- --- 4.3 NW 0.07 5.2 -12.1 --- --- 726.1 0.018 0.000 9.5 8 1
02/21/06 2:52 p -8.1 -8.0 -8.1 --- --- 3.5 NW 0.06 5.2 -11.5 --- --- 726.1 0.018 0.000 9.5 8 1
02/21/06 2:53 p -8.0 -8.0 -8.0 --- --- 3.5 NW 0.06 4.3 -11.4 --- --- 726.2 0.018 0.000 9.5 8 1
02/21/06 2:54 p -8.0 -8.0 -8.0 --- --- 4.3 NW 0.07 5.2 -12.1 --- --- 726.2 0.018 0.000 9.5 8 1
02/21/06 2:55 p -8.0 -8.0 -8.0 --- --- 4.3 NW 0.07 5.2 -12.1 --- --- 726.2 0.018 0.000 9.5 8 1
02/21/06 2:56 p -8.1 -8.1 -8.1 --- --- 4.3 NW 0.07 5.2 -12.2 --- --- 726.1 0.018 0.000 9.5 8 1
02/21/06 2:57 p -8.1 -8.1 -8.1 --- --- 4.3 NW 0.07 4.3 -12.2 --- --- 726.2 0.018 0.000 9.5 8 1
02/21/06 2:58 p -8.1 -8.1 -8.1 --- --- 4.3 NW 0.07 5.2 -12.2 --- --- 726.3 0.018 0.000 9.5 8 1
02/21/06 2:59 p -8.1 -8.0 -8.1 --- --- 4.3 NW 0.07 5.2 -12.2 --- --- 726.2 0.018 0.000 9.5 8 1
02/21/06 3:00 p -8.0 -7.9 -8.0 --- --- 3.5 NW 0.06 4.3 -11.4 --- --- 726.1 0.018 0.000 9.5 8 1
02/21/06 3:01 p -8.0 -8.0 -8.0 --- --- 3.5 NW 0.06 4.3 -11.4 --- --- 726.2 0.018 0.000 9.5 8 1
02/21/06 3:02 p -8.1 -8.1 -8.1 --- --- 4.3 NW 0.07 4.3 -12.2 --- --- 726.1 0.018 0.000 9.5 8 1
02/21/06 3:03 p -8.1 -8.1 -8.1 --- --- 4.3 NW 0.07 4.3 -12.3 --- --- 726.1 0.018 0.000 9.5 8 1
02/21/06 3:04 p -8.1 -8.1 -8.1 --- --- 3.5 NW 0.06 4.3 -11.6 --- --- 726.1 0.018 0.000 9.5 8 1
02/21/06 3:05 p -8.1 -8.1 -8.1 --- --- 3.5 NW 0.06 4.3 -11.5 --- --- 726.2 0.018 0.000 9.5 8 1
02/21/06 3:06 p -8.1 -8.0 -8.1 --- --- 3.5 NW 0.06 4.3 -11.5 --- --- 726.1 0.018 0.000 9.5 8 1
02/21/06 3:07 p -8.1 -8.1 -8.1 --- --- 4.3 NW 0.07 5.2 -12.2 --- --- 726.1 0.018 0.000 9.5 8 1
02/21/06 3:08 p -8.1 -8.1 -8.1 --- --- 4.3 NW 0.07 5.2 -12.3 --- --- 726.2 0.018 0.000 9.4 8 1
02/21/06 3:09 p -8.1 -8.1 -8.1 --- --- 3.5 NW 0.06 4.3 -11.5 --- --- 726.2 0.018 0.000 9.4 8 1
02/21/06 3:10 p -8.1 -8.1 -8.1 --- --- 3.5 NW 0.06 4.3 -11.5 --- --- 726.2 0.018 0.000 9.5 8 1
02/21/06 3:11 p -8.1 -8.1 -8.1 --- --- 3.5 NW 0.06 5.2 -11.5 --- --- 726.2 0.018 0.000 9.4 8 1
02/21/06 3:12 p -8.1 -8.1 -8.1 --- --- 4.3 NW 0.07 5.2 -12.2 --- --- 726.2 0.018 0.000 9.4 8 1
02/21/06 3:13 p -8.0 -8.0 -8.1 --- --- 3.5 NW 0.06 4.3 -11.4 --- --- 726.1 0.018 0.000 9.4 8 1
02/21/06 3:14 p -8.0 -8.0 -8.1 --- --- 3.5 NW 0.06 3.5 -11.4 --- --- 726.3 0.018 0.000 9.4 8 1
02/21/06 3:15 p -8.1 -8.1 -8.1 --- --- 3.5 NW 0.06 4.3 -11.5 --- --- 726.1 0.018 0.000 9.4 8 1
02/21/06 3:16 p -8.1 -8.1 -8.2 --- --- 3.5 NW 0.06 4.3 -11.6 --- --- 726.2 0.018 0.000 9.4 8 1
02/21/06 3:17 p -8.2 -8.2 -8.2 --- --- 3.5 NW 0.06 3.5 -11.6 --- --- 726.2 0.018 0.000 9.4 8 1
02/21/06 3:18 p -8.2 -8.2 -8.3 --- --- 2.6 NW 0.04 3.5 -10.8 --- --- 726.2 0.018 0.000 9.4 8 1
02/21/06 3:19 p -8.3 -8.3 -8.3 --- --- 2.6 NW 0.04 3.5 -10.8 --- --- 726.1 0.018 0.000 9.4 8 1
02/21/06 3:20 p -8.3 -8.3 -8.3 --- --- 2.6 NW 0.04 2.6 -10.8 --- --- 726.1 0.018 0.000 9.4 8 1
02/21/06 3:21 p -8.3 -8.3 -8.3 --- --- 2.6 NW 0.04 3.5 -10.8 --- --- 726.2 0.018 0.000 9.4 8 1
02/21/06 3:22 p -8.3 -8.3 -8.3 --- --- 2.6 NW 0.04 2.6 -10.9 --- --- 726.2 0.019 0.000 9.4 8 1
02/21/06 3:23 p -8.3 -8.3 -8.3 --- --- 2.6 NW 0.04 2.6 -10.9 --- --- 726.2 0.019 0.000 9.4 8 1
02/21/06 3:24 p -8.3 -8.3 -8.3 --- --- 2.6 NW 0.04 2.6 -10.9 --- --- 726.1 0.019 0.000 9.4 8 1
02/21/06 3:25 p -8.3 -8.3 -8.3 --- --- 2.6 NW 0.04 2.6 -10.9 --- --- 726.1 0.019 0.000 9.4 8 1
02/21/06 3:26 p -8.3 -8.3 -8.3 --- --- 2.6 NW 0.04 3.5 -10.8 --- --- 726.2 0.018 0.000 9.4 8 1
02/21/06 3:27 p -8.3 -8.2 -8.3 --- --- 1.7 NW 0.03 2.6 -9.7 --- --- 726.2 0.018 0.000 9.4 8 1
02/21/06 3:28 p -8.2 -8.2 -8.2 --- --- 0.9 NW 0.01 2.6 -8.2 --- --- 726.3 0.018 0.000 9.4 8 1
02/21/06 3:29 p -8.2 -8.1 -8.2 --- --- 1.7 NW 0.03 2.6 -9.6 --- --- 726.2 0.018 0.000 9.4 8 1
02/21/06 3:30 p -8.2 -8.2 -8.2 --- --- 0.9 NW 0.01 1.7 -8.2 --- --- 726.2 0.018 0.000 9.4 8 1
02/21/06 3:31 p -8.2 -8.2 -8.2 --- --- 0.0 NW 0.00 0.9 -8.2 --- --- 726.3 0.018 0.000 9.4 8 1
02/21/06 3:32 p -8.2 -8.2 -8.2 --- --- 0.9 NW 0.01 1.7 -8.2 --- --- 726.1 0.018 0.000 9.4 8 1
02/21/06 3:33 p -8.2 -8.2 -8.2 --- --- 1.7 NW 0.03 2.6 -9.6 --- --- 726.2 0.018 0.000 9.4 8 1
02/21/06 3:34 p -8.2 -8.2 -8.2 --- --- 2.6 NW 0.04 3.5 -10.7 --- --- 726.1 0.018 0.000 9.4 8 1
02/21/06 3:35 p -8.2 -8.2 -8.2 --- --- 1.7 NW 0.03 2.6 -9.6 --- --- 726.1 0.018 0.000 9.4 8 1
02/21/06 3:36 p -8.1 -8.1 -8.1 --- --- 1.7 NW 0.03 2.6 -9.5 --- --- 726.1 0.018 0.000 9.4 8 1
02/21/06 3:37 p -8.1 -8.1 -8.1 --- --- 1.7 NW 0.03 2.6 -9.5 --- --- 726.2 0.018 0.000 9.4 8 1
02/21/06 3:38 p -8.1 -8.1 -8.1 --- --- 0.9 NW 0.01 1.7 -8.1 --- --- 726.2 0.018 0.000 9.4 8 1
02/21/06 3:39 p -8.1 -8.1 -8.1 --- --- 0.9 NW 0.01 1.7 -8.1 --- --- 726.2 0.018 0.000 9.4 8 1
02/21/06 3:40 p -8.1 -8.1 -8.1 --- --- 0.0 NW 0.00 0.9 -8.1 --- --- 726.2 0.018 0.000 9.4 8 1
02/21/06 3:41 p -8.1 -8.1 -8.1 --- --- 0.0 NW 0.00 0.9 -8.1 --- --- 726.2 0.018 0.000 9.4 8 1
02/21/06 3:42 p -8.1 -8.1 -8.1 --- --- 0.0 --- 0.00 0.9 -8.1 --- --- 726.1 0.018 0.000 9.3 8 1
02/21/06 3:43 p -8.1 -8.1 -8.1 --- --- 0.9 NW 0.01 2.6 -8.1 --- --- 726.1 0.018 0.000 9.3 8 1
02/21/06 3:44 p -8.0 -8.0 -8.1 --- --- 0.9 NW 0.01 1.7 -8.0 --- --- 726.2 0.018 0.000 9.3 8 1
02/21/06 3:45 p -8.0 -8.0 -8.0 --- --- 0.9 NW 0.01 1.7 -8.0 --- --- 726.1 0.018 0.000 9.3 8 1
02/21/06 3:46 p -8.0 -8.0 -8.0 --- --- 1.7 NW 0.03 1.7 -9.4 --- --- 726.2 0.018 0.000 9.3 8 1
02/21/06 3:47 p -8.0 -7.9 -8.0 --- --- 0.0 NW 0.00 0.9 -8.0 --- --- 726.2 0.018 0.000 9.3 8 1
02/21/06 3:48 p -7.9 -7.9 -7.9 --- --- 0.0 NW 0.00 1.7 -7.9 --- --- 726.3 0.018 0.000 9.3 8 1
02/21/06 3:49 p -7.9 -7.9 -8.0 --- --- 2.6 NW 0.04 3.5 -10.5 --- --- 726.2 0.018 0.000 9.3 8 1
02/21/06 3:50 p -7.9 -7.9 -7.9 --- --- 2.6 NW 0.04 3.5 -10.5 --- --- 726.2 0.018 0.000 9.3 8 1
02/21/06 3:51 p -7.9 -7.9 -7.9 --- --- 2.6 NW 0.04 2.6 -10.4 --- --- 726.2 0.018 0.000 9.3 8 1
02/21/06 3:52 p -7.9 -7.9 -7.9 --- --- 2.6 NW 0.04 2.6 -10.4 --- --- 726.2 0.018 0.000 9.3 8 1
02/21/06 3:53 p -7.9 -7.9 -7.9 --- --- 3.5 NW 0.06 4.3 -11.3 --- --- 726.3 0.018 0.000 9.3 8 1
02/21/06 3:54 p -7.9 -7.9 -7.9 --- --- 2.6 NW 0.04 3.5 -10.5 --- --- 726.2 0.018 0.000 9.3 8 1
02/21/06 3:55 p -7.9 -7.9 -7.9 --- --- 2.6 NW 0.04 3.5 -10.4 --- --- 726.2 0.018 0.000 9.3 8 1
02/21/06 3:56 p -7.9 -7.8 -7.9 --- --- 2.6 NW 0.04 3.5 -10.4 --- --- 726.2 0.018 0.000 9.3 8 1
02/21/06 3:57 p -7.8 -7.8 -7.8 --- --- 2.6 NW 0.04 3.5 -10.3 --- --- 726.2 0.018 0.000 9.3 8 1
02/21/06 3:58 p -7.8 -7.8 -7.9 --- --- 2.6 NW 0.04 3.5 -10.3 --- --- 726.2 0.018 0.000 9.3 8 1
02/21/06 3:59 p -7.8 -7.8 -7.8 --- --- 2.6 NW 0.04 3.5 -10.3 --- --- 726.3 0.018 0.000 9.3 8 1
02/21/06 4:00 p -7.8 -7.8 -7.8 --- --- 1.7 NW 0.03 2.6 -9.2 --- --- 726.4 0.018 0.000 9.3 8 1
02/21/06 4:01 p -7.8 -7.8 -7.8 --- --- 1.7 NW 0.03 1.7 -9.2 --- --- 726.3 0.018 0.000 9.3 8 1
02/21/06 4:02 p -7.8 -7.8 -7.9 --- --- 0.9 NW 0.01 1.7 -7.8 --- --- 726.3 0.018 0.000 9.3 8 1
02/21/06 4:03 p -7.8 -7.8 -7.8 --- --- 1.7 NW 0.03 1.7 -9.2 --- --- 726.2 0.018 0.000 9.3 8 1
02/21/06 4:04 p -7.8 -7.8 -7.8 --- --- 0.9 NW 0.01 2.6 -7.8 --- --- 726.3 0.018 0.000 9.3 8 1
02/21/06 4:05 p -7.8 -7.8 -7.8 --- --- 1.7 NW 0.03 2.6 -9.2 --- --- 726.2 0.018 0.000 9.3 8 1
02/21/06 4:06 p -7.8 -7.8 -7.8 --- --- 1.7 NW 0.03 2.6 -9.2 --- --- 726.2 0.018 0.000 9.3 8 1
02/21/06 4:07 p -7.8 -7.8 -7.8 --- --- 3.5 NW 0.06 4.3 -11.2 --- --- 726.3 0.018 0.000 9.3 8 1
02/21/06 4:08 p -7.7 -7.7 -7.8 --- --- 3.5 NW 0.06 4.3 -11.1 --- --- 726.3 0.018 0.000 9.3 8 1
02/21/06 4:09 p -7.7 -7.7 -7.7 --- --- 3.5 NW 0.06 4.3 -11.1 --- --- 726.3 0.018 0.000 9.3 8 1
02/21/06 4:10 p -7.7 -7.7 -7.7 --- --- 2.6 NW 0.04 3.5 -10.2 --- --- 726.3 0.018 0.000 9.3 8 1
02/21/06 4:11 p -7.7 -7.7 -7.7 --- --- 2.6 NW 0.04 3.5 -10.2 --- --- 726.3 0.018 0.000 9.3 8 1
02/21/06 4:12 p -7.7 -7.7 -7.7 --- --- 1.7 NW 0.03 2.6 -9.0 --- --- 726.3 0.018 0.000 9.3 8 1
02/21/06 4:13 p -7.7 -7.7 -7.7 --- --- 3.5 NW 0.06 6.1 -11.1 --- --- 726.2 0.018 0.000 9.3 8 1
02/21/06 4:14 p -7.6 -7.6 -7.7 --- --- 2.6 WNW 0.04 3.5 -10.1 --- --- 726.1 0.018 0.000 9.3 8 1
02/21/06 4:15 p -7.6 -7.6 -7.7 --- --- 2.6 WNW 0.04 4.3 -10.1 --- --- 726.2 0.018 0.000 9.3 8 1
02/21/06 4:16 p -7.7 -7.6 -7.7 --- --- 1.7 WNW 0.03 2.6 -9.0 --- --- 726.3 0.018 0.000 9.3 8 1
02/21/06 4:17 p -7.7 -7.7 -7.7 --- --- 1.7 WNW 0.03 3.5 -9.0 --- --- 726.3 0.018 0.000 9.3 8 1
02/21/06 4:18 p -7.7 -7.7 -7.7 --- --- 3.5 WNW 0.06 4.3 -11.1 --- --- 726.2 0.018 0.000 9.3 8 1
02/21/06 4:19 p -7.7 -7.7 -7.7 --- --- 2.6 WNW 0.04 3.5 -10.2 --- --- 726.2 0.018 0.000 9.3 8 1
02/21/06 4:20 p -7.7 -7.7 -7.7 --- --- 2.6 WNW 0.04 2.6 -10.2 --- --- 726.3 0.018 0.000 9.3 8 1
02/21/06 4:21 p -7.7 -7.7 -7.7 --- --- 2.6 WNW 0.04 3.5 -10.2 --- --- 726.3 0.018 0.000 9.2 8 1
02/21/06 4:22 p -7.7 -7.7 -7.7 --- --- 1.7 WNW 0.03 2.6 -9.0 --- --- 726.3 0.018 0.000 9.3 8 1
02/21/06 4:23 p -7.7 -7.6 -7.7 --- --- 2.6 WNW 0.04 2.6 -10.2 --- --- 726.2 0.018 0.000 9.3 8 1
02/21/06 4:24 p -7.7 -7.7 -7.7 --- --- 2.6 WNW 0.04 2.6 -10.2 --- --- 726.3 0.018 0.000 9.2 8 1
02/21/06 4:25 p -7.7 -7.7 -7.7 --- --- 1.7 WNW 0.03 2.6 -9.0 --- --- 726.2 0.018 0.000 9.3 8 1
02/21/06 4:26 p -7.7 -7.7 -7.7 --- --- 2.6 WNW 0.04 2.6 -10.2 --- --- 726.2 0.018 0.000 9.3 8 1
02/21/06 4:27 p -7.7 -7.7 -7.7 --- --- 1.7 WNW 0.03 2.6 -9.0 --- --- 726.2 0.018 0.000 9.2 8 1
02/21/06 4:28 p -7.7 -7.7 -7.7 --- --- 0.9 WNW 0.01 1.7 -7.7 --- --- 726.2 0.018 0.000 9.2 8 1
02/21/06 4:29 p -7.7 -7.6 -7.7 --- --- 1.7 WNW 0.03 2.6 -9.0 --- --- 726.2 0.018 0.000 9.2 8 1
02/21/06 4:30 p -7.6 -7.6 -7.6 --- --- 2.6 WNW 0.04 3.5 -10.1 --- --- 726.2 0.018 0.000 9.2 8 1
02/21/06 4:31 p -7.6 -7.6 -7.6 --- --- 1.7 WNW 0.03 2.6 -8.9 --- --- 726.3 0.018 0.000 9.3 8 1
02/21/06 4:32 p -7.6 -7.6 -7.6 --- --- 1.7 WNW 0.03 2.6 -8.9 --- --- 726.2 0.018 0.000 9.2 8 1
02/21/06 4:33 p -7.6 -7.6 -7.6 --- --- 0.0 WNW 0.00 0.9 -7.6 --- --- 726.2 0.018 0.000 9.2 8 1
02/21/06 4:34 p -7.6 -7.6 -7.6 --- --- 0.0 WNW 0.00 0.9 -7.6 --- --- 726.3 0.018 0.000 9.2 8 1
02/21/06 4:35 p -7.6 -7.6 -7.6 --- --- 0.0 WNW 0.00 0.9 -7.6 --- --- 726.3 0.018 0.000 9.2 8 1
02/21/06 4:36 p -7.6 -7.6 -7.6 --- --- 0.9 WNW 0.01 1.7 -7.6 --- --- 726.3 0.018 0.000 9.2 8 1
02/21/06 4:37 p -7.6 -7.6 -7.6 --- --- 0.0 --- 0.00 0.0 -7.6 --- --- 726.3 0.018 0.000 9.2 8 1
02/21/06 4:38 p -7.6 -7.6 -7.6 --- --- 0.0 --- 0.00 0.0 -7.6 --- --- 726.3 0.018 0.000 9.2 8 1
02/21/06 4:39 p -7.6 -7.6 -7.6 --- --- 0.9 WNW 0.01 1.7 -7.6 --- --- 726.3 0.018 0.000 9.2 8 1
02/21/06 4:40 p -7.5 -7.5 -7.5 --- --- 2.6 WNW 0.04 4.3 -10.0 --- --- 726.3 0.018 0.000 9.2 8 1
02/21/06 4:41 p -7.5 -7.4 -7.5 --- --- 4.3 NW 0.07 5.2 -11.6 --- --- 726.3 0.018 0.000 9.2 8 1
02/21/06 4:42 p -7.4 -7.4 -7.4 --- --- 6.1 NW 0.10 7.0 -12.6 --- --- 726.3 0.018 0.000 9.2 8 1
02/21/06 4:43 p -7.4 -7.4 -7.4 --- --- 6.1 NW 0.10 7.0 -12.6 --- --- 726.2 0.018 0.000 9.2 8 1
02/21/06 4:44 p -7.4 -7.3 -7.4 --- --- 6.1 NW 0.10 7.0 -12.5 --- --- 726.3 0.018 0.000 9.2 8 1
02/21/06 4:45 p -7.3 -7.3 -7.3 --- --- 5.2 NW 0.09 6.1 -11.9 --- --- 726.3 0.018 0.000 9.2 8 1
02/21/06 4:46 p -7.3 -7.3 -7.3 --- --- 4.3 NW 0.07 5.2 -11.3 --- --- 726.3 0.018 0.000 9.2 8 1
02/21/06 4:47 p -7.2 -7.2 -7.2 --- --- 2.6 NW 0.04 3.5 -9.7 --- --- 726.2 0.018 0.000 9.2 8 1
02/21/06 4:48 p -7.2 -7.2 -7.2 --- --- 2.6 NW 0.04 3.5 -9.6 --- --- 726.2 0.018 0.000 9.2 8 1
02/21/06 4:49 p -7.3 -7.3 -7.3 --- --- 3.5 NW 0.06 4.3 -10.6 --- --- 726.3 0.018 0.000 9.2 8 1
02/21/06 4:50 p -7.3 -7.3 -7.3 --- --- 3.5 NW 0.06 4.3 -10.7 --- --- 726.3 0.018 0.000 9.2 8 1
02/21/06 4:51 p -7.3 -7.3 -7.4 --- --- 3.5 NW 0.06 4.3 -10.7 --- --- 726.3 0.018 0.000 9.2 8 1
02/21/06 4:52 p -7.4 -7.4 -7.4 --- --- 3.5 NW 0.06 4.3 -10.7 --- --- 726.4 0.018 0.000 9.2 8 1
02/21/06 4:53 p -7.3 -7.3 -7.4 --- --- 3.5 NW 0.06 4.3 -10.7 --- --- 726.3 0.018 0.000 9.2 8 1
02/21/06 4:54 p -7.3 -7.3 -7.3 --- --- 2.6 NW 0.04 3.5 -9.7 --- --- 726.3 0.018 0.000 9.2 8 1
02/21/06 4:55 p -7.3 -7.3 -7.3 --- --- 3.5 NW 0.06 3.5 -10.6 --- --- 726.3 0.018 0.000 9.2 8 1
02/21/06 4:56 p -7.3 -7.3 -7.3 --- --- 2.6 NW 0.04 3.5 -9.8 --- --- 726.4 0.018 0.000 9.2 8 1
02/21/06 4:57 p -7.3 -7.3 -7.3 --- --- 2.6 NW 0.04 3.5 -9.8 --- --- 726.3 0.018 0.000 9.2 8 1
02/21/06 4:58 p -7.3 -7.3 -7.3 --- --- 2.6 NW 0.04 3.5 -9.8 --- --- 726.3 0.018 0.000 9.2 8 1
02/21/06 4:59 p -7.3 -7.3 -7.3 --- --- 2.6 NW 0.04 3.5 -9.8 --- --- 726.2 0.018 0.000 9.2 8 1
02/21/06 5:00 p -7.4 -7.3 -7.4 --- --- 2.6 NW 0.04 3.5 -9.8 --- --- 726.3 0.018 0.000 9.2 8 1
02/21/06 5:01 p -7.4 -7.4 -7.4 --- --- 2.6 NW 0.04 3.5 -9.8 --- --- 726.3 0.018 0.000 9.2 8 1
02/21/06 5:02 p -7.4 -7.4 -7.4 --- --- 3.5 NW 0.06 3.5 -10.8 --- --- 726.3 0.018 0.000 9.2 8 1
02/21/06 5:03 p -7.4 -7.4 -7.4 --- --- 3.5 NW 0.06 4.3 -10.8 --- --- 726.3 0.018 0.000 9.2 8 1
02/21/06 5:04 p -7.4 -7.4 -7.4 --- --- 0.9 NW 0.01 2.6 -7.4 --- --- 726.4 0.018 0.000 9.2 8 1
02/21/06 5:05 p -7.3 -7.3 -7.4 --- --- 2.6 NW 0.04 3.5 -9.8 --- --- 726.4 0.018 0.000 9.2 8 1
02/21/06 5:06 p -7.3 -7.2 -7.3 --- --- 2.6 NW 0.04 3.5 -9.7 --- --- 726.3 0.018 0.000 9.2 8 1
02/21/06 5:07 p -7.2 -7.2 -7.3 --- --- 2.6 NW 0.04 3.5 -9.7 --- --- 726.4 0.018 0.000 9.2 8 1
02/21/06 5:08 p -7.2 -7.2 -7.2 --- --- 2.6 NW 0.04 3.5 -9.7 --- --- 726.3 0.018 0.000 9.2 8 1
02/21/06 5:09 p -7.2 -7.2 -7.2 --- --- 2.6 NW 0.04 4.3 -9.7 --- --- 726.4 0.018 0.000 9.2 8 1
02/21/06 5:10 p -7.3 -7.2 -7.3 --- --- 2.6 NW 0.04 3.5 -9.7 --- --- 726.4 0.018 0.000 9.2 8 1
02/21/06 5:11 p -7.2 -7.2 -7.2 --- --- 2.6 NW 0.04 3.5 -9.7 --- --- 726.4 0.018 0.000 9.1 8 1
02/21/06 5:12 p -7.2 -7.2 -7.2 --- --- 2.6 NW 0.04 3.5 -9.7 --- --- 726.3 0.018 0.000 9.1 8 1
02/21/06 5:13 p -7.2 -7.1 -7.2 --- --- 3.5 NW 0.06 4.3 -10.4 --- --- 726.4 0.018 0.000 9.1 8 1
02/21/06 5:14 p -7.1 -7.1 -7.1 --- --- 3.5 NW 0.06 4.3 -10.4 --- --- 726.3 0.018 0.000 9.1 8 1
02/21/06 5:15 p -7.1 -7.1 -7.1 --- --- 2.6 NW 0.04 4.3 -9.4 --- --- 726.3 0.018 0.000 9.2 8 1
02/21/06 5:16 p -7.1 -7.0 -7.1 --- --- 3.5 NW 0.06 4.3 -10.3 --- --- 726.3 0.018 0.000 9.2 8 1
02/21/06 5:17 p -7.0 -7.0 -7.1 --- --- 3.5 NW 0.06 4.3 -10.3 --- --- 726.3 0.018 0.000 9.2 8 1
02/21/06 5:18 p -7.1 -7.1 -7.1 --- --- 3.5 NW 0.06 4.3 -10.3 --- --- 726.4 0.018 0.000 9.2 8 1
02/21/06 5:19 p -7.1 -7.1 -7.1 --- --- 3.5 NW 0.06 4.3 -10.4 --- --- 726.4 0.018 0.000 9.2 8 1
02/21/06 5:20 p -7.1 -7.1 -7.1 --- --- 3.5 NW 0.06 4.3 -10.4 --- --- 726.4 0.018 0.000 9.2 8 1
02/21/06 5:21 p -7.1 -7.1 -7.1 --- --- 4.3 NW 0.07 4.3 -11.1 --- --- 726.4 0.018 0.000 9.2 8 1
02/21/06 5:22 p -7.1 -7.1 -7.1 --- --- 4.3 NW 0.07 5.2 -11.0 --- --- 726.4 0.018 0.000 9.2 8 1
02/21/06 5:23 p -7.1 -7.1 -7.1 --- --- 6.1 NNW 0.10 7.0 -12.1 --- --- 726.4 0.018 0.000 9.2 8 1
02/21/06 5:24 p -7.1 -7.1 -7.1 --- --- 5.2 NW 0.09 7.0 -11.6 --- --- 726.4 0.018 0.000 9.2 8 1
02/21/06 5:25 p -7.1 -7.1 -7.1 --- --- 4.3 NW 0.07 5.2 -11.0 --- --- 726.4 0.018 0.000 9.1 8 1
02/21/06 5:26 p -7.0 -7.0 -7.1 --- --- 5.2 NW 0.09 7.0 -11.6 --- --- 726.4 0.018 0.000 9.2 8 1
02/21/06 5:27 p -6.9 -6.9 -7.0 --- --- 5.2 NW 0.09 7.0 -11.5 --- --- 726.3 0.018 0.000 9.1 8 1
02/21/06 5:28 p -7.0 -7.0 -7.0 --- --- 4.3 NW 0.07 5.2 -10.9 --- --- 726.4 0.018 0.000 9.1 8 1
02/21/06 5:29 p -7.0 -7.0 -7.0 --- --- 3.5 NW 0.06 4.3 -10.3 --- --- 726.4 0.018 0.000 9.1 8 1
02/21/06 5:30 p -7.0 -7.0 -7.0 --- --- 4.3 NNW 0.07 4.3 -10.9 --- --- 726.4 0.018 0.000 9.1 8 1
02/21/06 5:31 p -7.0 -7.0 -7.0 --- --- 4.3 NNW 0.07 6.1 -10.9 --- --- 726.4 0.018 0.000 9.1 8 1
02/21/06 5:32 p -7.1 -7.1 -7.1 --- --- 7.0 NNW 0.12 12.2 -12.6 --- --- 726.4 0.018 0.000 9.1 8 1
02/21/06 5:33 p -7.1 -7.0 -7.1 --- --- 9.6 NNW 0.16 10.4 -13.7 --- --- 726.3 0.018 0.000 9.1 8 1
02/21/06 5:34 p -6.9 -6.9 -6.9 --- --- 7.8 NNW 0.13 9.6 -12.8 --- --- 726.4 0.018 0.000 9.1 8 1
02/21/06 5:35 p -6.9 -6.9 -6.9 --- --- 6.1 NNW 0.10 7.0 -12.0 --- --- 726.4 0.018 0.000 9.1 8 1
02/21/06 5:36 p -6.9 -6.9 -6.9 --- --- 4.3 NNW 0.07 6.1 -10.8 --- --- 726.3 0.018 0.000 9.1 8 1
02/21/06 5:37 p -6.9 -6.9 -6.9 --- --- 4.3 NNW 0.07 5.2 -10.8 --- --- 726.3 0.018 0.000 9.1 8 1
02/21/06 5:38 p -6.9 -6.9 -6.9 --- --- 4.3 NNW 0.07 6.1 -10.9 --- --- 726.5 0.018 0.000 9.1 8 1
02/21/06 5:39 p -6.9 -6.9 -6.9 --- --- 4.3 NNW 0.07 5.2 -10.9 --- --- 726.4 0.018 0.000 9.1 8 1
02/21/06 5:40 p -7.0 -7.0 -7.0 --- --- 5.2 NNW 0.09 6.1 -11.6 --- --- 726.3 0.018 0.000 9.1 8 1
02/21/06 5:41 p -7.0 -7.0 -7.0 --- --- 5.2 NNW 0.09 6.1 -11.6 --- --- 726.4 0.018 0.000 9.1 8 1
02/21/06 5:42 p -7.0 -7.0 -7.0 --- --- 4.3 NNW 0.07 5.2 -10.9 --- --- 726.4 0.018 0.000 9.1 8 1
02/21/06 5:43 p -7.0 -7.0 -7.0 --- --- 3.5 NNW 0.06 5.2 -10.3 --- --- 726.4 0.018 0.000 9.1 8 1
02/21/06 5:44 p -6.9 -6.9 -7.0 --- --- 2.6 NNW 0.04 4.3 -9.3 --- --- 726.5 0.018 0.000 9.1 8 1
02/21/06 5:45 p -7.0 -7.0 -7.0 --- --- 2.6 NNW 0.04 3.5 -9.4 --- --- 726.5 0.018 0.000 9.1 8 1
02/21/06 5:46 p -7.0 -7.0 -7.0 --- --- 2.6 NNW 0.04 3.5 -9.4 --- --- 726.5 0.018 0.000 9.1 8 1
02/21/06 5:47 p -7.0 -7.0 -7.0 --- --- 2.6 NNW 0.04 3.5 -9.4 --- --- 726.5 0.018 0.000 9.1 8 1
02/21/06 5:48 p -7.0 -7.0 -7.0 --- --- 1.7 NNW 0.03 2.6 -8.3 --- --- 726.5 0.018 0.000 9.1 8 1
02/21/06 5:49 p -7.0 -7.0 -7.1 --- --- 0.9 NNW 0.01 1.7 -7.0 --- --- 726.5 0.018 0.000 9.1 8 1
02/21/06 5:50 p -7.0 -7.0 -7.0 --- --- 1.7 NNW 0.03 3.5 -8.3 --- --- 726.4 0.018 0.000 9.1 8 1
02/21/06 5:51 p -7.0 -7.0 -7.1 --- --- 4.3 NNW 0.07 6.1 -10.9 --- --- 726.4 0.018 0.000 9.1 8 1
02/21/06 5:52 p -7.0 -7.0 -7.1 --- --- 5.2 NNW 0.09 7.0 -11.6 --- --- 726.4 0.018 0.000 9.1 8 1
02/21/06 5:53 p -6.9 -6.9 -7.0 --- --- 4.3 N 0.07 7.0 -10.9 --- --- 726.4 0.018 0.000 9.1 8 1
02/21/06 5:54 p -6.9 -6.9 -6.9 --- --- 6.1 NNW 0.10 7.0 -12.0 --- --- 726.4 0.018 0.000 9.1 8 1
02/21/06 5:55 p -6.9 -6.9 -6.9 --- --- 5.2 NNW 0.09 7.0 -11.5 --- --- 726.4 0.018 0.000 9.1 8 1
02/21/06 5:56 p -6.9 -6.9 -6.9 --- --- 6.1 NNW 0.10 7.8 -12.0 --- --- 726.4 0.018 0.000 9.1 8 1
02/21/06 5:57 p -6.9 -6.9 -6.9 --- --- 3.5 NNW 0.06 5.2 -10.1 --- --- 726.4 0.018 0.000 9.1 8 1
02/21/06 5:58 p -6.8 -6.8 -6.9 --- --- 2.6 NNW 0.04 3.5 -9.2 --- --- 726.4 0.017 0.000 9.1 8 1
02/21/06 5:59 p -6.9 -6.8 -6.9 --- --- 2.6 NNW 0.04 4.3 -9.3 --- --- 726.4 0.018 0.000 9.1 8 1
02/21/06 6:00 p -6.8 -6.8 -6.9 --- --- 4.3 NNW 0.07 5.2 -10.8 --- --- 726.4 0.017 0.000 9.1 8 1
02/21/06 6:01 p -6.8 -6.8 -6.9 --- --- 3.5 NNW 0.06 5.2 -10.1 --- --- 726.4 0.017 0.000 9.1 8 1
02/21/06 6:02 p -6.9 -6.9 -6.9 --- --- 2.6 NW 0.04 3.5 -9.3 --- --- 726.4 0.018 0.000 9.1 8 1
02/21/06 6:03 p -6.8 -6.8 -6.9 --- --- 2.6 NW 0.04 2.6 -9.2 --- --- 726.4 0.017 0.000 9.1 8 1
02/21/06 6:04 p -6.8 -6.8 -6.8 --- --- 1.7 NW 0.03 2.6 -8.1 --- --- 726.5 0.017 0.000 9.1 8 1
02/21/06 6:05 p -6.8 -6.8 -6.9 --- --- 2.6 NW 0.04 3.5 -9.2 --- --- 726.4 0.017 0.000 9.1 8 1
02/21/06 6:06 p -6.9 -6.9 -6.9 --- --- 3.5 NNW 0.06 4.3 -10.1 --- --- 726.4 0.018 0.000 9.1 8 1
02/21/06 6:07 p -6.9 -6.9 -6.9 --- --- 2.6 NNW 0.04 3.5 -9.3 --- --- 726.4 0.018 0.000 9.1 8 1
02/21/06 6:08 p -6.9 -6.9 -6.9 --- --- 2.6 NNW 0.04 3.5 -9.3 --- --- 726.4 0.018 0.000 9.1 8 1
02/21/06 6:09 p -6.9 -6.9 -6.9 --- --- 3.5 NNW 0.06 3.5 -10.2 --- --- 726.4 0.018 0.000 9.1 8 1
02/21/06 6:10 p -6.9 -6.9 -6.9 --- --- 6.1 NNW 0.10 7.0 -12.0 --- --- 726.5 0.018 0.000 9.1 8 1
02/21/06 6:11 p -6.9 -6.9 -6.9 --- --- 5.2 NNW 0.09 7.0 -11.5 --- --- 726.4 0.018 0.000 9.1 8 1
02/21/06 6:12 p -6.9 -6.9 -6.9 --- --- 7.0 NNW 0.12 8.7 -12.4 --- --- 726.4 0.018 0.000 9.1 8 1
02/21/06 6:13 p -6.9 -6.9 -6.9 --- --- 7.0 NNW 0.12 7.8 -12.4 --- --- 726.4 0.018 0.000 9.1 8 1
02/21/06 6:14 p -6.9 -6.9 -6.9 --- --- 5.2 NNW 0.09 6.1 -11.4 --- --- 726.4 0.018 0.000 9.1 8 1
02/21/06 6:15 p -6.8 -6.8 -6.8 --- --- 6.1 NNW 0.10 7.8 -11.8 --- --- 726.5 0.017 0.000 9.1 8 1
02/21/06 6:16 p -6.9 -6.8 -6.9 --- --- 7.0 NNW 0.12 7.8 -12.4 --- --- 726.4 0.018 0.000 9.1 8 1
02/21/06 6:17 p -6.9 -6.9 -6.9 --- --- 7.0 NNW 0.12 7.0 -12.4 --- --- 726.4 0.018 0.000 9.1 8 1
02/21/06 6:18 p -6.9 -6.9 -6.9 --- --- 7.0 NNW 0.12 7.8 -12.4 --- --- 726.5 0.018 0.000 9.1 8 1
02/21/06 6:19 p -6.9 -6.9 -6.9 --- --- 7.0 NNW 0.12 8.7 -12.4 --- --- 726.5 0.018 0.000 9.1 8 1
02/21/06 6:20 p -6.9 -6.9 -6.9 --- --- 6.1 NNW 0.10 7.0 -11.9 --- --- 726.5 0.018 0.000 9.1 8 1
02/21/06 6:21 p -6.9 -6.9 -6.9 --- --- 5.2 NNW 0.09 6.1 -11.4 --- --- 726.5 0.018 0.000 9.1 8 1
02/21/06 6:22 p -6.9 -6.9 -6.9 --- --- 5.2 NNW 0.09 6.1 -11.4 --- --- 726.5 0.018 0.000 9.1 8 1
02/21/06 6:23 p -6.8 -6.8 -6.9 --- --- 6.1 NNW 0.10 7.8 -11.8 --- --- 726.5 0.017 0.000 9.1 8 1
02/21/06 6:24 p -6.8 -6.8 -6.8 --- --- 6.1 NNW 0.10 7.0 -11.8 --- --- 726.5 0.017 0.000 9.1 8 1
02/21/06 6:25 p -6.8 -6.8 -6.8 --- --- 6.1 NNW 0.10 7.8 -11.8 --- --- 726.5 0.017 0.000 9.1 8 1
02/21/06 6:26 p -6.8 -6.8 -6.8 --- --- 6.1 NNW 0.10 7.0 -11.8 --- --- 726.5 0.017 0.000 9.1 8 1
02/21/06 6:27 p -6.8 -6.8 -6.9 --- --- 5.2 NNW 0.09 7.8 -11.3 --- --- 726.5 0.017 0.000 9.1 8 1
02/21/06 6:28 p -6.9 -6.9 -6.9 --- --- 8.7 NNW 0.14 11.3 -13.1 --- --- 726.5 0.018 0.000 9.1 8 1
02/21/06 6:29 p -6.9 -6.9 -6.9 --- --- 9.6 NNW 0.16 12.2 -13.4 --- --- 726.5 0.018 0.000 9.1 8 1
02/21/06 6:30 p -6.9 -6.9 -6.9 --- --- 8.7 NW 0.14 10.4 -13.1 --- --- 726.5 0.018 0.000 9.1 8 1
02/21/06 6:31 p -6.9 -6.8 -6.9 --- --- 7.0 NW 0.12 8.7 -12.4 --- --- 726.5 0.018 0.000 9.1 8 1
02/21/06 6:32 p -6.8 -6.8 -6.8 --- --- 7.0 NW 0.12 8.7 -12.3 --- --- 726.5 0.017 0.000 9.1 8 1
02/21/06 6:33 p -6.8 -6.8 -6.8 --- --- 7.8 NNW 0.13 9.6 -12.7 --- --- 726.5 0.017 0.000 9.1 8 1
02/21/06 6:34 p -6.8 -6.8 -6.8 --- --- 5.2 NNW 0.09 7.0 -11.3 --- --- 726.5 0.017 0.000 9.1 8 1
02/21/06 6:35 p -6.8 -6.8 -6.8 --- --- 5.2 NNW 0.09 7.0 -11.3 --- --- 726.6 0.017 0.000 9.1 8 1
02/21/06 6:36 p -6.8 -6.8 -6.8 --- --- 5.2 NNW 0.09 5.2 -11.3 --- --- 726.6 0.017 0.000 9.1 8 1
02/21/06 6:37 p -6.8 -6.8 -6.8 --- --- 5.2 NNW 0.09 7.0 -11.3 --- --- 726.5 0.017 0.000 9.1 8 1
02/21/06 6:38 p -6.8 -6.8 -6.8 --- --- 6.1 NNW 0.10 7.0 -11.8 --- --- 726.4 0.017 0.000 9.1 8 1
02/21/06 6:39 p -6.8 -6.8 -6.8 --- --- 6.1 NNW 0.10 7.0 -11.8 --- --- 726.4 0.017 0.000 9.1 8 1
02/21/06 6:40 p -6.8 -6.8 -6.8 --- --- 4.3 NNW 0.07 5.2 -10.7 --- --- 726.4 0.017 0.000 9.1 8 1
02/21/06 6:41 p -6.8 -6.8 -6.8 --- --- 4.3 NNW 0.07 5.2 -10.8 --- --- 726.5 0.017 0.000 9.1 8 1
02/21/06 6:42 p -6.9 -6.8 -6.9 --- --- 4.3 NNW 0.07 5.2 -10.8 --- --- 726.5 0.018 0.000 9.1 8 1
02/21/06 6:43 p -6.9 -6.9 -6.9 --- --- 4.3 NNW 0.07 5.2 -10.8 --- --- 726.5 0.018 0.000 9.1 8 1
02/21/06 6:44 p -6.9 -6.9 -6.9 --- --- 5.2 NNW 0.09 5.2 -11.4 --- --- 726.5 0.018 0.000 9.1 8 1
02/21/06 6:45 p -6.9 -6.9 -6.9 --- --- 4.3 NNW 0.07 6.1 -10.8 --- --- 726.5 0.018 0.000 9.1 8 1
02/21/06 6:46 p -6.9 -6.9 -6.9 --- --- 5.2 NNW 0.09 6.1 -11.4 --- --- 726.6 0.018 0.000 9.1 8 1
02/21/06 6:47 p -6.9 -6.8 -6.9 --- --- 5.2 NNW 0.09 6.1 -11.4 --- --- 726.5 0.018 0.000 9.1 8 1
02/21/06 6:48 p -6.8 -6.8 -6.8 --- --- 4.3 NNW 0.07 5.2 -10.8 --- --- 726.6 0.017 0.000 9.1 8 1
02/21/06 6:49 p -6.8 -6.8 -6.8 --- --- 3.5 NNW 0.06 4.3 -10.1 --- --- 726.5 0.017 0.000 9.1 8 1
02/21/06 6:50 p -6.8 -6.8 -6.9 --- --- 4.3 NNW 0.07 5.2 -10.8 --- --- 726.5 0.017 0.000 9.1 8 1
02/21/06 6:51 p -6.9 -6.9 -6.9 --- --- 3.5 NNW 0.06 5.2 -10.1 --- --- 726.6 0.018 0.000 9.1 8 1
02/21/06 6:52 p -6.9 -6.9 -6.9 --- --- 6.1 NNW 0.10 7.8 -11.9 --- --- 726.6 0.018 0.000 9.1 8 1
02/21/06 6:53 p -6.8 -6.8 -6.9 --- --- 6.1 NNW 0.10 7.0 -11.8 --- --- 726.5 0.017 0.000 9.1 8 1
02/21/06 6:54 p -6.8 -6.8 -6.8 --- --- 4.3 NNW 0.07 5.2 -10.7 --- --- 726.5 0.017 0.000 9.1 8 1
02/21/06 6:55 p -6.8 -6.8 -6.8 --- --- 4.3 NNW 0.07 6.1 -10.8 --- --- 726.5 0.017 0.000 9.1 8 1
02/21/06 6:56 p -6.8 -6.8 -6.8 --- --- 6.1 N 0.10 7.0 -11.8 --- --- 726.5 0.017 0.000 9.1 8 1
02/21/06 6:57 p -6.8 -6.8 -6.8 --- --- 4.3 NNW 0.07 6.1 -10.8 --- --- 726.6 0.017 0.000 9.1 8 1
02/21/06 6:58 p -6.8 -6.8 -6.8 --- --- 6.1 NNW 0.10 7.0 -11.8 --- --- 726.5 0.017 0.000 9.1 8 1
02/21/06 6:59 p -6.8 -6.8 -6.8 --- --- 8.7 NNW 0.14 10.4 -13.0 --- --- 726.5 0.017 0.000 9.1 8 1
02/21/06 7:00 p -6.8 -6.8 -6.8 --- --- 7.8 NNW 0.13 8.7 -12.6 --- --- 726.5 0.017 0.000 9.1 8 1
02/21/06 7:01 p -6.8 -6.8 -6.8 --- --- 6.1 NNW 0.10 7.0 -11.8 --- --- 726.5 0.017 0.000 9.1 8 1
02/21/06 7:02 p -6.8 -6.8 -6.8 --- --- 4.3 NNW 0.07 6.1 -10.8 --- --- 726.6 0.017 0.000 9.1 8 1
02/21/06 7:03 p -6.8 -6.8 -6.8 --- --- 4.3 NNW 0.07 5.2 -10.8 --- --- 726.5 0.017 0.000 9.1 8 1
02/21/06 7:04 p -6.8 -6.8 -6.8 --- --- 3.5 NNW 0.06 4.3 -10.1 --- --- 726.5 0.017 0.000 9.1 8 1
02/21/06 7:05 p -6.8 -6.8 -6.8 --- --- 4.3 NNW 0.07 6.1 -10.8 --- --- 726.6 0.017 0.000 9.1 8 1
02/21/06 7:06 p -6.8 -6.8 -6.8 --- --- 6.1 NNW 0.10 6.1 -11.8 --- --- 726.6 0.017 0.000 9.1 8 1
02/21/06 7:07 p -6.8 -6.8 -6.8 --- --- 5.2 NNW 0.09 7.0 -11.3 --- --- 726.5 0.017 0.000 9.1 8 1
02/21/06 7:08 p -6.8 -6.8 -6.8 --- --- 5.2 NNW 0.09 7.0 -11.3 --- --- 726.6 0.017 0.000 9.1 8 1
02/21/06 7:09 p -6.8 -6.8 -6.8 --- --- 4.3 NNW 0.07 6.1 -10.7 --- --- 726.5 0.017 0.000 9.1 8 1
02/21/06 7:10 p -6.8 -6.8 -6.8 --- --- 5.2 NNW 0.09 6.1 -11.3 --- --- 726.5 0.017 0.000 9.1 8 1
02/21/06 7:11 p -6.8 -6.8 -6.8 --- --- 5.2 N 0.09 7.0 -11.3 --- --- 726.5 0.017 0.000 9.1 8 1
02/21/06 7:12 p -6.8 -6.8 -6.8 --- --- 7.0 NNW 0.12 9.6 -12.2 --- --- 726.4 0.017 0.000 9.1 8 1
02/21/06 7:13 p -6.8 -6.8 -6.8 --- --- 5.2 NNW 0.09 7.0 -11.3 --- --- 726.5 0.017 0.000 9.1 8 1
02/21/06 7:14 p -6.7 -6.7 -6.7 --- --- 4.3 NNW 0.07 6.1 -10.6 --- --- 726.5 0.017 0.000 9.1 8 1
02/21/06 7:15 p -6.7 -6.7 -6.8 --- --- 3.5 NNW 0.06 4.3 -9.9 --- --- 726.4 0.017 0.000 9.1 8 1
02/21/06 7:16 p -6.7 -6.7 -6.8 --- --- 3.5 NNW 0.06 4.3 -9.9 --- --- 726.5 0.017 0.000 9.1 8 1
02/21/06 7:17 p -6.7 -6.7 -6.7 --- --- 3.5 NNW 0.06 4.3 -9.9 --- --- 726.5 0.017 0.000 9.1 8 1
02/21/06 7:18 p -6.7 -6.7 -6.7 --- --- 4.3 NNW 0.07 5.2 -10.6 --- --- 726.5 0.017 0.000 9.1 8 1
02/21/06 7:19 p -6.7 -6.7 -6.7 --- --- 3.5 NNW 0.06 5.2 -9.9 --- --- 726.5 0.017 0.000 9.1 8 1
02/21/06 7:20 p -6.7 -6.7 -6.7 --- --- 4.3 NNW 0.07 7.0 -10.6 --- --- 726.5 0.017 0.000 9.1 8 1
02/21/06 7:21 p -6.7 -6.7 -6.7 --- --- 6.1 NNW 0.10 7.0 -11.7 --- --- 726.5 0.017 0.000 9.1 8 1
02/21/06 7:22 p -6.7 -6.7 -6.7 --- --- 7.0 NNW 0.12 9.6 -12.1 --- --- 726.5 0.017 0.000 9.1 8 1
02/21/06 7:23 p -6.7 -6.7 -6.7 --- --- 5.2 NNW 0.09 8.7 -11.2 --- --- 726.4 0.017 0.000 9.1 8 1
02/21/06 7:24 p -6.7 -6.7 -6.7 --- --- 6.1 NNW 0.10 7.0 -11.7 --- --- 726.5 0.017 0.000 9.1 8 1
02/21/06 7:25 p -6.6 -6.6 -6.7 --- --- 5.2 NW 0.09 7.0 -11.1 --- --- 726.5 0.017 0.000 9.1 8 1
02/21/06 7:26 p -6.6 -6.6 -6.6 --- --- 2.6 NW 0.04 4.3 -8.9 --- --- 726.5 0.017 0.000 9.1 8 1
02/21/06 7:27 p -6.6 -6.6 -6.7 --- --- 4.3 NNW 0.07 5.2 -10.5 --- --- 726.5 0.017 0.000 9.1 8 1
02/21/06 7:28 p -6.7 -6.7 -6.7 --- --- 4.3 NNW 0.07 5.2 -10.6 --- --- 726.5 0.017 0.000 9.1 8 1
02/21/06 7:29 p -6.6 -6.6 -6.7 --- --- 5.2 N 0.09 6.1 -11.1 --- --- 726.5 0.017 0.000 9.1 8 1
02/21/06 7:30 p -6.7 -6.6 -6.7 --- --- 4.3 N 0.07 6.1 -10.6 --- --- 726.5 0.017 0.000 9.1 8 1
02/21/06 7:31 p -6.7 -6.7 -6.7 --- --- 7.0 NNW 0.12 9.6 -12.1 --- --- 726.5 0.017 0.000 9.1 8 1
02/21/06 7:32 p -6.7 -6.7 -6.7 --- --- 8.7 NNW 0.14 10.4 -12.8 --- --- 726.5 0.017 0.000 9.1 8 1
02/21/06 7:33 p -6.7 -6.7 -6.7 --- --- 8.7 NNW 0.14 11.3 -12.8 --- --- 726.5 0.017 0.000 9.1 8 1
02/21/06 7:34 p -6.6 -6.6 -6.7 --- --- 6.1 NNW 0.10 7.8 -11.6 --- --- 726.6 0.017 0.000 9.1 8 1
02/21/06 7:35 p -6.6 -6.6 -6.6 --- --- 4.3 NNW 0.07 6.1 -10.5 --- --- 726.5 0.017 0.000 9.1 8 1
02/21/06 7:36 p -6.7 -6.6 -6.7 --- --- 2.6 NNW 0.04 3.5 -9.1 --- --- 726.5 0.017 0.000 9.1 8 1
02/21/06 7:37 p -6.7 -6.7 -6.7 --- --- 2.6 NNW 0.04 4.3 -9.1 --- --- 726.6 0.017 0.000 9.1 8 1
02/21/06 7:38 p -6.7 -6.7 -6.7 --- --- 1.7 NNW 0.03 3.5 -7.9 --- --- 726.6 0.017 0.000 9.1 8 1
02/21/06 7:39 p -6.7 -6.6 -6.7 --- --- 2.6 NNW 0.04 4.3 -9.1 --- --- 726.6 0.017 0.000 9.1 8 1
02/21/06 7:40 p -6.6 -6.6 -6.6 --- --- 4.3 NNW 0.07 6.1 -10.5 --- --- 726.5 0.017 0.000 9.1 8 1
02/21/06 7:41 p -6.6 -6.6 -6.6 --- --- 3.5 NNW 0.06 4.3 -9.8 --- --- 726.5 0.017 0.000 9.1 8 1
02/21/06 7:42 p -6.6 -6.6 -6.6 --- --- 3.5 NNW 0.06 3.5 -9.8 --- --- 726.6 0.017 0.000 9.1 8 1
02/21/06 7:43 p -6.6 -6.6 -6.6 --- --- 4.3 N 0.07 4.3 -10.5 --- --- 726.6 0.017 0.000 9.1 8 1
02/21/06 7:44 p -6.6 -6.6 -6.6 --- --- 2.6 N 0.04 4.3 -8.9 --- --- 726.6 0.017 0.000 9.1 8 1
02/21/06 7:45 p -6.6 -6.6 -6.6 --- --- 3.5 N 0.06 4.3 -9.8 --- --- 726.5 0.017 0.000 9.1 8 1
02/21/06 7:46 p -6.6 -6.6 -6.6 --- --- 3.5 N 0.06 4.3 -9.8 --- --- 726.5 0.017 0.000 9.1 8 1
02/21/06 7:47 p -6.6 -6.6 -6.6 --- --- 5.2 N 0.09 7.0 -11.1 --- --- 726.6 0.017 0.000 9.1 8 1
02/21/06 7:48 p -6.6 -6.6 -6.6 --- --- 6.1 NNW 0.10 7.8 -11.6 --- --- 726.5 0.017 0.000 9.1 8 1
02/21/06 7:49 p -6.6 -6.6 -6.6 --- --- 5.2 NNW 0.09 5.2 -11.0 --- --- 726.6 0.017 0.000 9.1 8 1
02/21/06 7:50 p -6.6 -6.6 -6.6 --- --- 5.2 NNW 0.09 6.1 -11.0 --- --- 726.5 0.017 0.000 9.1 8 1
02/21/06 7:51 p -6.6 -6.6 -6.6 --- --- 4.3 NNW 0.07 6.1 -10.4 --- --- 726.5 0.017 0.000 9.1 8 1
02/21/06 7:52 p -6.6 -6.6 -6.6 --- --- 4.3 NNW 0.07 5.2 -10.4 --- --- 726.6 0.017 0.000 9.1 8 1
02/21/06 7:53 p -6.6 -6.6 -6.7 --- --- 5.2 N 0.09 6.1 -11.1 --- --- 726.6 0.017 0.000 9.1 8 1
02/21/06 7:54 p -6.7 -6.7 -6.7 --- --- 4.3 N 0.07 5.2 -10.6 --- --- 726.5 0.017 0.000 9.1 8 1
02/21/06 7:55 p -6.7 -6.7 -6.7 --- --- 5.2 NNW 0.09 6.1 -11.2 --- --- 726.5 0.017 0.000 9.1 8 1
02/21/06 7:56 p -6.7 -6.7 -6.7 --- --- 4.3 NNW 0.07 6.1 -10.6 --- --- 726.5 0.017 0.000 9.1 8 1
02/21/06 7:57 p -6.6 -6.6 -6.7 --- --- 3.5 NNW 0.06 4.3 -9.8 --- --- 726.5 0.017 0.000 9.1 8 1
02/21/06 7:58 p -6.6 -6.6 -6.6 --- --- 1.7 NNW 0.03 3.5 -7.8 --- --- 726.6 0.017 0.000 9.1 8 1
02/21/06 7:59 p -6.6 -6.6 -6.6 --- --- 2.6 NNW 0.04 3.5 -8.9 --- --- 726.6 0.017 0.000 9.1 8 1
02/21/06 8:00 p -6.5 -6.5 -6.6 --- --- 1.7 NNW 0.03 2.6 -7.7 --- --- 726.6 0.017 0.000 9.1 8 1
02/21/06 8:01 p -6.5 -6.4 -6.5 --- --- 2.6 NNW 0.04 3.5 -8.8 --- --- 726.5 0.017 0.000 9.1 8 1
02/21/06 8:02 p -6.4 -6.4 -6.5 --- --- 1.7 NNW 0.03 3.5 -7.7 --- --- 726.6 0.017 0.000 9.1 8 1
02/21/06 8:03 p -6.5 -6.4 -6.5 --- --- 3.5 N 0.06 4.3 -9.7 --- --- 726.5 0.017 0.000 9.1 8 1
02/21/06 8:04 p -6.4 -6.4 -6.4 --- --- 2.6 N 0.04 3.5 -8.7 --- --- 726.5 0.017 0.000 9.1 8 1
02/21/06 8:05 p -6.4 -6.3 -6.4 --- --- 1.7 N 0.03 2.6 -7.6 --- --- 726.6 0.017 0.000 9.1 8 1
02/21/06 8:06 p -6.3 -6.3 -6.3 --- --- 2.6 N 0.04 3.5 -8.7 --- --- 726.6 0.017 0.000 9.1 8 1
02/21/06 8:07 p -6.3 -6.3 -6.3 --- --- 2.6 N 0.04 3.5 -8.6 --- --- 726.6 0.017 0.000 9.1 8 1
02/21/06 8:08 p -6.3 -6.2 -6.3 --- --- 4.3 N 0.07 5.2 -10.1 --- --- 726.5 0.017 0.000 9.1 8 1
02/21/06 8:09 p -6.1 -6.1 -6.2 --- --- 5.2 N 0.09 5.2 -10.5 --- --- 726.6 0.017 0.000 9.1 8 1
02/21/06 8:10 p -6.2 -6.2 -6.2 --- --- 4.3 N 0.07 6.1 -10.0 --- --- 726.5 0.017 0.000 9.1 8 1
02/21/06 8:11 p -6.2 -6.2 -6.2 --- --- 3.5 N 0.06 5.2 -9.4 --- --- 726.6 0.017 0.000 9.1 8 1
02/21/06 8:12 p -6.2 -6.2 -6.2 --- --- 3.5 N 0.06 6.1 -9.4 --- --- 726.5 0.017 0.000 9.1 8 1
02/21/06 8:13 p -6.2 -6.2 -6.2 --- --- 3.5 N 0.06 5.2 -9.3 --- --- 726.6 0.017 0.000 9.1 8 1
02/21/06 8:14 p -6.2 -6.1 -6.2 --- --- 1.7 N 0.03 2.6 -7.3 --- --- 726.5 0.017 0.000 9.1 8 1
02/21/06 8:15 p -6.1 -6.1 -6.1 --- --- 2.6 N 0.04 4.3 -8.4 --- --- 726.5 0.017 0.000 9.1 8 1
02/21/06 8:16 p -6.3 -6.2 -6.4 --- --- 5.2 NE 0.09 6.1 -10.7 --- --- 726.5 0.017 0.000 9.1 8 1
02/21/06 8:17 p -6.4 -6.4 -6.5 --- --- 5.2 NE 0.09 6.1 -10.9 --- --- 726.5 0.017 0.000 9.1 8 1
02/21/06 8:18 p -6.6 -6.5 -6.6 --- --- 5.2 NE 0.09 6.1 -11.0 --- --- 726.6 0.017 0.000 9.1 8 1
02/21/06 8:19 p -6.6 -6.6 -6.7 --- --- 4.3 NE 0.07 5.2 -10.5 --- --- 726.6 0.017 0.000 9.1 8 1
02/21/06 8:20 p -6.7 -6.7 -6.7 --- --- 4.3 NE 0.07 5.2 -10.6 --- --- 726.6 0.017 0.000 9.1 8 1
02/21/06 8:21 p -6.7 -6.7 -6.7 --- --- 4.3 NE 0.07 6.1 -10.6 --- --- 726.6 0.017 0.000 9.1 8 1
02/21/06 8:22 p -6.7 -6.6 -6.7 --- --- 4.3 NE 0.07 5.2 -10.6 --- --- 726.6 0.017 0.000 9.1 8 1
02/21/06 8:23 p -6.6 -6.6 -6.6 --- --- 4.3 NE 0.07 5.2 -10.5 --- --- 726.6 0.017 0.000 9.1 8 1
02/21/06 8:24 p -6.6 -6.5 -6.6 --- --- 2.6 NE 0.04 3.5 -8.9 --- --- 726.6 0.017 0.000 9.1 8 1
02/21/06 8:25 p -6.4 -6.4 -6.5 --- --- 0.9 NE 0.01 3.5 -6.4 --- --- 726.6 0.017 0.000 9.1 8 1
02/21/06 8:26 p -6.3 -6.3 -6.4 --- --- 3.5 N 0.06 4.3 -9.5 --- --- 726.6 0.017 0.000 9.0 8 1
02/21/06 8:27 p -6.3 -6.3 -6.4 --- --- 4.3 N 0.07 5.2 -10.2 --- --- 726.5 0.017 0.000 9.1 8 1
02/21/06 8:28 p -6.4 -6.3 -6.4 --- --- 2.6 N 0.04 3.5 -8.7 --- --- 726.5 0.017 0.000 9.0 8 1
02/21/06 8:29 p -6.3 -6.2 -6.4 --- --- 1.7 N 0.03 3.5 -7.6 --- --- 726.6 0.017 0.000 9.0 8 1
02/21/06 8:30 p -6.2 -6.1 -6.2 --- --- 2.6 N 0.04 3.5 -8.4 --- --- 726.6 0.017 0.000 9.0 8 1
02/21/06 8:31 p -6.1 -6.0 -6.1 --- --- 5.2 NE 0.09 7.0 -10.4 --- --- 726.5 0.017 0.000 9.1 8 1
02/21/06 8:32 p -6.2 -6.1 -6.3 --- --- 6.1 NE 0.10 7.8 -11.1 --- --- 726.6 0.017 0.000 9.1 8 1
02/21/06 8:33 p -6.4 -6.3 -6.5 --- --- 6.1 NE 0.10 7.8 -11.3 --- --- 726.6 0.017 0.000 9.1 9 1
02/21/06 8:34 p -6.5 -6.4 -6.5 --- --- 5.2 N 0.09 6.1 -10.9 --- --- 726.6 0.017 0.000 9.1 8 1
02/21/06 8:35 p -6.4 -6.4 -6.4 --- --- 6.1 NNW 0.10 7.0 -11.3 --- --- 726.6 0.017 0.000 9.1 9 1
02/21/06 8:36 p -6.4 -6.4 -6.4 --- --- 4.3 NNW 0.07 6.1 -10.2 --- --- 726.5 0.017 0.000 9.1 9 1
02/21/06 8:37 p -6.3 -6.3 -6.4 --- --- 3.5 NNW 0.06 4.3 -9.5 --- --- 726.6 0.017 0.000 9.1 9 1
02/21/06 8:38 p -6.2 -6.2 -6.2 --- --- 0.9 NNW 0.01 2.6 -6.2 --- --- 726.6 0.017 0.000 9.1 9 1
02/21/06 8:39 p -6.1 -6.0 -6.2 --- --- 1.7 N 0.03 3.5 -7.3 --- --- 726.6 0.017 0.000 9.1 9 1
02/21/06 8:40 p -6.0 -5.9 -6.0 --- --- 2.6 N 0.04 3.5 -8.3 --- --- 726.6 0.017 0.000 9.1 9 1
02/21/06 8:41 p -5.9 -5.9 -5.9 --- --- 2.6 NNE 0.04 4.3 -8.2 --- --- 726.6 0.017 0.000 9.1 9 1
02/21/06 8:42 p -5.9 -5.9 -5.9 --- --- 2.6 NNE 0.04 3.5 -8.2 --- --- 726.6 0.017 0.000 9.1 9 1
02/21/06 8:43 p -5.9 -5.9 -6.0 --- --- 3.5 N 0.06 5.2 -9.1 --- --- 726.6 0.017 0.000 9.0 9 1
02/21/06 8:44 p -6.0 -6.0 -6.1 --- --- 2.6 N 0.04 4.3 -8.3 --- --- 726.5 0.017 0.000 9.0 9 1
02/21/06 8:45 p -6.0 -5.9 -6.0 --- --- 3.5 NNE 0.06 5.2 -9.1 --- --- 726.6 0.017 0.000 9.0 9 1
02/21/06 8:46 p -5.9 -5.9 -5.9 --- --- 4.3 NE 0.07 5.2 -9.7 --- --- 726.6 0.017 0.000 9.0 9 1
02/21/06 8:47 p -6.0 -5.9 -6.1 --- --- 5.2 NE 0.09 7.0 -10.3 --- --- 726.6 0.017 0.000 9.0 9 1
02/21/06 8:48 p -6.2 -6.1 -6.2 --- --- 5.2 NE 0.09 6.1 -10.6 --- --- 726.6 0.017 0.000 9.0 9 1
02/21/06 8:49 p -6.2 -6.2 -6.3 --- --- 6.1 NE 0.10 7.0 -11.1 --- --- 726.5 0.017 0.000 9.0 9 1
02/21/06 8:50 p -6.3 -6.3 -6.4 --- --- 6.1 NE 0.10 7.0 -11.2 --- --- 726.5 0.017 0.000 9.0 9 1
02/21/06 8:51 p -6.4 -6.4 -6.4 --- --- 3.5 NE 0.06 5.2 -9.6 --- --- 726.6 0.017 0.000 9.0 9 1
02/21/06 8:52 p -6.4 -6.4 -6.4 --- --- 3.5 NE 0.06 5.2 -9.6 --- --- 726.6 0.017 0.000 9.0 9 1
02/21/06 8:53 p -6.4 -6.4 -6.4 --- --- 5.2 NE 0.09 7.0 -10.8 --- --- 726.6 0.017 0.000 8.9 9 1
02/21/06 8:54 p -6.4 -6.4 -6.4 --- --- 6.1 NE 0.10 7.8 -11.3 --- --- 726.5 0.017 0.000 8.9 9 1
02/21/06 8:55 p -6.4 -6.3 -6.4 --- --- 5.2 NE 0.09 7.0 -10.8 --- --- 726.7 0.017 0.000 8.9 9 1
02/21/06 8:56 p -6.3 -6.2 -6.3 --- --- 3.5 NNE 0.06 5.2 -9.4 --- --- 726.7 0.017 0.000 8.9 9 1
02/21/06 8:57 p -6.2 -6.1 -6.2 --- --- 4.3 NE 0.07 7.8 -10.0 --- --- 726.6 0.017 0.000 8.9 9 1
02/21/06 8:58 p -6.2 -6.1 -6.2 --- --- 7.0 NE 0.12 7.8 -11.5 --- --- 726.6 0.017 0.000 8.9 9 1
02/21/06 8:59 p -6.3 -6.2 -6.4 --- --- 6.1 NE 0.10 7.8 -11.2 --- --- 726.6 0.017 0.000 8.9 9 1
02/21/06 9:00 p -6.4 -6.4 -6.4 --- --- 7.0 NE 0.12 7.8 -11.8 --- --- 726.6 0.017 0.000 8.9 9 1
02/21/06 9:01 p -6.4 -6.4 -6.5 --- --- 7.0 NE 0.12 7.8 -11.8 --- --- 726.7 0.017 0.000 8.9 9 1
02/21/06 9:02 p -6.5 -6.5 -6.6 --- --- 6.1 NE 0.10 7.0 -11.4 --- --- 726.6 0.017 0.000 8.9 9 1
02/21/06 9:03 p -6.6 -6.6 -6.6 --- --- 5.2 NE 0.09 6.1 -11.0 --- --- 726.6 0.017 0.000 8.9 9 1
02/21/06 9:04 p -6.6 -6.6 -6.6 --- --- 4.3 NE 0.07 6.1 -10.5 --- --- 726.6 0.017 0.000 8.9 9 1
02/21/06 9:05 p -6.6 -6.6 -6.6 --- --- 5.2 ENE 0.09 6.1 -11.1 --- --- 726.6 0.017 0.000 8.9 9 1
02/21/06 9:06 p -6.6 -6.6 -6.7 --- --- 4.3 ENE 0.07 5.2 -10.5 --- --- 726.7 0.017 0.000 9.0 9 1
02/21/06 9:07 p -6.6 -6.6 -6.6 --- --- 3.5 NE 0.06 4.3 -9.8 --- --- 726.6 0.017 0.000 9.0 9 1
02/21/06 9:08 p -6.4 -6.3 -6.5 --- --- 3.5 NE 0.06 5.2 -9.6 --- --- 726.7 0.017 0.000 9.0 9 1
02/21/06 9:09 p -6.2 -6.2 -6.3 --- --- 4.3 NNE 0.07 6.1 -10.1 --- --- 726.6 0.017 0.000 8.9 9 1
02/21/06 9:10 p -6.0 -5.9 -6.1 --- --- 4.3 NE 0.07 5.2 -9.8 --- --- 726.6 0.017 0.000 8.9 9 1
02/21/06 9:11 p -5.9 -5.9 -5.9 --- --- 4.3 NNE 0.07 5.2 -9.7 --- --- 726.8 0.017 0.000 9.0 9 1
02/21/06 9:12 p -5.8 -5.7 -5.8 --- --- 3.5 NNE 0.06 6.1 -8.8 --- --- 726.6 0.017 0.000 9.0 9 1
02/21/06 9:13 p -5.8 -5.8 -5.8 --- --- 4.3 N 0.07 5.2 -9.5 --- --- 726.6 0.017 0.000 9.0 9 1
02/21/06 9:14 p -5.8 -5.7 -5.8 --- --- 3.5 N 0.06 5.2 -8.8 --- --- 726.7 0.017 0.000 9.0 9 1
02/21/06 9:15 p -5.7 -5.7 -5.8 --- --- 4.3 N 0.07 6.1 -9.4 --- --- 726.7 0.017 0.000 9.0 9 1
02/21/06 9:16 p -5.7 -5.7 -5.8 --- --- 5.2 NNE 0.09 6.1 -10.0 --- --- 726.6 0.017 0.000 9.0 9 1
02/21/06 9:17 p -5.8 -5.8 -5.8 --- --- 6.1 NE 0.10 7.0 -10.7 --- --- 726.7 0.017 0.000 9.0 9 1
02/21/06 9:18 p -5.8 -5.8 -5.8 --- --- 5.2 NNE 0.09 6.1 -10.2 --- --- 726.6 0.017 0.000 9.0 9 1
02/21/06 9:19 p -5.8 -5.8 -5.8 --- --- 6.1 NE 0.10 6.1 -10.7 --- --- 726.6 0.017 0.000 9.0 9 1
02/21/06 9:20 p -5.8 -5.8 -5.8 --- --- 3.5 NE 0.06 5.2 -8.9 --- --- 726.7 0.017 0.000 9.0 9 1
02/21/06 9:21 p -5.8 -5.8 -5.8 --- --- 2.6 N 0.04 3.5 -8.1 --- --- 726.7 0.017 0.000 9.0 9 1
02/21/06 9:22 p -5.8 -5.8 -5.8 --- --- 4.3 N 0.07 7.0 -9.6 --- --- 726.7 0.017 0.000 9.0 9 1
02/21/06 9:23 p -5.8 -5.7 -5.8 --- --- 5.2 NNE 0.09 7.0 -10.1 --- --- 726.7 0.017 0.000 9.0 9 1
02/21/06 9:24 p -5.9 -5.8 -5.9 --- --- 5.2 NNE 0.09 7.0 -10.2 --- --- 726.6 0.017 0.000 8.9 9 1
02/21/06 9:25 p -5.9 -5.9 -5.9 --- --- 7.0 NE 0.12 9.6 -11.2 --- --- 726.6 0.017 0.000 8.9 9 1
02/21/06 9:26 p -6.0 -6.0 -6.1 --- --- 7.0 NE 0.12 8.7 -11.3 --- --- 726.7 0.017 0.000 8.9 9 1
02/21/06 9:27 p -6.1 -6.1 -6.1 --- --- 7.0 NE 0.12 7.8 -11.3 --- --- 726.7 0.017 0.000 9.0 9 1
02/21/06 9:28 p -6.2 -6.1 -6.2 --- --- 6.1 NNE 0.10 8.7 -11.1 --- --- 726.7 0.017 0.000 8.9 9 1
02/21/06 9:29 p -6.1 -6.1 -6.1 --- --- 5.2 NE 0.09 7.0 -10.5 --- --- 726.7 0.017 0.000 9.0 9 1
02/21/06 9:30 p -6.1 -6.1 -6.1 --- --- 6.1 NE 0.10 8.7 -10.9 --- --- 726.7 0.017 0.000 9.0 9 1
02/21/06 9:31 p -6.1 -6.1 -6.1 --- --- 6.1 NE 0.10 7.8 -10.9 --- --- 726.8 0.017 0.000 9.0 9 1
02/21/06 9:32 p -6.1 -6.1 -6.1 --- --- 6.1 NE 0.10 7.0 -10.9 --- --- 726.6 0.017 0.000 9.0 9 1
02/21/06 9:33 p -6.1 -6.1 -6.1 --- --- 3.5 N 0.06 6.1 -9.2 --- --- 726.6 0.017 0.000 9.0 9 1
02/21/06 9:34 p -6.1 -6.1 -6.1 --- --- 4.3 N 0.07 6.1 -9.8 --- --- 726.7 0.017 0.000 9.0 9 1
02/21/06 9:35 p -6.1 -6.1 -6.1 --- --- 2.6 N 0.04 3.5 -8.4 --- --- 726.7 0.017 0.000 9.0 9 1
02/21/06 9:36 p -6.1 -6.0 -6.1 --- --- 2.6 N 0.04 3.5 -8.3 --- --- 726.6 0.017 0.000 9.0 9 1
02/21/06 9:37 p -5.9 -5.8 -6.0 --- --- 2.6 NNE 0.04 4.3 -8.2 --- --- 726.7 0.017 0.000 9.0 9 1
02/21/06 9:38 p -5.9 -5.8 -5.9 --- --- 4.3 N 0.07 5.2 -9.7 --- --- 726.7 0.017 0.000 9.0 9 1
02/21/06 9:39 p -5.9 -5.9 -5.9 --- --- 3.5 N 0.06 4.3 -9.0 --- --- 726.7 0.017 0.000 9.0 9 1
02/21/06 9:40 p -5.9 -5.9 -5.9 --- --- 6.1 NNW 0.10 8.7 -10.7 --- --- 726.6 0.017 0.000 9.0 9 1
02/21/06 9:41 p -5.9 -5.9 -6.0 --- --- 7.0 NNW 0.12 8.7 -11.2 --- --- 726.6 0.017 0.000 9.0 9 1
02/21/06 9:42 p -5.9 -5.9 -5.9 --- --- 4.3 NNW 0.07 6.1 -9.7 --- --- 726.6 0.017 0.000 9.0 9 1
02/21/06 9:43 p -5.9 -5.9 -6.0 --- --- 5.2 NNW 0.09 6.1 -10.3 --- --- 726.7 0.017 0.000 9.0 9 1
02/21/06 9:44 p -6.0 -6.0 -6.1 --- --- 5.2 N 0.09 7.0 -10.3 --- --- 726.7 0.017 0.000 9.0 9 1
02/21/06 9:45 p -6.1 -6.1 -6.1 --- --- 5.2 N 0.09 7.0 -10.4 --- --- 726.6 0.017 0.000 9.0 9 1
02/21/06 9:46 p -6.1 -6.1 -6.1 --- --- 4.3 N 0.07 6.1 -9.8 --- --- 726.7 0.017 0.000 9.0 9 1
02/21/06 9:47 p -6.1 -6.1 -6.1 --- --- 5.2 NNW 0.09 7.0 -10.4 --- --- 726.8 0.017 0.000 9.0 9 1
02/21/06 9:48 p -6.1 -6.1 -6.1 --- --- 4.3 N 0.07 5.2 -9.8 --- --- 726.7 0.017 0.000 9.0 9 1
02/21/06 9:49 p -6.1 -6.1 -6.1 --- --- 3.5 N 0.06 4.3 -9.2 --- --- 726.8 0.017 0.000 9.0 9 1
02/21/06 9:50 p -6.1 -6.0 -6.1 --- --- 2.6 N 0.04 3.5 -8.3 --- --- 726.7 0.017 0.000 9.0 9 1
02/21/06 9:51 p -5.9 -5.9 -6.0 --- --- 1.7 N 0.03 2.6 -7.1 --- --- 726.7 0.017 0.000 9.0 9 1
02/21/06 9:52 p -5.7 -5.7 -5.8 --- --- 1.7 N 0.03 3.5 -6.9 --- --- 726.8 0.017 0.000 9.0 9 1
02/21/06 9:53 p -5.6 -5.5 -5.6 --- --- 2.6 N 0.04 3.5 -7.8 --- --- 726.8 0.017 0.000 9.0 9 1
02/21/06 9:54 p -5.5 -5.5 -5.6 --- --- 3.5 NNE 0.06 5.2 -8.6 --- --- 726.6 0.017 0.000 9.0 9 1
02/21/06 9:55 p -5.7 -5.6 -5.8 --- --- 3.5 N 0.06 5.2 -8.7 --- --- 726.7 0.017 0.000 9.0 9 1
02/21/06 9:56 p -5.8 -5.7 -5.8 --- --- 3.5 N 0.06 6.1 -8.8 --- --- 726.7 0.017 0.000 9.0 9 1
02/21/06 9:57 p -5.7 -5.7 -5.7 --- --- 2.6 N 0.04 3.5 -7.9 --- --- 726.7 0.017 0.000 9.1 9 1
02/21/06 9:58 p -5.6 -5.6 -5.7 --- --- 1.7 N 0.03 3.5 -6.7 --- --- 726.7 0.017 0.000 9.1 9 1
02/21/06 9:59 p -5.7 -5.7 -5.7 --- --- 2.6 N 0.04 4.3 -7.9 --- --- 726.8 0.017 0.000 9.1 9 1
02/21/06 10:00 p -5.7 -5.7 -5.8 --- --- 3.5 N 0.06 5.2 -8.8 --- --- 726.7 0.017 0.000 9.1 9 1
02/21/06 10:01 p -5.9 -5.8 -5.9 --- --- 4.3 N 0.07 6.1 -9.7 --- --- 726.7 0.017 0.000 9.1 9 1
02/21/06 10:02 p -6.0 -5.9 -6.0 --- --- 3.5 N 0.06 4.3 -9.1 --- --- 726.8 0.017 0.000 9.1 9 1
02/21/06 10:03 p -5.9 -5.9 -6.0 --- --- 3.5 N 0.06 4.3 -9.1 --- --- 726.8 0.017 0.000 9.1 9 1
02/21/06 10:04 p -5.8 -5.8 -5.8 --- --- 3.5 N 0.06 5.2 -8.9 --- --- 726.7 0.017 0.000 9.1 9 1
02/21/06 10:05 p -5.8 -5.8 -5.8 --- --- 3.5 N 0.06 3.5 -8.9 --- --- 726.7 0.017 0.000 9.1 9 1
02/21/06 10:06 p -5.9 -5.8 -5.9 --- --- 3.5 N 0.06 5.2 -9.0 --- --- 726.7 0.017 0.000 9.1 9 1
02/21/06 10:07 p -5.9 -5.8 -5.9 --- --- 4.3 N 0.07 7.8 -9.7 --- --- 726.7 0.017 0.000 9.1 9 1
02/21/06 10:08 p -5.9 -5.9 -5.9 --- --- 4.3 N 0.07 7.0 -9.7 --- --- 726.8 0.017 0.000 9.1 9 1
02/21/06 10:09 p -6.0 -6.0 -6.0 --- --- 3.5 N 0.06 5.2 -9.1 --- --- 726.7 0.017 0.000 9.1 9 1
02/21/06 10:10 p -5.9 -5.9 -6.0 --- --- 4.3 N 0.07 5.2 -9.7 --- --- 726.8 0.017 0.000 9.1 9 1
02/21/06 10:11 p -5.9 -5.9 -5.9 --- --- 2.6 N 0.04 3.5 -8.2 --- --- 726.8 0.017 0.000 9.1 9 1
02/21/06 10:12 p -5.8 -5.7 -5.9 --- --- 2.6 N 0.04 4.3 -8.1 --- --- 726.8 0.017 0.000 9.1 9 1
02/21/06 10:13 p -5.7 -5.6 -5.7 --- --- 3.5 NNE 0.06 7.0 -8.7 --- --- 726.8 0.017 0.000 9.1 9 1
02/21/06 10:14 p -5.7 -5.6 -5.7 --- --- 7.8 NE 0.13 8.7 -11.3 --- --- 726.7 0.017 0.000 9.1 9 1
02/21/06 10:15 p -5.7 -5.7 -5.8 --- --- 8.7 NE 0.14 9.6 -11.7 --- --- 726.8 0.017 0.000 9.2 9 1
02/21/06 10:16 p -5.8 -5.8 -5.8 --- --- 7.8 NE 0.13 8.7 -11.4 --- --- 726.7 0.017 0.000 9.2 9 1
02/21/06 10:17 p -5.8 -5.8 -5.8 --- --- 7.8 NE 0.13 8.7 -11.4 --- --- 726.8 0.017 0.000 9.2 9 1
02/21/06 10:18 p -5.8 -5.8 -5.9 --- --- 7.8 NE 0.13 9.6 -11.4 --- --- 726.7 0.017 0.000 9.2 9 1
02/21/06 10:19 p -5.8 -5.8 -5.9 --- --- 7.8 NE 0.13 8.7 -11.4 --- --- 726.8 0.017 0.000 9.2 9 1
02/21/06 10:20 p -5.8 -5.8 -5.8 --- --- 6.1 NE 0.10 7.8 -10.7 --- --- 726.8 0.017 0.000 9.2 9 1
02/21/06 10:21 p -5.8 -5.8 -5.8 --- --- 7.0 NE 0.12 7.8 -11.0 --- --- 726.8 0.017 0.000 9.2 9 1
02/21/06 10:22 p -5.8 -5.7 -5.8 --- --- 6.1 NE 0.10 7.0 -10.6 --- --- 726.8 0.017 0.000 9.2 9 1
02/21/06 10:23 p -5.8 -5.8 -5.8 --- --- 2.6 NNE 0.04 5.2 -8.1 --- --- 726.8 0.017 0.000 9.2 9 1
02/21/06 10:24 p -5.8 -5.8 -5.9 --- --- 2.6 N 0.04 5.2 -8.1 --- --- 726.8 0.017 0.000 9.2 9 1
02/21/06 10:25 p -5.8 -5.7 -5.8 --- --- 2.6 N 0.04 3.5 -8.0 --- --- 726.7 0.017 0.000 9.2 9 1
02/21/06 10:26 p -5.9 -5.8 -6.0 --- --- 4.3 N 0.07 6.1 -9.7 --- --- 726.8 0.017 0.000 9.2 9 1
02/21/06 10:27 p -5.9 -5.8 -5.9 --- --- 3.5 NE 0.06 7.0 -9.0 --- --- 726.9 0.017 0.000 9.2 9 1
02/21/06 10:28 p -5.7 -5.6 -5.7 --- --- 5.2 NE 0.09 7.8 -9.9 --- --- 726.8 0.017 0.000 9.2 9 1
02/21/06 10:29 p -5.6 -5.6 -5.6 --- --- 7.0 NE 0.12 9.6 -10.8 --- --- 726.9 0.017 0.000 9.2 9 1
02/21/06 10:30 p -5.6 -5.6 -5.7 --- --- 7.8 NE 0.13 8.7 -11.2 --- --- 726.8 0.017 0.000 9.2 9 1
02/21/06 10:31 p -5.6 -5.6 -5.7 --- --- 6.1 NE 0.10 7.8 -10.4 --- --- 726.8 0.017 0.000 9.2 9 1
02/21/06 10:32 p -5.7 -5.7 -5.8 --- --- 8.7 NE 0.14 10.4 -11.6 --- --- 726.8 0.017 0.000 9.2 9 1
02/21/06 10:33 p -5.8 -5.8 -5.9 --- --- 10.4 NE 0.17 11.3 -12.4 --- --- 726.8 0.017 0.000 9.2 9 1
02/21/06 10:34 p -5.9 -5.9 -5.9 --- --- 9.6 NE 0.16 12.2 -12.2 --- --- 726.8 0.017 0.000 9.2 9 1
02/21/06 10:35 p -5.9 -5.9 -5.9 --- --- 7.8 NE 0.13 10.4 -11.6 --- --- 726.8 0.017 0.000 9.2 9 1
02/21/06 10:36 p -6.0 -5.9 -6.0 --- --- 7.8 NE 0.13 9.6 -11.7 --- --- 726.8 0.017 0.000 9.2 9 1
02/21/06 10:37 p -5.9 -5.9 -6.0 --- --- 8.7 NE 0.14 9.6 -11.9 --- --- 726.8 0.017 0.000 9.2 9 1
02/21/06 10:38 p -6.0 -5.9 -6.0 --- --- 7.8 NE 0.13 8.7 -11.7 --- --- 726.9 0.017 0.000 9.2 9 1
02/21/06 10:39 p -6.0 -6.0 -6.0 --- --- 8.7 NE 0.14 10.4 -12.1 --- --- 726.8 0.017 0.000 9.2 9 1
02/21/06 10:40 p -6.0 -6.0 -6.1 --- --- 9.6 NE 0.16 13.0 -12.4 --- --- 726.8 0.017 0.000 9.2 9 1
02/21/06 10:41 p -6.1 -6.1 -6.1 --- --- 8.7 NE 0.14 10.4 -12.1 --- --- 726.8 0.017 0.000 9.2 9 1
02/21/06 10:42 p -6.1 -6.0 -6.1 --- --- 9.6 NE 0.16 10.4 -12.4 --- --- 726.8 0.017 0.000 9.2 9 1
02/21/06 10:43 p -6.1 -6.1 -6.1 --- --- 8.7 NE 0.14 10.4 -12.1 --- --- 726.8 0.017 0.000 9.2 9 1
02/21/06 10:44 p -6.0 -5.9 -6.1 --- --- 7.0 NE 0.12 7.8 -11.3 --- --- 726.8 0.017 0.000 9.2 9 1
02/21/06 10:45 p -5.9 -5.9 -5.9 --- --- 8.7 NE 0.14 9.6 -11.9 --- --- 726.8 0.017 0.000 9.2 9 1
02/21/06 10:46 p -5.9 -5.9 -5.9 --- --- 7.8 NE 0.13 9.6 -11.6 --- --- 726.9 0.017 0.000 9.2 9 1
02/21/06 10:47 p -5.8 -5.6 -5.9 --- --- 7.8 NE 0.13 9.6 -11.4 --- --- 726.9 0.017 0.000 9.2 8 1
02/21/06 10:48 p -5.5 -5.4 -5.6 --- --- 7.8 NE 0.13 9.6 -11.1 --- --- 726.9 0.017 0.000 9.2 9 1
02/21/06 10:49 p -5.6 -5.5 -5.6 --- --- 7.8 NE 0.13 8.7 -11.1 --- --- 726.8 0.017 0.000 9.2 8 1
02/21/06 10:50 p -5.7 -5.7 -5.7 --- --- 7.8 NE 0.13 9.6 -11.3 --- --- 726.8 0.017 0.000 9.2 8 1
02/21/06 10:51 p -5.7 -5.7 -5.7 --- --- 7.0 NE 0.12 7.8 -10.9 --- --- 726.8 0.017 0.000 9.2 9 1
02/21/06 10:52 p -5.6 -5.5 -5.6 --- --- 5.2 NE 0.09 7.0 -9.8 --- --- 726.9 0.017 0.000 9.2 9 1
02/21/06 10:53 p -5.5 -5.5 -5.5 --- --- 8.7 NE 0.14 10.4 -11.4 --- --- 726.9 0.017 0.000 9.2 8 1
02/21/06 10:54 p -5.6 -5.6 -5.7 --- --- 9.6 NE 0.16 10.4 -11.9 --- --- 726.9 0.017 0.000 9.2 9 1
02/21/06 10:55 p -5.6 -5.5 -5.7 --- --- 7.8 NE 0.13 9.6 -11.2 --- --- 726.9 0.017 0.000 9.2 8 1
02/21/06 10:56 p -5.6 -5.5 -5.6 --- --- 8.7 NE 0.14 9.6 -11.5 --- --- 726.8 0.017 0.000 9.2 9 1
02/21/06 10:57 p -5.6 -5.6 -5.6 --- --- 7.8 NE 0.13 8.7 -11.2 --- --- 726.9 0.017 0.000 9.2 8 1
02/21/06 10:58 p -5.6 -5.6 -5.6 --- --- 8.7 NE 0.14 9.6 -11.5 --- --- 726.9 0.017 0.000 9.2 8 1
02/21/06 10:59 p -5.4 -5.4 -5.4 --- --- 7.8 NE 0.13 9.6 -10.9 --- --- 726.9 0.016 0.000 9.2 9 1
02/21/06 11:00 p -5.4 -5.4 -5.4 --- --- 9.6 NE 0.16 10.4 -11.6 --- --- 726.9 0.016 0.000 9.2 8 1
02/21/06 11:01 p -5.4 -5.4 -5.4 --- --- 9.6 NE 0.16 10.4 -11.6 --- --- 726.8 0.016 0.000 9.2 8 1
02/21/06 11:02 p -5.3 -5.3 -5.4 --- --- 7.8 NE 0.13 8.7 -10.8 --- --- 726.8 0.016 0.000 9.2 8 1
02/21/06 11:03 p -5.3 -5.2 -5.3 --- --- 8.7 NE 0.14 10.4 -11.1 --- --- 726.9 0.016 0.000 9.2 9 1
02/21/06 11:04 p -5.3 -5.3 -5.3 --- --- 7.8 NE 0.13 10.4 -10.8 --- --- 726.9 0.016 0.000 9.2 8 1
02/21/06 11:05 p -5.3 -5.3 -5.3 --- --- 8.7 NE 0.14 9.6 -11.2 --- --- 727.0 0.016 0.000 9.2 8 1
02/21/06 11:06 p -5.2 -5.2 -5.3 --- --- 7.8 NE 0.13 8.7 -10.7 --- --- 727.0 0.016 0.000 9.2 8 1
02/21/06 11:07 p -5.1 -5.1 -5.1 --- --- 6.1 NE 0.10 7.8 -9.8 --- --- 727.0 0.016 0.000 9.2 8 1
02/21/06 11:08 p -4.9 -4.8 -5.0 --- --- 6.1 NE 0.10 7.8 -9.5 --- --- 727.0 0.016 0.000 9.2 8 1
02/21/06 11:09 p -4.8 -4.8 -4.8 --- --- 8.7 NE 0.14 9.6 -10.5 --- --- 726.9 0.016 0.000 9.2 8 1
02/21/06 11:10 p -4.9 -4.9 -5.1 --- --- 9.6 NE 0.16 12.2 -11.1 --- --- 726.9 0.016 0.000 9.2 8 1
02/21/06 11:11 p -5.1 -5.1 -5.1 --- --- 9.6 NE 0.16 11.3 -11.2 --- --- 726.9 0.016 0.000 9.2 8 1
02/21/06 11:12 p -5.1 -5.1 -5.2 --- --- 9.6 NE 0.16 11.3 -11.2 --- --- 727.0 0.016 0.000 9.2 8 1
02/21/06 11:13 p -5.1 -5.1 -5.1 --- --- 8.7 NE 0.14 10.4 -10.9 --- --- 726.9 0.016 0.000 9.2 8 1
02/21/06 11:14 p -5.1 -5.0 -5.1 --- --- 7.0 NE 0.12 10.4 -10.1 --- --- 727.0 0.016 0.000 9.2 8 1
02/21/06 11:15 p -5.1 -5.0 -5.1 --- --- 3.5 N 0.06 5.2 -8.0 --- --- 726.9 0.016 0.000 9.2 8 1
02/21/06 11:16 p -5.0 -4.8 -5.1 --- --- 6.1 NE 0.10 9.6 -9.6 --- --- 727.0 0.016 0.000 9.2 8 1
02/21/06 11:17 p -4.9 -4.8 -5.0 --- --- 6.1 N 0.10 9.6 -9.5 --- --- 727.0 0.016 0.000 9.2 9 1
02/21/06 11:18 p -5.0 -4.8 -5.1 --- --- 5.2 NNE 0.09 7.0 -9.2 --- --- 727.0 0.016 0.000 9.2 8 1
02/21/06 11:19 p -4.7 -4.6 -4.8 --- --- 5.2 NE 0.09 11.3 -8.8 --- --- 726.9 0.016 0.000 9.2 8 1
02/21/06 11:20 p -4.8 -4.6 -5.1 --- --- 4.3 N 0.07 7.8 -8.4 --- --- 727.0 0.016 0.000 9.2 8 1
02/21/06 11:21 p -5.0 -4.8 -5.1 --- --- 4.3 NE 0.07 7.8 -8.6 --- --- 727.1 0.016 0.000 9.2 8 1
02/21/06 11:22 p -4.7 -4.6 -4.8 --- --- 7.8 NE 0.13 10.4 -10.1 --- --- 727.1 0.016 0.000 9.2 8 1
02/21/06 11:23 p -4.6 -4.6 -4.7 --- --- 9.6 NE 0.16 10.4 -10.6 --- --- 726.9 0.016 0.000 9.2 8 1
02/21/06 11:24 p -4.7 -4.7 -4.8 --- --- 10.4 NE 0.17 11.3 -11.1 --- --- 727.0 0.016 0.000 9.2 8 1
02/21/06 11:25 p -4.8 -4.7 -4.8 --- --- 8.7 NE 0.14 10.4 -10.5 --- --- 727.1 0.016 0.000 9.2 8 1
02/21/06 11:26 p -4.8 -4.8 -4.9 --- --- 8.7 NE 0.14 10.4 -10.6 --- --- 727.0 0.016 0.000 9.2 8 1
02/21/06 11:27 p -4.7 -4.7 -4.8 --- --- 6.1 NE 0.10 8.7 -9.3 --- --- 727.0 0.016 0.000 9.2 8 1
02/21/06 11:28 p -4.4 -4.2 -4.6 --- --- 8.7 NE 0.14 10.4 -10.1 --- --- 727.0 0.016 0.000 9.2 8 1
02/21/06 11:29 p -4.1 -3.8 -4.1 --- --- 10.4 NE 0.17 12.2 -10.2 --- --- 727.0 0.016 0.000 9.2 8 1
02/21/06 11:30 p -3.7 -3.6 -3.8 --- --- 7.8 NE 0.13 9.6 -8.9 --- --- 727.0 0.015 0.000 9.2 8 1
02/21/06 11:31 p -3.4 -3.2 -3.5 --- --- 8.7 NE 0.14 11.3 -8.8 --- --- 727.0 0.015 0.000 9.2 8 1
02/21/06 11:32 p -3.6 -3.4 -3.8 --- --- 10.4 NE 0.17 12.2 -9.6 --- --- 727.0 0.015 0.000 9.2 8 1
02/21/06 11:33 p -4.0 -3.9 -4.2 --- --- 11.3 NE 0.19 13.0 -10.4 --- --- 727.0 0.016 0.000 9.2 8 1
02/21/06 11:34 p -4.4 -4.3 -4.5 --- --- 10.4 NE 0.17 12.2 -10.7 --- --- 727.1 0.016 0.000 9.2 8 1
02/21/06 11:35 p -4.7 -4.6 -4.8 --- --- 10.4 NE 0.17 11.3 -11.0 --- --- 727.1 0.016 0.000 9.2 9 1
02/21/06 11:36 p -4.9 -4.8 -5.0 --- --- 10.4 NE 0.17 11.3 -11.3 --- --- 727.2 0.016 0.000 9.2 8 1
02/21/06 11:37 p -5.1 -5.1 -5.2 --- --- 10.4 NE 0.17 12.2 -11.6 --- --- 727.1 0.016 0.000 9.2 8 1
02/21/06 11:38 p -5.3 -5.2 -5.4 --- --- 9.6 NE 0.16 12.2 -11.4 --- --- 727.1 0.016 0.000 9.2 8 1
02/21/06 11:39 p -5.4 -5.4 -5.4 --- --- 9.6 NE 0.16 11.3 -11.6 --- --- 727.2 0.016 0.000 9.2 8 1
02/21/06 11:40 p -5.4 -5.4 -5.4 --- --- 9.6 NE 0.16 11.3 -11.6 --- --- 727.2 0.016 0.000 9.2 8 1
02/21/06 11:41 p -5.5 -5.4 -5.5 --- --- 9.6 NE 0.16 10.4 -11.7 --- --- 727.1 0.017 0.000 9.2 8 1
02/21/06 11:42 p -5.5 -5.5 -5.5 --- --- 9.6 NE 0.16 11.3 -11.7 --- --- 727.0 0.017 0.000 9.2 8 1
02/21/06 11:43 p -5.6 -5.5 -5.6 --- --- 10.4 NE 0.17 11.3 -12.1 --- --- 727.0 0.017 0.000 9.2 8 1
02/21/06 11:44 p -5.7 -5.6 -5.7 --- --- 11.3 NE 0.19 12.2 -12.6 --- --- 727.1 0.017 0.000 9.2 8 1
02/21/06 11:45 p -5.8 -5.7 -5.8 --- --- 10.4 NE 0.17 11.3 -12.4 --- --- 727.1 0.017 0.000 9.2 8 1
02/21/06 11:46 p -5.7 -5.7 -5.8 --- --- 9.6 NE 0.16 11.3 -12.0 --- --- 727.1 0.017 0.000 9.2 8 1
02/21/06 11:47 p -5.7 -5.7 -5.8 --- --- 7.8 NE 0.13 10.4 -11.3 --- --- 727.1 0.017 0.000 9.2 8 1
02/21/06 11:48 p -5.6 -5.6 -5.7 --- --- 10.4 NE 0.17 11.3 -12.2 --- --- 727.2 0.017 0.000 9.2 8 1
02/21/06 11:49 p -5.6 -5.6 -5.6 --- --- 10.4 NE 0.17 12.2 -12.2 --- --- 727.1 0.017 0.000 9.2 8 1
02/21/06 11:50 p -5.6 -5.6 -5.6 --- --- 9.6 NE 0.16 12.2 -11.9 --- --- 727.2 0.017 0.000 9.2 8 1
02/21/06 11:51 p -5.6 -5.5 -5.6 --- --- 7.8 NE 0.13 8.7 -11.1 --- --- 727.1 0.017 0.000 9.2 8 1
02/21/06 11:52 p -5.5 -5.4 -5.6 --- --- 10.4 NE 0.17 12.2 -12.1 --- --- 727.1 0.017 0.000 9.2 8 1
02/21/06 11:53 p -5.6 -5.6 -5.6 --- --- 8.7 NE 0.14 10.4 -11.5 --- --- 727.3 0.017 0.000 9.2 8 1
02/21/06 11:54 p -5.5 -5.4 -5.6 --- --- 8.7 NE 0.14 11.3 -11.4 --- --- 727.2 0.017 0.000 9.2 8 1
02/21/06 11:55 p -5.6 -5.5 -5.6 --- --- 12.2 NE 0.20 13.0 -12.7 --- --- 727.2 0.017 0.000 9.2 8 1
02/21/06 11:56 p -5.7 -5.7 -5.8 --- --- 11.3 NE 0.19 12.2 -12.6 --- --- 727.2 0.017 0.000 9.2 8 1
02/21/06 11:57 p -5.8 -5.8 -5.8 --- --- 11.3 NE 0.19 12.2 -12.7 --- --- 727.2 0.017 0.000 9.2 8 1
02/21/06 11:58 p -5.8 -5.8 -5.8 --- --- 8.7 NE 0.14 10.4 -11.8 --- --- 727.2 0.017 0.000 9.2 8 1
02/21/06 11:59 p -5.8 -5.7 -5.8 --- --- 7.8 NE 0.13 11.3 -11.4 --- --- 727.2 0.017 0.000 9.2 8 1
02/22/06 12:00 a -5.8 -5.7 -5.8 --- --- 11.3 NE 0.19 13.9 -12.7 --- --- 727.2 0.017 0.000 9.2 8 1
02/22/06 12:01 a -5.8 -5.8 -5.9 --- --- 11.3 NE 0.19 12.2 -12.7 --- --- 727.1 0.017 0.000 9.2 8 1
02/22/06 12:02 a -5.9 -5.9 -5.9 --- --- 10.4 NE 0.17 12.2 -12.5 --- --- 727.2 0.017 0.000 9.2 8 1
02/22/06 12:03 a -5.9 -5.8 -5.9 --- --- 11.3 NE 0.19 13.0 -12.8 --- --- 727.2 0.017 0.000 9.2 8 1
02/22/06 12:04 a -5.9 -5.9 -5.9 --- --- 11.3 NE 0.19 13.9 -12.9 --- --- 727.2 0.017 0.000 9.2 8 1
02/22/06 12:05 a -5.9 -5.8 -5.9 --- --- 8.7 NE 0.14 11.3 -11.9 --- --- 727.2 0.017 0.000 9.2 8 1
02/22/06 12:06 a -5.8 -5.7 -5.8 --- --- 8.7 NE 0.14 12.2 -11.8 --- --- 727.1 0.017 0.000 9.2 8 1
02/22/06 12:07 a -5.8 -5.7 -5.8 --- --- 10.4 NE 0.17 12.2 -12.4 --- --- 727.1 0.017 0.000 9.2 8 1
02/22/06 12:08 a -5.8 -5.8 -5.8 --- --- 10.4 NE 0.17 12.2 -12.4 --- --- 727.1 0.017 0.000 9.2 8 1
02/22/06 12:09 a -5.8 -5.7 -5.8 --- --- 9.6 NE 0.16 10.4 -12.1 --- --- 727.1 0.017 0.000 9.2 8 1
02/22/06 12:10 a -5.8 -5.7 -5.9 --- --- 11.3 NE 0.19 12.2 -12.7 --- --- 727.3 0.017 0.000 9.2 8 1
02/22/06 12:11 a -5.9 -5.8 -5.9 --- --- 9.6 NE 0.16 11.3 -12.2 --- --- 727.2 0.017 0.000 9.2 8 1
02/22/06 12:12 a -5.9 -5.9 -5.9 --- --- 8.7 NE 0.14 10.4 -11.9 --- --- 727.2 0.017 0.000 9.2 8 1
02/22/06 12:13 a -5.9 -5.8 -5.9 --- --- 8.7 NE 0.14 11.3 -11.9 --- --- 727.2 0.017 0.000 9.2 8 1
02/22/06 12:14 a -5.9 -5.9 -5.9 --- --- 9.6 NE 0.16 11.3 -12.2 --- --- 727.3 0.017 0.000 9.2 8 1
02/22/06 12:15 a -5.9 -5.9 -5.9 --- --- 11.3 NE 0.19 12.2 -12.9 --- --- 727.2 0.017 0.000 9.2 8 1
02/22/06 12:16 a -6.0 -5.9 -6.1 --- --- 12.2 NE 0.20 14.8 -13.2 --- --- 727.2 0.017 0.000 9.2 8 1
02/22/06 12:17 a -6.1 -6.1 -6.1 --- --- 10.4 NE 0.17 12.2 -12.7 --- --- 727.2 0.017 0.000 9.2 8 1
02/22/06 12:18 a -6.1 -6.0 -6.1 --- --- 10.4 NE 0.17 13.0 -12.7 --- --- 727.2 0.017 0.000 9.2 8 1
02/22/06 12:19 a -6.1 -6.1 -6.1 --- --- 11.3 NE 0.19 12.2 -13.0 --- --- 727.2 0.017 0.000 9.2 8 1
02/22/06 12:20 a -6.1 -5.9 -6.1 --- --- 9.6 ENE 0.16 12.2 -12.4 --- --- 727.2 0.017 0.000 9.2 8 1
02/22/06 12:21 a -5.9 -5.8 -5.9 --- --- 7.8 NE 0.13 10.4 -11.6 --- --- 727.2 0.017 0.000 9.2 8 1
02/22/06 12:22 a -5.8 -5.8 -5.9 --- --- 8.7 NE 0.14 10.4 -11.8 --- --- 727.2 0.017 0.000 9.2 8 1
02/22/06 12:23 a -5.8 -5.8 -5.8 --- --- 9.6 NE 0.16 12.2 -12.2 --- --- 727.1 0.017 0.000 9.2 8 1
02/22/06 12:24 a -5.8 -5.8 -5.8 --- --- 9.6 NE 0.16 13.0 -12.2 --- --- 727.1 0.017 0.000 9.2 8 1
02/22/06 12:25 a -5.8 -5.8 -5.8 --- --- 8.7 NE 0.14 10.4 -11.8 --- --- 727.2 0.017 0.000 9.2 8 1
02/22/06 12:26 a -5.8 -5.8 -5.8 --- --- 9.6 NE 0.16 10.4 -12.1 --- --- 727.1 0.017 0.000 9.2 8 1
02/22/06 12:27 a -5.8 -5.7 -5.8 --- --- 10.4 NE 0.17 11.3 -12.4 --- --- 727.0 0.017 0.000 9.2 8 1
02/22/06 12:28 a -5.7 -5.7 -5.7 --- --- 8.7 NE 0.14 10.4 -11.7 --- --- 727.2 0.017 0.000 9.2 8 1
02/22/06 12:29 a -5.8 -5.8 -5.8 --- --- 9.6 NE 0.16 11.3 -12.1 --- --- 727.1 0.017 0.000 9.2 8 1
02/22/06 12:30 a -5.8 -5.8 -5.8 --- --- 9.6 NE 0.16 11.3 -12.1 --- --- 727.2 0.017 0.000 9.2 8 1
02/22/06 12:31 a -5.7 -5.7 -5.8 --- --- 9.6 NE 0.16 11.3 -12.0 --- --- 727.2 0.017 0.000 9.2 8 1
02/22/06 12:32 a -5.7 -5.7 -5.7 --- --- 9.6 NE 0.16 10.4 -11.9 --- --- 727.2 0.017 0.000 9.2 8 1
02/22/06 12:33 a -5.7 -5.7 -5.7 --- --- 9.6 NE 0.16 10.4 -11.9 --- --- 727.2 0.017 0.000 9.2 8 1
02/22/06 12:34 a -5.6 -5.6 -5.7 --- --- 10.4 NE 0.17 11.3 -12.2 --- --- 727.2 0.017 0.000 9.2 8 1
02/22/06 12:35 a -5.7 -5.7 -5.7 --- --- 10.4 NE 0.17 11.3 -12.2 --- --- 727.1 0.017 0.000 9.2 8 1
02/22/06 12:36 a -5.6 -5.6 -5.6 --- --- 10.4 NE 0.17 12.2 -12.2 --- --- 727.2 0.017 0.000 9.2 8 1
02/22/06 12:37 a -5.6 -5.6 -5.6 --- --- 9.6 NE 0.16 11.3 -11.9 --- --- 727.2 0.017 0.000 9.2 8 1
02/22/06 12:38 a -5.5 -5.5 -5.6 --- --- 9.6 ENE 0.16 11.3 -11.7 --- --- 727.2 0.017 0.000 9.2 8 1
02/22/06 12:39 a -5.6 -5.5 -5.6 --- --- 9.6 ENE 0.16 11.3 -11.8 --- --- 727.3 0.017 0.000 9.2 8 1
02/22/06 12:40 a -5.5 -5.5 -5.6 --- --- 11.3 ENE 0.19 12.2 -12.3 --- --- 727.2 0.017 0.000 9.2 8 1
02/22/06 12:41 a -5.5 -5.5 -5.6 --- --- 9.6 ENE 0.16 10.4 -11.7 --- --- 727.2 0.017 0.000 9.2 8 1
02/22/06 12:42 a -5.5 -5.5 -5.5 --- --- 7.8 ENE 0.13 10.4 -11.1 --- --- 727.2 0.017 0.000 9.2 8 1
02/22/06 12:43 a -5.4 -5.4 -5.5 --- --- 9.6 NE 0.16 10.4 -11.7 --- --- 727.3 0.017 0.000 9.2 8 1
02/22/06 12:44 a -5.5 -5.4 -5.6 --- --- 10.4 NE 0.17 12.2 -12.1 --- --- 727.2 0.017 0.000 9.2 8 1
02/22/06 12:45 a -5.6 -5.6 -5.7 --- --- 9.6 NE 0.16 10.4 -11.9 --- --- 727.1 0.017 0.000 9.2 8 1
02/22/06 12:46 a -5.7 -5.6 -5.7 --- --- 10.4 NE 0.17 11.3 -12.2 --- --- 727.2 0.017 0.000 9.2 8 1
02/22/06 12:47 a -5.7 -5.7 -5.7 --- --- 10.4 NE 0.17 11.3 -12.2 --- --- 727.2 0.017 0.000 9.2 8 1
02/22/06 12:48 a -5.7 -5.6 -5.7 --- --- 9.6 NE 0.16 11.3 -11.9 --- --- 727.2 0.017 0.000 9.2 8 1
02/22/06 12:49 a -5.6 -5.6 -5.7 --- --- 8.7 ENE 0.14 9.6 -11.6 --- --- 727.2 0.017 0.000 9.2 8 1
02/22/06 12:50 a -5.6 -5.6 -5.6 --- --- 7.8 NE 0.13 9.6 -11.2 --- --- 727.2 0.017 0.000 9.2 8 1
02/22/06 12:51 a -5.5 -5.4 -5.6 --- --- 9.6 NE 0.16 12.2 -11.7 --- --- 727.2 0.017 0.000 9.2 8 1
02/22/06 12:52 a -5.4 -5.4 -5.5 --- --- 10.4 NE 0.17 12.2 -11.9 --- --- 727.3 0.017 0.000 9.2 8 1
02/22/06 12:53 a -5.6 -5.6 -5.6 --- --- 10.4 NE 0.17 11.3 -12.1 --- --- 727.2 0.017 0.000 9.2 8 1
02/22/06 12:54 a -5.6 -5.6 -5.6 --- --- 9.6 NE 0.16 12.2 -11.8 --- --- 727.2 0.017 0.000 9.2 8 1
02/22/06 12:55 a -5.4 -5.3 -5.5 --- --- 9.6 ENE 0.16 12.2 -11.7 --- --- 727.3 0.017 0.000 9.2 8 1
02/22/06 12:56 a -5.4 -5.3 -5.4 --- --- 11.3 NE 0.19 13.9 -12.2 --- --- 727.2 0.016 0.000 9.2 8 1
02/22/06 12:57 a -5.4 -5.4 -5.4 --- --- 10.4 NE 0.17 12.2 -11.9 --- --- 727.2 0.016 0.000 9.2 8 1
02/22/06 12:58 a -5.4 -5.3 -5.4 --- --- 10.4 ENE 0.17 12.2 -11.9 --- --- 727.2 0.016 0.000 9.2 8 1
02/22/06 12:59 a -5.3 -5.3 -5.3 --- --- 10.4 NE 0.17 12.2 -11.8 --- --- 727.2 0.016 0.000 9.2 8 1
02/22/06 1:00 a -5.3 -5.3 -5.4 --- --- 9.6 NE 0.16 12.2 -11.6 --- --- 727.3 0.016 0.000 9.2 8 1
02/22/06 1:01 a -5.4 -5.3 -5.4 --- --- 12.2 NE 0.20 13.0 -12.4 --- --- 727.2 0.016 0.000 9.2 8 1
02/22/06 1:02 a -5.4 -5.4 -5.4 --- --- 11.3 ENE 0.19 12.2 -12.2 --- --- 727.2 0.017 0.000 9.2 8 1
02/22/06 1:03 a -5.4 -5.4 -5.4 --- --- 11.3 ENE 0.19 13.0 -12.2 --- --- 727.3 0.016 0.000 9.2 8 1
02/22/06 1:04 a -5.4 -5.3 -5.4 --- --- 12.2 ENE 0.20 14.8 -12.4 --- --- 727.2 0.016 0.000 9.2 8 1
02/22/06 1:05 a -5.4 -5.4 -5.4 --- --- 12.2 NE 0.20 13.0 -12.4 --- --- 727.2 0.016 0.000 9.2 8 1
02/22/06 1:06 a -5.4 -5.4 -5.4 --- --- 11.3 NE 0.19 13.0 -12.2 --- --- 727.2 0.017 0.000 9.2 8 1
02/22/06 1:07 a -5.5 -5.4 -5.5 --- --- 12.2 NE 0.20 13.9 -12.6 --- --- 727.2 0.017 0.000 9.2 8 1
02/22/06 1:08 a -5.4 -5.4 -5.4 --- --- 13.0 ENE 0.22 14.8 -12.8 --- --- 727.3 0.017 0.000 9.2 8 1
02/22/06 1:09 a -5.4 -5.4 -5.5 --- --- 12.2 ENE 0.20 13.9 -12.5 --- --- 727.2 0.017 0.000 9.2 8 1
02/22/06 1:10 a -5.4 -5.4 -5.5 --- --- 12.2 ENE 0.20 13.9 -12.5 --- --- 727.2 0.017 0.000 9.2 8 1
02/22/06 1:11 a -5.4 -5.4 -5.4 --- --- 10.4 ENE 0.17 12.2 -11.9 --- --- 727.1 0.017 0.000 9.2 8 1
02/22/06 1:12 a -5.4 -5.4 -5.4 --- --- 11.3 ENE 0.19 13.0 -12.2 --- --- 727.2 0.017 0.000 9.3 8 1
02/22/06 1:13 a -5.4 -5.4 -5.4 --- --- 12.2 ENE 0.20 13.9 -12.5 --- --- 727.3 0.017 0.000 9.3 8 1
02/22/06 1:14 a -5.4 -5.4 -5.4 --- --- 11.3 ENE 0.19 13.0 -12.2 --- --- 727.3 0.017 0.000 9.3 8 1
02/22/06 1:15 a -5.4 -5.4 -5.4 --- --- 11.3 ENE 0.19 12.2 -12.2 --- --- 727.2 0.017 0.000 9.3 8 1
02/22/06 1:16 a -5.4 -5.4 -5.4 --- --- 10.4 ENE 0.17 11.3 -11.9 --- --- 727.3 0.017 0.000 9.2 8 1
02/22/06 1:17 a -5.4 -5.3 -5.4 --- --- 10.4 ENE 0.17 11.3 -11.9 --- --- 727.2 0.016 0.000 9.3 8 1
02/22/06 1:18 a -5.4 -5.4 -5.4 --- --- 11.3 ENE 0.19 12.2 -12.2 --- --- 727.2 0.016 0.000 9.2 8 1
02/22/06 1:19 a -5.4 -5.4 -5.4 --- --- 11.3 NE 0.19 13.0 -12.2 --- --- 727.2 0.017 0.000 9.3 8 1
02/22/06 1:20 a -5.4 -5.4 -5.5 --- --- 13.0 NE 0.22 14.8 -12.8 --- --- 727.3 0.017 0.000 9.3 8 1
02/22/06 1:21 a -5.6 -5.6 -5.7 --- --- 12.2 NE 0.20 13.0 -12.7 --- --- 727.3 0.017 0.000 9.2 8 1
02/22/06 1:22 a -5.7 -5.7 -5.7 --- --- 11.3 NE 0.19 13.0 -12.6 --- --- 727.2 0.017 0.000 9.2 8 1
02/22/06 1:23 a -5.7 -5.7 -5.8 --- --- 13.0 NE 0.22 13.0 -13.1 --- --- 727.2 0.017 0.000 9.3 8 1
02/22/06 1:24 a -5.8 -5.8 -5.8 --- --- 13.0 NE 0.22 13.9 -13.2 --- --- 727.2 0.017 0.000 9.3 8 1
02/22/06 1:25 a -5.8 -5.8 -5.8 --- --- 12.2 ENE 0.20 13.9 -13.0 --- --- 727.2 0.017 0.000 9.2 8 1
02/22/06 1:26 a -5.9 -5.8 -5.9 --- --- 12.2 ENE 0.20 13.9 -13.1 --- --- 727.2 0.017 0.000 9.2 8 1
02/22/06 1:27 a -5.9 -5.9 -5.9 --- --- 11.3 ENE 0.19 13.0 -12.9 --- --- 727.2 0.017 0.000 9.2 8 1
02/22/06 1:28 a -5.7 -5.6 -5.8 --- --- 12.2 ENE 0.20 13.0 -12.9 --- --- 727.3 0.017 0.000 9.2 8 1
02/22/06 1:29 a -5.5 -5.4 -5.6 --- --- 13.0 ENE 0.22 14.8 -12.8 --- --- 727.3 0.017 0.000 9.2 8 1
02/22/06 1:30 a -5.6 -5.5 -5.6 --- --- 11.3 ENE 0.19 13.0 -12.4 --- --- 727.2 0.017 0.000 9.2 8 1
02/22/06 1:31 a -5.3 -5.2 -5.4 --- --- 12.2 ENE 0.20 13.9 -12.3 --- --- 727.2 0.016 0.000 9.2 8 1
02/22/06 1:32 a -5.0 -4.9 -5.2 --- --- 13.0 ENE 0.22 15.7 -12.2 --- --- 727.1 0.016 0.000 9.2 8 1
02/22/06 1:33 a -4.8 -4.7 -4.8 --- --- 12.2 NE 0.20 14.8 -11.7 --- --- 727.1 0.016 0.000 9.2 8 1
02/22/06 1:34 a -4.6 -4.4 -4.7 --- --- 13.0 ENE 0.22 13.9 -11.6 --- --- 727.1 0.016 0.000 9.2 8 1
02/22/06 1:35 a -4.2 -3.8 -4.3 --- --- 11.3 NE 0.19 13.9 -10.6 --- --- 727.1 0.016 0.000 9.3 8 1
02/22/06 1:36 a -3.8 -3.7 -3.9 --- --- 11.3 NE 0.19 13.0 -10.2 --- --- 727.1 0.015 0.000 9.3 8 1
02/22/06 1:37 a -3.6 -3.4 -3.6 --- --- 11.3 NE 0.19 13.0 -9.8 --- --- 727.1 0.015 0.000 9.3 8 1
02/22/06 1:38 a -3.7 -3.6 -3.9 --- --- 12.2 NE 0.20 13.0 -10.3 --- --- 727.0 0.015 0.000 9.3 8 1
02/22/06 1:39 a -3.9 -3.8 -3.9 --- --- 12.2 NE 0.20 13.9 -10.6 --- --- 727.2 0.015 0.000 9.3 8 1
02/22/06 1:40 a -3.9 -3.8 -3.9 --- --- 11.3 NE 0.19 13.9 -10.3 --- --- 727.2 0.015 0.000 9.4 8 1
02/22/06 1:41 a -3.8 -3.8 -3.9 --- --- 9.6 NE 0.16 11.3 -9.7 --- --- 727.2 0.015 0.000 9.4 9 1
02/22/06 1:42 a -4.4 -4.1 -4.7 --- --- 13.0 NE 0.22 13.9 -11.4 --- --- 727.1 0.016 0.000 9.4 8 1
02/22/06 1:43 a -4.4 -4.1 -4.6 --- --- 10.4 NE 0.17 12.2 -10.7 --- --- 727.2 0.016 0.000 9.5 9 1
02/22/06 1:44 a -3.7 -3.5 -3.9 --- --- 11.3 NE 0.19 13.0 -10.1 --- --- 727.2 0.015 0.000 9.5 8 1
02/22/06 1:45 a -3.7 -3.6 -3.9 --- --- 12.2 NE 0.20 13.9 -10.3 --- --- 727.2 0.015 0.000 9.6 8 1
02/22/06 1:46 a -4.1 -4.1 -4.2 --- --- 11.3 NE 0.19 13.9 -10.5 --- --- 727.2 0.016 0.000 9.6 9 1
02/22/06 1:47 a -4.0 -3.9 -4.1 --- --- 11.3 NE 0.19 13.0 -10.4 --- --- 727.1 0.016 0.000 9.6 9 1
02/22/06 1:48 a -4.1 -3.8 -4.3 --- --- 12.2 ENE 0.20 13.0 -10.8 --- --- 727.1 0.016 0.000 9.6 9 1
02/22/06 1:49 a -4.4 -4.4 -4.5 --- --- 11.3 ENE 0.19 13.0 -11.0 --- --- 727.1 0.016 0.000 9.6 9 1
02/22/06 1:50 a -4.6 -4.5 -4.8 --- --- 10.4 ENE 0.17 12.2 -10.9 --- --- 727.1 0.016 0.000 9.7 9 1
02/22/06 1:51 a -4.7 -4.7 -4.8 --- --- 11.3 ENE 0.19 13.0 -11.3 --- --- 727.2 0.016 0.000 9.7 9 1
02/22/06 1:52 a -4.9 -4.8 -4.9 --- --- 11.3 ENE 0.19 13.9 -11.6 --- --- 727.1 0.016 0.000 9.7 9 1
02/22/06 1:53 a -4.7 -4.4 -4.9 --- --- 12.2 ENE 0.20 13.9 -11.5 --- --- 727.1 0.016 0.000 9.7 9 1
02/22/06 1:54 a -4.1 -4.0 -4.2 --- --- 10.4 ENE 0.17 13.0 -10.3 --- --- 727.1 0.016 0.000 9.7 9 1
02/22/06 1:55 a -4.1 -4.0 -4.2 --- --- 12.2 NE 0.20 13.9 -10.7 --- --- 727.1 0.016 0.000 9.7 9 1
02/22/06 1:56 a -4.1 -3.8 -4.4 --- --- 13.0 NE 0.22 13.9 -11.0 --- --- 727.2 0.016 0.000 9.8 9 1
02/22/06 1:57 a -4.4 -4.2 -4.5 --- --- 10.4 NE 0.17 12.2 -10.7 --- --- 727.1 0.016 0.000 9.8 9 1
02/22/06 1:58 a -4.1 -4.0 -4.3 --- --- 12.2 NE 0.20 13.9 -10.8 --- --- 727.1 0.016 0.000 9.8 9 1
02/22/06 1:59 a -4.6 -4.4 -4.7 --- --- 11.3 NE 0.19 13.0 -11.1 --- --- 727.1 0.016 0.000 9.8 9 1
02/22/06 2:00 a -4.4 -4.3 -4.6 --- --- 12.2 ENE 0.20 13.9 -11.2 --- --- 727.1 0.016 0.000 9.8 9 1
02/22/06 2:01 a -4.6 -4.5 -4.6 --- --- 11.3 NE 0.19 13.0 -11.1 --- --- 727.1 0.016 0.000 9.9 9 1
02/22/06 2:02 a -4.6 -4.3 -4.7 --- --- 11.3 ENE 0.19 12.2 -11.1 --- --- 727.2 0.016 0.000 9.9 9 1
02/22/06 2:03 a -3.9 -3.6 -4.1 --- --- 11.3 NE 0.19 13.0 -10.3 --- --- 727.2 0.015 0.000 9.9 9 1
02/22/06 2:04 a -3.1 -2.7 -3.4 --- --- 11.3 NE 0.19 12.2 -9.2 --- --- 727.1 0.015 0.000 9.9 9 1
02/22/06 2:05 a -2.7 -2.6 -2.7 --- --- 10.4 NE 0.17 13.0 -8.5 --- --- 727.2 0.015 0.000 9.9 9 1
02/22/06 2:06 a -2.5 -2.3 -2.6 --- --- 11.3 NE 0.19 13.0 -8.5 --- --- 727.2 0.014 0.000 9.9 9 1
02/22/06 2:07 a -2.9 -2.3 -3.6 --- --- 11.3 NE 0.19 13.9 -9.0 --- --- 727.2 0.015 0.000 9.9 9 1
02/22/06 2:08 a -3.8 -3.7 -4.0 --- --- 11.3 ENE 0.19 12.2 -10.2 --- --- 727.2 0.015 0.000 9.9 9 1
02/22/06 2:09 a -4.3 -4.2 -4.6 --- --- 12.2 ENE 0.20 13.9 -11.0 --- --- 727.2 0.016 0.000 9.9 9 1
02/22/06 2:10 a -4.7 -4.7 -4.8 --- --- 13.0 ENE 0.22 13.9 -11.8 --- --- 727.3 0.016 0.000 9.9 9 1
02/22/06 2:11 a -4.8 -4.8 -4.9 --- --- 11.3 ENE 0.19 13.0 -11.5 --- --- 727.2 0.016 0.000 9.9 9 1
02/22/06 2:12 a -4.8 -4.8 -4.8 --- --- 10.4 ENE 0.17 12.2 -11.2 --- --- 727.3 0.016 0.000 9.9 9 1
02/22/06 2:13 a -4.6 -4.4 -4.7 --- --- 11.3 ENE 0.19 12.2 -11.2 --- --- 727.2 0.016 0.000 9.9 9 1
02/22/06 2:14 a -4.2 -4.1 -4.2 --- --- 10.4 ENE 0.17 13.0 -10.4 --- --- 727.2 0.016 0.000 9.9 9 1
02/22/06 2:15 a -3.8 -3.7 -4.0 --- --- 11.3 ENE 0.19 13.0 -10.2 --- --- 727.2 0.015 0.000 9.9 9 1
02/22/06 2:16 a -4.1 -4.0 -4.2 --- --- 12.2 ENE 0.20 13.9 -10.7 --- --- 727.1 0.016 0.000 10.0 9 1
02/22/06 2:17 a -4.3 -4.2 -4.4 --- --- 12.2 ENE 0.20 13.9 -11.0 --- --- 727.2 0.016 0.000 10.0 9 1
02/22/06 2:18 a -4.3 -4.3 -4.3 --- --- 11.3 ENE 0.19 12.2 -10.8 --- --- 727.1 0.016 0.000 10.0 9 1
02/22/06 2:19 a -4.4 -4.3 -4.4 --- --- 12.2 ENE 0.20 13.9 -11.2 --- --- 727.2 0.016 0.000 10.0 9 1
02/22/06 2:20 a -4.6 -4.5 -4.7 --- --- 12.2 ENE 0.20 14.8 -11.4 --- --- 727.1 0.016 0.000 10.0 9 1
02/22/06 2:21 a -4.7 -4.7 -4.8 --- --- 13.0 ENE 0.22 15.7 -11.8 --- --- 727.2 0.016 0.000 10.0 9 1
02/22/06 2:22 a -4.9 -4.9 -4.9 --- --- 13.0 ENE 0.22 14.8 -12.1 --- --- 727.1 0.016 0.000 10.0 9 1
02/22/06 2:23 a -5.1 -5.0 -5.1 --- --- 13.9 ENE 0.23 15.7 -12.5 --- --- 727.1 0.016 0.000 10.0 9 1
02/22/06 2:24 a -4.8 -4.6 -5.0 --- --- 13.0 ENE 0.22 13.9 -12.0 --- --- 727.2 0.016 0.000 10.0 9 1
02/22/06 2:25 a -4.6 -4.4 -4.6 --- --- 12.2 ENE 0.20 13.9 -11.4 --- --- 727.2 0.016 0.000 10.0 9 1
02/22/06 2:26 a -4.3 -3.9 -4.4 --- --- 11.3 ENE 0.19 13.9 -10.8 --- --- 727.2 0.016 0.000 10.0 9 1
02/22/06 2:27 a -3.4 -3.2 -3.6 --- --- 12.2 ENE 0.20 15.7 -9.9 --- --- 727.2 0.015 0.000 10.0 9 1
02/22/06 2:28 a -3.2 -3.1 -3.3 --- --- 13.0 ENE 0.22 14.8 -9.8 --- --- 727.2 0.015 0.000 10.0 9 1
02/22/06 2:29 a -3.7 -3.4 -4.1 --- --- 13.9 ENE 0.23 15.7 -10.8 --- --- 727.0 0.015 0.000 10.0 9 1
02/22/06 2:30 a -4.1 -4.1 -4.1 --- --- 13.0 ENE 0.22 14.8 -11.1 --- --- 727.1 0.016 0.000 10.0 9 1
02/22/06 2:31 a -4.3 -4.1 -4.5 --- --- 12.2 ENE 0.20 13.9 -11.0 --- --- 727.2 0.016 0.000 10.0 9 1
02/22/06 2:32 a -4.6 -4.6 -4.7 --- --- 12.2 ENE 0.20 13.9 -11.4 --- --- 727.2 0.016 0.000 10.0 9 1
02/22/06 2:33 a -4.9 -4.8 -5.1 --- --- 12.2 ENE 0.20 14.8 -11.8 --- --- 727.2 0.016 0.000 10.0 9 1
02/22/06 2:34 a -5.2 -5.1 -5.3 --- --- 12.2 ENE 0.20 13.0 -12.2 --- --- 727.2 0.016 0.000 10.0 9 1
02/22/06 2:35 a -5.3 -5.3 -5.4 --- --- 10.4 NE 0.17 13.0 -11.8 --- --- 727.2 0.016 0.000 10.0 9 1
02/22/06 2:36 a -5.3 -5.2 -5.3 --- --- 12.2 ENE 0.20 13.9 -12.3 --- --- 727.2 0.016 0.000 10.0 9 1
02/22/06 2:37 a -5.2 -5.1 -5.3 --- --- 13.0 ENE 0.22 16.5 -12.4 --- --- 727.2 0.016 0.000 10.0 9 1
02/22/06 2:38 a -5.3 -5.3 -5.3 --- --- 12.2 NE 0.20 14.8 -12.4 --- --- 727.1 0.016 0.000 10.0 9 1
02/22/06 2:39 a -5.3 -5.2 -5.3 --- --- 11.3 ENE 0.19 14.8 -12.1 --- --- 727.1 0.016 0.000 10.0 9 1
02/22/06 2:40 a -5.2 -5.2 -5.2 --- --- 11.3 ENE 0.19 14.8 -11.9 --- --- 727.2 0.016 0.000 10.0 9 1
02/22/06 2:41 a -5.0 -4.8 -5.1 --- --- 12.2 ENE 0.20 13.9 -11.9 --- --- 727.2 0.016 0.000 10.0 9 1
02/22/06 2:42 a -4.7 -4.6 -4.8 --- --- 13.9 ENE 0.23 15.7 -12.1 --- --- 727.2 0.016 0.000 10.0 9 1
02/22/06 2:43 a -4.7 -4.4 -4.8 --- --- 12.2 ENE 0.20 14.8 -11.5 --- --- 727.2 0.016 0.000 10.0 9 1
02/22/06 2:44 a -4.1 -3.9 -4.2 --- --- 13.0 ENE 0.22 14.8 -11.1 --- --- 727.2 0.016 0.000 10.0 9 1
02/22/06 2:45 a -3.8 -3.7 -3.9 --- --- 13.0 ENE 0.22 13.9 -10.7 --- --- 727.1 0.015 0.000 10.0 9 1
02/22/06 2:46 a -3.7 -3.7 -3.8 --- --- 13.0 ENE 0.22 15.7 -10.6 --- --- 727.1 0.015 0.000 10.0 9 1
02/22/06 2:47 a -3.6 -3.5 -3.7 --- --- 13.0 ENE 0.22 15.7 -10.4 --- --- 727.2 0.015 0.000 10.0 9 1
02/22/06 2:48 a -3.3 -3.2 -3.3 --- --- 13.9 ENE 0.23 14.8 -10.2 --- --- 727.2 0.015 0.000 10.0 9 1
02/22/06 2:49 a -3.4 -3.3 -3.5 --- --- 13.9 ENE 0.23 14.8 -10.3 --- --- 727.1 0.015 0.000 10.0 9 1
02/22/06 2:50 a -3.2 -2.9 -3.4 --- --- 11.3 NE 0.19 13.0 -9.4 --- --- 727.2 0.015 0.000 10.0 9 1
02/22/06 2:51 a -3.2 -3.0 -3.4 --- --- 12.2 NE 0.20 13.0 -9.7 --- --- 727.1 0.015 0.000 10.0 9 1
02/22/06 2:52 a -3.2 -3.1 -3.3 --- --- 13.0 ENE 0.22 13.9 -9.9 --- --- 727.2 0.015 0.000 10.1 9 1
02/22/06 2:53 a -2.9 -2.8 -3.1 --- --- 11.3 ENE 0.19 13.0 -9.1 --- --- 727.3 0.015 0.000 10.1 9 1
02/22/06 2:54 a -3.0 -2.9 -3.1 --- --- 11.3 ENE 0.19 13.0 -9.2 --- --- 727.2 0.015 0.000 10.0 9 1
02/22/06 2:55 a -3.5 -3.1 -3.8 --- --- 13.0 ENE 0.22 14.8 -10.3 --- --- 727.2 0.015 0.000 10.0 9 1
02/22/06 2:56 a -3.6 -3.6 -3.7 --- --- 12.2 ENE 0.20 13.0 -10.2 --- --- 727.2 0.015 0.000 10.0 9 1
02/22/06 2:57 a -4.0 -3.7 -4.3 --- --- 13.0 ENE 0.22 15.7 -10.9 --- --- 727.2 0.016 0.000 10.0 9 1
02/22/06 2:58 a -4.6 -4.4 -4.7 --- --- 13.0 ENE 0.22 14.8 -11.6 --- --- 727.1 0.016 0.000 10.0 9 1
02/22/06 2:59 a -4.6 -4.6 -4.7 --- --- 11.3 ENE 0.19 14.8 -11.2 --- --- 727.2 0.016 0.000 10.0 9 1
02/22/06 3:00 a -4.6 -4.5 -4.6 --- --- 13.0 ENE 0.22 14.8 -11.6 --- --- 727.2 0.016 0.000 10.0 8 1
02/22/06 3:01 a -4.6 -4.5 -4.8 --- --- 12.2 ENE 0.20 14.8 -11.4 --- --- 727.2 0.016 0.000 10.0 9 1
02/22/06 3:02 a -4.9 -4.8 -5.1 --- --- 12.2 ENE 0.20 13.9 -11.9 --- --- 727.3 0.016 0.000 10.1 8 1
02/22/06 3:03 a -5.1 -5.1 -5.2 --- --- 12.2 ENE 0.20 13.9 -12.1 --- --- 727.1 0.016 0.000 10.0 8 1
02/22/06 3:04 a -5.3 -5.2 -5.3 --- --- 13.0 ENE 0.22 13.9 -12.6 --- --- 727.1 0.016 0.000 10.0 8 1
02/22/06 3:05 a -5.4 -5.4 -5.4 --- --- 12.2 NE 0.20 13.9 -12.4 --- --- 727.1 0.016 0.000 10.1 8 1
02/22/06 3:06 a -5.3 -5.3 -5.4 --- --- 12.2 ENE 0.20 13.0 -12.4 --- --- 727.2 0.016 0.000 10.1 8 1
02/22/06 3:07 a -5.3 -5.3 -5.3 --- --- 12.2 ENE 0.20 14.8 -12.4 --- --- 727.2 0.016 0.000 10.1 8 1
02/22/06 3:08 a -5.4 -5.3 -5.4 --- --- 12.2 ENE 0.20 13.9 -12.4 --- --- 727.2 0.016 0.000 10.0 8 1
02/22/06 3:09 a -5.4 -5.4 -5.5 --- --- 11.3 ENE 0.19 13.0 -12.2 --- --- 727.2 0.017 0.000 10.0 8 1
02/22/06 3:10 a -5.5 -5.4 -5.5 --- --- 12.2 ENE 0.20 13.9 -12.6 --- --- 727.2 0.017 0.000 10.1 8 1
02/22/06 3:11 a -5.3 -5.2 -5.3 --- --- 13.0 ENE 0.22 15.7 -12.6 --- --- 727.1 0.016 0.000 10.1 8 1
02/22/06 3:12 a -5.3 -5.2 -5.4 --- --- 12.2 ENE 0.20 14.8 -12.4 --- --- 727.2 0.016 0.000 10.1 8 1
02/22/06 3:13 a -5.4 -5.4 -5.4 --- --- 11.3 ENE 0.19 12.2 -12.2 --- --- 727.2 0.016 0.000 10.1 8 1
02/22/06 3:14 a -5.5 -5.4 -5.6 --- --- 12.2 ENE 0.20 14.8 -12.6 --- --- 727.2 0.017 0.000 10.1 8 1
02/22/06 3:15 a -5.7 -5.6 -5.7 --- --- 11.3 NE 0.19 13.0 -12.6 --- --- 727.2 0.017 0.000 10.1 8 1
02/22/06 3:16 a -5.6 -5.6 -5.7 --- --- 11.3 ENE 0.19 13.0 -12.4 --- --- 727.2 0.017 0.000 10.1 8 1
02/22/06 3:17 a -5.6 -5.6 -5.7 --- --- 12.2 ENE 0.20 13.9 -12.7 --- --- 727.2 0.017 0.000 10.1 8 1
02/22/06 3:18 a -5.7 -5.6 -5.7 --- --- 11.3 NE 0.19 13.9 -12.6 --- --- 727.2 0.017 0.000 10.1 8 1
02/22/06 3:19 a -5.7 -5.6 -5.7 --- --- 11.3 ENE 0.19 13.9 -12.6 --- --- 727.2 0.017 0.000 10.1 8 1
02/22/06 3:20 a -5.7 -5.7 -5.7 --- --- 12.2 ENE 0.20 13.9 -12.8 --- --- 727.2 0.017 0.000 10.1 8 1
02/22/06 3:21 a -5.6 -5.6 -5.7 --- --- 11.3 NE 0.19 12.2 -12.4 --- --- 727.1 0.017 0.000 10.1 8 1
02/22/06 3:22 a -5.6 -5.5 -5.6 --- --- 11.3 NE 0.19 13.0 -12.4 --- --- 727.2 0.017 0.000 10.1 8 1
02/22/06 3:23 a -5.6 -5.6 -5.6 --- --- 13.0 ENE 0.22 15.7 -12.9 --- --- 727.2 0.017 0.000 10.1 8 1
02/22/06 3:24 a -5.6 -5.4 -5.6 --- --- 13.0 ENE 0.22 14.8 -12.9 --- --- 727.2 0.017 0.000 10.1 8 1
02/22/06 3:25 a -5.0 -4.8 -5.2 --- --- 12.2 ENE 0.20 13.9 -11.9 --- --- 727.2 0.016 0.000 10.1 8 1
02/22/06 3:26 a -4.6 -4.2 -4.8 --- --- 11.3 ENE 0.19 13.0 -11.2 --- --- 727.2 0.016 0.000 10.1 8 1
02/22/06 3:27 a -4.2 -4.1 -4.4 --- --- 10.4 ENE 0.17 12.2 -10.4 --- --- 727.2 0.016 0.000 10.1 8 1
02/22/06 3:28 a -4.6 -4.4 -4.9 --- --- 9.6 ENE 0.16 13.0 -10.6 --- --- 727.2 0.016 0.000 10.1 8 1
02/22/06 3:29 a -5.1 -5.0 -5.3 --- --- 13.0 ENE 0.22 14.8 -12.3 --- --- 727.2 0.016 0.000 10.1 8 1
02/22/06 3:30 a -5.5 -5.4 -5.6 --- --- 12.2 ENE 0.20 13.9 -12.6 --- --- 727.3 0.017 0.000 10.1 8 1
02/22/06 3:31 a -5.7 -5.7 -5.7 --- --- 12.2 ENE 0.20 13.0 -12.8 --- --- 727.2 0.017 0.000 10.1 8 1
02/22/06 3:32 a -5.8 -5.7 -5.8 --- --- 12.2 ENE 0.20 13.9 -12.9 --- --- 727.2 0.017 0.000 10.1 8 1
02/22/06 3:33 a -5.9 -5.9 -5.9 --- --- 11.3 ENE 0.19 12.2 -12.8 --- --- 727.2 0.017 0.000 10.1 8 1
02/22/06 3:34 a -6.1 -5.9 -6.2 --- --- 13.0 ENE 0.22 14.8 -13.6 --- --- 727.3 0.017 0.000 10.1 8 1
02/22/06 3:35 a -6.3 -6.2 -6.3 --- --- 12.2 ENE 0.20 13.9 -13.6 --- --- 727.3 0.017 0.000 10.1 8 1
02/22/06 3:36 a -6.4 -6.3 -6.4 --- --- 12.2 NE 0.20 13.9 -13.7 --- --- 727.2 0.017 0.000 10.1 8 1
02/22/06 3:37 a -6.4 -6.4 -6.4 --- --- 12.2 NE 0.20 13.0 -13.8 --- --- 727.2 0.017 0.000 10.1 8 1
02/22/06 3:38 a -6.3 -6.2 -6.3 --- --- 11.3 NE 0.19 13.0 -13.3 --- --- 727.2 0.017 0.000 10.1 8 1
02/22/06 3:39 a -6.2 -6.2 -6.2 --- --- 12.2 NE 0.20 13.9 -13.5 --- --- 727.2 0.017 0.000 10.1 8 1
02/22/06 3:40 a -6.2 -6.1 -6.2 --- --- 12.2 NE 0.20 14.8 -13.4 --- --- 727.2 0.017 0.000 10.1 8 1
02/22/06 3:41 a -6.0 -5.9 -6.1 --- --- 10.4 NE 0.17 12.2 -12.7 --- --- 727.3 0.017 0.000 10.1 8 1
02/22/06 3:42 a -5.8 -5.5 -5.9 --- --- 11.3 ENE 0.19 15.7 -12.7 --- --- 727.2 0.017 0.000 10.1 8 1
02/22/06 3:43 a -5.5 -5.5 -5.5 --- --- 11.3 NE 0.19 14.8 -12.3 --- --- 727.3 0.017 0.000 10.1 8 1
02/22/06 3:44 a -5.4 -5.4 -5.5 --- --- 11.3 NE 0.19 12.2 -12.2 --- --- 727.3 0.017 0.000 10.1 8 1
02/22/06 3:45 a -5.3 -5.3 -5.4 --- --- 9.6 ENE 0.16 12.2 -11.6 --- --- 727.3 0.016 0.000 10.1 8 1
02/22/06 3:46 a -5.2 -5.0 -5.2 --- --- 9.6 ENE 0.16 10.4 -11.3 --- --- 727.2 0.016 0.000 10.1 8 1
02/22/06 3:47 a -4.7 -4.5 -4.9 --- --- 9.6 ENE 0.16 11.3 -10.8 --- --- 727.3 0.016 0.000 10.2 8 1
02/22/06 3:48 a -4.3 -4.1 -4.4 --- --- 11.3 ENE 0.19 13.9 -10.8 --- --- 727.2 0.016 0.000 10.1 8 1
02/22/06 3:49 a -4.2 -4.1 -4.2 --- --- 11.3 NE 0.19 13.0 -10.6 --- --- 727.2 0.016 0.000 10.2 8 1
02/22/06 3:50 a -4.4 -4.3 -4.4 --- --- 10.4 NE 0.17 12.2 -10.7 --- --- 727.2 0.016 0.000 10.2 8 1
02/22/06 3:51 a -4.2 -3.9 -4.4 --- --- 9.6 ENE 0.16 12.2 -10.1 --- --- 727.2 0.016 0.000 10.2 8 1
02/22/06 3:52 a -3.8 -3.7 -3.9 --- --- 12.2 ENE 0.20 13.9 -10.4 --- --- 727.2 0.015 0.000 10.2 8 1
02/22/06 3:53 a -3.9 -3.9 -4.0 --- --- 11.3 ENE 0.19 13.0 -10.3 --- --- 727.2 0.015 0.000 10.2 8 1
02/22/06 3:54 a -3.5 -3.2 -3.8 --- --- 10.4 ENE 0.17 11.3 -9.5 --- --- 727.3 0.015 0.000 10.2 8 1
02/22/06 3:55 a -2.9 -2.9 -2.9 --- --- 9.6 NE 0.16 10.4 -8.6 --- --- 727.3 0.015 0.000 10.2 8 1
02/22/06 3:56 a -2.7 -2.4 -2.8 --- --- 10.4 ENE 0.17 13.0 -8.5 --- --- 727.3 0.015 0.000 10.2 8 1
02/22/06 3:57 a -2.3 -2.2 -2.4 --- --- 12.2 NE 0.20 13.9 -8.6 --- --- 727.2 0.014 0.000 10.2 8 1
02/22/06 3:58 a -2.2 -2.1 -2.2 --- --- 9.6 ENE 0.16 13.0 -7.6 --- --- 727.3 0.014 0.000 10.2 8 1
02/22/06 3:59 a -2.1 -2.0 -2.1 --- --- 9.6 NE 0.16 10.4 -7.4 --- --- 727.3 0.014 0.000 10.2 8 1
02/22/06 4:00 a -1.9 -1.8 -1.9 --- --- 8.7 NE 0.14 10.4 -6.9 --- --- 727.3 0.014 0.000 10.3 8 1
02/22/06 4:01 a -2.2 -1.9 -2.6 --- --- 8.7 NE 0.14 10.4 -7.3 --- --- 727.2 0.014 0.000 10.3 8 1
02/22/06 4:02 a -3.1 -2.8 -3.3 --- --- 10.4 NE 0.17 11.3 -8.9 --- --- 727.2 0.015 0.000 10.3 8 1
02/22/06 4:03 a -3.3 -3.2 -3.4 --- --- 10.4 ENE 0.17 11.3 -9.2 --- --- 727.3 0.015 0.000 10.3 8 1
02/22/06 4:04 a -3.7 -3.5 -3.9 --- --- 11.3 NE 0.19 12.2 -10.1 --- --- 727.3 0.015 0.000 10.3 8 1
02/22/06 4:05 a -3.7 -3.6 -3.8 --- --- 10.4 NE 0.17 12.2 -9.8 --- --- 727.3 0.015 0.000 10.3 8 1
02/22/06 4:06 a -3.3 -3.1 -3.6 --- --- 8.7 NE 0.14 10.4 -8.7 --- --- 727.3 0.015 0.000 10.3 8 1
02/22/06 4:07 a -3.3 -3.2 -3.6 --- --- 9.6 ENE 0.16 11.3 -9.1 --- --- 727.3 0.015 0.000 10.3 8 1
02/22/06 4:08 a -3.9 -3.7 -4.2 --- --- 11.3 ENE 0.19 12.2 -10.3 --- --- 727.3 0.015 0.000 10.3 8 1
02/22/06 4:09 a -4.0 -3.7 -4.2 --- --- 9.6 ENE 0.16 10.4 -9.9 --- --- 727.3 0.016 0.000 10.3 8 1
02/22/06 4:10 a -3.4 -3.1 -3.6 --- --- 11.3 ENE 0.19 13.0 -9.7 --- --- 727.3 0.015 0.000 10.3 8 1
02/22/06 4:11 a -2.9 -2.6 -3.1 --- --- 8.7 ENE 0.14 10.4 -8.2 --- --- 727.3 0.015 0.000 10.3 8 1
02/22/06 4:12 a -2.7 -2.6 -2.9 --- --- 6.1 ENE 0.10 7.8 -6.9 --- --- 727.2 0.015 0.000 10.3 8 1
02/22/06 4:13 a -3.1 -3.1 -3.3 --- --- 10.4 NE 0.17 12.2 -9.1 --- --- 727.3 0.015 0.000 10.3 8 1
02/22/06 4:14 a -3.6 -3.4 -3.7 --- --- 11.3 NE 0.19 12.2 -9.8 --- --- 727.3 0.015 0.000 10.3 8 1
02/22/06 4:15 a -3.2 -2.9 -3.3 --- --- 7.8 ENE 0.13 9.6 -8.2 --- --- 727.3 0.015 0.000 10.3 8 1
02/22/06 4:16 a -2.4 -2.2 -2.8 --- --- 7.8 ENE 0.13 11.3 -7.3 --- --- 727.3 0.014 0.000 10.3 8 1
02/22/06 4:17 a -2.4 -2.2 -2.9 --- --- 11.3 ENE 0.19 12.2 -8.4 --- --- 727.3 0.014 0.000 10.4 8 1
02/22/06 4:18 a -3.6 -3.1 -4.1 --- --- 11.3 ENE 0.19 12.2 -9.8 --- --- 727.3 0.015 0.000 10.4 8 1
02/22/06 4:19 a -4.4 -4.2 -4.7 --- --- 10.4 ENE 0.17 11.3 -10.7 --- --- 727.3 0.016 0.000 10.4 8 1
02/22/06 4:20 a -4.8 -4.8 -4.9 --- --- 8.7 ENE 0.14 10.4 -10.6 --- --- 727.3 0.016 0.000 10.3 8 1
02/22/06 4:21 a -4.4 -4.1 -4.8 --- --- 9.6 ENE 0.16 10.4 -10.4 --- --- 727.3 0.016 0.000 10.3 8 1
02/22/06 4:22 a -3.5 -3.1 -3.8 --- --- 8.7 ENE 0.14 9.6 -8.9 --- --- 727.3 0.015 0.000 10.3 8 1
02/22/06 4:23 a -2.9 -2.8 -3.0 --- --- 9.6 ENE 0.16 10.4 -8.6 --- --- 727.3 0.015 0.000 10.3 8 1
02/22/06 4:24 a -3.3 -3.1 -3.8 --- --- 11.3 ENE 0.19 13.0 -9.6 --- --- 727.3 0.015 0.000 10.3 8 1
02/22/06 4:25 a -4.1 -4.0 -4.3 --- --- 11.3 ENE 0.19 12.2 -10.6 --- --- 727.4 0.016 0.000 10.4 8 1
02/22/06 4:26 a -4.3 -4.2 -4.4 --- --- 10.4 ENE 0.17 12.2 -10.5 --- --- 727.3 0.016 0.000 10.4 8 1
02/22/06 4:27 a -4.4 -4.4 -4.6 --- --- 7.8 ENE 0.13 10.4 -9.8 --- --- 727.3 0.016 0.000 10.3 8 1
02/22/06 4:28 a -4.7 -4.6 -4.8 --- --- 10.4 ENE 0.17 11.3 -11.1 --- --- 727.3 0.016 0.000 10.3 8 1
02/22/06 4:29 a -4.9 -4.8 -4.9 --- --- 11.3 ENE 0.19 13.0 -11.6 --- --- 727.3 0.016 0.000 10.3 8 1
02/22/06 4:30 a -5.1 -4.9 -5.3 --- --- 11.3 ENE 0.19 12.2 -11.8 --- --- 727.3 0.016 0.000 10.3 8 1
02/22/06 4:31 a -5.3 -5.3 -5.3 --- --- 9.6 ENE 0.16 11.3 -11.6 --- --- 727.4 0.016 0.000 10.3 8 1
02/22/06 4:32 a -5.2 -5.2 -5.3 --- --- 11.3 ENE 0.19 13.9 -11.9 --- --- 727.3 0.016 0.000 10.3 8 1
02/22/06 4:33 a -5.2 -5.2 -5.3 --- --- 11.3 ENE 0.19 11.3 -11.9 --- --- 727.3 0.016 0.000 10.3 8 1
02/22/06 4:34 a -5.3 -5.3 -5.3 --- --- 10.4 ENE 0.17 11.3 -11.8 --- --- 727.3 0.016 0.000 10.3 8 1
02/22/06 4:35 a -4.9 -4.5 -5.3 --- --- 10.4 ENE 0.17 12.2 -11.3 --- --- 727.3 0.016 0.000 10.3 8 1
02/22/06 4:36 a -4.1 -3.8 -4.4 --- --- 11.3 ENE 0.19 13.0 -10.6 --- --- 727.3 0.016 0.000 10.3 8 1
02/22/06 4:37 a -3.8 -3.6 -3.8 --- --- 12.2 ENE 0.20 13.9 -10.4 --- --- 727.3 0.015 0.000 10.3 8 1
02/22/06 4:38 a -3.6 -3.5 -3.6 --- --- 11.3 E 0.19 13.0 -9.8 --- --- 727.3 0.015 0.000 10.3 8 1
02/22/06 4:39 a -3.4 -3.3 -3.4 --- --- 12.2 ENE 0.20 13.0 -9.9 --- --- 727.2 0.015 0.000 10.4 8 1
02/22/06 4:40 a -3.1 -2.9 -3.2 --- --- 12.2 ENE 0.20 13.0 -9.4 --- --- 727.3 0.015 0.000 10.4 8 1
02/22/06 4:41 a -3.5 -3.2 -3.8 --- --- 11.3 ENE 0.19 13.0 -9.8 --- --- 727.3 0.015 0.000 10.4 8 1
02/22/06 4:42 a -3.7 -3.7 -3.8 --- --- 10.4 ENE 0.17 12.2 -9.8 --- --- 727.3 0.015 0.000 10.4 8 1
02/22/06 4:43 a -3.6 -3.6 -3.6 --- --- 10.4 ENE 0.17 11.3 -9.7 --- --- 727.4 0.015 0.000 10.4 8 1
02/22/06 4:44 a -3.8 -3.7 -4.1 --- --- 10.4 E 0.17 11.3 -9.9 --- --- 727.3 0.015 0.000 10.4 8 1
02/22/06 4:45 a -4.4 -4.2 -4.7 --- --- 7.8 E 0.13 9.6 -9.8 --- --- 727.3 0.016 0.000 10.4 8 1
02/22/06 4:46 a -4.9 -4.8 -5.2 --- --- 10.4 ENE 0.17 13.9 -11.3 --- --- 727.3 0.016 0.000 10.4 8 1
02/22/06 4:47 a -5.3 -4.9 -5.4 --- --- 13.0 ENE 0.22 14.8 -12.6 --- --- 727.3 0.016 0.000 10.4 8 1
02/22/06 4:48 a -4.6 -4.2 -4.8 --- --- 12.2 E 0.20 13.9 -11.4 --- --- 727.3 0.016 0.000 10.4 8 1
02/22/06 4:49 a -3.9 -3.7 -4.1 --- --- 9.6 E 0.16 11.3 -9.8 --- --- 727.4 0.015 0.000 10.4 8 1
02/22/06 4:50 a -3.4 -3.3 -3.6 --- --- 10.4 ENE 0.17 13.9 -9.4 --- --- 727.2 0.015 0.000 10.4 8 1
02/22/06 4:51 a -3.3 -3.2 -3.3 --- --- 13.0 ENE 0.22 14.8 -10.0 --- --- 727.3 0.015 0.000 10.4 8 1
02/22/06 4:52 a -3.0 -2.9 -3.2 --- --- 11.3 ENE 0.19 13.9 -9.2 --- --- 727.3 0.015 0.000 10.4 8 1
02/22/06 4:53 a -2.9 -2.8 -2.9 --- --- 10.4 E 0.17 11.3 -8.8 --- --- 727.2 0.015 0.000 10.4 8 1
02/22/06 4:54 a -2.9 -2.9 -3.0 --- --- 10.4 E 0.17 12.2 -8.8 --- --- 727.3 0.015 0.000 10.4 8 1
02/22/06 4:55 a -3.2 -3.0 -3.7 --- --- 11.3 ENE 0.19 13.0 -9.4 --- --- 727.3 0.015 0.000 10.4 8 1
02/22/06 4:56 a -4.0 -3.8 -4.4 --- --- 12.2 ENE 0.20 14.8 -10.7 --- --- 727.3 0.016 0.000 10.5 8 1
02/22/06 4:57 a -4.6 -4.5 -4.6 --- --- 12.2 ENE 0.20 14.8 -11.4 --- --- 727.4 0.016 0.000 10.4 8 1
02/22/06 4:58 a -4.4 -4.1 -4.5 --- --- 10.4 ENE 0.17 11.3 -10.7 --- --- 727.3 0.016 0.000 10.4 8 1
02/22/06 4:59 a -3.7 -3.5 -4.0 --- --- 10.4 ENE 0.17 11.3 -9.8 --- --- 727.3 0.015 0.000 10.4 8 1
02/22/06 5:00 a -3.4 -3.3 -3.4 --- --- 11.3 ENE 0.19 12.2 -9.7 --- --- 727.3 0.015 0.000 10.4 8 1
02/22/06 5:01 a -3.3 -3.3 -3.3 --- --- 11.3 ENE 0.19 13.0 -9.6 --- --- 727.3 0.015 0.000 10.5 8 1
02/22/06 5:02 a -3.4 -3.3 -3.6 --- --- 10.4 ENE 0.17 12.2 -9.4 --- --- 727.4 0.015 0.000 10.5 8 1
02/22/06 5:03 a -3.9 -3.7 -4.2 --- --- 10.4 ENE 0.17 11.3 -10.1 --- --- 727.3 0.015 0.000 10.5 8 1
02/22/06 5:04 a -4.1 -3.9 -4.1 --- --- 10.4 ENE 0.17 12.2 -10.2 --- --- 727.3 0.016 0.000 10.5 8 1
02/22/06 5:05 a -3.8 -3.6 -3.9 --- --- 10.4 ENE 0.17 12.2 -9.9 --- --- 727.3 0.015 0.000 10.5 8 1
02/22/06 5:06 a -3.5 -3.3 -3.5 --- --- 10.4 ENE 0.17 12.2 -9.5 --- --- 727.3 0.015 0.000 10.5 8 1
02/22/06 5:07 a -3.3 -3.3 -3.3 --- --- 12.2 ENE 0.20 13.0 -9.8 --- --- 727.2 0.015 0.000 10.6 8 1
02/22/06 5:08 a -3.4 -3.3 -3.6 --- --- 11.3 ENE 0.19 12.2 -9.7 --- --- 727.3 0.015 0.000 10.6 8 1
02/22/06 5:09 a -3.6 -3.6 -3.6 --- --- 11.3 ENE 0.19 13.9 -9.9 --- --- 727.2 0.015 0.000 10.6 8 1
02/22/06 5:10 a -3.8 -3.7 -3.9 --- --- 13.9 ENE 0.23 15.7 -10.8 --- --- 727.3 0.015 0.000 10.6 8 1
02/22/06 5:11 a -4.0 -3.9 -4.0 --- --- 13.9 ENE 0.23 14.8 -11.1 --- --- 727.3 0.016 0.000 10.6 8 1
02/22/06 5:12 a -3.9 -3.8 -3.9 --- --- 11.3 ENE 0.19 13.0 -10.3 --- --- 727.3 0.015 0.000 10.6 8 1
02/22/06 5:13 a -3.9 -3.9 -4.0 --- --- 12.2 ENE 0.20 15.7 -10.6 --- --- 727.3 0.015 0.000 10.6 8 1
02/22/06 5:14 a -4.1 -4.1 -4.1 --- --- 13.0 ENE 0.22 14.8 -11.0 --- --- 727.4 0.016 0.000 10.6 8 1
02/22/06 5:15 a -4.0 -3.9 -4.1 --- --- 13.0 ENE 0.22 13.9 -10.9 --- --- 727.4 0.016 0.000 10.6 8 1
02/22/06 5:16 a -3.9 -3.9 -4.0 --- --- 11.3 ENE 0.19 13.0 -10.3 --- --- 727.3 0.015 0.000 10.6 8 1
02/22/06 5:17 a -4.0 -3.9 -4.1 --- --- 13.0 ENE 0.22 13.9 -10.9 --- --- 727.3 0.016 0.000 10.6 7 1
02/22/06 5:18 a -4.0 -3.9 -4.1 --- --- 12.2 ENE 0.20 13.9 -10.7 --- --- 727.4 0.016 0.000 10.6 7 1
02/22/06 5:19 a -4.2 -4.1 -4.2 --- --- 13.0 ENE 0.22 14.8 -11.1 --- --- 727.3 0.016 0.000 10.6 7 1
02/22/06 5:20 a -4.2 -4.2 -4.3 --- --- 13.9 ENE 0.23 15.7 -11.4 --- --- 727.3 0.016 0.000 10.6 7 1
02/22/06 5:21 a -4.3 -4.3 -4.4 --- --- 13.9 ENE 0.23 14.8 -11.6 --- --- 727.3 0.016 0.000 10.6 8 1
02/22/06 5:22 a -4.4 -4.4 -4.4 --- --- 12.2 ENE 0.20 13.9 -11.2 --- --- 727.3 0.016 0.000 10.6 8 1
02/22/06 5:23 a -4.5 -4.4 -4.5 --- --- 12.2 ENE 0.20 13.0 -11.3 --- --- 727.3 0.016 0.000 10.6 7 1
02/22/06 5:24 a -4.2 -4.0 -4.3 --- --- 10.4 ENE 0.17 12.2 -10.4 --- --- 727.2 0.016 0.000 10.6 7 1
02/22/06 5:25 a -4.1 -4.0 -4.4 --- --- 14.8 ENE 0.25 16.5 -11.5 --- --- 727.3 0.016 0.000 10.6 7 1
02/22/06 5:26 a -4.6 -4.4 -4.7 --- --- 15.7 ENE 0.26 17.4 -12.3 --- --- 727.3 0.016 0.000 10.6 8 1
02/22/06 5:27 a -4.7 -4.7 -4.7 --- --- 13.9 ENE 0.23 15.7 -12.0 --- --- 727.3 0.016 0.000 10.6 7 1
02/22/06 5:28 a -4.6 -4.6 -4.7 --- --- 11.3 ENE 0.19 13.0 -11.2 --- --- 727.4 0.016 0.000 10.6 7 1
02/22/06 5:29 a -4.6 -4.6 -4.7 --- --- 10.4 ENE 0.17 13.0 -10.9 --- --- 727.3 0.016 0.000 10.6 7 1
02/22/06 5:30 a -4.6 -4.6 -4.6 --- --- 13.9 ENE 0.23 15.7 -11.8 --- --- 727.3 0.016 0.000 10.6 7 1
02/22/06 5:31 a -4.6 -4.6 -4.6 --- --- 14.8 ENE 0.25 16.5 -12.1 --- --- 727.4 0.016 0.000 10.7 7 1
02/22/06 5:32 a -4.5 -4.4 -4.5 --- --- 11.3 ENE 0.19 13.9 -11.1 --- --- 727.4 0.016 0.000 10.7 7 1
02/22/06 5:33 a -4.6 -4.5 -4.7 --- --- 14.8 ENE 0.25 16.5 -12.1 --- --- 727.3 0.016 0.000 10.6 7 1
02/22/06 5:34 a -4.8 -4.7 -4.8 --- --- 13.9 ENE 0.23 14.8 -12.1 --- --- 727.4 0.016 0.000 10.6 7 1
02/22/06 5:35 a -4.8 -4.8 -4.9 --- --- 13.0 ENE 0.22 13.9 -12.0 --- --- 727.3 0.016 0.000 10.6 7 1
02/22/06 5:36 a -4.9 -4.9 -4.9 --- --- 12.2 ENE 0.20 13.9 -11.9 --- --- 727.4 0.016 0.000 10.6 7 1
02/22/06 5:37 a -4.9 -4.8 -5.0 --- --- 13.0 ENE 0.22 14.8 -12.1 --- --- 727.4 0.016 0.000 10.6 7 1
02/22/06 5:38 a -5.1 -5.0 -5.1 --- --- 13.9 ENE 0.23 15.7 -12.5 --- --- 727.4 0.016 0.000 10.6 7 1
02/22/06 5:39 a -5.1 -5.1 -5.2 --- --- 15.7 ENE 0.26 16.5 -13.0 --- --- 727.4 0.016 0.000 10.6 7 1
02/22/06 5:40 a -5.2 -5.1 -5.3 --- --- 14.8 ENE 0.25 15.7 -12.8 --- --- 727.4 0.016 0.000 10.7 7 1
02/22/06 5:41 a -5.1 -5.0 -5.2 --- --- 13.9 ENE 0.23 14.8 -12.5 --- --- 727.4 0.016 0.000 10.6 7 1
02/22/06 5:42 a -5.3 -5.2 -5.3 --- --- 13.0 ENE 0.22 14.8 -12.6 --- --- 727.3 0.016 0.000 10.6 7 1
02/22/06 5:43 a -5.3 -5.2 -5.3 --- --- 14.8 ENE 0.25 16.5 -13.0 --- --- 727.2 0.016 0.000 10.7 7 1
02/22/06 5:44 a -5.3 -5.3 -5.4 --- --- 15.7 ENE 0.26 17.4 -13.2 --- --- 727.3 0.016 0.000 10.7 7 1
02/22/06 5:45 a -5.3 -5.3 -5.4 --- --- 13.0 ENE 0.22 13.9 -12.6 --- --- 727.4 0.016 0.000 10.6 7 1
02/22/06 5:46 a -6.2 -5.7 -6.8 --- --- 13.0 ENE 0.22 16.5 -13.7 --- --- 727.4 0.017 0.000 10.6 7 1
02/22/06 5:47 a -7.0 -6.9 -7.1 --- --- 16.5 ENE 0.28 17.4 -15.7 --- --- 727.3 0.018 0.000 10.6 7 1
02/22/06 5:48 a -6.8 -6.4 -7.1 --- --- 14.8 ENE 0.25 16.5 -14.9 --- --- 727.3 0.017 0.000 10.6 7 1
02/22/06 5:49 a -6.5 -6.3 -6.7 --- --- 13.9 ENE 0.23 15.7 -14.3 --- --- 727.4 0.017 0.000 10.6 7 1
02/22/06 5:50 a -7.2 -6.9 -7.5 --- --- 13.9 ENE 0.23 15.7 -15.3 --- --- 727.4 0.018 0.000 10.6 7 1
02/22/06 5:51 a -7.5 -7.5 -7.6 --- --- 14.8 ENE 0.25 15.7 -15.9 --- --- 727.4 0.018 0.000 10.5 7 1
02/22/06 5:52 a -7.6 -7.6 -7.6 --- --- 13.9 ENE 0.23 15.7 -15.7 --- --- 727.4 0.018 0.000 10.6 7 1
02/22/06 5:53 a -7.3 -6.9 -7.6 --- --- 15.7 ENE 0.26 16.5 -15.8 --- --- 727.4 0.018 0.000 10.6 7 1
02/22/06 5:54 a -7.2 -7.1 -7.4 --- --- 14.8 ENE 0.25 15.7 -15.4 --- --- 727.5 0.018 0.000 10.5 7 1
02/22/06 5:55 a -7.7 -7.5 -7.8 --- --- 13.0 ENE 0.22 14.8 -15.6 --- --- 727.4 0.018 0.000 10.5 7 1
02/22/06 5:56 a -8.1 -7.9 -8.3 --- --- 15.7 ENE 0.26 17.4 -16.8 --- --- 727.4 0.018 0.000 10.5 7 1
02/22/06 5:57 a -8.3 -8.3 -8.4 --- --- 15.7 ENE 0.26 16.5 -17.2 --- --- 727.4 0.019 0.000 10.5 7 1
02/22/06 5:58 a -8.4 -8.4 -8.4 --- --- 14.8 ENE 0.25 16.5 -17.1 --- --- 727.4 0.019 0.000 10.5 7 1
02/22/06 5:59 a -8.4 -8.4 -8.4 --- --- 13.9 ENE 0.23 17.4 -16.8 --- --- 727.3 0.019 0.000 10.4 7 1
02/22/06 6:00 a -8.4 -8.4 -8.4 --- --- 16.5 ENE 0.28 17.4 -17.6 --- --- 727.4 0.019 0.000 10.4 7 1
02/22/06 6:01 a -8.2 -8.0 -8.4 --- --- 15.7 ENE 0.26 17.4 -17.1 --- --- 727.4 0.018 0.000 10.4 7 1
02/22/06 6:02 a -8.0 -7.9 -8.0 --- --- 13.9 ENE 0.23 15.7 -16.3 --- --- 727.5 0.018 0.000 10.4 7 1
02/22/06 6:03 a -8.0 -7.9 -8.0 --- --- 12.2 ENE 0.20 13.0 -15.8 --- --- 727.5 0.018 0.000 10.4 7 1
02/22/06 6:04 a -7.9 -7.8 -8.0 --- --- 13.9 ENE 0.23 15.7 -16.1 --- --- 727.4 0.018 0.000 10.4 7 1
02/22/06 6:05 a -8.1 -8.1 -8.2 --- --- 16.5 ENE 0.28 18.3 -17.1 --- --- 727.5 0.018 0.000 10.4 7 1
02/22/06 6:06 a -8.2 -8.2 -8.3 --- --- 12.2 NE 0.20 14.8 -16.1 --- --- 727.5 0.018 0.000 10.4 7 1
02/22/06 6:07 a -8.3 -8.3 -8.4 --- --- 12.2 ENE 0.20 14.8 -16.2 --- --- 727.4 0.019 0.000 10.4 7 1
02/22/06 6:08 a -8.4 -8.4 -8.5 --- --- 16.5 ENE 0.28 18.3 -17.6 --- --- 727.4 0.019 0.000 10.4 7 1
02/22/06 6:09 a -8.5 -8.5 -8.6 --- --- 17.4 ENE 0.29 18.3 -17.8 --- --- 727.5 0.019 0.000 10.3 7 1
02/22/06 6:10 a -8.6 -8.6 -8.6 --- --- 13.9 ENE 0.23 16.5 -17.0 --- --- 727.6 0.019 0.000 10.3 7 1
02/22/06 6:11 a -8.6 -8.6 -8.6 --- --- 12.2 ENE 0.20 13.9 -16.5 --- --- 727.5 0.019 0.000 10.3 7 1
02/22/06 6:12 a -8.6 -8.6 -8.6 --- --- 12.2 ENE 0.20 14.8 -16.6 --- --- 727.5 0.019 0.000 10.3 7 1
02/22/06 6:13 a -8.7 -8.7 -8.8 --- --- 16.5 ENE 0.28 18.3 -17.8 --- --- 727.5 0.019 0.000 10.3 7 1
02/22/06 6:14 a -8.8 -8.8 -8.8 --- --- 16.5 ENE 0.28 17.4 -18.0 --- --- 727.5 0.019 0.000 10.3 7 1
02/22/06 6:15 a -8.8 -8.8 -8.8 --- --- 14.8 ENE 0.25 16.5 -17.6 --- --- 727.6 0.019 0.000 10.3 7 1
02/22/06 6:16 a -8.8 -8.8 -8.8 --- --- 10.4 ENE 0.17 12.2 -16.2 --- --- 727.5 0.019 0.000 10.2 7 1
02/22/06 6:17 a -8.8 -8.8 -8.9 --- --- 11.3 ENE 0.19 15.7 -16.6 --- --- 727.5 0.019 0.000 10.2 7 1
02/22/06 6:18 a -8.9 -8.9 -8.9 --- --- 17.4 ENE 0.29 18.3 -18.3 --- --- 727.4 0.019 0.000 10.2 7 1
02/22/06 6:19 a -9.0 -8.9 -9.0 --- --- 15.7 ENE 0.26 18.3 -18.0 --- --- 727.6 0.019 0.000 10.2 7 1
02/22/06 6:20 a -9.0 -9.0 -9.1 --- --- 13.0 NE 0.22 14.8 -17.3 --- --- 727.6 0.019 0.000 10.2 7 1
02/22/06 6:21 a -9.0 -9.0 -9.1 --- --- 12.2 ENE 0.20 13.0 -17.1 --- --- 727.6 0.019 0.000 10.2 7 1
02/22/06 6:22 a -9.0 -9.0 -9.0 --- --- 14.8 ENE 0.25 18.3 -17.8 --- --- 727.5 0.019 0.000 10.2 7 1
02/22/06 6:23 a -9.0 -8.9 -9.0 --- --- 16.5 NE 0.28 18.3 -18.2 --- --- 727.6 0.019 0.000 10.2 7 1
02/22/06 6:24 a -9.0 -9.0 -9.0 --- --- 11.3 NE 0.19 13.9 -16.7 --- --- 727.7 0.019 0.000 10.2 7 1
02/22/06 6:25 a -9.0 -9.0 -9.1 --- --- 10.4 NE 0.17 14.8 -16.4 --- --- 727.6 0.019 0.000 10.2 7 1
02/22/06 6:26 a -9.0 -8.9 -9.0 --- --- 15.7 ENE 0.26 17.4 -18.0 --- --- 727.6 0.019 0.000 10.2 7 1
02/22/06 6:27 a -8.9 -8.9 -9.0 --- --- 18.3 ENE 0.30 20.0 -18.6 --- --- 727.5 0.019 0.000 10.2 7 1
02/22/06 6:28 a -8.9 -8.9 -8.9 --- --- 14.8 NE 0.25 17.4 -17.7 --- --- 727.6 0.019 0.000 10.2 7 1
02/22/06 6:29 a -8.9 -8.9 -8.9 --- --- 13.0 NE 0.22 14.8 -17.2 --- --- 727.6 0.019 0.000 10.2 7 1
02/22/06 6:30 a -8.9 -8.9 -8.9 --- --- 15.7 ENE 0.26 17.4 -17.9 --- --- 727.5 0.019 0.000 10.1 7 1
02/22/06 6:31 a -8.9 -8.9 -8.9 --- --- 15.7 ENE 0.26 16.5 -17.8 --- --- 727.5 0.019 0.000 10.2 7 1
02/22/06 6:32 a -8.9 -8.8 -8.9 --- --- 13.9 ENE 0.23 16.5 -17.4 --- --- 727.6 0.019 0.000 10.1 7 1
02/22/06 6:33 a -8.8 -8.8 -8.8 --- --- 16.5 ENE 0.28 17.4 -18.0 --- --- 727.6 0.019 0.000 10.1 7 1
02/22/06 6:34 a -8.8 -8.8 -8.8 --- --- 15.7 ENE 0.26 17.4 -17.8 --- --- 727.6 0.019 0.000 10.1 7 1
02/22/06 6:35 a -8.8 -8.8 -8.8 --- --- 13.0 ENE 0.22 15.7 -17.1 --- --- 727.7 0.019 0.000 10.1 7 1
02/22/06 6:36 a -8.8 -8.8 -8.8 --- --- 13.9 ENE 0.23 17.4 -17.3 --- --- 727.5 0.019 0.000 10.1 7 1
02/22/06 6:37 a -8.8 -8.8 -8.8 --- --- 17.4 ENE 0.29 18.3 -18.1 --- --- 727.5 0.019 0.000 10.1 7 1
02/22/06 6:38 a -8.8 -8.7 -8.8 --- --- 15.7 ENE 0.26 17.4 -17.8 --- --- 727.6 0.019 0.000 10.1 7 1
02/22/06 6:39 a -8.7 -8.7 -8.7 --- --- 14.8 ENE 0.25 16.5 -17.4 --- --- 727.6 0.019 0.000 10.1 7 1
02/22/06 6:40 a -8.7 -8.7 -8.7 --- --- 14.8 ENE 0.25 16.5 -17.4 --- --- 727.6 0.019 0.000 10.1 7 1
02/22/06 6:41 a -8.7 -8.7 -8.7 --- --- 15.7 ENE 0.26 17.4 -17.7 --- --- 727.5 0.019 0.000 10.1 7 1
02/22/06 6:42 a -8.7 -8.7 -8.7 --- --- 15.7 ENE 0.26 17.4 -17.7 --- --- 727.6 0.019 0.000 10.1 7 1
02/22/06 6:43 a -8.7 -8.7 -8.7 --- --- 15.7 ENE 0.26 17.4 -17.7 --- --- 727.6 0.019 0.000 10.1 7 1
02/22/06 6:44 a -8.7 -8.7 -8.7 --- --- 15.7 ENE 0.26 17.4 -17.7 --- --- 727.5 0.019 0.000 10.1 7 1
02/22/06 6:45 a -8.7 -8.7 -8.7 --- --- 16.5 ENE 0.28 18.3 -17.8 --- --- 727.5 0.019 0.000 10.1 7 1
02/22/06 6:46 a -8.7 -8.7 -8.7 --- --- 14.8 ENE 0.25 16.5 -17.4 --- --- 727.6 0.019 0.000 10.0 7 1
02/22/06 6:47 a -8.7 -8.7 -8.7 --- --- 15.7 ENE 0.26 18.3 -17.7 --- --- 727.5 0.019 0.000 10.0 7 1
02/22/06 6:48 a -8.7 -8.7 -8.7 --- --- 16.5 ENE 0.28 17.4 -17.8 --- --- 727.6 0.019 0.000 10.0 7 1
02/22/06 6:49 a -8.7 -8.7 -8.7 --- --- 16.5 ENE 0.28 17.4 -17.8 --- --- 727.6 0.019 0.000 10.0 7 1
02/22/06 6:50 a -8.7 -8.7 -8.7 --- --- 14.8 NE 0.25 16.5 -17.4 --- --- 727.5 0.019 0.000 10.0 7 1
02/22/06 6:51 a -8.7 -8.6 -8.7 --- --- 15.7 ENE 0.26 18.3 -17.6 --- --- 727.5 0.019 0.000 10.0 7 1
02/22/06 6:52 a -8.7 -8.7 -8.7 --- --- 15.7 NE 0.26 17.4 -17.6 --- --- 727.6 0.019 0.000 10.0 7 1
02/22/06 6:53 a -8.7 -8.7 -8.7 --- --- 12.2 NE 0.20 14.8 -16.6 --- --- 727.6 0.019 0.000 10.0 7 1
02/22/06 6:54 a -8.7 -8.6 -8.7 --- --- 9.6 NE 0.16 12.2 -15.7 --- --- 727.5 0.019 0.000 9.9 7 1
02/22/06 6:55 a -8.7 -8.7 -8.7 --- --- 15.7 NE 0.26 17.4 -17.6 --- --- 727.5 0.019 0.000 9.9 7 1
02/22/06 6:56 a -8.7 -8.6 -8.7 --- --- 13.9 NE 0.23 15.7 -17.2 --- --- 727.5 0.019 0.000 9.9 7 1
02/22/06 6:57 a -8.6 -8.6 -8.7 --- --- 15.7 ENE 0.26 18.3 -17.6 --- --- 727.5 0.019 0.000 9.9 7 1
02/22/06 6:58 a -8.7 -8.6 -8.7 --- --- 16.5 NE 0.28 17.4 -17.8 --- --- 727.5 0.019 0.000 9.9 7 1
02/22/06 6:59 a -8.7 -8.7 -8.7 --- --- 13.0 NE 0.22 15.7 -16.9 --- --- 727.5 0.019 0.000 9.9 7 1
02/22/06 7:00 a -8.7 -8.7 -8.7 --- --- 13.9 NE 0.23 15.7 -17.2 --- --- 727.7 0.019 0.000 9.9 7 1
02/22/06 7:01 a -8.7 -8.7 -8.7 --- --- 14.8 NE 0.25 15.7 -17.4 --- --- 727.6 0.019 0.000 9.9 7 1
02/22/06 7:02 a -8.7 -8.7 -8.7 --- --- 14.8 NE 0.25 16.5 -17.4 --- --- 727.7 0.019 0.000 9.9 7 1
02/22/06 7:03 a -8.7 -8.7 -8.7 --- --- 13.9 ENE 0.23 16.5 -17.2 --- --- 727.6 0.019 0.000 9.9 7 1
02/22/06 7:04 a -8.7 -8.7 -8.7 --- --- 15.7 NE 0.26 17.4 -17.6 --- --- 727.6 0.019 0.000 9.9 7 1
02/22/06 7:05 a -8.7 -8.7 -8.7 --- --- 15.7 ENE 0.26 16.5 -17.6 --- --- 727.5 0.019 0.000 9.9 7 1
02/22/06 7:06 a -8.7 -8.6 -8.7 --- --- 14.8 ENE 0.25 16.5 -17.4 --- --- 727.7 0.019 0.000 9.9 7 1
02/22/06 7:07 a -8.7 -8.6 -8.7 --- --- 14.8 NE 0.25 16.5 -17.4 --- --- 727.7 0.019 0.000 9.9 7 1
02/22/06 7:08 a -8.7 -8.7 -8.7 --- --- 13.0 NE 0.22 13.9 -16.9 --- --- 727.5 0.019 0.000 9.9 7 1
02/22/06 7:09 a -8.7 -8.7 -8.7 --- --- 14.8 NE 0.25 16.5 -17.4 --- --- 727.6 0.019 0.000 9.9 7 1
02/22/06 7:10 a -8.6 -8.6 -8.7 --- --- 13.9 NE 0.23 14.8 -17.1 --- --- 727.5 0.019 0.000 9.9 7 1
02/22/06 7:11 a -8.6 -8.6 -8.6 --- --- 12.2 NE 0.20 13.9 -16.6 --- --- 727.6 0.019 0.000 9.8 7 1
02/22/06 7:12 a -8.6 -8.6 -8.6 --- --- 12.2 NE 0.20 13.9 -16.6 --- --- 727.6 0.019 0.000 9.8 7 1
02/22/06 7:13 a -8.6 -8.6 -8.6 --- --- 15.7 NE 0.26 17.4 -17.6 --- --- 727.4 0.019 0.000 9.9 7 1
02/22/06 7:14 a -8.6 -8.6 -8.6 --- --- 15.7 NE 0.26 17.4 -17.4 --- --- 727.5 0.019 0.000 9.9 7 1
02/22/06 7:15 a -8.6 -8.6 -8.6 --- --- 13.0 NE 0.22 14.8 -16.8 --- --- 727.6 0.019 0.000 9.8 7 1
02/22/06 7:16 a -8.6 -8.6 -8.6 --- --- 11.3 NE 0.19 13.0 -16.3 --- --- 727.5 0.019 0.000 9.8 7 1
02/22/06 7:17 a -8.6 -8.6 -8.6 --- --- 11.3 NE 0.19 12.2 -16.3 --- --- 727.5 0.019 0.000 9.8 7 1
02/22/06 7:18 a -8.6 -8.6 -8.6 --- --- 12.2 NE 0.20 14.8 -16.6 --- --- 727.5 0.019 0.000 9.8 7 1
02/22/06 7:19 a -8.6 -8.6 -8.6 --- --- 15.7 NE 0.26 18.3 -17.6 --- --- 727.6 0.019 0.000 9.9 7 1
02/22/06 7:20 a -8.6 -8.6 -8.6 --- --- 16.5 NE 0.28 17.4 -17.7 --- --- 727.5 0.019 0.000 9.9 7 1
02/22/06 7:21 a -8.6 -8.5 -8.6 --- --- 14.8 NE 0.25 15.7 -17.2 --- --- 727.7 0.019 0.000 9.8 7 1
02/22/06 7:22 a -8.5 -8.5 -8.5 --- --- 10.4 NE 0.17 12.2 -15.8 --- --- 727.7 0.019 0.000 9.8 7 1
02/22/06 7:23 a -8.5 -8.5 -8.5 --- --- 10.4 ENE 0.17 12.2 -15.8 --- --- 727.6 0.019 0.000 9.8 7 1
02/22/06 7:24 a -8.5 -8.4 -8.5 --- --- 11.3 ENE 0.19 12.2 -16.1 --- --- 727.7 0.019 0.000 9.8 7 1
02/22/06 7:25 a -8.5 -8.5 -8.5 --- --- 13.9 ENE 0.23 15.7 -16.9 --- --- 727.6 0.019 0.000 9.8 7 1
02/22/06 7:26 a -8.5 -8.4 -8.5 --- --- 12.2 ENE 0.20 13.9 -16.4 --- --- 727.6 0.019 0.000 9.8 7 1
02/22/06 7:27 a -8.6 -8.6 -8.6 --- --- 10.4 ENE 0.17 12.2 -15.9 --- --- 727.6 0.019 0.000 9.8 7 1
02/22/06 7:28 a -8.6 -8.6 -8.6 --- --- 13.0 ENE 0.22 14.8 -16.8 --- --- 727.6 0.019 0.000 9.8 7 1
02/22/06 7:29 a -8.6 -8.6 -8.6 --- --- 13.0 ENE 0.22 14.8 -16.8 --- --- 727.7 0.019 0.000 9.8 7 1
02/22/06 7:30 a -8.6 -8.6 -8.6 --- --- 12.2 ENE 0.20 13.9 -16.6 --- --- 727.6 0.019 0.000 9.8 7 1
02/22/06 7:31 a -8.6 -8.6 -8.6 --- --- 11.3 ENE 0.19 13.0 -16.3 --- --- 727.7 0.019 0.000 9.8 7 1
02/22/06 7:32 a -8.6 -8.6 -8.6 --- --- 12.2 ENE 0.20 13.0 -16.6 --- --- 727.7 0.019 0.000 9.8 7 1
02/22/06 7:33 a -8.6 -8.6 -8.6 --- --- 12.2 ENE 0.20 13.9 -16.6 --- --- 727.7 0.019 0.000 9.8 7 1
02/22/06 7:34 a -8.6 -8.6 -8.6 --- --- 12.2 ENE 0.20 13.0 -16.6 --- --- 727.7 0.019 0.000 9.8 7 1
02/22/06 7:35 a -8.6 -8.6 -8.6 --- --- 12.2 ENE 0.20 13.0 -16.6 --- --- 727.7 0.019 0.000 9.8 7 1
02/22/06 7:36 a -8.6 -8.6 -8.6 --- --- 13.0 ENE 0.22 13.0 -16.8 --- --- 727.7 0.019 0.000 9.8 7 1
02/22/06 7:37 a -8.6 -8.6 -8.6 --- --- 12.2 ENE 0.20 13.0 -16.6 --- --- 727.7 0.019 0.000 9.8 7 1
02/22/06 7:38 a -8.6 -8.6 -8.6 --- --- 9.6 NE 0.16 11.3 -15.6 --- --- 727.6 0.019 0.000 9.8 7 1
02/22/06 7:39 a -8.6 -8.6 -8.6 --- --- 10.4 ENE 0.17 13.0 -15.9 --- --- 727.6 0.019 0.000 9.8 7 1
02/22/06 7:40 a -8.6 -8.6 -8.6 --- --- 12.2 ENE 0.20 13.9 -16.5 --- --- 727.6 0.019 0.000 9.8 7 1
02/22/06 7:41 a -8.6 -8.5 -8.6 --- --- 13.0 ENE 0.22 13.9 -16.7 --- --- 727.7 0.019 0.000 9.8 7 1
02/22/06 7:42 a -8.6 -8.5 -8.6 --- --- 13.0 ENE 0.22 13.0 -16.7 --- --- 727.6 0.019 0.000 9.8 7 1
02/22/06 7:43 a -8.6 -8.6 -8.6 --- --- 12.2 ENE 0.20 13.0 -16.5 --- --- 727.7 0.019 0.000 9.8 7 1
02/22/06 7:44 a -8.6 -8.6 -8.6 --- --- 10.4 NE 0.17 12.2 -15.9 --- --- 727.7 0.019 0.000 9.7 7 1
02/22/06 7:45 a -8.6 -8.6 -8.6 --- --- 10.4 NE 0.17 11.3 -15.9 --- --- 727.7 0.019 0.000 9.7 7 1
02/22/06 7:46 a -8.6 -8.5 -8.6 --- --- 9.6 NE 0.16 10.4 -15.6 --- --- 727.7 0.019 0.000 9.7 7 1
02/22/06 7:47 a -8.5 -8.5 -8.5 --- --- 8.7 ENE 0.14 10.4 -15.1 --- --- 727.7 0.019 0.000 9.7 7 1
02/22/06 7:48 a -8.5 -8.4 -8.5 --- --- 11.3 ENE 0.19 13.0 -16.1 --- --- 727.7 0.019 0.000 9.7 7 1
02/22/06 7:49 a -8.4 -8.4 -8.4 --- --- 12.2 ENE 0.20 13.0 -16.3 --- --- 727.6 0.019 0.000 9.7 7 1
02/22/06 7:50 a -8.4 -8.4 -8.4 --- --- 12.2 ENE 0.20 13.0 -16.3 --- --- 727.6 0.019 0.000 9.7 7 1
02/22/06 7:51 a -8.4 -8.4 -8.4 --- --- 11.3 NE 0.19 12.2 -16.1 --- --- 727.7 0.019 0.000 9.7 7 1
02/22/06 7:52 a -8.4 -8.4 -8.4 --- --- 9.6 ENE 0.16 10.4 -15.4 --- --- 727.7 0.019 0.000 9.7 7 1
02/22/06 7:53 a -8.4 -8.4 -8.4 --- --- 10.4 ENE 0.17 12.2 -15.7 --- --- 727.8 0.019 0.000 9.7 7 1
02/22/06 7:54 a -8.4 -8.4 -8.4 --- --- 12.2 NE 0.20 13.0 -16.3 --- --- 727.6 0.019 0.000 9.7 7 1
02/22/06 7:55 a -8.4 -8.4 -8.4 --- --- 10.4 NE 0.17 12.2 -15.7 --- --- 727.7 0.019 0.000 9.7 7 1
02/22/06 7:56 a -8.4 -8.4 -8.4 --- --- 8.7 ENE 0.14 10.4 -15.1 --- --- 727.7 0.019 0.000 9.7 7 1
02/22/06 7:57 a -8.4 -8.4 -8.5 --- --- 9.6 ENE 0.16 10.4 -15.4 --- --- 727.8 0.019 0.000 9.7 7 1
02/22/06 7:58 a -8.5 -8.5 -8.5 --- --- 10.4 ENE 0.17 12.2 -15.8 --- --- 727.6 0.019 0.000 9.7 7 1
02/22/06 7:59 a -8.5 -8.4 -8.5 --- --- 11.3 ENE 0.19 12.2 -16.1 --- --- 727.7 0.019 0.000 9.7 7 1
02/22/06 8:00 a -8.4 -8.4 -8.5 --- --- 9.6 ENE 0.16 10.4 -15.4 --- --- 727.7 0.019 0.000 9.7 7 1
02/22/06 8:01 a -8.5 -8.5 -8.5 --- --- 8.7 ENE 0.14 10.4 -15.1 --- --- 727.7 0.019 0.000 9.7 7 1
02/22/06 8:02 a -8.5 -8.5 -8.5 --- --- 10.4 ENE 0.17 12.2 -15.8 --- --- 727.7 0.019 0.000 9.7 7 1
02/22/06 8:03 a -8.5 -8.5 -8.5 --- --- 11.3 ENE 0.19 12.2 -16.1 --- --- 727.7 0.019 0.000 9.7 7 1
02/22/06 8:04 a -8.5 -8.5 -8.5 --- --- 10.4 ENE 0.17 11.3 -15.8 --- --- 727.7 0.019 0.000 9.7 7 1
02/22/06 8:05 a -8.5 -8.5 -8.5 --- --- 9.6 NE 0.16 11.3 -15.5 --- --- 727.7 0.019 0.000 9.7 7 1
02/22/06 8:06 a -8.5 -8.5 -8.5 --- --- 7.8 NE 0.13 9.6 -14.7 --- --- 727.7 0.019 0.000 9.7 7 1
02/22/06 8:07 a -8.5 -8.5 -8.5 --- --- 8.7 NE 0.14 8.7 -15.1 --- --- 727.7 0.019 0.000 9.6 7 1
02/22/06 8:08 a -8.5 -8.5 -8.5 --- --- 8.7 NE 0.14 9.6 -15.1 --- --- 727.8 0.019 0.000 9.7 7 1
02/22/06 8:09 a -8.6 -8.5 -8.6 --- --- 8.7 NE 0.14 10.4 -15.2 --- --- 727.7 0.019 0.000 9.7 7 1
02/22/06 8:10 a -8.6 -8.6 -8.6 --- --- 8.7 NE 0.14 9.6 -15.2 --- --- 727.7 0.019 0.000 9.7 7 1
02/22/06 8:11 a -8.6 -8.6 -8.6 --- --- 11.3 ENE 0.19 12.2 -16.2 --- --- 727.7 0.019 0.000 9.6 7 1
02/22/06 8:12 a -8.6 -8.6 -8.6 --- --- 10.4 NE 0.17 12.2 -15.9 --- --- 727.8 0.019 0.000 9.7 7 1
02/22/06 8:13 a -8.6 -8.6 -8.7 --- --- 11.3 NE 0.19 12.2 -16.3 --- --- 727.7 0.019 0.000 9.7 7 1
02/22/06 8:14 a -8.7 -8.7 -8.7 --- --- 10.4 NE 0.17 11.3 -16.0 --- --- 727.8 0.019 0.000 9.7 7 1
02/22/06 8:15 a -8.7 -8.7 -8.7 --- --- 7.0 NE 0.12 8.7 -14.6 --- --- 727.8 0.019 0.000 9.7 7 1
02/22/06 8:16 a -8.7 -8.7 -8.7 --- --- 9.6 NE 0.16 11.3 -15.7 --- --- 727.8 0.019 0.000 9.6 7 1
02/22/06 8:17 a -8.7 -8.7 -8.7 --- --- 11.3 NE 0.19 12.2 -16.3 --- --- 727.8 0.019 0.000 9.6 7 1
02/22/06 8:18 a -8.7 -8.7 -8.7 --- --- 10.4 NE 0.17 11.3 -16.1 --- --- 727.8 0.019 0.000 9.6 7 1
02/22/06 8:19 a -8.7 -8.7 -8.7 --- --- 8.7 NE 0.14 10.4 -15.3 --- --- 727.8 0.019 0.000 9.7 7 1
02/22/06 8:20 a -8.7 -8.6 -8.7 --- --- 10.4 NE 0.17 11.3 -16.0 --- --- 727.9 0.019 0.000 9.6 7 1
02/22/06 8:21 a -8.6 -8.6 -8.7 --- --- 10.4 NE 0.17 12.2 -15.9 --- --- 727.7 0.019 0.000 9.6 7 1
02/22/06 8:22 a -8.6 -8.6 -8.6 --- --- 11.3 NE 0.19 12.2 -16.3 --- --- 727.8 0.019 0.000 9.6 7 1
02/22/06 8:23 a -8.6 -8.6 -8.7 --- --- 10.4 NE 0.17 11.3 -15.9 --- --- 727.8 0.019 0.000 9.6 7 1
02/22/06 8:24 a -8.7 -8.6 -8.7 --- --- 10.4 NE 0.17 11.3 -16.0 --- --- 727.9 0.019 0.000 9.6 7 1
02/22/06 8:25 a -8.6 -8.6 -8.7 --- --- 9.6 NE 0.16 11.3 -15.6 --- --- 727.8 0.019 0.000 9.6 7 1
02/22/06 8:26 a -8.6 -8.6 -8.6 --- --- 10.4 NE 0.17 13.0 -15.9 --- --- 727.8 0.019 0.000 9.6 7 1
02/22/06 8:27 a -8.6 -8.6 -8.7 --- --- 10.4 NE 0.17 12.2 -15.9 --- --- 727.8 0.019 0.000 9.6 7 1
02/22/06 8:28 a -8.7 -8.6 -8.7 --- --- 11.3 NE 0.19 13.0 -16.3 --- --- 727.8 0.019 0.000 9.6 7 1
02/22/06 8:29 a -8.7 -8.7 -8.7 --- --- 9.6 NE 0.16 10.4 -15.7 --- --- 727.8 0.019 0.000 9.6 7 1
02/22/06 8:30 a -8.7 -8.7 -8.7 --- --- 8.7 NE 0.14 10.4 -15.3 --- --- 727.8 0.019 0.000 9.6 7 1
02/22/06 8:31 a -8.7 -8.7 -8.7 --- --- 10.4 NE 0.17 11.3 -16.0 --- --- 727.9 0.019 0.000 9.6 7 1
02/22/06 8:32 a -8.7 -8.7 -8.7 --- --- 9.6 NE 0.16 11.3 -15.7 --- --- 727.9 0.019 0.000 9.6 7 1
02/22/06 8:33 a -8.7 -8.7 -8.7 --- --- 8.7 NE 0.14 10.4 -15.3 --- --- 727.9 0.019 0.000 9.6 7 1
02/22/06 8:34 a -8.7 -8.6 -8.7 --- --- 10.4 NE 0.17 11.3 -16.0 --- --- 727.8 0.019 0.000 9.6 7 1
02/22/06 8:35 a -8.6 -8.5 -8.6 --- --- 10.4 NE 0.17 11.3 -15.9 --- --- 727.8 0.019 0.000 9.5 7 1
02/22/06 8:36 a -8.4 -8.4 -8.5 --- --- 10.4 NE 0.17 11.3 -15.7 --- --- 727.8 0.019 0.000 9.5 7 1
02/22/06 8:37 a -8.4 -8.4 -8.4 --- --- 7.8 NE 0.13 8.7 -14.6 --- --- 727.9 0.019 0.000 9.4 7 1
02/22/06 8:38 a -8.3 -8.3 -8.4 --- --- 6.1 NNE 0.10 7.8 -13.7 --- --- 727.9 0.019 0.000 9.4 7 1
02/22/06 8:39 a -8.3 -8.3 -8.3 --- --- 6.1 NE 0.10 7.0 -13.6 --- --- 727.8 0.018 0.000 9.4 7 1
02/22/06 8:40 a -8.3 -8.3 -8.4 --- --- 7.8 NE 0.13 11.3 -14.6 --- --- 727.8 0.019 0.000 9.4 7 1
02/22/06 8:41 a -8.3 -8.2 -8.3 --- --- 10.4 NE 0.17 11.3 -15.6 --- --- 727.8 0.018 0.000 9.4 7 1
02/22/06 8:42 a -8.1 -8.1 -8.2 --- --- 10.4 NE 0.17 12.2 -15.3 --- --- 727.8 0.018 0.000 9.5 7 1
02/22/06 8:43 a -8.1 -8.1 -8.1 --- --- 9.6 NE 0.16 11.3 -14.9 --- --- 727.8 0.018 0.000 9.5 7 1
02/22/06 8:44 a -8.1 -8.1 -8.1 --- --- 7.8 NE 0.13 8.7 -14.2 --- --- 727.9 0.018 0.000 9.5 7 1
02/22/06 8:45 a -8.1 -8.1 -8.1 --- --- 8.7 NE 0.14 9.6 -14.6 --- --- 727.8 0.018 0.000 9.6 7 1
02/22/06 8:46 a -8.1 -8.1 -8.1 --- --- 10.4 ENE 0.17 11.3 -15.3 --- --- 727.7 0.018 0.000 9.6 7 1
02/22/06 8:47 a -8.0 -8.0 -8.0 --- --- 11.3 NE 0.19 12.2 -15.5 --- --- 727.8 0.018 0.000 9.6 7 1
02/22/06 8:48 a -8.0 -7.9 -8.0 --- --- 11.3 NE 0.19 13.0 -15.5 --- --- 727.9 0.018 0.000 9.6 7 1
02/22/06 8:49 a -7.9 -7.9 -8.0 --- --- 10.4 ENE 0.17 11.3 -15.1 --- --- 727.9 0.018 0.000 9.6 7 1
02/22/06 8:50 a -8.0 -7.9 -8.0 --- --- 9.6 ENE 0.16 10.4 -14.8 --- --- 727.9 0.018 0.000 9.6 7 1
02/22/06 8:51 a -8.0 -8.0 -8.0 --- --- 7.8 NE 0.13 8.7 -14.1 --- --- 727.8 0.018 0.000 9.6 7 1
02/22/06 8:52 a -8.0 -8.0 -8.0 --- --- 7.0 ENE 0.12 7.8 -13.7 --- --- 727.9 0.018 0.000 9.6 7 1
02/22/06 8:53 a -8.1 -8.0 -8.1 --- --- 7.8 NE 0.13 8.7 -14.2 --- --- 727.8 0.018 0.000 9.6 7 1
02/22/06 8:54 a -8.1 -8.1 -8.1 --- --- 9.6 NE 0.16 10.4 -14.9 --- --- 727.9 0.018 0.000 9.6 7 1
02/22/06 8:55 a -8.1 -8.1 -8.1 --- --- 7.8 NE 0.13 8.7 -14.2 --- --- 727.9 0.018 0.000 9.6 7 1
02/22/06 8:56 a -8.1 -8.1 -8.1 --- --- 7.8 NE 0.13 8.7 -14.2 --- --- 727.8 0.018 0.000 9.6 7 1
02/22/06 8:57 a -8.1 -8.1 -8.1 --- --- 8.7 NE 0.14 9.6 -14.7 --- --- 727.9 0.018 0.000 9.6 7 1
02/22/06 8:58 a -8.1 -8.1 -8.1 --- --- 8.7 NE 0.14 8.7 -14.7 --- --- 727.8 0.018 0.000 9.6 7 1
02/22/06 8:59 a -8.1 -8.1 -8.2 --- --- 8.7 NE 0.14 9.6 -14.7 --- --- 727.8 0.018 0.000 9.7 7 1
02/22/06 9:00 a -8.2 -8.1 -8.2 --- --- 8.7 NE 0.14 9.6 -14.7 --- --- 727.8 0.018 0.000 9.7 7 1
02/22/06 9:01 a -8.2 -8.2 -8.2 --- --- 7.8 NE 0.13 9.6 -14.3 --- --- 727.8 0.018 0.000 9.7 7 1
02/22/06 9:02 a -8.2 -8.2 -8.2 --- --- 9.6 NE 0.16 10.4 -15.1 --- --- 727.8 0.018 0.000 9.7 7 1
02/22/06 9:03 a -8.2 -8.2 -8.2 --- --- 9.6 NE 0.16 10.4 -15.1 --- --- 727.8 0.018 0.000 9.7 7 1
02/22/06 9:04 a -8.1 -8.1 -8.1 --- --- 7.8 NE 0.13 9.6 -14.3 --- --- 727.9 0.018 0.000 9.7 7 1
02/22/06 9:05 a -8.1 -8.1 -8.1 --- --- 7.8 NE 0.13 8.7 -14.3 --- --- 727.9 0.018 0.000 9.7 7 1
02/22/06 9:06 a -8.1 -8.1 -8.1 --- --- 8.7 NE 0.14 10.4 -14.7 --- --- 727.8 0.018 0.000 9.7 7 1
02/22/06 9:07 a -8.2 -8.1 -8.2 --- --- 9.6 ENE 0.16 10.4 -15.1 --- --- 727.8 0.018 0.000 9.7 7 1
02/22/06 9:08 a -8.2 -8.2 -8.2 --- --- 9.6 NE 0.16 10.4 -15.1 --- --- 727.8 0.018 0.000 9.7 7 1
02/22/06 9:09 a -8.2 -8.2 -8.2 --- --- 7.8 NE 0.13 8.7 -14.3 --- --- 727.8 0.018 0.000 9.7 7 1
02/22/06 9:10 a -8.2 -8.2 -8.2 --- --- 7.8 ENE 0.13 8.7 -14.4 --- --- 727.8 0.018 0.000 9.7 7 1
02/22/06 9:11 a -8.2 -8.2 -8.2 --- --- 9.6 ENE 0.16 9.6 -15.1 --- --- 727.9 0.018 0.000 9.8 7 1
02/22/06 9:12 a -8.2 -8.2 -8.2 --- --- 9.6 NE 0.16 9.6 -15.1 --- --- 727.9 0.018 0.000 9.8 7 1
02/22/06 9:13 a -8.2 -8.1 -8.2 --- --- 8.7 NE 0.14 9.6 -14.7 --- --- 727.8 0.018 0.000 9.8 7 1
02/22/06 9:14 a -8.1 -8.1 -8.1 --- --- 8.7 NE 0.14 9.6 -14.7 --- --- 727.9 0.018 0.000 9.8 7 1
02/22/06 9:15 a -8.1 -8.1 -8.1 --- --- 7.8 NE 0.13 8.7 -14.2 --- --- 727.9 0.018 0.000 9.8 7 1
02/22/06 9:16 a -8.0 -8.0 -8.1 --- --- 7.8 NE 0.13 9.6 -14.1 --- --- 727.8 0.018 0.000 9.8 7 1
02/22/06 9:17 a -8.0 -7.9 -8.0 --- --- 7.8 NE 0.13 8.7 -14.1 --- --- 727.9 0.018 0.000 9.8 7 1
02/22/06 9:18 a -8.0 -8.0 -8.0 --- --- 8.7 NE 0.14 9.6 -14.5 --- --- 727.8 0.018 0.000 9.8 7 1
02/22/06 9:19 a -7.9 -7.9 -7.9 --- --- 8.7 NE 0.14 9.6 -14.4 --- --- 727.9 0.018 0.000 9.8 7 1
02/22/06 9:20 a -7.9 -7.9 -7.9 --- --- 8.7 NE 0.14 9.6 -14.4 --- --- 727.8 0.018 0.000 9.9 7 1
02/22/06 9:21 a -7.9 -7.9 -8.0 --- --- 8.7 NE 0.14 9.6 -14.4 --- --- 727.9 0.018 0.000 9.9 7 1
02/22/06 9:22 a -8.0 -8.0 -8.0 --- --- 8.7 NE 0.14 9.6 -14.5 --- --- 727.9 0.018 0.000 9.9 7 1
02/22/06 9:23 a -8.1 -8.1 -8.1 --- --- 8.7 NE 0.14 9.6 -14.6 --- --- 727.8 0.018 0.000 9.9 7 1
02/22/06 9:24 a -8.1 -8.1 -8.2 --- --- 7.8 NE 0.13 9.6 -14.3 --- --- 727.9 0.018 0.000 9.9 7 1
02/22/06 9:25 a -8.2 -8.2 -8.2 --- --- 8.7 NE 0.14 9.6 -14.7 --- --- 727.9 0.018 0.000 9.9 7 1
02/22/06 9:26 a -8.2 -8.2 -8.3 --- --- 7.8 NE 0.13 8.7 -14.4 --- --- 728.0 0.018 0.000 9.9 7 1
02/22/06 9:27 a -8.3 -8.3 -8.3 --- --- 7.8 NE 0.13 8.7 -14.5 --- --- 727.9 0.018 0.000 9.9 7 1
02/22/06 9:28 a -8.4 -8.3 -8.4 --- --- 7.8 NE 0.13 8.7 -14.6 --- --- 727.9 0.019 0.000 9.9 7 1
02/22/06 9:29 a -8.4 -8.4 -8.4 --- --- 7.8 NE 0.13 8.7 -14.6 --- --- 728.0 0.019 0.000 9.9 7 1
02/22/06 9:30 a -8.4 -8.4 -8.5 --- --- 7.8 NE 0.13 8.7 -14.7 --- --- 727.9 0.019 0.000 9.9 7 1
02/22/06 9:31 a -8.6 -8.5 -8.6 --- --- 7.8 NE 0.13 7.8 -14.8 --- --- 728.0 0.019 0.000 9.9 7 1
02/22/06 9:32 a -8.6 -8.6 -8.6 --- --- 7.0 NE 0.12 7.8 -14.4 --- --- 727.9 0.019 0.000 9.9 7 1
02/22/06 9:33 a -8.6 -8.6 -8.6 --- --- 7.0 NE 0.12 7.0 -14.4 --- --- 728.0 0.019 0.000 9.9 7 1
02/22/06 9:34 a -8.6 -8.6 -8.6 --- --- 7.0 NE 0.12 7.8 -14.4 --- --- 727.9 0.019 0.000 10.0 7 1
02/22/06 9:35 a -8.6 -8.6 -8.6 --- --- 8.7 NE 0.14 9.6 -15.2 --- --- 727.9 0.019 0.000 10.0 7 1
02/22/06 9:36 a -8.5 -8.5 -8.5 --- --- 7.8 NNE 0.13 8.7 -14.7 --- --- 727.9 0.019 0.000 10.0 7 1
02/22/06 9:37 a -8.4 -8.3 -8.4 --- --- 7.8 NNE 0.13 8.7 -14.6 --- --- 727.9 0.019 0.000 10.0 7 1
02/22/06 9:38 a -8.3 -8.2 -8.3 --- --- 7.0 NNE 0.12 7.8 -14.1 --- --- 727.9 0.018 0.000 10.0 7 1
02/22/06 9:39 a -8.2 -8.2 -8.2 --- --- 7.0 NNE 0.12 7.8 -14.0 --- --- 727.9 0.018 0.000 10.1 7 1
02/22/06 9:40 a -8.2 -8.2 -8.2 --- --- 6.1 NNE 0.10 7.0 -13.5 --- --- 727.9 0.018 0.000 10.0 7 1
02/22/06 9:41 a -8.2 -8.2 -8.3 --- --- 5.2 NNE 0.09 7.8 -13.0 --- --- 728.2 0.018 0.000 10.1 7 1
02/22/06 9:42 a -8.2 -8.1 -8.2 --- --- 7.0 NNE 0.12 7.8 -13.9 --- --- 728.0 0.018 0.000 10.1 7 1
02/22/06 9:43 a -8.1 -8.0 -8.1 --- --- 7.0 NNE 0.12 9.6 -13.8 --- --- 728.0 0.018 0.000 10.1 7 1
02/22/06 9:44 a -7.9 -7.8 -7.9 --- --- 7.8 NNE 0.13 8.7 -14.0 --- --- 728.0 0.018 0.000 10.1 7 1
02/22/06 9:45 a -7.7 -7.6 -7.8 --- --- 8.7 NNE 0.14 8.7 -14.2 --- --- 728.0 0.018 0.000 10.1 7 1
02/22/06 9:46 a -7.5 -7.4 -7.6 --- --- 8.7 NNE 0.14 8.7 -13.9 --- --- 728.0 0.018 0.000 10.1 7 1
02/22/06 9:47 a -7.3 -7.2 -7.4 --- --- 8.7 NNE 0.14 10.4 -13.7 --- --- 728.1 0.018 0.000 10.1 7 1
02/22/06 9:48 a -7.3 -7.3 -7.3 --- --- 9.6 NE 0.16 9.6 -13.9 --- --- 728.2 0.018 0.000 10.1 7 1
02/22/06 9:49 a -7.3 -7.3 -7.3 --- --- 8.7 NE 0.14 10.4 -13.7 --- --- 728.1 0.018 0.000 10.1 7 1
02/22/06 9:50 a -7.3 -7.3 -7.3 --- --- 7.8 NE 0.13 9.6 -13.3 --- --- 728.1 0.018 0.000 10.1 7 1
02/22/06 9:51 a -7.3 -7.3 -7.3 --- --- 7.8 NE 0.13 11.3 -13.3 --- --- 728.1 0.018 0.000 10.1 7 1
02/22/06 9:52 a -7.3 -7.3 -7.3 --- --- 7.8 NE 0.13 10.4 -13.3 --- --- 728.0 0.018 0.000 10.1 7 1
02/22/06 9:53 a -7.3 -7.3 -7.3 --- --- 7.8 NE 0.13 8.7 -13.3 --- --- 728.1 0.018 0.000 10.1 7 1
02/22/06 9:54 a -7.3 -7.3 -7.3 --- --- 7.8 NE 0.13 8.7 -13.3 --- --- 728.0 0.018 0.000 10.1 7 1
02/22/06 9:55 a -7.3 -7.3 -7.3 --- --- 7.8 NE 0.13 8.7 -13.3 --- --- 728.1 0.018 0.000 10.1 7 1
02/22/06 9:56 a -7.3 -7.3 -7.3 --- --- 8.7 NE 0.14 10.4 -13.7 --- --- 728.1 0.018 0.000 10.1 7 1
02/22/06 9:57 a -7.3 -7.3 -7.3 --- --- 7.0 NE 0.12 7.8 -12.9 --- --- 728.1 0.018 0.000 10.1 7 1
02/22/06 9:58 a -7.3 -7.3 -7.3 --- --- 7.8 NE 0.13 8.7 -13.3 --- --- 728.2 0.018 0.000 10.1 7 1
02/22/06 9:59 a -7.3 -7.2 -7.3 --- --- 6.1 NE 0.10 7.8 -12.4 --- --- 728.1 0.018 0.000 10.1 7 1
02/22/06 10:00 a -7.3 -7.2 -7.3 --- --- 7.8 NE 0.13 8.7 -13.2 --- --- 728.2 0.018 0.000 10.1 7 1
02/22/06 10:01 a -7.3 -7.3 -7.3 --- --- 7.8 NE 0.13 9.6 -13.3 --- --- 728.1 0.018 0.000 10.1 7 1
02/22/06 10:02 a -7.3 -7.3 -7.3 --- --- 7.0 NE 0.12 7.8 -12.9 --- --- 728.1 0.018 0.000 10.1 7 1
02/22/06 10:03 a -7.3 -7.3 -7.3 --- --- 6.1 NE 0.10 7.0 -12.4 --- --- 728.1 0.018 0.000 10.1 7 1
02/22/06 10:04 a -7.3 -7.3 -7.4 --- --- 7.8 NE 0.13 8.7 -13.3 --- --- 728.2 0.018 0.000 10.1 7 1
02/22/06 10:05 a -7.4 -7.4 -7.4 --- --- 7.8 NE 0.13 8.7 -13.4 --- --- 728.2 0.018 0.000 10.1 7 1
02/22/06 10:06 a -7.4 -7.4 -7.4 --- --- 8.7 NE 0.14 11.3 -13.8 --- --- 728.2 0.018 0.000 10.1 7 1
02/22/06 10:07 a -7.4 -7.4 -7.4 --- --- 8.7 NE 0.14 9.6 -13.8 --- --- 728.1 0.018 0.000 10.0 7 1
02/22/06 10:08 a -7.5 -7.4 -7.5 --- --- 8.7 NNE 0.14 9.6 -13.9 --- --- 728.2 0.018 0.000 10.0 7 1
02/22/06 10:09 a -7.5 -7.4 -7.6 --- --- 7.0 NNE 0.12 8.7 -13.1 --- --- 728.2 0.018 0.000 10.0 7 1
02/22/06 10:10 a -7.4 -7.4 -7.5 --- --- 7.0 NNE 0.12 7.0 -13.1 --- --- 728.3 0.018 0.000 10.0 7 1
02/22/06 10:11 a -7.5 -7.5 -7.6 --- --- 7.0 NE 0.12 8.7 -13.1 --- --- 728.2 0.018 0.000 10.0 7 1
02/22/06 10:12 a -7.6 -7.6 -7.6 --- --- 7.8 NE 0.13 8.7 -13.7 --- --- 728.2 0.018 0.000 10.0 7 1
02/22/06 10:13 a -7.7 -7.7 -7.7 --- --- 7.8 NE 0.13 8.7 -13.7 --- --- 728.2 0.018 0.000 10.0 7 1
02/22/06 10:14 a -7.7 -7.7 -7.8 --- --- 8.7 NE 0.14 9.6 -14.2 --- --- 728.2 0.018 0.000 10.0 7 1
02/22/06 10:15 a -7.8 -7.8 -7.8 --- --- 7.0 NE 0.12 7.8 -13.4 --- --- 728.2 0.018 0.000 10.0 7 1
02/22/06 10:16 a -7.8 -7.8 -7.9 --- --- 7.8 NE 0.13 7.8 -13.9 --- --- 728.2 0.018 0.000 10.0 7 1
02/22/06 10:17 a -7.9 -7.9 -8.0 --- --- 7.8 NE 0.13 8.7 -14.1 --- --- 728.2 0.018 0.000 10.0 7 1
02/22/06 10:18 a -8.0 -8.0 -8.1 --- --- 8.7 NE 0.14 9.6 -14.5 --- --- 728.2 0.018 0.000 10.0 7 1
02/22/06 10:19 a -8.1 -8.1 -8.1 --- --- 7.8 NE 0.13 8.7 -14.2 --- --- 728.2 0.018 0.000 10.0 7 1
02/22/06 10:20 a -8.1 -8.1 -8.1 --- --- 7.8 NE 0.13 7.8 -14.2 --- --- 728.2 0.018 0.000 10.0 7 1
02/22/06 10:21 a -8.1 -8.1 -8.2 --- --- 7.8 NE 0.13 8.7 -14.3 --- --- 728.3 0.018 0.000 10.0 7 1
02/22/06 10:22 a -8.2 -8.2 -8.3 --- --- 8.7 NE 0.14 8.7 -14.8 --- --- 728.3 0.018 0.000 9.9 7 1
02/22/06 10:23 a -8.3 -8.3 -8.3 --- --- 7.8 NE 0.13 8.7 -14.5 --- --- 728.3 0.018 0.000 9.9 7 1
02/22/06 10:24 a -8.3 -8.3 -8.3 --- --- 7.8 NE 0.13 7.8 -14.6 --- --- 728.3 0.019 0.000 9.9 7 1
02/22/06 10:25 a -8.3 -8.3 -8.3 --- --- 7.0 NE 0.12 7.8 -14.1 --- --- 728.4 0.019 0.000 9.9 7 1
02/22/06 10:26 a -8.3 -8.3 -8.3 --- --- 6.1 NE 0.10 7.0 -13.7 --- --- 728.3 0.019 0.000 9.9 7 1
02/22/06 10:27 a -8.3 -8.2 -8.3 --- --- 7.0 NNE 0.12 8.7 -14.1 --- --- 728.3 0.018 0.000 9.9 7 1
02/22/06 10:28 a -8.2 -8.1 -8.2 --- --- 7.0 NNE 0.12 8.7 -13.9 --- --- 728.3 0.018 0.000 9.9 7 1
02/22/06 10:29 a -8.1 -8.1 -8.1 --- --- 7.8 NNE 0.13 8.7 -14.2 --- --- 728.3 0.018 0.000 9.9 7 1
02/22/06 10:30 a -8.0 -7.9 -8.0 --- --- 7.0 NNE 0.12 7.8 -13.7 --- --- 728.3 0.018 0.000 9.9 7 1
02/22/06 10:31 a -7.9 -7.9 -7.9 --- --- 6.1 NE 0.10 7.0 -13.1 --- --- 728.3 0.018 0.000 9.9 7 1
02/22/06 10:32 a -7.9 -7.8 -7.9 --- --- 6.1 NE 0.10 7.0 -13.1 --- --- 728.4 0.018 0.000 9.9 7 1
02/22/06 10:33 a -7.8 -7.8 -7.9 --- --- 6.1 NNE 0.10 7.8 -13.1 --- --- 728.3 0.018 0.000 9.9 7 1
02/22/06 10:34 a -7.7 -7.7 -7.7 --- --- 5.2 NNE 0.09 7.0 -12.3 --- --- 728.3 0.018 0.000 9.9 7 1
02/22/06 10:35 a -7.7 -7.7 -7.7 --- --- 6.1 NE 0.10 7.8 -12.8 --- --- 728.3 0.018 0.000 9.9 7 1
02/22/06 10:36 a -7.7 -7.7 -7.8 --- --- 5.2 NNE 0.09 7.0 -12.4 --- --- 728.4 0.018 0.000 9.8 7 1
02/22/06 10:37 a -7.7 -7.7 -7.7 --- --- 5.2 NNE 0.09 6.1 -12.4 --- --- 728.4 0.018 0.000 9.8 7 1
02/22/06 10:38 a -7.7 -7.7 -7.7 --- --- 6.1 NNE 0.10 7.0 -12.8 --- --- 728.4 0.018 0.000 9.8 7 1
02/22/06 10:39 a -7.7 -7.6 -7.7 --- --- 6.1 NNE 0.10 7.0 -12.8 --- --- 728.4 0.018 0.000 9.8 7 1
02/22/06 10:40 a -7.7 -7.6 -7.7 --- --- 6.1 NE 0.10 7.8 -12.8 --- --- 728.5 0.018 0.000 9.8 7 1
02/22/06 10:41 a -7.7 -7.7 -7.7 --- --- 6.1 NE 0.10 7.0 -12.8 --- --- 728.4 0.018 0.000 9.8 7 1
02/22/06 10:42 a -7.7 -7.7 -7.7 --- --- 6.1 NE 0.10 7.0 -12.8 --- --- 728.4 0.018 0.000 9.8 7 1
02/22/06 10:43 a -7.7 -7.7 -7.7 --- --- 6.1 NE 0.10 7.0 -12.8 --- --- 728.3 0.018 0.000 9.8 7 1
02/22/06 10:44 a -7.7 -7.6 -7.7 --- --- 6.1 NE 0.10 7.0 -12.8 --- --- 728.4 0.018 0.000 9.8 7 1
02/22/06 10:45 a -7.6 -7.6 -7.7 --- --- 6.1 NE 0.10 7.0 -12.8 --- --- 728.5 0.018 0.000 9.8 7 1
02/22/06 10:46 a -7.7 -7.6 -7.7 --- --- 5.2 NE 0.09 5.2 -12.3 --- --- 728.5 0.018 0.000 9.8 7 1
02/22/06 10:47 a -7.7 -7.7 -7.7 --- --- 6.1 NE 0.10 7.0 -12.8 --- --- 728.4 0.018 0.000 9.8 7 1
02/22/06 10:48 a -7.6 -7.6 -7.7 --- --- 5.2 NE 0.09 7.0 -12.3 --- --- 728.4 0.018 0.000 9.8 7 1
02/22/06 10:49 a -7.6 -7.6 -7.6 --- --- 5.2 NE 0.09 6.1 -12.3 --- --- 728.4 0.018 0.000 9.8 7 1
02/22/06 10:50 a -7.6 -7.6 -7.6 --- --- 5.2 NE 0.09 6.1 -12.3 --- --- 728.4 0.018 0.000 9.8 7 1
02/22/06 10:51 a -7.6 -7.6 -7.6 --- --- 5.2 NE 0.09 7.0 -12.2 --- --- 728.3 0.018 0.000 9.8 7 1
02/22/06 10:52 a -7.6 -7.6 -7.6 --- --- 5.2 NE 0.09 6.1 -12.2 --- --- 728.3 0.018 0.000 9.8 7 1
02/22/06 10:53 a -7.5 -7.5 -7.6 --- --- 6.1 NE 0.10 7.0 -12.7 --- --- 728.4 0.018 0.000 9.8 7 1
02/22/06 10:54 a -7.6 -7.5 -7.6 --- --- 6.1 NE 0.10 7.0 -12.7 --- --- 728.5 0.018 0.000 9.8 7 1
02/22/06 10:55 a -7.6 -7.6 -7.6 --- --- 7.0 NE 0.12 8.7 -13.2 --- --- 728.4 0.018 0.000 9.8 7 1
02/22/06 10:56 a -7.6 -7.6 -7.6 --- --- 7.0 NE 0.12 8.7 -13.2 --- --- 728.5 0.018 0.000 9.8 7 1
02/22/06 10:57 a -7.6 -7.6 -7.6 --- --- 7.0 NE 0.12 7.8 -13.2 --- --- 728.4 0.018 0.000 9.8 7 1
02/22/06 10:58 a -7.6 -7.6 -7.6 --- --- 7.0 NE 0.12 7.8 -13.2 --- --- 728.4 0.018 0.000 9.8 8 1
02/22/06 10:59 a -7.6 -7.6 -7.6 --- --- 7.0 NE 0.12 7.8 -13.2 --- --- 728.5 0.018 0.000 9.8 7 1
02/22/06 11:00 a -7.6 -7.6 -7.7 --- --- 7.0 NE 0.12 7.0 -13.2 --- --- 728.5 0.018 0.000 9.8 7 1
02/22/06 11:01 a -7.7 -7.6 -7.7 --- --- 6.1 NE 0.10 7.0 -12.8 --- --- 728.5 0.018 0.000 9.7 7 1
02/22/06 11:02 a -7.7 -7.7 -7.7 --- --- 7.0 NE 0.12 7.8 -13.3 --- --- 728.5 0.018 0.000 9.7 8 1
02/22/06 11:03 a -7.7 -7.6 -7.7 --- --- 7.0 NE 0.12 7.8 -13.3 --- --- 728.5 0.018 0.000 9.7 7 1
02/22/06 11:04 a -7.7 -7.6 -7.7 --- --- 7.0 NE 0.12 8.7 -13.3 --- --- 728.5 0.018 0.000 9.7 7 1
02/22/06 11:05 a -7.6 -7.6 -7.7 --- --- 7.0 NE 0.12 7.8 -13.2 --- --- 728.5 0.018 0.000 9.7 8 1
02/22/06 11:06 a -7.7 -7.6 -7.7 --- --- 6.1 NE 0.10 7.0 -12.8 --- --- 728.5 0.018 0.000 9.7 7 1
02/22/06 11:07 a -7.7 -7.7 -7.7 --- --- 5.2 NE 0.09 6.1 -12.3 --- --- 728.4 0.018 0.000 9.7 7 1
02/22/06 11:08 a -7.7 -7.6 -7.7 --- --- 6.1 NE 0.10 7.0 -12.8 --- --- 728.5 0.018 0.000 9.7 8 1
02/22/06 11:09 a -7.7 -7.7 -7.7 --- --- 6.1 NE 0.10 7.0 -12.9 --- --- 728.5 0.018 0.000 9.7 7 1
02/22/06 11:10 a -7.7 -7.7 -7.7 --- --- 5.2 NE 0.09 6.1 -12.4 --- --- 728.5 0.018 0.000 9.7 7 1
02/22/06 11:11 a -7.7 -7.7 -7.7 --- --- 5.2 NE 0.09 7.0 -12.4 --- --- 728.5 0.018 0.000 9.7 7 1
02/22/06 11:12 a -7.7 -7.7 -7.7 --- --- 5.2 NE 0.09 5.2 -12.3 --- --- 728.5 0.018 0.000 9.7 7 1
02/22/06 11:13 a -7.6 -7.6 -7.7 --- --- 5.2 NNE 0.09 6.1 -12.3 --- --- 728.4 0.018 0.000 9.7 7 1
02/22/06 11:14 a -7.6 -7.6 -7.6 --- --- 5.2 NNE 0.09 6.1 -12.2 --- --- 728.5 0.018 0.000 9.7 7 1
02/22/06 11:15 a -7.6 -7.6 -7.6 --- --- 4.3 NE 0.07 6.1 -11.6 --- --- 728.5 0.018 0.000 9.7 8 1
02/22/06 11:16 a -7.6 -7.6 -7.7 --- --- 5.2 NE 0.09 6.1 -12.3 --- --- 728.5 0.018 0.000 9.7 8 1
02/22/06 11:17 a -7.6 -7.6 -7.7 --- --- 2.6 NE 0.04 3.5 -10.1 --- --- 728.5 0.018 0.000 9.7 7 1
02/22/06 11:18 a -7.6 -7.4 -7.7 --- --- 2.6 NE 0.04 3.5 -10.1 --- --- 728.4 0.018 0.000 9.7 8 1
02/22/06 11:19 a -7.2 -7.1 -7.3 --- --- 3.5 NNE 0.06 3.5 -10.5 --- --- 728.5 0.018 0.000 9.7 7 1
02/22/06 11:20 a -6.9 -6.9 -7.1 --- --- 3.5 NNE 0.06 4.3 -10.2 --- --- 728.5 0.018 0.000 9.7 7 1
02/22/06 11:21 a -6.9 -6.9 -6.9 --- --- 3.5 NE 0.06 4.3 -10.2 --- --- 728.5 0.018 0.000 9.7 7 1
02/22/06 11:22 a -7.0 -6.9 -7.1 --- --- 4.3 NE 0.07 5.2 -10.9 --- --- 728.6 0.018 0.000 9.7 7 1
02/22/06 11:23 a -7.1 -7.1 -7.1 --- --- 4.3 NNE 0.07 5.2 -11.0 --- --- 728.5 0.018 0.000 9.7 7 1
02/22/06 11:24 a -7.1 -7.1 -7.1 --- --- 3.5 NNE 0.06 4.3 -10.3 --- --- 728.5 0.018 0.000 9.7 8 1
02/22/06 11:25 a -7.1 -7.1 -7.2 --- --- 4.3 NE 0.07 5.2 -11.1 --- --- 728.5 0.018 0.000 9.7 7 1
02/22/06 11:26 a -7.3 -7.2 -7.3 --- --- 5.2 NE 0.09 6.1 -11.9 --- --- 728.4 0.018 0.000 9.7 8 1
02/22/06 11:27 a -7.4 -7.3 -7.4 --- --- 5.2 NE 0.09 6.1 -12.0 --- --- 728.5 0.018 0.000 9.7 7 1
02/22/06 11:28 a -7.4 -7.4 -7.5 --- --- 5.2 NE 0.09 6.1 -12.1 --- --- 728.5 0.018 0.000 9.7 8 1
02/22/06 11:29 a -7.5 -7.5 -7.5 --- --- 3.5 NE 0.06 5.2 -10.8 --- --- 728.6 0.018 0.000 9.7 7 1
02/22/06 11:30 a -7.4 -7.4 -7.4 --- --- 4.3 NE 0.07 5.2 -11.4 --- --- 728.5 0.018 0.000 9.7 7 1
02/22/06 11:31 a -7.4 -7.4 -7.4 --- --- 4.3 NE 0.07 5.2 -11.4 --- --- 728.5 0.018 0.000 9.7 7 1
02/22/06 11:32 a -7.4 -7.4 -7.4 --- --- 3.5 NE 0.06 4.3 -10.7 --- --- 728.5 0.018 0.000 9.7 8 1
02/22/06 11:33 a -7.3 -7.2 -7.4 --- --- 2.6 NE 0.04 3.5 -9.8 --- --- 728.6 0.018 0.000 9.7 7 1
02/22/06 11:34 a -7.1 -7.1 -7.1 --- --- 3.5 NE 0.06 4.3 -10.4 --- --- 728.5 0.018 0.000 9.7 8 1
02/22/06 11:35 a -7.1 -7.1 -7.1 --- --- 5.2 NE 0.09 7.0 -11.7 --- --- 728.6 0.018 0.000 9.7 7 1
02/22/06 11:36 a -7.2 -7.1 -7.2 --- --- 5.2 NE 0.09 7.0 -11.7 --- --- 728.6 0.018 0.000 9.7 8 1
02/22/06 11:37 a -7.3 -7.2 -7.3 --- --- 4.3 NE 0.07 6.1 -11.3 --- --- 728.5 0.018 0.000 9.7 8 1
02/22/06 11:38 a -7.3 -7.3 -7.4 --- --- 4.3 NE 0.07 5.2 -11.3 --- --- 728.6 0.018 0.000 9.7 8 1
02/22/06 11:39 a -7.4 -7.4 -7.4 --- --- 3.5 NE 0.06 5.2 -10.7 --- --- 728.6 0.018 0.000 9.7 8 1
02/22/06 11:40 a -7.4 -7.4 -7.4 --- --- 3.5 NE 0.06 5.2 -10.8 --- --- 728.6 0.018 0.000 9.7 8 1
02/22/06 11:41 a -7.4 -7.4 -7.4 --- --- 3.5 NE 0.06 4.3 -10.8 --- --- 728.5 0.018 0.000 9.7 7 1
02/22/06 11:42 a -7.4 -7.4 -7.4 --- --- 2.6 NE 0.04 3.5 -9.8 --- --- 728.6 0.018 0.000 9.7 8 1
02/22/06 11:43 a -7.4 -7.3 -7.4 --- --- 1.7 NE 0.03 2.6 -8.7 --- --- 728.5 0.018 0.000 9.7 8 1
02/22/06 11:44 a -7.3 -7.1 -7.4 --- --- 2.6 NE 0.04 3.5 -9.7 --- --- 728.6 0.018 0.000 9.6 8 1
02/22/06 11:45 a -7.1 -7.1 -7.1 --- --- 1.7 NNE 0.03 2.6 -8.3 --- --- 728.6 0.018 0.000 9.7 7 1
02/22/06 11:46 a -7.1 -7.1 -7.1 --- --- 3.5 NNE 0.06 4.3 -10.3 --- --- 728.6 0.018 0.000 9.6 8 1
02/22/06 11:47 a -7.2 -7.1 -7.2 --- --- 3.5 NE 0.06 3.5 -10.4 --- --- 728.6 0.018 0.000 9.6 7 1
02/22/06 11:48 a -7.3 -7.2 -7.3 --- --- 2.6 NE 0.04 3.5 -9.7 --- --- 728.6 0.018 0.000 9.6 8 1
02/22/06 11:49 a -7.2 -7.2 -7.3 --- --- 1.7 NE 0.03 2.6 -8.5 --- --- 728.6 0.018 0.000 9.6 8 1
02/22/06 11:50 a -7.2 -7.1 -7.2 --- --- 1.7 NE 0.03 2.6 -8.4 --- --- 728.6 0.018 0.000 9.6 7 1
02/22/06 11:51 a -7.1 -7.1 -7.2 --- --- 1.7 NE 0.03 1.7 -8.4 --- --- 728.7 0.018 0.000 9.6 8 1
02/22/06 11:52 a -7.1 -7.1 -7.1 --- --- 1.7 NE 0.03 2.6 -8.4 --- --- 728.6 0.018 0.000 9.6 8 1
02/22/06 11:53 a -7.2 -7.1 -7.2 --- --- 2.6 NE 0.04 4.3 -9.6 --- --- 728.6 0.018 0.000 9.6 8 1
02/22/06 11:54 a -7.2 -7.2 -7.3 --- --- 2.6 NE 0.04 3.5 -9.7 --- --- 728.6 0.018 0.000 9.6 8 1
02/22/06 11:55 a -7.3 -7.3 -7.3 --- --- 0.9 NE 0.01 2.6 -7.3 --- --- 728.7 0.018 0.000 9.6 7 1
02/22/06 11:56 a -7.2 -7.1 -7.3 --- --- 0.9 NE 0.01 1.7 -7.2 --- --- 728.8 0.018 0.000 9.6 8 1
02/22/06 11:57 a -7.1 -7.0 -7.1 --- --- 1.7 NE 0.03 2.6 -8.3 --- --- 728.5 0.018 0.000 9.6 8 1
02/22/06 11:58 a -6.9 -6.9 -7.0 --- --- 1.7 NE 0.03 2.6 -8.2 --- --- 728.6 0.018 0.000 9.6 7 1
02/22/06 11:59 a -6.9 -6.9 -6.9 --- --- 1.7 NNE 0.03 2.6 -8.2 --- --- 728.6 0.018 0.000 9.6 8 1
02/22/06 12:00 p -6.9 -6.8 -6.9 --- --- 1.7 N 0.03 2.6 -8.2 --- --- 728.6 0.018 0.000 9.6 8 1
02/22/06 12:01 p -6.9 -6.9 -6.9 --- --- 0.9 N 0.01 1.7 -6.9 --- --- 728.6 0.018 0.000 9.6 8 1
02/22/06 12:02 p -6.9 -6.9 -6.9 --- --- 1.7 N 0.03 2.6 -8.2 --- --- 728.6 0.018 0.000 9.6 8 1
02/22/06 12:03 p -6.9 -6.9 -6.9 --- --- 1.7 N 0.03 2.6 -8.2 --- --- 728.6 0.018 0.000 9.6 8 1
02/22/06 12:04 p -6.9 -6.9 -6.9 --- --- 1.7 N 0.03 1.7 -8.2 --- --- 728.7 0.018 0.000 9.6 8 1
02/22/06 12:05 p -6.9 -6.9 -6.9 --- --- 1.7 N 0.03 1.7 -8.2 --- --- 728.6 0.018 0.000 9.6 8 1
02/22/06 12:06 p -6.9 -6.8 -6.9 --- --- 1.7 N 0.03 2.6 -8.2 --- --- 728.6 0.018 0.000 9.6 8 1
02/22/06 12:07 p -6.8 -6.8 -6.8 --- --- 1.7 N 0.03 2.6 -8.0 --- --- 728.6 0.017 0.000 9.6 8 1
02/22/06 12:08 p -6.8 -6.8 -6.8 --- --- 1.7 N 0.03 2.6 -8.0 --- --- 728.6 0.017 0.000 9.6 8 1
02/22/06 12:09 p -6.8 -6.8 -6.8 --- --- 1.7 N 0.03 2.6 -8.0 --- --- 728.6 0.017 0.000 9.6 8 1
02/22/06 12:10 p -6.8 -6.8 -6.8 --- --- 0.9 N 0.01 0.9 -6.8 --- --- 728.7 0.017 0.000 9.6 8 1
02/22/06 12:11 p -6.8 -6.8 -6.9 --- --- 0.9 N 0.01 1.7 -6.8 --- --- 728.8 0.017 0.000 9.6 8 1
02/22/06 12:12 p -6.8 -6.8 -6.9 --- --- 2.6 N 0.04 3.5 -9.2 --- --- 728.7 0.017 0.000 9.6 8 1
02/22/06 12:13 p -6.7 -6.7 -6.8 --- --- 1.7 N 0.03 2.6 -7.9 --- --- 728.7 0.017 0.000 9.6 8 1
02/22/06 12:14 p -6.7 -6.7 -6.7 --- --- 1.7 N 0.03 2.6 -7.9 --- --- 728.6 0.017 0.000 9.6 8 1
02/22/06 12:15 p -6.7 -6.7 -6.7 --- --- 1.7 N 0.03 2.6 -7.9 --- --- 728.7 0.017 0.000 9.6 8 1
02/22/06 12:16 p -6.6 -6.6 -6.7 --- --- 1.7 N 0.03 2.6 -7.8 --- --- 728.6 0.017 0.000 9.6 8 1
02/22/06 12:17 p -6.6 -6.6 -6.6 --- --- 0.0 --- 0.00 0.9 -6.6 --- --- 728.6 0.017 0.000 9.6 8 1
02/22/06 12:18 p -6.6 -6.6 -6.6 --- --- 0.0 N 0.00 0.9 -6.6 --- --- 728.6 0.017 0.000 9.6 8 1
02/22/06 12:19 p -6.6 -6.6 -6.7 --- --- 0.0 N 0.00 0.9 -6.6 --- --- 728.7 0.017 0.000 9.6 8 1
02/22/06 12:20 p -6.6 -6.6 -6.6 --- --- 0.0 --- 0.00 0.0 -6.6 --- --- 728.7 0.017 0.000 9.6 8 1
02/22/06 12:21 p -6.6 -6.6 -6.6 --- --- 0.0 --- 0.00 0.0 -6.6 --- --- 728.8 0.017 0.000 9.6 8 1
02/22/06 12:22 p -6.7 -6.6 -6.7 --- --- 0.0 --- 0.00 0.0 -6.7 --- --- 728.7 0.017 0.000 9.6 8 1
02/22/06 12:23 p -6.7 -6.7 -6.7 --- --- 0.0 --- 0.00 0.0 -6.7 --- --- 728.7 0.017 0.000 9.6 8 1
02/22/06 12:24 p -6.7 -6.7 -6.7 --- --- 0.0 --- 0.00 0.9 -6.7 --- --- 728.7 0.017 0.000 9.6 8 1
02/22/06 12:25 p -6.7 -6.7 -6.7 --- --- 0.0 --- 0.00 0.0 -6.7 --- --- 728.7 0.017 0.000 9.6 8 1
02/22/06 12:26 p -6.7 -6.7 -6.7 --- --- 0.0 N 0.00 1.7 -6.7 --- --- 728.7 0.017 0.000 9.6 8 1
02/22/06 12:27 p -6.7 -6.7 -6.8 --- --- 1.7 N 0.03 1.7 -7.9 --- --- 728.7 0.017 0.000 9.6 8 1
02/22/06 12:28 p -6.8 -6.8 -6.8 --- --- 0.9 N 0.01 1.7 -6.8 --- --- 728.8 0.017 0.000 9.6 8 1
02/22/06 12:29 p -6.8 -6.8 -6.8 --- --- 1.7 N 0.03 1.7 -8.1 --- --- 728.7 0.017 0.000 9.6 8 1
02/22/06 12:30 p -6.8 -6.8 -6.8 --- --- 0.9 N 0.01 1.7 -6.8 --- --- 728.8 0.017 0.000 9.6 8 1
02/22/06 12:31 p -6.8 -6.8 -6.8 --- --- 1.7 N 0.03 2.6 -8.0 --- --- 728.8 0.017 0.000 9.6 8 1
02/22/06 12:32 p -6.7 -6.7 -6.7 --- --- 2.6 N 0.04 2.6 -9.1 --- --- 728.8 0.017 0.000 9.6 8 1
02/22/06 12:33 p -6.7 -6.7 -6.7 --- --- 1.7 N 0.03 2.6 -7.9 --- --- 728.9 0.017 0.000 9.6 8 1
02/22/06 12:34 p -6.8 -6.8 -6.8 --- --- 1.7 N 0.03 2.6 -8.0 --- --- 728.7 0.017 0.000 9.6 8 1
02/22/06 12:35 p -6.8 -6.8 -6.9 --- --- 1.7 N 0.03 2.6 -8.1 --- --- 728.8 0.017 0.000 9.6 8 1
02/22/06 12:36 p -6.9 -6.8 -6.9 --- --- 1.7 N 0.03 1.7 -8.2 --- --- 728.7 0.018 0.000 9.6 8 1
02/22/06 12:37 p -6.9 -6.9 -6.9 --- --- 0.9 N 0.01 1.7 -6.9 --- --- 728.7 0.018 0.000 9.5 8 1
02/22/06 12:38 p -6.9 -6.9 -6.9 --- --- 1.7 N 0.03 2.6 -8.2 --- --- 728.8 0.018 0.000 9.5 8 1
02/22/06 12:39 p -6.9 -6.9 -6.9 --- --- 2.6 N 0.04 2.6 -9.3 --- --- 728.7 0.018 0.000 9.5 8 1
02/22/06 12:40 p -6.9 -6.9 -6.9 --- --- 1.7 N 0.03 3.5 -8.2 --- --- 728.7 0.018 0.000 9.5 8 1
02/22/06 12:41 p -6.9 -6.9 -6.9 --- --- 1.7 N 0.03 2.6 -8.2 --- --- 728.8 0.018 0.000 9.5 8 1
02/22/06 12:42 p -6.9 -6.9 -7.0 --- --- 1.7 N 0.03 2.6 -8.2 --- --- 728.8 0.018 0.000 9.5 8 1
02/22/06 12:43 p -7.0 -6.9 -7.0 --- --- 1.7 N 0.03 2.6 -8.3 --- --- 728.7 0.018 0.000 9.5 8 1
02/22/06 12:44 p -7.0 -7.0 -7.0 --- --- 1.7 N 0.03 1.7 -8.3 --- --- 728.8 0.018 0.000 9.5 8 1
02/22/06 12:45 p -7.0 -7.0 -7.0 --- --- 1.7 N 0.03 2.6 -8.3 --- --- 728.8 0.018 0.000 9.5 8 1
02/22/06 12:46 p -7.0 -6.9 -7.0 --- --- 1.7 N 0.03 3.5 -8.3 --- --- 728.9 0.018 0.000 9.5 8 1
02/22/06 12:47 p -6.9 -6.9 -7.0 --- --- 1.7 N 0.03 2.6 -8.2 --- --- 728.8 0.018 0.000 9.5 8 1
02/22/06 12:48 p -6.9 -6.9 -7.0 --- --- 1.7 N 0.03 2.6 -8.2 --- --- 728.8 0.018 0.000 9.4 8 1
02/22/06 12:49 p -7.0 -6.9 -7.0 --- --- 1.7 N 0.03 2.6 -8.3 --- --- 728.8 0.018 0.000 9.4 8 1
02/22/06 12:50 p -6.9 -6.9 -7.0 --- --- 1.7 N 0.03 2.6 -8.2 --- --- 728.8 0.018 0.000 9.4 8 1
02/22/06 12:51 p -6.9 -6.9 -6.9 --- --- 1.7 N 0.03 2.6 -8.2 --- --- 728.9 0.018 0.000 9.5 8 1
02/22/06 12:52 p -7.0 -7.0 -7.0 --- --- 1.7 N 0.03 2.6 -8.3 --- --- 728.8 0.018 0.000 9.5 8 1
02/22/06 12:53 p -7.0 -6.9 -7.0 --- --- 1.7 N 0.03 2.6 -8.3 --- --- 728.7 0.018 0.000 9.5 8 1
02/22/06 12:54 p -7.0 -7.0 -7.0 --- --- 1.7 N 0.03 2.6 -8.3 --- --- 728.7 0.018 0.000 9.5 8 1
02/22/06 12:55 p -6.9 -6.9 -7.0 --- --- 1.7 N 0.03 2.6 -8.2 --- --- 728.8 0.018 0.000 9.5 8 1
02/22/06 12:56 p -6.9 -6.9 -6.9 --- --- 1.7 N 0.03 1.7 -8.2 --- --- 728.8 0.018 0.000 9.5 8 1
02/22/06 12:57 p -6.9 -6.9 -6.9 --- --- 0.9 N 0.01 2.6 -6.9 --- --- 728.8 0.018 0.000 9.5 8 1
02/22/06 12:58 p -6.9 -6.9 -6.9 --- --- 0.0 N 0.00 0.9 -6.9 --- --- 728.9 0.018 0.000 9.5 8 1
02/22/06 12:59 p -6.9 -6.9 -6.9 --- --- 0.0 N 0.00 1.7 -6.9 --- --- 728.8 0.018 0.000 9.4 8 1
02/22/06 1:00 p -6.9 -6.9 -6.9 --- --- 0.9 N 0.01 1.7 -6.9 --- --- 728.8 0.018 0.000 9.5 8 1
02/22/06 1:01 p -6.9 -6.9 -6.9 --- --- 0.0 N 0.00 1.7 -6.9 --- --- 728.8 0.018 0.000 9.5 8 1
02/22/06 1:02 p -6.9 -6.9 -6.9 --- --- 1.7 N 0.03 2.6 -8.2 --- --- 728.9 0.018 0.000 9.5 8 1
02/22/06 1:03 p -6.9 -6.9 -6.9 --- --- 1.7 N 0.03 3.5 -8.2 --- --- 728.8 0.018 0.000 9.5 8 1
02/22/06 1:04 p -6.9 -6.9 -7.0 --- --- 1.7 N 0.03 2.6 -8.2 --- --- 728.7 0.018 0.000 9.5 8 1
02/22/06 1:05 p -6.9 -6.9 -7.0 --- --- 1.7 N 0.03 1.7 -8.2 --- --- 728.8 0.018 0.000 9.4 8 1
02/22/06 1:06 p -7.0 -6.9 -7.0 --- --- 0.9 N 0.01 1.7 -7.0 --- --- 728.8 0.018 0.000 9.4 8 1
02/22/06 1:07 p -7.0 -6.9 -7.0 --- --- 0.9 N 0.01 1.7 -7.0 --- --- 728.8 0.018 0.000 9.4 8 1
02/22/06 1:08 p -7.0 -6.9 -7.0 --- --- 1.7 N 0.03 2.6 -8.3 --- --- 728.9 0.018 0.000 9.4 8 1
02/22/06 1:09 p -7.0 -7.0 -7.0 --- --- 2.6 N 0.04 3.5 -9.4 --- --- 728.8 0.018 0.000 9.4 8 1
02/22/06 1:10 p -7.0 -7.0 -7.1 --- --- 3.5 N 0.06 4.3 -10.3 --- --- 728.9 0.018 0.000 9.4 8 1
02/22/06 1:11 p -7.0 -7.0 -7.0 --- --- 2.6 N 0.04 3.5 -9.4 --- --- 728.9 0.018 0.000 9.4 8 1
02/22/06 1:12 p -7.0 -7.0 -7.1 --- --- 2.6 N 0.04 3.5 -9.4 --- --- 728.9 0.018 0.000 9.4 8 1
02/22/06 1:13 p -7.1 -7.1 -7.1 --- --- 2.6 N 0.04 3.5 -9.4 --- --- 728.9 0.018 0.000 9.5 8 1
02/22/06 1:14 p -7.1 -7.1 -7.1 --- --- 1.7 N 0.03 3.5 -8.3 --- --- 728.8 0.018 0.000 9.5 8 1
02/22/06 1:15 p -7.1 -7.1 -7.1 --- --- 3.5 N 0.06 4.3 -10.3 --- --- 728.8 0.018 0.000 9.4 8 1
02/22/06 1:16 p -7.1 -7.1 -7.1 --- --- 3.5 N 0.06 4.3 -10.3 --- --- 728.8 0.018 0.000 9.4 8 1
02/22/06 1:17 p -7.1 -7.1 -7.1 --- --- 2.6 N 0.04 2.6 -9.4 --- --- 728.8 0.018 0.000 9.4 8 1
02/22/06 1:18 p -7.1 -7.1 -7.1 --- --- 2.6 N 0.04 2.6 -9.4 --- --- 728.9 0.018 0.000 9.4 8 1
02/22/06 1:19 p -7.1 -7.1 -7.1 --- --- 1.7 N 0.03 2.6 -8.3 --- --- 728.8 0.018 0.000 9.4 8 1
02/22/06 1:20 p -7.1 -7.1 -7.1 --- --- 1.7 N 0.03 2.6 -8.3 --- --- 728.9 0.018 0.000 9.4 8 1
02/22/06 1:21 p -7.1 -7.1 -7.1 --- --- 1.7 N 0.03 2.6 -8.4 --- --- 728.8 0.018 0.000 9.4 8 1
02/22/06 1:22 p -7.1 -7.1 -7.1 --- --- 1.7 N 0.03 1.7 -8.4 --- --- 728.8 0.018 0.000 9.3 8 1
02/22/06 1:23 p -7.1 -7.1 -7.2 --- --- 1.7 N 0.03 2.6 -8.4 --- --- 728.9 0.018 0.000 9.3 8 1
02/22/06 1:24 p -7.1 -7.1 -7.2 --- --- 1.7 N 0.03 1.7 -8.4 --- --- 728.9 0.018 0.000 9.3 8 1
02/22/06 1:25 p -7.2 -7.2 -7.2 --- --- 1.7 N 0.03 2.6 -8.4 --- --- 728.9 0.018 0.000 9.3 8 1
02/22/06 1:26 p -7.2 -7.2 -7.2 --- --- 1.7 N 0.03 1.7 -8.4 --- --- 728.8 0.018 0.000 9.3 8 1
02/22/06 1:27 p -7.2 -7.2 -7.3 --- --- 1.7 N 0.03 2.6 -8.5 --- --- 728.8 0.018 0.000 9.3 8 1
02/22/06 1:28 p -7.2 -7.2 -7.3 --- --- 1.7 N 0.03 1.7 -8.5 --- --- 728.8 0.018 0.000 9.3 8 1
02/22/06 1:29 p -7.3 -7.3 -7.3 --- --- 1.7 N 0.03 1.7 -8.6 --- --- 728.8 0.018 0.000 9.3 8 1
02/22/06 1:30 p -7.3 -7.3 -7.3 --- --- 2.6 N 0.04 2.6 -9.8 --- --- 729.0 0.018 0.000 9.3 8 1
02/22/06 1:31 p -7.3 -7.3 -7.3 --- --- 1.7 N 0.03 2.6 -8.6 --- --- 728.9 0.018 0.000 9.3 8 1
02/22/06 1:32 p -7.3 -7.3 -7.3 --- --- 1.7 N 0.03 2.6 -8.6 --- --- 728.9 0.018 0.000 9.3 8 1
02/22/06 1:33 p -7.3 -7.3 -7.3 --- --- 1.7 N 0.03 2.6 -8.6 --- --- 728.8 0.018 0.000 9.3 8 1
02/22/06 1:34 p -7.3 -7.3 -7.3 --- --- 1.7 N 0.03 1.7 -8.6 --- --- 728.9 0.018 0.000 9.3 8 1
02/22/06 1:35 p -7.3 -7.3 -7.3 --- --- 1.7 N 0.03 2.6 -8.6 --- --- 728.9 0.018 0.000 9.3 8 1
02/22/06 1:36 p -7.3 -7.3 -7.3 --- --- 2.6 N 0.04 3.5 -9.8 --- --- 728.9 0.018 0.000 9.3 8 1
02/22/06 1:37 p -7.3 -7.3 -7.3 --- --- 2.6 N 0.04 2.6 -9.7 --- --- 728.8 0.018 0.000 9.3 8 1
02/22/06 1:38 p -7.3 -7.3 -7.3 --- --- 2.6 N 0.04 3.5 -9.7 --- --- 728.9 0.018 0.000 9.3 8 1
02/22/06 1:39 p -7.3 -7.3 -7.3 --- --- 2.6 N 0.04 3.5 -9.7 --- --- 728.9 0.018 0.000 9.3 8 1
02/22/06 1:40 p -7.3 -7.3 -7.3 --- --- 3.5 N 0.06 3.5 -10.6 --- --- 729.0 0.018 0.000 9.3 8 1
02/22/06 1:41 p -7.3 -7.3 -7.3 --- --- 3.5 N 0.06 3.5 -10.6 --- --- 728.9 0.018 0.000 9.3 8 1
02/22/06 1:42 p -7.2 -7.2 -7.3 --- --- 2.6 N 0.04 3.5 -9.7 --- --- 729.0 0.018 0.000 9.3 8 1
02/22/06 1:43 p -7.2 -7.2 -7.3 --- --- 3.5 N 0.06 3.5 -10.5 --- --- 728.9 0.018 0.000 9.4 8 1
02/22/06 1:44 p -7.2 -7.2 -7.2 --- --- 2.6 N 0.04 3.5 -9.7 --- --- 728.9 0.018 0.000 9.4 8 1
02/22/06 1:45 p -7.2 -7.2 -7.3 --- --- 3.5 N 0.06 3.5 -10.5 --- --- 728.9 0.018 0.000 9.3 8 1
02/22/06 1:46 p -7.3 -7.3 -7.3 --- --- 3.5 N 0.06 4.3 -10.6 --- --- 728.9 0.018 0.000 9.4 8 1
02/22/06 1:47 p -7.2 -7.2 -7.3 --- --- 2.6 N 0.04 4.3 -9.7 --- --- 728.9 0.018 0.000 9.4 9 1
02/22/06 1:48 p -7.2 -7.2 -7.3 --- --- 2.6 N 0.04 3.5 -9.7 --- --- 728.9 0.018 0.000 9.4 8 1
02/22/06 1:49 p -7.3 -7.2 -7.3 --- --- 1.7 N 0.03 2.6 -8.6 --- --- 729.0 0.018 0.000 9.4 8 1
02/22/06 1:50 p -7.2 -7.2 -7.3 --- --- 1.7 N 0.03 3.5 -8.5 --- --- 729.0 0.018 0.000 9.4 8 1
02/22/06 1:51 p -7.2 -7.2 -7.2 --- --- 1.7 N 0.03 1.7 -8.4 --- --- 728.9 0.018 0.000 9.4 8 1
02/22/06 1:52 p -7.2 -7.2 -7.2 --- --- 1.7 N 0.03 2.6 -8.4 --- --- 728.9 0.018 0.000 9.4 8 1
02/22/06 1:53 p -7.2 -7.2 -7.2 --- --- 2.6 N 0.04 3.5 -9.6 --- --- 728.9 0.018 0.000 9.4 8 1
02/22/06 1:54 p -7.2 -7.2 -7.2 --- --- 1.7 N 0.03 2.6 -8.5 --- --- 728.9 0.018 0.000 9.5 8 1
02/22/06 1:55 p -7.2 -7.2 -7.2 --- --- 0.9 N 0.01 1.7 -7.2 --- --- 728.9 0.018 0.000 9.5 8 1
02/22/06 1:56 p -7.2 -7.2 -7.2 --- --- 0.9 N 0.01 1.7 -7.2 --- --- 729.0 0.018 0.000 9.5 8 1
02/22/06 1:57 p -7.2 -7.2 -7.2 --- --- 1.7 N 0.03 2.6 -8.4 --- --- 729.0 0.018 0.000 9.5 8 1
02/22/06 1:58 p -7.2 -7.1 -7.2 --- --- 2.6 N 0.04 2.6 -9.6 --- --- 729.0 0.018 0.000 9.5 9 1
02/22/06 1:59 p -7.1 -7.1 -7.2 --- --- 2.6 N 0.04 2.6 -9.6 --- --- 729.0 0.018 0.000 9.5 8 1
02/22/06 2:00 p -7.2 -7.2 -7.2 --- --- 1.7 N 0.03 2.6 -8.4 --- --- 728.9 0.018 0.000 9.6 8 1
02/22/06 2:01 p -7.2 -7.2 -7.2 --- --- 1.7 N 0.03 2.6 -8.4 --- --- 729.0 0.018 0.000 9.6 8 1
02/22/06 2:02 p -7.2 -7.2 -7.2 --- --- 1.7 N 0.03 2.6 -8.4 --- --- 729.0 0.018 0.000 9.6 8 1
02/22/06 2:03 p -7.2 -7.2 -7.2 --- --- 1.7 N 0.03 1.7 -8.4 --- --- 728.9 0.018 0.000 9.6 8 1
02/22/06 2:04 p -7.2 -7.2 -7.2 --- --- 0.9 N 0.01 1.7 -7.2 --- --- 728.9 0.018 0.000 9.5 8 1
02/22/06 2:05 p -7.2 -7.2 -7.2 --- --- 1.7 N 0.03 2.6 -8.4 --- --- 729.0 0.018 0.000 9.6 8 1
02/22/06 2:06 p -7.2 -7.2 -7.2 --- --- 1.7 N 0.03 2.6 -8.4 --- --- 728.9 0.018 0.000 9.6 8 1
02/22/06 2:07 p -7.2 -7.2 -7.2 --- --- 0.9 N 0.01 0.9 -7.2 --- --- 729.0 0.018 0.000 9.5 8 1
02/22/06 2:08 p -7.2 -7.2 -7.3 --- --- 1.7 N 0.03 2.6 -8.5 --- --- 729.0 0.018 0.000 9.5 8 1
02/22/06 2:09 p -7.2 -7.2 -7.2 --- --- 0.9 N 0.01 1.7 -7.2 --- --- 728.9 0.018 0.000 9.5 8 1
02/22/06 2:10 p -7.2 -7.2 -7.2 --- --- 1.7 N 0.03 2.6 -8.5 --- --- 728.9 0.018 0.000 9.5 8 1
02/22/06 2:11 p -7.2 -7.2 -7.2 --- --- 0.9 N 0.01 1.7 -7.2 --- --- 729.0 0.018 0.000 9.5 8 1
02/22/06 2:12 p -7.2 -7.2 -7.2 --- --- 0.0 N 0.00 0.9 -7.2 --- --- 728.9 0.018 0.000 9.5 8 1
02/22/06 2:13 p -7.2 -7.2 -7.3 --- --- 0.0 N 0.00 0.9 -7.2 --- --- 728.9 0.018 0.000 9.5 9 1
02/22/06 2:14 p -7.2 -7.2 -7.3 --- --- 0.0 N 0.00 0.9 -7.2 --- --- 729.0 0.018 0.000 9.5 8 1
02/22/06 2:15 p -7.2 -7.2 -7.3 --- --- 0.9 N 0.01 1.7 -7.2 --- --- 729.0 0.018 0.000 9.6 8 1
02/22/06 2:16 p -7.3 -7.3 -7.3 --- --- 0.9 N 0.01 0.9 -7.3 --- --- 729.0 0.018 0.000 9.5 8 1
02/22/06 2:17 p -7.3 -7.3 -7.3 --- --- 0.9 N 0.01 1.7 -7.3 --- --- 729.0 0.018 0.000 9.5 8 1
02/22/06 2:18 p -7.3 -7.3 -7.3 --- --- 1.7 N 0.03 2.6 -8.6 --- --- 729.0 0.018 0.000 9.6 8 1
02/22/06 2:19 p -7.3 -7.3 -7.3 --- --- 1.7 N 0.03 2.6 -8.6 --- --- 729.0 0.018 0.000 9.6 8 1
02/22/06 2:20 p -7.3 -7.3 -7.3 --- --- 2.6 N 0.04 3.5 -9.8 --- --- 729.0 0.018 0.000 9.6 8 1
02/22/06 2:21 p -7.3 -7.3 -7.3 --- --- 2.6 N 0.04 2.6 -9.8 --- --- 729.0 0.018 0.000 9.6 8 1
02/22/06 2:22 p -7.3 -7.3 -7.3 --- --- 1.7 N 0.03 2.6 -8.6 --- --- 729.0 0.018 0.000 9.6 9 1
02/22/06 2:23 p -7.3 -7.3 -7.3 --- --- 2.6 N 0.04 2.6 -9.8 --- --- 729.0 0.018 0.000 9.6 9 1
02/22/06 2:24 p -7.3 -7.3 -7.3 --- --- 1.7 N 0.03 2.6 -8.6 --- --- 729.1 0.018 0.000 9.6 9 1
02/22/06 2:25 p -7.3 -7.3 -7.3 --- --- 1.7 N 0.03 2.6 -8.6 --- --- 729.0 0.018 0.000 9.5 8 1
02/22/06 2:26 p -7.3 -7.2 -7.3 --- --- 1.7 N 0.03 2.6 -8.6 --- --- 729.1 0.018 0.000 9.5 8 1
02/22/06 2:27 p -7.1 -7.1 -7.1 --- --- 1.7 N 0.03 2.6 -8.4 --- --- 729.0 0.018 0.000 9.5 8 1
02/22/06 2:28 p -7.1 -7.1 -7.2 --- --- 0.9 N 0.01 1.7 -7.1 --- --- 729.1 0.018 0.000 9.6 8 1
02/22/06 2:29 p -7.2 -7.1 -7.2 --- --- 0.9 N 0.01 0.9 -7.2 --- --- 729.0 0.018 0.000 9.6 8 1
02/22/06 2:30 p -7.2 -7.2 -7.2 --- --- 0.0 N 0.00 0.9 -7.2 --- --- 729.1 0.018 0.000 9.5 8 1
02/22/06 2:31 p -7.2 -7.2 -7.2 --- --- 0.0 N 0.00 0.9 -7.2 --- --- 729.0 0.018 0.000 9.5 8 1
02/22/06 2:32 p -7.2 -7.2 -7.2 --- --- 0.9 N 0.01 1.7 -7.2 --- --- 729.0 0.018 0.000 9.5 8 1
02/22/06 2:33 p -7.3 -7.2 -7.3 --- --- 0.9 N 0.01 1.7 -7.3 --- --- 729.2 0.018 0.000 9.5 8 1
02/22/06 2:34 p -7.3 -7.3 -7.3 --- --- 0.9 N 0.01 0.9 -7.3 --- --- 729.0 0.018 0.000 9.5 8 1
02/22/06 2:35 p -7.3 -7.3 -7.4 --- --- 0.9 N 0.01 1.7 -7.3 --- --- 729.0 0.018 0.000 9.5 8 1
02/22/06 2:36 p -7.4 -7.4 -7.4 --- --- 0.9 N 0.01 1.7 -7.4 --- --- 729.0 0.018 0.000 9.6 8 1
02/22/06 2:37 p -7.3 -7.3 -7.4 --- --- 0.9 N 0.01 1.7 -7.3 --- --- 729.1 0.018 0.000 9.6 8 1
02/22/06 2:38 p -7.3 -7.3 -7.3 --- --- 1.7 N 0.03 2.6 -8.6 --- --- 729.1 0.018 0.000 9.6 9 1
02/22/06 2:39 p -7.3 -7.2 -7.3 --- --- 1.7 N 0.03 2.6 -8.6 --- --- 729.0 0.018 0.000 9.6 8 1
02/22/06 2:40 p -7.2 -7.2 -7.3 --- --- 1.7 N 0.03 1.7 -8.5 --- --- 729.0 0.018 0.000 9.5 8 1
02/22/06 2:41 p -7.3 -7.2 -7.3 --- --- 0.9 N 0.01 1.7 -7.3 --- --- 729.1 0.018 0.000 9.6 8 1
02/22/06 2:42 p -7.3 -7.3 -7.3 --- --- 0.9 N 0.01 1.7 -7.3 --- --- 729.1 0.018 0.000 9.5 8 1
02/22/06 2:43 p -7.3 -7.3 -7.3 --- --- 1.7 N 0.03 2.6 -8.6 --- --- 729.0 0.018 0.000 9.6 8 1
02/22/06 2:44 p -7.3 -7.3 -7.3 --- --- 2.6 N 0.04 3.5 -9.7 --- --- 729.1 0.018 0.000 9.6 8 1
02/22/06 2:45 p -7.2 -7.2 -7.3 --- --- 1.7 N 0.03 2.6 -8.5 --- --- 729.1 0.018 0.000 9.5 8 1
02/22/06 2:46 p -7.2 -7.2 -7.2 --- --- 2.6 N 0.04 3.5 -9.7 --- --- 729.1 0.018 0.000 9.5 8 1
02/22/06 2:47 p -7.2 -7.2 -7.2 --- --- 2.6 N 0.04 3.5 -9.6 --- --- 729.1 0.018 0.000 9.5 8 1
02/22/06 2:48 p -7.2 -7.2 -7.2 --- --- 1.7 N 0.03 2.6 -8.4 --- --- 729.2 0.018 0.000 9.5 8 1
02/22/06 2:49 p -7.2 -7.2 -7.2 --- --- 1.7 N 0.03 1.7 -8.4 --- --- 729.2 0.018 0.000 9.5 8 1
02/22/06 2:50 p -7.2 -7.2 -7.2 --- --- 1.7 N 0.03 2.6 -8.5 --- --- 729.2 0.018 0.000 9.5 8 1
02/22/06 2:51 p -7.2 -7.2 -7.3 --- --- 1.7 N 0.03 2.6 -8.5 --- --- 729.2 0.018 0.000 9.4 8 1
02/22/06 2:52 p -7.2 -7.2 -7.2 --- --- 2.6 N 0.04 3.5 -9.7 --- --- 729.3 0.018 0.000 9.4 8 1
02/22/06 2:53 p -7.2 -7.2 -7.2 --- --- 2.6 N 0.04 3.5 -9.7 --- --- 729.1 0.018 0.000 9.4 8 1
02/22/06 2:54 p -7.2 -7.2 -7.2 --- --- 2.6 N 0.04 3.5 -9.6 --- --- 729.1 0.018 0.000 9.4 8 1
02/22/06 2:55 p -7.2 -7.2 -7.2 --- --- 2.6 N 0.04 3.5 -9.6 --- --- 729.1 0.018 0.000 9.4 8 1
02/22/06 2:56 p -7.2 -7.2 -7.2 --- --- 1.7 N 0.03 3.5 -8.4 --- --- 729.1 0.018 0.000 9.5 8 1
02/22/06 2:57 p -7.2 -7.2 -7.2 --- --- 0.9 N 0.01 2.6 -7.2 --- --- 729.1 0.018 0.000 9.4 8 1
02/22/06 2:58 p -7.2 -7.2 -7.2 --- --- 1.7 N 0.03 1.7 -8.4 --- --- 729.2 0.018 0.000 9.5 8 1
02/22/06 2:59 p -7.2 -7.2 -7.2 --- --- 1.7 N 0.03 1.7 -8.4 --- --- 729.2 0.018 0.000 9.5 8 1
02/22/06 3:00 p -7.2 -7.2 -7.2 --- --- 1.7 N 0.03 1.7 -8.4 --- --- 729.1 0.018 0.000 9.5 8 1
02/22/06 3:01 p -7.2 -7.2 -7.2 --- --- 0.0 N 0.00 1.7 -7.2 --- --- 729.1 0.018 0.000 9.5 8 1
02/22/06 3:02 p -7.1 -7.1 -7.1 --- --- 0.9 N 0.01 0.9 -7.1 --- --- 729.2 0.018 0.000 9.5 8 1
02/22/06 3:03 p -7.0 -7.0 -7.0 --- --- 0.9 N 0.01 1.7 -7.0 --- --- 729.2 0.018 0.000 9.4 8 1
02/22/06 3:04 p -7.0 -6.9 -7.0 --- --- 0.9 N 0.01 1.7 -7.0 --- --- 729.2 0.018 0.000 9.5 8 1
02/22/06 3:05 p -7.0 -7.0 -7.1 --- --- 1.7 N 0.03 1.7 -8.3 --- --- 729.2 0.018 0.000 9.5 8 1
02/22/06 3:06 p -7.1 -7.1 -7.1 --- --- 1.7 N 0.03 1.7 -8.3 --- --- 729.2 0.018 0.000 9.5 8 1
02/22/06 3:07 p -7.1 -7.1 -7.1 --- --- 0.9 N 0.01 1.7 -7.1 --- --- 729.3 0.018 0.000 9.5 8 1
02/22/06 3:08 p -7.1 -7.1 -7.1 --- --- 0.9 N 0.01 0.9 -7.1 --- --- 729.2 0.018 0.000 9.5 8 1
02/22/06 3:09 p -7.1 -7.1 -7.2 --- --- 0.9 N 0.01 1.7 -7.1 --- --- 729.2 0.018 0.000 9.5 8 1
02/22/06 3:10 p -7.2 -7.2 -7.2 --- --- 0.9 N 0.01 1.7 -7.2 --- --- 729.1 0.018 0.000 9.5 8 1
02/22/06 3:11 p -7.2 -7.2 -7.2 --- --- 0.0 --- 0.00 0.9 -7.2 --- --- 729.2 0.018 0.000 9.4 8 1
02/22/06 3:12 p -7.2 -7.2 -7.2 --- --- 0.0 N 0.00 0.9 -7.2 --- --- 729.2 0.018 0.000 9.5 8 1
02/22/06 3:13 p -7.2 -7.1 -7.2 --- --- 0.9 N 0.01 1.7 -7.2 --- --- 729.2 0.018 0.000 9.5 8 1
02/22/06 3:14 p -7.2 -7.1 -7.2 --- --- 0.9 N 0.01 1.7 -7.2 --- --- 729.2 0.018 0.000 9.5 8 1
02/22/06 3:15 p -7.2 -7.2 -7.2 --- --- 1.7 N 0.03 1.7 -8.4 --- --- 729.2 0.018 0.000 9.5 8 1
02/22/06 3:16 p -7.2 -7.2 -7.2 --- --- 1.7 N 0.03 2.6 -8.4 --- --- 729.2 0.018 0.000 9.5 8 1
02/22/06 3:17 p -7.2 -7.2 -7.2 --- --- 1.7 N 0.03 1.7 -8.4 --- --- 729.2 0.018 0.000 9.5 8 1
02/22/06 3:18 p -7.2 -7.2 -7.3 --- --- 0.9 N 0.01 1.7 -7.2 --- --- 729.2 0.018 0.000 9.4 8 1
02/22/06 3:19 p -7.3 -7.2 -7.3 --- --- 1.7 N 0.03 2.6 -8.6 --- --- 729.2 0.018 0.000 9.4 8 1
02/22/06 3:20 p -7.2 -7.2 -7.3 --- --- 1.7 N 0.03 2.6 -8.5 --- --- 729.2 0.018 0.000 9.4 8 1
02/22/06 3:21 p -7.2 -7.2 -7.2 --- --- 1.7 N 0.03 2.6 -8.4 --- --- 729.2 0.018 0.000 9.4 8 1
02/22/06 3:22 p -7.1 -7.1 -7.2 --- --- 1.7 N 0.03 2.6 -8.4 --- --- 729.2 0.018 0.000 9.4 8 1
02/22/06 3:23 p -7.1 -7.1 -7.1 --- --- 1.7 N 0.03 2.6 -8.3 --- --- 729.2 0.018 0.000 9.4 8 1
02/22/06 3:24 p -7.0 -7.0 -7.1 --- --- 1.7 N 0.03 2.6 -8.3 --- --- 729.2 0.018 0.000 9.4 8 1
02/22/06 3:25 p -7.0 -7.0 -7.0 --- --- 2.6 N 0.04 2.6 -9.4 --- --- 729.2 0.018 0.000 9.4 8 1
02/22/06 3:26 p -7.0 -6.9 -7.0 --- --- 2.6 N 0.04 3.5 -9.4 --- --- 729.3 0.018 0.000 9.4 8 1
02/22/06 3:27 p -6.9 -6.9 -6.9 --- --- 2.6 N 0.04 3.5 -9.3 --- --- 729.2 0.018 0.000 9.4 8 1
02/22/06 3:28 p -6.8 -6.8 -6.9 --- --- 2.6 N 0.04 3.5 -9.2 --- --- 729.3 0.017 0.000 9.4 8 1
02/22/06 3:29 p -6.8 -6.7 -6.8 --- --- 2.6 N 0.04 3.5 -9.2 --- --- 729.3 0.017 0.000 9.4 8 1
02/22/06 3:30 p -6.7 -6.7 -6.8 --- --- 3.5 N 0.06 3.5 -9.9 --- --- 729.2 0.017 0.000 9.4 8 1
02/22/06 3:31 p -6.8 -6.8 -6.8 --- --- 3.5 N 0.06 3.5 -10.0 --- --- 729.3 0.017 0.000 9.4 8 1
02/22/06 3:32 p -6.8 -6.8 -6.8 --- --- 2.6 N 0.04 3.5 -9.2 --- --- 729.3 0.017 0.000 9.4 8 1
02/22/06 3:33 p -6.8 -6.8 -6.9 --- --- 2.6 N 0.04 3.5 -9.2 --- --- 729.2 0.017 0.000 9.4 8 1
02/22/06 3:34 p -6.9 -6.8 -6.9 --- --- 2.6 N 0.04 3.5 -9.3 --- --- 729.3 0.018 0.000 9.4 8 1
02/22/06 3:35 p -6.9 -6.9 -6.9 --- --- 2.6 N 0.04 2.6 -9.3 --- --- 729.2 0.018 0.000 9.4 8 1
02/22/06 3:36 p -6.9 -6.9 -6.9 --- --- 2.6 N 0.04 3.5 -9.3 --- --- 729.2 0.018 0.000 9.4 9 1
02/22/06 3:37 p -7.0 -6.9 -7.0 --- --- 3.5 N 0.06 3.5 -10.3 --- --- 729.2 0.018 0.000 9.4 8 1
02/22/06 3:38 p -7.0 -6.9 -7.0 --- --- 2.6 N 0.04 3.5 -9.4 --- --- 729.3 0.018 0.000 9.4 8 1
02/22/06 3:39 p -7.0 -7.0 -7.1 --- --- 2.6 N 0.04 3.5 -9.4 --- --- 729.2 0.018 0.000 9.4 8 1
02/22/06 3:40 p -7.1 -7.0 -7.1 --- --- 2.6 N 0.04 3.5 -9.4 --- --- 729.2 0.018 0.000 9.4 8 1
02/22/06 3:41 p -7.1 -7.1 -7.1 --- --- 2.6 N 0.04 3.5 -9.4 --- --- 729.1 0.018 0.000 9.4 9 1
02/22/06 3:42 p -7.1 -7.1 -7.1 --- --- 2.6 N 0.04 3.5 -9.6 --- --- 729.2 0.018 0.000 9.4 9 1
02/22/06 3:43 p -7.1 -7.1 -7.1 --- --- 3.5 N 0.06 3.5 -10.4 --- --- 729.2 0.018 0.000 9.4 8 1
02/22/06 3:44 p -7.1 -7.1 -7.1 --- --- 3.5 N 0.06 4.3 -10.4 --- --- 729.2 0.018 0.000 9.4 8 1
02/22/06 3:45 p -7.1 -7.1 -7.1 --- --- 3.5 N 0.06 4.3 -10.4 --- --- 729.2 0.018 0.000 9.4 8 1
02/22/06 3:46 p -7.1 -7.1 -7.1 --- --- 3.5 N 0.06 3.5 -10.4 --- --- 729.3 0.018 0.000 9.4 8 1
02/22/06 3:47 p -7.1 -7.1 -7.1 --- --- 3.5 N 0.06 3.5 -10.3 --- --- 729.2 0.018 0.000 9.4 8 1
02/22/06 3:48 p -7.0 -6.9 -7.1 --- --- 3.5 N 0.06 3.5 -10.3 --- --- 729.2 0.018 0.000 9.4 8 1
02/22/06 3:49 p -6.9 -6.9 -6.9 --- --- 3.5 N 0.06 4.3 -10.1 --- --- 729.3 0.018 0.000 9.5 9 1
02/22/06 3:50 p -6.9 -6.9 -6.9 --- --- 3.5 N 0.06 4.3 -10.2 --- --- 729.3 0.018 0.000 9.5 8 1
02/22/06 3:51 p -7.0 -6.9 -7.0 --- --- 3.5 N 0.06 4.3 -10.3 --- --- 729.3 0.018 0.000 9.5 9 1
02/22/06 3:52 p -7.0 -7.0 -7.0 --- --- 3.5 N 0.06 4.3 -10.3 --- --- 729.3 0.018 0.000 9.5 9 1
02/22/06 3:53 p -7.0 -7.0 -7.0 --- --- 4.3 N 0.07 4.3 -10.9 --- --- 729.3 0.018 0.000 9.5 9 1
02/22/06 3:54 p -6.9 -6.9 -6.9 --- --- 3.5 N 0.06 4.3 -10.2 --- --- 729.3 0.018 0.000 9.5 9 1
02/22/06 3:55 p -6.9 -6.9 -6.9 --- --- 3.5 N 0.06 4.3 -10.2 --- --- 729.3 0.018 0.000 9.6 8 1
02/22/06 3:56 p -6.9 -6.9 -6.9 --- --- 3.5 N 0.06 3.5 -10.2 --- --- 729.3 0.018 0.000 9.6 8 1
02/22/06 3:57 p -6.9 -6.9 -6.9 --- --- 3.5 N 0.06 4.3 -10.2 --- --- 729.3 0.018 0.000 9.5 8 1
02/22/06 3:58 p -6.9 -6.9 -6.9 --- --- 2.6 N 0.04 3.5 -9.3 --- --- 729.3 0.018 0.000 9.5 9 1
02/22/06 3:59 p -6.9 -6.9 -6.9 --- --- 2.6 N 0.04 3.5 -9.3 --- --- 729.3 0.018 0.000 9.5 9 1
02/22/06 4:00 p -6.8 -6.8 -6.8 --- --- 3.5 N 0.06 3.5 -10.1 --- --- 729.4 0.017 0.000 9.5 9 1
02/22/06 4:01 p -6.8 -6.7 -6.8 --- --- 3.5 N 0.06 3.5 -10.0 --- --- 729.3 0.017 0.000 9.5 9 1
02/22/06 4:02 p -6.7 -6.7 -6.8 --- --- 2.6 N 0.04 3.5 -9.1 --- --- 729.3 0.017 0.000 9.5 8 1
02/22/06 4:03 p -6.7 -6.7 -6.8 --- --- 2.6 N 0.04 3.5 -9.1 --- --- 729.3 0.017 0.000 9.4 9 1
02/22/06 4:04 p -6.8 -6.8 -6.8 --- --- 2.6 N 0.04 3.5 -9.2 --- --- 729.4 0.017 0.000 9.4 9 1
02/22/06 4:05 p -6.8 -6.8 -6.8 --- --- 2.6 N 0.04 3.5 -9.2 --- --- 729.4 0.017 0.000 9.4 8 1
02/22/06 4:06 p -6.8 -6.8 -6.8 --- --- 2.6 N 0.04 3.5 -9.2 --- --- 729.3 0.017 0.000 9.5 9 1
02/22/06 4:07 p -6.8 -6.8 -6.8 --- --- 2.6 N 0.04 3.5 -9.2 --- --- 729.3 0.017 0.000 9.4 9 1
02/22/06 4:08 p -6.8 -6.8 -6.8 --- --- 2.6 N 0.04 3.5 -9.2 --- --- 729.3 0.017 0.000 9.4 9 1
02/22/06 4:09 p -6.8 -6.8 -6.8 --- --- 3.5 N 0.06 3.5 -10.1 --- --- 729.3 0.017 0.000 9.4 9 1
02/22/06 4:10 p -6.8 -6.8 -6.8 --- --- 3.5 N 0.06 3.5 -10.0 --- --- 729.3 0.017 0.000 9.4 9 1
02/22/06 4:11 p -6.9 -6.8 -6.9 --- --- 2.6 N 0.04 3.5 -9.3 --- --- 729.4 0.018 0.000 9.4 9 1
02/22/06 4:12 p -6.9 -6.9 -6.9 --- --- 2.6 N 0.04 3.5 -9.3 --- --- 729.3 0.018 0.000 9.4 8 1
02/22/06 4:13 p -6.9 -6.9 -6.9 --- --- 2.6 N 0.04 3.5 -9.3 --- --- 729.4 0.018 0.000 9.4 8 1
02/22/06 4:14 p -6.9 -6.9 -6.9 --- --- 2.6 N 0.04 3.5 -9.3 --- --- 729.4 0.018 0.000 9.4 8 1
02/22/06 4:15 p -7.0 -6.9 -7.1 --- --- 1.7 N 0.03 2.6 -8.3 --- --- 729.3 0.018 0.000 9.4 9 1
02/22/06 4:16 p -7.1 -7.1 -7.1 --- --- 1.7 N 0.03 1.7 -8.3 --- --- 729.3 0.018 0.000 9.4 9 1
02/22/06 4:17 p -7.0 -6.9 -7.1 --- --- 1.7 N 0.03 1.7 -8.3 --- --- 729.4 0.018 0.000 9.4 8 1
02/22/06 4:18 p -6.8 -6.8 -6.9 --- --- 1.7 N 0.03 2.6 -8.1 --- --- 729.4 0.017 0.000 9.4 8 1
02/22/06 4:19 p -6.7 -6.7 -6.7 --- --- 1.7 N 0.03 2.6 -7.9 --- --- 729.4 0.017 0.000 9.4 9 1
02/22/06 4:20 p -6.7 -6.7 -6.7 --- --- 2.6 N 0.04 3.5 -9.1 --- --- 729.4 0.017 0.000 9.5 9 1
02/22/06 4:21 p -6.8 -6.8 -6.8 --- --- 2.6 N 0.04 2.6 -9.2 --- --- 729.4 0.017 0.000 9.4 9 1
02/22/06 4:22 p -6.8 -6.8 -6.8 --- --- 3.5 N 0.06 5.2 -10.0 --- --- 729.4 0.017 0.000 9.4 9 1
02/22/06 4:23 p -6.8 -6.8 -6.8 --- --- 1.7 N 0.03 3.5 -8.1 --- --- 729.4 0.017 0.000 9.4 9 1
02/22/06 4:24 p -6.8 -6.7 -6.8 --- --- 2.6 N 0.04 3.5 -9.2 --- --- 729.4 0.017 0.000 9.4 8 1
02/22/06 4:25 p -6.7 -6.7 -6.8 --- --- 3.5 N 0.06 4.3 -9.9 --- --- 729.4 0.017 0.000 9.4 8 1
02/22/06 4:26 p -6.8 -6.8 -6.8 --- --- 3.5 N 0.06 3.5 -10.0 --- --- 729.3 0.017 0.000 9.4 9 1
02/22/06 4:27 p -6.7 -6.7 -6.7 --- --- 3.5 N 0.06 3.5 -9.9 --- --- 729.3 0.017 0.000 9.4 9 1
02/22/06 4:28 p -6.7 -6.7 -6.7 --- --- 3.5 N 0.06 4.3 -9.9 --- --- 729.5 0.017 0.000 9.4 9 1
02/22/06 4:29 p -6.7 -6.7 -6.7 --- --- 2.6 N 0.04 3.5 -9.1 --- --- 729.4 0.017 0.000 9.4 8 1
02/22/06 4:30 p -6.7 -6.7 -6.7 --- --- 2.6 N 0.04 3.5 -9.1 --- --- 729.5 0.017 0.000 9.4 9 1
02/22/06 4:31 p -6.7 -6.7 -6.8 --- --- 1.7 N 0.03 3.5 -7.9 --- --- 729.4 0.017 0.000 9.4 9 1
02/22/06 4:32 p -6.8 -6.7 -6.8 --- --- 3.5 N 0.06 4.3 -10.0 --- --- 729.4 0.017 0.000 9.4 8 1
02/22/06 4:33 p -6.8 -6.7 -6.8 --- --- 3.5 N 0.06 4.3 -10.0 --- --- 729.4 0.017 0.000 9.4 8 1
02/22/06 4:34 p -6.8 -6.8 -6.8 --- --- 2.6 N 0.04 3.5 -9.2 --- --- 729.5 0.017 0.000 9.4 8 1
02/22/06 4:35 p -6.8 -6.8 -6.8 --- --- 3.5 N 0.06 4.3 -10.0 --- --- 729.5 0.017 0.000 9.4 9 1
02/22/06 4:36 p -6.8 -6.8 -6.8 --- --- 3.5 N 0.06 4.3 -10.0 --- --- 729.5 0.017 0.000 9.4 9 1
02/22/06 4:37 p -6.8 -6.8 -6.8 --- --- 2.6 N 0.04 3.5 -9.2 --- --- 729.4 0.017 0.000 9.4 9 1
02/22/06 4:38 p -6.8 -6.8 -6.9 --- --- 3.5 N 0.06 4.3 -10.1 --- --- 729.5 0.017 0.000 9.4 9 1
02/22/06 4:39 p -6.9 -6.9 -6.9 --- --- 3.5 N 0.06 4.3 -10.2 --- --- 729.5 0.018 0.000 9.4 9 1
02/22/06 4:40 p -6.9 -6.9 -6.9 --- --- 3.5 N 0.06 4.3 -10.2 --- --- 729.6 0.018 0.000 9.4 9 1
02/22/06 4:41 p -6.9 -6.9 -6.9 --- --- 3.5 N 0.06 5.2 -10.1 --- --- 729.5 0.018 0.000 9.4 9 1
02/22/06 4:42 p -6.9 -6.9 -6.9 --- --- 3.5 N 0.06 4.3 -10.1 --- --- 729.5 0.018 0.000 9.4 9 1
02/22/06 4:43 p -7.0 -6.9 -7.0 --- --- 3.5 N 0.06 3.5 -10.3 --- --- 729.5 0.018 0.000 9.4 9 1
02/22/06 4:44 p -7.1 -7.1 -7.1 --- --- 3.5 N 0.06 4.3 -10.3 --- --- 729.5 0.018 0.000 9.4 9 1
02/22/06 4:45 p -7.1 -7.1 -7.1 --- --- 4.3 N 0.07 5.2 -11.0 --- --- 729.5 0.018 0.000 9.4 8 1
02/22/06 4:46 p -7.1 -7.1 -7.1 --- --- 3.5 N 0.06 4.3 -10.3 --- --- 729.6 0.018 0.000 9.4 9 1
02/22/06 4:47 p -7.1 -7.1 -7.1 --- --- 3.5 N 0.06 4.3 -10.3 --- --- 729.6 0.018 0.000 9.4 9 1
02/22/06 4:48 p -7.1 -7.1 -7.1 --- --- 3.5 N 0.06 4.3 -10.3 --- --- 729.6 0.018 0.000 9.4 9 1
02/22/06 4:49 p -7.1 -7.1 -7.2 --- --- 2.6 N 0.04 2.6 -9.6 --- --- 729.6 0.018 0.000 9.4 9 1
02/22/06 4:50 p -7.2 -7.2 -7.2 --- --- 2.6 N 0.04 3.5 -9.7 --- --- 729.5 0.018 0.000 9.4 9 1
02/22/06 4:51 p -7.2 -7.2 -7.2 --- --- 3.5 N 0.06 4.3 -10.5 --- --- 729.6 0.018 0.000 9.4 9 1
02/22/06 4:52 p -7.2 -7.2 -7.2 --- --- 3.5 N 0.06 4.3 -10.4 --- --- 729.5 0.018 0.000 9.4 9 1
02/22/06 4:53 p -7.2 -7.2 -7.2 --- --- 3.5 N 0.06 3.5 -10.5 --- --- 729.6 0.018 0.000 9.4 9 1
02/22/06 4:54 p -7.2 -7.2 -7.2 --- --- 3.5 N 0.06 4.3 -10.5 --- --- 729.6 0.018 0.000 9.4 9 1
02/22/06 4:55 p -7.2 -7.2 -7.2 --- --- 4.3 N 0.07 4.3 -11.2 --- --- 729.6 0.018 0.000 9.4 9 1
02/22/06 4:56 p -7.2 -7.2 -7.2 --- --- 3.5 N 0.06 4.3 -10.4 --- --- 729.7 0.018 0.000 9.4 9 1
02/22/06 4:57 p -7.2 -7.1 -7.2 --- --- 3.5 N 0.06 4.3 -10.4 --- --- 729.7 0.018 0.000 9.4 9 1
02/22/06 4:58 p -7.1 -7.1 -7.2 --- --- 2.6 N 0.04 3.5 -9.6 --- --- 729.6 0.018 0.000 9.4 9 1
02/22/06 4:59 p -7.1 -7.1 -7.1 --- --- 2.6 N 0.04 3.5 -9.6 --- --- 729.6 0.018 0.000 9.4 9 1
02/22/06 5:00 p -7.1 -7.1 -7.2 --- --- 3.5 N 0.06 4.3 -10.4 --- --- 729.6 0.018 0.000 9.4 9 1
02/22/06 5:01 p -7.2 -7.2 -7.2 --- --- 3.5 N 0.06 4.3 -10.4 --- --- 729.7 0.018 0.000 9.4 9 1
02/22/06 5:02 p -7.2 -7.2 -7.2 --- --- 3.5 N 0.06 3.5 -10.4 --- --- 729.7 0.018 0.000 9.4 9 1
02/22/06 5:03 p -7.2 -7.2 -7.3 --- --- 2.6 N 0.04 3.5 -9.7 --- --- 729.7 0.018 0.000 9.4 9 1
02/22/06 5:04 p -7.2 -7.2 -7.3 --- --- 2.6 N 0.04 3.5 -9.7 --- --- 729.7 0.018 0.000 9.4 9 1
02/22/06 5:05 p -7.2 -7.2 -7.2 --- --- 3.5 N 0.06 4.3 -10.5 --- --- 729.7 0.018 0.000 9.4 9 1
02/22/06 5:06 p -7.2 -7.2 -7.2 --- --- 3.5 N 0.06 3.5 -10.4 --- --- 729.7 0.018 0.000 9.4 9 1
02/22/06 5:07 p -7.2 -7.2 -7.2 --- --- 3.5 N 0.06 3.5 -10.5 --- --- 729.7 0.018 0.000 9.4 9 1
02/22/06 5:08 p -7.2 -7.2 -7.3 --- --- 3.5 N 0.06 3.5 -10.5 --- --- 729.7 0.018 0.000 9.4 9 1
02/22/06 5:09 p -7.3 -7.2 -7.3 --- --- 3.5 N 0.06 4.3 -10.6 --- --- 729.7 0.018 0.000 9.4 9 1
02/22/06 5:10 p -7.3 -7.2 -7.3 --- --- 3.5 N 0.06 4.3 -10.6 --- --- 729.6 0.018 0.000 9.4 9 1
02/22/06 5:11 p -7.3 -7.3 -7.3 --- --- 3.5 N 0.06 4.3 -10.6 --- --- 729.7 0.018 0.000 9.4 9 1
02/22/06 5:12 p -7.3 -7.3 -7.3 --- --- 4.3 N 0.07 4.3 -11.3 --- --- 729.7 0.018 0.000 9.4 9 1
02/22/06 5:13 p -7.3 -7.3 -7.3 --- --- 4.3 N 0.07 5.2 -11.3 --- --- 729.7 0.018 0.000 9.4 9 1
02/22/06 5:14 p -7.3 -7.3 -7.3 --- --- 4.3 N 0.07 4.3 -11.3 --- --- 729.7 0.018 0.000 9.4 9 1
02/22/06 5:15 p -7.3 -7.3 -7.3 --- --- 4.3 N 0.07 5.2 -11.3 --- --- 729.7 0.018 0.000 9.4 9 1
02/22/06 5:16 p -7.2 -7.2 -7.2 --- --- 3.5 N 0.06 4.3 -10.5 --- --- 729.7 0.018 0.000 9.4 9 1
02/22/06 5:17 p -7.2 -7.1 -7.2 --- --- 4.3 N 0.07 4.3 -11.2 --- --- 729.7 0.018 0.000 9.4 9 1
02/22/06 5:18 p -7.1 -7.1 -7.1 --- --- 3.5 N 0.06 4.3 -10.4 --- --- 729.7 0.018 0.000 9.4 9 1
02/22/06 5:19 p -7.1 -7.1 -7.2 --- --- 3.5 N 0.06 4.3 -10.4 --- --- 729.7 0.018 0.000 9.4 9 1
02/22/06 5:20 p -7.1 -7.1 -7.2 --- --- 3.5 N 0.06 4.3 -10.4 --- --- 729.8 0.018 0.000 9.4 9 1
02/22/06 5:21 p -7.1 -7.1 -7.2 --- --- 3.5 N 0.06 4.3 -10.4 --- --- 729.7 0.018 0.000 9.4 9 1
02/22/06 5:22 p -7.1 -7.1 -7.1 --- --- 3.5 N 0.06 4.3 -10.4 --- --- 729.8 0.018 0.000 9.4 9 1
02/22/06 5:23 p -7.1 -7.1 -7.1 --- --- 3.5 N 0.06 3.5 -10.3 --- --- 729.8 0.018 0.000 9.4 9 1
02/22/06 5:24 p -7.1 -7.1 -7.1 --- --- 3.5 N 0.06 3.5 -10.4 --- --- 729.8 0.018 0.000 9.4 9 1
02/22/06 5:25 p -7.1 -7.0 -7.1 --- --- 2.6 N 0.04 3.5 -9.4 --- --- 729.7 0.018 0.000 9.4 9 1
02/22/06 5:26 p -7.1 -7.1 -7.1 --- --- 2.6 N 0.04 2.6 -9.4 --- --- 729.8 0.018 0.000 9.4 9 1
02/22/06 5:27 p -7.1 -7.1 -7.1 --- --- 1.7 N 0.03 2.6 -8.3 --- --- 729.7 0.018 0.000 9.4 9 1
02/22/06 5:28 p -7.1 -7.1 -7.1 --- --- 2.6 N 0.04 2.6 -9.6 --- --- 729.8 0.018 0.000 9.4 9 1
02/22/06 5:29 p -7.1 -7.1 -7.1 --- --- 2.6 N 0.04 2.6 -9.6 --- --- 729.7 0.018 0.000 9.4 9 1
02/22/06 5:30 p -7.1 -7.1 -7.2 --- --- 1.7 N 0.03 2.6 -8.4 --- --- 729.7 0.018 0.000 9.4 9 1
02/22/06 5:31 p -7.1 -7.1 -7.2 --- --- 2.6 N 0.04 2.6 -9.6 --- --- 729.7 0.018 0.000 9.4 9 1
02/22/06 5:32 p -7.2 -7.1 -7.2 --- --- 2.6 N 0.04 2.6 -9.6 --- --- 729.7 0.018 0.000 9.4 9 1
02/22/06 5:33 p -7.2 -7.2 -7.2 --- --- 1.7 N 0.03 2.6 -8.4 --- --- 729.7 0.018 0.000 9.4 9 1
02/22/06 5:34 p -7.2 -7.2 -7.2 --- --- 1.7 N 0.03 2.6 -8.4 --- --- 729.7 0.018 0.000 9.4 9 1
02/22/06 5:35 p -7.2 -7.2 -7.2 --- --- 2.6 N 0.04 2.6 -9.6 --- --- 729.7 0.018 0.000 9.4 9 1
02/22/06 5:36 p -7.2 -7.2 -7.3 --- --- 3.5 N 0.06 4.3 -10.5 --- --- 729.7 0.018 0.000 9.4 9 1
02/22/06 5:37 p -7.3 -7.2 -7.3 --- --- 4.3 N 0.07 4.3 -11.3 --- --- 729.7 0.018 0.000 9.4 9 1
02/22/06 5:38 p -7.3 -7.2 -7.3 --- --- 3.5 N 0.06 4.3 -10.6 --- --- 729.7 0.018 0.000 9.4 9 1
02/22/06 5:39 p -7.2 -7.2 -7.2 --- --- 3.5 N 0.06 3.5 -10.4 --- --- 729.7 0.018 0.000 9.4 9 1
02/22/06 5:40 p -7.2 -7.2 -7.2 --- --- 2.6 N 0.04 3.5 -9.6 --- --- 729.8 0.018 0.000 9.4 9 1
02/22/06 5:41 p -7.2 -7.2 -7.2 --- --- 3.5 N 0.06 3.5 -10.5 --- --- 729.8 0.018 0.000 9.4 9 1
02/22/06 5:42 p -7.2 -7.2 -7.3 --- --- 3.5 N 0.06 4.3 -10.5 --- --- 729.7 0.018 0.000 9.4 9 1
02/22/06 5:43 p -7.2 -7.2 -7.2 --- --- 3.5 N 0.06 3.5 -10.4 --- --- 729.8 0.018 0.000 9.4 9 1
02/22/06 5:44 p -7.2 -7.2 -7.2 --- --- 2.6 N 0.04 3.5 -9.6 --- --- 729.8 0.018 0.000 9.4 9 1
02/22/06 5:45 p -7.2 -7.2 -7.2 --- --- 3.5 N 0.06 3.5 -10.4 --- --- 729.7 0.018 0.000 9.4 9 1
02/22/06 5:46 p -7.2 -7.2 -7.2 --- --- 3.5 N 0.06 3.5 -10.4 --- --- 729.7 0.018 0.000 9.4 9 1
02/22/06 5:47 p -7.1 -7.1 -7.2 --- --- 3.5 N 0.06 3.5 -10.4 --- --- 729.7 0.018 0.000 9.4 9 1
02/22/06 5:48 p -7.1 -7.1 -7.1 --- --- 3.5 N 0.06 3.5 -10.3 --- --- 729.8 0.018 0.000 9.4 9 1
02/22/06 5:49 p -7.1 -7.0 -7.1 --- --- 3.5 N 0.06 3.5 -10.3 --- --- 729.8 0.018 0.000 9.4 9 1
02/22/06 5:50 p -7.1 -7.1 -7.1 --- --- 2.6 N 0.04 3.5 -9.4 --- --- 729.7 0.018 0.000 9.4 9 1
02/22/06 5:51 p -7.1 -7.1 -7.1 --- --- 2.6 N 0.04 3.5 -9.4 --- --- 729.7 0.018 0.000 9.4 9 1
02/22/06 5:52 p -7.1 -7.1 -7.1 --- --- 2.6 N 0.04 2.6 -9.4 --- --- 729.7 0.018 0.000 9.4 9 1
02/22/06 5:53 p -7.1 -7.1 -7.1 --- --- 2.6 N 0.04 2.6 -9.4 --- --- 729.7 0.018 0.000 9.4 9 1
02/22/06 5:54 p -7.1 -7.1 -7.1 --- --- 2.6 N 0.04 3.5 -9.4 --- --- 729.8 0.018 0.000 9.4 9 1
02/22/06 5:55 p -7.1 -7.1 -7.1 --- --- 1.7 N 0.03 2.6 -8.3 --- --- 729.8 0.018 0.000 9.4 9 1
02/22/06 5:56 p -7.1 -7.1 -7.1 --- --- 1.7 N 0.03 2.6 -8.4 --- --- 729.8 0.018 0.000 9.4 9 1
02/22/06 5:57 p -7.1 -7.1 -7.1 --- --- 1.7 N 0.03 2.6 -8.4 --- --- 729.9 0.018 0.000 9.4 9 1
02/22/06 5:58 p -7.1 -7.1 -7.1 --- --- 1.7 N 0.03 1.7 -8.4 --- --- 729.8 0.018 0.000 9.4 9 1
02/22/06 5:59 p -7.2 -7.1 -7.2 --- --- 1.7 N 0.03 2.6 -8.4 --- --- 729.9 0.018 0.000 9.4 9 1
02/22/06 6:00 p -7.2 -7.2 -7.2 --- --- 1.7 N 0.03 1.7 -8.4 --- --- 729.9 0.018 0.000 9.4 9 1
02/22/06 6:01 p -7.2 -7.1 -7.2 --- --- 1.7 N 0.03 2.6 -8.4 --- --- 729.8 0.018 0.000 9.4 9 1
02/22/06 6:02 p -7.2 -7.1 -7.2 --- --- 1.7 N 0.03 1.7 -8.4 --- --- 729.8 0.018 0.000 9.4 9 1
02/22/06 6:03 p -7.2 -7.1 -7.2 --- --- 1.7 N 0.03 1.7 -8.4 --- --- 729.9 0.018 0.000 9.4 9 1
02/22/06 6:04 p -7.2 -7.2 -7.2 --- --- 1.7 N 0.03 1.7 -8.4 --- --- 729.8 0.018 0.000 9.4 9 1
02/22/06 6:05 p -7.2 -7.1 -7.2 --- --- 0.9 N 0.01 1.7 -7.2 --- --- 729.8 0.018 0.000 9.4 9 1
02/22/06 6:06 p -7.2 -7.2 -7.2 --- --- 0.9 N 0.01 1.7 -7.2 --- --- 729.8 0.018 0.000 9.4 9 1
02/22/06 6:07 p -7.2 -7.2 -7.2 --- --- 1.7 N 0.03 1.7 -8.4 --- --- 729.9 0.018 0.000 9.4 9 1
02/22/06 6:08 p -7.2 -7.2 -7.2 --- --- 1.7 N 0.03 2.6 -8.4 --- --- 729.9 0.018 0.000 9.4 9 1
02/22/06 6:09 p -7.2 -7.2 -7.2 --- --- 1.7 N 0.03 2.6 -8.4 --- --- 730.0 0.018 0.000 9.4 9 1
02/22/06 6:10 p -7.2 -7.1 -7.2 --- --- 1.7 N 0.03 2.6 -8.4 --- --- 729.9 0.018 0.000 9.4 9 1
02/22/06 6:11 p -7.1 -7.1 -7.2 --- --- 2.6 N 0.04 3.5 -9.6 --- --- 729.8 0.018 0.000 9.4 9 1
02/22/06 6:12 p -7.1 -7.1 -7.2 --- --- 1.7 N 0.03 2.6 -8.4 --- --- 729.9 0.018 0.000 9.4 9 1
02/22/06 6:13 p -7.1 -7.1 -7.1 --- --- 2.6 N 0.04 3.5 -9.6 --- --- 730.0 0.018 0.000 9.4 9 1
02/22/06 6:14 p -7.2 -7.1 -7.2 --- --- 2.6 N 0.04 3.5 -9.6 --- --- 729.9 0.018 0.000 9.4 9 1
02/22/06 6:15 p -7.3 -7.3 -7.3 --- --- 2.6 N 0.04 2.6 -9.7 --- --- 729.9 0.018 0.000 9.4 9 1
02/22/06 6:16 p -7.3 -7.3 -7.4 --- --- 1.7 N 0.03 2.6 -8.6 --- --- 729.9 0.018 0.000 9.4 9 1
02/22/06 6:17 p -7.3 -7.3 -7.4 --- --- 1.7 N 0.03 2.6 -8.6 --- --- 730.0 0.018 0.000 9.4 9 1
02/22/06 6:18 p -7.3 -7.3 -7.3 --- --- 1.7 N 0.03 2.6 -8.6 --- --- 729.9 0.018 0.000 9.4 9 1
02/22/06 6:19 p -7.4 -7.3 -7.4 --- --- 1.7 N 0.03 2.6 -8.7 --- --- 729.9 0.018 0.000 9.4 9 1
02/22/06 6:20 p -7.4 -7.4 -7.4 --- --- 1.7 N 0.03 2.6 -8.7 --- --- 730.0 0.018 0.000 9.5 9 1
02/22/06 6:21 p -7.4 -7.4 -7.5 --- --- 1.7 N 0.03 2.6 -8.8 --- --- 729.9 0.018 0.000 9.5 9 1
02/22/06 6:22 p -7.6 -7.5 -7.6 --- --- 0.9 N 0.01 1.7 -7.6 --- --- 729.9 0.018 0.000 9.5 9 1
02/22/06 6:23 p -7.6 -7.5 -7.6 --- --- 0.0 --- 0.00 0.0 -7.6 --- --- 729.9 0.018 0.000 9.5 9 1
02/22/06 6:24 p -7.5 -7.5 -7.5 --- --- 0.0 N 0.00 1.7 -7.5 --- --- 729.9 0.018 0.000 9.6 9 1
02/22/06 6:25 p -7.5 -7.5 -7.5 --- --- 1.7 N 0.03 2.6 -8.8 --- --- 729.9 0.018 0.000 9.6 9 1
02/22/06 6:26 p -7.4 -7.4 -7.5 --- --- 1.7 N 0.03 3.5 -8.8 --- --- 729.9 0.018 0.000 9.6 9 1
02/22/06 6:27 p -7.4 -7.4 -7.5 --- --- 2.6 N 0.04 3.5 -9.9 --- --- 729.9 0.018 0.000 9.6 9 1
02/22/06 6:28 p -7.4 -7.4 -7.4 --- --- 2.6 N 0.04 3.5 -9.9 --- --- 729.9 0.018 0.000 9.6 9 1
02/22/06 6:29 p -7.4 -7.4 -7.4 --- --- 1.7 N 0.03 2.6 -8.7 --- --- 729.9 0.018 0.000 9.5 9 1
02/22/06 6:30 p -7.4 -7.3 -7.4 --- --- 1.7 N 0.03 2.6 -8.7 --- --- 729.9 0.018 0.000 9.5 9 1
02/22/06 6:31 p -7.4 -7.3 -7.4 --- --- 0.0 N 0.00 0.9 -7.4 --- --- 730.0 0.018 0.000 9.5 9 1
02/22/06 6:32 p -7.4 -7.3 -7.4 --- --- 0.0 --- 0.00 0.0 -7.4 --- --- 729.9 0.018 0.000 9.5 9 1
02/22/06 6:33 p -7.3 -7.3 -7.3 --- --- 0.0 --- 0.00 0.0 -7.3 --- --- 730.0 0.018 0.000 9.5 9 1
02/22/06 6:34 p -7.3 -7.3 -7.4 --- --- 0.0 N 0.00 0.9 -7.3 --- --- 730.0 0.018 0.000 9.5 9 1
02/22/06 6:35 p -7.3 -7.3 -7.3 --- --- 0.0 N 0.00 0.9 -7.3 --- --- 729.9 0.018 0.000 9.5 9 1
02/22/06 6:36 p -7.2 -7.2 -7.3 --- --- 0.0 N 0.00 0.9 -7.2 --- --- 729.9 0.018 0.000 9.5 9 1
02/22/06 6:37 p -7.2 -7.1 -7.2 --- --- 0.9 N 0.01 0.9 -7.2 --- --- 729.9 0.018 0.000 9.5 9 1
02/22/06 6:38 p -7.1 -7.1 -7.1 --- --- 0.9 N 0.01 1.7 -7.1 --- --- 729.9 0.018 0.000 9.4 9 1
02/22/06 6:39 p -7.0 -7.0 -7.0 --- --- 0.9 N 0.01 1.7 -7.0 --- --- 729.9 0.018 0.000 9.4 9 1
02/22/06 6:40 p -6.9 -6.9 -7.0 --- --- 1.7 N 0.03 1.7 -8.2 --- --- 730.0 0.018 0.000 9.4 9 1
02/22/06 6:41 p -6.8 -6.8 -6.9 --- --- 1.7 N 0.03 2.6 -8.1 --- --- 729.9 0.017 0.000 9.4 9 1
02/22/06 6:42 p -6.7 -6.7 -6.8 --- --- 1.7 N 0.03 1.7 -7.9 --- --- 729.9 0.017 0.000 9.4 9 1
02/22/06 6:43 p -6.6 -6.4 -6.6 --- --- 1.7 N 0.03 1.7 -7.8 --- --- 730.0 0.017 0.000 9.4 9 1
02/22/06 6:44 p -6.4 -6.4 -6.4 --- --- 0.0 N 0.00 0.9 -6.4 --- --- 729.9 0.017 0.000 9.4 9 1
02/22/06 6:45 p -6.4 -6.4 -6.4 --- --- 0.9 N 0.01 1.7 -6.4 --- --- 729.9 0.017 0.000 9.4 9 1
02/22/06 6:46 p -6.4 -6.3 -6.4 --- --- 0.9 N 0.01 1.7 -6.4 --- --- 729.9 0.017 0.000 9.4 9 1
02/22/06 6:47 p -6.4 -6.4 -6.4 --- --- 1.7 N 0.03 2.6 -7.6 --- --- 729.9 0.017 0.000 9.4 9 1
02/22/06 6:48 p -6.4 -6.4 -6.5 --- --- 1.7 N 0.03 2.6 -7.7 --- --- 730.0 0.017 0.000 9.4 9 1
02/22/06 6:49 p -6.5 -6.4 -6.6 --- --- 0.0 N 0.00 1.7 -6.5 --- --- 730.0 0.017 0.000 9.4 9 1
02/22/06 6:50 p -6.6 -6.6 -6.6 --- --- 0.0 N 0.00 0.9 -6.6 --- --- 730.0 0.017 0.000 9.4 9 1
02/22/06 6:51 p -6.6 -6.6 -6.6 --- --- 0.0 --- 0.00 0.0 -6.6 --- --- 729.9 0.017 0.000 9.4 9 1
02/22/06 6:52 p -6.7 -6.6 -6.7 --- --- 0.0 --- 0.00 0.0 -6.7 --- --- 729.9 0.017 0.000 9.4 9 1
02/22/06 6:53 p -6.6 -6.6 -6.6 --- --- 0.9 N 0.01 1.7 -6.6 --- --- 729.9 0.017 0.000 9.4 9 1
02/22/06 6:54 p -6.6 -6.6 -6.6 --- --- 1.7 N 0.03 2.6 -7.8 --- --- 730.0 0.017 0.000 9.4 9 1
02/22/06 6:55 p -6.6 -6.6 -6.6 --- --- 2.6 N 0.04 2.6 -8.9 --- --- 730.0 0.017 0.000 9.4 9 1
02/22/06 6:56 p -6.6 -6.5 -6.6 --- --- 2.6 N 0.04 3.5 -8.9 --- --- 730.0 0.017 0.000 9.5 9 1
02/22/06 6:57 p -6.7 -6.7 -6.7 --- --- 2.6 N 0.04 3.5 -9.1 --- --- 730.0 0.017 0.000 9.4 9 1
02/22/06 6:58 p -6.8 -6.8 -6.8 --- --- 2.6 N 0.04 3.5 -9.2 --- --- 729.9 0.017 0.000 9.4 9 1
02/22/06 6:59 p -6.9 -6.8 -6.9 --- --- 3.5 N 0.06 3.5 -10.1 --- --- 730.0 0.018 0.000 9.4 9 1
02/22/06 7:00 p -6.8 -6.7 -6.8 --- --- 2.6 N 0.04 3.5 -9.2 --- --- 730.0 0.017 0.000 9.4 9 1
02/22/06 7:01 p -6.7 -6.7 -6.8 --- --- 3.5 N 0.06 3.5 -9.9 --- --- 730.0 0.017 0.000 9.4 9 1
02/22/06 7:02 p -6.6 -6.5 -6.7 --- --- 3.5 N 0.06 3.5 -9.8 --- --- 730.0 0.017 0.000 9.4 9 1
02/22/06 7:03 p -6.5 -6.5 -6.6 --- --- 3.5 N 0.06 6.1 -9.7 --- --- 730.0 0.017 0.000 9.4 9 1
02/22/06 7:04 p -6.8 -6.6 -7.1 --- --- 6.1 NE 0.10 7.0 -11.8 --- --- 730.0 0.017 0.000 9.4 9 1
02/22/06 7:05 p -7.3 -7.1 -7.4 --- --- 5.2 NE 0.09 7.0 -11.9 --- --- 730.0 0.018 0.000 9.4 9 1
02/22/06 7:07 p -7.9 -7.8 -7.9 --- --- 4.3 NE 0.07 5.2 -12.0 --- --- 730.0 0.018 0.000 9.4 9 1
02/22/06 7:08 p -7.9 -7.9 -7.9 --- --- 4.3 NE 0.07 5.2 -12.0 --- --- 730.0 0.018 0.000 9.4 9 1
02/22/06 7:09 p -7.8 -7.7 -7.9 --- --- 3.5 NNE 0.06 4.3 -11.2 --- --- 730.0 0.018 0.000 9.4 9 1
02/22/06 7:10 p -7.7 -7.6 -7.7 --- --- 3.5 NNE 0.06 3.5 -11.1 --- --- 730.0 0.018 0.000 9.4 9 1
02/22/06 7:11 p -7.4 -7.2 -7.5 --- --- 2.6 NNE 0.04 3.5 -9.8 --- --- 729.9 0.018 0.000 9.4 9 1
02/22/06 7:12 p -7.1 -6.9 -7.2 --- --- 2.6 NNE 0.04 3.5 -9.4 --- --- 729.9 0.018 0.000 9.4 9 1
02/22/06 7:13 p -6.9 -6.9 -6.9 --- --- 3.5 NNE 0.06 3.5 -10.2 --- --- 730.0 0.018 0.000 9.4 9 1
02/22/06 7:14 p -6.9 -6.9 -6.9 --- --- 2.6 NNE 0.04 3.5 -9.3 --- --- 730.0 0.018 0.000 9.4 9 1
02/22/06 7:15 p -6.9 -6.9 -7.0 --- --- 2.6 NNE 0.04 3.5 -9.3 --- --- 730.1 0.018 0.000 9.4 9 1
02/22/06 7:16 p -6.9 -6.9 -7.0 --- --- 2.6 NNE 0.04 2.6 -9.3 --- --- 730.0 0.018 0.000 9.4 9 1
02/22/06 7:17 p -7.0 -6.9 -7.0 --- --- 2.6 NNE 0.04 3.5 -9.4 --- --- 730.0 0.018 0.000 9.4 9 1
02/22/06 7:18 p -6.9 -6.9 -7.0 --- --- 3.5 NNE 0.06 4.3 -10.2 --- --- 730.0 0.018 0.000 9.4 9 1
02/22/06 7:19 p -7.0 -6.9 -7.0 --- --- 3.5 NNE 0.06 4.3 -10.3 --- --- 730.0 0.018 0.000 9.4 8 1
02/22/06 7:20 p -7.0 -7.0 -7.0 --- --- 2.6 NNE 0.04 3.5 -9.4 --- --- 730.0 0.018 0.000 9.4 8 1
02/22/06 7:21 p -7.0 -7.0 -7.1 --- --- 1.7 NNE 0.03 2.6 -8.3 --- --- 730.1 0.018 0.000 9.4 9 1
02/22/06 7:22 p -7.0 -7.0 -7.1 --- --- 2.6 NNE 0.04 4.3 -9.4 --- --- 730.0 0.018 0.000 9.4 9 1
02/22/06 7:23 p -7.1 -7.0 -7.1 --- --- 2.6 N 0.04 3.5 -9.4 --- --- 730.0 0.018 0.000 9.4 9 1
02/22/06 7:24 p -7.0 -7.0 -7.1 --- --- 2.6 N 0.04 3.5 -9.4 --- --- 730.0 0.018 0.000 9.4 9 1
02/22/06 7:25 p -7.0 -6.9 -7.0 --- --- 2.6 N 0.04 3.5 -9.4 --- --- 730.0 0.018 0.000 9.4 9 1
02/22/06 7:26 p -6.9 -6.9 -6.9 --- --- 2.6 N 0.04 3.5 -9.3 --- --- 730.0 0.018 0.000 9.5 9 1
02/22/06 7:27 p -6.9 -6.9 -7.0 --- --- 1.7 N 0.03 2.6 -8.2 --- --- 730.0 0.018 0.000 9.5 9 1
02/22/06 7:28 p -6.9 -6.9 -7.0 --- --- 2.6 N 0.04 2.6 -9.3 --- --- 730.1 0.018 0.000 9.4 8 1
02/22/06 7:29 p -6.9 -6.9 -6.9 --- --- 3.5 N 0.06 4.3 -10.1 --- --- 730.0 0.018 0.000 9.4 9 1
02/22/06 7:30 p -6.9 -6.9 -6.9 --- --- 3.5 N 0.06 4.3 -10.1 --- --- 730.0 0.018 0.000 9.5 9 1
02/22/06 7:31 p -6.9 -6.8 -6.9 --- --- 2.6 N 0.04 3.5 -9.3 --- --- 730.0 0.018 0.000 9.4 9 1
02/22/06 7:32 p -6.8 -6.8 -6.9 --- --- 3.5 N 0.06 3.5 -10.1 --- --- 730.0 0.017 0.000 9.4 9 1
02/22/06 7:33 p -6.8 -6.8 -6.9 --- --- 3.5 N 0.06 4.3 -10.1 --- --- 730.0 0.017 0.000 9.4 8 1
02/22/06 7:34 p -6.8 -6.8 -6.9 --- --- 4.3 N 0.07 5.2 -10.8 --- --- 730.0 0.017 0.000 9.4 8 1
02/22/06 7:35 p -6.8 -6.8 -6.9 --- --- 4.3 N 0.07 4.3 -10.8 --- --- 730.0 0.017 0.000 9.4 8 1
02/22/06 7:36 p -6.8 -6.8 -6.8 --- --- 3.5 N 0.06 4.3 -10.1 --- --- 730.0 0.017 0.000 9.5 9 1
02/22/06 7:37 p -6.8 -6.8 -6.8 --- --- 3.5 N 0.06 4.3 -10.1 --- --- 730.0 0.017 0.000 9.5 8 1
02/22/06 7:38 p -6.8 -6.8 -6.8 --- --- 4.3 N 0.07 4.3 -10.8 --- --- 730.0 0.017 0.000 9.4 8 1
02/22/06 7:39 p -6.8 -6.8 -6.8 --- --- 3.5 N 0.06 4.3 -10.1 --- --- 730.1 0.017 0.000 9.4 8 1
02/22/06 7:40 p -6.9 -6.8 -6.9 --- --- 3.5 N 0.06 4.3 -10.1 --- --- 730.0 0.018 0.000 9.4 9 1
02/22/06 7:41 p -6.9 -6.9 -6.9 --- --- 3.5 N 0.06 4.3 -10.2 --- --- 730.1 0.018 0.000 9.4 8 1
02/22/06 7:42 p -6.9 -6.9 -7.0 --- --- 4.3 N 0.07 5.2 -10.9 --- --- 730.0 0.018 0.000 9.4 8 1
02/22/06 7:43 p -7.1 -7.1 -7.2 --- --- 3.5 NNW 0.06 4.3 -10.4 --- --- 730.0 0.018 0.000 9.4 8 1
02/22/06 7:44 p -7.2 -7.1 -7.3 --- --- 2.6 NNW 0.04 3.5 -9.7 --- --- 730.0 0.018 0.000 9.4 8 1
02/22/06 7:45 p -7.3 -7.3 -7.3 --- --- 2.6 NNW 0.04 2.6 -9.8 --- --- 730.0 0.018 0.000 9.4 9 1
02/22/06 7:46 p -7.3 -7.3 -7.3 --- --- 2.6 NNW 0.04 3.5 -9.8 --- --- 729.9 0.018 0.000 9.4 8 1
02/22/06 7:47 p -7.4 -7.4 -7.4 --- --- 2.6 NNW 0.04 3.5 -9.8 --- --- 730.0 0.018 0.000 9.4 8 1
02/22/06 7:48 p -7.6 -7.4 -7.7 --- --- 2.6 NNW 0.04 3.5 -10.1 --- --- 730.0 0.018 0.000 9.4 8 1
02/22/06 7:49 p -7.8 -7.7 -7.9 --- --- 2.6 NNW 0.04 3.5 -10.3 --- --- 730.0 0.018 0.000 9.4 8 1
02/22/06 7:50 p -7.9 -7.9 -7.9 --- --- 2.6 NNW 0.04 3.5 -10.5 --- --- 730.0 0.018 0.000 9.4 8 1
02/22/06 7:51 p -7.9 -7.9 -7.9 --- --- 3.5 NNW 0.06 4.3 -11.3 --- --- 730.1 0.018 0.000 9.4 8 1
02/22/06 7:52 p -7.9 -7.9 -7.9 --- --- 2.6 NNW 0.04 2.6 -10.5 --- --- 730.0 0.018 0.000 9.4 8 1
02/22/06 7:53 p -7.9 -7.8 -7.9 --- --- 2.6 NNW 0.04 3.5 -10.4 --- --- 730.1 0.018 0.000 9.4 8 1
02/22/06 7:54 p -7.8 -7.8 -7.8 --- --- 2.6 NNW 0.04 3.5 -10.3 --- --- 730.1 0.018 0.000 9.4 8 1
02/22/06 7:55 p -7.8 -7.7 -7.8 --- --- 2.6 NNW 0.04 3.5 -10.3 --- --- 730.0 0.018 0.000 9.4 8 1
02/22/06 7:56 p -7.7 -7.7 -7.7 --- --- 2.6 NNW 0.04 3.5 -10.2 --- --- 730.1 0.018 0.000 9.4 8 1
02/22/06 7:57 p -7.7 -7.7 -7.8 --- --- 2.6 NNW 0.04 3.5 -10.2 --- --- 730.0 0.018 0.000 9.4 8 1
02/22/06 7:58 p -7.7 -7.7 -7.8 --- --- 2.6 NNW 0.04 3.5 -10.2 --- --- 730.1 0.018 0.000 9.4 8 1
02/22/06 7:59 p -7.8 -7.7 -7.8 --- --- 2.6 NNW 0.04 3.5 -10.3 --- --- 730.0 0.018 0.000 9.5 8 1
02/22/06 8:00 p -7.8 -7.8 -7.8 --- --- 2.6 NNW 0.04 3.5 -10.3 --- --- 730.1 0.018 0.000 9.4 8 1
02/22/06 8:01 p -7.7 -7.7 -7.8 --- --- 2.6 NNW 0.04 3.5 -10.2 --- --- 730.0 0.018 0.000 9.4 8 1
02/22/06 8:02 p -7.7 -7.7 -7.7 --- --- 2.6 NNW 0.04 2.6 -10.2 --- --- 730.1 0.018 0.000 9.4 8 1
02/22/06 8:03 p -7.7 -7.7 -7.7 --- --- 2.6 NNW 0.04 2.6 -10.2 --- --- 730.0 0.018 0.000 9.4 8 1
02/22/06 8:04 p -7.7 -7.7 -7.7 --- --- 1.7 NNW 0.03 2.6 -9.0 --- --- 730.1 0.018 0.000 9.4 8 1
02/22/06 8:05 p -7.7 -7.6 -7.7 --- --- 1.7 NNW 0.03 2.6 -9.0 --- --- 730.1 0.018 0.000 9.5 8 1
02/22/06 8:06 p -7.7 -7.6 -7.7 --- --- 2.6 NNW 0.04 2.6 -10.2 --- --- 730.1 0.018 0.000 9.4 8 1
02/22/06 8:07 p -7.6 -7.6 -7.7 --- --- 1.7 NNW 0.03 2.6 -8.9 --- --- 730.1 0.018 0.000 9.4 8 1
02/22/06 8:08 p -7.6 -7.6 -7.7 --- --- 1.7 NNW 0.03 2.6 -8.9 --- --- 730.1 0.018 0.000 9.4 8 1
02/22/06 8:09 p -7.6 -7.6 -7.6 --- --- 2.6 NNW 0.04 3.5 -10.1 --- --- 730.1 0.018 0.000 9.4 8 1
02/22/06 8:10 p -7.6 -7.6 -7.6 --- --- 1.7 NNW 0.03 2.6 -8.9 --- --- 730.1 0.018 0.000 9.4 8 1
02/22/06 8:11 p -7.5 -7.5 -7.6 --- --- 2.6 NNW 0.04 3.5 -10.0 --- --- 730.1 0.018 0.000 9.4 8 1
02/22/06 8:12 p -7.5 -7.5 -7.5 --- --- 2.6 NNW 0.04 3.5 -10.0 --- --- 730.1 0.018 0.000 9.4 8 1
02/22/06 8:13 p -7.5 -7.5 -7.6 --- --- 3.5 NNW 0.06 4.3 -10.8 --- --- 730.1 0.018 0.000 9.4 8 1
02/22/06 8:14 p -7.5 -7.5 -7.6 --- --- 3.5 NNW 0.06 4.3 -10.8 --- --- 730.1 0.018 0.000 9.4 9 1
02/22/06 8:15 p -7.6 -7.5 -7.6 --- --- 3.5 NNW 0.06 4.3 -10.9 --- --- 730.1 0.018 0.000 9.4 8 1
02/22/06 8:16 p -7.6 -7.6 -7.6 --- --- 3.5 NNW 0.06 4.3 -10.9 --- --- 730.2 0.018 0.000 9.4 8 1
02/22/06 8:17 p -7.5 -7.5 -7.6 --- --- 3.5 NNW 0.06 4.3 -10.8 --- --- 730.1 0.018 0.000 9.4 8 1
02/22/06 8:18 p -7.4 -7.4 -7.5 --- --- 3.5 NNW 0.06 4.3 -10.8 --- --- 730.1 0.018 0.000 9.4 8 1
02/22/06 8:19 p -7.3 -7.3 -7.4 --- --- 3.5 NNW 0.06 4.3 -10.7 --- --- 730.2 0.018 0.000 9.4 8 1
02/22/06 8:20 p -7.3 -7.3 -7.3 --- --- 3.5 NNW 0.06 4.3 -10.7 --- --- 730.1 0.018 0.000 9.4 8 1
02/22/06 8:21 p -7.3 -7.3 -7.3 --- --- 3.5 NNW 0.06 4.3 -10.7 --- --- 730.2 0.018 0.000 9.4 8 1
02/22/06 8:22 p -7.3 -7.3 -7.4 --- --- 3.5 NNW 0.06 4.3 -10.7 --- --- 730.2 0.018 0.000 9.4 8 1
02/22/06 8:23 p -7.3 -7.2 -7.3 --- --- 3.5 NNW 0.06 4.3 -10.6 --- --- 730.1 0.018 0.000 9.4 9 1
02/22/06 8:24 p -7.2 -7.2 -7.3 --- --- 3.5 NNW 0.06 4.3 -10.5 --- --- 730.2 0.018 0.000 9.4 8 1
02/22/06 8:25 p -7.2 -7.1 -7.2 --- --- 3.5 NNW 0.06 3.5 -10.4 --- --- 730.2 0.018 0.000 9.4 8 1
02/22/06 8:26 p -7.1 -7.1 -7.2 --- --- 3.5 NNW 0.06 4.3 -10.4 --- --- 730.2 0.018 0.000 9.4 8 1
02/22/06 8:27 p -7.2 -7.2 -7.2 --- --- 3.5 NNW 0.06 3.5 -10.4 --- --- 730.2 0.018 0.000 9.4 9 1
02/22/06 8:28 p -7.2 -7.2 -7.2 --- --- 3.5 NNW 0.06 4.3 -10.4 --- --- 730.3 0.018 0.000 9.4 8 1
02/22/06 8:29 p -7.2 -7.2 -7.2 --- --- 3.5 NNW 0.06 4.3 -10.4 --- --- 730.2 0.018 0.000 9.4 8 1
02/22/06 8:30 p -7.2 -7.2 -7.2 --- --- 3.5 NNW 0.06 3.5 -10.4 --- --- 730.2 0.018 0.000 9.4 8 1
02/22/06 8:31 p -7.3 -7.3 -7.3 --- --- 3.5 NNW 0.06 3.5 -10.6 --- --- 730.2 0.018 0.000 9.4 8 1
02/22/06 8:32 p -7.3 -7.3 -7.3 --- --- 2.6 NNW 0.04 3.5 -9.8 --- --- 730.2 0.018 0.000 9.4 8 1
02/22/06 8:33 p -7.4 -7.4 -7.4 --- --- 2.6 NNW 0.04 3.5 -9.8 --- --- 730.4 0.018 0.000 9.4 8 1
02/22/06 8:34 p -7.4 -7.4 -7.4 --- --- 2.6 NNW 0.04 3.5 -9.8 --- --- 730.2 0.018 0.000 9.4 9 1
02/22/06 8:35 p -7.4 -7.4 -7.4 --- --- 3.5 NNW 0.06 4.3 -10.8 --- --- 730.3 0.018 0.000 9.4 8 1
02/22/06 8:36 p -7.4 -7.4 -7.4 --- --- 2.6 NNW 0.04 3.5 -9.9 --- --- 730.2 0.018 0.000 9.4 9 1
02/22/06 8:37 p -7.4 -7.4 -7.4 --- --- 2.6 NNW 0.04 2.6 -9.9 --- --- 730.3 0.018 0.000 9.4 8 1
02/22/06 8:38 p -7.5 -7.4 -7.6 --- --- 2.6 NNW 0.04 3.5 -10.0 --- --- 730.2 0.018 0.000 9.4 9 1
02/22/06 8:39 p -7.6 -7.6 -7.7 --- --- 3.5 NNW 0.06 3.5 -10.9 --- --- 730.3 0.018 0.000 9.4 8 1
02/22/06 8:40 p -7.7 -7.7 -7.7 --- --- 3.5 NNW 0.06 3.5 -11.1 --- --- 730.2 0.018 0.000 9.4 9 1
02/22/06 8:41 p -7.7 -7.7 -7.7 --- --- 2.6 NNW 0.04 3.5 -10.2 --- --- 730.3 0.018 0.000 9.4 8 1
02/22/06 8:42 p -7.7 -7.6 -7.7 --- --- 3.5 NNW 0.06 4.3 -11.1 --- --- 730.3 0.018 0.000 9.4 8 1
02/22/06 8:43 p -7.6 -7.6 -7.6 --- --- 3.5 NNW 0.06 4.3 -10.9 --- --- 730.3 0.018 0.000 9.5 9 1
02/22/06 8:44 p -7.6 -7.6 -7.6 --- --- 3.5 NNW 0.06 3.5 -10.9 --- --- 730.3 0.018 0.000 9.5 9 1
02/22/06 8:45 p -7.5 -7.5 -7.6 --- --- 3.5 NNW 0.06 4.3 -10.8 --- --- 730.2 0.018 0.000 9.5 8 1
02/22/06 8:46 p -7.6 -7.6 -7.6 --- --- 2.6 NNW 0.04 3.5 -10.1 --- --- 730.4 0.018 0.000 9.5 8 1
02/22/06 8:47 p -7.6 -7.6 -7.6 --- --- 2.6 NNW 0.04 3.5 -10.1 --- --- 730.3 0.018 0.000 9.5 8 1
02/22/06 8:48 p -7.6 -7.6 -7.7 --- --- 1.7 NNW 0.03 1.7 -8.9 --- --- 730.3 0.018 0.000 9.4 9 1
02/22/06 8:49 p -7.7 -7.7 -7.7 --- --- 0.9 NNW 0.01 1.7 -7.7 --- --- 730.3 0.018 0.000 9.4 8 1
02/22/06 8:50 p -7.7 -7.7 -7.7 --- --- 0.9 NNW 0.01 1.7 -7.7 --- --- 730.3 0.018 0.000 9.5 8 1
02/22/06 8:51 p -7.7 -7.7 -7.7 --- --- 1.7 NNW 0.03 1.7 -9.1 --- --- 730.4 0.018 0.000 9.4 9 1
02/22/06 8:52 p -7.7 -7.7 -7.7 --- --- 0.9 NNW 0.01 1.7 -7.7 --- --- 730.3 0.018 0.000 9.4 8 1
02/22/06 8:53 p -7.7 -7.7 -7.7 --- --- 1.7 NNW 0.03 1.7 -9.0 --- --- 730.3 0.018 0.000 9.4 8 1
02/22/06 8:54 p -7.7 -7.7 -7.7 --- --- 1.7 NNW 0.03 2.6 -9.0 --- --- 730.3 0.018 0.000 9.5 9 1
02/22/06 8:55 p -7.7 -7.7 -7.7 --- --- 1.7 NNW 0.03 1.7 -9.0 --- --- 730.3 0.018 0.000 9.4 8 1
02/22/06 8:56 p -7.7 -7.7 -7.7 --- --- 0.9 NNW 0.01 1.7 -7.7 --- --- 730.4 0.018 0.000 9.4 9 1
02/22/06 8:57 p -7.7 -7.7 -7.7 --- --- 0.9 NNW 0.01 1.7 -7.7 --- --- 730.4 0.018 0.000 9.4 8 1
02/22/06 8:58 p -7.7 -7.7 -7.7 --- --- 0.9 NNW 0.01 1.7 -7.7 --- --- 730.3 0.018 0.000 9.4 9 1
02/22/06 8:59 p -7.7 -7.7 -7.7 --- --- 0.9 NNW 0.01 0.9 -7.7 --- --- 730.3 0.018 0.000 9.4 8 1
02/22/06 9:00 p -7.7 -7.7 -7.7 --- --- 0.9 NNW 0.01 0.9 -7.7 --- --- 730.5 0.018 0.000 9.4 9 1
02/22/06 9:01 p -7.6 -7.5 -7.7 --- --- 1.7 NE 0.03 5.2 -8.9 --- --- 730.3 0.018 0.000 9.5 9 1
02/22/06 9:02 p -7.7 -7.6 -7.9 --- --- 7.0 NE 0.12 8.7 -13.3 --- --- 730.4 0.018 0.000 9.4 8 1
02/22/06 9:03 p -8.4 -8.1 -8.7 --- --- 7.8 NE 0.13 9.6 -14.6 --- --- 730.4 0.019 0.000 9.5 8 1
02/22/06 9:04 p -9.1 -8.9 -9.3 --- --- 7.8 NE 0.13 8.7 -15.4 --- --- 730.4 0.019 0.000 9.5 8 1
02/22/06 9:05 p -9.5 -9.4 -9.6 --- --- 8.7 NE 0.14 9.6 -16.4 --- --- 730.3 0.019 0.000 9.5 8 1
02/22/06 9:06 p -9.8 -9.7 -9.9 --- --- 8.7 NE 0.14 9.6 -16.7 --- --- 730.3 0.020 0.000 9.4 8 1
02/22/06 9:07 p -10.0 -9.9 -10.1 --- --- 8.7 NE 0.14 9.6 -17.0 --- --- 730.4 0.020 0.000 9.4 8 1
02/22/06 9:08 p -10.1 -10.1 -10.2 --- --- 8.7 NE 0.14 9.6 -17.1 --- --- 730.3 0.020 0.000 9.4 8 1
02/22/06 9:09 p -10.3 -10.2 -10.3 --- --- 7.8 NE 0.13 9.6 -16.9 --- --- 730.4 0.020 0.000 9.4 8 1
02/22/06 9:10 p -10.3 -10.3 -10.4 --- --- 8.7 NE 0.14 9.6 -17.4 --- --- 730.4 0.020 0.000 9.4 8 1
02/22/06 9:11 p -10.4 -10.4 -10.4 --- --- 9.6 NE 0.16 10.4 -17.8 --- --- 730.3 0.020 0.000 9.4 8 1
02/22/06 9:12 p -10.5 -10.4 -10.5 --- --- 8.7 NE 0.14 9.6 -17.6 --- --- 730.4 0.020 0.000 9.4 8 1
02/22/06 9:13 p -10.5 -10.5 -10.5 --- --- 8.7 NE 0.14 10.4 -17.6 --- --- 730.4 0.020 0.000 9.5 8 1
02/22/06 9:14 p -10.6 -10.6 -10.6 --- --- 8.7 NE 0.14 9.6 -17.7 --- --- 730.3 0.020 0.000 9.4 8 1
02/22/06 9:15 p -10.6 -10.6 -10.6 --- --- 8.7 NE 0.14 10.4 -17.7 --- --- 730.3 0.020 0.000 9.4 8 1
02/22/06 9:16 p -10.7 -10.6 -10.7 --- --- 9.6 NE 0.16 10.4 -18.1 --- --- 730.3 0.020 0.000 9.4 8 1
02/22/06 9:17 p -10.7 -10.7 -10.7 --- --- 8.7 NE 0.14 9.6 -17.8 --- --- 730.4 0.020 0.000 9.4 8 1
02/22/06 9:18 p -10.6 -10.6 -10.7 --- --- 7.8 NE 0.13 8.7 -17.3 --- --- 730.4 0.020 0.000 9.4 8 1
02/22/06 9:19 p -10.6 -10.6 -10.6 --- --- 8.7 NE 0.14 9.6 -17.7 --- --- 730.4 0.020 0.000 9.4 8 1
02/22/06 9:20 p -10.6 -10.6 -10.7 --- --- 8.7 NE 0.14 9.6 -17.7 --- --- 730.5 0.020 0.000 9.4 8 1
02/22/06 9:21 p -10.7 -10.7 -10.7 --- --- 8.7 NE 0.14 9.6 -17.8 --- --- 730.5 0.020 0.000 9.4 8 1
02/22/06 9:22 p -10.7 -10.7 -10.8 --- --- 8.7 NE 0.14 10.4 -17.8 --- --- 730.4 0.020 0.000 9.4 8 1
02/22/06 9:23 p -10.7 -10.7 -10.8 --- --- 8.7 NE 0.14 9.6 -17.8 --- --- 730.4 0.020 0.000 9.4 8 1
02/22/06 9:24 p -10.7 -10.7 -10.7 --- --- 8.7 NE 0.14 9.6 -17.8 --- --- 730.5 0.020 0.000 9.4 8 1
02/22/06 9:25 p -10.7 -10.6 -10.7 --- --- 8.7 NE 0.14 11.3 -17.8 --- --- 730.5 0.020 0.000 9.4 8 1
02/22/06 9:26 p -10.7 -10.7 -10.7 --- --- 7.8 NE 0.13 9.6 -17.4 --- --- 730.5 0.020 0.000 9.4 8 1
02/22/06 9:27 p -10.7 -10.7 -10.7 --- --- 9.6 NE 0.16 10.4 -18.1 --- --- 730.4 0.020 0.000 9.4 8 1
02/22/06 9:28 p -10.8 -10.7 -10.8 --- --- 8.7 NE 0.14 9.6 -17.9 --- --- 730.5 0.020 0.000 9.4 8 1
02/22/06 9:29 p -10.7 -10.7 -10.7 --- --- 7.8 NE 0.13 8.7 -17.5 --- --- 730.5 0.020 0.000 9.4 8 1
02/22/06 9:30 p -10.6 -10.6 -10.7 --- --- 7.8 NE 0.13 9.6 -17.3 --- --- 730.5 0.020 0.000 9.4 8 1
02/22/06 9:31 p -10.5 -10.4 -10.6 --- --- 8.7 NE 0.14 10.4 -17.6 --- --- 730.4 0.020 0.000 9.4 8 1
02/22/06 9:32 p -10.4 -10.4 -10.4 --- --- 7.8 NE 0.13 9.6 -17.1 --- --- 730.4 0.020 0.000 9.4 8 1
02/22/06 9:33 p -10.4 -10.3 -10.4 --- --- 8.7 NE 0.14 9.6 -17.5 --- --- 730.5 0.020 0.000 9.4 8 1
02/22/06 9:34 p -10.4 -10.4 -10.4 --- --- 8.7 NE 0.14 10.4 -17.5 --- --- 730.5 0.020 0.000 9.4 8 1
02/22/06 9:35 p -10.4 -10.4 -10.4 --- --- 8.7 NE 0.14 9.6 -17.5 --- --- 730.5 0.020 0.000 9.4 8 1
02/22/06 9:36 p -10.4 -10.4 -10.4 --- --- 9.6 NE 0.16 11.3 -17.8 --- --- 730.5 0.020 0.000 9.4 8 1
02/22/06 9:37 p -10.4 -10.3 -10.4 --- --- 8.7 NE 0.14 9.6 -17.5 --- --- 730.5 0.020 0.000 9.4 8 1
02/22/06 9:38 p -10.3 -10.3 -10.4 --- --- 7.8 NE 0.13 8.7 -17.0 --- --- 730.6 0.020 0.000 9.4 8 1
02/22/06 9:39 p -10.2 -10.2 -10.3 --- --- 9.6 NE 0.16 10.4 -17.6 --- --- 730.5 0.020 0.000 9.4 8 1
02/22/06 9:40 p -10.3 -10.3 -10.3 --- --- 8.7 NE 0.14 10.4 -17.3 --- --- 730.5 0.020 0.000 9.4 8 1
02/22/06 9:41 p -10.3 -10.3 -10.3 --- --- 8.7 NE 0.14 10.4 -17.4 --- --- 730.6 0.020 0.000 9.4 8 1
02/22/06 9:42 p -10.3 -10.2 -10.3 --- --- 8.7 NE 0.14 9.6 -17.3 --- --- 730.5 0.020 0.000 9.4 8 1
02/22/06 9:43 p -10.3 -10.2 -10.3 --- --- 7.8 NE 0.13 9.6 -16.9 --- --- 730.6 0.020 0.000 9.4 7 1
02/22/06 9:44 p -10.1 -10.1 -10.2 --- --- 7.8 NE 0.13 9.6 -16.7 --- --- 730.5 0.020 0.000 9.4 7 1
02/22/06 9:45 p -10.0 -10.0 -10.1 --- --- 7.0 NE 0.12 8.7 -16.2 --- --- 730.5 0.020 0.000 9.4 8 1
02/22/06 9:46 p -9.9 -9.9 -10.0 --- --- 7.8 NE 0.13 10.4 -16.5 --- --- 730.6 0.020 0.000 9.5 7 1
02/22/06 9:47 p -10.0 -9.9 -10.1 --- --- 8.7 NE 0.14 10.4 -17.0 --- --- 730.6 0.020 0.000 9.5 7 1
02/22/06 9:48 p -10.1 -10.1 -10.1 --- --- 8.7 NE 0.14 10.4 -17.1 --- --- 730.5 0.020 0.000 9.5 7 1
02/22/06 9:49 p -10.1 -10.1 -10.1 --- --- 8.7 NE 0.14 9.6 -17.1 --- --- 730.5 0.020 0.000 9.5 7 1
02/22/06 9:50 p -10.2 -10.1 -10.2 --- --- 8.7 NE 0.14 10.4 -17.2 --- --- 730.6 0.020 0.000 9.6 7 1
02/22/06 9:51 p -10.2 -10.2 -10.2 --- --- 8.7 NE 0.14 9.6 -17.3 --- --- 730.6 0.020 0.000 9.6 7 1
02/22/06 9:52 p -10.3 -10.2 -10.3 --- --- 8.7 NE 0.14 10.4 -17.3 --- --- 730.6 0.020 0.000 9.6 7 1
02/22/06 9:53 p -10.3 -10.3 -10.3 --- --- 9.6 NE 0.16 10.4 -17.7 --- --- 730.5 0.020 0.000 9.6 7 1
02/22/06 9:54 p -10.4 -10.3 -10.4 --- --- 9.6 NE 0.16 10.4 -17.8 --- --- 730.6 0.020 0.000 9.6 7 1
02/22/06 9:55 p -10.4 -10.4 -10.4 --- --- 8.7 NE 0.14 10.4 -17.5 --- --- 730.5 0.020 0.000 9.6 7 1
02/22/06 9:56 p -10.4 -10.3 -10.4 --- --- 9.6 NE 0.16 10.4 -17.8 --- --- 730.5 0.020 0.000 9.6 7 1
02/22/06 9:57 p -10.4 -10.3 -10.4 --- --- 9.6 NE 0.16 10.4 -17.8 --- --- 730.5 0.020 0.000 9.6 7 1
02/22/06 9:58 p -10.3 -10.3 -10.4 --- --- 7.8 NE 0.13 8.7 -17.0 --- --- 730.5 0.020 0.000 9.6 7 1
02/22/06 9:59 p -10.3 -10.2 -10.3 --- --- 7.8 NE 0.13 9.6 -16.9 --- --- 730.6 0.020 0.000 9.6 7 1
02/22/06 10:00 p -10.2 -10.2 -10.2 --- --- 8.7 NE 0.14 9.6 -17.3 --- --- 730.5 0.020 0.000 9.5 7 1
02/22/06 10:01 p -10.2 -10.2 -10.2 --- --- 7.8 NE 0.13 9.6 -16.9 --- --- 730.5 0.020 0.000 9.5 7 1
02/22/06 10:02 p -10.2 -10.1 -10.2 --- --- 7.8 NE 0.13 8.7 -16.8 --- --- 730.5 0.020 0.000 9.5 7 1
02/22/06 10:03 p -10.0 -10.0 -10.1 --- --- 7.8 NE 0.13 8.7 -16.6 --- --- 730.6 0.020 0.000 9.5 7 1
02/22/06 10:04 p -9.9 -9.9 -10.0 --- --- 7.8 NE 0.13 8.7 -16.5 --- --- 730.5 0.020 0.000 9.5 7 1
02/22/06 10:05 p -9.9 -9.8 -9.9 --- --- 7.0 NE 0.12 7.8 -16.0 --- --- 730.6 0.020 0.000 9.4 7 1
02/22/06 10:06 p -9.8 -9.8 -9.8 --- --- 7.8 NE 0.13 8.7 -16.3 --- --- 730.5 0.020 0.000 9.4 7 1
02/22/06 10:07 p -9.8 -9.8 -9.8 --- --- 7.8 NE 0.13 9.6 -16.3 --- --- 730.5 0.020 0.000 9.4 7 1
02/22/06 10:08 p -9.7 -9.7 -9.7 --- --- 7.8 NE 0.13 8.7 -16.2 --- --- 730.5 0.019 0.000 9.4 7 1
02/22/06 10:09 p -9.7 -9.7 -9.7 --- --- 7.8 NE 0.13 8.7 -16.2 --- --- 730.6 0.019 0.000 9.4 7 1
02/22/06 10:10 p -9.7 -9.7 -9.8 --- --- 8.7 NE 0.14 9.6 -16.7 --- --- 730.5 0.019 0.000 9.4 7 1
02/22/06 10:11 p -9.8 -9.8 -9.8 --- --- 7.8 NE 0.13 8.7 -16.3 --- --- 730.6 0.020 0.000 9.4 7 1
02/22/06 10:12 p -9.8 -9.8 -9.8 --- --- 7.8 NE 0.13 8.7 -16.3 --- --- 730.6 0.020 0.000 9.4 7 1
02/22/06 10:13 p -9.7 -9.7 -9.8 --- --- 7.0 NE 0.12 8.7 -15.8 --- --- 730.7 0.019 0.000 9.4 7 1
02/22/06 10:14 p -9.7 -9.7 -9.7 --- --- 7.0 NE 0.12 7.8 -15.7 --- --- 730.6 0.019 0.000 9.4 7 1
02/22/06 10:15 p -9.6 -9.5 -9.6 --- --- 6.1 NE 0.10 7.0 -15.1 --- --- 730.6 0.019 0.000 9.4 7 1
02/22/06 10:16 p -9.4 -9.3 -9.4 --- --- 5.2 NE 0.09 6.1 -14.4 --- --- 730.5 0.019 0.000 9.4 7 1
02/22/06 10:17 p -9.2 -9.0 -9.3 --- --- 3.5 NE 0.06 5.2 -12.8 --- --- 730.6 0.019 0.000 9.4 7 1
02/22/06 10:18 p -8.9 -8.8 -9.0 --- --- 3.5 NE 0.06 4.3 -12.4 --- --- 730.7 0.019 0.000 9.4 7 1
02/22/06 10:19 p -8.7 -8.7 -8.8 --- --- 3.5 NE 0.06 4.3 -12.3 --- --- 730.6 0.019 0.000 9.4 7 1
02/22/06 10:20 p -8.6 -8.6 -8.7 --- --- 1.7 NE 0.03 3.5 -10.1 --- --- 730.7 0.019 0.000 9.4 7 1
02/22/06 10:21 p -8.3 -8.2 -8.5 --- --- 0.9 NE 0.01 1.7 -8.3 --- --- 730.7 0.019 0.000 9.4 7 1
02/22/06 10:22 p -8.0 -7.9 -8.1 --- --- 1.7 NE 0.03 2.6 -9.4 --- --- 730.6 0.018 0.000 9.4 7 1
02/22/06 10:23 p -7.8 -7.8 -7.9 --- --- 2.6 NE 0.04 2.6 -10.3 --- --- 730.6 0.018 0.000 9.4 7 1
02/22/06 10:24 p -7.7 -7.7 -7.7 --- --- 2.6 NNE 0.04 3.5 -10.2 --- --- 730.6 0.018 0.000 9.4 7 1
02/22/06 10:25 p -7.6 -7.6 -7.6 --- --- 3.5 NNE 0.06 3.5 -10.9 --- --- 730.7 0.018 0.000 9.4 7 1
02/22/06 10:26 p -7.6 -7.5 -7.7 --- --- 2.6 WNW 0.04 4.3 -10.1 --- --- 730.7 0.018 0.000 9.4 7 1
02/22/06 10:27 p -7.8 -7.7 -7.8 --- --- 1.7 WNW 0.03 2.6 -9.1 --- --- 730.7 0.018 0.000 9.4 7 1
02/22/06 10:28 p -7.8 -7.7 -7.8 --- --- 1.7 WNW 0.03 2.6 -9.1 --- --- 730.7 0.018 0.000 9.4 7 1
02/22/06 10:29 p -7.6 -7.5 -7.7 --- --- 0.9 WNW 0.01 1.7 -7.6 --- --- 730.7 0.018 0.000 9.4 7 1
02/22/06 10:30 p -7.6 -7.5 -7.6 --- --- 0.9 WNW 0.01 1.7 -7.6 --- --- 730.7 0.018 0.000 9.4 7 1
02/22/06 10:31 p -7.6 -7.6 -7.7 --- --- 0.9 WNW 0.01 1.7 -7.6 --- --- 730.7 0.018 0.000 9.4 7 1
02/22/06 10:32 p -7.7 -7.7 -7.7 --- --- 0.9 WNW 0.01 1.7 -7.7 --- --- 730.7 0.018 0.000 9.4 7 1
02/22/06 10:33 p -7.7 -7.7 -7.7 --- --- 1.7 WNW 0.03 1.7 -9.1 --- --- 730.7 0.018 0.000 9.4 7 1
02/22/06 10:34 p -7.7 -7.7 -7.7 --- --- 1.7 WNW 0.03 1.7 -9.1 --- --- 730.7 0.018 0.000 9.4 7 1
02/22/06 10:35 p -7.7 -7.6 -7.7 --- --- 1.7 WNW 0.03 2.6 -9.0 --- --- 730.6 0.018 0.000 9.4 7 1
02/22/06 10:36 p -7.6 -7.5 -7.6 --- --- 3.5 WNW 0.06 4.3 -10.9 --- --- 730.7 0.018 0.000 9.4 7 1
02/22/06 10:37 p -7.6 -7.6 -7.6 --- --- 2.6 WNW 0.04 3.5 -10.1 --- --- 730.8 0.018 0.000 9.4 7 1
02/22/06 10:38 p -7.7 -7.6 -7.7 --- --- 1.7 WNW 0.03 2.6 -9.0 --- --- 730.7 0.018 0.000 9.4 7 1
02/22/06 10:39 p -7.6 -7.6 -7.7 --- --- 0.9 WNW 0.01 2.6 -7.6 --- --- 730.6 0.018 0.000 9.4 7 1
02/22/06 10:40 p -7.6 -7.5 -7.6 --- --- 0.0 WNW 0.00 1.7 -7.6 --- --- 730.7 0.018 0.000 9.4 7 1
02/22/06 10:41 p -7.6 -7.5 -7.6 --- --- 0.0 WNW 0.00 0.9 -7.6 --- --- 730.7 0.018 0.000 9.4 7 1
02/22/06 10:42 p -7.5 -7.4 -7.6 --- --- 0.0 --- 0.00 0.9 -7.5 --- --- 730.8 0.018 0.000 9.4 7 1
02/22/06 10:43 p -7.3 -7.2 -7.4 --- --- 0.9 WNW 0.01 3.5 -7.3 --- --- 730.7 0.018 0.000 9.4 7 1
02/22/06 10:44 p -7.2 -7.2 -7.2 --- --- 3.5 N 0.06 5.2 -10.5 --- --- 730.8 0.018 0.000 9.4 7 1
02/22/06 10:45 p -7.3 -7.2 -7.4 --- --- 5.2 NE 0.09 7.0 -11.9 --- --- 730.8 0.018 0.000 9.4 7 1
02/22/06 10:46 p -7.6 -7.5 -7.6 --- --- 6.1 NE 0.10 7.0 -12.7 --- --- 730.8 0.018 0.000 9.4 7 1
02/22/06 10:47 p -7.8 -7.7 -8.1 --- --- 7.0 NE 0.12 9.6 -13.5 --- --- 730.8 0.018 0.000 9.4 7 1
02/22/06 10:48 p -8.1 -8.1 -8.2 --- --- 7.0 NE 0.12 8.7 -13.8 --- --- 730.7 0.018 0.000 9.4 7 1
02/22/06 10:49 p -8.3 -8.2 -8.4 --- --- 7.8 NE 0.13 9.6 -14.5 --- --- 730.8 0.018 0.000 9.4 7 1
02/22/06 10:50 p -8.4 -8.4 -8.5 --- --- 6.1 NE 0.10 7.8 -13.8 --- --- 730.8 0.019 0.000 9.4 7 1
02/22/06 10:51 p -8.6 -8.6 -8.7 --- --- 7.0 NE 0.12 7.8 -14.4 --- --- 730.7 0.019 0.000 9.4 7 1
02/22/06 10:52 p -8.8 -8.7 -8.9 --- --- 7.8 NE 0.13 9.6 -15.1 --- --- 730.7 0.019 0.000 9.4 7 1
02/22/06 10:53 p -9.0 -8.9 -9.1 --- --- 7.8 NE 0.13 8.7 -15.4 --- --- 730.8 0.019 0.000 9.4 7 1
02/22/06 10:54 p -9.1 -9.1 -9.1 --- --- 7.0 NE 0.12 8.7 -15.1 --- --- 730.8 0.019 0.000 9.4 7 1
02/22/06 10:55 p -9.2 -9.1 -9.2 --- --- 7.8 NE 0.13 8.7 -15.6 --- --- 730.9 0.019 0.000 9.4 7 1
02/22/06 10:56 p -9.2 -9.2 -9.3 --- --- 7.8 NE 0.13 8.7 -15.6 --- --- 730.9 0.019 0.000 9.4 7 1
02/22/06 10:57 p -9.3 -9.3 -9.4 --- --- 7.8 NE 0.13 9.6 -15.8 --- --- 730.9 0.019 0.000 9.4 7 1
02/22/06 10:58 p -9.4 -9.3 -9.4 --- --- 8.7 NE 0.14 10.4 -16.2 --- --- 730.9 0.019 0.000 9.4 7 1
02/22/06 10:59 p -9.4 -9.4 -9.4 --- --- 8.7 NE 0.14 9.6 -16.3 --- --- 730.8 0.019 0.000 9.4 7 1
02/22/06 11:00 p -9.4 -9.4 -9.4 --- --- 7.8 NE 0.13 8.7 -15.9 --- --- 730.9 0.019 0.000 9.4 7 1
02/22/06 11:01 p -9.4 -9.4 -9.4 --- --- 8.7 NE 0.14 10.4 -16.2 --- --- 730.8 0.019 0.000 9.4 7 1
02/22/06 11:02 p -9.6 -9.5 -9.7 --- --- 10.4 NE 0.17 12.2 -17.1 --- --- 730.9 0.019 0.000 9.4 7 1
02/22/06 11:03 p -9.7 -9.7 -9.8 --- --- 9.6 NE 0.16 11.3 -17.0 --- --- 730.9 0.019 0.000 9.4 7 1
02/22/06 11:04 p -9.8 -9.8 -9.9 --- --- 10.4 NE 0.17 11.3 -17.4 --- --- 730.8 0.020 0.000 9.4 7 1
02/22/06 11:05 p -9.9 -9.9 -10.0 --- --- 10.4 NE 0.17 13.0 -17.6 --- --- 730.8 0.020 0.000 9.4 7 1
02/22/06 11:06 p -10.1 -10.1 -10.2 --- --- 10.4 NE 0.17 13.0 -17.8 --- --- 730.9 0.020 0.000 9.4 7 1
02/22/06 11:07 p -10.3 -10.2 -10.3 --- --- 10.4 NE 0.17 12.2 -18.0 --- --- 730.9 0.020 0.000 9.4 7 1
02/22/06 11:08 p -10.3 -10.3 -10.3 --- --- 11.3 NE 0.19 11.3 -18.4 --- --- 730.9 0.020 0.000 9.4 7 1
02/22/06 11:09 p -10.4 -10.4 -10.6 --- --- 11.3 NE 0.19 13.0 -18.5 --- --- 730.8 0.020 0.000 9.4 7 1
02/22/06 11:10 p -10.6 -10.6 -10.6 --- --- 12.2 NE 0.20 13.9 -19.1 --- --- 730.9 0.020 0.000 9.4 7 1
02/22/06 11:11 p -10.7 -10.6 -10.8 --- --- 10.4 NE 0.17 12.2 -18.6 --- --- 730.8 0.020 0.000 9.4 7 1
02/22/06 11:12 p -10.8 -10.8 -10.9 --- --- 12.2 NE 0.20 14.8 -19.3 --- --- 730.8 0.020 0.000 9.3 7 1
02/22/06 11:13 p -11.0 -10.9 -11.0 --- --- 10.4 NE 0.17 13.9 -18.9 --- --- 730.9 0.020 0.000 9.3 7 1
02/22/06 11:14 p -11.1 -11.1 -11.1 --- --- 10.4 NE 0.17 13.0 -19.1 --- --- 730.9 0.020 0.000 9.3 7 1
02/22/06 11:15 p -11.2 -11.1 -11.2 --- --- 10.4 NE 0.17 13.0 -19.1 --- --- 730.8 0.020 0.000 9.3 7 1
02/22/06 11:16 p -11.3 -11.3 -11.3 --- --- 11.3 NE 0.19 13.0 -19.6 --- --- 730.8 0.021 0.000 9.2 7 1
02/22/06 11:17 p -11.3 -11.2 -11.3 --- --- 9.6 NE 0.16 11.3 -18.9 --- --- 730.9 0.021 0.000 9.3 7 1
02/22/06 11:18 p -11.2 -11.2 -11.3 --- --- 11.3 NE 0.19 13.0 -19.5 --- --- 730.8 0.021 0.000 9.3 7 1
02/22/06 11:19 p -11.2 -11.1 -11.2 --- --- 11.3 NE 0.19 13.0 -19.4 --- --- 730.9 0.020 0.000 9.3 7 1
02/22/06 11:20 p -11.1 -11.0 -11.1 --- --- 11.3 NE 0.19 13.0 -19.3 --- --- 730.8 0.020 0.000 9.3 7 1
02/22/06 11:21 p -10.9 -10.9 -11.0 --- --- 12.2 NE 0.20 13.9 -19.4 --- --- 730.8 0.020 0.000 9.3 7 1
02/22/06 11:22 p -10.9 -10.9 -10.9 --- --- 11.3 NE 0.19 13.0 -19.1 --- --- 730.8 0.020 0.000 9.3 8 1
02/22/06 11:23 p -10.8 -10.8 -10.9 --- --- 11.3 NE 0.19 12.2 -19.0 --- --- 730.8 0.020 0.000 9.3 8 1
02/22/06 11:24 p -10.8 -10.7 -10.8 --- --- 12.2 NE 0.20 13.9 -19.2 --- --- 730.8 0.020 0.000 9.3 8 1
02/22/06 11:25 p -10.8 -10.7 -10.8 --- --- 12.2 NE 0.20 13.0 -19.2 --- --- 730.8 0.020 0.000 9.3 8 1
02/22/06 11:26 p -10.7 -10.7 -10.7 --- --- 11.3 NE 0.19 13.9 -18.9 --- --- 730.8 0.020 0.000 9.4 8 1
02/22/06 11:27 p -10.7 -10.7 -10.8 --- --- 12.2 NE 0.20 12.2 -19.2 --- --- 730.8 0.020 0.000 9.3 8 1
02/22/06 11:28 p -10.8 -10.7 -10.8 --- --- 12.2 NE 0.20 14.8 -19.2 --- --- 731.0 0.020 0.000 9.4 8 1
02/22/06 11:29 p -10.7 -10.7 -10.7 --- --- 12.2 NE 0.20 13.0 -19.1 --- --- 730.9 0.020 0.000 9.4 8 1
02/22/06 11:30 p -10.6 -10.6 -10.7 --- --- 11.3 NE 0.19 13.0 -18.7 --- --- 730.8 0.020 0.000 9.4 8 1
02/22/06 11:31 p -10.7 -10.7 -10.7 --- --- 12.2 NE 0.20 13.0 -19.1 --- --- 730.8 0.020 0.000 9.4 8 1
02/22/06 11:32 p -10.7 -10.7 -10.7 --- --- 11.3 NE 0.19 13.0 -18.8 --- --- 730.8 0.020 0.000 9.4 8 1
02/22/06 11:33 p -10.7 -10.7 -10.7 --- --- 12.2 NE 0.20 13.9 -19.1 --- --- 730.9 0.020 0.000 9.4 8 1
02/22/06 11:34 p -10.7 -10.7 -10.7 --- --- 12.2 NE 0.20 13.9 -19.1 --- --- 730.9 0.020 0.000 9.4 8 1
02/22/06 11:35 p -10.7 -10.6 -10.7 --- --- 10.4 NE 0.17 13.9 -18.5 --- --- 730.9 0.020 0.000 9.4 8 1
02/22/06 11:36 p -10.6 -10.6 -10.7 --- --- 11.3 NE 0.19 13.0 -18.7 --- --- 730.8 0.020 0.000 9.5 8 1
02/22/06 11:37 p -10.6 -10.6 -10.6 --- --- 13.0 NE 0.22 14.8 -19.2 --- --- 730.9 0.020 0.000 9.5 8 1
02/22/06 11:38 p -10.6 -10.6 -10.6 --- --- 11.3 NE 0.19 13.9 -18.7 --- --- 730.9 0.020 0.000 9.5 8 1
02/22/06 11:39 p -10.5 -10.4 -10.6 --- --- 9.6 NE 0.16 13.9 -17.9 --- --- 730.9 0.020 0.000 9.5 8 1
02/22/06 11:40 p -10.4 -10.4 -10.4 --- --- 10.4 NE 0.17 13.9 -18.1 --- --- 730.8 0.020 0.000 9.6 8 1
02/22/06 11:41 p -10.4 -10.4 -10.4 --- --- 11.3 NE 0.19 13.9 -18.5 --- --- 730.8 0.020 0.000 9.6 8 1
02/22/06 11:42 p -10.4 -10.4 -10.5 --- --- 10.4 NE 0.17 13.9 -18.2 --- --- 730.8 0.020 0.000 9.6 8 1
02/22/06 11:43 p -10.4 -10.4 -10.4 --- --- 10.4 NE 0.17 12.2 -18.2 --- --- 730.9 0.020 0.000 9.6 8 1
02/22/06 11:44 p -10.5 -10.4 -10.6 --- --- 12.2 NE 0.20 13.9 -18.9 --- --- 730.9 0.020 0.000 9.6 8 1
02/22/06 11:45 p -10.6 -10.6 -10.6 --- --- 9.6 NE 0.16 13.0 -18.0 --- --- 730.8 0.020 0.000 9.6 8 1
02/22/06 11:46 p -10.6 -10.6 -10.6 --- --- 12.2 NE 0.20 13.9 -19.1 --- --- 730.8 0.020 0.000 9.7 8 1
02/22/06 11:47 p -10.6 -10.6 -10.7 --- --- 13.0 NE 0.22 13.9 -19.3 --- --- 730.9 0.020 0.000 9.7 8 1
02/22/06 11:48 p -10.7 -10.6 -10.7 --- --- 12.2 NE 0.20 13.9 -19.1 --- --- 730.8 0.020 0.000 9.7 8 1
02/22/06 11:49 p -10.7 -10.7 -10.7 --- --- 12.2 NE 0.20 13.9 -19.2 --- --- 730.8 0.020 0.000 9.7 8 1
02/22/06 11:50 p -10.6 -10.6 -10.6 --- --- 11.3 NE 0.19 13.0 -18.7 --- --- 730.9 0.020 0.000 9.7 8 1
02/22/06 11:51 p -10.6 -10.6 -10.6 --- --- 12.2 NE 0.20 14.8 -19.1 --- --- 730.8 0.020 0.000 9.7 8 1
02/22/06 11:52 p -10.6 -10.5 -10.6 --- --- 13.0 NE 0.22 14.8 -19.3 --- --- 730.9 0.020 0.000 9.8 8 1
02/22/06 11:53 p -10.6 -10.5 -10.6 --- --- 12.2 NE 0.20 13.0 -18.9 --- --- 730.8 0.020 0.000 9.8 8 1
02/22/06 11:54 p -10.6 -10.6 -10.6 --- --- 11.3 NE 0.19 13.0 -18.7 --- --- 730.9 0.020 0.000 9.8 9 1
02/22/06 11:55 p -10.6 -10.6 -10.6 --- --- 10.4 NE 0.17 13.9 -18.4 --- --- 730.8 0.020 0.000 9.8 9 1
02/22/06 11:56 p -10.6 -10.6 -10.7 --- --- 13.0 NE 0.22 14.8 -19.3 --- --- 730.9 0.020 0.000 9.8 9 1
02/22/06 11:57 p -10.7 -10.7 -10.7 --- --- 12.2 NE 0.20 14.8 -19.1 --- --- 730.9 0.020 0.000 9.8 9 1
02/22/06 11:58 p -10.7 -10.7 -10.8 --- --- 13.0 NE 0.22 15.7 -19.4 --- --- 730.9 0.020 0.000 9.9 9 1
02/22/06 11:59 p -10.8 -10.8 -10.8 --- --- 12.2 NE 0.20 13.9 -19.2 --- --- 730.9 0.020 0.000 9.9 9 1
02/23/06 12:00 a -10.8 -10.8 -10.8 --- --- 13.9 NE 0.23 16.5 -19.8 --- --- 730.9 0.020 0.000 9.9 9 1
02/23/06 12:01 a -10.8 -10.8 -10.8 --- --- 13.0 NE 0.22 15.7 -19.6 --- --- 730.9 0.020 0.000 10.0 9 1
02/23/06 12:02 a -10.8 -10.8 -10.8 --- --- 11.3 NE 0.19 13.9 -19.0 --- --- 731.0 0.020 0.000 10.0 9 1
02/23/06 12:03 a -10.8 -10.8 -10.9 --- --- 13.0 NE 0.22 15.7 -19.6 --- --- 731.0 0.020 0.000 10.1 9 1
02/23/06 12:04 a -10.9 -10.8 -10.9 --- --- 12.2 NE 0.20 15.7 -19.4 --- --- 731.1 0.020 0.000 10.1 9 1
02/23/06 12:05 a -10.8 -10.8 -10.9 --- --- 13.0 NE 0.22 14.8 -19.6 --- --- 731.0 0.020 0.000 10.1 9 1
02/23/06 12:06 a -10.9 -10.8 -10.9 --- --- 13.0 NE 0.22 13.9 -19.7 --- --- 731.1 0.020 0.000 10.1 9 1
02/23/06 12:07 a -10.8 -10.8 -10.8 --- --- 12.2 NE 0.20 13.9 -19.3 --- --- 731.0 0.020 0.000 10.1 9 1
02/23/06 12:08 a -10.8 -10.8 -10.8 --- --- 12.2 NE 0.20 13.9 -19.3 --- --- 731.0 0.020 0.000 10.1 9 1
02/23/06 12:09 a -10.8 -10.7 -10.8 --- --- 13.9 NE 0.23 15.7 -19.8 --- --- 731.0 0.020 0.000 10.1 9 1
02/23/06 12:10 a -10.7 -10.7 -10.7 --- --- 12.2 NE 0.20 14.8 -19.2 --- --- 731.0 0.020 0.000 10.1 9 1
02/23/06 12:11 a -10.8 -10.7 -10.8 --- --- 13.0 NE 0.22 14.8 -19.6 --- --- 731.0 0.020 0.000 10.1 9 1
02/23/06 12:12 a -10.8 -10.7 -10.8 --- --- 11.3 NE 0.19 13.0 -18.9 --- --- 731.0 0.020 0.000 10.1 9 1
02/23/06 12:13 a -10.8 -10.7 -10.8 --- --- 13.9 NE 0.23 16.5 -19.8 --- --- 731.0 0.020 0.000 10.1 9 1
02/23/06 12:14 a -10.8 -10.8 -10.8 --- --- 13.9 NE 0.23 16.5 -19.8 --- --- 731.1 0.020 0.000 10.0 9 1
02/23/06 12:15 a -10.8 -10.8 -10.8 --- --- 12.2 NE 0.20 15.7 -19.3 --- --- 731.0 0.020 0.000 10.0 9 1
02/23/06 12:16 a -10.8 -10.8 -10.8 --- --- 13.9 NE 0.23 15.7 -19.9 --- --- 731.1 0.020 0.000 10.0 9 1
02/23/06 12:17 a -10.8 -10.8 -10.8 --- --- 13.0 NE 0.22 14.8 -19.6 --- --- 731.0 0.020 0.000 10.0 9 1
02/23/06 12:18 a -10.8 -10.8 -10.8 --- --- 14.8 NE 0.25 17.4 -20.1 --- --- 731.1 0.020 0.000 10.0 9 1
02/23/06 12:19 a -10.8 -10.8 -10.8 --- --- 12.2 NE 0.20 14.8 -19.3 --- --- 731.0 0.020 0.000 10.0 8 1
02/23/06 12:20 a -10.8 -10.8 -10.8 --- --- 13.9 NE 0.23 15.7 -19.8 --- --- 731.0 0.020 0.000 10.0 9 1
02/23/06 12:21 a -10.8 -10.8 -10.8 --- --- 13.0 NE 0.22 14.8 -19.6 --- --- 731.0 0.020 0.000 10.0 8 1
02/23/06 12:22 a -10.8 -10.8 -10.8 --- --- 13.9 NE 0.23 14.8 -19.8 --- --- 731.1 0.020 0.000 10.0 9 1
02/23/06 12:23 a -10.8 -10.7 -10.8 --- --- 13.0 NE 0.22 15.7 -19.6 --- --- 731.0 0.020 0.000 10.0 9 1
02/23/06 12:24 a -10.8 -10.8 -10.8 --- --- 12.2 NE 0.20 15.7 -19.2 --- --- 731.0 0.020 0.000 10.0 8 1
02/23/06 12:25 a -10.7 -10.7 -10.8 --- --- 13.0 NE 0.22 15.7 -19.4 --- --- 731.0 0.020 0.000 10.0 8 1
02/23/06 12:26 a -10.7 -10.7 -10.7 --- --- 11.3 NE 0.19 13.0 -18.9 --- --- 731.0 0.020 0.000 10.0 8 1
02/23/06 12:27 a -10.7 -10.7 -10.7 --- --- 11.3 NE 0.19 13.9 -18.8 --- --- 731.1 0.020 0.000 9.9 8 1
02/23/06 12:28 a -10.7 -10.6 -10.7 --- --- 12.2 NE 0.20 13.9 -19.1 --- --- 731.1 0.020 0.000 9.9 8 1
02/23/06 12:29 a -10.6 -10.6 -10.7 --- --- 13.0 NE 0.22 14.8 -19.3 --- --- 731.2 0.020 0.000 9.9 8 1
02/23/06 12:30 a -10.7 -10.7 -10.7 --- --- 13.0 NE 0.22 14.8 -19.4 --- --- 731.1 0.020 0.000 10.0 8 1
02/23/06 12:31 a -10.7 -10.6 -10.7 --- --- 12.2 ENE 0.20 15.7 -19.1 --- --- 731.0 0.020 0.000 10.0 8 1
02/23/06 12:32 a -10.7 -10.7 -10.8 --- --- 12.2 NE 0.20 17.4 -19.2 --- --- 731.1 0.020 0.000 10.0 8 1
02/23/06 12:33 a -10.7 -10.7 -10.8 --- --- 13.9 NE 0.23 16.5 -19.7 --- --- 731.0 0.020 0.000 10.0 8 1
02/23/06 12:34 a -10.7 -10.7 -10.8 --- --- 13.0 NE 0.22 15.7 -19.4 --- --- 731.0 0.020 0.000 10.0 9 1
02/23/06 12:35 a -10.7 -10.7 -10.8 --- --- 14.8 NE 0.25 16.5 -20.0 --- --- 731.0 0.020 0.000 10.0 8 1
02/23/06 12:36 a -10.8 -10.7 -10.8 --- --- 13.9 NE 0.23 16.5 -19.8 --- --- 731.1 0.020 0.000 10.0 8 1
02/23/06 12:37 a -10.8 -10.8 -10.8 --- --- 13.0 NE 0.22 16.5 -19.6 --- --- 731.0 0.020 0.000 10.0 8 1
02/23/06 12:38 a -10.8 -10.8 -10.8 --- --- 13.0 NE 0.22 14.8 -19.6 --- --- 731.1 0.020 0.000 10.0 8 1
02/23/06 12:39 a -10.8 -10.7 -10.8 --- --- 12.2 NE 0.20 14.8 -19.2 --- --- 731.0 0.020 0.000 10.0 8 1
02/23/06 12:40 a -10.8 -10.8 -10.8 --- --- 13.9 NE 0.23 15.7 -19.8 --- --- 731.1 0.020 0.000 9.9 8 1
02/23/06 12:41 a -10.8 -10.8 -10.8 --- --- 11.3 NE 0.19 13.9 -19.0 --- --- 731.2 0.020 0.000 9.9 8 1
02/23/06 12:42 a -10.8 -10.8 -10.8 --- --- 11.3 NE 0.19 15.7 -18.9 --- --- 731.1 0.020 0.000 9.9 8 1
02/23/06 12:43 a -10.9 -10.8 -10.9 --- --- 11.3 NE 0.19 13.9 -19.1 --- --- 731.2 0.020 0.000 10.1 8 1
02/23/06 12:44 a -10.9 -10.9 -11.0 --- --- 13.0 NE 0.22 14.8 -19.7 --- --- 731.2 0.020 0.000 10.1 8 1
02/23/06 12:45 a -11.0 -11.0 -11.1 --- --- 10.4 NE 0.17 14.8 -18.9 --- --- 731.1 0.020 0.000 10.1 8 1
02/23/06 12:46 a -11.1 -11.0 -11.1 --- --- 11.3 ENE 0.19 13.9 -19.3 --- --- 731.1 0.020 0.000 10.1 8 1
02/23/06 12:47 a -11.0 -11.0 -11.1 --- --- 12.2 NE 0.20 13.9 -19.6 --- --- 731.1 0.020 0.000 10.1 8 1
02/23/06 12:48 a -11.0 -11.0 -11.0 --- --- 11.3 NE 0.19 13.0 -19.2 --- --- 731.0 0.020 0.000 10.0 8 1
02/23/06 12:49 a -11.0 -11.0 -11.0 --- --- 11.3 NE 0.19 13.0 -19.2 --- --- 731.1 0.020 0.000 9.9 8 1
02/23/06 12:50 a -10.9 -10.9 -11.0 --- --- 12.2 ENE 0.20 14.8 -19.4 --- --- 731.0 0.020 0.000 9.9 8 1
02/23/06 12:51 a -10.9 -10.9 -11.0 --- --- 11.3 NE 0.19 14.8 -19.2 --- --- 731.1 0.020 0.000 9.9 8 1
02/23/06 12:52 a -10.9 -10.9 -11.1 --- --- 13.9 NE 0.23 15.7 -20.0 --- --- 731.1 0.020 0.000 9.9 8 1
02/23/06 12:53 a -11.1 -11.0 -11.1 --- --- 12.2 NE 0.20 13.0 -19.6 --- --- 731.1 0.020 0.000 9.8 8 1
02/23/06 12:54 a -11.1 -11.0 -11.1 --- --- 12.2 NE 0.20 14.8 -19.6 --- --- 731.2 0.020 0.000 9.8 8 1
02/23/06 12:55 a -11.0 -11.0 -11.0 --- --- 12.2 NE 0.20 13.9 -19.6 --- --- 731.2 0.020 0.000 9.8 8 1
02/23/06 12:56 a -11.0 -10.9 -11.0 --- --- 12.2 NE 0.20 14.8 -19.6 --- --- 731.2 0.020 0.000 9.8 8 1
02/23/06 12:57 a -11.0 -10.9 -11.0 --- --- 12.2 ENE 0.20 13.9 -19.6 --- --- 731.1 0.020 0.000 9.7 8 1
02/23/06 12:58 a -11.0 -11.0 -11.1 --- --- 13.0 NE 0.22 13.9 -19.8 --- --- 731.1 0.020 0.000 9.7 8 1
02/23/06 12:59 a -11.1 -11.0 -11.1 --- --- 13.0 NE 0.22 13.9 -19.9 --- --- 731.2 0.020 0.000 9.7 8 1
02/23/06 1:00 a -11.0 -11.0 -11.1 --- --- 13.0 NE 0.22 13.9 -19.8 --- --- 731.1 0.020 0.000 9.7 8 1
02/23/06 1:01 a -11.0 -11.0 -11.1 --- --- 13.0 NE 0.22 14.8 -19.8 --- --- 731.3 0.020 0.000 9.7 8 1
02/23/06 1:02 a -11.0 -11.0 -11.1 --- --- 12.2 NE 0.20 13.0 -19.6 --- --- 731.1 0.020 0.000 9.6 8 1
02/23/06 1:03 a -11.0 -11.0 -11.0 --- --- 11.3 NE 0.19 13.9 -19.2 --- --- 731.1 0.020 0.000 9.6 8 1
02/23/06 1:04 a -11.0 -11.0 -11.1 --- --- 13.9 ENE 0.23 14.8 -20.1 --- --- 731.1 0.020 0.000 9.6 8 1
02/23/06 1:05 a -11.0 -10.9 -11.1 --- --- 9.6 ENE 0.16 11.3 -18.6 --- --- 731.2 0.020 0.000 9.6 8 1
02/23/06 1:06 a -10.8 -10.7 -10.8 --- --- 9.6 ENE 0.16 12.2 -18.3 --- --- 731.1 0.020 0.000 9.6 8 1
02/23/06 1:07 a -10.8 -10.8 -10.8 --- --- 10.4 NE 0.17 13.9 -18.6 --- --- 731.1 0.020 0.000 9.6 8 1
02/23/06 1:08 a -10.8 -10.8 -10.8 --- --- 12.2 NE 0.20 13.9 -19.3 --- --- 731.1 0.020 0.000 9.6 8 1
02/23/06 1:09 a -10.9 -10.9 -11.0 --- --- 12.2 ENE 0.20 13.9 -19.4 --- --- 731.1 0.020 0.000 9.5 8 1
02/23/06 1:10 a -11.0 -10.9 -11.0 --- --- 12.2 ENE 0.20 13.0 -19.6 --- --- 731.0 0.020 0.000 9.5 8 1
02/23/06 1:11 a -11.0 -10.9 -11.0 --- --- 11.3 ENE 0.19 12.2 -19.2 --- --- 731.1 0.020 0.000 9.5 8 1
02/23/06 1:12 a -11.0 -11.0 -11.1 --- --- 11.3 ENE 0.19 13.9 -19.2 --- --- 731.1 0.020 0.000 9.5 8 1
02/23/06 1:13 a -11.1 -11.1 -11.1 --- --- 12.2 ENE 0.20 13.9 -19.6 --- --- 731.1 0.020 0.000 9.4 8 1
02/23/06 1:14 a -11.1 -11.1 -11.1 --- --- 12.2 ENE 0.20 13.0 -19.7 --- --- 731.0 0.020 0.000 9.4 8 1
02/23/06 1:15 a -11.2 -11.1 -11.2 --- --- 11.3 NE 0.19 13.0 -19.4 --- --- 731.0 0.020 0.000 9.4 8 1
02/23/06 1:16 a -11.2 -11.1 -11.2 --- --- 12.2 ENE 0.20 13.0 -19.7 --- --- 731.0 0.020 0.000 9.4 8 1
02/23/06 1:17 a -11.1 -11.1 -11.2 --- --- 11.3 ENE 0.19 13.9 -19.4 --- --- 731.0 0.020 0.000 9.4 8 1
02/23/06 1:18 a -11.1 -11.1 -11.2 --- --- 11.3 NE 0.19 12.2 -19.4 --- --- 731.1 0.020 0.000 9.4 8 1
02/23/06 1:19 a -11.2 -11.1 -11.2 --- --- 12.2 NE 0.20 13.0 -19.7 --- --- 731.0 0.020 0.000 9.4 8 1
02/23/06 1:20 a -11.2 -11.2 -11.2 --- --- 12.2 NE 0.20 13.9 -19.7 --- --- 731.1 0.020 0.000 9.3 8 1
02/23/06 1:21 a -11.2 -11.2 -11.2 --- --- 12.2 ENE 0.20 13.9 -19.7 --- --- 731.1 0.020 0.000 9.4 8 1
02/23/06 1:22 a -11.2 -11.2 -11.2 --- --- 11.3 ENE 0.19 13.0 -19.4 --- --- 731.1 0.020 0.000 9.3 8 1
02/23/06 1:23 a -11.1 -11.1 -11.2 --- --- 11.3 NE 0.19 13.0 -19.4 --- --- 731.0 0.020 0.000 9.3 7 1
02/23/06 1:24 a -11.1 -11.1 -11.1 --- --- 11.3 NE 0.19 13.0 -19.4 --- --- 731.1 0.020 0.000 9.3 8 1
02/23/06 1:25 a -11.1 -11.1 -11.1 --- --- 11.3 NE 0.19 13.0 -19.4 --- --- 731.1 0.020 0.000 9.3 8 1
02/23/06 1:26 a -11.2 -11.1 -11.2 --- --- 11.3 NE 0.19 13.0 -19.4 --- --- 731.0 0.020 0.000 9.3 7 1
02/23/06 1:27 a -11.3 -11.2 -11.3 --- --- 13.0 NE 0.22 13.9 -20.2 --- --- 731.0 0.021 0.000 9.3 7 1
02/23/06 1:28 a -11.3 -11.3 -11.3 --- --- 12.2 NE 0.20 13.9 -19.9 --- --- 730.8 0.021 0.000 9.3 7 1
02/23/06 1:29 a -11.4 -11.3 -11.4 --- --- 13.0 NE 0.22 13.9 -20.3 --- --- 731.0 0.021 0.000 9.3 7 1
02/23/06 1:30 a -11.4 -11.4 -11.4 --- --- 10.4 NE 0.17 13.0 -19.4 --- --- 731.0 0.021 0.000 9.3 7 1
02/23/06 1:31 a -11.4 -11.3 -11.4 --- --- 10.4 ENE 0.17 12.2 -19.4 --- --- 730.9 0.021 0.000 9.3 7 1
02/23/06 1:32 a -11.3 -11.3 -11.3 --- --- 9.6 NE 0.16 11.3 -18.9 --- --- 730.9 0.021 0.000 9.3 7 1
02/23/06 1:33 a -11.2 -11.2 -11.3 --- --- 10.4 NE 0.17 12.2 -19.2 --- --- 730.9 0.021 0.000 9.3 7 1
02/23/06 1:34 a -11.2 -11.2 -11.3 --- --- 11.3 NE 0.19 13.0 -19.5 --- --- 730.9 0.021 0.000 9.3 7 1
02/23/06 1:35 a -11.3 -11.3 -11.4 --- --- 11.3 ENE 0.19 13.0 -19.7 --- --- 731.0 0.021 0.000 9.3 7 1
02/23/06 1:36 a -11.4 -11.3 -11.4 --- --- 10.4 NE 0.17 12.2 -19.4 --- --- 730.9 0.021 0.000 9.3 7 1
02/23/06 1:37 a -11.3 -11.3 -11.4 --- --- 10.4 NE 0.17 12.2 -19.3 --- --- 730.8 0.021 0.000 9.3 7 1
02/23/06 1:38 a -11.3 -11.3 -11.4 --- --- 10.4 NE 0.17 12.2 -19.3 --- --- 730.9 0.021 0.000 9.3 7 1
02/23/06 1:39 a -11.3 -11.3 -11.3 --- --- 10.4 NE 0.17 12.2 -19.3 --- --- 730.9 0.021 0.000 9.3 7 1
02/23/06 1:40 a -11.3 -11.3 -11.4 --- --- 10.4 NE 0.17 13.0 -19.3 --- --- 730.9 0.021 0.000 9.4 7 1
02/23/06 1:41 a -11.3 -11.3 -11.4 --- --- 11.3 NE 0.19 12.2 -19.7 --- --- 730.9 0.021 0.000 9.4 7 1
02/23/06 1:42 a -11.3 -11.3 -11.4 --- --- 11.3 NE 0.19 12.2 -19.7 --- --- 730.9 0.021 0.000 9.4 7 1
02/23/06 1:43 a -11.4 -11.4 -11.4 --- --- 11.3 NE 0.19 13.0 -19.8 --- --- 730.9 0.021 0.000 9.4 7 1
02/23/06 1:44 a -11.4 -11.4 -11.5 --- --- 10.4 NE 0.17 11.3 -19.4 --- --- 730.9 0.021 0.000 9.4 7 1
02/23/06 1:45 a -11.4 -11.4 -11.4 --- --- 9.6 NE 0.16 11.3 -19.1 --- --- 730.9 0.021 0.000 9.4 7 1
02/23/06 1:46 a -11.3 -11.3 -11.3 --- --- 10.4 NE 0.17 12.2 -19.3 --- --- 731.0 0.021 0.000 9.4 7 1
02/23/06 1:47 a -11.3 -11.3 -11.3 --- --- 9.6 NE 0.16 12.2 -18.9 --- --- 730.9 0.021 0.000 9.4 7 1
02/23/06 1:48 a -11.3 -11.3 -11.3 --- --- 11.3 NE 0.19 13.0 -19.7 --- --- 730.9 0.021 0.000 9.4 7 1
02/23/06 1:49 a -11.3 -11.3 -11.4 --- --- 11.3 NE 0.19 13.0 -19.7 --- --- 730.9 0.021 0.000 9.4 7 1
02/23/06 1:50 a -11.3 -11.3 -11.4 --- --- 11.3 NE 0.19 13.0 -19.7 --- --- 730.8 0.021 0.000 9.4 7 1
02/23/06 1:51 a -11.3 -11.2 -11.3 --- --- 10.4 NE 0.17 11.3 -19.2 --- --- 731.0 0.021 0.000 9.5 7 1
02/23/06 1:52 a -11.2 -11.2 -11.2 --- --- 10.4 NE 0.17 11.3 -19.1 --- --- 731.0 0.020 0.000 9.5 7 1
02/23/06 1:53 a -11.1 -11.1 -11.1 --- --- 11.3 ENE 0.19 12.2 -19.4 --- --- 730.9 0.020 0.000 9.5 7 1
02/23/06 1:54 a -11.2 -11.1 -11.2 --- --- 10.4 ENE 0.17 12.2 -19.1 --- --- 731.0 0.020 0.000 9.5 7 1
02/23/06 1:55 a -11.1 -11.0 -11.2 --- --- 9.6 NE 0.16 13.0 -18.6 --- --- 730.8 0.020 0.000 9.5 7 1
02/23/06 1:56 a -11.1 -11.1 -11.1 --- --- 10.4 NE 0.17 12.2 -18.9 --- --- 730.9 0.020 0.000 9.5 7 1
02/23/06 1:57 a -11.0 -11.0 -11.0 --- --- 11.3 NE 0.19 12.2 -19.2 --- --- 730.9 0.020 0.000 9.5 7 1
02/23/06 1:58 a -11.1 -11.0 -11.1 --- --- 10.4 NE 0.17 13.0 -18.9 --- --- 730.9 0.020 0.000 9.6 7 1
02/23/06 1:59 a -11.0 -10.9 -11.1 --- --- 8.7 NE 0.14 9.6 -18.2 --- --- 730.9 0.020 0.000 9.6 7 1
02/23/06 2:00 a -10.8 -10.8 -10.9 --- --- 9.6 NE 0.16 12.2 -18.3 --- --- 731.0 0.020 0.000 9.6 7 1
02/23/06 2:01 a -10.8 -10.7 -10.8 --- --- 10.4 NE 0.17 12.2 -18.6 --- --- 731.0 0.020 0.000 9.6 7 1
02/23/06 2:02 a -10.9 -10.9 -11.0 --- --- 9.6 NE 0.16 10.4 -18.5 --- --- 730.9 0.020 0.000 9.6 7 1
02/23/06 2:03 a -11.0 -11.0 -11.1 --- --- 10.4 NE 0.17 11.3 -18.9 --- --- 730.9 0.020 0.000 9.6 7 1
02/23/06 2:04 a -11.1 -11.0 -11.1 --- --- 7.0 NE 0.12 9.6 -17.4 --- --- 731.0 0.020 0.000 9.6 7 1
02/23/06 2:05 a -10.9 -10.9 -10.9 --- --- 8.7 NE 0.14 12.2 -18.1 --- --- 731.0 0.020 0.000 9.6 7 1
02/23/06 2:06 a -10.9 -10.9 -10.9 --- --- 10.4 NE 0.17 11.3 -18.8 --- --- 730.9 0.020 0.000 9.6 7 1
02/23/06 2:07 a -10.9 -10.9 -10.9 --- --- 9.6 NE 0.16 10.4 -18.4 --- --- 730.9 0.020 0.000 9.6 7 1
02/23/06 2:08 a -10.9 -10.9 -11.0 --- --- 9.6 NE 0.16 11.3 -18.4 --- --- 731.0 0.020 0.000 9.6 7 1
02/23/06 2:09 a -11.0 -11.0 -11.0 --- --- 11.3 NE 0.19 13.0 -19.2 --- --- 730.9 0.020 0.000 9.6 7 1
02/23/06 2:10 a -11.0 -11.0 -11.1 --- --- 11.3 NE 0.19 12.2 -19.2 --- --- 730.9 0.020 0.000 9.6 7 1
02/23/06 2:11 a -11.1 -11.1 -11.2 --- --- 10.4 NE 0.17 12.2 -19.1 --- --- 731.0 0.020 0.000 9.6 7 1
02/23/06 2:12 a -11.3 -11.2 -11.3 --- --- 9.6 NE 0.16 10.4 -18.9 --- --- 731.0 0.021 0.000 9.6 7 1
02/23/06 2:13 a -11.3 -11.2 -11.3 --- --- 11.3 NE 0.19 12.2 -19.6 --- --- 731.0 0.021 0.000 9.6 7 1
02/23/06 2:14 a -11.3 -11.3 -11.3 --- --- 8.7 NE 0.14 9.6 -18.5 --- --- 731.0 0.021 0.000 9.7 7 1
02/23/06 2:15 a -11.3 -11.3 -11.3 --- --- 10.4 NE 0.17 11.3 -19.2 --- --- 731.0 0.021 0.000 9.6 7 1
02/23/06 2:16 a -11.2 -11.2 -11.3 --- --- 10.4 NE 0.17 11.3 -19.2 --- --- 731.1 0.021 0.000 9.6 7 1
02/23/06 2:17 a -11.2 -11.1 -11.2 --- --- 10.4 NE 0.17 11.3 -19.1 --- --- 731.0 0.020 0.000 9.7 7 1
02/23/06 2:18 a -11.1 -11.0 -11.1 --- --- 9.6 NE 0.16 10.4 -18.7 --- --- 731.0 0.020 0.000 9.7 7 1
02/23/06 2:19 a -10.9 -10.9 -10.9 --- --- 9.6 NE 0.16 11.3 -18.5 --- --- 731.0 0.020 0.000 9.7 7 1
02/23/06 2:20 a -10.9 -10.9 -11.0 --- --- 10.4 NE 0.17 12.2 -18.8 --- --- 731.0 0.020 0.000 9.7 7 1
02/23/06 2:21 a -11.1 -11.1 -11.1 --- --- 9.6 NE 0.16 11.3 -18.6 --- --- 731.0 0.020 0.000 9.7 7 1
02/23/06 2:22 a -11.0 -10.9 -11.1 --- --- 9.6 NE 0.16 12.2 -18.6 --- --- 731.0 0.020 0.000 9.7 7 1
02/23/06 2:23 a -10.9 -10.9 -10.9 --- --- 10.4 NE 0.17 12.2 -18.8 --- --- 730.9 0.020 0.000 9.7 7 1
02/23/06 2:24 a -10.8 -10.8 -10.9 --- --- 10.4 NE 0.17 12.2 -18.7 --- --- 731.0 0.020 0.000 9.7 7 1
02/23/06 2:25 a -10.8 -10.7 -10.8 --- --- 11.3 NE 0.19 12.2 -18.9 --- --- 730.9 0.020 0.000 9.7 7 1
02/23/06 2:26 a -10.7 -10.7 -10.7 --- --- 10.4 NE 0.17 13.0 -18.6 --- --- 730.9 0.020 0.000 9.7 7 1
02/23/06 2:27 a -10.7 -10.6 -10.7 --- --- 10.4 NE 0.17 13.0 -18.5 --- --- 730.9 0.020 0.000 9.7 7 1
02/23/06 2:28 a -10.6 -10.6 -10.7 --- --- 11.3 NE 0.19 12.2 -18.7 --- --- 730.9 0.020 0.000 9.7 7 1
02/23/06 2:29 a -10.7 -10.6 -10.7 --- --- 10.4 NE 0.17 12.2 -18.5 --- --- 730.9 0.020 0.000 9.7 7 1
02/23/06 2:30 a -10.7 -10.6 -10.7 --- --- 11.3 NE 0.19 13.0 -18.8 --- --- 730.9 0.020 0.000 9.7 7 1
02/23/06 2:31 a -10.7 -10.7 -10.7 --- --- 10.4 NE 0.17 12.2 -18.5 --- --- 730.8 0.020 0.000 9.7 7 1
02/23/06 2:32 a -10.8 -10.7 -10.8 --- --- 10.4 NE 0.17 11.3 -18.6 --- --- 730.9 0.020 0.000 9.7 7 1
02/23/06 2:33 a -10.9 -10.8 -10.9 --- --- 10.4 NE 0.17 11.3 -18.8 --- --- 731.0 0.020 0.000 9.7 7 1
02/23/06 2:34 a -10.8 -10.8 -10.9 --- --- 11.3 NE 0.19 12.2 -19.0 --- --- 730.9 0.020 0.000 9.7 7 1
02/23/06 2:35 a -10.9 -10.9 -10.9 --- --- 10.4 NE 0.17 11.3 -18.8 --- --- 730.9 0.020 0.000 9.7 7 1
02/23/06 2:36 a -10.9 -10.9 -10.9 --- --- 9.6 NE 0.16 11.3 -18.4 --- --- 731.0 0.020 0.000 9.7 7 1
02/23/06 2:37 a -11.0 -11.0 -11.1 --- --- 11.3 NE 0.19 12.2 -19.2 --- --- 730.9 0.020 0.000 9.7 7 1
02/23/06 2:38 a -11.0 -11.0 -11.1 --- --- 10.4 NE 0.17 11.3 -18.9 --- --- 730.9 0.020 0.000 9.7 7 1
02/23/06 2:39 a -10.9 -10.8 -11.0 --- --- 9.6 NE 0.16 11.3 -18.5 --- --- 730.9 0.020 0.000 9.7 7 1
02/23/06 2:40 a -10.8 -10.8 -10.8 --- --- 10.4 NE 0.17 11.3 -18.6 --- --- 730.8 0.020 0.000 9.6 7 1
02/23/06 2:41 a -10.7 -10.6 -10.7 --- --- 9.6 NE 0.16 11.3 -18.2 --- --- 730.9 0.020 0.000 9.6 7 1
02/23/06 2:42 a -10.6 -10.6 -10.6 --- --- 9.6 NE 0.16 11.3 -18.1 --- --- 730.8 0.020 0.000 9.6 7 1
02/23/06 2:43 a -10.5 -10.4 -10.6 --- --- 8.7 NE 0.14 9.6 -17.6 --- --- 730.9 0.020 0.000 9.6 7 1
02/23/06 2:44 a -10.5 -10.4 -10.6 --- --- 9.6 NE 0.16 10.4 -17.9 --- --- 730.8 0.020 0.000 9.6 7 1
02/23/06 2:45 a -10.6 -10.6 -10.7 --- --- 9.6 NE 0.16 10.4 -18.1 --- --- 730.8 0.020 0.000 9.6 7 1
02/23/06 2:46 a -10.6 -10.5 -10.6 --- --- 9.6 NE 0.16 10.4 -18.0 --- --- 730.9 0.020 0.000 9.6 7 1
02/23/06 2:47 a -10.5 -10.4 -10.5 --- --- 9.6 NE 0.16 11.3 -17.9 --- --- 730.9 0.020 0.000 9.6 7 1
02/23/06 2:48 a -10.4 -10.4 -10.4 --- --- 10.4 NE 0.17 11.3 -18.2 --- --- 730.9 0.020 0.000 9.6 7 1
02/23/06 2:49 a -10.4 -10.3 -10.4 --- --- 9.6 NE 0.16 11.3 -17.8 --- --- 730.9 0.020 0.000 9.6 7 1
02/23/06 2:50 a -10.3 -10.3 -10.3 --- --- 9.6 NE 0.16 10.4 -17.8 --- --- 730.9 0.020 0.000 9.5 7 1
02/23/06 2:51 a -10.3 -10.3 -10.4 --- --- 10.4 NE 0.17 11.3 -18.1 --- --- 731.0 0.020 0.000 9.5 7 1
02/23/06 2:52 a -10.4 -10.4 -10.4 --- --- 10.4 NE 0.17 11.3 -18.1 --- --- 730.8 0.020 0.000 9.5 7 1
02/23/06 2:53 a -10.2 -10.2 -10.3 --- --- 9.6 NE 0.16 10.4 -17.6 --- --- 730.8 0.020 0.000 9.4 7 1
02/23/06 2:54 a -10.1 -10.1 -10.2 --- --- 11.3 NE 0.19 12.2 -18.1 --- --- 730.9 0.020 0.000 9.4 7 1
02/23/06 2:55 a -10.2 -10.2 -10.2 --- --- 10.4 NE 0.17 12.2 -17.9 --- --- 731.0 0.020 0.000 9.4 7 1
02/23/06 2:56 a -10.3 -10.3 -10.3 --- --- 9.6 NE 0.16 10.4 -17.7 --- --- 731.0 0.020 0.000 9.4 7 1
02/23/06 2:57 a -10.3 -10.3 -10.4 --- --- 10.4 NE 0.17 12.2 -18.1 --- --- 730.9 0.020 0.000 9.4 7 1
02/23/06 2:58 a -10.3 -10.3 -10.4 --- --- 9.6 NE 0.16 10.4 -17.8 --- --- 730.9 0.020 0.000 9.4 7 1
02/23/06 2:59 a -10.3 -10.3 -10.3 --- --- 9.6 NE 0.16 11.3 -17.8 --- --- 730.9 0.020 0.000 9.4 7 1
02/23/06 3:00 a -10.3 -10.3 -10.4 --- --- 9.6 NE 0.16 10.4 -17.8 --- --- 730.9 0.020 0.000 9.4 7 1
02/23/06 3:01 a -10.4 -10.4 -10.6 --- --- 10.4 NE 0.17 12.2 -18.2 --- --- 730.9 0.020 0.000 9.4 7 1
02/23/06 3:02 a -10.7 -10.7 -10.8 --- --- 9.6 NE 0.16 12.2 -18.2 --- --- 730.9 0.020 0.000 9.3 7 1
02/23/06 3:03 a -10.7 -10.7 -10.8 --- --- 9.6 NE 0.16 10.4 -18.2 --- --- 730.9 0.020 0.000 9.3 7 1
02/23/06 3:04 a -10.7 -10.7 -10.8 --- --- 8.7 NE 0.14 9.6 -17.8 --- --- 731.0 0.020 0.000 9.3 7 1
02/23/06 3:05 a -10.8 -10.8 -10.8 --- --- 7.8 NE 0.13 10.4 -17.6 --- --- 731.0 0.020 0.000 9.3 7 1
02/23/06 3:06 a -10.7 -10.7 -10.8 --- --- 9.6 NE 0.16 10.4 -18.2 --- --- 730.9 0.020 0.000 9.3 7 1
02/23/06 3:07 a -10.7 -10.7 -10.7 --- --- 9.6 NE 0.16 11.3 -18.1 --- --- 731.0 0.020 0.000 9.3 7 1
02/23/06 3:08 a -10.7 -10.7 -10.7 --- --- 8.7 NE 0.14 9.6 -17.8 --- --- 730.9 0.020 0.000 9.3 7 1
02/23/06 3:09 a -10.6 -10.5 -10.6 --- --- 8.7 NE 0.14 10.4 -17.7 --- --- 731.0 0.020 0.000 9.3 7 1
02/23/06 3:10 a -10.4 -10.4 -10.4 --- --- 8.7 NE 0.14 10.4 -17.6 --- --- 730.9 0.020 0.000 9.3 7 1
02/23/06 3:11 a -10.4 -10.4 -10.4 --- --- 9.6 NE 0.16 12.2 -17.8 --- --- 731.1 0.020 0.000 9.3 7 1
02/23/06 3:12 a -10.3 -10.3 -10.4 --- --- 8.7 NE 0.14 9.6 -17.4 --- --- 731.0 0.020 0.000 9.2 7 1
02/23/06 3:13 a -10.3 -10.3 -10.3 --- --- 9.6 NE 0.16 11.3 -17.7 --- --- 731.0 0.020 0.000 9.2 7 1
02/23/06 3:14 a -10.3 -10.3 -10.4 --- --- 10.4 NE 0.17 12.2 -18.1 --- --- 730.9 0.020 0.000 9.2 7 1
02/23/06 3:15 a -10.3 -10.3 -10.4 --- --- 9.6 NE 0.16 10.4 -17.8 --- --- 730.9 0.020 0.000 9.2 7 1
02/23/06 3:16 a -10.3 -10.2 -10.3 --- --- 11.3 NE 0.19 13.0 -18.3 --- --- 730.9 0.020 0.000 9.2 7 1
02/23/06 3:17 a -10.3 -10.3 -10.3 --- --- 10.4 NE 0.17 11.3 -18.0 --- --- 730.9 0.020 0.000 9.2 7 1
02/23/06 3:18 a -10.2 -10.2 -10.2 --- --- 10.4 NE 0.17 12.2 -17.9 --- --- 730.9 0.020 0.000 9.2 7 1
02/23/06 3:19 a -10.3 -10.2 -10.3 --- --- 10.4 NE 0.17 11.3 -18.0 --- --- 731.0 0.020 0.000 9.2 7 1
02/23/06 3:20 a -10.3 -10.3 -10.3 --- --- 9.6 NE 0.16 10.4 -17.7 --- --- 731.0 0.020 0.000 9.2 7 1
02/23/06 3:21 a -10.3 -10.3 -10.3 --- --- 9.6 NE 0.16 10.4 -17.8 --- --- 730.9 0.020 0.000 9.2 7 1
02/23/06 3:22 a -10.3 -10.3 -10.4 --- --- 8.7 NE 0.14 9.6 -17.4 --- --- 731.0 0.020 0.000 9.2 7 1
02/23/06 3:23 a -10.3 -10.2 -10.3 --- --- 8.7 NE 0.14 11.3 -17.3 --- --- 731.0 0.020 0.000 9.1 7 1
02/23/06 3:24 a -10.2 -10.2 -10.2 --- --- 10.4 NE 0.17 11.3 -17.8 --- --- 731.0 0.020 0.000 9.1 7 1
02/23/06 3:25 a -10.2 -10.2 -10.3 --- --- 10.4 NE 0.17 11.3 -17.9 --- --- 731.0 0.020 0.000 9.2 7 1
02/23/06 3:26 a -10.3 -10.2 -10.3 --- --- 9.6 NE 0.16 10.4 -17.7 --- --- 731.0 0.020 0.000 9.2 7 1
02/23/06 3:27 a -10.3 -10.3 -10.3 --- --- 8.7 NE 0.14 10.4 -17.4 --- --- 730.9 0.020 0.000 9.1 7 1
02/23/06 3:28 a -10.3 -10.2 -10.3 --- --- 9.6 NE 0.16 11.3 -17.7 --- --- 731.0 0.020 0.000 9.1 7 1
02/23/06 3:29 a -10.3 -10.3 -10.3 --- --- 9.6 NE 0.16 10.4 -17.8 --- --- 730.9 0.020 0.000 9.1 7 1
02/23/06 3:30 a -10.3 -10.3 -10.3 --- --- 11.3 NE 0.19 12.2 -18.3 --- --- 731.0 0.020 0.000 9.1 7 1
02/23/06 3:31 a -10.3 -10.3 -10.4 --- --- 11.3 NE 0.19 12.2 -18.4 --- --- 731.0 0.020 0.000 9.1 7 1
02/23/06 3:32 a -10.3 -10.3 -10.4 --- --- 10.4 NE 0.17 12.2 -18.1 --- --- 731.0 0.020 0.000 9.1 7 1
02/23/06 3:33 a -10.3 -10.3 -10.4 --- --- 8.7 NE 0.14 9.6 -17.4 --- --- 731.1 0.020 0.000 9.1 7 1
02/23/06 3:34 a -10.3 -10.2 -10.3 --- --- 9.6 NE 0.16 11.3 -17.7 --- --- 731.0 0.020 0.000 9.1 7 1
02/23/06 3:35 a -10.2 -10.2 -10.2 --- --- 9.6 NE 0.16 10.4 -17.6 --- --- 730.9 0.020 0.000 9.1 7 1
02/23/06 3:36 a -10.2 -10.1 -10.2 --- --- 9.6 NE 0.16 10.4 -17.6 --- --- 730.9 0.020 0.000 9.1 7 1
02/23/06 3:37 a -10.2 -10.2 -10.2 --- --- 9.6 NE 0.16 11.3 -17.6 --- --- 730.9 0.020 0.000 9.1 6 1
02/23/06 3:38 a -10.2 -10.2 -10.3 --- --- 11.3 NE 0.19 12.2 -18.2 --- --- 730.9 0.020 0.000 9.1 7 1
02/23/06 3:39 a -10.3 -10.3 -10.3 --- --- 10.4 NE 0.17 12.2 -18.1 --- --- 730.8 0.020 0.000 9.1 7 1
02/23/06 3:40 a -10.4 -10.3 -10.4 --- --- 11.3 NE 0.19 12.2 -18.4 --- --- 731.0 0.020 0.000 9.1 7 1
02/23/06 3:41 a -10.4 -10.3 -10.4 --- --- 10.4 NE 0.17 12.2 -18.1 --- --- 730.8 0.020 0.000 9.1 7 1
02/23/06 3:42 a -10.4 -10.4 -10.5 --- --- 11.3 NE 0.19 13.0 -18.5 --- --- 730.9 0.020 0.000 9.1 7 1
02/23/06 3:43 a -10.6 -10.5 -10.6 --- --- 9.6 NE 0.16 12.2 -18.0 --- --- 730.9 0.020 0.000 9.1 7 1
02/23/06 3:44 a -10.6 -10.6 -10.6 --- --- 9.6 NE 0.16 11.3 -18.0 --- --- 730.9 0.020 0.000 9.1 7 1
02/23/06 3:45 a -10.6 -10.5 -10.6 --- --- 9.6 NE 0.16 11.3 -18.0 --- --- 730.8 0.020 0.000 9.2 6 1
02/23/06 3:46 a -10.6 -10.6 -10.6 --- --- 9.6 NE 0.16 11.3 -18.1 --- --- 730.9 0.020 0.000 9.2 6 1
02/23/06 3:47 a -10.7 -10.6 -10.7 --- --- 10.4 NE 0.17 12.2 -18.5 --- --- 730.8 0.020 0.000 9.2 7 1
02/23/06 3:48 a -10.8 -10.7 -10.8 --- --- 10.4 NE 0.17 11.3 -18.6 --- --- 730.9 0.020 0.000 9.2 7 1
02/23/06 3:49 a -10.8 -10.8 -10.9 --- --- 10.4 NE 0.17 11.3 -18.7 --- --- 730.9 0.020 0.000 9.2 7 1
02/23/06 3:50 a -10.9 -10.9 -11.0 --- --- 11.3 NE 0.19 14.8 -19.2 --- --- 730.8 0.020 0.000 9.2 6 1
02/23/06 3:51 a -10.9 -10.9 -11.0 --- --- 10.4 NE 0.17 13.0 -18.8 --- --- 730.8 0.020 0.000 9.2 7 1
02/23/06 3:52 a -10.9 -10.9 -10.9 --- --- 9.6 NE 0.16 10.4 -18.5 --- --- 730.8 0.020 0.000 9.2 7 1
02/23/06 3:53 a -10.8 -10.8 -10.8 --- --- 10.4 NE 0.17 12.2 -18.7 --- --- 730.9 0.020 0.000 9.3 7 1
02/23/06 3:54 a -10.8 -10.8 -10.8 --- --- 9.6 NE 0.16 11.3 -18.3 --- --- 730.9 0.020 0.000 9.3 7 1
02/23/06 3:55 a -10.8 -10.7 -10.8 --- --- 11.3 NE 0.19 13.0 -18.9 --- --- 730.8 0.020 0.000 9.3 6 1
02/23/06 3:56 a -10.8 -10.8 -10.8 --- --- 10.4 NE 0.17 12.2 -18.6 --- --- 730.8 0.020 0.000 9.3 7 1
02/23/06 3:57 a -10.8 -10.8 -10.8 --- --- 10.4 NE 0.17 11.3 -18.7 --- --- 731.0 0.020 0.000 9.3 7 1
02/23/06 3:58 a -10.8 -10.8 -10.9 --- --- 10.4 NE 0.17 12.2 -18.7 --- --- 730.9 0.020 0.000 9.3 7 1
02/23/06 3:59 a -10.9 -10.9 -10.9 --- --- 11.3 NE 0.19 12.2 -19.2 --- --- 730.9 0.020 0.000 9.3 7 1
02/23/06 4:00 a -10.9 -10.8 -10.9 --- --- 9.6 NE 0.16 11.3 -18.4 --- --- 731.0 0.020 0.000 9.3 7 1
02/23/06 4:01 a -10.8 -10.8 -10.8 --- --- 10.4 NE 0.17 11.3 -18.7 --- --- 731.0 0.020 0.000 9.3 7 1
02/23/06 4:02 a -10.8 -10.8 -10.8 --- --- 8.7 NE 0.14 9.6 -17.9 --- --- 730.9 0.020 0.000 9.3 7 1
02/23/06 4:03 a -10.8 -10.8 -10.8 --- --- 9.6 NE 0.16 11.3 -18.3 --- --- 730.9 0.020 0.000 9.3 7 1
02/23/06 4:04 a -10.8 -10.7 -10.8 --- --- 9.6 NE 0.16 11.3 -18.3 --- --- 730.9 0.020 0.000 9.4 7 1
02/23/06 4:05 a -10.7 -10.7 -10.8 --- --- 9.6 NE 0.16 12.2 -18.2 --- --- 730.9 0.020 0.000 9.4 7 1
02/23/06 4:06 a -10.7 -10.7 -10.8 --- --- 8.7 NE 0.14 9.6 -17.8 --- --- 730.9 0.020 0.000 9.4 7 1
02/23/06 4:07 a -10.6 -10.6 -10.7 --- --- 9.6 NE 0.16 11.3 -18.1 --- --- 730.9 0.020 0.000 9.4 7 1
02/23/06 4:08 a -10.6 -10.6 -10.6 --- --- 9.6 NE 0.16 12.2 -18.1 --- --- 730.8 0.020 0.000 9.4 7 1
02/23/06 4:09 a -10.5 -10.4 -10.6 --- --- 9.6 NE 0.16 10.4 -17.9 --- --- 730.9 0.020 0.000 9.4 6 1
02/23/06 4:10 a -10.4 -10.4 -10.4 --- --- 9.6 NE 0.16 11.3 -17.8 --- --- 730.8 0.020 0.000 9.4 7 1
02/23/06 4:11 a -10.4 -10.4 -10.4 --- --- 10.4 NE 0.17 11.3 -18.1 --- --- 730.9 0.020 0.000 9.4 7 1
02/23/06 4:12 a -10.4 -10.4 -10.4 --- --- 8.7 NE 0.14 12.2 -17.6 --- --- 730.9 0.020 0.000 9.4 6 1
02/23/06 4:13 a -10.4 -10.4 -10.4 --- --- 9.6 NE 0.16 11.3 -17.8 --- --- 730.9 0.020 0.000 9.4 7 1
02/23/06 4:14 a -10.4 -10.3 -10.4 --- --- 9.6 NE 0.16 10.4 -17.8 --- --- 730.9 0.020 0.000 9.4 7 1
02/23/06 4:15 a -10.4 -10.4 -10.4 --- --- 8.7 NE 0.14 10.4 -17.5 --- --- 730.9 0.020 0.000 9.5 7 1
02/23/06 4:16 a -10.5 -10.4 -10.6 --- --- 11.3 NE 0.19 13.0 -18.6 --- --- 730.9 0.020 0.000 9.5 7 1
02/23/06 4:17 a -10.6 -10.6 -10.7 --- --- 9.6 NE 0.16 11.3 -18.1 --- --- 730.8 0.020 0.000 9.5 7 1
02/23/06 4:18 a -10.7 -10.6 -10.7 --- --- 11.3 NE 0.19 13.0 -18.8 --- --- 730.9 0.020 0.000 9.5 7 1
02/23/06 4:19 a -10.7 -10.7 -10.8 --- --- 10.4 NE 0.17 12.2 -18.6 --- --- 730.9 0.020 0.000 9.5 7 1
02/23/06 4:20 a -10.8 -10.8 -10.9 --- --- 10.4 NE 0.17 12.2 -18.7 --- --- 730.9 0.020 0.000 9.5 7 1
02/23/06 4:21 a -10.8 -10.8 -10.8 --- --- 9.6 NE 0.16 11.3 -18.3 --- --- 730.9 0.020 0.000 9.5 7 1
02/23/06 4:22 a -10.9 -10.9 -11.0 --- --- 10.4 NE 0.17 12.2 -18.8 --- --- 730.8 0.020 0.000 9.5 6 1
02/23/06 4:23 a -11.1 -11.1 -11.1 --- --- 11.3 NE 0.19 13.0 -19.3 --- --- 730.8 0.020 0.000 9.5 7 1
02/23/06 4:24 a -11.2 -11.2 -11.3 --- --- 10.4 NE 0.17 11.3 -19.2 --- --- 730.8 0.021 0.000 9.5 7 1
02/23/06 4:25 a -11.4 -11.4 -11.6 --- --- 11.3 NE 0.19 12.2 -19.8 --- --- 730.9 0.021 0.000 9.5 7 1
02/23/06 4:26 a -11.6 -11.6 -11.6 --- --- 11.3 NE 0.19 13.0 -19.9 --- --- 730.8 0.021 0.000 9.5 7 1
02/23/06 4:27 a -11.6 -11.6 -11.6 --- --- 12.2 NE 0.20 13.0 -20.3 --- --- 730.8 0.021 0.000 9.5 7 1
02/23/06 4:28 a -11.6 -11.6 -11.6 --- --- 11.3 NE 0.19 13.9 -20.0 --- --- 730.9 0.021 0.000 9.6 7 1
02/23/06 4:29 a -11.7 -11.6 -11.7 --- --- 12.2 NE 0.20 13.9 -20.4 --- --- 731.0 0.021 0.000 9.6 7 1
02/23/06 4:30 a -11.8 -11.7 -11.8 --- --- 13.0 NE 0.22 13.9 -20.8 --- --- 730.9 0.021 0.000 9.6 7 1
02/23/06 4:31 a -11.9 -11.8 -11.9 --- --- 12.2 NE 0.20 13.9 -20.7 --- --- 730.9 0.021 0.000 9.6 7 1
02/23/06 4:32 a -11.9 -11.9 -11.9 --- --- 10.4 NE 0.17 11.3 -20.0 --- --- 730.9 0.021 0.000 9.6 7 1
02/23/06 4:33 a -11.9 -11.9 -11.9 --- --- 9.6 NE 0.16 11.3 -19.7 --- --- 730.9 0.021 0.000 9.6 7 1
02/23/06 4:34 a -11.9 -11.9 -11.9 --- --- 10.4 NE 0.17 12.2 -20.0 --- --- 730.9 0.021 0.000 9.6 7 1
02/23/06 4:35 a -11.9 -11.9 -11.9 --- --- 10.4 NE 0.17 13.0 -20.0 --- --- 731.0 0.021 0.000 9.6 6 1
02/23/06 4:36 a -11.9 -11.8 -11.9 --- --- 11.3 NE 0.19 13.0 -20.3 --- --- 730.9 0.021 0.000 9.6 7 1
02/23/06 4:37 a -11.9 -11.9 -11.9 --- --- 10.4 NE 0.17 12.2 -20.0 --- --- 730.9 0.021 0.000 9.6 6 1
02/23/06 4:38 a -11.9 -11.9 -11.9 --- --- 10.4 NE 0.17 11.3 -20.0 --- --- 730.9 0.021 0.000 9.6 7 1
02/23/06 4:39 a -11.9 -11.9 -11.9 --- --- 10.4 NE 0.17 12.2 -20.0 --- --- 730.9 0.021 0.000 9.6 6 1
02/23/06 4:40 a -11.9 -11.9 -11.9 --- --- 9.6 NE 0.16 13.0 -19.7 --- --- 730.9 0.021 0.000 9.6 7 1
02/23/06 4:41 a -11.9 -11.9 -12.0 --- --- 10.4 NE 0.17 12.2 -20.1 --- --- 730.9 0.021 0.000 9.6 7 1
02/23/06 4:42 a -11.9 -11.9 -12.0 --- --- 9.6 NE 0.16 11.3 -19.7 --- --- 731.0 0.021 0.000 9.6 7 1
02/23/06 4:43 a -11.8 -11.8 -11.9 --- --- 9.6 NE 0.16 10.4 -19.6 --- --- 730.9 0.021 0.000 9.6 7 1
02/23/06 4:44 a -11.8 -11.7 -11.8 --- --- 8.7 NE 0.14 10.4 -19.1 --- --- 730.9 0.021 0.000 9.6 6 1
02/23/06 4:45 a -11.6 -11.6 -11.7 --- --- 8.7 NE 0.14 10.4 -18.9 --- --- 731.0 0.021 0.000 9.6 7 1
02/23/06 4:46 a -11.6 -11.6 -11.6 --- --- 9.6 NE 0.16 10.4 -19.2 --- --- 730.9 0.021 0.000 9.6 6 1
02/23/06 4:47 a -11.6 -11.6 -11.7 --- --- 9.6 NE 0.16 10.4 -19.3 --- --- 730.8 0.021 0.000 9.6 7 1
02/23/06 4:48 a -11.7 -11.6 -11.7 --- --- 10.4 NE 0.17 11.3 -19.7 --- --- 730.9 0.021 0.000 9.7 6 1
02/23/06 4:49 a -11.7 -11.7 -11.7 --- --- 9.6 NE 0.16 11.3 -19.4 --- --- 730.9 0.021 0.000 9.7 7 1
02/23/06 4:50 a -11.7 -11.6 -11.7 --- --- 9.6 NE 0.16 11.3 -19.4 --- --- 730.9 0.021 0.000 9.7 7 1
02/23/06 4:51 a -11.6 -11.6 -11.6 --- --- 10.4 NE 0.17 11.3 -19.7 --- --- 730.9 0.021 0.000 9.7 7 1
02/23/06 4:52 a -11.7 -11.6 -11.7 --- --- 10.4 NE 0.17 10.4 -19.7 --- --- 730.9 0.021 0.000 9.7 7 1
02/23/06 4:53 a -11.7 -11.6 -11.7 --- --- 9.6 NE 0.16 10.4 -19.4 --- --- 730.9 0.021 0.000 9.7 7 1
02/23/06 4:54 a -11.6 -11.6 -11.7 --- --- 9.6 NE 0.16 10.4 -19.3 --- --- 730.8 0.021 0.000 9.7 6 1
02/23/06 4:55 a -11.7 -11.6 -11.7 --- --- 9.6 NE 0.16 10.4 -19.4 --- --- 731.0 0.021 0.000 9.7 7 1
02/23/06 4:56 a -11.6 -11.6 -11.7 --- --- 8.7 NE 0.14 10.4 -18.9 --- --- 730.9 0.021 0.000 9.7 6 1
02/23/06 4:57 a -11.6 -11.6 -11.7 --- --- 9.6 NE 0.16 11.3 -19.3 --- --- 731.0 0.021 0.000 9.7 6 1
02/23/06 4:58 a -11.7 -11.7 -11.8 --- --- 10.4 NE 0.17 11.3 -19.8 --- --- 731.0 0.021 0.000 9.7 7 1
02/23/06 4:59 a -11.7 -11.6 -11.7 --- --- 8.7 NE 0.14 9.6 -19.0 --- --- 730.9 0.021 0.000 9.7 6 1
02/23/06 5:00 a -11.7 -11.6 -11.7 --- --- 9.6 NE 0.16 11.3 -19.4 --- --- 730.9 0.021 0.000 9.7 7 1
02/23/06 5:01 a -11.7 -11.7 -11.8 --- --- 9.6 NE 0.16 11.3 -19.4 --- --- 731.0 0.021 0.000 9.7 6 1
02/23/06 5:02 a -11.8 -11.8 -11.8 --- --- 8.7 NE 0.14 10.4 -19.1 --- --- 731.0 0.021 0.000 9.6 6 1
02/23/06 5:03 a -11.8 -11.8 -11.8 --- --- 10.4 NE 0.17 11.3 -19.9 --- --- 731.0 0.021 0.000 9.6 7 1
02/23/06 5:04 a -11.8 -11.8 -11.8 --- --- 9.6 NE 0.16 10.4 -19.6 --- --- 731.0 0.021 0.000 9.6 6 1
02/23/06 5:05 a -11.8 -11.8 -11.8 --- --- 9.6 NE 0.16 11.3 -19.6 --- --- 731.0 0.021 0.000 9.6 6 1
02/23/06 5:06 a -11.8 -11.8 -11.8 --- --- 10.4 NE 0.17 11.3 -19.9 --- --- 731.0 0.021 0.000 9.6 7 1
02/23/06 5:07 a -11.7 -11.7 -11.8 --- --- 9.6 NE 0.16 10.4 -19.4 --- --- 731.0 0.021 0.000 9.6 6 1
02/23/06 5:08 a -11.7 -11.7 -11.7 --- --- 10.4 NE 0.17 11.3 -19.7 --- --- 730.9 0.021 0.000 9.5 6 1
02/23/06 5:09 a -11.7 -11.6 -11.7 --- --- 10.4 NE 0.17 10.4 -19.7 --- --- 731.0 0.021 0.000 9.5 6 1
02/23/06 5:10 a -11.6 -11.4 -11.6 --- --- 9.6 NE 0.16 11.3 -19.2 --- --- 731.0 0.021 0.000 9.5 6 1
02/23/06 5:11 a -11.4 -11.3 -11.4 --- --- 9.6 NE 0.16 9.6 -19.1 --- --- 731.0 0.021 0.000 9.4 6 1
02/23/06 5:12 a -11.3 -11.3 -11.3 --- --- 8.7 NE 0.14 10.4 -18.5 --- --- 731.0 0.021 0.000 9.4 6 1
02/23/06 5:13 a -11.2 -11.2 -11.2 --- --- 10.4 NE 0.17 11.3 -19.1 --- --- 730.8 0.020 0.000 9.4 6 1
02/23/06 5:14 a -11.1 -11.1 -11.2 --- --- 9.6 NE 0.16 11.3 -18.7 --- --- 731.0 0.020 0.000 9.4 6 1
02/23/06 5:15 a -11.1 -11.1 -11.1 --- --- 9.6 NE 0.16 10.4 -18.7 --- --- 731.0 0.020 0.000 9.4 6 1
02/23/06 5:16 a -11.0 -11.0 -11.1 --- --- 8.7 NE 0.14 9.6 -18.2 --- --- 731.0 0.020 0.000 9.4 6 1
02/23/06 5:17 a -11.0 -11.0 -11.1 --- --- 8.7 NE 0.14 9.6 -18.2 --- --- 731.0 0.020 0.000 9.4 6 1
02/23/06 5:18 a -10.9 -10.9 -11.0 --- --- 8.7 NE 0.14 9.6 -18.1 --- --- 730.9 0.020 0.000 9.3 6 1
02/23/06 5:19 a -10.8 -10.8 -10.9 --- --- 7.8 NE 0.13 8.7 -17.6 --- --- 730.9 0.020 0.000 9.3 6 1
02/23/06 5:20 a -10.7 -10.7 -10.8 --- --- 8.7 NE 0.14 9.6 -17.8 --- --- 730.9 0.020 0.000 9.3 6 1
02/23/06 5:21 a -10.8 -10.7 -10.8 --- --- 8.7 NE 0.14 9.6 -17.9 --- --- 730.9 0.020 0.000 9.3 6 1
02/23/06 5:22 a -10.8 -10.8 -10.8 --- --- 8.7 NE 0.14 9.6 -17.9 --- --- 730.9 0.020 0.000 9.3 6 1
02/23/06 5:23 a -10.8 -10.7 -10.8 --- --- 7.8 NE 0.13 9.6 -17.6 --- --- 731.0 0.020 0.000 9.3 6 1
02/23/06 5:24 a -10.7 -10.7 -10.7 --- --- 8.7 NE 0.14 10.4 -17.8 --- --- 730.9 0.020 0.000 9.3 6 1
02/23/06 5:25 a -10.7 -10.7 -10.7 --- --- 8.7 NE 0.14 9.6 -17.8 --- --- 731.0 0.020 0.000 9.3 6 1
02/23/06 5:26 a -10.7 -10.7 -10.7 --- --- 7.8 NE 0.13 8.7 -17.5 --- --- 731.0 0.020 0.000 9.3 6 1
02/23/06 5:27 a -10.7 -10.7 -10.7 --- --- 7.8 NE 0.13 8.7 -17.4 --- --- 731.0 0.020 0.000 9.2 6 1
02/23/06 5:28 a -10.6 -10.6 -10.7 --- --- 8.7 NE 0.14 10.4 -17.7 --- --- 731.0 0.020 0.000 9.2 6 1
02/23/06 5:29 a -10.7 -10.6 -10.7 --- --- 8.7 NE 0.14 10.4 -17.8 --- --- 730.9 0.020 0.000 9.2 6 1
02/23/06 5:30 a -10.6 -10.6 -10.6 --- --- 8.7 NE 0.14 11.3 -17.7 --- --- 730.9 0.020 0.000 9.2 6 1
02/23/06 5:31 a -10.6 -10.5 -10.6 --- --- 7.0 NE 0.12 8.7 -16.8 --- --- 730.9 0.020 0.000 9.2 6 1
02/23/06 5:32 a -10.3 -10.2 -10.5 --- --- 5.2 NE 0.09 6.1 -15.5 --- --- 731.0 0.020 0.000 9.2 6 1
02/23/06 5:33 a -10.1 -10.1 -10.1 --- --- 7.0 NE 0.12 8.7 -16.2 --- --- 731.0 0.020 0.000 9.2 6 1
02/23/06 5:34 a -10.1 -10.1 -10.2 --- --- 7.8 NE 0.13 8.7 -16.7 --- --- 730.9 0.020 0.000 9.2 6 1
02/23/06 5:35 a -10.2 -10.2 -10.3 --- --- 9.6 NE 0.16 11.3 -17.6 --- --- 731.0 0.020 0.000 9.2 6 1
02/23/06 5:36 a -10.4 -10.3 -10.5 --- --- 10.4 NE 0.17 12.2 -18.2 --- --- 731.0 0.020 0.000 9.2 6 1
02/23/06 5:37 a -10.6 -10.5 -10.6 --- --- 9.6 NE 0.16 11.3 -18.0 --- --- 731.0 0.020 0.000 9.2 6 1
02/23/06 5:38 a -10.7 -10.6 -10.7 --- --- 10.4 NE 0.17 11.3 -18.5 --- --- 731.0 0.020 0.000 9.1 6 1
02/23/06 5:39 a -10.7 -10.7 -10.8 --- --- 9.6 NE 0.16 10.4 -18.2 --- --- 731.1 0.020 0.000 9.1 6 1
02/23/06 5:40 a -10.8 -10.7 -10.8 --- --- 8.7 NE 0.14 11.3 -17.9 --- --- 731.0 0.020 0.000 9.1 6 1
02/23/06 5:41 a -10.8 -10.8 -10.8 --- --- 9.6 NE 0.16 10.4 -18.3 --- --- 731.0 0.020 0.000 9.1 6 1
02/23/06 5:42 a -10.8 -10.7 -10.8 --- --- 8.7 NE 0.14 10.4 -17.9 --- --- 731.0 0.020 0.000 9.1 6 1
02/23/06 5:43 a -10.8 -10.8 -10.8 --- --- 9.6 NE 0.16 11.3 -18.3 --- --- 731.0 0.020 0.000 9.1 6 1
02/23/06 5:44 a -10.8 -10.8 -10.8 --- --- 8.7 NE 0.14 9.6 -17.9 --- --- 731.0 0.020 0.000 9.1 6 1
02/23/06 5:45 a -10.8 -10.8 -10.8 --- --- 7.8 NE 0.13 8.7 -17.6 --- --- 731.1 0.020 0.000 9.1 6 1
02/23/06 5:46 a -10.7 -10.7 -10.8 --- --- 8.7 NE 0.14 9.6 -17.8 --- --- 731.0 0.020 0.000 9.1 6 1
02/23/06 5:47 a -10.7 -10.6 -10.7 --- --- 8.7 NE 0.14 10.4 -17.8 --- --- 731.0 0.020 0.000 9.1 6 1
02/23/06 5:48 a -10.7 -10.7 -10.7 --- --- 9.6 NE 0.16 10.4 -18.2 --- --- 731.0 0.020 0.000 9.1 6 1
02/23/06 5:49 a -10.8 -10.8 -10.8 --- --- 9.6 NE 0.16 10.4 -18.3 --- --- 731.1 0.020 0.000 9.1 6 1
02/23/06 5:50 a -10.8 -10.8 -10.9 --- --- 9.6 NE 0.16 10.4 -18.3 --- --- 731.1 0.020 0.000 9.0 6 1
02/23/06 5:51 a -10.9 -10.8 -10.9 --- --- 9.6 NE 0.16 12.2 -18.4 --- --- 731.0 0.020 0.000 9.0 6 1
02/23/06 5:52 a -11.1 -11.0 -11.1 --- --- 8.7 NE 0.14 10.4 -18.2 --- --- 730.9 0.020 0.000 9.0 6 1
02/23/06 5:53 a -11.1 -11.1 -11.1 --- --- 9.6 NE 0.16 12.2 -18.6 --- --- 730.9 0.020 0.000 9.0 6 1
02/23/06 5:54 a -11.1 -11.1 -11.1 --- --- 9.6 NE 0.16 10.4 -18.6 --- --- 730.9 0.020 0.000 9.0 6 1
02/23/06 5:55 a -11.1 -11.0 -11.1 --- --- 9.6 NE 0.16 10.4 -18.6 --- --- 731.0 0.020 0.000 9.0 6 1
02/23/06 5:56 a -11.1 -11.0 -11.1 --- --- 7.8 NE 0.13 9.6 -17.8 --- --- 730.9 0.020 0.000 9.1 6 1
02/23/06 5:57 a -10.9 -10.8 -11.0 --- --- 7.8 NE 0.13 9.6 -17.8 --- --- 731.0 0.020 0.000 9.1 6 1
02/23/06 5:58 a -10.8 -10.8 -10.8 --- --- 7.8 NE 0.13 8.7 -17.6 --- --- 731.0 0.020 0.000 9.1 6 1
02/23/06 5:59 a -10.8 -10.8 -10.8 --- --- 7.0 NE 0.12 8.7 -17.1 --- --- 731.0 0.020 0.000 9.1 6 1
02/23/06 6:00 a -10.8 -10.7 -10.8 --- --- 8.7 NE 0.14 10.4 -17.9 --- --- 730.9 0.020 0.000 9.1 6 1
02/23/06 6:01 a -10.8 -10.8 -10.8 --- --- 9.6 NE 0.16 10.4 -18.3 --- --- 730.9 0.020 0.000 9.1 6 1
02/23/06 6:02 a -10.8 -10.8 -10.8 --- --- 10.4 NE 0.17 12.2 -18.7 --- --- 730.9 0.020 0.000 9.2 6 1
02/23/06 6:03 a -10.9 -10.9 -10.9 --- --- 9.6 NE 0.16 12.2 -18.4 --- --- 730.9 0.020 0.000 9.2 6 1
02/23/06 6:04 a -10.9 -10.9 -10.9 --- --- 10.4 NE 0.17 12.2 -18.8 --- --- 730.9 0.020 0.000 9.2 6 1
02/23/06 6:05 a -11.0 -10.9 -11.0 --- --- 9.6 NE 0.16 11.3 -18.6 --- --- 731.0 0.020 0.000 9.2 6 1
02/23/06 6:06 a -10.9 -10.9 -10.9 --- --- 9.6 NE 0.16 11.3 -18.5 --- --- 730.9 0.020 0.000 9.2 6 1
02/23/06 6:07 a -10.9 -10.9 -10.9 --- --- 9.6 NE 0.16 11.3 -18.5 --- --- 731.0 0.020 0.000 9.2 6 1
02/23/06 6:08 a -10.9 -10.9 -11.0 --- --- 9.6 NE 0.16 10.4 -18.5 --- --- 730.9 0.020 0.000 9.2 6 1
02/23/06 6:09 a -10.9 -10.9 -10.9 --- --- 9.6 NE 0.16 11.3 -18.5 --- --- 730.9 0.020 0.000 9.2 6 1
02/23/06 6:10 a -10.9 -10.9 -10.9 --- --- 8.7 NE 0.14 11.3 -18.1 --- --- 730.9 0.020 0.000 9.2 6 1
02/23/06 6:11 a -10.9 -10.9 -10.9 --- --- 9.6 NE 0.16 11.3 -18.5 --- --- 731.0 0.020 0.000 9.2 6 1
02/23/06 6:12 a -11.0 -10.9 -11.0 --- --- 9.6 NE 0.16 11.3 -18.6 --- --- 730.9 0.020 0.000 9.2 6 1
02/23/06 6:13 a -11.0 -11.0 -11.1 --- --- 10.4 NE 0.17 12.2 -18.9 --- --- 731.0 0.020 0.000 9.2 6 1
02/23/06 6:14 a -11.1 -11.0 -11.1 --- --- 10.4 NE 0.17 12.2 -18.9 --- --- 731.0 0.020 0.000 9.2 6 1
02/23/06 6:15 a -11.0 -11.0 -11.1 --- --- 8.7 NE 0.14 11.3 -18.2 --- --- 730.9 0.020 0.000 9.3 6 1
02/23/06 6:16 a -11.0 -11.0 -11.1 --- --- 10.4 NE 0.17 11.3 -18.9 --- --- 730.9 0.020 0.000 9.3 6 1
02/23/06 6:17 a -11.0 -11.0 -11.1 --- --- 10.4 NE 0.17 12.2 -18.9 --- --- 730.9 0.020 0.000 9.3 6 1
02/23/06 6:18 a -11.1 -11.1 -11.1 --- --- 10.4 NE 0.17 11.3 -18.9 --- --- 730.9 0.020 0.000 9.3 6 1
02/23/06 6:19 a -11.2 -11.2 -11.2 --- --- 11.3 NE 0.19 11.3 -19.4 --- --- 731.0 0.020 0.000 9.3 6 1
02/23/06 6:20 a -11.2 -11.2 -11.3 --- --- 10.4 NE 0.17 12.2 -19.2 --- --- 731.0 0.021 0.000 9.3 6 1
02/23/06 6:21 a -11.3 -11.3 -11.3 --- --- 10.4 NE 0.17 11.3 -19.2 --- --- 730.9 0.021 0.000 9.3 6 1
02/23/06 6:22 a -11.3 -11.3 -11.3 --- --- 9.6 NE 0.16 12.2 -18.9 --- --- 731.0 0.021 0.000 9.3 6 1
02/23/06 6:23 a -11.3 -11.3 -11.4 --- --- 10.4 NE 0.17 12.2 -19.3 --- --- 731.0 0.021 0.000 9.3 6 1
02/23/06 6:24 a -11.3 -11.3 -11.4 --- --- 10.4 NE 0.17 11.3 -19.3 --- --- 730.9 0.021 0.000 9.3 6 1
02/23/06 6:25 a -11.3 -11.3 -11.4 --- --- 10.4 NE 0.17 11.3 -19.3 --- --- 730.9 0.021 0.000 9.3 6 1
02/23/06 6:26 a -11.3 -11.3 -11.3 --- --- 11.3 NE 0.19 13.0 -19.7 --- --- 730.9 0.021 0.000 9.3 6 1
02/23/06 6:27 a -11.3 -11.3 -11.3 --- --- 10.4 NE 0.17 12.2 -19.3 --- --- 731.0 0.021 0.000 9.3 6 1
02/23/06 6:28 a -11.3 -11.3 -11.4 --- --- 9.6 NE 0.16 11.3 -18.9 --- --- 731.0 0.021 0.000 9.3 6 1
02/23/06 6:29 a -11.3 -11.3 -11.4 --- --- 10.4 NE 0.17 11.3 -19.3 --- --- 730.9 0.021 0.000 9.3 6 1
02/23/06 6:30 a -11.3 -11.3 -11.3 --- --- 9.6 NE 0.16 11.3 -18.9 --- --- 730.9 0.021 0.000 9.3 6 1
02/23/06 6:31 a -11.3 -11.3 -11.4 --- --- 9.6 NE 0.16 10.4 -18.9 --- --- 730.9 0.021 0.000 9.4 6 1
02/23/06 6:32 a -11.3 -11.2 -11.3 --- --- 10.4 NE 0.17 12.2 -19.2 --- --- 731.0 0.021 0.000 9.4 6 1
02/23/06 6:33 a -11.3 -11.3 -11.3 --- --- 10.4 NE 0.17 12.2 -19.2 --- --- 730.9 0.021 0.000 9.4 6 1
02/23/06 6:34 a -11.2 -11.2 -11.2 --- --- 9.6 NE 0.16 11.3 -18.8 --- --- 730.9 0.021 0.000 9.4 6 1
02/23/06 6:35 a -11.2 -11.2 -11.2 --- --- 9.6 NE 0.16 10.4 -18.8 --- --- 731.0 0.021 0.000 9.4 6 1
02/23/06 6:36 a -11.2 -11.2 -11.2 --- --- 10.4 NE 0.17 12.2 -19.1 --- --- 730.9 0.020 0.000 9.4 6 1
02/23/06 6:37 a -11.2 -11.2 -11.2 --- --- 10.4 NE 0.17 12.2 -19.1 --- --- 731.0 0.020 0.000 9.4 6 1
02/23/06 6:38 a -11.2 -11.1 -11.2 --- --- 10.4 NE 0.17 12.2 -19.1 --- --- 730.9 0.020 0.000 9.4 6 1
02/23/06 6:39 a -11.1 -11.1 -11.1 --- --- 10.4 NE 0.17 11.3 -19.1 --- --- 730.9 0.020 0.000 9.4 6 1
02/23/06 6:40 a -11.1 -11.1 -11.1 --- --- 11.3 NE 0.19 12.2 -19.3 --- --- 730.9 0.020 0.000 9.4 6 1
02/23/06 6:41 a -11.1 -11.1 -11.1 --- --- 11.3 NE 0.19 12.2 -19.4 --- --- 730.9 0.020 0.000 9.4 6 1
02/23/06 6:42 a -11.1 -11.1 -11.2 --- --- 11.3 NE 0.19 12.2 -19.4 --- --- 730.9 0.020 0.000 9.4 6 1
02/23/06 6:43 a -11.1 -11.1 -11.1 --- --- 10.4 NE 0.17 11.3 -19.1 --- --- 730.9 0.020 0.000 9.4 6 1
02/23/06 6:44 a -11.2 -11.1 -11.2 --- --- 9.6 NE 0.16 12.2 -18.8 --- --- 731.0 0.020 0.000 9.4 6 1
02/23/06 6:45 a -11.1 -11.1 -11.2 --- --- 11.3 NE 0.19 12.2 -19.4 --- --- 730.9 0.020 0.000 9.4 6 1
02/23/06 6:46 a -11.2 -11.2 -11.2 --- --- 9.6 NE 0.16 12.2 -18.8 --- --- 730.9 0.020 0.000 9.4 6 1
02/23/06 6:47 a -11.2 -11.2 -11.2 --- --- 9.6 NE 0.16 11.3 -18.8 --- --- 730.9 0.020 0.000 9.4 6 1
02/23/06 6:48 a -11.2 -11.2 -11.2 --- --- 10.4 NE 0.17 13.9 -19.1 --- --- 730.9 0.020 0.000 9.4 6 1
02/23/06 6:49 a -11.2 -11.2 -11.2 --- --- 11.3 NE 0.19 12.2 -19.5 --- --- 730.9 0.021 0.000 9.4 6 1
02/23/06 6:50 a -11.2 -11.2 -11.3 --- --- 10.4 NE 0.17 13.0 -19.2 --- --- 731.0 0.021 0.000 9.4 6 1
02/23/06 6:51 a -11.3 -11.2 -11.3 --- --- 9.6 NE 0.16 11.3 -18.9 --- --- 731.0 0.021 0.000 9.5 6 1
02/23/06 6:52 a -11.3 -11.2 -11.3 --- --- 10.4 NE 0.17 13.0 -19.2 --- --- 730.9 0.021 0.000 9.5 6 1
02/23/06 6:53 a -11.3 -11.3 -11.3 --- --- 10.4 NE 0.17 12.2 -19.3 --- --- 730.9 0.021 0.000 9.5 6 1
02/23/06 6:54 a -11.3 -11.3 -11.3 --- --- 10.4 NE 0.17 12.2 -19.3 --- --- 730.9 0.021 0.000 9.5 6 1
02/23/06 6:55 a -11.3 -11.3 -11.3 --- --- 10.4 NE 0.17 11.3 -19.2 --- --- 731.0 0.021 0.000 9.5 6 1
02/23/06 6:56 a -11.3 -11.3 -11.3 --- --- 9.6 NE 0.16 11.3 -18.9 --- --- 730.9 0.021 0.000 9.5 6 1
02/23/06 6:57 a -11.2 -11.2 -11.3 --- --- 8.7 NE 0.14 11.3 -18.4 --- --- 731.0 0.021 0.000 9.5 6 1
02/23/06 6:58 a -11.2 -11.2 -11.2 --- --- 9.6 NE 0.16 11.3 -18.8 --- --- 730.9 0.020 0.000 9.5 6 1
02/23/06 6:59 a -11.2 -11.2 -11.2 --- --- 10.4 NE 0.17 11.3 -19.1 --- --- 731.0 0.020 0.000 9.5 6 1
02/23/06 7:00 a -11.2 -11.2 -11.2 --- --- 9.6 NE 0.16 11.3 -18.8 --- --- 730.9 0.020 0.000 9.5 6 1
02/23/06 7:01 a -11.1 -11.1 -11.1 --- --- 10.4 NE 0.17 12.2 -18.9 --- --- 730.9 0.020 0.000 9.6 6 1
02/23/06 7:02 a -11.1 -11.1 -11.2 --- --- 8.7 NE 0.14 11.3 -18.3 --- --- 730.9 0.020 0.000 9.6 6 1
02/23/06 7:03 a -11.2 -11.2 -11.3 --- --- 11.3 NE 0.19 13.0 -19.5 --- --- 730.9 0.021 0.000 9.6 6 1
02/23/06 7:04 a -11.3 -11.2 -11.3 --- --- 7.8 NE 0.13 9.6 -18.1 --- --- 730.9 0.021 0.000 9.5 6 1
02/23/06 7:05 a -11.2 -11.2 -11.2 --- --- 8.7 NE 0.14 11.3 -18.4 --- --- 730.9 0.021 0.000 9.6 6 1
02/23/06 7:06 a -11.2 -11.2 -11.2 --- --- 10.4 NE 0.17 12.2 -19.2 --- --- 730.9 0.021 0.000 9.6 6 1
02/23/06 7:07 a -11.2 -11.2 -11.2 --- --- 8.7 NE 0.14 10.4 -18.4 --- --- 730.9 0.020 0.000 9.6 6 1
02/23/06 7:08 a -11.2 -11.2 -11.2 --- --- 8.7 NE 0.14 10.4 -18.4 --- --- 730.9 0.021 0.000 9.6 6 1
02/23/06 7:09 a -11.2 -11.2 -11.3 --- --- 10.4 ENE 0.17 12.2 -19.2 --- --- 730.9 0.021 0.000 9.6 6 1
02/23/06 7:10 a -11.3 -11.3 -11.3 --- --- 9.6 NE 0.16 10.4 -18.9 --- --- 730.8 0.021 0.000 9.6 6 1
02/23/06 7:11 a -11.3 -11.3 -11.3 --- --- 10.4 NE 0.17 12.2 -19.2 --- --- 730.9 0.021 0.000 9.6 6 1
02/23/06 7:12 a -11.3 -11.3 -11.3 --- --- 8.7 NE 0.14 10.4 -18.6 --- --- 731.0 0.021 0.000 9.6 6 1
02/23/06 7:13 a -11.3 -11.3 -11.3 --- --- 9.6 NE 0.16 10.4 -18.9 --- --- 730.9 0.021 0.000 9.6 6 1
02/23/06 7:14 a -11.3 -11.3 -11.4 --- --- 10.4 NE 0.17 12.2 -19.3 --- --- 730.9 0.021 0.000 9.6 6 1
02/23/06 7:15 a -11.4 -11.3 -11.4 --- --- 11.3 ENE 0.19 12.2 -19.7 --- --- 731.0 0.021 0.000 9.6 6 1
02/23/06 7:16 a -11.4 -11.4 -11.4 --- --- 12.2 ENE 0.20 13.0 -20.1 --- --- 730.9 0.021 0.000 9.6 6 1
02/23/06 7:17 a -11.5 -11.5 -11.5 --- --- 12.2 ENE 0.20 13.9 -20.2 --- --- 731.0 0.021 0.000 9.6 6 1
02/23/06 7:18 a -11.5 -11.5 -11.6 --- --- 10.4 ENE 0.17 12.2 -19.6 --- --- 731.0 0.021 0.000 9.6 6 1
02/23/06 7:19 a -11.5 -11.5 -11.5 --- --- 10.4 ENE 0.17 13.0 -19.6 --- --- 730.9 0.021 0.000 9.6 6 1
02/23/06 7:20 a -11.6 -11.5 -11.6 --- --- 10.4 NE 0.17 12.2 -19.6 --- --- 731.0 0.021 0.000 9.6 6 1
02/23/06 7:21 a -11.6 -11.6 -11.6 --- --- 11.3 ENE 0.19 13.0 -19.9 --- --- 731.0 0.021 0.000 9.6 6 1
02/23/06 7:22 a -11.6 -11.6 -11.6 --- --- 12.2 NE 0.20 13.0 -20.3 --- --- 731.0 0.021 0.000 9.6 6 1
02/23/06 7:23 a -11.7 -11.6 -11.7 --- --- 11.3 NE 0.19 13.0 -20.1 --- --- 731.0 0.021 0.000 9.6 6 1
02/23/06 7:24 a -11.7 -11.7 -11.7 --- --- 11.3 NE 0.19 13.0 -20.1 --- --- 730.9 0.021 0.000 9.6 6 1
02/23/06 7:25 a -11.7 -11.7 -11.7 --- --- 13.0 NE 0.22 13.9 -20.7 --- --- 731.0 0.021 0.000 9.6 6 1
02/23/06 7:26 a -11.7 -11.7 -11.7 --- --- 12.2 NE 0.20 14.8 -20.4 --- --- 731.0 0.021 0.000 9.6 6 1
02/23/06 7:27 a -11.7 -11.7 -11.8 --- --- 13.0 ENE 0.22 15.7 -20.7 --- --- 731.0 0.021 0.000 9.6 6 1
02/23/06 7:28 a -11.8 -11.7 -11.8 --- --- 11.3 ENE 0.19 13.0 -20.2 --- --- 731.0 0.021 0.000 9.6 6 1
02/23/06 7:29 a -11.7 -11.7 -11.8 --- --- 10.4 ENE 0.17 11.3 -19.8 --- --- 731.0 0.021 0.000 9.6 6 1
02/23/06 7:30 a -11.7 -11.7 -11.8 --- --- 13.0 ENE 0.22 14.8 -20.7 --- --- 731.0 0.021 0.000 9.6 6 1
02/23/06 7:31 a -11.8 -11.8 -11.8 --- --- 12.2 ENE 0.20 13.9 -20.5 --- --- 730.9 0.021 0.000 9.6 6 1
02/23/06 7:32 a -11.8 -11.8 -11.9 --- --- 11.3 ENE 0.19 13.0 -20.3 --- --- 731.0 0.021 0.000 9.6 6 1
02/23/06 7:33 a -11.9 -11.8 -11.9 --- --- 12.2 ENE 0.20 13.9 -20.7 --- --- 730.9 0.021 0.000 9.6 6 1
02/23/06 7:34 a -11.9 -11.9 -11.9 --- --- 12.2 NE 0.20 13.9 -20.7 --- --- 731.0 0.021 0.000 9.6 6 1
02/23/06 7:35 a -11.9 -11.8 -11.9 --- --- 11.3 NE 0.19 13.0 -20.3 --- --- 730.9 0.021 0.000 9.6 6 1
02/23/06 7:36 a -11.9 -11.9 -11.9 --- --- 11.3 NE 0.19 13.0 -20.3 --- --- 730.9 0.021 0.000 9.6 6 1
02/23/06 7:37 a -11.9 -11.9 -11.9 --- --- 10.4 ENE 0.17 12.2 -20.0 --- --- 731.0 0.021 0.000 9.6 6 1
02/23/06 7:38 a -11.9 -11.9 -11.9 --- --- 12.2 NE 0.20 13.9 -20.7 --- --- 731.0 0.021 0.000 9.6 6 1
02/23/06 7:39 a -11.9 -11.9 -11.9 --- --- 11.3 NE 0.19 13.0 -20.3 --- --- 731.0 0.021 0.000 9.6 6 1
02/23/06 7:40 a -11.9 -11.8 -11.9 --- --- 11.3 NE 0.19 13.0 -20.3 --- --- 731.0 0.021 0.000 9.6 6 1
02/23/06 7:41 a -11.9 -11.8 -11.9 --- --- 10.4 NE 0.17 12.2 -20.0 --- --- 731.0 0.021 0.000 9.6 6 1
02/23/06 7:42 a -11.9 -11.8 -11.9 --- --- 11.3 ENE 0.19 12.2 -20.3 --- --- 731.0 0.021 0.000 9.6 6 1
02/23/06 7:43 a -11.9 -11.8 -11.9 --- --- 11.3 ENE 0.19 13.9 -20.3 --- --- 730.9 0.021 0.000 9.6 6 1
02/23/06 7:44 a -11.9 -11.9 -11.9 --- --- 12.2 ENE 0.20 13.9 -20.7 --- --- 731.0 0.021 0.000 9.6 6 1
02/23/06 7:45 a -11.9 -11.9 -11.9 --- --- 13.0 ENE 0.22 14.8 -20.9 --- --- 731.0 0.021 0.000 9.7 6 1
02/23/06 7:46 a -11.9 -11.9 -12.0 --- --- 13.0 ENE 0.22 14.8 -21.0 --- --- 731.0 0.021 0.000 9.7 6 1
02/23/06 7:47 a -11.9 -11.9 -11.9 --- --- 12.2 ENE 0.20 12.2 -20.7 --- --- 731.0 0.021 0.000 9.7 6 1
02/23/06 7:48 a -11.9 -11.9 -12.0 --- --- 12.2 ENE 0.20 14.8 -20.7 --- --- 731.0 0.021 0.000 9.7 6 1
02/23/06 7:49 a -11.9 -11.9 -12.0 --- --- 11.3 ENE 0.19 13.9 -20.4 --- --- 731.0 0.021 0.000 9.7 6 1
02/23/06 7:50 a -12.1 -12.0 -12.1 --- --- 11.3 ENE 0.19 13.9 -20.6 --- --- 731.1 0.021 0.000 9.7 6 1
02/23/06 7:51 a -12.0 -12.0 -12.1 --- --- 12.2 ENE 0.20 14.8 -20.8 --- --- 731.1 0.021 0.000 9.7 6 1
02/23/06 7:52 a -12.1 -12.0 -12.1 --- --- 11.3 NE 0.19 13.9 -20.6 --- --- 731.0 0.021 0.000 9.7 6 1
02/23/06 7:53 a -12.1 -12.1 -12.1 --- --- 11.3 NE 0.19 13.9 -20.6 --- --- 731.0 0.021 0.000 9.7 6 1
02/23/06 7:54 a -12.1 -12.1 -12.1 --- --- 13.0 ENE 0.22 13.9 -21.2 --- --- 731.0 0.021 0.000 9.7 6 1
02/23/06 7:55 a -12.1 -12.0 -12.1 --- --- 12.2 ENE 0.20 13.9 -20.9 --- --- 731.1 0.021 0.000 9.7 6 1
02/23/06 7:56 a -12.1 -12.0 -12.1 --- --- 13.0 NE 0.22 14.8 -21.2 --- --- 731.1 0.021 0.000 9.7 6 1
02/23/06 7:57 a -12.1 -12.1 -12.1 --- --- 11.3 ENE 0.19 15.7 -20.6 --- --- 731.1 0.021 0.000 9.7 6 1
02/23/06 7:58 a -12.1 -12.1 -12.1 --- --- 13.9 ENE 0.23 16.5 -21.5 --- --- 731.1 0.021 0.000 9.7 6 1
02/23/06 7:59 a -12.1 -12.1 -12.1 --- --- 13.0 ENE 0.22 15.7 -21.2 --- --- 731.1 0.021 0.000 9.7 6 1
02/23/06 8:00 a -12.1 -12.1 -12.1 --- --- 14.8 NE 0.25 16.5 -21.8 --- --- 731.0 0.021 0.000 9.6 6 1
02/23/06 8:01 a -12.1 -12.1 -12.2 --- --- 13.0 NE 0.22 14.8 -21.2 --- --- 731.1 0.021 0.000 9.6 6 1
02/23/06 8:02 a -12.2 -12.1 -12.2 --- --- 13.9 NE 0.23 16.5 -21.6 --- --- 731.1 0.021 0.000 9.6 6 1
02/23/06 8:03 a -12.1 -12.1 -12.2 --- --- 13.0 ENE 0.22 14.8 -21.2 --- --- 731.1 0.021 0.000 9.6 6 1
02/23/06 8:04 a -12.2 -12.1 -12.2 --- --- 13.0 NE 0.22 15.7 -21.3 --- --- 731.1 0.021 0.000 9.6 6 1
02/23/06 8:05 a -12.2 -12.2 -12.2 --- --- 13.9 ENE 0.23 16.5 -21.6 --- --- 731.1 0.021 0.000 9.5 6 1
02/23/06 8:06 a -12.2 -12.2 -12.2 --- --- 12.2 NE 0.20 14.8 -21.0 --- --- 731.1 0.021 0.000 9.5 6 1
02/23/06 8:07 a -12.2 -12.2 -12.2 --- --- 11.3 NE 0.19 15.7 -20.8 --- --- 731.1 0.021 0.000 9.4 6 1
02/23/06 8:08 a -12.2 -12.2 -12.2 --- --- 13.0 NE 0.22 14.8 -21.4 --- --- 731.1 0.021 0.000 9.4 6 1
02/23/06 8:09 a -12.2 -12.2 -12.2 --- --- 12.2 NE 0.20 15.7 -21.1 --- --- 731.1 0.021 0.000 9.4 6 1
02/23/06 8:10 a -12.2 -12.2 -12.2 --- --- 11.3 NE 0.19 15.7 -20.8 --- --- 731.0 0.021 0.000 9.4 6 1
02/23/06 8:11 a -12.2 -12.2 -12.3 --- --- 11.3 NE 0.19 13.9 -20.8 --- --- 731.2 0.021 0.000 9.4 6 1
02/23/06 8:12 a -12.3 -12.2 -12.3 --- --- 13.0 NE 0.22 14.8 -21.4 --- --- 731.1 0.021 0.000 9.4 6 1
02/23/06 8:13 a -12.3 -12.3 -12.3 --- --- 11.3 NE 0.19 14.8 -20.9 --- --- 731.1 0.021 0.000 9.3 6 1
02/23/06 8:14 a -12.3 -12.3 -12.3 --- --- 13.0 NE 0.22 15.7 -21.5 --- --- 731.1 0.021 0.000 9.3 6 1
02/23/06 8:15 a -12.3 -12.3 -12.3 --- --- 11.3 NE 0.19 13.9 -20.9 --- --- 731.1 0.021 0.000 9.3 6 1
02/23/06 8:16 a -12.3 -12.3 -12.3 --- --- 11.3 NE 0.19 13.9 -20.9 --- --- 731.1 0.021 0.000 9.3 6 1
02/23/06 8:17 a -12.3 -12.3 -12.3 --- --- 12.2 NE 0.20 14.8 -21.2 --- --- 731.1 0.021 0.000 9.3 6 1
02/23/06 8:18 a -12.3 -12.3 -12.3 --- --- 11.3 NE 0.19 13.9 -20.9 --- --- 731.1 0.021 0.000 9.3 6 1
02/23/06 8:19 a -12.3 -12.3 -12.4 --- --- 12.2 NE 0.20 15.7 -21.2 --- --- 731.1 0.021 0.000 9.3 6 1
02/23/06 8:20 a -12.3 -12.3 -12.4 --- --- 12.2 NE 0.20 14.8 -21.2 --- --- 731.1 0.021 0.000 9.3 6 1
02/23/06 8:21 a -12.4 -12.4 -12.4 --- --- 13.0 NE 0.22 13.9 -21.6 --- --- 731.1 0.021 0.000 9.2 6 1
02/23/06 8:22 a -12.4 -12.4 -12.4 --- --- 11.3 NE 0.19 13.9 -21.0 --- --- 731.1 0.021 0.000 9.2 6 1
02/23/06 8:23 a -12.4 -12.4 -12.4 --- --- 12.2 NE 0.20 14.8 -21.3 --- --- 731.1 0.021 0.000 9.2 6 1
02/23/06 8:24 a -12.4 -12.4 -12.4 --- --- 13.0 NE 0.22 14.8 -21.6 --- --- 731.1 0.021 0.000 9.2 6 1
02/23/06 8:25 a -12.4 -12.4 -12.4 --- --- 12.2 NE 0.20 14.8 -21.3 --- --- 731.1 0.021 0.000 9.2 6 1
02/23/06 8:26 a -12.4 -12.4 -12.4 --- --- 13.0 NE 0.22 14.8 -21.6 --- --- 731.1 0.021 0.000 9.2 6 1
02/23/06 8:27 a -12.4 -12.4 -12.4 --- --- 11.3 NE 0.19 13.0 -21.0 --- --- 731.1 0.021 0.000 9.2 6 1
02/23/06 8:28 a -12.4 -12.4 -12.4 --- --- 10.4 NE 0.17 16.5 -20.7 --- --- 731.1 0.021 0.000 9.1 6 1
02/23/06 8:29 a -12.4 -12.4 -12.4 --- --- 12.2 NE 0.20 16.5 -21.3 --- --- 731.1 0.021 0.000 9.1 6 1
02/23/06 8:30 a -12.4 -12.4 -12.4 --- --- 11.3 NE 0.19 14.8 -21.1 --- --- 731.2 0.021 0.000 9.1 6 1
02/23/06 8:31 a -12.4 -12.4 -12.4 --- --- 12.2 NE 0.20 14.8 -21.4 --- --- 731.1 0.021 0.000 9.1 6 1
02/23/06 8:32 a -12.4 -12.4 -12.4 --- --- 13.0 NE 0.22 14.8 -21.7 --- --- 731.1 0.021 0.000 9.1 6 1
02/23/06 8:33 a -12.4 -12.4 -12.4 --- --- 11.3 NE 0.19 15.7 -21.1 --- --- 731.1 0.021 0.000 9.1 6 1
02/23/06 8:34 a -12.4 -12.4 -12.4 --- --- 14.8 NE 0.25 15.7 -22.2 --- --- 731.0 0.021 0.000 9.1 6 1
02/23/06 8:35 a -12.4 -12.4 -12.4 --- --- 11.3 NE 0.19 13.0 -21.1 --- --- 731.0 0.021 0.000 9.1 6 1
02/23/06 8:36 a -12.4 -12.4 -12.4 --- --- 13.0 NE 0.22 16.5 -21.6 --- --- 730.9 0.021 0.000 9.1 6 1
02/23/06 8:37 a -12.4 -12.4 -12.4 --- --- 13.0 NE 0.22 18.3 -21.7 --- --- 731.1 0.021 0.000 9.0 6 1
02/23/06 8:38 a -12.4 -12.4 -12.4 --- --- 8.7 NE 0.14 13.9 -19.9 --- --- 731.0 0.021 0.000 9.1 6 1
02/23/06 8:39 a -12.4 -12.4 -12.4 --- --- 13.0 NE 0.22 16.5 -21.7 --- --- 731.0 0.021 0.000 9.1 6 1
02/23/06 8:40 a -12.4 -12.4 -12.4 --- --- 10.4 NE 0.17 13.9 -20.7 --- --- 731.0 0.021 0.000 9.1 6 1
02/23/06 8:41 a -12.4 -12.4 -12.4 --- --- 13.0 NE 0.22 14.8 -21.6 --- --- 731.0 0.021 0.000 9.1 6 1
02/23/06 8:42 a -12.4 -12.3 -12.4 --- --- 10.4 NE 0.17 13.9 -20.7 --- --- 730.9 0.021 0.000 9.1 6 1
02/23/06 8:43 a -12.3 -12.3 -12.3 --- --- 13.0 NE 0.22 16.5 -21.5 --- --- 731.0 0.021 0.000 9.1 6 1
02/23/06 8:44 a -12.3 -12.3 -12.3 --- --- 9.6 NE 0.16 13.9 -20.2 --- --- 731.0 0.021 0.000 9.1 6 1
02/23/06 8:45 a -12.3 -12.3 -12.3 --- --- 13.0 NE 0.22 16.5 -21.5 --- --- 731.0 0.021 0.000 9.1 6 1
02/23/06 8:46 a -12.3 -12.3 -12.3 --- --- 10.4 NE 0.17 13.0 -20.6 --- --- 731.0 0.021 0.000 9.2 6 1
02/23/06 8:47 a -12.3 -12.3 -12.3 --- --- 13.9 NE 0.23 17.4 -21.8 --- --- 731.0 0.021 0.000 9.2 6 1
02/23/06 8:48 a -12.3 -12.3 -12.3 --- --- 13.0 NE 0.22 15.7 -21.5 --- --- 731.0 0.021 0.000 9.2 6 1
02/23/06 8:49 a -12.3 -12.3 -12.3 --- --- 12.2 NE 0.20 15.7 -21.2 --- --- 731.0 0.021 0.000 9.2 6 1
02/23/06 8:50 a -12.3 -12.3 -12.3 --- --- 13.0 NE 0.22 16.5 -21.4 --- --- 731.0 0.021 0.000 9.2 6 1
02/23/06 8:51 a -12.3 -12.3 -12.3 --- --- 11.3 NE 0.19 13.9 -20.8 --- --- 731.0 0.021 0.000 9.2 6 1
02/23/06 8:52 a -12.3 -12.3 -12.3 --- --- 11.3 NE 0.19 14.8 -20.8 --- --- 731.0 0.021 0.000 9.2 6 1
02/23/06 8:53 a -12.3 -12.2 -12.3 --- --- 13.0 NE 0.22 15.7 -21.4 --- --- 731.0 0.021 0.000 9.2 6 1
02/23/06 8:54 a -12.2 -12.2 -12.3 --- --- 11.3 NE 0.19 13.0 -20.8 --- --- 731.0 0.021 0.000 9.2 6 1
02/23/06 8:55 a -12.2 -12.2 -12.2 --- --- 13.0 NE 0.22 15.7 -21.3 --- --- 731.0 0.021 0.000 9.2 6 1
02/23/06 8:56 a -12.2 -12.1 -12.2 --- --- 12.2 NE 0.20 14.8 -21.0 --- --- 730.9 0.021 0.000 9.2 6 1
02/23/06 8:57 a -12.2 -12.2 -12.2 --- --- 13.9 NE 0.23 15.7 -21.6 --- --- 731.0 0.021 0.000 9.2 6 1
02/23/06 8:58 a -12.2 -12.2 -12.2 --- --- 13.9 NE 0.23 15.7 -21.6 --- --- 730.9 0.021 0.000 9.2 6 1
02/23/06 8:59 a -12.2 -12.2 -12.3 --- --- 13.9 NE 0.23 17.4 -21.7 --- --- 730.9 0.021 0.000 9.3 6 1
02/23/06 9:00 a -12.3 -12.3 -12.3 --- --- 13.0 NE 0.22 17.4 -21.4 --- --- 730.9 0.021 0.000 9.3 6 1
02/23/06 9:01 a -12.3 -12.3 -12.3 --- --- 12.2 NE 0.20 14.8 -21.2 --- --- 730.9 0.021 0.000 9.3 6 1
02/23/06 9:02 a -12.3 -12.3 -12.3 --- --- 13.0 NE 0.22 15.7 -21.5 --- --- 730.9 0.021 0.000 9.3 6 1
02/23/06 9:03 a -12.3 -12.3 -12.3 --- --- 12.2 NE 0.20 14.8 -21.2 --- --- 731.0 0.021 0.000 9.3 6 1
02/23/06 9:04 a -12.3 -12.3 -12.3 --- --- 13.0 NE 0.22 14.8 -21.4 --- --- 731.0 0.021 0.000 9.3 6 1
02/23/06 9:05 a -12.3 -12.3 -12.3 --- --- 12.2 NE 0.20 13.9 -21.2 --- --- 731.0 0.021 0.000 9.3 6 1
02/23/06 9:06 a -12.3 -12.3 -12.3 --- --- 13.9 ENE 0.23 15.7 -21.8 --- --- 730.9 0.021 0.000 9.3 6 1
02/23/06 9:07 a -12.3 -12.3 -12.3 --- --- 12.2 ENE 0.20 14.8 -21.2 --- --- 730.9 0.021 0.000 9.3 6 1
02/23/06 9:08 a -12.3 -12.3 -12.4 --- --- 13.9 NE 0.23 15.7 -21.8 --- --- 730.9 0.021 0.000 9.3 6 1
02/23/06 9:09 a -12.4 -12.4 -12.4 --- --- 13.9 ENE 0.23 14.8 -21.9 --- --- 730.9 0.021 0.000 9.3 6 1
02/23/06 9:10 a -12.4 -12.4 -12.4 --- --- 14.8 ENE 0.25 15.7 -22.2 --- --- 730.9 0.021 0.000 9.3 6 1
02/23/06 9:11 a -12.4 -12.4 -12.5 --- --- 13.9 ENE 0.23 15.7 -21.9 --- --- 730.9 0.021 0.000 9.3 6 1
02/23/06 9:12 a -12.5 -12.5 -12.5 --- --- 13.9 ENE 0.23 15.7 -22.0 --- --- 730.9 0.021 0.000 9.3 6 1
02/23/06 9:13 a -12.5 -12.5 -12.5 --- --- 13.9 ENE 0.23 14.8 -22.0 --- --- 730.9 0.021 0.000 9.3 6 1
02/23/06 9:14 a -12.5 -12.4 -12.5 --- --- 13.9 ENE 0.23 15.7 -22.0 --- --- 730.9 0.021 0.000 9.3 6 1
02/23/06 9:15 a -12.5 -12.4 -12.5 --- --- 14.8 ENE 0.25 16.5 -22.3 --- --- 730.9 0.021 0.000 9.3 6 1
02/23/06 9:16 a -12.6 -12.5 -12.6 --- --- 14.8 ENE 0.25 15.7 -22.3 --- --- 730.8 0.021 0.000 9.3 6 1
02/23/06 9:17 a -12.6 -12.6 -12.6 --- --- 14.8 ENE 0.25 15.7 -22.3 --- --- 730.8 0.021 0.000 9.3 6 1
02/23/06 9:18 a -12.6 -12.6 -12.6 --- --- 15.7 ENE 0.26 16.5 -22.6 --- --- 730.8 0.021 0.000 9.3 6 1
02/23/06 9:19 a -12.6 -12.6 -12.6 --- --- 14.8 ENE 0.25 16.5 -22.3 --- --- 730.9 0.021 0.000 9.3 6 1
02/23/06 9:20 a -12.6 -12.6 -12.6 --- --- 14.8 ENE 0.25 15.7 -22.4 --- --- 730.9 0.021 0.000 9.3 6 1
02/23/06 9:21 a -12.6 -12.6 -12.6 --- --- 14.8 NE 0.25 15.7 -22.3 --- --- 730.9 0.021 0.000 9.3 6 1
02/23/06 9:22 a -12.6 -12.5 -12.6 --- --- 14.8 ENE 0.25 16.5 -22.3 --- --- 730.9 0.021 0.000 9.3 6 1
02/23/06 9:23 a -12.5 -12.5 -12.5 --- --- 14.8 ENE 0.25 16.5 -22.3 --- --- 730.9 0.021 0.000 9.3 6 1
02/23/06 9:24 a -12.5 -12.5 -12.5 --- --- 15.7 ENE 0.26 16.5 -22.6 --- --- 730.9 0.021 0.000 9.4 6 1
02/23/06 9:25 a -12.5 -12.5 -12.6 --- --- 15.7 NE 0.26 16.5 -22.6 --- --- 730.9 0.021 0.000 9.4 6 1
02/23/06 9:26 a -12.5 -12.5 -12.6 --- --- 15.7 ENE 0.26 16.5 -22.6 --- --- 730.9 0.021 0.000 9.4 6 1
02/23/06 9:27 a -12.6 -12.5 -12.6 --- --- 14.8 ENE 0.25 15.7 -22.3 --- --- 730.9 0.021 0.000 9.4 6 1
02/23/06 9:28 a -12.5 -12.5 -12.6 --- --- 13.9 ENE 0.23 15.7 -22.0 --- --- 730.9 0.021 0.000 9.4 6 1
02/23/06 9:29 a -12.6 -12.6 -12.6 --- --- 14.8 ENE 0.25 15.7 -22.3 --- --- 730.9 0.021 0.000 9.3 6 1
02/23/06 9:30 a -12.6 -12.6 -12.6 --- --- 13.9 ENE 0.23 15.7 -22.2 --- --- 730.9 0.021 0.000 9.3 6 1
02/23/06 9:31 a -12.7 -12.6 -12.7 --- --- 13.9 NE 0.23 15.7 -22.2 --- --- 730.9 0.022 0.000 9.4 6 1
02/23/06 9:32 a -12.7 -12.7 -12.7 --- --- 14.8 NE 0.25 15.7 -22.5 --- --- 730.9 0.022 0.000 9.4 6 1
02/23/06 9:33 a -12.7 -12.7 -12.8 --- --- 13.9 NE 0.23 15.7 -22.3 --- --- 730.9 0.022 0.000 9.4 6 1
02/23/06 9:34 a -12.8 -12.7 -12.8 --- --- 13.9 NE 0.23 14.8 -22.4 --- --- 731.0 0.022 0.000 9.4 6 1
02/23/06 9:35 a -12.8 -12.8 -12.8 --- --- 13.0 NE 0.22 13.9 -22.1 --- --- 730.9 0.022 0.000 9.4 6 1
02/23/06 9:36 a -12.8 -12.8 -12.8 --- --- 13.9 NE 0.23 14.8 -22.4 --- --- 731.0 0.022 0.000 9.4 6 1
02/23/06 9:37 a -12.8 -12.8 -12.8 --- --- 13.0 NE 0.22 14.8 -22.1 --- --- 730.9 0.022 0.000 9.4 6 1
02/23/06 9:38 a -12.8 -12.7 -12.8 --- --- 13.9 NE 0.23 15.7 -22.4 --- --- 731.0 0.022 0.000 9.4 6 1
02/23/06 9:39 a -12.8 -12.7 -12.8 --- --- 13.0 NE 0.22 14.8 -22.1 --- --- 731.0 0.022 0.000 9.4 6 1
02/23/06 9:40 a -12.7 -12.7 -12.7 --- --- 13.0 NE 0.22 14.8 -21.9 --- --- 731.0 0.022 0.000 9.4 6 1
02/23/06 9:41 a -12.7 -12.6 -12.7 --- --- 14.8 ENE 0.25 16.5 -22.5 --- --- 731.0 0.022 0.000 9.4 6 1
02/23/06 9:42 a -12.7 -12.6 -12.7 --- --- 12.2 NE 0.20 13.9 -21.7 --- --- 731.0 0.022 0.000 9.4 6 1
02/23/06 9:43 a -12.7 -12.6 -12.7 --- --- 14.8 ENE 0.25 16.5 -22.5 --- --- 731.0 0.022 0.000 9.4 6 1
02/23/06 9:44 a -12.6 -12.6 -12.7 --- --- 13.9 ENE 0.23 15.7 -22.2 --- --- 731.0 0.021 0.000 9.4 6 1
02/23/06 9:45 a -12.6 -12.6 -12.6 --- --- 12.2 NE 0.20 13.9 -21.6 --- --- 731.0 0.021 0.000 9.4 6 1
02/23/06 9:46 a -12.6 -12.6 -12.6 --- --- 13.9 NE 0.23 17.4 -22.2 --- --- 731.0 0.021 0.000 9.4 6 1
02/23/06 9:47 a -12.6 -12.5 -12.6 --- --- 14.8 NE 0.25 15.7 -22.3 --- --- 731.1 0.021 0.000 9.4 6 1
02/23/06 9:48 a -12.5 -12.5 -12.6 --- --- 11.3 NE 0.19 13.9 -21.1 --- --- 731.0 0.021 0.000 9.4 6 1
02/23/06 9:49 a -12.5 -12.5 -12.6 --- --- 11.3 NE 0.19 16.5 -21.1 --- --- 731.0 0.021 0.000 9.4 6 1
02/23/06 9:50 a -12.4 -12.4 -12.5 --- --- 13.9 NE 0.23 15.7 -21.9 --- --- 731.0 0.021 0.000 9.4 6 1
02/23/06 9:51 a -12.4 -12.4 -12.4 --- --- 13.9 NE 0.23 15.7 -21.9 --- --- 731.0 0.021 0.000 9.4 6 1
02/23/06 9:52 a -12.4 -12.4 -12.4 --- --- 12.2 NE 0.20 13.0 -21.3 --- --- 731.1 0.021 0.000 9.4 6 1
02/23/06 9:53 a -12.4 -12.4 -12.4 --- --- 9.6 NE 0.16 13.0 -20.3 --- --- 731.1 0.021 0.000 9.4 6 1
02/23/06 9:54 a -12.4 -12.3 -12.4 --- --- 12.2 NE 0.20 14.8 -21.3 --- --- 731.0 0.021 0.000 9.4 6 1
02/23/06 9:55 a -12.4 -12.4 -12.4 --- --- 10.4 NE 0.17 12.2 -20.7 --- --- 731.1 0.021 0.000 9.4 6 1
02/23/06 9:56 a -12.3 -12.3 -12.4 --- --- 10.4 NE 0.17 11.3 -20.6 --- --- 731.0 0.021 0.000 9.4 6 1
02/23/06 9:57 a -12.3 -12.3 -12.3 --- --- 11.3 NE 0.19 12.2 -20.9 --- --- 730.9 0.021 0.000 9.4 6 1
02/23/06 9:58 a -12.3 -12.3 -12.4 --- --- 13.0 NE 0.22 14.8 -21.5 --- --- 731.1 0.021 0.000 9.4 6 1
02/23/06 9:59 a -12.3 -12.3 -12.4 --- --- 12.2 NE 0.20 15.7 -21.2 --- --- 731.0 0.021 0.000 9.4 6 1
02/23/06 10:00 a -12.3 -12.3 -12.3 --- --- 12.2 NE 0.20 13.9 -21.2 --- --- 731.0 0.021 0.000 9.4 6 1
02/23/06 10:01 a -12.3 -12.3 -12.3 --- --- 12.2 NE 0.20 13.9 -21.2 --- --- 730.9 0.021 0.000 9.4 6 1
02/23/06 10:02 a -12.3 -12.3 -12.3 --- --- 12.2 NE 0.20 15.7 -21.2 --- --- 731.0 0.021 0.000 9.4 6 1
02/23/06 10:03 a -12.3 -12.3 -12.3 --- --- 12.2 NE 0.20 14.8 -21.2 --- --- 730.9 0.021 0.000 9.4 6 1
02/23/06 10:04 a -12.3 -12.3 -12.3 --- --- 12.2 NE 0.20 13.9 -21.2 --- --- 731.0 0.021 0.000 9.4 6 1
02/23/06 10:05 a -12.3 -12.3 -12.3 --- --- 11.3 NE 0.19 13.0 -20.9 --- --- 731.0 0.021 0.000 9.4 6 1
02/23/06 10:06 a -12.3 -12.3 -12.3 --- --- 11.3 NE 0.19 12.2 -20.9 --- --- 731.1 0.021 0.000 9.4 6 1
02/23/06 10:07 a -12.3 -12.3 -12.3 --- --- 11.3 NE 0.19 13.0 -20.9 --- --- 731.0 0.021 0.000 9.4 6 1
02/23/06 10:08 a -12.3 -12.3 -12.3 --- --- 12.2 ENE 0.20 13.9 -21.2 --- --- 731.0 0.021 0.000 9.4 6 1
02/23/06 10:09 a -12.3 -12.3 -12.4 --- --- 12.2 ENE 0.20 13.9 -21.2 --- --- 731.0 0.021 0.000 9.4 6 1
02/23/06 10:10 a -12.4 -12.4 -12.4 --- --- 13.0 ENE 0.22 13.9 -21.6 --- --- 730.9 0.021 0.000 9.4 6 1
02/23/06 10:11 a -12.5 -12.5 -12.5 --- --- 12.2 ENE 0.20 13.0 -21.4 --- --- 731.0 0.021 0.000 9.4 6 1
02/23/06 10:12 a -12.6 -12.6 -12.6 --- --- 13.0 ENE 0.22 15.7 -21.8 --- --- 731.0 0.021 0.000 9.4 6 1
02/23/06 10:13 a -12.6 -12.6 -12.6 --- --- 12.2 NE 0.20 13.9 -21.6 --- --- 731.0 0.021 0.000 9.4 6 1
02/23/06 10:14 a -12.6 -12.6 -12.6 --- --- 13.0 NE 0.22 15.7 -21.9 --- --- 731.0 0.021 0.000 9.4 6 1
02/23/06 10:15 a -12.6 -12.6 -12.7 --- --- 13.0 NE 0.22 14.8 -21.9 --- --- 731.0 0.021 0.000 9.4 6 1
02/23/06 10:16 a -12.7 -12.6 -12.7 --- --- 13.0 ENE 0.22 14.8 -21.9 --- --- 731.0 0.022 0.000 9.4 6 1
02/23/06 10:17 a -12.7 -12.7 -12.7 --- --- 13.0 ENE 0.22 14.8 -21.9 --- --- 731.0 0.022 0.000 9.4 6 1
02/23/06 10:18 a -12.8 -12.7 -12.8 --- --- 13.9 ENE 0.23 14.8 -22.4 --- --- 731.0 0.022 0.000 9.4 6 1
02/23/06 10:19 a -12.8 -12.7 -12.8 --- --- 13.9 ENE 0.23 14.8 -22.4 --- --- 731.0 0.022 0.000 9.4 6 1
02/23/06 10:20 a -12.8 -12.8 -12.8 --- --- 13.9 ENE 0.23 14.8 -22.4 --- --- 731.0 0.022 0.000 9.4 6 1
02/23/06 10:21 a -12.8 -12.8 -12.8 --- --- 13.0 ENE 0.22 14.8 -22.1 --- --- 731.0 0.022 0.000 9.4 6 1
02/23/06 10:22 a -12.8 -12.8 -12.8 --- --- 13.0 ENE 0.22 14.8 -22.1 --- --- 731.0 0.022 0.000 9.4 6 1
02/23/06 10:23 a -12.8 -12.8 -12.8 --- --- 13.0 NE 0.22 14.8 -22.1 --- --- 731.0 0.022 0.000 9.4 6 1
02/23/06 10:24 a -12.8 -12.8 -12.8 --- --- 13.0 NE 0.22 13.9 -22.2 --- --- 731.1 0.022 0.000 9.4 6 1
02/23/06 10:25 a -12.8 -12.8 -12.8 --- --- 13.0 NE 0.22 13.9 -22.2 --- --- 731.0 0.022 0.000 9.4 6 1
02/23/06 10:26 a -12.8 -12.8 -12.8 --- --- 12.2 NE 0.20 13.9 -21.9 --- --- 731.1 0.022 0.000 9.4 6 1
02/23/06 10:27 a -12.8 -12.8 -12.9 --- --- 13.0 NE 0.22 13.9 -22.2 --- --- 731.1 0.022 0.000 9.4 6 1
02/23/06 10:28 a -12.9 -12.9 -12.9 --- --- 12.2 NE 0.20 13.9 -21.9 --- --- 731.1 0.022 0.000 9.4 6 1
02/23/06 10:29 a -12.9 -12.9 -12.9 --- --- 12.2 NE 0.20 13.9 -22.0 --- --- 731.0 0.022 0.000 9.4 6 1
02/23/06 10:30 a -12.9 -12.9 -13.0 --- --- 12.2 NE 0.20 13.9 -22.0 --- --- 730.9 0.022 0.000 9.4 6 1
02/23/06 10:31 a -12.9 -12.9 -12.9 --- --- 13.9 NE 0.23 14.8 -22.5 --- --- 731.0 0.022 0.000 9.4 6 1
02/23/06 10:32 a -12.9 -12.8 -12.9 --- --- 13.0 NE 0.22 14.8 -22.2 --- --- 731.0 0.022 0.000 9.4 6 1
02/23/06 10:33 a -12.8 -12.8 -12.8 --- --- 13.9 NE 0.23 14.8 -22.4 --- --- 731.0 0.022 0.000 9.4 6 1
02/23/06 10:34 a -12.8 -12.8 -12.8 --- --- 13.0 NE 0.22 13.9 -22.2 --- --- 731.0 0.022 0.000 9.4 6 1
02/23/06 10:35 a -12.8 -12.8 -12.8 --- --- 13.0 NE 0.22 13.9 -22.2 --- --- 731.1 0.022 0.000 9.4 6 1
02/23/06 10:36 a -12.8 -12.8 -12.8 --- --- 13.0 NE 0.22 14.8 -22.2 --- --- 731.1 0.022 0.000 9.4 6 1
02/23/06 10:37 a -12.8 -12.8 -12.8 --- --- 13.9 NE 0.23 14.8 -22.4 --- --- 731.0 0.022 0.000 9.4 6 1
02/23/06 10:38 a -12.8 -12.8 -12.8 --- --- 13.9 NE 0.23 14.8 -22.4 --- --- 731.0 0.022 0.000 9.4 6 1
02/23/06 10:39 a -12.8 -12.8 -12.9 --- --- 13.0 NE 0.22 14.8 -22.2 --- --- 731.0 0.022 0.000 9.4 6 1
02/23/06 10:40 a -12.8 -12.8 -12.8 --- --- 13.0 NE 0.22 14.8 -22.2 --- --- 731.0 0.022 0.000 9.4 6 1
02/23/06 10:41 a -12.8 -12.8 -12.8 --- --- 12.2 NE 0.20 14.8 -21.8 --- --- 731.0 0.022 0.000 9.4 6 1
02/23/06 10:42 a -12.8 -12.8 -12.8 --- --- 12.2 NE 0.20 14.8 -21.9 --- --- 731.1 0.022 0.000 9.4 5 1
02/23/06 10:43 a -12.8 -12.8 -12.8 --- --- 13.0 NE 0.22 14.8 -22.2 --- --- 731.1 0.022 0.000 9.4 6 1
02/23/06 10:44 a -12.8 -12.8 -12.8 --- --- 11.3 NE 0.19 13.9 -21.6 --- --- 731.1 0.022 0.000 9.4 5 1
02/23/06 10:45 a -12.8 -12.8 -12.8 --- --- 12.2 NE 0.20 13.0 -21.9 --- --- 731.1 0.022 0.000 9.4 6 1
02/23/06 10:46 a -12.8 -12.8 -12.8 --- --- 11.3 NE 0.19 13.0 -21.6 --- --- 731.0 0.022 0.000 9.4 6 1
02/23/06 10:47 a -12.8 -12.8 -12.8 --- --- 11.3 NE 0.19 13.9 -21.6 --- --- 731.0 0.022 0.000 9.4 5 1
02/23/06 10:48 a -12.8 -12.8 -12.8 --- --- 11.3 NE 0.19 12.2 -21.6 --- --- 731.1 0.022 0.000 9.4 6 1
02/23/06 10:49 a -12.8 -12.8 -12.8 --- --- 10.4 NE 0.17 12.2 -21.2 --- --- 731.2 0.022 0.000 9.4 6 1
02/23/06 10:50 a -12.8 -12.8 -12.8 --- --- 10.4 NE 0.17 12.2 -21.2 --- --- 731.1 0.022 0.000 9.4 6 1
02/23/06 10:51 a -12.8 -12.8 -12.8 --- --- 11.3 NE 0.19 12.2 -21.5 --- --- 731.1 0.022 0.000 9.4 6 1
02/23/06 10:52 a -12.8 -12.7 -12.8 --- --- 11.3 NNE 0.19 13.0 -21.5 --- --- 731.0 0.022 0.000 9.4 6 1
02/23/06 10:53 a -12.7 -12.7 -12.7 --- --- 11.3 NE 0.19 13.0 -21.3 --- --- 731.2 0.022 0.000 9.4 6 1
02/23/06 10:54 a -12.6 -12.6 -12.7 --- --- 11.3 NE 0.19 12.2 -21.3 --- --- 731.1 0.021 0.000 9.4 6 1
02/23/06 10:55 a -12.7 -12.6 -12.7 --- --- 11.3 NNE 0.19 12.2 -21.3 --- --- 731.2 0.022 0.000 9.4 5 1
02/23/06 10:56 a -12.6 -12.6 -12.7 --- --- 10.4 NE 0.17 13.9 -20.9 --- --- 731.1 0.021 0.000 9.4 6 1
02/23/06 10:57 a -12.6 -12.6 -12.6 --- --- 9.6 NNE 0.16 13.0 -20.6 --- --- 731.2 0.021 0.000 9.4 5 1
02/23/06 10:58 a -12.5 -12.5 -12.6 --- --- 9.6 NNE 0.16 12.2 -20.4 --- --- 731.2 0.021 0.000 9.4 6 1
02/23/06 10:59 a -12.5 -12.4 -12.6 --- --- 10.4 NNE 0.17 13.0 -20.8 --- --- 731.1 0.021 0.000 9.4 5 1
02/23/06 11:00 a -12.6 -12.6 -12.6 --- --- 8.7 NNE 0.14 10.4 -20.1 --- --- 731.2 0.021 0.000 9.4 6 1
02/23/06 11:01 a -12.5 -12.5 -12.5 --- --- 7.8 NNE 0.13 9.6 -19.6 --- --- 731.1 0.021 0.000 9.5 6 1
02/23/06 11:02 a -12.5 -12.5 -12.5 --- --- 9.6 NE 0.16 11.3 -20.4 --- --- 731.1 0.021 0.000 9.4 6 1
02/23/06 11:03 a -12.5 -12.5 -12.6 --- --- 10.4 NE 0.17 11.3 -20.8 --- --- 731.1 0.021 0.000 9.4 5 1
02/23/06 11:04 a -12.6 -12.6 -12.6 --- --- 10.4 NE 0.17 12.2 -20.9 --- --- 731.1 0.021 0.000 9.4 6 1
02/23/06 11:05 a -12.6 -12.6 -12.7 --- --- 10.4 NE 0.17 11.3 -20.9 --- --- 731.1 0.021 0.000 9.5 6 1
02/23/06 11:06 a -12.7 -12.7 -12.7 --- --- 10.4 NE 0.17 13.0 -21.0 --- --- 731.1 0.022 0.000 9.5 6 1
02/23/06 11:07 a -12.7 -12.7 -12.7 --- --- 9.6 NE 0.16 12.2 -20.7 --- --- 731.1 0.022 0.000 9.5 5 1
02/23/06 11:08 a -12.7 -12.7 -12.8 --- --- 9.6 NE 0.16 11.3 -20.7 --- --- 731.1 0.022 0.000 9.5 5 1
02/23/06 11:09 a -12.7 -12.7 -12.8 --- --- 9.6 NE 0.16 11.3 -20.7 --- --- 731.1 0.022 0.000 9.4 5 1
02/23/06 11:10 a -12.8 -12.7 -12.8 --- --- 10.4 NE 0.17 12.2 -21.1 --- --- 731.1 0.022 0.000 9.4 5 1
02/23/06 11:11 a -12.8 -12.7 -12.8 --- --- 9.6 NE 0.16 11.3 -20.8 --- --- 731.2 0.022 0.000 9.4 5 1
02/23/06 11:12 a -12.8 -12.7 -12.8 --- --- 9.6 NE 0.16 11.3 -20.8 --- --- 731.2 0.022 0.000 9.4 6 1
02/23/06 11:13 a -12.8 -12.8 -12.8 --- --- 9.6 NE 0.16 12.2 -20.8 --- --- 731.1 0.022 0.000 9.4 6 1
02/23/06 11:14 a -12.8 -12.8 -12.8 --- --- 8.7 NE 0.14 10.4 -20.4 --- --- 731.2 0.022 0.000 9.4 6 1
02/23/06 11:15 a -12.8 -12.8 -12.8 --- --- 8.7 NE 0.14 12.2 -20.4 --- --- 731.1 0.022 0.000 9.4 6 1
02/23/06 11:16 a -12.8 -12.8 -12.8 --- --- 9.6 NE 0.16 12.2 -20.8 --- --- 731.1 0.022 0.000 9.4 5 1
02/23/06 11:17 a -12.8 -12.8 -12.8 --- --- 8.7 NE 0.14 12.2 -20.4 --- --- 731.1 0.022 0.000 9.4 6 1
02/23/06 11:18 a -12.8 -12.8 -12.8 --- --- 8.7 NE 0.14 11.3 -20.4 --- --- 731.1 0.022 0.000 9.4 5 1
02/23/06 11:19 a -12.8 -12.8 -12.8 --- --- 9.6 ENE 0.16 12.2 -20.8 --- --- 731.1 0.022 0.000 9.5 6 1
02/23/06 11:20 a -12.8 -12.7 -12.8 --- --- 10.4 ENE 0.17 12.2 -21.1 --- --- 731.1 0.022 0.000 9.4 6 1
02/23/06 11:21 a -12.8 -12.7 -12.8 --- --- 11.3 NE 0.19 13.0 -21.5 --- --- 731.1 0.022 0.000 9.5 6 1
02/23/06 11:22 a -12.8 -12.7 -12.8 --- --- 11.3 NE 0.19 12.2 -21.5 --- --- 731.1 0.022 0.000 9.4 6 1
02/23/06 11:23 a -12.8 -12.7 -12.8 --- --- 13.0 ENE 0.22 15.7 -22.1 --- --- 731.0 0.022 0.000 9.4 6 1
02/23/06 11:24 a -12.8 -12.7 -12.8 --- --- 12.2 ENE 0.20 13.0 -21.8 --- --- 731.1 0.022 0.000 9.5 6 1
02/23/06 11:25 a -12.7 -12.7 -12.8 --- --- 12.2 ENE 0.20 14.8 -21.7 --- --- 731.0 0.022 0.000 9.5 6 1
02/23/06 11:26 a -12.8 -12.8 -12.8 --- --- 13.0 ENE 0.22 14.8 -22.1 --- --- 731.1 0.022 0.000 9.5 6 1
02/23/06 11:27 a -12.8 -12.8 -12.8 --- --- 13.0 ENE 0.22 13.9 -22.1 --- --- 731.1 0.022 0.000 9.4 5 1
02/23/06 11:28 a -12.8 -12.8 -12.8 --- --- 13.0 ENE 0.22 13.9 -22.1 --- --- 731.1 0.022 0.000 9.4 5 1
02/23/06 11:29 a -12.8 -12.8 -12.8 --- --- 12.2 ENE 0.20 13.9 -21.9 --- --- 731.0 0.022 0.000 9.4 5 1
02/23/06 11:30 a -12.8 -12.8 -12.8 --- --- 11.3 ENE 0.19 13.9 -21.6 --- --- 731.1 0.022 0.000 9.4 6 1
02/23/06 11:31 a -12.8 -12.8 -12.8 --- --- 12.2 ENE 0.20 14.8 -21.9 --- --- 731.1 0.022 0.000 9.4 6 1
02/23/06 11:32 a -12.8 -12.8 -12.8 --- --- 12.2 ENE 0.20 13.9 -21.9 --- --- 731.1 0.022 0.000 9.4 5 1
02/23/06 11:33 a -12.8 -12.8 -12.9 --- --- 11.3 ENE 0.19 13.0 -21.6 --- --- 731.1 0.022 0.000 9.4 5 1
02/23/06 11:34 a -12.8 -12.8 -12.9 --- --- 10.4 ENE 0.17 12.2 -21.2 --- --- 731.1 0.022 0.000 9.4 6 1
02/23/06 11:35 a -12.8 -12.8 -12.9 --- --- 10.4 NE 0.17 12.2 -21.2 --- --- 731.1 0.022 0.000 9.4 6 1
02/23/06 11:36 a -12.8 -12.8 -12.9 --- --- 10.4 NE 0.17 12.2 -21.2 --- --- 731.2 0.022 0.000 9.4 6 1
02/23/06 11:37 a -12.9 -12.8 -12.9 --- --- 9.6 NE 0.16 11.3 -20.9 --- --- 731.1 0.022 0.000 9.4 5 1
02/23/06 11:38 a -12.9 -12.8 -12.9 --- --- 8.7 NNE 0.14 10.4 -20.5 --- --- 731.1 0.022 0.000 9.4 5 1
02/23/06 11:39 a -12.9 -12.9 -12.9 --- --- 8.7 NE 0.14 11.3 -20.5 --- --- 731.2 0.022 0.000 9.4 6 1
02/23/06 11:40 a -12.8 -12.8 -12.9 --- --- 10.4 NE 0.17 12.2 -21.2 --- --- 731.2 0.022 0.000 9.4 6 1
02/23/06 11:41 a -12.8 -12.8 -12.8 --- --- 8.7 NE 0.14 10.4 -20.4 --- --- 731.2 0.022 0.000 9.4 5 1
02/23/06 11:42 a -12.8 -12.7 -12.8 --- --- 10.4 NE 0.17 13.0 -21.1 --- --- 731.2 0.022 0.000 9.4 5 1
02/23/06 11:43 a -12.7 -12.7 -12.7 --- --- 9.6 NE 0.16 12.2 -20.7 --- --- 731.1 0.022 0.000 9.4 5 1
02/23/06 11:44 a -12.7 -12.7 -12.7 --- --- 10.4 NE 0.17 12.2 -21.0 --- --- 731.2 0.022 0.000 9.4 5 1
02/23/06 11:45 a -12.7 -12.7 -12.7 --- --- 10.4 NE 0.17 12.2 -21.0 --- --- 731.1 0.022 0.000 9.4 5 1
02/23/06 11:46 a -12.7 -12.6 -12.7 --- --- 9.6 NE 0.16 10.4 -20.6 --- --- 731.2 0.022 0.000 9.4 6 1
02/23/06 11:47 a -12.7 -12.7 -12.7 --- --- 10.4 NE 0.17 11.3 -21.0 --- --- 731.2 0.022 0.000 9.4 5 1
02/23/06 11:48 a -12.7 -12.7 -12.7 --- --- 7.8 NE 0.13 10.4 -19.8 --- --- 731.1 0.022 0.000 9.4 6 1
02/23/06 11:49 a -12.7 -12.7 -12.8 --- --- 10.4 ENE 0.17 12.2 -21.1 --- --- 731.1 0.022 0.000 9.4 5 1
02/23/06 11:50 a -12.7 -12.7 -12.7 --- --- 8.7 NE 0.14 10.4 -20.3 --- --- 731.2 0.022 0.000 9.4 5 1
02/23/06 11:51 a -12.8 -12.7 -12.8 --- --- 6.1 NE 0.10 9.6 -18.9 --- --- 731.2 0.022 0.000 9.4 6 1
02/23/06 11:52 a -12.7 -12.7 -12.8 --- --- 9.6 NE 0.16 10.4 -20.7 --- --- 731.2 0.022 0.000 9.4 6 1
02/23/06 11:53 a -12.7 -12.7 -12.8 --- --- 8.7 NE 0.14 10.4 -20.3 --- --- 731.1 0.022 0.000 9.4 5 1
02/23/06 11:54 a -12.7 -12.7 -12.8 --- --- 7.8 NE 0.13 10.4 -19.9 --- --- 731.2 0.022 0.000 9.4 5 1
02/23/06 11:55 a -12.7 -12.7 -12.8 --- --- 7.8 NE 0.13 10.4 -19.9 --- --- 731.2 0.022 0.000 9.4 6 1
02/23/06 11:56 a -12.8 -12.8 -12.8 --- --- 11.3 NE 0.19 12.2 -21.5 --- --- 731.2 0.022 0.000 9.4 6 1
02/23/06 11:57 a -12.7 -12.7 -12.8 --- --- 9.6 NE 0.16 12.2 -20.7 --- --- 731.1 0.022 0.000 9.4 5 1
02/23/06 11:58 a -12.7 -12.7 -12.8 --- --- 7.8 NE 0.13 9.6 -19.9 --- --- 731.1 0.022 0.000 9.4 5 1
02/23/06 11:59 a -12.7 -12.7 -12.7 --- --- 9.6 NE 0.16 13.9 -20.7 --- --- 731.2 0.022 0.000 9.4 5 1
02/23/06 12:00 p -12.7 -12.7 -12.7 --- --- 8.7 NE 0.14 11.3 -20.3 --- --- 731.2 0.022 0.000 9.4 5 1
02/23/06 12:01 p -12.8 -12.7 -12.8 --- --- 9.6 NE 0.16 11.3 -20.8 --- --- 731.2 0.022 0.000 9.4 6 1
02/23/06 12:02 p -12.8 -12.8 -12.8 --- --- 8.7 NE 0.14 10.4 -20.4 --- --- 731.1 0.022 0.000 9.4 5 1
02/23/06 12:03 p -12.8 -12.8 -12.9 --- --- 8.7 NE 0.14 10.4 -20.4 --- --- 731.2 0.022 0.000 9.4 6 1
02/23/06 12:04 p -12.8 -12.8 -12.8 --- --- 10.4 ENE 0.17 11.3 -21.2 --- --- 731.2 0.022 0.000 9.4 5 1
02/23/06 12:05 p -12.8 -12.8 -12.9 --- --- 11.3 NE 0.19 13.0 -21.6 --- --- 731.0 0.022 0.000 9.4 5 1
02/23/06 12:06 p -12.8 -12.8 -12.9 --- --- 11.3 NE 0.19 12.2 -21.6 --- --- 731.2 0.022 0.000 9.4 5 1
02/23/06 12:07 p -12.9 -12.8 -12.9 --- --- 7.8 NE 0.13 9.6 -20.1 --- --- 731.1 0.022 0.000 9.4 5 1
02/23/06 12:08 p -12.9 -12.9 -12.9 --- --- 12.2 ENE 0.20 13.9 -22.0 --- --- 731.1 0.022 0.000 9.4 5 1
02/23/06 12:09 p -12.9 -12.8 -12.9 --- --- 10.4 NE 0.17 13.0 -21.3 --- --- 731.0 0.022 0.000 9.4 6 1
02/23/06 12:10 p -12.9 -12.8 -12.9 --- --- 10.4 ENE 0.17 12.2 -21.3 --- --- 731.1 0.022 0.000 9.4 5 1
02/23/06 12:11 p -12.9 -12.8 -12.9 --- --- 12.2 ENE 0.20 13.0 -21.9 --- --- 731.1 0.022 0.000 9.4 6 1
02/23/06 12:12 p -12.8 -12.8 -12.8 --- --- 10.4 ENE 0.17 12.2 -21.2 --- --- 731.1 0.022 0.000 9.4 5 1
02/23/06 12:13 p -12.8 -12.8 -12.9 --- --- 9.6 ENE 0.16 11.3 -20.8 --- --- 731.1 0.022 0.000 9.4 5 1
02/23/06 12:14 p -12.9 -12.8 -12.9 --- --- 11.3 ENE 0.19 13.0 -21.6 --- --- 731.1 0.022 0.000 9.4 5 1
02/23/06 12:15 p -12.9 -12.9 -12.9 --- --- 9.6 ENE 0.16 12.2 -20.9 --- --- 731.1 0.022 0.000 9.4 6 1
02/23/06 12:16 p -12.9 -12.9 -12.9 --- --- 11.3 ENE 0.19 12.2 -21.6 --- --- 731.1 0.022 0.000 9.4 5 1
02/23/06 12:17 p -12.9 -12.9 -12.9 --- --- 8.7 ENE 0.14 10.4 -20.5 --- --- 731.0 0.022 0.000 9.4 5 1
02/23/06 12:18 p -12.9 -12.9 -12.9 --- --- 10.4 ENE 0.17 12.2 -21.3 --- --- 731.0 0.022 0.000 9.4 5 1
02/23/06 12:19 p -12.9 -12.8 -12.9 --- --- 10.4 ENE 0.17 11.3 -21.3 --- --- 731.1 0.022 0.000 9.4 6 1
02/23/06 12:20 p -12.8 -12.8 -12.9 --- --- 10.4 ENE 0.17 12.2 -21.2 --- --- 731.1 0.022 0.000 9.4 5 1
02/23/06 12:21 p -12.9 -12.8 -12.9 --- --- 9.6 ENE 0.16 11.3 -20.9 --- --- 731.0 0.022 0.000 9.4 6 1
02/23/06 12:22 p -12.8 -12.8 -12.8 --- --- 9.6 NE 0.16 10.4 -20.8 --- --- 731.1 0.022 0.000 9.4 5 1
02/23/06 12:23 p -12.9 -12.8 -12.9 --- --- 10.4 NE 0.17 12.2 -21.3 --- --- 731.1 0.022 0.000 9.4 6 1
02/23/06 12:24 p -12.8 -12.8 -12.8 --- --- 11.3 NE 0.19 13.0 -21.6 --- --- 731.1 0.022 0.000 9.4 6 1
02/23/06 12:25 p -12.8 -12.8 -12.8 --- --- 9.6 NE 0.16 12.2 -20.8 --- --- 731.1 0.022 0.000 9.4 5 1
02/23/06 12:26 p -12.8 -12.8 -12.8 --- --- 9.6 NE 0.16 11.3 -20.8 --- --- 731.1 0.022 0.000 9.4 5 1
02/23/06 12:27 p -12.8 -12.8 -12.8 --- --- 10.4 NE 0.17 11.3 -21.1 --- --- 731.1 0.022 0.000 9.4 5 1
02/23/06 12:28 p -12.8 -12.8 -12.8 --- --- 9.6 NE 0.16 11.3 -20.8 --- --- 731.1 0.022 0.000 9.4 5 1
02/23/06 12:29 p -12.8 -12.8 -12.8 --- --- 10.4 NE 0.17 12.2 -21.2 --- --- 731.2 0.022 0.000 9.4 5 1
02/23/06 12:30 p -12.8 -12.8 -12.8 --- --- 9.6 NE 0.16 10.4 -20.8 --- --- 731.0 0.022 0.000 9.4 5 1
02/23/06 12:31 p -12.8 -12.8 -12.8 --- --- 10.4 NE 0.17 13.0 -21.2 --- --- 731.1 0.022 0.000 9.4 5 1
02/23/06 12:32 p -12.8 -12.8 -12.8 --- --- 10.4 NE 0.17 12.2 -21.2 --- --- 731.1 0.022 0.000 9.4 5 1
02/23/06 12:33 p -12.8 -12.8 -12.8 --- --- 9.6 NE 0.16 11.3 -20.8 --- --- 731.1 0.022 0.000 9.4 5 1
02/23/06 12:34 p -12.8 -12.8 -12.8 --- --- 10.4 NE 0.17 11.3 -21.2 --- --- 731.1 0.022 0.000 9.4 5 1
02/23/06 12:35 p -12.8 -12.8 -12.8 --- --- 9.6 NE 0.16 11.3 -20.8 --- --- 731.1 0.022 0.000 9.4 5 1
02/23/06 12:36 p -12.8 -12.8 -12.8 --- --- 9.6 NE 0.16 11.3 -20.8 --- --- 731.2 0.022 0.000 9.4 5 1
02/23/06 12:37 p -12.9 -12.8 -12.9 --- --- 7.8 NE 0.13 9.6 -20.1 --- --- 731.1 0.022 0.000 9.4 5 1
02/23/06 12:38 p -12.9 -12.9 -13.0 --- --- 8.7 NE 0.14 9.6 -20.6 --- --- 731.1 0.022 0.000 9.4 5 1
02/23/06 12:39 p -12.9 -12.9 -13.1 --- --- 8.7 NE 0.14 9.6 -20.6 --- --- 731.0 0.022 0.000 9.4 5 1
02/23/06 12:40 p -13.0 -12.9 -13.1 --- --- 9.6 NE 0.16 11.3 -21.1 --- --- 731.1 0.022 0.000 9.4 5 1
02/23/06 12:41 p -13.0 -13.0 -13.1 --- --- 8.7 NE 0.14 10.4 -20.7 --- --- 731.1 0.022 0.000 9.4 6 1
02/23/06 12:42 p -13.0 -12.9 -13.1 --- --- 10.4 NE 0.17 12.2 -21.4 --- --- 731.1 0.022 0.000 9.4 5 1
02/23/06 12:43 p -13.1 -13.0 -13.1 --- --- 8.7 NE 0.14 10.4 -20.7 --- --- 731.1 0.022 0.000 9.4 5 1
02/23/06 12:44 p -13.0 -12.9 -13.1 --- --- 10.4 NE 0.17 12.2 -21.4 --- --- 731.1 0.022 0.000 9.4 5 1
02/23/06 12:45 p -13.1 -13.0 -13.1 --- --- 9.6 NE 0.16 11.3 -21.1 --- --- 731.1 0.022 0.000 9.4 5 1
02/23/06 12:46 p -13.1 -13.0 -13.1 --- --- 10.4 NE 0.17 11.3 -21.5 --- --- 731.0 0.022 0.000 9.4 6 1
02/23/06 12:47 p -13.1 -13.0 -13.1 --- --- 9.6 ENE 0.16 11.3 -21.1 --- --- 731.0 0.022 0.000 9.4 6 1
02/23/06 12:48 p -13.1 -13.1 -13.1 --- --- 9.6 NE 0.16 10.4 -21.1 --- --- 731.1 0.022 0.000 9.4 5 1
02/23/06 12:49 p -13.1 -13.1 -13.2 --- --- 8.7 NE 0.14 10.4 -20.8 --- --- 731.1 0.022 0.000 9.4 5 1
02/23/06 12:50 p -13.2 -13.2 -13.2 --- --- 7.8 NE 0.13 8.7 -20.5 --- --- 731.2 0.022 0.000 9.4 5 1
02/23/06 12:51 p -13.2 -13.2 -13.3 --- --- 8.7 NE 0.14 9.6 -20.9 --- --- 731.1 0.022 0.000 9.4 5 1
02/23/06 12:52 p -13.2 -13.2 -13.3 --- --- 8.7 NE 0.14 9.6 -20.9 --- --- 731.0 0.022 0.000 9.4 5 1
02/23/06 12:53 p -13.2 -13.2 -13.2 --- --- 8.7 NE 0.14 12.2 -20.9 --- --- 731.0 0.022 0.000 9.4 6 1
02/23/06 12:54 p -13.3 -13.2 -13.3 --- --- 10.4 ENE 0.17 12.2 -21.8 --- --- 731.0 0.022 0.000 9.4 5 1
02/23/06 12:55 p -13.3 -13.3 -13.3 --- --- 9.6 ENE 0.16 13.0 -21.4 --- --- 731.0 0.022 0.000 9.4 5 1
02/23/06 12:56 p -13.4 -13.3 -13.4 --- --- 10.4 ENE 0.17 12.2 -21.9 --- --- 731.0 0.022 0.000 9.4 5 1
02/23/06 12:57 p -13.4 -13.4 -13.4 --- --- 10.4 ENE 0.17 12.2 -21.9 --- --- 731.0 0.022 0.000 9.4 5 1
02/23/06 12:58 p -13.4 -13.4 -13.4 --- --- 11.3 ENE 0.19 13.0 -22.2 --- --- 731.1 0.022 0.000 9.4 5 1
02/23/06 12:59 p -13.4 -13.4 -13.4 --- --- 12.2 ENE 0.20 13.0 -22.6 --- --- 731.0 0.022 0.000 9.4 5 1
02/23/06 1:00 p -13.4 -13.4 -13.4 --- --- 10.4 ENE 0.17 11.3 -22.0 --- --- 731.1 0.022 0.000 9.4 6 1
02/23/06 1:01 p -13.4 -13.4 -13.4 --- --- 11.3 ENE 0.19 12.2 -22.2 --- --- 731.0 0.022 0.000 9.4 5 1
02/23/06 1:02 p -13.4 -13.4 -13.4 --- --- 9.6 ENE 0.16 12.2 -21.6 --- --- 730.9 0.022 0.000 9.4 5 1
02/23/06 1:03 p -13.4 -13.4 -13.5 --- --- 11.3 ENE 0.19 12.2 -22.3 --- --- 731.1 0.022 0.000 9.4 5 1
02/23/06 1:04 p -13.5 -13.4 -13.5 --- --- 9.6 ENE 0.16 10.4 -21.7 --- --- 731.0 0.022 0.000 9.4 6 1
02/23/06 1:05 p -13.5 -13.5 -13.5 --- --- 10.4 ENE 0.17 13.0 -22.1 --- --- 731.0 0.022 0.000 9.4 6 1
02/23/06 1:06 p -13.6 -13.6 -13.6 --- --- 11.3 ENE 0.19 12.2 -22.4 --- --- 731.0 0.022 0.000 9.4 5 1
02/23/06 1:07 p -13.6 -13.5 -13.6 --- --- 11.3 ENE 0.19 12.2 -22.4 --- --- 731.0 0.022 0.000 9.4 5 1
02/23/06 1:08 p -13.6 -13.6 -13.6 --- --- 9.6 ENE 0.16 10.4 -21.7 --- --- 731.0 0.022 0.000 9.4 5 1
02/23/06 1:09 p -13.6 -13.5 -13.6 --- --- 11.3 NE 0.19 13.0 -22.4 --- --- 730.9 0.022 0.000 9.4 5 1
02/23/06 1:10 p -13.4 -13.4 -13.5 --- --- 12.2 NE 0.20 13.0 -22.7 --- --- 731.0 0.022 0.000 9.4 5 1
02/23/06 1:11 p -13.4 -13.4 -13.4 --- --- 11.3 NE 0.19 12.2 -22.3 --- --- 731.0 0.022 0.000 9.4 5 1
02/23/06 1:12 p -13.4 -13.4 -13.4 --- --- 12.2 NE 0.20 13.0 -22.7 --- --- 730.9 0.022 0.000 9.4 5 1
02/23/06 1:13 p -13.4 -13.4 -13.4 --- --- 12.2 NE 0.20 13.0 -22.7 --- --- 730.9 0.022 0.000 9.4 5 1
02/23/06 1:14 p -13.4 -13.4 -13.4 --- --- 11.3 NE 0.19 12.2 -22.3 --- --- 731.0 0.022 0.000 9.4 5 1
02/23/06 1:15 p -13.4 -13.4 -13.5 --- --- 11.3 NE 0.19 12.2 -22.3 --- --- 730.9 0.022 0.000 9.4 5 1
02/23/06 1:16 p -13.4 -13.4 -13.4 --- --- 11.3 NE 0.19 13.0 -22.3 --- --- 731.0 0.022 0.000 9.4 5 1
02/23/06 1:17 p -13.4 -13.4 -13.4 --- --- 12.2 NE 0.20 13.0 -22.6 --- --- 730.9 0.022 0.000 9.4 6 1
02/23/06 1:18 p -13.4 -13.3 -13.4 --- --- 12.2 NE 0.20 13.0 -22.6 --- --- 730.9 0.022 0.000 9.4 5 1
02/23/06 1:19 p -13.3 -13.3 -13.3 --- --- 12.2 NE 0.20 13.0 -22.4 --- --- 731.0 0.022 0.000 9.4 5 1
02/23/06 1:20 p -13.2 -13.2 -13.3 --- --- 13.0 NE 0.22 13.9 -22.7 --- --- 730.9 0.022 0.000 9.4 5 1
02/23/06 1:21 p -13.1 -13.1 -13.1 --- --- 13.0 NE 0.22 13.9 -22.5 --- --- 730.9 0.022 0.000 9.4 5 1
02/23/06 1:22 p -13.1 -13.0 -13.1 --- --- 12.2 NE 0.20 13.0 -22.2 --- --- 730.9 0.022 0.000 9.4 5 1
02/23/06 1:23 p -13.0 -12.9 -13.1 --- --- 12.2 NE 0.20 13.0 -22.1 --- --- 731.0 0.022 0.000 9.4 5 1
02/23/06 1:24 p -12.9 -12.9 -12.9 --- --- 12.2 NE 0.20 13.0 -22.0 --- --- 730.9 0.022 0.000 9.4 5 1
02/23/06 1:25 p -12.9 -12.9 -13.0 --- --- 11.3 NE 0.19 13.0 -21.7 --- --- 730.9 0.022 0.000 9.4 5 1
02/23/06 1:26 p -12.9 -12.9 -12.9 --- --- 12.2 NE 0.20 13.0 -21.9 --- --- 730.9 0.022 0.000 9.4 5 1
02/23/06 1:27 p -12.9 -12.9 -12.9 --- --- 12.2 NE 0.20 13.0 -21.9 --- --- 730.9 0.022 0.000 9.4 5 1
02/23/06 1:28 p -12.9 -12.9 -12.9 --- --- 12.2 NE 0.20 13.0 -21.9 --- --- 730.9 0.022 0.000 9.4 5 1
02/23/06 1:29 p -12.9 -12.9 -12.9 --- --- 11.3 NE 0.19 12.2 -21.6 --- --- 730.9 0.022 0.000 9.4 5 1
02/23/06 1:30 p -12.8 -12.8 -12.9 --- --- 11.3 NE 0.19 12.2 -21.6 --- --- 730.9 0.022 0.000 9.4 5 1
02/23/06 1:31 p -12.9 -12.9 -12.9 --- --- 11.3 NE 0.19 12.2 -21.6 --- --- 730.9 0.022 0.000 9.4 5 1
02/23/06 1:32 p -12.8 -12.8 -12.8 --- --- 11.3 NE 0.19 12.2 -21.6 --- --- 730.9 0.022 0.000 9.4 5 1
02/23/06 1:33 p -12.7 -12.7 -12.8 --- --- 12.2 NE 0.20 13.0 -21.7 --- --- 730.9 0.022 0.000 9.4 5 1
02/23/06 1:34 p -12.7 -12.6 -12.7 --- --- 11.3 NE 0.19 13.0 -21.3 --- --- 730.8 0.022 0.000 9.4 5 1
02/23/06 1:35 p -12.6 -12.6 -12.6 --- --- 12.2 NE 0.20 13.0 -21.6 --- --- 730.8 0.021 0.000 9.5 5 1
02/23/06 1:36 p -12.6 -12.5 -12.6 --- --- 11.3 NE 0.19 12.2 -21.2 --- --- 730.9 0.021 0.000 9.5 5 1
02/23/06 1:37 p -12.6 -12.6 -12.6 --- --- 12.2 NE 0.20 13.9 -21.5 --- --- 730.8 0.021 0.000 9.5 5 1
02/23/06 1:38 p -12.6 -12.6 -12.6 --- --- 10.4 NE 0.17 12.2 -20.9 --- --- 730.9 0.021 0.000 9.5 5 1
02/23/06 1:39 p -12.6 -12.6 -12.7 --- --- 11.3 NE 0.19 12.2 -21.3 --- --- 730.9 0.021 0.000 9.5 5 1
02/23/06 1:40 p -12.7 -12.7 -12.7 --- --- 11.3 NE 0.19 12.2 -21.3 --- --- 730.9 0.022 0.000 9.5 5 1
02/23/06 1:41 p -12.7 -12.6 -12.7 --- --- 11.3 NE 0.19 12.2 -21.3 --- --- 730.8 0.022 0.000 9.5 5 1
02/23/06 1:42 p -12.6 -12.6 -12.6 --- --- 11.3 NE 0.19 12.2 -21.3 --- --- 730.9 0.021 0.000 9.5 5 1
02/23/06 1:43 p -12.6 -12.6 -12.6 --- --- 10.4 NE 0.17 12.2 -20.9 --- --- 730.8 0.021 0.000 9.5 5 1
02/23/06 1:44 p -12.6 -12.6 -12.7 --- --- 11.3 NE 0.19 12.2 -21.3 --- --- 731.0 0.021 0.000 9.5 5 1
02/23/06 1:45 p -12.7 -12.6 -12.7 --- --- 11.3 NE 0.19 12.2 -21.3 --- --- 730.9 0.022 0.000 9.5 5 1
02/23/06 1:46 p -12.7 -12.6 -12.7 --- --- 11.3 NE 0.19 12.2 -21.3 --- --- 730.8 0.022 0.000 9.5 5 1
02/23/06 1:47 p -12.6 -12.6 -12.7 --- --- 11.3 NE 0.19 12.2 -21.3 --- --- 730.8 0.021 0.000 9.5 5 1
02/23/06 1:48 p -12.6 -12.6 -12.6 --- --- 11.3 NE 0.19 12.2 -21.3 --- --- 730.8 0.021 0.000 9.5 5 1
02/23/06 1:49 p -12.6 -12.6 -12.6 --- --- 11.3 NE 0.19 11.3 -21.3 --- --- 730.8 0.021 0.000 9.5 5 1
02/23/06 1:50 p -12.6 -12.6 -12.6 --- --- 11.3 NE 0.19 12.2 -21.2 --- --- 730.8 0.021 0.000 9.5 5 1
02/23/06 1:51 p -12.6 -12.6 -12.6 --- --- 11.3 NE 0.19 12.2 -21.2 --- --- 730.8 0.021 0.000 9.5 5 1
02/23/06 1:52 p -12.6 -12.5 -12.6 --- --- 11.3 NE 0.19 12.2 -21.2 --- --- 730.8 0.021 0.000 9.5 5 1
02/23/06 1:53 p -12.6 -12.5 -12.6 --- --- 11.3 NE 0.19 12.2 -21.2 --- --- 730.8 0.021 0.000 9.5 5 1
02/23/06 1:54 p -12.5 -12.5 -12.5 --- --- 11.3 ENE 0.19 12.2 -21.1 --- --- 730.8 0.021 0.000 9.5 5 1
02/23/06 1:55 p -12.4 -12.4 -12.5 --- --- 11.3 ENE 0.19 12.2 -21.1 --- --- 730.9 0.021 0.000 9.5 5 1
02/23/06 1:56 p -12.4 -12.4 -12.4 --- --- 11.3 ENE 0.19 12.2 -21.1 --- --- 730.9 0.021 0.000 9.5 5 1
02/23/06 1:57 p -12.4 -12.4 -12.4 --- --- 11.3 ENE 0.19 13.0 -21.1 --- --- 730.8 0.021 0.000 9.5 5 1
02/23/06 1:58 p -12.4 -12.4 -12.5 --- --- 11.3 ENE 0.19 12.2 -21.1 --- --- 730.8 0.021 0.000 9.5 5 1
02/23/06 1:59 p -12.6 -12.5 -12.6 --- --- 11.3 ENE 0.19 12.2 -21.2 --- --- 730.9 0.021 0.000 9.5 5 1
02/23/06 2:00 p -12.6 -12.6 -12.7 --- --- 10.4 ENE 0.17 11.3 -20.9 --- --- 730.9 0.021 0.000 9.5 5 1
02/23/06 2:01 p -12.7 -12.7 -12.8 --- --- 9.6 ENE 0.16 11.3 -20.7 --- --- 730.8 0.022 0.000 9.5 5 1
02/23/06 2:02 p -12.8 -12.8 -12.8 --- --- 11.3 ENE 0.19 12.2 -21.5 --- --- 730.8 0.022 0.000 9.5 5 1
02/23/06 2:03 p -12.8 -12.8 -12.8 --- --- 12.2 ENE 0.20 13.0 -21.9 --- --- 730.8 0.022 0.000 9.5 5 1
02/23/06 2:04 p -12.8 -12.8 -12.9 --- --- 12.2 NE 0.20 13.0 -21.9 --- --- 730.7 0.022 0.000 9.5 5 1
02/23/06 2:05 p -12.8 -12.8 -12.9 --- --- 13.0 NE 0.22 13.9 -22.2 --- --- 730.8 0.022 0.000 9.5 5 1
02/23/06 2:06 p -12.8 -12.7 -12.8 --- --- 12.2 NE 0.20 13.0 -21.8 --- --- 730.9 0.022 0.000 9.5 5 1
02/23/06 2:07 p -12.7 -12.7 -12.8 --- --- 11.3 NE 0.19 13.0 -21.4 --- --- 730.9 0.022 0.000 9.5 5 1
02/23/06 2:08 p -12.7 -12.7 -12.7 --- --- 11.3 NE 0.19 12.2 -21.4 --- --- 730.8 0.022 0.000 9.5 5 1
02/23/06 2:09 p -12.7 -12.7 -12.8 --- --- 11.3 NE 0.19 13.0 -21.4 --- --- 730.8 0.022 0.000 9.5 5 1
02/23/06 2:10 p -12.7 -12.7 -12.8 --- --- 12.2 NE 0.20 13.0 -21.7 --- --- 730.8 0.022 0.000 9.5 5 1
02/23/06 2:11 p -12.7 -12.7 -12.7 --- --- 12.2 NE 0.20 13.0 -21.7 --- --- 730.7 0.022 0.000 9.5 5 1
02/23/06 2:12 p -12.7 -12.7 -12.7 --- --- 12.2 NE 0.20 13.9 -21.7 --- --- 730.8 0.022 0.000 9.5 5 1
02/23/06 2:13 p -12.7 -12.6 -12.7 --- --- 12.2 NE 0.20 13.9 -21.7 --- --- 730.8 0.022 0.000 9.5 5 1
02/23/06 2:14 p -12.7 -12.6 -12.7 --- --- 11.3 NE 0.19 12.2 -21.3 --- --- 730.8 0.022 0.000 9.5 5 1
02/23/06 2:15 p -12.7 -12.7 -12.7 --- --- 11.3 NE 0.19 13.0 -21.3 --- --- 730.8 0.022 0.000 9.5 5 1
02/23/06 2:16 p -12.7 -12.6 -12.7 --- --- 10.4 NE 0.17 11.3 -21.0 --- --- 730.8 0.022 0.000 9.5 5 1
02/23/06 2:17 p -12.7 -12.7 -12.7 --- --- 9.6 NE 0.16 10.4 -20.6 --- --- 730.7 0.022 0.000 9.5 5 1
02/23/06 2:18 p -12.7 -12.7 -12.7 --- --- 11.3 NE 0.19 13.0 -21.4 --- --- 730.7 0.022 0.000 9.4 5 1
02/23/06 2:19 p -12.7 -12.7 -12.7 --- --- 10.4 NE 0.17 12.2 -21.1 --- --- 730.8 0.022 0.000 9.4 5 1
02/23/06 2:20 p -12.7 -12.7 -12.7 --- --- 10.4 NE 0.17 11.3 -21.1 --- --- 730.8 0.022 0.000 9.5 5 1
02/23/06 2:21 p -12.7 -12.7 -12.7 --- --- 11.3 NE 0.19 12.2 -21.3 --- --- 730.7 0.022 0.000 9.5 5 1
02/23/06 2:22 p -12.7 -12.6 -12.7 --- --- 10.4 NE 0.17 12.2 -21.0 --- --- 730.8 0.022 0.000 9.4 5 1
02/23/06 2:23 p -12.6 -12.6 -12.6 --- --- 10.4 NE 0.17 11.3 -20.9 --- --- 730.8 0.021 0.000 9.5 5 1
02/23/06 2:24 p -12.6 -12.6 -12.6 --- --- 10.4 NE 0.17 11.3 -20.9 --- --- 730.8 0.021 0.000 9.5 5 1
02/23/06 2:25 p -12.6 -12.6 -12.6 --- --- 8.7 NE 0.14 9.6 -20.2 --- --- 730.8 0.021 0.000 9.5 5 1
02/23/06 2:26 p -12.6 -12.6 -12.6 --- --- 8.7 NE 0.14 10.4 -20.1 --- --- 730.8 0.021 0.000 9.5 5 1
02/23/06 2:27 p -12.6 -12.6 -12.6 --- --- 9.6 NE 0.16 12.2 -20.5 --- --- 730.8 0.021 0.000 9.4 5 1
02/23/06 2:28 p -12.6 -12.6 -12.6 --- --- 10.4 NNE 0.17 11.3 -20.8 --- --- 730.9 0.021 0.000 9.4 5 1
02/23/06 2:29 p -12.5 -12.5 -12.6 --- --- 10.4 NNE 0.17 12.2 -20.8 --- --- 730.8 0.021 0.000 9.4 5 1
02/23/06 2:30 p -12.6 -12.5 -12.6 --- --- 10.4 NE 0.17 11.3 -20.8 --- --- 730.8 0.021 0.000 9.4 5 1
02/23/06 2:31 p -12.6 -12.6 -12.6 --- --- 9.6 NE 0.16 11.3 -20.5 --- --- 730.8 0.021 0.000 9.4 5 1
02/23/06 2:32 p -12.6 -12.5 -12.6 --- --- 10.4 NE 0.17 12.2 -20.8 --- --- 730.7 0.021 0.000 9.4 5 1
02/23/06 2:33 p -12.5 -12.5 -12.6 --- --- 12.2 NE 0.20 12.2 -21.4 --- --- 730.7 0.021 0.000 9.4 5 1
02/23/06 2:34 p -12.5 -12.5 -12.6 --- --- 12.2 NE 0.20 13.0 -21.4 --- --- 730.7 0.021 0.000 9.4 5 1
02/23/06 2:35 p -12.5 -12.5 -12.6 --- --- 12.2 NE 0.20 13.0 -21.4 --- --- 730.8 0.021 0.000 9.4 5 1
02/23/06 2:36 p -12.6 -12.5 -12.6 --- --- 10.4 NE 0.17 11.3 -20.8 --- --- 730.8 0.021 0.000 9.4 5 1
02/23/06 2:37 p -12.6 -12.6 -12.7 --- --- 10.4 NE 0.17 11.3 -20.9 --- --- 730.7 0.021 0.000 9.4 5 1
02/23/06 2:38 p -12.6 -12.6 -12.7 --- --- 10.4 NE 0.17 11.3 -20.9 --- --- 730.7 0.021 0.000 9.4 5 1
02/23/06 2:39 p -12.6 -12.6 -12.7 --- --- 10.4 NE 0.17 11.3 -20.9 --- --- 730.8 0.021 0.000 9.4 5 1
02/23/06 2:40 p -12.7 -12.6 -12.7 --- --- 10.4 NE 0.17 11.3 -21.0 --- --- 730.8 0.022 0.000 9.4 5 1
02/23/06 2:41 p -12.6 -12.6 -12.7 --- --- 10.4 NE 0.17 11.3 -20.9 --- --- 730.7 0.021 0.000 9.4 5 1
02/23/06 2:42 p -12.7 -12.6 -12.7 --- --- 9.6 NE 0.16 11.3 -20.6 --- --- 730.7 0.022 0.000 9.4 5 1
02/23/06 2:43 p -12.7 -12.7 -12.7 --- --- 10.4 NE 0.17 12.2 -21.0 --- --- 730.8 0.022 0.000 9.4 5 1
02/23/06 2:44 p -12.6 -12.6 -12.7 --- --- 11.3 NE 0.19 12.2 -21.3 --- --- 730.8 0.021 0.000 9.4 5 1
02/23/06 2:45 p -12.6 -12.6 -12.6 --- --- 11.3 NE 0.19 12.2 -21.3 --- --- 730.7 0.021 0.000 9.4 5 1
02/23/06 2:46 p -12.6 -12.6 -12.6 --- --- 10.4 NE 0.17 11.3 -20.9 --- --- 730.8 0.021 0.000 9.4 5 1
02/23/06 2:47 p -12.6 -12.6 -12.6 --- --- 10.4 NE 0.17 12.2 -20.8 --- --- 730.8 0.021 0.000 9.4 5 1
02/23/06 2:48 p -12.6 -12.5 -12.6 --- --- 10.4 NE 0.17 11.3 -20.8 --- --- 730.8 0.021 0.000 9.4 5 1
02/23/06 2:49 p -12.5 -12.5 -12.5 --- --- 11.3 NE 0.19 12.2 -21.1 --- --- 730.8 0.021 0.000 9.4 5 1
02/23/06 2:50 p -12.4 -12.4 -12.5 --- --- 10.4 NE 0.17 11.3 -20.7 --- --- 730.7 0.021 0.000 9.4 5 1
02/23/06 2:51 p -12.4 -12.4 -12.4 --- --- 9.6 NE 0.16 10.4 -20.3 --- --- 730.7 0.021 0.000 9.4 5 1
02/23/06 2:52 p -12.4 -12.4 -12.5 --- --- 10.4 NE 0.17 11.3 -20.7 --- --- 730.8 0.021 0.000 9.4 5 1
02/23/06 2:53 p -12.5 -12.4 -12.5 --- --- 9.6 NE 0.16 10.4 -20.4 --- --- 730.8 0.021 0.000 9.4 5 1
02/23/06 2:54 p -12.4 -12.4 -12.5 --- --- 9.6 ENE 0.16 10.4 -20.3 --- --- 730.7 0.021 0.000 9.4 5 1
02/23/06 2:55 p -12.4 -12.4 -12.4 --- --- 11.3 ENE 0.19 12.2 -21.1 --- --- 730.7 0.021 0.000 9.4 5 1
02/23/06 2:56 p -12.4 -12.4 -12.4 --- --- 10.4 ENE 0.17 11.3 -20.7 --- --- 730.7 0.021 0.000 9.4 5 1
02/23/06 2:57 p -12.4 -12.4 -12.4 --- --- 9.6 NE 0.16 11.3 -20.3 --- --- 730.7 0.021 0.000 9.4 5 1
02/23/06 2:58 p -12.4 -12.4 -12.4 --- --- 10.4 NE 0.17 11.3 -20.7 --- --- 730.8 0.021 0.000 9.4 5 1
02/23/06 2:59 p -12.4 -12.4 -12.4 --- --- 10.4 NE 0.17 11.3 -20.7 --- --- 730.7 0.021 0.000 9.4 5 1
02/23/06 3:00 p -12.4 -12.3 -12.4 --- --- 10.4 NE 0.17 12.2 -20.7 --- --- 730.7 0.021 0.000 9.4 5 1
02/23/06 3:01 p -12.3 -12.3 -12.4 --- --- 11.3 NE 0.19 13.0 -20.9 --- --- 730.8 0.021 0.000 9.4 5 1
02/23/06 3:02 p -12.4 -12.4 -12.4 --- --- 12.2 NE 0.20 13.0 -21.3 --- --- 730.7 0.021 0.000 9.4 5 1
02/23/06 3:03 p -12.4 -12.4 -12.4 --- --- 11.3 NE 0.19 12.2 -21.0 --- --- 730.7 0.021 0.000 9.4 5 1
02/23/06 3:04 p -12.4 -12.3 -12.4 --- --- 12.2 ENE 0.20 13.9 -21.3 --- --- 730.7 0.021 0.000 9.4 5 1
02/23/06 3:05 p -12.3 -12.3 -12.4 --- --- 12.2 ENE 0.20 13.9 -21.2 --- --- 730.6 0.021 0.000 9.4 5 1
02/23/06 3:06 p -12.3 -12.3 -12.3 --- --- 12.2 ENE 0.20 13.9 -21.2 --- --- 730.7 0.021 0.000 9.4 5 1
02/23/06 3:07 p -12.3 -12.3 -12.4 --- --- 13.0 ENE 0.22 13.0 -21.5 --- --- 730.6 0.021 0.000 9.4 5 1
02/23/06 3:08 p -12.3 -12.3 -12.3 --- --- 12.2 NE 0.20 13.9 -21.2 --- --- 730.6 0.021 0.000 9.4 5 1
02/23/06 3:09 p -12.3 -12.3 -12.3 --- --- 13.0 NE 0.22 13.9 -21.5 --- --- 730.7 0.021 0.000 9.4 5 1
02/23/06 3:10 p -12.3 -12.3 -12.3 --- --- 13.0 ENE 0.22 13.9 -21.5 --- --- 730.6 0.021 0.000 9.4 5 1
02/23/06 3:11 p -12.3 -12.3 -12.3 --- --- 13.0 ENE 0.22 14.8 -21.5 --- --- 730.6 0.021 0.000 9.4 5 1
02/23/06 3:12 p -12.3 -12.3 -12.3 --- --- 13.0 ENE 0.22 13.9 -21.5 --- --- 730.7 0.021 0.000 9.4 5 1
02/23/06 3:13 p -12.3 -12.3 -12.3 --- --- 13.0 ENE 0.22 13.9 -21.5 --- --- 730.7 0.021 0.000 9.4 5 1
02/23/06 3:14 p -12.3 -12.3 -12.3 --- --- 13.0 ENE 0.22 13.9 -21.5 --- --- 730.7 0.021 0.000 9.4 5 1
02/23/06 3:15 p -12.3 -12.3 -12.3 --- --- 13.0 ENE 0.22 14.8 -21.5 --- --- 730.6 0.021 0.000 9.4 5 1
02/23/06 3:16 p -12.3 -12.3 -12.3 --- --- 13.0 ENE 0.22 14.8 -21.4 --- --- 730.7 0.021 0.000 9.4 5 1
02/23/06 3:17 p -12.3 -12.3 -12.3 --- --- 13.0 ENE 0.22 13.9 -21.5 --- --- 730.6 0.021 0.000 9.4 5 1
02/23/06 3:18 p -12.3 -12.3 -12.3 --- --- 13.0 NE 0.22 13.9 -21.5 --- --- 730.7 0.021 0.000 9.4 5 1
02/23/06 3:19 p -12.3 -12.3 -12.3 --- --- 13.0 NE 0.22 13.9 -21.4 --- --- 730.7 0.021 0.000 9.4 5 1
02/23/06 3:20 p -12.3 -12.3 -12.3 --- --- 13.0 NE 0.22 13.9 -21.4 --- --- 730.7 0.021 0.000 9.4 5 1
02/23/06 3:21 p -12.3 -12.3 -12.3 --- --- 11.3 NE 0.19 13.0 -20.9 --- --- 730.7 0.021 0.000 9.4 5 1
02/23/06 3:22 p -12.4 -12.3 -12.4 --- --- 12.2 NE 0.20 13.0 -21.3 --- --- 730.7 0.021 0.000 9.4 5 1
02/23/06 3:23 p -12.4 -12.4 -12.4 --- --- 13.0 NE 0.22 13.9 -21.6 --- --- 730.6 0.021 0.000 9.4 5 1
02/23/06 3:24 p -12.4 -12.4 -12.4 --- --- 12.2 NE 0.20 13.9 -21.3 --- --- 730.7 0.021 0.000 9.4 5 1
02/23/06 3:25 p -12.4 -12.4 -12.4 --- --- 12.2 ENE 0.20 13.9 -21.3 --- --- 730.6 0.021 0.000 9.3 5 1
02/23/06 3:26 p -12.4 -12.4 -12.4 --- --- 13.0 ENE 0.22 13.9 -21.6 --- --- 730.6 0.021 0.000 9.3 5 1
02/23/06 3:27 p -12.4 -12.4 -12.4 --- --- 13.0 NE 0.22 13.9 -21.6 --- --- 730.6 0.021 0.000 9.3 5 1
02/23/06 3:28 p -12.4 -12.4 -12.4 --- --- 13.0 NE 0.22 13.9 -21.6 --- --- 730.6 0.021 0.000 9.4 5 1
02/23/06 3:29 p -12.4 -12.4 -12.4 --- --- 12.2 NE 0.20 13.0 -21.3 --- --- 730.7 0.021 0.000 9.3 5 1
02/23/06 3:30 p -12.4 -12.4 -12.4 --- --- 12.2 NE 0.20 13.9 -21.3 --- --- 730.6 0.021 0.000 9.3 5 1
02/23/06 3:31 p -12.4 -12.4 -12.4 --- --- 12.2 NE 0.20 13.0 -21.4 --- --- 730.6 0.021 0.000 9.3 5 1
02/23/06 3:32 p -12.4 -12.4 -12.4 --- --- 13.0 NE 0.22 13.9 -21.7 --- --- 730.7 0.021 0.000 9.3 5 1
02/23/06 3:33 p -12.4 -12.4 -12.4 --- --- 12.2 NE 0.20 13.0 -21.3 --- --- 730.7 0.021 0.000 9.3 5 1
02/23/06 3:34 p -12.4 -12.3 -12.4 --- --- 12.2 NE 0.20 13.9 -21.3 --- --- 730.7 0.021 0.000 9.3 5 1
02/23/06 3:35 p -12.3 -12.3 -12.4 --- --- 12.2 NE 0.20 13.0 -21.2 --- --- 730.6 0.021 0.000 9.3 5 1
02/23/06 3:36 p -12.4 -12.3 -12.4 --- --- 11.3 NE 0.19 13.0 -21.0 --- --- 730.6 0.021 0.000 9.3 5 1
02/23/06 3:37 p -12.4 -12.3 -12.4 --- --- 11.3 NE 0.19 13.0 -21.0 --- --- 730.7 0.021 0.000 9.3 5 1
02/23/06 3:38 p -12.4 -12.3 -12.4 --- --- 12.2 NE 0.20 13.0 -21.3 --- --- 730.5 0.021 0.000 9.3 5 1
02/23/06 3:39 p -12.4 -12.3 -12.4 --- --- 12.2 NE 0.20 13.0 -21.3 --- --- 730.6 0.021 0.000 9.3 5 1
02/23/06 3:40 p -12.3 -12.3 -12.3 --- --- 11.3 NE 0.19 13.0 -20.9 --- --- 730.6 0.021 0.000 9.3 5 1
02/23/06 3:41 p -12.3 -12.3 -12.3 --- --- 12.2 NE 0.20 13.0 -21.2 --- --- 730.5 0.021 0.000 9.3 5 1
02/23/06 3:42 p -12.3 -12.3 -12.3 --- --- 12.2 NE 0.20 13.0 -21.2 --- --- 730.7 0.021 0.000 9.3 5 1
02/23/06 3:43 p -12.3 -12.3 -12.4 --- --- 11.3 NE 0.19 13.0 -20.9 --- --- 730.7 0.021 0.000 9.3 5 1
02/23/06 3:44 p -12.3 -12.3 -12.3 --- --- 12.2 NE 0.20 13.9 -21.2 --- --- 730.6 0.021 0.000 9.3 5 1
02/23/06 3:45 p -12.3 -12.3 -12.3 --- --- 12.2 NE 0.20 13.9 -21.2 --- --- 730.6 0.021 0.000 9.3 5 1
02/23/06 3:46 p -12.3 -12.3 -12.3 --- --- 10.4 NE 0.17 12.2 -20.5 --- --- 730.6 0.021 0.000 9.3 5 1
02/23/06 3:47 p -12.3 -12.3 -12.3 --- --- 11.3 NE 0.19 12.2 -20.8 --- --- 730.7 0.021 0.000 9.3 5 1
02/23/06 3:48 p -12.3 -12.3 -12.3 --- --- 11.3 NE 0.19 12.2 -20.8 --- --- 730.6 0.021 0.000 9.3 5 1
02/23/06 3:49 p -12.3 -12.3 -12.3 --- --- 11.3 NE 0.19 13.0 -20.8 --- --- 730.7 0.021 0.000 9.3 5 1
02/23/06 3:50 p -12.3 -12.3 -12.3 --- --- 11.3 NE 0.19 13.0 -20.8 --- --- 730.6 0.021 0.000 9.3 5 1
02/23/06 3:51 p -12.3 -12.3 -12.3 --- --- 10.4 NE 0.17 11.3 -20.5 --- --- 730.7 0.021 0.000 9.3 5 1
02/23/06 3:52 p -12.3 -12.2 -12.3 --- --- 11.3 NE 0.19 12.2 -20.8 --- --- 730.6 0.021 0.000 9.3 5 1
02/23/06 3:53 p -12.2 -12.2 -12.2 --- --- 12.2 NE 0.20 13.0 -21.1 --- --- 730.6 0.021 0.000 9.3 5 1
02/23/06 3:54 p -12.2 -12.2 -12.2 --- --- 12.2 NE 0.20 13.0 -21.1 --- --- 730.7 0.021 0.000 9.3 5 1
02/23/06 3:55 p -12.2 -12.2 -12.2 --- --- 12.2 NE 0.20 13.0 -21.1 --- --- 730.6 0.021 0.000 9.3 5 1
02/23/06 3:56 p -12.2 -12.2 -12.2 --- --- 11.3 NE 0.19 13.0 -20.8 --- --- 730.7 0.021 0.000 9.3 5 1
02/23/06 3:57 p -12.2 -12.2 -12.2 --- --- 11.3 NE 0.19 13.0 -20.8 --- --- 730.7 0.021 0.000 9.3 5 1
02/23/06 3:58 p -12.2 -12.2 -12.2 --- --- 13.0 NE 0.22 13.9 -21.4 --- --- 730.6 0.021 0.000 9.3 5 1
02/23/06 3:59 p -12.2 -12.2 -12.2 --- --- 12.2 NE 0.20 13.9 -21.1 --- --- 730.6 0.021 0.000 9.3 5 1
02/23/06 4:00 p -12.2 -12.2 -12.2 --- --- 11.3 NE 0.19 12.2 -20.7 --- --- 730.6 0.021 0.000 9.3 5 1
02/23/06 4:01 p -12.2 -12.2 -12.2 --- --- 12.2 NE 0.20 13.0 -21.0 --- --- 730.7 0.021 0.000 9.3 5 1
02/23/06 4:02 p -12.2 -12.1 -12.2 --- --- 12.2 NE 0.20 13.0 -21.0 --- --- 730.6 0.021 0.000 9.3 5 1
02/23/06 4:03 p -12.2 -12.1 -12.2 --- --- 12.2 NE 0.20 13.9 -21.0 --- --- 730.6 0.021 0.000 9.3 5 1
02/23/06 4:04 p -12.2 -12.2 -12.2 --- --- 13.0 NE 0.22 14.8 -21.3 --- --- 730.7 0.021 0.000 9.3 5 1
02/23/06 4:05 p -12.2 -12.2 -12.2 --- --- 13.0 NE 0.22 13.9 -21.3 --- --- 730.6 0.021 0.000 9.3 5 1
02/23/06 4:06 p -12.2 -12.2 -12.2 --- --- 12.2 NE 0.20 13.0 -21.1 --- --- 730.6 0.021 0.000 9.3 5 1
02/23/06 4:07 p -12.2 -12.2 -12.2 --- --- 12.2 NE 0.20 13.9 -21.1 --- --- 730.6 0.021 0.000 9.3 5 1
02/23/06 4:08 p -12.3 -12.2 -12.3 --- --- 11.3 NE 0.19 13.0 -20.8 --- --- 730.7 0.021 0.000 9.3 5 1
02/23/06 4:09 p -12.3 -12.3 -12.3 --- --- 13.0 NE 0.22 13.9 -21.4 --- --- 730.6 0.021 0.000 9.3 5 1
02/23/06 4:10 p -12.3 -12.2 -12.3 --- --- 12.2 NE 0.20 13.0 -21.2 --- --- 730.7 0.021 0.000 9.3 5 1
02/23/06 4:11 p -12.3 -12.3 -12.3 --- --- 11.3 NE 0.19 13.0 -20.8 --- --- 730.6 0.021 0.000 9.3 5 1
02/23/06 4:12 p -12.2 -12.2 -12.3 --- --- 12.2 NE 0.20 13.0 -21.1 --- --- 730.6 0.021 0.000 9.3 5 1
02/23/06 4:13 p -12.2 -12.2 -12.3 --- --- 12.2 NE 0.20 13.0 -21.1 --- --- 730.6 0.021 0.000 9.3 5 1
02/23/06 4:14 p -12.3 -12.2 -12.3 --- --- 12.2 NE 0.20 13.0 -21.2 --- --- 730.6 0.021 0.000 9.3 5 1
02/23/06 4:15 p -12.3 -12.3 -12.3 --- --- 12.2 NE 0.20 13.0 -21.2 --- --- 730.6 0.021 0.000 9.3 5 1
02/23/06 4:16 p -12.3 -12.3 -12.3 --- --- 12.2 NE 0.20 13.0 -21.2 --- --- 730.6 0.021 0.000 9.3 5 1
02/23/06 4:17 p -12.3 -12.3 -12.3 --- --- 12.2 NE 0.20 13.0 -21.2 --- --- 730.6 0.021 0.000 9.3 5 1
02/23/06 4:18 p -12.3 -12.3 -12.3 --- --- 12.2 NE 0.20 13.0 -21.2 --- --- 730.6 0.021 0.000 9.3 5 1
02/23/06 4:19 p -12.3 -12.3 -12.3 --- --- 12.2 NE 0.20 13.9 -21.2 --- --- 730.6 0.021 0.000 9.3 5 1
02/23/06 4:20 p -12.3 -12.3 -12.3 --- --- 12.2 NE 0.20 12.2 -21.2 --- --- 730.6 0.021 0.000 9.3 5 1
02/23/06 4:21 p -12.3 -12.3 -12.3 --- --- 11.3 NE 0.19 13.0 -20.8 --- --- 730.6 0.021 0.000 9.3 5 1
02/23/06 4:22 p -12.3 -12.3 -12.3 --- --- 12.2 NE 0.20 13.9 -21.2 --- --- 730.7 0.021 0.000 9.3 5 1
02/23/06 4:23 p -12.3 -12.3 -12.3 --- --- 12.2 NE 0.20 13.0 -21.2 --- --- 730.6 0.021 0.000 9.3 5 1
02/23/06 4:24 p -12.3 -12.3 -12.3 --- --- 11.3 NE 0.19 12.2 -20.8 --- --- 730.6 0.021 0.000 9.3 5 1
02/23/06 4:25 p -12.3 -12.3 -12.3 --- --- 11.3 NE 0.19 12.2 -20.9 --- --- 730.6 0.021 0.000 9.3 5 1
02/23/06 4:26 p -12.3 -12.3 -12.3 --- --- 10.4 NE 0.17 11.3 -20.6 --- --- 730.7 0.021 0.000 9.3 5 1
02/23/06 4:27 p -12.3 -12.3 -12.3 --- --- 10.4 NE 0.17 12.2 -20.6 --- --- 730.7 0.021 0.000 9.3 5 1
02/23/06 4:28 p -12.3 -12.3 -12.4 --- --- 10.4 NE 0.17 12.2 -20.6 --- --- 730.7 0.021 0.000 9.3 5 1
02/23/06 4:29 p -12.3 -12.3 -12.4 --- --- 11.3 NE 0.19 12.2 -20.9 --- --- 730.6 0.021 0.000 9.3 5 1
02/23/06 4:30 p -12.3 -12.3 -12.4 --- --- 11.3 NE 0.19 12.2 -20.9 --- --- 730.6 0.021 0.000 9.3 5 1
02/23/06 4:31 p -12.4 -12.4 -12.4 --- --- 11.3 NE 0.19 12.2 -21.0 --- --- 730.5 0.021 0.000 9.3 5 1
02/23/06 4:32 p -12.4 -12.4 -12.4 --- --- 11.3 NE 0.19 12.2 -21.0 --- --- 730.6 0.021 0.000 9.3 5 1
02/23/06 4:33 p -12.4 -12.4 -12.4 --- --- 12.2 NE 0.20 13.0 -21.3 --- --- 730.6 0.021 0.000 9.3 5 1
02/23/06 4:34 p -12.4 -12.3 -12.4 --- --- 12.2 NE 0.20 13.0 -21.3 --- --- 730.6 0.021 0.000 9.3 5 1
02/23/06 4:35 p -12.4 -12.4 -12.4 --- --- 12.2 NE 0.20 13.0 -21.3 --- --- 730.7 0.021 0.000 9.3 5 1
02/23/06 4:36 p -12.4 -12.4 -12.4 --- --- 12.2 NE 0.20 13.0 -21.3 --- --- 730.5 0.021 0.000 9.3 5 1
02/23/06 4:37 p -12.4 -12.4 -12.4 --- --- 11.3 NE 0.19 12.2 -21.0 --- --- 730.6 0.021 0.000 9.3 5 1
02/23/06 4:38 p -12.4 -12.4 -12.4 --- --- 12.2 NE 0.20 13.9 -21.3 --- --- 730.6 0.021 0.000 9.3 5 1
02/23/06 4:39 p -12.4 -12.4 -12.4 --- --- 12.2 NE 0.20 13.0 -21.4 --- --- 730.7 0.021 0.000 9.3 5 1
02/23/06 4:40 p -12.4 -12.4 -12.4 --- --- 13.0 NE 0.22 13.9 -21.7 --- --- 730.6 0.021 0.000 9.3 5 1
02/23/06 4:41 p -12.4 -12.4 -12.5 --- --- 12.2 NE 0.20 13.0 -21.4 --- --- 730.7 0.021 0.000 9.3 5 1
02/23/06 4:42 p -12.5 -12.5 -12.6 --- --- 12.2 NE 0.20 13.9 -21.4 --- --- 730.6 0.021 0.000 9.3 5 1
02/23/06 4:43 p -12.6 -12.6 -12.6 --- --- 12.2 NE 0.20 13.0 -21.5 --- --- 730.6 0.021 0.000 9.3 5 1
02/23/06 4:44 p -12.6 -12.6 -12.6 --- --- 12.2 NE 0.20 13.0 -21.5 --- --- 730.6 0.021 0.000 9.3 5 1
02/23/06 4:45 p -12.6 -12.6 -12.6 --- --- 12.2 NE 0.20 13.0 -21.6 --- --- 730.6 0.021 0.000 9.3 5 1
02/23/06 4:46 p -12.6 -12.6 -12.6 --- --- 12.2 NE 0.20 13.0 -21.6 --- --- 730.6 0.021 0.000 9.3 5 1
02/23/06 4:47 p -12.6 -12.6 -12.6 --- --- 12.2 NE 0.20 13.0 -21.6 --- --- 730.6 0.021 0.000 9.3 5 1
02/23/06 4:48 p -12.6 -12.6 -12.7 --- --- 12.2 NE 0.20 13.0 -21.6 --- --- 730.6 0.021 0.000 9.3 5 1
02/23/06 4:49 p -12.6 -12.6 -12.7 --- --- 12.2 NE 0.20 13.0 -21.6 --- --- 730.6 0.021 0.000 9.3 5 1
02/23/06 4:50 p -12.6 -12.6 -12.7 --- --- 12.2 NE 0.20 13.0 -21.6 --- --- 730.6 0.021 0.000 9.3 5 1
02/23/06 4:51 p -12.7 -12.6 -12.7 --- --- 12.2 NE 0.20 13.9 -21.7 --- --- 730.6 0.022 0.000 9.3 5 1
02/23/06 4:52 p -12.7 -12.7 -12.7 --- --- 12.2 NE 0.20 13.0 -21.7 --- --- 730.6 0.022 0.000 9.3 5 1
02/23/06 4:53 p -12.7 -12.7 -12.7 --- --- 12.2 NE 0.20 13.0 -21.7 --- --- 730.5 0.022 0.000 9.3 5 1
02/23/06 4:54 p -12.7 -12.7 -12.7 --- --- 12.2 NE 0.20 13.9 -21.7 --- --- 730.5 0.022 0.000 9.3 5 1
02/23/06 4:55 p -12.7 -12.7 -12.7 --- --- 12.2 NE 0.20 13.0 -21.7 --- --- 730.6 0.022 0.000 9.3 5 1
02/23/06 4:56 p -12.7 -12.7 -12.7 --- --- 12.2 NE 0.20 13.9 -21.7 --- --- 730.6 0.022 0.000 9.2 5 1
02/23/06 4:57 p -12.8 -12.7 -12.8 --- --- 12.2 NE 0.20 13.0 -21.8 --- --- 730.6 0.022 0.000 9.2 5 1
02/23/06 4:58 p -12.8 -12.8 -12.8 --- --- 13.0 NE 0.22 13.9 -22.1 --- --- 730.6 0.022 0.000 9.3 5 1
02/23/06 4:59 p -12.8 -12.8 -12.8 --- --- 12.2 NE 0.20 13.9 -21.8 --- --- 730.6 0.022 0.000 9.2 5 1
02/23/06 5:00 p -12.8 -12.8 -12.8 --- --- 12.2 NE 0.20 13.0 -21.9 --- --- 730.6 0.022 0.000 9.2 5 1
02/23/06 5:01 p -12.8 -12.8 -12.8 --- --- 12.2 NE 0.20 13.9 -21.9 --- --- 730.6 0.022 0.000 9.3 5 1
02/23/06 5:02 p -12.8 -12.8 -12.8 --- --- 11.3 NE 0.19 13.0 -21.6 --- --- 730.6 0.022 0.000 9.3 5 1
02/23/06 5:03 p -12.8 -12.8 -12.9 --- --- 11.3 NE 0.19 13.0 -21.6 --- --- 730.6 0.022 0.000 9.3 5 1
02/23/06 5:04 p -12.9 -12.8 -12.9 --- --- 11.3 NE 0.19 13.0 -21.6 --- --- 730.6 0.022 0.000 9.2 5 1
02/23/06 5:05 p -12.8 -12.8 -12.8 --- --- 11.3 NE 0.19 12.2 -21.6 --- --- 730.7 0.022 0.000 9.2 5 1
02/23/06 5:07 p -12.8 -12.8 -12.8 --- --- 11.3 NE 0.19 12.2 -21.6 --- --- 730.6 0.022 0.000 9.2 5 1
02/23/06 5:08 p -12.8 -12.8 -12.8 --- --- 12.2 NE 0.20 13.0 -21.9 --- --- 730.6 0.022 0.000 9.2 5 1
02/23/06 5:09 p -12.8 -12.8 -12.8 --- --- 11.3 NE 0.19 13.0 -21.5 --- --- 730.6 0.022 0.000 9.3 5 1
02/23/06 5:10 p -12.8 -12.7 -12.8 --- --- 12.2 NE 0.20 13.0 -21.8 --- --- 730.5 0.022 0.000 9.2 5 1
02/23/06 5:11 p -12.7 -12.7 -12.7 --- --- 12.2 NE 0.20 13.0 -21.7 --- --- 730.6 0.022 0.000 9.2 5 1
02/23/06 5:12 p -12.7 -12.7 -12.7 --- --- 11.3 NE 0.19 13.0 -21.4 --- --- 730.6 0.022 0.000 9.2 5 1
02/23/06 5:13 p -12.7 -12.7 -12.7 --- --- 11.3 NE 0.19 13.0 -21.3 --- --- 730.6 0.022 0.000 9.2 5 1
02/23/06 5:14 p -12.7 -12.7 -12.7 --- --- 12.2 NE 0.20 13.0 -21.7 --- --- 730.5 0.022 0.000 9.2 5 1
02/23/06 5:15 p -12.7 -12.7 -12.7 --- --- 12.2 NE 0.20 13.9 -21.7 --- --- 730.6 0.022 0.000 9.2 5 1
02/23/06 5:16 p -12.7 -12.7 -12.8 --- --- 13.0 NE 0.22 13.0 -22.0 --- --- 730.6 0.022 0.000 9.2 5 1
02/23/06 5:17 p -12.8 -12.7 -12.8 --- --- 12.2 NE 0.20 13.0 -21.8 --- --- 730.6 0.022 0.000 9.2 5 1
02/23/06 5:18 p -12.8 -12.8 -12.8 --- --- 12.2 NE 0.20 13.9 -21.8 --- --- 730.6 0.022 0.000 9.2 5 1
02/23/06 5:19 p -12.8 -12.8 -12.8 --- --- 13.0 NE 0.22 13.9 -22.2 --- --- 730.6 0.022 0.000 9.2 5 1
02/23/06 5:20 p -12.8 -12.8 -12.9 --- --- 13.0 NE 0.22 13.9 -22.2 --- --- 730.6 0.022 0.000 9.2 5 1
02/23/06 5:21 p -12.9 -12.8 -12.9 --- --- 13.0 NE 0.22 13.9 -22.2 --- --- 730.5 0.022 0.000 9.2 5 1
02/23/06 5:22 p -12.9 -12.9 -12.9 --- --- 13.0 NE 0.22 13.9 -22.2 --- --- 730.6 0.022 0.000 9.2 5 1
02/23/06 5:23 p -12.9 -12.9 -12.9 --- --- 12.2 NE 0.20 13.9 -21.9 --- --- 730.6 0.022 0.000 9.2 5 1
02/23/06 5:24 p -12.9 -12.9 -12.9 --- --- 12.2 NE 0.20 13.0 -21.9 --- --- 730.6 0.022 0.000 9.2 5 1
02/23/06 5:25 p -12.9 -12.9 -12.9 --- --- 12.2 NE 0.20 13.0 -21.9 --- --- 730.5 0.022 0.000 9.2 5 1
02/23/06 5:26 p -12.9 -12.9 -12.9 --- --- 12.2 NE 0.20 13.9 -21.9 --- --- 730.6 0.022 0.000 9.2 5 1
02/23/06 5:27 p -12.8 -12.8 -12.9 --- --- 12.2 NE 0.20 13.9 -21.9 --- --- 730.6 0.022 0.000 9.2 5 1
02/23/06 5:28 p -12.8 -12.8 -12.8 --- --- 12.2 NE 0.20 13.9 -21.9 --- --- 730.6 0.022 0.000 9.2 5 1
02/23/06 5:29 p -12.8 -12.8 -12.8 --- --- 13.0 NE 0.22 14.8 -22.2 --- --- 730.6 0.022 0.000 9.2 5 1
02/23/06 5:30 p -12.8 -12.8 -12.8 --- --- 13.0 NE 0.22 13.9 -22.2 --- --- 730.5 0.022 0.000 9.2 5 1
02/23/06 5:31 p -12.8 -12.8 -12.8 --- --- 13.0 NE 0.22 13.9 -22.2 --- --- 730.6 0.022 0.000 9.2 5 1
02/23/06 5:32 p -12.8 -12.8 -12.8 --- --- 13.0 NE 0.22 13.9 -22.2 --- --- 730.6 0.022 0.000 9.2 5 1
02/23/06 5:33 p -12.8 -12.8 -12.8 --- --- 13.0 NE 0.22 13.9 -22.1 --- --- 730.6 0.022 0.000 9.2 5 1
02/23/06 5:34 p -12.8 -12.8 -12.8 --- --- 13.0 NE 0.22 13.9 -22.1 --- --- 730.5 0.022 0.000 9.2 5 1
02/23/06 5:35 p -12.8 -12.8 -12.8 --- --- 13.0 NE 0.22 13.9 -22.1 --- --- 730.5 0.022 0.000 9.2 5 1
02/23/06 5:36 p -12.8 -12.8 -12.8 --- --- 12.2 NE 0.20 13.9 -21.8 --- --- 730.5 0.022 0.000 9.2 5 1
02/23/06 5:37 p -12.8 -12.8 -12.8 --- --- 13.0 NE 0.22 13.9 -22.1 --- --- 730.5 0.022 0.000 9.2 5 1
02/23/06 5:38 p -12.8 -12.8 -12.8 --- --- 13.0 NE 0.22 13.9 -22.1 --- --- 730.6 0.022 0.000 9.2 5 1
02/23/06 5:39 p -12.7 -12.7 -12.7 --- --- 12.2 NE 0.20 13.0 -21.7 --- --- 730.6 0.022 0.000 9.2 5 1
02/23/06 5:40 p -12.7 -12.7 -12.8 --- --- 12.2 NE 0.20 13.9 -21.7 --- --- 730.5 0.022 0.000 9.2 5 1
02/23/06 5:41 p -12.7 -12.7 -12.7 --- --- 13.0 NE 0.22 13.9 -22.0 --- --- 730.5 0.022 0.000 9.2 5 1
02/23/06 5:42 p -12.7 -12.7 -12.7 --- --- 13.0 NE 0.22 13.9 -22.0 --- --- 730.6 0.022 0.000 9.2 5 1
02/23/06 5:43 p -12.7 -12.7 -12.7 --- --- 12.2 NE 0.20 13.0 -21.7 --- --- 730.5 0.022 0.000 9.2 5 1
02/23/06 5:44 p -12.7 -12.7 -12.7 --- --- 12.2 NE 0.20 13.0 -21.7 --- --- 730.5 0.022 0.000 9.2 5 1
02/23/06 5:45 p -12.7 -12.6 -12.7 --- --- 13.0 NE 0.22 13.9 -21.9 --- --- 730.5 0.022 0.000 9.2 5 1
02/23/06 5:46 p -12.7 -12.6 -12.7 --- --- 13.0 NE 0.22 13.9 -21.9 --- --- 730.6 0.022 0.000 9.2 5 1
02/23/06 5:47 p -12.7 -12.6 -12.7 --- --- 13.9 NE 0.23 14.8 -22.2 --- --- 730.5 0.022 0.000 9.2 5 1
02/23/06 5:48 p -12.6 -12.6 -12.7 --- --- 13.9 NE 0.23 14.8 -22.2 --- --- 730.5 0.021 0.000 9.2 5 1
02/23/06 5:49 p -12.6 -12.6 -12.6 --- --- 13.0 NE 0.22 14.8 -21.9 --- --- 730.5 0.021 0.000 9.2 5 1
02/23/06 5:50 p -12.6 -12.5 -12.6 --- --- 13.9 NE 0.23 14.8 -22.1 --- --- 730.5 0.021 0.000 9.2 5 1
02/23/06 5:51 p -12.6 -12.6 -12.6 --- --- 13.9 NE 0.23 14.8 -22.1 --- --- 730.5 0.021 0.000 9.2 5 1
02/23/06 5:52 p -12.6 -12.5 -12.6 --- --- 13.0 NE 0.22 14.8 -21.8 --- --- 730.5 0.021 0.000 9.2 5 1
02/23/06 5:53 p -12.5 -12.5 -12.5 --- --- 13.9 NE 0.23 14.8 -22.0 --- --- 730.5 0.021 0.000 9.2 5 1
02/23/06 5:54 p -12.5 -12.4 -12.5 --- --- 13.9 NE 0.23 14.8 -22.0 --- --- 730.5 0.021 0.000 9.2 5 1
02/23/06 5:55 p -12.5 -12.5 -12.5 --- --- 13.9 NE 0.23 14.8 -22.0 --- --- 730.5 0.021 0.000 9.2 5 1
02/23/06 5:56 p -12.5 -12.4 -12.5 --- --- 13.9 NE 0.23 14.8 -22.0 --- --- 730.4 0.021 0.000 9.2 5 1
02/23/06 5:57 p -12.4 -12.4 -12.5 --- --- 13.9 NE 0.23 14.8 -21.9 --- --- 730.5 0.021 0.000 9.2 5 1
02/23/06 5:58 p -12.4 -12.4 -12.4 --- --- 13.9 NE 0.23 14.8 -21.9 --- --- 730.5 0.021 0.000 9.2 5 1
02/23/06 5:59 p -12.4 -12.4 -12.4 --- --- 13.9 NE 0.23 14.8 -21.9 --- --- 730.5 0.021 0.000 9.2 5 1
02/23/06 6:00 p -12.4 -12.4 -12.4 --- --- 13.9 NE 0.23 14.8 -21.9 --- --- 730.5 0.021 0.000 9.2 5 1
02/23/06 6:01 p -12.4 -12.3 -12.4 --- --- 13.9 NE 0.23 14.8 -21.9 --- --- 730.4 0.021 0.000 9.2 5 1
02/23/06 6:02 p -12.3 -12.3 -12.4 --- --- 13.0 NE 0.22 13.9 -21.5 --- --- 730.4 0.021 0.000 9.2 5 1
02/23/06 6:03 p -12.3 -12.3 -12.4 --- --- 13.9 NE 0.23 14.8 -21.8 --- --- 730.4 0.021 0.000 9.2 5 1
02/23/06 6:04 p -12.3 -12.3 -12.3 --- --- 13.9 NE 0.23 13.9 -21.8 --- --- 730.4 0.021 0.000 9.2 5 1
02/23/06 6:05 p -12.3 -12.3 -12.3 --- --- 13.0 NE 0.22 15.7 -21.5 --- --- 730.5 0.021 0.000 9.2 5 1
02/23/06 6:06 p -12.3 -12.3 -12.4 --- --- 13.0 NE 0.22 13.9 -21.5 --- --- 730.4 0.021 0.000 9.2 5 1
02/23/06 6:07 p -12.3 -12.3 -12.3 --- --- 13.9 NE 0.23 14.8 -21.8 --- --- 730.4 0.021 0.000 9.2 5 1
02/23/06 6:08 p -12.3 -12.3 -12.4 --- --- 13.9 NE 0.23 14.8 -21.8 --- --- 730.5 0.021 0.000 9.2 5 1
02/23/06 6:09 p -12.3 -12.3 -12.3 --- --- 13.9 NE 0.23 15.7 -21.8 --- --- 730.4 0.021 0.000 9.2 5 1
02/23/06 6:10 p -12.3 -12.3 -12.4 --- --- 13.9 NE 0.23 14.8 -21.8 --- --- 730.4 0.021 0.000 9.2 5 1
02/23/06 6:11 p -12.4 -12.4 -12.4 --- --- 13.9 NE 0.23 14.8 -21.9 --- --- 730.4 0.021 0.000 9.2 5 1
02/23/06 6:12 p -12.4 -12.4 -12.4 --- --- 13.9 NE 0.23 14.8 -21.9 --- --- 730.4 0.021 0.000 9.2 5 1
02/23/06 6:13 p -12.4 -12.4 -12.4 --- --- 13.9 NE 0.23 14.8 -21.9 --- --- 730.4 0.021 0.000 9.2 5 1
02/23/06 6:14 p -12.4 -12.4 -12.5 --- --- 13.9 NE 0.23 14.8 -21.9 --- --- 730.4 0.021 0.000 9.2 5 1
02/23/06 6:15 p -12.5 -12.5 -12.6 --- --- 13.9 NE 0.23 14.8 -22.0 --- --- 730.4 0.021 0.000 9.2 5 1
02/23/06 6:16 p -12.5 -12.5 -12.6 --- --- 13.9 NE 0.23 14.8 -22.0 --- --- 730.4 0.021 0.000 9.2 5 1
02/23/06 6:17 p -12.5 -12.5 -12.6 --- --- 13.9 NE 0.23 14.8 -22.0 --- --- 730.4 0.021 0.000 9.2 5 1
02/23/06 6:18 p -12.6 -12.6 -12.6 --- --- 13.9 NE 0.23 14.8 -22.1 --- --- 730.4 0.021 0.000 9.2 5 1
02/23/06 6:19 p -12.6 -12.6 -12.6 --- --- 13.9 NE 0.23 14.8 -22.1 --- --- 730.5 0.021 0.000 9.2 5 1
02/23/06 6:20 p -12.6 -12.6 -12.7 --- --- 13.0 NE 0.22 14.8 -21.9 --- --- 730.5 0.021 0.000 9.2 5 1
02/23/06 6:21 p -12.7 -12.6 -12.7 --- --- 13.9 NE 0.23 14.8 -22.2 --- --- 730.5 0.022 0.000 9.2 5 1
02/23/06 6:22 p -12.7 -12.7 -12.7 --- --- 13.9 NE 0.23 14.8 -22.2 --- --- 730.5 0.022 0.000 9.2 5 1
02/23/06 6:23 p -12.7 -12.7 -12.8 --- --- 13.0 NE 0.22 14.8 -22.0 --- --- 730.5 0.022 0.000 9.2 5 1
02/23/06 6:24 p -12.7 -12.7 -12.8 --- --- 13.9 NE 0.23 14.8 -22.3 --- --- 730.4 0.022 0.000 9.2 5 1
02/23/06 6:25 p -12.8 -12.7 -12.8 --- --- 13.0 NE 0.22 13.9 -22.1 --- --- 730.4 0.022 0.000 9.2 5 1
02/23/06 6:26 p -12.8 -12.7 -12.8 --- --- 13.0 NE 0.22 13.9 -22.1 --- --- 730.5 0.022 0.000 9.2 5 1
02/23/06 6:27 p -12.8 -12.8 -12.8 --- --- 13.0 NE 0.22 14.8 -22.1 --- --- 730.5 0.022 0.000 9.2 5 1
02/23/06 6:28 p -12.8 -12.8 -12.8 --- --- 13.9 NE 0.23 14.8 -22.4 --- --- 730.4 0.022 0.000 9.2 5 1
02/23/06 6:29 p -12.8 -12.8 -12.8 --- --- 13.9 NE 0.23 14.8 -22.4 --- --- 730.4 0.022 0.000 9.2 5 1
02/23/06 6:30 p -12.8 -12.8 -12.8 --- --- 13.0 NE 0.22 14.8 -22.2 --- --- 730.4 0.022 0.000 9.2 5 1
02/23/06 6:31 p -12.8 -12.8 -12.8 --- --- 13.0 NE 0.22 14.8 -22.2 --- --- 730.5 0.022 0.000 9.2 5 1
02/23/06 6:32 p -12.8 -12.8 -12.8 --- --- 13.0 NE 0.22 13.9 -22.1 --- --- 730.4 0.022 0.000 9.2 5 1
02/23/06 6:33 p -12.8 -12.8 -12.8 --- --- 13.0 NE 0.22 14.8 -22.2 --- --- 730.4 0.022 0.000 9.2 5 1
02/23/06 6:34 p -12.8 -12.8 -12.8 --- --- 13.0 NE 0.22 13.9 -22.1 --- --- 730.4 0.022 0.000 9.2 5 1
02/23/06 6:35 p -12.8 -12.8 -12.8 --- --- 13.9 NE 0.23 14.8 -22.4 --- --- 730.4 0.022 0.000 9.2 5 1
02/23/06 6:36 p -12.8 -12.8 -12.8 --- --- 13.9 NE 0.23 14.8 -22.4 --- --- 730.5 0.022 0.000 9.2 5 1
02/23/06 6:37 p -12.8 -12.8 -12.8 --- --- 13.0 NE 0.22 13.9 -22.1 --- --- 730.4 0.022 0.000 9.2 5 1
02/23/06 6:38 p -12.8 -12.8 -12.8 --- --- 13.9 NE 0.23 15.7 -22.4 --- --- 730.4 0.022 0.000 9.2 5 1
02/23/06 6:39 p -12.8 -12.8 -12.8 --- --- 13.9 NE 0.23 15.7 -22.4 --- --- 730.4 0.022 0.000 9.2 5 1
02/23/06 6:40 p -12.8 -12.8 -12.8 --- --- 13.9 NE 0.23 14.8 -22.4 --- --- 730.3 0.022 0.000 9.2 5 1
02/23/06 6:41 p -12.8 -12.8 -12.9 --- --- 13.9 NE 0.23 14.8 -22.4 --- --- 730.4 0.022 0.000 9.2 5 1
02/23/06 6:42 p -12.9 -12.8 -12.9 --- --- 13.9 NE 0.23 14.8 -22.5 --- --- 730.4 0.022 0.000 9.2 5 1
02/23/06 6:43 p -12.9 -12.8 -12.9 --- --- 14.8 NE 0.25 15.7 -22.8 --- --- 730.4 0.022 0.000 9.2 5 1
02/23/06 6:44 p -12.9 -12.9 -12.9 --- --- 14.8 NE 0.25 15.7 -22.8 --- --- 730.4 0.022 0.000 9.2 5 1
02/23/06 6:45 p -12.9 -12.9 -12.9 --- --- 14.8 NE 0.25 15.7 -22.8 --- --- 730.3 0.022 0.000 9.2 5 1
02/23/06 6:46 p -12.9 -12.9 -12.9 --- --- 14.8 NE 0.25 15.7 -22.8 --- --- 730.3 0.022 0.000 9.2 5 1
02/23/06 6:47 p -12.9 -12.9 -12.9 --- --- 14.8 NE 0.25 15.7 -22.9 --- --- 730.4 0.022 0.000 9.2 5 1
02/23/06 6:48 p -12.9 -12.9 -13.0 --- --- 13.9 NE 0.23 14.8 -22.6 --- --- 730.3 0.022 0.000 9.2 5 1
02/23/06 6:49 p -13.0 -13.0 -13.0 --- --- 14.8 NE 0.25 15.7 -22.9 --- --- 730.3 0.022 0.000 9.2 5 1
02/23/06 6:50 p -13.0 -13.0 -13.0 --- --- 14.8 NE 0.25 15.7 -22.9 --- --- 730.4 0.022 0.000 9.2 5 1
02/23/06 6:51 p -13.0 -13.0 -13.1 --- --- 14.8 NE 0.25 15.7 -22.9 --- --- 730.4 0.022 0.000 9.2 5 1
02/23/06 6:52 p -13.0 -13.0 -13.1 --- --- 13.9 NE 0.23 15.7 -22.7 --- --- 730.3 0.022 0.000 9.2 5 1
02/23/06 6:53 p -13.0 -12.9 -13.1 --- --- 14.8 NE 0.25 14.8 -22.9 --- --- 730.4 0.022 0.000 9.2 5 1
02/23/06 6:54 p -13.0 -13.0 -13.1 --- --- 14.8 NE 0.25 15.7 -22.9 --- --- 730.4 0.022 0.000 9.2 5 1
02/23/06 6:55 p -13.0 -12.9 -13.0 --- --- 14.8 NE 0.25 15.7 -22.9 --- --- 730.4 0.022 0.000 9.2 5 1
02/23/06 6:56 p -12.9 -12.9 -13.0 --- --- 14.8 NE 0.25 15.7 -22.9 --- --- 730.3 0.022 0.000 9.2 5 1
02/23/06 6:57 p -12.9 -12.9 -12.9 --- --- 14.8 NE 0.25 15.7 -22.9 --- --- 730.4 0.022 0.000 9.2 5 1
02/23/06 6:58 p -12.9 -12.9 -12.9 --- --- 15.7 NE 0.26 15.7 -23.1 --- --- 730.4 0.022 0.000 9.2 5 1
02/23/06 6:59 p -12.9 -12.9 -12.9 --- --- 14.8 NE 0.25 16.5 -22.8 --- --- 730.4 0.022 0.000 9.2 5 1
02/23/06 7:00 p -12.8 -12.8 -12.9 --- --- 14.8 ENE 0.25 15.7 -22.7 --- --- 730.4 0.022 0.000 9.2 5 1
02/23/06 7:01 p -12.8 -12.8 -12.8 --- --- 14.8 NE 0.25 15.7 -22.7 --- --- 730.5 0.022 0.000 9.2 5 1
02/23/06 7:02 p -12.8 -12.8 -12.8 --- --- 14.8 NE 0.25 15.7 -22.7 --- --- 730.3 0.022 0.000 9.2 5 1
02/23/06 7:03 p -12.8 -12.8 -12.8 --- --- 14.8 NE 0.25 15.7 -22.7 --- --- 730.3 0.022 0.000 9.2 5 1
02/23/06 7:04 p -12.8 -12.8 -12.8 --- --- 14.8 ENE 0.25 15.7 -22.7 --- --- 730.3 0.022 0.000 9.2 5 1
02/23/06 7:05 p -12.8 -12.7 -12.8 --- --- 14.8 NE 0.25 15.7 -22.7 --- --- 730.3 0.022 0.000 9.2 5 1
02/23/06 7:06 p -12.7 -12.7 -12.8 --- --- 14.8 NE 0.25 14.8 -22.6 --- --- 730.4 0.022 0.000 9.2 5 1
02/23/06 7:07 p -12.7 -12.7 -12.7 --- --- 14.8 NE 0.25 15.7 -22.6 --- --- 730.4 0.022 0.000 9.2 5 1
02/23/06 7:08 p -12.7 -12.7 -12.7 --- --- 14.8 NE 0.25 15.7 -22.5 --- --- 730.4 0.022 0.000 9.2 5 1
02/23/06 7:09 p -12.7 -12.6 -12.7 --- --- 14.8 ENE 0.25 15.7 -22.5 --- --- 730.4 0.022 0.000 9.2 5 1
02/23/06 7:10 p -12.6 -12.6 -12.7 --- --- 14.8 ENE 0.25 15.7 -22.4 --- --- 730.3 0.021 0.000 9.2 5 1
02/23/06 7:11 p -12.6 -12.6 -12.6 --- --- 14.8 ENE 0.25 15.7 -22.4 --- --- 730.4 0.021 0.000 9.2 5 1
02/23/06 7:12 p -12.6 -12.6 -12.6 --- --- 13.9 ENE 0.23 15.7 -22.2 --- --- 730.4 0.021 0.000 9.2 5 1
02/23/06 7:13 p -12.6 -12.6 -12.6 --- --- 14.8 ENE 0.25 15.7 -22.4 --- --- 730.4 0.021 0.000 9.2 5 1
02/23/06 7:14 p -12.6 -12.6 -12.6 --- --- 14.8 ENE 0.25 15.7 -22.4 --- --- 730.4 0.021 0.000 9.2 5 1
02/23/06 7:15 p -12.6 -12.6 -12.6 --- --- 14.8 ENE 0.25 15.7 -22.3 --- --- 730.4 0.021 0.000 9.2 5 1
02/23/06 7:16 p -12.6 -12.6 -12.6 --- --- 14.8 ENE 0.25 15.7 -22.3 --- --- 730.4 0.021 0.000 9.2 5 1
02/23/06 7:17 p -12.6 -12.6 -12.6 --- --- 14.8 ENE 0.25 15.7 -22.3 --- --- 730.4 0.021 0.000 9.1 5 1
02/23/06 7:18 p -12.6 -12.5 -12.6 --- --- 14.8 ENE 0.25 15.7 -22.3 --- --- 730.4 0.021 0.000 9.1 5 1
02/23/06 7:19 p -12.4 -12.4 -12.5 --- --- 14.8 ENE 0.25 15.7 -22.2 --- --- 730.4 0.021 0.000 9.2 5 1
02/23/06 7:20 p -12.4 -12.4 -12.4 --- --- 14.8 ENE 0.25 15.7 -22.2 --- --- 730.4 0.021 0.000 9.1 5 1
02/23/06 7:21 p -12.4 -12.4 -12.4 --- --- 14.8 ENE 0.25 15.7 -22.2 --- --- 730.4 0.021 0.000 9.2 5 1
02/23/06 7:22 p -12.4 -12.4 -12.4 --- --- 14.8 ENE 0.25 15.7 -22.2 --- --- 730.4 0.021 0.000 9.1 5 1
02/23/06 7:23 p -12.4 -12.4 -12.4 --- --- 14.8 ENE 0.25 16.5 -22.2 --- --- 730.5 0.021 0.000 9.1 5 1
02/23/06 7:24 p -12.4 -12.4 -12.4 --- --- 14.8 ENE 0.25 15.7 -22.2 --- --- 730.4 0.021 0.000 9.2 5 1
02/23/06 7:25 p -12.4 -12.4 -12.4 --- --- 14.8 ENE 0.25 15.7 -22.2 --- --- 730.4 0.021 0.000 9.2 5 1
02/23/06 7:26 p -12.4 -12.4 -12.5 --- --- 14.8 ENE 0.25 15.7 -22.2 --- --- 730.5 0.021 0.000 9.2 5 1
02/23/06 7:27 p -12.5 -12.4 -12.5 --- --- 13.9 ENE 0.23 15.7 -22.0 --- --- 730.5 0.021 0.000 9.2 5 1
02/23/06 7:28 p -12.4 -12.4 -12.5 --- --- 14.8 ENE 0.25 15.7 -22.2 --- --- 730.4 0.021 0.000 9.1 5 1
02/23/06 7:29 p -12.4 -12.4 -12.4 --- --- 13.9 ENE 0.23 15.7 -21.9 --- --- 730.4 0.021 0.000 9.1 5 1
02/23/06 7:30 p -12.4 -12.4 -12.4 --- --- 14.8 ENE 0.25 15.7 -22.2 --- --- 730.5 0.021 0.000 9.1 5 1
02/23/06 7:31 p -12.4 -12.4 -12.4 --- --- 14.8 ENE 0.25 15.7 -22.2 --- --- 730.5 0.021 0.000 9.1 5 1
02/23/06 7:32 p -12.3 -12.3 -12.4 --- --- 14.8 ENE 0.25 15.7 -22.1 --- --- 730.5 0.021 0.000 9.1 5 1
02/23/06 7:33 p -12.3 -12.3 -12.3 --- --- 14.8 ENE 0.25 15.7 -22.1 --- --- 730.5 0.021 0.000 9.2 5 1
02/23/06 7:34 p -12.3 -12.3 -12.3 --- --- 14.8 ENE 0.25 15.7 -22.0 --- --- 730.4 0.021 0.000 9.2 5 1
02/23/06 7:35 p -12.3 -12.3 -12.3 --- --- 14.8 ENE 0.25 15.7 -22.0 --- --- 730.5 0.021 0.000 9.1 5 1
02/23/06 7:36 p -12.2 -12.2 -12.2 --- --- 14.8 ENE 0.25 15.7 -21.9 --- --- 730.5 0.021 0.000 9.1 5 1
02/23/06 7:37 p -12.2 -12.2 -12.2 --- --- 13.9 ENE 0.23 15.7 -21.6 --- --- 730.4 0.021 0.000 9.1 5 1
02/23/06 7:38 p -12.2 -12.1 -12.2 --- --- 14.8 ENE 0.25 14.8 -21.8 --- --- 730.4 0.021 0.000 9.1 5 1
02/23/06 7:39 p -12.2 -12.1 -12.2 --- --- 14.8 ENE 0.25 14.8 -21.8 --- --- 730.5 0.021 0.000 9.1 5 1
02/23/06 7:40 p -12.2 -12.1 -12.2 --- --- 14.8 ENE 0.25 15.7 -21.8 --- --- 730.5 0.021 0.000 9.1 5 1
02/23/06 7:41 p -12.1 -12.1 -12.1 --- --- 14.8 ENE 0.25 15.7 -21.8 --- --- 730.4 0.021 0.000 9.1 5 1
02/23/06 7:42 p -12.1 -12.1 -12.1 --- --- 14.8 ENE 0.25 15.7 -21.8 --- --- 730.5 0.021 0.000 9.1 5 1
02/23/06 7:43 p -12.1 -12.0 -12.1 --- --- 14.8 ENE 0.25 16.5 -21.7 --- --- 730.4 0.021 0.000 9.1 5 1
02/23/06 7:44 p -11.9 -11.9 -12.0 --- --- 14.8 ENE 0.25 15.7 -21.6 --- --- 730.5 0.021 0.000 9.1 5 1
02/23/06 7:45 p -11.9 -11.8 -11.9 --- --- 14.8 ENE 0.25 15.7 -21.5 --- --- 730.4 0.021 0.000 9.1 5 1
02/23/06 7:46 p -11.8 -11.8 -11.8 --- --- 14.8 ENE 0.25 15.7 -21.3 --- --- 730.3 0.021 0.000 9.1 5 1
02/23/06 7:47 p -11.8 -11.8 -11.8 --- --- 15.7 ENE 0.26 16.5 -21.6 --- --- 730.3 0.021 0.000 9.1 5 1
02/23/06 7:48 p -11.8 -11.7 -11.8 --- --- 15.7 ENE 0.26 17.4 -21.6 --- --- 730.4 0.021 0.000 9.1 5 1
02/23/06 7:49 p -11.7 -11.7 -11.8 --- --- 15.7 ENE 0.26 16.5 -21.6 --- --- 730.4 0.021 0.000 9.1 5 1
02/23/06 7:50 p -11.7 -11.7 -11.7 --- --- 15.7 ENE 0.26 16.5 -21.6 --- --- 730.5 0.021 0.000 9.1 5 1
02/23/06 7:51 p -11.7 -11.7 -11.7 --- --- 15.7 ENE 0.26 16.5 -21.6 --- --- 730.4 0.021 0.000 9.1 5 1
02/23/06 7:52 p -11.7 -11.7 -11.7 --- --- 15.7 ENE 0.26 16.5 -21.4 --- --- 730.3 0.021 0.000 9.1 5 1
02/23/06 7:53 p -11.7 -11.7 -11.7 --- --- 15.7 ENE 0.26 16.5 -21.4 --- --- 730.4 0.021 0.000 9.1 5 1
02/23/06 7:54 p -11.7 -11.7 -11.7 --- --- 15.7 ENE 0.26 16.5 -21.6 --- --- 730.3 0.021 0.000 9.1 5 1
02/23/06 7:55 p -11.7 -11.7 -11.7 --- --- 15.7 ENE 0.26 16.5 -21.6 --- --- 730.4 0.021 0.000 9.1 5 1
02/23/06 7:56 p -11.8 -11.7 -11.8 --- --- 15.7 ENE 0.26 17.4 -21.6 --- --- 730.5 0.021 0.000 9.1 5 1
02/23/06 7:57 p -11.8 -11.7 -11.8 --- --- 15.7 ENE 0.26 16.5 -21.6 --- --- 730.4 0.021 0.000 9.1 5 1
02/23/06 7:58 p -11.8 -11.8 -11.8 --- --- 14.8 ENE 0.25 16.5 -21.3 --- --- 730.4 0.021 0.000 9.1 5 1
02/23/06 7:59 p -11.8 -11.8 -11.8 --- --- 15.7 ENE 0.26 16.5 -21.6 --- --- 730.3 0.021 0.000 9.1 5 1
02/23/06 8:00 p -11.8 -11.8 -11.8 --- --- 16.5 ENE 0.28 17.4 -21.9 --- --- 730.4 0.021 0.000 9.1 5 1
02/23/06 8:01 p -11.9 -11.9 -11.9 --- --- 15.7 ENE 0.26 18.3 -21.7 --- --- 730.3 0.021 0.000 9.1 5 1
02/23/06 8:02 p -11.9 -11.9 -11.9 --- --- 15.7 ENE 0.26 16.5 -21.8 --- --- 730.4 0.021 0.000 9.1 5 1
02/23/06 8:03 p -11.9 -11.9 -11.9 --- --- 16.5 ENE 0.28 17.4 -22.1 --- --- 730.2 0.021 0.000 9.1 5 1
02/23/06 8:04 p -11.9 -11.9 -11.9 --- --- 16.5 ENE 0.28 17.4 -22.0 --- --- 730.3 0.021 0.000 9.1 5 1
02/23/06 8:05 p -11.9 -11.9 -12.0 --- --- 16.5 ENE 0.28 18.3 -22.1 --- --- 730.3 0.021 0.000 9.1 5 1
02/23/06 8:06 p -11.9 -11.9 -11.9 --- --- 15.7 ENE 0.26 16.5 -21.8 --- --- 730.4 0.021 0.000 9.1 5 1
02/23/06 8:07 p -12.0 -11.9 -12.0 --- --- 15.7 ENE 0.26 16.5 -21.9 --- --- 730.4 0.021 0.000 9.1 5 1
02/23/06 8:08 p -12.0 -12.0 -12.0 --- --- 16.5 ENE 0.28 17.4 -22.1 --- --- 730.4 0.021 0.000 9.1 5 1
02/23/06 8:09 p -12.1 -12.0 -12.1 --- --- 16.5 ENE 0.28 17.4 -22.2 --- --- 730.3 0.021 0.000 9.1 5 1
02/23/06 8:10 p -12.1 -12.1 -12.1 --- --- 16.5 ENE 0.28 18.3 -22.2 --- --- 730.3 0.021 0.000 9.1 5 1
02/23/06 8:11 p -12.1 -12.0 -12.1 --- --- 16.5 ENE 0.28 18.3 -22.2 --- --- 730.4 0.021 0.000 9.1 5 1
02/23/06 8:12 p -12.0 -12.0 -12.1 --- --- 16.5 ENE 0.28 18.3 -22.1 --- --- 730.3 0.021 0.000 9.1 5 1
02/23/06 8:13 p -12.0 -12.0 -12.1 --- --- 17.4 ENE 0.29 18.3 -22.4 --- --- 730.4 0.021 0.000 9.1 5 1
02/23/06 8:14 p -12.1 -12.1 -12.1 --- --- 17.4 ENE 0.29 18.3 -22.4 --- --- 730.4 0.021 0.000 9.1 5 1
02/23/06 8:15 p -12.1 -12.1 -12.1 --- --- 17.4 ENE 0.29 18.3 -22.5 --- --- 730.4 0.021 0.000 9.1 5 1
02/23/06 8:16 p -12.1 -12.1 -12.1 --- --- 16.5 ENE 0.28 18.3 -22.3 --- --- 730.4 0.021 0.000 9.1 5 1
02/23/06 8:17 p -12.1 -12.1 -12.2 --- --- 16.5 ENE 0.28 18.3 -22.3 --- --- 730.4 0.021 0.000 9.1 5 1
02/23/06 8:18 p -12.1 -12.1 -12.2 --- --- 16.5 ENE 0.28 18.3 -22.3 --- --- 730.4 0.021 0.000 9.1 5 1
02/23/06 8:19 p -12.2 -12.1 -12.2 --- --- 16.5 ENE 0.28 18.3 -22.3 --- --- 730.5 0.021 0.000 9.1 5 1
02/23/06 8:20 p -12.1 -12.1 -12.2 --- --- 17.4 ENE 0.29 18.3 -22.5 --- --- 730.4 0.021 0.000 9.1 5 1
02/23/06 8:21 p -12.1 -12.1 -12.2 --- --- 16.5 ENE 0.28 18.3 -22.3 --- --- 730.4 0.021 0.000 9.1 5 1
02/23/06 8:22 p -12.2 -12.1 -12.2 --- --- 17.4 ENE 0.29 18.3 -22.6 --- --- 730.4 0.021 0.000 9.1 5 1
02/23/06 8:23 p -12.2 -12.1 -12.2 --- --- 17.4 ENE 0.29 18.3 -22.6 --- --- 730.4 0.021 0.000 9.1 5 1
02/23/06 8:24 p -12.1 -12.1 -12.2 --- --- 17.4 ENE 0.29 18.3 -22.5 --- --- 730.4 0.021 0.000 9.1 5 1
02/23/06 8:25 p -12.1 -12.1 -12.2 --- --- 17.4 ENE 0.29 19.1 -22.5 --- --- 730.4 0.021 0.000 9.1 5 1
02/23/06 8:26 p -12.2 -12.2 -12.2 --- --- 17.4 ENE 0.29 19.1 -22.6 --- --- 730.3 0.021 0.000 9.1 5 1
02/23/06 8:27 p -12.2 -12.2 -12.3 --- --- 17.4 ENE 0.29 19.1 -22.7 --- --- 730.4 0.021 0.000 9.1 5 1
02/23/06 8:28 p -12.3 -12.3 -12.3 --- --- 18.3 ENE 0.30 20.0 -22.9 --- --- 730.3 0.021 0.000 9.1 5 1
02/23/06 8:29 p -12.3 -12.3 -12.3 --- --- 18.3 ENE 0.30 20.0 -23.0 --- --- 730.3 0.021 0.000 9.1 5 1
02/23/06 8:30 p -12.3 -12.3 -12.3 --- --- 18.3 ENE 0.30 19.1 -23.0 --- --- 730.4 0.021 0.000 9.1 5 1
02/23/06 8:31 p -12.4 -12.3 -12.4 --- --- 19.1 ENE 0.32 20.9 -23.3 --- --- 730.4 0.021 0.000 9.1 5 1
02/23/06 8:32 p -12.3 -12.3 -12.4 --- --- 18.3 ENE 0.30 20.9 -23.0 --- --- 730.3 0.021 0.000 9.1 5 1
02/23/06 8:33 p -12.3 -12.3 -12.3 --- --- 18.3 ENE 0.30 20.0 -23.0 --- --- 730.4 0.021 0.000 9.1 5 1
02/23/06 8:34 p -12.3 -12.3 -12.4 --- --- 20.0 ENE 0.33 20.9 -23.4 --- --- 730.3 0.021 0.000 9.1 5 1
02/23/06 8:35 p -12.4 -12.3 -12.4 --- --- 19.1 ENE 0.32 20.9 -23.3 --- --- 730.2 0.021 0.000 9.1 5 1
02/23/06 8:36 p -12.4 -12.3 -12.4 --- --- 19.1 E 0.32 20.9 -23.3 --- --- 730.3 0.021 0.000 9.1 5 1
02/23/06 8:37 p -12.4 -12.4 -12.4 --- --- 18.3 E 0.30 20.9 -23.1 --- --- 730.2 0.021 0.000 9.1 5 1
02/23/06 8:38 p -12.4 -12.4 -12.4 --- --- 20.0 ENE 0.33 21.7 -23.5 --- --- 730.3 0.021 0.000 9.1 5 1
02/23/06 8:39 p -12.4 -12.3 -12.4 --- --- 19.1 ENE 0.32 20.0 -23.3 --- --- 730.3 0.021 0.000 9.1 5 1
02/23/06 8:40 p -12.3 -12.3 -12.3 --- --- 19.1 ENE 0.32 20.9 -23.2 --- --- 730.3 0.021 0.000 9.1 5 1
02/23/06 8:41 p -12.3 -12.2 -12.3 --- --- 18.3 ENE 0.30 20.9 -22.9 --- --- 730.3 0.021 0.000 9.1 5 1
02/23/06 8:42 p -12.2 -12.2 -12.3 --- --- 20.0 ENE 0.33 20.9 -23.3 --- --- 730.3 0.021 0.000 9.1 5 1
02/23/06 8:43 p -12.3 -12.2 -12.3 --- --- 19.1 ENE 0.32 20.9 -23.2 --- --- 730.3 0.021 0.000 9.1 5 1
02/23/06 8:44 p -12.3 -12.3 -12.3 --- --- 18.3 ENE 0.30 20.9 -22.9 --- --- 730.2 0.021 0.000 9.1 5 1
02/23/06 8:45 p -12.2 -12.2 -12.2 --- --- 19.1 ENE 0.32 20.0 -23.1 --- --- 730.2 0.021 0.000 9.1 5 1
02/23/06 8:46 p -12.2 -12.2 -12.2 --- --- 20.0 ENE 0.33 20.9 -23.2 --- --- 730.2 0.021 0.000 9.1 5 1
02/23/06 8:47 p -12.2 -12.2 -12.2 --- --- 20.9 ENE 0.35 22.6 -23.5 --- --- 730.3 0.021 0.000 9.1 5 1
02/23/06 8:48 p -12.3 -12.2 -12.3 --- --- 20.0 ENE 0.33 21.7 -23.4 --- --- 730.3 0.021 0.000 9.1 5 1
02/23/06 8:49 p -12.3 -12.2 -12.3 --- --- 19.1 E 0.32 20.9 -23.2 --- --- 730.3 0.021 0.000 9.1 5 1
02/23/06 8:50 p -12.3 -12.3 -12.3 --- --- 20.0 ENE 0.33 21.7 -23.4 --- --- 730.2 0.021 0.000 9.1 5 1
02/23/06 8:51 p -12.3 -12.2 -12.3 --- --- 18.3 ENE 0.30 20.9 -22.9 --- --- 730.2 0.021 0.000 9.1 5 1
02/23/06 8:52 p -12.2 -12.2 -12.2 --- --- 18.3 E 0.30 20.9 -22.9 --- --- 730.3 0.021 0.000 9.1 5 1
02/23/06 8:53 p -12.2 -12.2 -12.2 --- --- 19.1 E 0.32 21.7 -23.1 --- --- 730.2 0.021 0.000 9.1 5 1
02/23/06 8:54 p -12.2 -12.2 -12.2 --- --- 18.3 E 0.30 20.0 -22.8 --- --- 730.2 0.021 0.000 9.1 5 1
02/23/06 8:55 p -12.2 -12.2 -12.2 --- --- 19.1 E 0.32 20.9 -23.0 --- --- 730.2 0.021 0.000 9.1 5 1
02/23/06 8:56 p -12.2 -12.2 -12.2 --- --- 18.3 E 0.30 20.9 -22.9 --- --- 730.3 0.021 0.000 9.1 5 1
02/23/06 8:57 p -12.2 -12.2 -12.2 --- --- 18.3 E 0.30 21.7 -22.8 --- --- 730.3 0.021 0.000 9.1 5 1
02/23/06 8:58 p -12.2 -12.1 -12.2 --- --- 17.4 E 0.29 21.7 -22.6 --- --- 730.2 0.021 0.000 9.1 5 1
02/23/06 8:59 p -12.1 -12.0 -12.1 --- --- 16.5 E 0.28 20.9 -22.2 --- --- 730.2 0.021 0.000 9.1 5 1
02/23/06 9:00 p -12.0 -12.0 -12.1 --- --- 18.3 E 0.30 20.0 -22.6 --- --- 730.1 0.021 0.000 9.1 5 1
02/23/06 9:01 p -12.0 -11.9 -12.1 --- --- 16.5 E 0.28 20.9 -22.1 --- --- 730.2 0.021 0.000 9.1 5 1
02/23/06 9:02 p -12.0 -11.9 -12.0 --- --- 18.3 E 0.30 20.9 -22.6 --- --- 730.3 0.021 0.000 9.1 5 1
02/23/06 9:03 p -12.1 -12.0 -12.1 --- --- 16.5 E 0.28 20.9 -22.2 --- --- 730.1 0.021 0.000 9.1 5 1
02/23/06 9:04 p -12.1 -12.1 -12.1 --- --- 20.0 E 0.33 22.6 -23.1 --- --- 730.2 0.021 0.000 9.1 5 1
02/23/06 9:05 p -12.1 -12.1 -12.2 --- --- 19.1 E 0.32 21.7 -22.9 --- --- 730.1 0.021 0.000 9.1 5 1
02/23/06 9:06 p -12.1 -12.1 -12.2 --- --- 19.1 E 0.32 21.7 -22.9 --- --- 730.2 0.021 0.000 9.1 5 1
02/23/06 9:07 p -12.1 -12.1 -12.1 --- --- 17.4 E 0.29 20.0 -22.5 --- --- 730.2 0.021 0.000 9.1 5 1
02/23/06 9:08 p -12.1 -12.1 -12.2 --- --- 19.1 E 0.32 21.7 -22.9 --- --- 730.1 0.021 0.000 9.1 5 1
02/23/06 9:09 p -12.2 -12.2 -12.3 --- --- 19.1 E 0.32 21.7 -23.1 --- --- 730.3 0.021 0.000 9.1 5 1
02/23/06 9:10 p -12.2 -12.2 -12.2 --- --- 17.4 E 0.29 20.0 -22.7 --- --- 730.2 0.021 0.000 9.1 5 1
02/23/06 9:11 p -12.1 -12.1 -12.1 --- --- 17.4 E 0.29 21.7 -22.5 --- --- 730.2 0.021 0.000 9.1 5 1
02/23/06 9:12 p -12.1 -12.1 -12.1 --- --- 18.3 E 0.30 21.7 -22.7 --- --- 730.2 0.021 0.000 9.1 5 1
02/23/06 9:13 p -12.1 -12.1 -12.1 --- --- 19.1 E 0.32 21.7 -22.9 --- --- 730.1 0.021 0.000 9.1 5 1
02/23/06 9:14 p -12.1 -12.1 -12.1 --- --- 16.5 E 0.28 20.9 -22.3 --- --- 730.2 0.021 0.000 9.1 5 1
02/23/06 9:15 p -12.1 -12.1 -12.1 --- --- 18.3 E 0.30 21.7 -22.7 --- --- 730.2 0.021 0.000 9.1 5 1
02/23/06 9:16 p -12.1 -12.1 -12.1 --- --- 16.5 E 0.28 20.9 -22.3 --- --- 730.2 0.021 0.000 9.1 5 1
02/23/06 9:17 p -12.1 -12.1 -12.1 --- --- 16.5 E 0.28 19.1 -22.2 --- --- 730.2 0.021 0.000 9.1 5 1
02/23/06 9:18 p -12.1 -12.1 -12.1 --- --- 16.5 E 0.28 19.1 -22.2 --- --- 730.2 0.021 0.000 9.1 5 1
02/23/06 9:19 p -12.1 -12.1 -12.1 --- --- 18.3 E 0.30 22.6 -22.7 --- --- 730.2 0.021 0.000 9.1 5 1
02/23/06 9:20 p -12.1 -12.1 -12.2 --- --- 19.1 E 0.32 21.7 -22.9 --- --- 730.2 0.021 0.000 9.1 5 1
02/23/06 9:21 p -12.2 -12.2 -12.2 --- --- 17.4 E 0.29 20.9 -22.6 --- --- 730.2 0.021 0.000 9.1 5 1
02/23/06 9:22 p -12.2 -12.2 -12.3 --- --- 16.5 E 0.28 21.7 -22.4 --- --- 730.2 0.021 0.000 9.1 5 1
02/23/06 9:23 p -12.3 -12.2 -12.3 --- --- 18.3 E 0.30 21.7 -22.9 --- --- 730.2 0.021 0.000 9.1 5 1
02/23/06 9:24 p -12.3 -12.3 -12.3 --- --- 18.3 E 0.30 21.7 -22.9 --- --- 730.2 0.021 0.000 9.1 5 1
02/23/06 9:25 p -12.3 -12.3 -12.3 --- --- 19.1 E 0.32 22.6 -23.2 --- --- 730.2 0.021 0.000 9.1 5 1
02/23/06 9:26 p -12.3 -12.3 -12.3 --- --- 17.4 E 0.29 21.7 -22.7 --- --- 730.2 0.021 0.000 9.1 5 1
02/23/06 9:27 p -12.3 -12.3 -12.3 --- --- 18.3 E 0.30 20.9 -23.0 --- --- 730.2 0.021 0.000 9.1 5 1
02/23/06 9:28 p -12.3 -12.3 -12.3 --- --- 18.3 E 0.30 22.6 -23.0 --- --- 730.3 0.021 0.000 9.1 5 1
02/23/06 9:29 p -12.3 -12.3 -12.4 --- --- 19.1 E 0.32 22.6 -23.2 --- --- 730.1 0.021 0.000 9.0 5 1
02/23/06 9:30 p -12.3 -12.3 -12.3 --- --- 19.1 E 0.32 21.7 -23.2 --- --- 730.2 0.021 0.000 9.0 5 1
02/23/06 9:31 p -12.3 -12.3 -12.4 --- --- 17.4 E 0.29 22.6 -22.8 --- --- 730.1 0.021 0.000 9.0 5 1
02/23/06 9:32 p -12.3 -12.3 -12.3 --- --- 17.4 E 0.29 20.9 -22.8 --- --- 730.2 0.021 0.000 9.1 5 1
02/23/06 9:33 p -12.3 -12.3 -12.4 --- --- 19.1 E 0.32 23.5 -23.2 --- --- 730.1 0.021 0.000 9.1 5 1
02/23/06 9:34 p -12.4 -12.3 -12.4 --- --- 19.1 E 0.32 21.7 -23.3 --- --- 730.2 0.021 0.000 9.1 5 1
02/23/06 9:35 p -12.4 -12.4 -12.4 --- --- 19.1 E 0.32 23.5 -23.3 --- --- 730.1 0.021 0.000 9.1 5 1
02/23/06 9:36 p -12.4 -12.4 -12.4 --- --- 19.1 E 0.32 21.7 -23.3 --- --- 730.1 0.021 0.000 9.1 5 1
02/23/06 9:37 p -12.4 -12.3 -12.4 --- --- 19.1 E 0.32 20.9 -23.3 --- --- 730.1 0.021 0.000 9.0 5 1
02/23/06 9:38 p -12.3 -12.3 -12.4 --- --- 18.3 E 0.30 22.6 -23.0 --- --- 730.1 0.021 0.000 9.0 5 1
02/23/06 9:39 p -12.3 -12.3 -12.3 --- --- 18.3 E 0.30 20.9 -23.0 --- --- 730.1 0.021 0.000 9.0 5 1
02/23/06 9:40 p -12.3 -12.3 -12.3 --- --- 18.3 E 0.30 21.7 -22.9 --- --- 730.2 0.021 0.000 9.1 5 1
02/23/06 9:41 p -12.3 -12.3 -12.4 --- --- 20.0 E 0.33 22.6 -23.4 --- --- 730.2 0.021 0.000 9.0 5 1
02/23/06 9:42 p -12.3 -12.3 -12.3 --- --- 19.1 E 0.32 22.6 -23.2 --- --- 730.2 0.021 0.000 9.0 5 1
02/23/06 9:43 p -12.3 -12.3 -12.3 --- --- 19.1 E 0.32 21.7 -23.2 --- --- 730.1 0.021 0.000 9.1 5 1
02/23/06 9:44 p -12.3 -12.2 -12.3 --- --- 17.4 E 0.29 21.7 -22.7 --- --- 730.1 0.021 0.000 9.0 5 1
02/23/06 9:45 p -12.2 -12.2 -12.2 --- --- 16.5 E 0.28 19.1 -22.4 --- --- 730.2 0.021 0.000 9.0 5 1
02/23/06 9:46 p -12.2 -12.1 -12.2 --- --- 17.4 E 0.29 21.7 -22.6 --- --- 730.1 0.021 0.000 9.0 5 1
02/23/06 9:47 p -12.1 -12.1 -12.1 --- --- 16.5 E 0.28 20.9 -22.3 --- --- 730.2 0.021 0.000 9.0 5 1
02/23/06 9:48 p -12.1 -12.1 -12.2 --- --- 18.3 E 0.30 20.0 -22.7 --- --- 730.2 0.021 0.000 9.0 5 1
02/23/06 9:49 p -12.2 -12.2 -12.2 --- --- 18.3 E 0.30 22.6 -22.8 --- --- 730.1 0.021 0.000 9.0 5 1
02/23/06 9:50 p -12.2 -12.1 -12.2 --- --- 18.3 E 0.30 20.0 -22.8 --- --- 730.1 0.021 0.000 9.0 5 1
02/23/06 9:51 p -12.1 -12.1 -12.2 --- --- 18.3 E 0.30 20.0 -22.7 --- --- 730.1 0.021 0.000 9.1 5 1
02/23/06 9:52 p -12.2 -12.1 -12.2 --- --- 17.4 E 0.29 20.9 -22.6 --- --- 730.2 0.021 0.000 9.0 5 1
02/23/06 9:53 p -12.2 -12.2 -12.2 --- --- 17.4 E 0.29 20.0 -22.7 --- --- 730.2 0.021 0.000 9.0 5 1
02/23/06 9:54 p -12.2 -12.2 -12.2 --- --- 17.4 E 0.29 20.0 -22.7 --- --- 730.2 0.021 0.000 9.0 5 1
02/23/06 9:55 p -12.1 -12.1 -12.2 --- --- 19.1 E 0.32 21.7 -22.9 --- --- 730.1 0.021 0.000 9.0 5 1
02/23/06 9:56 p -12.1 -12.1 -12.1 --- --- 17.4 E 0.29 20.9 -22.5 --- --- 730.1 0.021 0.000 9.0 5 1
02/23/06 9:57 p -12.1 -12.1 -12.1 --- --- 17.4 E 0.29 21.7 -22.5 --- --- 730.1 0.021 0.000 9.0 5 1
02/23/06 9:58 p -12.1 -12.1 -12.1 --- --- 19.1 E 0.32 21.7 -22.9 --- --- 730.2 0.021 0.000 9.0 5 1
02/23/06 9:59 p -12.1 -12.1 -12.1 --- --- 16.5 E 0.28 19.1 -22.2 --- --- 730.2 0.021 0.000 9.0 5 1
02/23/06 10:00 p -12.1 -12.1 -12.2 --- --- 20.0 E 0.33 23.5 -23.2 --- --- 730.2 0.021 0.000 9.0 5 1
02/23/06 10:01 p -12.2 -12.2 -12.2 --- --- 18.3 E 0.30 20.9 -22.8 --- --- 730.2 0.021 0.000 9.0 5 1
02/23/06 10:02 p -12.2 -12.1 -12.2 --- --- 18.3 E 0.30 22.6 -22.8 --- --- 730.2 0.021 0.000 9.0 5 1
02/23/06 10:03 p -12.1 -12.1 -12.2 --- --- 17.4 E 0.29 20.9 -22.5 --- --- 730.3 0.021 0.000 9.0 5 1
02/23/06 10:04 p -12.2 -12.1 -12.2 --- --- 17.4 E 0.29 20.9 -22.6 --- --- 730.1 0.021 0.000 9.0 5 1
02/23/06 10:05 p -12.1 -12.1 -12.2 --- --- 19.1 E 0.32 24.3 -22.9 --- --- 730.1 0.021 0.000 9.0 5 1
02/23/06 10:06 p -12.1 -12.1 -12.1 --- --- 20.9 E 0.35 24.3 -23.3 --- --- 730.2 0.021 0.000 9.0 5 1
02/23/06 10:07 p -12.1 -12.1 -12.1 --- --- 16.5 E 0.28 20.9 -22.3 --- --- 730.1 0.021 0.000 9.0 5 1
02/23/06 10:08 p -11.9 -11.9 -12.0 --- --- 16.5 ESE 0.28 20.9 -22.1 --- --- 730.1 0.021 0.000 9.0 5 1
02/23/06 10:09 p -11.9 -11.9 -11.9 --- --- 16.5 E 0.28 20.9 -22.0 --- --- 730.1 0.021 0.000 9.0 5 1
02/23/06 10:10 p -11.9 -11.9 -11.9 --- --- 18.3 E 0.30 21.7 -22.5 --- --- 730.1 0.021 0.000 9.0 5 1
02/23/06 10:11 p -11.9 -11.9 -12.0 --- --- 17.4 E 0.29 21.7 -22.3 --- --- 730.1 0.021 0.000 9.0 5 1
02/23/06 10:12 p -12.0 -12.0 -12.1 --- --- 17.4 E 0.29 20.9 -22.4 --- --- 730.1 0.021 0.000 9.0 5 1
02/23/06 10:13 p -12.0 -12.0 -12.1 --- --- 17.4 E 0.29 21.7 -22.4 --- --- 730.1 0.021 0.000 9.0 5 1
02/23/06 10:14 p -11.9 -11.9 -12.1 --- --- 17.4 E 0.29 23.5 -22.3 --- --- 730.1 0.021 0.000 9.0 5 1
02/23/06 10:15 p -11.8 -11.8 -11.9 --- --- 18.3 E 0.30 22.6 -22.4 --- --- 730.1 0.021 0.000 9.0 5 1
02/23/06 10:16 p -11.9 -11.9 -11.9 --- --- 17.4 E 0.29 20.9 -22.2 --- --- 730.1 0.021 0.000 9.0 5 1
02/23/06 10:17 p -11.8 -11.8 -11.9 --- --- 20.0 E 0.33 23.5 -22.8 --- --- 730.0 0.021 0.000 9.0 5 1
02/23/06 10:18 p -11.8 -11.7 -11.8 --- --- 17.4 E 0.29 20.0 -22.1 --- --- 730.0 0.021 0.000 9.0 5 1
02/23/06 10:19 p -11.7 -11.7 -11.7 --- --- 18.3 E 0.30 21.7 -22.2 --- --- 730.1 0.021 0.000 9.0 5 1
02/23/06 10:20 p -11.8 -11.8 -11.8 --- --- 18.3 E 0.30 20.9 -22.3 --- --- 730.0 0.021 0.000 9.0 5 1
02/23/06 10:21 p -11.8 -11.7 -11.8 --- --- 16.5 E 0.28 20.0 -21.8 --- --- 730.1 0.021 0.000 9.0 5 1
02/23/06 10:22 p -11.7 -11.7 -11.8 --- --- 18.3 E 0.30 20.9 -22.2 --- --- 730.0 0.021 0.000 9.0 5 1
02/23/06 10:23 p -11.8 -11.8 -11.9 --- --- 18.3 E 0.30 22.6 -22.3 --- --- 730.0 0.021 0.000 9.0 5 1
02/23/06 10:24 p -11.9 -11.9 -11.9 --- --- 20.0 E 0.33 22.6 -22.8 --- --- 730.0 0.021 0.000 9.0 5 1
02/23/06 10:25 p -11.9 -11.9 -12.0 --- --- 19.1 E 0.32 24.3 -22.7 --- --- 730.0 0.021 0.000 9.0 5 1
02/23/06 10:26 p -12.0 -11.9 -12.1 --- --- 18.3 E 0.30 22.6 -22.6 --- --- 730.1 0.021 0.000 9.0 5 1
02/23/06 10:27 p -12.1 -12.1 -12.1 --- --- 18.3 E 0.30 20.9 -22.7 --- --- 730.1 0.021 0.000 9.0 5 1
02/23/06 10:28 p -12.1 -12.1 -12.1 --- --- 19.1 E 0.32 23.5 -22.9 --- --- 730.1 0.021 0.000 9.0 5 1
02/23/06 10:29 p -12.1 -12.1 -12.1 --- --- 18.3 E 0.30 22.6 -22.7 --- --- 730.0 0.021 0.000 9.0 5 1
02/23/06 10:30 p -12.1 -12.1 -12.1 --- --- 19.1 E 0.32 23.5 -22.9 --- --- 730.0 0.021 0.000 9.0 5 1
02/23/06 10:31 p -12.1 -12.0 -12.1 --- --- 20.0 E 0.33 22.6 -23.1 --- --- 730.0 0.021 0.000 9.0 5 1
02/23/06 10:32 p -12.1 -12.0 -12.1 --- --- 19.1 E 0.32 22.6 -22.9 --- --- 730.1 0.021 0.000 9.0 5 1
02/23/06 10:33 p -12.0 -11.9 -12.0 --- --- 20.0 E 0.33 23.5 -23.0 --- --- 730.0 0.021 0.000 9.0 5 1
02/23/06 10:34 p -11.9 -11.9 -12.0 --- --- 20.0 E 0.33 25.2 -22.9 --- --- 730.0 0.021 0.000 9.0 5 1
02/23/06 10:35 p -12.0 -12.0 -12.1 --- --- 20.0 E 0.33 23.5 -23.0 --- --- 730.0 0.021 0.000 9.0 5 1
02/23/06 10:36 p -12.0 -12.0 -12.1 --- --- 20.0 E 0.33 22.6 -23.0 --- --- 730.0 0.021 0.000 9.0 5 1
02/23/06 10:37 p -12.0 -12.0 -12.1 --- --- 20.9 E 0.35 24.3 -23.2 --- --- 730.0 0.021 0.000 9.0 5 1
02/23/06 10:38 p -12.0 -11.9 -12.0 --- --- 20.9 E 0.35 26.1 -23.2 --- --- 730.0 0.021 0.000 9.0 5 1
02/23/06 10:39 p -12.0 -12.0 -12.1 --- --- 21.7 E 0.36 26.1 -23.4 --- --- 729.9 0.021 0.000 8.9 5 1
02/23/06 10:40 p -12.0 -11.9 -12.0 --- --- 20.0 E 0.33 24.3 -23.0 --- --- 729.9 0.021 0.000 8.9 5 1
02/23/06 10:41 p -11.9 -11.9 -11.9 --- --- 20.9 E 0.35 24.3 -23.1 --- --- 730.1 0.021 0.000 8.9 5 1
02/23/06 10:42 p -12.0 -12.0 -12.0 --- --- 24.3 E 0.41 27.0 -23.9 --- --- 730.1 0.021 0.000 8.9 5 1
02/23/06 10:43 p -12.0 -12.0 -12.1 --- --- 21.7 E 0.36 25.2 -23.4 --- --- 730.0 0.021 0.000 8.9 5 1
02/23/06 10:44 p -11.9 -11.9 -12.0 --- --- 22.6 E 0.38 25.2 -23.5 --- --- 730.0 0.021 0.000 8.9 5 1
02/23/06 10:45 p -11.9 -11.9 -11.9 --- --- 20.0 E 0.33 25.2 -22.8 --- --- 730.0 0.021 0.000 8.9 5 1
02/23/06 10:46 p -11.9 -11.9 -11.9 --- --- 21.7 E 0.36 24.3 -23.2 --- --- 730.0 0.021 0.000 8.9 5 1
02/23/06 10:47 p -11.8 -11.8 -11.9 --- --- 20.9 E 0.35 24.3 -22.9 --- --- 730.1 0.021 0.000 8.9 5 1
02/23/06 10:48 p -11.8 -11.8 -11.9 --- --- 20.9 E 0.35 25.2 -22.9 --- --- 730.1 0.021 0.000 8.9 5 1
02/23/06 10:49 p -11.9 -11.8 -12.0 --- --- 20.9 E 0.35 24.3 -23.1 --- --- 730.0 0.021 0.000 8.9 5 1
02/23/06 10:50 p -12.0 -12.0 -12.1 --- --- 22.6 E 0.38 25.2 -23.6 --- --- 730.1 0.021 0.000 8.9 5 1
02/23/06 10:51 p -12.1 -12.0 -12.1 --- --- 20.9 E 0.35 26.1 -23.3 --- --- 730.2 0.021 0.000 8.9 5 1
02/23/06 10:52 p -12.1 -12.0 -12.1 --- --- 20.0 E 0.33 25.2 -23.1 --- --- 730.0 0.021 0.000 8.9 5 1
02/23/06 10:53 p -12.1 -12.0 -12.1 --- --- 22.6 E 0.38 25.2 -23.7 --- --- 730.0 0.021 0.000 8.9 5 1
02/23/06 10:54 p -12.0 -12.0 -12.1 --- --- 20.9 E 0.35 25.2 -23.2 --- --- 730.1 0.021 0.000 8.9 5 1
02/23/06 10:55 p -12.0 -12.0 -12.0 --- --- 20.9 E 0.35 25.2 -23.2 --- --- 730.0 0.021 0.000 8.9 5 1
02/23/06 10:56 p -12.0 -12.0 -12.0 --- --- 21.7 E 0.36 24.3 -23.4 --- --- 730.0 0.021 0.000 8.9 5 1
02/23/06 10:57 p -12.0 -12.0 -12.1 --- --- 21.7 E 0.36 26.1 -23.4 --- --- 730.1 0.021 0.000 8.9 5 1
02/23/06 10:58 p -11.9 -11.9 -12.0 --- --- 21.7 E 0.36 26.1 -23.3 --- --- 730.0 0.021 0.000 8.9 5 1
02/23/06 10:59 p -12.0 -11.9 -12.1 --- --- 21.7 E 0.36 25.2 -23.4 --- --- 730.1 0.021 0.000 8.9 5 1
02/23/06 11:00 p -12.0 -11.9 -12.1 --- --- 22.6 E 0.38 26.1 -23.6 --- --- 730.1 0.021 0.000 8.9 5 1
02/23/06 11:01 p -11.9 -11.9 -11.9 --- --- 20.9 E 0.35 25.2 -23.1 --- --- 730.1 0.021 0.000 8.9 5 1
02/23/06 11:02 p -11.9 -11.9 -11.9 --- --- 21.7 E 0.36 23.5 -23.2 --- --- 730.1 0.021 0.000 8.9 5 1
02/23/06 11:03 p -11.9 -11.9 -11.9 --- --- 21.7 E 0.36 24.3 -23.2 --- --- 730.1 0.021 0.000 8.9 5 1
02/23/06 11:04 p -11.9 -11.9 -11.9 --- --- 19.1 E 0.32 23.5 -22.7 --- --- 730.1 0.021 0.000 8.9 5 1
02/23/06 11:05 p -11.9 -11.9 -11.9 --- --- 20.0 E 0.33 24.3 -22.8 --- --- 730.1 0.021 0.000 8.9 5 1
02/23/06 11:06 p -11.9 -11.9 -11.9 --- --- 20.9 E 0.35 23.5 -23.1 --- --- 730.1 0.021 0.000 8.9 5 1
02/23/06 11:07 p -11.9 -11.8 -11.9 --- --- 20.9 E 0.35 23.5 -23.1 --- --- 730.0 0.021 0.000 8.9 5 1
02/23/06 11:08 p -11.8 -11.8 -11.8 --- --- 21.7 E 0.36 23.5 -23.2 --- --- 730.1 0.021 0.000 8.9 5 1
02/23/06 11:09 p -11.7 -11.7 -11.8 --- --- 20.9 E 0.35 24.3 -22.8 --- --- 730.0 0.021 0.000 8.9 5 1
02/23/06 11:10 p -11.7 -11.7 -11.7 --- --- 20.0 E 0.33 23.5 -22.6 --- --- 730.0 0.021 0.000 8.9 5 1
02/23/06 11:11 p -11.7 -11.7 -11.7 --- --- 20.9 E 0.35 24.3 -22.7 --- --- 730.1 0.021 0.000 8.9 5 1
02/23/06 11:12 p -11.7 -11.7 -11.7 --- --- 20.9 E 0.35 23.5 -22.8 --- --- 730.0 0.021 0.000 8.9 5 1
02/23/06 11:13 p -11.7 -11.6 -11.7 --- --- 21.7 E 0.36 24.3 -22.9 --- --- 730.0 0.021 0.000 8.9 5 1
02/23/06 11:14 p -11.7 -11.7 -11.7 --- --- 20.9 E 0.35 25.2 -22.7 --- --- 730.0 0.021 0.000 8.9 5 1
02/23/06 11:15 p -11.6 -11.6 -11.7 --- --- 19.1 ESE 0.32 21.7 -22.3 --- --- 730.0 0.021 0.000 8.9 5 1
02/23/06 11:16 p -11.6 -11.6 -11.6 --- --- 20.0 E 0.33 22.6 -22.4 --- --- 730.0 0.021 0.000 8.9 5 1
02/23/06 11:17 p -11.6 -11.5 -11.6 --- --- 20.9 E 0.35 26.1 -22.6 --- --- 729.9 0.021 0.000 8.9 5 1
02/23/06 11:18 p -11.5 -11.5 -11.6 --- --- 20.9 E 0.35 23.5 -22.5 --- --- 729.9 0.021 0.000 8.9 5 1
02/23/06 11:19 p -11.4 -11.4 -11.5 --- --- 20.9 E 0.35 26.1 -22.4 --- --- 730.0 0.021 0.000 8.9 5 1
02/23/06 11:20 p -11.4 -11.3 -11.4 --- --- 18.3 E 0.30 23.5 -21.8 --- --- 730.0 0.021 0.000 8.9 5 1
02/23/06 11:21 p -11.3 -11.3 -11.3 --- --- 22.6 E 0.38 25.2 -22.7 --- --- 729.9 0.021 0.000 8.9 5 1
02/23/06 11:22 p -11.4 -11.3 -11.4 --- --- 20.9 E 0.35 24.3 -22.4 --- --- 729.9 0.021 0.000 8.9 5 1
02/23/06 11:23 p -11.3 -11.3 -11.4 --- --- 20.0 E 0.33 26.1 -22.1 --- --- 730.0 0.021 0.000 8.9 5 1
02/23/06 11:24 p -11.3 -11.3 -11.4 --- --- 20.9 E 0.35 25.2 -22.3 --- --- 729.9 0.021 0.000 8.9 5 1
02/23/06 11:25 p -11.4 -11.3 -11.4 --- --- 22.6 E 0.38 24.3 -22.7 --- --- 729.9 0.021 0.000 8.9 5 1
02/23/06 11:26 p -11.3 -11.3 -11.3 --- --- 20.0 E 0.33 23.5 -22.1 --- --- 729.9 0.021 0.000 8.9 5 1
02/23/06 11:27 p -11.3 -11.2 -11.3 --- --- 20.9 E 0.35 23.5 -22.2 --- --- 729.9 0.021 0.000 8.9 5 1
02/23/06 11:28 p -11.3 -11.2 -11.3 --- --- 19.1 E 0.32 22.6 -21.8 --- --- 729.9 0.021 0.000 8.9 5 1
02/23/06 11:29 p -11.2 -11.2 -11.2 --- --- 20.9 E 0.35 24.3 -22.2 --- --- 730.0 0.021 0.000 8.9 5 1
02/23/06 11:30 p -11.1 -11.0 -11.1 --- --- 21.7 E 0.36 26.1 -22.2 --- --- 729.9 0.020 0.000 8.9 5 1
02/23/06 11:31 p -11.1 -11.0 -11.2 --- --- 21.7 E 0.36 25.2 -22.1 --- --- 729.9 0.020 0.000 8.9 5 1
02/23/06 11:32 p -11.2 -11.2 -11.2 --- --- 19.1 E 0.32 22.6 -21.7 --- --- 729.9 0.020 0.000 8.9 5 1
02/23/06 11:33 p -11.1 -11.1 -11.2 --- --- 20.9 E 0.35 24.3 -22.0 --- --- 730.0 0.020 0.000 8.9 5 1
02/23/06 11:34 p -11.1 -11.1 -11.1 --- --- 21.7 E 0.36 25.2 -22.1 --- --- 729.9 0.020 0.000 8.9 5 1
02/23/06 11:35 p -11.1 -11.1 -11.1 --- --- 20.9 E 0.35 24.3 -22.0 --- --- 729.9 0.020 0.000 8.9 5 1
02/23/06 11:36 p -11.1 -11.1 -11.2 --- --- 19.1 E 0.32 23.5 -21.6 --- --- 729.9 0.020 0.000 8.9 5 1
02/23/06 11:37 p -11.1 -11.0 -11.1 --- --- 21.7 E 0.36 24.3 -22.1 --- --- 730.0 0.020 0.000 8.9 5 1
02/23/06 11:38 p -11.1 -11.1 -11.2 --- --- 20.9 E 0.35 23.5 -22.0 --- --- 729.9 0.020 0.000 8.9 5 1
02/23/06 11:39 p -11.1 -11.1 -11.2 --- --- 19.1 E 0.32 25.2 -21.6 --- --- 729.9 0.020 0.000 8.9 5 1
02/23/06 11:40 p -11.0 -11.0 -11.0 --- --- 21.7 E 0.36 26.1 -22.1 --- --- 729.9 0.020 0.000 8.9 5 1
02/23/06 11:41 p -11.1 -11.0 -11.1 --- --- 20.9 E 0.35 23.5 -21.9 --- --- 729.9 0.020 0.000 8.9 5 1
02/23/06 11:42 p -11.0 -10.9 -11.0 --- --- 19.1 E 0.32 22.6 -21.4 --- --- 730.0 0.020 0.000 8.9 5 1
02/23/06 11:43 p -10.9 -10.8 -10.9 --- --- 20.0 E 0.33 23.5 -21.5 --- --- 729.9 0.020 0.000 8.9 5 1
02/23/06 11:44 p -10.9 -10.9 -10.9 --- --- 20.0 E 0.33 27.0 -21.5 --- --- 729.9 0.020 0.000 8.8 5 1
02/23/06 11:45 p -10.8 -10.7 -10.9 --- --- 20.9 E 0.35 24.3 -21.6 --- --- 730.0 0.020 0.000 8.9 5 1
02/23/06 11:46 p -10.6 -10.6 -10.7 --- --- 20.0 E 0.33 23.5 -21.2 --- --- 729.9 0.020 0.000 8.9 5 1
02/23/06 11:47 p -10.7 -10.7 -10.7 --- --- 19.1 E 0.32 24.3 -21.1 --- --- 730.0 0.020 0.000 8.9 5 1
02/23/06 11:48 p -10.8 -10.7 -10.8 --- --- 20.0 E 0.33 24.3 -21.4 --- --- 730.0 0.020 0.000 8.9 5 1
02/23/06 11:49 p -10.9 -10.8 -10.9 --- --- 20.0 E 0.33 24.3 -21.5 --- --- 730.0 0.020 0.000 8.9 5 1
02/23/06 11:50 p -10.8 -10.8 -10.8 --- --- 20.9 E 0.35 24.3 -21.6 --- --- 730.0 0.020 0.000 8.9 5 1
02/23/06 11:51 p -10.7 -10.7 -10.8 --- --- 19.1 E 0.32 23.5 -21.1 --- --- 730.0 0.020 0.000 8.9 5 1
02/23/06 11:52 p -10.7 -10.7 -10.7 --- --- 20.9 E 0.35 23.5 -21.5 --- --- 730.0 0.020 0.000 8.9 5 1
02/23/06 11:53 p -10.7 -10.7 -10.7 --- --- 21.7 E 0.36 25.2 -21.7 --- --- 729.9 0.020 0.000 8.9 5 1
02/23/06 11:54 p -10.8 -10.7 -10.8 --- --- 20.9 E 0.35 23.5 -21.6 --- --- 730.0 0.020 0.000 8.8 5 1
02/23/06 11:55 p -10.8 -10.8 -10.8 --- --- 20.0 E 0.33 22.6 -21.4 --- --- 729.9 0.020 0.000 8.9 5 1
02/23/06 11:56 p -10.7 -10.7 -10.8 --- --- 20.0 E 0.33 23.5 -21.3 --- --- 729.9 0.020 0.000 8.9 5 1
02/23/06 11:57 p -10.6 -10.6 -10.6 --- --- 20.9 E 0.35 25.2 -21.3 --- --- 729.9 0.020 0.000 8.9 5 1
02/23/06 11:58 p -10.6 -10.6 -10.7 --- --- 20.0 E 0.33 22.6 -21.2 --- --- 729.9 0.020 0.000 8.9 5 1
02/23/06 11:59 p -10.7 -10.7 -10.8 --- --- 20.9 E 0.35 23.5 -21.5 --- --- 729.8 0.020 0.000 8.9 5 1
02/24/06 12:00 a -10.7 -10.7 -10.7 --- --- 21.7 E 0.36 24.3 -21.6 --- --- 729.8 0.020 0.000 8.9 5 1
02/24/06 12:01 a -10.6 -10.6 -10.7 --- --- 20.9 E 0.35 23.5 -21.3 --- --- 729.9 0.020 0.000 8.8 5 1
02/24/06 12:02 a -10.6 -10.6 -10.6 --- --- 20.0 E 0.33 22.6 -21.2 --- --- 729.8 0.020 0.000 8.9 5 1
02/24/06 12:03 a -10.7 -10.6 -10.7 --- --- 20.0 E 0.33 22.6 -21.2 --- --- 729.8 0.020 0.000 8.9 5 1
02/24/06 12:04 a -10.7 -10.6 -10.7 --- --- 20.0 E 0.33 22.6 -21.2 --- --- 729.8 0.020 0.000 8.9 5 1
02/24/06 12:05 a -10.6 -10.6 -10.6 --- --- 20.0 E 0.33 22.6 -21.2 --- --- 729.9 0.020 0.000 8.9 5 1
02/24/06 12:07 a -10.6 -10.6 -10.7 --- --- 19.1 E 0.32 20.9 -20.9 --- --- 729.9 0.020 0.000 8.9 5 1
02/24/06 12:08 a -10.7 -10.6 -10.7 --- --- 20.0 E 0.33 22.6 -21.2 --- --- 729.8 0.020 0.000 8.9 5 1
02/24/06 12:09 a -10.7 -10.7 -10.8 --- --- 20.9 E 0.35 24.3 -21.5 --- --- 729.8 0.020 0.000 8.8 5 1
02/24/06 12:10 a -10.6 -10.6 -10.7 --- --- 20.9 E 0.35 25.2 -21.3 --- --- 729.9 0.020 0.000 8.8 5 1
02/24/06 12:11 a -10.6 -10.6 -10.7 --- --- 20.0 E 0.33 24.3 -21.2 --- --- 729.8 0.020 0.000 8.8 5 1
02/24/06 12:12 a -10.7 -10.7 -10.8 --- --- 19.1 E 0.32 22.6 -21.1 --- --- 729.9 0.020 0.000 8.8 5 1
02/24/06 12:13 a -10.7 -10.7 -10.8 --- --- 19.1 E 0.32 24.3 -21.1 --- --- 729.7 0.020 0.000 8.8 5 1
02/24/06 12:14 a -10.8 -10.8 -10.9 --- --- 19.1 E 0.32 22.6 -21.3 --- --- 729.8 0.020 0.000 8.8 5 1
02/24/06 12:15 a -10.9 -10.8 -10.9 --- --- 19.1 E 0.32 23.5 -21.3 --- --- 729.8 0.020 0.000 8.8 5 1
02/24/06 12:16 a -10.9 -10.9 -10.9 --- --- 19.1 E 0.32 22.6 -21.3 --- --- 729.9 0.020 0.000 8.8 5 1
02/24/06 12:17 a -10.9 -10.9 -11.0 --- --- 20.0 E 0.33 23.5 -21.6 --- --- 729.8 0.020 0.000 8.8 5 1
02/24/06 12:18 a -10.8 -10.8 -10.9 --- --- 19.1 E 0.32 24.3 -21.3 --- --- 729.8 0.020 0.000 8.8 5 1
02/24/06 12:19 a -10.9 -10.8 -10.9 --- --- 20.0 E 0.33 22.6 -21.5 --- --- 729.8 0.020 0.000 8.8 5 1
02/24/06 12:20 a -11.0 -10.9 -11.1 --- --- 19.1 E 0.32 21.7 -21.4 --- --- 729.8 0.020 0.000 8.9 5 1
02/24/06 12:21 a -11.0 -11.0 -11.1 --- --- 18.3 E 0.30 21.7 -21.3 --- --- 729.9 0.020 0.000 8.9 5 1
02/24/06 12:22 a -10.9 -10.9 -11.0 --- --- 19.1 E 0.32 22.6 -21.4 --- --- 729.8 0.020 0.000 8.9 5 1
02/24/06 12:23 a -10.8 -10.8 -10.8 --- --- 19.1 E 0.32 23.5 -21.3 --- --- 729.9 0.020 0.000 8.9 5 1
02/24/06 12:24 a -10.8 -10.8 -10.9 --- --- 20.0 E 0.33 23.5 -21.4 --- --- 729.8 0.020 0.000 8.9 5 1
02/24/06 12:25 a -10.9 -10.8 -10.9 --- --- 20.0 E 0.33 23.5 -21.5 --- --- 729.8 0.020 0.000 8.9 5 1
02/24/06 12:26 a -11.0 -10.9 -11.1 --- --- 19.1 E 0.32 20.9 -21.4 --- --- 729.8 0.020 0.000 8.9 5 1
02/24/06 12:27 a -11.1 -11.0 -11.1 --- --- 21.7 E 0.36 26.1 -22.1 --- --- 729.9 0.020 0.000 8.9 5 1
02/24/06 12:28 a -11.1 -11.1 -11.1 --- --- 20.0 ESE 0.33 24.3 -21.7 --- --- 729.8 0.020 0.000 8.9 5 1
02/24/06 12:29 a -11.1 -11.1 -11.2 --- --- 20.9 E 0.35 23.5 -22.0 --- --- 729.8 0.020 0.000 8.9 5 1
02/24/06 12:30 a -11.2 -11.2 -11.2 --- --- 20.0 E 0.33 21.7 -21.9 --- --- 729.9 0.020 0.000 8.9 5 1
02/24/06 12:31 a -11.2 -11.2 -11.2 --- --- 20.9 E 0.35 24.3 -22.2 --- --- 729.8 0.021 0.000 8.9 5 1
02/24/06 12:32 a -11.3 -11.3 -11.3 --- --- 20.9 E 0.35 24.3 -22.2 --- --- 729.8 0.021 0.000 8.9 5 1
02/24/06 12:33 a -11.4 -11.3 -11.4 --- --- 19.1 E 0.32 23.5 -22.0 --- --- 729.8 0.021 0.000 8.9 5 1
02/24/06 12:34 a -11.4 -11.4 -11.4 --- --- 19.1 E 0.32 22.6 -22.0 --- --- 729.8 0.021 0.000 8.9 5 1
02/24/06 12:35 a -11.3 -11.3 -11.4 --- --- 19.1 E 0.32 23.5 -21.9 --- --- 729.8 0.021 0.000 8.9 5 1
02/24/06 12:36 a -11.2 -11.2 -11.3 --- --- 20.9 ESE 0.35 23.5 -22.2 --- --- 729.8 0.021 0.000 8.9 5 1
02/24/06 12:37 a -11.2 -11.2 -11.2 --- --- 22.6 E 0.38 28.7 -22.5 --- --- 729.6 0.021 0.000 8.9 5 1
02/24/06 12:38 a -11.3 -11.2 -11.3 --- --- 21.7 E 0.36 26.1 -22.4 --- --- 729.7 0.021 0.000 8.9 5 1
02/24/06 12:39 a -11.3 -11.3 -11.3 --- --- 22.6 E 0.38 26.1 -22.6 --- --- 729.8 0.021 0.000 8.9 5 1
02/24/06 12:40 a -11.3 -11.3 -11.4 --- --- 20.0 E 0.33 22.6 -22.1 --- --- 729.9 0.021 0.000 8.9 5 1
02/24/06 12:41 a -11.4 -11.4 -11.4 --- --- 20.0 E 0.33 23.5 -22.2 --- --- 729.8 0.021 0.000 8.9 5 1
02/24/06 12:42 a -11.4 -11.4 -11.4 --- --- 19.1 E 0.32 24.3 -22.1 --- --- 729.8 0.021 0.000 8.9 5 1
02/24/06 12:43 a -11.5 -11.4 -11.5 --- --- 20.9 E 0.35 23.5 -22.5 --- --- 729.8 0.021 0.000 8.9 6 1
02/24/06 12:44 a -11.4 -11.4 -11.5 --- --- 20.9 E 0.35 24.3 -22.4 --- --- 729.8 0.021 0.000 8.9 5 1
02/24/06 12:45 a -11.4 -11.4 -11.4 --- --- 20.9 E 0.35 25.2 -22.4 --- --- 729.8 0.021 0.000 8.9 5 1
02/24/06 12:46 a -11.4 -11.4 -11.4 --- --- 21.7 E 0.36 24.3 -22.7 --- --- 729.8 0.021 0.000 8.9 5 1
02/24/06 12:47 a -11.4 -11.4 -11.4 --- --- 19.1 E 0.32 22.6 -22.0 --- --- 729.9 0.021 0.000 8.9 5 1
02/24/06 12:48 a -11.4 -11.3 -11.4 --- --- 20.0 E 0.33 24.3 -22.2 --- --- 729.8 0.021 0.000 8.9 5 1
02/24/06 12:49 a -11.3 -11.3 -11.4 --- --- 21.7 E 0.36 25.2 -22.5 --- --- 729.7 0.021 0.000 8.9 6 1
02/24/06 12:50 a -11.3 -11.3 -11.3 --- --- 20.9 E 0.35 24.3 -22.3 --- --- 729.8 0.021 0.000 8.9 5 1
02/24/06 12:51 a -11.3 -11.2 -11.3 --- --- 20.9 E 0.35 24.3 -22.2 --- --- 729.6 0.021 0.000 8.9 5 1
02/24/06 12:52 a -11.3 -11.3 -11.3 --- --- 21.7 E 0.36 26.1 -22.5 --- --- 729.7 0.021 0.000 8.9 5 1
02/24/06 12:53 a -11.4 -11.3 -11.4 --- --- 20.0 E 0.33 23.5 -22.2 --- --- 729.8 0.021 0.000 8.9 5 1
02/24/06 12:54 a -11.4 -11.4 -11.5 --- --- 20.0 E 0.33 23.5 -22.3 --- --- 729.9 0.021 0.000 8.9 5 1
02/24/06 12:55 a -11.4 -11.4 -11.4 --- --- 19.1 E 0.32 25.2 -22.1 --- --- 729.7 0.021 0.000 8.9 5 1
02/24/06 12:56 a -11.3 -11.3 -11.4 --- --- 20.0 E 0.33 24.3 -22.1 --- --- 729.8 0.021 0.000 8.9 5 1
02/24/06 12:57 a -11.3 -11.2 -11.3 --- --- 20.0 E 0.33 23.5 -22.1 --- --- 729.8 0.021 0.000 8.9 5 1
02/24/06 12:58 a -11.2 -11.2 -11.2 --- --- 20.0 E 0.33 23.5 -21.9 --- --- 729.7 0.020 0.000 8.9 5 1
02/24/06 12:59 a -11.1 -11.0 -11.2 --- --- 20.9 E 0.35 23.5 -21.9 --- --- 729.8 0.020 0.000 8.9 5 1
02/24/06 1:00 a -11.1 -11.1 -11.1 --- --- 20.0 E 0.33 23.5 -21.7 --- --- 729.7 0.020 0.000 8.9 5 1
02/24/06 1:01 a -11.0 -10.9 -11.1 --- --- 20.0 E 0.33 24.3 -21.7 --- --- 729.7 0.020 0.000 8.9 5 1
02/24/06 1:02 a -11.0 -10.9 -11.0 --- --- 20.9 E 0.35 25.2 -21.8 --- --- 729.7 0.020 0.000 8.9 5 1
02/24/06 1:03 a -10.9 -10.9 -11.0 --- --- 21.7 E 0.36 24.3 -21.9 --- --- 729.7 0.020 0.000 8.9 5 1
02/24/06 1:04 a -10.8 -10.8 -10.9 --- --- 20.9 E 0.35 24.3 -21.7 --- --- 729.6 0.020 0.000 8.9 6 1
02/24/06 1:05 a -10.8 -10.8 -10.9 --- --- 22.6 E 0.38 25.2 -22.0 --- --- 729.7 0.020 0.000 8.9 6 1
02/24/06 1:06 a -10.8 -10.7 -10.8 --- --- 22.6 E 0.38 27.0 -21.9 --- --- 729.6 0.020 0.000 8.9 6 1
02/24/06 1:07 a -10.7 -10.7 -10.8 --- --- 21.7 E 0.36 26.1 -21.7 --- --- 729.6 0.020 0.000 8.9 5 1
02/24/06 1:08 a -10.8 -10.8 -10.8 --- --- 20.0 E 0.33 24.3 -21.4 --- --- 729.7 0.020 0.000 8.9 6 1
02/24/06 1:09 a -10.8 -10.8 -10.8 --- --- 21.7 E 0.36 25.2 -21.8 --- --- 729.6 0.020 0.000 8.9 6 1
02/24/06 1:10 a -10.8 -10.8 -10.8 --- --- 20.9 E 0.35 24.3 -21.7 --- --- 729.6 0.020 0.000 8.9 5 1
02/24/06 1:11 a -10.8 -10.8 -10.9 --- --- 20.9 E 0.35 27.0 -21.7 --- --- 729.7 0.020 0.000 8.9 5 1
02/24/06 1:12 a -10.9 -10.8 -10.9 --- --- 20.9 E 0.35 24.3 -21.7 --- --- 729.5 0.020 0.000 8.9 5 1
02/24/06 1:13 a -10.8 -10.8 -10.8 --- --- 20.9 E 0.35 24.3 -21.7 --- --- 729.7 0.020 0.000 8.9 6 1
02/24/06 1:14 a -10.9 -10.9 -10.9 --- --- 20.0 E 0.33 24.3 -21.6 --- --- 729.7 0.020 0.000 8.9 5 1
02/24/06 1:15 a -10.8 -10.8 -10.9 --- --- 20.9 E 0.35 26.1 -21.7 --- --- 729.8 0.020 0.000 8.9 6 1
02/24/06 1:16 a -10.9 -10.8 -10.9 --- --- 21.7 E 0.36 26.1 -21.9 --- --- 729.7 0.020 0.000 8.9 6 1
02/24/06 1:17 a -10.8 -10.8 -10.9 --- --- 20.9 E 0.35 25.2 -21.7 --- --- 729.7 0.020 0.000 8.9 6 1
02/24/06 1:18 a -10.8 -10.8 -10.9 --- --- 21.7 E 0.36 25.2 -21.8 --- --- 729.6 0.020 0.000 8.9 6 1
02/24/06 1:19 a -10.9 -10.9 -10.9 --- --- 22.6 E 0.38 26.1 -22.1 --- --- 729.6 0.020 0.000 8.8 6 1
02/24/06 1:20 a -10.9 -10.9 -10.9 --- --- 22.6 E 0.38 26.1 -22.1 --- --- 729.7 0.020 0.000 8.8 6 1
02/24/06 1:21 a -10.9 -10.9 -11.0 --- --- 20.9 E 0.35 23.5 -21.8 --- --- 729.7 0.020 0.000 8.8 6 1
02/24/06 1:22 a -11.0 -11.0 -11.0 --- --- 20.0 E 0.33 26.1 -21.7 --- --- 729.6 0.020 0.000 8.8 6 1
02/24/06 1:23 a -11.0 -10.9 -11.0 --- --- 22.6 E 0.38 28.7 -22.2 --- --- 729.5 0.020 0.000 8.8 6 1
02/24/06 1:24 a -10.9 -10.9 -11.0 --- --- 22.6 E 0.38 28.7 -22.2 --- --- 729.6 0.020 0.000 8.8 6 1
02/24/06 1:25 a -11.0 -10.9 -11.0 --- --- 23.5 E 0.39 27.8 -22.4 --- --- 729.6 0.020 0.000 8.8 6 1
02/24/06 1:26 a -11.0 -11.0 -11.0 --- --- 21.7 E 0.36 26.1 -22.1 --- --- 729.5 0.020 0.000 8.8 6 1
02/24/06 1:27 a -11.1 -11.1 -11.1 --- --- 21.7 E 0.36 26.1 -22.1 --- --- 729.6 0.020 0.000 8.8 6 1
02/24/06 1:28 a -11.1 -11.1 -11.1 --- --- 21.7 E 0.36 27.8 -22.1 --- --- 729.6 0.020 0.000 8.8 6 1
02/24/06 1:29 a -11.2 -11.1 -11.3 --- --- 20.9 E 0.35 23.5 -22.1 --- --- 729.6 0.020 0.000 8.8 6 1
02/24/06 1:30 a -11.3 -11.3 -11.3 --- --- 22.6 E 0.38 27.0 -22.6 --- --- 729.6 0.021 0.000 8.8 6 1
02/24/06 1:31 a -11.3 -11.3 -11.3 --- --- 22.6 E 0.38 26.1 -22.6 --- --- 729.5 0.021 0.000 8.8 6 1
02/24/06 1:32 a -11.2 -11.2 -11.2 --- --- 22.6 E 0.38 27.0 -22.5 --- --- 729.5 0.021 0.000 8.9 6 1
02/24/06 1:33 a -11.1 -11.1 -11.1 --- --- 22.6 E 0.38 27.0 -22.4 --- --- 729.6 0.020 0.000 8.9 6 1
02/24/06 1:34 a -11.2 -11.2 -11.2 --- --- 20.0 E 0.33 23.5 -21.9 --- --- 729.5 0.020 0.000 8.9 6 1
02/24/06 1:35 a -11.3 -11.3 -11.3 --- --- 21.7 E 0.36 24.3 -22.5 --- --- 729.6 0.021 0.000 8.9 6 1
02/24/06 1:36 a -11.3 -11.3 -11.3 --- --- 21.7 E 0.36 27.0 -22.4 --- --- 729.6 0.021 0.000 8.9 6 1
02/24/06 1:37 a -11.2 -11.1 -11.2 --- --- 21.7 E 0.36 25.2 -22.3 --- --- 729.6 0.020 0.000 8.9 6 1
02/24/06 1:38 a -11.1 -11.1 -11.1 --- --- 21.7 E 0.36 27.0 -22.2 --- --- 729.5 0.020 0.000 8.9 6 1
02/24/06 1:39 a -11.2 -11.1 -11.2 --- --- 21.7 E 0.36 27.0 -22.3 --- --- 729.6 0.020 0.000 8.9 6 1
02/24/06 1:40 a -11.2 -11.1 -11.2 --- --- 21.7 E 0.36 24.3 -22.3 --- --- 729.5 0.020 0.000 8.9 6 1
02/24/06 1:41 a -11.1 -11.0 -11.1 --- --- 20.0 E 0.33 23.5 -21.7 --- --- 729.6 0.020 0.000 8.9 6 1
02/24/06 1:42 a -11.1 -11.1 -11.1 --- --- 20.9 E 0.35 24.3 -21.9 --- --- 729.5 0.020 0.000 8.9 6 1
02/24/06 1:43 a -11.1 -11.1 -11.2 --- --- 22.6 E 0.38 25.2 -22.4 --- --- 729.5 0.020 0.000 8.9 6 1
02/24/06 1:44 a -11.2 -11.1 -11.2 --- --- 22.6 E 0.38 27.8 -22.4 --- --- 729.5 0.020 0.000 8.9 6 1
02/24/06 1:45 a -11.1 -11.1 -11.1 --- --- 21.7 E 0.36 26.1 -22.2 --- --- 729.6 0.020 0.000 8.9 6 1
02/24/06 1:46 a -11.0 -11.0 -11.0 --- --- 21.7 E 0.36 25.2 -22.1 --- --- 729.6 0.020 0.000 8.9 6 1
02/24/06 1:47 a -10.9 -10.9 -11.0 --- --- 20.9 E 0.35 24.3 -21.8 --- --- 729.5 0.020 0.000 8.9 6 1
02/24/06 1:48 a -10.9 -10.9 -10.9 --- --- 20.9 E 0.35 24.3 -21.7 --- --- 729.7 0.020 0.000 8.9 6 1
02/24/06 1:49 a -10.9 -10.9 -11.0 --- --- 20.0 E 0.33 24.3 -21.6 --- --- 729.6 0.020 0.000 8.9 6 1
02/24/06 1:50 a -11.1 -11.0 -11.1 --- --- 18.3 E 0.30 23.5 -21.3 --- --- 729.6 0.020 0.000 8.9 6 1
02/24/06 1:51 a -11.1 -11.0 -11.1 --- --- 20.9 E 0.35 24.3 -21.9 --- --- 729.5 0.020 0.000 8.9 6 1
02/24/06 1:52 a -11.0 -11.0 -11.1 --- --- 20.9 E 0.35 24.3 -21.8 --- --- 729.5 0.020 0.000 8.9 6 1
02/24/06 1:53 a -11.0 -11.0 -11.1 --- --- 20.9 E 0.35 24.3 -21.8 --- --- 729.5 0.020 0.000 8.9 6 1
02/24/06 1:54 a -11.1 -11.0 -11.1 --- --- 21.7 E 0.36 22.6 -22.1 --- --- 729.5 0.020 0.000 8.9 6 1
02/24/06 1:55 a -11.0 -11.0 -11.1 --- --- 20.9 E 0.35 24.3 -21.8 --- --- 729.5 0.020 0.000 8.9 6 1
02/24/06 1:56 a -11.0 -11.0 -11.1 --- --- 20.9 E 0.35 23.5 -21.8 --- --- 729.5 0.020 0.000 8.9 6 1
02/24/06 1:57 a -11.0 -11.0 -11.1 --- --- 20.0 E 0.33 24.3 -21.7 --- --- 729.5 0.020 0.000 8.9 6 1
02/24/06 1:58 a -11.2 -11.1 -11.2 --- --- 21.7 E 0.36 26.1 -22.3 --- --- 729.4 0.020 0.000 8.9 6 1
02/24/06 1:59 a -11.2 -11.1 -11.2 --- --- 22.6 E 0.38 26.1 -22.4 --- --- 729.5 0.020 0.000 8.9 6 1
02/24/06 2:00 a -11.2 -11.2 -11.3 --- --- 22.6 E 0.38 27.8 -22.5 --- --- 729.5 0.021 0.000 8.9 6 1
02/24/06 2:01 a -11.3 -11.3 -11.3 --- --- 21.7 E 0.36 24.3 -22.4 --- --- 729.5 0.021 0.000 8.9 6 1
02/24/06 2:02 a -11.5 -11.4 -11.6 --- --- 21.7 E 0.36 25.2 -22.7 --- --- 729.5 0.021 0.000 8.9 6 1
02/24/06 2:03 a -11.7 -11.6 -11.7 --- --- 22.6 E 0.38 26.1 -23.1 --- --- 729.3 0.021 0.000 8.9 6 1
02/24/06 2:04 a -11.7 -11.6 -11.7 --- --- 23.5 E 0.39 26.1 -23.3 --- --- 729.4 0.021 0.000 8.9 6 1
02/24/06 2:05 a -11.6 -11.6 -11.7 --- --- 20.9 E 0.35 25.2 -22.7 --- --- 729.5 0.021 0.000 8.9 6 1
02/24/06 2:06 a -11.7 -11.7 -11.7 --- --- 21.7 E 0.36 25.2 -23.0 --- --- 729.5 0.021 0.000 8.8 6 1
02/24/06 2:07 a -11.7 -11.7 -11.7 --- --- 23.5 E 0.39 29.6 -23.4 --- --- 729.3 0.021 0.000 8.8 6 1
02/24/06 2:08 a -11.7 -11.7 -11.7 --- --- 22.6 E 0.38 26.1 -23.2 --- --- 729.4 0.021 0.000 8.8 6 1
02/24/06 2:09 a -11.7 -11.7 -11.8 --- --- 23.5 E 0.39 26.1 -23.4 --- --- 729.4 0.021 0.000 8.8 6 1
02/24/06 2:10 a -11.8 -11.8 -11.8 --- --- 20.9 E 0.35 26.1 -22.9 --- --- 729.4 0.021 0.000 8.8 6 1
02/24/06 2:11 a -11.8 -11.8 -11.9 --- --- 21.7 E 0.36 22.6 -23.2 --- --- 729.4 0.021 0.000 8.8 5 1
02/24/06 2:12 a -11.8 -11.8 -11.9 --- --- 23.5 E 0.39 26.1 -23.5 --- --- 729.3 0.021 0.000 8.8 5 1
02/24/06 2:13 a -11.7 -11.7 -11.7 --- --- 24.3 E 0.41 27.8 -23.6 --- --- 729.3 0.021 0.000 8.8 6 1
02/24/06 2:14 a -11.7 -11.6 -11.7 --- --- 22.6 E 0.38 26.1 -23.1 --- --- 729.3 0.021 0.000 8.8 6 1
02/24/06 2:15 a -11.7 -11.7 -11.7 --- --- 23.5 E 0.39 27.0 -23.3 --- --- 729.4 0.021 0.000 8.8 6 1
02/24/06 2:16 a -11.7 -11.7 -11.7 --- --- 21.7 E 0.36 24.3 -23.0 --- --- 729.3 0.021 0.000 8.8 5 1
02/24/06 2:17 a -11.7 -11.7 -11.7 --- --- 22.6 E 0.38 27.0 -23.1 --- --- 729.4 0.021 0.000 8.8 5 1
02/24/06 2:18 a -11.7 -11.7 -11.7 --- --- 23.5 E 0.39 27.0 -23.3 --- --- 729.2 0.021 0.000 8.8 5 1
02/24/06 2:19 a -11.6 -11.6 -11.7 --- --- 21.7 E 0.36 24.3 -22.9 --- --- 729.3 0.021 0.000 8.8 5 1
02/24/06 2:20 a -11.7 -11.6 -11.7 --- --- 23.5 E 0.39 26.1 -23.3 --- --- 729.3 0.021 0.000 8.8 5 1
02/24/06 2:21 a -11.6 -11.6 -11.7 --- --- 22.6 E 0.38 27.0 -23.1 --- --- 729.2 0.021 0.000 8.8 5 1
02/24/06 2:22 a -11.7 -11.7 -11.7 --- --- 22.6 E 0.38 27.0 -23.2 --- --- 729.3 0.021 0.000 8.8 6 1
02/24/06 2:23 a -11.8 -11.8 -11.8 --- --- 23.5 E 0.39 27.8 -23.4 --- --- 729.3 0.021 0.000 8.8 6 1
02/24/06 2:24 a -11.7 -11.6 -11.8 --- --- 20.9 E 0.35 25.2 -22.7 --- --- 729.2 0.021 0.000 8.8 5 1
02/24/06 2:25 a -11.6 -11.6 -11.7 --- --- 23.5 E 0.39 27.0 -23.2 --- --- 729.3 0.021 0.000 8.8 5 1
02/24/06 2:26 a -11.6 -11.6 -11.7 --- --- 22.6 E 0.38 27.8 -23.1 --- --- 729.3 0.021 0.000 8.8 5 1
02/24/06 2:27 a -11.6 -11.5 -11.6 --- --- 22.6 E 0.38 27.0 -22.9 --- --- 729.3 0.021 0.000 8.8 5 1
02/24/06 2:28 a -11.6 -11.6 -11.6 --- --- 21.7 E 0.36 25.2 -22.8 --- --- 729.3 0.021 0.000 8.8 5 1
02/24/06 2:29 a -11.6 -11.6 -11.6 --- --- 22.6 E 0.38 26.1 -22.9 --- --- 729.2 0.021 0.000 8.8 5 1
02/24/06 2:30 a -11.5 -11.4 -11.6 --- --- 23.5 E 0.39 27.8 -23.1 --- --- 729.2 0.021 0.000 8.8 5 1
02/24/06 2:31 a -11.4 -11.4 -11.4 --- --- 22.6 E 0.38 26.1 -22.8 --- --- 729.2 0.021 0.000 8.8 5 1
02/24/06 2:32 a -11.4 -11.4 -11.4 --- --- 22.6 E 0.38 26.1 -22.8 --- --- 729.3 0.021 0.000 8.8 5 1
02/24/06 2:33 a -11.6 -11.4 -11.6 --- --- 22.6 E 0.38 29.6 -22.9 --- --- 729.2 0.021 0.000 8.8 5 1
02/24/06 2:34 a -11.5 -11.5 -11.5 --- --- 22.6 ESE 0.38 27.0 -22.9 --- --- 729.1 0.021 0.000 8.8 5 1
02/24/06 2:35 a -11.5 -11.5 -11.6 --- --- 24.3 E 0.41 27.8 -23.2 --- --- 729.2 0.021 0.000 8.8 5 1
02/24/06 2:36 a -11.6 -11.6 -11.6 --- --- 22.6 E 0.38 27.0 -22.9 --- --- 729.1 0.021 0.000 8.8 5 1
02/24/06 2:37 a -11.6 -11.6 -11.6 --- --- 22.6 E 0.38 26.1 -23.1 --- --- 729.1 0.021 0.000 8.8 5 1
02/24/06 2:38 a -11.7 -11.7 -11.7 --- --- 23.5 E 0.39 27.0 -23.3 --- --- 729.1 0.021 0.000 8.8 5 1
02/24/06 2:39 a -11.7 -11.7 -11.8 --- --- 23.5 E 0.39 27.0 -23.4 --- --- 729.1 0.021 0.000 8.8 5 1
02/24/06 2:40 a -11.7 -11.7 -11.7 --- --- 24.3 E 0.41 27.8 -23.6 --- --- 729.1 0.021 0.000 8.8 6 1
02/24/06 2:41 a -11.7 -11.7 -11.8 --- --- 23.5 E 0.39 27.8 -23.4 --- --- 729.1 0.021 0.000 8.8 5 1
02/24/06 2:42 a -11.6 -11.6 -11.7 --- --- 23.5 E 0.39 27.0 -23.2 --- --- 729.1 0.021 0.000 8.8 5 1
02/24/06 2:43 a -11.7 -11.7 -11.7 --- --- 24.3 E 0.41 27.0 -23.4 --- --- 729.0 0.021 0.000 8.8 5 1
02/24/06 2:44 a -11.7 -11.7 -11.8 --- --- 22.6 E 0.38 27.0 -23.2 --- --- 729.0 0.021 0.000 8.8 5 1
02/24/06 2:45 a -11.7 -11.7 -11.7 --- --- 24.3 E 0.41 27.0 -23.6 --- --- 729.0 0.021 0.000 8.8 5 1
02/24/06 2:46 a -11.7 -11.6 -11.7 --- --- 24.3 E 0.41 27.0 -23.4 --- --- 729.0 0.021 0.000 8.8 5 1
02/24/06 2:47 a -11.6 -11.6 -11.6 --- --- 24.3 E 0.41 29.6 -23.4 --- --- 729.1 0.021 0.000 8.8 5 1
02/24/06 2:48 a -11.6 -11.6 -11.6 --- --- 24.3 E 0.41 27.8 -23.4 --- --- 729.1 0.021 0.000 8.8 5 1
02/24/06 2:49 a -11.7 -11.6 -11.7 --- --- 23.5 E 0.39 27.8 -23.3 --- --- 729.0 0.021 0.000 8.8 5 1
02/24/06 2:50 a -11.7 -11.7 -11.8 --- --- 25.2 E 0.42 28.7 -23.6 --- --- 729.1 0.021 0.000 8.8 5 1
02/24/06 2:51 a -11.8 -11.8 -11.8 --- --- 23.5 E 0.39 30.4 -23.4 --- --- 729.1 0.021 0.000 8.8 5 1
02/24/06 2:52 a -11.8 -11.8 -11.8 --- --- 24.3 E 0.41 27.8 -23.6 --- --- 729.0 0.021 0.000 8.8 5 1
02/24/06 2:53 a -11.8 -11.8 -11.8 --- --- 24.3 E 0.41 29.6 -23.6 --- --- 729.0 0.021 0.000 8.8 5 1
02/24/06 2:54 a -11.8 -11.8 -11.8 --- --- 25.2 E 0.42 28.7 -23.8 --- --- 729.1 0.021 0.000 8.8 5 1
02/24/06 2:55 a -11.8 -11.8 -11.9 --- --- 25.2 E 0.42 27.8 -23.8 --- --- 729.1 0.021 0.000 8.8 5 1
02/24/06 2:56 a -11.9 -11.9 -11.9 --- --- 25.2 E 0.42 29.6 -23.9 --- --- 728.9 0.021 0.000 8.8 5 1
02/24/06 2:57 a -11.9 -11.9 -11.9 --- --- 26.1 E 0.43 29.6 -24.1 --- --- 728.9 0.021 0.000 8.8 5 1
02/24/06 2:58 a -11.9 -11.9 -12.0 --- --- 24.3 E 0.41 27.0 -23.8 --- --- 729.0 0.021 0.000 8.8 5 1
02/24/06 2:59 a -11.9 -11.9 -11.9 --- --- 23.5 ESE 0.39 27.0 -23.7 --- --- 729.1 0.021 0.000 8.8 5 1
02/24/06 3:00 a -11.9 -11.9 -11.9 --- --- 24.3 E 0.41 29.6 -23.8 --- --- 729.0 0.021 0.000 8.8 5 1
02/24/06 3:01 a -12.1 -12.1 -12.1 --- --- 23.5 E 0.39 27.8 -23.8 --- --- 729.1 0.021 0.000 8.8 5 1
02/24/06 3:02 a -12.1 -12.1 -12.1 --- --- 23.5 E 0.39 27.8 -23.9 --- --- 729.1 0.021 0.000 8.8 5 1
02/24/06 3:03 a -12.1 -12.1 -12.1 --- --- 23.5 E 0.39 26.1 -23.9 --- --- 729.1 0.021 0.000 8.8 5 1
02/24/06 3:04 a -12.2 -12.2 -12.2 --- --- 25.2 E 0.42 27.8 -24.3 --- --- 729.0 0.021 0.000 8.8 5 1
02/24/06 3:05 a -12.2 -12.1 -12.2 --- --- 24.3 E 0.41 27.8 -24.2 --- --- 729.0 0.021 0.000 8.8 5 1
02/24/06 3:06 a -12.2 -12.2 -12.2 --- --- 24.3 E 0.41 28.7 -24.2 --- --- 729.1 0.021 0.000 8.8 5 1
02/24/06 3:07 a -12.1 -11.9 -12.1 --- --- 21.7 E 0.36 26.1 -23.4 --- --- 729.0 0.021 0.000 8.8 5 1
02/24/06 3:08 a -11.9 -11.9 -11.9 --- --- 23.5 E 0.39 27.8 -23.7 --- --- 729.0 0.021 0.000 8.8 5 1
02/24/06 3:09 a -11.8 -11.8 -11.9 --- --- 23.5 E 0.39 27.0 -23.5 --- --- 729.0 0.021 0.000 8.8 5 1
02/24/06 3:10 a -11.9 -11.8 -11.9 --- --- 23.5 E 0.39 26.1 -23.6 --- --- 729.0 0.021 0.000 8.8 5 1
02/24/06 3:11 a -11.9 -11.8 -11.9 --- --- 22.6 E 0.38 27.8 -23.4 --- --- 729.0 0.021 0.000 8.8 5 1
02/24/06 3:12 a -11.8 -11.8 -11.8 --- --- 21.7 E 0.36 25.2 -23.2 --- --- 728.9 0.021 0.000 8.8 5 1
02/24/06 3:13 a -11.8 -11.8 -11.9 --- --- 23.5 E 0.39 26.1 -23.5 --- --- 729.0 0.021 0.000 8.8 5 1
02/24/06 3:14 a -11.9 -11.9 -11.9 --- --- 22.6 E 0.38 26.1 -23.4 --- --- 729.0 0.021 0.000 8.8 5 1
02/24/06 3:15 a -12.0 -11.9 -12.1 --- --- 22.6 E 0.38 27.0 -23.6 --- --- 729.0 0.021 0.000 8.8 5 1
02/24/06 3:16 a -12.0 -11.9 -12.1 --- --- 21.7 E 0.36 25.2 -23.4 --- --- 728.9 0.021 0.000 8.8 5 1
02/24/06 3:17 a -11.9 -11.8 -11.9 --- --- 24.3 E 0.41 27.0 -23.8 --- --- 728.9 0.021 0.000 8.8 5 1
02/24/06 3:18 a -11.8 -11.8 -11.9 --- --- 23.5 E 0.39 27.0 -23.5 --- --- 728.9 0.021 0.000 8.8 5 1
02/24/06 3:19 a -11.9 -11.9 -11.9 --- --- 24.3 E 0.41 28.7 -23.8 --- --- 728.8 0.021 0.000 8.8 5 1
02/24/06 3:20 a -11.9 -11.9 -11.9 --- --- 22.6 E 0.38 26.1 -23.4 --- --- 728.9 0.021 0.000 8.8 5 1
02/24/06 3:21 a -11.9 -11.8 -11.9 --- --- 21.7 E 0.36 27.8 -23.2 --- --- 728.9 0.021 0.000 8.8 5 1
02/24/06 3:22 a -11.9 -11.8 -11.9 --- --- 24.3 E 0.41 26.1 -23.8 --- --- 728.9 0.021 0.000 8.8 5 1
02/24/06 3:23 a -11.8 -11.8 -11.9 --- --- 20.9 E 0.35 27.8 -22.9 --- --- 728.8 0.021 0.000 8.8 5 1
02/24/06 3:24 a -11.8 -11.7 -11.8 --- --- 25.2 E 0.42 29.6 -23.8 --- --- 728.8 0.021 0.000 8.8 5 1
02/24/06 3:25 a -11.8 -11.8 -11.9 --- --- 24.3 E 0.41 27.8 -23.7 --- --- 728.8 0.021 0.000 8.8 5 1
02/24/06 3:26 a -11.9 -11.9 -11.9 --- --- 24.3 E 0.41 28.7 -23.8 --- --- 728.9 0.021 0.000 8.8 5 1
02/24/06 3:27 a -11.9 -11.8 -11.9 --- --- 25.2 E 0.42 28.7 -23.9 --- --- 728.8 0.021 0.000 8.8 5 1
02/24/06 3:28 a -11.8 -11.8 -11.9 --- --- 23.5 E 0.39 26.1 -23.5 --- --- 728.9 0.021 0.000 8.8 5 1
02/24/06 3:29 a -11.8 -11.8 -11.8 --- --- 24.3 E 0.41 28.7 -23.6 --- --- 728.9 0.021 0.000 8.8 5 1
02/24/06 3:30 a -11.8 -11.7 -11.8 --- --- 25.2 E 0.42 28.7 -23.8 --- --- 728.8 0.021 0.000 8.8 5 1
02/24/06 3:31 a -11.7 -11.7 -11.7 --- --- 24.3 E 0.41 27.8 -23.6 --- --- 728.8 0.021 0.000 8.8 5 1
02/24/06 3:32 a -11.7 -11.7 -11.7 --- --- 25.2 E 0.42 30.4 -23.7 --- --- 728.9 0.021 0.000 8.8 5 1
02/24/06 3:33 a -11.7 -11.7 -11.7 --- --- 25.2 E 0.42 28.7 -23.6 --- --- 728.8 0.021 0.000 8.8 5 1
02/24/06 3:34 a -11.6 -11.6 -11.7 --- --- 24.3 E 0.41 28.7 -23.4 --- --- 728.9 0.021 0.000 8.8 5 1
02/24/06 3:35 a -11.6 -11.6 -11.6 --- --- 25.2 E 0.42 27.8 -23.5 --- --- 728.9 0.021 0.000 8.8 5 1
02/24/06 3:36 a -11.5 -11.5 -11.6 --- --- 25.2 E 0.42 28.7 -23.4 --- --- 728.8 0.021 0.000 8.8 5 1
02/24/06 3:37 a -11.5 -11.5 -11.6 --- --- 25.2 E 0.42 28.7 -23.4 --- --- 728.8 0.021 0.000 8.8 5 1
02/24/06 3:38 a -11.4 -11.4 -11.5 --- --- 26.1 E 0.43 28.7 -23.5 --- --- 728.8 0.021 0.000 8.8 5 1
02/24/06 3:39 a -11.6 -11.5 -11.6 --- --- 26.1 E 0.43 28.7 -23.7 --- --- 728.8 0.021 0.000 8.8 5 1
02/24/06 3:40 a -11.6 -11.5 -11.6 --- --- 25.2 E 0.42 28.7 -23.5 --- --- 728.8 0.021 0.000 8.8 5 1
02/24/06 3:41 a -11.6 -11.5 -11.6 --- --- 26.1 E 0.43 28.7 -23.7 --- --- 728.8 0.021 0.000 8.8 5 1
02/24/06 3:42 a -11.6 -11.6 -11.7 --- --- 23.5 E 0.39 26.1 -23.2 --- --- 728.8 0.021 0.000 8.8 5 1
02/24/06 3:43 a -11.6 -11.6 -11.7 --- --- 25.2 E 0.42 28.7 -23.6 --- --- 728.8 0.021 0.000 8.8 5 1
02/24/06 3:44 a -11.6 -11.6 -11.6 --- --- 25.2 E 0.42 27.8 -23.5 --- --- 728.9 0.021 0.000 8.8 5 1
02/24/06 3:45 a -11.6 -11.6 -11.6 --- --- 25.2 E 0.42 27.8 -23.6 --- --- 728.8 0.021 0.000 8.8 5 1
02/24/06 3:46 a -11.7 -11.7 -11.7 --- --- 24.3 E 0.41 27.8 -23.4 --- --- 728.8 0.021 0.000 8.8 5 1
02/24/06 3:47 a -11.7 -11.7 -11.7 --- --- 24.3 E 0.41 27.8 -23.6 --- --- 728.8 0.021 0.000 8.8 5 1
02/24/06 3:48 a -11.7 -11.7 -11.8 --- --- 26.1 E 0.43 27.8 -23.9 --- --- 728.9 0.021 0.000 8.8 5 1
02/24/06 3:49 a -11.7 -11.7 -11.7 --- --- 24.3 E 0.41 28.7 -23.6 --- --- 728.8 0.021 0.000 8.7 5 1
02/24/06 3:50 a -11.7 -11.7 -11.7 --- --- 24.3 E 0.41 27.0 -23.4 --- --- 728.7 0.021 0.000 8.7 5 1
02/24/06 3:51 a -11.6 -11.6 -11.7 --- --- 23.5 E 0.39 27.8 -23.2 --- --- 728.8 0.021 0.000 8.7 5 1
02/24/06 3:52 a -11.6 -11.6 -11.6 --- --- 24.3 E 0.41 27.0 -23.4 --- --- 728.8 0.021 0.000 8.7 5 1
02/24/06 3:53 a -11.6 -11.6 -11.7 --- --- 24.3 E 0.41 27.8 -23.4 --- --- 728.8 0.021 0.000 8.7 5 1
02/24/06 3:54 a -11.6 -11.6 -11.7 --- --- 24.3 E 0.41 28.7 -23.4 --- --- 728.8 0.021 0.000 8.7 5 1
02/24/06 3:55 a -11.6 -11.5 -11.6 --- --- 24.3 E 0.41 27.8 -23.3 --- --- 728.8 0.021 0.000 8.7 5 1
02/24/06 3:56 a -11.4 -11.4 -11.5 --- --- 23.5 E 0.39 28.7 -23.0 --- --- 728.9 0.021 0.000 8.7 5 1
02/24/06 3:57 a -11.4 -11.4 -11.4 --- --- 25.2 E 0.42 27.8 -23.3 --- --- 728.9 0.021 0.000 8.7 5 1
02/24/06 3:58 a -11.4 -11.4 -11.4 --- --- 26.1 ESE 0.43 29.6 -23.4 --- --- 728.8 0.021 0.000 8.7 5 1
02/24/06 3:59 a -11.4 -11.4 -11.6 --- --- 26.1 E 0.43 28.7 -23.5 --- --- 728.8 0.021 0.000 8.7 5 1
02/24/06 4:00 a -11.6 -11.6 -11.6 --- --- 24.3 E 0.41 28.7 -23.4 --- --- 728.8 0.021 0.000 8.7 5 1
02/24/06 4:01 a -11.6 -11.6 -11.7 --- --- 26.1 E 0.43 29.6 -23.7 --- --- 728.8 0.021 0.000 8.7 5 1
02/24/06 4:02 a -11.7 -11.6 -11.7 --- --- 27.0 E 0.45 29.6 -23.9 --- --- 728.7 0.021 0.000 8.7 5 1
02/24/06 4:03 a -11.7 -11.6 -11.8 --- --- 25.2 E 0.42 29.6 -23.6 --- --- 728.8 0.021 0.000 8.7 5 1
02/24/06 4:04 a -11.8 -11.7 -11.8 --- --- 26.1 E 0.43 28.7 -23.9 --- --- 728.7 0.021 0.000 8.7 5 1
02/24/06 4:05 a -11.8 -11.7 -11.8 --- --- 26.1 E 0.43 30.4 -23.9 --- --- 728.8 0.021 0.000 8.7 5 1
02/24/06 4:06 a -11.7 -11.7 -11.7 --- --- 26.1 E 0.43 28.7 -23.9 --- --- 728.8 0.021 0.000 8.7 5 1
02/24/06 4:07 a -11.7 -11.7 -11.7 --- --- 26.1 E 0.43 30.4 -23.8 --- --- 728.7 0.021 0.000 8.7 5 1
02/24/06 4:08 a -11.7 -11.6 -11.7 --- --- 27.0 E 0.45 31.3 -23.9 --- --- 728.8 0.021 0.000 8.7 5 1
02/24/06 4:09 a -11.6 -11.6 -11.6 --- --- 27.0 E 0.45 30.4 -23.9 --- --- 728.7 0.021 0.000 8.7 5 1
02/24/06 4:10 a -11.6 -11.6 -11.6 --- --- 26.1 E 0.43 29.6 -23.7 --- --- 728.7 0.021 0.000 8.7 5 1
02/24/06 4:11 a -11.6 -11.6 -11.6 --- --- 26.1 E 0.43 30.4 -23.7 --- --- 728.7 0.021 0.000 8.7 5 1
02/24/06 4:12 a -11.6 -11.6 -11.6 --- --- 27.8 E 0.46 32.2 -23.9 --- --- 728.7 0.021 0.000 8.7 5 1
02/24/06 4:13 a -11.5 -11.5 -11.5 --- --- 25.2 E 0.42 28.7 -23.4 --- --- 728.7 0.021 0.000 8.7 5 1
02/24/06 4:14 a -11.6 -11.6 -11.6 --- --- 25.2 E 0.42 29.6 -23.5 --- --- 728.7 0.021 0.000 8.7 5 1
02/24/06 4:15 a -11.6 -11.6 -11.6 --- --- 25.2 E 0.42 30.4 -23.5 --- --- 728.7 0.021 0.000 8.7 5 1
02/24/06 4:16 a -11.6 -11.6 -11.6 --- --- 25.2 E 0.42 31.3 -23.6 --- --- 728.7 0.021 0.000 8.7 5 1
02/24/06 4:17 a -11.6 -11.6 -11.6 --- --- 27.0 E 0.45 32.2 -23.8 --- --- 728.6 0.021 0.000 8.7 5 1
02/24/06 4:18 a -11.6 -11.6 -11.6 --- --- 27.0 E 0.45 29.6 -23.8 --- --- 728.7 0.021 0.000 8.7 5 1
02/24/06 4:19 a -11.6 -11.5 -11.6 --- --- 27.0 E 0.45 28.7 -23.8 --- --- 728.7 0.021 0.000 8.7 5 1
02/24/06 4:20 a -11.6 -11.6 -11.6 --- --- 27.0 E 0.45 31.3 -23.8 --- --- 728.7 0.021 0.000 8.7 5 1
02/24/06 4:21 a -11.5 -11.5 -11.6 --- --- 28.7 E 0.48 31.3 -24.0 --- --- 728.7 0.021 0.000 8.7 5 1
02/24/06 4:22 a -11.4 -11.4 -11.5 --- --- 26.1 E 0.43 32.2 -23.5 --- --- 728.5 0.021 0.000 8.7 5 1
02/24/06 4:23 a -11.4 -11.4 -11.4 --- --- 27.8 E 0.46 30.4 -23.8 --- --- 728.6 0.021 0.000 8.7 5 1
02/24/06 4:24 a -11.4 -11.4 -11.4 --- --- 27.0 E 0.45 30.4 -23.7 --- --- 728.6 0.021 0.000 8.7 5 1
02/24/06 4:25 a -11.4 -11.4 -11.4 --- --- 27.0 E 0.45 31.3 -23.7 --- --- 728.6 0.021 0.000 8.7 5 1
02/24/06 4:26 a -11.4 -11.4 -11.4 --- --- 28.7 E 0.48 31.3 -23.9 --- --- 728.7 0.021 0.000 8.7 5 1
02/24/06 4:27 a -11.4 -11.4 -11.4 --- --- 27.8 E 0.46 30.4 -23.7 --- --- 728.6 0.021 0.000 8.7 5 1
02/24/06 4:28 a -11.4 -11.4 -11.4 --- --- 27.0 E 0.45 30.4 -23.6 --- --- 728.6 0.021 0.000 8.7 5 1
02/24/06 4:29 a -11.4 -11.4 -11.4 --- --- 27.0 E 0.45 30.4 -23.7 --- --- 728.6 0.021 0.000 8.7 5 1
02/24/06 4:30 a -11.6 -11.6 -11.6 --- --- 27.0 E 0.45 30.4 -23.8 --- --- 728.6 0.021 0.000 8.7 5 1
02/24/06 4:31 a -11.6 -11.6 -11.6 --- --- 27.8 E 0.46 30.4 -23.9 --- --- 728.6 0.021 0.000 8.7 5 1
02/24/06 4:32 a -11.6 -11.6 -11.6 --- --- 28.7 E 0.48 30.4 -24.1 --- --- 728.7 0.021 0.000 8.6 5 1
02/24/06 4:33 a -11.6 -11.6 -11.6 --- --- 27.8 E 0.46 32.2 -24.0 --- --- 728.6 0.021 0.000 8.6 5 1
02/24/06 4:34 a -11.6 -11.6 -11.6 --- --- 29.6 E 0.49 32.2 -24.2 --- --- 728.7 0.021 0.000 8.6 5 1
02/24/06 4:35 a -11.5 -11.5 -11.6 --- --- 27.8 E 0.46 32.2 -23.9 --- --- 728.6 0.021 0.000 8.6 5 1
02/24/06 4:36 a -11.5 -11.5 -11.6 --- --- 29.6 E 0.49 32.2 -24.2 --- --- 728.7 0.021 0.000 8.6 5 1
02/24/06 4:37 a -11.5 -11.5 -11.5 --- --- 29.6 E 0.49 32.2 -24.2 --- --- 728.6 0.021 0.000 8.6 5 1
02/24/06 4:38 a -11.5 -11.4 -11.5 --- --- 28.7 E 0.48 32.2 -24.0 --- --- 728.7 0.021 0.000 8.6 5 1
02/24/06 4:39 a -11.4 -11.4 -11.5 --- --- 28.7 E 0.48 31.3 -23.9 --- --- 728.6 0.021 0.000 8.6 5 1
02/24/06 4:40 a -11.4 -11.4 -11.4 --- --- 27.8 E 0.46 31.3 -23.7 --- --- 728.7 0.021 0.000 8.6 5 1
02/24/06 4:41 a -11.4 -11.4 -11.4 --- --- 27.8 E 0.46 31.3 -23.7 --- --- 728.7 0.021 0.000 8.6 5 1
02/24/06 4:42 a -11.4 -11.4 -11.4 --- --- 27.0 E 0.45 29.6 -23.6 --- --- 728.7 0.021 0.000 8.6 5 1
02/24/06 4:43 a -11.4 -11.4 -11.4 --- --- 26.1 E 0.43 29.6 -23.4 --- --- 728.8 0.021 0.000 8.6 5 1
02/24/06 4:44 a -11.4 -11.4 -11.4 --- --- 25.2 E 0.42 29.6 -23.3 --- --- 728.8 0.021 0.000 8.6 5 1
02/24/06 4:45 a -11.3 -11.3 -11.3 --- --- 26.1 E 0.43 30.4 -23.3 --- --- 728.8 0.021 0.000 8.6 5 1
02/24/06 4:46 a -11.3 -11.3 -11.3 --- --- 24.3 E 0.41 28.7 -23.0 --- --- 728.9 0.021 0.000 8.6 5 1
02/24/06 4:47 a -11.3 -11.3 -11.3 --- --- 24.3 E 0.41 28.7 -22.9 --- --- 728.8 0.021 0.000 8.6 5 1
02/24/06 4:48 a -11.2 -11.2 -11.3 --- --- 25.2 E 0.42 28.7 -23.1 --- --- 728.7 0.021 0.000 8.6 5 1
02/24/06 4:49 a -11.2 -11.2 -11.2 --- --- 23.5 E 0.39 28.7 -22.7 --- --- 728.8 0.021 0.000 8.6 5 1
02/24/06 4:50 a -11.2 -11.2 -11.2 --- --- 25.2 E 0.42 29.6 -22.9 --- --- 728.7 0.020 0.000 8.6 5 1
02/24/06 4:51 a -11.1 -11.1 -11.2 --- --- 25.2 E 0.42 28.7 -22.9 --- --- 728.7 0.020 0.000 8.6 5 1
02/24/06 4:52 a -11.2 -11.1 -11.2 --- --- 25.2 E 0.42 29.6 -22.9 --- --- 728.8 0.020 0.000 8.6 5 1
02/24/06 4:53 a -11.2 -11.2 -11.2 --- --- 25.2 E 0.42 28.7 -23.1 --- --- 728.7 0.021 0.000 8.6 5 1
02/24/06 4:54 a -11.2 -11.2 -11.2 --- --- 26.1 E 0.43 28.7 -23.1 --- --- 728.7 0.020 0.000 8.6 5 1
02/24/06 4:55 a -11.2 -11.2 -11.2 --- --- 24.3 E 0.41 27.0 -22.8 --- --- 728.8 0.020 0.000 8.6 5 1
02/24/06 4:56 a -11.2 -11.2 -11.2 --- --- 25.2 E 0.42 30.4 -22.9 --- --- 728.7 0.020 0.000 8.6 5 1
02/24/06 4:57 a -11.2 -11.2 -11.2 --- --- 25.2 E 0.42 28.7 -22.9 --- --- 728.7 0.020 0.000 8.6 5 1
02/24/06 4:58 a -11.2 -11.2 -11.2 --- --- 23.5 E 0.39 27.0 -22.6 --- --- 728.7 0.020 0.000 8.6 5 1
02/24/06 4:59 a -11.1 -11.1 -11.2 --- --- 24.3 E 0.41 29.6 -22.7 --- --- 728.6 0.020 0.000 8.6 5 1
02/24/06 5:00 a -11.1 -11.1 -11.1 --- --- 25.2 E 0.42 29.6 -22.8 --- --- 728.6 0.020 0.000 8.6 5 1
02/24/06 5:01 a -11.1 -11.1 -11.1 --- --- 24.3 E 0.41 29.6 -22.7 --- --- 728.6 0.020 0.000 8.6 5 1
02/24/06 5:02 a -11.2 -11.1 -11.2 --- --- 25.2 E 0.42 28.7 -22.9 --- --- 728.6 0.020 0.000 8.6 5 1
02/24/06 5:03 a -11.2 -11.2 -11.2 --- --- 27.0 E 0.45 28.7 -23.3 --- --- 728.8 0.020 0.000 8.6 5 1
02/24/06 5:04 a -11.1 -11.1 -11.2 --- --- 26.1 E 0.43 28.7 -23.1 --- --- 728.7 0.020 0.000 8.6 5 1
02/24/06 5:05 a -11.1 -11.1 -11.1 --- --- 24.3 E 0.41 27.0 -22.7 --- --- 728.6 0.020 0.000 8.6 5 1
02/24/06 5:06 a -11.1 -11.1 -11.1 --- --- 26.1 E 0.43 28.7 -23.1 --- --- 728.7 0.020 0.000 8.6 5 1
02/24/06 5:07 a -11.0 -11.0 -11.1 --- --- 27.0 E 0.45 29.6 -23.1 --- --- 728.6 0.020 0.000 8.6 5 1
02/24/06 5:08 a -10.9 -10.9 -11.0 --- --- 26.1 E 0.43 29.6 -22.8 --- --- 728.5 0.020 0.000 8.6 5 1
02/24/06 5:09 a -10.9 -10.9 -10.9 --- --- 27.8 E 0.46 31.3 -23.1 --- --- 728.6 0.020 0.000 8.6 5 1
02/24/06 5:10 a -10.9 -10.9 -10.9 --- --- 27.8 E 0.46 31.3 -23.1 --- --- 728.6 0.020 0.000 8.6 5 1
02/24/06 5:11 a -10.9 -10.8 -10.9 --- --- 24.3 E 0.41 28.7 -22.4 --- --- 728.6 0.020 0.000 8.6 5 1
02/24/06 5:12 a -10.9 -10.8 -10.9 --- --- 27.8 E 0.46 30.4 -23.1 --- --- 728.6 0.020 0.000 8.6 5 1
02/24/06 5:13 a -10.9 -10.9 -10.9 --- --- 28.7 E 0.48 32.2 -23.2 --- --- 728.6 0.020 0.000 8.6 5 1
02/24/06 5:14 a -10.9 -10.9 -10.9 --- --- 27.0 E 0.45 30.4 -22.9 --- --- 728.6 0.020 0.000 8.6 5 1
02/24/06 5:15 a -10.9 -10.9 -10.9 --- --- 27.0 E 0.45 30.4 -22.9 --- --- 728.5 0.020 0.000 8.6 5 1
02/24/06 5:16 a -10.9 -10.9 -11.0 --- --- 27.0 E 0.45 30.4 -22.9 --- --- 728.6 0.020 0.000 8.6 5 1
02/24/06 5:17 a -11.0 -11.0 -11.0 --- --- 27.8 E 0.46 31.3 -23.2 --- --- 728.6 0.020 0.000 8.6 5 1
02/24/06 5:18 a -11.0 -10.9 -11.0 --- --- 26.1 E 0.43 31.3 -22.9 --- --- 728.7 0.020 0.000 8.6 5 1
02/24/06 5:19 a -11.1 -11.0 -11.1 --- --- 27.0 E 0.45 29.6 -23.1 --- --- 728.6 0.020 0.000 8.6 5 1
02/24/06 5:20 a -11.1 -11.1 -11.2 --- --- 28.7 ESE 0.48 30.4 -23.5 --- --- 728.5 0.020 0.000 8.6 5 1
02/24/06 5:21 a -11.2 -11.2 -11.2 --- --- 27.8 E 0.46 31.3 -23.4 --- --- 728.7 0.020 0.000 8.6 5 1
02/24/06 5:22 a -11.3 -11.2 -11.3 --- --- 27.0 E 0.45 31.3 -23.4 --- --- 728.7 0.021 0.000 8.6 5 1
02/24/06 5:23 a -11.2 -11.2 -11.2 --- --- 25.2 E 0.42 28.7 -23.1 --- --- 728.6 0.021 0.000 8.6 5 1
02/24/06 5:24 a -11.2 -11.2 -11.2 --- --- 27.0 E 0.45 31.3 -23.3 --- --- 728.6 0.021 0.000 8.6 5 1
02/24/06 5:25 a -11.3 -11.2 -11.3 --- --- 28.7 E 0.48 32.2 -23.7 --- --- 728.6 0.021 0.000 8.6 5 1
02/24/06 5:26 a -11.4 -11.4 -11.4 --- --- 27.8 ESE 0.46 31.3 -23.7 --- --- 728.6 0.021 0.000 8.6 5 1
02/24/06 5:27 a -11.4 -11.4 -11.4 --- --- 27.8 ESE 0.46 31.3 -23.7 --- --- 728.8 0.021 0.000 8.6 5 1
02/24/06 5:28 a -11.5 -11.4 -11.5 --- --- 26.1 E 0.43 29.6 -23.6 --- --- 728.7 0.021 0.000 8.6 5 1
02/24/06 5:29 a -11.6 -11.5 -11.6 --- --- 27.8 E 0.46 31.3 -23.9 --- --- 728.7 0.021 0.000 8.6 5 1
02/24/06 5:30 a -11.6 -11.6 -11.6 --- --- 27.8 E 0.46 31.3 -24.0 --- --- 728.6 0.021 0.000 8.6 5 1
02/24/06 5:31 a -11.7 -11.6 -11.7 --- --- 27.0 E 0.45 30.4 -23.9 --- --- 728.7 0.021 0.000 8.5 5 1
02/24/06 5:32 a -11.7 -11.7 -11.7 --- --- 29.6 E 0.49 31.3 -24.4 --- --- 728.6 0.021 0.000 8.5 5 1
02/24/06 5:33 a -11.7 -11.7 -11.7 --- --- 28.7 E 0.48 31.3 -24.3 --- --- 728.7 0.021 0.000 8.5 5 1
02/24/06 5:34 a -11.7 -11.7 -11.7 --- --- 27.8 E 0.46 30.4 -24.2 --- --- 728.7 0.021 0.000 8.5 5 1
02/24/06 5:35 a -11.7 -11.7 -11.7 --- --- 27.0 E 0.45 30.4 -24.0 --- --- 728.6 0.021 0.000 8.5 5 1
02/24/06 5:36 a -11.7 -11.7 -11.7 --- --- 27.8 E 0.46 31.3 -24.2 --- --- 728.6 0.021 0.000 8.5 5 1
02/24/06 5:37 a -11.7 -11.7 -11.7 --- --- 28.7 E 0.48 31.3 -24.3 --- --- 728.7 0.021 0.000 8.5 5 1
02/24/06 5:38 a -11.7 -11.7 -11.7 --- --- 28.7 E 0.48 30.4 -24.3 --- --- 728.7 0.021 0.000 8.5 5 1
02/24/06 5:39 a -11.7 -11.7 -11.8 --- --- 27.8 E 0.46 30.4 -24.2 --- --- 728.6 0.021 0.000 8.4 5 1
02/24/06 5:40 a -11.6 -11.6 -11.7 --- --- 27.0 E 0.45 30.4 -23.9 --- --- 728.7 0.021 0.000 8.5 5 1
02/24/06 5:41 a -11.6 -11.6 -11.6 --- --- 27.8 E 0.46 30.4 -24.0 --- --- 728.7 0.021 0.000 8.4 5 1
02/24/06 5:42 a -11.7 -11.6 -11.7 --- --- 27.8 E 0.46 29.6 -24.1 --- --- 728.7 0.021 0.000 8.4 5 1
02/24/06 5:43 a -11.7 -11.7 -11.7 --- --- 27.0 E 0.45 29.6 -23.9 --- --- 728.7 0.021 0.000 8.4 5 1
02/24/06 5:44 a -11.6 -11.6 -11.6 --- --- 27.8 E 0.46 29.6 -24.0 --- --- 728.7 0.021 0.000 8.4 5 1
02/24/06 5:45 a -11.6 -11.6 -11.6 --- --- 27.0 E 0.45 30.4 -23.9 --- --- 728.7 0.021 0.000 8.4 5 1
02/24/06 5:46 a -11.7 -11.7 -11.7 --- --- 27.0 E 0.45 29.6 -23.9 --- --- 728.7 0.021 0.000 8.4 5 1
02/24/06 5:47 a -11.7 -11.7 -11.8 --- --- 27.0 E 0.45 30.4 -24.0 --- --- 728.6 0.021 0.000 8.4 5 1
02/24/06 5:48 a -11.8 -11.8 -11.8 --- --- 27.0 E 0.45 29.6 -24.1 --- --- 728.6 0.021 0.000 8.4 5 1
02/24/06 5:49 a -11.8 -11.8 -11.9 --- --- 27.8 ESE 0.46 31.3 -24.3 --- --- 728.7 0.021 0.000 8.4 5 1
02/24/06 5:50 a -11.9 -11.9 -11.9 --- --- 27.0 E 0.45 29.6 -24.3 --- --- 728.6 0.021 0.000 8.4 5 1
02/24/06 5:51 a -11.8 -11.8 -11.9 --- --- 26.1 E 0.43 30.4 -24.0 --- --- 728.6 0.021 0.000 8.4 5 1
02/24/06 5:52 a -11.8 -11.8 -11.8 --- --- 25.2 E 0.42 28.7 -23.8 --- --- 728.7 0.021 0.000 8.4 5 1
02/24/06 5:53 a -11.8 -11.8 -11.9 --- --- 26.1 E 0.43 28.7 -24.0 --- --- 728.7 0.021 0.000 8.4 5 1
02/24/06 5:54 a -11.9 -11.9 -11.9 --- --- 24.3 E 0.41 27.0 -23.8 --- --- 728.6 0.021 0.000 8.4 5 1
02/24/06 5:55 a -11.9 -11.8 -11.9 --- --- 26.1 E 0.43 29.6 -24.1 --- --- 728.6 0.021 0.000 8.4 5 1
02/24/06 5:56 a -11.8 -11.7 -11.8 --- --- 25.2 E 0.42 29.6 -23.8 --- --- 728.6 0.021 0.000 8.4 5 1
02/24/06 5:57 a -11.7 -11.7 -11.7 --- --- 27.8 E 0.46 30.4 -24.1 --- --- 728.5 0.021 0.000 8.4 5 1
02/24/06 5:58 a -11.7 -11.7 -11.7 --- --- 27.8 E 0.46 30.4 -24.1 --- --- 728.6 0.021 0.000 8.4 5 1
02/24/06 5:59 a -11.7 -11.7 -11.8 --- --- 27.0 E 0.45 30.4 -24.0 --- --- 728.6 0.021 0.000 8.4 5 1
02/24/06 6:00 a -11.8 -11.8 -11.8 --- --- 27.0 E 0.45 29.6 -24.2 --- --- 728.5 0.021 0.000 8.4 5 1
02/24/06 6:01 a -11.8 -11.7 -11.8 --- --- 26.1 E 0.43 29.6 -23.9 --- --- 728.6 0.021 0.000 8.4 5 1
02/24/06 6:02 a -11.6 -11.6 -11.7 --- --- 26.1 ESE 0.43 28.7 -23.7 --- --- 728.6 0.021 0.000 8.4 5 1
02/24/06 6:03 a -11.6 -11.6 -11.6 --- --- 27.0 E 0.45 30.4 -23.9 --- --- 728.6 0.021 0.000 8.4 5 1
02/24/06 6:04 a -11.7 -11.7 -11.7 --- --- 27.0 E 0.45 30.4 -23.9 --- --- 728.7 0.021 0.000 8.4 5 1
02/24/06 6:05 a -11.8 -11.8 -11.8 --- --- 24.3 E 0.41 27.8 -23.6 --- --- 728.6 0.021 0.000 8.4 5 1
02/24/06 6:06 a -11.8 -11.8 -11.8 --- --- 25.2 E 0.42 27.8 -23.8 --- --- 728.6 0.021 0.000 8.4 5 1
02/24/06 6:07 a -11.8 -11.8 -11.8 --- --- 26.1 E 0.43 28.7 -23.9 --- --- 728.6 0.021 0.000 8.4 5 1
02/24/06 6:08 a -11.9 -11.9 -11.9 --- --- 25.2 E 0.42 28.7 -23.9 --- --- 728.7 0.021 0.000 8.4 5 1
02/24/06 6:09 a -11.9 -11.9 -12.0 --- --- 25.2 E 0.42 27.8 -24.0 --- --- 728.6 0.021 0.000 8.4 5 1
02/24/06 6:10 a -12.1 -12.0 -12.1 --- --- 26.1 E 0.43 27.8 -24.3 --- --- 728.6 0.021 0.000 8.4 5 1
02/24/06 6:11 a -12.1 -12.1 -12.1 --- --- 24.3 E 0.41 28.7 -24.1 --- --- 728.6 0.021 0.000 8.4 5 1
02/24/06 6:12 a -12.2 -12.2 -12.2 --- --- 24.3 E 0.41 28.7 -24.2 --- --- 728.6 0.021 0.000 8.4 5 1
02/24/06 6:13 a -12.2 -12.2 -12.2 --- --- 24.3 E 0.41 28.7 -24.2 --- --- 728.6 0.021 0.000 8.4 5 1
02/24/06 6:14 a -12.3 -12.3 -12.3 --- --- 24.3 E 0.41 27.0 -24.3 --- --- 728.6 0.021 0.000 8.3 5 1
02/24/06 6:15 a -12.3 -12.3 -12.3 --- --- 21.7 E 0.36 24.3 -23.8 --- --- 728.7 0.021 0.000 8.3 5 1
02/24/06 6:16 a -12.3 -12.3 -12.3 --- --- 25.2 E 0.42 29.6 -24.6 --- --- 728.6 0.021 0.000 8.3 5 1
02/24/06 6:17 a -12.3 -12.2 -12.3 --- --- 26.1 E 0.43 29.6 -24.6 --- --- 728.6 0.021 0.000 8.3 5 1
02/24/06 6:18 a -12.3 -12.2 -12.3 --- --- 25.2 E 0.42 27.8 -24.4 --- --- 728.6 0.021 0.000 8.3 5 1
02/24/06 6:19 a -12.2 -12.2 -12.3 --- --- 23.5 E 0.39 27.0 -24.1 --- --- 728.6 0.021 0.000 8.3 5 1
02/24/06 6:20 a -12.2 -12.2 -12.2 --- --- 26.1 E 0.43 29.6 -24.6 --- --- 728.7 0.021 0.000 8.3 5 1
02/24/06 6:21 a -12.2 -12.2 -12.2 --- --- 23.5 E 0.39 26.1 -24.1 --- --- 728.6 0.021 0.000 8.3 5 1
02/24/06 6:22 a -12.3 -12.2 -12.3 --- --- 24.3 E 0.41 28.7 -24.3 --- --- 728.6 0.021 0.000 8.3 5 1
02/24/06 6:23 a -12.3 -12.3 -12.3 --- --- 25.2 E 0.42 27.8 -24.4 --- --- 728.6 0.021 0.000 8.3 5 1
02/24/06 6:24 a -12.2 -12.2 -12.3 --- --- 25.2 E 0.42 29.6 -24.4 --- --- 728.6 0.021 0.000 8.3 5 1
02/24/06 6:25 a -12.3 -12.3 -12.3 --- --- 23.5 E 0.39 25.2 -24.1 --- --- 728.7 0.021 0.000 8.3 5 1
02/24/06 6:26 a -12.3 -12.3 -12.4 --- --- 25.2 E 0.42 27.8 -24.6 --- --- 728.6 0.021 0.000 8.3 5 1
02/24/06 6:27 a -12.4 -12.3 -12.4 --- --- 22.6 E 0.38 27.0 -24.1 --- --- 728.6 0.021 0.000 8.3 5 1
02/24/06 6:28 a -12.2 -12.2 -12.3 --- --- 22.6 E 0.38 26.1 -23.9 --- --- 728.6 0.021 0.000 8.3 5 1
02/24/06 6:29 a -12.2 -12.1 -12.2 --- --- 22.6 ESE 0.38 25.2 -23.8 --- --- 728.7 0.021 0.000 8.3 5 1
02/24/06 6:30 a -12.1 -12.1 -12.1 --- --- 22.6 E 0.38 26.1 -23.7 --- --- 728.7 0.021 0.000 8.4 5 1
02/24/06 6:31 a -12.1 -12.1 -12.1 --- --- 21.7 E 0.36 24.3 -23.6 --- --- 728.7 0.021 0.000 8.4 5 1
02/24/06 6:32 a -12.1 -12.1 -12.1 --- --- 20.9 E 0.35 24.3 -23.3 --- --- 728.7 0.021 0.000 8.4 5 1
02/24/06 6:33 a -12.1 -12.1 -12.1 --- --- 22.6 E 0.38 25.2 -23.7 --- --- 728.7 0.021 0.000 8.4 5 1
02/24/06 6:34 a -12.1 -12.1 -12.2 --- --- 22.6 E 0.38 24.3 -23.7 --- --- 728.7 0.021 0.000 8.4 5 1
02/24/06 6:35 a -12.2 -12.1 -12.2 --- --- 23.5 E 0.39 27.8 -23.9 --- --- 728.7 0.021 0.000 8.4 5 1
02/24/06 6:36 a -12.2 -12.2 -12.3 --- --- 23.5 E 0.39 28.7 -24.1 --- --- 728.8 0.021 0.000 8.4 5 1
02/24/06 6:37 a -12.3 -12.3 -12.3 --- --- 21.7 E 0.36 25.2 -23.8 --- --- 728.8 0.021 0.000 8.4 5 1
02/24/06 6:38 a -12.3 -12.3 -12.3 --- --- 21.7 E 0.36 25.2 -23.8 --- --- 728.8 0.021 0.000 8.4 5 1
02/24/06 6:39 a -12.2 -12.2 -12.2 --- --- 20.9 E 0.35 26.1 -23.5 --- --- 728.7 0.021 0.000 8.4 5 1
02/24/06 6:40 a -12.2 -12.1 -12.2 --- --- 20.9 E 0.35 25.2 -23.4 --- --- 728.8 0.021 0.000 8.4 5 1
02/24/06 6:41 a -12.1 -12.1 -12.1 --- --- 20.9 E 0.35 23.5 -23.3 --- --- 728.8 0.021 0.000 8.4 5 1
02/24/06 6:42 a -12.1 -12.1 -12.1 --- --- 21.7 E 0.36 24.3 -23.6 --- --- 728.8 0.021 0.000 8.4 5 1
02/24/06 6:43 a -12.1 -12.1 -12.1 --- --- 21.7 E 0.36 26.1 -23.4 --- --- 728.8 0.021 0.000 8.4 5 1
02/24/06 6:44 a -12.1 -12.1 -12.1 --- --- 22.6 E 0.38 26.1 -23.7 --- --- 728.8 0.021 0.000 8.4 5 1
02/24/06 6:45 a -12.1 -12.1 -12.1 --- --- 22.6 E 0.38 26.1 -23.7 --- --- 728.8 0.021 0.000 8.4 5 1
02/24/06 6:46 a -12.1 -12.1 -12.1 --- --- 21.7 ESE 0.36 25.2 -23.4 --- --- 728.8 0.021 0.000 8.4 5 1
02/24/06 6:47 a -12.1 -12.1 -12.1 --- --- 21.7 E 0.36 24.3 -23.6 --- --- 728.8 0.021 0.000 8.4 5 1
02/24/06 6:48 a -12.1 -12.1 -12.1 --- --- 23.5 E 0.39 27.0 -23.9 --- --- 728.8 0.021 0.000 8.4 5 1
02/24/06 6:49 a -12.1 -12.1 -12.1 --- --- 21.7 E 0.36 25.2 -23.6 --- --- 728.8 0.021 0.000 8.4 5 1
02/24/06 6:50 a -12.1 -12.1 -12.1 --- --- 20.9 E 0.35 25.2 -23.3 --- --- 728.9 0.021 0.000 8.4 5 1
02/24/06 6:51 a -12.1 -12.1 -12.2 --- --- 20.9 E 0.35 26.1 -23.3 --- --- 728.9 0.021 0.000 8.4 5 1
02/24/06 6:52 a -12.2 -12.2 -12.2 --- --- 21.7 E 0.36 25.2 -23.7 --- --- 728.8 0.021 0.000 8.4 5 1
02/24/06 6:53 a -12.2 -12.2 -12.3 --- --- 20.0 E 0.33 23.5 -23.3 --- --- 728.8 0.021 0.000 8.4 5 1
02/24/06 6:54 a -12.3 -12.3 -12.4 --- --- 20.0 E 0.33 23.5 -23.4 --- --- 728.9 0.021 0.000 8.4 5 1
02/24/06 6:55 a -12.4 -12.4 -12.4 --- --- 20.9 E 0.35 23.5 -23.7 --- --- 728.8 0.021 0.000 8.4 5 1
02/24/06 6:56 a -12.4 -12.4 -12.5 --- --- 21.7 E 0.36 25.2 -24.0 --- --- 728.8 0.021 0.000 8.4 5 1
02/24/06 6:57 a -12.5 -12.4 -12.5 --- --- 22.6 E 0.38 24.3 -24.2 --- --- 728.8 0.021 0.000 8.4 5 1
02/24/06 6:58 a -12.4 -12.4 -12.4 --- --- 22.6 E 0.38 25.2 -24.2 --- --- 728.9 0.021 0.000 8.4 5 1
02/24/06 6:59 a -12.4 -12.4 -12.4 --- --- 22.6 E 0.38 26.1 -24.1 --- --- 728.8 0.021 0.000 8.4 5 1
02/24/06 7:00 a -12.4 -12.4 -12.4 --- --- 21.7 E 0.36 25.2 -23.9 --- --- 728.8 0.021 0.000 8.4 5 1
02/24/06 7:01 a -12.4 -12.4 -12.4 --- --- 21.7 E 0.36 24.3 -23.9 --- --- 728.9 0.021 0.000 8.4 5 1
02/24/06 7:02 a -12.4 -12.3 -12.4 --- --- 20.9 ESE 0.35 23.5 -23.7 --- --- 728.9 0.021 0.000 8.4 5 1
02/24/06 7:03 a -12.3 -12.3 -12.3 --- --- 20.9 E 0.35 24.3 -23.6 --- --- 728.8 0.021 0.000 8.4 5 1
02/24/06 7:04 a -12.3 -12.3 -12.3 --- --- 20.9 E 0.35 25.2 -23.6 --- --- 728.9 0.021 0.000 8.4 5 1
02/24/06 7:05 a -12.3 -12.3 -12.3 --- --- 20.9 E 0.35 24.3 -23.6 --- --- 728.9 0.021 0.000 8.4 5 1
02/24/06 7:06 a -12.3 -12.3 -12.3 --- --- 20.9 E 0.35 23.5 -23.6 --- --- 728.8 0.021 0.000 8.4 5 1
02/24/06 7:07 a -12.3 -12.3 -12.3 --- --- 20.9 E 0.35 24.3 -23.6 --- --- 728.9 0.021 0.000 8.4 5 1
02/24/06 7:08 a -12.3 -12.3 -12.3 --- --- 19.1 E 0.32 22.6 -23.2 --- --- 728.9 0.021 0.000 8.4 5 1
02/24/06 7:09 a -12.4 -12.4 -12.4 --- --- 20.0 E 0.33 23.5 -23.5 --- --- 728.8 0.021 0.000 8.4 5 1
02/24/06 7:10 a -12.4 -12.4 -12.5 --- --- 20.9 E 0.35 22.6 -23.7 --- --- 728.8 0.021 0.000 8.4 5 1
02/24/06 7:11 a -12.6 -12.5 -12.6 --- --- 19.1 E 0.32 22.6 -23.6 --- --- 728.8 0.021 0.000 8.4 5 1
02/24/06 7:12 a -12.6 -12.6 -12.7 --- --- 20.0 E 0.33 23.5 -23.8 --- --- 728.8 0.021 0.000 8.4 5 1
02/24/06 7:13 a -12.7 -12.7 -12.7 --- --- 20.9 E 0.35 23.5 -24.1 --- --- 728.8 0.022 0.000 8.4 5 1
02/24/06 7:14 a -12.7 -12.7 -12.7 --- --- 20.9 E 0.35 23.5 -24.1 --- --- 728.8 0.022 0.000 8.4 5 1
02/24/06 7:15 a -12.7 -12.7 -12.8 --- --- 21.7 E 0.36 25.2 -24.3 --- --- 728.7 0.022 0.000 8.4 5 1
02/24/06 7:16 a -12.8 -12.8 -12.8 --- --- 20.0 E 0.33 23.5 -24.1 --- --- 728.8 0.022 0.000 8.4 5 1
02/24/06 7:17 a -12.8 -12.8 -12.8 --- --- 20.0 E 0.33 23.5 -24.1 --- --- 728.9 0.022 0.000 8.4 5 1
02/24/06 7:18 a -12.8 -12.8 -12.9 --- --- 22.6 E 0.38 25.2 -24.7 --- --- 728.8 0.022 0.000 8.3 5 1
02/24/06 7:19 a -12.9 -12.9 -12.9 --- --- 22.6 E 0.38 25.2 -24.8 --- --- 728.7 0.022 0.000 8.3 5 1
02/24/06 7:20 a -12.9 -12.9 -12.9 --- --- 20.9 E 0.35 25.2 -24.4 --- --- 728.6 0.022 0.000 8.3 5 1
02/24/06 7:21 a -12.9 -12.9 -12.9 --- --- 23.5 E 0.39 25.2 -25.0 --- --- 728.7 0.022 0.000 8.3 5 1
02/24/06 7:22 a -12.9 -12.9 -13.0 --- --- 21.7 E 0.36 25.2 -24.7 --- --- 728.6 0.022 0.000 8.3 5 1
02/24/06 7:23 a -12.9 -12.9 -13.0 --- --- 21.7 E 0.36 25.2 -24.7 --- --- 728.7 0.022 0.000 8.3 5 1
02/24/06 7:24 a -13.0 -12.9 -13.0 --- --- 21.7 E 0.36 24.3 -24.7 --- --- 728.6 0.022 0.000 8.3 5 1
02/24/06 7:25 a -13.0 -13.0 -13.1 --- --- 20.9 E 0.35 24.3 -24.5 --- --- 728.6 0.022 0.000 8.3 5 1
02/24/06 7:26 a -13.1 -13.1 -13.1 --- --- 20.9 E 0.35 24.3 -24.6 --- --- 728.6 0.022 0.000 8.3 5 1
02/24/06 7:27 a -13.0 -13.0 -13.1 --- --- 21.7 E 0.36 25.2 -24.7 --- --- 728.7 0.022 0.000 8.3 5 1
02/24/06 7:28 a -13.1 -13.1 -13.1 --- --- 20.9 E 0.35 24.3 -24.6 --- --- 728.7 0.022 0.000 8.3 5 1
02/24/06 7:29 a -13.1 -13.1 -13.1 --- --- 20.0 E 0.33 24.3 -24.4 --- --- 728.5 0.022 0.000 8.3 5 1
02/24/06 7:30 a -13.2 -13.1 -13.2 --- --- 22.6 E 0.38 24.3 -25.1 --- --- 728.6 0.022 0.000 8.3 5 1
02/24/06 7:31 a -13.2 -13.2 -13.2 --- --- 22.6 E 0.38 25.2 -25.1 --- --- 728.6 0.022 0.000 8.3 5 1
02/24/06 7:32 a -13.2 -13.2 -13.2 --- --- 20.9 E 0.35 24.3 -24.8 --- --- 728.5 0.022 0.000 8.2 5 1
02/24/06 7:33 a -13.2 -13.2 -13.2 --- --- 21.7 E 0.36 25.2 -25.0 --- --- 728.6 0.022 0.000 8.2 5 1
02/24/06 7:34 a -13.3 -13.2 -13.3 --- --- 21.7 E 0.36 24.3 -25.1 --- --- 728.6 0.022 0.000 8.2 5 1
02/24/06 7:35 a -13.3 -13.3 -13.3 --- --- 20.9 E 0.35 25.2 -24.9 --- --- 728.7 0.022 0.000 8.2 5 1
02/24/06 7:36 a -13.3 -13.3 -13.3 --- --- 21.7 E 0.36 23.5 -25.2 --- --- 728.6 0.022 0.000 8.2 5 1
02/24/06 7:37 a -13.3 -13.3 -13.4 --- --- 20.9 E 0.35 24.3 -24.9 --- --- 728.5 0.022 0.000 8.2 5 1
02/24/06 7:38 a -13.4 -13.3 -13.4 --- --- 21.7 E 0.36 25.2 -25.2 --- --- 728.6 0.022 0.000 8.2 5 1
02/24/06 7:39 a -13.4 -13.3 -13.4 --- --- 20.9 E 0.35 23.5 -25.1 --- --- 728.6 0.022 0.000 8.2 5 1
02/24/06 7:40 a -13.4 -13.3 -13.4 --- --- 20.9 E 0.35 23.5 -25.1 --- --- 728.6 0.022 0.000 8.2 5 1
02/24/06 7:41 a -13.4 -13.4 -13.4 --- --- 21.7 E 0.36 25.2 -25.2 --- --- 728.5 0.022 0.000 8.2 5 1
02/24/06 7:42 a -13.4 -13.4 -13.4 --- --- 22.6 E 0.38 25.2 -25.5 --- --- 728.5 0.022 0.000 8.2 5 1
02/24/06 7:43 a -13.4 -13.4 -13.4 --- --- 20.9 E 0.35 23.5 -25.1 --- --- 728.5 0.022 0.000 8.2 5 1
02/24/06 7:44 a -13.5 -13.4 -13.5 --- --- 20.0 E 0.33 23.5 -25.0 --- --- 728.6 0.022 0.000 8.2 5 1
02/24/06 7:45 a -13.5 -13.5 -13.5 --- --- 20.0 E 0.33 24.3 -25.0 --- --- 728.5 0.022 0.000 8.2 5 1
02/24/06 7:46 a -13.5 -13.5 -13.5 --- --- 20.0 E 0.33 22.6 -25.0 --- --- 728.6 0.022 0.000 8.2 5 1
02/24/06 7:47 a -13.6 -13.5 -13.6 --- --- 21.7 ESE 0.36 24.3 -25.4 --- --- 728.5 0.022 0.000 8.2 5 1
02/24/06 7:48 a -13.6 -13.6 -13.6 --- --- 21.7 E 0.36 25.2 -25.4 --- --- 728.5 0.022 0.000 8.2 5 1
02/24/06 7:49 a -13.6 -13.6 -13.6 --- --- 21.7 E 0.36 25.2 -25.4 --- --- 728.5 0.022 0.000 8.2 5 1
02/24/06 7:50 a -13.6 -13.6 -13.6 --- --- 20.0 E 0.33 23.5 -25.1 --- --- 728.5 0.022 0.000 8.1 5 1
02/24/06 7:51 a -13.6 -13.6 -13.6 --- --- 20.0 E 0.33 23.5 -25.1 --- --- 728.4 0.022 0.000 8.2 5 1
02/24/06 7:52 a -13.6 -13.6 -13.7 --- --- 20.9 E 0.35 24.3 -25.3 --- --- 728.5 0.022 0.000 8.1 5 1
02/24/06 7:53 a -13.7 -13.6 -13.7 --- --- 21.7 E 0.36 24.3 -25.6 --- --- 728.5 0.022 0.000 8.1 5 1
02/24/06 7:54 a -13.7 -13.7 -13.7 --- --- 20.9 E 0.35 24.3 -25.4 --- --- 728.4 0.022 0.000 8.1 5 1
02/24/06 7:55 a -13.7 -13.7 -13.7 --- --- 20.0 E 0.33 23.5 -25.2 --- --- 728.5 0.022 0.000 8.1 5 1
02/24/06 7:56 a -13.7 -13.7 -13.7 --- --- 20.9 E 0.35 24.3 -25.5 --- --- 728.5 0.022 0.000 8.1 5 1
02/24/06 7:57 a -13.7 -13.7 -13.7 --- --- 20.9 E 0.35 24.3 -25.5 --- --- 728.4 0.022 0.000 8.1 5 1
02/24/06 7:58 a -13.7 -13.7 -13.8 --- --- 20.9 E 0.35 24.3 -25.5 --- --- 728.4 0.022 0.000 8.1 5 1
02/24/06 7:59 a -13.8 -13.8 -13.8 --- --- 20.9 E 0.35 26.1 -25.6 --- --- 728.4 0.022 0.000 8.1 5 1
02/24/06 8:00 a -13.8 -13.8 -13.8 --- --- 20.0 E 0.33 23.5 -25.3 --- --- 728.4 0.022 0.000 8.1 5 1
02/24/06 8:01 a -13.8 -13.8 -13.8 --- --- 21.7 E 0.36 25.2 -25.8 --- --- 728.4 0.022 0.000 8.1 5 1
02/24/06 8:02 a -13.8 -13.8 -13.8 --- --- 20.9 E 0.35 22.6 -25.6 --- --- 728.4 0.022 0.000 8.1 5 1
02/24/06 8:03 a -13.8 -13.8 -13.8 --- --- 21.7 E 0.36 24.3 -25.8 --- --- 728.4 0.022 0.000 8.1 5 1
02/24/06 8:04 a -13.8 -13.8 -13.8 --- --- 21.7 E 0.36 25.2 -25.8 --- --- 728.4 0.022 0.000 8.1 5 1
02/24/06 8:05 a -13.8 -13.8 -13.8 --- --- 22.6 E 0.38 26.1 -26.0 --- --- 728.3 0.022 0.000 8.1 5 1
02/24/06 8:06 a -13.9 -13.9 -13.9 --- --- 22.6 E 0.38 26.1 -26.1 --- --- 728.4 0.022 0.000 8.1 5 1
02/24/06 8:07 a -13.9 -13.9 -13.9 --- --- 21.7 E 0.36 25.2 -25.9 --- --- 728.4 0.022 0.000 8.1 5 1
02/24/06 8:08 a -13.9 -13.9 -13.9 --- --- 21.7 E 0.36 25.2 -25.9 --- --- 728.4 0.022 0.000 8.1 5 1
02/24/06 8:09 a -13.9 -13.9 -13.9 --- --- 22.6 E 0.38 24.3 -26.1 --- --- 728.2 0.022 0.000 8.1 5 1
02/24/06 8:10 a -13.9 -13.9 -13.9 --- --- 20.9 E 0.35 23.5 -25.7 --- --- 728.3 0.022 0.000 8.1 5 1
02/24/06 8:11 a -13.9 -13.9 -13.9 --- --- 20.9 E 0.35 23.5 -25.7 --- --- 728.3 0.022 0.000 8.1 5 1
02/24/06 8:12 a -13.9 -13.9 -13.9 --- --- 20.9 E 0.35 24.3 -25.8 --- --- 728.3 0.022 0.000 8.1 5 1
02/24/06 8:13 a -13.9 -13.9 -13.9 --- --- 21.7 E 0.36 26.1 -26.0 --- --- 728.2 0.022 0.000 8.1 5 1
02/24/06 8:14 a -13.9 -13.9 -13.9 --- --- 23.5 E 0.39 27.0 -26.3 --- --- 728.3 0.022 0.000 8.1 5 1
02/24/06 8:15 a -13.9 -13.9 -14.0 --- --- 23.5 E 0.39 27.8 -26.3 --- --- 728.2 0.022 0.000 8.1 5 1
02/24/06 8:16 a -13.9 -13.9 -13.9 --- --- 23.5 E 0.39 26.1 -26.3 --- --- 728.2 0.022 0.000 8.1 5 1
02/24/06 8:17 a -13.9 -13.9 -13.9 --- --- 23.5 E 0.39 26.1 -26.3 --- --- 728.2 0.022 0.000 8.1 5 1
02/24/06 8:18 a -13.9 -13.9 -13.9 --- --- 23.5 E 0.39 26.1 -26.3 --- --- 728.2 0.022 0.000 8.1 5 1
02/24/06 8:19 a -13.9 -13.9 -13.9 --- --- 21.7 E 0.36 24.3 -26.0 --- --- 728.3 0.022 0.000 8.1 5 1
02/24/06 8:20 a -13.9 -13.9 -13.9 --- --- 20.9 ESE 0.35 24.3 -25.8 --- --- 728.2 0.022 0.000 8.1 5 1
02/24/06 8:21 a -13.9 -13.9 -13.9 --- --- 20.9 E 0.35 24.3 -25.8 --- --- 728.2 0.022 0.000 8.1 5 1
02/24/06 8:22 a -13.9 -13.9 -13.9 --- --- 20.9 E 0.35 26.1 -25.8 --- --- 728.3 0.022 0.000 8.1 5 1
02/24/06 8:23 a -13.9 -13.9 -13.9 --- --- 22.6 E 0.38 26.1 -26.2 --- --- 728.2 0.022 0.000 8.1 5 1
02/24/06 8:24 a -13.9 -13.9 -13.9 --- --- 24.3 E 0.41 27.0 -26.6 --- --- 728.2 0.022 0.000 8.1 5 1
02/24/06 8:25 a -13.9 -13.9 -13.9 --- --- 23.5 E 0.39 27.0 -26.3 --- --- 728.2 0.022 0.000 8.1 5 1
02/24/06 8:26 a -13.9 -13.9 -13.9 --- --- 21.7 E 0.36 23.5 -26.0 --- --- 728.3 0.022 0.000 8.1 5 1
02/24/06 8:27 a -13.9 -13.9 -13.9 --- --- 20.9 E 0.35 24.3 -25.8 --- --- 728.3 0.022 0.000 8.1 5 1
02/24/06 8:28 a -13.9 -13.9 -13.9 --- --- 20.9 E 0.35 24.3 -25.8 --- --- 728.3 0.022 0.000 8.1 5 1
02/24/06 8:29 a -13.9 -13.9 -13.9 --- --- 20.9 E 0.35 23.5 -25.8 --- --- 728.2 0.022 0.000 8.1 5 1
02/24/06 8:30 a -13.9 -13.9 -13.9 --- --- 21.7 E 0.36 23.5 -26.0 --- --- 728.3 0.022 0.000 8.1 5 1
02/24/06 8:31 a -13.9 -13.9 -13.9 --- --- 19.1 E 0.32 22.6 -25.4 --- --- 728.3 0.022 0.000 8.1 5 1
02/24/06 8:32 a -13.9 -13.9 -13.9 --- --- 19.1 E 0.32 23.5 -25.4 --- --- 728.3 0.022 0.000 8.1 5 1
02/24/06 8:33 a -13.9 -13.9 -13.9 --- --- 20.9 E 0.35 23.5 -25.8 --- --- 728.4 0.022 0.000 8.1 5 1
02/24/06 8:34 a -13.9 -13.9 -14.0 --- --- 20.0 E 0.33 23.5 -25.6 --- --- 728.3 0.022 0.000 8.1 5 1
02/24/06 8:35 a -13.9 -13.9 -14.0 --- --- 20.9 E 0.35 23.5 -25.8 --- --- 728.2 0.022 0.000 8.1 5 1
02/24/06 8:36 a -14.0 -14.0 -14.0 --- --- 20.9 ESE 0.35 24.3 -25.8 --- --- 728.2 0.022 0.000 8.0 5 1
02/24/06 8:37 a -14.0 -14.0 -14.0 --- --- 20.0 E 0.33 22.6 -25.7 --- --- 728.3 0.022 0.000 8.0 5 1
02/24/06 8:38 a -14.0 -14.0 -14.0 --- --- 20.0 E 0.33 23.5 -25.7 --- --- 728.3 0.022 0.000 8.0 5 1
02/24/06 8:39 a -14.0 -14.0 -14.0 --- --- 21.7 E 0.36 23.5 -26.1 --- --- 728.3 0.022 0.000 8.0 5 1
02/24/06 8:40 a -14.0 -14.0 -14.0 --- --- 20.9 E 0.35 25.2 -25.8 --- --- 728.2 0.022 0.000 8.0 5 1
02/24/06 8:41 a -14.0 -14.0 -14.0 --- --- 21.7 E 0.36 25.2 -26.1 --- --- 728.3 0.022 0.000 8.0 5 1
02/24/06 8:42 a -14.0 -14.0 -14.1 --- --- 22.6 E 0.38 24.3 -26.2 --- --- 728.2 0.022 0.000 8.0 5 1
02/24/06 8:43 a -14.0 -14.0 -14.0 --- --- 23.5 E 0.39 27.0 -26.4 --- --- 728.1 0.022 0.000 8.0 5 1
02/24/06 8:44 a -14.0 -14.0 -14.0 --- --- 23.5 E 0.39 25.2 -26.4 --- --- 728.1 0.022 0.000 8.0 5 1
02/24/06 8:45 a -14.0 -14.0 -14.1 --- --- 24.3 E 0.41 27.8 -26.6 --- --- 728.1 0.022 0.000 8.0 5 1
02/24/06 8:46 a -14.0 -14.0 -14.1 --- --- 25.2 E 0.42 27.8 -26.8 --- --- 728.0 0.022 0.000 7.9 5 1
02/24/06 8:47 a -14.0 -14.0 -14.1 --- --- 23.5 E 0.39 27.0 -26.4 --- --- 728.1 0.022 0.000 7.9 4 1
02/24/06 8:48 a -14.0 -14.0 -14.0 --- --- 22.6 E 0.38 25.2 -26.2 --- --- 728.1 0.022 0.000 7.9 5 1
02/24/06 8:49 a -14.0 -14.0 -14.0 --- --- 20.9 ESE 0.35 24.3 -25.8 --- --- 728.2 0.022 0.000 7.9 5 1
02/24/06 8:50 a -14.0 -14.0 -14.0 --- --- 22.6 E 0.38 25.2 -26.2 --- --- 728.2 0.022 0.000 7.9 5 1
02/24/06 8:51 a -14.0 -14.0 -14.0 --- --- 23.5 E 0.39 27.8 -26.4 --- --- 728.1 0.022 0.000 7.9 5 1
02/24/06 8:52 a -14.0 -14.0 -14.0 --- --- 21.7 E 0.36 25.2 -26.1 --- --- 728.2 0.022 0.000 7.9 5 1
02/24/06 8:53 a -14.0 -14.0 -14.0 --- --- 21.7 E 0.36 25.2 -26.1 --- --- 728.0 0.022 0.000 7.9 5 1
02/24/06 8:54 a -14.0 -14.0 -14.0 --- --- 23.5 E 0.39 26.1 -26.4 --- --- 728.1 0.022 0.000 7.9 4 1
02/24/06 8:55 a -14.0 -14.0 -14.0 --- --- 20.9 E 0.35 24.3 -25.8 --- --- 728.1 0.022 0.000 7.9 5 1
02/24/06 8:56 a -14.0 -14.0 -14.0 --- --- 21.7 E 0.36 25.2 -26.1 --- --- 728.2 0.022 0.000 7.9 4 1
02/24/06 8:57 a -14.0 -14.0 -14.0 --- --- 23.5 E 0.39 27.0 -26.4 --- --- 728.1 0.022 0.000 7.9 5 1
02/24/06 8:58 a -14.0 -14.0 -14.0 --- --- 22.6 E 0.38 27.0 -26.2 --- --- 728.2 0.022 0.000 7.9 4 1
02/24/06 8:59 a -14.0 -14.0 -14.0 --- --- 21.7 E 0.36 26.1 -26.1 --- --- 728.2 0.022 0.000 7.9 5 1
02/24/06 9:00 a -14.0 -14.0 -14.0 --- --- 22.6 E 0.38 24.3 -26.2 --- --- 728.2 0.022 0.000 7.9 4 1
02/24/06 9:01 a -14.0 -14.0 -14.0 --- --- 21.7 E 0.36 24.3 -26.1 --- --- 728.1 0.022 0.000 7.9 5 1
02/24/06 9:02 a -14.0 -14.0 -14.0 --- --- 21.7 E 0.36 24.3 -26.1 --- --- 728.1 0.022 0.000 7.9 5 1
02/24/06 9:03 a -14.0 -14.0 -14.0 --- --- 20.9 E 0.35 24.3 -25.8 --- --- 728.2 0.022 0.000 7.9 5 1
02/24/06 9:04 a -14.0 -14.0 -14.0 --- --- 20.9 E 0.35 24.3 -25.8 --- --- 728.0 0.022 0.000 7.9 5 1
02/24/06 9:05 a -14.0 -14.0 -14.0 --- --- 21.7 E 0.36 24.3 -26.1 --- --- 728.2 0.022 0.000 7.9 5 1
02/24/06 9:06 a -14.0 -14.0 -14.0 --- --- 20.9 E 0.35 22.6 -25.8 --- --- 728.2 0.022 0.000 7.9 4 1
02/24/06 9:07 a -14.0 -14.0 -14.0 --- --- 20.9 E 0.35 24.3 -25.8 --- --- 728.1 0.022 0.000 7.9 5 1
02/24/06 9:08 a -14.0 -14.0 -14.0 --- --- 20.0 E 0.33 22.6 -25.7 --- --- 728.2 0.022 0.000 7.9 4 1
02/24/06 9:09 a -13.9 -13.9 -13.9 --- --- 20.9 E 0.35 23.5 -25.8 --- --- 728.2 0.022 0.000 7.9 4 1
02/24/06 9:10 a -13.9 -13.9 -13.9 --- --- 21.7 E 0.36 23.5 -26.0 --- --- 728.1 0.022 0.000 7.9 5 1
02/24/06 9:11 a -13.9 -13.9 -14.0 --- --- 20.9 E 0.35 23.5 -25.8 --- --- 728.2 0.022 0.000 7.9 5 1
02/24/06 9:12 a -13.9 -13.9 -13.9 --- --- 18.3 E 0.30 20.9 -25.2 --- --- 728.2 0.022 0.000 7.9 5 1
02/24/06 9:13 a -13.9 -13.9 -13.9 --- --- 18.3 E 0.30 20.0 -25.2 --- --- 728.2 0.022 0.000 7.9 4 1
02/24/06 9:14 a -13.9 -13.9 -13.9 --- --- 18.3 E 0.30 20.9 -25.2 --- --- 728.2 0.022 0.000 7.9 5 1
02/24/06 9:15 a -13.9 -13.9 -13.9 --- --- 18.3 E 0.30 20.0 -25.1 --- --- 728.2 0.022 0.000 7.9 4 1
02/24/06 9:16 a -13.9 -13.9 -13.9 --- --- 19.1 ESE 0.32 21.7 -25.3 --- --- 728.2 0.022 0.000 7.9 5 1
02/24/06 9:17 a -13.9 -13.9 -13.9 --- --- 19.1 E 0.32 21.7 -25.3 --- --- 728.1 0.022 0.000 7.9 5 1
02/24/06 9:18 a -13.9 -13.9 -13.9 --- --- 20.0 E 0.33 23.5 -25.5 --- --- 728.2 0.022 0.000 7.9 5 1
02/24/06 9:19 a -13.9 -13.9 -13.9 --- --- 20.0 E 0.33 22.6 -25.5 --- --- 728.2 0.022 0.000 7.9 5 1
02/24/06 9:20 a -13.9 -13.9 -13.9 --- --- 20.0 E 0.33 22.6 -25.5 --- --- 728.2 0.022 0.000 7.9 5 1
02/24/06 9:21 a -13.9 -13.9 -13.9 --- --- 20.0 E 0.33 22.6 -25.5 --- --- 728.2 0.022 0.000 7.9 5 1
02/24/06 9:22 a -13.9 -13.9 -13.9 --- --- 20.9 E 0.35 23.5 -25.7 --- --- 728.2 0.022 0.000 7.9 5 1
02/24/06 9:23 a -13.9 -13.9 -13.9 --- --- 20.0 ESE 0.33 22.6 -25.5 --- --- 728.3 0.022 0.000 7.9 5 1
02/24/06 9:24 a -13.9 -13.9 -13.9 --- --- 19.1 E 0.32 20.0 -25.3 --- --- 728.2 0.022 0.000 7.9 5 1
02/24/06 9:25 a -13.9 -13.9 -13.9 --- --- 17.4 E 0.29 20.9 -24.8 --- --- 728.3 0.022 0.000 7.9 5 1
02/24/06 9:26 a -13.9 -13.9 -13.9 --- --- 17.4 E 0.29 20.0 -24.8 --- --- 728.3 0.022 0.000 7.9 4 1
02/24/06 9:27 a -13.9 -13.9 -13.9 --- --- 17.4 E 0.29 20.9 -24.8 --- --- 728.3 0.022 0.000 7.9 5 1
02/24/06 9:28 a -13.9 -13.9 -13.9 --- --- 18.3 E 0.30 21.7 -25.1 --- --- 728.3 0.022 0.000 7.9 5 1
02/24/06 9:29 a -13.9 -13.9 -13.9 --- --- 19.1 E 0.32 21.7 -25.3 --- --- 728.2 0.022 0.000 7.9 5 1
02/24/06 9:30 a -13.9 -13.9 -13.9 --- --- 19.1 E 0.32 21.7 -25.4 --- --- 728.2 0.022 0.000 7.9 5 1
02/24/06 9:31 a -13.9 -13.9 -13.9 --- --- 18.3 E 0.30 20.9 -25.2 --- --- 728.2 0.022 0.000 7.9 5 1
02/24/06 9:32 a -13.9 -13.9 -13.9 --- --- 18.3 E 0.30 21.7 -25.2 --- --- 728.3 0.022 0.000 7.9 4 1
02/24/06 9:33 a -13.9 -13.9 -13.9 --- --- 18.3 E 0.30 20.9 -25.2 --- --- 728.3 0.022 0.000 7.9 5 1
02/24/06 9:34 a -13.9 -13.9 -13.9 --- --- 17.4 E 0.29 20.0 -24.9 --- --- 728.2 0.022 0.000 7.9 5 1
02/24/06 9:35 a -13.9 -13.9 -13.9 --- --- 17.4 E 0.29 20.9 -24.9 --- --- 728.2 0.022 0.000 7.9 5 1
02/24/06 9:36 a -13.9 -13.9 -14.0 --- --- 19.1 E 0.32 20.9 -25.4 --- --- 728.2 0.022 0.000 7.9 5 1
02/24/06 9:37 a -14.0 -13.9 -14.0 --- --- 20.0 E 0.33 21.7 -25.7 --- --- 728.2 0.022 0.000 7.9 5 1
02/24/06 9:38 a -13.9 -13.9 -14.0 --- --- 20.9 E 0.35 22.6 -25.8 --- --- 728.2 0.022 0.000 7.9 5 1
02/24/06 9:39 a -14.0 -14.0 -14.0 --- --- 20.9 E 0.35 23.5 -25.8 --- --- 728.2 0.022 0.000 7.9 5 1
02/24/06 9:40 a -14.0 -14.0 -14.0 --- --- 20.0 E 0.33 22.6 -25.7 --- --- 728.2 0.022 0.000 7.9 5 1
02/24/06 9:41 a -14.0 -14.0 -14.0 --- --- 19.1 E 0.32 20.9 -25.4 --- --- 728.3 0.022 0.000 7.9 5 1
02/24/06 9:42 a -14.0 -14.0 -14.0 --- --- 18.3 E 0.30 21.7 -25.2 --- --- 728.2 0.022 0.000 7.8 5 1
02/24/06 9:43 a -14.0 -14.0 -14.0 --- --- 18.3 E 0.30 22.6 -25.2 --- --- 728.2 0.022 0.000 7.9 5 1
02/24/06 9:44 a -14.0 -14.0 -14.0 --- --- 18.3 E 0.30 20.9 -25.2 --- --- 728.2 0.022 0.000 7.8 5 1
02/24/06 9:45 a -14.0 -13.9 -14.0 --- --- 20.0 E 0.33 22.6 -25.7 --- --- 728.1 0.022 0.000 7.8 5 1
02/24/06 9:46 a -14.0 -14.0 -14.0 --- --- 21.7 E 0.36 23.5 -26.1 --- --- 728.1 0.022 0.000 7.8 5 1
02/24/06 9:47 a -13.9 -13.9 -14.0 --- --- 22.6 E 0.38 24.3 -26.2 --- --- 728.2 0.022 0.000 7.8 4 1
02/24/06 9:48 a -13.9 -13.9 -13.9 --- --- 23.5 ESE 0.39 24.3 -26.3 --- --- 728.2 0.022 0.000 7.8 4 1
02/24/06 9:49 a -13.9 -13.9 -14.0 --- --- 23.5 ESE 0.39 25.2 -26.3 --- --- 728.2 0.022 0.000 7.8 5 1
02/24/06 9:50 a -13.9 -13.9 -13.9 --- --- 23.5 ESE 0.39 24.3 -26.3 --- --- 728.1 0.022 0.000 7.8 4 1
02/24/06 9:51 a -13.9 -13.9 -13.9 --- --- 22.6 ESE 0.38 23.5 -26.2 --- --- 728.1 0.022 0.000 7.8 5 1
02/24/06 9:52 a -13.9 -13.9 -13.9 --- --- 22.6 ESE 0.38 24.3 -26.2 --- --- 728.1 0.022 0.000 7.8 5 1
02/24/06 9:53 a -13.9 -13.9 -13.9 --- --- 20.9 ESE 0.35 23.5 -25.8 --- --- 728.1 0.022 0.000 7.8 4 1
02/24/06 9:54 a -13.9 -13.9 -13.9 --- --- 22.6 ESE 0.38 24.3 -26.1 --- --- 728.1 0.022 0.000 7.8 5 1
02/24/06 9:55 a -13.9 -13.9 -13.9 --- --- 21.7 E 0.36 24.3 -25.9 --- --- 728.1 0.022 0.000 7.8 4 1
02/24/06 9:56 a -13.9 -13.9 -13.9 --- --- 22.6 E 0.38 24.3 -26.1 --- --- 728.1 0.022 0.000 7.8 4 1
02/24/06 9:57 a -13.9 -13.9 -13.9 --- --- 22.6 E 0.38 24.3 -26.1 --- --- 728.1 0.022 0.000 7.8 4 1
02/24/06 9:58 a -13.9 -13.9 -13.9 --- --- 22.6 E 0.38 25.2 -26.2 --- --- 728.1 0.022 0.000 7.8 5 1
02/24/06 9:59 a -13.9 -13.9 -13.9 --- --- 22.6 ESE 0.38 24.3 -26.2 --- --- 728.1 0.022 0.000 7.8 5 1
02/24/06 10:00 a -13.9 -13.9 -13.9 --- --- 23.5 ESE 0.39 24.3 -26.3 --- --- 728.0 0.022 0.000 7.8 4 1
02/24/06 10:01 a -13.9 -13.9 -13.9 --- --- 22.6 E 0.38 25.2 -26.2 --- --- 728.0 0.022 0.000 7.8 5 1
02/24/06 10:02 a -13.9 -13.9 -14.0 --- --- 23.5 E 0.39 25.2 -26.3 --- --- 728.0 0.022 0.000 7.8 5 1
02/24/06 10:03 a -14.0 -13.9 -14.0 --- --- 22.6 E 0.38 25.2 -26.2 --- --- 728.0 0.022 0.000 7.8 5 1
02/24/06 10:04 a -13.9 -13.9 -14.0 --- --- 22.6 E 0.38 24.3 -26.2 --- --- 728.1 0.022 0.000 7.8 4 1
02/24/06 10:05 a -14.0 -14.0 -14.0 --- --- 23.5 ESE 0.39 25.2 -26.4 --- --- 728.0 0.022 0.000 7.8 5 1
02/24/06 10:06 a -14.0 -14.0 -14.0 --- --- 23.5 ESE 0.39 26.1 -26.4 --- --- 727.9 0.022 0.000 7.8 5 1
02/24/06 10:07 a -13.9 -13.9 -14.0 --- --- 23.5 ESE 0.39 25.2 -26.3 --- --- 727.9 0.022 0.000 7.8 5 1
02/24/06 10:08 a -13.9 -13.9 -14.0 --- --- 23.5 ESE 0.39 25.2 -26.3 --- --- 728.0 0.022 0.000 7.8 4 1
02/24/06 10:09 a -13.9 -13.9 -14.0 --- --- 23.5 ESE 0.39 25.2 -26.3 --- --- 728.0 0.022 0.000 7.8 5 1
02/24/06 10:10 a -14.0 -13.9 -14.0 --- --- 23.5 E 0.39 25.2 -26.4 --- --- 728.0 0.022 0.000 7.8 5 1
02/24/06 10:11 a -13.9 -13.9 -14.0 --- --- 23.5 ESE 0.39 25.2 -26.3 --- --- 728.0 0.022 0.000 7.8 4 1
02/24/06 10:12 a -13.9 -13.9 -13.9 --- --- 21.7 E 0.36 23.5 -26.0 --- --- 728.0 0.022 0.000 7.8 4 1
02/24/06 10:13 a -13.9 -13.9 -14.0 --- --- 20.9 E 0.35 23.5 -25.8 --- --- 728.1 0.022 0.000 7.8 5 1
02/24/06 10:14 a -14.0 -14.0 -14.0 --- --- 20.0 E 0.33 22.6 -25.7 --- --- 728.1 0.022 0.000 7.8 5 1
02/24/06 10:15 a -14.0 -13.9 -14.0 --- --- 20.0 E 0.33 25.2 -25.7 --- --- 727.9 0.022 0.000 7.8 4 1
02/24/06 10:16 a -14.0 -13.9 -14.0 --- --- 23.5 E 0.39 25.2 -26.4 --- --- 728.0 0.022 0.000 7.8 5 1
02/24/06 10:17 a -14.0 -13.9 -14.0 --- --- 22.6 E 0.38 24.3 -26.2 --- --- 727.9 0.022 0.000 7.8 5 1
02/24/06 10:18 a -14.0 -13.9 -14.0 --- --- 20.9 E 0.35 23.5 -25.8 --- --- 728.0 0.022 0.000 7.8 5 1
02/24/06 10:19 a -14.0 -13.9 -14.0 --- --- 21.7 E 0.36 24.3 -26.1 --- --- 728.0 0.022 0.000 7.8 5 1
02/24/06 10:20 a -13.9 -13.9 -14.0 --- --- 21.7 E 0.36 25.2 -26.0 --- --- 728.0 0.022 0.000 7.8 4 1
02/24/06 10:21 a -14.0 -13.9 -14.0 --- --- 20.0 E 0.33 22.6 -25.7 --- --- 728.1 0.022 0.000 7.8 5 1
02/24/06 10:22 a -14.0 -14.0 -14.0 --- --- 20.0 E 0.33 22.6 -25.7 --- --- 728.0 0.022 0.000 7.8 4 1
02/24/06 10:23 a -14.0 -14.0 -14.0 --- --- 19.1 E 0.32 22.6 -25.4 --- --- 728.0 0.022 0.000 7.8 4 1
02/24/06 10:24 a -14.0 -14.0 -14.0 --- --- 18.3 E 0.30 20.9 -25.2 --- --- 728.1 0.022 0.000 7.8 4 1
02/24/06 10:25 a -14.0 -14.0 -14.0 --- --- 16.5 E 0.28 20.0 -24.7 --- --- 728.0 0.022 0.000 7.8 5 1
02/24/06 10:26 a -14.0 -14.0 -14.0 --- --- 17.4 E 0.29 18.3 -25.0 --- --- 728.1 0.022 0.000 7.8 4 1
02/24/06 10:27 a -14.0 -13.9 -14.0 --- --- 20.0 E 0.33 22.6 -25.7 --- --- 728.0 0.022 0.000 7.8 4 1
02/24/06 10:28 a -14.0 -13.9 -14.0 --- --- 19.1 E 0.32 20.0 -25.4 --- --- 728.1 0.022 0.000 7.8 4 1
02/24/06 10:29 a -14.0 -13.9 -14.0 --- --- 17.4 E 0.29 20.0 -25.0 --- --- 728.0 0.022 0.000 7.8 4 1
02/24/06 10:30 a -14.0 -14.0 -14.0 --- --- 20.0 E 0.33 23.5 -25.7 --- --- 728.0 0.022 0.000 7.8 5 1
02/24/06 10:31 a -14.0 -14.0 -14.1 --- --- 19.1 E 0.32 21.7 -25.4 --- --- 728.0 0.022 0.000 7.8 5 1
02/24/06 10:32 a -14.0 -14.0 -14.1 --- --- 18.3 E 0.30 20.9 -25.2 --- --- 728.0 0.022 0.000 7.8 5 1
02/24/06 10:33 a -14.1 -14.1 -14.1 --- --- 20.9 E 0.35 23.5 -25.9 --- --- 727.9 0.022 0.000 7.8 5 1
02/24/06 10:34 a -14.1 -14.1 -14.1 --- --- 20.9 E 0.35 24.3 -25.9 --- --- 727.9 0.022 0.000 7.7 5 1
02/24/06 10:35 a -14.1 -14.1 -14.1 --- --- 19.1 E 0.32 24.3 -25.5 --- --- 728.0 0.022 0.000 7.7 4 1
02/24/06 10:36 a -14.1 -14.1 -14.1 --- --- 16.5 E 0.28 20.0 -24.9 --- --- 728.0 0.023 0.000 7.7 4 1
02/24/06 10:37 a -14.1 -14.1 -14.1 --- --- 17.4 E 0.29 20.0 -25.1 --- --- 728.0 0.023 0.000 7.7 4 1
02/24/06 10:38 a -14.1 -14.1 -14.1 --- --- 19.1 E 0.32 21.7 -25.6 --- --- 727.9 0.023 0.000 7.7 5 1
02/24/06 10:39 a -14.1 -14.1 -14.2 --- --- 19.1 E 0.32 22.6 -25.6 --- --- 728.0 0.023 0.000 7.7 4 1
02/24/06 10:40 a -14.2 -14.1 -14.2 --- --- 16.5 E 0.28 20.9 -24.9 --- --- 728.0 0.023 0.000 7.7 4 1
02/24/06 10:41 a -14.2 -14.2 -14.2 --- --- 17.4 E 0.29 20.0 -25.2 --- --- 727.9 0.023 0.000 7.7 4 1
02/24/06 10:42 a -14.2 -14.2 -14.2 --- --- 18.3 E 0.30 20.0 -25.4 --- --- 728.0 0.023 0.000 7.7 4 1
02/24/06 10:43 a -14.2 -14.2 -14.2 --- --- 18.3 E 0.30 21.7 -25.4 --- --- 727.9 0.023 0.000 7.7 5 1
02/24/06 10:44 a -14.2 -14.2 -14.2 --- --- 18.3 E 0.30 20.9 -25.4 --- --- 727.9 0.023 0.000 7.7 5 1
02/24/06 10:45 a -14.2 -14.2 -14.2 --- --- 18.3 E 0.30 20.9 -25.5 --- --- 727.9 0.023 0.000 7.7 5 1
02/24/06 10:46 a -14.2 -14.2 -14.2 --- --- 19.1 E 0.32 21.7 -25.7 --- --- 727.9 0.023 0.000 7.7 5 1
02/24/06 10:47 a -14.2 -14.2 -14.2 --- --- 17.4 E 0.29 20.0 -25.3 --- --- 728.0 0.023 0.000 7.7 4 1
02/24/06 10:48 a -14.2 -14.2 -14.2 --- --- 18.3 E 0.30 20.0 -25.5 --- --- 727.9 0.023 0.000 7.7 4 1
02/24/06 10:49 a -14.2 -14.2 -14.2 --- --- 17.4 E 0.29 20.9 -25.3 --- --- 728.0 0.023 0.000 7.7 5 1
02/24/06 10:50 a -14.2 -14.2 -14.2 --- --- 17.4 E 0.29 20.0 -25.3 --- --- 728.0 0.023 0.000 7.8 4 1
02/24/06 10:51 a -14.2 -14.2 -14.2 --- --- 17.4 E 0.29 20.0 -25.3 --- --- 727.9 0.023 0.000 7.8 4 1
02/24/06 10:52 a -14.2 -14.2 -14.2 --- --- 17.4 E 0.29 19.1 -25.3 --- --- 727.9 0.023 0.000 7.8 5 1
02/24/06 10:53 a -14.2 -14.2 -14.2 --- --- 17.4 E 0.29 20.9 -25.3 --- --- 727.9 0.023 0.000 7.8 5 1
02/24/06 10:54 a -14.2 -14.2 -14.3 --- --- 17.4 E 0.29 19.1 -25.3 --- --- 727.9 0.023 0.000 7.8 5 1
02/24/06 10:55 a -14.2 -14.2 -14.3 --- --- 18.3 E 0.30 20.0 -25.5 --- --- 727.9 0.023 0.000 7.8 5 1
02/24/06 10:56 a -14.3 -14.3 -14.3 --- --- 18.3 E 0.30 20.0 -25.6 --- --- 728.0 0.023 0.000 7.8 5 1
02/24/06 10:57 a -14.3 -14.3 -14.3 --- --- 17.4 E 0.29 20.0 -25.3 --- --- 728.0 0.023 0.000 7.8 5 1
02/24/06 10:58 a -14.3 -14.2 -14.3 --- --- 17.4 E 0.29 20.0 -25.3 --- --- 728.0 0.023 0.000 7.8 4 1
02/24/06 10:59 a -14.3 -14.2 -14.3 --- --- 18.3 E 0.30 20.9 -25.6 --- --- 728.0 0.023 0.000 7.8 4 1
02/24/06 11:00 a -14.2 -14.2 -14.3 --- --- 17.4 E 0.29 20.9 -25.3 --- --- 728.0 0.023 0.000 7.8 4 1
02/24/06 11:01 a -14.2 -14.2 -14.2 --- --- 17.4 E 0.29 20.0 -25.3 --- --- 728.0 0.023 0.000 7.8 4 1
02/24/06 11:02 a -14.2 -14.2 -14.2 --- --- 17.4 E 0.29 20.0 -25.3 --- --- 728.0 0.023 0.000 7.8 4 1
02/24/06 11:03 a -14.2 -14.2 -14.2 --- --- 17.4 E 0.29 20.0 -25.3 --- --- 728.0 0.023 0.000 7.8 4 1
02/24/06 11:04 a -14.2 -14.2 -14.2 --- --- 16.5 E 0.28 20.0 -25.1 --- --- 727.9 0.023 0.000 7.8 5 1
02/24/06 11:05 a -14.2 -14.2 -14.2 --- --- 17.4 E 0.29 19.1 -25.3 --- --- 728.0 0.023 0.000 7.8 4 1
02/24/06 11:06 a -14.2 -14.2 -14.2 --- --- 17.4 E 0.29 21.7 -25.2 --- --- 728.0 0.023 0.000 7.8 4 1
02/24/06 11:07 a -14.2 -14.2 -14.2 --- --- 17.4 E 0.29 19.1 -25.2 --- --- 728.0 0.023 0.000 7.8 4 1
02/24/06 11:08 a -14.2 -14.2 -14.2 --- --- 18.3 E 0.30 20.0 -25.5 --- --- 727.9 0.023 0.000 7.8 5 1
02/24/06 11:09 a -14.2 -14.2 -14.2 --- --- 18.3 E 0.30 20.9 -25.5 --- --- 727.9 0.023 0.000 7.8 5 1
02/24/06 11:10 a -14.2 -14.2 -14.2 --- --- 18.3 E 0.30 20.9 -25.5 --- --- 727.9 0.023 0.000 7.8 5 1
02/24/06 11:11 a -14.2 -14.2 -14.2 --- --- 17.4 E 0.29 20.0 -25.3 --- --- 727.9 0.023 0.000 7.8 4 1
02/24/06 11:12 a -14.2 -14.2 -14.2 --- --- 17.4 E 0.29 20.0 -25.3 --- --- 727.9 0.023 0.000 7.8 4 1
02/24/06 11:13 a -14.2 -14.2 -14.2 --- --- 17.4 E 0.29 20.0 -25.3 --- --- 728.0 0.023 0.000 7.8 4 1
02/24/06 11:14 a -14.2 -14.2 -14.2 --- --- 18.3 E 0.30 20.0 -25.5 --- --- 727.8 0.023 0.000 7.8 4 1
02/24/06 11:15 a -14.2 -14.2 -14.2 --- --- 18.3 E 0.30 20.9 -25.5 --- --- 727.9 0.023 0.000 7.8 4 1
02/24/06 11:16 a -14.2 -14.2 -14.2 --- --- 17.4 E 0.29 20.0 -25.3 --- --- 727.9 0.023 0.000 7.8 4 1
02/24/06 11:17 a -14.2 -14.2 -14.2 --- --- 18.3 E 0.30 20.0 -25.5 --- --- 727.9 0.023 0.000 7.8 5 1
02/24/06 11:18 a -14.2 -14.2 -14.2 --- --- 18.3 E 0.30 20.9 -25.5 --- --- 727.9 0.023 0.000 7.8 4 1
02/24/06 11:19 a -14.2 -14.2 -14.2 --- --- 18.3 E 0.30 21.7 -25.5 --- --- 727.9 0.023 0.000 7.8 4 1
02/24/06 11:20 a -14.2 -14.2 -14.2 --- --- 20.0 E 0.33 21.7 -25.9 --- --- 727.8 0.023 0.000 7.7 5 1
02/24/06 11:21 a -14.2 -14.2 -14.2 --- --- 20.0 E 0.33 22.6 -25.9 --- --- 727.9 0.023 0.000 7.7 5 1
02/24/06 11:22 a -14.2 -14.2 -14.2 --- --- 19.1 E 0.32 20.9 -25.7 --- --- 727.9 0.023 0.000 7.7 4 1
02/24/06 11:23 a -14.2 -14.2 -14.2 --- --- 19.1 E 0.32 22.6 -25.7 --- --- 727.9 0.023 0.000 7.7 4 1
02/24/06 11:24 a -14.2 -14.2 -14.2 --- --- 19.1 E 0.32 21.7 -25.7 --- --- 727.9 0.023 0.000 7.7 5 1
02/24/06 11:25 a -14.1 -14.1 -14.1 --- --- 18.3 E 0.30 20.9 -25.4 --- --- 727.9 0.023 0.000 7.7 4 1
02/24/06 11:26 a -14.1 -14.1 -14.1 --- --- 17.4 E 0.29 20.0 -25.1 --- --- 727.9 0.023 0.000 7.7 4 1
02/24/06 11:27 a -14.1 -14.1 -14.1 --- --- 18.3 E 0.30 20.9 -25.4 --- --- 727.8 0.023 0.000 7.7 4 1
02/24/06 11:28 a -14.1 -14.1 -14.1 --- --- 17.4 E 0.29 20.9 -25.1 --- --- 727.9 0.023 0.000 7.7 4 1
02/24/06 11:29 a -14.1 -14.1 -14.1 --- --- 16.5 E 0.28 20.9 -24.9 --- --- 727.9 0.023 0.000 7.7 4 1
02/24/06 11:30 a -14.1 -14.1 -14.1 --- --- 16.5 E 0.28 19.1 -24.9 --- --- 727.9 0.023 0.000 7.7 5 1
02/24/06 11:31 a -14.1 -14.1 -14.1 --- --- 16.5 E 0.28 19.1 -24.9 --- --- 727.9 0.023 0.000 7.7 4 1
02/24/06 11:32 a -14.1 -14.1 -14.1 --- --- 17.4 E 0.29 18.3 -25.1 --- --- 727.9 0.023 0.000 7.7 4 1
02/24/06 11:33 a -14.1 -14.1 -14.1 --- --- 17.4 E 0.29 20.9 -25.1 --- --- 727.8 0.023 0.000 7.7 4 1
02/24/06 11:34 a -14.1 -14.1 -14.1 --- --- 17.4 E 0.29 20.0 -25.1 --- --- 727.8 0.022 0.000 7.7 4 1
02/24/06 11:35 a -14.1 -14.1 -14.1 --- --- 17.4 E 0.29 20.0 -25.1 --- --- 727.9 0.023 0.000 7.7 5 1
02/24/06 11:36 a -14.1 -14.1 -14.1 --- --- 17.4 E 0.29 20.0 -25.1 --- --- 727.8 0.022 0.000 7.7 4 1
02/24/06 11:37 a -14.1 -14.1 -14.1 --- --- 18.3 E 0.30 20.0 -25.3 --- --- 727.8 0.022 0.000 7.7 4 1
02/24/06 11:38 a -14.1 -14.1 -14.1 --- --- 17.4 E 0.29 20.0 -25.1 --- --- 727.8 0.022 0.000 7.7 4 1
02/24/06 11:39 a -14.1 -14.0 -14.1 --- --- 17.4 E 0.29 20.0 -25.1 --- --- 727.8 0.022 0.000 7.7 4 1
02/24/06 11:40 a -14.1 -14.0 -14.1 --- --- 18.3 E 0.30 20.0 -25.3 --- --- 727.8 0.022 0.000 7.7 5 1
02/24/06 11:41 a -14.1 -14.1 -14.1 --- --- 15.7 E 0.26 18.3 -24.6 --- --- 727.8 0.022 0.000 7.7 4 1
02/24/06 11:42 a -14.1 -14.1 -14.1 --- --- 16.5 E 0.28 20.0 -24.8 --- --- 727.8 0.022 0.000 7.7 5 1
02/24/06 11:43 a -14.1 -14.1 -14.1 --- --- 17.4 E 0.29 20.9 -25.1 --- --- 727.9 0.022 0.000 7.7 4 1
02/24/06 11:44 a -14.1 -14.1 -14.1 --- --- 15.7 E 0.26 19.1 -24.6 --- --- 727.8 0.022 0.000 7.7 4 1
02/24/06 11:45 a -14.1 -14.1 -14.1 --- --- 18.3 E 0.30 20.0 -25.3 --- --- 727.8 0.022 0.000 7.7 4 1
02/24/06 11:46 a -14.1 -14.1 -14.1 --- --- 17.4 E 0.29 20.9 -25.1 --- --- 727.9 0.022 0.000 7.7 4 1
02/24/06 11:47 a -14.1 -14.1 -14.1 --- --- 16.5 E 0.28 18.3 -24.9 --- --- 727.9 0.023 0.000 7.7 4 1
02/24/06 11:48 a -14.1 -14.1 -14.1 --- --- 15.7 E 0.26 17.4 -24.6 --- --- 727.8 0.022 0.000 7.7 4 1
02/24/06 11:49 a -14.1 -14.1 -14.1 --- --- 17.4 E 0.29 20.9 -25.1 --- --- 727.7 0.022 0.000 7.7 4 1
02/24/06 11:50 a -14.1 -14.1 -14.1 --- --- 17.4 E 0.29 19.1 -25.1 --- --- 727.8 0.022 0.000 7.7 4 1
02/24/06 11:51 a -14.1 -14.1 -14.1 --- --- 16.5 E 0.28 20.0 -24.8 --- --- 727.8 0.022 0.000 7.7 4 1
02/24/06 11:52 a -14.1 -14.1 -14.1 --- --- 16.5 E 0.28 20.0 -24.8 --- --- 727.8 0.022 0.000 7.7 4 1
02/24/06 11:53 a -14.1 -14.1 -14.1 --- --- 16.5 E 0.28 19.1 -24.8 --- --- 727.7 0.022 0.000 7.7 4 1
02/24/06 11:54 a -14.1 -14.1 -14.1 --- --- 16.5 E 0.28 20.0 -24.8 --- --- 727.8 0.022 0.000 7.7 4 1
02/24/06 11:55 a -14.0 -14.0 -14.1 --- --- 17.4 E 0.29 20.0 -25.0 --- --- 727.7 0.022 0.000 7.7 4 1
02/24/06 11:56 a -14.0 -14.0 -14.0 --- --- 17.4 E 0.29 20.9 -25.0 --- --- 727.8 0.022 0.000 7.7 4 1
02/24/06 11:57 a -14.0 -14.0 -14.0 --- --- 18.3 E 0.30 20.0 -25.2 --- --- 727.7 0.022 0.000 7.7 4 1
02/24/06 11:58 a -14.1 -14.0 -14.1 --- --- 16.5 E 0.28 18.3 -24.8 --- --- 727.7 0.022 0.000 7.7 4 1
02/24/06 11:59 a -14.0 -14.0 -14.1 --- --- 16.5 E 0.28 18.3 -24.7 --- --- 727.7 0.022 0.000 7.7 4 1
02/24/06 12:00 p -14.1 -14.0 -14.1 --- --- 17.4 E 0.29 19.1 -25.1 --- --- 727.7 0.022 0.000 7.7 4 1
02/24/06 12:01 p -14.1 -14.1 -14.1 --- --- 16.5 E 0.28 18.3 -24.8 --- --- 727.8 0.022 0.000 7.7 4 1
02/24/06 12:02 p -14.1 -14.0 -14.1 --- --- 17.4 E 0.29 20.0 -25.1 --- --- 727.6 0.022 0.000 7.7 4 1
02/24/06 12:03 p -14.0 -14.0 -14.1 --- --- 17.4 E 0.29 20.0 -25.0 --- --- 727.7 0.022 0.000 7.7 5 1
02/24/06 12:04 p -14.0 -14.0 -14.1 --- --- 16.5 E 0.28 20.0 -24.7 --- --- 727.7 0.022 0.000 7.7 4 1
02/24/06 12:05 p -14.0 -14.0 -14.1 --- --- 16.5 E 0.28 19.1 -24.7 --- --- 727.7 0.022 0.000 7.7 4 1
02/24/06 12:06 p -14.0 -14.0 -14.1 --- --- 16.5 E 0.28 20.0 -24.7 --- --- 727.7 0.022 0.000 7.7 5 1
02/24/06 12:07 p -14.1 -14.0 -14.1 --- --- 16.5 ESE 0.28 18.3 -24.8 --- --- 727.7 0.022 0.000 7.7 4 1
02/24/06 12:08 p -14.1 -14.0 -14.1 --- --- 16.5 E 0.28 19.1 -24.8 --- --- 727.6 0.022 0.000 7.7 4 1
02/24/06 12:09 p -14.0 -14.0 -14.1 --- --- 17.4 E 0.29 19.1 -25.0 --- --- 727.6 0.022 0.000 7.7 4 1
02/24/06 12:10 p -14.1 -14.1 -14.1 --- --- 17.4 E 0.29 19.1 -25.1 --- --- 727.6 0.022 0.000 7.7 4 1
02/24/06 12:11 p -14.1 -14.0 -14.1 --- --- 18.3 E 0.30 21.7 -25.3 --- --- 727.6 0.022 0.000 7.7 5 1
02/24/06 12:12 p -14.0 -14.0 -14.0 --- --- 17.4 E 0.29 19.1 -25.0 --- --- 727.7 0.022 0.000 7.7 4 1
02/24/06 12:13 p -14.1 -14.0 -14.1 --- --- 18.3 E 0.30 20.0 -25.3 --- --- 727.6 0.022 0.000 7.7 4 1
02/24/06 12:14 p -14.0 -14.0 -14.0 --- --- 18.3 E 0.30 20.0 -25.2 --- --- 727.7 0.022 0.000 7.7 4 1
02/24/06 12:15 p -14.0 -14.0 -14.0 --- --- 18.3 E 0.30 21.7 -25.2 --- --- 727.6 0.022 0.000 7.7 4 1
02/24/06 12:16 p -14.0 -14.0 -14.0 --- --- 18.3 E 0.30 20.0 -25.2 --- --- 727.6 0.022 0.000 7.7 4 1
02/24/06 12:17 p -14.0 -14.0 -14.0 --- --- 18.3 E 0.30 21.7 -25.2 --- --- 727.6 0.022 0.000 7.7 4 1
02/24/06 12:18 p -14.0 -14.0 -14.0 --- --- 17.4 E 0.29 20.0 -25.0 --- --- 727.6 0.022 0.000 7.7 5 1
02/24/06 12:19 p -14.0 -14.0 -14.1 --- --- 16.5 E 0.28 19.1 -24.7 --- --- 727.6 0.022 0.000 7.7 4 1
02/24/06 12:20 p -14.1 -14.0 -14.1 --- --- 17.4 E 0.29 20.0 -25.1 --- --- 727.7 0.022 0.000 7.7 4 1
02/24/06 12:21 p -14.0 -14.0 -14.0 --- --- 17.4 E 0.29 19.1 -25.0 --- --- 727.6 0.022 0.000 7.7 4 1
02/24/06 12:22 p -14.1 -14.0 -14.1 --- --- 17.4 E 0.29 20.0 -25.1 --- --- 727.6 0.022 0.000 7.7 4 1
02/24/06 12:23 p -14.0 -14.0 -14.1 --- --- 17.4 E 0.29 20.0 -25.0 --- --- 727.6 0.022 0.000 7.7 4 1
02/24/06 12:24 p -14.1 -14.1 -14.1 --- --- 18.3 E 0.30 20.0 -25.3 --- --- 727.6 0.022 0.000 7.7 4 1
02/24/06 12:25 p -14.1 -14.1 -14.1 --- --- 16.5 E 0.28 19.1 -24.8 --- --- 727.6 0.022 0.000 7.7 4 1
02/24/06 12:26 p -14.1 -14.1 -14.1 --- --- 16.5 E 0.28 20.9 -24.8 --- --- 727.7 0.022 0.000 7.7 4 1
02/24/06 12:27 p -14.1 -14.1 -14.1 --- --- 14.8 E 0.25 17.4 -24.3 --- --- 727.6 0.022 0.000 7.7 4 1
02/24/06 12:28 p -14.1 -14.1 -14.1 --- --- 15.7 E 0.26 18.3 -24.6 --- --- 727.7 0.022 0.000 7.7 4 1
02/24/06 12:29 p -14.1 -14.1 -14.1 --- --- 17.4 E 0.29 20.0 -25.1 --- --- 727.7 0.022 0.000 7.7 4 1
02/24/06 12:30 p -14.1 -14.1 -14.1 --- --- 17.4 E 0.29 20.9 -25.1 --- --- 727.7 0.023 0.000 7.7 4 1
02/24/06 12:31 p -14.1 -14.1 -14.1 --- --- 15.7 E 0.26 17.4 -24.6 --- --- 727.7 0.023 0.000 7.7 4 1
02/24/06 12:32 p -14.1 -14.1 -14.1 --- --- 14.8 E 0.25 17.4 -24.4 --- --- 727.6 0.023 0.000 7.7 4 1
02/24/06 12:33 p -14.1 -14.1 -14.1 --- --- 16.5 E 0.28 18.3 -24.9 --- --- 727.6 0.023 0.000 7.7 4 1
02/24/06 12:34 p -14.1 -14.1 -14.1 --- --- 14.8 E 0.25 18.3 -24.4 --- --- 727.6 0.023 0.000 7.7 4 1
02/24/06 12:35 p -14.1 -14.1 -14.1 --- --- 14.8 E 0.25 18.3 -24.4 --- --- 727.6 0.023 0.000 7.7 4 1
02/24/06 12:36 p -14.1 -14.1 -14.1 --- --- 15.7 E 0.26 19.1 -24.6 --- --- 727.5 0.023 0.000 7.7 4 1
02/24/06 12:37 p -14.2 -14.2 -14.2 --- --- 16.5 E 0.28 19.1 -24.9 --- --- 727.5 0.023 0.000 7.7 4 1
02/24/06 12:38 p -14.2 -14.2 -14.2 --- --- 16.5 E 0.28 19.1 -24.9 --- --- 727.6 0.023 0.000 7.7 4 1
02/24/06 12:39 p -14.2 -14.2 -14.2 --- --- 16.5 E 0.28 18.3 -24.9 --- --- 727.6 0.023 0.000 7.7 4 1
02/24/06 12:40 p -14.2 -14.2 -14.2 --- --- 17.4 E 0.29 19.1 -25.2 --- --- 727.5 0.023 0.000 7.7 4 1
02/24/06 12:41 p -14.2 -14.2 -14.2 --- --- 17.4 E 0.29 20.0 -25.2 --- --- 727.5 0.023 0.000 7.7 4 1
02/24/06 12:42 p -14.2 -14.2 -14.2 --- --- 16.5 E 0.28 19.1 -25.1 --- --- 727.6 0.023 0.000 7.7 4 1
02/24/06 12:43 p -14.2 -14.2 -14.2 --- --- 16.5 E 0.28 19.1 -25.1 --- --- 727.5 0.023 0.000 7.7 4 1
02/24/06 12:44 p -14.2 -14.2 -14.2 --- --- 17.4 E 0.29 20.0 -25.3 --- --- 727.5 0.023 0.000 7.7 4 1
02/24/06 12:45 p -14.2 -14.2 -14.3 --- --- 16.5 E 0.28 18.3 -25.1 --- --- 727.6 0.023 0.000 7.7 4 1
02/24/06 12:46 p -14.3 -14.2 -14.3 --- --- 15.7 E 0.26 17.4 -24.8 --- --- 727.5 0.023 0.000 7.7 4 1
02/24/06 12:47 p -14.3 -14.2 -14.3 --- --- 16.5 E 0.28 20.0 -25.1 --- --- 727.4 0.023 0.000 7.7 4 1
02/24/06 12:48 p -14.3 -14.3 -14.3 --- --- 18.3 E 0.30 20.0 -25.6 --- --- 727.5 0.023 0.000 7.7 4 1
02/24/06 12:49 p -14.3 -14.3 -14.3 --- --- 17.4 E 0.29 20.9 -25.3 --- --- 727.5 0.023 0.000 7.7 4 1
02/24/06 12:50 p -14.3 -14.3 -14.3 --- --- 19.1 E 0.32 21.7 -25.8 --- --- 727.5 0.023 0.000 7.7 4 1
02/24/06 12:51 p -14.3 -14.3 -14.3 --- --- 15.7 E 0.26 18.3 -24.8 --- --- 727.5 0.023 0.000 7.7 4 1
02/24/06 12:52 p -14.3 -14.3 -14.3 --- --- 16.5 E 0.28 20.0 -25.1 --- --- 727.4 0.023 0.000 7.7 4 1
02/24/06 12:53 p -14.3 -14.3 -14.3 --- --- 17.4 E 0.29 20.9 -25.4 --- --- 727.3 0.023 0.000 7.7 4 1
02/24/06 12:54 p -14.3 -14.3 -14.3 --- --- 17.4 E 0.29 20.0 -25.4 --- --- 727.3 0.023 0.000 7.7 4 1
02/24/06 12:55 p -14.4 -14.3 -14.4 --- --- 18.3 E 0.30 20.0 -25.7 --- --- 727.3 0.023 0.000 7.7 4 1
02/24/06 12:56 p -14.3 -14.3 -14.4 --- --- 19.1 E 0.32 20.0 -25.9 --- --- 727.3 0.023 0.000 7.7 4 1
02/24/06 12:57 p -14.4 -14.4 -14.4 --- --- 18.3 E 0.30 20.0 -25.7 --- --- 727.3 0.023 0.000 7.7 4 1
02/24/06 12:58 p -14.4 -14.4 -14.4 --- --- 17.4 E 0.29 20.9 -25.5 --- --- 727.3 0.023 0.000 7.7 4 1
02/24/06 12:59 p -14.4 -14.4 -14.4 --- --- 18.3 E 0.30 20.9 -25.7 --- --- 727.3 0.023 0.000 7.7 4 1
02/24/06 1:00 p -14.4 -14.4 -14.4 --- --- 20.0 E 0.33 21.7 -26.2 --- --- 727.3 0.023 0.000 7.7 4 1
02/24/06 1:01 p -14.4 -14.3 -14.4 --- --- 19.1 E 0.32 21.7 -25.9 --- --- 727.3 0.023 0.000 7.7 4 1
02/24/06 1:02 p -14.3 -14.3 -14.4 --- --- 18.3 E 0.30 21.7 -25.7 --- --- 727.2 0.023 0.000 7.7 4 1
02/24/06 1:03 p -14.4 -14.4 -14.4 --- --- 18.3 E 0.30 20.0 -25.7 --- --- 727.3 0.023 0.000 7.7 4 1
02/24/06 1:04 p -14.4 -14.4 -14.4 --- --- 19.1 ESE 0.32 21.7 -25.9 --- --- 727.2 0.023 0.000 7.7 4 1
02/24/06 1:05 p -14.4 -14.4 -14.4 --- --- 19.1 E 0.32 21.7 -25.9 --- --- 727.2 0.023 0.000 7.7 4 1
02/24/06 1:06 p -14.4 -14.4 -14.4 --- --- 17.4 E 0.29 20.0 -25.5 --- --- 727.3 0.023 0.000 7.7 4 1
02/24/06 1:07 p -14.4 -14.4 -14.4 --- --- 17.4 E 0.29 19.1 -25.5 --- --- 727.3 0.023 0.000 7.7 4 1
02/24/06 1:08 p -14.4 -14.4 -14.4 --- --- 18.3 E 0.30 20.9 -25.7 --- --- 727.3 0.023 0.000 7.7 4 1
02/24/06 1:09 p -14.4 -14.4 -14.4 --- --- 18.3 E 0.30 20.9 -25.7 --- --- 727.2 0.023 0.000 7.7 4 1
02/24/06 1:10 p -14.4 -14.4 -14.4 --- --- 18.3 E 0.30 20.9 -25.7 --- --- 727.2 0.023 0.000 7.7 4 1
02/24/06 1:11 p -14.4 -14.4 -14.4 --- --- 19.1 E 0.32 22.6 -25.9 --- --- 727.1 0.023 0.000 7.7 4 1
02/24/06 1:12 p -14.4 -14.4 -14.4 --- --- 20.0 E 0.33 22.6 -26.2 --- --- 727.1 0.023 0.000 7.7 4 1
02/24/06 1:13 p -14.3 -14.3 -14.4 --- --- 18.3 E 0.30 20.9 -25.7 --- --- 727.2 0.023 0.000 7.7 4 1
02/24/06 1:14 p -14.4 -14.3 -14.4 --- --- 17.4 E 0.29 20.9 -25.5 --- --- 727.1 0.023 0.000 7.7 4 1
02/24/06 1:15 p -14.4 -14.4 -14.4 --- --- 17.4 E 0.29 20.0 -25.5 --- --- 727.1 0.023 0.000 7.7 4 1
02/24/06 1:16 p -14.4 -14.3 -14.4 --- --- 18.3 E 0.30 20.9 -25.7 --- --- 727.2 0.023 0.000 7.7 4 1
02/24/06 1:17 p -14.4 -14.4 -14.4 --- --- 18.3 E 0.30 20.0 -25.7 --- --- 727.2 0.023 0.000 7.7 4 1
02/24/06 1:18 p -14.4 -14.4 -14.4 --- --- 18.3 E 0.30 20.9 -25.7 --- --- 727.1 0.023 0.000 7.7 4 1
02/24/06 1:19 p -14.4 -14.4 -14.4 --- --- 16.5 E 0.28 20.0 -25.3 --- --- 727.2 0.023 0.000 7.7 4 1
02/24/06 1:20 p -14.4 -14.4 -14.4 --- --- 18.3 E 0.30 20.9 -25.8 --- --- 727.0 0.023 0.000 7.7 4 1
02/24/06 1:21 p -14.4 -14.4 -14.4 --- --- 18.3 E 0.30 20.9 -25.8 --- --- 727.0 0.023 0.000 7.7 4 1
02/24/06 1:22 p -14.5 -14.4 -14.5 --- --- 18.3 E 0.30 20.9 -25.9 --- --- 727.1 0.023 0.000 7.7 4 1
02/24/06 1:23 p -14.5 -14.5 -14.5 --- --- 17.4 E 0.29 20.9 -25.7 --- --- 727.1 0.023 0.000 7.7 4 1
02/24/06 1:24 p -14.5 -14.5 -14.5 --- --- 20.0 E 0.33 21.7 -26.3 --- --- 727.1 0.023 0.000 7.7 4 1
02/24/06 1:25 p -14.5 -14.5 -14.5 --- --- 17.4 E 0.29 20.9 -25.7 --- --- 727.1 0.023 0.000 7.7 4 1
02/24/06 1:26 p -14.5 -14.5 -14.5 --- --- 19.1 E 0.32 21.7 -26.1 --- --- 727.1 0.023 0.000 7.7 4 1
02/24/06 1:27 p -14.5 -14.5 -14.5 --- --- 18.3 E 0.30 20.9 -25.9 --- --- 727.2 0.023 0.000 7.7 4 1
02/24/06 1:28 p -14.6 -14.5 -14.6 --- --- 17.4 E 0.29 20.0 -25.7 --- --- 727.0 0.023 0.000 7.7 4 1
02/24/06 1:29 p -14.6 -14.5 -14.6 --- --- 18.3 E 0.30 22.6 -25.9 --- --- 727.1 0.023 0.000 7.7 4 1
02/24/06 1:30 p -14.6 -14.6 -14.6 --- --- 15.7 E 0.26 17.4 -25.2 --- --- 727.1 0.023 0.000 7.7 4 1
02/24/06 1:31 p -14.6 -14.6 -14.6 --- --- 18.3 E 0.30 21.7 -25.9 --- --- 727.0 0.023 0.000 7.7 4 1
02/24/06 1:32 p -14.6 -14.6 -14.6 --- --- 18.3 E 0.30 20.9 -26.0 --- --- 727.1 0.023 0.000 7.7 4 1
02/24/06 1:33 p -14.6 -14.6 -14.7 --- --- 17.4 E 0.29 21.7 -25.8 --- --- 726.9 0.023 0.000 7.7 4 1
02/24/06 1:34 p -14.6 -14.6 -14.7 --- --- 20.0 E 0.33 22.6 -26.4 --- --- 726.9 0.023 0.000 7.7 4 1
02/24/06 1:35 p -14.6 -14.6 -14.7 --- --- 17.4 E 0.29 21.7 -25.8 --- --- 727.1 0.023 0.000 7.7 4 1
02/24/06 1:36 p -14.6 -14.6 -14.7 --- --- 15.7 E 0.26 18.3 -25.3 --- --- 727.1 0.023 0.000 7.7 4 1
02/24/06 1:37 p -14.7 -14.6 -14.7 --- --- 19.1 E 0.32 20.9 -26.3 --- --- 727.0 0.023 0.000 7.7 4 1
02/24/06 1:38 p -14.7 -14.7 -14.7 --- --- 17.4 E 0.29 20.9 -25.8 --- --- 727.1 0.023 0.000 7.7 4 1
02/24/06 1:39 p -14.7 -14.7 -14.7 --- --- 17.4 E 0.29 20.0 -25.8 --- --- 727.0 0.023 0.000 7.7 4 1
02/24/06 1:40 p -14.7 -14.7 -14.7 --- --- 17.4 E 0.29 19.1 -25.8 --- --- 727.0 0.023 0.000 7.8 4 1
02/24/06 1:41 p -14.7 -14.7 -14.7 --- --- 18.3 E 0.30 20.0 -26.1 --- --- 727.0 0.023 0.000 7.8 4 1
02/24/06 1:42 p -14.7 -14.7 -14.7 --- --- 16.5 E 0.28 19.1 -25.6 --- --- 726.9 0.023 0.000 7.8 4 1
02/24/06 1:43 p -14.7 -14.7 -14.7 --- --- 17.4 E 0.29 19.1 -25.8 --- --- 726.9 0.023 0.000 7.8 4 1
02/24/06 1:44 p -14.7 -14.7 -14.7 --- --- 18.3 E 0.30 21.7 -26.1 --- --- 726.9 0.023 0.000 7.8 4 1
02/24/06 1:45 p -14.7 -14.7 -14.7 --- --- 19.1 E 0.32 20.9 -26.3 --- --- 726.9 0.023 0.000 7.8 4 1
02/24/06 1:46 p -14.7 -14.7 -14.7 --- --- 17.4 E 0.29 20.0 -25.8 --- --- 726.9 0.023 0.000 7.8 4 1
02/24/06 1:47 p -14.7 -14.7 -14.7 --- --- 18.3 E 0.30 22.6 -26.1 --- --- 726.8 0.023 0.000 7.8 4 1
02/24/06 1:48 p -14.7 -14.7 -14.7 --- --- 18.3 E 0.30 20.0 -26.1 --- --- 726.8 0.023 0.000 7.7 4 1
02/24/06 1:49 p -14.7 -14.6 -14.7 --- --- 19.1 E 0.32 21.7 -26.3 --- --- 726.8 0.023 0.000 7.8 4 1
02/24/06 1:50 p -14.6 -14.6 -14.6 --- --- 18.3 E 0.30 20.9 -26.0 --- --- 726.9 0.023 0.000 7.8 4 1
02/24/06 1:51 p -14.6 -14.6 -14.6 --- --- 17.4 E 0.29 20.0 -25.8 --- --- 726.8 0.023 0.000 7.8 4 1
02/24/06 1:52 p -14.6 -14.6 -14.6 --- --- 19.1 E 0.32 22.6 -26.2 --- --- 726.9 0.023 0.000 7.8 4 1
02/24/06 1:53 p -14.6 -14.6 -14.6 --- --- 16.5 E 0.28 20.9 -25.4 --- --- 726.8 0.023 0.000 7.8 4 1
02/24/06 1:54 p -14.6 -14.6 -14.6 --- --- 19.1 E 0.32 21.7 -26.2 --- --- 726.8 0.023 0.000 7.8 4 1
02/24/06 1:55 p -14.5 -14.5 -14.6 --- --- 18.3 E 0.30 20.9 -25.9 --- --- 726.8 0.023 0.000 7.8 4 1
02/24/06 1:56 p -14.5 -14.5 -14.5 --- --- 18.3 E 0.30 21.7 -25.9 --- --- 726.8 0.023 0.000 7.8 4 1
02/24/06 1:57 p -14.4 -14.4 -14.5 --- --- 19.1 E 0.32 22.6 -26.0 --- --- 726.8 0.023 0.000 7.8 4 1
02/24/06 1:58 p -14.4 -14.4 -14.4 --- --- 17.4 E 0.29 20.0 -25.6 --- --- 726.7 0.023 0.000 7.8 4 1
02/24/06 1:59 p -14.4 -14.4 -14.4 --- --- 16.5 E 0.28 19.1 -25.3 --- --- 726.7 0.023 0.000 7.7 4 1
02/24/06 2:00 p -14.4 -14.4 -14.4 --- --- 18.3 E 0.30 20.9 -25.8 --- --- 726.7 0.023 0.000 7.8 4 1
02/24/06 2:01 p -14.4 -14.4 -14.4 --- --- 18.3 E 0.30 20.9 -25.8 --- --- 726.8 0.023 0.000 7.7 4 1
02/24/06 2:02 p -14.4 -14.4 -14.4 --- --- 17.4 E 0.29 19.1 -25.5 --- --- 726.6 0.023 0.000 7.7 4 1
02/24/06 2:03 p -14.4 -14.4 -14.4 --- --- 19.1 E 0.32 24.3 -26.0 --- --- 726.6 0.023 0.000 7.7 4 1
02/24/06 2:04 p -14.4 -14.4 -14.4 --- --- 20.0 E 0.33 22.6 -26.2 --- --- 726.7 0.023 0.000 7.7 4 1
02/24/06 2:05 p -14.4 -14.4 -14.4 --- --- 19.1 E 0.32 20.9 -25.9 --- --- 726.6 0.023 0.000 7.7 4 1
02/24/06 2:06 p -14.4 -14.4 -14.4 --- --- 18.3 E 0.30 20.9 -25.8 --- --- 726.7 0.023 0.000 7.7 4 1
02/24/06 2:07 p -14.4 -14.4 -14.4 --- --- 16.5 E 0.28 19.1 -25.3 --- --- 726.8 0.023 0.000 7.7 4 1
02/24/06 2:08 p -14.4 -14.4 -14.4 --- --- 16.5 E 0.28 18.3 -25.3 --- --- 726.6 0.023 0.000 7.7 4 1
02/24/06 2:09 p -14.4 -14.4 -14.4 --- --- 18.3 E 0.30 22.6 -25.8 --- --- 726.5 0.023 0.000 7.7 4 1
02/24/06 2:10 p -14.4 -14.4 -14.4 --- --- 19.1 E 0.32 20.9 -26.0 --- --- 726.5 0.023 0.000 7.7 4 1
02/24/06 2:11 p -14.4 -14.4 -14.4 --- --- 18.3 E 0.30 20.9 -25.8 --- --- 726.6 0.023 0.000 7.7 4 1
02/24/06 2:12 p -14.4 -14.4 -14.4 --- --- 18.3 E 0.30 21.7 -25.8 --- --- 726.5 0.023 0.000 7.7 4 1
02/24/06 2:13 p -14.4 -14.4 -14.4 --- --- 20.0 E 0.33 24.3 -26.2 --- --- 726.5 0.023 0.000 7.7 4 1
02/24/06 2:14 p -14.4 -14.4 -14.5 --- --- 20.0 E 0.33 22.6 -26.2 --- --- 726.5 0.023 0.000 7.7 4 1
02/24/06 2:15 p -14.4 -14.4 -14.5 --- --- 17.4 E 0.29 20.9 -25.6 --- --- 726.6 0.023 0.000 7.7 4 1
02/24/06 2:16 p -14.4 -14.4 -14.4 --- --- 16.5 E 0.28 20.0 -25.3 --- --- 726.5 0.023 0.000 7.7 4 1
02/24/06 2:17 p -14.4 -14.4 -14.4 --- --- 19.1 E 0.32 23.5 -26.0 --- --- 726.4 0.023 0.000 7.7 4 1
02/24/06 2:18 p -14.4 -14.4 -14.4 --- --- 21.7 E 0.36 24.3 -26.7 --- --- 726.5 0.023 0.000 7.7 4 1
02/24/06 2:19 p -14.4 -14.4 -14.4 --- --- 19.1 E 0.32 20.9 -26.0 --- --- 726.5 0.023 0.000 7.7 4 1
02/24/06 2:20 p -14.4 -14.4 -14.4 --- --- 19.1 E 0.32 21.7 -26.0 --- --- 726.5 0.023 0.000 7.7 4 1
02/24/06 2:21 p -14.4 -14.4 -14.4 --- --- 20.9 E 0.35 24.3 -26.4 --- --- 726.4 0.023 0.000 7.7 4 1
02/24/06 2:22 p -14.4 -14.4 -14.4 --- --- 20.0 E 0.33 23.5 -26.2 --- --- 726.5 0.023 0.000 7.7 4 1
02/24/06 2:23 p -14.4 -14.4 -14.4 --- --- 19.1 E 0.32 22.6 -26.0 --- --- 726.5 0.023 0.000 7.7 4 1
02/24/06 2:24 p -14.4 -14.4 -14.4 --- --- 20.0 E 0.33 22.6 -26.2 --- --- 726.4 0.023 0.000 7.7 4 1
02/24/06 2:25 p -14.4 -14.4 -14.4 --- --- 20.0 E 0.33 23.5 -26.2 --- --- 726.4 0.023 0.000 7.7 4 1
02/24/06 2:26 p -14.4 -14.4 -14.4 --- --- 20.9 E 0.35 23.5 -26.4 --- --- 726.4 0.023 0.000 7.7 4 1
02/24/06 2:27 p -14.4 -14.4 -14.4 --- --- 20.9 E 0.35 23.5 -26.4 --- --- 726.4 0.023 0.000 7.7 4 1
02/24/06 2:28 p -14.4 -14.4 -14.4 --- --- 20.0 E 0.33 22.6 -26.2 --- --- 726.3 0.023 0.000 7.7 4 1
02/24/06 2:29 p -14.4 -14.4 -14.4 --- --- 21.7 E 0.36 25.2 -26.7 --- --- 726.3 0.023 0.000 7.7 4 1
02/24/06 2:30 p -14.4 -14.4 -14.5 --- --- 19.1 E 0.32 21.7 -26.0 --- --- 726.4 0.023 0.000 7.7 4 1
02/24/06 2:31 p -14.5 -14.4 -14.5 --- --- 19.1 E 0.32 25.2 -26.1 --- --- 726.3 0.023 0.000 7.7 4 1
02/24/06 2:32 p -14.5 -14.5 -14.5 --- --- 20.9 E 0.35 23.5 -26.5 --- --- 726.4 0.023 0.000 7.7 4 1
02/24/06 2:33 p -14.5 -14.5 -14.5 --- --- 18.3 E 0.30 22.6 -25.9 --- --- 726.4 0.023 0.000 7.7 4 1
02/24/06 2:34 p -14.6 -14.5 -14.6 --- --- 18.3 E 0.30 22.6 -25.9 --- --- 726.5 0.023 0.000 7.7 4 1
02/24/06 2:35 p -14.6 -14.6 -14.6 --- --- 18.3 E 0.30 24.3 -25.9 --- --- 726.3 0.023 0.000 7.7 4 1
02/24/06 2:36 p -14.6 -14.6 -14.6 --- --- 20.0 E 0.33 24.3 -26.4 --- --- 726.4 0.023 0.000 7.7 4 1
02/24/06 2:37 p -14.6 -14.6 -14.6 --- --- 20.0 E 0.33 23.5 -26.4 --- --- 726.3 0.023 0.000 7.7 4 1
02/24/06 2:38 p -14.6 -14.6 -14.6 --- --- 18.3 E 0.30 20.9 -25.9 --- --- 726.4 0.023 0.000 7.7 4 1
02/24/06 2:39 p -14.6 -14.6 -14.6 --- --- 19.1 E 0.32 21.7 -26.2 --- --- 726.5 0.023 0.000 7.7 4 1
02/24/06 2:40 p -14.6 -14.6 -14.6 --- --- 18.3 E 0.30 20.9 -26.0 --- --- 726.4 0.023 0.000 7.7 4 1
02/24/06 2:41 p -14.6 -14.6 -14.7 --- --- 20.0 E 0.33 24.3 -26.4 --- --- 726.4 0.023 0.000 7.7 4 1
02/24/06 2:42 p -14.7 -14.7 -14.7 --- --- 18.3 E 0.30 22.6 -26.1 --- --- 726.4 0.023 0.000 7.7 4 1
02/24/06 2:43 p -14.7 -14.7 -14.7 --- --- 19.1 E 0.32 21.7 -26.3 --- --- 726.3 0.023 0.000 7.7 4 1
02/24/06 2:44 p -14.7 -14.7 -14.7 --- --- 20.0 E 0.33 25.2 -26.6 --- --- 726.4 0.023 0.000 7.7 4 1
02/24/06 2:45 p -14.7 -14.7 -14.7 --- --- 17.4 E 0.29 20.9 -25.9 --- --- 726.4 0.023 0.000 7.7 4 1
02/24/06 2:46 p -14.7 -14.7 -14.8 --- --- 18.3 E 0.30 20.9 -26.2 --- --- 726.4 0.023 0.000 7.7 4 1
02/24/06 2:47 p -14.8 -14.8 -14.8 --- --- 19.1 E 0.32 21.7 -26.4 --- --- 726.3 0.023 0.000 7.7 4 1
02/24/06 2:48 p -14.8 -14.8 -14.8 --- --- 19.1 E 0.32 23.5 -26.4 --- --- 726.5 0.023 0.000 7.7 4 1
02/24/06 2:49 p -14.8 -14.8 -14.8 --- --- 17.4 E 0.29 20.9 -26.0 --- --- 726.4 0.023 0.000 7.7 4 1
02/24/06 2:50 p -14.8 -14.8 -14.8 --- --- 17.4 E 0.29 20.0 -26.0 --- --- 726.3 0.023 0.000 7.7 4 1
02/24/06 2:51 p -14.8 -14.8 -14.8 --- --- 20.0 E 0.33 23.5 -26.7 --- --- 726.3 0.023 0.000 7.7 4 1
02/24/06 2:52 p -14.8 -14.8 -14.8 --- --- 18.3 E 0.30 20.9 -26.2 --- --- 726.4 0.023 0.000 7.7 4 1
02/24/06 2:53 p -14.7 -14.7 -14.8 --- --- 17.4 E 0.29 20.0 -25.9 --- --- 726.4 0.023 0.000 7.7 4 1
02/24/06 2:54 p -14.7 -14.7 -14.8 --- --- 17.4 E 0.29 20.0 -25.9 --- --- 726.3 0.023 0.000 7.7 4 1
02/24/06 2:55 p -14.7 -14.7 -14.8 --- --- 19.1 E 0.32 21.7 -26.4 --- --- 726.3 0.023 0.000 7.7 4 1
02/24/06 2:56 p -14.7 -14.7 -14.7 --- --- 19.1 E 0.32 22.6 -26.4 --- --- 726.5 0.023 0.000 7.7 4 1
02/24/06 2:57 p -14.7 -14.7 -14.8 --- --- 15.7 E 0.26 19.1 -25.4 --- --- 726.5 0.023 0.000 7.7 4 1
02/24/06 2:58 p -14.7 -14.7 -14.8 --- --- 17.4 E 0.29 20.9 -25.9 --- --- 726.4 0.023 0.000 7.7 4 1
02/24/06 2:59 p -14.8 -14.8 -14.8 --- --- 17.4 E 0.29 20.9 -26.0 --- --- 726.4 0.023 0.000 7.7 4 1
02/24/06 3:00 p -14.8 -14.8 -14.8 --- --- 18.3 E 0.30 20.0 -26.2 --- --- 726.4 0.023 0.000 7.7 4 1
02/24/06 3:01 p -14.8 -14.7 -14.8 --- --- 16.5 E 0.28 20.9 -25.8 --- --- 726.4 0.023 0.000 7.7 4 1
02/24/06 3:02 p -14.7 -14.7 -14.8 --- --- 20.0 E 0.33 23.5 -26.6 --- --- 726.4 0.023 0.000 7.7 4 1
02/24/06 3:03 p -14.7 -14.7 -14.8 --- --- 20.0 E 0.33 22.6 -26.6 --- --- 726.4 0.023 0.000 7.7 4 1
02/24/06 3:04 p -14.7 -14.7 -14.8 --- --- 18.3 E 0.30 20.0 -26.2 --- --- 726.4 0.023 0.000 7.7 4 1
02/24/06 3:05 p -14.7 -14.7 -14.8 --- --- 16.5 E 0.28 20.9 -25.7 --- --- 726.4 0.023 0.000 7.6 4 1
02/24/06 3:06 p -14.7 -14.7 -14.8 --- --- 15.7 E 0.26 19.1 -25.4 --- --- 726.4 0.023 0.000 7.7 4 1
02/24/06 3:07 p -14.7 -14.7 -14.8 --- --- 16.5 E 0.28 20.0 -25.7 --- --- 726.4 0.023 0.000 7.6 4 1
02/24/06 3:08 p -14.7 -14.7 -14.7 --- --- 17.4 E 0.29 20.0 -25.9 --- --- 726.3 0.023 0.000 7.6 4 1
02/24/06 3:09 p -14.7 -14.7 -14.7 --- --- 18.3 E 0.30 21.7 -26.2 --- --- 726.4 0.023 0.000 7.6 4 1
02/24/06 3:10 p -14.7 -14.7 -14.7 --- --- 15.7 E 0.26 19.1 -25.4 --- --- 726.3 0.023 0.000 7.6 4 1
02/24/06 3:11 p -14.7 -14.7 -14.7 --- --- 19.1 E 0.32 22.6 -26.4 --- --- 726.4 0.023 0.000 7.6 4 1
02/24/06 3:12 p -14.7 -14.7 -14.7 --- --- 16.5 E 0.28 20.9 -25.6 --- --- 726.3 0.023 0.000 7.6 4 1
02/24/06 3:13 p -14.7 -14.7 -14.7 --- --- 16.5 E 0.28 19.1 -25.6 --- --- 726.3 0.023 0.000 7.6 4 1
02/24/06 3:14 p -14.7 -14.7 -14.7 --- --- 17.4 E 0.29 20.9 -25.8 --- --- 726.4 0.023 0.000 7.6 4 1
02/24/06 3:15 p -14.7 -14.7 -14.7 --- --- 17.4 E 0.29 20.9 -25.8 --- --- 726.2 0.023 0.000 7.6 4 1
02/24/06 3:16 p -14.7 -14.7 -14.7 --- --- 19.1 E 0.32 22.6 -26.3 --- --- 726.3 0.023 0.000 7.7 4 1
02/24/06 3:17 p -14.7 -14.7 -14.7 --- --- 17.4 E 0.29 20.9 -25.8 --- --- 726.3 0.023 0.000 7.7 4 1
02/24/06 3:18 p -14.7 -14.6 -14.7 --- --- 18.3 E 0.30 22.6 -26.1 --- --- 726.2 0.023 0.000 7.7 4 1
02/24/06 3:19 p -14.7 -14.6 -14.7 --- --- 16.5 E 0.28 20.0 -25.6 --- --- 726.3 0.023 0.000 7.7 4 1
02/24/06 3:20 p -14.6 -14.6 -14.6 --- --- 18.3 E 0.30 20.9 -26.0 --- --- 726.3 0.023 0.000 7.7 4 1
02/24/06 3:21 p -14.6 -14.6 -14.6 --- --- 17.4 E 0.29 21.7 -25.8 --- --- 726.2 0.023 0.000 7.7 4 1
02/24/06 3:22 p -14.6 -14.6 -14.6 --- --- 17.4 E 0.29 20.9 -25.8 --- --- 726.2 0.023 0.000 7.7 4 1
02/24/06 3:23 p -14.6 -14.6 -14.6 --- --- 18.3 E 0.30 22.6 -26.0 --- --- 726.2 0.023 0.000 7.7 4 1
02/24/06 3:24 p -14.6 -14.6 -14.6 --- --- 18.3 E 0.30 20.9 -26.0 --- --- 726.2 0.023 0.000 7.7 4 1
02/24/06 3:25 p -14.6 -14.6 -14.6 --- --- 18.3 E 0.30 20.0 -25.9 --- --- 726.1 0.023 0.000 7.7 4 1
02/24/06 3:26 p -14.6 -14.6 -14.6 --- --- 17.4 E 0.29 20.0 -25.7 --- --- 726.2 0.023 0.000 7.7 4 1
02/24/06 3:27 p -14.6 -14.6 -14.6 --- --- 17.4 E 0.29 20.9 -25.7 --- --- 726.2 0.023 0.000 7.7 4 1
02/24/06 3:28 p -14.6 -14.6 -14.6 --- --- 18.3 E 0.30 21.7 -25.9 --- --- 726.2 0.023 0.000 7.7 4 1
02/24/06 3:29 p -14.6 -14.5 -14.6 --- --- 19.1 E 0.32 23.5 -26.2 --- --- 726.2 0.023 0.000 7.7 4 1
02/24/06 3:30 p -14.6 -14.5 -14.6 --- --- 18.3 E 0.30 22.6 -25.9 --- --- 726.1 0.023 0.000 7.7 4 1
02/24/06 3:31 p -14.5 -14.5 -14.6 --- --- 18.3 E 0.30 20.9 -25.9 --- --- 726.2 0.023 0.000 7.7 4 1
02/24/06 3:32 p -14.5 -14.5 -14.5 --- --- 17.4 E 0.29 21.7 -25.7 --- --- 726.2 0.023 0.000 7.7 4 1
02/24/06 3:33 p -14.5 -14.5 -14.6 --- --- 18.3 E 0.30 22.6 -25.9 --- --- 726.2 0.023 0.000 7.7 4 1
02/24/06 3:34 p -14.5 -14.5 -14.5 --- --- 18.3 E 0.30 22.6 -25.9 --- --- 726.2 0.023 0.000 7.6 4 1
02/24/06 3:35 p -14.5 -14.5 -14.5 --- --- 19.1 E 0.32 21.7 -26.1 --- --- 726.1 0.023 0.000 7.6 4 1
02/24/06 3:36 p -14.5 -14.5 -14.5 --- --- 17.4 E 0.29 20.0 -25.7 --- --- 726.2 0.023 0.000 7.6 4 1
02/24/06 3:37 p -14.5 -14.5 -14.5 --- --- 18.3 E 0.30 21.7 -25.9 --- --- 726.2 0.023 0.000 7.6 4 1
02/24/06 3:38 p -14.5 -14.5 -14.5 --- --- 17.4 E 0.29 21.7 -25.7 --- --- 726.2 0.023 0.000 7.6 4 1
02/24/06 3:39 p -14.5 -14.5 -14.5 --- --- 18.3 E 0.30 20.9 -25.9 --- --- 726.2 0.023 0.000 7.6 4 1
02/24/06 3:40 p -14.5 -14.5 -14.5 --- --- 15.7 E 0.26 19.1 -25.2 --- --- 726.1 0.023 0.000 7.6 4 1
02/24/06 3:41 p -14.5 -14.5 -14.5 --- --- 18.3 E 0.30 22.6 -25.9 --- --- 726.1 0.023 0.000 7.6 4 1
02/24/06 3:42 p -14.5 -14.5 -14.5 --- --- 19.1 E 0.32 23.5 -26.1 --- --- 726.2 0.023 0.000 7.6 4 1
02/24/06 3:43 p -14.5 -14.5 -14.5 --- --- 16.5 E 0.28 20.9 -25.4 --- --- 726.1 0.023 0.000 7.6 4 1
02/24/06 3:44 p -14.5 -14.5 -14.5 --- --- 19.1 E 0.32 22.6 -26.1 --- --- 726.0 0.023 0.000 7.6 4 1
02/24/06 3:45 p -14.5 -14.5 -14.6 --- --- 19.1 E 0.32 24.3 -26.1 --- --- 726.2 0.023 0.000 7.6 4 1
02/24/06 3:46 p -14.5 -14.5 -14.6 --- --- 16.5 E 0.28 19.1 -25.4 --- --- 726.2 0.023 0.000 7.6 4 1
02/24/06 3:47 p -14.6 -14.6 -14.6 --- --- 15.7 E 0.26 18.3 -25.2 --- --- 726.2 0.023 0.000 7.6 4 1
02/24/06 3:48 p -14.6 -14.6 -14.6 --- --- 17.4 E 0.29 20.9 -25.7 --- --- 726.0 0.023 0.000 7.6 4 1
02/24/06 3:49 p -14.6 -14.6 -14.6 --- --- 18.3 E 0.30 22.6 -25.9 --- --- 726.2 0.023 0.000 7.6 4 1
02/24/06 3:50 p -14.6 -14.6 -14.6 --- --- 14.8 E 0.25 18.3 -24.9 --- --- 726.1 0.023 0.000 7.6 4 1
02/24/06 3:51 p -14.6 -14.6 -14.6 --- --- 18.3 E 0.30 20.9 -25.9 --- --- 726.1 0.023 0.000 7.6 4 1
02/24/06 3:52 p -14.6 -14.6 -14.6 --- --- 16.5 E 0.28 20.9 -25.6 --- --- 726.1 0.023 0.000 7.6 4 1
02/24/06 3:53 p -14.6 -14.6 -14.6 --- --- 17.4 E 0.29 21.7 -25.7 --- --- 726.0 0.023 0.000 7.6 4 1
02/24/06 3:54 p -14.6 -14.6 -14.6 --- --- 18.3 E 0.30 20.0 -25.9 --- --- 726.2 0.023 0.000 7.6 4 1
02/24/06 3:55 p -14.6 -14.6 -14.6 --- --- 14.8 E 0.25 18.3 -24.9 --- --- 726.2 0.023 0.000 7.6 4 1
02/24/06 3:56 p -14.6 -14.6 -14.6 --- --- 16.5 E 0.28 18.3 -25.4 --- --- 726.1 0.023 0.000 7.6 4 1
02/24/06 3:57 p -14.6 -14.6 -14.6 --- --- 20.0 E 0.33 22.6 -26.4 --- --- 726.1 0.023 0.000 7.6 4 1
02/24/06 3:58 p -14.6 -14.6 -14.6 --- --- 15.7 E 0.26 19.1 -25.2 --- --- 726.2 0.023 0.000 7.6 4 1
02/24/06 3:59 p -14.6 -14.6 -14.6 --- --- 14.8 E 0.25 17.4 -25.0 --- --- 726.1 0.023 0.000 7.6 4 1
02/24/06 4:00 p -14.6 -14.6 -14.6 --- --- 16.5 E 0.28 19.1 -25.6 --- --- 726.1 0.023 0.000 7.6 4 1
02/24/06 4:01 p -14.6 -14.6 -14.6 --- --- 16.5 E 0.28 20.9 -25.6 --- --- 726.1 0.023 0.000 7.6 4 1
02/24/06 4:02 p -14.6 -14.6 -14.6 --- --- 14.8 E 0.25 18.3 -25.0 --- --- 726.1 0.023 0.000 7.6 4 1
02/24/06 4:03 p -14.6 -14.6 -14.6 --- --- 16.5 E 0.28 19.1 -25.6 --- --- 726.1 0.023 0.000 7.6 4 1
02/24/06 4:04 p -14.6 -14.6 -14.6 --- --- 15.7 E 0.26 18.3 -25.3 --- --- 726.1 0.023 0.000 7.6 4 1
02/24/06 4:05 p -14.6 -14.6 -14.7 --- --- 15.7 E 0.26 19.1 -25.3 --- --- 726.0 0.023 0.000 7.6 4 1
02/24/06 4:06 p -14.7 -14.7 -14.7 --- --- 15.7 E 0.26 21.7 -25.3 --- --- 726.0 0.023 0.000 7.6 4 1
02/24/06 4:07 p -14.7 -14.7 -14.7 --- --- 19.1 E 0.32 21.7 -26.3 --- --- 726.0 0.023 0.000 7.6 4 1
02/24/06 4:08 p -14.7 -14.7 -14.7 --- --- 16.5 E 0.28 20.0 -25.7 --- --- 726.0 0.023 0.000 7.6 4 1
02/24/06 4:09 p -14.7 -14.7 -14.7 --- --- 16.5 E 0.28 20.9 -25.7 --- --- 725.9 0.023 0.000 7.6 4 1
02/24/06 4:10 p -14.7 -14.7 -14.7 --- --- 17.4 E 0.29 20.0 -25.9 --- --- 725.9 0.023 0.000 7.6 4 1
02/24/06 4:11 p -14.7 -14.7 -14.7 --- --- 17.4 E 0.29 20.0 -25.9 --- --- 726.1 0.023 0.000 7.6 4 1
02/24/06 4:12 p -14.7 -14.7 -14.7 --- --- 15.7 E 0.26 20.0 -25.4 --- --- 725.8 0.023 0.000 7.6 4 1
02/24/06 4:13 p -14.7 -14.7 -14.7 --- --- 20.0 E 0.33 22.6 -26.6 --- --- 726.0 0.023 0.000 7.6 4 1
02/24/06 4:14 p -14.7 -14.7 -14.8 --- --- 15.7 E 0.26 21.7 -25.4 --- --- 726.1 0.023 0.000 7.6 4 1
02/24/06 4:15 p -14.7 -14.7 -14.7 --- --- 13.9 E 0.23 18.3 -24.9 --- --- 725.9 0.023 0.000 7.6 4 1
02/24/06 4:16 p -14.7 -14.7 -14.7 --- --- 18.3 E 0.30 22.6 -26.2 --- --- 725.9 0.023 0.000 7.6 4 1
02/24/06 4:17 p -14.7 -14.7 -14.7 --- --- 17.4 E 0.29 21.7 -25.9 --- --- 725.9 0.023 0.000 7.6 4 1
02/24/06 4:18 p -14.7 -14.7 -14.7 --- --- 18.3 E 0.30 21.7 -26.2 --- --- 726.0 0.023 0.000 7.6 4 1
02/24/06 4:19 p -14.7 -14.7 -14.7 --- --- 14.8 E 0.25 20.0 -25.2 --- --- 726.0 0.023 0.000 7.6 4 1
02/24/06 4:20 p -14.7 -14.7 -14.7 --- --- 18.3 E 0.30 20.9 -26.2 --- --- 725.9 0.023 0.000 7.6 4 1
02/24/06 4:21 p -14.8 -14.7 -14.8 --- --- 18.3 E 0.30 22.6 -26.2 --- --- 725.8 0.023 0.000 7.6 4 1
02/24/06 4:22 p -14.7 -14.7 -14.7 --- --- 16.5 E 0.28 20.0 -25.7 --- --- 725.9 0.023 0.000 7.6 4 1
02/24/06 4:23 p -14.8 -14.8 -14.8 --- --- 18.3 E 0.30 20.9 -26.2 --- --- 725.8 0.023 0.000 7.6 4 1
02/24/06 4:24 p -14.7 -14.7 -14.8 --- --- 17.4 E 0.29 20.0 -25.9 --- --- 725.9 0.023 0.000 7.6 4 1
02/24/06 4:25 p -14.7 -14.7 -14.8 --- --- 17.4 E 0.29 20.9 -25.9 --- --- 725.8 0.023 0.000 7.6 4 1
02/24/06 4:26 p -14.8 -14.7 -14.8 --- --- 17.4 E 0.29 20.9 -26.0 --- --- 725.9 0.023 0.000 7.6 4 1
02/24/06 4:27 p -14.7 -14.7 -14.7 --- --- 17.4 E 0.29 19.1 -25.9 --- --- 726.0 0.023 0.000 7.6 4 1
02/24/06 4:28 p -14.7 -14.7 -14.7 --- --- 15.7 E 0.26 18.3 -25.4 --- --- 725.9 0.023 0.000 7.6 4 1
02/24/06 4:29 p -14.7 -14.7 -14.7 --- --- 15.7 E 0.26 19.1 -25.4 --- --- 725.9 0.023 0.000 7.6 4 1
02/24/06 4:30 p -14.7 -14.7 -14.7 --- --- 19.1 E 0.32 22.6 -26.4 --- --- 726.0 0.023 0.000 7.6 4 1
02/24/06 4:31 p -14.7 -14.7 -14.7 --- --- 17.4 E 0.29 20.0 -25.9 --- --- 725.9 0.023 0.000 7.6 4 1
02/24/06 4:32 p -14.7 -14.7 -14.7 --- --- 17.4 E 0.29 22.6 -25.9 --- --- 725.9 0.023 0.000 7.6 4 1
02/24/06 4:33 p -14.7 -14.7 -14.8 --- --- 18.3 E 0.30 20.9 -26.2 --- --- 725.9 0.023 0.000 7.6 4 1
02/24/06 4:34 p -14.7 -14.7 -14.7 --- --- 17.4 E 0.29 20.0 -25.9 --- --- 725.9 0.023 0.000 7.6 4 1
02/24/06 4:35 p -14.7 -14.7 -14.7 --- --- 15.7 E 0.26 20.0 -25.4 --- --- 725.9 0.023 0.000 7.6 4 1
02/24/06 4:36 p -14.8 -14.7 -14.8 --- --- 17.4 E 0.29 20.0 -26.0 --- --- 725.9 0.023 0.000 7.6 4 1
02/24/06 4:37 p -14.7 -14.7 -14.8 --- --- 19.1 E 0.32 22.6 -26.4 --- --- 725.9 0.023 0.000 7.6 4 1
02/24/06 4:38 p -14.8 -14.8 -14.8 --- --- 17.4 E 0.29 20.9 -26.0 --- --- 725.9 0.023 0.000 7.6 4 1
02/24/06 4:39 p -14.8 -14.8 -14.8 --- --- 16.5 E 0.28 20.0 -25.8 --- --- 725.9 0.023 0.000 7.6 4 1
02/24/06 4:40 p -14.8 -14.8 -14.8 --- --- 16.5 E 0.28 20.9 -25.8 --- --- 726.0 0.023 0.000 7.6 4 1
02/24/06 4:41 p -14.8 -14.8 -14.8 --- --- 15.7 E 0.26 17.4 -25.6 --- --- 725.9 0.023 0.000 7.6 4 1
02/24/06 4:42 p -14.8 -14.8 -14.9 --- --- 15.7 E 0.26 20.0 -25.6 --- --- 725.8 0.023 0.000 7.6 4 1
02/24/06 4:43 p -14.9 -14.9 -14.9 --- --- 18.3 E 0.30 20.9 -26.4 --- --- 725.8 0.023 0.000 7.6 4 1
02/24/06 4:44 p -14.9 -14.9 -14.9 --- --- 16.5 E 0.28 19.1 -25.9 --- --- 725.8 0.023 0.000 7.6 4 1
02/24/06 4:45 p -14.9 -14.9 -14.9 --- --- 16.5 E 0.28 20.9 -25.9 --- --- 725.9 0.023 0.000 7.6 4 1
02/24/06 4:46 p -14.9 -14.9 -14.9 --- --- 15.7 E 0.26 19.1 -25.7 --- --- 725.8 0.023 0.000 7.6 4 1
02/24/06 4:47 p -14.9 -14.9 -14.9 --- --- 15.7 E 0.26 18.3 -25.7 --- --- 725.9 0.023 0.000 7.5 4 1
02/24/06 4:48 p -14.9 -14.8 -14.9 --- --- 16.5 E 0.28 20.0 -25.9 --- --- 725.8 0.023 0.000 7.5 4 1
02/24/06 4:49 p -14.9 -14.9 -14.9 --- --- 17.4 E 0.29 19.1 -26.2 --- --- 725.9 0.023 0.000 7.5 4 1
02/24/06 4:50 p -14.9 -14.9 -14.9 --- --- 16.5 E 0.28 18.3 -25.9 --- --- 725.9 0.023 0.000 7.5 4 1
02/24/06 4:51 p -14.9 -14.9 -14.9 --- --- 17.4 E 0.29 20.9 -26.2 --- --- 725.8 0.023 0.000 7.5 4 1
02/24/06 4:52 p -14.9 -14.8 -14.9 --- --- 17.4 E 0.29 20.9 -26.2 --- --- 725.9 0.023 0.000 7.5 4 1
02/24/06 4:53 p -14.8 -14.8 -14.8 --- --- 15.7 E 0.26 19.1 -25.6 --- --- 725.9 0.023 0.000 7.5 4 1
02/24/06 4:54 p -14.8 -14.8 -14.8 --- --- 18.3 E 0.30 20.9 -26.3 --- --- 725.9 0.023 0.000 7.5 4 1
02/24/06 4:55 p -14.8 -14.8 -14.8 --- --- 14.8 E 0.25 18.3 -25.3 --- --- 725.9 0.023 0.000 7.5 4 1
02/24/06 4:56 p -14.8 -14.8 -14.8 --- --- 15.7 E 0.26 18.3 -25.6 --- --- 725.8 0.023 0.000 7.5 4 1
02/24/06 4:57 p -14.8 -14.8 -14.8 --- --- 14.8 E 0.25 17.4 -25.3 --- --- 725.8 0.023 0.000 7.5 4 1
02/24/06 4:58 p -14.8 -14.8 -14.8 --- --- 16.5 E 0.28 20.0 -25.8 --- --- 725.8 0.023 0.000 7.5 4 1
02/24/06 4:59 p -14.8 -14.8 -14.8 --- --- 15.7 E 0.26 20.0 -25.6 --- --- 725.8 0.023 0.000 7.5 4 1
02/24/06 5:00 p -14.8 -14.8 -14.8 --- --- 15.7 E 0.26 18.3 -25.5 --- --- 725.8 0.023 0.000 7.5 4 1
02/24/06 5:01 p -14.8 -14.8 -14.8 --- --- 16.5 E 0.28 19.1 -25.8 --- --- 725.7 0.023 0.000 7.5 4 1
02/24/06 5:02 p -14.8 -14.8 -14.8 --- --- 16.5 E 0.28 20.9 -25.8 --- --- 725.7 0.023 0.000 7.6 4 1
02/24/06 5:03 p -14.8 -14.8 -14.8 --- --- 16.5 E 0.28 19.1 -25.8 --- --- 725.8 0.023 0.000 7.6 4 1
02/24/06 5:04 p -14.8 -14.8 -14.8 --- --- 17.4 E 0.29 20.0 -26.0 --- --- 725.7 0.023 0.000 7.6 4 1
02/24/06 5:05 p -14.8 -14.8 -14.8 --- --- 16.5 E 0.28 20.0 -25.8 --- --- 725.7 0.023 0.000 7.6 4 1
02/24/06 5:06 p -14.8 -14.8 -14.8 --- --- 17.4 E 0.29 20.9 -26.0 --- --- 725.7 0.023 0.000 7.6 4 1
02/24/06 5:07 p -14.8 -14.8 -14.8 --- --- 14.8 E 0.25 18.3 -25.2 --- --- 725.8 0.023 0.000 7.6 4 1
02/24/06 5:08 p -14.8 -14.8 -14.8 --- --- 16.5 E 0.28 19.1 -25.8 --- --- 725.7 0.023 0.000 7.6 4 1
02/24/06 5:09 p -14.8 -14.8 -14.8 --- --- 14.8 E 0.25 18.3 -25.2 --- --- 725.8 0.023 0.000 7.6 4 1
02/24/06 5:10 p -14.8 -14.8 -14.8 --- --- 15.7 E 0.26 18.3 -25.5 --- --- 725.8 0.023 0.000 7.6 4 1
02/24/06 5:11 p -14.8 -14.8 -14.8 --- --- 16.5 E 0.28 19.1 -25.8 --- --- 725.7 0.023 0.000 7.6 4 1
02/24/06 5:12 p -14.8 -14.8 -14.8 --- --- 15.7 E 0.26 18.3 -25.5 --- --- 725.8 0.023 0.000 7.6 4 1
02/24/06 5:13 p -14.8 -14.8 -14.8 --- --- 17.4 E 0.29 20.9 -26.0 --- --- 725.8 0.023 0.000 7.6 4 1
02/24/06 5:14 p -14.8 -14.8 -14.8 --- --- 16.5 E 0.28 19.1 -25.8 --- --- 725.7 0.023 0.000 7.6 4 1
02/24/06 5:15 p -14.8 -14.8 -14.8 --- --- 16.5 E 0.28 19.1 -25.8 --- --- 725.7 0.023 0.000 7.6 4 1
02/24/06 5:16 p -14.8 -14.8 -14.8 --- --- 16.5 E 0.28 20.0 -25.8 --- --- 725.6 0.023 0.000 7.6 4 1
02/24/06 5:17 p -14.7 -14.7 -14.8 --- --- 15.7 E 0.26 18.3 -25.4 --- --- 725.8 0.023 0.000 7.6 4 1
02/24/06 5:18 p -14.7 -14.7 -14.7 --- --- 15.7 E 0.26 20.0 -25.4 --- --- 725.6 0.023 0.000 7.6 4 1
02/24/06 5:19 p -14.7 -14.7 -14.7 --- --- 15.7 E 0.26 19.1 -25.4 --- --- 725.6 0.023 0.000 7.6 4 1
02/24/06 5:20 p -14.7 -14.7 -14.7 --- --- 16.5 E 0.28 20.0 -25.7 --- --- 725.7 0.023 0.000 7.6 4 1
02/24/06 5:21 p -14.7 -14.7 -14.7 --- --- 16.5 ESE 0.28 20.0 -25.7 --- --- 725.7 0.023 0.000 7.6 4 1
02/24/06 5:22 p -14.7 -14.7 -14.7 --- --- 16.5 E 0.28 19.1 -25.7 --- --- 725.6 0.023 0.000 7.6 4 1
02/24/06 5:23 p -14.7 -14.7 -14.7 --- --- 16.5 E 0.28 19.1 -25.6 --- --- 725.6 0.023 0.000 7.6 4 1
02/24/06 5:24 p -14.7 -14.7 -14.7 --- --- 15.7 E 0.26 19.1 -25.3 --- --- 725.7 0.023 0.000 7.6 4 1
02/24/06 5:25 p -14.7 -14.6 -14.7 --- --- 17.4 E 0.29 20.9 -25.8 --- --- 725.6 0.023 0.000 7.6 4 1
02/24/06 5:26 p -14.7 -14.6 -14.7 --- --- 16.5 E 0.28 20.0 -25.6 --- --- 725.6 0.023 0.000 7.6 4 1
02/24/06 5:27 p -14.6 -14.6 -14.7 --- --- 17.4 E 0.29 20.0 -25.8 --- --- 725.7 0.023 0.000 7.6 4 1
02/24/06 5:28 p -14.6 -14.6 -14.6 --- --- 16.5 E 0.28 19.1 -25.6 --- --- 725.7 0.023 0.000 7.6 4 1
02/24/06 5:29 p -14.6 -14.6 -14.6 --- --- 13.9 E 0.23 16.5 -24.7 --- --- 725.6 0.023 0.000 7.6 4 1
02/24/06 5:30 p -14.6 -14.6 -14.6 --- --- 16.5 E 0.28 20.0 -25.6 --- --- 725.7 0.023 0.000 7.5 4 1
02/24/06 5:31 p -14.6 -14.6 -14.6 --- --- 14.8 E 0.25 17.4 -24.9 --- --- 725.6 0.023 0.000 7.5 4 1
02/24/06 5:32 p -14.6 -14.6 -14.6 --- --- 18.3 E 0.30 21.7 -25.9 --- --- 725.6 0.023 0.000 7.5 4 1
02/24/06 5:33 p -14.6 -14.6 -14.6 --- --- 15.7 E 0.26 20.0 -25.2 --- --- 725.7 0.023 0.000 7.5 4 1
02/24/06 5:34 p -14.6 -14.6 -14.6 --- --- 15.7 E 0.26 18.3 -25.2 --- --- 725.6 0.023 0.000 7.5 4 1
02/24/06 5:35 p -14.6 -14.6 -14.6 --- --- 18.3 ESE 0.30 20.9 -25.9 --- --- 725.6 0.023 0.000 7.5 4 1
02/24/06 5:36 p -14.6 -14.6 -14.6 --- --- 16.5 E 0.28 20.0 -25.4 --- --- 725.5 0.023 0.000 7.5 4 1
02/24/06 5:37 p -14.6 -14.6 -14.6 --- --- 19.1 E 0.32 20.9 -26.2 --- --- 725.5 0.023 0.000 7.4 4 1
02/24/06 5:38 p -14.6 -14.5 -14.6 --- --- 19.1 E 0.32 21.7 -26.2 --- --- 725.5 0.023 0.000 7.4 4 1
02/24/06 5:39 p -14.6 -14.5 -14.6 --- --- 18.3 E 0.30 21.7 -25.9 --- --- 725.4 0.023 0.000 7.4 4 1
02/24/06 5:40 p -14.6 -14.6 -14.6 --- --- 17.4 E 0.29 20.9 -25.7 --- --- 725.6 0.023 0.000 7.4 4 1
02/24/06 5:41 p -14.6 -14.5 -14.6 --- --- 18.3 E 0.30 21.7 -25.9 --- --- 725.5 0.023 0.000 7.4 4 1
02/24/06 5:42 p -14.6 -14.5 -14.6 --- --- 18.3 E 0.30 20.9 -25.9 --- --- 725.4 0.023 0.000 7.4 4 1
02/24/06 5:43 p -14.6 -14.5 -14.6 --- --- 15.7 E 0.26 18.3 -25.2 --- --- 725.5 0.023 0.000 7.4 4 1
02/24/06 5:44 p -14.5 -14.5 -14.6 --- --- 17.4 E 0.29 20.9 -25.7 --- --- 725.5 0.023 0.000 7.4 4 1
02/24/06 5:45 p -14.5 -14.5 -14.6 --- --- 17.4 E 0.29 22.6 -25.7 --- --- 725.4 0.023 0.000 7.4 4 1
02/24/06 5:46 p -14.5 -14.5 -14.5 --- --- 19.1 E 0.32 20.9 -26.1 --- --- 725.4 0.023 0.000 7.4 4 1
02/24/06 5:47 p -14.5 -14.5 -14.6 --- --- 17.4 E 0.29 21.7 -25.7 --- --- 725.4 0.023 0.000 7.4 4 1
02/24/06 5:48 p -14.6 -14.5 -14.6 --- --- 16.5 E 0.28 19.1 -25.4 --- --- 725.4 0.023 0.000 7.4 4 1
02/24/06 5:49 p -14.5 -14.5 -14.6 --- --- 17.4 E 0.29 20.0 -25.7 --- --- 725.4 0.023 0.000 7.4 4 1
02/24/06 5:50 p -14.5 -14.5 -14.6 --- --- 15.7 E 0.26 19.1 -25.2 --- --- 725.4 0.023 0.000 7.4 4 1
02/24/06 5:51 p -14.6 -14.6 -14.6 --- --- 18.3 E 0.30 21.7 -25.9 --- --- 725.5 0.023 0.000 7.4 4 1
02/24/06 5:52 p -14.6 -14.6 -14.6 --- --- 17.4 E 0.29 20.0 -25.7 --- --- 725.4 0.023 0.000 7.4 4 1
02/24/06 5:53 p -14.6 -14.6 -14.6 --- --- 17.4 E 0.29 20.0 -25.7 --- --- 725.4 0.023 0.000 7.4 4 1
02/24/06 5:54 p -14.6 -14.6 -14.6 --- --- 17.4 E 0.29 19.1 -25.7 --- --- 725.4 0.023 0.000 7.5 4 1
02/24/06 5:55 p -14.6 -14.6 -14.6 --- --- 16.5 E 0.28 20.0 -25.4 --- --- 725.4 0.023 0.000 7.5 4 1
02/24/06 5:56 p -14.6 -14.6 -14.6 --- --- 18.3 E 0.30 21.7 -25.9 --- --- 725.3 0.023 0.000 7.5 4 1
02/24/06 5:57 p -14.6 -14.6 -14.6 --- --- 16.5 E 0.28 20.0 -25.4 --- --- 725.5 0.023 0.000 7.5 4 1
02/24/06 5:58 p -14.6 -14.6 -14.6 --- --- 18.3 E 0.30 21.7 -25.9 --- --- 725.3 0.023 0.000 7.5 4 1
02/24/06 5:59 p -14.6 -14.6 -14.6 --- --- 15.7 E 0.26 19.1 -25.2 --- --- 725.4 0.023 0.000 7.5 4 1
02/24/06 6:00 p -14.6 -14.6 -14.6 --- --- 20.9 E 0.35 24.3 -26.6 --- --- 725.3 0.023 0.000 7.5 4 1
02/24/06 6:01 p -14.6 -14.6 -14.6 --- --- 18.3 E 0.30 22.6 -25.9 --- --- 725.4 0.023 0.000 7.5 4 1
02/24/06 6:02 p -14.6 -14.6 -14.6 --- --- 16.5 E 0.28 20.9 -25.6 --- --- 725.3 0.023 0.000 7.5 4 1
02/24/06 6:03 p -14.6 -14.6 -14.6 --- --- 17.4 E 0.29 20.9 -25.8 --- --- 725.3 0.023 0.000 7.5 4 1
02/24/06 6:04 p -14.6 -14.6 -14.6 --- --- 19.1 E 0.32 22.6 -26.2 --- --- 725.4 0.023 0.000 7.5 4 1
02/24/06 6:05 p -14.6 -14.6 -14.6 --- --- 17.4 E 0.29 20.0 -25.8 --- --- 725.3 0.023 0.000 7.5 4 1
02/24/06 6:06 p -14.6 -14.6 -14.6 --- --- 17.4 E 0.29 20.0 -25.8 --- --- 725.2 0.023 0.000 7.5 4 1
02/24/06 6:07 p -14.6 -14.6 -14.6 --- --- 17.4 E 0.29 22.6 -25.8 --- --- 725.2 0.023 0.000 7.5 4 1
02/24/06 6:08 p -14.6 -14.6 -14.6 --- --- 19.1 E 0.32 20.9 -26.2 --- --- 725.2 0.023 0.000 7.5 4 1
02/24/06 6:09 p -14.6 -14.6 -14.6 --- --- 17.4 E 0.29 20.0 -25.8 --- --- 725.2 0.023 0.000 7.5 4 1
02/24/06 6:10 p -14.6 -14.6 -14.6 --- --- 17.4 E 0.29 22.6 -25.8 --- --- 725.2 0.023 0.000 7.5 4 1
02/24/06 6:11 p -14.6 -14.6 -14.6 --- --- 18.3 E 0.30 20.9 -26.0 --- --- 725.3 0.023 0.000 7.5 4 1
02/24/06 6:12 p -14.6 -14.6 -14.7 --- --- 17.4 E 0.29 20.0 -25.8 --- --- 725.3 0.023 0.000 7.5 4 1
02/24/06 6:13 p -14.6 -14.6 -14.7 --- --- 16.5 E 0.28 19.1 -25.6 --- --- 725.2 0.023 0.000 7.5 4 1
02/24/06 6:14 p -14.7 -14.7 -14.7 --- --- 18.3 E 0.30 22.6 -26.1 --- --- 725.2 0.023 0.000 7.4 4 1
02/24/06 6:15 p -14.7 -14.7 -14.7 --- --- 17.4 E 0.29 20.0 -25.8 --- --- 725.2 0.023 0.000 7.5 4 1
02/24/06 6:16 p -14.7 -14.6 -14.7 --- --- 19.1 E 0.32 23.5 -26.3 --- --- 725.2 0.023 0.000 7.4 4 1
02/24/06 6:17 p -14.6 -14.6 -14.7 --- --- 15.7 E 0.26 20.9 -25.3 --- --- 725.1 0.023 0.000 7.4 4 1
02/24/06 6:18 p -14.6 -14.6 -14.7 --- --- 20.0 E 0.33 24.3 -26.4 --- --- 725.1 0.023 0.000 7.4 4 1
02/24/06 6:19 p -14.7 -14.6 -14.7 --- --- 19.1 E 0.32 20.9 -26.3 --- --- 725.3 0.023 0.000 7.4 4 1
02/24/06 6:20 p -14.6 -14.6 -14.6 --- --- 18.3 E 0.30 22.6 -26.0 --- --- 725.0 0.023 0.000 7.4 4 1
02/24/06 6:21 p -14.6 -14.6 -14.6 --- --- 19.1 E 0.32 24.3 -26.2 --- --- 725.1 0.023 0.000 7.4 4 1
02/24/06 6:22 p -14.6 -14.6 -14.6 --- --- 19.1 E 0.32 20.9 -26.2 --- --- 725.2 0.023 0.000 7.4 4 1
02/24/06 6:23 p -14.6 -14.6 -14.6 --- --- 19.1 E 0.32 21.7 -26.2 --- --- 725.1 0.023 0.000 7.4 4 1
02/24/06 6:24 p -14.6 -14.6 -14.6 --- --- 20.0 E 0.33 25.2 -26.4 --- --- 725.0 0.023 0.000 7.4 4 1
02/24/06 6:25 p -14.6 -14.6 -14.6 --- --- 20.0 E 0.33 24.3 -26.4 --- --- 725.0 0.023 0.000 7.4 4 1
02/24/06 6:26 p -14.5 -14.5 -14.6 --- --- 20.0 E 0.33 24.3 -26.3 --- --- 725.0 0.023 0.000 7.4 4 1
02/24/06 6:27 p -14.5 -14.5 -14.5 --- --- 20.9 E 0.35 23.5 -26.5 --- --- 725.0 0.023 0.000 7.4 4 1
02/24/06 6:28 p -14.4 -14.4 -14.5 --- --- 19.1 E 0.32 24.3 -26.0 --- --- 725.0 0.023 0.000 7.4 4 1
02/24/06 6:29 p -14.4 -14.4 -14.4 --- --- 20.0 E 0.33 22.6 -26.2 --- --- 725.1 0.023 0.000 7.4 4 1
02/24/06 6:30 p -14.4 -14.4 -14.4 --- --- 19.1 E 0.32 24.3 -25.9 --- --- 725.0 0.023 0.000 7.4 4 1
02/24/06 6:31 p -14.3 -14.3 -14.4 --- --- 19.1 ESE 0.32 23.5 -25.9 --- --- 725.0 0.023 0.000 7.4 4 1
02/24/06 6:32 p -14.3 -14.3 -14.3 --- --- 20.0 E 0.33 23.5 -26.0 --- --- 724.9 0.023 0.000 7.4 4 1
02/24/06 6:33 p -14.3 -14.3 -14.3 --- --- 20.0 E 0.33 22.6 -26.0 --- --- 725.0 0.023 0.000 7.4 4 1
02/24/06 6:34 p -14.3 -14.3 -14.3 --- --- 18.3 E 0.30 20.9 -25.6 --- --- 725.0 0.023 0.000 7.4 4 1
02/24/06 6:35 p -14.2 -14.2 -14.3 --- --- 20.0 E 0.33 22.6 -25.9 --- --- 725.0 0.023 0.000 7.4 4 1
02/24/06 6:36 p -14.2 -14.2 -14.2 --- --- 20.9 E 0.35 25.2 -26.2 --- --- 725.0 0.023 0.000 7.4 4 1
02/24/06 6:37 p -14.2 -14.2 -14.2 --- --- 20.0 E 0.33 21.7 -25.9 --- --- 725.0 0.023 0.000 7.4 4 1
02/24/06 6:38 p -14.2 -14.2 -14.2 --- --- 20.0 E 0.33 22.6 -25.9 --- --- 724.9 0.023 0.000 7.4 4 1
02/24/06 6:39 p -14.2 -14.2 -14.2 --- --- 18.3 E 0.30 22.6 -25.4 --- --- 725.0 0.023 0.000 7.4 4 1
02/24/06 6:40 p -14.1 -14.1 -14.2 --- --- 16.5 E 0.28 21.7 -24.9 --- --- 725.0 0.023 0.000 7.4 4 1
02/24/06 6:41 p -14.1 -14.1 -14.1 --- --- 18.3 E 0.30 20.9 -25.4 --- --- 725.1 0.023 0.000 7.4 4 1
02/24/06 6:42 p -14.1 -14.1 -14.1 --- --- 17.4 E 0.29 21.7 -25.1 --- --- 724.9 0.023 0.000 7.4 4 1
02/24/06 6:43 p -14.1 -14.1 -14.1 --- --- 18.3 E 0.30 20.9 -25.4 --- --- 724.9 0.023 0.000 7.4 4 1
02/24/06 6:44 p -14.1 -14.1 -14.1 --- --- 17.4 E 0.29 20.0 -25.1 --- --- 725.0 0.022 0.000 7.4 4 1
02/24/06 6:45 p -14.1 -14.1 -14.1 --- --- 18.3 E 0.30 20.9 -25.4 --- --- 724.9 0.023 0.000 7.4 4 1
02/24/06 6:46 p -14.1 -14.1 -14.1 --- --- 17.4 E 0.29 20.9 -25.1 --- --- 725.0 0.023 0.000 7.4 4 1
02/24/06 6:47 p -14.1 -14.1 -14.1 --- --- 16.5 E 0.28 19.1 -24.9 --- --- 725.0 0.023 0.000 7.4 4 1
02/24/06 6:48 p -14.1 -14.1 -14.1 --- --- 17.4 E 0.29 20.9 -25.1 --- --- 724.9 0.023 0.000 7.4 4 1
02/24/06 6:49 p -14.1 -14.1 -14.1 --- --- 16.5 E 0.28 20.0 -24.9 --- --- 725.0 0.023 0.000 7.4 4 1
02/24/06 6:50 p -14.2 -14.2 -14.2 --- --- 18.3 E 0.30 20.9 -25.4 --- --- 724.9 0.023 0.000 7.4 4 1
02/24/06 6:51 p -14.2 -14.2 -14.2 --- --- 16.5 E 0.28 19.1 -24.9 --- --- 725.0 0.023 0.000 7.4 4 1
02/24/06 6:52 p -14.2 -14.2 -14.2 --- --- 17.4 E 0.29 19.1 -25.2 --- --- 725.0 0.023 0.000 7.4 4 1
02/24/06 6:53 p -14.2 -14.2 -14.2 --- --- 16.5 ESE 0.28 20.0 -25.1 --- --- 724.9 0.023 0.000 7.4 4 1
02/24/06 6:54 p -14.2 -14.2 -14.2 --- --- 17.4 E 0.29 20.9 -25.3 --- --- 725.0 0.023 0.000 7.4 4 1
02/24/06 6:55 p -14.2 -14.2 -14.2 --- --- 17.4 E 0.29 20.0 -25.3 --- --- 724.9 0.023 0.000 7.4 4 1
02/24/06 6:56 p -14.2 -14.2 -14.2 --- --- 16.5 E 0.28 20.0 -25.1 --- --- 725.0 0.023 0.000 7.4 4 1
02/24/06 6:57 p -14.2 -14.2 -14.2 --- --- 15.7 E 0.26 18.3 -24.8 --- --- 724.9 0.023 0.000 7.4 4 1
02/24/06 6:58 p -14.2 -14.2 -14.2 --- --- 16.5 E 0.28 20.0 -25.1 --- --- 725.0 0.023 0.000 7.4 4 1
02/24/06 6:59 p -14.2 -14.2 -14.2 --- --- 18.3 E 0.30 20.9 -25.5 --- --- 724.9 0.023 0.000 7.4 4 1
02/24/06 7:00 p -14.2 -14.2 -14.2 --- --- 18.3 E 0.30 20.9 -25.4 --- --- 724.9 0.023 0.000 7.4 4 1
02/24/06 7:01 p -14.2 -14.2 -14.2 --- --- 17.4 E 0.29 20.0 -25.2 --- --- 724.8 0.023 0.000 7.4 4 1
02/24/06 7:02 p -14.2 -14.1 -14.2 --- --- 17.4 E 0.29 20.9 -25.2 --- --- 724.9 0.023 0.000 7.4 4 1
02/24/06 7:03 p -14.1 -14.1 -14.1 --- --- 16.5 E 0.28 20.0 -24.9 --- --- 724.9 0.023 0.000 7.4 4 1
02/24/06 7:04 p -14.1 -14.1 -14.1 --- --- 16.5 E 0.28 20.0 -24.9 --- --- 725.0 0.023 0.000 7.4 4 1
02/24/06 7:05 p -14.1 -14.1 -14.1 --- --- 15.7 E 0.26 20.0 -24.6 --- --- 724.9 0.022 0.000 7.4 4 1
02/24/06 7:06 p -14.1 -14.0 -14.1 --- --- 17.4 E 0.29 20.0 -25.1 --- --- 724.9 0.022 0.000 7.4 4 1
02/24/06 7:07 p -14.0 -14.0 -14.1 --- --- 17.4 E 0.29 20.0 -25.0 --- --- 724.9 0.022 0.000 7.4 4 1
02/24/06 7:08 p -14.0 -14.0 -14.0 --- --- 17.4 E 0.29 20.0 -25.0 --- --- 724.8 0.022 0.000 7.4 4 1
02/24/06 7:09 p -14.0 -13.9 -14.0 --- --- 16.5 E 0.28 22.6 -24.7 --- --- 724.8 0.022 0.000 7.4 4 1
02/24/06 7:10 p -13.9 -13.9 -14.0 --- --- 16.5 E 0.28 19.1 -24.7 --- --- 725.0 0.022 0.000 7.4 4 1
02/24/06 7:11 p -13.9 -13.9 -13.9 --- --- 16.5 E 0.28 20.0 -24.7 --- --- 724.9 0.022 0.000 7.4 4 1
02/24/06 7:12 p -13.9 -13.9 -13.9 --- --- 17.4 E 0.29 20.0 -24.8 --- --- 724.9 0.022 0.000 7.4 4 1
02/24/06 7:13 p -13.9 -13.9 -13.9 --- --- 18.3 E 0.30 23.5 -25.1 --- --- 724.9 0.022 0.000 7.4 4 1
02/24/06 7:14 p -13.9 -13.8 -13.9 --- --- 16.5 E 0.28 19.1 -24.6 --- --- 725.0 0.022 0.000 7.4 4 1
02/24/06 7:15 p -13.8 -13.8 -13.8 --- --- 17.4 E 0.29 20.0 -24.8 --- --- 724.9 0.022 0.000 7.4 4 1
02/24/06 7:16 p -13.8 -13.8 -13.8 --- --- 16.5 E 0.28 19.1 -24.4 --- --- 725.0 0.022 0.000 7.4 4 1
02/24/06 7:17 p -13.8 -13.8 -13.8 --- --- 15.7 E 0.26 18.3 -24.3 --- --- 724.9 0.022 0.000 7.4 4 1
02/24/06 7:18 p -13.8 -13.8 -13.8 --- --- 15.7 E 0.26 20.0 -24.2 --- --- 725.0 0.022 0.000 7.4 4 1
02/24/06 7:19 p -13.8 -13.7 -13.8 --- --- 15.7 E 0.26 18.3 -24.2 --- --- 725.0 0.022 0.000 7.4 4 1
02/24/06 7:20 p -13.7 -13.7 -13.7 --- --- 16.5 E 0.28 20.0 -24.4 --- --- 724.9 0.022 0.000 7.4 4 1
02/24/06 7:21 p -13.7 -13.7 -13.7 --- --- 16.5 E 0.28 20.0 -24.3 --- --- 724.9 0.022 0.000 7.4 4 1
02/24/06 7:22 p -13.7 -13.7 -13.7 --- --- 15.7 E 0.26 20.9 -24.1 --- --- 725.0 0.022 0.000 7.4 4 1
02/24/06 7:23 p -13.7 -13.6 -13.7 --- --- 15.7 E 0.26 18.3 -24.1 --- --- 725.0 0.022 0.000 7.4 4 1
02/24/06 7:24 p -13.6 -13.6 -13.6 --- --- 16.5 E 0.28 18.3 -24.2 --- --- 724.9 0.022 0.000 7.4 4 1
02/24/06 7:25 p -13.6 -13.6 -13.6 --- --- 16.5 E 0.28 20.0 -24.2 --- --- 725.0 0.022 0.000 7.4 4 1
02/24/06 7:26 p -13.6 -13.6 -13.6 --- --- 14.8 E 0.25 17.4 -23.7 --- --- 725.0 0.022 0.000 7.4 4 1
02/24/06 7:27 p -13.6 -13.6 -13.6 --- --- 14.8 E 0.25 17.4 -23.7 --- --- 725.0 0.022 0.000 7.4 4 1
02/24/06 7:28 p -13.5 -13.5 -13.6 --- --- 14.8 E 0.25 18.3 -23.6 --- --- 725.0 0.022 0.000 7.4 4 1
02/24/06 7:29 p -13.5 -13.5 -13.5 --- --- 15.7 E 0.26 18.3 -23.8 --- --- 725.1 0.022 0.000 7.4 4 1
02/24/06 7:30 p -13.5 -13.5 -13.5 --- --- 15.7 E 0.26 19.1 -23.8 --- --- 725.0 0.022 0.000 7.4 4 1
02/24/06 7:31 p -13.5 -13.5 -13.5 --- --- 17.4 E 0.29 19.1 -24.3 --- --- 725.0 0.022 0.000 7.4 4 1
02/24/06 7:32 p -13.5 -13.5 -13.5 --- --- 14.8 E 0.25 20.0 -23.6 --- --- 725.0 0.022 0.000 7.4 4 1
02/24/06 7:33 p -13.5 -13.5 -13.5 --- --- 17.4 E 0.29 20.9 -24.3 --- --- 724.9 0.022 0.000 7.4 4 1
02/24/06 7:34 p -13.5 -13.5 -13.5 --- --- 16.5 E 0.28 19.1 -24.1 --- --- 725.0 0.022 0.000 7.4 4 1
02/24/06 7:35 p -13.4 -13.4 -13.4 --- --- 19.1 E 0.32 20.0 -24.7 --- --- 724.9 0.022 0.000 7.4 4 1
02/24/06 7:36 p -13.4 -13.4 -13.4 --- --- 17.4 ESE 0.29 21.7 -24.3 --- --- 724.9 0.022 0.000 7.4 4 1
02/24/06 7:37 p -13.4 -13.4 -13.4 --- --- 17.4 E 0.29 18.3 -24.3 --- --- 724.9 0.022 0.000 7.4 4 1
02/24/06 7:38 p -13.4 -13.4 -13.4 --- --- 16.5 E 0.28 20.9 -24.0 --- --- 725.0 0.022 0.000 7.4 4 1
02/24/06 7:39 p -13.4 -13.4 -13.4 --- --- 18.3 E 0.30 20.9 -24.4 --- --- 724.9 0.022 0.000 7.4 4 1
02/24/06 7:40 p -13.4 -13.4 -13.4 --- --- 18.3 E 0.30 21.7 -24.4 --- --- 724.8 0.022 0.000 7.4 4 1
02/24/06 7:41 p -13.4 -13.4 -13.4 --- --- 18.3 E 0.30 20.9 -24.4 --- --- 724.9 0.022 0.000 7.4 4 1
02/24/06 7:42 p -13.3 -13.3 -13.3 --- --- 17.4 ESE 0.29 21.7 -24.1 --- --- 724.8 0.022 0.000 7.4 4 1
02/24/06 7:43 p -13.3 -13.3 -13.3 --- --- 16.5 E 0.28 20.0 -23.9 --- --- 724.8 0.022 0.000 7.4 4 1
02/24/06 7:44 p -13.3 -13.3 -13.3 --- --- 16.5 E 0.28 20.0 -23.8 --- --- 724.8 0.022 0.000 7.4 4 1
02/24/06 7:45 p -13.3 -13.3 -13.3 --- --- 17.4 E 0.29 21.7 -24.1 --- --- 724.7 0.022 0.000 7.4 4 1
02/24/06 7:46 p -13.3 -13.3 -13.3 --- --- 18.3 E 0.30 22.6 -24.3 --- --- 724.7 0.022 0.000 7.4 4 1
02/24/06 7:47 p -13.3 -13.2 -13.3 --- --- 19.1 E 0.32 22.6 -24.5 --- --- 724.9 0.022 0.000 7.4 4 1
02/24/06 7:48 p -13.2 -13.2 -13.3 --- --- 19.1 E 0.32 23.5 -24.4 --- --- 724.7 0.022 0.000 7.4 4 1
02/24/06 7:49 p -13.2 -13.2 -13.2 --- --- 20.9 ESE 0.35 22.6 -24.8 --- --- 724.7 0.022 0.000 7.4 4 1
02/24/06 7:50 p -13.2 -13.2 -13.2 --- --- 20.9 E 0.35 24.3 -24.7 --- --- 724.6 0.022 0.000 7.4 4 1
02/24/06 7:51 p -13.2 -13.2 -13.2 --- --- 20.9 E 0.35 22.6 -24.8 --- --- 724.6 0.022 0.000 7.4 4 1
02/24/06 7:52 p -13.2 -13.2 -13.2 --- --- 20.9 E 0.35 22.6 -24.7 --- --- 724.7 0.022 0.000 7.4 4 1
02/24/06 7:53 p -13.2 -13.1 -13.2 --- --- 22.6 E 0.38 24.3 -25.1 --- --- 724.7 0.022 0.000 7.4 4 1
02/24/06 7:54 p -13.1 -13.1 -13.1 --- --- 20.9 E 0.35 23.5 -24.7 --- --- 724.7 0.022 0.000 7.4 4 1
02/24/06 7:55 p -13.1 -13.1 -13.1 --- --- 20.9 E 0.35 23.5 -24.7 --- --- 724.6 0.022 0.000 7.4 4 1
02/24/06 7:56 p -13.1 -13.1 -13.1 --- --- 22.6 E 0.38 25.2 -25.1 --- --- 724.7 0.022 0.000 7.4 4 1
02/24/06 7:57 p -13.1 -13.1 -13.1 --- --- 20.9 E 0.35 24.3 -24.7 --- --- 724.7 0.022 0.000 7.4 4 1
02/24/06 7:58 p -13.1 -13.1 -13.1 --- --- 21.7 E 0.36 23.5 -24.8 --- --- 724.6 0.022 0.000 7.4 4 1
02/24/06 7:59 p -13.1 -13.1 -13.1 --- --- 19.1 E 0.32 21.7 -24.2 --- --- 724.5 0.022 0.000 7.4 4 1
02/24/06 8:00 p -13.1 -13.1 -13.1 --- --- 21.7 E 0.36 24.3 -24.8 --- --- 724.6 0.022 0.000 7.4 4 1
02/24/06 8:01 p -13.0 -13.0 -13.1 --- --- 20.0 E 0.33 22.6 -24.3 --- --- 724.6 0.022 0.000 7.4 4 1
02/24/06 8:02 p -13.1 -13.0 -13.1 --- --- 18.3 E 0.30 22.6 -24.0 --- --- 724.6 0.022 0.000 7.4 4 1
02/24/06 8:03 p -12.9 -12.9 -13.0 --- --- 17.4 E 0.29 21.7 -23.6 --- --- 724.6 0.022 0.000 7.4 4 1
02/24/06 8:04 p -12.9 -12.9 -12.9 --- --- 17.4 E 0.29 20.0 -23.6 --- --- 724.6 0.022 0.000 7.4 4 1
02/24/06 8:05 p -12.9 -12.9 -12.9 --- --- 16.5 E 0.28 21.7 -23.4 --- --- 724.6 0.022 0.000 7.4 4 1
02/24/06 8:06 p -12.9 -12.9 -12.9 --- --- 16.5 E 0.28 20.0 -23.4 --- --- 724.6 0.022 0.000 7.4 4 1
02/24/06 8:07 p -12.9 -12.9 -12.9 --- --- 17.4 E 0.29 20.0 -23.6 --- --- 724.7 0.022 0.000 7.4 4 1
02/24/06 8:08 p -12.9 -12.9 -12.9 --- --- 16.5 E 0.28 19.1 -23.4 --- --- 724.7 0.022 0.000 7.4 4 1
02/24/06 8:09 p -12.9 -12.9 -12.9 --- --- 15.7 E 0.26 18.3 -23.1 --- --- 724.7 0.022 0.000 7.4 4 1
02/24/06 8:10 p -12.9 -12.9 -12.9 --- --- 14.8 E 0.25 18.3 -22.8 --- --- 724.7 0.022 0.000 7.4 4 1
02/24/06 8:11 p -12.9 -12.9 -12.9 --- --- 15.7 E 0.26 17.4 -23.1 --- --- 724.7 0.022 0.000 7.4 4 1
02/24/06 8:12 p -12.9 -12.8 -12.9 --- --- 14.8 E 0.25 18.3 -22.8 --- --- 724.8 0.022 0.000 7.4 4 1
02/24/06 8:13 p -12.8 -12.8 -12.8 --- --- 15.7 E 0.26 18.3 -23.0 --- --- 724.8 0.022 0.000 7.4 4 1
02/24/06 8:14 p -12.8 -12.8 -12.8 --- --- 14.8 E 0.25 17.4 -22.7 --- --- 724.7 0.022 0.000 7.4 4 1
02/24/06 8:15 p -12.8 -12.8 -12.8 --- --- 15.7 E 0.26 18.3 -23.0 --- --- 724.7 0.022 0.000 7.4 4 1
02/24/06 8:16 p -12.8 -12.8 -12.8 --- --- 13.9 ESE 0.23 15.7 -22.4 --- --- 724.7 0.022 0.000 7.4 4 1
02/24/06 8:17 p -12.8 -12.8 -12.8 --- --- 14.8 E 0.25 17.4 -22.7 --- --- 724.7 0.022 0.000 7.4 4 1
02/24/06 8:18 p -12.8 -12.7 -12.8 --- --- 13.0 E 0.22 16.5 -22.1 --- --- 724.7 0.022 0.000 7.4 4 1
02/24/06 8:19 p -12.7 -12.7 -12.7 --- --- 14.8 E 0.25 16.5 -22.6 --- --- 724.7 0.022 0.000 7.4 4 1
02/24/06 8:20 p -12.7 -12.7 -12.7 --- --- 16.5 E 0.28 21.7 -23.1 --- --- 724.7 0.022 0.000 7.4 4 1
02/24/06 8:21 p -12.7 -12.7 -12.7 --- --- 18.3 E 0.30 20.9 -23.4 --- --- 724.7 0.022 0.000 7.4 4 1
02/24/06 8:22 p -12.7 -12.6 -12.7 --- --- 18.3 E 0.30 20.0 -23.4 --- --- 724.6 0.022 0.000 7.4 4 1
02/24/06 8:23 p -12.6 -12.6 -12.6 --- --- 16.5 E 0.28 20.9 -22.9 --- --- 724.6 0.021 0.000 7.4 4 1
02/24/06 8:24 p -12.6 -12.6 -12.6 --- --- 16.5 E 0.28 20.0 -22.9 --- --- 724.6 0.021 0.000 7.4 4 1
02/24/06 8:25 p -12.6 -12.6 -12.6 --- --- 17.4 E 0.29 20.0 -23.1 --- --- 724.5 0.021 0.000 7.4 4 1
02/24/06 8:26 p -12.6 -12.6 -12.6 --- --- 16.5 E 0.28 19.1 -22.8 --- --- 724.6 0.021 0.000 7.4 4 1
02/24/06 8:27 p -12.5 -12.5 -12.5 --- --- 17.4 ESE 0.29 20.0 -23.0 --- --- 724.6 0.021 0.000 7.4 4 1
02/24/06 8:28 p -12.4 -12.4 -12.5 --- --- 15.7 E 0.26 18.3 -22.4 --- --- 724.5 0.021 0.000 7.4 4 1
02/24/06 8:29 p -12.4 -12.4 -12.4 --- --- 14.8 E 0.25 18.3 -22.2 --- --- 724.5 0.021 0.000 7.4 4 1
02/24/06 8:30 p -12.4 -12.4 -12.4 --- --- 14.8 E 0.25 20.9 -22.2 --- --- 724.6 0.021 0.000 7.4 4 1
02/24/06 8:31 p -12.4 -12.4 -12.4 --- --- 14.8 E 0.25 17.4 -22.2 --- --- 724.6 0.021 0.000 7.4 4 1
02/24/06 8:32 p -12.4 -12.4 -12.4 --- --- 14.8 E 0.25 18.3 -22.2 --- --- 724.6 0.021 0.000 7.4 4 1
02/24/06 8:33 p -12.4 -12.4 -12.4 --- --- 14.8 E 0.25 20.9 -22.2 --- --- 724.5 0.021 0.000 7.4 4 1
02/24/06 8:34 p -12.3 -12.3 -12.4 --- --- 15.7 E 0.26 19.1 -22.3 --- --- 724.6 0.021 0.000 7.4 4 1
02/24/06 8:35 p -12.3 -12.3 -12.4 --- --- 13.9 E 0.23 16.5 -21.8 --- --- 724.6 0.021 0.000 7.4 4 1
02/24/06 8:36 p -12.3 -12.3 -12.3 --- --- 14.8 E 0.25 17.4 -22.1 --- --- 724.6 0.021 0.000 7.4 4 1
02/24/06 8:37 p -12.3 -12.3 -12.3 --- --- 15.7 E 0.26 18.3 -22.3 --- --- 724.5 0.021 0.000 7.4 4 1
02/24/06 8:38 p -12.3 -12.3 -12.3 --- --- 15.7 E 0.26 17.4 -22.3 --- --- 724.5 0.021 0.000 7.4 4 1
02/24/06 8:39 p -12.3 -12.3 -12.3 --- --- 15.7 E 0.26 18.3 -22.3 --- --- 724.6 0.021 0.000 7.4 4 1
02/24/06 8:40 p -12.3 -12.3 -12.3 --- --- 13.9 E 0.23 16.5 -21.7 --- --- 724.6 0.021 0.000 7.4 4 1
02/24/06 8:41 p -12.3 -12.3 -12.3 --- --- 13.0 E 0.22 17.4 -21.4 --- --- 724.5 0.021 0.000 7.4 4 1
02/24/06 8:42 p -12.3 -12.3 -12.3 --- --- 14.8 E 0.25 17.4 -22.0 --- --- 724.5 0.021 0.000 7.4 4 1
02/24/06 8:43 p -12.3 -12.3 -12.3 --- --- 14.8 E 0.25 17.4 -22.0 --- --- 724.5 0.021 0.000 7.4 4 1
02/24/06 8:44 p -12.3 -12.3 -12.3 --- --- 13.9 E 0.23 18.3 -21.7 --- --- 724.5 0.021 0.000 7.4 4 1
02/24/06 8:45 p -12.2 -12.2 -12.3 --- --- 14.8 E 0.25 18.3 -21.9 --- --- 724.4 0.021 0.000 7.4 4 1
02/24/06 8:46 p -12.3 -12.2 -12.3 --- --- 14.8 E 0.25 18.3 -22.0 --- --- 724.6 0.021 0.000 7.4 4 1
02/24/06 8:47 p -12.3 -12.2 -12.3 --- --- 13.9 E 0.23 19.1 -21.7 --- --- 724.5 0.021 0.000 7.4 4 1
02/24/06 8:48 p -12.3 -12.2 -12.3 --- --- 13.0 E 0.22 16.5 -21.4 --- --- 724.5 0.021 0.000 7.4 4 1
02/24/06 8:49 p -12.2 -12.2 -12.3 --- --- 13.0 E 0.22 16.5 -21.4 --- --- 724.5 0.021 0.000 7.4 4 1
02/24/06 8:50 p -12.3 -12.3 -12.3 --- --- 15.7 E 0.26 18.3 -22.3 --- --- 724.5 0.021 0.000 7.4 4 1
02/24/06 8:51 p -12.3 -12.3 -12.3 --- --- 14.8 E 0.25 18.3 -22.0 --- --- 724.5 0.021 0.000 7.4 4 1
02/24/06 8:52 p -12.3 -12.3 -12.3 --- --- 13.9 E 0.23 16.5 -21.7 --- --- 724.5 0.021 0.000 7.4 4 1
02/24/06 8:53 p -12.3 -12.3 -12.3 --- --- 14.8 E 0.25 18.3 -22.0 --- --- 724.6 0.021 0.000 7.4 4 1
02/24/06 8:54 p -12.2 -12.2 -12.3 --- --- 13.0 ESE 0.22 18.3 -21.4 --- --- 724.5 0.021 0.000 7.4 4 1
02/24/06 8:55 p -12.2 -12.2 -12.2 --- --- 13.9 E 0.23 16.5 -21.7 --- --- 724.4 0.021 0.000 7.4 4 1
02/24/06 8:56 p -12.2 -12.2 -12.3 --- --- 12.2 E 0.20 15.7 -21.1 --- --- 724.6 0.021 0.000 7.4 4 1
02/24/06 8:57 p -12.2 -12.2 -12.2 --- --- 13.9 E 0.23 17.4 -21.7 --- --- 724.6 0.021 0.000 7.4 4 1
02/24/06 8:58 p -12.2 -12.2 -12.2 --- --- 13.9 E 0.23 17.4 -21.7 --- --- 724.5 0.021 0.000 7.4 4 1
02/24/06 8:59 p -12.2 -12.2 -12.2 --- --- 15.7 E 0.26 17.4 -22.1 --- --- 724.6 0.021 0.000 7.4 4 1
02/24/06 9:00 p -12.2 -12.2 -12.2 --- --- 14.8 E 0.25 16.5 -21.8 --- --- 724.5 0.021 0.000 7.4 4 1
02/24/06 9:01 p -12.2 -12.2 -12.2 --- --- 13.9 E 0.23 15.7 -21.6 --- --- 724.6 0.021 0.000 7.4 4 1
02/24/06 9:02 p -12.2 -12.1 -12.2 --- --- 16.5 ESE 0.28 18.3 -22.3 --- --- 724.5 0.021 0.000 7.4 4 1
02/24/06 9:03 p -12.1 -12.1 -12.1 --- --- 14.8 E 0.25 17.4 -21.8 --- --- 724.5 0.021 0.000 7.4 4 1
02/24/06 9:04 p -12.1 -12.1 -12.1 --- --- 13.9 E 0.23 16.5 -21.4 --- --- 724.6 0.021 0.000 7.4 4 1
02/24/06 9:05 p -12.1 -12.1 -12.1 --- --- 14.8 ESE 0.25 17.4 -21.8 --- --- 724.6 0.021 0.000 7.4 4 1
02/24/06 9:06 p -12.1 -12.1 -12.1 --- --- 13.0 E 0.22 15.7 -21.2 --- --- 724.6 0.021 0.000 7.4 4 1
02/24/06 9:07 p -12.1 -12.1 -12.1 --- --- 13.9 E 0.23 16.5 -21.4 --- --- 724.5 0.021 0.000 7.4 4 1
02/24/06 9:08 p -12.1 -12.0 -12.1 --- --- 14.8 E 0.25 18.3 -21.7 --- --- 724.5 0.021 0.000 7.4 4 1
02/24/06 9:09 p -12.0 -12.0 -12.0 --- --- 15.7 E 0.26 18.3 -21.9 --- --- 724.5 0.021 0.000 7.4 4 1
02/24/06 9:10 p -12.0 -12.0 -12.0 --- --- 15.7 ESE 0.26 18.3 -21.9 --- --- 724.5 0.021 0.000 7.4 4 1
02/24/06 9:11 p -12.0 -11.9 -12.0 --- --- 15.7 ESE 0.26 18.3 -21.9 --- --- 724.4 0.021 0.000 7.4 4 1
02/24/06 9:12 p -11.9 -11.9 -11.9 --- --- 16.5 ESE 0.28 18.3 -22.1 --- --- 724.5 0.021 0.000 7.4 4 1
02/24/06 9:13 p -11.9 -11.9 -11.9 --- --- 16.5 E 0.28 19.1 -22.1 --- --- 724.4 0.021 0.000 7.4 4 1
02/24/06 9:14 p -11.9 -11.9 -11.9 --- --- 17.4 ESE 0.29 20.0 -22.2 --- --- 724.3 0.021 0.000 7.4 4 1
02/24/06 9:15 p -11.8 -11.8 -11.9 --- --- 17.4 ESE 0.29 20.0 -22.2 --- --- 724.4 0.021 0.000 7.4 4 1
02/24/06 9:16 p -11.8 -11.8 -11.8 --- --- 17.4 E 0.29 20.0 -22.2 --- --- 724.3 0.021 0.000 7.4 4 1
02/24/06 9:17 p -11.8 -11.8 -11.8 --- --- 18.3 E 0.30 20.9 -22.4 --- --- 724.3 0.021 0.000 7.4 4 1
02/24/06 9:18 p -11.8 -11.8 -11.8 --- --- 18.3 ESE 0.30 20.9 -22.3 --- --- 724.3 0.021 0.000 7.4 4 1
02/24/06 9:19 p -11.8 -11.8 -11.8 --- --- 19.1 ESE 0.32 21.7 -22.5 --- --- 724.2 0.021 0.000 7.4 4 1
02/24/06 9:20 p -11.8 -11.7 -11.8 --- --- 19.1 E 0.32 20.9 -22.5 --- --- 724.2 0.021 0.000 7.4 4 1
02/24/06 9:21 p -11.8 -11.7 -11.8 --- --- 18.3 ESE 0.30 20.9 -22.3 --- --- 724.2 0.021 0.000 7.4 4 1
02/24/06 9:22 p -11.7 -11.7 -11.7 --- --- 20.0 E 0.33 21.7 -22.6 --- --- 724.2 0.021 0.000 7.4 4 1
02/24/06 9:23 p -11.7 -11.7 -11.7 --- --- 19.1 ESE 0.32 21.7 -22.4 --- --- 724.2 0.021 0.000 7.4 4 1
02/24/06 9:24 p -11.7 -11.7 -11.7 --- --- 19.1 ESE 0.32 21.7 -22.4 --- --- 724.2 0.021 0.000 7.4 4 1
02/24/06 9:25 p -11.7 -11.7 -11.7 --- --- 18.3 E 0.30 20.9 -22.2 --- --- 724.2 0.021 0.000 7.4 4 1
02/24/06 9:26 p -11.7 -11.7 -11.7 --- --- 20.0 ESE 0.33 22.6 -22.6 --- --- 724.1 0.021 0.000 7.5 4 1
02/24/06 9:27 p -11.7 -11.7 -11.7 --- --- 21.7 E 0.36 23.5 -23.0 --- --- 724.2 0.021 0.000 7.5 4 1
02/24/06 9:28 p -11.7 -11.7 -11.7 --- --- 20.9 ESE 0.35 23.5 -22.8 --- --- 724.1 0.021 0.000 7.5 4 1
02/24/06 9:29 p -11.7 -11.7 -11.7 --- --- 20.9 ESE 0.35 22.6 -22.7 --- --- 724.1 0.021 0.000 7.5 4 1
02/24/06 9:30 p -11.7 -11.7 -11.7 --- --- 21.7 ESE 0.36 24.3 -22.9 --- --- 724.0 0.021 0.000 7.5 4 1
02/24/06 9:31 p -11.7 -11.7 -11.7 --- --- 21.7 ESE 0.36 25.2 -22.9 --- --- 724.0 0.021 0.000 7.5 4 1
02/24/06 9:32 p -11.7 -11.7 -11.7 --- --- 22.6 ESE 0.38 23.5 -23.1 --- --- 724.1 0.021 0.000 7.5 4 1
02/24/06 9:33 p -11.7 -11.7 -11.7 --- --- 23.5 ESE 0.39 25.2 -23.3 --- --- 724.1 0.021 0.000 7.5 4 1
02/24/06 9:34 p -11.7 -11.6 -11.7 --- --- 20.9 ESE 0.35 24.3 -22.7 --- --- 724.1 0.021 0.000 7.5 4 1
02/24/06 9:35 p -11.6 -11.6 -11.7 --- --- 20.0 ESE 0.33 23.5 -22.5 --- --- 724.1 0.021 0.000 7.5 4 1
02/24/06 9:36 p -11.6 -11.6 -11.6 --- --- 20.0 ESE 0.33 22.6 -22.5 --- --- 724.1 0.021 0.000 7.5 4 1
02/24/06 9:37 p -11.6 -11.6 -11.6 --- --- 20.9 ESE 0.35 22.6 -22.7 --- --- 724.0 0.021 0.000 7.5 4 1
02/24/06 9:38 p -11.6 -11.6 -11.6 --- --- 21.7 ESE 0.36 24.3 -22.9 --- --- 724.0 0.021 0.000 7.5 4 1
02/24/06 9:39 p -11.6 -11.6 -11.6 --- --- 21.7 ESE 0.36 23.5 -22.9 --- --- 724.1 0.021 0.000 7.5 4 1
02/24/06 9:40 p -11.6 -11.6 -11.6 --- --- 20.0 E 0.33 21.7 -22.5 --- --- 724.1 0.021 0.000 7.4 4 1
02/24/06 9:41 p -11.6 -11.6 -11.6 --- --- 17.4 E 0.29 20.0 -21.8 --- --- 724.2 0.021 0.000 7.4 4 1
02/24/06 9:42 p -11.6 -11.6 -11.6 --- --- 14.8 E 0.25 17.4 -21.1 --- --- 724.2 0.021 0.000 7.4 4 1
02/24/06 9:43 p -11.6 -11.6 -11.6 --- --- 17.4 ESE 0.29 19.1 -21.8 --- --- 724.1 0.021 0.000 7.4 4 1
02/24/06 9:44 p -11.6 -11.6 -11.6 --- --- 19.1 ESE 0.32 20.9 -22.2 --- --- 724.1 0.021 0.000 7.4 4 1
02/24/06 9:45 p -11.6 -11.5 -11.6 --- --- 19.1 ESE 0.32 20.9 -22.2 --- --- 724.1 0.021 0.000 7.4 4 1
02/24/06 9:46 p -11.6 -11.5 -11.6 --- --- 17.4 E 0.29 20.9 -21.8 --- --- 724.1 0.021 0.000 7.4 4 1
02/24/06 9:47 p -11.5 -11.5 -11.6 --- --- 18.3 ESE 0.30 20.9 -21.9 --- --- 724.1 0.021 0.000 7.4 4 1
02/24/06 9:48 p -11.5 -11.5 -11.5 --- --- 18.3 ESE 0.30 20.9 -21.9 --- --- 724.1 0.021 0.000 7.4 4 1
02/24/06 9:49 p -11.5 -11.5 -11.5 --- --- 16.5 ESE 0.28 20.9 -21.5 --- --- 724.2 0.021 0.000 7.4 4 1
02/24/06 9:50 p -11.5 -11.5 -11.5 --- --- 15.7 ESE 0.26 19.1 -21.2 --- --- 724.1 0.021 0.000 7.4 4 1
02/24/06 9:51 p -11.5 -11.5 -11.5 --- --- 18.3 ESE 0.30 20.0 -21.9 --- --- 724.1 0.021 0.000 7.4 4 1
02/24/06 9:52 p -11.4 -11.4 -11.5 --- --- 20.0 ESE 0.33 22.6 -22.3 --- --- 724.1 0.021 0.000 7.4 4 1
02/24/06 9:53 p -11.4 -11.4 -11.4 --- --- 19.1 ESE 0.32 21.7 -22.1 --- --- 724.1 0.021 0.000 7.4 4 1
02/24/06 9:54 p -11.4 -11.4 -11.4 --- --- 18.3 ESE 0.30 20.9 -21.8 --- --- 724.1 0.021 0.000 7.4 4 1
02/24/06 9:55 p -11.4 -11.4 -11.4 --- --- 19.1 ESE 0.32 21.7 -22.0 --- --- 724.1 0.021 0.000 7.4 4 1
02/24/06 9:56 p -11.3 -11.3 -11.4 --- --- 19.1 ESE 0.32 21.7 -21.9 --- --- 724.1 0.021 0.000 7.4 4 1
02/24/06 9:57 p -11.3 -11.3 -11.3 --- --- 17.4 ESE 0.29 19.1 -21.5 --- --- 724.1 0.021 0.000 7.4 4 1
02/24/06 9:58 p -11.3 -11.3 -11.3 --- --- 19.1 ESE 0.32 21.7 -21.8 --- --- 724.0 0.021 0.000 7.4 4 1
02/24/06 9:59 p -11.3 -11.3 -11.3 --- --- 20.0 ESE 0.33 22.6 -22.1 --- --- 724.1 0.021 0.000 7.4 4 1
02/24/06 10:00 p -11.2 -11.2 -11.2 --- --- 19.1 ESE 0.32 20.9 -21.8 --- --- 724.0 0.021 0.000 7.4 4 1
02/24/06 10:01 p -11.2 -11.2 -11.2 --- --- 18.3 ESE 0.30 20.9 -21.5 --- --- 724.1 0.020 0.000 7.4 4 1
02/24/06 10:02 p -11.1 -11.1 -11.2 --- --- 20.9 ESE 0.35 23.5 -22.0 --- --- 724.1 0.020 0.000 7.4 4 1
02/24/06 10:03 p -11.1 -11.1 -11.1 --- --- 18.3 ESE 0.30 20.0 -21.4 --- --- 724.1 0.020 0.000 7.4 4 1
02/24/06 10:04 p -11.1 -11.1 -11.1 --- --- 16.5 ESE 0.28 19.1 -20.9 --- --- 724.2 0.020 0.000 7.4 4 1
02/24/06 10:05 p -11.1 -11.0 -11.1 --- --- 13.9 ESE 0.23 17.4 -20.2 --- --- 724.1 0.020 0.000 7.4 4 1
02/24/06 10:06 p -11.0 -11.0 -11.0 --- --- 15.7 ESE 0.26 18.3 -20.6 --- --- 724.2 0.020 0.000 7.4 4 1
02/24/06 10:07 p -10.9 -10.9 -10.9 --- --- 14.8 ESE 0.25 16.5 -20.3 --- --- 724.2 0.020 0.000 7.4 4 1
02/24/06 10:08 p -10.9 -10.9 -10.9 --- --- 13.9 ESE 0.23 15.7 -20.0 --- --- 724.2 0.020 0.000 7.4 4 1
02/24/06 10:09 p -10.9 -10.9 -10.9 --- --- 13.9 ESE 0.23 15.7 -20.0 --- --- 724.3 0.020 0.000 7.4 4 1
02/24/06 10:10 p -10.9 -10.9 -10.9 --- --- 14.8 ESE 0.25 17.4 -20.2 --- --- 724.2 0.020 0.000 7.5 4 1
02/24/06 10:11 p -10.9 -10.9 -10.9 --- --- 13.9 ESE 0.23 15.7 -19.9 --- --- 724.2 0.020 0.000 7.5 4 1
02/24/06 10:12 p -10.9 -10.9 -10.9 --- --- 13.9 ESE 0.23 15.7 -19.9 --- --- 724.3 0.020 0.000 7.5 4 1
02/24/06 10:13 p -10.8 -10.8 -10.8 --- --- 13.9 ESE 0.23 14.8 -19.9 --- --- 724.2 0.020 0.000 7.5 4 1
02/24/06 10:14 p -10.9 -10.9 -10.9 --- --- 14.8 ESE 0.25 17.4 -20.2 --- --- 724.3 0.020 0.000 7.6 4 1
02/24/06 10:15 p -10.8 -10.8 -10.9 --- --- 15.7 ESE 0.26 16.5 -20.4 --- --- 724.3 0.020 0.000 7.6 4 1
02/24/06 10:16 p -10.8 -10.8 -10.8 --- --- 14.8 ESE 0.25 16.5 -20.1 --- --- 724.3 0.020 0.000 7.6 4 1
02/24/06 10:17 p -10.8 -10.8 -10.8 --- --- 13.9 ESE 0.23 15.7 -19.9 --- --- 724.2 0.020 0.000 7.6 4 1
02/24/06 10:18 p -10.8 -10.8 -10.8 --- --- 13.9 ESE 0.23 15.7 -19.9 --- --- 724.3 0.020 0.000 7.6 4 1
02/24/06 10:19 p -10.8 -10.8 -10.8 --- --- 14.8 ESE 0.25 16.5 -20.1 --- --- 724.2 0.020 0.000 7.6 4 1
02/24/06 10:20 p -10.8 -10.8 -10.8 --- --- 14.8 ESE 0.25 15.7 -20.1 --- --- 724.1 0.020 0.000 7.6 4 1
02/24/06 10:21 p -10.8 -10.8 -10.8 --- --- 14.8 ESE 0.25 16.5 -20.1 --- --- 724.2 0.020 0.000 7.6 4 1
02/24/06 10:22 p -10.8 -10.8 -10.8 --- --- 13.9 ESE 0.23 16.5 -19.8 --- --- 724.3 0.020 0.000 7.6 4 1
02/24/06 10:23 p -10.7 -10.7 -10.8 --- --- 13.9 ESE 0.23 16.5 -19.7 --- --- 724.2 0.020 0.000 7.6 4 1
02/24/06 10:24 p -10.7 -10.7 -10.7 --- --- 14.8 ESE 0.25 15.7 -20.0 --- --- 724.3 0.020 0.000 7.6 4 1
02/24/06 10:25 p -10.7 -10.7 -10.7 --- --- 14.8 ESE 0.25 16.5 -19.9 --- --- 724.2 0.020 0.000 7.6 4 1
02/24/06 10:26 p -10.6 -10.6 -10.6 --- --- 14.8 ESE 0.25 16.5 -19.8 --- --- 724.2 0.020 0.000 7.6 4 1
02/24/06 10:27 p -10.6 -10.6 -10.6 --- --- 13.9 ESE 0.23 14.8 -19.5 --- --- 724.2 0.020 0.000 7.6 4 1
02/24/06 10:28 p -10.5 -10.5 -10.6 --- --- 13.9 ESE 0.23 14.8 -19.4 --- --- 724.2 0.020 0.000 7.6 4 1
02/24/06 10:29 p -10.5 -10.4 -10.5 --- --- 13.0 ESE 0.22 13.9 -19.2 --- --- 724.1 0.020 0.000 7.6 4 1
02/24/06 10:30 p -10.4 -10.4 -10.4 --- --- 13.9 ESE 0.23 14.8 -19.4 --- --- 724.2 0.020 0.000 7.6 4 1
02/24/06 10:31 p -10.4 -10.4 -10.4 --- --- 13.9 ESE 0.23 14.8 -19.3 --- --- 724.0 0.020 0.000 7.6 5 1
02/24/06 10:32 p -10.3 -10.3 -10.4 --- --- 13.9 ESE 0.23 14.8 -19.2 --- --- 724.1 0.020 0.000 7.6 4 1
02/24/06 10:33 p -10.3 -10.3 -10.3 --- --- 13.9 ESE 0.23 15.7 -19.2 --- --- 724.1 0.020 0.000 7.6 4 1
02/24/06 10:34 p -10.2 -10.2 -10.3 --- --- 14.8 ESE 0.25 15.7 -19.3 --- --- 724.0 0.020 0.000 7.6 4 1
02/24/06 10:35 p -10.2 -10.2 -10.2 --- --- 14.8 ESE 0.25 17.4 -19.3 --- --- 724.0 0.020 0.000 7.6 4 1
02/24/06 10:36 p -10.2 -10.2 -10.2 --- --- 14.8 ESE 0.25 15.7 -19.3 --- --- 724.0 0.020 0.000 7.6 4 1
02/24/06 10:37 p -10.2 -10.2 -10.2 --- --- 13.9 ESE 0.23 15.7 -19.0 --- --- 724.1 0.020 0.000 7.6 4 1
02/24/06 10:38 p -10.2 -10.1 -10.2 --- --- 14.8 ESE 0.25 15.7 -19.3 --- --- 724.0 0.020 0.000 7.6 4 1
02/24/06 10:39 p -10.1 -10.1 -10.2 --- --- 14.8 ESE 0.25 15.7 -19.2 --- --- 724.0 0.020 0.000 7.6 4 1
02/24/06 10:40 p -10.1 -10.1 -10.1 --- --- 13.9 ESE 0.23 15.7 -18.9 --- --- 724.1 0.020 0.000 7.6 4 1
02/24/06 10:41 p -10.1 -10.1 -10.1 --- --- 13.9 ESE 0.23 14.8 -18.9 --- --- 724.1 0.020 0.000 7.6 4 1
02/24/06 10:42 p -10.1 -10.1 -10.1 --- --- 13.0 ESE 0.22 13.9 -18.7 --- --- 724.0 0.020 0.000 7.7 4 1
02/24/06 10:43 p -10.1 -10.1 -10.1 --- --- 14.8 ESE 0.25 15.7 -19.2 --- --- 723.9 0.020 0.000 7.7 4 1
02/24/06 10:44 p -10.1 -10.1 -10.2 --- --- 14.8 ESE 0.25 16.5 -19.2 --- --- 723.9 0.020 0.000 7.7 4 1
02/24/06 10:45 p -10.1 -10.1 -10.1 --- --- 14.8 ESE 0.25 15.7 -19.2 --- --- 724.0 0.020 0.000 7.7 4 1
02/24/06 10:46 p -10.1 -10.1 -10.2 --- --- 15.7 ESE 0.26 17.4 -19.4 --- --- 724.0 0.020 0.000 7.7 4 1
02/24/06 10:47 p -10.2 -10.1 -10.2 --- --- 15.7 ESE 0.26 16.5 -19.5 --- --- 723.9 0.020 0.000 7.7 4 1
02/24/06 10:48 p -10.1 -10.1 -10.2 --- --- 16.5 ESE 0.28 17.4 -19.7 --- --- 723.9 0.020 0.000 7.7 4 1
02/24/06 10:49 p -10.1 -10.1 -10.1 --- --- 16.5 ESE 0.28 17.4 -19.7 --- --- 724.0 0.020 0.000 7.7 4 1
02/24/06 10:50 p -10.1 -10.1 -10.1 --- --- 15.7 ESE 0.26 16.5 -19.4 --- --- 723.9 0.020 0.000 7.7 5 1
02/24/06 10:51 p -10.1 -10.1 -10.1 --- --- 15.7 ESE 0.26 16.5 -19.4 --- --- 723.9 0.020 0.000 7.7 4 1
02/24/06 10:52 p -10.1 -10.1 -10.1 --- --- 15.7 ESE 0.26 16.5 -19.4 --- --- 723.8 0.020 0.000 7.6 5 1
02/24/06 10:53 p -10.1 -10.1 -10.1 --- --- 15.7 ESE 0.26 17.4 -19.4 --- --- 723.8 0.020 0.000 7.7 4 1
02/24/06 10:54 p -10.1 -10.1 -10.1 --- --- 16.5 ESE 0.28 17.4 -19.6 --- --- 723.9 0.020 0.000 7.7 4 1
02/24/06 10:55 p -10.1 -10.1 -10.1 --- --- 15.7 ESE 0.26 16.5 -19.4 --- --- 723.9 0.020 0.000 7.7 5 1
02/24/06 10:56 p -10.1 -10.1 -10.1 --- --- 15.7 ESE 0.26 16.5 -19.4 --- --- 723.9 0.020 0.000 7.7 4 1
02/24/06 10:57 p -10.1 -10.1 -10.1 --- --- 15.7 ESE 0.26 17.4 -19.4 --- --- 723.9 0.020 0.000 7.7 5 1
02/24/06 10:58 p -10.1 -10.1 -10.1 --- --- 16.5 ESE 0.28 17.4 -19.6 --- --- 723.9 0.020 0.000 7.7 4 1
02/24/06 10:59 p -10.1 -10.1 -10.1 --- --- 16.5 ESE 0.28 17.4 -19.6 --- --- 723.9 0.020 0.000 7.7 4 1
02/24/06 11:00 p -10.1 -10.1 -10.1 --- --- 16.5 ESE 0.28 17.4 -19.6 --- --- 723.8 0.020 0.000 7.7 5 1
02/24/06 11:01 p -10.1 -10.1 -10.1 --- --- 15.7 ESE 0.26 17.4 -19.4 --- --- 723.8 0.020 0.000 7.7 4 1
02/24/06 11:02 p -10.1 -10.1 -10.1 --- --- 16.5 ESE 0.28 17.4 -19.6 --- --- 723.8 0.020 0.000 7.7 5 1
02/24/06 11:03 p -10.1 -10.1 -10.1 --- --- 15.7 E 0.26 17.4 -19.4 --- --- 723.9 0.020 0.000 7.7 4 1
02/24/06 11:04 p -10.1 -10.1 -10.1 --- --- 14.8 E 0.25 16.5 -19.1 --- --- 723.8 0.020 0.000 7.7 5 1
02/24/06 11:05 p -10.1 -10.1 -10.1 --- --- 14.8 E 0.25 16.5 -19.1 --- --- 723.9 0.020 0.000 7.7 4 1
02/24/06 11:06 p -10.1 -10.1 -10.1 --- --- 13.9 E 0.23 16.5 -18.9 --- --- 723.9 0.020 0.000 7.7 4 1
02/24/06 11:07 p -10.1 -10.1 -10.1 --- --- 13.9 E 0.23 15.7 -18.9 --- --- 723.9 0.020 0.000 7.7 4 1
02/24/06 11:08 p -10.1 -10.1 -10.1 --- --- 13.9 E 0.23 15.7 -18.9 --- --- 723.9 0.020 0.000 7.7 5 1
02/24/06 11:09 p -10.1 -10.1 -10.1 --- --- 13.9 E 0.23 16.5 -18.9 --- --- 723.9 0.020 0.000 7.7 5 1
02/24/06 11:10 p -10.1 -10.1 -10.1 --- --- 12.2 E 0.20 14.8 -18.4 --- --- 723.9 0.020 0.000 7.7 4 1
02/24/06 11:11 p -10.1 -10.1 -10.1 --- --- 13.0 E 0.22 14.8 -18.7 --- --- 723.8 0.020 0.000 7.7 4 1
02/24/06 11:12 p -10.1 -10.1 -10.1 --- --- 13.0 E 0.22 13.9 -18.7 --- --- 723.8 0.020 0.000 7.7 4 1
02/24/06 11:13 p -10.1 -10.1 -10.1 --- --- 13.9 E 0.23 15.7 -18.9 --- --- 723.9 0.020 0.000 7.7 4 1
02/24/06 11:14 p -10.1 -10.1 -10.1 --- --- 13.9 E 0.23 14.8 -18.9 --- --- 723.9 0.020 0.000 7.7 4 1
02/24/06 11:15 p -10.1 -10.1 -10.1 --- --- 13.9 ESE 0.23 15.7 -18.9 --- --- 723.9 0.020 0.000 7.7 4 1
02/24/06 11:16 p -10.1 -10.1 -10.1 --- --- 14.8 ESE 0.25 15.7 -19.1 --- --- 723.8 0.020 0.000 7.7 5 1
02/24/06 11:17 p -10.1 -10.1 -10.1 --- --- 14.8 E 0.25 16.5 -19.1 --- --- 723.8 0.020 0.000 7.7 5 1
02/24/06 11:18 p -10.1 -10.1 -10.1 --- --- 13.9 E 0.23 16.5 -18.9 --- --- 723.9 0.020 0.000 7.7 5 1
02/24/06 11:19 p -10.1 -10.1 -10.1 --- --- 14.8 E 0.25 15.7 -19.1 --- --- 723.8 0.020 0.000 7.8 5 1
02/24/06 11:20 p -10.1 -10.1 -10.1 --- --- 14.8 E 0.25 16.5 -19.2 --- --- 723.7 0.020 0.000 7.8 5 1
02/24/06 11:21 p -10.1 -10.1 -10.1 --- --- 14.8 E 0.25 16.5 -19.2 --- --- 723.8 0.020 0.000 7.8 5 1
02/24/06 11:22 p -10.1 -10.1 -10.1 --- --- 14.8 E 0.25 16.5 -19.2 --- --- 723.7 0.020 0.000 7.8 5 1
02/24/06 11:23 p -10.1 -10.1 -10.1 --- --- 15.7 E 0.26 16.5 -19.4 --- --- 723.7 0.020 0.000 7.8 5 1
02/24/06 11:24 p -10.2 -10.2 -10.2 --- --- 14.8 E 0.25 16.5 -19.3 --- --- 723.7 0.020 0.000 7.8 5 1
02/24/06 11:25 p -10.2 -10.1 -10.2 --- --- 15.7 E 0.26 17.4 -19.5 --- --- 723.8 0.020 0.000 7.8 4 1
02/24/06 11:26 p -10.2 -10.2 -10.2 --- --- 14.8 E 0.25 17.4 -19.3 --- --- 723.7 0.020 0.000 7.8 5 1
02/24/06 11:27 p -10.2 -10.2 -10.2 --- --- 15.7 E 0.26 17.4 -19.6 --- --- 723.7 0.020 0.000 7.8 4 1
02/24/06 11:28 p -10.3 -10.2 -10.3 --- --- 13.9 E 0.23 16.5 -19.2 --- --- 723.7 0.020 0.000 7.8 5 1
02/24/06 11:29 p -10.3 -10.3 -10.3 --- --- 13.9 E 0.23 16.5 -19.2 --- --- 723.6 0.020 0.000 7.8 5 1
02/24/06 11:30 p -10.3 -10.3 -10.3 --- --- 15.7 E 0.26 16.5 -19.7 --- --- 723.7 0.020 0.000 7.8 5 1
02/24/06 11:31 p -10.3 -10.3 -10.3 --- --- 13.9 E 0.23 15.7 -19.2 --- --- 723.7 0.020 0.000 7.8 5 1
02/24/06 11:32 p -10.3 -10.3 -10.3 --- --- 13.9 E 0.23 16.5 -19.2 --- --- 723.7 0.020 0.000 7.8 4 1
02/24/06 11:33 p -10.4 -10.4 -10.4 --- --- 13.0 E 0.22 15.7 -19.1 --- --- 723.6 0.020 0.000 7.8 5 1
02/24/06 11:34 p -10.4 -10.4 -10.4 --- --- 13.0 E 0.22 16.5 -19.1 --- --- 723.7 0.020 0.000 7.8 5 1
02/24/06 11:35 p -10.4 -10.4 -10.4 --- --- 13.9 E 0.23 15.7 -19.3 --- --- 723.7 0.020 0.000 7.8 5 1
02/24/06 11:36 p -10.4 -10.4 -10.4 --- --- 13.0 E 0.22 14.8 -19.1 --- --- 723.6 0.020 0.000 7.8 4 1
02/24/06 11:37 p -10.4 -10.4 -10.4 --- --- 14.8 E 0.25 16.5 -19.6 --- --- 723.6 0.020 0.000 7.8 5 1
02/24/06 11:38 p -10.4 -10.4 -10.5 --- --- 14.8 ESE 0.25 16.5 -19.6 --- --- 723.6 0.020 0.000 7.8 5 1
02/24/06 11:39 p -10.5 -10.5 -10.5 --- --- 13.0 E 0.22 15.7 -19.2 --- --- 723.6 0.020 0.000 7.8 5 1
02/24/06 11:40 p -10.5 -10.5 -10.5 --- --- 13.0 E 0.22 15.7 -19.2 --- --- 723.6 0.020 0.000 7.8 5 1
02/24/06 11:41 p -10.5 -10.5 -10.5 --- --- 13.0 E 0.22 15.7 -19.2 --- --- 723.6 0.020 0.000 7.8 5 1
02/24/06 11:42 p -10.5 -10.5 -10.6 --- --- 13.0 E 0.22 14.8 -19.2 --- --- 723.6 0.020 0.000 7.8 5 1
02/24/06 11:43 p -10.5 -10.5 -10.6 --- --- 12.2 E 0.20 14.8 -18.9 --- --- 723.6 0.020 0.000 7.8 5 1
02/24/06 11:44 p -10.5 -10.5 -10.5 --- --- 11.3 E 0.19 13.0 -18.6 --- --- 723.6 0.020 0.000 7.8 5 1
02/24/06 11:45 p -10.5 -10.5 -10.6 --- --- 11.3 E 0.19 13.9 -18.6 --- --- 723.6 0.020 0.000 7.8 4 1
02/24/06 11:46 p -10.5 -10.5 -10.5 --- --- 10.4 E 0.17 13.0 -18.3 --- --- 723.6 0.020 0.000 7.8 5 1
02/24/06 11:47 p -10.5 -10.5 -10.5 --- --- 11.3 E 0.19 13.0 -18.6 --- --- 723.6 0.020 0.000 7.8 5 1
02/24/06 11:48 p -10.5 -10.5 -10.5 --- --- 10.4 E 0.17 13.0 -18.3 --- --- 723.5 0.020 0.000 7.8 5 1
02/24/06 11:49 p -10.5 -10.5 -10.5 --- --- 11.3 ESE 0.19 13.9 -18.6 --- --- 723.6 0.020 0.000 7.8 5 1
02/24/06 11:50 p -10.5 -10.5 -10.5 --- --- 11.3 E 0.19 13.9 -18.6 --- --- 723.5 0.020 0.000 7.8 5 1
02/24/06 11:51 p -10.5 -10.5 -10.5 --- --- 9.6 E 0.16 13.9 -17.9 --- --- 723.6 0.020 0.000 7.8 5 1
02/24/06 11:52 p -10.5 -10.5 -10.5 --- --- 10.4 E 0.17 12.2 -18.3 --- --- 723.6 0.020 0.000 7.8 5 1
02/24/06 11:53 p -10.5 -10.5 -10.6 --- --- 10.4 E 0.17 13.0 -18.3 --- --- 723.6 0.020 0.000 7.8 5 1
02/24/06 11:54 p -10.5 -10.5 -10.6 --- --- 10.4 E 0.17 12.2 -18.3 --- --- 723.6 0.020 0.000 7.8 5 1
02/24/06 11:55 p -10.6 -10.6 -10.6 --- --- 10.4 E 0.17 13.9 -18.3 --- --- 723.6 0.020 0.000 7.8 5 1
02/24/06 11:56 p -10.6 -10.6 -10.6 --- --- 10.4 E 0.17 13.0 -18.3 --- --- 723.6 0.020 0.000 7.8 5 1
02/24/06 11:57 p -10.6 -10.6 -10.6 --- --- 11.3 E 0.19 13.9 -18.7 --- --- 723.6 0.020 0.000 7.8 5 1
02/24/06 11:58 p -10.6 -10.6 -10.6 --- --- 9.6 E 0.16 12.2 -18.1 --- --- 723.6 0.020 0.000 7.8 5 1
02/24/06 11:59 p -10.6 -10.6 -10.6 --- --- 10.4 E 0.17 12.2 -18.4 --- --- 723.5 0.020 0.000 7.8 5 1
02/25/06 12:00 a -10.6 -10.6 -10.6 --- --- 9.6 E 0.16 13.0 -18.0 --- --- 723.6 0.020 0.000 7.8 5 1
02/25/06 12:01 a -10.6 -10.6 -10.6 --- --- 9.6 E 0.16 12.2 -18.0 --- --- 723.5 0.020 0.000 7.8 5 1
02/25/06 12:02 a -10.5 -10.5 -10.6 --- --- 9.6 E 0.16 12.2 -17.9 --- --- 723.5 0.020 0.000 7.8 5 1
02/25/06 12:03 a -10.5 -10.5 -10.6 --- --- 9.6 E 0.16 12.2 -17.9 --- --- 723.5 0.020 0.000 7.8 5 1
02/25/06 12:04 a -10.5 -10.5 -10.5 --- --- 10.4 E 0.17 13.9 -18.3 --- --- 723.4 0.020 0.000 7.8 5 1
02/25/06 12:05 a -10.5 -10.5 -10.5 --- --- 10.4 ESE 0.17 13.0 -18.3 --- --- 723.4 0.020 0.000 7.8 5 1
02/25/06 12:06 a -10.5 -10.4 -10.5 --- --- 10.4 E 0.17 12.2 -18.3 --- --- 723.4 0.020 0.000 7.8 5 1
02/25/06 12:07 a -10.4 -10.4 -10.4 --- --- 11.3 E 0.19 12.2 -18.5 --- --- 723.4 0.020 0.000 7.8 5 1
02/25/06 12:08 a -10.4 -10.4 -10.4 --- --- 11.3 E 0.19 13.9 -18.4 --- --- 723.5 0.020 0.000 7.8 5 1
02/25/06 12:09 a -10.4 -10.3 -10.4 --- --- 10.4 E 0.17 13.0 -18.1 --- --- 723.3 0.020 0.000 7.8 5 1
02/25/06 12:10 a -10.3 -10.3 -10.4 --- --- 10.4 E 0.17 12.2 -18.1 --- --- 723.4 0.020 0.000 7.8 5 1
02/25/06 12:11 a -10.3 -10.3 -10.3 --- --- 10.4 E 0.17 13.0 -18.1 --- --- 723.3 0.020 0.000 7.9 5 1
02/25/06 12:12 a -10.3 -10.3 -10.3 --- --- 9.6 E 0.16 12.2 -17.7 --- --- 723.3 0.020 0.000 7.9 5 1
02/25/06 12:13 a -10.3 -10.3 -10.3 --- --- 10.4 E 0.17 13.0 -18.0 --- --- 723.3 0.020 0.000 7.9 5 1
02/25/06 12:14 a -10.3 -10.3 -10.3 --- --- 10.4 E 0.17 13.0 -18.0 --- --- 723.3 0.020 0.000 7.9 5 1
02/25/06 12:15 a -10.2 -10.2 -10.2 --- --- 9.6 E 0.16 11.3 -17.6 --- --- 723.3 0.020 0.000 7.9 5 1
02/25/06 12:16 a -10.2 -10.2 -10.2 --- --- 9.6 E 0.16 12.2 -17.6 --- --- 723.2 0.020 0.000 7.9 5 1
02/25/06 12:17 a -10.2 -10.2 -10.2 --- --- 9.6 E 0.16 11.3 -17.6 --- --- 723.3 0.020 0.000 7.9 5 1
02/25/06 12:18 a -10.1 -10.1 -10.2 --- --- 10.4 E 0.17 12.2 -17.8 --- --- 723.2 0.020 0.000 7.9 5 1
02/25/06 12:19 a -10.1 -10.1 -10.1 --- --- 9.6 E 0.16 11.3 -17.5 --- --- 723.3 0.020 0.000 7.9 5 1
02/25/06 12:20 a -10.1 -10.0 -10.1 --- --- 10.4 E 0.17 13.0 -17.8 --- --- 723.3 0.020 0.000 7.9 5 1
02/25/06 12:21 a -10.0 -9.9 -10.0 --- --- 10.4 E 0.17 13.0 -17.7 --- --- 723.3 0.020 0.000 7.9 5 1
02/25/06 12:22 a -9.9 -9.9 -9.9 --- --- 10.4 E 0.17 13.0 -17.6 --- --- 723.4 0.020 0.000 7.9 5 1
02/25/06 12:23 a -9.9 -9.9 -9.9 --- --- 8.7 E 0.14 10.4 -16.8 --- --- 723.3 0.020 0.000 7.9 5 1
02/25/06 12:24 a -9.9 -9.8 -9.9 --- --- 8.7 E 0.14 12.2 -16.8 --- --- 723.4 0.020 0.000 7.9 5 1
02/25/06 12:25 a -9.8 -9.8 -9.8 --- --- 10.4 E 0.17 13.0 -17.5 --- --- 723.4 0.020 0.000 7.9 5 1
02/25/06 12:26 a -9.8 -9.8 -9.8 --- --- 11.3 E 0.19 13.9 -17.8 --- --- 723.3 0.020 0.000 7.9 5 1
02/25/06 12:27 a -9.8 -9.8 -9.8 --- --- 11.3 E 0.19 13.0 -17.7 --- --- 723.4 0.020 0.000 7.9 5 1
02/25/06 12:28 a -9.8 -9.7 -9.8 --- --- 11.3 E 0.19 13.9 -17.7 --- --- 723.2 0.020 0.000 7.9 5 1
02/25/06 12:29 a -9.7 -9.7 -9.7 --- --- 12.2 ENE 0.20 14.8 -17.9 --- --- 723.3 0.019 0.000 7.9 5 1
02/25/06 12:30 a -9.7 -9.7 -9.7 --- --- 12.2 E 0.20 13.9 -17.9 --- --- 723.4 0.019 0.000 7.9 5 1
02/25/06 12:31 a -9.7 -9.7 -9.7 --- --- 9.6 E 0.16 12.2 -16.9 --- --- 723.3 0.019 0.000 7.9 5 1
02/25/06 12:32 a -9.7 -9.7 -9.7 --- --- 9.6 E 0.16 12.2 -16.9 --- --- 723.3 0.019 0.000 7.9 5 1
02/25/06 12:33 a -9.7 -9.7 -9.7 --- --- 8.7 E 0.14 10.4 -16.7 --- --- 723.2 0.019 0.000 7.9 5 1
02/25/06 12:34 a -9.7 -9.7 -9.7 --- --- 7.0 E 0.12 9.6 -15.7 --- --- 723.3 0.019 0.000 7.9 5 1
02/25/06 12:35 a -9.7 -9.7 -9.7 --- --- 8.7 E 0.14 11.3 -16.6 --- --- 723.3 0.019 0.000 7.9 5 1
02/25/06 12:36 a -9.7 -9.6 -9.7 --- --- 9.6 E 0.16 12.2 -16.9 --- --- 723.2 0.019 0.000 7.9 5 1
02/25/06 12:37 a -9.6 -9.6 -9.7 --- --- 10.4 E 0.17 13.0 -17.2 --- --- 723.3 0.019 0.000 7.9 5 1
02/25/06 12:38 a -9.6 -9.6 -9.6 --- --- 10.4 E 0.17 12.2 -17.2 --- --- 723.3 0.019 0.000 7.9 5 1
02/25/06 12:39 a -9.6 -9.6 -9.6 --- --- 9.6 E 0.16 11.3 -16.9 --- --- 723.3 0.019 0.000 7.9 5 1
02/25/06 12:40 a -9.6 -9.6 -9.6 --- --- 8.7 E 0.14 10.4 -16.5 --- --- 723.3 0.019 0.000 7.9 5 1
02/25/06 12:41 a -9.6 -9.6 -9.6 --- --- 8.7 E 0.14 11.3 -16.5 --- --- 723.3 0.019 0.000 7.9 5 1
02/25/06 12:42 a -9.6 -9.6 -9.7 --- --- 9.6 E 0.16 12.2 -16.9 --- --- 723.3 0.019 0.000 8.0 5 1
02/25/06 12:43 a -9.6 -9.6 -9.6 --- --- 9.6 E 0.16 11.3 -16.9 --- --- 723.2 0.019 0.000 8.0 5 1
02/25/06 12:44 a -9.7 -9.6 -9.7 --- --- 9.6 E 0.16 12.2 -16.9 --- --- 723.2 0.019 0.000 8.0 5 1
02/25/06 12:45 a -9.7 -9.7 -9.7 --- --- 10.4 E 0.17 13.0 -17.3 --- --- 723.2 0.019 0.000 8.0 5 1
02/25/06 12:46 a -9.7 -9.7 -9.7 --- --- 9.6 E 0.16 11.3 -17.0 --- --- 723.3 0.019 0.000 8.0 5 1
02/25/06 12:47 a -9.7 -9.7 -9.7 --- --- 8.7 E 0.14 10.4 -16.6 --- --- 723.2 0.019 0.000 8.0 5 1
02/25/06 12:48 a -9.7 -9.7 -9.8 --- --- 9.6 E 0.16 11.3 -17.0 --- --- 723.3 0.019 0.000 8.0 5 1
02/25/06 12:49 a -9.7 -9.7 -9.7 --- --- 8.7 E 0.14 10.4 -16.7 --- --- 723.3 0.019 0.000 8.0 5 1
02/25/06 12:50 a -9.7 -9.7 -9.7 --- --- 7.8 E 0.13 9.6 -16.2 --- --- 723.3 0.019 0.000 8.0 5 1
02/25/06 12:51 a -9.7 -9.7 -9.8 --- --- 7.0 E 0.12 8.7 -15.8 --- --- 723.2 0.019 0.000 8.0 5 1
02/25/06 12:52 a -9.8 -9.7 -9.8 --- --- 7.0 E 0.12 9.6 -15.9 --- --- 723.3 0.020 0.000 8.0 5 1
02/25/06 12:53 a -9.7 -9.7 -9.7 --- --- 7.8 E 0.13 10.4 -16.2 --- --- 723.3 0.019 0.000 8.0 5 1
02/25/06 12:54 a -9.7 -9.7 -9.7 --- --- 7.8 E 0.13 9.6 -16.2 --- --- 723.3 0.019 0.000 8.0 5 1
02/25/06 12:55 a -9.7 -9.7 -9.7 --- --- 7.0 E 0.12 9.6 -15.8 --- --- 723.3 0.019 0.000 8.0 5 1
02/25/06 12:56 a -9.7 -9.7 -9.7 --- --- 7.8 E 0.13 10.4 -16.2 --- --- 723.3 0.019 0.000 8.0 5 1
02/25/06 12:57 a -9.7 -9.7 -9.7 --- --- 6.1 E 0.10 7.8 -15.3 --- --- 723.3 0.019 0.000 8.0 5 1
02/25/06 12:58 a -9.7 -9.7 -9.7 --- --- 6.1 E 0.10 7.8 -15.3 --- --- 723.3 0.019 0.000 8.0 5 1
02/25/06 12:59 a -9.6 -9.6 -9.7 --- --- 7.0 E 0.12 8.7 -15.7 --- --- 723.4 0.019 0.000 8.0 5 1
02/25/06 1:00 a -9.6 -9.6 -9.7 --- --- 6.1 E 0.10 7.8 -15.2 --- --- 723.3 0.019 0.000 8.0 5 1
02/25/06 1:01 a -9.6 -9.6 -9.6 --- --- 7.8 ENE 0.13 9.6 -16.1 --- --- 723.3 0.019 0.000 8.0 5 1
02/25/06 1:02 a -9.6 -9.6 -9.6 --- --- 8.7 ENE 0.14 9.6 -16.4 --- --- 723.3 0.019 0.000 8.0 5 1
02/25/06 1:03 a -9.6 -9.6 -9.6 --- --- 7.8 E 0.13 9.6 -16.1 --- --- 723.3 0.019 0.000 8.0 5 1
02/25/06 1:04 a -9.6 -9.5 -9.6 --- --- 7.0 E 0.12 8.7 -15.6 --- --- 723.2 0.019 0.000 8.0 5 1
02/25/06 1:05 a -9.5 -9.5 -9.5 --- --- 7.0 E 0.12 9.6 -15.6 --- --- 723.3 0.019 0.000 8.0 5 1
02/25/06 1:06 a -9.5 -9.5 -9.6 --- --- 8.7 ENE 0.14 9.6 -16.4 --- --- 723.2 0.019 0.000 8.0 5 1
02/25/06 1:07 a -9.5 -9.5 -9.5 --- --- 6.1 E 0.10 7.8 -15.1 --- --- 723.3 0.019 0.000 8.0 5 1
02/25/06 1:08 a -9.5 -9.5 -9.5 --- --- 7.0 E 0.12 9.6 -15.6 --- --- 723.4 0.019 0.000 8.0 5 1
02/25/06 1:09 a -9.5 -9.5 -9.6 --- --- 6.1 E 0.10 8.7 -15.1 --- --- 723.2 0.019 0.000 8.0 5 1
02/25/06 1:10 a -9.6 -9.6 -9.6 --- --- 7.0 ENE 0.12 10.4 -15.6 --- --- 723.3 0.019 0.000 8.1 5 1
02/25/06 1:11 a -9.6 -9.6 -9.6 --- --- 7.8 ENE 0.13 8.7 -16.1 --- --- 723.3 0.019 0.000 8.1 5 1
02/25/06 1:12 a -9.6 -9.6 -9.6 --- --- 7.8 ENE 0.13 8.7 -16.1 --- --- 723.3 0.019 0.000 8.1 5 1
02/25/06 1:13 a -9.6 -9.6 -9.6 --- --- 7.0 ENE 0.12 7.8 -15.6 --- --- 723.3 0.019 0.000 8.1 5 1
02/25/06 1:14 a -9.6 -9.6 -9.6 --- --- 7.0 ENE 0.12 7.8 -15.6 --- --- 723.3 0.019 0.000 8.1 5 1
02/25/06 1:15 a -9.6 -9.6 -9.6 --- --- 6.1 ENE 0.10 7.8 -15.1 --- --- 723.3 0.019 0.000 8.1 5 1
02/25/06 1:16 a -9.6 -9.6 -9.6 --- --- 6.1 ENE 0.10 7.0 -15.1 --- --- 723.3 0.019 0.000 8.1 5 1
02/25/06 1:17 a -9.6 -9.6 -9.6 --- --- 5.2 ENE 0.09 7.0 -14.6 --- --- 723.3 0.019 0.000 8.1 5 1
02/25/06 1:18 a -9.6 -9.6 -9.6 --- --- 5.2 ENE 0.09 6.1 -14.6 --- --- 723.2 0.019 0.000 8.1 5 1
02/25/06 1:19 a -9.5 -9.5 -9.6 --- --- 4.3 ENE 0.07 6.1 -13.9 --- --- 723.2 0.019 0.000 8.1 5 1
02/25/06 1:20 a -9.5 -9.5 -9.5 --- --- 4.3 ENE 0.07 6.1 -13.9 --- --- 723.2 0.019 0.000 8.1 5 1
02/25/06 1:21 a -9.5 -9.5 -9.5 --- --- 5.2 ENE 0.09 5.2 -14.5 --- --- 723.2 0.019 0.000 8.1 5 1
02/25/06 1:22 a -9.5 -9.4 -9.5 --- --- 4.3 ENE 0.07 5.2 -13.9 --- --- 723.3 0.019 0.000 8.1 5 1
02/25/06 1:23 a -9.5 -9.4 -9.5 --- --- 3.5 ENE 0.06 4.3 -13.2 --- --- 723.2 0.019 0.000 8.1 5 1
02/25/06 1:24 a -9.4 -9.4 -9.4 --- --- 2.6 E 0.04 3.5 -12.2 --- --- 723.2 0.019 0.000 8.1 5 1
02/25/06 1:25 a -9.4 -9.4 -9.4 --- --- 3.5 E 0.06 4.3 -13.1 --- --- 723.2 0.019 0.000 8.1 5 1
02/25/06 1:26 a -9.4 -9.4 -9.4 --- --- 2.6 E 0.04 3.5 -12.1 --- --- 723.2 0.019 0.000 8.1 5 1
02/25/06 1:27 a -9.4 -9.4 -9.4 --- --- 4.3 E 0.07 5.2 -13.8 --- --- 723.2 0.019 0.000 8.1 5 1
02/25/06 1:28 a -9.3 -9.3 -9.3 --- --- 3.5 E 0.06 5.2 -12.9 --- --- 723.2 0.019 0.000 8.1 5 1
02/25/06 1:29 a -9.3 -9.3 -9.3 --- --- 2.6 E 0.04 3.5 -12.1 --- --- 723.1 0.019 0.000 8.1 5 1
02/25/06 1:30 a -9.3 -9.3 -9.3 --- --- 2.6 E 0.04 3.5 -12.0 --- --- 723.1 0.019 0.000 8.1 5 1
02/25/06 1:31 a -9.3 -9.3 -9.3 --- --- 4.3 E 0.07 5.2 -13.6 --- --- 723.1 0.019 0.000 8.1 5 1
02/25/06 1:32 a -9.2 -9.2 -9.2 --- --- 3.5 ENE 0.06 4.3 -12.8 --- --- 723.1 0.019 0.000 8.1 5 1
02/25/06 1:33 a -9.2 -9.2 -9.2 --- --- 3.5 ENE 0.06 4.3 -12.8 --- --- 723.0 0.019 0.000 8.1 5 1
02/25/06 1:34 a -9.2 -9.1 -9.2 --- --- 3.5 ENE 0.06 4.3 -12.8 --- --- 723.1 0.019 0.000 8.1 5 1
02/25/06 1:35 a -9.1 -9.1 -9.1 --- --- 2.6 ENE 0.04 3.5 -11.8 --- --- 723.1 0.019 0.000 8.1 5 1
02/25/06 1:36 a -9.1 -9.1 -9.1 --- --- 2.6 ENE 0.04 3.5 -11.8 --- --- 723.1 0.019 0.000 8.1 5 1
02/25/06 1:37 a -9.1 -9.1 -9.1 --- --- 2.6 ENE 0.04 3.5 -11.7 --- --- 723.1 0.019 0.000 8.1 5 1
02/25/06 1:38 a -9.0 -9.0 -9.1 --- --- 1.7 ENE 0.03 2.6 -10.4 --- --- 723.1 0.019 0.000 8.1 5 1
02/25/06 1:39 a -9.0 -9.0 -9.0 --- --- 1.7 ENE 0.03 2.6 -10.4 --- --- 723.0 0.019 0.000 8.1 5 1
02/25/06 1:40 a -8.9 -8.9 -9.0 --- --- 1.7 ENE 0.03 2.6 -10.4 --- --- 723.1 0.019 0.000 8.2 5 1
02/25/06 1:41 a -8.9 -8.9 -8.9 --- --- 1.7 ENE 0.03 1.7 -10.3 --- --- 723.0 0.019 0.000 8.2 5 1
02/25/06 1:42 a -8.9 -8.9 -8.9 --- --- 0.9 ENE 0.01 1.7 -8.9 --- --- 723.0 0.019 0.000 8.2 5 1
02/25/06 1:43 a -8.8 -8.8 -8.9 --- --- 1.7 ENE 0.03 2.6 -10.3 --- --- 723.1 0.019 0.000 8.2 5 1
02/25/06 1:44 a -8.8 -8.8 -8.8 --- --- 2.6 ENE 0.04 3.5 -11.5 --- --- 723.0 0.019 0.000 8.2 5 1
02/25/06 1:45 a -8.8 -8.8 -8.8 --- --- 2.6 NE 0.04 3.5 -11.5 --- --- 723.1 0.019 0.000 8.2 5 1
02/25/06 1:46 a -8.8 -8.8 -8.8 --- --- 3.5 NE 0.06 3.5 -12.3 --- --- 723.0 0.019 0.000 8.2 5 1
02/25/06 1:47 a -8.8 -8.8 -8.8 --- --- 3.5 NE 0.06 3.5 -12.3 --- --- 723.1 0.019 0.000 8.2 5 1
02/25/06 1:48 a -8.8 -8.8 -8.8 --- --- 3.5 NNE 0.06 3.5 -12.4 --- --- 723.0 0.019 0.000 8.2 5 1
02/25/06 1:49 a -8.9 -8.8 -8.9 --- --- 3.5 WNW 0.06 3.5 -12.4 --- --- 723.0 0.019 0.000 8.2 5 1
02/25/06 1:50 a -8.9 -8.9 -9.0 --- --- 3.5 WNW 0.06 3.5 -12.5 --- --- 723.0 0.019 0.000 8.2 5 1
02/25/06 1:51 a -9.1 -9.0 -9.1 --- --- 3.5 WNW 0.06 4.3 -12.7 --- --- 723.0 0.019 0.000 8.2 5 1
02/25/06 1:52 a -9.2 -9.1 -9.2 --- --- 2.6 W 0.04 3.5 -11.8 --- --- 723.1 0.019 0.000 8.2 5 1
02/25/06 1:53 a -9.3 -9.2 -9.4 --- --- 1.7 W 0.03 2.6 -10.8 --- --- 723.0 0.019 0.000 8.2 5 1
02/25/06 1:54 a -9.4 -9.4 -9.4 --- --- 2.6 W 0.04 3.5 -12.2 --- --- 723.0 0.019 0.000 8.2 5 1
02/25/06 1:55 a -9.5 -9.4 -9.6 --- --- 2.6 W 0.04 3.5 -12.2 --- --- 723.0 0.019 0.000 8.2 5 1
02/25/06 1:56 a -9.7 -9.6 -9.7 --- --- 2.6 W 0.04 3.5 -12.4 --- --- 723.0 0.019 0.000 8.2 5 1
02/25/06 1:57 a -9.8 -9.7 -9.8 --- --- 2.6 W 0.04 3.5 -12.6 --- --- 723.0 0.020 0.000 8.2 5 1
02/25/06 1:58 a -9.9 -9.8 -9.9 --- --- 1.7 W 0.03 2.6 -11.4 --- --- 722.9 0.020 0.000 8.2 5 1
02/25/06 1:59 a -9.9 -9.9 -10.0 --- --- 1.7 W 0.03 2.6 -11.5 --- --- 723.0 0.020 0.000 8.2 5 1
02/25/06 2:00 a -10.1 -10.0 -10.1 --- --- 0.9 W 0.01 1.7 -10.1 --- --- 722.9 0.020 0.000 8.2 5 1
02/25/06 2:01 a -10.1 -10.1 -10.1 --- --- 0.0 W 0.00 0.9 -10.1 --- --- 722.9 0.020 0.000 8.2 5 1
02/25/06 2:02 a -10.2 -10.2 -10.2 --- --- 0.9 W 0.01 0.9 -10.2 --- --- 722.9 0.020 0.000 8.2 5 1
02/25/06 2:03 a -10.2 -10.2 -10.2 --- --- 1.7 W 0.03 2.6 -11.8 --- --- 722.9 0.020 0.000 8.2 5 1
02/25/06 2:04 a -10.3 -10.2 -10.3 --- --- 2.6 NNW 0.04 3.5 -13.1 --- --- 722.9 0.020 0.000 8.2 5 1
02/25/06 2:05 a -10.3 -10.3 -10.3 --- --- 0.9 NNW 0.01 2.6 -10.3 --- --- 722.8 0.020 0.000 8.2 5 1
02/25/06 2:06 a -10.3 -10.3 -10.3 --- --- 1.7 NNW 0.03 3.5 -11.9 --- --- 722.9 0.020 0.000 8.2 5 1
02/25/06 2:07 a -10.3 -10.3 -10.3 --- --- 1.7 NNW 0.03 2.6 -11.9 --- --- 722.9 0.020 0.000 8.2 5 1
02/25/06 2:08 a -10.3 -10.3 -10.3 --- --- 1.7 NNW 0.03 3.5 -11.9 --- --- 722.9 0.020 0.000 8.2 5 1
02/25/06 2:09 a -10.3 -10.3 -10.3 --- --- 2.6 NNW 0.04 4.3 -13.1 --- --- 722.8 0.020 0.000 8.2 5 1
02/25/06 2:10 a -10.3 -10.3 -10.3 --- --- 2.6 NNW 0.04 3.5 -13.1 --- --- 722.8 0.020 0.000 8.2 5 1
02/25/06 2:11 a -10.3 -10.2 -10.3 --- --- 3.5 N 0.06 4.3 -14.1 --- --- 722.9 0.020 0.000 8.2 5 1
02/25/06 2:12 a -10.2 -10.2 -10.2 --- --- 2.6 N 0.04 4.3 -13.1 --- --- 722.9 0.020 0.000 8.2 5 1
02/25/06 2:13 a -10.2 -10.2 -10.2 --- --- 2.6 N 0.04 3.5 -13.0 --- --- 722.9 0.020 0.000 8.2 5 1
02/25/06 2:14 a -10.2 -10.1 -10.2 --- --- 3.5 N 0.06 3.5 -13.9 --- --- 722.8 0.020 0.000 8.2 5 1
02/25/06 2:15 a -10.1 -10.1 -10.1 --- --- 1.7 N 0.03 2.6 -11.6 --- --- 722.8 0.020 0.000 8.2 5 1
02/25/06 2:16 a -10.1 -10.0 -10.1 --- --- 2.6 N 0.04 3.5 -12.9 --- --- 722.8 0.020 0.000 8.2 5 1
02/25/06 2:17 a -10.0 -10.0 -10.0 --- --- 3.5 N 0.06 3.5 -13.7 --- --- 722.8 0.020 0.000 8.2 5 1
02/25/06 2:18 a -9.9 -9.9 -9.9 --- --- 4.3 N 0.07 5.2 -14.4 --- --- 722.8 0.020 0.000 8.2 5 1
02/25/06 2:19 a -9.9 -9.9 -9.9 --- --- 4.3 N 0.07 4.3 -14.3 --- --- 722.8 0.020 0.000 8.2 5 1
02/25/06 2:20 a -9.9 -9.8 -9.9 --- --- 2.6 N 0.04 4.3 -12.7 --- --- 722.7 0.020 0.000 8.2 5 1
02/25/06 2:21 a -9.9 -9.8 -9.9 --- --- 2.6 N 0.04 3.5 -12.7 --- --- 722.7 0.020 0.000 8.2 5 1
02/25/06 2:22 a -9.9 -9.8 -9.9 --- --- 2.6 N 0.04 3.5 -12.7 --- --- 722.8 0.020 0.000 8.2 5 1
02/25/06 2:23 a -9.9 -9.9 -9.9 --- --- 2.6 N 0.04 3.5 -12.7 --- --- 722.7 0.020 0.000 8.2 5 1
02/25/06 2:24 a -9.9 -9.9 -9.9 --- --- 2.6 N 0.04 3.5 -12.7 --- --- 722.8 0.020 0.000 8.2 5 1
02/25/06 2:25 a -9.9 -9.9 -9.9 --- --- 2.6 N 0.04 2.6 -12.7 --- --- 722.8 0.020 0.000 8.2 5 1
02/25/06 2:26 a -9.9 -9.9 -9.9 --- --- 1.7 N 0.03 2.6 -11.4 --- --- 722.7 0.020 0.000 8.2 5 1
02/25/06 2:27 a -9.9 -9.9 -9.9 --- --- 1.7 N 0.03 2.6 -11.4 --- --- 722.7 0.020 0.000 8.2 5 1
02/25/06 2:28 a -9.9 -9.9 -9.9 --- --- 1.7 N 0.03 2.6 -11.4 --- --- 722.7 0.020 0.000 8.2 5 1
02/25/06 2:29 a -9.9 -9.9 -9.9 --- --- 2.6 N 0.04 3.5 -12.7 --- --- 722.7 0.020 0.000 8.2 5 1
02/25/06 2:30 a -9.9 -9.9 -9.9 --- --- 2.6 N 0.04 2.6 -12.7 --- --- 722.7 0.020 0.000 8.2 5 1
02/25/06 2:31 a -9.9 -9.9 -9.9 --- --- 0.9 N 0.01 1.7 -9.9 --- --- 722.7 0.020 0.000 8.3 5 1
02/25/06 2:32 a -9.9 -9.9 -9.9 --- --- 0.0 N 0.00 0.9 -9.9 --- --- 722.7 0.020 0.000 8.2 5 1
02/25/06 2:33 a -9.9 -9.9 -9.9 --- --- 0.9 N 0.01 1.7 -9.9 --- --- 722.7 0.020 0.000 8.3 5 1
02/25/06 2:34 a -9.8 -9.8 -9.9 --- --- 1.7 N 0.03 1.7 -11.4 --- --- 722.6 0.020 0.000 8.3 5 1
02/25/06 2:35 a -9.8 -9.8 -9.8 --- --- 2.6 N 0.04 4.3 -12.6 --- --- 722.7 0.020 0.000 8.3 5 1
02/25/06 2:36 a -9.8 -9.8 -9.8 --- --- 3.5 N 0.06 4.3 -13.6 --- --- 722.7 0.020 0.000 8.3 5 1
02/25/06 2:37 a -9.8 -9.8 -9.8 --- --- 2.6 N 0.04 3.5 -12.6 --- --- 722.7 0.020 0.000 8.3 5 1
02/25/06 2:38 a -9.8 -9.8 -9.8 --- --- 1.7 N 0.03 2.6 -11.3 --- --- 722.8 0.020 0.000 8.3 5 1
02/25/06 2:39 a -9.7 -9.7 -9.8 --- --- 1.7 N 0.03 1.7 -11.3 --- --- 722.7 0.019 0.000 8.3 5 1
02/25/06 2:40 a -9.7 -9.7 -9.7 --- --- 0.9 N 0.01 1.7 -9.7 --- --- 722.7 0.019 0.000 8.3 5 1
02/25/06 2:41 a -9.7 -9.7 -9.7 --- --- 2.6 N 0.04 3.5 -12.5 --- --- 722.7 0.019 0.000 8.3 5 1
02/25/06 2:42 a -9.7 -9.7 -9.7 --- --- 4.3 N 0.07 5.2 -14.1 --- --- 722.6 0.019 0.000 8.3 5 1
02/25/06 2:43 a -9.7 -9.7 -9.7 --- --- 3.5 N 0.06 5.2 -13.3 --- --- 722.7 0.019 0.000 8.3 5 1
02/25/06 2:44 a -9.7 -9.7 -9.7 --- --- 4.3 N 0.07 5.2 -14.1 --- --- 722.7 0.019 0.000 8.3 5 1
02/25/06 2:45 a -9.7 -9.7 -9.7 --- --- 5.2 N 0.09 6.1 -14.7 --- --- 722.7 0.019 0.000 8.3 5 1
02/25/06 2:46 a -9.7 -9.7 -9.7 --- --- 5.2 N 0.09 6.1 -14.7 --- --- 722.5 0.019 0.000 8.3 5 1
02/25/06 2:47 a -9.7 -9.7 -9.7 --- --- 5.2 N 0.09 6.1 -14.8 --- --- 722.6 0.019 0.000 8.3 5 1
02/25/06 2:48 a -9.7 -9.7 -9.7 --- --- 6.1 N 0.10 7.0 -15.3 --- --- 722.6 0.019 0.000 8.3 5 1
02/25/06 2:49 a -9.8 -9.8 -9.8 --- --- 6.1 NNW 0.10 7.0 -15.4 --- --- 722.6 0.020 0.000 8.3 5 1
02/25/06 2:50 a -9.8 -9.8 -9.8 --- --- 6.1 NNW 0.10 7.0 -15.4 --- --- 722.6 0.020 0.000 8.3 5 1
02/25/06 2:51 a -9.9 -9.8 -9.9 --- --- 7.0 NNW 0.12 7.8 -16.0 --- --- 722.5 0.020 0.000 8.3 5 1
02/25/06 2:52 a -9.9 -9.9 -9.9 --- --- 6.1 NNW 0.10 7.0 -15.6 --- --- 722.6 0.020 0.000 8.3 5 1
02/25/06 2:53 a -9.9 -9.9 -9.9 --- --- 7.0 NNW 0.12 7.0 -16.1 --- --- 722.6 0.020 0.000 8.3 5 1
02/25/06 2:54 a -10.0 -9.9 -10.0 --- --- 7.0 NNW 0.12 8.7 -16.2 --- --- 722.5 0.020 0.000 8.3 5 1
02/25/06 2:55 a -10.0 -10.0 -10.0 --- --- 7.8 NNW 0.13 8.7 -16.6 --- --- 722.6 0.020 0.000 8.3 5 1
02/25/06 2:56 a -10.1 -10.1 -10.1 --- --- 7.8 NNW 0.13 8.7 -16.7 --- --- 722.6 0.020 0.000 8.3 5 1
02/25/06 2:57 a -10.1 -10.1 -10.1 --- --- 7.8 NNW 0.13 8.7 -16.7 --- --- 722.5 0.020 0.000 8.3 5 1
02/25/06 2:58 a -10.1 -10.1 -10.1 --- --- 7.8 NNW 0.13 8.7 -16.7 --- --- 722.6 0.020 0.000 8.3 5 1
02/25/06 2:59 a -10.1 -10.1 -10.2 --- --- 8.7 NNW 0.14 9.6 -17.1 --- --- 722.5 0.020 0.000 8.3 5 1
02/25/06 3:00 a -10.2 -10.2 -10.2 --- --- 8.7 NNW 0.14 9.6 -17.2 --- --- 722.5 0.020 0.000 8.3 5 1
02/25/06 3:01 a -10.2 -10.2 -10.2 --- --- 8.7 NNW 0.14 8.7 -17.2 --- --- 722.5 0.020 0.000 8.3 5 1
02/25/06 3:02 a -10.2 -10.2 -10.2 --- --- 8.7 NNW 0.14 8.7 -17.3 --- --- 722.5 0.020 0.000 8.3 5 1
02/25/06 3:03 a -10.3 -10.2 -10.3 --- --- 8.7 NNW 0.14 9.6 -17.3 --- --- 722.5 0.020 0.000 8.2 5 1
02/25/06 3:04 a -10.3 -10.3 -10.3 --- --- 8.7 NNW 0.14 9.6 -17.3 --- --- 722.5 0.020 0.000 8.3 5 1
02/25/06 3:05 a -10.3 -10.3 -10.3 --- --- 9.6 NNW 0.16 10.4 -17.7 --- --- 722.5 0.020 0.000 8.2 5 1
02/25/06 3:06 a -10.3 -10.3 -10.3 --- --- 9.6 NNW 0.16 9.6 -17.8 --- --- 722.5 0.020 0.000 8.2 5 1
02/25/06 3:07 a -10.4 -10.3 -10.4 --- --- 9.6 NNW 0.16 10.4 -17.8 --- --- 722.6 0.020 0.000 8.2 5 1
02/25/06 3:08 a -10.4 -10.4 -10.4 --- --- 8.7 NNW 0.14 10.4 -17.5 --- --- 722.5 0.020 0.000 8.2 5 1
02/25/06 3:09 a -10.4 -10.4 -10.4 --- --- 8.7 NNW 0.14 9.6 -17.5 --- --- 722.5 0.020 0.000 8.2 5 1
02/25/06 3:10 a -10.4 -10.4 -10.4 --- --- 9.6 NNW 0.16 10.4 -17.8 --- --- 722.5 0.020 0.000 8.2 5 1
02/25/06 3:11 a -10.5 -10.5 -10.5 --- --- 8.7 NNW 0.14 9.6 -17.6 --- --- 722.5 0.020 0.000 8.2 5 1
02/25/06 3:12 a -10.5 -10.5 -10.5 --- --- 8.7 NNW 0.14 9.6 -17.6 --- --- 722.4 0.020 0.000 8.2 5 1
02/25/06 3:13 a -10.5 -10.5 -10.6 --- --- 8.7 NNW 0.14 9.6 -17.6 --- --- 722.4 0.020 0.000 8.2 5 1
02/25/06 3:14 a -10.5 -10.5 -10.6 --- --- 7.8 NNW 0.13 9.6 -17.2 --- --- 722.4 0.020 0.000 8.2 5 1
02/25/06 3:15 a -10.6 -10.6 -10.6 --- --- 7.8 NNW 0.13 8.7 -17.3 --- --- 722.5 0.020 0.000 8.2 5 1
02/25/06 3:16 a -10.6 -10.6 -10.6 --- --- 7.8 NNW 0.13 8.7 -17.3 --- --- 722.4 0.020 0.000 8.2 5 1
02/25/06 3:17 a -10.6 -10.6 -10.6 --- --- 8.7 NNW 0.14 9.6 -17.7 --- --- 722.5 0.020 0.000 8.2 5 1
02/25/06 3:18 a -10.6 -10.6 -10.7 --- --- 8.7 NNW 0.14 9.6 -17.7 --- --- 722.5 0.020 0.000 8.2 5 1
02/25/06 3:19 a -10.6 -10.6 -10.7 --- --- 8.7 NNW 0.14 9.6 -17.7 --- --- 722.4 0.020 0.000 8.2 5 1
02/25/06 3:20 a -10.7 -10.7 -10.7 --- --- 9.6 NNW 0.16 10.4 -18.1 --- --- 722.5 0.020 0.000 8.2 5 1
02/25/06 3:21 a -10.7 -10.7 -10.7 --- --- 8.7 NNW 0.14 9.6 -17.8 --- --- 722.4 0.020 0.000 8.2 5 1
02/25/06 3:22 a -10.7 -10.7 -10.7 --- --- 8.7 NNW 0.14 10.4 -17.8 --- --- 722.5 0.020 0.000 8.2 5 1
02/25/06 3:23 a -10.7 -10.7 -10.7 --- --- 7.8 NNW 0.13 8.7 -17.4 --- --- 722.4 0.020 0.000 8.2 5 1
02/25/06 3:24 a -10.7 -10.7 -10.7 --- --- 7.8 NNW 0.13 9.6 -17.4 --- --- 722.5 0.020 0.000 8.2 5 1
02/25/06 3:25 a -10.7 -10.7 -10.7 --- --- 7.0 N 0.12 7.8 -17.1 --- --- 722.4 0.020 0.000 8.2 5 1
02/25/06 3:26 a -10.7 -10.7 -10.7 --- --- 6.1 N 0.10 7.8 -16.6 --- --- 722.5 0.020 0.000 8.2 5 1
02/25/06 3:27 a -10.7 -10.7 -10.7 --- --- 6.1 N 0.10 7.0 -16.6 --- --- 722.4 0.020 0.000 8.2 6 1
02/25/06 3:28 a -10.7 -10.7 -10.7 --- --- 6.1 N 0.10 6.1 -16.4 --- --- 722.5 0.020 0.000 8.2 6 1
02/25/06 3:29 a -10.7 -10.7 -10.7 --- --- 5.2 N 0.09 7.0 -15.9 --- --- 722.4 0.020 0.000 8.2 6 1
02/25/06 3:30 a -10.6 -10.6 -10.7 --- --- 7.0 N 0.12 7.8 -16.9 --- --- 722.4 0.020 0.000 8.3 6 1
02/25/06 3:31 a -10.6 -10.6 -10.6 --- --- 7.0 N 0.12 8.7 -16.9 --- --- 722.5 0.020 0.000 8.3 6 1
02/25/06 3:32 a -10.6 -10.6 -10.6 --- --- 8.7 NNW 0.14 9.6 -17.7 --- --- 722.4 0.020 0.000 8.3 6 1
02/25/06 3:33 a -10.5 -10.4 -10.5 --- --- 8.7 NNW 0.14 9.6 -17.6 --- --- 722.4 0.020 0.000 8.3 6 1
02/25/06 3:34 a -10.4 -10.4 -10.5 --- --- 8.7 NNW 0.14 10.4 -17.6 --- --- 722.4 0.020 0.000 8.3 6 1
02/25/06 3:35 a -10.4 -10.4 -10.4 --- --- 9.6 NNW 0.16 10.4 -17.8 --- --- 722.5 0.020 0.000 8.3 6 1
02/25/06 3:36 a -10.4 -10.4 -10.4 --- --- 9.6 NNW 0.16 10.4 -17.8 --- --- 722.5 0.020 0.000 8.3 6 1
02/25/06 3:37 a -10.4 -10.4 -10.4 --- --- 8.7 NNW 0.14 10.4 -17.5 --- --- 722.5 0.020 0.000 8.3 6 1
02/25/06 3:38 a -10.3 -10.3 -10.4 --- --- 8.7 NNW 0.14 10.4 -17.4 --- --- 722.4 0.020 0.000 8.3 6 1
02/25/06 3:39 a -10.3 -10.3 -10.3 --- --- 9.6 NNW 0.16 11.3 -17.8 --- --- 722.4 0.020 0.000 8.3 6 1
02/25/06 3:40 a -10.3 -10.3 -10.3 --- --- 10.4 NNW 0.17 11.3 -18.1 --- --- 722.4 0.020 0.000 8.3 6 1
02/25/06 3:41 a -10.3 -10.3 -10.3 --- --- 9.6 NNW 0.16 11.3 -17.8 --- --- 722.5 0.020 0.000 8.3 6 1
02/25/06 3:42 a -10.3 -10.3 -10.3 --- --- 9.6 NNW 0.16 10.4 -17.8 --- --- 722.4 0.020 0.000 8.3 6 1
02/25/06 3:43 a -10.3 -10.3 -10.3 --- --- 7.8 NNW 0.13 8.7 -17.0 --- --- 722.5 0.020 0.000 8.3 6 1
02/25/06 3:44 a -10.3 -10.3 -10.3 --- --- 7.8 NNW 0.13 8.7 -17.0 --- --- 722.5 0.020 0.000 8.3 6 1
02/25/06 3:45 a -10.3 -10.3 -10.3 --- --- 7.8 NNW 0.13 8.7 -17.0 --- --- 722.6 0.020 0.000 8.3 6 1
02/25/06 3:46 a -10.3 -10.3 -10.3 --- --- 9.6 NNW 0.16 10.4 -17.8 --- --- 722.6 0.020 0.000 8.3 6 1
02/25/06 3:47 a -10.3 -10.3 -10.3 --- --- 8.7 NNW 0.14 10.4 -17.4 --- --- 722.6 0.020 0.000 8.3 6 1
02/25/06 3:48 a -10.3 -10.3 -10.3 --- --- 7.8 NNW 0.13 8.7 -17.0 --- --- 722.6 0.020 0.000 8.3 6 1
02/25/06 3:49 a -10.3 -10.3 -10.3 --- --- 9.6 NNW 0.16 10.4 -17.7 --- --- 722.5 0.020 0.000 8.3 6 1
02/25/06 3:50 a -10.3 -10.3 -10.3 --- --- 8.7 NW 0.14 10.4 -17.3 --- --- 722.6 0.020 0.000 8.3 6 1
02/25/06 3:51 a -10.3 -10.3 -10.3 --- --- 7.8 NW 0.13 9.6 -16.9 --- --- 722.5 0.020 0.000 8.3 6 1
02/25/06 3:52 a -10.2 -10.2 -10.2 --- --- 7.0 NNW 0.12 7.8 -16.4 --- --- 722.4 0.020 0.000 8.3 6 1
02/25/06 3:53 a -10.2 -10.2 -10.2 --- --- 7.0 NNW 0.12 7.8 -16.4 --- --- 722.5 0.020 0.000 8.3 6 1
02/25/06 3:54 a -10.2 -10.2 -10.2 --- --- 7.8 NNW 0.13 8.7 -16.9 --- --- 722.5 0.020 0.000 8.3 6 1
02/25/06 3:55 a -10.2 -10.2 -10.2 --- --- 7.0 NNW 0.12 7.8 -16.3 --- --- 722.4 0.020 0.000 8.3 6 1
02/25/06 3:56 a -10.2 -10.2 -10.2 --- --- 7.0 NNW 0.12 7.8 -16.3 --- --- 722.5 0.020 0.000 8.3 6 1
02/25/06 3:57 a -10.2 -10.2 -10.2 --- --- 7.8 NNW 0.13 8.7 -16.8 --- --- 722.5 0.020 0.000 8.4 6 1
02/25/06 3:58 a -10.2 -10.2 -10.2 --- --- 6.1 NNW 0.10 7.0 -15.9 --- --- 722.5 0.020 0.000 8.4 6 1
02/25/06 3:59 a -10.1 -10.1 -10.2 --- --- 6.1 NNW 0.10 7.0 -15.8 --- --- 722.5 0.020 0.000 8.4 6 1
02/25/06 4:00 a -10.1 -10.1 -10.1 --- --- 7.0 NNW 0.12 7.8 -16.3 --- --- 722.4 0.020 0.000 8.4 6 1
02/25/06 4:01 a -10.1 -10.1 -10.1 --- --- 7.0 NNW 0.12 7.8 -16.2 --- --- 722.4 0.020 0.000 8.4 6 1
02/25/06 4:02 a -10.1 -10.1 -10.1 --- --- 7.8 NNW 0.13 8.7 -16.7 --- --- 722.4 0.020 0.000 8.4 6 1
02/25/06 4:03 a -10.0 -10.0 -10.0 --- --- 7.8 NNW 0.13 7.8 -16.6 --- --- 722.3 0.020 0.000 8.4 6 1
02/25/06 4:04 a -10.0 -9.9 -10.0 --- --- 7.8 NW 0.13 8.7 -16.6 --- --- 722.4 0.020 0.000 8.4 6 1
02/25/06 4:05 a -9.9 -9.9 -9.9 --- --- 7.8 NW 0.13 8.7 -16.5 --- --- 722.4 0.020 0.000 8.4 6 1
02/25/06 4:06 a -9.9 -9.9 -9.9 --- --- 7.8 NW 0.13 8.7 -16.4 --- --- 722.4 0.020 0.000 8.4 6 1
02/25/06 4:07 a -9.8 -9.8 -9.9 --- --- 7.8 NW 0.13 8.7 -16.4 --- --- 722.4 0.020 0.000 8.4 6 1
02/25/06 4:08 a -9.8 -9.8 -9.8 --- --- 7.8 NW 0.13 7.8 -16.4 --- --- 722.4 0.020 0.000 8.4 6 1
02/25/06 4:09 a -9.8 -9.8 -9.8 --- --- 7.8 NW 0.13 8.7 -16.3 --- --- 722.4 0.020 0.000 8.4 6 1
02/25/06 4:10 a -9.7 -9.7 -9.8 --- --- 7.8 NW 0.13 8.7 -16.2 --- --- 722.3 0.019 0.000 8.4 6 1
02/25/06 4:11 a -9.7 -9.7 -9.7 --- --- 7.8 NW 0.13 8.7 -16.2 --- --- 722.4 0.019 0.000 8.4 6 1
02/25/06 4:12 a -9.7 -9.7 -9.7 --- --- 7.8 NW 0.13 8.7 -16.2 --- --- 722.2 0.019 0.000 8.4 6 1
02/25/06 4:13 a -9.7 -9.7 -9.7 --- --- 7.0 NW 0.12 7.8 -15.8 --- --- 722.3 0.019 0.000 8.4 6 1
02/25/06 4:14 a -9.7 -9.7 -9.7 --- --- 7.8 NW 0.13 8.7 -16.2 --- --- 722.4 0.019 0.000 8.4 6 1
02/25/06 4:15 a -9.7 -9.7 -9.7 --- --- 7.0 NW 0.12 8.7 -15.8 --- --- 722.3 0.019 0.000 8.4 6 1
02/25/06 4:16 a -9.7 -9.7 -9.7 --- --- 7.8 NW 0.13 8.7 -16.2 --- --- 722.4 0.019 0.000 8.4 6 1
02/25/06 4:17 a -9.7 -9.7 -9.8 --- --- 7.0 NW 0.12 8.7 -15.8 --- --- 722.4 0.019 0.000 8.4 6 1
02/25/06 4:18 a -9.8 -9.8 -9.8 --- --- 7.8 NW 0.13 8.7 -16.3 --- --- 722.4 0.020 0.000 8.4 6 1
02/25/06 4:19 a -9.8 -9.8 -9.8 --- --- 7.0 NW 0.12 7.8 -15.9 --- --- 722.4 0.020 0.000 8.4 6 1
02/25/06 4:20 a -9.8 -9.8 -9.8 --- --- 7.0 NW 0.12 7.8 -15.9 --- --- 722.4 0.020 0.000 8.4 6 1
02/25/06 4:21 a -9.8 -9.8 -9.8 --- --- 7.0 NW 0.12 8.7 -15.9 --- --- 722.3 0.020 0.000 8.4 6 1
02/25/06 4:22 a -9.8 -9.8 -9.9 --- --- 7.8 NW 0.13 7.8 -16.4 --- --- 722.4 0.020 0.000 8.4 6 1
02/25/06 4:23 a -9.9 -9.9 -9.9 --- --- 7.8 NW 0.13 8.7 -16.4 --- --- 722.4 0.020 0.000 8.4 6 1
02/25/06 4:24 a -9.9 -9.9 -9.9 --- --- 7.0 NW 0.12 7.8 -16.1 --- --- 722.2 0.020 0.000 8.4 6 1
02/25/06 4:25 a -9.9 -9.9 -10.0 --- --- 7.8 NW 0.13 8.7 -16.5 --- --- 722.4 0.020 0.000 8.4 6 1
02/25/06 4:26 a -10.0 -10.0 -10.0 --- --- 7.8 NW 0.13 8.7 -16.6 --- --- 722.4 0.020 0.000 8.4 6 1
02/25/06 4:27 a -10.0 -10.0 -10.1 --- --- 8.7 NW 0.14 10.4 -17.0 --- --- 722.3 0.020 0.000 8.4 6 1
02/25/06 4:28 a -10.1 -10.1 -10.1 --- --- 7.8 NW 0.13 8.7 -16.7 --- --- 722.3 0.020 0.000 8.4 6 1
02/25/06 4:29 a -10.1 -10.1 -10.1 --- --- 7.8 NW 0.13 8.7 -16.7 --- --- 722.4 0.020 0.000 8.4 6 1
02/25/06 4:30 a -10.1 -10.1 -10.1 --- --- 7.8 NW 0.13 8.7 -16.7 --- --- 722.2 0.020 0.000 8.4 6 1
02/25/06 4:31 a -10.1 -10.1 -10.2 --- --- 8.7 NW 0.14 9.6 -17.1 --- --- 722.3 0.020 0.000 8.4 6 1
02/25/06 4:32 a -10.2 -10.2 -10.2 --- --- 7.8 NW 0.13 8.7 -16.8 --- --- 722.3 0.020 0.000 8.4 6 1
02/25/06 4:33 a -10.2 -10.2 -10.2 --- --- 7.8 NW 0.13 8.7 -16.8 --- --- 722.4 0.020 0.000 8.4 6 1
02/25/06 4:34 a -10.2 -10.2 -10.2 --- --- 7.8 NW 0.13 8.7 -16.8 --- --- 722.4 0.020 0.000 8.4 6 1
02/25/06 4:35 a -10.2 -10.2 -10.3 --- --- 7.8 NW 0.13 9.6 -16.9 --- --- 722.3 0.020 0.000 8.4 6 1
02/25/06 4:36 a -10.3 -10.2 -10.3 --- --- 7.8 NW 0.13 8.7 -16.9 --- --- 722.3 0.020 0.000 8.4 6 1
02/25/06 4:37 a -10.3 -10.3 -10.3 --- --- 7.8 NW 0.13 8.7 -16.9 --- --- 722.4 0.020 0.000 8.4 6 1
02/25/06 4:38 a -10.3 -10.3 -10.3 --- --- 8.7 NW 0.14 9.6 -17.3 --- --- 722.3 0.020 0.000 8.4 6 1
02/25/06 4:39 a -10.3 -10.3 -10.3 --- --- 8.7 NW 0.14 10.4 -17.4 --- --- 722.3 0.020 0.000 8.4 6 1
02/25/06 4:40 a -10.3 -10.3 -10.3 --- --- 7.8 NW 0.13 8.7 -17.0 --- --- 722.3 0.020 0.000 8.4 6 1
02/25/06 4:41 a -10.3 -10.3 -10.3 --- --- 8.7 NW 0.14 9.6 -17.4 --- --- 722.3 0.020 0.000 8.4 6 1
02/25/06 4:42 a -10.3 -10.3 -10.3 --- --- 8.7 NW 0.14 9.6 -17.4 --- --- 722.3 0.020 0.000 8.4 6 1
02/25/06 4:43 a -10.3 -10.3 -10.3 --- --- 9.6 NW 0.16 10.4 -17.8 --- --- 722.3 0.020 0.000 8.4 6 1
02/25/06 4:44 a -10.3 -10.3 -10.3 --- --- 8.7 NW 0.14 10.4 -17.4 --- --- 722.3 0.020 0.000 8.3 6 1
02/25/06 4:45 a -10.3 -10.3 -10.3 --- --- 8.7 NW 0.14 10.4 -17.3 --- --- 722.2 0.020 0.000 8.4 6 1
02/25/06 4:46 a -10.3 -10.3 -10.3 --- --- 8.7 NW 0.14 9.6 -17.3 --- --- 722.2 0.020 0.000 8.4 6 1
02/25/06 4:47 a -10.3 -10.3 -10.3 --- --- 7.8 NW 0.13 8.7 -16.9 --- --- 722.3 0.020 0.000 8.4 6 1
02/25/06 4:48 a -10.3 -10.3 -10.3 --- --- 7.8 NW 0.13 9.6 -16.9 --- --- 722.2 0.020 0.000 8.4 6 1
02/25/06 4:49 a -10.3 -10.2 -10.3 --- --- 9.6 NW 0.16 11.3 -17.7 --- --- 722.3 0.020 0.000 8.4 6 1
02/25/06 4:50 a -10.2 -10.2 -10.3 --- --- 7.8 NNW 0.13 8.7 -16.9 --- --- 722.3 0.020 0.000 8.4 6 1
02/25/06 4:51 a -10.3 -10.2 -10.3 --- --- 7.8 NNW 0.13 9.6 -16.9 --- --- 722.3 0.020 0.000 8.4 6 1
02/25/06 4:52 a -10.2 -10.2 -10.3 --- --- 7.0 NW 0.12 9.6 -16.4 --- --- 722.3 0.020 0.000 8.4 6 1
02/25/06 4:53 a -10.2 -10.2 -10.3 --- --- 7.0 NW 0.12 8.7 -16.4 --- --- 722.4 0.020 0.000 8.4 6 1
02/25/06 4:54 a -10.2 -10.2 -10.2 --- --- 7.0 NW 0.12 8.7 -16.4 --- --- 722.3 0.020 0.000 8.4 6 1
02/25/06 4:55 a -10.2 -10.2 -10.2 --- --- 7.0 NW 0.12 8.7 -16.3 --- --- 722.4 0.020 0.000 8.4 6 1
02/25/06 4:56 a -10.2 -10.2 -10.2 --- --- 5.2 NW 0.09 7.0 -15.3 --- --- 722.4 0.020 0.000 8.4 6 1
02/25/06 4:57 a -10.2 -10.2 -10.2 --- --- 6.1 NW 0.10 7.8 -15.9 --- --- 722.4 0.020 0.000 8.4 6 1
02/25/06 4:58 a -10.2 -10.1 -10.2 --- --- 7.0 NW 0.12 7.8 -16.3 --- --- 722.4 0.020 0.000 8.4 6 1
02/25/06 4:59 a -10.2 -10.1 -10.2 --- --- 6.1 NW 0.10 7.8 -15.9 --- --- 722.3 0.020 0.000 8.4 6 1
02/25/06 5:00 a -10.2 -10.1 -10.2 --- --- 7.0 WNW 0.12 8.7 -16.3 --- --- 722.4 0.020 0.000 8.4 6 1
02/25/06 5:01 a -10.2 -10.1 -10.2 --- --- 6.1 WNW 0.10 7.8 -15.9 --- --- 722.3 0.020 0.000 8.4 6 1
02/25/06 5:02 a -10.2 -10.1 -10.2 --- --- 6.1 WNW 0.10 7.8 -15.9 --- --- 722.3 0.020 0.000 8.4 6 1
02/25/06 5:03 a -10.1 -10.1 -10.2 --- --- 7.0 WNW 0.12 7.8 -16.3 --- --- 722.3 0.020 0.000 8.4 6 1
02/25/06 5:04 a -10.1 -10.1 -10.2 --- --- 7.0 WNW 0.12 7.8 -16.3 --- --- 722.3 0.020 0.000 8.4 6 1
02/25/06 5:05 a -10.1 -10.1 -10.1 --- --- 7.8 WNW 0.13 8.7 -16.7 --- --- 722.4 0.020 0.000 8.4 6 1
02/25/06 5:06 a -10.1 -10.1 -10.2 --- --- 7.8 WNW 0.13 8.7 -16.7 --- --- 722.4 0.020 0.000 8.4 6 1
02/25/06 5:07 a -10.1 -10.1 -10.1 --- --- 7.0 WNW 0.12 7.8 -16.3 --- --- 722.3 0.020 0.000 8.4 6 1
02/25/06 5:08 a -10.1 -10.1 -10.1 --- --- 7.0 WNW 0.12 7.8 -16.3 --- --- 722.3 0.020 0.000 8.4 6 1
02/25/06 5:09 a -10.1 -10.1 -10.1 --- --- 6.1 WNW 0.10 7.0 -15.7 --- --- 722.3 0.020 0.000 8.4 6 1
02/25/06 5:10 a -10.1 -10.1 -10.1 --- --- 6.1 WNW 0.10 7.8 -15.7 --- --- 722.3 0.020 0.000 8.4 6 1
02/25/06 5:11 a -10.0 -10.0 -10.0 --- --- 7.0 WNW 0.12 7.8 -16.2 --- --- 722.3 0.020 0.000 8.4 6 1
02/25/06 5:12 a -10.0 -9.9 -10.0 --- --- 6.1 WNW 0.10 6.1 -15.7 --- --- 722.4 0.020 0.000 8.4 6 1
02/25/06 5:13 a -9.9 -9.9 -9.9 --- --- 6.1 WNW 0.10 7.8 -15.6 --- --- 722.4 0.020 0.000 8.4 6 1
02/25/06 5:14 a -9.9 -9.9 -9.9 --- --- 6.1 WNW 0.10 7.0 -15.6 --- --- 722.4 0.020 0.000 8.4 6 1
02/25/06 5:15 a -9.9 -9.8 -9.9 --- --- 6.1 WNW 0.10 7.0 -15.6 --- --- 722.4 0.020 0.000 8.4 6 1
02/25/06 5:16 a -9.8 -9.8 -9.9 --- --- 6.1 WNW 0.10 7.0 -15.4 --- --- 722.4 0.020 0.000 8.4 6 1
02/25/06 5:17 a -9.8 -9.8 -9.8 --- --- 7.0 WNW 0.12 7.8 -15.9 --- --- 722.4 0.020 0.000 8.4 6 1
02/25/06 5:18 a -9.8 -9.7 -9.8 --- --- 6.1 NW 0.10 7.0 -15.4 --- --- 722.4 0.020 0.000 8.4 6 1
02/25/06 5:19 a -9.7 -9.7 -9.7 --- --- 6.1 NW 0.10 7.0 -15.3 --- --- 722.5 0.019 0.000 8.4 6 1
02/25/06 5:20 a -9.7 -9.6 -9.7 --- --- 6.1 NW 0.10 7.8 -15.3 --- --- 722.5 0.019 0.000 8.4 6 1
02/25/06 5:21 a -9.6 -9.6 -9.7 --- --- 7.0 WNW 0.12 7.8 -15.7 --- --- 722.5 0.019 0.000 8.4 6 1
02/25/06 5:22 a -9.6 -9.6 -9.6 --- --- 7.8 NW 0.13 8.7 -16.1 --- --- 722.5 0.019 0.000 8.4 6 1
02/25/06 5:23 a -9.6 -9.5 -9.6 --- --- 7.8 NW 0.13 7.8 -16.1 --- --- 722.4 0.019 0.000 8.4 6 1
02/25/06 5:24 a -9.5 -9.5 -9.5 --- --- 7.8 WNW 0.13 7.8 -16.0 --- --- 722.6 0.019 0.000 8.4 6 1
02/25/06 5:25 a -9.5 -9.5 -9.5 --- --- 7.8 WNW 0.13 8.7 -16.0 --- --- 722.5 0.019 0.000 8.4 6 1
02/25/06 5:26 a -9.5 -9.5 -9.5 --- --- 7.8 WNW 0.13 8.7 -16.0 --- --- 722.5 0.019 0.000 8.4 6 1
02/25/06 5:27 a -9.4 -9.4 -9.5 --- --- 7.8 NW 0.13 8.7 -15.9 --- --- 722.5 0.019 0.000 8.4 6 1
02/25/06 5:28 a -9.4 -9.4 -9.4 --- --- 7.8 NW 0.13 8.7 -15.9 --- --- 722.4 0.019 0.000 8.4 6 1
02/25/06 5:29 a -9.4 -9.4 -9.4 --- --- 7.0 NW 0.12 8.7 -15.5 --- --- 722.4 0.019 0.000 8.4 6 1
02/25/06 5:30 a -9.4 -9.4 -9.4 --- --- 8.7 NW 0.14 9.6 -16.3 --- --- 722.5 0.019 0.000 8.4 6 1
02/25/06 5:31 a -9.4 -9.4 -9.4 --- --- 7.8 NW 0.13 8.7 -15.8 --- --- 722.6 0.019 0.000 8.4 6 1
02/25/06 5:32 a -9.4 -9.4 -9.4 --- --- 7.0 NW 0.12 7.8 -15.4 --- --- 722.5 0.019 0.000 8.4 6 1
02/25/06 5:33 a -9.4 -9.4 -9.4 --- --- 7.8 WNW 0.13 9.6 -15.8 --- --- 722.5 0.019 0.000 8.4 6 1
02/25/06 5:34 a -9.4 -9.4 -9.4 --- --- 7.8 WNW 0.13 9.6 -15.8 --- --- 722.5 0.019 0.000 8.5 6 1
02/25/06 5:35 a -9.4 -9.4 -9.4 --- --- 6.1 NW 0.10 7.8 -14.9 --- --- 722.5 0.019 0.000 8.5 6 1
02/25/06 5:36 a -9.4 -9.3 -9.4 --- --- 6.1 NW 0.10 7.0 -14.9 --- --- 722.5 0.019 0.000 8.5 6 1
02/25/06 5:37 a -9.4 -9.3 -9.4 --- --- 8.7 WNW 0.14 10.4 -16.2 --- --- 722.5 0.019 0.000 8.5 6 1
02/25/06 5:38 a -9.4 -9.4 -9.4 --- --- 7.0 WNW 0.12 8.7 -15.4 --- --- 722.5 0.019 0.000 8.5 6 1
02/25/06 5:39 a -9.4 -9.3 -9.4 --- --- 7.0 WNW 0.12 8.7 -15.4 --- --- 722.5 0.019 0.000 8.5 6 1
02/25/06 5:40 a -9.4 -9.4 -9.4 --- --- 6.1 W 0.10 7.8 -14.9 --- --- 722.6 0.019 0.000 8.5 6 1
02/25/06 5:41 a -9.4 -9.4 -9.4 --- --- 4.3 WNW 0.07 5.2 -13.8 --- --- 722.5 0.019 0.000 8.5 6 1
02/25/06 5:42 a -9.4 -9.3 -9.4 --- --- 5.2 WNW 0.09 6.1 -14.4 --- --- 722.5 0.019 0.000 8.5 6 1
02/25/06 5:43 a -9.3 -9.3 -9.4 --- --- 5.2 WNW 0.09 7.0 -14.3 --- --- 722.5 0.019 0.000 8.5 6 1
02/25/06 5:44 a -9.3 -9.3 -9.4 --- --- 6.1 WNW 0.10 7.8 -14.8 --- --- 722.6 0.019 0.000 8.5 6 1
02/25/06 5:45 a -9.3 -9.3 -9.3 --- --- 7.0 NW 0.12 7.8 -15.3 --- --- 722.5 0.019 0.000 8.5 6 1
02/25/06 5:46 a -9.3 -9.3 -9.3 --- --- 7.0 WNW 0.12 8.7 -15.3 --- --- 722.5 0.019 0.000 8.5 6 1
02/25/06 5:47 a -9.3 -9.3 -9.3 --- --- 7.0 NW 0.12 8.7 -15.3 --- --- 722.5 0.019 0.000 8.5 6 1
02/25/06 5:48 a -9.3 -9.3 -9.3 --- --- 6.1 WNW 0.10 7.0 -14.8 --- --- 722.6 0.019 0.000 8.5 6 1
02/25/06 5:49 a -9.3 -9.3 -9.3 --- --- 6.1 WNW 0.10 7.0 -14.8 --- --- 722.5 0.019 0.000 8.5 6 1
02/25/06 5:50 a -9.3 -9.3 -9.3 --- --- 6.1 WNW 0.10 7.0 -14.8 --- --- 722.6 0.019 0.000 8.5 6 1
02/25/06 5:51 a -9.3 -9.3 -9.3 --- --- 5.2 WNW 0.09 7.0 -14.3 --- --- 722.6 0.019 0.000 8.5 6 1
02/25/06 5:52 a -9.3 -9.3 -9.3 --- --- 5.2 WNW 0.09 6.1 -14.3 --- --- 722.6 0.019 0.000 8.5 6 1
02/25/06 5:53 a -9.3 -9.3 -9.3 --- --- 5.2 WNW 0.09 6.1 -14.3 --- --- 722.6 0.019 0.000 8.5 6 1
02/25/06 5:54 a -9.3 -9.3 -9.3 --- --- 4.3 WNW 0.07 5.2 -13.6 --- --- 722.6 0.019 0.000 8.5 6 1
02/25/06 5:55 a -9.3 -9.2 -9.3 --- --- 4.3 WNW 0.07 5.2 -13.6 --- --- 722.5 0.019 0.000 8.5 6 1
02/25/06 5:56 a -9.2 -9.2 -9.3 --- --- 4.3 W 0.07 5.2 -13.6 --- --- 722.6 0.019 0.000 8.5 6 1
02/25/06 5:57 a -9.2 -9.2 -9.2 --- --- 5.2 W 0.09 6.1 -14.2 --- --- 722.5 0.019 0.000 8.5 6 1
02/25/06 5:58 a -9.2 -9.2 -9.2 --- --- 4.3 WNW 0.07 6.1 -13.5 --- --- 722.5 0.019 0.000 8.6 6 1
02/25/06 5:59 a -9.2 -9.2 -9.2 --- --- 5.2 WNW 0.09 6.1 -14.1 --- --- 722.6 0.019 0.000 8.6 6 1
02/25/06 6:00 a -9.1 -9.1 -9.1 --- --- 4.3 WNW 0.07 6.1 -13.4 --- --- 722.5 0.019 0.000 8.6 6 1
02/25/06 6:01 a -9.1 -9.1 -9.1 --- --- 4.3 WNW 0.07 6.1 -13.4 --- --- 722.4 0.019 0.000 8.6 6 1
02/25/06 6:02 a -9.1 -9.0 -9.1 --- --- 5.2 WNW 0.09 7.0 -14.0 --- --- 722.6 0.019 0.000 8.6 6 1
02/25/06 6:03 a -9.0 -9.0 -9.0 --- --- 5.2 NW 0.09 7.8 -13.9 --- --- 722.5 0.019 0.000 8.6 6 1
02/25/06 6:04 a -8.9 -8.9 -9.0 --- --- 4.3 NW 0.07 6.1 -13.2 --- --- 722.7 0.019 0.000 8.6 6 1
02/25/06 6:05 a -8.8 -8.8 -8.9 --- --- 5.2 NW 0.09 7.0 -13.7 --- --- 722.6 0.019 0.000 8.6 6 1
02/25/06 6:06 a -8.7 -8.7 -8.8 --- --- 5.2 WNW 0.09 7.0 -13.6 --- --- 722.6 0.019 0.000 8.6 6 1
02/25/06 6:07 a -8.7 -8.7 -8.7 --- --- 5.2 WNW 0.09 6.1 -13.5 --- --- 722.6 0.019 0.000 8.6 6 1
02/25/06 6:08 a -8.7 -8.7 -8.7 --- --- 4.3 WNW 0.07 5.2 -12.9 --- --- 722.6 0.019 0.000 8.6 6 1
02/25/06 6:09 a -8.7 -8.6 -8.7 --- --- 4.3 WNW 0.07 6.1 -12.9 --- --- 722.6 0.019 0.000 8.6 6 1
02/25/06 6:10 a -8.7 -8.6 -8.7 --- --- 3.5 WNW 0.06 5.2 -12.2 --- --- 722.5 0.019 0.000 8.7 6 1
02/25/06 6:11 a -8.6 -8.6 -8.7 --- --- 4.3 WNW 0.07 5.2 -12.8 --- --- 722.6 0.019 0.000 8.7 6 1
02/25/06 6:12 a -8.6 -8.6 -8.7 --- --- 3.5 WNW 0.06 4.3 -12.1 --- --- 722.6 0.019 0.000 8.7 6 1
02/25/06 6:13 a -8.7 -8.6 -8.7 --- --- 3.5 WNW 0.06 3.5 -12.2 --- --- 722.6 0.019 0.000 8.7 6 1
02/25/06 6:14 a -8.7 -8.7 -8.7 --- --- 3.5 WNW 0.06 5.2 -12.2 --- --- 722.6 0.019 0.000 8.7 6 1
02/25/06 6:15 a -8.7 -8.7 -8.7 --- --- 5.2 NW 0.09 6.1 -13.5 --- --- 722.6 0.019 0.000 8.7 6 1
02/25/06 6:16 a -8.7 -8.7 -8.7 --- --- 4.3 NW 0.07 5.2 -12.9 --- --- 722.7 0.019 0.000 8.7 6 1
02/25/06 6:17 a -8.7 -8.7 -8.7 --- --- 5.2 WNW 0.09 6.1 -13.5 --- --- 722.7 0.019 0.000 8.7 6 1
02/25/06 6:18 a -8.7 -8.7 -8.7 --- --- 5.2 WNW 0.09 6.1 -13.6 --- --- 722.6 0.019 0.000 8.7 6 1
02/25/06 6:19 a -8.7 -8.7 -8.8 --- --- 5.2 WNW 0.09 6.1 -13.6 --- --- 722.6 0.019 0.000 8.7 6 1
02/25/06 6:20 a -8.8 -8.8 -8.8 --- --- 5.2 NW 0.09 6.1 -13.7 --- --- 722.7 0.019 0.000 8.7 6 1
02/25/06 6:21 a -8.8 -8.8 -8.8 --- --- 5.2 WNW 0.09 6.1 -13.7 --- --- 722.6 0.019 0.000 8.7 6 1
02/25/06 6:22 a -8.8 -8.7 -8.8 --- --- 5.2 NW 0.09 6.1 -13.7 --- --- 722.6 0.019 0.000 8.7 6 1
02/25/06 6:23 a -8.7 -8.7 -8.7 --- --- 6.1 NW 0.10 7.0 -14.1 --- --- 722.7 0.019 0.000 8.7 6 1
02/25/06 6:24 a -8.7 -8.7 -8.7 --- --- 6.1 NNW 0.10 7.8 -14.1 --- --- 722.7 0.019 0.000 8.7 6 1
02/25/06 6:25 a -8.7 -8.6 -8.7 --- --- 6.1 NNW 0.10 7.0 -14.1 --- --- 722.8 0.019 0.000 8.7 6 1
02/25/06 6:26 a -8.5 -8.4 -8.6 --- --- 5.2 NNW 0.09 6.1 -13.3 --- --- 722.8 0.019 0.000 8.7 6 1
02/25/06 6:27 a -8.3 -8.3 -8.3 --- --- 5.2 NNW 0.09 6.1 -13.1 --- --- 722.7 0.019 0.000 8.7 6 1
02/25/06 6:28 a -8.3 -8.3 -8.3 --- --- 5.2 NNW 0.09 6.1 -13.1 --- --- 722.8 0.019 0.000 8.7 6 1
02/25/06 6:29 a -8.3 -8.3 -8.3 --- --- 4.3 NNW 0.07 5.2 -12.5 --- --- 722.7 0.019 0.000 8.7 6 1
02/25/06 6:30 a -8.3 -8.3 -8.3 --- --- 5.2 NW 0.09 6.1 -13.1 --- --- 722.7 0.018 0.000 8.7 6 1
02/25/06 6:31 a -8.1 -8.0 -8.2 --- --- 4.3 NW 0.07 6.1 -12.3 --- --- 722.8 0.018 0.000 8.8 6 1
02/25/06 6:32 a -8.0 -8.0 -8.1 --- --- 5.2 NW 0.09 6.1 -12.7 --- --- 722.7 0.018 0.000 8.8 6 1
02/25/06 6:33 a -8.1 -8.0 -8.1 --- --- 4.3 WNW 0.07 6.1 -12.2 --- --- 722.7 0.018 0.000 8.8 6 1
02/25/06 6:34 a -8.1 -8.0 -8.1 --- --- 4.3 WNW 0.07 5.2 -12.2 --- --- 722.7 0.018 0.000 8.8 6 1
02/25/06 6:35 a -7.9 -7.9 -8.0 --- --- 5.2 WNW 0.09 6.1 -12.7 --- --- 722.7 0.018 0.000 8.8 6 1
02/25/06 6:36 a -7.8 -7.8 -7.9 --- --- 5.2 W 0.09 6.1 -12.6 --- --- 722.7 0.018 0.000 8.8 6 1
02/25/06 6:37 a -7.8 -7.8 -7.8 --- --- 5.2 W 0.09 5.2 -12.4 --- --- 722.8 0.018 0.000 8.8 6 1
02/25/06 6:38 a -7.8 -7.8 -7.8 --- --- 5.2 W 0.09 6.1 -12.6 --- --- 722.7 0.018 0.000 8.9 6 1
02/25/06 6:39 a -7.8 -7.7 -7.8 --- --- 4.3 W 0.07 5.2 -11.9 --- --- 722.8 0.018 0.000 8.9 6 1
02/25/06 6:40 a -7.7 -7.7 -7.7 --- --- 4.3 W 0.07 5.2 -11.7 --- --- 722.8 0.018 0.000 8.9 6 1
02/25/06 6:41 a -7.6 -7.6 -7.7 --- --- 5.2 W 0.09 5.2 -12.3 --- --- 722.8 0.018 0.000 8.9 6 1
02/25/06 6:42 a -7.6 -7.6 -7.6 --- --- 5.2 W 0.09 6.1 -12.2 --- --- 722.8 0.018 0.000 8.9 6 1
02/25/06 6:43 a -7.5 -7.5 -7.6 --- --- 5.2 W 0.09 6.1 -12.1 --- --- 722.8 0.018 0.000 8.9 6 1
02/25/06 6:44 a -7.4 -7.4 -7.4 --- --- 6.1 W 0.10 7.0 -12.6 --- --- 722.8 0.018 0.000 9.0 6 1
02/25/06 6:45 a -7.4 -7.4 -7.4 --- --- 6.1 W 0.10 7.8 -12.6 --- --- 722.7 0.018 0.000 9.0 6 1
02/25/06 6:46 a -7.4 -7.4 -7.4 --- --- 7.0 W 0.12 7.8 -13.0 --- --- 722.8 0.018 0.000 9.1 6 1
02/25/06 6:47 a -7.4 -7.4 -7.4 --- --- 7.0 W 0.12 7.8 -13.0 --- --- 722.8 0.018 0.000 9.1 6 1
02/25/06 6:48 a -7.4 -7.4 -7.4 --- --- 7.0 W 0.12 7.8 -13.1 --- --- 722.8 0.018 0.000 9.1 6 1
02/25/06 6:49 a -7.4 -7.4 -7.4 --- --- 6.1 W 0.10 7.0 -12.5 --- --- 722.8 0.018 0.000 9.1 6 1
02/25/06 6:50 a -7.4 -7.4 -7.4 --- --- 6.1 W 0.10 7.0 -12.5 --- --- 722.8 0.018 0.000 9.1 6 1
02/25/06 6:51 a -7.4 -7.3 -7.4 --- --- 4.3 W 0.07 6.1 -11.4 --- --- 722.8 0.018 0.000 9.2 6 1
02/25/06 6:52 a -7.3 -7.3 -7.3 --- --- 7.0 W 0.12 8.7 -12.9 --- --- 722.9 0.018 0.000 9.2 6 1
02/25/06 6:53 a -7.3 -7.3 -7.4 --- --- 6.1 W 0.10 7.8 -12.4 --- --- 722.8 0.018 0.000 9.2 6 1
02/25/06 6:54 a -7.3 -7.3 -7.3 --- --- 6.1 W 0.10 7.0 -12.4 --- --- 722.9 0.018 0.000 9.2 6 1
02/25/06 6:55 a -7.3 -7.3 -7.3 --- --- 7.0 W 0.12 7.0 -12.9 --- --- 722.9 0.018 0.000 9.3 6 1
02/25/06 6:56 a -7.3 -7.3 -7.4 --- --- 7.0 W 0.12 7.8 -12.9 --- --- 722.8 0.018 0.000 9.3 6 1
02/25/06 6:57 a -7.3 -7.3 -7.4 --- --- 6.1 W 0.10 7.0 -12.4 --- --- 722.8 0.018 0.000 9.3 6 1
02/25/06 6:58 a -7.4 -7.4 -7.4 --- --- 7.0 W 0.12 7.8 -13.0 --- --- 722.9 0.018 0.000 9.3 6 1
02/25/06 6:59 a -7.4 -7.4 -7.4 --- --- 7.0 W 0.12 7.8 -13.0 --- --- 722.9 0.018 0.000 9.3 6 1
02/25/06 7:00 a -7.4 -7.4 -7.4 --- --- 7.0 W 0.12 7.8 -13.1 --- --- 723.0 0.018 0.000 9.3 6 1
02/25/06 7:01 a -7.4 -7.4 -7.4 --- --- 6.1 WNW 0.10 6.1 -12.6 --- --- 723.0 0.018 0.000 9.3 6 1
02/25/06 7:02 a -7.4 -7.4 -7.4 --- --- 5.2 WNW 0.09 6.1 -12.1 --- --- 722.9 0.018 0.000 9.3 6 1
02/25/06 7:03 a -7.4 -7.4 -7.4 --- --- 6.1 W 0.10 7.0 -12.6 --- --- 722.9 0.018 0.000 9.4 6 1
02/25/06 7:04 a -7.4 -7.4 -7.4 --- --- 6.1 W 0.10 7.0 -12.6 --- --- 722.9 0.018 0.000 9.4 6 1
02/25/06 7:05 a -7.4 -7.4 -7.4 --- --- 7.0 W 0.12 7.8 -13.1 --- --- 722.9 0.018 0.000 9.4 6 1
02/25/06 7:06 a -7.5 -7.4 -7.5 --- --- 6.1 W 0.10 7.0 -12.7 --- --- 722.9 0.018 0.000 9.4 6 1
02/25/06 7:07 a -7.5 -7.5 -7.5 --- --- 6.1 W 0.10 7.0 -12.7 --- --- 722.9 0.018 0.000 9.4 6 1
02/25/06 7:08 a -7.6 -7.5 -7.6 --- --- 5.2 W 0.09 6.1 -12.2 --- --- 723.0 0.018 0.000 9.4 6 1
02/25/06 7:09 a -7.6 -7.6 -7.6 --- --- 5.2 W 0.09 6.1 -12.2 --- --- 723.0 0.018 0.000 9.4 6 1
02/25/06 7:10 a -7.7 -7.7 -7.8 --- --- 5.2 W 0.09 6.1 -12.4 --- --- 723.0 0.018 0.000 9.4 6 1
02/25/06 7:11 a -7.9 -7.8 -8.1 --- --- 5.2 W 0.09 7.0 -12.6 --- --- 722.9 0.018 0.000 9.4 6 1
02/25/06 7:12 a -8.1 -8.1 -8.2 --- --- 5.2 W 0.09 6.1 -12.9 --- --- 723.0 0.018 0.000 9.4 6 1
02/25/06 7:13 a -8.3 -8.2 -8.3 --- --- 6.1 W 0.10 7.0 -13.6 --- --- 723.0 0.018 0.000 9.4 6 1
02/25/06 7:14 a -8.4 -8.4 -8.6 --- --- 5.2 WSW 0.09 6.1 -13.3 --- --- 722.9 0.019 0.000 9.4 6 1
02/25/06 7:15 a -8.6 -8.6 -8.6 --- --- 5.2 W 0.09 7.0 -13.4 --- --- 723.0 0.019 0.000 9.4 6 1
02/25/06 7:16 a -8.7 -8.7 -8.8 --- --- 6.1 W 0.10 7.0 -14.1 --- --- 723.0 0.019 0.000 9.4 6 1
02/25/06 7:17 a -8.8 -8.8 -8.8 --- --- 5.2 W 0.09 6.1 -13.7 --- --- 723.0 0.019 0.000 9.4 6 1
02/25/06 7:18 a -8.8 -8.8 -8.8 --- --- 5.2 W 0.09 6.1 -13.7 --- --- 722.9 0.019 0.000 9.4 6 1
02/25/06 7:19 a -8.8 -8.8 -8.8 --- --- 6.1 W 0.10 7.0 -14.2 --- --- 723.0 0.019 0.000 9.4 6 1
02/25/06 7:20 a -8.8 -8.7 -8.8 --- --- 5.2 W 0.09 7.0 -13.7 --- --- 723.1 0.019 0.000 9.3 6 1
02/25/06 7:21 a -8.7 -8.7 -8.8 --- --- 6.1 W 0.10 7.8 -14.1 --- --- 723.0 0.019 0.000 9.3 6 1
02/25/06 7:22 a -8.8 -8.8 -8.8 --- --- 5.2 W 0.09 7.8 -13.7 --- --- 723.0 0.019 0.000 9.3 6 1
02/25/06 7:23 a -8.8 -8.8 -8.9 --- --- 5.2 W 0.09 7.0 -13.7 --- --- 723.1 0.019 0.000 9.3 6 1
02/25/06 7:24 a -8.9 -8.9 -8.9 --- --- 5.2 W 0.09 7.0 -13.8 --- --- 723.0 0.019 0.000 9.3 6 1
02/25/06 7:25 a -8.9 -8.9 -9.0 --- --- 5.2 W 0.09 6.1 -13.8 --- --- 723.0 0.019 0.000 9.3 6 1
02/25/06 7:26 a -9.0 -9.0 -9.0 --- --- 5.2 W 0.09 6.1 -13.9 --- --- 723.1 0.019 0.000 9.3 6 1
02/25/06 7:27 a -9.0 -9.0 -9.0 --- --- 4.3 W 0.07 6.1 -13.3 --- --- 723.1 0.019 0.000 9.3 6 1
02/25/06 7:28 a -9.0 -9.0 -9.0 --- --- 5.2 W 0.09 6.1 -13.9 --- --- 723.0 0.019 0.000 9.3 6 1
02/25/06 7:29 a -9.0 -9.0 -9.0 --- --- 4.3 W 0.07 5.2 -13.3 --- --- 723.1 0.019 0.000 9.3 6 1
02/25/06 7:30 a -9.1 -9.0 -9.1 --- --- 3.5 W 0.06 5.2 -12.7 --- --- 723.1 0.019 0.000 9.3 6 1
02/25/06 7:31 a -9.1 -9.1 -9.1 --- --- 4.3 W 0.07 5.2 -13.4 --- --- 723.2 0.019 0.000 9.3 6 1
02/25/06 7:32 a -9.1 -9.1 -9.1 --- --- 4.3 W 0.07 5.2 -13.4 --- --- 723.2 0.019 0.000 9.3 6 1
02/25/06 7:33 a -9.1 -9.1 -9.1 --- --- 3.5 W 0.06 4.3 -12.7 --- --- 723.2 0.019 0.000 9.3 6 1
02/25/06 7:34 a -9.1 -9.1 -9.1 --- --- 4.3 W 0.07 5.2 -13.4 --- --- 723.1 0.019 0.000 9.3 6 1
02/25/06 7:35 a -9.1 -9.1 -9.1 --- --- 2.6 W 0.04 3.5 -11.7 --- --- 723.2 0.019 0.000 9.3 6 1
02/25/06 7:36 a -9.1 -9.1 -9.1 --- --- 3.5 W 0.06 4.3 -12.7 --- --- 723.1 0.019 0.000 9.3 6 1
02/25/06 7:37 a -9.0 -9.0 -9.1 --- --- 4.3 W 0.07 5.2 -13.3 --- --- 723.2 0.019 0.000 9.3 6 1
02/25/06 7:38 a -9.0 -8.9 -9.0 --- --- 4.3 W 0.07 5.2 -13.3 --- --- 723.1 0.019 0.000 9.2 6 1
02/25/06 7:39 a -8.9 -8.9 -9.0 --- --- 4.3 W 0.07 6.1 -13.2 --- --- 723.1 0.019 0.000 9.2 6 1
02/25/06 7:40 a -8.9 -8.9 -8.9 --- --- 5.2 W 0.09 6.1 -13.8 --- --- 723.2 0.019 0.000 9.2 6 1
02/25/06 7:41 a -8.9 -8.9 -8.9 --- --- 5.2 W 0.09 6.1 -13.8 --- --- 723.2 0.019 0.000 9.2 6 1
02/25/06 7:42 a -8.9 -8.9 -8.9 --- --- 4.3 W 0.07 5.2 -13.2 --- --- 723.2 0.019 0.000 9.2 6 1
02/25/06 7:43 a -8.9 -8.9 -8.9 --- --- 3.5 W 0.06 5.2 -12.4 --- --- 723.3 0.019 0.000 9.2 6 1
02/25/06 7:44 a -8.9 -8.9 -8.9 --- --- 4.3 W 0.07 5.2 -13.2 --- --- 723.3 0.019 0.000 9.2 6 1
02/25/06 7:45 a -8.9 -8.8 -8.9 --- --- 4.3 W 0.07 6.1 -13.2 --- --- 723.3 0.019 0.000 9.2 6 1
02/25/06 7:46 a -8.8 -8.8 -8.8 --- --- 5.2 W 0.09 6.1 -13.7 --- --- 723.2 0.019 0.000 9.2 6 1
02/25/06 7:47 a -8.8 -8.8 -8.8 --- --- 4.3 W 0.07 6.1 -13.1 --- --- 723.3 0.019 0.000 9.2 6 1
02/25/06 7:48 a -8.8 -8.8 -8.8 --- --- 5.2 W 0.09 6.1 -13.7 --- --- 723.3 0.019 0.000 9.2 6 1
02/25/06 7:49 a -8.8 -8.8 -8.8 --- --- 3.5 W 0.06 6.1 -12.3 --- --- 723.3 0.019 0.000 9.2 6 1
02/25/06 7:50 a -8.8 -8.8 -8.8 --- --- 4.3 WSW 0.07 5.2 -13.1 --- --- 723.3 0.019 0.000 9.2 6 1
02/25/06 7:51 a -8.8 -8.8 -8.8 --- --- 4.3 WSW 0.07 6.1 -13.1 --- --- 723.3 0.019 0.000 9.2 6 1
02/25/06 7:52 a -8.8 -8.8 -8.8 --- --- 3.5 WSW 0.06 4.3 -12.4 --- --- 723.3 0.019 0.000 9.2 6 1
02/25/06 7:53 a -8.9 -8.8 -8.9 --- --- 4.3 WSW 0.07 5.2 -13.2 --- --- 723.3 0.019 0.000 9.2 6 1
02/25/06 7:54 a -8.9 -8.9 -8.9 --- --- 3.5 WSW 0.06 4.3 -12.5 --- --- 723.4 0.019 0.000 9.2 6 1
02/25/06 7:55 a -8.9 -8.9 -9.0 --- --- 3.5 WSW 0.06 4.3 -12.5 --- --- 723.4 0.019 0.000 9.2 6 1
02/25/06 7:56 a -9.0 -9.0 -9.1 --- --- 3.5 WSW 0.06 4.3 -12.6 --- --- 723.4 0.019 0.000 9.2 6 1
02/25/06 7:57 a -9.1 -9.0 -9.1 --- --- 1.7 WSW 0.03 3.5 -10.5 --- --- 723.4 0.019 0.000 9.2 6 1
02/25/06 7:58 a -9.1 -9.1 -9.1 --- --- 2.6 WSW 0.04 3.5 -11.7 --- --- 723.4 0.019 0.000 9.2 6 1
02/25/06 7:59 a -9.1 -9.1 -9.1 --- --- 0.9 WSW 0.01 1.7 -9.1 --- --- 723.5 0.019 0.000 9.2 6 1
02/25/06 8:00 a -9.1 -9.1 -9.1 --- --- 2.6 WSW 0.04 3.5 -11.8 --- --- 723.5 0.019 0.000 9.2 6 1
02/25/06 8:01 a -9.1 -9.1 -9.1 --- --- 2.6 WSW 0.04 3.5 -11.7 --- --- 723.6 0.019 0.000 9.2 6 1
02/25/06 8:02 a -9.1 -9.1 -9.1 --- --- 1.7 WSW 0.03 2.6 -10.5 --- --- 723.5 0.019 0.000 9.2 6 1
02/25/06 8:03 a -9.1 -9.1 -9.1 --- --- 0.9 WSW 0.01 1.7 -9.1 --- --- 723.6 0.019 0.000 9.2 6 1
02/25/06 8:04 a -9.1 -9.1 -9.1 --- --- 0.9 WSW 0.01 0.9 -9.1 --- --- 723.6 0.019 0.000 9.2 6 1
02/25/06 8:05 a -9.1 -9.0 -9.1 --- --- 0.9 WSW 0.01 2.6 -9.1 --- --- 723.5 0.019 0.000 9.2 6 1
02/25/06 8:06 a -9.0 -9.0 -9.1 --- --- 2.6 WSW 0.04 3.5 -11.7 --- --- 723.5 0.019 0.000 9.2 6 1
02/25/06 8:07 a -9.1 -9.0 -9.1 --- --- 2.6 WSW 0.04 3.5 -11.7 --- --- 723.4 0.019 0.000 9.2 6 1
02/25/06 8:08 a -9.1 -9.1 -9.1 --- --- 2.6 WSW 0.04 3.5 -11.7 --- --- 723.6 0.019 0.000 9.2 6 1
02/25/06 8:09 a -9.1 -9.1 -9.1 --- --- 3.5 WSW 0.06 4.3 -12.7 --- --- 723.6 0.019 0.000 9.2 6 1
02/25/06 8:10 a -9.1 -9.1 -9.1 --- --- 3.5 SW 0.06 4.3 -12.7 --- --- 723.6 0.019 0.000 9.2 6 1
02/25/06 8:11 a -9.1 -9.1 -9.1 --- --- 2.6 SW 0.04 5.2 -11.8 --- --- 723.6 0.019 0.000 9.2 6 1
02/25/06 8:12 a -9.1 -9.1 -9.1 --- --- 1.7 SSW 0.03 2.6 -10.6 --- --- 723.6 0.019 0.000 9.2 6 1
02/25/06 8:13 a -9.1 -9.1 -9.2 --- --- 2.6 SSW 0.04 4.3 -11.8 --- --- 723.6 0.019 0.000 9.2 6 1
02/25/06 8:14 a -9.2 -9.1 -9.2 --- --- 4.3 SW 0.07 6.1 -13.5 --- --- 723.7 0.019 0.000 9.2 6 1
02/25/06 8:15 a -9.2 -9.2 -9.2 --- --- 4.3 WSW 0.07 5.2 -13.5 --- --- 723.5 0.019 0.000 9.2 6 1
02/25/06 8:16 a -9.2 -9.2 -9.3 --- --- 4.3 WSW 0.07 6.1 -13.6 --- --- 723.4 0.019 0.000 9.2 6 1
02/25/06 8:17 a -9.3 -9.3 -9.3 --- --- 6.1 W 0.10 7.0 -14.8 --- --- 723.5 0.019 0.000 9.2 6 1
02/25/06 8:18 a -9.3 -9.3 -9.4 --- --- 5.2 W 0.09 7.0 -14.3 --- --- 723.5 0.019 0.000 9.2 6 1
02/25/06 8:19 a -9.4 -9.4 -9.4 --- --- 5.2 W 0.09 6.1 -14.4 --- --- 723.4 0.019 0.000 9.2 6 1
02/25/06 8:20 a -9.4 -9.4 -9.5 --- --- 6.1 WSW 0.10 7.8 -15.0 --- --- 723.4 0.019 0.000 9.2 6 1
02/25/06 8:21 a -9.5 -9.5 -9.6 --- --- 6.1 SW 0.10 8.7 -15.1 --- --- 723.4 0.019 0.000 9.2 6 1
02/25/06 8:22 a -9.6 -9.6 -9.6 --- --- 4.3 SW 0.07 5.2 -14.0 --- --- 723.4 0.019 0.000 9.2 6 1
02/25/06 8:23 a -9.6 -9.6 -9.6 --- --- 3.5 WSW 0.06 4.3 -13.3 --- --- 723.5 0.019 0.000 9.2 6 1
02/25/06 8:24 a -9.6 -9.6 -9.7 --- --- 4.3 WSW 0.07 5.2 -14.0 --- --- 723.6 0.019 0.000 9.2 6 1
02/25/06 8:25 a -9.7 -9.6 -9.7 --- --- 6.1 SW 0.10 7.8 -15.3 --- --- 723.6 0.019 0.000 9.2 6 1
02/25/06 8:26 a -9.7 -9.7 -9.7 --- --- 5.2 SW 0.09 7.0 -14.7 --- --- 723.5 0.019 0.000 9.2 6 1
02/25/06 8:27 a -9.7 -9.7 -9.7 --- --- 4.3 SSW 0.07 6.1 -14.2 --- --- 723.6 0.019 0.000 9.2 6 1
02/25/06 8:28 a -9.7 -9.7 -9.7 --- --- 4.3 SSW 0.07 5.2 -14.2 --- --- 723.6 0.019 0.000 9.2 6 1
02/25/06 8:29 a -9.7 -9.7 -9.7 --- --- 3.5 SSW 0.06 4.3 -13.4 --- --- 723.6 0.019 0.000 9.2 6 1
02/25/06 8:30 a -9.7 -9.7 -9.8 --- --- 4.3 SSW 0.07 5.2 -14.2 --- --- 723.7 0.019 0.000 9.2 6 1
02/25/06 8:31 a -9.7 -9.7 -9.8 --- --- 5.2 SW 0.09 7.0 -14.8 --- --- 723.7 0.019 0.000 9.2 6 1
02/25/06 8:32 a -9.7 -9.7 -9.8 --- --- 5.2 SW 0.09 6.1 -14.8 --- --- 723.7 0.019 0.000 9.2 6 1
02/25/06 8:33 a -9.8 -9.8 -9.8 --- --- 5.2 SW 0.09 7.0 -14.8 --- --- 723.7 0.020 0.000 9.2 6 1
02/25/06 8:34 a -9.8 -9.8 -9.8 --- --- 6.1 SW 0.10 7.8 -15.4 --- --- 723.6 0.020 0.000 9.2 6 1
02/25/06 8:35 a -9.8 -9.8 -9.8 --- --- 5.2 WSW 0.09 7.0 -14.9 --- --- 723.6 0.020 0.000 9.2 6 1
02/25/06 8:36 a -9.8 -9.8 -9.9 --- --- 5.2 SW 0.09 6.1 -14.9 --- --- 723.6 0.020 0.000 9.2 6 1
02/25/06 8:37 a -9.9 -9.8 -9.9 --- --- 5.2 SW 0.09 6.1 -15.0 --- --- 723.7 0.020 0.000 9.2 6 1
02/25/06 8:38 a -9.9 -9.9 -9.9 --- --- 6.1 SW 0.10 7.8 -15.6 --- --- 723.6 0.020 0.000 9.2 6 1
02/25/06 8:39 a -9.9 -9.9 -9.9 --- --- 6.1 SW 0.10 7.0 -15.6 --- --- 723.7 0.020 0.000 9.2 6 1
02/25/06 8:40 a -9.9 -9.9 -9.9 --- --- 4.3 SW 0.07 6.1 -14.4 --- --- 723.7 0.020 0.000 9.2 6 1
02/25/06 8:41 a -10.0 -10.0 -10.0 --- --- 4.3 SW 0.07 6.1 -14.5 --- --- 723.7 0.020 0.000 9.2 6 1
02/25/06 8:42 a -10.0 -10.0 -10.0 --- --- 7.0 SW 0.12 7.8 -16.2 --- --- 723.6 0.020 0.000 9.2 6 1
02/25/06 8:43 a -10.1 -10.0 -10.1 --- --- 6.1 SW 0.10 7.8 -15.7 --- --- 723.7 0.020 0.000 9.2 6 1
02/25/06 8:44 a -10.1 -10.1 -10.1 --- --- 6.1 SW 0.10 7.8 -15.7 --- --- 723.8 0.020 0.000 9.3 6 1
02/25/06 8:45 a -10.1 -10.1 -10.1 --- --- 7.0 SW 0.12 7.8 -16.2 --- --- 723.7 0.020 0.000 9.3 6 1
02/25/06 8:46 a -10.1 -10.1 -10.1 --- --- 7.8 SW 0.13 8.7 -16.7 --- --- 723.8 0.020 0.000 9.2 6 1
02/25/06 8:47 a -10.1 -10.1 -10.2 --- --- 7.8 WSW 0.13 8.7 -16.7 --- --- 723.7 0.020 0.000 9.2 6 1
02/25/06 8:48 a -10.2 -10.1 -10.2 --- --- 6.1 SW 0.10 7.8 -15.9 --- --- 723.8 0.020 0.000 9.2 6 1
02/25/06 8:49 a -10.2 -10.2 -10.2 --- --- 5.2 SW 0.09 8.7 -15.3 --- --- 723.8 0.020 0.000 9.3 6 1
02/25/06 8:50 a -10.2 -10.2 -10.2 --- --- 6.1 SW 0.10 7.8 -15.9 --- --- 723.8 0.020 0.000 9.3 6 1
02/25/06 8:51 a -10.2 -10.2 -10.2 --- --- 6.1 SW 0.10 7.8 -15.9 --- --- 723.8 0.020 0.000 9.3 6 1
02/25/06 8:52 a -10.2 -10.2 -10.2 --- --- 7.0 SW 0.12 8.7 -16.4 --- --- 723.8 0.020 0.000 9.3 6 1
02/25/06 8:53 a -10.2 -10.2 -10.3 --- --- 7.8 SW 0.13 8.7 -16.9 --- --- 723.9 0.020 0.000 9.3 6 1
02/25/06 8:54 a -10.3 -10.2 -10.3 --- --- 7.0 SW 0.12 8.7 -16.5 --- --- 723.8 0.020 0.000 9.3 6 1
02/25/06 8:55 a -10.3 -10.2 -10.3 --- --- 7.8 SW 0.13 8.7 -16.9 --- --- 723.8 0.020 0.000 9.3 6 1
02/25/06 8:56 a -10.3 -10.3 -10.3 --- --- 7.0 SW 0.12 8.7 -16.5 --- --- 723.8 0.020 0.000 9.3 6 1
02/25/06 8:57 a -10.3 -10.3 -10.3 --- --- 7.0 SW 0.12 8.7 -16.5 --- --- 723.8 0.020 0.000 9.2 6 1
02/25/06 8:58 a -10.3 -10.3 -10.3 --- --- 5.2 SW 0.09 6.1 -15.4 --- --- 723.8 0.020 0.000 9.3 6 1
02/25/06 8:59 a -10.3 -10.3 -10.3 --- --- 5.2 SW 0.09 7.0 -15.5 --- --- 723.9 0.020 0.000 9.2 6 1
02/25/06 9:00 a -10.3 -10.3 -10.3 --- --- 6.1 SW 0.10 7.8 -16.1 --- --- 723.8 0.020 0.000 9.3 6 1
02/25/06 9:01 a -10.3 -10.3 -10.3 --- --- 7.8 SW 0.13 10.4 -17.0 --- --- 723.8 0.020 0.000 9.3 6 1
02/25/06 9:02 a -10.3 -10.3 -10.4 --- --- 7.8 SW 0.13 9.6 -17.0 --- --- 723.7 0.020 0.000 9.3 6 1
02/25/06 9:03 a -10.4 -10.3 -10.4 --- --- 7.0 SW 0.12 8.7 -16.6 --- --- 723.8 0.020 0.000 9.3 6 1
02/25/06 9:04 a -10.4 -10.4 -10.4 --- --- 7.0 SW 0.12 8.7 -16.6 --- --- 723.9 0.020 0.000 9.3 6 1
02/25/06 9:05 a -10.4 -10.4 -10.4 --- --- 7.8 SW 0.13 8.7 -17.1 --- --- 723.8 0.020 0.000 9.3 6 1
02/25/06 9:07 a -10.4 -10.4 -10.4 --- --- 7.0 SW 0.12 7.8 -16.6 --- --- 723.8 0.020 0.000 9.3 6 1
02/25/06 9:08 a -10.4 -10.4 -10.4 --- --- 7.0 SW 0.12 7.8 -16.6 --- --- 723.8 0.020 0.000 9.3 6 1
02/25/06 9:09 a -10.4 -10.4 -10.4 --- --- 7.8 SW 0.13 10.4 -17.1 --- --- 723.8 0.020 0.000 9.3 6 1
02/25/06 9:10 a -10.4 -10.4 -10.5 --- --- 6.1 WSW 0.10 8.7 -16.2 --- --- 723.8 0.020 0.000 9.3 6 1
02/25/06 9:11 a -10.5 -10.4 -10.5 --- --- 7.0 SW 0.12 8.7 -16.8 --- --- 723.7 0.020 0.000 9.3 6 1
02/25/06 9:12 a -10.5 -10.5 -10.5 --- --- 7.8 SW 0.13 7.8 -17.2 --- --- 723.8 0.020 0.000 9.3 6 1
02/25/06 9:13 a -10.5 -10.5 -10.6 --- --- 7.0 SW 0.12 8.7 -16.8 --- --- 723.8 0.020 0.000 9.3 6 1
02/25/06 9:14 a -10.5 -10.5 -10.5 --- --- 7.0 SW 0.12 7.8 -16.8 --- --- 723.8 0.020 0.000 9.3 6 1
02/25/06 9:15 a -10.5 -10.5 -10.6 --- --- 5.2 SW 0.09 6.1 -15.7 --- --- 723.8 0.020 0.000 9.3 6 1
02/25/06 9:16 a -10.5 -10.5 -10.6 --- --- 5.2 SW 0.09 7.8 -15.7 --- --- 723.8 0.020 0.000 9.3 6 1
02/25/06 9:17 a -10.5 -10.5 -10.5 --- --- 5.2 SW 0.09 7.0 -15.7 --- --- 723.9 0.020 0.000 9.3 6 1
02/25/06 9:18 a -10.6 -10.5 -10.6 --- --- 5.2 SW 0.09 6.1 -15.8 --- --- 723.8 0.020 0.000 9.3 6 1
02/25/06 9:19 a -10.6 -10.5 -10.6 --- --- 5.2 SW 0.09 7.0 -15.8 --- --- 723.9 0.020 0.000 9.3 6 1
02/25/06 9:20 a -10.6 -10.5 -10.6 --- --- 4.3 SW 0.07 6.1 -15.1 --- --- 723.8 0.020 0.000 9.3 6 1
02/25/06 9:21 a -10.6 -10.6 -10.6 --- --- 5.2 SW 0.09 7.8 -15.8 --- --- 723.8 0.020 0.000 9.3 6 1
02/25/06 9:22 a -10.6 -10.6 -10.6 --- --- 5.2 SW 0.09 7.0 -15.8 --- --- 723.8 0.020 0.000 9.3 6 1
02/25/06 9:23 a -10.6 -10.6 -10.6 --- --- 6.1 SW 0.10 7.8 -16.3 --- --- 723.9 0.020 0.000 9.3 6 1
02/25/06 9:24 a -10.6 -10.5 -10.6 --- --- 7.0 SSW 0.12 7.8 -16.8 --- --- 723.9 0.020 0.000 9.3 6 1
02/25/06 9:25 a -10.6 -10.6 -10.6 --- --- 5.2 SW 0.09 7.0 -15.8 --- --- 723.9 0.020 0.000 9.3 6 1
02/25/06 9:26 a -10.6 -10.6 -10.6 --- --- 5.2 SSW 0.09 7.0 -15.8 --- --- 723.9 0.020 0.000 9.3 6 1
02/25/06 9:27 a -10.6 -10.6 -10.6 --- --- 4.3 SSW 0.07 6.1 -15.1 --- --- 723.9 0.020 0.000 9.3 6 1
02/25/06 9:28 a -10.6 -10.6 -10.6 --- --- 4.3 SSW 0.07 6.1 -15.1 --- --- 724.0 0.020 0.000 9.3 6 1
02/25/06 9:29 a -10.6 -10.6 -10.6 --- --- 4.3 SSW 0.07 5.2 -15.1 --- --- 724.0 0.020 0.000 9.3 6 1
02/25/06 9:30 a -10.6 -10.6 -10.6 --- --- 5.2 SSW 0.09 7.8 -15.8 --- --- 724.1 0.020 0.000 9.3 6 1
02/25/06 9:31 a -10.6 -10.6 -10.6 --- --- 7.0 SSW 0.12 8.7 -16.9 --- --- 724.0 0.020 0.000 9.3 6 1
02/25/06 9:32 a -10.6 -10.6 -10.6 --- --- 5.2 SSW 0.09 7.0 -15.8 --- --- 724.1 0.020 0.000 9.3 6 1
02/25/06 9:33 a -10.6 -10.6 -10.6 --- --- 5.2 SSW 0.09 6.1 -15.8 --- --- 724.0 0.020 0.000 9.3 6 1
02/25/06 9:34 a -10.6 -10.6 -10.6 --- --- 4.3 SSW 0.07 5.2 -15.2 --- --- 724.1 0.020 0.000 9.3 6 1
02/25/06 9:35 a -10.6 -10.6 -10.6 --- --- 5.2 SSW 0.09 7.0 -15.8 --- --- 724.1 0.020 0.000 9.3 6 1
02/25/06 9:36 a -10.6 -10.6 -10.6 --- --- 5.2 SSW 0.09 7.0 -15.8 --- --- 724.1 0.020 0.000 9.3 6 1
02/25/06 9:37 a -10.6 -10.6 -10.6 --- --- 4.3 SSW 0.07 5.2 -15.1 --- --- 724.0 0.020 0.000 9.3 6 1
02/25/06 9:38 a -10.6 -10.5 -10.6 --- --- 4.3 SSW 0.07 5.2 -15.1 --- --- 724.1 0.020 0.000 9.3 6 1
02/25/06 9:39 a -10.5 -10.5 -10.5 --- --- 4.3 SSW 0.07 5.2 -15.1 --- --- 724.1 0.020 0.000 9.3 6 1
02/25/06 9:40 a -10.5 -10.5 -10.5 --- --- 3.5 SSW 0.06 4.3 -14.3 --- --- 724.1 0.020 0.000 9.3 6 1
02/25/06 9:41 a -10.5 -10.5 -10.5 --- --- 3.5 SSW 0.06 5.2 -14.3 --- --- 724.1 0.020 0.000 9.3 6 1
02/25/06 9:42 a -10.5 -10.5 -10.5 --- --- 4.3 SSW 0.07 7.0 -15.1 --- --- 724.1 0.020 0.000 9.3 6 1
02/25/06 9:43 a -10.5 -10.5 -10.5 --- --- 4.3 SSW 0.07 6.1 -15.1 --- --- 724.1 0.020 0.000 9.3 6 1
02/25/06 9:44 a -10.5 -10.5 -10.6 --- --- 4.3 SSW 0.07 6.1 -15.1 --- --- 724.2 0.020 0.000 9.3 6 1
02/25/06 9:45 a -10.6 -10.5 -10.6 --- --- 4.3 SSW 0.07 5.2 -15.1 --- --- 724.2 0.020 0.000 9.3 6 1
02/25/06 9:46 a -10.6 -10.6 -10.6 --- --- 4.3 SSW 0.07 5.2 -15.1 --- --- 724.2 0.020 0.000 9.3 6 1
02/25/06 9:47 a -10.6 -10.6 -10.6 --- --- 5.2 SSW 0.09 6.1 -15.8 --- --- 724.2 0.020 0.000 9.3 6 1
02/25/06 9:48 a -10.6 -10.6 -10.7 --- --- 5.2 SSW 0.09 7.8 -15.8 --- --- 724.2 0.020 0.000 9.3 6 1
02/25/06 9:49 a -10.7 -10.6 -10.7 --- --- 4.3 SSW 0.07 7.0 -15.3 --- --- 724.2 0.020 0.000 9.3 6 1
02/25/06 9:50 a -10.7 -10.7 -10.8 --- --- 5.2 SW 0.09 7.8 -16.0 --- --- 724.2 0.020 0.000 9.3 6 1
02/25/06 9:51 a -10.7 -10.7 -10.8 --- --- 6.1 SSW 0.10 7.0 -16.6 --- --- 724.1 0.020 0.000 9.3 6 1
02/25/06 9:52 a -10.8 -10.8 -10.8 --- --- 5.2 SSW 0.09 7.8 -16.1 --- --- 724.1 0.020 0.000 9.3 6 1
02/25/06 9:53 a -10.8 -10.8 -10.8 --- --- 5.2 SSW 0.09 7.0 -16.1 --- --- 724.2 0.020 0.000 9.3 6 1
02/25/06 9:54 a -10.8 -10.8 -10.9 --- --- 4.3 SSW 0.07 5.2 -15.4 --- --- 724.2 0.020 0.000 9.3 6 1
02/25/06 9:55 a -10.9 -10.9 -10.9 --- --- 4.3 SSW 0.07 6.1 -15.5 --- --- 724.2 0.020 0.000 9.3 6 1
02/25/06 9:56 a -10.9 -10.9 -10.9 --- --- 4.3 SSW 0.07 5.2 -15.6 --- --- 724.2 0.020 0.000 9.3 6 1
02/25/06 9:57 a -11.0 -10.9 -11.0 --- --- 4.3 SSW 0.07 5.2 -15.7 --- --- 724.1 0.020 0.000 9.3 6 1
02/25/06 9:58 a -11.0 -11.0 -11.1 --- --- 3.5 SSW 0.06 5.2 -14.9 --- --- 724.2 0.020 0.000 9.3 6 1
02/25/06 9:59 a -11.1 -11.1 -11.1 --- --- 4.3 SSW 0.07 6.1 -15.7 --- --- 724.2 0.020 0.000 9.3 6 1
02/25/06 10:00 a -11.1 -11.1 -11.1 --- --- 4.3 SSW 0.07 4.3 -15.8 --- --- 724.2 0.020 0.000 9.3 6 1
02/25/06 10:01 a -11.2 -11.1 -11.2 --- --- 3.5 SSW 0.06 4.3 -15.1 --- --- 724.3 0.020 0.000 9.3 6 1
02/25/06 10:02 a -11.2 -11.2 -11.2 --- --- 2.6 SSW 0.04 3.5 -14.2 --- --- 724.3 0.021 0.000 9.3 6 1
02/25/06 10:03 a -11.2 -11.2 -11.3 --- --- 2.6 SSW 0.04 4.3 -14.2 --- --- 724.3 0.021 0.000 9.3 6 1
02/25/06 10:04 a -11.3 -11.3 -11.3 --- --- 3.5 SSW 0.06 3.5 -15.3 --- --- 724.3 0.021 0.000 9.3 6 1
02/25/06 10:05 a -11.3 -11.3 -11.4 --- --- 3.5 SSW 0.06 4.3 -15.3 --- --- 724.3 0.021 0.000 9.4 6 1
02/25/06 10:06 a -11.4 -11.3 -11.4 --- --- 4.3 SSW 0.07 5.2 -16.1 --- --- 724.3 0.021 0.000 9.4 6 1
02/25/06 10:07 a -11.4 -11.4 -11.4 --- --- 3.5 SSW 0.06 5.2 -15.3 --- --- 724.2 0.021 0.000 9.4 6 1
02/25/06 10:08 a -11.4 -11.4 -11.4 --- --- 3.5 SSW 0.06 5.2 -15.4 --- --- 724.3 0.021 0.000 9.4 6 1
02/25/06 10:09 a -11.4 -11.4 -11.5 --- --- 3.5 SSW 0.06 5.2 -15.4 --- --- 724.3 0.021 0.000 9.4 6 1
02/25/06 10:10 a -11.5 -11.5 -11.5 --- --- 5.2 SSW 0.09 6.1 -16.9 --- --- 724.3 0.021 0.000 9.4 6 1
02/25/06 10:11 a -11.6 -11.6 -11.6 --- --- 4.3 SSW 0.07 6.1 -16.3 --- --- 724.3 0.021 0.000 9.4 6 1
02/25/06 10:12 a -11.6 -11.6 -11.6 --- --- 4.3 SSW 0.07 5.2 -16.3 --- --- 724.3 0.021 0.000 9.4 6 1
02/25/06 10:13 a -11.6 -11.6 -11.6 --- --- 3.5 SSW 0.06 4.3 -15.6 --- --- 724.4 0.021 0.000 9.4 6 1
02/25/06 10:14 a -11.6 -11.6 -11.7 --- --- 3.5 SSW 0.06 4.3 -15.6 --- --- 724.4 0.021 0.000 9.4 6 1
02/25/06 10:15 a -11.7 -11.6 -11.7 --- --- 2.6 SSW 0.04 4.3 -14.7 --- --- 724.3 0.021 0.000 9.4 6 1
02/25/06 10:16 a -11.7 -11.7 -11.7 --- --- 3.5 SSW 0.06 3.5 -15.7 --- --- 724.3 0.021 0.000 9.4 6 1
02/25/06 10:17 a -11.7 -11.7 -11.7 --- --- 2.6 SSW 0.04 3.5 -14.8 --- --- 724.4 0.021 0.000 9.4 6 1
02/25/06 10:18 a -11.7 -11.7 -11.8 --- --- 3.5 SSW 0.06 4.3 -15.7 --- --- 724.4 0.021 0.000 9.4 6 1
02/25/06 10:19 a -11.8 -11.7 -11.8 --- --- 3.5 S 0.06 3.5 -15.8 --- --- 724.4 0.021 0.000 9.4 6 1
02/25/06 10:20 a -11.8 -11.8 -11.8 --- --- 2.6 S 0.04 3.5 -14.9 --- --- 724.4 0.021 0.000 9.4 6 1
02/25/06 10:21 a -11.8 -11.8 -11.9 --- --- 1.7 S 0.03 1.7 -13.6 --- --- 724.4 0.021 0.000 9.4 6 1
02/25/06 10:22 a -11.9 -11.9 -11.9 --- --- 1.7 S 0.03 2.6 -13.7 --- --- 724.3 0.021 0.000 9.4 6 1
02/25/06 10:23 a -11.9 -11.9 -11.9 --- --- 1.7 S 0.03 2.6 -13.7 --- --- 724.3 0.021 0.000 9.4 6 1
02/25/06 10:24 a -11.9 -11.9 -12.0 --- --- 1.7 S 0.03 2.6 -13.7 --- --- 724.4 0.021 0.000 9.4 6 1
02/25/06 10:25 a -12.0 -12.0 -12.1 --- --- 1.7 S 0.03 2.6 -13.8 --- --- 724.4 0.021 0.000 9.4 6 1
02/25/06 10:26 a -12.1 -12.1 -12.1 --- --- 2.6 S 0.04 2.6 -15.1 --- --- 724.5 0.021 0.000 9.4 6 1
02/25/06 10:27 a -12.1 -12.1 -12.1 --- --- 1.7 S 0.03 1.7 -13.9 --- --- 724.4 0.021 0.000 9.4 6 1
02/25/06 10:28 a -12.2 -12.1 -12.2 --- --- 2.6 S 0.04 3.5 -15.3 --- --- 724.5 0.021 0.000 9.4 6 1
02/25/06 10:29 a -12.2 -12.2 -12.2 --- --- 2.6 S 0.04 4.3 -15.3 --- --- 724.5 0.021 0.000 9.4 6 1
02/25/06 10:30 a -12.2 -12.2 -12.3 --- --- 3.5 S 0.06 4.3 -16.3 --- --- 724.5 0.021 0.000 9.4 6 1
02/25/06 10:31 a -12.3 -12.3 -12.3 --- --- 2.6 S 0.04 3.5 -15.4 --- --- 724.5 0.021 0.000 9.4 6 1
02/25/06 10:32 a -12.3 -12.3 -12.3 --- --- 2.6 SSE 0.04 4.3 -15.4 --- --- 724.5 0.021 0.000 9.4 6 1
02/25/06 10:33 a -12.4 -12.3 -12.4 --- --- 1.7 SSE 0.03 3.5 -14.2 --- --- 724.5 0.021 0.000 9.4 6 1
02/25/06 10:34 a -12.4 -12.4 -12.4 --- --- 2.6 SSE 0.04 3.5 -15.5 --- --- 724.5 0.021 0.000 9.4 6 1
02/25/06 10:35 a -12.4 -12.4 -12.4 --- --- 2.6 SSE 0.04 3.5 -15.6 --- --- 724.5 0.021 0.000 9.4 6 1
02/25/06 10:36 a -12.5 -12.4 -12.5 --- --- 2.6 SSE 0.04 3.5 -15.6 --- --- 724.5 0.021 0.000 9.4 6 1
02/25/06 10:37 a -12.5 -12.5 -12.6 --- --- 2.6 SSE 0.04 2.6 -15.6 --- --- 724.5 0.021 0.000 9.4 6 1
02/25/06 10:38 a -12.6 -12.6 -12.6 --- --- 3.5 SSE 0.06 4.3 -16.7 --- --- 724.5 0.021 0.000 9.4 6 1
02/25/06 10:39 a -12.6 -12.6 -12.6 --- --- 4.3 SE 0.07 5.2 -17.6 --- --- 724.6 0.021 0.000 9.4 6 1
02/25/06 10:40 a -12.7 -12.6 -12.7 --- --- 4.3 E 0.07 5.2 -17.6 --- --- 724.5 0.022 0.000 9.4 6 1
02/25/06 10:41 a -12.7 -12.7 -12.7 --- --- 3.5 E 0.06 4.3 -16.8 --- --- 724.6 0.022 0.000 9.4 6 1
02/25/06 10:42 a -12.7 -12.7 -12.7 --- --- 3.5 E 0.06 4.3 -16.9 --- --- 724.6 0.022 0.000 9.4 6 1
02/25/06 10:43 a -12.8 -12.8 -12.8 --- --- 3.5 E 0.06 4.3 -16.9 --- --- 724.6 0.022 0.000 9.4 6 1
02/25/06 10:44 a -12.8 -12.8 -12.8 --- --- 3.5 E 0.06 4.3 -17.0 --- --- 724.5 0.022 0.000 9.4 6 1
02/25/06 10:45 a -12.8 -12.8 -12.9 --- --- 3.5 E 0.06 3.5 -17.0 --- --- 724.6 0.022 0.000 9.4 6 1
02/25/06 10:46 a -12.9 -12.8 -12.9 --- --- 2.6 E 0.04 3.5 -16.1 --- --- 724.6 0.022 0.000 9.4 6 1
02/25/06 10:47 a -12.9 -12.9 -12.9 --- --- 2.6 E 0.04 3.5 -16.1 --- --- 724.5 0.022 0.000 9.4 6 1
02/25/06 10:48 a -12.9 -12.9 -13.0 --- --- 2.6 E 0.04 3.5 -16.1 --- --- 724.5 0.022 0.000 9.4 6 1
02/25/06 10:49 a -13.0 -12.9 -13.1 --- --- 2.6 E 0.04 3.5 -16.2 --- --- 724.5 0.022 0.000 9.4 6 1
02/25/06 10:50 a -13.0 -13.0 -13.1 --- --- 2.6 E 0.04 3.5 -16.2 --- --- 724.5 0.022 0.000 9.4 6 1
02/25/06 10:51 a -13.1 -13.1 -13.1 --- --- 1.7 E 0.03 2.6 -14.9 --- --- 724.5 0.022 0.000 9.4 6 1
02/25/06 10:52 a -13.1 -13.1 -13.1 --- --- 2.6 E 0.04 3.5 -16.3 --- --- 724.6 0.022 0.000 9.4 6 1
02/25/06 10:53 a -13.1 -13.1 -13.1 --- --- 2.6 E 0.04 3.5 -16.3 --- --- 724.6 0.022 0.000 9.4 6 1
02/25/06 10:54 a -13.1 -13.1 -13.2 --- --- 2.6 E 0.04 3.5 -16.3 --- --- 724.6 0.022 0.000 9.4 6 1
02/25/06 10:55 a -13.2 -13.1 -13.2 --- --- 1.7 E 0.03 3.5 -15.1 --- --- 724.6 0.022 0.000 9.4 6 1
02/25/06 10:56 a -13.2 -13.2 -13.2 --- --- 2.6 E 0.04 3.5 -16.4 --- --- 724.6 0.022 0.000 9.4 6 1
02/25/06 10:57 a -13.2 -13.2 -13.2 --- --- 2.6 E 0.04 3.5 -16.4 --- --- 724.7 0.022 0.000 9.4 6 1
02/25/06 10:58 a -13.2 -13.2 -13.2 --- --- 2.6 E 0.04 3.5 -16.4 --- --- 724.6 0.022 0.000 9.4 6 1
02/25/06 10:59 a -13.2 -13.2 -13.2 --- --- 2.6 E 0.04 4.3 -16.4 --- --- 724.7 0.022 0.000 9.4 6 1
02/25/06 11:00 a -13.2 -13.2 -13.2 --- --- 3.5 E 0.06 4.3 -17.4 --- --- 724.6 0.022 0.000 9.4 6 1
02/25/06 11:01 a -13.2 -13.2 -13.3 --- --- 2.6 E 0.04 3.5 -16.4 --- --- 724.6 0.022 0.000 9.4 6 1
02/25/06 11:02 a -13.2 -13.2 -13.3 --- --- 1.7 E 0.03 2.6 -15.1 --- --- 724.6 0.022 0.000 9.4 6 1
02/25/06 11:03 a -13.2 -13.2 -13.3 --- --- 1.7 E 0.03 2.6 -15.1 --- --- 724.6 0.022 0.000 9.4 6 1
02/25/06 11:04 a -13.3 -13.2 -13.3 --- --- 2.6 E 0.04 3.5 -16.5 --- --- 724.7 0.022 0.000 9.4 6 1
02/25/06 11:05 a -13.3 -13.2 -13.3 --- --- 2.6 E 0.04 3.5 -16.5 --- --- 724.6 0.022 0.000 9.4 6 1
02/25/06 11:06 a -13.3 -13.2 -13.3 --- --- 1.7 E 0.03 2.6 -15.2 --- --- 724.6 0.022 0.000 9.4 6 1
02/25/06 11:07 a -13.2 -13.2 -13.3 --- --- 2.6 E 0.04 3.5 -16.4 --- --- 724.5 0.022 0.000 9.4 6 1
02/25/06 11:08 a -13.3 -13.2 -13.3 --- --- 1.7 E 0.03 2.6 -15.2 --- --- 724.6 0.022 0.000 9.4 6 1
02/25/06 11:09 a -13.3 -13.2 -13.3 --- --- 1.7 E 0.03 2.6 -15.2 --- --- 724.6 0.022 0.000 9.4 6 1
02/25/06 11:10 a -13.3 -13.2 -13.3 --- --- 2.6 E 0.04 3.5 -16.5 --- --- 724.6 0.022 0.000 9.4 6 1
02/25/06 11:11 a -13.3 -13.2 -13.3 --- --- 3.5 E 0.06 5.2 -17.5 --- --- 724.5 0.022 0.000 9.4 6 1
02/25/06 11:12 a -13.3 -13.3 -13.3 --- --- 3.5 ESE 0.06 4.3 -17.5 --- --- 724.5 0.022 0.000 9.4 6 1
02/25/06 11:13 a -13.3 -13.2 -13.3 --- --- 2.6 E 0.04 3.5 -16.5 --- --- 724.6 0.022 0.000 9.4 6 1
02/25/06 11:14 a -13.3 -13.2 -13.3 --- --- 3.5 E 0.06 4.3 -17.5 --- --- 724.7 0.022 0.000 9.4 6 1
02/25/06 11:15 a -13.3 -13.3 -13.3 --- --- 4.3 ESE 0.07 5.2 -18.3 --- --- 724.7 0.022 0.000 9.4 6 1
02/25/06 11:16 a -13.3 -13.3 -13.3 --- --- 2.6 ESE 0.04 4.3 -16.5 --- --- 724.6 0.022 0.000 9.4 6 1
02/25/06 11:17 a -13.3 -13.3 -13.3 --- --- 3.5 ESE 0.06 5.2 -17.5 --- --- 724.6 0.022 0.000 9.4 6 1
02/25/06 11:18 a -13.3 -13.3 -13.3 --- --- 2.6 ESE 0.04 4.3 -16.5 --- --- 724.7 0.022 0.000 9.4 6 1
02/25/06 11:19 a -13.3 -13.3 -13.3 --- --- 2.6 ESE 0.04 3.5 -16.5 --- --- 724.7 0.022 0.000 9.4 6 1
02/25/06 11:20 a -13.3 -13.3 -13.3 --- --- 1.7 ESE 0.03 3.5 -15.2 --- --- 724.6 0.022 0.000 9.4 6 1
02/25/06 11:21 a -13.3 -13.3 -13.3 --- --- 1.7 ESE 0.03 3.5 -15.2 --- --- 724.7 0.022 0.000 9.4 6 1
02/25/06 11:22 a -13.3 -13.3 -13.3 --- --- 1.7 ESE 0.03 2.6 -15.2 --- --- 724.6 0.022 0.000 9.4 6 1
02/25/06 11:23 a -13.3 -13.3 -13.3 --- --- 1.7 ESE 0.03 2.6 -15.2 --- --- 724.6 0.022 0.000 9.4 6 1
02/25/06 11:24 a -13.3 -13.3 -13.3 --- --- 0.9 ESE 0.01 2.6 -13.3 --- --- 724.6 0.022 0.000 9.4 6 1
02/25/06 11:25 a -13.3 -13.3 -13.4 --- --- 2.6 ESE 0.04 3.5 -16.6 --- --- 724.5 0.022 0.000 9.4 6 1
02/25/06 11:26 a -13.4 -13.3 -13.4 --- --- 1.7 ESE 0.03 2.6 -15.3 --- --- 724.6 0.022 0.000 9.4 6 1
02/25/06 11:27 a -13.4 -13.4 -13.4 --- --- 1.7 ESE 0.03 2.6 -15.3 --- --- 724.6 0.022 0.000 9.4 6 1
02/25/06 11:28 a -13.4 -13.4 -13.4 --- --- 2.6 ESE 0.04 4.3 -16.6 --- --- 724.6 0.022 0.000 9.4 6 1
02/25/06 11:29 a -13.4 -13.4 -13.4 --- --- 2.6 ESE 0.04 3.5 -16.6 --- --- 724.5 0.022 0.000 9.4 6 1
02/25/06 11:30 a -13.4 -13.4 -13.4 --- --- 1.7 ESE 0.03 2.6 -15.3 --- --- 724.7 0.022 0.000 9.4 6 1
02/25/06 11:31 a -13.4 -13.4 -13.4 --- --- 0.9 ESE 0.01 1.7 -13.4 --- --- 724.7 0.022 0.000 9.4 6 1
02/25/06 11:32 a -13.4 -13.4 -13.4 --- --- 1.7 ESE 0.03 2.6 -15.3 --- --- 724.6 0.022 0.000 9.4 6 1
02/25/06 11:33 a -13.4 -13.4 -13.4 --- --- 2.6 ESE 0.04 3.5 -16.7 --- --- 724.7 0.022 0.000 9.4 6 1
02/25/06 11:34 a -13.4 -13.4 -13.4 --- --- 2.6 ESE 0.04 4.3 -16.7 --- --- 724.7 0.022 0.000 9.4 6 1
02/25/06 11:35 a -13.4 -13.4 -13.4 --- --- 2.6 ESE 0.04 3.5 -16.7 --- --- 724.6 0.022 0.000 9.4 6 1
02/25/06 11:36 a -13.4 -13.4 -13.4 --- --- 3.5 ESE 0.06 4.3 -17.7 --- --- 724.6 0.022 0.000 9.4 6 1
02/25/06 11:37 a -13.4 -13.4 -13.4 --- --- 3.5 ESE 0.06 3.5 -17.7 --- --- 724.6 0.022 0.000 9.4 6 1
02/25/06 11:38 a -13.4 -13.4 -13.4 --- --- 2.6 ESE 0.04 3.5 -16.7 --- --- 724.7 0.022 0.000 9.4 6 1
02/25/06 11:39 a -13.4 -13.4 -13.4 --- --- 2.6 ESE 0.04 4.3 -16.7 --- --- 724.7 0.022 0.000 9.4 6 1
02/25/06 11:40 a -13.4 -13.4 -13.4 --- --- 3.5 ESE 0.06 5.2 -17.7 --- --- 724.8 0.022 0.000 9.4 6 1
02/25/06 11:41 a -13.4 -13.4 -13.4 --- --- 4.3 ESE 0.07 6.1 -18.4 --- --- 724.8 0.022 0.000 9.4 6 1
02/25/06 11:42 a -13.4 -13.4 -13.4 --- --- 5.2 E 0.09 6.1 -19.2 --- --- 724.7 0.022 0.000 9.4 6 1
02/25/06 11:43 a -13.4 -13.4 -13.4 --- --- 5.2 E 0.09 7.0 -19.2 --- --- 724.7 0.022 0.000 9.4 6 1
02/25/06 11:44 a -13.4 -13.4 -13.4 --- --- 6.1 ENE 0.10 6.1 -19.8 --- --- 724.7 0.022 0.000 9.4 6 1
02/25/06 11:45 a -13.4 -13.4 -13.4 --- --- 4.3 ENE 0.07 6.1 -18.4 --- --- 724.8 0.022 0.000 9.4 6 1
02/25/06 11:46 a -13.4 -13.4 -13.4 --- --- 3.5 ENE 0.06 4.3 -17.7 --- --- 724.8 0.022 0.000 9.4 6 1
02/25/06 11:47 a -13.4 -13.4 -13.5 --- --- 2.6 E 0.04 3.5 -16.7 --- --- 724.8 0.022 0.000 9.4 6 1
02/25/06 11:48 a -13.5 -13.5 -13.5 --- --- 3.5 E 0.06 3.5 -17.8 --- --- 724.8 0.022 0.000 9.4 6 1
02/25/06 11:49 a -13.5 -13.4 -13.5 --- --- 3.5 E 0.06 3.5 -17.8 --- --- 724.8 0.022 0.000 9.4 6 1
02/25/06 11:50 a -13.5 -13.5 -13.5 --- --- 3.5 E 0.06 3.5 -17.8 --- --- 724.8 0.022 0.000 9.4 6 1
02/25/06 11:51 a -13.5 -13.5 -13.5 --- --- 2.6 E 0.04 3.5 -16.8 --- --- 724.7 0.022 0.000 9.4 6 1
02/25/06 11:52 a -13.5 -13.5 -13.5 --- --- 3.5 E 0.06 4.3 -17.8 --- --- 724.8 0.022 0.000 9.4 6 1
02/25/06 11:53 a -13.5 -13.5 -13.5 --- --- 3.5 E 0.06 4.3 -17.8 --- --- 724.8 0.022 0.000 9.4 6 1
02/25/06 11:54 a -13.5 -13.5 -13.5 --- --- 3.5 E 0.06 3.5 -17.8 --- --- 724.8 0.022 0.000 9.4 6 1
02/25/06 11:55 a -13.5 -13.5 -13.5 --- --- 3.5 E 0.06 4.3 -17.8 --- --- 724.8 0.022 0.000 9.4 6 1
02/25/06 11:56 a -13.5 -13.5 -13.5 --- --- 3.5 ESE 0.06 4.3 -17.8 --- --- 724.8 0.022 0.000 9.4 6 1
02/25/06 11:57 a -13.5 -13.5 -13.5 --- --- 4.3 ESE 0.07 5.2 -18.6 --- --- 724.8 0.022 0.000 9.4 6 1
02/25/06 11:58 a -13.5 -13.5 -13.5 --- --- 3.5 ESE 0.06 4.3 -17.8 --- --- 724.8 0.022 0.000 9.4 6 1
02/25/06 11:59 a -13.5 -13.5 -13.5 --- --- 3.5 ESE 0.06 4.3 -17.8 --- --- 724.8 0.022 0.000 9.4 6 1
02/25/06 12:00 p -13.5 -13.5 -13.5 --- --- 3.5 ESE 0.06 4.3 -17.8 --- --- 724.8 0.022 0.000 9.4 6 1
02/25/06 12:01 p -13.5 -13.4 -13.5 --- --- 3.5 ESE 0.06 4.3 -17.8 --- --- 724.8 0.022 0.000 9.4 6 1
02/25/06 12:02 p -13.4 -13.4 -13.4 --- --- 3.5 ESE 0.06 4.3 -17.7 --- --- 724.8 0.022 0.000 9.4 6 1
02/25/06 12:03 p -13.4 -13.4 -13.4 --- --- 3.5 ESE 0.06 4.3 -17.7 --- --- 724.8 0.022 0.000 9.4 6 1
02/25/06 12:04 p -13.4 -13.4 -13.4 --- --- 3.5 ESE 0.06 4.3 -17.7 --- --- 724.8 0.022 0.000 9.4 6 1
02/25/06 12:05 p -13.4 -13.4 -13.4 --- --- 3.5 ESE 0.06 5.2 -17.7 --- --- 724.9 0.022 0.000 9.4 6 1
02/25/06 12:06 p -13.4 -13.4 -13.4 --- --- 3.5 ESE 0.06 4.3 -17.7 --- --- 724.9 0.022 0.000 9.4 6 1
02/25/06 12:07 p -13.4 -13.4 -13.4 --- --- 3.5 ESE 0.06 4.3 -17.7 --- --- 724.9 0.022 0.000 9.4 6 1
02/25/06 12:08 p -13.4 -13.4 -13.4 --- --- 2.6 ESE 0.04 3.5 -16.6 --- --- 724.9 0.022 0.000 9.4 6 1
02/25/06 12:09 p -13.4 -13.3 -13.4 --- --- 1.7 ESE 0.03 3.5 -15.3 --- --- 724.9 0.022 0.000 9.4 6 1
02/25/06 12:10 p -13.3 -13.3 -13.4 --- --- 1.7 ESE 0.03 2.6 -15.2 --- --- 725.0 0.022 0.000 9.4 6 1
02/25/06 12:11 p -13.3 -13.3 -13.3 --- --- 1.7 ESE 0.03 3.5 -15.2 --- --- 725.0 0.022 0.000 9.4 6 1
02/25/06 12:12 p -13.3 -13.3 -13.3 --- --- 0.9 ESE 0.01 1.7 -13.3 --- --- 724.9 0.022 0.000 9.4 6 1
02/25/06 12:13 p -13.3 -13.3 -13.3 --- --- 1.7 ESE 0.03 2.6 -15.2 --- --- 725.0 0.022 0.000 9.4 6 1
02/25/06 12:14 p -13.3 -13.3 -13.3 --- --- 1.7 ESE 0.03 2.6 -15.2 --- --- 724.9 0.022 0.000 9.4 6 1
02/25/06 12:15 p -13.2 -13.2 -13.3 --- --- 1.7 ESE 0.03 3.5 -15.1 --- --- 725.0 0.022 0.000 9.4 6 1
02/25/06 12:16 p -13.2 -13.2 -13.2 --- --- 1.7 ESE 0.03 3.5 -15.1 --- --- 725.0 0.022 0.000 9.4 6 1
02/25/06 12:17 p -13.2 -13.2 -13.2 --- --- 1.7 ESE 0.03 2.6 -15.1 --- --- 725.0 0.022 0.000 9.4 6 1
02/25/06 12:18 p -13.2 -13.2 -13.2 --- --- 1.7 ESE 0.03 2.6 -15.1 --- --- 724.9 0.022 0.000 9.4 6 1
02/25/06 12:19 p -13.2 -13.2 -13.2 --- --- 2.6 ESE 0.04 3.5 -16.4 --- --- 725.0 0.022 0.000 9.4 6 1
02/25/06 12:20 p -13.2 -13.2 -13.2 --- --- 2.6 ESE 0.04 3.5 -16.4 --- --- 725.0 0.022 0.000 9.4 6 1
02/25/06 12:21 p -13.2 -13.2 -13.2 --- --- 2.6 ESE 0.04 3.5 -16.4 --- --- 725.1 0.022 0.000 9.4 6 1
02/25/06 12:22 p -13.1 -13.1 -13.1 --- --- 2.6 ESE 0.04 4.3 -16.3 --- --- 725.0 0.022 0.000 9.4 6 1
02/25/06 12:23 p -13.1 -13.1 -13.1 --- --- 3.5 ESE 0.06 4.3 -17.3 --- --- 725.0 0.022 0.000 9.4 6 1
02/25/06 12:24 p -13.1 -13.1 -13.1 --- --- 3.5 ESE 0.06 5.2 -17.3 --- --- 725.0 0.022 0.000 9.4 6 1
02/25/06 12:25 p -13.1 -13.1 -13.1 --- --- 2.6 ESE 0.04 3.5 -16.3 --- --- 725.1 0.022 0.000 9.4 6 1
02/25/06 12:26 p -13.1 -13.1 -13.1 --- --- 2.6 ESE 0.04 3.5 -16.3 --- --- 725.0 0.022 0.000 9.4 6 1
02/25/06 12:27 p -13.1 -13.0 -13.1 --- --- 2.6 ESE 0.04 3.5 -16.3 --- --- 725.1 0.022 0.000 9.4 6 1
02/25/06 12:28 p -13.0 -13.0 -13.1 --- --- 2.6 ESE 0.04 2.6 -16.2 --- --- 725.1 0.022 0.000 9.4 6 1
02/25/06 12:29 p -13.0 -12.9 -13.0 --- --- 2.6 ESE 0.04 3.5 -16.2 --- --- 725.1 0.022 0.000 9.4 6 1
02/25/06 12:30 p -12.9 -12.9 -13.0 --- --- 2.6 ESE 0.04 2.6 -16.1 --- --- 725.1 0.022 0.000 9.4 6 1
02/25/06 12:31 p -12.9 -12.9 -12.9 --- --- 1.7 ESE 0.03 1.7 -14.8 --- --- 725.0 0.022 0.000 9.4 6 1
02/25/06 12:32 p -12.9 -12.9 -12.9 --- --- 1.7 ESE 0.03 2.6 -14.8 --- --- 725.0 0.022 0.000 9.4 6 1
02/25/06 12:33 p -12.9 -12.9 -12.9 --- --- 1.7 ESE 0.03 2.6 -14.8 --- --- 725.1 0.022 0.000 9.4 6 1
02/25/06 12:34 p -12.9 -12.9 -12.9 --- --- 2.6 ESE 0.04 2.6 -16.1 --- --- 725.1 0.022 0.000 9.4 6 1
02/25/06 12:35 p -12.9 -12.9 -12.9 --- --- 2.6 ESE 0.04 3.5 -16.1 --- --- 725.1 0.022 0.000 9.4 6 1
02/25/06 12:36 p -12.9 -12.9 -12.9 --- --- 2.6 ESE 0.04 2.6 -16.1 --- --- 725.0 0.022 0.000 9.4 6 1
02/25/06 12:37 p -12.9 -12.9 -12.9 --- --- 1.7 ESE 0.03 2.6 -14.7 --- --- 725.0 0.022 0.000 9.4 6 1
02/25/06 12:38 p -12.8 -12.8 -12.9 --- --- 1.7 ESE 0.03 2.6 -14.7 --- --- 725.2 0.022 0.000 9.4 6 1
02/25/06 12:39 p -12.9 -12.8 -12.9 --- --- 1.7 ESE 0.03 2.6 -14.7 --- --- 725.1 0.022 0.000 9.4 6 1
02/25/06 12:40 p -12.8 -12.8 -12.9 --- --- 2.6 ESE 0.04 3.5 -16.0 --- --- 725.1 0.022 0.000 9.4 6 1
02/25/06 12:41 p -12.8 -12.8 -12.9 --- --- 0.9 ESE 0.01 1.7 -12.8 --- --- 725.1 0.022 0.000 9.4 6 1
02/25/06 12:42 p -12.8 -12.8 -12.8 --- --- 1.7 ESE 0.03 3.5 -14.7 --- --- 725.1 0.022 0.000 9.4 6 1
02/25/06 12:43 p -12.8 -12.8 -12.8 --- --- 3.5 ESE 0.06 3.5 -17.0 --- --- 725.0 0.022 0.000 9.4 6 1
02/25/06 12:44 p -12.8 -12.8 -12.8 --- --- 3.5 ESE 0.06 5.2 -17.0 --- --- 725.1 0.022 0.000 9.4 6 1
02/25/06 12:45 p -12.8 -12.8 -12.8 --- --- 4.3 ESE 0.07 5.2 -17.8 --- --- 725.1 0.022 0.000 9.4 6 1
02/25/06 12:46 p -12.8 -12.8 -12.8 --- --- 3.5 ESE 0.06 5.2 -16.9 --- --- 725.2 0.022 0.000 9.4 6 1
02/25/06 12:47 p -12.8 -12.8 -12.8 --- --- 2.6 E 0.04 4.3 -15.9 --- --- 725.2 0.022 0.000 9.4 6 1
02/25/06 12:48 p -12.8 -12.8 -12.8 --- --- 3.5 E 0.06 4.3 -16.9 --- --- 725.1 0.022 0.000 9.4 6 1
02/25/06 12:49 p -12.8 -12.8 -12.8 --- --- 3.5 E 0.06 4.3 -16.9 --- --- 725.1 0.022 0.000 9.4 6 1
02/25/06 12:50 p -12.8 -12.8 -12.8 --- --- 1.7 E 0.03 3.5 -14.6 --- --- 725.1 0.022 0.000 9.4 6 1
02/25/06 12:51 p -12.8 -12.8 -12.8 --- --- 2.6 E 0.04 4.3 -15.9 --- --- 725.1 0.022 0.000 9.4 6 1
02/25/06 12:52 p -12.8 -12.8 -12.8 --- --- 3.5 E 0.06 4.3 -16.9 --- --- 725.1 0.022 0.000 9.4 6 1
02/25/06 12:53 p -12.8 -12.8 -12.8 --- --- 4.3 E 0.07 5.2 -17.7 --- --- 725.1 0.022 0.000 9.4 6 1
02/25/06 12:54 p -12.8 -12.8 -12.8 --- --- 4.3 E 0.07 5.2 -17.7 --- --- 725.1 0.022 0.000 9.4 6 1
02/25/06 12:55 p -12.8 -12.8 -12.8 --- --- 5.2 E 0.09 5.2 -18.4 --- --- 725.2 0.022 0.000 9.4 6 1
02/25/06 12:56 p -12.8 -12.7 -12.8 --- --- 5.2 E 0.09 5.2 -18.4 --- --- 725.2 0.022 0.000 9.4 6 1
02/25/06 12:57 p -12.8 -12.7 -12.8 --- --- 4.3 E 0.07 5.2 -17.7 --- --- 725.3 0.022 0.000 9.4 6 1
02/25/06 12:58 p -12.7 -12.7 -12.8 --- --- 5.2 E 0.09 7.0 -18.3 --- --- 725.2 0.022 0.000 9.4 6 1
02/25/06 12:59 p -12.7 -12.7 -12.7 --- --- 6.1 E 0.10 7.0 -18.9 --- --- 725.2 0.022 0.000 9.4 6 1
02/25/06 1:00 p -12.7 -12.7 -12.7 --- --- 5.2 E 0.09 6.1 -18.3 --- --- 725.3 0.022 0.000 9.4 6 1
02/25/06 1:01 p -12.7 -12.7 -12.7 --- --- 4.3 E 0.07 5.2 -17.7 --- --- 725.3 0.022 0.000 9.4 6 1
02/25/06 1:02 p -12.7 -12.7 -12.7 --- --- 3.5 E 0.06 4.3 -16.9 --- --- 725.3 0.022 0.000 9.4 6 1
02/25/06 1:03 p -12.7 -12.7 -12.7 --- --- 2.6 E 0.04 3.5 -15.8 --- --- 725.3 0.022 0.000 9.4 6 1
02/25/06 1:04 p -12.7 -12.7 -12.7 --- --- 3.5 E 0.06 4.3 -16.9 --- --- 725.3 0.022 0.000 9.4 6 1
02/25/06 1:05 p -12.7 -12.7 -12.7 --- --- 3.5 E 0.06 4.3 -16.9 --- --- 725.2 0.022 0.000 9.4 6 1
02/25/06 1:06 p -12.7 -12.7 -12.7 --- --- 3.5 E 0.06 4.3 -16.9 --- --- 725.2 0.022 0.000 9.4 6 1
02/25/06 1:07 p -12.7 -12.7 -12.7 --- --- 3.5 E 0.06 4.3 -16.9 --- --- 725.3 0.022 0.000 9.4 6 1
02/25/06 1:08 p -12.7 -12.7 -12.8 --- --- 5.2 E 0.09 6.1 -18.3 --- --- 725.2 0.022 0.000 9.4 6 1
02/25/06 1:09 p -12.8 -12.7 -12.8 --- --- 4.3 E 0.07 6.1 -17.7 --- --- 725.4 0.022 0.000 9.4 6 1
02/25/06 1:10 p -12.8 -12.8 -12.8 --- --- 3.5 E 0.06 4.3 -16.9 --- --- 725.3 0.022 0.000 9.4 6 1
02/25/06 1:11 p -12.8 -12.8 -12.9 --- --- 4.3 E 0.07 6.1 -17.8 --- --- 725.3 0.022 0.000 9.4 6 1
02/25/06 1:12 p -12.9 -12.9 -12.9 --- --- 4.3 E 0.07 5.2 -17.8 --- --- 725.3 0.022 0.000 9.4 6 1
02/25/06 1:13 p -12.9 -12.9 -12.9 --- --- 3.5 E 0.06 6.1 -17.1 --- --- 725.3 0.022 0.000 9.4 6 1
02/25/06 1:14 p -13.0 -12.9 -13.1 --- --- 4.3 E 0.07 5.2 -17.9 --- --- 725.3 0.022 0.000 9.4 6 1
02/25/06 1:15 p -13.1 -13.1 -13.1 --- --- 5.2 E 0.09 7.0 -18.8 --- --- 725.3 0.022 0.000 9.4 6 1
02/25/06 1:16 p -13.1 -13.1 -13.2 --- --- 5.2 E 0.09 7.0 -18.8 --- --- 725.4 0.022 0.000 9.4 6 1
02/25/06 1:17 p -13.2 -13.2 -13.2 --- --- 4.3 E 0.07 6.1 -18.2 --- --- 725.3 0.022 0.000 9.4 6 1
02/25/06 1:18 p -13.2 -13.2 -13.3 --- --- 6.1 E 0.10 8.7 -19.5 --- --- 725.3 0.022 0.000 9.4 6 1
02/25/06 1:19 p -13.3 -13.3 -13.3 --- --- 6.1 E 0.10 7.0 -19.6 --- --- 725.3 0.022 0.000 9.4 6 1
02/25/06 1:20 p -13.4 -13.4 -13.4 --- --- 6.1 E 0.10 7.8 -19.7 --- --- 725.2 0.022 0.000 9.4 6 1
02/25/06 1:21 p -13.4 -13.4 -13.4 --- --- 6.1 E 0.10 7.0 -19.8 --- --- 725.2 0.022 0.000 9.4 6 1
02/25/06 1:22 p -13.4 -13.4 -13.5 --- --- 5.2 E 0.09 7.0 -19.2 --- --- 725.4 0.022 0.000 9.4 6 1
02/25/06 1:23 p -13.5 -13.5 -13.5 --- --- 5.2 E 0.09 7.0 -19.2 --- --- 725.3 0.022 0.000 9.4 6 1
02/25/06 1:24 p -13.6 -13.6 -13.6 --- --- 4.3 E 0.07 5.2 -18.6 --- --- 725.4 0.022 0.000 9.4 6 1
02/25/06 1:25 p -13.6 -13.6 -13.6 --- --- 3.5 E 0.06 5.2 -17.8 --- --- 725.4 0.022 0.000 9.4 6 1
02/25/06 1:26 p -13.6 -13.6 -13.6 --- --- 3.5 E 0.06 5.2 -17.8 --- --- 725.5 0.022 0.000 9.4 6 1
02/25/06 1:27 p -13.6 -13.6 -13.6 --- --- 3.5 E 0.06 5.2 -17.8 --- --- 725.4 0.022 0.000 9.4 6 1
02/25/06 1:28 p -13.6 -13.6 -13.6 --- --- 5.2 E 0.09 6.1 -19.3 --- --- 725.6 0.022 0.000 9.4 6 1
02/25/06 1:29 p -13.6 -13.6 -13.7 --- --- 5.2 E 0.09 7.0 -19.3 --- --- 725.5 0.022 0.000 9.4 6 1
02/25/06 1:30 p -13.6 -13.6 -13.7 --- --- 5.2 E 0.09 7.0 -19.3 --- --- 725.5 0.022 0.000 9.4 6 1
02/25/06 1:31 p -13.6 -13.6 -13.7 --- --- 6.1 E 0.10 7.8 -19.9 --- --- 725.4 0.022 0.000 9.3 6 1
02/25/06 1:32 p -13.7 -13.7 -13.7 --- --- 6.1 E 0.10 7.8 -20.0 --- --- 725.4 0.022 0.000 9.3 6 1
02/25/06 1:33 p -13.7 -13.7 -13.7 --- --- 6.1 E 0.10 7.0 -20.0 --- --- 725.4 0.022 0.000 9.3 6 1
02/25/06 1:34 p -13.7 -13.7 -13.7 --- --- 6.1 E 0.10 7.0 -20.0 --- --- 725.5 0.022 0.000 9.3 6 1
02/25/06 1:35 p -13.7 -13.7 -13.7 --- --- 7.0 E 0.12 8.7 -20.6 --- --- 725.5 0.022 0.000 9.3 6 1
02/25/06 1:36 p -13.7 -13.7 -13.7 --- --- 7.0 E 0.12 7.8 -20.6 --- --- 725.5 0.022 0.000 9.3 6 1
02/25/06 1:37 p -13.7 -13.7 -13.7 --- --- 7.0 E 0.12 7.0 -20.6 --- --- 725.5 0.022 0.000 9.2 6 1
02/25/06 1:38 p -13.7 -13.7 -13.7 --- --- 7.0 E 0.12 7.8 -20.6 --- --- 725.6 0.022 0.000 9.2 6 1
02/25/06 1:39 p -13.7 -13.7 -13.7 --- --- 6.1 E 0.10 7.0 -20.1 --- --- 725.5 0.022 0.000 9.2 6 1
02/25/06 1:40 p -13.7 -13.7 -13.7 --- --- 6.1 E 0.10 7.8 -20.1 --- --- 725.4 0.022 0.000 9.2 6 1
02/25/06 1:41 p -13.7 -13.7 -13.7 --- --- 6.1 E 0.10 7.0 -20.1 --- --- 725.5 0.022 0.000 9.2 6 1
02/25/06 1:42 p -13.7 -13.7 -13.7 --- --- 7.0 E 0.12 7.8 -20.6 --- --- 725.6 0.022 0.000 9.2 6 1
02/25/06 1:43 p -13.7 -13.6 -13.7 --- --- 7.0 E 0.12 7.0 -20.6 --- --- 725.5 0.022 0.000 9.2 6 1
02/25/06 1:44 p -13.7 -13.6 -13.7 --- --- 7.8 ENE 0.13 8.7 -21.1 --- --- 725.5 0.022 0.000 9.2 6 1
02/25/06 1:45 p -13.6 -13.6 -13.7 --- --- 7.8 ENE 0.13 8.7 -21.0 --- --- 725.5 0.022 0.000 9.2 6 1
02/25/06 1:46 p -13.7 -13.6 -13.7 --- --- 7.0 ENE 0.12 8.7 -20.6 --- --- 725.6 0.022 0.000 9.2 5 1
02/25/06 1:47 p -13.6 -13.6 -13.7 --- --- 7.8 ENE 0.13 8.7 -21.0 --- --- 725.5 0.022 0.000 9.2 5 1
02/25/06 1:48 p -13.6 -13.6 -13.7 --- --- 7.0 ENE 0.12 7.8 -20.5 --- --- 725.5 0.022 0.000 9.1 6 1
02/25/06 1:49 p -13.6 -13.6 -13.7 --- --- 6.1 ENE 0.10 7.8 -19.9 --- --- 725.6 0.022 0.000 9.1 5 1
02/25/06 1:50 p -13.6 -13.6 -13.6 --- --- 6.1 ENE 0.10 7.0 -19.9 --- --- 725.6 0.022 0.000 9.1 5 1
02/25/06 1:51 p -13.6 -13.6 -13.6 --- --- 5.2 ENE 0.09 7.0 -19.3 --- --- 725.5 0.022 0.000 9.1 5 1
02/25/06 1:52 p -13.6 -13.6 -13.6 --- --- 6.1 ENE 0.10 8.7 -19.9 --- --- 725.6 0.022 0.000 9.1 5 1
02/25/06 1:53 p -13.6 -13.6 -13.6 --- --- 7.0 E 0.12 7.8 -20.4 --- --- 725.6 0.022 0.000 9.1 5 1
02/25/06 1:54 p -13.6 -13.6 -13.6 --- --- 6.1 ENE 0.10 7.0 -19.9 --- --- 725.6 0.022 0.000 9.1 5 1
02/25/06 1:55 p -13.6 -13.6 -13.6 --- --- 7.0 E 0.12 7.8 -20.4 --- --- 725.6 0.022 0.000 9.0 5 1
02/25/06 1:56 p -13.6 -13.6 -13.6 --- --- 7.0 E 0.12 7.8 -20.4 --- --- 725.5 0.022 0.000 9.0 5 1
02/25/06 1:57 p -13.6 -13.6 -13.6 --- --- 7.8 ENE 0.13 7.8 -21.0 --- --- 725.6 0.022 0.000 9.0 5 1
02/25/06 1:58 p -13.6 -13.6 -13.6 --- --- 7.0 ENE 0.12 8.7 -20.4 --- --- 725.6 0.022 0.000 8.9 6 1
02/25/06 1:59 p -13.6 -13.6 -13.6 --- --- 7.8 ENE 0.13 8.7 -21.0 --- --- 725.5 0.022 0.000 8.9 5 1
02/25/06 2:00 p -13.6 -13.6 -13.6 --- --- 7.8 ENE 0.13 8.7 -20.9 --- --- 725.6 0.022 0.000 8.9 5 1
02/25/06 2:01 p -13.6 -13.6 -13.6 --- --- 7.8 E 0.13 8.7 -21.0 --- --- 725.6 0.022 0.000 8.9 5 1
02/25/06 2:02 p -13.6 -13.6 -13.6 --- --- 7.0 E 0.12 7.8 -20.5 --- --- 725.6 0.022 0.000 8.9 5 1
02/25/06 2:03 p -13.6 -13.6 -13.6 --- --- 7.8 E 0.13 9.6 -21.0 --- --- 725.6 0.022 0.000 8.9 5 1
02/25/06 2:04 p -13.6 -13.6 -13.6 --- --- 7.8 E 0.13 8.7 -21.0 --- --- 725.6 0.022 0.000 8.9 5 1
02/25/06 2:05 p -13.6 -13.6 -13.6 --- --- 7.0 ENE 0.12 8.7 -20.5 --- --- 725.6 0.022 0.000 8.9 5 1
02/25/06 2:06 p -13.6 -13.6 -13.6 --- --- 7.8 ENE 0.13 8.7 -21.0 --- --- 725.6 0.022 0.000 8.9 5 1
02/25/06 2:07 p -13.6 -13.6 -13.6 --- --- 9.6 ENE 0.16 11.3 -21.7 --- --- 725.6 0.022 0.000 8.8 5 1
02/25/06 2:08 p -13.6 -13.6 -13.6 --- --- 11.3 ENE 0.19 12.2 -22.4 --- --- 725.6 0.022 0.000 8.8 5 1
02/25/06 2:09 p -13.6 -13.6 -13.6 --- --- 9.6 ENE 0.16 11.3 -21.7 --- --- 725.6 0.022 0.000 8.8 5 1
02/25/06 2:10 p -13.5 -13.5 -13.6 --- --- 8.7 ENE 0.14 9.6 -21.3 --- --- 725.6 0.022 0.000 8.8 5 1
02/25/06 2:11 p -13.6 -13.5 -13.6 --- --- 7.8 ENE 0.13 8.7 -20.9 --- --- 725.5 0.022 0.000 8.8 5 1
02/25/06 2:12 p -13.5 -13.5 -13.6 --- --- 7.8 ENE 0.13 9.6 -20.8 --- --- 725.7 0.022 0.000 8.8 5 1
02/25/06 2:13 p -13.5 -13.5 -13.5 --- --- 9.6 ENE 0.16 10.4 -21.7 --- --- 725.6 0.022 0.000 8.8 5 1
02/25/06 2:14 p -13.5 -13.4 -13.5 --- --- 10.4 ENE 0.17 10.4 -22.1 --- --- 725.6 0.022 0.000 8.8 5 1
02/25/06 2:15 p -13.5 -13.4 -13.5 --- --- 9.6 ENE 0.16 10.4 -21.7 --- --- 725.6 0.022 0.000 8.8 5 1
02/25/06 2:16 p -13.5 -13.4 -13.5 --- --- 7.8 ENE 0.13 8.7 -20.8 --- --- 725.6 0.022 0.000 8.9 5 1
02/25/06 2:17 p -13.4 -13.4 -13.4 --- --- 7.8 ENE 0.13 8.7 -20.8 --- --- 725.5 0.022 0.000 8.9 5 1
02/25/06 2:18 p -13.4 -13.4 -13.4 --- --- 9.6 ENE 0.16 10.4 -21.6 --- --- 725.6 0.022 0.000 8.9 5 1
02/25/06 2:19 p -13.4 -13.4 -13.4 --- --- 9.6 ENE 0.16 9.6 -21.6 --- --- 725.6 0.022 0.000 8.9 5 1
02/25/06 2:20 p -13.4 -13.3 -13.4 --- --- 8.7 ENE 0.14 9.6 -21.1 --- --- 725.6 0.022 0.000 8.9 5 1
02/25/06 2:21 p -13.4 -13.3 -13.4 --- --- 9.6 ENE 0.16 9.6 -21.6 --- --- 725.6 0.022 0.000 8.9 5 1
02/25/06 2:22 p -13.3 -13.3 -13.3 --- --- 7.8 ENE 0.13 8.7 -20.6 --- --- 725.6 0.022 0.000 8.9 5 1
02/25/06 2:23 p -13.3 -13.3 -13.3 --- --- 9.6 ENE 0.16 10.4 -21.4 --- --- 725.5 0.022 0.000 8.9 5 1
02/25/06 2:24 p -13.3 -13.2 -13.3 --- --- 9.6 ENE 0.16 11.3 -21.4 --- --- 725.5 0.022 0.000 9.0 5 1
02/25/06 2:25 p -13.2 -13.2 -13.3 --- --- 10.4 ENE 0.17 11.3 -21.7 --- --- 725.5 0.022 0.000 9.0 5 1
02/25/06 2:26 p -13.2 -13.2 -13.2 --- --- 11.3 ENE 0.19 12.2 -22.1 --- --- 725.6 0.022 0.000 9.0 5 1
02/25/06 2:27 p -13.2 -13.2 -13.2 --- --- 10.4 ENE 0.17 12.2 -21.7 --- --- 725.6 0.022 0.000 9.0 5 1
02/25/06 2:28 p -13.2 -13.2 -13.2 --- --- 10.4 ENE 0.17 10.4 -21.7 --- --- 725.5 0.022 0.000 9.0 5 1
02/25/06 2:29 p -13.2 -13.2 -13.2 --- --- 10.4 ENE 0.17 12.2 -21.7 --- --- 725.6 0.022 0.000 9.0 5 1
02/25/06 2:30 p -13.2 -13.2 -13.2 --- --- 12.2 E 0.20 13.9 -22.3 --- --- 725.5 0.022 0.000 9.0 5 1
02/25/06 2:31 p -13.2 -13.2 -13.3 --- --- 11.3 E 0.19 13.9 -22.1 --- --- 725.5 0.022 0.000 9.0 5 1
02/25/06 2:32 p -13.3 -13.2 -13.3 --- --- 12.2 E 0.20 13.0 -22.4 --- --- 725.5 0.022 0.000 9.1 5 1
02/25/06 2:33 p -13.3 -13.3 -13.4 --- --- 10.4 E 0.17 12.2 -21.8 --- --- 725.5 0.022 0.000 9.1 5 1
02/25/06 2:34 p -13.4 -13.4 -13.4 --- --- 11.3 E 0.19 13.0 -22.2 --- --- 725.4 0.022 0.000 9.1 5 1
02/25/06 2:35 p -13.4 -13.4 -13.4 --- --- 11.3 E 0.19 13.9 -22.2 --- --- 725.5 0.022 0.000 9.1 5 1
02/25/06 2:36 p -13.4 -13.4 -13.4 --- --- 13.0 E 0.22 14.8 -22.9 --- --- 725.4 0.022 0.000 9.1 5 1
02/25/06 2:37 p -13.4 -13.4 -13.4 --- --- 13.0 E 0.22 14.8 -22.9 --- --- 725.5 0.022 0.000 9.1 5 1
02/25/06 2:38 p -13.4 -13.4 -13.4 --- --- 10.4 E 0.17 12.2 -22.0 --- --- 725.6 0.022 0.000 9.1 5 1
02/25/06 2:39 p -13.5 -13.4 -13.5 --- --- 11.3 E 0.19 13.0 -22.4 --- --- 725.5 0.022 0.000 9.1 5 1
02/25/06 2:40 p -13.5 -13.5 -13.6 --- --- 12.2 E 0.20 14.8 -22.7 --- --- 725.4 0.022 0.000 9.1 5 1
02/25/06 2:41 p -13.6 -13.6 -13.6 --- --- 13.0 E 0.22 14.8 -23.1 --- --- 725.4 0.022 0.000 9.1 5 1
02/25/06 2:42 p -13.6 -13.6 -13.7 --- --- 12.2 E 0.20 14.8 -22.8 --- --- 725.5 0.022 0.000 9.1 5 1
02/25/06 2:43 p -13.7 -13.7 -13.7 --- --- 11.3 E 0.19 13.9 -22.6 --- --- 725.5 0.022 0.000 9.1 5 1
02/25/06 2:44 p -13.7 -13.7 -13.8 --- --- 13.0 E 0.22 16.5 -23.3 --- --- 725.4 0.022 0.000 9.1 5 1
02/25/06 2:45 p -13.8 -13.8 -13.8 --- --- 13.0 E 0.22 15.7 -23.4 --- --- 725.4 0.022 0.000 9.1 5 1
02/25/06 2:46 p -13.9 -13.9 -13.9 --- --- 13.0 E 0.22 15.7 -23.5 --- --- 725.6 0.022 0.000 9.1 5 1
02/25/06 2:47 p -13.9 -13.9 -13.9 --- --- 12.2 E 0.20 14.8 -23.3 --- --- 725.5 0.022 0.000 9.1 5 1
02/25/06 2:48 p -13.9 -13.9 -13.9 --- --- 12.2 E 0.20 13.9 -23.3 --- --- 725.6 0.022 0.000 9.1 5 1
02/25/06 2:49 p -14.0 -14.0 -14.0 --- --- 14.8 E 0.25 16.5 -24.2 --- --- 725.5 0.022 0.000 9.1 5 1
02/25/06 2:50 p -14.0 -13.9 -14.1 --- --- 12.2 E 0.20 14.8 -23.3 --- --- 725.6 0.022 0.000 9.1 5 1
02/25/06 2:51 p -14.0 -14.0 -14.0 --- --- 12.2 E 0.20 15.7 -23.3 --- --- 725.5 0.022 0.000 9.1 5 1
02/25/06 2:52 p -14.0 -14.0 -14.1 --- --- 14.8 E 0.25 18.3 -24.2 --- --- 725.6 0.022 0.000 9.1 5 1
02/25/06 2:53 p -14.0 -14.0 -14.1 --- --- 14.8 E 0.25 17.4 -24.2 --- --- 725.5 0.022 0.000 9.1 5 1
02/25/06 2:54 p -14.0 -13.9 -14.0 --- --- 12.2 E 0.20 14.8 -23.3 --- --- 725.5 0.022 0.000 9.1 5 1
02/25/06 2:55 p -13.9 -13.9 -13.9 --- --- 11.3 E 0.19 13.9 -22.9 --- --- 725.4 0.022 0.000 9.1 5 1
02/25/06 2:56 p -13.9 -13.9 -13.9 --- --- 13.0 E 0.22 17.4 -23.5 --- --- 725.5 0.022 0.000 9.1 5 1
02/25/06 2:57 p -13.9 -13.9 -13.9 --- --- 16.5 E 0.28 20.0 -24.6 --- --- 725.5 0.022 0.000 9.1 5 1
02/25/06 2:58 p -13.8 -13.8 -13.8 --- --- 16.5 E 0.28 20.0 -24.5 --- --- 725.6 0.022 0.000 9.1 5 1
02/25/06 2:59 p -13.8 -13.7 -13.8 --- --- 15.7 E 0.26 19.1 -24.2 --- --- 725.6 0.022 0.000 9.1 5 1
02/25/06 3:00 p -13.7 -13.7 -13.7 --- --- 13.9 E 0.23 17.4 -23.6 --- --- 725.6 0.022 0.000 9.1 5 1
02/25/06 3:01 p -13.7 -13.6 -13.7 --- --- 13.9 E 0.23 17.4 -23.5 --- --- 725.6 0.022 0.000 9.1 5 1
02/25/06 3:02 p -13.6 -13.6 -13.6 --- --- 14.8 E 0.25 16.5 -23.7 --- --- 725.5 0.022 0.000 9.1 5 1
02/25/06 3:03 p -13.6 -13.6 -13.6 --- --- 13.0 E 0.22 15.7 -23.1 --- --- 725.7 0.022 0.000 9.1 5 1
02/25/06 3:04 p -13.6 -13.5 -13.6 --- --- 13.9 E 0.23 15.7 -23.4 --- --- 725.6 0.022 0.000 9.1 5 1
02/25/06 3:05 p -13.5 -13.5 -13.5 --- --- 11.3 E 0.19 13.9 -22.4 --- --- 725.5 0.022 0.000 9.1 5 1
02/25/06 3:06 p -13.4 -13.4 -13.5 --- --- 11.3 E 0.19 13.0 -22.3 --- --- 725.6 0.022 0.000 9.1 5 1
02/25/06 3:07 p -13.4 -13.4 -13.4 --- --- 13.9 E 0.23 16.5 -23.2 --- --- 725.5 0.022 0.000 9.1 5 1
02/25/06 3:08 p -13.4 -13.4 -13.4 --- --- 14.8 E 0.25 18.3 -23.5 --- --- 725.5 0.022 0.000 9.1 5 1
02/25/06 3:09 p -13.4 -13.4 -13.4 --- --- 14.8 E 0.25 16.5 -23.5 --- --- 725.5 0.022 0.000 9.1 5 1
02/25/06 3:10 p -13.4 -13.4 -13.4 --- --- 13.9 E 0.23 15.7 -23.2 --- --- 725.5 0.022 0.000 9.1 5 1
02/25/06 3:11 p -13.4 -13.4 -13.4 --- --- 14.8 E 0.25 17.4 -23.4 --- --- 725.5 0.022 0.000 9.1 5 1
02/25/06 3:12 p -13.4 -13.4 -13.4 --- --- 13.0 E 0.22 16.5 -22.9 --- --- 725.4 0.022 0.000 9.1 5 1
02/25/06 3:13 p -13.4 -13.4 -13.4 --- --- 14.8 E 0.25 20.0 -23.5 --- --- 725.4 0.022 0.000 9.1 5 1
02/25/06 3:14 p -13.4 -13.4 -13.4 --- --- 14.8 E 0.25 17.4 -23.5 --- --- 725.5 0.022 0.000 9.1 5 1
02/25/06 3:15 p -13.4 -13.4 -13.4 --- --- 13.9 E 0.23 15.7 -23.2 --- --- 725.6 0.022 0.000 9.1 5 1
02/25/06 3:16 p -13.4 -13.4 -13.4 --- --- 13.9 E 0.23 18.3 -23.2 --- --- 725.5 0.022 0.000 9.1 5 1
02/25/06 3:17 p -13.4 -13.4 -13.4 --- --- 15.7 E 0.26 17.4 -23.8 --- --- 725.4 0.022 0.000 9.1 5 1
02/25/06 3:18 p -13.4 -13.4 -13.4 --- --- 14.8 E 0.25 19.1 -23.5 --- --- 725.4 0.022 0.000 9.1 5 1
02/25/06 3:19 p -13.4 -13.4 -13.4 --- --- 14.8 E 0.25 17.4 -23.5 --- --- 725.3 0.022 0.000 9.1 5 1
02/25/06 3:20 p -13.4 -13.4 -13.4 --- --- 14.8 E 0.25 17.4 -23.5 --- --- 725.5 0.022 0.000 9.1 5 1
02/25/06 3:21 p -13.4 -13.4 -13.5 --- --- 14.8 E 0.25 18.3 -23.5 --- --- 725.4 0.022 0.000 9.1 5 1
02/25/06 3:22 p -13.5 -13.4 -13.5 --- --- 17.4 E 0.29 20.0 -24.3 --- --- 725.4 0.022 0.000 9.1 5 1
02/25/06 3:23 p -13.5 -13.5 -13.5 --- --- 16.5 ENE 0.28 19.1 -24.1 --- --- 725.4 0.022 0.000 9.1 5 1
02/25/06 3:24 p -13.5 -13.5 -13.6 --- --- 19.1 ENE 0.32 20.9 -24.8 --- --- 725.4 0.022 0.000 9.1 5 1
02/25/06 3:25 p -13.6 -13.5 -13.6 --- --- 18.3 ENE 0.30 20.9 -24.6 --- --- 725.4 0.022 0.000 9.1 5 1
02/25/06 3:26 p -13.6 -13.6 -13.6 --- --- 17.4 ENE 0.29 20.0 -24.4 --- --- 725.4 0.022 0.000 9.1 5 1
02/25/06 3:27 p -13.6 -13.5 -13.6 --- --- 14.8 E 0.25 19.1 -23.7 --- --- 725.4 0.022 0.000 9.1 5 1
02/25/06 3:28 p -13.6 -13.5 -13.6 --- --- 14.8 E 0.25 18.3 -23.7 --- --- 725.4 0.022 0.000 9.1 5 1
02/25/06 3:29 p -13.6 -13.6 -13.6 --- --- 18.3 ENE 0.30 20.9 -24.7 --- --- 725.3 0.022 0.000 9.1 5 1
02/25/06 3:30 p -13.6 -13.6 -13.6 --- --- 19.1 ENE 0.32 21.7 -24.8 --- --- 725.3 0.022 0.000 9.1 5 1
02/25/06 3:31 p -13.6 -13.6 -13.6 --- --- 17.4 E 0.29 20.9 -24.5 --- --- 725.4 0.022 0.000 9.1 5 1
02/25/06 3:32 p -13.6 -13.6 -13.7 --- --- 16.5 ENE 0.28 20.0 -24.2 --- --- 725.6 0.022 0.000 9.1 5 1
02/25/06 3:33 p -13.7 -13.6 -13.7 --- --- 13.0 E 0.22 16.5 -23.2 --- --- 725.3 0.022 0.000 9.1 5 1
02/25/06 3:34 p -13.6 -13.6 -13.7 --- --- 19.1 E 0.32 23.5 -24.9 --- --- 725.3 0.022 0.000 9.1 5 1
02/25/06 3:35 p -13.7 -13.6 -13.7 --- --- 18.3 E 0.30 20.9 -24.8 --- --- 725.5 0.022 0.000 9.1 5 1
02/25/06 3:36 p -13.7 -13.7 -13.7 --- --- 15.7 E 0.26 20.0 -24.1 --- --- 725.3 0.022 0.000 9.1 5 1
02/25/06 3:37 p -13.7 -13.7 -13.7 --- --- 19.1 E 0.32 21.7 -25.0 --- --- 725.4 0.022 0.000 9.1 5 1
02/25/06 3:38 p -13.7 -13.7 -13.7 --- --- 17.4 ENE 0.29 19.1 -24.6 --- --- 725.4 0.022 0.000 9.1 5 1
02/25/06 3:39 p -13.7 -13.7 -13.8 --- --- 15.7 E 0.26 19.1 -24.1 --- --- 725.4 0.022 0.000 9.1 5 1
02/25/06 3:40 p -13.8 -13.7 -13.8 --- --- 18.3 E 0.30 22.6 -24.9 --- --- 725.4 0.022 0.000 9.1 5 1
02/25/06 3:41 p -13.8 -13.8 -13.8 --- --- 19.1 E 0.32 21.7 -25.2 --- --- 725.4 0.022 0.000 9.1 5 1
02/25/06 3:42 p -13.8 -13.8 -13.9 --- --- 17.4 E 0.29 20.9 -24.8 --- --- 725.3 0.022 0.000 9.1 5 1
02/25/06 3:43 p -13.9 -13.8 -13.9 --- --- 19.1 E 0.32 21.7 -25.3 --- --- 725.4 0.022 0.000 9.1 5 1
02/25/06 3:44 p -13.9 -13.9 -13.9 --- --- 20.0 ENE 0.33 22.6 -25.5 --- --- 725.4 0.022 0.000 9.1 5 1
02/25/06 3:45 p -13.9 -13.9 -13.9 --- --- 20.0 E 0.33 22.6 -25.6 --- --- 725.5 0.022 0.000 9.1 5 1
02/25/06 3:46 p -13.9 -13.9 -13.9 --- --- 19.1 ENE 0.32 21.7 -25.3 --- --- 725.5 0.022 0.000 9.1 5 1
02/25/06 3:47 p -13.9 -13.9 -13.9 --- --- 20.9 ENE 0.35 23.5 -25.8 --- --- 725.5 0.022 0.000 9.1 5 1
02/25/06 3:48 p -13.9 -13.9 -14.0 --- --- 20.9 ENE 0.35 22.6 -25.8 --- --- 725.5 0.022 0.000 9.1 5 1
02/25/06 3:49 p -13.9 -13.9 -14.0 --- --- 19.1 E 0.32 20.9 -25.4 --- --- 725.6 0.022 0.000 9.1 5 1
02/25/06 3:50 p -13.9 -13.9 -14.0 --- --- 18.3 E 0.30 21.7 -25.2 --- --- 725.7 0.022 0.000 9.1 5 1
02/25/06 3:51 p -14.0 -14.0 -14.0 --- --- 15.7 E 0.26 18.3 -24.5 --- --- 725.6 0.022 0.000 9.1 5 1
02/25/06 3:52 p -14.0 -14.0 -14.1 --- --- 20.0 E 0.33 24.3 -25.7 --- --- 725.6 0.022 0.000 9.1 5 1
02/25/06 3:53 p -14.1 -14.0 -14.1 --- --- 17.4 E 0.29 21.7 -25.1 --- --- 725.6 0.022 0.000 9.1 5 1
02/25/06 3:54 p -14.1 -14.1 -14.1 --- --- 15.7 E 0.26 20.0 -24.6 --- --- 725.6 0.022 0.000 9.1 5 1
02/25/06 3:55 p -14.1 -14.1 -14.1 --- --- 15.7 E 0.26 19.1 -24.6 --- --- 725.6 0.023 0.000 9.1 5 1
02/25/06 3:56 p -14.1 -14.1 -14.1 --- --- 21.7 ENE 0.36 25.2 -26.2 --- --- 725.4 0.023 0.000 9.1 5 1
02/25/06 3:57 p -14.2 -14.1 -14.2 --- --- 24.3 ENE 0.41 27.0 -26.8 --- --- 725.5 0.023 0.000 9.1 5 1
02/25/06 3:58 p -14.2 -14.2 -14.2 --- --- 18.3 E 0.30 24.3 -25.4 --- --- 725.6 0.023 0.000 9.1 5 1
02/25/06 3:59 p -14.2 -14.2 -14.2 --- --- 16.5 E 0.28 19.1 -24.9 --- --- 725.6 0.023 0.000 9.1 5 1
02/25/06 4:00 p -14.2 -14.2 -14.2 --- --- 15.7 E 0.26 20.0 -24.8 --- --- 725.5 0.023 0.000 9.1 5 1
02/25/06 4:01 p -14.2 -14.2 -14.3 --- --- 20.9 ENE 0.35 25.2 -26.2 --- --- 725.4 0.023 0.000 9.1 5 1
02/25/06 4:02 p -14.3 -14.3 -14.3 --- --- 22.6 E 0.38 26.1 -26.6 --- --- 725.4 0.023 0.000 9.1 5 1
02/25/06 4:03 p -14.3 -14.3 -14.3 --- --- 23.5 ENE 0.39 25.2 -26.8 --- --- 725.4 0.023 0.000 9.1 5 1
02/25/06 4:04 p -14.3 -14.3 -14.3 --- --- 23.5 ENE 0.39 24.3 -26.9 --- --- 725.5 0.023 0.000 9.1 5 1
02/25/06 4:05 p -14.3 -14.3 -14.3 --- --- 20.9 E 0.35 23.5 -26.3 --- --- 725.5 0.023 0.000 9.1 5 1
02/25/06 4:06 p -14.4 -14.3 -14.4 --- --- 23.5 E 0.39 26.1 -26.9 --- --- 725.4 0.023 0.000 9.1 5 1
02/25/06 4:07 p -14.4 -14.4 -14.4 --- --- 22.6 E 0.38 26.1 -26.8 --- --- 725.5 0.023 0.000 9.1 5 1
02/25/06 4:08 p -14.4 -14.4 -14.4 --- --- 20.9 E 0.35 22.6 -26.4 --- --- 725.5 0.023 0.000 9.1 5 1
02/25/06 4:09 p -14.4 -14.4 -14.5 --- --- 18.3 E 0.30 22.6 -25.8 --- --- 725.4 0.023 0.000 9.1 5 1
02/25/06 4:10 p -14.5 -14.5 -14.5 --- --- 20.0 E 0.33 26.1 -26.3 --- --- 725.4 0.023 0.000 9.1 5 1
02/25/06 4:11 p -14.5 -14.5 -14.6 --- --- 20.9 E 0.35 25.2 -26.5 --- --- 725.4 0.023 0.000 9.1 5 1
02/25/06 4:12 p -14.6 -14.5 -14.6 --- --- 20.9 E 0.35 25.2 -26.6 --- --- 725.4 0.023 0.000 9.1 5 1
02/25/06 4:13 p -14.6 -14.6 -14.6 --- --- 21.7 E 0.36 25.2 -26.8 --- --- 725.2 0.023 0.000 9.1 5 1
02/25/06 4:14 p -14.6 -14.6 -14.6 --- --- 23.5 E 0.39 26.1 -27.2 --- --- 725.4 0.023 0.000 9.1 5 1
02/25/06 4:15 p -14.6 -14.6 -14.6 --- --- 22.6 E 0.38 25.2 -27.1 --- --- 725.4 0.023 0.000 9.1 5 1
02/25/06 4:16 p -14.6 -14.6 -14.6 --- --- 22.6 E 0.38 25.2 -27.1 --- --- 725.4 0.023 0.000 9.1 5 1
02/25/06 4:17 p -14.7 -14.6 -14.7 --- --- 22.6 E 0.38 24.3 -27.2 --- --- 725.4 0.023 0.000 9.1 5 1
02/25/06 4:18 p -14.7 -14.7 -14.7 --- --- 22.6 E 0.38 26.1 -27.2 --- --- 725.4 0.023 0.000 9.1 5 1
02/25/06 4:19 p -14.7 -14.7 -14.7 --- --- 22.6 ENE 0.38 27.8 -27.2 --- --- 725.4 0.023 0.000 9.1 5 1
02/25/06 4:20 p -14.7 -14.7 -14.7 --- --- 20.9 ENE 0.35 25.2 -26.8 --- --- 725.4 0.023 0.000 9.1 5 1
02/25/06 4:21 p -14.7 -14.7 -14.8 --- --- 20.9 E 0.35 24.3 -26.8 --- --- 725.4 0.023 0.000 9.1 5 1
02/25/06 4:22 p -14.8 -14.7 -14.8 --- --- 22.6 E 0.38 27.8 -27.3 --- --- 725.3 0.023 0.000 9.1 5 1
02/25/06 4:23 p -14.8 -14.8 -14.8 --- --- 25.2 E 0.42 28.7 -27.8 --- --- 725.4 0.023 0.000 9.1 5 1
02/25/06 4:24 p -14.8 -14.8 -14.8 --- --- 24.3 E 0.41 27.8 -27.7 --- --- 725.4 0.023 0.000 9.1 5 1
02/25/06 4:25 p -14.8 -14.8 -14.8 --- --- 22.6 E 0.38 26.1 -27.3 --- --- 725.5 0.023 0.000 9.1 5 1
02/25/06 4:26 p -14.8 -14.8 -14.8 --- --- 20.9 E 0.35 25.2 -26.9 --- --- 725.3 0.023 0.000 9.1 5 1
02/25/06 4:27 p -14.8 -14.8 -14.8 --- --- 24.3 E 0.41 27.8 -27.7 --- --- 725.4 0.023 0.000 9.1 5 1
02/25/06 4:28 p -14.8 -14.8 -14.9 --- --- 23.5 E 0.39 27.8 -27.6 --- --- 725.6 0.023 0.000 9.1 5 1
02/25/06 4:29 p -14.8 -14.8 -14.8 --- --- 20.0 E 0.33 22.6 -26.8 --- --- 725.5 0.023 0.000 9.1 5 1
02/25/06 4:30 p -14.8 -14.8 -14.9 --- --- 18.3 E 0.30 23.5 -26.3 --- --- 725.3 0.023 0.000 9.1 5 1
02/25/06 4:31 p -14.9 -14.9 -14.9 --- --- 28.7 ENE 0.48 31.3 -28.7 --- --- 725.2 0.023 0.000 9.1 5 1
02/25/06 4:32 p -14.9 -14.9 -14.9 --- --- 27.8 ENE 0.46 30.4 -28.5 --- --- 725.5 0.023 0.000 9.0 5 1
02/25/06 4:33 p -14.9 -14.9 -14.9 --- --- 23.5 ENE 0.39 27.0 -27.6 --- --- 725.5 0.023 0.000 9.1 5 1
02/25/06 4:34 p -14.9 -14.9 -14.9 --- --- 21.7 E 0.36 25.2 -27.2 --- --- 725.6 0.023 0.000 9.1 5 1
02/25/06 4:35 p -14.9 -14.9 -14.9 --- --- 18.3 E 0.30 22.6 -26.4 --- --- 725.5 0.023 0.000 9.0 5 1
02/25/06 4:36 p -14.9 -14.9 -14.9 --- --- 22.6 E 0.38 26.1 -27.5 --- --- 725.3 0.023 0.000 9.0 5 1
02/25/06 4:37 p -14.9 -14.9 -14.9 --- --- 25.2 E 0.42 28.7 -28.1 --- --- 725.3 0.023 0.000 9.0 5 1
02/25/06 4:38 p -14.9 -14.9 -15.0 --- --- 22.6 E 0.38 27.0 -27.5 --- --- 725.4 0.023 0.000 9.0 5 1
02/25/06 4:39 p -14.9 -14.9 -15.0 --- --- 22.6 E 0.38 26.1 -27.5 --- --- 725.4 0.023 0.000 9.1 5 1
02/25/06 4:40 p -15.0 -15.0 -15.0 --- --- 24.3 E 0.41 27.0 -27.9 --- --- 725.4 0.023 0.000 9.0 5 1
02/25/06 4:41 p -15.0 -15.0 -15.0 --- --- 23.5 E 0.39 27.8 -27.8 --- --- 725.2 0.023 0.000 9.0 5 1
02/25/06 4:42 p -15.0 -15.0 -15.1 --- --- 24.3 E 0.41 27.0 -27.9 --- --- 725.3 0.023 0.000 9.0 5 1
02/25/06 4:43 p -15.0 -15.0 -15.0 --- --- 21.7 E 0.36 25.2 -27.4 --- --- 725.5 0.023 0.000 9.0 5 1
02/25/06 4:44 p -15.1 -15.0 -15.1 --- --- 20.9 E 0.35 24.3 -27.3 --- --- 725.4 0.023 0.000 9.0 5 1
02/25/06 4:45 p -15.1 -15.0 -15.1 --- --- 21.7 E 0.36 28.7 -27.4 --- --- 725.2 0.023 0.000 9.0 5 1
02/25/06 4:46 p -15.1 -15.1 -15.1 --- --- 22.6 E 0.38 26.1 -27.7 --- --- 725.3 0.023 0.000 9.0 5 1
02/25/06 4:47 p -15.1 -15.1 -15.1 --- --- 22.6 E 0.38 25.2 -27.7 --- --- 725.4 0.023 0.000 9.0 5 1
02/25/06 4:48 p -15.1 -15.1 -15.1 --- --- 21.7 E 0.36 23.5 -27.4 --- --- 725.4 0.023 0.000 9.0 5 1
02/25/06 4:49 p -15.1 -15.1 -15.1 --- --- 22.6 E 0.38 27.0 -27.7 --- --- 725.4 0.023 0.000 9.0 5 1
02/25/06 4:50 p -15.1 -15.1 -15.1 --- --- 24.3 E 0.41 27.8 -28.1 --- --- 725.4 0.023 0.000 9.0 5 1
02/25/06 4:51 p -15.1 -15.1 -15.1 --- --- 24.3 E 0.41 27.8 -28.1 --- --- 725.4 0.023 0.000 9.0 5 1
02/25/06 4:52 p -15.1 -15.1 -15.1 --- --- 23.5 E 0.39 28.7 -27.9 --- --- 725.4 0.023 0.000 9.0 5 1
02/25/06 4:53 p -15.1 -15.1 -15.1 --- --- 23.5 E 0.39 27.8 -27.9 --- --- 725.3 0.023 0.000 9.0 5 1
02/25/06 4:54 p -15.1 -15.1 -15.1 --- --- 24.3 E 0.41 29.6 -28.1 --- --- 725.5 0.023 0.000 9.0 5 1
02/25/06 4:55 p -15.1 -15.1 -15.2 --- --- 23.5 E 0.39 27.0 -27.9 --- --- 725.5 0.023 0.000 9.0 5 1
02/25/06 4:56 p -15.2 -15.1 -15.2 --- --- 24.3 E 0.41 28.7 -28.2 --- --- 725.3 0.023 0.000 9.0 5 1
02/25/06 4:57 p -15.2 -15.2 -15.2 --- --- 25.2 E 0.42 30.4 -28.4 --- --- 725.2 0.023 0.000 8.9 5 1
02/25/06 4:58 p -15.2 -15.2 -15.2 --- --- 25.2 E 0.42 29.6 -28.4 --- --- 725.3 0.023 0.000 8.9 5 1
02/25/06 4:59 p -15.2 -15.2 -15.2 --- --- 26.1 E 0.43 28.7 -28.6 --- --- 725.5 0.023 0.000 8.9 5 1
02/25/06 5:00 p -15.2 -15.2 -15.2 --- --- 22.6 E 0.38 27.0 -27.8 --- --- 725.3 0.023 0.000 8.9 5 1
02/25/06 5:01 p -15.2 -15.2 -15.2 --- --- 24.3 E 0.41 28.7 -28.3 --- --- 725.3 0.023 0.000 8.9 5 1
02/25/06 5:02 p -15.2 -15.2 -15.2 --- --- 23.5 E 0.39 27.8 -28.1 --- --- 725.2 0.023 0.000 8.9 5 1
02/25/06 5:03 p -15.3 -15.2 -15.3 --- --- 24.3 E 0.41 27.0 -28.3 --- --- 725.3 0.023 0.000 8.9 5 1
02/25/06 5:04 p -15.2 -15.2 -15.2 --- --- 25.2 E 0.42 29.6 -28.4 --- --- 725.4 0.023 0.000 8.9 5 1
02/25/06 5:05 p -15.2 -15.2 -15.3 --- --- 23.5 E 0.39 27.0 -28.1 --- --- 725.3 0.023 0.000 8.9 5 1
02/25/06 5:06 p -15.3 -15.2 -15.3 --- --- 24.3 E 0.41 28.7 -28.3 --- --- 725.2 0.023 0.000 8.9 5 1
02/25/06 5:07 p -15.2 -15.2 -15.3 --- --- 24.3 E 0.41 28.7 -28.3 --- --- 725.3 0.023 0.000 8.9 5 1
02/25/06 5:08 p -15.2 -15.2 -15.3 --- --- 23.5 E 0.39 28.7 -28.1 --- --- 725.3 0.023 0.000 8.9 5 1
02/25/06 5:09 p -15.2 -15.2 -15.3 --- --- 23.5 E 0.39 27.8 -28.1 --- --- 725.3 0.023 0.000 8.9 5 1
02/25/06 5:10 p -15.2 -15.2 -15.2 --- --- 24.3 E 0.41 27.0 -28.3 --- --- 725.3 0.023 0.000 8.9 5 1
02/25/06 5:11 p -15.2 -15.2 -15.2 --- --- 24.3 E 0.41 28.7 -28.3 --- --- 725.3 0.023 0.000 8.9 5 1
02/25/06 5:12 p -15.2 -15.2 -15.2 --- --- 23.5 E 0.39 27.8 -28.1 --- --- 725.3 0.023 0.000 8.9 5 1
02/25/06 5:13 p -15.2 -15.2 -15.2 --- --- 24.3 E 0.41 27.0 -28.3 --- --- 725.3 0.023 0.000 8.9 5 1
02/25/06 5:14 p -15.2 -15.2 -15.2 --- --- 24.3 E 0.41 29.6 -28.3 --- --- 725.2 0.023 0.000 8.9 5 1
02/25/06 5:15 p -15.2 -15.2 -15.2 --- --- 25.2 E 0.42 28.7 -28.4 --- --- 725.3 0.023 0.000 8.9 5 1
02/25/06 5:16 p -15.2 -15.2 -15.2 --- --- 24.3 E 0.41 28.7 -28.3 --- --- 725.2 0.023 0.000 8.9 5 1
02/25/06 5:17 p -15.2 -15.2 -15.2 --- --- 25.2 E 0.42 28.7 -28.4 --- --- 725.2 0.023 0.000 8.9 5 1
02/25/06 5:18 p -15.2 -15.2 -15.2 --- --- 27.0 E 0.45 33.0 -28.8 --- --- 725.3 0.023 0.000 8.9 5 1
02/25/06 5:19 p -15.2 -15.2 -15.2 --- --- 25.2 E 0.42 27.8 -28.4 --- --- 725.2 0.023 0.000 8.9 5 1
02/25/06 5:20 p -15.2 -15.2 -15.3 --- --- 24.3 E 0.41 28.7 -28.3 --- --- 725.4 0.023 0.000 8.9 5 1
02/25/06 5:21 p -15.2 -15.2 -15.2 --- --- 22.6 E 0.38 28.7 -27.9 --- --- 725.3 0.023 0.000 8.9 5 1
02/25/06 5:22 p -15.2 -15.2 -15.2 --- --- 22.6 E 0.38 27.8 -27.8 --- --- 725.4 0.023 0.000 8.9 5 1
02/25/06 5:23 p -15.2 -15.2 -15.2 --- --- 23.5 E 0.39 27.0 -28.1 --- --- 725.4 0.023 0.000 8.9 5 1
02/25/06 5:24 p -15.2 -15.2 -15.2 --- --- 23.5 E 0.39 29.6 -28.1 --- --- 725.4 0.023 0.000 8.9 5 1
02/25/06 5:25 p -15.2 -15.2 -15.2 --- --- 22.6 E 0.38 30.4 -27.9 --- --- 725.3 0.023 0.000 8.9 5 1
02/25/06 5:26 p -15.2 -15.2 -15.2 --- --- 25.2 E 0.42 30.4 -28.4 --- --- 725.3 0.023 0.000 8.9 5 1
02/25/06 5:27 p -15.2 -15.2 -15.2 --- --- 23.5 E 0.39 26.1 -28.1 --- --- 725.4 0.023 0.000 8.9 4 1
02/25/06 5:28 p -15.2 -15.2 -15.2 --- --- 22.6 E 0.38 27.0 -27.9 --- --- 725.4 0.023 0.000 8.9 5 1
02/25/06 5:29 p -15.2 -15.2 -15.2 --- --- 24.3 E 0.41 30.4 -28.3 --- --- 725.4 0.023 0.000 8.9 5 1
02/25/06 5:30 p -15.2 -15.2 -15.2 --- --- 23.5 E 0.39 27.8 -28.1 --- --- 725.3 0.023 0.000 8.9 5 1
02/25/06 5:31 p -15.2 -15.2 -15.2 --- --- 23.5 E 0.39 26.1 -28.1 --- --- 725.4 0.023 0.000 8.9 5 1
02/25/06 5:32 p -15.2 -15.2 -15.2 --- --- 23.5 E 0.39 30.4 -28.1 --- --- 725.4 0.023 0.000 8.9 5 1
02/25/06 5:33 p -15.2 -15.2 -15.2 --- --- 25.2 E 0.42 29.6 -28.4 --- --- 725.3 0.023 0.000 8.9 5 1
02/25/06 5:34 p -15.2 -15.2 -15.2 --- --- 23.5 E 0.39 26.1 -28.1 --- --- 725.5 0.023 0.000 8.9 5 1
02/25/06 5:35 p -15.2 -15.2 -15.3 --- --- 23.5 E 0.39 29.6 -28.1 --- --- 725.4 0.023 0.000 8.8 5 1
02/25/06 5:36 p -15.3 -15.2 -15.3 --- --- 23.5 E 0.39 26.1 -28.2 --- --- 725.4 0.023 0.000 8.8 5 1
02/25/06 5:37 p -15.3 -15.3 -15.3 --- --- 25.2 E 0.42 27.8 -28.5 --- --- 725.5 0.023 0.000 8.8 5 1
02/25/06 5:38 p -15.3 -15.2 -15.3 --- --- 26.1 E 0.43 29.6 -28.7 --- --- 725.3 0.023 0.000 8.8 4 1
02/25/06 5:39 p -15.3 -15.3 -15.3 --- --- 25.2 E 0.42 27.8 -28.5 --- --- 725.4 0.023 0.000 8.8 5 1
02/25/06 5:40 p -15.3 -15.3 -15.3 --- --- 22.6 E 0.38 27.8 -27.9 --- --- 725.4 0.023 0.000 8.8 5 1
02/25/06 5:41 p -15.3 -15.3 -15.3 --- --- 25.2 E 0.42 28.7 -28.5 --- --- 725.3 0.023 0.000 8.8 4 1
02/25/06 5:42 p -15.3 -15.3 -15.3 --- --- 25.2 E 0.42 29.6 -28.5 --- --- 725.4 0.023 0.000 8.8 5 1
02/25/06 5:43 p -15.3 -15.3 -15.3 --- --- 25.2 E 0.42 28.7 -28.5 --- --- 725.4 0.023 0.000 8.8 5 1
02/25/06 5:44 p -15.3 -15.3 -15.3 --- --- 24.3 E 0.41 29.6 -28.3 --- --- 725.3 0.023 0.000 8.8 5 1
02/25/06 5:45 p -15.3 -15.3 -15.3 --- --- 23.5 E 0.39 27.0 -28.2 --- --- 725.4 0.023 0.000 8.8 5 1
02/25/06 5:46 p -15.3 -15.3 -15.3 --- --- 24.3 E 0.41 27.8 -28.3 --- --- 725.4 0.023 0.000 8.8 5 1
02/25/06 5:47 p -15.3 -15.3 -15.3 --- --- 22.6 E 0.38 28.7 -27.9 --- --- 725.5 0.023 0.000 8.8 4 1
02/25/06 5:48 p -15.3 -15.3 -15.3 --- --- 23.5 E 0.39 28.7 -28.2 --- --- 725.4 0.023 0.000 8.8 4 1
02/25/06 5:49 p -15.3 -15.3 -15.3 --- --- 23.5 E 0.39 26.1 -28.2 --- --- 725.5 0.023 0.000 8.8 5 1
02/25/06 5:50 p -15.3 -15.3 -15.3 --- --- 23.5 E 0.39 29.6 -28.2 --- --- 725.4 0.023 0.000 8.8 4 1
02/25/06 5:51 p -15.3 -15.3 -15.3 --- --- 22.6 E 0.38 25.2 -28.1 --- --- 725.5 0.023 0.000 8.8 5 1
02/25/06 5:52 p -15.3 -15.3 -15.3 --- --- 23.5 E 0.39 27.8 -28.2 --- --- 725.4 0.023 0.000 8.8 5 1
02/25/06 5:53 p -15.3 -15.3 -15.3 --- --- 24.3 E 0.41 27.8 -28.3 --- --- 725.4 0.023 0.000 8.8 4 1
02/25/06 5:54 p -15.3 -15.3 -15.3 --- --- 24.3 E 0.41 27.8 -28.4 --- --- 725.5 0.023 0.000 8.8 4 1
02/25/06 5:55 p -15.3 -15.3 -15.3 --- --- 25.2 E 0.42 27.8 -28.6 --- --- 725.5 0.023 0.000 8.8 5 1
02/25/06 5:56 p -15.3 -15.3 -15.3 --- --- 24.3 E 0.41 28.7 -28.4 --- --- 725.4 0.023 0.000 8.8 5 1
02/25/06 5:57 p -15.3 -15.3 -15.3 --- --- 23.5 E 0.39 27.0 -28.2 --- --- 725.5 0.023 0.000 8.8 4 1
02/25/06 5:58 p -15.3 -15.3 -15.3 --- --- 23.5 E 0.39 27.0 -28.2 --- --- 725.5 0.023 0.000 8.8 4 1
02/25/06 5:59 p -15.3 -15.3 -15.3 --- --- 22.6 E 0.38 27.0 -28.1 --- --- 725.5 0.023 0.000 8.8 5 1
02/25/06 6:00 p -15.3 -15.3 -15.4 --- --- 23.5 E 0.39 27.8 -28.2 --- --- 725.5 0.023 0.000 8.8 4 1
02/25/06 6:01 p -15.3 -15.3 -15.3 --- --- 22.6 E 0.38 27.8 -28.1 --- --- 725.4 0.023 0.000 8.8 4 1
02/25/06 6:02 p -15.4 -15.3 -15.4 --- --- 22.6 E 0.38 27.8 -28.1 --- --- 725.6 0.023 0.000 8.8 4 1
02/25/06 6:03 p -15.4 -15.3 -15.4 --- --- 23.5 E 0.39 27.0 -28.3 --- --- 725.6 0.023 0.000 8.8 4 1
02/25/06 6:04 p -15.4 -15.4 -15.4 --- --- 23.5 E 0.39 28.7 -28.3 --- --- 725.4 0.023 0.000 8.8 4 1
02/25/06 6:05 p -15.4 -15.4 -15.4 --- --- 23.5 E 0.39 27.8 -28.3 --- --- 725.6 0.023 0.000 8.8 5 1
02/25/06 6:06 p -15.4 -15.4 -15.4 --- --- 24.3 E 0.41 27.0 -28.5 --- --- 725.4 0.023 0.000 8.7 4 1
02/25/06 6:07 p -15.4 -15.4 -15.4 --- --- 24.3 E 0.41 27.8 -28.5 --- --- 725.6 0.023 0.000 8.8 4 1
02/25/06 6:08 p -15.4 -15.4 -15.4 --- --- 23.5 E 0.39 27.0 -28.4 --- --- 725.5 0.023 0.000 8.7 4 1
02/25/06 6:09 p -15.4 -15.4 -15.4 --- --- 23.5 E 0.39 28.7 -28.4 --- --- 725.6 0.023 0.000 8.8 4 1
02/25/06 6:10 p -15.4 -15.4 -15.4 --- --- 21.7 E 0.36 25.2 -28.0 --- --- 725.6 0.023 0.000 8.7 4 1
02/25/06 6:11 p -15.4 -15.4 -15.5 --- --- 22.6 E 0.38 27.0 -28.2 --- --- 725.5 0.023 0.000 8.7 4 1
02/25/06 6:12 p -15.4 -15.4 -15.4 --- --- 24.3 E 0.41 28.7 -28.6 --- --- 725.4 0.023 0.000 8.7 4 1
02/25/06 6:13 p -15.4 -15.4 -15.5 --- --- 24.3 E 0.41 27.8 -28.6 --- --- 725.5 0.023 0.000 8.7 4 1
02/25/06 6:14 p -15.5 -15.5 -15.5 --- --- 23.5 E 0.39 27.8 -28.4 --- --- 725.5 0.023 0.000 8.7 4 1
02/25/06 6:15 p -15.5 -15.5 -15.5 --- --- 23.5 E 0.39 27.0 -28.4 --- --- 725.6 0.023 0.000 8.7 4 1
02/25/06 6:16 p -15.5 -15.5 -15.5 --- --- 24.3 E 0.41 27.8 -28.7 --- --- 725.6 0.023 0.000 8.7 4 1
02/25/06 6:17 p -15.5 -15.5 -15.5 --- --- 23.5 E 0.39 27.8 -28.4 --- --- 725.6 0.023 0.000 8.7 4 1
02/25/06 6:18 p -15.5 -15.5 -15.5 --- --- 23.5 E 0.39 28.7 -28.4 --- --- 725.5 0.023 0.000 8.7 4 1
02/25/06 6:19 p -15.5 -15.5 -15.5 --- --- 23.5 E 0.39 27.8 -28.4 --- --- 725.6 0.023 0.000 8.7 4 1
02/25/06 6:20 p -15.5 -15.5 -15.6 --- --- 24.3 E 0.41 28.7 -28.7 --- --- 725.5 0.023 0.000 8.7 4 1
02/25/06 6:21 p -15.5 -15.5 -15.5 --- --- 26.1 E 0.43 28.7 -29.0 --- --- 725.5 0.023 0.000 8.7 4 1
02/25/06 6:22 p -15.5 -15.5 -15.5 --- --- 26.1 E 0.43 30.4 -29.0 --- --- 725.5 0.023 0.000 8.7 4 1
02/25/06 6:23 p -15.5 -15.5 -15.5 --- --- 26.1 E 0.43 31.3 -29.0 --- --- 725.6 0.023 0.000 8.7 4 1
02/25/06 6:24 p -15.5 -15.5 -15.5 --- --- 25.2 E 0.42 30.4 -28.8 --- --- 725.4 0.023 0.000 8.7 4 1
02/25/06 6:25 p -15.5 -15.5 -15.5 --- --- 26.1 E 0.43 28.7 -29.0 --- --- 725.5 0.023 0.000 8.7 4 1
02/25/06 6:26 p -15.4 -15.4 -15.5 --- --- 27.0 E 0.45 30.4 -29.1 --- --- 725.5 0.023 0.000 8.6 4 1
02/25/06 6:27 p -15.4 -15.4 -15.4 --- --- 26.1 E 0.43 30.4 -28.9 --- --- 725.4 0.023 0.000 8.6 4 1
02/25/06 6:28 p -15.4 -15.4 -15.4 --- --- 27.0 E 0.45 30.4 -29.1 --- --- 725.4 0.023 0.000 8.6 4 1
02/25/06 6:29 p -15.4 -15.4 -15.4 --- --- 27.0 E 0.45 30.4 -29.1 --- --- 725.3 0.023 0.000 8.6 4 1
02/25/06 6:30 p -15.4 -15.4 -15.4 --- --- 26.1 E 0.43 31.3 -28.9 --- --- 725.3 0.023 0.000 8.6 4 1
02/25/06 6:31 p -15.4 -15.4 -15.4 --- --- 28.7 E 0.48 33.0 -29.3 --- --- 725.4 0.023 0.000 8.6 4 1
02/25/06 6:32 p -15.4 -15.4 -15.4 --- --- 27.0 E 0.45 30.4 -29.0 --- --- 725.4 0.023 0.000 8.6 4 1
02/25/06 6:33 p -15.4 -15.4 -15.4 --- --- 27.8 E 0.46 31.3 -29.2 --- --- 725.3 0.023 0.000 8.6 4 1
02/25/06 6:34 p -15.4 -15.4 -15.4 --- --- 29.6 E 0.49 33.0 -29.5 --- --- 725.3 0.023 0.000 8.6 4 1
02/25/06 6:35 p -15.4 -15.4 -15.4 --- --- 29.6 E 0.49 35.7 -29.5 --- --- 725.3 0.023 0.000 8.6 4 1
02/25/06 6:36 p -15.4 -15.3 -15.4 --- --- 30.4 E 0.51 34.8 -29.7 --- --- 725.2 0.023 0.000 8.6 4 1
02/25/06 6:37 p -15.4 -15.3 -15.4 --- --- 29.6 E 0.49 33.9 -29.5 --- --- 725.3 0.023 0.000 8.6 4 1
02/25/06 6:38 p -15.3 -15.3 -15.4 --- --- 29.6 E 0.49 34.8 -29.4 --- --- 725.3 0.023 0.000 8.6 4 1
02/25/06 6:39 p -15.3 -15.3 -15.4 --- --- 31.3 E 0.52 34.8 -29.7 --- --- 725.2 0.023 0.000 8.5 4 1
02/25/06 6:40 p -15.3 -15.3 -15.3 --- --- 31.3 E 0.52 35.7 -29.7 --- --- 725.4 0.023 0.000 8.5 4 1
02/25/06 6:41 p -15.3 -15.3 -15.3 --- --- 31.3 E 0.52 34.8 -29.7 --- --- 725.3 0.023 0.000 8.5 4 1
02/25/06 6:42 p -15.3 -15.3 -15.3 --- --- 32.2 E 0.54 35.7 -29.9 --- --- 725.3 0.023 0.000 8.5 4 1
02/25/06 6:43 p -15.3 -15.3 -15.3 --- --- 31.3 ESE 0.52 36.5 -29.7 --- --- 725.3 0.023 0.000 8.5 4 1
02/25/06 6:44 p -15.3 -15.3 -15.3 --- --- 32.2 E 0.54 35.7 -29.9 --- --- 725.3 0.023 0.000 8.5 4 1
02/25/06 6:45 p -15.3 -15.3 -15.3 --- --- 30.4 E 0.51 33.0 -29.6 --- --- 725.4 0.023 0.000 8.4 4 1
02/25/06 6:46 p -15.3 -15.3 -15.3 --- --- 32.2 E 0.54 34.8 -29.9 --- --- 725.3 0.023 0.000 8.4 4 1
02/25/06 6:47 p -15.3 -15.3 -15.3 --- --- 32.2 E 0.54 36.5 -29.9 --- --- 725.4 0.023 0.000 8.4 4 1
02/25/06 6:48 p -15.3 -15.3 -15.3 --- --- 32.2 E 0.54 35.7 -29.8 --- --- 725.3 0.023 0.000 8.4 4 1
02/25/06 6:49 p -15.3 -15.3 -15.3 --- --- 32.2 E 0.54 36.5 -29.8 --- --- 725.3 0.023 0.000 8.4 4 1
02/25/06 6:50 p -15.3 -15.3 -15.3 --- --- 33.0 E 0.55 34.8 -29.9 --- --- 725.3 0.023 0.000 8.4 4 1
02/25/06 6:51 p -15.3 -15.3 -15.3 --- --- 33.0 E 0.55 35.7 -29.9 --- --- 725.3 0.023 0.000 8.4 4 1
02/25/06 6:52 p -15.3 -15.3 -15.3 --- --- 33.0 ESE 0.55 35.7 -29.9 --- --- 725.2 0.023 0.000 8.4 4 1
02/25/06 6:53 p -15.3 -15.3 -15.3 --- --- 31.3 E 0.52 34.8 -29.7 --- --- 725.3 0.023 0.000 8.4 4 1
02/25/06 6:54 p -15.3 -15.2 -15.3 --- --- 32.2 E 0.54 35.7 -29.8 --- --- 725.2 0.023 0.000 8.4 4 1
02/25/06 6:55 p -15.3 -15.2 -15.3 --- --- 33.0 E 0.55 35.7 -29.9 --- --- 725.3 0.023 0.000 8.4 4 1
02/25/06 6:56 p -15.2 -15.2 -15.3 --- --- 32.2 ESE 0.54 34.8 -29.7 --- --- 725.3 0.023 0.000 8.4 4 1
02/25/06 6:57 p -15.2 -15.2 -15.3 --- --- 31.3 E 0.52 34.8 -29.6 --- --- 725.4 0.023 0.000 8.4 4 1
02/25/06 6:58 p -15.2 -15.2 -15.2 --- --- 31.3 E 0.52 35.7 -29.6 --- --- 725.4 0.023 0.000 8.4 4 1
02/25/06 6:59 p -15.2 -15.2 -15.2 --- --- 30.4 E 0.51 33.9 -29.4 --- --- 725.4 0.023 0.000 8.4 4 1
02/25/06 7:00 p -15.2 -15.2 -15.2 --- --- 28.7 E 0.48 33.9 -29.1 --- --- 725.5 0.023 0.000 8.4 4 1
02/25/06 7:01 p -15.2 -15.2 -15.2 --- --- 29.6 E 0.49 32.2 -29.2 --- --- 725.6 0.023 0.000 8.4 4 1
02/25/06 7:02 p -15.2 -15.2 -15.2 --- --- 29.6 E 0.49 32.2 -29.2 --- --- 725.6 0.023 0.000 8.4 4 1
02/25/06 7:03 p -15.2 -15.2 -15.2 --- --- 28.7 E 0.48 31.3 -29.1 --- --- 725.7 0.023 0.000 8.4 4 1
02/25/06 7:04 p -15.2 -15.1 -15.2 --- --- 27.8 E 0.46 33.9 -28.9 --- --- 725.6 0.023 0.000 8.4 4 1
02/25/06 7:05 p -15.1 -15.1 -15.1 --- --- 28.7 E 0.48 33.0 -28.9 --- --- 725.6 0.023 0.000 8.4 4 1
02/25/06 7:06 p -15.1 -15.1 -15.1 --- --- 29.6 E 0.49 33.0 -29.1 --- --- 725.7 0.023 0.000 8.4 4 1
02/25/06 7:07 p -15.1 -15.1 -15.1 --- --- 28.7 E 0.48 31.3 -28.9 --- --- 725.7 0.023 0.000 8.4 4 1
02/25/06 7:08 p -15.1 -15.1 -15.1 --- --- 29.6 E 0.49 32.2 -29.1 --- --- 725.6 0.023 0.000 8.4 4 1
02/25/06 7:09 p -15.1 -15.1 -15.1 --- --- 29.6 E 0.49 32.2 -29.1 --- --- 725.6 0.023 0.000 8.3 4 1
02/25/06 7:10 p -15.0 -15.0 -15.1 --- --- 27.0 E 0.45 30.4 -28.5 --- --- 725.6 0.023 0.000 8.3 4 1
02/25/06 7:11 p -15.0 -15.0 -15.1 --- --- 27.0 E 0.45 32.2 -28.5 --- --- 725.7 0.023 0.000 8.3 4 1
02/25/06 7:12 p -15.0 -15.0 -15.0 --- --- 28.7 ESE 0.48 32.2 -28.8 --- --- 725.7 0.023 0.000 8.3 4 1
02/25/06 7:13 p -15.0 -15.0 -15.0 --- --- 28.7 E 0.48 32.2 -28.8 --- --- 725.7 0.023 0.000 8.3 4 1
02/25/06 7:14 p -14.9 -14.9 -15.0 --- --- 28.7 E 0.48 32.2 -28.7 --- --- 725.7 0.023 0.000 8.3 4 1
02/25/06 7:15 p -14.9 -14.9 -15.0 --- --- 27.8 E 0.46 31.3 -28.6 --- --- 725.7 0.023 0.000 8.3 4 1
02/25/06 7:16 p -14.9 -14.9 -14.9 --- --- 28.7 E 0.48 33.0 -28.7 --- --- 725.6 0.023 0.000 8.3 4 1
02/25/06 7:17 p -14.9 -14.9 -14.9 --- --- 28.7 ESE 0.48 30.4 -28.7 --- --- 725.7 0.023 0.000 8.3 4 1
02/25/06 7:18 p -14.9 -14.9 -14.9 --- --- 27.8 E 0.46 31.3 -28.6 --- --- 725.7 0.023 0.000 8.3 4 1
02/25/06 7:19 p -14.9 -14.9 -14.9 --- --- 26.1 E 0.43 30.4 -28.2 --- --- 725.7 0.023 0.000 8.3 4 1
02/25/06 7:20 p -14.9 -14.9 -14.9 --- --- 27.0 E 0.45 30.4 -28.3 --- --- 725.7 0.023 0.000 8.3 4 1
02/25/06 7:21 p -14.9 -14.9 -14.9 --- --- 27.0 E 0.45 30.4 -28.3 --- --- 725.6 0.023 0.000 8.3 4 1
02/25/06 7:22 p -14.9 -14.9 -14.9 --- --- 28.7 E 0.48 31.3 -28.7 --- --- 725.6 0.023 0.000 8.2 4 1
02/25/06 7:23 p -14.9 -14.9 -14.9 --- --- 27.0 E 0.45 29.6 -28.3 --- --- 725.7 0.023 0.000 8.2 4 1
02/25/06 7:24 p -14.9 -14.9 -14.9 --- --- 26.1 E 0.43 32.2 -28.2 --- --- 725.7 0.023 0.000 8.2 4 1
02/25/06 7:25 p -14.9 -14.9 -14.9 --- --- 26.1 E 0.43 30.4 -28.2 --- --- 725.8 0.023 0.000 8.2 4 1
02/25/06 7:26 p -14.9 -14.9 -14.9 --- --- 27.0 E 0.45 32.2 -28.3 --- --- 725.8 0.023 0.000 8.2 4 1
02/25/06 7:27 p -14.9 -14.9 -14.9 --- --- 27.0 E 0.45 29.6 -28.3 --- --- 725.8 0.023 0.000 8.2 4 1
02/25/06 7:28 p -14.9 -14.9 -14.9 --- --- 26.1 E 0.43 29.6 -28.2 --- --- 725.7 0.023 0.000 8.2 4 1
02/25/06 7:29 p -14.9 -14.9 -14.9 --- --- 26.1 E 0.43 33.0 -28.2 --- --- 725.7 0.023 0.000 8.2 4 1
02/25/06 7:30 p -14.9 -14.9 -14.9 --- --- 27.8 E 0.46 32.2 -28.5 --- --- 725.8 0.023 0.000 8.2 4 1
02/25/06 7:31 p -14.9 -14.9 -14.9 --- --- 27.0 E 0.45 30.4 -28.3 --- --- 725.8 0.023 0.000 8.2 4 1
02/25/06 7:32 p -14.9 -14.9 -14.9 --- --- 27.0 E 0.45 31.3 -28.3 --- --- 725.8 0.023 0.000 8.2 4 1
02/25/06 7:33 p -14.9 -14.9 -14.9 --- --- 27.0 E 0.45 29.6 -28.4 --- --- 725.8 0.023 0.000 8.2 4 1
02/25/06 7:34 p -14.9 -14.9 -14.9 --- --- 27.8 E 0.46 31.3 -28.5 --- --- 725.6 0.023 0.000 8.2 4 1
02/25/06 7:35 p -14.9 -14.9 -14.9 --- --- 28.7 E 0.48 31.3 -28.7 --- --- 725.7 0.023 0.000 8.2 4 1
02/25/06 7:36 p -14.9 -14.9 -14.9 --- --- 27.8 E 0.46 31.3 -28.6 --- --- 725.6 0.023 0.000 8.2 4 1
02/25/06 7:37 p -14.9 -14.9 -14.9 --- --- 28.7 ESE 0.48 30.4 -28.7 --- --- 725.7 0.023 0.000 8.2 4 1
02/25/06 7:38 p -14.9 -14.9 -14.9 --- --- 28.7 E 0.48 32.2 -28.7 --- --- 725.7 0.023 0.000 8.2 4 1
02/25/06 7:39 p -14.9 -14.9 -14.9 --- --- 27.8 E 0.46 31.3 -28.6 --- --- 725.8 0.023 0.000 8.2 4 1
02/25/06 7:40 p -14.9 -14.9 -14.9 --- --- 27.8 E 0.46 32.2 -28.6 --- --- 725.8 0.023 0.000 8.2 4 1
02/25/06 7:41 p -14.9 -14.9 -14.9 --- --- 27.0 E 0.45 30.4 -28.4 --- --- 725.9 0.023 0.000 8.2 4 1
02/25/06 7:42 p -14.9 -14.9 -14.9 --- --- 26.1 E 0.43 30.4 -28.2 --- --- 725.7 0.023 0.000 8.2 4 1
02/25/06 7:43 p -14.9 -14.9 -14.9 --- --- 27.8 E 0.46 29.6 -28.6 --- --- 725.7 0.023 0.000 8.1 4 1
02/25/06 7:44 p -14.9 -14.9 -14.9 --- --- 27.0 E 0.45 29.6 -28.4 --- --- 725.8 0.023 0.000 8.1 4 1
02/25/06 7:45 p -14.9 -14.9 -14.9 --- --- 27.0 ESE 0.45 30.4 -28.4 --- --- 725.8 0.023 0.000 8.1 4 1
02/25/06 7:46 p -14.9 -14.9 -14.9 --- --- 26.1 E 0.43 30.4 -28.2 --- --- 725.9 0.023 0.000 8.1 4 1
02/25/06 7:47 p -14.9 -14.9 -14.9 --- --- 26.1 E 0.43 30.4 -28.2 --- --- 726.0 0.023 0.000 8.1 4 1
02/25/06 7:48 p -14.9 -14.9 -14.9 --- --- 25.2 E 0.42 29.6 -28.1 --- --- 726.0 0.023 0.000 8.1 4 1
02/25/06 7:49 p -14.9 -14.9 -14.9 --- --- 25.2 E 0.42 29.6 -28.1 --- --- 725.9 0.023 0.000 8.1 4 1
02/25/06 7:50 p -14.9 -14.9 -14.9 --- --- 24.3 E 0.41 27.8 -27.9 --- --- 726.0 0.023 0.000 8.1 4 1
02/25/06 7:51 p -14.9 -14.9 -14.9 --- --- 26.1 E 0.43 30.4 -28.2 --- --- 726.1 0.023 0.000 8.1 4 1
02/25/06 7:52 p -14.9 -14.9 -14.9 --- --- 24.3 E 0.41 28.7 -27.8 --- --- 726.1 0.023 0.000 8.1 4 1
02/25/06 7:53 p -14.9 -14.9 -14.9 --- --- 23.5 E 0.39 28.7 -27.6 --- --- 726.1 0.023 0.000 8.1 4 1
02/25/06 7:54 p -14.9 -14.9 -14.9 --- --- 25.2 E 0.42 27.8 -28.0 --- --- 726.2 0.023 0.000 8.1 4 1
02/25/06 7:55 p -14.9 -14.9 -14.9 --- --- 25.2 ESE 0.42 28.7 -28.0 --- --- 726.2 0.023 0.000 8.1 4 1
02/25/06 7:56 p -14.8 -14.8 -14.9 --- --- 24.3 E 0.41 27.0 -27.7 --- --- 726.1 0.023 0.000 8.1 4 1
02/25/06 7:57 p -14.8 -14.8 -14.9 --- --- 25.2 E 0.42 29.6 -27.9 --- --- 726.2 0.023 0.000 8.1 4 1
02/25/06 7:58 p -14.8 -14.8 -14.9 --- --- 22.6 E 0.38 27.0 -27.4 --- --- 726.3 0.023 0.000 8.1 4 1
02/25/06 7:59 p -14.8 -14.8 -14.8 --- --- 23.5 E 0.39 27.0 -27.6 --- --- 726.2 0.023 0.000 8.1 4 1
02/25/06 8:00 p -14.8 -14.8 -14.8 --- --- 24.3 ESE 0.41 27.0 -27.7 --- --- 726.2 0.023 0.000 8.1 4 1
02/25/06 8:01 p -14.8 -14.8 -14.8 --- --- 24.3 E 0.41 27.0 -27.7 --- --- 726.2 0.023 0.000 8.1 4 1
02/25/06 8:02 p -14.8 -14.7 -14.8 --- --- 24.3 E 0.41 27.8 -27.7 --- --- 726.3 0.023 0.000 8.1 4 1
02/25/06 8:03 p -14.8 -14.8 -14.8 --- --- 24.3 E 0.41 28.7 -27.7 --- --- 726.3 0.023 0.000 8.1 4 1
02/25/06 8:04 p -14.7 -14.7 -14.8 --- --- 26.1 E 0.43 29.6 -27.9 --- --- 726.3 0.023 0.000 8.1 4 1
02/25/06 8:05 p -14.7 -14.7 -14.7 --- --- 24.3 E 0.41 28.7 -27.6 --- --- 726.3 0.023 0.000 8.1 4 1
02/25/06 8:07 p -14.7 -14.7 -14.7 --- --- 26.1 E 0.43 28.7 -27.9 --- --- 726.3 0.023 0.000 8.1 4 1
02/25/06 8:08 p -14.7 -14.7 -14.7 --- --- 27.0 E 0.45 29.6 -28.1 --- --- 726.3 0.023 0.000 8.1 4 1
02/25/06 8:09 p -14.7 -14.6 -14.7 --- --- 25.2 E 0.42 28.7 -27.7 --- --- 726.3 0.023 0.000 8.1 4 1
02/25/06 8:10 p -14.6 -14.6 -14.7 --- --- 25.2 ESE 0.42 28.7 -27.6 --- --- 726.3 0.023 0.000 8.1 4 1
02/25/06 8:11 p -14.6 -14.6 -14.6 --- --- 26.1 ESE 0.43 29.6 -27.8 --- --- 726.3 0.023 0.000 8.1 4 1
02/25/06 8:12 p -14.6 -14.6 -14.6 --- --- 24.3 ESE 0.41 27.8 -27.4 --- --- 726.3 0.023 0.000 8.1 4 1
02/25/06 8:13 p -14.6 -14.6 -14.6 --- --- 25.2 E 0.42 30.4 -27.6 --- --- 726.3 0.023 0.000 8.1 4 1
02/25/06 8:14 p -14.6 -14.6 -14.6 --- --- 25.2 E 0.42 29.6 -27.6 --- --- 726.3 0.023 0.000 8.1 4 1
02/25/06 8:15 p -14.5 -14.5 -14.6 --- --- 25.2 E 0.42 29.6 -27.4 --- --- 726.3 0.023 0.000 8.1 4 1
02/25/06 8:16 p -14.5 -14.5 -14.6 --- --- 27.8 E 0.46 30.4 -27.9 --- --- 726.2 0.023 0.000 8.1 4 1
02/25/06 8:17 p -14.5 -14.5 -14.5 --- --- 27.0 E 0.45 30.4 -27.8 --- --- 726.3 0.023 0.000 8.1 4 1
02/25/06 8:18 p -14.5 -14.5 -14.5 --- --- 25.2 E 0.42 29.6 -27.4 --- --- 726.1 0.023 0.000 8.1 4 1
02/25/06 8:19 p -14.4 -14.4 -14.5 --- --- 27.8 E 0.46 30.4 -27.9 --- --- 726.1 0.023 0.000 8.1 4 1
02/25/06 8:20 p -14.4 -14.4 -14.4 --- --- 27.8 E 0.46 32.2 -27.9 --- --- 726.2 0.023 0.000 8.1 4 1
02/25/06 8:21 p -14.4 -14.4 -14.4 --- --- 27.8 E 0.46 30.4 -27.9 --- --- 726.2 0.023 0.000 8.1 4 1
02/25/06 8:22 p -14.4 -14.4 -14.4 --- --- 27.0 ESE 0.45 29.6 -27.7 --- --- 726.1 0.023 0.000 8.0 4 1
02/25/06 8:23 p -14.4 -14.4 -14.4 --- --- 27.8 E 0.46 31.3 -27.8 --- --- 726.2 0.023 0.000 8.1 4 1
02/25/06 8:24 p -14.4 -14.4 -14.4 --- --- 27.8 E 0.46 30.4 -27.8 --- --- 726.2 0.023 0.000 8.0 4 1
02/25/06 8:25 p -14.4 -14.4 -14.4 --- --- 28.7 E 0.48 32.2 -28.0 --- --- 726.2 0.023 0.000 8.0 4 1
02/25/06 8:26 p -14.3 -14.3 -14.4 --- --- 28.7 E 0.48 31.3 -27.9 --- --- 726.2 0.023 0.000 8.0 4 1
02/25/06 8:27 p -14.3 -14.3 -14.3 --- --- 28.7 E 0.48 32.2 -27.9 --- --- 726.3 0.023 0.000 8.0 4 1
02/25/06 8:28 p -14.3 -14.3 -14.3 --- --- 27.0 E 0.45 32.2 -27.6 --- --- 726.2 0.023 0.000 8.0 4 1
02/25/06 8:29 p -14.3 -14.3 -14.3 --- --- 27.8 E 0.46 30.4 -27.7 --- --- 726.3 0.023 0.000 8.0 4 1
02/25/06 8:30 p -14.3 -14.3 -14.3 --- --- 27.0 E 0.45 31.3 -27.6 --- --- 726.3 0.023 0.000 8.0 4 1
02/25/06 8:31 p -14.3 -14.3 -14.3 --- --- 28.7 E 0.48 31.3 -27.8 --- --- 726.2 0.023 0.000 7.9 4 1
02/25/06 8:32 p -14.3 -14.3 -14.3 --- --- 29.6 E 0.49 32.2 -28.0 --- --- 726.1 0.023 0.000 8.0 4 1
02/25/06 8:33 p -14.3 -14.3 -14.3 --- --- 28.7 E 0.48 33.0 -27.8 --- --- 726.1 0.023 0.000 8.0 4 1
02/25/06 8:34 p -14.3 -14.3 -14.3 --- --- 27.8 ESE 0.46 32.2 -27.7 --- --- 726.2 0.023 0.000 7.9 4 1
02/25/06 8:35 p -14.3 -14.2 -14.3 --- --- 29.6 E 0.49 33.0 -28.0 --- --- 726.2 0.023 0.000 7.9 4 1
02/25/06 8:36 p -14.2 -14.2 -14.3 --- --- 27.0 E 0.45 32.2 -27.4 --- --- 726.2 0.023 0.000 7.9 4 1
02/25/06 8:37 p -14.2 -14.2 -14.3 --- --- 27.8 E 0.46 31.3 -27.6 --- --- 726.2 0.023 0.000 7.9 4 1
02/25/06 8:38 p -14.2 -14.2 -14.2 --- --- 26.1 E 0.43 30.4 -27.3 --- --- 726.3 0.023 0.000 7.9 4 1
02/25/06 8:39 p -14.2 -14.2 -14.2 --- --- 26.1 E 0.43 31.3 -27.3 --- --- 726.3 0.023 0.000 7.9 4 1
02/25/06 8:40 p -14.2 -14.2 -14.2 --- --- 26.1 E 0.43 30.4 -27.3 --- --- 726.3 0.023 0.000 7.9 4 1
02/25/06 8:41 p -14.2 -14.2 -14.2 --- --- 25.2 E 0.42 29.6 -27.1 --- --- 726.3 0.023 0.000 7.9 4 1
02/25/06 8:42 p -14.2 -14.2 -14.2 --- --- 26.1 E 0.43 30.4 -27.3 --- --- 726.4 0.023 0.000 7.9 4 1
02/25/06 8:43 p -14.2 -14.2 -14.2 --- --- 25.2 E 0.42 28.7 -27.0 --- --- 726.5 0.023 0.000 7.9 4 1
02/25/06 8:44 p -14.2 -14.2 -14.2 --- --- 25.2 E 0.42 30.4 -27.0 --- --- 726.4 0.023 0.000 7.9 4 1
02/25/06 8:45 p -14.2 -14.2 -14.2 --- --- 26.1 E 0.43 29.6 -27.2 --- --- 726.4 0.023 0.000 7.9 4 1
02/25/06 8:46 p -14.2 -14.1 -14.2 --- --- 25.2 E 0.42 29.6 -27.0 --- --- 726.4 0.023 0.000 7.9 4 1
02/25/06 8:47 p -14.2 -14.1 -14.2 --- --- 23.5 E 0.39 27.0 -26.7 --- --- 726.5 0.023 0.000 7.9 4 1
02/25/06 8:48 p -14.2 -14.1 -14.2 --- --- 23.5 E 0.39 28.7 -26.7 --- --- 726.4 0.023 0.000 7.9 4 1
02/25/06 8:49 p -14.1 -14.1 -14.2 --- --- 25.2 E 0.42 27.8 -26.9 --- --- 726.5 0.023 0.000 7.9 4 1
02/25/06 8:50 p -14.1 -14.1 -14.2 --- --- 26.1 E 0.43 30.4 -27.1 --- --- 726.4 0.023 0.000 7.9 4 1
02/25/06 8:51 p -14.1 -14.1 -14.1 --- --- 26.1 E 0.43 31.3 -27.1 --- --- 726.5 0.023 0.000 7.9 4 1
02/25/06 8:52 p -14.1 -14.1 -14.1 --- --- 24.3 E 0.41 27.0 -26.8 --- --- 726.5 0.023 0.000 7.9 4 1
02/25/06 8:53 p -14.1 -14.1 -14.1 --- --- 23.5 E 0.39 27.0 -26.6 --- --- 726.5 0.023 0.000 7.9 4 1
02/25/06 8:54 p -14.1 -14.1 -14.1 --- --- 23.5 E 0.39 27.0 -26.6 --- --- 726.5 0.023 0.000 7.9 4 1
02/25/06 8:55 p -14.1 -14.1 -14.1 --- --- 24.3 ESE 0.41 27.8 -26.7 --- --- 726.5 0.022 0.000 7.9 4 1
02/25/06 8:56 p -14.1 -14.1 -14.1 --- --- 23.5 E 0.39 28.7 -26.6 --- --- 726.5 0.023 0.000 7.9 4 1
02/25/06 8:57 p -14.1 -14.1 -14.1 --- --- 25.2 E 0.42 27.8 -26.9 --- --- 726.5 0.022 0.000 7.9 4 1
02/25/06 8:58 p -14.1 -14.1 -14.1 --- --- 24.3 E 0.41 29.6 -26.7 --- --- 726.4 0.022 0.000 7.9 4 1
02/25/06 8:59 p -14.1 -14.1 -14.1 --- --- 24.3 E 0.41 28.7 -26.7 --- --- 726.5 0.022 0.000 7.9 4 1
02/25/06 9:00 p -14.1 -14.1 -14.1 --- --- 23.5 E 0.39 27.0 -26.5 --- --- 726.4 0.022 0.000 7.9 4 1
02/25/06 9:01 p -14.1 -14.1 -14.1 --- --- 23.5 ESE 0.39 26.1 -26.5 --- --- 726.4 0.022 0.000 7.9 4 1
02/25/06 9:02 p -14.1 -14.1 -14.1 --- --- 25.2 E 0.42 28.7 -26.9 --- --- 726.5 0.022 0.000 7.9 4 1
02/25/06 9:03 p -14.1 -14.1 -14.1 --- --- 25.2 E 0.42 30.4 -26.9 --- --- 726.4 0.022 0.000 7.9 4 1
02/25/06 9:04 p -14.1 -14.1 -14.1 --- --- 24.3 E 0.41 27.8 -26.7 --- --- 726.5 0.022 0.000 7.9 4 1
02/25/06 9:05 p -14.1 -14.1 -14.1 --- --- 22.6 E 0.38 27.0 -26.3 --- --- 726.3 0.022 0.000 7.9 4 1
02/25/06 9:06 p -14.1 -14.1 -14.1 --- --- 24.3 E 0.41 30.4 -26.7 --- --- 726.5 0.022 0.000 7.9 4 1
02/25/06 9:07 p -14.1 -14.0 -14.1 --- --- 27.8 E 0.46 29.6 -27.4 --- --- 726.6 0.022 0.000 7.9 4 1
02/25/06 9:08 p -14.1 -14.0 -14.1 --- --- 25.2 ESE 0.42 28.7 -26.9 --- --- 726.4 0.022 0.000 7.9 4 1
02/25/06 9:09 p -14.1 -14.1 -14.1 --- --- 23.5 E 0.39 29.6 -26.5 --- --- 726.5 0.022 0.000 7.9 4 1
02/25/06 9:10 p -14.0 -14.0 -14.1 --- --- 22.6 E 0.38 29.6 -26.2 --- --- 726.4 0.022 0.000 7.9 4 1
02/25/06 9:11 p -14.0 -14.0 -14.1 --- --- 22.6 E 0.38 27.0 -26.2 --- --- 726.3 0.022 0.000 7.9 4 1
02/25/06 9:12 p -14.0 -14.0 -14.1 --- --- 24.3 E 0.41 29.6 -26.6 --- --- 726.5 0.022 0.000 7.9 4 1
02/25/06 9:13 p -14.1 -14.0 -14.1 --- --- 26.1 ESE 0.43 28.7 -27.1 --- --- 726.5 0.022 0.000 7.9 4 1
02/25/06 9:14 p -14.0 -13.9 -14.0 --- --- 23.5 E 0.39 27.0 -26.4 --- --- 726.4 0.022 0.000 7.9 4 1
02/25/06 9:15 p -14.0 -13.9 -14.0 --- --- 22.6 E 0.38 26.1 -26.2 --- --- 726.4 0.022 0.000 7.9 4 1
02/25/06 9:16 p -14.0 -13.9 -14.0 --- --- 23.5 E 0.39 27.0 -26.4 --- --- 726.4 0.022 0.000 7.9 4 1
02/25/06 9:17 p -14.0 -13.9 -14.0 --- --- 21.7 E 0.36 26.1 -26.1 --- --- 726.4 0.022 0.000 7.9 4 1
02/25/06 9:18 p -14.0 -13.9 -14.0 --- --- 22.6 E 0.38 27.0 -26.2 --- --- 726.5 0.022 0.000 7.9 4 1
02/25/06 9:19 p -13.9 -13.9 -14.0 --- --- 22.6 E 0.38 28.7 -26.2 --- --- 726.4 0.022 0.000 7.9 4 1
02/25/06 9:20 p -13.9 -13.9 -14.0 --- --- 21.7 E 0.36 27.0 -26.0 --- --- 726.5 0.022 0.000 7.9 4 1
02/25/06 9:21 p -13.9 -13.9 -13.9 --- --- 23.5 E 0.39 28.7 -26.3 --- --- 726.5 0.022 0.000 7.9 4 1
02/25/06 9:22 p -13.9 -13.9 -13.9 --- --- 24.3 E 0.41 28.7 -26.6 --- --- 726.5 0.022 0.000 7.9 4 1
02/25/06 9:23 p -13.9 -13.9 -13.9 --- --- 24.3 E 0.41 30.4 -26.6 --- --- 726.6 0.022 0.000 7.9 4 1
02/25/06 9:24 p -13.9 -13.9 -13.9 --- --- 23.5 E 0.39 27.8 -26.3 --- --- 726.6 0.022 0.000 7.9 4 1
02/25/06 9:25 p -13.9 -13.9 -13.9 --- --- 22.6 E 0.38 26.1 -26.2 --- --- 726.6 0.022 0.000 7.9 4 1
02/25/06 9:26 p -13.9 -13.9 -13.9 --- --- 22.6 E 0.38 27.8 -26.2 --- --- 726.6 0.022 0.000 7.9 4 1
02/25/06 9:27 p -13.9 -13.9 -13.9 --- --- 25.2 E 0.42 27.8 -26.7 --- --- 726.6 0.022 0.000 7.9 4 1
02/25/06 9:28 p -13.9 -13.9 -13.9 --- --- 25.2 E 0.42 29.6 -26.7 --- --- 726.5 0.022 0.000 7.9 4 1
02/25/06 9:29 p -13.9 -13.8 -13.9 --- --- 24.3 E 0.41 27.8 -26.4 --- --- 726.6 0.022 0.000 7.9 4 1
02/25/06 9:30 p -13.9 -13.9 -13.9 --- --- 23.5 E 0.39 27.8 -26.3 --- --- 726.5 0.022 0.000 7.9 4 1
02/25/06 9:31 p -13.8 -13.8 -13.9 --- --- 22.6 E 0.38 29.6 -26.0 --- --- 726.6 0.022 0.000 7.9 4 1
02/25/06 9:32 p -13.8 -13.8 -13.8 --- --- 25.2 E 0.42 28.7 -26.6 --- --- 726.5 0.022 0.000 7.9 4 1
02/25/06 9:33 p -13.8 -13.8 -13.8 --- --- 23.5 E 0.39 29.6 -26.2 --- --- 726.5 0.022 0.000 7.9 4 1
02/25/06 9:34 p -13.8 -13.8 -13.8 --- --- 24.3 E 0.41 27.8 -26.4 --- --- 726.5 0.022 0.000 7.9 4 1
02/25/06 9:35 p -13.8 -13.8 -13.8 --- --- 25.2 E 0.42 27.0 -26.5 --- --- 726.5 0.022 0.000 7.9 4 1
02/25/06 9:36 p -13.8 -13.7 -13.8 --- --- 22.6 E 0.38 27.8 -25.9 --- --- 726.5 0.022 0.000 7.9 4 1
02/25/06 9:37 p -13.7 -13.7 -13.8 --- --- 23.5 E 0.39 27.0 -26.1 --- --- 726.5 0.022 0.000 7.9 4 1
02/25/06 9:38 p -13.7 -13.7 -13.7 --- --- 23.5 E 0.39 28.7 -26.1 --- --- 726.5 0.022 0.000 7.9 4 1
02/25/06 9:39 p -13.7 -13.7 -13.7 --- --- 23.5 E 0.39 27.0 -26.1 --- --- 726.6 0.022 0.000 7.9 4 1
02/25/06 9:40 p -13.7 -13.7 -13.7 --- --- 26.1 E 0.43 30.4 -26.5 --- --- 726.5 0.022 0.000 7.9 4 1
02/25/06 9:41 p -13.7 -13.6 -13.7 --- --- 27.0 ESE 0.45 30.4 -26.7 --- --- 726.6 0.022 0.000 7.9 4 1
02/25/06 9:42 p -13.6 -13.6 -13.6 --- --- 25.2 E 0.42 29.6 -26.3 --- --- 726.7 0.022 0.000 7.9 4 1
02/25/06 9:43 p -13.6 -13.6 -13.6 --- --- 24.3 E 0.41 27.0 -26.1 --- --- 726.5 0.022 0.000 7.9 4 1
02/25/06 9:44 p -13.6 -13.6 -13.6 --- --- 23.5 E 0.39 27.8 -25.9 --- --- 726.7 0.022 0.000 7.8 4 1
02/25/06 9:45 p -13.6 -13.6 -13.6 --- --- 21.7 E 0.36 27.0 -25.4 --- --- 726.6 0.022 0.000 7.8 4 1
02/25/06 9:46 p -13.6 -13.5 -13.6 --- --- 23.5 E 0.39 27.8 -25.8 --- --- 726.7 0.022 0.000 7.8 4 1
02/25/06 9:47 p -13.5 -13.5 -13.6 --- --- 20.9 E 0.35 25.2 -25.2 --- --- 726.6 0.022 0.000 7.9 4 1
02/25/06 9:48 p -13.5 -13.4 -13.5 --- --- 21.7 E 0.36 27.0 -25.4 --- --- 726.8 0.022 0.000 7.9 4 1
02/25/06 9:49 p -13.4 -13.4 -13.4 --- --- 22.6 E 0.38 27.0 -25.5 --- --- 726.7 0.022 0.000 7.9 4 1
02/25/06 9:50 p -13.4 -13.4 -13.4 --- --- 21.7 E 0.36 26.1 -25.3 --- --- 726.8 0.022 0.000 7.9 4 1
02/25/06 9:51 p -13.4 -13.4 -13.4 --- --- 20.9 E 0.35 26.1 -25.1 --- --- 726.8 0.022 0.000 7.9 4 1
02/25/06 9:52 p -13.4 -13.4 -13.4 --- --- 20.9 E 0.35 26.1 -25.1 --- --- 726.8 0.022 0.000 7.9 4 1
02/25/06 9:53 p -13.4 -13.3 -13.4 --- --- 22.6 E 0.38 27.8 -25.4 --- --- 726.8 0.022 0.000 7.9 4 1
02/25/06 9:54 p -13.3 -13.3 -13.4 --- --- 23.5 E 0.39 27.8 -25.6 --- --- 726.9 0.022 0.000 7.9 4 1
02/25/06 9:55 p -13.4 -13.3 -13.4 --- --- 24.3 E 0.41 27.8 -25.8 --- --- 726.9 0.022 0.000 7.9 4 1
02/25/06 9:56 p -13.3 -13.3 -13.4 --- --- 23.5 E 0.39 27.8 -25.6 --- --- 726.9 0.022 0.000 7.9 4 1
02/25/06 9:57 p -13.3 -13.3 -13.3 --- --- 24.3 E 0.41 27.0 -25.7 --- --- 726.7 0.022 0.000 7.9 4 1
02/25/06 9:58 p -13.3 -13.3 -13.3 --- --- 23.5 E 0.39 27.8 -25.6 --- --- 726.8 0.022 0.000 7.9 4 1
02/25/06 9:59 p -13.3 -13.3 -13.3 --- --- 21.7 E 0.36 27.8 -25.1 --- --- 726.7 0.022 0.000 7.9 4 1
02/25/06 10:00 p -13.2 -13.2 -13.3 --- --- 22.6 E 0.38 28.7 -25.2 --- --- 726.7 0.022 0.000 7.9 4 1
02/25/06 10:01 p -13.2 -13.2 -13.3 --- --- 24.3 E 0.41 27.0 -25.6 --- --- 726.7 0.022 0.000 7.9 4 1
02/25/06 10:02 p -13.2 -13.2 -13.2 --- --- 23.5 E 0.39 27.8 -25.4 --- --- 726.8 0.022 0.000 7.9 4 1
02/25/06 10:03 p -13.2 -13.2 -13.2 --- --- 25.2 E 0.42 27.0 -25.7 --- --- 726.8 0.022 0.000 7.9 4 1
02/25/06 10:04 p -13.2 -13.1 -13.2 --- --- 27.0 E 0.45 30.4 -26.0 --- --- 726.7 0.022 0.000 7.9 4 1
02/25/06 10:05 p -13.1 -13.1 -13.2 --- --- 23.5 E 0.39 27.8 -25.2 --- --- 726.8 0.022 0.000 7.9 4 1
02/25/06 10:06 p -13.2 -13.1 -13.2 --- --- 24.3 E 0.41 28.7 -25.5 --- --- 726.7 0.022 0.000 7.9 4 1
02/25/06 10:07 p -13.1 -13.1 -13.2 --- --- 25.2 E 0.42 28.7 -25.6 --- --- 726.7 0.022 0.000 7.9 4 1
02/25/06 10:08 p -13.1 -13.1 -13.1 --- --- 25.2 E 0.42 29.6 -25.6 --- --- 726.6 0.022 0.000 7.9 4 1
02/25/06 10:09 p -13.1 -13.1 -13.1 --- --- 23.5 E 0.39 29.6 -25.2 --- --- 726.7 0.022 0.000 7.9 4 1
02/25/06 10:10 p -13.1 -13.1 -13.1 --- --- 23.5 E 0.39 27.8 -25.2 --- --- 726.7 0.022 0.000 7.9 4 1
02/25/06 10:11 p -13.1 -13.1 -13.1 --- --- 24.3 E 0.41 28.7 -25.4 --- --- 726.7 0.022 0.000 7.9 4 1
02/25/06 10:12 p -13.1 -13.1 -13.1 --- --- 24.3 E 0.41 29.6 -25.3 --- --- 726.7 0.022 0.000 7.9 4 1
02/25/06 10:13 p -13.1 -13.1 -13.1 --- --- 22.6 ESE 0.38 27.8 -25.0 --- --- 726.8 0.022 0.000 7.9 4 1
02/25/06 10:14 p -13.1 -13.1 -13.1 --- --- 25.2 E 0.42 29.6 -25.5 --- --- 726.8 0.022 0.000 7.9 4 1
02/25/06 10:15 p -13.1 -13.1 -13.1 --- --- 24.3 E 0.41 27.8 -25.4 --- --- 726.7 0.022 0.000 7.9 4 1
02/25/06 10:16 p -13.1 -13.1 -13.1 --- --- 27.8 E 0.46 31.3 -26.1 --- --- 726.7 0.022 0.000 7.9 4 1
02/25/06 10:17 p -13.1 -13.1 -13.1 --- --- 24.3 E 0.41 31.3 -25.4 --- --- 726.9 0.022 0.000 7.9 4 1
02/25/06 10:18 p -13.1 -13.1 -13.1 --- --- 24.3 E 0.41 28.7 -25.3 --- --- 726.7 0.022 0.000 7.9 4 1
02/25/06 10:19 p -13.1 -13.1 -13.1 --- --- 24.3 E 0.41 28.7 -25.3 --- --- 726.8 0.022 0.000 7.9 4 1
02/25/06 10:20 p -13.1 -13.1 -13.1 --- --- 25.2 E 0.42 29.6 -25.5 --- --- 726.8 0.022 0.000 7.9 4 1
02/25/06 10:21 p -13.1 -13.1 -13.1 --- --- 23.5 E 0.39 30.4 -25.2 --- --- 726.7 0.022 0.000 7.9 4 1
02/25/06 10:22 p -13.1 -13.1 -13.1 --- --- 25.2 E 0.42 30.4 -25.6 --- --- 726.7 0.022 0.000 7.9 4 1
02/25/06 10:23 p -13.1 -13.1 -13.1 --- --- 24.3 E 0.41 32.2 -25.4 --- --- 726.8 0.022 0.000 7.9 4 1
02/25/06 10:24 p -13.1 -13.1 -13.2 --- --- 25.2 E 0.42 28.7 -25.6 --- --- 726.9 0.022 0.000 7.9 4 1
02/25/06 10:25 p -13.2 -13.1 -13.2 --- --- 25.2 E 0.42 31.3 -25.7 --- --- 726.9 0.022 0.000 7.9 4 1
02/25/06 10:26 p -13.2 -13.2 -13.2 --- --- 23.5 E 0.39 27.0 -25.3 --- --- 726.9 0.022 0.000 7.9 4 1
02/25/06 10:27 p -13.2 -13.2 -13.2 --- --- 24.3 E 0.41 31.3 -25.6 --- --- 726.9 0.022 0.000 7.9 4 1
02/25/06 10:28 p -13.2 -13.2 -13.2 --- --- 22.6 E 0.38 27.8 -25.2 --- --- 727.0 0.022 0.000 7.9 4 1
02/25/06 10:29 p -13.3 -13.2 -13.3 --- --- 23.5 E 0.39 29.6 -25.4 --- --- 726.9 0.022 0.000 7.9 4 1
02/25/06 10:30 p -13.2 -13.2 -13.2 --- --- 23.5 E 0.39 28.7 -25.4 --- --- 727.0 0.022 0.000 7.9 4 1
02/25/06 10:31 p -13.3 -13.2 -13.3 --- --- 24.3 E 0.41 27.8 -25.7 --- --- 726.9 0.022 0.000 7.9 4 1
02/25/06 10:32 p -13.3 -13.3 -13.3 --- --- 23.5 E 0.39 31.3 -25.4 --- --- 727.0 0.022 0.000 7.9 4 1
02/25/06 10:33 p -13.3 -13.3 -13.3 --- --- 22.6 E 0.38 27.8 -25.3 --- --- 727.1 0.022 0.000 7.9 4 1
02/25/06 10:34 p -13.3 -13.3 -13.3 --- --- 20.9 E 0.35 26.1 -24.9 --- --- 727.0 0.022 0.000 7.9 4 1
02/25/06 10:35 p -13.3 -13.3 -13.4 --- --- 21.7 E 0.36 25.2 -25.2 --- --- 727.1 0.022 0.000 7.9 4 1
02/25/06 10:36 p -13.3 -13.3 -13.3 --- --- 20.9 E 0.35 26.1 -24.9 --- --- 727.0 0.022 0.000 7.9 4 1
02/25/06 10:37 p -13.3 -13.3 -13.3 --- --- 23.5 ESE 0.39 27.8 -25.6 --- --- 726.8 0.022 0.000 7.9 4 1
02/25/06 10:38 p -13.3 -13.3 -13.4 --- --- 26.1 E 0.43 33.0 -26.1 --- --- 727.1 0.022 0.000 7.9 4 1
02/25/06 10:39 p -13.3 -13.3 -13.4 --- --- 20.9 E 0.35 25.2 -24.9 --- --- 727.0 0.022 0.000 7.9 4 1
02/25/06 10:40 p -13.4 -13.3 -13.4 --- --- 21.7 E 0.36 26.1 -25.2 --- --- 727.1 0.022 0.000 7.8 4 1
02/25/06 10:41 p -13.4 -13.3 -13.4 --- --- 22.6 E 0.38 26.1 -25.4 --- --- 727.0 0.022 0.000 7.9 4 1
02/25/06 10:42 p -13.4 -13.3 -13.4 --- --- 21.7 E 0.36 28.7 -25.2 --- --- 727.0 0.022 0.000 7.9 4 1
02/25/06 10:43 p -13.4 -13.3 -13.4 --- --- 22.6 E 0.38 28.7 -25.4 --- --- 727.1 0.022 0.000 7.9 4 1
02/25/06 10:44 p -13.4 -13.4 -13.4 --- --- 23.5 E 0.39 27.0 -25.6 --- --- 727.2 0.022 0.000 7.9 4 1
02/25/06 10:45 p -13.4 -13.3 -13.4 --- --- 20.0 E 0.33 25.2 -24.8 --- --- 727.0 0.022 0.000 7.9 4 1
02/25/06 10:46 p -13.4 -13.3 -13.4 --- --- 20.9 E 0.35 26.1 -25.1 --- --- 727.0 0.022 0.000 7.9 4 1
02/25/06 10:47 p -13.4 -13.3 -13.4 --- --- 21.7 E 0.36 28.7 -25.2 --- --- 727.1 0.022 0.000 7.9 4 1
02/25/06 10:48 p -13.3 -13.3 -13.4 --- --- 23.5 E 0.39 27.8 -25.6 --- --- 727.0 0.022 0.000 7.9 4 1
02/25/06 10:49 p -13.4 -13.3 -13.4 --- --- 20.9 E 0.35 25.2 -25.1 --- --- 727.0 0.022 0.000 7.9 4 1
02/25/06 10:50 p -13.3 -13.3 -13.4 --- --- 23.5 E 0.39 27.8 -25.6 --- --- 726.9 0.022 0.000 7.9 4 1
02/25/06 10:51 p -13.3 -13.3 -13.3 --- --- 22.6 E 0.38 27.8 -25.3 --- --- 727.1 0.022 0.000 7.9 4 1
02/25/06 10:52 p -13.3 -13.3 -13.3 --- --- 22.6 E 0.38 27.8 -25.3 --- --- 727.2 0.022 0.000 7.9 4 1
02/25/06 10:53 p -13.3 -13.3 -13.3 --- --- 20.0 E 0.33 24.3 -24.8 --- --- 727.2 0.022 0.000 7.9 4 1
02/25/06 10:54 p -13.3 -13.3 -13.3 --- --- 24.3 E 0.41 28.7 -25.7 --- --- 727.2 0.022 0.000 7.9 4 1
02/25/06 10:55 p -13.3 -13.3 -13.3 --- --- 21.7 E 0.36 26.1 -25.2 --- --- 727.2 0.022 0.000 7.9 4 1
02/25/06 10:56 p -13.3 -13.3 -13.3 --- --- 20.9 E 0.35 24.3 -24.9 --- --- 727.1 0.022 0.000 7.9 4 1
02/25/06 10:57 p -13.3 -13.3 -13.3 --- --- 21.7 E 0.36 27.8 -25.1 --- --- 727.2 0.022 0.000 7.9 4 1
02/25/06 10:58 p -13.3 -13.3 -13.3 --- --- 20.9 E 0.35 24.3 -24.9 --- --- 727.3 0.022 0.000 7.9 4 1
02/25/06 10:59 p -13.3 -13.2 -13.3 --- --- 20.0 E 0.33 23.5 -24.7 --- --- 727.3 0.022 0.000 7.9 4 1
02/25/06 11:00 p -13.2 -13.2 -13.2 --- --- 20.9 E 0.35 24.3 -24.8 --- --- 727.4 0.022 0.000 7.9 4 1
02/25/06 11:01 p -13.2 -13.2 -13.2 --- --- 17.4 E 0.29 22.6 -23.9 --- --- 727.4 0.022 0.000 7.9 4 1
02/25/06 11:02 p -13.2 -13.1 -13.2 --- --- 21.7 E 0.36 24.3 -24.9 --- --- 727.3 0.022 0.000 7.9 4 1
02/25/06 11:03 p -13.2 -13.1 -13.2 --- --- 20.9 E 0.35 26.1 -24.7 --- --- 727.4 0.022 0.000 7.9 4 1
02/25/06 11:04 p -13.2 -13.1 -13.2 --- --- 22.6 E 0.38 26.1 -25.1 --- --- 727.3 0.022 0.000 7.9 4 1
02/25/06 11:05 p -13.1 -13.1 -13.1 --- --- 20.0 E 0.33 24.3 -24.4 --- --- 727.4 0.022 0.000 7.9 4 1
02/25/06 11:06 p -13.1 -13.1 -13.1 --- --- 21.7 E 0.36 25.2 -24.9 --- --- 727.2 0.022 0.000 7.9 4 1
02/25/06 11:07 p -13.1 -13.0 -13.1 --- --- 20.9 E 0.35 24.3 -24.6 --- --- 727.3 0.022 0.000 7.9 4 1
02/25/06 11:08 p -13.1 -13.0 -13.1 --- --- 20.9 E 0.35 25.2 -24.6 --- --- 727.3 0.022 0.000 7.9 4 1
02/25/06 11:09 p -13.1 -13.0 -13.1 --- --- 20.9 E 0.35 25.2 -24.6 --- --- 727.3 0.022 0.000 7.9 4 1
02/25/06 11:10 p -13.0 -12.9 -13.0 --- --- 21.7 E 0.36 26.1 -24.7 --- --- 727.4 0.022 0.000 7.9 4 1
02/25/06 11:11 p -12.9 -12.9 -12.9 --- --- 18.3 E 0.30 24.3 -23.8 --- --- 727.3 0.022 0.000 7.9 4 1
02/25/06 11:12 p -12.9 -12.9 -13.0 --- --- 20.9 E 0.35 25.2 -24.4 --- --- 727.3 0.022 0.000 7.9 4 1
02/25/06 11:13 p -12.9 -12.9 -12.9 --- --- 20.0 E 0.33 24.3 -24.3 --- --- 727.4 0.022 0.000 7.9 4 1
02/25/06 11:14 p -12.9 -12.8 -12.9 --- --- 19.1 E 0.32 23.5 -23.9 --- --- 727.4 0.022 0.000 7.9 4 1
02/25/06 11:15 p -12.9 -12.8 -12.9 --- --- 20.0 E 0.33 23.5 -24.2 --- --- 727.4 0.022 0.000 7.9 4 1
02/25/06 11:16 p -12.8 -12.8 -12.9 --- --- 20.0 E 0.33 23.5 -24.1 --- --- 727.4 0.022 0.000 7.9 4 1
02/25/06 11:17 p -12.8 -12.8 -12.8 --- --- 21.7 E 0.36 27.0 -24.5 --- --- 727.4 0.022 0.000 7.9 4 1
02/25/06 11:18 p -12.8 -12.8 -12.8 --- --- 22.6 E 0.38 27.0 -24.7 --- --- 727.4 0.022 0.000 7.9 4 1
02/25/06 11:19 p -12.8 -12.8 -12.8 --- --- 22.6 E 0.38 27.0 -24.7 --- --- 727.3 0.022 0.000 7.9 4 1
02/25/06 11:20 p -12.8 -12.8 -12.8 --- --- 22.6 E 0.38 26.1 -24.7 --- --- 727.3 0.022 0.000 7.9 4 1
02/25/06 11:21 p -12.8 -12.8 -12.8 --- --- 21.7 E 0.36 26.1 -24.5 --- --- 727.2 0.022 0.000 7.9 4 1
02/25/06 11:22 p -12.8 -12.8 -12.8 --- --- 22.6 E 0.38 27.0 -24.7 --- --- 727.3 0.022 0.000 7.9 4 1
02/25/06 11:23 p -12.8 -12.8 -12.8 --- --- 20.0 E 0.33 24.3 -24.1 --- --- 727.2 0.022 0.000 7.9 4 1
02/25/06 11:24 p -12.8 -12.8 -12.8 --- --- 22.6 E 0.38 27.8 -24.7 --- --- 727.3 0.022 0.000 7.9 4 1
02/25/06 11:25 p -12.8 -12.8 -12.8 --- --- 20.9 E 0.35 26.1 -24.3 --- --- 727.1 0.022 0.000 7.9 4 1
02/25/06 11:26 p -12.8 -12.8 -12.8 --- --- 24.3 E 0.41 30.4 -24.9 --- --- 727.0 0.022 0.000 7.8 4 1
02/25/06 11:27 p -12.8 -12.8 -12.8 --- --- 27.0 E 0.45 31.3 -25.4 --- --- 727.0 0.022 0.000 7.9 4 1
02/25/06 11:28 p -12.8 -12.8 -12.8 --- --- 26.1 E 0.43 32.2 -25.3 --- --- 727.0 0.022 0.000 7.9 4 1
02/25/06 11:29 p -12.8 -12.8 -12.8 --- --- 25.2 E 0.42 32.2 -25.1 --- --- 727.0 0.022 0.000 7.9 4 1
02/25/06 11:30 p -12.8 -12.8 -12.8 --- --- 24.3 E 0.41 28.7 -25.1 --- --- 727.0 0.022 0.000 7.9 4 1
02/25/06 11:31 p -12.8 -12.8 -12.8 --- --- 25.2 E 0.42 28.7 -25.2 --- --- 727.1 0.022 0.000 7.8 4 1
02/25/06 11:32 p -12.8 -12.8 -12.8 --- --- 24.3 E 0.41 28.7 -24.9 --- --- 727.1 0.022 0.000 7.9 4 1
02/25/06 11:33 p -12.8 -12.8 -12.8 --- --- 26.1 ESE 0.43 27.8 -25.3 --- --- 727.0 0.022 0.000 7.8 4 1
02/25/06 11:34 p -12.8 -12.8 -12.8 --- --- 23.5 E 0.39 31.3 -24.8 --- --- 727.1 0.022 0.000 7.9 4 1
02/25/06 11:35 p -12.8 -12.8 -12.8 --- --- 25.2 E 0.42 29.6 -25.1 --- --- 727.0 0.022 0.000 7.9 4 1
02/25/06 11:36 p -12.8 -12.7 -12.8 --- --- 25.2 E 0.42 28.7 -25.1 --- --- 727.1 0.022 0.000 7.9 4 1
02/25/06 11:37 p -12.7 -12.7 -12.8 --- --- 21.7 E 0.36 27.8 -24.3 --- --- 727.2 0.022 0.000 7.9 4 1
02/25/06 11:38 p -12.8 -12.7 -12.8 --- --- 22.6 E 0.38 27.0 -24.6 --- --- 727.1 0.022 0.000 7.8 4 1
02/25/06 11:39 p -12.7 -12.7 -12.8 --- --- 23.5 E 0.39 28.7 -24.7 --- --- 727.2 0.022 0.000 7.9 4 1
02/25/06 11:40 p -12.7 -12.7 -12.8 --- --- 23.5 E 0.39 26.1 -24.7 --- --- 727.1 0.022 0.000 7.9 4 1
02/25/06 11:41 p -12.7 -12.7 -12.8 --- --- 22.6 E 0.38 26.1 -24.6 --- --- 727.1 0.022 0.000 7.9 4 1
02/25/06 11:42 p -12.7 -12.7 -12.8 --- --- 24.3 E 0.41 27.8 -24.9 --- --- 727.1 0.022 0.000 7.9 4 1
02/25/06 11:43 p -12.7 -12.7 -12.8 --- --- 25.2 E 0.42 30.4 -25.1 --- --- 727.2 0.022 0.000 7.9 4 1
02/25/06 11:44 p -12.7 -12.7 -12.8 --- --- 24.3 E 0.41 29.6 -24.9 --- --- 727.2 0.022 0.000 7.9 4 1
02/25/06 11:45 p -12.7 -12.7 -12.7 --- --- 24.3 E 0.41 27.8 -24.9 --- --- 727.2 0.022 0.000 7.9 4 1
02/25/06 11:46 p -12.7 -12.7 -12.7 --- --- 23.5 E 0.39 29.6 -24.7 --- --- 727.1 0.022 0.000 7.9 4 1
02/25/06 11:47 p -12.7 -12.7 -12.7 --- --- 21.7 E 0.36 26.1 -24.3 --- --- 727.1 0.022 0.000 7.9 4 1
02/25/06 11:48 p -12.7 -12.7 -12.7 --- --- 22.6 E 0.38 27.0 -24.4 --- --- 727.0 0.022 0.000 7.9 4 1
02/25/06 11:49 p -12.7 -12.7 -12.7 --- --- 24.3 E 0.41 29.6 -24.8 --- --- 727.1 0.022 0.000 7.9 4 1
02/25/06 11:50 p -12.7 -12.6 -12.7 --- --- 26.1 E 0.43 31.3 -25.2 --- --- 727.2 0.022 0.000 7.9 4 1
02/25/06 11:51 p -12.7 -12.6 -12.7 --- --- 26.1 E 0.43 29.6 -25.2 --- --- 727.2 0.022 0.000 7.9 4 1
02/25/06 11:52 p -12.7 -12.6 -12.7 --- --- 26.1 E 0.43 29.6 -25.2 --- --- 727.1 0.022 0.000 7.9 4 1
02/25/06 11:53 p -12.6 -12.6 -12.7 --- --- 23.5 E 0.39 29.6 -24.6 --- --- 727.2 0.021 0.000 7.9 4 1
02/25/06 11:54 p -12.6 -12.6 -12.6 --- --- 23.5 E 0.39 27.8 -24.6 --- --- 727.1 0.021 0.000 7.9 5 1
02/25/06 11:55 p -12.6 -12.6 -12.6 --- --- 23.5 E 0.39 28.7 -24.6 --- --- 727.2 0.021 0.000 7.9 4 1
02/25/06 11:56 p -12.6 -12.6 -12.6 --- --- 23.5 E 0.39 27.0 -24.6 --- --- 727.2 0.021 0.000 7.9 4 1
02/25/06 11:57 p -12.6 -12.6 -12.6 --- --- 23.5 E 0.39 32.2 -24.6 --- --- 727.2 0.021 0.000 7.9 4 1
02/25/06 11:58 p -12.6 -12.6 -12.6 --- --- 24.3 E 0.41 27.8 -24.7 --- --- 727.2 0.021 0.000 7.9 4 1
02/25/06 11:59 p -12.6 -12.6 -12.6 --- --- 25.2 ESE 0.42 27.8 -24.9 --- --- 727.3 0.021 0.000 7.9 4 1
02/26/06 12:00 a -12.6 -12.6 -12.6 --- --- 23.5 E 0.39 27.0 -24.6 --- --- 727.2 0.021 0.000 7.9 5 1
02/26/06 12:01 a -12.6 -12.6 -12.6 --- --- 24.3 E 0.41 28.7 -24.7 --- --- 727.3 0.021 0.000 7.9 4 1
02/26/06 12:02 a -12.6 -12.6 -12.6 --- --- 22.6 E 0.38 28.7 -24.3 --- --- 727.3 0.021 0.000 7.9 4 1
02/26/06 12:03 a -12.6 -12.6 -12.6 --- --- 23.5 E 0.39 27.8 -24.5 --- --- 727.3 0.021 0.000 7.9 5 1
02/26/06 12:04 a -12.6 -12.6 -12.6 --- --- 22.6 E 0.38 27.0 -24.4 --- --- 727.4 0.021 0.000 7.9 4 1
02/26/06 12:05 a -12.6 -12.6 -12.6 --- --- 21.7 E 0.36 28.7 -24.2 --- --- 727.4 0.021 0.000 7.9 4 1
02/26/06 12:06 a -12.6 -12.6 -12.6 --- --- 22.6 E 0.38 27.0 -24.4 --- --- 727.3 0.021 0.000 7.8 4 1
02/26/06 12:07 a -12.6 -12.6 -12.6 --- --- 22.6 E 0.38 27.8 -24.3 --- --- 727.3 0.021 0.000 7.8 4 1
02/26/06 12:08 a -12.6 -12.6 -12.6 --- --- 21.7 E 0.36 27.8 -24.1 --- --- 727.3 0.021 0.000 7.8 5 1
02/26/06 12:09 a -12.6 -12.6 -12.6 --- --- 22.6 E 0.38 27.8 -24.4 --- --- 727.4 0.021 0.000 7.8 5 1
02/26/06 12:10 a -12.6 -12.6 -12.6 --- --- 20.9 ESE 0.35 27.8 -23.9 --- --- 727.4 0.021 0.000 7.8 4 1
02/26/06 12:11 a -12.6 -12.6 -12.6 --- --- 23.5 E 0.39 27.0 -24.6 --- --- 727.4 0.021 0.000 7.8 4 1
02/26/06 12:12 a -12.6 -12.6 -12.6 --- --- 25.2 E 0.42 28.7 -24.9 --- --- 727.3 0.021 0.000 7.8 4 1
02/26/06 12:13 a -12.6 -12.6 -12.6 --- --- 24.3 E 0.41 28.7 -24.7 --- --- 727.4 0.021 0.000 7.8 4 1
02/26/06 12:14 a -12.6 -12.6 -12.7 --- --- 24.3 E 0.41 29.6 -24.7 --- --- 727.4 0.021 0.000 7.8 4 1
02/26/06 12:15 a -12.6 -12.6 -12.7 --- --- 24.3 E 0.41 29.6 -24.7 --- --- 727.4 0.021 0.000 7.8 5 1
02/26/06 12:16 a -12.6 -12.6 -12.6 --- --- 22.6 E 0.38 25.2 -24.4 --- --- 727.3 0.021 0.000 7.8 4 1
02/26/06 12:17 a -12.6 -12.6 -12.6 --- --- 23.5 E 0.39 26.1 -24.6 --- --- 727.4 0.021 0.000 7.8 4 1
02/26/06 12:18 a -12.6 -12.6 -12.6 --- --- 22.6 E 0.38 27.8 -24.4 --- --- 727.3 0.021 0.000 7.8 5 1
02/26/06 12:19 a -12.6 -12.6 -12.6 --- --- 22.6 E 0.38 27.0 -24.4 --- --- 727.3 0.021 0.000 7.8 4 1
02/26/06 12:20 a -12.6 -12.6 -12.6 --- --- 22.6 E 0.38 26.1 -24.3 --- --- 727.3 0.021 0.000 7.8 4 1
02/26/06 12:21 a -12.6 -12.6 -12.6 --- --- 26.1 E 0.43 31.3 -25.0 --- --- 727.4 0.021 0.000 7.8 4 1
02/26/06 12:22 a -12.6 -12.6 -12.6 --- --- 27.0 E 0.45 30.4 -25.2 --- --- 727.3 0.021 0.000 7.8 5 1
02/26/06 12:23 a -12.6 -12.6 -12.6 --- --- 27.0 E 0.45 33.0 -25.2 --- --- 727.1 0.021 0.000 7.8 4 1
02/26/06 12:24 a -12.6 -12.6 -12.6 --- --- 26.1 E 0.43 29.6 -25.0 --- --- 727.2 0.021 0.000 7.8 5 1
02/26/06 12:25 a -12.6 -12.6 -12.6 --- --- 28.7 E 0.48 33.0 -25.4 --- --- 727.1 0.021 0.000 7.8 5 1
02/26/06 12:26 a -12.6 -12.6 -12.6 --- --- 26.1 E 0.43 30.4 -25.0 --- --- 727.2 0.021 0.000 7.8 4 1
02/26/06 12:27 a -12.6 -12.6 -12.6 --- --- 25.2 E 0.42 30.4 -24.8 --- --- 727.2 0.021 0.000 7.8 4 1
02/26/06 12:28 a -12.6 -12.6 -12.6 --- --- 26.1 E 0.43 29.6 -25.0 --- --- 727.1 0.021 0.000 7.8 5 1
02/26/06 12:29 a -12.6 -12.6 -12.6 --- --- 27.0 E 0.45 32.2 -25.2 --- --- 727.2 0.021 0.000 7.8 5 1
02/26/06 12:30 a -12.6 -12.6 -12.6 --- --- 29.6 E 0.49 33.9 -25.6 --- --- 727.2 0.021 0.000 7.8 5 1
02/26/06 12:31 a -12.6 -12.6 -12.6 --- --- 24.3 E 0.41 31.3 -24.7 --- --- 727.1 0.021 0.000 7.8 5 1
02/26/06 12:32 a -12.6 -12.5 -12.6 --- --- 27.0 E 0.45 33.0 -25.2 --- --- 727.2 0.021 0.000 7.8 4 1
02/26/06 12:33 a -12.6 -12.5 -12.6 --- --- 27.8 E 0.46 32.2 -25.3 --- --- 727.0 0.021 0.000 7.8 5 1
02/26/06 12:34 a -12.6 -12.6 -12.6 --- --- 28.7 E 0.48 33.0 -25.4 --- --- 727.2 0.021 0.000 7.8 4 1
02/26/06 12:35 a -12.5 -12.5 -12.6 --- --- 29.6 ESE 0.49 33.0 -25.6 --- --- 727.1 0.021 0.000 7.8 4 1
02/26/06 12:36 a -12.5 -12.5 -12.6 --- --- 27.8 E 0.46 33.0 -25.2 --- --- 727.0 0.021 0.000 7.8 4 1
02/26/06 12:37 a -12.6 -12.5 -12.6 --- --- 26.1 E 0.43 31.3 -25.0 --- --- 727.3 0.021 0.000 7.8 5 1
02/26/06 12:38 a -12.5 -12.5 -12.6 --- --- 27.0 E 0.45 32.2 -25.1 --- --- 727.2 0.021 0.000 7.8 5 1
02/26/06 12:39 a -12.5 -12.5 -12.6 --- --- 30.4 ESE 0.51 34.8 -25.7 --- --- 727.3 0.021 0.000 7.8 5 1
02/26/06 12:40 a -12.5 -12.4 -12.5 --- --- 28.7 E 0.48 34.8 -25.4 --- --- 727.2 0.021 0.000 7.8 4 1
02/26/06 12:41 a -12.5 -12.4 -12.6 --- --- 27.0 E 0.45 33.0 -25.1 --- --- 727.2 0.021 0.000 7.8 5 1
02/26/06 12:42 a -12.5 -12.5 -12.5 --- --- 27.8 E 0.46 37.4 -25.2 --- --- 727.3 0.021 0.000 7.8 4 1
02/26/06 12:43 a -12.5 -12.5 -12.5 --- --- 29.6 E 0.49 34.8 -25.6 --- --- 727.2 0.021 0.000 7.8 5 1
02/26/06 12:44 a -12.5 -12.4 -12.5 --- --- 32.2 ESE 0.54 34.8 -25.9 --- --- 727.4 0.021 0.000 7.8 5 1
02/26/06 12:45 a -12.4 -12.4 -12.4 --- --- 28.7 ESE 0.48 30.4 -25.3 --- --- 727.5 0.021 0.000 7.8 4 1
02/26/06 12:46 a -12.4 -12.4 -12.4 --- --- 26.1 ESE 0.43 28.7 -24.8 --- --- 727.4 0.021 0.000 7.8 5 1
02/26/06 12:47 a -12.4 -12.4 -12.4 --- --- 25.2 E 0.42 32.2 -24.7 --- --- 727.4 0.021 0.000 7.8 5 1
02/26/06 12:48 a -12.4 -12.4 -12.4 --- --- 25.2 E 0.42 28.7 -24.7 --- --- 727.4 0.021 0.000 7.8 5 1
02/26/06 12:49 a -12.4 -12.4 -12.4 --- --- 27.0 E 0.45 30.4 -25.0 --- --- 727.4 0.021 0.000 7.8 5 1
02/26/06 12:50 a -12.4 -12.4 -12.4 --- --- 25.2 E 0.42 36.5 -24.6 --- --- 727.4 0.021 0.000 7.8 4 1
02/26/06 12:51 a -12.4 -12.4 -12.4 --- --- 23.5 E 0.39 27.8 -24.3 --- --- 727.5 0.021 0.000 7.8 5 1
02/26/06 12:52 a -12.4 -12.4 -12.4 --- --- 25.2 E 0.42 28.7 -24.6 --- --- 727.5 0.021 0.000 7.8 4 1
02/26/06 12:53 a -12.4 -12.3 -12.4 --- --- 24.3 E 0.41 27.8 -24.4 --- --- 727.4 0.021 0.000 7.8 4 1
02/26/06 12:54 a -12.3 -12.3 -12.4 --- --- 24.3 E 0.41 29.6 -24.4 --- --- 727.4 0.021 0.000 7.8 5 1
02/26/06 12:55 a -12.4 -12.3 -12.4 --- --- 24.3 E 0.41 28.7 -24.4 --- --- 727.5 0.021 0.000 7.8 4 1
02/26/06 12:56 a -12.3 -12.3 -12.4 --- --- 25.2 E 0.42 29.6 -24.6 --- --- 727.5 0.021 0.000 7.8 5 1
02/26/06 12:57 a -12.3 -12.3 -12.4 --- --- 25.2 E 0.42 31.3 -24.6 --- --- 727.5 0.021 0.000 7.8 5 1
02/26/06 12:58 a -12.3 -12.3 -12.4 --- --- 24.3 E 0.41 28.7 -24.4 --- --- 727.6 0.021 0.000 7.8 5 1
02/26/06 12:59 a -12.3 -12.3 -12.4 --- --- 25.2 E 0.42 32.2 -24.6 --- --- 727.5 0.021 0.000 7.8 5 1
02/26/06 1:00 a -12.3 -12.3 -12.4 --- --- 24.3 E 0.41 29.6 -24.4 --- --- 727.6 0.021 0.000 7.8 5 1
02/26/06 1:01 a -12.3 -12.3 -12.3 --- --- 22.6 E 0.38 28.7 -24.0 --- --- 727.6 0.021 0.000 7.8 5 1
02/26/06 1:02 a -12.3 -12.3 -12.4 --- --- 25.2 E 0.42 31.3 -24.6 --- --- 727.7 0.021 0.000 7.8 5 1
02/26/06 1:03 a -12.3 -12.3 -12.3 --- --- 27.0 E 0.45 32.2 -24.8 --- --- 727.6 0.021 0.000 7.8 5 1
02/26/06 1:04 a -12.3 -12.3 -12.3 --- --- 23.5 ESE 0.39 27.0 -24.1 --- --- 727.7 0.021 0.000 7.8 4 1
02/26/06 1:05 a -12.3 -12.3 -12.3 --- --- 25.2 E 0.42 36.5 -24.4 --- --- 727.6 0.021 0.000 7.8 4 1
02/26/06 1:06 a -12.3 -12.3 -12.3 --- --- 22.6 E 0.38 28.7 -23.9 --- --- 727.6 0.021 0.000 7.8 5 1
02/26/06 1:07 a -12.3 -12.3 -12.3 --- --- 23.5 E 0.39 27.8 -24.1 --- --- 727.6 0.021 0.000 7.8 4 1
02/26/06 1:08 a -12.3 -12.3 -12.3 --- --- 24.3 E 0.41 28.7 -24.3 --- --- 727.6 0.021 0.000 7.8 5 1
02/26/06 1:09 a -12.3 -12.3 -12.3 --- --- 25.2 E 0.42 30.4 -24.4 --- --- 727.7 0.021 0.000 7.8 4 1
02/26/06 1:10 a -12.3 -12.2 -12.3 --- --- 23.5 ESE 0.39 29.6 -24.1 --- --- 727.5 0.021 0.000 7.8 4 1
02/26/06 1:11 a -12.3 -12.3 -12.3 --- --- 24.3 E 0.41 30.4 -24.3 --- --- 727.6 0.021 0.000 7.8 5 1
02/26/06 1:12 a -12.2 -12.2 -12.3 --- --- 22.6 E 0.38 27.0 -23.9 --- --- 727.5 0.021 0.000 7.8 5 1
02/26/06 1:13 a -12.2 -12.2 -12.3 --- --- 23.5 E 0.39 29.6 -24.1 --- --- 727.6 0.021 0.000 7.8 4 1
02/26/06 1:14 a -12.2 -12.2 -12.3 --- --- 27.8 E 0.46 33.9 -24.8 --- --- 727.5 0.021 0.000 7.8 5 1
02/26/06 1:15 a -12.2 -12.2 -12.3 --- --- 23.5 E 0.39 27.8 -24.1 --- --- 727.6 0.021 0.000 7.8 4 1
02/26/06 1:16 a -12.2 -12.2 -12.3 --- --- 25.2 E 0.42 30.4 -24.4 --- --- 727.5 0.021 0.000 7.8 4 1
02/26/06 1:17 a -12.2 -12.2 -12.3 --- --- 26.1 E 0.43 29.6 -24.6 --- --- 727.6 0.021 0.000 7.8 5 1
02/26/06 1:18 a -12.2 -12.2 -12.3 --- --- 25.2 E 0.42 31.3 -24.4 --- --- 727.6 0.021 0.000 7.8 5 1
02/26/06 1:19 a -12.2 -12.2 -12.2 --- --- 27.0 E 0.45 29.6 -24.7 --- --- 727.6 0.021 0.000 7.8 5 1
02/26/06 1:20 a -12.2 -12.2 -12.2 --- --- 26.1 E 0.43 33.0 -24.6 --- --- 727.5 0.021 0.000 7.8 5 1
02/26/06 1:21 a -12.2 -12.2 -12.3 --- --- 23.5 E 0.39 30.4 -24.1 --- --- 727.7 0.021 0.000 7.8 5 1
02/26/06 1:22 a -12.2 -12.2 -12.2 --- --- 23.5 E 0.39 31.3 -24.1 --- --- 727.6 0.021 0.000 7.8 5 1
02/26/06 1:23 a -12.2 -12.2 -12.2 --- --- 25.2 E 0.42 28.7 -24.4 --- --- 727.7 0.021 0.000 7.8 5 1
02/26/06 1:24 a -12.2 -12.2 -12.2 --- --- 22.6 E 0.38 27.0 -23.9 --- --- 727.6 0.021 0.000 7.8 5 1
02/26/06 1:25 a -12.2 -12.2 -12.2 --- --- 23.5 E 0.39 30.4 -24.1 --- --- 727.6 0.021 0.000 7.8 5 1
02/26/06 1:26 a -12.2 -12.2 -12.2 --- --- 25.2 E 0.42 30.4 -24.4 --- --- 727.7 0.021 0.000 7.8 5 1
02/26/06 1:27 a -12.2 -12.2 -12.3 --- --- 20.0 E 0.33 25.2 -23.3 --- --- 727.9 0.021 0.000 7.8 5 1
02/26/06 1:28 a -12.2 -12.2 -12.2 --- --- 21.7 E 0.36 26.1 -23.7 --- --- 727.7 0.021 0.000 7.8 4 1
02/26/06 1:29 a -12.2 -12.2 -12.3 --- --- 25.2 E 0.42 29.6 -24.4 --- --- 727.7 0.021 0.000 7.8 4 1
02/26/06 1:30 a -12.2 -12.2 -12.3 --- --- 21.7 E 0.36 27.0 -23.7 --- --- 727.7 0.021 0.000 7.8 5 1
02/26/06 1:31 a -12.2 -12.2 -12.3 --- --- 23.5 E 0.39 28.7 -24.1 --- --- 727.8 0.021 0.000 7.8 5 1
02/26/06 1:32 a -12.3 -12.3 -12.3 --- --- 27.0 E 0.45 30.4 -24.8 --- --- 727.8 0.021 0.000 7.8 5 1
02/26/06 1:33 a -12.3 -12.3 -12.3 --- --- 24.3 E 0.41 33.0 -24.3 --- --- 727.8 0.021 0.000 7.8 5 1
02/26/06 1:34 a -12.3 -12.3 -12.3 --- --- 20.9 E 0.35 24.3 -23.6 --- --- 728.0 0.021 0.000 7.8 5 1
02/26/06 1:35 a -12.3 -12.3 -12.3 --- --- 21.7 E 0.36 28.7 -23.8 --- --- 727.8 0.021 0.000 7.8 5 1
02/26/06 1:36 a -12.3 -12.3 -12.3 --- --- 26.1 ENE 0.43 31.3 -24.7 --- --- 727.9 0.021 0.000 7.8 5 1
02/26/06 1:37 a -12.3 -12.3 -12.3 --- --- 20.9 E 0.35 27.8 -23.6 --- --- 728.0 0.021 0.000 7.8 5 1
02/26/06 1:38 a -12.3 -12.3 -12.4 --- --- 24.3 E 0.41 30.4 -24.4 --- --- 727.9 0.021 0.000 7.8 5 1
02/26/06 1:39 a -12.4 -12.3 -12.4 --- --- 20.9 E 0.35 26.1 -23.7 --- --- 728.0 0.021 0.000 7.8 5 1
02/26/06 1:40 a -12.3 -12.3 -12.4 --- --- 23.5 E 0.39 28.7 -24.2 --- --- 727.8 0.021 0.000 7.8 5 1
02/26/06 1:41 a -12.4 -12.3 -12.4 --- --- 20.0 E 0.33 23.5 -23.5 --- --- 728.0 0.021 0.000 7.8 5 1
02/26/06 1:42 a -12.4 -12.3 -12.4 --- --- 20.9 E 0.35 24.3 -23.7 --- --- 727.9 0.021 0.000 7.8 5 1
02/26/06 1:43 a -12.4 -12.3 -12.4 --- --- 22.6 E 0.38 27.8 -24.1 --- --- 727.9 0.021 0.000 7.8 5 1
02/26/06 1:44 a -12.4 -12.4 -12.4 --- --- 20.9 E 0.35 26.1 -23.7 --- --- 728.0 0.021 0.000 7.8 5 1
02/26/06 1:45 a -12.4 -12.3 -12.4 --- --- 20.9 E 0.35 27.8 -23.7 --- --- 728.0 0.021 0.000 7.8 5 1
02/26/06 1:46 a -12.4 -12.3 -12.4 --- --- 20.9 E 0.35 26.1 -23.7 --- --- 728.1 0.021 0.000 7.8 5 1
02/26/06 1:47 a -12.3 -12.3 -12.4 --- --- 21.7 E 0.36 26.1 -23.8 --- --- 727.9 0.021 0.000 7.8 5 1
02/26/06 1:48 a -12.3 -12.3 -12.4 --- --- 21.7 E 0.36 33.9 -23.8 --- --- 728.1 0.021 0.000 7.8 5 1
02/26/06 1:49 a -12.3 -12.3 -12.3 --- --- 20.9 E 0.35 24.3 -23.6 --- --- 728.0 0.021 0.000 7.8 5 1
02/26/06 1:50 a -12.3 -12.3 -12.3 --- --- 23.5 E 0.39 27.8 -24.2 --- --- 728.0 0.021 0.000 7.8 5 1
02/26/06 1:51 a -12.3 -12.3 -12.3 --- --- 24.3 ESE 0.41 33.0 -24.4 --- --- 728.0 0.021 0.000 7.8 5 1
02/26/06 1:52 a -12.3 -12.3 -12.3 --- --- 23.5 E 0.39 28.7 -24.1 --- --- 727.9 0.021 0.000 7.8 5 1
02/26/06 1:53 a -12.3 -12.3 -12.3 --- --- 23.5 E 0.39 32.2 -24.1 --- --- 728.0 0.021 0.000 7.8 5 1
02/26/06 1:54 a -12.2 -12.2 -12.3 --- --- 21.7 ESE 0.36 26.1 -23.7 --- --- 728.0 0.021 0.000 7.8 5 1
02/26/06 1:55 a -12.2 -12.2 -12.2 --- --- 23.5 E 0.39 30.4 -24.1 --- --- 727.9 0.021 0.000 7.8 5 1
02/26/06 1:56 a -12.2 -12.2 -12.2 --- --- 25.2 ESE 0.42 33.0 -24.4 --- --- 727.9 0.021 0.000 7.8 5 1
02/26/06 1:57 a -12.2 -12.2 -12.2 --- --- 23.5 E 0.39 28.7 -23.9 --- --- 727.9 0.021 0.000 7.8 5 1
02/26/06 1:58 a -12.2 -12.2 -12.2 --- --- 26.1 ESE 0.43 30.4 -24.4 --- --- 727.9 0.021 0.000 7.8 5 1
02/26/06 1:59 a -12.1 -12.1 -12.1 --- --- 27.8 ESE 0.46 30.4 -24.7 --- --- 728.0 0.021 0.000 7.8 5 1
02/26/06 2:00 a -12.1 -12.1 -12.1 --- --- 26.1 ESE 0.43 30.4 -24.4 --- --- 727.8 0.021 0.000 7.8 5 1
02/26/06 2:01 a -12.1 -12.1 -12.1 --- --- 27.0 ESE 0.45 30.4 -24.6 --- --- 728.0 0.021 0.000 7.8 5 1
02/26/06 2:02 a -12.1 -12.1 -12.1 --- --- 27.0 ESE 0.45 30.4 -24.5 --- --- 727.9 0.021 0.000 7.8 5 1
02/26/06 2:03 a -12.1 -12.1 -12.1 --- --- 27.0 ESE 0.45 30.4 -24.5 --- --- 727.7 0.021 0.000 7.8 5 1
02/26/06 2:04 a -12.0 -12.0 -12.1 --- --- 26.1 ESE 0.43 29.6 -24.2 --- --- 727.8 0.021 0.000 7.8 5 1
02/26/06 2:05 a -12.0 -12.0 -12.1 --- --- 23.5 ESE 0.39 27.8 -23.7 --- --- 727.8 0.021 0.000 7.7 5 1
02/26/06 2:06 a -12.0 -12.0 -12.0 --- --- 27.0 ESE 0.45 29.6 -24.4 --- --- 727.8 0.021 0.000 7.7 5 1
02/26/06 2:07 a -11.9 -11.9 -12.0 --- --- 27.8 ESE 0.46 30.4 -24.5 --- --- 727.8 0.021 0.000 7.7 5 1
02/26/06 2:08 a -11.9 -11.9 -11.9 --- --- 26.1 ESE 0.43 27.8 -24.2 --- --- 727.9 0.021 0.000 7.7 5 1
02/26/06 2:09 a -11.9 -11.9 -11.9 --- --- 26.1 ESE 0.43 27.8 -24.1 --- --- 728.0 0.021 0.000 7.8 5 1
02/26/06 2:10 a -11.9 -11.8 -11.9 --- --- 27.0 ESE 0.45 30.4 -24.3 --- --- 727.8 0.021 0.000 7.7 5 1
02/26/06 2:11 a -11.9 -11.8 -11.9 --- --- 25.2 ESE 0.42 27.8 -23.9 --- --- 728.0 0.021 0.000 7.7 5 1
02/26/06 2:12 a -11.8 -11.8 -11.8 --- --- 25.2 ESE 0.42 27.0 -23.8 --- --- 728.0 0.021 0.000 7.7 5 1
02/26/06 2:13 a -11.8 -11.8 -11.8 --- --- 26.1 ESE 0.43 27.8 -23.9 --- --- 727.9 0.021 0.000 7.7 5 1
02/26/06 2:14 a -11.8 -11.8 -11.8 --- --- 27.0 ESE 0.45 31.3 -24.1 --- --- 727.8 0.021 0.000 7.7 5 1
02/26/06 2:15 a -11.8 -11.8 -11.8 --- --- 26.1 ESE 0.43 28.7 -23.9 --- --- 728.0 0.021 0.000 7.7 5 1
02/26/06 2:16 a -11.7 -11.7 -11.8 --- --- 27.0 ESE 0.45 28.7 -24.0 --- --- 727.9 0.021 0.000 7.7 5 1
02/26/06 2:17 a -11.7 -11.7 -11.8 --- --- 26.1 ESE 0.43 28.7 -23.9 --- --- 728.0 0.021 0.000 7.7 5 1
02/26/06 2:18 a -11.7 -11.7 -11.7 --- --- 27.0 ESE 0.45 27.8 -24.0 --- --- 728.0 0.021 0.000 7.7 5 1
02/26/06 2:19 a -11.7 -11.7 -11.8 --- --- 25.2 ESE 0.42 27.8 -23.7 --- --- 728.0 0.021 0.000 7.7 5 1
02/26/06 2:20 a -11.7 -11.7 -11.7 --- --- 26.1 ESE 0.43 27.8 -23.8 --- --- 728.0 0.021 0.000 7.7 5 1
02/26/06 2:21 a -11.7 -11.7 -11.7 --- --- 26.1 ESE 0.43 28.7 -23.8 --- --- 727.9 0.021 0.000 7.7 5 1
02/26/06 2:22 a -11.7 -11.7 -11.7 --- --- 27.8 ESE 0.46 32.2 -24.1 --- --- 727.9 0.021 0.000 7.7 5 1
02/26/06 2:23 a -11.7 -11.6 -11.7 --- --- 26.1 ESE 0.43 27.8 -23.8 --- --- 728.1 0.021 0.000 7.7 5 1
02/26/06 2:24 a -11.7 -11.6 -11.7 --- --- 27.0 ESE 0.45 27.8 -23.9 --- --- 728.0 0.021 0.000 7.7 5 1
02/26/06 2:25 a -11.6 -11.6 -11.7 --- --- 26.1 ESE 0.43 28.7 -23.7 --- --- 728.1 0.021 0.000 7.7 5 1
02/26/06 2:26 a -11.6 -11.6 -11.6 --- --- 25.2 ESE 0.42 28.7 -23.6 --- --- 728.0 0.021 0.000 7.7 5 1
02/26/06 2:27 a -11.6 -11.6 -11.6 --- --- 25.2 ESE 0.42 27.0 -23.6 --- --- 728.1 0.021 0.000 7.7 5 1
02/26/06 2:28 a -11.6 -11.6 -11.6 --- --- 23.5 SE 0.39 27.0 -23.2 --- --- 728.1 0.021 0.000 7.7 5 1
02/26/06 2:29 a -11.6 -11.6 -11.6 --- --- 24.3 ESE 0.41 27.0 -23.3 --- --- 728.1 0.021 0.000 7.7 5 1
02/26/06 2:30 a -11.6 -11.6 -11.6 --- --- 24.3 ESE 0.41 25.2 -23.4 --- --- 728.1 0.021 0.000 7.7 5 1
02/26/06 2:31 a -11.6 -11.6 -11.6 --- --- 24.3 ESE 0.41 26.1 -23.3 --- --- 728.1 0.021 0.000 7.7 5 1
02/26/06 2:32 a -11.6 -11.6 -11.6 --- --- 23.5 ESE 0.39 25.2 -23.2 --- --- 728.2 0.021 0.000 7.7 5 1
02/26/06 2:33 a -11.5 -11.5 -11.6 --- --- 22.6 ESE 0.38 24.3 -22.9 --- --- 728.2 0.021 0.000 7.7 5 1
02/26/06 2:34 a -11.5 -11.5 -11.6 --- --- 22.6 ESE 0.38 25.2 -22.9 --- --- 728.2 0.021 0.000 7.7 5 1
02/26/06 2:35 a -11.5 -11.5 -11.5 --- --- 21.7 SE 0.36 23.5 -22.7 --- --- 728.2 0.021 0.000 7.7 5 1
02/26/06 2:36 a -11.5 -11.5 -11.5 --- --- 25.2 ESE 0.42 28.7 -23.4 --- --- 728.1 0.021 0.000 7.7 5 1
02/26/06 2:37 a -11.5 -11.5 -11.5 --- --- 24.3 ESE 0.41 28.7 -23.2 --- --- 728.0 0.021 0.000 7.8 5 1
02/26/06 2:38 a -11.5 -11.4 -11.5 --- --- 25.2 ESE 0.42 28.7 -23.4 --- --- 728.1 0.021 0.000 7.7 5 1
02/26/06 2:39 a -11.4 -11.4 -11.4 --- --- 25.2 ESE 0.42 27.8 -23.3 --- --- 728.0 0.021 0.000 7.8 5 1
02/26/06 2:40 a -11.4 -11.4 -11.4 --- --- 25.2 ESE 0.42 28.7 -23.3 --- --- 728.0 0.021 0.000 7.8 5 1
02/26/06 2:41 a -11.4 -11.4 -11.4 --- --- 24.3 ESE 0.41 27.0 -23.1 --- --- 728.1 0.021 0.000 7.8 5 1
02/26/06 2:42 a -11.4 -11.4 -11.4 --- --- 25.2 ESE 0.42 27.0 -23.3 --- --- 728.0 0.021 0.000 7.8 5 1
02/26/06 2:43 a -11.4 -11.4 -11.4 --- --- 24.3 ESE 0.41 27.8 -23.1 --- --- 728.1 0.021 0.000 7.8 5 1
02/26/06 2:44 a -11.4 -11.3 -11.4 --- --- 27.0 SE 0.45 31.3 -23.6 --- --- 728.0 0.021 0.000 7.7 5 1
02/26/06 2:45 a -11.4 -11.3 -11.4 --- --- 25.2 SE 0.42 27.0 -23.3 --- --- 728.0 0.021 0.000 7.7 5 1
02/26/06 2:46 a -11.3 -11.3 -11.4 --- --- 26.1 ESE 0.43 28.7 -23.3 --- --- 728.0 0.021 0.000 7.7 5 1
02/26/06 2:47 a -11.3 -11.3 -11.3 --- --- 23.5 SE 0.39 24.3 -22.8 --- --- 728.0 0.021 0.000 7.7 5 1
02/26/06 2:48 a -11.3 -11.3 -11.3 --- --- 24.3 SE 0.41 27.0 -23.0 --- --- 727.9 0.021 0.000 7.7 5 1
02/26/06 2:49 a -11.3 -11.3 -11.3 --- --- 25.2 ESE 0.42 28.7 -23.2 --- --- 727.9 0.021 0.000 7.7 5 1
02/26/06 2:50 a -11.3 -11.3 -11.3 --- --- 27.8 SE 0.46 29.6 -23.7 --- --- 728.1 0.021 0.000 7.7 5 1
02/26/06 2:51 a -11.3 -11.3 -11.3 --- --- 24.3 SE 0.41 28.7 -22.9 --- --- 728.0 0.021 0.000 7.7 5 1
02/26/06 2:52 a -11.3 -11.3 -11.3 --- --- 25.2 ESE 0.42 27.0 -23.1 --- --- 728.0 0.021 0.000 7.7 5 1
02/26/06 2:53 a -11.3 -11.3 -11.3 --- --- 24.3 ESE 0.41 27.0 -22.9 --- --- 728.2 0.021 0.000 7.7 5 1
02/26/06 2:54 a -11.3 -11.3 -11.3 --- --- 25.2 SE 0.42 30.4 -23.1 --- --- 728.2 0.021 0.000 7.7 5 1
02/26/06 2:55 a -11.3 -11.2 -11.3 --- --- 22.6 SE 0.38 24.3 -22.6 --- --- 728.2 0.021 0.000 7.7 5 1
02/26/06 2:56 a -11.2 -11.2 -11.3 --- --- 22.6 ESE 0.38 25.2 -22.5 --- --- 728.2 0.021 0.000 7.7 5 1
02/26/06 2:57 a -11.2 -11.2 -11.2 --- --- 24.3 ESE 0.41 25.2 -22.9 --- --- 728.2 0.021 0.000 7.7 5 1
02/26/06 2:58 a -11.2 -11.2 -11.2 --- --- 25.2 ESE 0.42 27.8 -23.1 --- --- 728.1 0.021 0.000 7.7 5 1
02/26/06 2:59 a -11.2 -11.2 -11.2 --- --- 22.6 ESE 0.38 24.3 -22.5 --- --- 728.2 0.021 0.000 7.7 5 1
02/26/06 3:00 a -11.2 -11.2 -11.2 --- --- 22.6 ESE 0.38 26.1 -22.4 --- --- 728.1 0.020 0.000 7.7 5 1
02/26/06 3:01 a -11.2 -11.2 -11.2 --- --- 24.3 ESE 0.41 27.8 -22.8 --- --- 728.2 0.020 0.000 7.7 5 1
02/26/06 3:02 a -11.2 -11.1 -11.2 --- --- 25.2 ESE 0.42 29.6 -22.9 --- --- 728.1 0.020 0.000 7.7 5 1
02/26/06 3:03 a -11.1 -11.1 -11.2 --- --- 23.5 ESE 0.39 26.1 -22.6 --- --- 728.2 0.020 0.000 7.7 5 1
02/26/06 3:04 a -11.1 -11.1 -11.1 --- --- 25.2 ESE 0.42 29.6 -22.9 --- --- 728.2 0.020 0.000 7.7 5 1
02/26/06 3:05 a -11.1 -11.1 -11.1 --- --- 26.1 SE 0.43 27.8 -23.1 --- --- 728.1 0.020 0.000 7.7 5 1
02/26/06 3:06 a -11.1 -11.1 -11.1 --- --- 25.2 ESE 0.42 27.0 -22.9 --- --- 728.1 0.020 0.000 7.7 5 1
02/26/06 3:07 a -11.1 -11.1 -11.1 --- --- 25.2 ESE 0.42 29.6 -22.8 --- --- 728.1 0.020 0.000 7.7 5 1
02/26/06 3:08 a -11.1 -11.1 -11.1 --- --- 26.1 ESE 0.43 27.0 -22.9 --- --- 728.1 0.020 0.000 7.7 5 1
02/26/06 3:09 a -11.1 -11.1 -11.1 --- --- 27.8 ESE 0.46 32.2 -23.3 --- --- 728.1 0.020 0.000 7.7 5 1
02/26/06 3:10 a -11.0 -11.0 -11.0 --- --- 28.7 ESE 0.48 31.3 -23.3 --- --- 728.1 0.020 0.000 7.7 5 1
02/26/06 3:11 a -11.0 -11.0 -11.1 --- --- 29.6 ESE 0.49 32.2 -23.5 --- --- 728.0 0.020 0.000 7.7 5 1
02/26/06 3:12 a -11.0 -11.0 -11.0 --- --- 31.3 ESE 0.52 33.0 -23.8 --- --- 728.0 0.020 0.000 7.7 5 1
02/26/06 3:13 a -11.0 -11.0 -11.0 --- --- 27.8 SE 0.46 30.4 -23.2 --- --- 728.0 0.020 0.000 7.7 5 1
02/26/06 3:14 a -11.0 -11.0 -11.0 --- --- 26.1 ESE 0.43 30.4 -22.9 --- --- 728.1 0.020 0.000 7.7 5 1
02/26/06 3:15 a -11.0 -11.0 -11.0 --- --- 25.2 ESE 0.42 26.1 -22.7 --- --- 728.3 0.020 0.000 7.7 5 1
02/26/06 3:16 a -11.0 -11.0 -11.0 --- --- 23.5 ESE 0.39 25.2 -22.4 --- --- 728.2 0.020 0.000 7.7 5 1
02/26/06 3:17 a -11.0 -11.0 -11.0 --- --- 24.3 ESE 0.41 27.8 -22.6 --- --- 728.2 0.020 0.000 7.7 5 1
02/26/06 3:18 a -11.0 -11.0 -11.0 --- --- 27.0 ESE 0.45 31.3 -23.1 --- --- 728.1 0.020 0.000 7.7 5 1
02/26/06 3:19 a -11.0 -10.9 -11.0 --- --- 26.1 SE 0.43 30.4 -22.9 --- --- 728.3 0.020 0.000 7.7 5 1
02/26/06 3:20 a -10.9 -10.9 -11.0 --- --- 25.2 ESE 0.42 27.0 -22.7 --- --- 728.2 0.020 0.000 7.7 5 1
02/26/06 3:21 a -10.9 -10.9 -11.0 --- --- 23.5 ESE 0.39 26.1 -22.3 --- --- 728.2 0.020 0.000 7.7 5 1
02/26/06 3:22 a -10.9 -10.9 -11.0 --- --- 25.2 ESE 0.42 26.1 -22.7 --- --- 728.2 0.020 0.000 7.7 5 1
02/26/06 3:23 a -10.9 -10.9 -10.9 --- --- 23.5 ESE 0.39 25.2 -22.3 --- --- 728.2 0.020 0.000 7.7 5 1
02/26/06 3:24 a -10.9 -10.9 -10.9 --- --- 23.5 ESE 0.39 25.2 -22.3 --- --- 728.2 0.020 0.000 7.7 5 1
02/26/06 3:25 a -10.9 -10.9 -10.9 --- --- 24.3 SE 0.41 27.0 -22.5 --- --- 728.1 0.020 0.000 7.7 5 1
02/26/06 3:26 a -10.9 -10.9 -10.9 --- --- 22.6 ESE 0.38 24.3 -22.2 --- --- 728.2 0.020 0.000 7.7 5 1
02/26/06 3:27 a -10.9 -10.9 -10.9 --- --- 22.6 ESE 0.38 24.3 -22.2 --- --- 728.3 0.020 0.000 7.7 5 1
02/26/06 3:28 a -10.9 -10.9 -10.9 --- --- 24.3 ESE 0.41 27.0 -22.5 --- --- 728.1 0.020 0.000 7.7 5 1
02/26/06 3:29 a -10.9 -10.9 -10.9 --- --- 22.6 SE 0.38 28.7 -22.2 --- --- 728.3 0.020 0.000 7.7 5 1
02/26/06 3:30 a -10.9 -10.9 -10.9 --- --- 20.9 ESE 0.35 21.7 -21.8 --- --- 728.3 0.020 0.000 7.7 5 1
02/26/06 3:31 a -10.9 -10.9 -10.9 --- --- 20.9 ESE 0.35 21.7 -21.8 --- --- 728.3 0.020 0.000 7.7 5 1
02/26/06 3:32 a -10.9 -10.9 -10.9 --- --- 20.9 ESE 0.35 22.6 -21.8 --- --- 728.4 0.020 0.000 7.7 5 1
02/26/06 3:33 a -10.9 -10.9 -10.9 --- --- 22.6 ESE 0.38 25.2 -22.2 --- --- 728.4 0.020 0.000 7.8 5 1
02/26/06 3:34 a -10.9 -10.9 -10.9 --- --- 21.7 SE 0.36 24.3 -21.9 --- --- 728.4 0.020 0.000 7.8 5 1
02/26/06 3:35 a -10.9 -10.9 -10.9 --- --- 20.0 SE 0.33 22.6 -21.6 --- --- 728.4 0.020 0.000 7.8 5 1
02/26/06 3:36 a -10.9 -10.9 -11.0 --- --- 20.0 ESE 0.33 24.3 -21.6 --- --- 728.3 0.020 0.000 7.8 5 1
02/26/06 3:37 a -10.9 -10.9 -11.0 --- --- 23.5 ESE 0.39 26.1 -22.3 --- --- 728.3 0.020 0.000 7.7 5 1
02/26/06 3:38 a -10.9 -10.9 -11.0 --- --- 22.6 ESE 0.38 24.3 -22.2 --- --- 728.3 0.020 0.000 7.7 5 1
02/26/06 3:39 a -10.9 -10.9 -11.0 --- --- 23.5 ESE 0.39 25.2 -22.3 --- --- 728.3 0.020 0.000 7.7 5 1
02/26/06 3:40 a -11.0 -10.9 -11.0 --- --- 22.6 ESE 0.38 23.5 -22.2 --- --- 728.3 0.020 0.000 7.7 5 1
02/26/06 3:41 a -10.9 -10.9 -11.0 --- --- 24.3 ESE 0.41 27.8 -22.5 --- --- 728.3 0.020 0.000 7.7 5 1
02/26/06 3:42 a -10.9 -10.9 -11.0 --- --- 20.9 SE 0.35 22.6 -21.8 --- --- 728.4 0.020 0.000 7.7 5 1
02/26/06 3:43 a -10.9 -10.9 -10.9 --- --- 20.0 ESE 0.33 23.5 -21.6 --- --- 728.5 0.020 0.000 7.7 5 1
02/26/06 3:44 a -10.9 -10.9 -11.0 --- --- 20.9 ESE 0.35 23.5 -21.8 --- --- 728.4 0.020 0.000 7.8 5 1
02/26/06 3:45 a -11.0 -10.9 -11.0 --- --- 21.7 ESE 0.36 24.3 -22.1 --- --- 728.3 0.020 0.000 7.7 5 1
02/26/06 3:46 a -10.9 -10.9 -11.0 --- --- 21.7 SE 0.36 24.3 -21.9 --- --- 728.4 0.020 0.000 7.7 5 1
02/26/06 3:47 a -11.0 -10.9 -11.0 --- --- 20.9 SE 0.35 24.3 -21.8 --- --- 728.4 0.020 0.000 7.7 5 1
02/26/06 3:48 a -11.0 -11.0 -11.0 --- --- 23.5 ESE 0.39 27.8 -22.4 --- --- 728.3 0.020 0.000 7.7 5 1
02/26/06 3:49 a -11.0 -11.0 -11.0 --- --- 23.5 SE 0.39 27.0 -22.4 --- --- 728.4 0.020 0.000 7.7 5 1
02/26/06 3:50 a -11.0 -11.0 -11.0 --- --- 21.7 SE 0.36 25.2 -22.1 --- --- 728.5 0.020 0.000 7.7 5 1
02/26/06 3:51 a -11.0 -11.0 -11.0 --- --- 26.1 SE 0.43 29.6 -22.9 --- --- 728.3 0.020 0.000 7.7 5 1
02/26/06 3:52 a -11.0 -11.0 -11.1 --- --- 25.2 SE 0.42 28.7 -22.7 --- --- 728.3 0.020 0.000 7.7 5 1
02/26/06 3:53 a -11.1 -11.0 -11.1 --- --- 22.6 ESE 0.38 25.2 -22.3 --- --- 728.4 0.020 0.000 7.7 5 1
02/26/06 3:54 a -11.1 -11.0 -11.1 --- --- 22.6 ESE 0.38 23.5 -22.3 --- --- 728.5 0.020 0.000 7.7 5 1
02/26/06 3:55 a -11.0 -11.0 -11.1 --- --- 23.5 SE 0.39 27.0 -22.4 --- --- 728.4 0.020 0.000 7.7 5 1
02/26/06 3:56 a -11.1 -11.0 -11.1 --- --- 20.9 SE 0.35 23.5 -21.9 --- --- 728.4 0.020 0.000 7.7 5 1
02/26/06 3:57 a -11.0 -11.0 -11.1 --- --- 23.5 ESE 0.39 27.0 -22.4 --- --- 728.2 0.020 0.000 7.7 5 1
02/26/06 3:58 a -11.1 -11.0 -11.1 --- --- 26.1 SE 0.43 27.8 -22.9 --- --- 728.3 0.020 0.000 7.7 5 1
02/26/06 3:59 a -11.0 -11.0 -11.0 --- --- 26.1 ESE 0.43 28.7 -22.9 --- --- 728.3 0.020 0.000 7.7 5 1
02/26/06 4:00 a -11.0 -11.0 -11.0 --- --- 27.0 ESE 0.45 32.2 -23.1 --- --- 728.2 0.020 0.000 7.7 5 1
02/26/06 4:01 a -11.0 -10.9 -11.0 --- --- 27.0 SE 0.45 33.0 -23.1 --- --- 728.2 0.020 0.000 7.7 5 1
02/26/06 4:02 a -10.9 -10.9 -11.0 --- --- 26.1 ESE 0.43 27.8 -22.8 --- --- 728.1 0.020 0.000 7.7 5 1
02/26/06 4:03 a -10.9 -10.9 -10.9 --- --- 27.8 ESE 0.46 30.4 -23.1 --- --- 728.2 0.020 0.000 7.7 5 1
02/26/06 4:04 a -10.9 -10.9 -10.9 --- --- 23.5 SE 0.39 26.1 -22.3 --- --- 728.3 0.020 0.000 7.7 5 1
02/26/06 4:05 a -10.9 -10.9 -10.9 --- --- 26.1 SE 0.43 29.6 -22.8 --- --- 728.2 0.020 0.000 7.7 5 1
02/26/06 4:06 a -10.9 -10.9 -10.9 --- --- 25.2 SE 0.42 28.7 -22.7 --- --- 728.3 0.020 0.000 7.7 5 1
02/26/06 4:07 a -10.9 -10.9 -10.9 --- --- 25.2 ESE 0.42 28.7 -22.7 --- --- 728.2 0.020 0.000 7.7 5 1
02/26/06 4:08 a -10.9 -10.9 -10.9 --- --- 30.4 ESE 0.51 33.9 -23.6 --- --- 728.0 0.020 0.000 7.7 5 1
02/26/06 4:09 a -10.9 -10.9 -10.9 --- --- 27.0 ESE 0.45 32.2 -22.9 --- --- 728.0 0.020 0.000 7.7 5 1
02/26/06 4:10 a -10.9 -10.9 -10.9 --- --- 27.8 ESE 0.46 32.2 -23.1 --- --- 728.0 0.020 0.000 7.7 5 1
02/26/06 4:11 a -10.9 -10.9 -10.9 --- --- 27.0 ESE 0.45 29.6 -22.9 --- --- 728.2 0.020 0.000 7.7 5 1
02/26/06 4:12 a -10.9 -10.9 -10.9 --- --- 25.2 SE 0.42 27.8 -22.6 --- --- 728.4 0.020 0.000 7.7 5 1
02/26/06 4:13 a -10.9 -10.9 -10.9 --- --- 26.1 ESE 0.43 30.4 -22.7 --- --- 728.3 0.020 0.000 7.7 5 1
02/26/06 4:14 a -10.9 -10.9 -10.9 --- --- 26.1 ESE 0.43 28.7 -22.7 --- --- 728.3 0.020 0.000 7.7 5 1
02/26/06 4:15 a -10.9 -10.8 -10.9 --- --- 26.1 ESE 0.43 30.4 -22.7 --- --- 728.4 0.020 0.000 7.7 5 1
02/26/06 4:16 a -10.8 -10.8 -10.8 --- --- 21.7 ESE 0.36 23.5 -21.8 --- --- 728.5 0.020 0.000 7.7 5 1
02/26/06 4:17 a -10.8 -10.8 -10.8 --- --- 22.6 ESE 0.38 25.2 -21.9 --- --- 728.4 0.020 0.000 7.7 5 1
02/26/06 4:18 a -10.8 -10.8 -10.8 --- --- 22.6 ESE 0.38 24.3 -21.9 --- --- 728.4 0.020 0.000 7.7 5 1
02/26/06 4:19 a -10.7 -10.7 -10.8 --- --- 24.3 SE 0.41 27.0 -22.2 --- --- 728.4 0.020 0.000 7.8 5 1
02/26/06 4:20 a -10.7 -10.7 -10.7 --- --- 23.5 SE 0.39 27.8 -22.0 --- --- 728.4 0.020 0.000 7.8 5 1
02/26/06 4:21 a -10.7 -10.7 -10.7 --- --- 23.5 SE 0.39 26.1 -22.0 --- --- 728.4 0.020 0.000 7.8 5 1
02/26/06 4:22 a -10.7 -10.6 -10.7 --- --- 24.3 ESE 0.41 27.8 -22.1 --- --- 728.4 0.020 0.000 7.8 5 1
02/26/06 4:23 a -10.7 -10.6 -10.7 --- --- 20.9 ESE 0.35 22.6 -21.4 --- --- 728.4 0.020 0.000 7.8 5 1
02/26/06 4:24 a -10.6 -10.6 -10.6 --- --- 18.3 SE 0.30 20.9 -20.8 --- --- 728.5 0.020 0.000 7.8 5 1
02/26/06 4:25 a -10.6 -10.6 -10.6 --- --- 20.0 ESE 0.33 21.7 -21.1 --- --- 728.6 0.020 0.000 7.8 5 1
02/26/06 4:26 a -10.5 -10.5 -10.6 --- --- 19.1 ESE 0.32 20.9 -20.8 --- --- 728.5 0.020 0.000 7.8 5 1
02/26/06 4:27 a -10.5 -10.5 -10.5 --- --- 19.1 ESE 0.32 21.7 -20.8 --- --- 728.5 0.020 0.000 7.8 5 1
02/26/06 4:28 a -10.4 -10.4 -10.4 --- --- 20.9 ESE 0.35 22.6 -21.1 --- --- 728.5 0.020 0.000 7.8 5 1
02/26/06 4:29 a -10.4 -10.4 -10.4 --- --- 18.3 ESE 0.30 20.0 -20.4 --- --- 728.6 0.020 0.000 7.8 5 1
02/26/06 4:30 a -10.4 -10.4 -10.4 --- --- 17.4 ESE 0.29 18.3 -20.2 --- --- 728.7 0.020 0.000 7.8 5 1
02/26/06 4:31 a -10.4 -10.3 -10.4 --- --- 18.3 ESE 0.30 19.1 -20.4 --- --- 728.6 0.020 0.000 7.8 5 1
02/26/06 4:32 a -10.4 -10.4 -10.4 --- --- 19.1 ESE 0.32 20.9 -20.7 --- --- 728.6 0.020 0.000 7.8 5 1
02/26/06 4:33 a -10.3 -10.3 -10.3 --- --- 18.3 ESE 0.30 20.0 -20.4 --- --- 728.5 0.020 0.000 7.8 5 1
02/26/06 4:34 a -10.3 -10.3 -10.3 --- --- 19.1 ESE 0.32 20.0 -20.6 --- --- 728.6 0.020 0.000 7.8 5 1
02/26/06 4:35 a -10.3 -10.3 -10.3 --- --- 18.3 ESE 0.30 20.0 -20.4 --- --- 728.6 0.020 0.000 7.8 5 1
02/26/06 4:36 a -10.3 -10.3 -10.3 --- --- 19.1 ESE 0.32 21.7 -20.6 --- --- 728.6 0.020 0.000 7.8 5 1
02/26/06 4:37 a -10.3 -10.3 -10.3 --- --- 19.1 ESE 0.32 20.9 -20.6 --- --- 728.6 0.020 0.000 7.8 5 1
02/26/06 4:38 a -10.3 -10.2 -10.3 --- --- 18.3 ESE 0.30 19.1 -20.3 --- --- 728.8 0.020 0.000 7.8 5 1
02/26/06 4:39 a -10.3 -10.2 -10.3 --- --- 18.3 ESE 0.30 19.1 -20.3 --- --- 728.6 0.020 0.000 7.8 5 1
02/26/06 4:40 a -10.3 -10.3 -10.3 --- --- 19.1 ESE 0.32 21.7 -20.5 --- --- 728.5 0.020 0.000 7.8 5 1
02/26/06 4:41 a -10.3 -10.2 -10.3 --- --- 18.3 E 0.30 20.0 -20.3 --- --- 728.6 0.020 0.000 7.8 5 1
02/26/06 4:42 a -10.3 -10.3 -10.3 --- --- 17.4 ESE 0.29 19.1 -20.1 --- --- 728.6 0.020 0.000 7.8 5 1
02/26/06 4:43 a -10.3 -10.3 -10.3 --- --- 18.3 ESE 0.30 20.0 -20.3 --- --- 728.6 0.020 0.000 7.8 5 1
02/26/06 4:44 a -10.3 -10.3 -10.3 --- --- 19.1 E 0.32 20.9 -20.5 --- --- 728.5 0.020 0.000 7.8 5 1
02/26/06 4:45 a -10.3 -10.3 -10.3 --- --- 18.3 E 0.30 20.9 -20.3 --- --- 728.6 0.020 0.000 7.8 5 1
02/26/06 4:46 a -10.3 -10.3 -10.3 --- --- 19.1 E 0.32 20.9 -20.5 --- --- 728.6 0.020 0.000 7.8 5 1
02/26/06 4:47 a -10.3 -10.3 -10.3 --- --- 19.1 ESE 0.32 21.7 -20.6 --- --- 728.6 0.020 0.000 7.8 5 1
02/26/06 4:48 a -10.3 -10.3 -10.3 --- --- 20.0 ESE 0.33 21.7 -20.7 --- --- 728.6 0.020 0.000 7.8 5 1
02/26/06 4:49 a -10.3 -10.3 -10.3 --- --- 18.3 ESE 0.30 20.9 -20.3 --- --- 728.5 0.020 0.000 7.8 5 1
02/26/06 4:50 a -10.3 -10.3 -10.4 --- --- 18.3 E 0.30 20.0 -20.4 --- --- 728.5 0.020 0.000 7.8 5 1
02/26/06 4:51 a -10.3 -10.3 -10.3 --- --- 19.1 E 0.32 20.9 -20.6 --- --- 728.6 0.020 0.000 7.8 5 1
02/26/06 4:52 a -10.4 -10.3 -10.4 --- --- 18.3 ESE 0.30 19.1 -20.4 --- --- 728.6 0.020 0.000 7.8 5 1
02/26/06 4:53 a -10.4 -10.4 -10.4 --- --- 19.1 ESE 0.32 20.9 -20.7 --- --- 728.5 0.020 0.000 7.8 5 1
02/26/06 4:54 a -10.4 -10.4 -10.4 --- --- 19.1 ESE 0.32 21.7 -20.7 --- --- 728.5 0.020 0.000 7.8 5 1
02/26/06 4:55 a -10.4 -10.4 -10.4 --- --- 20.0 ESE 0.33 21.7 -20.8 --- --- 728.5 0.020 0.000 7.8 5 1
02/26/06 4:56 a -10.4 -10.4 -10.4 --- --- 20.9 ESE 0.35 21.7 -21.1 --- --- 728.6 0.020 0.000 7.8 5 1
02/26/06 4:57 a -10.4 -10.4 -10.4 --- --- 19.1 ESE 0.32 20.9 -20.7 --- --- 728.6 0.020 0.000 7.8 5 1
02/26/06 4:58 a -10.4 -10.4 -10.5 --- --- 20.0 ESE 0.33 21.7 -20.9 --- --- 728.5 0.020 0.000 7.8 5 1
02/26/06 4:59 a -10.4 -10.4 -10.5 --- --- 20.9 ESE 0.35 21.7 -21.1 --- --- 728.5 0.020 0.000 7.8 5 1
02/26/06 5:00 a -10.4 -10.4 -10.5 --- --- 20.9 ESE 0.35 22.6 -21.1 --- --- 728.5 0.020 0.000 7.8 5 1
02/26/06 5:01 a -10.5 -10.4 -10.5 --- --- 20.9 ESE 0.35 21.7 -21.2 --- --- 728.5 0.020 0.000 7.8 5 1
02/26/06 5:02 a -10.5 -10.5 -10.5 --- --- 20.9 ESE 0.35 22.6 -21.2 --- --- 728.4 0.020 0.000 7.8 5 1
02/26/06 5:03 a -10.5 -10.5 -10.6 --- --- 20.9 ESE 0.35 21.7 -21.2 --- --- 728.5 0.020 0.000 7.8 5 1
02/26/06 5:04 a -10.5 -10.5 -10.6 --- --- 20.9 ESE 0.35 25.2 -21.2 --- --- 728.5 0.020 0.000 7.8 5 1
02/26/06 5:05 a -10.6 -10.5 -10.6 --- --- 20.9 ESE 0.35 22.6 -21.3 --- --- 728.5 0.020 0.000 7.8 5 1
02/26/06 5:06 a -10.6 -10.6 -10.6 --- --- 20.9 ESE 0.35 21.7 -21.3 --- --- 728.5 0.020 0.000 7.8 5 1
02/26/06 5:07 a -10.6 -10.6 -10.6 --- --- 20.0 ESE 0.33 21.7 -21.2 --- --- 728.6 0.020 0.000 7.8 5 1
02/26/06 5:08 a -10.6 -10.6 -10.6 --- --- 20.0 ESE 0.33 20.9 -21.2 --- --- 728.5 0.020 0.000 7.8 5 1
02/26/06 5:09 a -10.6 -10.6 -10.6 --- --- 20.9 ESE 0.35 21.7 -21.3 --- --- 728.6 0.020 0.000 7.8 5 1
02/26/06 5:10 a -10.6 -10.6 -10.7 --- --- 20.9 ESE 0.35 22.6 -21.3 --- --- 728.7 0.020 0.000 7.8 5 1
02/26/06 5:11 a -10.6 -10.6 -10.7 --- --- 21.7 ESE 0.36 23.5 -21.5 --- --- 728.6 0.020 0.000 7.8 5 1
02/26/06 5:12 a -10.7 -10.6 -10.7 --- --- 20.0 E 0.33 22.6 -21.2 --- --- 728.6 0.020 0.000 7.8 5 1
02/26/06 5:13 a -10.6 -10.6 -10.7 --- --- 20.0 ESE 0.33 21.7 -21.2 --- --- 728.6 0.020 0.000 7.8 5 1
02/26/06 5:14 a -10.7 -10.7 -10.7 --- --- 20.9 ESE 0.35 22.6 -21.4 --- --- 728.5 0.020 0.000 7.8 5 1
02/26/06 5:15 a -10.7 -10.7 -10.7 --- --- 20.0 ESE 0.33 22.6 -21.2 --- --- 728.6 0.020 0.000 7.8 5 1
02/26/06 5:16 a -10.7 -10.7 -10.7 --- --- 20.0 ESE 0.33 21.7 -21.3 --- --- 728.6 0.020 0.000 7.8 5 1
02/26/06 5:17 a -10.7 -10.7 -10.7 --- --- 20.0 ESE 0.33 23.5 -21.3 --- --- 728.6 0.020 0.000 7.8 5 1
02/26/06 5:18 a -10.7 -10.7 -10.8 --- --- 21.7 E 0.36 24.3 -21.7 --- --- 728.6 0.020 0.000 7.8 5 1
02/26/06 5:19 a -10.7 -10.7 -10.8 --- --- 19.1 ESE 0.32 22.6 -21.1 --- --- 728.6 0.020 0.000 7.8 5 1
02/26/06 5:20 a -10.8 -10.7 -10.8 --- --- 20.0 ESE 0.33 22.6 -21.4 --- --- 728.6 0.020 0.000 7.8 5 1
02/26/06 5:21 a -10.8 -10.8 -10.8 --- --- 22.6 ESE 0.38 23.5 -21.9 --- --- 728.5 0.020 0.000 7.8 5 1
02/26/06 5:22 a -10.8 -10.8 -10.8 --- --- 21.7 ESE 0.36 23.5 -21.7 --- --- 728.5 0.020 0.000 7.8 5 1
02/26/06 5:23 a -10.8 -10.7 -10.8 --- --- 20.9 ESE 0.35 24.3 -21.6 --- --- 728.6 0.020 0.000 7.8 5 1
02/26/06 5:24 a -10.8 -10.8 -10.8 --- --- 22.6 ESE 0.38 24.3 -21.9 --- --- 728.6 0.020 0.000 7.9 5 1
02/26/06 5:25 a -10.8 -10.8 -10.8 --- --- 20.9 ESE 0.35 24.3 -21.7 --- --- 728.7 0.020 0.000 7.8 5 1
02/26/06 5:26 a -10.8 -10.8 -10.8 --- --- 20.9 SE 0.35 22.6 -21.7 --- --- 728.8 0.020 0.000 7.8 5 1
02/26/06 5:27 a -10.8 -10.8 -10.8 --- --- 20.9 ESE 0.35 23.5 -21.7 --- --- 728.6 0.020 0.000 7.8 5 1
02/26/06 5:28 a -10.8 -10.8 -10.8 --- --- 19.1 ESE 0.32 23.5 -21.3 --- --- 728.8 0.020 0.000 7.8 5 1
02/26/06 5:29 a -10.9 -10.9 -10.9 --- --- 20.0 ESE 0.33 22.6 -21.5 --- --- 728.7 0.020 0.000 7.8 5 1
02/26/06 5:30 a -10.9 -10.9 -10.9 --- --- 20.9 ESE 0.35 22.6 -21.7 --- --- 728.7 0.020 0.000 7.8 5 1
02/26/06 5:31 a -10.9 -10.8 -10.9 --- --- 21.7 ESE 0.36 23.5 -21.9 --- --- 728.7 0.020 0.000 7.9 5 1
02/26/06 5:32 a -10.9 -10.9 -10.9 --- --- 20.0 ESE 0.33 21.7 -21.5 --- --- 728.7 0.020 0.000 7.8 5 1
02/26/06 5:33 a -10.9 -10.9 -10.9 --- --- 20.9 ESE 0.35 22.6 -21.7 --- --- 728.6 0.020 0.000 7.8 5 1
02/26/06 5:34 a -10.9 -10.9 -10.9 --- --- 20.0 ESE 0.33 22.6 -21.5 --- --- 728.7 0.020 0.000 7.8 5 1
02/26/06 5:35 a -10.9 -10.9 -10.9 --- --- 18.3 SE 0.30 21.7 -21.1 --- --- 728.8 0.020 0.000 7.8 5 1
02/26/06 5:36 a -10.9 -10.9 -10.9 --- --- 18.3 SE 0.30 20.9 -21.2 --- --- 728.7 0.020 0.000 7.8 5 1
02/26/06 5:37 a -10.9 -10.9 -10.9 --- --- 19.1 ESE 0.32 21.7 -21.4 --- --- 728.7 0.020 0.000 7.8 5 1
02/26/06 5:38 a -10.9 -10.9 -11.0 --- --- 20.9 ESE 0.35 23.5 -21.8 --- --- 728.6 0.020 0.000 7.8 5 1
02/26/06 5:39 a -10.9 -10.9 -11.0 --- --- 20.0 ESE 0.33 21.7 -21.6 --- --- 728.7 0.020 0.000 7.8 5 1
02/26/06 5:40 a -11.0 -10.9 -11.0 --- --- 19.1 ESE 0.32 22.6 -21.4 --- --- 728.7 0.020 0.000 7.8 5 1
02/26/06 5:41 a -11.0 -10.9 -11.0 --- --- 20.0 SE 0.33 26.1 -21.7 --- --- 728.6 0.020 0.000 7.8 5 1
02/26/06 5:42 a -11.0 -10.9 -11.0 --- --- 22.6 SE 0.38 27.0 -22.2 --- --- 728.5 0.020 0.000 7.8 5 1
02/26/06 5:43 a -11.0 -10.9 -11.0 --- --- 20.9 ESE 0.35 22.6 -21.8 --- --- 728.7 0.020 0.000 7.8 5 1
02/26/06 5:44 a -11.0 -11.0 -11.0 --- --- 20.9 ESE 0.35 22.6 -21.8 --- --- 728.7 0.020 0.000 7.8 5 1
02/26/06 5:45 a -11.0 -11.0 -11.0 --- --- 19.1 ESE 0.32 22.6 -21.4 --- --- 728.6 0.020 0.000 7.8 5 1
02/26/06 5:46 a -11.0 -11.0 -11.0 --- --- 20.0 ESE 0.33 21.7 -21.7 --- --- 728.8 0.020 0.000 7.8 5 1
02/26/06 5:47 a -11.0 -11.0 -11.1 --- --- 20.0 SE 0.33 22.6 -21.7 --- --- 728.7 0.020 0.000 7.8 5 1
02/26/06 5:48 a -11.1 -11.0 -11.1 --- --- 21.7 SE 0.36 23.5 -22.1 --- --- 728.8 0.020 0.000 7.8 5 1
02/26/06 5:49 a -11.1 -11.0 -11.1 --- --- 22.6 SE 0.38 26.1 -22.3 --- --- 728.7 0.020 0.000 7.8 5 1
02/26/06 5:50 a -11.1 -11.0 -11.1 --- --- 22.6 SE 0.38 25.2 -22.3 --- --- 728.7 0.020 0.000 7.8 5 1
02/26/06 5:51 a -11.1 -11.1 -11.1 --- --- 20.0 SE 0.33 22.6 -21.7 --- --- 728.8 0.020 0.000 7.8 5 1
02/26/06 5:52 a -11.1 -11.1 -11.1 --- --- 20.0 ESE 0.33 22.6 -21.7 --- --- 728.8 0.020 0.000 7.8 5 1
02/26/06 5:53 a -11.1 -11.1 -11.1 --- --- 20.9 SE 0.35 22.6 -21.9 --- --- 728.8 0.020 0.000 7.8 5 1
02/26/06 5:54 a -11.1 -11.1 -11.1 --- --- 22.6 ESE 0.38 25.2 -22.4 --- --- 728.8 0.020 0.000 7.8 5 1
02/26/06 5:55 a -11.1 -11.1 -11.2 --- --- 20.0 SE 0.33 21.7 -21.8 --- --- 728.8 0.020 0.000 7.8 5 1
02/26/06 5:56 a -11.1 -11.1 -11.1 --- --- 19.1 SE 0.32 20.9 -21.6 --- --- 728.9 0.020 0.000 7.8 5 1
02/26/06 5:57 a -11.2 -11.1 -11.2 --- --- 18.3 ESE 0.30 20.0 -21.5 --- --- 728.9 0.020 0.000 7.8 5 1
02/26/06 5:58 a -11.2 -11.1 -11.2 --- --- 18.3 ESE 0.30 19.1 -21.5 --- --- 728.9 0.020 0.000 7.8 5 1
02/26/06 5:59 a -11.2 -11.1 -11.2 --- --- 18.3 SE 0.30 20.0 -21.5 --- --- 728.8 0.020 0.000 7.8 5 1
02/26/06 6:00 a -11.2 -11.2 -11.2 --- --- 19.1 ESE 0.32 20.0 -21.7 --- --- 728.9 0.020 0.000 7.8 5 1
02/26/06 6:01 a -11.2 -11.2 -11.2 --- --- 19.1 ESE 0.32 20.0 -21.7 --- --- 728.9 0.020 0.000 7.8 5 1
02/26/06 6:02 a -11.2 -11.2 -11.2 --- --- 19.1 ESE 0.32 20.0 -21.8 --- --- 728.8 0.021 0.000 7.8 5 1
02/26/06 6:03 a -11.2 -11.2 -11.2 --- --- 18.3 ESE 0.30 20.0 -21.5 --- --- 728.8 0.020 0.000 7.8 5 1
02/26/06 6:04 a -11.2 -11.2 -11.2 --- --- 19.1 ESE 0.32 20.0 -21.8 --- --- 728.8 0.021 0.000 7.8 5 1
02/26/06 6:05 a -11.2 -11.2 -11.2 --- --- 20.0 ESE 0.33 21.7 -21.9 --- --- 728.9 0.021 0.000 7.8 5 1
02/26/06 6:06 a -11.2 -11.2 -11.2 --- --- 20.0 ESE 0.33 21.7 -21.9 --- --- 728.8 0.021 0.000 7.8 5 1
02/26/06 6:07 a -11.2 -11.2 -11.2 --- --- 18.3 ESE 0.30 20.0 -21.5 --- --- 728.8 0.020 0.000 7.8 5 1
02/26/06 6:08 a -11.2 -11.2 -11.2 --- --- 17.4 ESE 0.29 19.1 -21.3 --- --- 728.9 0.021 0.000 7.8 5 1
02/26/06 6:09 a -11.2 -11.2 -11.2 --- --- 20.9 ESE 0.35 21.7 -22.2 --- --- 728.8 0.021 0.000 7.8 5 1
02/26/06 6:10 a -11.2 -11.2 -11.2 --- --- 20.0 ESE 0.33 21.7 -21.9 --- --- 728.8 0.021 0.000 7.9 5 1
02/26/06 6:11 a -11.2 -11.2 -11.2 --- --- 19.1 ESE 0.32 20.0 -21.8 --- --- 728.9 0.021 0.000 7.9 5 1
02/26/06 6:12 a -11.2 -11.2 -11.2 --- --- 18.3 ESE 0.30 20.0 -21.6 --- --- 728.9 0.021 0.000 7.9 5 1
02/26/06 6:13 a -11.2 -11.2 -11.2 --- --- 19.1 ESE 0.32 20.0 -21.8 --- --- 728.9 0.021 0.000 7.9 5 1
02/26/06 6:14 a -11.2 -11.2 -11.2 --- --- 18.3 SE 0.30 20.0 -21.6 --- --- 729.0 0.021 0.000 7.9 5 1
02/26/06 6:15 a -11.2 -11.2 -11.3 --- --- 18.3 SE 0.30 20.0 -21.6 --- --- 728.9 0.021 0.000 7.9 5 1
02/26/06 6:16 a -11.2 -11.2 -11.3 --- --- 18.3 SE 0.30 19.1 -21.6 --- --- 728.9 0.021 0.000 7.9 5 1
02/26/06 6:17 a -11.3 -11.3 -11.3 --- --- 17.4 SE 0.29 18.3 -21.4 --- --- 728.9 0.021 0.000 7.9 5 1
02/26/06 6:18 a -11.3 -11.2 -11.3 --- --- 18.3 SE 0.30 19.1 -21.6 --- --- 728.9 0.021 0.000 7.9 5 1
02/26/06 6:19 a -11.3 -11.2 -11.3 --- --- 19.1 SE 0.32 20.0 -21.8 --- --- 728.9 0.021 0.000 7.9 5 1
02/26/06 6:20 a -11.3 -11.3 -11.3 --- --- 18.3 ESE 0.30 19.1 -21.6 --- --- 728.9 0.021 0.000 7.9 5 1
02/26/06 6:21 a -11.3 -11.3 -11.3 --- --- 17.4 ESE 0.29 20.0 -21.4 --- --- 728.8 0.021 0.000 7.9 5 1
02/26/06 6:22 a -11.3 -11.3 -11.3 --- --- 20.0 ESE 0.33 20.9 -22.1 --- --- 728.9 0.021 0.000 7.9 5 1
02/26/06 6:23 a -11.3 -11.3 -11.3 --- --- 19.1 SE 0.32 20.9 -21.9 --- --- 728.9 0.021 0.000 7.9 5 1
02/26/06 6:24 a -11.3 -11.3 -11.3 --- --- 19.1 SE 0.32 20.0 -21.9 --- --- 728.9 0.021 0.000 7.9 5 1
02/26/06 6:25 a -11.3 -11.3 -11.3 --- --- 18.3 SE 0.30 20.0 -21.7 --- --- 729.0 0.021 0.000 7.9 5 1
02/26/06 6:26 a -11.3 -11.3 -11.3 --- --- 18.3 SE 0.30 20.0 -21.7 --- --- 728.9 0.021 0.000 7.9 5 1
02/26/06 6:27 a -11.3 -11.3 -11.3 --- --- 19.1 SE 0.32 20.0 -21.9 --- --- 728.9 0.021 0.000 7.9 5 1
02/26/06 6:28 a -11.3 -11.3 -11.4 --- --- 18.3 SE 0.30 19.1 -21.7 --- --- 729.0 0.021 0.000 7.9 5 1
02/26/06 6:29 a -11.3 -11.3 -11.4 --- --- 18.3 SE 0.30 20.0 -21.7 --- --- 729.0 0.021 0.000 7.9 5 1
02/26/06 6:30 a -11.3 -11.3 -11.3 --- --- 18.3 ESE 0.30 20.0 -21.7 --- --- 729.0 0.021 0.000 7.9 5 1
02/26/06 6:31 a -11.4 -11.3 -11.4 --- --- 19.1 ESE 0.32 20.9 -22.0 --- --- 729.0 0.021 0.000 7.9 5 1
02/26/06 6:32 a -11.4 -11.3 -11.4 --- --- 19.1 ESE 0.32 20.0 -22.0 --- --- 729.0 0.021 0.000 7.9 5 1
02/26/06 6:33 a -11.3 -11.3 -11.4 --- --- 19.1 ESE 0.32 20.9 -21.9 --- --- 729.0 0.021 0.000 7.9 5 1
02/26/06 6:34 a -11.4 -11.3 -11.4 --- --- 19.1 SE 0.32 20.0 -22.0 --- --- 729.0 0.021 0.000 7.9 5 1
02/26/06 6:35 a -11.4 -11.3 -11.4 --- --- 18.3 SE 0.30 19.1 -21.8 --- --- 729.0 0.021 0.000 7.9 5 1
02/26/06 6:36 a -11.3 -11.3 -11.4 --- --- 18.3 ESE 0.30 19.1 -21.7 --- --- 729.0 0.021 0.000 7.9 5 1
02/26/06 6:37 a -11.4 -11.3 -11.4 --- --- 18.3 ESE 0.30 19.1 -21.8 --- --- 729.0 0.021 0.000 7.9 5 1
02/26/06 6:38 a -11.3 -11.3 -11.4 --- --- 18.3 ESE 0.30 20.9 -21.7 --- --- 728.9 0.021 0.000 7.9 5 1
02/26/06 6:39 a -11.4 -11.3 -11.4 --- --- 18.3 ESE 0.30 20.0 -21.8 --- --- 729.0 0.021 0.000 7.9 5 1
02/26/06 6:40 a -11.4 -11.4 -11.4 --- --- 18.3 SE 0.30 20.9 -21.8 --- --- 729.0 0.021 0.000 7.9 5 1
02/26/06 6:41 a -11.4 -11.4 -11.4 --- --- 18.3 SE 0.30 20.0 -21.8 --- --- 728.9 0.021 0.000 7.9 5 1
02/26/06 6:42 a -11.4 -11.4 -11.4 --- --- 19.1 SE 0.32 20.9 -22.0 --- --- 729.1 0.021 0.000 7.9 5 1
02/26/06 6:43 a -11.4 -11.4 -11.4 --- --- 17.4 SE 0.29 18.3 -21.6 --- --- 729.1 0.021 0.000 7.9 5 1
02/26/06 6:44 a -11.4 -11.4 -11.4 --- --- 15.7 SE 0.26 17.4 -21.1 --- --- 729.1 0.021 0.000 7.9 5 1
02/26/06 6:45 a -11.4 -11.4 -11.4 --- --- 17.4 ESE 0.29 18.3 -21.6 --- --- 729.1 0.021 0.000 7.9 5 1
02/26/06 6:46 a -11.4 -11.4 -11.4 --- --- 17.4 ESE 0.29 19.1 -21.6 --- --- 729.1 0.021 0.000 7.9 5 1
02/26/06 6:47 a -11.4 -11.4 -11.4 --- --- 17.4 ESE 0.29 19.1 -21.6 --- --- 729.1 0.021 0.000 7.9 5 1
02/26/06 6:48 a -11.4 -11.4 -11.4 --- --- 17.4 ESE 0.29 18.3 -21.6 --- --- 729.2 0.021 0.000 7.9 5 1
02/26/06 6:49 a -11.4 -11.4 -11.4 --- --- 16.5 ESE 0.28 17.4 -21.3 --- --- 729.1 0.021 0.000 7.9 5 1
02/26/06 6:50 a -11.4 -11.4 -11.4 --- --- 16.5 ESE 0.28 20.0 -21.4 --- --- 729.1 0.021 0.000 7.9 5 1
02/26/06 6:51 a -11.4 -11.4 -11.4 --- --- 16.5 ESE 0.28 18.3 -21.4 --- --- 729.1 0.021 0.000 7.9 5 1
02/26/06 6:52 a -11.4 -11.4 -11.4 --- --- 17.4 ESE 0.29 20.0 -21.6 --- --- 729.1 0.021 0.000 7.9 5 1
02/26/06 6:53 a -11.4 -11.4 -11.5 --- --- 17.4 ESE 0.29 19.1 -21.6 --- --- 729.1 0.021 0.000 7.9 5 1
02/26/06 6:54 a -11.4 -11.4 -11.4 --- --- 17.4 ESE 0.29 19.1 -21.6 --- --- 729.1 0.021 0.000 7.9 5 1
02/26/06 6:55 a -11.4 -11.4 -11.5 --- --- 15.7 ESE 0.26 18.3 -21.2 --- --- 729.1 0.021 0.000 7.9 5 1
02/26/06 6:56 a -11.4 -11.4 -11.5 --- --- 16.5 E 0.28 19.1 -21.4 --- --- 729.0 0.021 0.000 7.9 5 1
02/26/06 6:57 a -11.4 -11.4 -11.5 --- --- 17.4 E 0.29 20.0 -21.6 --- --- 729.0 0.021 0.000 7.9 5 1
02/26/06 6:58 a -11.4 -11.4 -11.4 --- --- 18.3 E 0.30 20.9 -21.8 --- --- 729.1 0.021 0.000 7.9 5 1
02/26/06 6:59 a -11.4 -11.4 -11.4 --- --- 15.7 E 0.26 18.3 -21.2 --- --- 729.1 0.021 0.000 7.9 5 1
02/26/06 7:00 a -11.5 -11.4 -11.5 --- --- 16.5 E 0.28 20.9 -21.5 --- --- 729.2 0.021 0.000 7.9 5 1
02/26/06 7:01 a -11.5 -11.5 -11.5 --- --- 16.5 E 0.28 19.1 -21.5 --- --- 729.1 0.021 0.000 7.9 5 1
02/26/06 7:02 a -11.5 -11.5 -11.5 --- --- 19.1 E 0.32 20.9 -22.1 --- --- 729.1 0.021 0.000 7.9 5 1
02/26/06 7:03 a -11.5 -11.5 -11.6 --- --- 17.4 E 0.29 20.9 -21.7 --- --- 729.0 0.021 0.000 7.9 5 1
02/26/06 7:04 a -11.6 -11.5 -11.6 --- --- 17.4 ESE 0.29 20.9 -21.8 --- --- 729.0 0.021 0.000 7.9 5 1
02/26/06 7:05 a -11.5 -11.5 -11.6 --- --- 17.4 ESE 0.29 21.7 -21.7 --- --- 729.0 0.021 0.000 7.9 5 1
02/26/06 7:06 a -11.5 -11.5 -11.6 --- --- 16.5 E 0.28 20.0 -21.5 --- --- 729.1 0.021 0.000 7.9 5 1
02/26/06 7:07 a -11.5 -11.5 -11.6 --- --- 13.9 E 0.23 18.3 -20.7 --- --- 729.0 0.021 0.000 7.9 5 1
02/26/06 7:08 a -11.5 -11.5 -11.6 --- --- 15.7 E 0.26 20.9 -21.2 --- --- 729.0 0.021 0.000 7.9 5 1
02/26/06 7:09 a -11.6 -11.5 -11.6 --- --- 18.3 E 0.30 24.3 -22.0 --- --- 729.0 0.021 0.000 8.0 5 1
02/26/06 7:10 a -11.6 -11.6 -11.6 --- --- 17.4 E 0.29 21.7 -21.8 --- --- 729.0 0.021 0.000 8.0 5 1
02/26/06 7:11 a -11.6 -11.6 -11.6 --- --- 17.4 E 0.29 20.9 -21.8 --- --- 729.0 0.021 0.000 8.0 5 1
02/26/06 7:12 a -11.6 -11.6 -11.6 --- --- 18.3 ESE 0.30 22.6 -22.0 --- --- 729.0 0.021 0.000 8.0 5 1
02/26/06 7:13 a -11.6 -11.6 -11.6 --- --- 19.1 E 0.32 21.7 -22.3 --- --- 729.0 0.021 0.000 8.0 5 1
02/26/06 7:14 a -11.6 -11.6 -11.6 --- --- 18.3 E 0.30 20.9 -22.0 --- --- 729.0 0.021 0.000 8.0 5 1
02/26/06 7:15 a -11.6 -11.6 -11.6 --- --- 19.1 E 0.32 21.7 -22.3 --- --- 729.0 0.021 0.000 8.0 5 1
02/26/06 7:16 a -11.6 -11.6 -11.6 --- --- 17.4 E 0.29 20.9 -21.8 --- --- 729.1 0.021 0.000 8.0 5 1
02/26/06 7:17 a -11.6 -11.6 -11.6 --- --- 17.4 E 0.29 21.7 -21.8 --- --- 729.0 0.021 0.000 8.0 5 1
02/26/06 7:18 a -11.6 -11.6 -11.7 --- --- 19.1 E 0.32 21.7 -22.3 --- --- 729.0 0.021 0.000 8.0 5 1
02/26/06 7:19 a -11.6 -11.6 -11.7 --- --- 18.3 E 0.30 20.9 -22.1 --- --- 729.0 0.021 0.000 7.9 5 1
02/26/06 7:20 a -11.6 -11.6 -11.7 --- --- 19.1 ESE 0.32 20.9 -22.3 --- --- 729.2 0.021 0.000 8.0 5 1
02/26/06 7:21 a -11.6 -11.6 -11.7 --- --- 17.4 E 0.29 20.0 -21.8 --- --- 729.0 0.021 0.000 8.0 5 1
02/26/06 7:22 a -11.6 -11.6 -11.7 --- --- 17.4 E 0.29 20.0 -21.8 --- --- 729.1 0.021 0.000 7.9 5 1
02/26/06 7:23 a -11.7 -11.6 -11.7 --- --- 16.5 E 0.28 20.0 -21.7 --- --- 729.1 0.021 0.000 7.9 5 1
02/26/06 7:24 a -11.7 -11.6 -11.7 --- --- 16.5 E 0.28 20.0 -21.7 --- --- 729.1 0.021 0.000 8.0 5 1
02/26/06 7:25 a -11.7 -11.7 -11.7 --- --- 16.5 E 0.28 19.1 -21.7 --- --- 729.2 0.021 0.000 7.9 5 1
02/26/06 7:26 a -11.7 -11.7 -11.7 --- --- 16.5 E 0.28 20.0 -21.7 --- --- 729.1 0.021 0.000 7.9 5 1
02/26/06 7:27 a -11.7 -11.7 -11.7 --- --- 18.3 E 0.30 20.0 -22.2 --- --- 729.1 0.021 0.000 7.9 5 1
02/26/06 7:28 a -11.7 -11.7 -11.7 --- --- 18.3 E 0.30 20.0 -22.2 --- --- 729.1 0.021 0.000 7.9 5 1
02/26/06 7:29 a -11.7 -11.7 -11.7 --- --- 16.5 E 0.28 19.1 -21.7 --- --- 729.2 0.021 0.000 7.9 5 1
02/26/06 7:30 a -11.7 -11.7 -11.7 --- --- 15.7 E 0.26 18.3 -21.6 --- --- 729.2 0.021 0.000 7.9 5 1
02/26/06 7:31 a -11.7 -11.7 -11.7 --- --- 16.5 ESE 0.28 19.1 -21.8 --- --- 729.2 0.021 0.000 7.9 5 1
02/26/06 7:32 a -11.7 -11.7 -11.7 --- --- 16.5 ESE 0.28 17.4 -21.8 --- --- 729.3 0.021 0.000 7.9 5 1
02/26/06 7:33 a -11.7 -11.7 -11.7 --- --- 15.7 E 0.26 18.3 -21.6 --- --- 729.3 0.021 0.000 7.9 5 1
02/26/06 7:34 a -11.7 -11.7 -11.7 --- --- 16.5 E 0.28 18.3 -21.8 --- --- 729.2 0.021 0.000 7.9 5 1
02/26/06 7:35 a -11.7 -11.7 -11.8 --- --- 14.8 E 0.25 19.1 -21.3 --- --- 729.3 0.021 0.000 7.9 5 1
02/26/06 7:36 a -11.7 -11.7 -11.7 --- --- 17.4 E 0.29 20.0 -22.0 --- --- 729.2 0.021 0.000 7.9 5 1
02/26/06 7:37 a -11.7 -11.7 -11.8 --- --- 16.5 E 0.28 19.1 -21.8 --- --- 729.3 0.021 0.000 7.9 5 1
02/26/06 7:38 a -11.8 -11.7 -11.8 --- --- 17.4 ESE 0.29 19.1 -22.1 --- --- 729.3 0.021 0.000 7.9 5 1
02/26/06 7:39 a -11.8 -11.7 -11.8 --- --- 18.3 ESE 0.30 20.0 -22.3 --- --- 729.3 0.021 0.000 7.9 5 1
02/26/06 7:40 a -11.8 -11.7 -11.8 --- --- 19.1 ESE 0.32 20.0 -22.5 --- --- 729.3 0.021 0.000 7.9 5 1
02/26/06 7:41 a -11.8 -11.7 -11.8 --- --- 16.5 ESE 0.28 18.3 -21.8 --- --- 729.4 0.021 0.000 7.9 5 1
02/26/06 7:42 a -11.8 -11.8 -11.8 --- --- 17.4 ESE 0.29 19.1 -22.1 --- --- 729.2 0.021 0.000 7.9 5 1
02/26/06 7:43 a -11.8 -11.8 -11.8 --- --- 18.3 ESE 0.30 20.0 -22.3 --- --- 729.3 0.021 0.000 7.9 5 1
02/26/06 7:44 a -11.8 -11.8 -11.8 --- --- 19.1 ESE 0.32 21.7 -22.5 --- --- 729.3 0.021 0.000 7.9 5 1
02/26/06 7:45 a -11.8 -11.8 -11.8 --- --- 17.4 ESE 0.29 19.1 -22.1 --- --- 729.3 0.021 0.000 7.9 5 1
02/26/06 7:46 a -11.8 -11.8 -11.8 --- --- 17.4 ESE 0.29 20.0 -22.1 --- --- 729.3 0.021 0.000 7.9 5 1
02/26/06 7:47 a -11.8 -11.8 -11.8 --- --- 17.4 E 0.29 19.1 -22.1 --- --- 729.3 0.021 0.000 7.9 5 1
02/26/06 7:48 a -11.8 -11.8 -11.8 --- --- 18.3 E 0.30 20.0 -22.3 --- --- 729.3 0.021 0.000 7.9 5 1
02/26/06 7:49 a -11.8 -11.8 -11.8 --- --- 18.3 E 0.30 20.0 -22.4 --- --- 729.3 0.021 0.000 7.9 5 1
02/26/06 7:50 a -11.8 -11.8 -11.8 --- --- 16.5 E 0.28 18.3 -21.8 --- --- 729.3 0.021 0.000 7.9 5 1
02/26/06 7:51 a -11.8 -11.8 -11.8 --- --- 14.8 E 0.25 17.4 -21.4 --- --- 729.3 0.021 0.000 7.9 5 1
02/26/06 7:52 a -11.8 -11.8 -11.8 --- --- 14.8 E 0.25 19.1 -21.4 --- --- 729.2 0.021 0.000 7.9 5 1
02/26/06 7:53 a -11.8 -11.8 -11.8 --- --- 17.4 ESE 0.29 18.3 -22.2 --- --- 729.3 0.021 0.000 7.9 5 1
02/26/06 7:54 a -11.8 -11.8 -11.8 --- --- 16.5 ESE 0.28 18.3 -21.9 --- --- 729.3 0.021 0.000 7.9 5 1
02/26/06 7:55 a -11.8 -11.8 -11.8 --- --- 14.8 E 0.25 16.5 -21.4 --- --- 729.3 0.021 0.000 7.9 5 1
02/26/06 7:56 a -11.8 -11.8 -11.8 --- --- 15.7 E 0.26 19.1 -21.7 --- --- 729.4 0.021 0.000 7.9 5 1
02/26/06 7:57 a -11.8 -11.8 -11.8 --- --- 15.7 ESE 0.26 16.5 -21.7 --- --- 729.4 0.021 0.000 7.9 5 1
02/26/06 7:58 a -11.8 -11.8 -11.8 --- --- 15.7 ESE 0.26 17.4 -21.7 --- --- 729.4 0.021 0.000 7.9 5 1
02/26/06 7:59 a -11.8 -11.8 -11.8 --- --- 14.8 E 0.25 18.3 -21.4 --- --- 729.4 0.021 0.000 7.9 5 1
02/26/06 8:00 a -11.8 -11.8 -11.9 --- --- 14.8 E 0.25 17.4 -21.4 --- --- 729.4 0.021 0.000 8.0 5 1
02/26/06 8:01 a -11.9 -11.8 -11.9 --- --- 15.7 E 0.26 18.3 -21.7 --- --- 729.4 0.021 0.000 8.0 5 1
02/26/06 8:02 a -11.8 -11.8 -11.9 --- --- 13.9 E 0.23 15.7 -21.2 --- --- 729.4 0.021 0.000 8.0 5 1
02/26/06 8:03 a -11.9 -11.8 -11.9 --- --- 15.7 E 0.26 18.3 -21.7 --- --- 729.4 0.021 0.000 8.0 5 1
02/26/06 8:04 a -11.8 -11.8 -11.9 --- --- 16.5 ESE 0.28 18.3 -21.9 --- --- 729.4 0.021 0.000 8.0 5 1
02/26/06 8:05 a -11.8 -11.8 -11.9 --- --- 16.5 E 0.28 18.3 -21.9 --- --- 729.3 0.021 0.000 8.0 5 1
02/26/06 8:06 a -11.9 -11.8 -11.9 --- --- 16.5 ESE 0.28 18.3 -22.0 --- --- 729.4 0.021 0.000 8.0 5 1
02/26/06 8:07 a -11.9 -11.8 -11.9 --- --- 18.3 ESE 0.30 20.0 -22.4 --- --- 729.4 0.021 0.000 8.0 5 1
02/26/06 8:08 a -11.9 -11.8 -11.9 --- --- 18.3 E 0.30 19.1 -22.4 --- --- 729.4 0.021 0.000 8.0 5 1
02/26/06 8:09 a -11.9 -11.8 -11.9 --- --- 18.3 E 0.30 20.9 -22.4 --- --- 729.3 0.021 0.000 8.0 5 1
02/26/06 8:10 a -11.9 -11.9 -11.9 --- --- 18.3 ESE 0.30 20.0 -22.4 --- --- 729.4 0.021 0.000 8.0 5 1
02/26/06 8:11 a -11.9 -11.9 -11.9 --- --- 18.3 E 0.30 20.0 -22.4 --- --- 729.3 0.021 0.000 8.0 5 1
02/26/06 8:12 a -11.9 -11.9 -11.9 --- --- 19.1 ESE 0.32 20.9 -22.7 --- --- 729.5 0.021 0.000 8.0 5 1
02/26/06 8:13 a -11.9 -11.9 -11.9 --- --- 18.3 ESE 0.30 20.0 -22.4 --- --- 729.3 0.021 0.000 8.0 5 1
02/26/06 8:14 a -11.9 -11.9 -11.9 --- --- 19.1 ESE 0.32 20.0 -22.7 --- --- 729.3 0.021 0.000 8.0 5 1
02/26/06 8:15 a -11.9 -11.9 -11.9 --- --- 18.3 ESE 0.30 19.1 -22.4 --- --- 729.3 0.021 0.000 8.0 5 1
02/26/06 8:16 a -11.9 -11.9 -11.9 --- --- 18.3 ESE 0.30 19.1 -22.4 --- --- 729.4 0.021 0.000 8.0 5 1
02/26/06 8:17 a -11.9 -11.9 -11.9 --- --- 17.4 ESE 0.29 19.1 -22.2 --- --- 729.4 0.021 0.000 8.0 5 1
02/26/06 8:18 a -11.9 -11.9 -11.9 --- --- 17.4 SE 0.29 19.1 -22.2 --- --- 729.4 0.021 0.000 8.0 5 1
02/26/06 8:19 a -11.9 -11.9 -11.9 --- --- 15.7 ESE 0.26 18.3 -21.7 --- --- 729.4 0.021 0.000 8.0 5 1
02/26/06 8:20 a -11.9 -11.9 -11.9 --- --- 17.4 ESE 0.29 20.0 -22.3 --- --- 729.5 0.021 0.000 8.0 5 1
02/26/06 8:21 a -11.9 -11.9 -11.9 --- --- 19.1 ESE 0.32 25.2 -22.7 --- --- 729.4 0.021 0.000 8.0 5 1
02/26/06 8:22 a -11.9 -11.9 -11.9 --- --- 18.3 ESE 0.30 19.1 -22.5 --- --- 729.4 0.021 0.000 8.0 5 1
02/26/06 8:23 a -11.9 -11.9 -11.9 --- --- 20.0 ESE 0.33 21.7 -22.9 --- --- 729.3 0.021 0.000 8.0 5 1
02/26/06 8:24 a -11.9 -11.9 -12.0 --- --- 19.1 ESE 0.32 21.7 -22.7 --- --- 729.4 0.021 0.000 8.0 5 1
02/26/06 8:25 a -11.9 -11.9 -12.0 --- --- 18.3 ESE 0.30 21.7 -22.5 --- --- 729.5 0.021 0.000 8.0 5 1
02/26/06 8:26 a -11.9 -11.9 -12.0 --- --- 19.1 ESE 0.32 23.5 -22.7 --- --- 729.5 0.021 0.000 8.0 5 1
02/26/06 8:27 a -12.0 -11.9 -12.0 --- --- 20.0 ESE 0.33 21.7 -23.0 --- --- 729.5 0.021 0.000 8.0 5 1
02/26/06 8:28 a -11.9 -11.9 -12.0 --- --- 20.0 ESE 0.33 25.2 -22.9 --- --- 729.4 0.021 0.000 8.0 5 1
02/26/06 8:29 a -12.0 -11.9 -12.0 --- --- 20.9 SE 0.35 25.2 -23.2 --- --- 729.6 0.021 0.000 7.9 5 1
02/26/06 8:30 a -12.0 -12.0 -12.0 --- --- 23.5 SE 0.39 27.8 -23.7 --- --- 729.3 0.021 0.000 8.0 5 1
02/26/06 8:31 a -12.0 -12.0 -12.1 --- --- 21.7 SE 0.36 24.3 -23.4 --- --- 729.3 0.021 0.000 8.0 5 1
02/26/06 8:32 a -12.0 -11.9 -12.1 --- --- 27.8 SE 0.46 32.2 -24.6 --- --- 729.3 0.021 0.000 8.0 5 1
02/26/06 8:33 a -12.1 -12.0 -12.1 --- --- 25.2 SE 0.42 29.6 -24.2 --- --- 729.2 0.021 0.000 8.0 5 1
02/26/06 8:34 a -12.0 -12.0 -12.1 --- --- 29.6 SE 0.49 34.8 -24.8 --- --- 729.1 0.021 0.000 8.0 5 1
02/26/06 8:35 a -12.0 -12.0 -12.1 --- --- 28.7 SE 0.48 36.5 -24.7 --- --- 729.2 0.021 0.000 8.0 5 1
02/26/06 8:36 a -12.1 -12.1 -12.1 --- --- 28.7 SE 0.48 32.2 -24.8 --- --- 729.1 0.021 0.000 8.0 5 1
02/26/06 8:37 a -12.1 -12.1 -12.1 --- --- 28.7 SE 0.48 30.4 -24.8 --- --- 729.1 0.021 0.000 7.9 5 1
02/26/06 8:38 a -12.1 -12.0 -12.1 --- --- 32.2 SE 0.54 34.8 -25.3 --- --- 728.9 0.021 0.000 8.0 5 1
02/26/06 8:39 a -12.1 -12.1 -12.1 --- --- 34.8 SE 0.58 36.5 -25.7 --- --- 729.1 0.021 0.000 8.0 5 1
02/26/06 8:40 a -12.1 -12.1 -12.1 --- --- 32.2 SE 0.54 37.4 -25.3 --- --- 729.0 0.021 0.000 7.9 5 1
02/26/06 8:41 a -12.1 -12.1 -12.1 --- --- 35.7 SE 0.59 39.1 -25.8 --- --- 728.7 0.021 0.000 7.9 5 1
02/26/06 8:42 a -12.1 -12.1 -12.1 --- --- 36.5 SE 0.61 40.9 -26.1 --- --- 728.8 0.021 0.000 7.9 5 1
02/26/06 8:43 a -12.1 -12.1 -12.1 --- --- 35.7 SE 0.59 42.6 -25.9 --- --- 728.9 0.021 0.000 7.9 5 1
02/26/06 8:44 a -12.1 -12.1 -12.1 --- --- 32.2 SE 0.54 37.4 -25.4 --- --- 728.9 0.021 0.000 7.9 5 1
02/26/06 8:45 a -12.1 -12.1 -12.2 --- --- 33.9 SE 0.57 36.5 -25.7 --- --- 728.9 0.021 0.000 7.9 5 1
02/26/06 8:46 a -12.1 -12.1 -12.2 --- --- 34.8 SE 0.58 40.9 -25.8 --- --- 728.9 0.021 0.000 7.9 5 1
02/26/06 8:47 a -12.1 -12.1 -12.2 --- --- 34.8 ESE 0.58 39.1 -25.8 --- --- 729.0 0.021 0.000 7.9 5 1
02/26/06 8:48 a -12.2 -12.2 -12.2 --- --- 32.2 SE 0.54 33.9 -25.5 --- --- 729.0 0.021 0.000 7.9 5 1
02/26/06 8:49 a -12.2 -12.2 -12.2 --- --- 32.2 SE 0.54 34.8 -25.5 --- --- 729.0 0.021 0.000 7.9 5 1
02/26/06 8:50 a -12.2 -12.2 -12.2 --- --- 33.0 ESE 0.55 46.1 -25.6 --- --- 728.6 0.021 0.000 7.9 5 1
02/26/06 8:51 a -12.2 -12.2 -12.2 --- --- 33.9 SE 0.57 39.1 -25.8 --- --- 729.1 0.021 0.000 7.9 5 1
02/26/06 8:52 a -12.2 -12.2 -12.2 --- --- 28.7 SE 0.48 31.3 -24.9 --- --- 729.1 0.021 0.000 7.9 5 1
02/26/06 8:53 a -12.2 -12.2 -12.2 --- --- 27.0 SE 0.45 31.3 -24.7 --- --- 729.2 0.021 0.000 7.9 5 1
02/26/06 8:54 a -12.2 -12.2 -12.2 --- --- 31.3 ESE 0.52 36.5 -25.4 --- --- 729.0 0.021 0.000 7.9 5 1
02/26/06 8:55 a -12.2 -12.2 -12.2 --- --- 28.7 SE 0.48 32.2 -25.0 --- --- 729.1 0.021 0.000 7.9 5 1
02/26/06 8:56 a -12.3 -12.2 -12.3 --- --- 28.7 SE 0.48 34.8 -25.1 --- --- 729.2 0.021 0.000 7.9 5 1
02/26/06 8:57 a -12.3 -12.2 -12.3 --- --- 30.4 SE 0.51 36.5 -25.4 --- --- 729.2 0.021 0.000 7.9 5 1
02/26/06 8:58 a -12.3 -12.3 -12.3 --- --- 33.0 SE 0.55 39.1 -25.8 --- --- 729.0 0.021 0.000 7.9 5 1
02/26/06 8:59 a -12.3 -12.3 -12.3 --- --- 32.2 SE 0.54 36.5 -25.7 --- --- 729.2 0.021 0.000 7.9 5 1
02/26/06 9:00 a -12.3 -12.3 -12.4 --- --- 32.2 SE 0.54 35.7 -25.7 --- --- 728.9 0.021 0.000 7.9 5 1
02/26/06 9:01 a -12.3 -12.3 -12.3 --- --- 33.9 SE 0.57 35.7 -26.0 --- --- 729.0 0.021 0.000 7.9 5 1
02/26/06 9:02 a -12.3 -12.3 -12.4 --- --- 34.8 SE 0.58 37.4 -26.1 --- --- 729.0 0.021 0.000 7.9 5 1
02/26/06 9:03 a -12.3 -12.3 -12.4 --- --- 32.2 SE 0.54 34.8 -25.7 --- --- 729.1 0.021 0.000 8.0 5 1
02/26/06 9:04 a -12.4 -12.3 -12.4 --- --- 32.2 SE 0.54 33.9 -25.8 --- --- 729.0 0.021 0.000 8.0 5 1
02/26/06 9:05 a -12.4 -12.4 -12.4 --- --- 33.0 SE 0.55 34.8 -25.9 --- --- 729.0 0.021 0.000 8.0 5 1
02/26/06 9:06 a -12.4 -12.4 -12.4 --- --- 33.9 SE 0.57 39.1 -26.1 --- --- 729.1 0.021 0.000 7.9 5 1
02/26/06 9:07 a -12.4 -12.4 -12.4 --- --- 33.0 SE 0.55 36.5 -25.9 --- --- 729.1 0.021 0.000 7.9 5 1
02/26/06 9:08 a -12.4 -12.4 -12.4 --- --- 35.7 ESE 0.59 39.1 -26.4 --- --- 729.1 0.021 0.000 7.9 5 1
02/26/06 9:09 a -12.4 -12.4 -12.5 --- --- 33.0 SE 0.55 36.5 -26.0 --- --- 729.0 0.021 0.000 7.9 5 1
02/26/06 9:10 a -12.5 -12.5 -12.5 --- --- 33.9 SE 0.57 36.5 -26.2 --- --- 729.1 0.021 0.000 7.9 5 1
02/26/06 9:11 a -12.5 -12.4 -12.5 --- --- 34.8 SE 0.58 39.1 -26.3 --- --- 729.1 0.021 0.000 7.9 5 1
02/26/06 9:12 a -12.4 -12.4 -12.5 --- --- 33.9 SE 0.57 37.4 -26.2 --- --- 729.0 0.021 0.000 7.9 5 1
02/26/06 9:13 a -12.5 -12.5 -12.6 --- --- 33.9 SE 0.57 36.5 -26.2 --- --- 729.1 0.021 0.000 7.9 5 1
02/26/06 9:14 a -12.5 -12.5 -12.6 --- --- 31.3 SE 0.52 35.7 -25.8 --- --- 729.3 0.021 0.000 7.9 5 1
02/26/06 9:15 a -12.5 -12.5 -12.5 --- --- 32.2 SE 0.54 36.5 -25.9 --- --- 729.1 0.021 0.000 7.9 5 1
02/26/06 9:16 a -12.5 -12.5 -12.6 --- --- 32.2 SE 0.54 34.8 -25.9 --- --- 729.2 0.021 0.000 7.9 5 1
02/26/06 9:17 a -12.5 -12.5 -12.6 --- --- 31.3 SE 0.52 34.8 -25.8 --- --- 729.1 0.021 0.000 7.9 5 1
02/26/06 9:18 a -12.6 -12.5 -12.6 --- --- 31.3 SE 0.52 34.8 -25.9 --- --- 729.3 0.021 0.000 7.9 5 1
02/26/06 9:19 a -12.6 -12.6 -12.6 --- --- 29.6 SE 0.49 31.3 -25.6 --- --- 729.3 0.021 0.000 7.9 5 1
02/26/06 9:20 a -12.6 -12.5 -12.6 --- --- 29.6 SE 0.49 33.0 -25.6 --- --- 729.2 0.021 0.000 7.9 5 1
02/26/06 9:21 a -12.6 -12.6 -12.6 --- --- 32.2 SE 0.54 36.5 -26.1 --- --- 729.1 0.021 0.000 7.9 5 1
02/26/06 9:22 a -12.6 -12.6 -12.6 --- --- 30.4 SE 0.51 33.9 -25.8 --- --- 729.3 0.021 0.000 7.9 5 1
02/26/06 9:23 a -12.6 -12.6 -12.6 --- --- 29.6 SE 0.49 33.9 -25.6 --- --- 729.2 0.021 0.000 7.9 5 1
02/26/06 9:24 a -12.6 -12.6 -12.6 --- --- 30.4 SE 0.51 33.0 -25.8 --- --- 729.3 0.021 0.000 7.9 5 1
02/26/06 9:25 a -12.6 -12.6 -12.6 --- --- 31.3 SE 0.52 35.7 -26.0 --- --- 729.2 0.021 0.000 7.9 5 1
02/26/06 9:26 a -12.6 -12.6 -12.6 --- --- 33.0 SE 0.55 35.7 -26.2 --- --- 729.2 0.021 0.000 7.9 5 1
02/26/06 9:27 a -12.6 -12.6 -12.6 --- --- 33.9 SE 0.57 35.7 -26.4 --- --- 729.2 0.021 0.000 7.9 5 1
02/26/06 9:28 a -12.6 -12.6 -12.6 --- --- 33.9 SE 0.57 35.7 -26.4 --- --- 729.2 0.021 0.000 7.9 5 1
02/26/06 9:29 a -12.6 -12.6 -12.6 --- --- 34.8 SE 0.58 37.4 -26.5 --- --- 729.1 0.021 0.000 7.9 5 1
02/26/06 9:30 a -12.6 -12.6 -12.7 --- --- 33.0 SE 0.55 36.5 -26.2 --- --- 729.2 0.021 0.000 7.9 5 1
02/26/06 9:31 a -12.6 -12.6 -12.7 --- --- 32.2 SE 0.54 34.8 -26.1 --- --- 729.3 0.021 0.000 7.9 5 1
02/26/06 9:32 a -12.6 -12.6 -12.6 --- --- 31.3 SE 0.52 33.9 -26.0 --- --- 729.3 0.021 0.000 7.9 5 1
02/26/06 9:33 a -12.6 -12.6 -12.7 --- --- 32.2 SE 0.54 36.5 -26.1 --- --- 729.3 0.021 0.000 7.9 5 1
02/26/06 9:34 a -12.7 -12.7 -12.7 --- --- 33.0 SE 0.55 35.7 -26.3 --- --- 729.1 0.022 0.000 7.9 5 1
02/26/06 9:35 a -12.6 -12.6 -12.7 --- --- 33.0 SE 0.55 35.7 -26.2 --- --- 729.2 0.021 0.000 7.9 5 1
02/26/06 9:36 a -12.6 -12.6 -12.6 --- --- 30.4 SE 0.51 32.2 -25.8 --- --- 729.2 0.021 0.000 7.9 5 1
02/26/06 9:37 a -12.6 -12.6 -12.7 --- --- 33.0 SE 0.55 35.7 -26.2 --- --- 729.2 0.021 0.000 7.9 5 1
02/26/06 9:38 a -12.7 -12.6 -12.7 --- --- 33.0 SE 0.55 36.5 -26.3 --- --- 729.2 0.022 0.000 7.9 5 1
02/26/06 9:39 a -12.7 -12.7 -12.7 --- --- 33.9 SE 0.57 38.3 -26.4 --- --- 729.2 0.022 0.000 7.9 5 1
02/26/06 9:40 a -12.7 -12.6 -12.7 --- --- 33.9 SE 0.57 39.1 -26.4 --- --- 729.2 0.022 0.000 7.9 5 1
02/26/06 9:41 a -12.7 -12.6 -12.7 --- --- 33.0 SE 0.55 36.5 -26.3 --- --- 729.2 0.022 0.000 7.9 5 1
02/26/06 9:42 a -12.7 -12.7 -12.7 --- --- 33.0 SE 0.55 36.5 -26.3 --- --- 729.2 0.022 0.000 7.9 5 1
02/26/06 9:43 a -12.7 -12.7 -12.7 --- --- 31.3 SE 0.52 36.5 -26.1 --- --- 729.4 0.022 0.000 7.9 5 1
02/26/06 9:44 a -12.7 -12.7 -12.7 --- --- 34.8 SE 0.58 40.0 -26.6 --- --- 729.3 0.022 0.000 7.9 5 1
02/26/06 9:45 a -12.7 -12.7 -12.7 --- --- 33.9 SE 0.57 37.4 -26.4 --- --- 729.3 0.022 0.000 7.9 5 1
02/26/06 9:46 a -12.7 -12.7 -12.7 --- --- 32.2 SE 0.54 34.8 -26.3 --- --- 729.3 0.022 0.000 7.9 5 1
02/26/06 9:47 a -12.7 -12.7 -12.7 --- --- 33.0 SE 0.55 38.3 -26.4 --- --- 729.3 0.022 0.000 7.9 5 1
02/26/06 9:48 a -12.7 -12.7 -12.7 --- --- 34.8 SE 0.58 40.9 -26.7 --- --- 729.3 0.022 0.000 7.9 5 1
02/26/06 9:49 a -12.7 -12.7 -12.7 --- --- 32.2 SE 0.54 34.8 -26.3 --- --- 729.3 0.022 0.000 7.9 5 1
02/26/06 9:50 a -12.7 -12.7 -12.8 --- --- 35.7 SE 0.59 40.9 -26.8 --- --- 729.2 0.022 0.000 7.9 5 1
02/26/06 9:51 a -12.7 -12.7 -12.8 --- --- 38.3 SSE 0.64 42.6 -27.2 --- --- 729.2 0.022 0.000 7.9 5 1
02/26/06 9:52 a -12.8 -12.7 -12.8 --- --- 36.5 SE 0.61 38.3 -27.0 --- --- 729.2 0.022 0.000 7.9 5 1
02/26/06 9:53 a -12.8 -12.7 -12.8 --- --- 35.7 SE 0.59 37.4 -26.9 --- --- 729.3 0.022 0.000 7.9 5 1
02/26/06 9:54 a -12.8 -12.7 -12.8 --- --- 33.9 SE 0.57 36.5 -26.6 --- --- 729.2 0.022 0.000 7.9 5 1
02/26/06 9:55 a -12.8 -12.7 -12.8 --- --- 33.9 SE 0.57 35.7 -26.6 --- --- 729.2 0.022 0.000 7.9 5 1
02/26/06 9:56 a -12.8 -12.8 -12.8 --- --- 34.8 SE 0.58 39.1 -26.7 --- --- 729.3 0.022 0.000 7.9 5 1
02/26/06 9:57 a -12.8 -12.7 -12.8 --- --- 33.0 SE 0.55 37.4 -26.5 --- --- 729.3 0.022 0.000 7.9 5 1
02/26/06 9:58 a -12.7 -12.7 -12.8 --- --- 33.9 SE 0.57 38.3 -26.6 --- --- 729.3 0.022 0.000 7.9 5 1
02/26/06 9:59 a -12.8 -12.8 -12.8 --- --- 35.7 SE 0.59 39.1 -26.9 --- --- 729.3 0.022 0.000 7.9 5 1
02/26/06 10:00 a -12.8 -12.8 -12.8 --- --- 33.9 SE 0.57 36.5 -26.6 --- --- 729.2 0.022 0.000 7.9 5 1
02/26/06 10:01 a -12.8 -12.8 -12.8 --- --- 33.9 SE 0.57 38.3 -26.6 --- --- 729.2 0.022 0.000 7.9 5 1
02/26/06 10:02 a -12.8 -12.7 -12.8 --- --- 31.3 SE 0.52 34.8 -26.2 --- --- 729.4 0.022 0.000 7.9 5 1
02/26/06 10:03 a -12.8 -12.7 -12.8 --- --- 34.8 SE 0.58 36.5 -26.7 --- --- 729.4 0.022 0.000 7.9 5 1
02/26/06 10:04 a -12.7 -12.7 -12.8 --- --- 35.7 SE 0.59 40.9 -26.8 --- --- 729.4 0.022 0.000 7.9 5 1
02/26/06 10:05 a -12.7 -12.7 -12.8 --- --- 32.2 SE 0.54 33.0 -26.3 --- --- 729.5 0.022 0.000 7.9 5 1
02/26/06 10:06 a -12.8 -12.7 -12.8 --- --- 33.0 SE 0.55 37.4 -26.5 --- --- 729.5 0.022 0.000 7.9 5 1
02/26/06 10:07 a -12.7 -12.7 -12.8 --- --- 33.9 SE 0.57 36.5 -26.6 --- --- 729.4 0.022 0.000 7.9 5 1
02/26/06 10:08 a -12.8 -12.7 -12.8 --- --- 33.9 SE 0.57 39.1 -26.6 --- --- 729.4 0.022 0.000 7.9 5 1
02/26/06 10:09 a -12.8 -12.7 -12.8 --- --- 32.2 SE 0.54 34.8 -26.3 --- --- 729.4 0.022 0.000 7.9 5 1
02/26/06 10:10 a -12.8 -12.7 -12.8 --- --- 32.2 SE 0.54 34.8 -26.3 --- --- 729.4 0.022 0.000 7.9 5 1
02/26/06 10:11 a -12.7 -12.7 -12.8 --- --- 33.9 SE 0.57 35.7 -26.6 --- --- 729.3 0.022 0.000 7.9 5 1
02/26/06 10:12 a -12.8 -12.7 -12.8 --- --- 33.0 SE 0.55 38.3 -26.5 --- --- 729.4 0.022 0.000 7.9 5 1
02/26/06 10:13 a -12.8 -12.7 -12.8 --- --- 32.2 SE 0.54 34.8 -26.3 --- --- 729.4 0.022 0.000 7.9 5 1
02/26/06 10:14 a -12.8 -12.8 -12.8 --- --- 34.8 SE 0.58 38.3 -26.7 --- --- 729.3 0.022 0.000 7.8 5 1
02/26/06 10:15 a -12.8 -12.7 -12.8 --- --- 34.8 SE 0.58 37.4 -26.7 --- --- 729.3 0.022 0.000 7.8 5 1
02/26/06 10:16 a -12.7 -12.7 -12.8 --- --- 33.9 SE 0.57 35.7 -26.6 --- --- 729.3 0.022 0.000 7.9 5 1
02/26/06 10:17 a -12.8 -12.8 -12.8 --- --- 34.8 SE 0.58 38.3 -26.7 --- --- 729.3 0.022 0.000 7.8 5 1
02/26/06 10:18 a -12.7 -12.7 -12.8 --- --- 34.8 SE 0.58 39.1 -26.7 --- --- 729.5 0.022 0.000 7.8 5 1
02/26/06 10:19 a -12.8 -12.7 -12.8 --- --- 34.8 SE 0.58 38.3 -26.7 --- --- 729.4 0.022 0.000 7.8 5 1
02/26/06 10:20 a -12.8 -12.7 -12.8 --- --- 33.0 SE 0.55 36.5 -26.5 --- --- 729.6 0.022 0.000 7.8 5 1
02/26/06 10:21 a -12.8 -12.7 -12.8 --- --- 29.6 SE 0.49 33.9 -25.9 --- --- 729.7 0.022 0.000 7.8 5 1
02/26/06 10:22 a -12.8 -12.7 -12.8 --- --- 32.2 SE 0.54 34.8 -26.3 --- --- 729.6 0.022 0.000 7.8 5 1
02/26/06 10:23 a -12.8 -12.8 -12.8 --- --- 32.2 SE 0.54 35.7 -26.3 --- --- 729.6 0.022 0.000 7.8 5 1
02/26/06 10:24 a -12.8 -12.8 -12.8 --- --- 31.3 SE 0.52 33.9 -26.2 --- --- 729.6 0.022 0.000 7.8 5 1
02/26/06 10:25 a -12.8 -12.8 -12.8 --- --- 30.4 SE 0.51 33.0 -26.1 --- --- 729.6 0.022 0.000 7.8 5 1
02/26/06 10:26 a -12.8 -12.8 -12.8 --- --- 29.6 SE 0.49 34.8 -25.9 --- --- 729.7 0.022 0.000 7.8 5 1
02/26/06 10:27 a -12.8 -12.7 -12.8 --- --- 33.0 SE 0.55 38.3 -26.5 --- --- 729.6 0.022 0.000 7.8 5 1
02/26/06 10:28 a -12.8 -12.8 -12.8 --- --- 31.3 SE 0.52 33.9 -26.3 --- --- 729.7 0.022 0.000 7.8 5 1
02/26/06 10:29 a -12.8 -12.7 -12.8 --- --- 33.0 SE 0.55 35.7 -26.5 --- --- 729.5 0.022 0.000 7.8 5 1
02/26/06 10:30 a -12.8 -12.8 -12.8 --- --- 33.9 SE 0.57 37.4 -26.6 --- --- 729.5 0.022 0.000 7.8 5 1
02/26/06 10:31 a -12.8 -12.8 -12.8 --- --- 33.0 SE 0.55 37.4 -26.5 --- --- 729.5 0.022 0.000 7.8 5 1
02/26/06 10:32 a -12.8 -12.8 -12.8 --- --- 33.0 SE 0.55 35.7 -26.5 --- --- 729.7 0.022 0.000 7.8 5 1
02/26/06 10:33 a -12.8 -12.8 -12.8 --- --- 37.4 SE 0.62 40.9 -27.1 --- --- 729.4 0.022 0.000 7.9 5 1
02/26/06 10:34 a -12.8 -12.8 -12.8 --- --- 37.4 SE 0.62 40.9 -27.2 --- --- 729.3 0.022 0.000 7.9 5 1
02/26/06 10:35 a -12.8 -12.8 -12.8 --- --- 35.7 SE 0.59 38.3 -26.9 --- --- 729.4 0.022 0.000 7.8 5 1
02/26/06 10:36 a -12.8 -12.8 -12.8 --- --- 34.8 SE 0.58 37.4 -26.7 --- --- 729.4 0.022 0.000 7.9 5 1
02/26/06 10:37 a -12.8 -12.8 -12.8 --- --- 32.2 SE 0.54 36.5 -26.4 --- --- 729.4 0.022 0.000 7.9 5 1
02/26/06 10:38 a -12.8 -12.8 -12.8 --- --- 32.2 SE 0.54 36.5 -26.4 --- --- 729.4 0.022 0.000 7.9 5 1
02/26/06 10:39 a -12.8 -12.8 -12.8 --- --- 33.0 SE 0.55 35.7 -26.6 --- --- 729.5 0.022 0.000 7.9 5 1
02/26/06 10:40 a -12.8 -12.8 -12.9 --- --- 33.9 SE 0.57 36.5 -26.7 --- --- 729.4 0.022 0.000 7.9 5 1
02/26/06 10:41 a -12.8 -12.8 -12.8 --- --- 33.0 SE 0.55 35.7 -26.6 --- --- 729.5 0.022 0.000 7.9 5 1
02/26/06 10:42 a -12.8 -12.8 -12.8 --- --- 34.8 SE 0.58 38.3 -26.8 --- --- 729.4 0.022 0.000 7.9 5 1
02/26/06 10:43 a -12.8 -12.8 -12.8 --- --- 33.0 SE 0.55 38.3 -26.6 --- --- 729.3 0.022 0.000 7.9 5 1
02/26/06 10:44 a -12.9 -12.9 -12.9 --- --- 34.8 SE 0.58 38.3 -26.9 --- --- 729.4 0.022 0.000 7.9 5 1
02/26/06 10:45 a -12.9 -12.8 -12.9 --- --- 31.3 SE 0.52 34.8 -26.3 --- --- 729.6 0.022 0.000 7.9 5 1
02/26/06 10:46 a -12.9 -12.8 -12.9 --- --- 34.8 SE 0.58 38.3 -26.9 --- --- 729.3 0.022 0.000 7.9 5 1
02/26/06 10:47 a -12.8 -12.8 -12.9 --- --- 30.4 SE 0.51 35.7 -26.2 --- --- 729.5 0.022 0.000 7.9 5 1
02/26/06 10:48 a -12.8 -12.8 -12.8 --- --- 32.2 SE 0.54 36.5 -26.4 --- --- 729.5 0.022 0.000 7.9 5 1
02/26/06 10:49 a -12.9 -12.9 -12.9 --- --- 33.0 SE 0.55 38.3 -26.6 --- --- 729.5 0.022 0.000 7.9 5 1
02/26/06 10:50 a -12.9 -12.9 -12.9 --- --- 33.9 SE 0.57 38.3 -26.8 --- --- 729.4 0.022 0.000 7.9 5 1
02/26/06 10:51 a -12.9 -12.8 -12.9 --- --- 34.8 SE 0.58 40.9 -26.9 --- --- 729.4 0.022 0.000 7.8 5 1
02/26/06 10:52 a -12.9 -12.8 -12.9 --- --- 33.0 SE 0.55 35.7 -26.6 --- --- 729.7 0.022 0.000 7.8 5 1
02/26/06 10:53 a -12.8 -12.8 -12.8 --- --- 31.3 SE 0.52 34.8 -26.3 --- --- 729.7 0.022 0.000 7.9 5 1
02/26/06 10:54 a -12.9 -12.8 -12.9 --- --- 32.2 SE 0.54 35.7 -26.5 --- --- 729.7 0.022 0.000 7.8 5 1
02/26/06 10:55 a -12.9 -12.9 -12.9 --- --- 32.2 SE 0.54 35.7 -26.5 --- --- 729.7 0.022 0.000 7.8 5 1
02/26/06 10:56 a -12.9 -12.9 -12.9 --- --- 29.6 SE 0.49 32.2 -26.1 --- --- 729.7 0.022 0.000 7.8 5 1
02/26/06 10:57 a -12.9 -12.8 -12.9 --- --- 29.6 SSE 0.49 33.9 -26.1 --- --- 729.7 0.022 0.000 7.8 5 1
02/26/06 10:58 a -12.8 -12.8 -12.9 --- --- 31.3 SE 0.52 34.8 -26.3 --- --- 729.6 0.022 0.000 7.8 5 1
02/26/06 10:59 a -12.8 -12.8 -12.8 --- --- 29.6 SE 0.49 33.9 -26.0 --- --- 729.7 0.022 0.000 7.8 5 1
02/26/06 11:00 a -12.9 -12.8 -12.9 --- --- 29.6 SE 0.49 32.2 -26.1 --- --- 729.7 0.022 0.000 7.8 5 1
02/26/06 11:01 a -12.9 -12.8 -12.9 --- --- 29.6 SE 0.49 32.2 -26.1 --- --- 729.8 0.022 0.000 7.8 5 1
02/26/06 11:02 a -12.8 -12.8 -12.8 --- --- 31.3 SE 0.52 33.9 -26.3 --- --- 729.6 0.022 0.000 7.8 5 1
02/26/06 11:03 a -12.8 -12.8 -12.9 --- --- 33.9 SE 0.57 39.1 -26.7 --- --- 729.6 0.022 0.000 7.8 5 1
02/26/06 11:04 a -12.9 -12.8 -12.9 --- --- 34.8 SE 0.58 38.3 -26.9 --- --- 729.6 0.022 0.000 7.8 5 1
02/26/06 11:05 a -12.9 -12.8 -12.9 --- --- 33.0 SE 0.55 35.7 -26.6 --- --- 729.5 0.022 0.000 7.8 5 1
02/26/06 11:06 a -12.9 -12.9 -12.9 --- --- 35.7 SSE 0.59 39.1 -27.0 --- --- 729.5 0.022 0.000 7.8 5 1
02/26/06 11:07 a -12.9 -12.8 -12.9 --- --- 35.7 SSE 0.59 38.3 -27.0 --- --- 729.6 0.022 0.000 7.8 5 1
02/26/06 11:08 a -12.8 -12.8 -12.9 --- --- 33.0 SE 0.55 34.8 -26.6 --- --- 729.7 0.022 0.000 7.8 5 1
02/26/06 11:09 a -12.8 -12.8 -12.8 --- --- 32.2 SE 0.54 38.3 -26.4 --- --- 729.6 0.022 0.000 7.8 5 1
02/26/06 11:10 a -12.8 -12.8 -12.9 --- --- 33.0 SE 0.55 38.3 -26.6 --- --- 729.6 0.022 0.000 7.8 5 1
02/26/06 11:11 a -12.8 -12.8 -12.8 --- --- 33.9 SE 0.57 37.4 -26.7 --- --- 729.6 0.022 0.000 7.8 5 1
02/26/06 11:12 a -12.8 -12.8 -12.8 --- --- 33.9 SSE 0.57 36.5 -26.7 --- --- 729.8 0.022 0.000 7.8 5 1
02/26/06 11:13 a -12.8 -12.8 -12.9 --- --- 33.9 SSE 0.57 40.9 -26.7 --- --- 729.6 0.022 0.000 7.8 5 1
02/26/06 11:14 a -12.8 -12.8 -12.8 --- --- 38.3 SSE 0.64 44.3 -27.3 --- --- 729.6 0.022 0.000 7.8 5 1
02/26/06 11:15 a -12.8 -12.8 -12.8 --- --- 37.4 SSE 0.62 41.7 -27.2 --- --- 729.7 0.022 0.000 7.8 5 1
02/26/06 11:16 a -12.8 -12.8 -12.8 --- --- 38.3 SSE 0.64 42.6 -27.3 --- --- 729.6 0.022 0.000 7.8 5 1
02/26/06 11:17 a -12.8 -12.8 -12.8 --- --- 33.9 SE 0.57 37.4 -26.7 --- --- 729.7 0.022 0.000 7.8 5 1
02/26/06 11:18 a -12.8 -12.8 -12.8 --- --- 31.3 SSE 0.52 33.9 -26.3 --- --- 730.0 0.022 0.000 7.8 5 1
02/26/06 11:19 a -12.8 -12.8 -12.8 --- --- 32.2 SE 0.54 35.7 -26.3 --- --- 729.7 0.022 0.000 7.8 5 1
02/26/06 11:20 a -12.8 -12.8 -12.8 --- --- 33.9 SSE 0.57 39.1 -26.6 --- --- 729.7 0.022 0.000 7.8 5 1
02/26/06 11:21 a -12.8 -12.8 -12.8 --- --- 35.7 SE 0.59 40.0 -26.9 --- --- 729.8 0.022 0.000 7.8 5 1
02/26/06 11:22 a -12.8 -12.8 -12.8 --- --- 34.8 SE 0.58 39.1 -26.8 --- --- 729.8 0.022 0.000 7.8 5 1
02/26/06 11:23 a -12.8 -12.8 -12.8 --- --- 31.3 SE 0.52 34.8 -26.2 --- --- 729.8 0.022 0.000 7.8 5 1
02/26/06 11:24 a -12.8 -12.8 -12.8 --- --- 34.8 SE 0.58 37.4 -26.8 --- --- 729.8 0.022 0.000 7.8 5 1
02/26/06 11:25 a -12.8 -12.8 -12.8 --- --- 31.3 SE 0.52 35.7 -26.2 --- --- 729.8 0.022 0.000 7.8 5 1
02/26/06 11:26 a -12.8 -12.8 -12.8 --- --- 29.6 SSE 0.49 34.8 -25.9 --- --- 729.9 0.022 0.000 7.8 5 1
02/26/06 11:27 a -12.8 -12.8 -12.8 --- --- 33.9 SSE 0.57 37.4 -26.6 --- --- 729.8 0.022 0.000 7.8 5 1
02/26/06 11:28 a -12.8 -12.8 -12.8 --- --- 33.0 SE 0.55 35.7 -26.6 --- --- 729.9 0.022 0.000 7.8 5 1
02/26/06 11:29 a -12.8 -12.8 -12.8 --- --- 33.0 SE 0.55 37.4 -26.5 --- --- 729.9 0.022 0.000 7.8 5 1
02/26/06 11:30 a -12.8 -12.8 -12.8 --- --- 30.4 SE 0.51 33.0 -26.1 --- --- 730.0 0.022 0.000 7.8 5 1
02/26/06 11:31 a -12.8 -12.8 -12.8 --- --- 32.2 SE 0.54 35.7 -26.3 --- --- 730.0 0.022 0.000 7.9 5 1
02/26/06 11:32 a -12.8 -12.8 -12.8 --- --- 30.4 SE 0.51 34.8 -26.2 --- --- 730.0 0.022 0.000 7.9 5 1
02/26/06 11:33 a -12.8 -12.8 -12.8 --- --- 33.9 SSE 0.57 36.5 -26.7 --- --- 729.8 0.022 0.000 7.9 5 1
02/26/06 11:34 a -12.8 -12.8 -12.8 --- --- 32.2 SSE 0.54 33.9 -26.4 --- --- 729.9 0.022 0.000 7.8 5 1
02/26/06 11:35 a -12.8 -12.8 -12.8 --- --- 33.9 SSE 0.57 36.5 -26.7 --- --- 729.9 0.022 0.000 7.8 5 1
02/26/06 11:36 a -12.8 -12.8 -12.8 --- --- 33.9 SE 0.57 36.5 -26.7 --- --- 729.8 0.022 0.000 7.9 5 1
02/26/06 11:37 a -12.8 -12.8 -12.8 --- --- 31.3 SE 0.52 35.7 -26.3 --- --- 730.0 0.022 0.000 7.9 5 1
02/26/06 11:38 a -12.8 -12.8 -12.8 --- --- 33.9 SSE 0.57 39.1 -26.7 --- --- 729.8 0.022 0.000 7.9 5 1
02/26/06 11:39 a -12.8 -12.8 -12.8 --- --- 32.2 SE 0.54 33.9 -26.4 --- --- 729.9 0.022 0.000 7.9 5 1
02/26/06 11:40 a -12.8 -12.8 -12.9 --- --- 32.2 SSE 0.54 36.5 -26.4 --- --- 729.9 0.022 0.000 7.9 5 1
02/26/06 11:41 a -12.9 -12.8 -12.9 --- --- 32.2 SE 0.54 35.7 -26.5 --- --- 729.9 0.022 0.000 7.8 5 1
02/26/06 11:42 a -12.9 -12.9 -12.9 --- --- 30.4 SE 0.51 33.0 -26.2 --- --- 730.0 0.022 0.000 7.8 5 1
02/26/06 11:43 a -12.9 -12.8 -12.9 --- --- 31.3 SE 0.52 35.7 -26.3 --- --- 729.8 0.022 0.000 7.9 5 1
02/26/06 11:44 a -12.8 -12.8 -12.9 --- --- 32.2 SE 0.54 33.9 -26.4 --- --- 729.9 0.022 0.000 7.8 5 1
02/26/06 11:45 a -12.9 -12.8 -12.9 --- --- 31.3 SE 0.52 34.8 -26.3 --- --- 729.8 0.022 0.000 7.8 5 1
02/26/06 11:46 a -12.9 -12.9 -12.9 --- --- 31.3 SE 0.52 34.8 -26.3 --- --- 729.9 0.022 0.000 7.8 5 1
02/26/06 11:47 a -12.9 -12.9 -12.9 --- --- 32.2 SE 0.54 34.8 -26.5 --- --- 729.9 0.022 0.000 7.8 5 1
02/26/06 11:48 a -12.9 -12.8 -12.9 --- --- 32.2 SE 0.54 35.7 -26.5 --- --- 729.8 0.022 0.000 7.8 5 1
02/26/06 11:49 a -12.9 -12.9 -12.9 --- --- 30.4 SE 0.51 33.9 -26.2 --- --- 729.9 0.022 0.000 7.8 5 1
02/26/06 11:50 a -12.9 -12.9 -12.9 --- --- 29.6 SE 0.49 31.3 -26.1 --- --- 730.0 0.022 0.000 7.8 5 1
02/26/06 11:51 a -12.9 -12.9 -12.9 --- --- 31.3 SE 0.52 35.7 -26.3 --- --- 729.9 0.022 0.000 7.8 5 1
02/26/06 11:52 a -12.9 -12.9 -12.9 --- --- 31.3 SE 0.52 34.8 -26.4 --- --- 730.0 0.022 0.000 7.8 5 1
02/26/06 11:53 a -12.9 -12.9 -12.9 --- --- 30.4 SE 0.51 33.0 -26.2 --- --- 729.9 0.022 0.000 7.8 5 1
02/26/06 11:54 a -12.9 -12.9 -12.9 --- --- 32.2 SE 0.54 36.5 -26.5 --- --- 729.8 0.022 0.000 7.8 5 1
02/26/06 11:55 a -12.9 -12.9 -12.9 --- --- 33.0 SE 0.55 36.5 -26.6 --- --- 729.8 0.022 0.000 7.8 5 1
02/26/06 11:56 a -12.9 -12.9 -13.0 --- --- 33.0 SSE 0.55 37.4 -26.7 --- --- 730.0 0.022 0.000 7.8 5 1
02/26/06 11:57 a -12.9 -12.9 -13.0 --- --- 28.7 SSE 0.48 30.4 -26.0 --- --- 729.9 0.022 0.000 7.8 5 1
02/26/06 11:58 a -13.0 -12.9 -13.0 --- --- 29.6 SE 0.49 34.8 -26.2 --- --- 729.9 0.022 0.000 7.8 5 1
02/26/06 11:59 a -13.0 -12.9 -13.0 --- --- 30.4 SSE 0.51 34.8 -26.4 --- --- 729.9 0.022 0.000 7.8 5 1
02/26/06 12:00 p -12.9 -12.9 -13.0 --- --- 31.3 SE 0.52 35.7 -26.4 --- --- 729.9 0.022 0.000 7.8 5 1
02/26/06 12:01 p -13.0 -12.9 -13.0 --- --- 30.4 SSE 0.51 33.9 -26.4 --- --- 730.1 0.022 0.000 7.8 5 1
02/26/06 12:02 p -13.0 -12.9 -13.0 --- --- 30.4 SE 0.51 34.8 -26.4 --- --- 730.0 0.022 0.000 7.8 5 1
02/26/06 12:03 p -13.0 -12.9 -13.0 --- --- 31.3 SE 0.52 34.8 -26.5 --- --- 729.9 0.022 0.000 7.8 5 1
02/26/06 12:04 p -12.9 -12.9 -13.0 --- --- 31.3 SE 0.52 34.8 -26.4 --- --- 730.0 0.022 0.000 7.8 5 1
02/26/06 12:05 p -12.9 -12.9 -13.0 --- --- 30.4 SE 0.51 33.9 -26.3 --- --- 730.1 0.022 0.000 7.8 5 1
02/26/06 12:06 p -12.9 -12.9 -13.0 --- --- 30.4 SSE 0.51 33.9 -26.3 --- --- 730.0 0.022 0.000 7.8 5 1
02/26/06 12:07 p -13.0 -13.0 -13.0 --- --- 31.3 SE 0.52 36.5 -26.5 --- --- 729.9 0.022 0.000 7.8 5 1
02/26/06 12:08 p -12.9 -12.9 -13.0 --- --- 30.4 SE 0.51 32.2 -26.3 --- --- 729.9 0.022 0.000 7.8 5 1
02/26/06 12:09 p -12.9 -12.9 -13.0 --- --- 29.6 SE 0.49 33.0 -26.2 --- --- 730.1 0.022 0.000 7.8 5 1
02/26/06 12:10 p -13.0 -13.0 -13.1 --- --- 29.6 SE 0.49 31.3 -26.2 --- --- 730.0 0.022 0.000 7.8 5 1
02/26/06 12:11 p -13.0 -12.9 -13.1 --- --- 30.4 SE 0.51 34.8 -26.4 --- --- 730.1 0.022 0.000 7.8 5 1
02/26/06 12:12 p -13.0 -13.0 -13.1 --- --- 31.3 SE 0.52 34.8 -26.5 --- --- 729.9 0.022 0.000 7.8 5 1
02/26/06 12:13 p -13.0 -13.0 -13.1 --- --- 31.3 SE 0.52 34.8 -26.5 --- --- 730.1 0.022 0.000 7.8 5 1
02/26/06 12:14 p -12.9 -12.9 -13.0 --- --- 30.4 SE 0.51 33.9 -26.3 --- --- 730.0 0.022 0.000 7.8 5 1
02/26/06 12:15 p -13.0 -12.9 -13.1 --- --- 30.4 SE 0.51 32.2 -26.4 --- --- 730.0 0.022 0.000 7.8 5 1
02/26/06 12:16 p -13.1 -13.0 -13.1 --- --- 30.4 SE 0.51 32.2 -26.4 --- --- 730.1 0.022 0.000 7.8 5 1
02/26/06 12:17 p -13.0 -12.9 -13.1 --- --- 31.3 SE 0.52 33.9 -26.5 --- --- 730.0 0.022 0.000 7.8 5 1
02/26/06 12:18 p -13.0 -12.9 -13.0 --- --- 28.7 SE 0.48 33.0 -26.1 --- --- 730.1 0.022 0.000 7.8 5 1
02/26/06 12:19 p -13.0 -12.9 -13.1 --- --- 31.3 SE 0.52 35.7 -26.5 --- --- 730.0 0.022 0.000 7.8 5 1
02/26/06 12:20 p -13.1 -13.0 -13.1 --- --- 32.2 SE 0.54 33.9 -26.7 --- --- 730.0 0.022 0.000 7.8 5 1
02/26/06 12:21 p -13.0 -12.9 -13.1 --- --- 29.6 SE 0.49 32.2 -26.2 --- --- 730.1 0.022 0.000 7.8 5 1
02/26/06 12:22 p -13.0 -13.0 -13.1 --- --- 30.4 SE 0.51 33.9 -26.4 --- --- 730.0 0.022 0.000 7.8 5 1
02/26/06 12:23 p -13.1 -13.0 -13.1 --- --- 32.2 SE 0.54 35.7 -26.7 --- --- 730.0 0.022 0.000 7.8 5 1
02/26/06 12:24 p -13.0 -13.0 -13.1 --- --- 30.4 SE 0.51 33.9 -26.4 --- --- 730.1 0.022 0.000 7.8 5 1
02/26/06 12:25 p -13.0 -12.9 -13.1 --- --- 29.6 SE 0.49 32.2 -26.2 --- --- 730.1 0.022 0.000 7.8 5 1
02/26/06 12:26 p -13.0 -12.9 -13.1 --- --- 30.4 SE 0.51 33.9 -26.4 --- --- 730.0 0.022 0.000 7.8 5 1
02/26/06 12:27 p -12.9 -12.9 -13.0 --- --- 31.3 SE 0.52 34.8 -26.4 --- --- 730.2 0.022 0.000 7.9 5 1
02/26/06 12:28 p -12.9 -12.9 -13.0 --- --- 30.4 SE 0.51 33.0 -26.3 --- --- 730.2 0.022 0.000 7.8 5 1
02/26/06 12:29 p -12.9 -12.9 -13.0 --- --- 30.4 SE 0.51 33.9 -26.3 --- --- 730.2 0.022 0.000 7.8 5 1
02/26/06 12:30 p -13.0 -13.0 -13.0 --- --- 29.6 SE 0.49 31.3 -26.2 --- --- 730.1 0.022 0.000 7.8 5 1
02/26/06 12:31 p -13.0 -13.0 -13.0 --- --- 29.6 SE 0.49 32.2 -26.2 --- --- 730.3 0.022 0.000 7.8 5 1
02/26/06 12:32 p -13.0 -13.0 -13.0 --- --- 29.6 SE 0.49 31.3 -26.2 --- --- 730.2 0.022 0.000 7.8 5 1
02/26/06 12:33 p -12.9 -12.9 -12.9 --- --- 29.6 SE 0.49 33.0 -26.2 --- --- 730.1 0.022 0.000 7.8 5 1
02/26/06 12:34 p -13.0 -12.9 -13.0 --- --- 31.3 SE 0.52 34.8 -26.5 --- --- 730.1 0.022 0.000 7.8 5 1
02/26/06 12:35 p -12.9 -12.9 -13.0 --- --- 31.3 SE 0.52 35.7 -26.4 --- --- 730.1 0.022 0.000 7.8 5 1
02/26/06 12:36 p -13.0 -12.9 -13.1 --- --- 31.3 SE 0.52 35.7 -26.5 --- --- 730.1 0.022 0.000 7.8 5 1
02/26/06 12:37 p -13.0 -12.9 -13.1 --- --- 31.3 SE 0.52 33.9 -26.5 --- --- 730.1 0.022 0.000 7.8 5 1
02/26/06 12:38 p -13.0 -13.0 -13.0 --- --- 31.3 SE 0.52 33.9 -26.5 --- --- 730.3 0.022 0.000 7.8 5 1
02/26/06 12:39 p -13.0 -13.0 -13.1 --- --- 29.6 SE 0.49 32.2 -26.2 --- --- 730.3 0.022 0.000 7.8 5 1
02/26/06 12:40 p -13.0 -12.9 -13.1 --- --- 28.7 SE 0.48 32.2 -26.1 --- --- 730.3 0.022 0.000 7.8 5 1
02/26/06 12:41 p -13.0 -12.9 -13.0 --- --- 28.7 SE 0.48 32.2 -26.1 --- --- 730.4 0.022 0.000 7.8 5 1
02/26/06 12:42 p -13.0 -13.0 -13.1 --- --- 28.7 SE 0.48 32.2 -26.1 --- --- 730.3 0.022 0.000 7.8 5 1
02/26/06 12:43 p -13.0 -13.0 -13.0 --- --- 30.4 SE 0.51 33.9 -26.4 --- --- 730.3 0.022 0.000 7.8 5 1
02/26/06 12:44 p -13.0 -12.9 -13.1 --- --- 28.7 SE 0.48 32.2 -26.1 --- --- 730.3 0.022 0.000 7.8 5 1
02/26/06 12:45 p -13.0 -13.0 -13.1 --- --- 29.6 SE 0.49 31.3 -26.2 --- --- 730.1 0.022 0.000 7.8 5 1
02/26/06 12:46 p -13.1 -13.0 -13.1 --- --- 29.6 SE 0.49 32.2 -26.3 --- --- 730.3 0.022 0.000 7.8 5 1
02/26/06 12:47 p -13.1 -13.0 -13.1 --- --- 27.0 SE 0.45 28.7 -25.8 --- --- 730.4 0.022 0.000 7.8 5 1
02/26/06 12:48 p -13.1 -13.0 -13.1 --- --- 28.7 SE 0.48 31.3 -26.2 --- --- 730.1 0.022 0.000 7.8 5 1
02/26/06 12:49 p -13.0 -13.0 -13.1 --- --- 27.8 SE 0.46 30.4 -25.9 --- --- 730.3 0.022 0.000 7.8 5 1
02/26/06 12:50 p -13.1 -13.0 -13.1 --- --- 27.8 SE 0.46 30.4 -26.0 --- --- 730.2 0.022 0.000 7.8 5 1
02/26/06 12:51 p -13.1 -13.0 -13.1 --- --- 27.8 SE 0.46 32.2 -26.0 --- --- 730.3 0.022 0.000 7.8 5 1
02/26/06 12:52 p -13.0 -13.0 -13.1 --- --- 27.0 SE 0.45 31.3 -25.8 --- --- 730.3 0.022 0.000 7.8 5 1
02/26/06 12:53 p -13.0 -13.0 -13.1 --- --- 27.8 SE 0.46 31.3 -25.9 --- --- 730.4 0.022 0.000 7.8 5 1
02/26/06 12:54 p -13.1 -13.1 -13.1 --- --- 27.8 SSE 0.46 33.0 -26.0 --- --- 730.5 0.022 0.000 7.8 5 1
02/26/06 12:55 p -13.1 -13.1 -13.1 --- --- 28.7 SSE 0.48 31.3 -26.2 --- --- 730.4 0.022 0.000 7.8 5 1
02/26/06 12:56 p -13.0 -13.0 -13.1 --- --- 27.8 SSE 0.46 31.3 -25.9 --- --- 730.5 0.022 0.000 7.8 5 1
02/26/06 12:57 p -13.1 -13.1 -13.1 --- --- 27.0 SSE 0.45 29.6 -25.8 --- --- 730.5 0.022 0.000 7.8 5 1
02/26/06 12:58 p -13.0 -13.0 -13.1 --- --- 27.8 SE 0.46 30.4 -25.9 --- --- 730.5 0.022 0.000 7.8 5 1
02/26/06 12:59 p -13.1 -13.0 -13.1 --- --- 27.8 SE 0.46 31.3 -26.0 --- --- 730.4 0.022 0.000 7.8 5 1
02/26/06 1:00 p -13.1 -13.1 -13.1 --- --- 27.0 SE 0.45 29.6 -25.8 --- --- 730.4 0.022 0.000 7.8 5 1
02/26/06 1:01 p -13.1 -13.1 -13.1 --- --- 27.0 SE 0.45 33.0 -25.8 --- --- 730.5 0.022 0.000 7.8 5 1
02/26/06 1:02 p -13.1 -13.0 -13.1 --- --- 27.0 SE 0.45 30.4 -25.8 --- --- 730.5 0.022 0.000 7.8 5 1
02/26/06 1:03 p -13.1 -13.1 -13.1 --- --- 24.3 SSE 0.41 27.0 -25.3 --- --- 730.6 0.022 0.000 7.8 5 1
02/26/06 1:04 p -13.1 -13.1 -13.1 --- --- 24.3 SSE 0.41 26.1 -25.3 --- --- 730.6 0.022 0.000 7.8 5 1
02/26/06 1:05 p -13.1 -13.1 -13.1 --- --- 26.1 SSE 0.43 31.3 -25.7 --- --- 730.5 0.022 0.000 7.8 5 1
02/26/06 1:06 p -13.1 -13.1 -13.1 --- --- 25.2 SSE 0.42 27.8 -25.5 --- --- 730.6 0.022 0.000 7.8 5 1
02/26/06 1:07 p -13.0 -12.9 -13.1 --- --- 26.1 SSE 0.43 28.7 -25.6 --- --- 730.6 0.022 0.000 7.8 5 1
02/26/06 1:08 p -13.0 -13.0 -13.1 --- --- 25.2 SSE 0.42 29.6 -25.4 --- --- 730.6 0.022 0.000 7.8 5 1
02/26/06 1:09 p -13.1 -13.0 -13.1 --- --- 24.3 SSE 0.41 27.0 -25.3 --- --- 730.5 0.022 0.000 7.8 5 1
02/26/06 1:10 p -13.1 -13.0 -13.1 --- --- 25.2 SSE 0.42 28.7 -25.5 --- --- 730.5 0.022 0.000 7.8 5 1
02/26/06 1:11 p -12.9 -12.9 -13.0 --- --- 25.2 SSE 0.42 27.8 -25.4 --- --- 730.5 0.022 0.000 7.8 5 1
02/26/06 1:12 p -12.9 -12.9 -13.0 --- --- 26.1 SSE 0.43 28.7 -25.5 --- --- 730.5 0.022 0.000 7.9 5 1
02/26/06 1:13 p -13.0 -12.9 -13.0 --- --- 29.6 SSE 0.49 32.2 -26.2 --- --- 730.3 0.022 0.000 7.8 5 1
02/26/06 1:14 p -13.0 -12.9 -13.0 --- --- 29.6 SE 0.49 32.2 -26.2 --- --- 730.2 0.022 0.000 7.8 5 1
02/26/06 1:15 p -12.9 -12.9 -13.0 --- --- 28.7 SE 0.48 32.2 -26.0 --- --- 730.4 0.022 0.000 7.8 5 1
02/26/06 1:16 p -13.0 -12.9 -13.0 --- --- 28.7 SE 0.48 32.2 -26.1 --- --- 730.3 0.022 0.000 7.8 5 1
02/26/06 1:17 p -13.0 -12.9 -13.0 --- --- 28.7 SE 0.48 31.3 -26.1 --- --- 730.4 0.022 0.000 7.8 5 1
02/26/06 1:18 p -12.9 -12.9 -12.9 --- --- 30.4 SE 0.51 36.5 -26.3 --- --- 730.4 0.022 0.000 7.8 5 1
02/26/06 1:19 p -12.9 -12.9 -12.9 --- --- 30.4 SSE 0.51 34.8 -26.3 --- --- 730.2 0.022 0.000 7.8 5 1
02/26/06 1:20 p -12.9 -12.9 -12.9 --- --- 30.4 SSE 0.51 37.4 -26.2 --- --- 730.4 0.022 0.000 7.8 5 1
02/26/06 1:21 p -12.9 -12.9 -12.9 --- --- 33.9 SSE 0.57 39.1 -26.8 --- --- 730.4 0.022 0.000 7.8 5 1
02/26/06 1:22 p -12.9 -12.9 -12.9 --- --- 32.2 SSE 0.54 35.7 -26.5 --- --- 730.4 0.022 0.000 7.8 5 1
02/26/06 1:23 p -12.9 -12.9 -12.9 --- --- 28.7 SSE 0.48 33.0 -25.9 --- --- 730.5 0.022 0.000 7.8 5 1
02/26/06 1:24 p -12.9 -12.9 -12.9 --- --- 27.8 SSE 0.46 33.0 -25.8 --- --- 730.5 0.022 0.000 7.8 5 1
02/26/06 1:25 p -12.9 -12.9 -12.9 --- --- 27.0 SSE 0.45 29.6 -25.6 --- --- 730.6 0.022 0.000 7.8 5 1
02/26/06 1:26 p -12.9 -12.9 -12.9 --- --- 30.4 SSE 0.51 36.5 -26.2 --- --- 730.5 0.022 0.000 7.8 5 1
02/26/06 1:27 p -12.9 -12.8 -12.9 --- --- 31.3 SSE 0.52 34.8 -26.3 --- --- 730.5 0.022 0.000 7.8 5 1
02/26/06 1:28 p -12.8 -12.8 -12.9 --- --- 31.3 SSE 0.52 35.7 -26.3 --- --- 730.6 0.022 0.000 7.8 5 1
02/26/06 1:29 p -12.8 -12.8 -12.8 --- --- 29.6 SSE 0.49 34.8 -26.0 --- --- 730.6 0.022 0.000 7.9 5 1
02/26/06 1:30 p -12.8 -12.8 -12.8 --- --- 30.4 SSE 0.51 35.7 -26.2 --- --- 730.7 0.022 0.000 7.9 5 1
02/26/06 1:31 p -12.8 -12.8 -12.8 --- --- 27.8 SSE 0.46 30.4 -25.7 --- --- 730.6 0.022 0.000 7.9 5 1
02/26/06 1:32 p -12.8 -12.8 -12.8 --- --- 27.8 SSE 0.46 33.0 -25.6 --- --- 730.7 0.022 0.000 7.9 5 1
02/26/06 1:33 p -12.8 -12.8 -12.8 --- --- 26.1 SSE 0.43 27.8 -25.3 --- --- 730.7 0.022 0.000 7.8 5 1
02/26/06 1:34 p -12.8 -12.8 -12.8 --- --- 27.0 SSE 0.45 29.6 -25.6 --- --- 730.6 0.022 0.000 7.9 5 1
02/26/06 1:35 p -12.8 -12.8 -12.8 --- --- 28.7 SSE 0.48 33.0 -25.8 --- --- 730.6 0.022 0.000 7.9 5 1
02/26/06 1:36 p -12.8 -12.8 -12.8 --- --- 30.4 SE 0.51 33.9 -26.1 --- --- 730.4 0.022 0.000 7.9 5 1
02/26/06 1:37 p -12.8 -12.8 -12.8 --- --- 27.8 SSE 0.46 33.0 -25.6 --- --- 730.6 0.022 0.000 7.9 5 1
02/26/06 1:38 p -12.8 -12.8 -12.8 --- --- 28.7 SSE 0.48 32.2 -25.8 --- --- 730.6 0.022 0.000 7.9 5 1
02/26/06 1:39 p -12.8 -12.8 -12.8 --- --- 30.4 SSE 0.51 33.9 -26.1 --- --- 730.6 0.022 0.000 7.9 5 1
02/26/06 1:40 p -12.8 -12.8 -12.8 --- --- 27.8 SSE 0.46 31.3 -25.6 --- --- 730.7 0.022 0.000 7.9 5 1
02/26/06 1:41 p -12.8 -12.8 -12.8 --- --- 28.7 SE 0.48 32.2 -25.8 --- --- 730.6 0.022 0.000 7.9 5 1
02/26/06 1:42 p -12.8 -12.8 -12.8 --- --- 27.8 SSE 0.46 31.3 -25.6 --- --- 730.7 0.022 0.000 7.9 5 1
02/26/06 1:43 p -12.8 -12.8 -12.8 --- --- 27.8 SSE 0.46 29.6 -25.7 --- --- 730.8 0.022 0.000 7.9 5 1
02/26/06 1:44 p -12.8 -12.8 -12.8 --- --- 26.1 SSE 0.43 28.7 -25.3 --- --- 730.8 0.022 0.000 7.9 5 1
02/26/06 1:45 p -12.8 -12.8 -12.8 --- --- 26.1 SE 0.43 27.0 -25.4 --- --- 730.8 0.022 0.000 7.9 5 1
02/26/06 1:46 p -12.8 -12.8 -12.8 --- --- 26.1 SE 0.43 28.7 -25.4 --- --- 730.8 0.022 0.000 7.9 5 1
02/26/06 1:47 p -12.8 -12.8 -12.8 --- --- 26.1 SE 0.43 27.8 -25.4 --- --- 730.7 0.022 0.000 7.9 5 1
02/26/06 1:48 p -12.8 -12.8 -12.8 --- --- 26.1 SE 0.43 31.3 -25.4 --- --- 730.9 0.022 0.000 7.9 5 1
02/26/06 1:49 p -12.8 -12.8 -12.8 --- --- 24.3 SE 0.41 27.0 -25.1 --- --- 730.7 0.022 0.000 7.9 5 1
02/26/06 1:50 p -12.8 -12.8 -12.9 --- --- 26.1 SSE 0.43 28.7 -25.4 --- --- 730.8 0.022 0.000 7.9 5 1
02/26/06 1:51 p -12.8 -12.8 -12.8 --- --- 30.4 SSE 0.51 32.2 -26.2 --- --- 730.8 0.022 0.000 7.9 5 1
02/26/06 1:52 p -12.8 -12.8 -12.8 --- --- 30.4 SSE 0.51 32.2 -26.2 --- --- 730.7 0.022 0.000 7.9 5 1
02/26/06 1:53 p -12.8 -12.8 -12.8 --- --- 27.0 SSE 0.45 30.4 -25.6 --- --- 730.7 0.022 0.000 8.0 5 1
02/26/06 1:54 p -12.8 -12.8 -12.8 --- --- 29.6 SSE 0.49 32.2 -26.0 --- --- 730.8 0.022 0.000 8.0 5 1
02/26/06 1:55 p -12.8 -12.8 -12.8 --- --- 27.0 SSE 0.45 30.4 -25.6 --- --- 730.9 0.022 0.000 8.0 5 1
02/26/06 1:56 p -12.8 -12.8 -12.8 --- --- 27.0 SSE 0.45 31.3 -25.6 --- --- 730.8 0.022 0.000 8.0 5 1
02/26/06 1:57 p -12.9 -12.8 -12.9 --- --- 27.0 SSE 0.45 31.3 -25.6 --- --- 730.8 0.022 0.000 7.9 5 1
02/26/06 1:58 p -12.9 -12.8 -12.9 --- --- 29.6 SSE 0.49 31.3 -26.1 --- --- 730.8 0.022 0.000 8.0 5 1
02/26/06 1:59 p -12.8 -12.8 -12.8 --- --- 28.7 SSE 0.48 33.0 -25.8 --- --- 730.8 0.022 0.000 8.0 5 1
02/26/06 2:00 p -12.8 -12.8 -12.8 --- --- 29.6 SSE 0.49 32.2 -26.0 --- --- 730.8 0.022 0.000 8.0 5 1
02/26/06 2:01 p -12.8 -12.8 -12.9 --- --- 27.0 SSE 0.45 33.9 -25.6 --- --- 730.8 0.022 0.000 8.0 5 1
02/26/06 2:02 p -12.8 -12.8 -12.9 --- --- 27.8 SSE 0.46 31.3 -25.7 --- --- 730.9 0.022 0.000 8.0 5 1
02/26/06 2:03 p -12.8 -12.8 -12.8 --- --- 28.7 SSE 0.48 33.0 -25.8 --- --- 730.9 0.022 0.000 8.0 5 1
02/26/06 2:04 p -12.8 -12.8 -12.8 --- --- 25.2 SSE 0.42 30.4 -25.2 --- --- 730.9 0.022 0.000 8.0 5 1
02/26/06 2:05 p -12.9 -12.9 -12.9 --- --- 27.0 SSE 0.45 31.3 -25.6 --- --- 730.8 0.022 0.000 8.0 5 1
02/26/06 2:06 p -12.9 -12.8 -12.9 --- --- 27.8 SSE 0.46 30.4 -25.8 --- --- 730.8 0.022 0.000 7.9 5 1
02/26/06 2:07 p -12.8 -12.8 -12.9 --- --- 27.0 SE 0.45 30.4 -25.6 --- --- 730.9 0.022 0.000 8.0 5 1
02/26/06 2:08 p -12.9 -12.9 -12.9 --- --- 26.1 SE 0.43 31.3 -25.4 --- --- 730.9 0.022 0.000 8.0 5 1
02/26/06 2:09 p -12.9 -12.8 -12.9 --- --- 26.1 SE 0.43 29.6 -25.4 --- --- 730.9 0.022 0.000 7.9 5 1
02/26/06 2:10 p -12.9 -12.8 -12.9 --- --- 27.0 SSE 0.45 29.6 -25.6 --- --- 730.8 0.022 0.000 7.9 5 1
02/26/06 2:11 p -12.9 -12.8 -12.9 --- --- 27.8 SE 0.46 30.4 -25.8 --- --- 730.8 0.022 0.000 7.9 5 1
02/26/06 2:12 p -12.8 -12.8 -12.9 --- --- 27.8 SE 0.46 31.3 -25.7 --- --- 730.7 0.022 0.000 8.0 5 1
02/26/06 2:13 p -12.9 -12.9 -12.9 --- --- 29.6 SSE 0.49 32.2 -26.1 --- --- 730.7 0.022 0.000 7.9 5 1
02/26/06 2:14 p -12.9 -12.9 -12.9 --- --- 27.8 SE 0.46 30.4 -25.8 --- --- 730.8 0.022 0.000 7.9 5 1
02/26/06 2:15 p -12.9 -12.9 -12.9 --- --- 28.7 SSE 0.48 30.4 -25.9 --- --- 730.8 0.022 0.000 7.9 5 1
02/26/06 2:16 p -12.9 -12.9 -12.9 --- --- 27.8 SSE 0.46 33.0 -25.8 --- --- 730.8 0.022 0.000 7.9 5 1
02/26/06 2:17 p -12.9 -12.9 -12.9 --- --- 28.7 SE 0.48 30.4 -25.9 --- --- 730.7 0.022 0.000 8.0 5 1
02/26/06 2:18 p -12.9 -12.9 -12.9 --- --- 28.7 SE 0.48 34.8 -25.9 --- --- 730.9 0.022 0.000 7.9 5 1
02/26/06 2:19 p -12.9 -12.8 -12.9 --- --- 26.1 SE 0.43 28.7 -25.4 --- --- 730.8 0.022 0.000 8.0 5 1
02/26/06 2:20 p -12.9 -12.8 -12.9 --- --- 26.1 SE 0.43 29.6 -25.4 --- --- 730.9 0.022 0.000 7.9 5 1
02/26/06 2:21 p -12.9 -12.9 -12.9 --- --- 29.6 SE 0.49 33.0 -26.2 --- --- 730.9 0.022 0.000 7.9 5 1
02/26/06 2:22 p -12.9 -12.9 -12.9 --- --- 29.6 SSE 0.49 34.8 -26.1 --- --- 730.8 0.022 0.000 7.9 5 1
02/26/06 2:23 p -12.9 -12.8 -12.9 --- --- 30.4 SSE 0.51 32.2 -26.2 --- --- 730.9 0.022 0.000 7.9 5 1
02/26/06 2:24 p -12.9 -12.9 -12.9 --- --- 29.6 SSE 0.49 33.9 -26.1 --- --- 730.9 0.022 0.000 7.9 5 1
02/26/06 2:25 p -12.9 -12.9 -12.9 --- --- 30.4 SSE 0.51 33.0 -26.2 --- --- 730.9 0.022 0.000 7.9 5 1
02/26/06 2:26 p -12.9 -12.9 -12.9 --- --- 28.7 SSE 0.48 33.0 -25.9 --- --- 730.9 0.022 0.000 7.9 5 1
02/26/06 2:27 p -12.9 -12.9 -12.9 --- --- 29.6 SSE 0.49 34.8 -26.1 --- --- 730.9 0.022 0.000 7.9 5 1
02/26/06 2:28 p -12.9 -12.8 -12.9 --- --- 32.2 SSE 0.54 38.3 -26.5 --- --- 730.8 0.022 0.000 7.9 5 1
02/26/06 2:29 p -12.9 -12.8 -12.9 --- --- 31.3 SSE 0.52 34.8 -26.3 --- --- 730.8 0.022 0.000 7.9 5 1
02/26/06 2:30 p -12.9 -12.9 -12.9 --- --- 27.8 SSE 0.46 33.0 -25.8 --- --- 731.0 0.022 0.000 7.9 5 1
02/26/06 2:31 p -12.9 -12.8 -12.9 --- --- 26.1 SE 0.43 31.3 -25.4 --- --- 731.0 0.022 0.000 7.9 5 1
02/26/06 2:32 p -12.9 -12.9 -12.9 --- --- 27.8 SSE 0.46 32.2 -25.8 --- --- 730.9 0.022 0.000 7.9 5 1
02/26/06 2:33 p -12.8 -12.8 -12.9 --- --- 29.6 SSE 0.49 31.3 -26.0 --- --- 731.0 0.022 0.000 7.9 5 1
02/26/06 2:34 p -12.8 -12.8 -12.9 --- --- 28.7 SSE 0.48 33.9 -25.8 --- --- 730.9 0.022 0.000 7.9 5 1
02/26/06 2:35 p -12.8 -12.8 -12.9 --- --- 30.4 SSE 0.51 33.9 -26.2 --- --- 730.9 0.022 0.000 7.9 5 1
02/26/06 2:36 p -12.8 -12.8 -12.8 --- --- 28.7 SSE 0.48 31.3 -25.8 --- --- 731.0 0.022 0.000 8.0 5 1
02/26/06 2:37 p -12.8 -12.8 -12.9 --- --- 27.0 SE 0.45 31.3 -25.6 --- --- 730.8 0.022 0.000 8.0 5 1
02/26/06 2:38 p -12.8 -12.8 -12.9 --- --- 27.8 SSE 0.46 32.2 -25.7 --- --- 730.9 0.022 0.000 7.9 5 1
02/26/06 2:39 p -12.8 -12.8 -12.8 --- --- 29.6 SSE 0.49 33.0 -26.0 --- --- 730.9 0.022 0.000 8.0 5 1
02/26/06 2:40 p -12.8 -12.8 -12.8 --- --- 32.2 SSE 0.54 35.7 -26.4 --- --- 730.9 0.022 0.000 8.0 5 1
02/26/06 2:41 p -12.8 -12.8 -12.9 --- --- 27.8 SSE 0.46 31.3 -25.7 --- --- 730.9 0.022 0.000 8.0 5 1
02/26/06 2:42 p -12.8 -12.8 -12.8 --- --- 31.3 SSE 0.52 36.5 -26.3 --- --- 730.9 0.022 0.000 8.0 5 1
02/26/06 2:43 p -12.8 -12.8 -12.8 --- --- 31.3 SSE 0.52 38.3 -26.3 --- --- 730.9 0.022 0.000 8.0 5 1
02/26/06 2:44 p -12.8 -12.8 -12.8 --- --- 28.7 SE 0.48 33.0 -25.8 --- --- 730.9 0.022 0.000 8.0 5 1
02/26/06 2:45 p -12.8 -12.8 -12.8 --- --- 31.3 SE 0.52 33.9 -26.3 --- --- 730.9 0.022 0.000 8.0 5 1
02/26/06 2:46 p -12.8 -12.8 -12.8 --- --- 29.6 SE 0.49 33.0 -26.0 --- --- 730.8 0.022 0.000 8.0 5 1
02/26/06 2:47 p -12.8 -12.8 -12.8 --- --- 32.2 SE 0.54 34.8 -26.3 --- --- 730.9 0.022 0.000 8.0 5 1
02/26/06 2:48 p -12.8 -12.8 -12.8 --- --- 29.6 SSE 0.49 33.0 -26.0 --- --- 731.0 0.022 0.000 8.0 5 1
02/26/06 2:49 p -12.8 -12.8 -12.8 --- --- 30.4 SE 0.51 33.0 -26.1 --- --- 730.9 0.022 0.000 8.0 5 1
02/26/06 2:50 p -12.8 -12.8 -12.8 --- --- 27.8 SSE 0.46 33.0 -25.6 --- --- 731.0 0.022 0.000 8.0 5 1
02/26/06 2:51 p -12.8 -12.8 -12.8 --- --- 28.7 SSE 0.48 31.3 -25.8 --- --- 731.0 0.022 0.000 8.0 5 1
02/26/06 2:52 p -12.8 -12.8 -12.8 --- --- 31.3 SE 0.52 33.9 -26.2 --- --- 731.0 0.022 0.000 8.0 5 1
02/26/06 2:53 p -12.8 -12.8 -12.8 --- --- 30.4 SSE 0.51 33.0 -26.1 --- --- 730.8 0.022 0.000 8.0 5 1
02/26/06 2:54 p -12.8 -12.8 -12.8 --- --- 32.2 SSE 0.54 37.4 -26.4 --- --- 730.8 0.022 0.000 7.9 5 1
02/26/06 2:55 p -12.8 -12.8 -12.8 --- --- 30.4 SE 0.51 33.0 -26.1 --- --- 730.9 0.022 0.000 8.0 5 1
02/26/06 2:56 p -12.8 -12.8 -12.8 --- --- 28.7 SE 0.48 36.5 -25.8 --- --- 731.0 0.022 0.000 8.0 5 1
02/26/06 2:57 p -12.8 -12.8 -12.8 --- --- 29.6 SSE 0.49 31.3 -25.9 --- --- 731.0 0.022 0.000 8.0 5 1
02/26/06 2:58 p -12.8 -12.8 -12.8 --- --- 29.6 SE 0.49 33.0 -25.9 --- --- 731.0 0.022 0.000 8.0 5 1
02/26/06 2:59 p -12.8 -12.8 -12.8 --- --- 27.8 SE 0.46 30.4 -25.6 --- --- 731.0 0.022 0.000 8.0 5 1
02/26/06 3:00 p -12.8 -12.8 -12.8 --- --- 28.7 SE 0.48 31.3 -25.8 --- --- 731.0 0.022 0.000 7.9 5 1
02/26/06 3:01 p -12.8 -12.8 -12.8 --- --- 28.7 SE 0.48 33.0 -25.8 --- --- 731.1 0.022 0.000 7.9 5 1
02/26/06 3:02 p -12.8 -12.8 -12.8 --- --- 30.4 SE 0.51 35.7 -26.1 --- --- 731.0 0.022 0.000 7.9 5 1
02/26/06 3:03 p -12.8 -12.8 -12.8 --- --- 30.4 SE 0.51 33.0 -26.1 --- --- 731.0 0.022 0.000 7.9 5 1
02/26/06 3:04 p -12.8 -12.7 -12.8 --- --- 27.0 SE 0.45 30.4 -25.4 --- --- 731.1 0.022 0.000 7.9 5 1
02/26/06 3:05 p -12.8 -12.8 -12.8 --- --- 28.7 SE 0.48 33.9 -25.8 --- --- 731.0 0.022 0.000 7.9 5 1
02/26/06 3:06 p -12.8 -12.8 -12.8 --- --- 26.1 SE 0.43 29.6 -25.3 --- --- 731.3 0.022 0.000 7.9 5 1
02/26/06 3:07 p -12.8 -12.8 -12.8 --- --- 23.5 SE 0.39 26.1 -24.8 --- --- 731.3 0.022 0.000 7.9 5 1
02/26/06 3:08 p -12.8 -12.8 -12.8 --- --- 23.5 SE 0.39 26.1 -24.8 --- --- 731.3 0.022 0.000 7.9 5 1
02/26/06 3:09 p -12.8 -12.7 -12.8 --- --- 25.2 SE 0.42 28.7 -25.1 --- --- 731.3 0.022 0.000 7.9 5 1
02/26/06 3:10 p -12.8 -12.8 -12.8 --- --- 27.8 SE 0.46 28.7 -25.6 --- --- 731.2 0.022 0.000 7.9 5 1
02/26/06 3:11 p -12.7 -12.7 -12.8 --- --- 27.8 SE 0.46 29.6 -25.6 --- --- 731.2 0.022 0.000 7.9 5 1
02/26/06 3:12 p -12.8 -12.7 -12.8 --- --- 26.1 SE 0.43 28.7 -25.3 --- --- 731.3 0.022 0.000 7.9 5 1
02/26/06 3:13 p -12.8 -12.7 -12.8 --- --- 26.1 SE 0.43 29.6 -25.3 --- --- 731.2 0.022 0.000 7.9 5 1
02/26/06 3:14 p -12.8 -12.7 -12.8 --- --- 27.8 SE 0.46 33.0 -25.6 --- --- 731.1 0.022 0.000 7.9 5 1
02/26/06 3:15 p -12.7 -12.7 -12.8 --- --- 28.7 SE 0.48 32.2 -25.7 --- --- 731.2 0.022 0.000 7.9 5 1
02/26/06 3:16 p -12.7 -12.7 -12.8 --- --- 28.7 SSE 0.48 32.2 -25.7 --- --- 731.1 0.022 0.000 7.9 5 1
02/26/06 3:17 p -12.7 -12.7 -12.8 --- --- 28.7 SE 0.48 31.3 -25.7 --- --- 731.2 0.022 0.000 7.9 5 1
02/26/06 3:18 p -12.7 -12.7 -12.8 --- --- 27.8 SE 0.46 31.3 -25.6 --- --- 731.1 0.022 0.000 7.9 5 1
02/26/06 3:19 p -12.8 -12.7 -12.8 --- --- 27.8 SE 0.46 31.3 -25.6 --- --- 731.1 0.022 0.000 7.9 5 1
02/26/06 3:20 p -12.8 -12.7 -12.8 --- --- 27.0 SE 0.45 29.6 -25.4 --- --- 731.3 0.022 0.000 7.9 5 1
02/26/06 3:21 p -12.7 -12.7 -12.8 --- --- 27.0 SE 0.45 30.4 -25.4 --- --- 731.2 0.022 0.000 7.9 5 1
02/26/06 3:22 p -12.7 -12.7 -12.8 --- --- 27.8 SE 0.46 31.3 -25.6 --- --- 731.1 0.022 0.000 7.9 5 1
02/26/06 3:23 p -12.7 -12.7 -12.8 --- --- 27.0 SE 0.45 30.4 -25.4 --- --- 731.3 0.022 0.000 7.9 5 1
02/26/06 3:24 p -12.8 -12.7 -12.8 --- --- 25.2 SE 0.42 27.8 -25.1 --- --- 731.2 0.022 0.000 7.9 5 1
02/26/06 3:25 p -12.7 -12.7 -12.8 --- --- 25.2 SE 0.42 27.0 -25.1 --- --- 731.4 0.022 0.000 7.9 5 1
02/26/06 3:26 p -12.8 -12.7 -12.8 --- --- 25.2 SE 0.42 27.0 -25.1 --- --- 731.3 0.022 0.000 7.9 5 1
02/26/06 3:27 p -12.8 -12.7 -12.8 --- --- 26.1 SE 0.43 29.6 -25.3 --- --- 731.1 0.022 0.000 7.9 5 1
02/26/06 3:28 p -12.7 -12.7 -12.8 --- --- 27.8 SE 0.46 30.4 -25.6 --- --- 731.2 0.022 0.000 7.9 5 1
02/26/06 3:29 p -12.8 -12.7 -12.8 --- --- 23.5 SSE 0.39 25.2 -24.8 --- --- 731.3 0.022 0.000 7.9 5 1
02/26/06 3:30 p -12.8 -12.7 -12.8 --- --- 26.1 SSE 0.43 27.8 -25.3 --- --- 731.3 0.022 0.000 7.9 5 1
02/26/06 3:31 p -12.8 -12.7 -12.8 --- --- 26.1 SSE 0.43 28.7 -25.3 --- --- 731.2 0.022 0.000 8.0 5 1
02/26/06 3:32 p -12.8 -12.8 -12.8 --- --- 25.2 SE 0.42 28.7 -25.1 --- --- 731.2 0.022 0.000 7.9 5 1
02/26/06 3:33 p -12.7 -12.7 -12.8 --- --- 27.0 SE 0.45 28.7 -25.4 --- --- 731.2 0.022 0.000 8.0 5 1
02/26/06 3:34 p -12.8 -12.7 -12.8 --- --- 27.8 SSE 0.46 29.6 -25.6 --- --- 731.3 0.022 0.000 7.9 5 1
02/26/06 3:35 p -12.8 -12.7 -12.8 --- --- 25.2 SSE 0.42 27.0 -25.1 --- --- 731.3 0.022 0.000 7.9 5 1
02/26/06 3:36 p -12.8 -12.8 -12.8 --- --- 25.2 SSE 0.42 27.8 -25.1 --- --- 731.3 0.022 0.000 7.9 5 1
02/26/06 3:37 p -12.8 -12.7 -12.8 --- --- 27.0 SE 0.45 31.3 -25.4 --- --- 731.2 0.022 0.000 7.9 5 1
02/26/06 3:38 p -12.8 -12.8 -12.8 --- --- 28.7 SSE 0.48 32.2 -25.8 --- --- 731.2 0.022 0.000 8.0 5 1
02/26/06 3:39 p -12.8 -12.8 -12.8 --- --- 27.8 SSE 0.46 30.4 -25.6 --- --- 731.2 0.022 0.000 7.9 5 1
02/26/06 3:40 p -12.8 -12.8 -12.8 --- --- 27.8 SSE 0.46 30.4 -25.6 --- --- 731.3 0.022 0.000 7.9 5 1
02/26/06 3:41 p -12.8 -12.8 -12.8 --- --- 27.8 SSE 0.46 32.2 -25.6 --- --- 731.3 0.022 0.000 7.9 5 1
02/26/06 3:42 p -12.8 -12.8 -12.8 --- --- 27.8 SSE 0.46 31.3 -25.6 --- --- 731.4 0.022 0.000 7.9 5 1
02/26/06 3:43 p -12.8 -12.8 -12.8 --- --- 26.1 SSE 0.43 27.8 -25.3 --- --- 731.4 0.022 0.000 7.9 5 1
02/26/06 3:44 p -12.8 -12.8 -12.8 --- --- 24.3 SSE 0.41 28.7 -24.9 --- --- 731.7 0.022 0.000 7.9 5 1
02/26/06 3:45 p -12.8 -12.8 -12.8 --- --- 22.6 SSE 0.38 26.1 -24.6 --- --- 731.6 0.022 0.000 8.0 5 1
02/26/06 3:46 p -12.8 -12.8 -12.8 --- --- 20.0 SSE 0.33 22.6 -24.1 --- --- 731.6 0.022 0.000 8.0 5 1
02/26/06 3:47 p -12.8 -12.8 -12.8 --- --- 20.0 SSE 0.33 22.6 -24.1 --- --- 731.7 0.022 0.000 7.9 5 1
02/26/06 3:48 p -12.8 -12.8 -12.8 --- --- 19.1 SSE 0.32 21.7 -23.8 --- --- 731.6 0.022 0.000 7.9 5 1
02/26/06 3:49 p -12.8 -12.8 -12.8 --- --- 20.0 SSE 0.33 21.7 -24.1 --- --- 731.6 0.022 0.000 7.9 5 1
02/26/06 3:50 p -12.8 -12.8 -12.8 --- --- 18.3 SSE 0.30 20.0 -23.6 --- --- 731.7 0.022 0.000 8.0 5 1
02/26/06 3:51 p -12.8 -12.8 -12.8 --- --- 18.3 SSE 0.30 20.0 -23.6 --- --- 731.6 0.022 0.000 8.0 5 1
02/26/06 3:52 p -12.8 -12.8 -12.8 --- --- 19.1 SSE 0.32 24.3 -23.8 --- --- 731.4 0.022 0.000 7.9 5 1
02/26/06 3:53 p -12.8 -12.8 -12.8 --- --- 22.6 SSE 0.38 25.2 -24.6 --- --- 731.5 0.022 0.000 7.9 5 1
02/26/06 3:54 p -12.8 -12.7 -12.8 --- --- 22.6 SSE 0.38 24.3 -24.6 --- --- 731.5 0.022 0.000 7.9 5 1
02/26/06 3:55 p -12.8 -12.8 -12.8 --- --- 24.3 SSE 0.41 27.8 -24.9 --- --- 731.4 0.022 0.000 7.9 5 1
02/26/06 3:56 p -12.8 -12.8 -12.8 --- --- 25.2 SSE 0.42 27.0 -25.1 --- --- 731.5 0.022 0.000 7.9 5 1
02/26/06 3:57 p -12.8 -12.7 -12.8 --- --- 26.1 SSE 0.43 29.6 -25.3 --- --- 731.4 0.022 0.000 7.9 5 1
02/26/06 3:58 p -12.8 -12.8 -12.8 --- --- 26.1 SE 0.43 28.7 -25.3 --- --- 731.3 0.022 0.000 7.9 5 1
02/26/06 3:59 p -12.8 -12.7 -12.8 --- --- 27.0 SSE 0.45 28.7 -25.4 --- --- 731.4 0.022 0.000 7.9 5 1
02/26/06 4:00 p -12.7 -12.7 -12.8 --- --- 24.3 SSE 0.41 27.0 -24.9 --- --- 731.3 0.022 0.000 7.9 5 1
02/26/06 4:01 p -12.7 -12.7 -12.8 --- --- 25.2 SSE 0.42 30.4 -25.1 --- --- 731.5 0.022 0.000 7.9 5 1
02/26/06 4:02 p -12.7 -12.7 -12.7 --- --- 24.3 SSE 0.41 27.8 -24.9 --- --- 731.3 0.022 0.000 7.9 5 1
02/26/06 4:03 p -12.7 -12.7 -12.7 --- --- 24.3 SSE 0.41 26.1 -24.9 --- --- 731.4 0.022 0.000 7.9 5 1
02/26/06 4:04 p -12.7 -12.7 -12.7 --- --- 25.2 SSE 0.42 28.7 -25.1 --- --- 731.3 0.022 0.000 7.9 5 1
02/26/06 4:05 p -12.7 -12.7 -12.7 --- --- 22.6 SSE 0.38 24.3 -24.6 --- --- 731.3 0.022 0.000 7.9 5 1
02/26/06 4:06 p -12.7 -12.7 -12.7 --- --- 27.0 SSE 0.45 31.3 -25.3 --- --- 731.3 0.022 0.000 7.9 5 1
02/26/06 4:07 p -12.7 -12.6 -12.7 --- --- 23.5 SE 0.39 26.1 -24.7 --- --- 731.4 0.022 0.000 7.9 5 1
02/26/06 4:08 p -12.6 -12.6 -12.6 --- --- 22.6 SE 0.38 25.2 -24.4 --- --- 731.4 0.021 0.000 7.9 5 1
02/26/06 4:09 p -12.6 -12.6 -12.7 --- --- 24.3 SSE 0.41 27.8 -24.7 --- --- 731.4 0.021 0.000 7.9 5 1
02/26/06 4:10 p -12.7 -12.6 -12.7 --- --- 31.3 SSE 0.52 35.7 -26.1 --- --- 731.4 0.022 0.000 7.9 5 1
02/26/06 4:11 p -12.6 -12.6 -12.6 --- --- 26.1 SSE 0.43 27.8 -25.1 --- --- 731.5 0.021 0.000 7.9 5 1
02/26/06 4:12 p -12.6 -12.6 -12.6 --- --- 28.7 SSE 0.48 32.2 -25.6 --- --- 731.3 0.021 0.000 7.9 5 1
02/26/06 4:13 p -12.6 -12.6 -12.6 --- --- 30.4 SSE 0.51 34.8 -25.8 --- --- 731.5 0.021 0.000 8.0 5 1
02/26/06 4:14 p -12.6 -12.6 -12.6 --- --- 28.7 SSE 0.48 31.3 -25.4 --- --- 731.4 0.021 0.000 8.0 5 1
02/26/06 4:15 p -12.6 -12.6 -12.6 --- --- 25.2 SSE 0.42 27.8 -24.9 --- --- 731.6 0.021 0.000 7.9 5 1
02/26/06 4:16 p -12.6 -12.6 -12.6 --- --- 25.2 SSE 0.42 27.8 -24.8 --- --- 731.5 0.021 0.000 8.0 5 1
02/26/06 4:17 p -12.6 -12.5 -12.6 --- --- 27.0 SSE 0.45 29.6 -25.2 --- --- 731.4 0.021 0.000 8.0 5 1
02/26/06 4:18 p -12.6 -12.5 -12.6 --- --- 28.7 SSE 0.48 33.0 -25.4 --- --- 731.4 0.021 0.000 8.0 5 1
02/26/06 4:19 p -12.6 -12.6 -12.6 --- --- 27.0 SSE 0.45 29.6 -25.2 --- --- 731.3 0.021 0.000 8.0 5 1
02/26/06 4:20 p -12.5 -12.5 -12.6 --- --- 26.1 SSE 0.43 29.6 -24.9 --- --- 731.4 0.021 0.000 8.0 5 1
02/26/06 4:21 p -12.5 -12.5 -12.5 --- --- 26.1 SSE 0.43 32.2 -24.9 --- --- 731.5 0.021 0.000 8.0 5 1
02/26/06 4:22 p -12.5 -12.5 -12.6 --- --- 25.2 SSE 0.42 29.6 -24.8 --- --- 731.5 0.021 0.000 8.0 5 1
02/26/06 4:23 p -12.6 -12.5 -12.6 --- --- 26.1 SSE 0.43 28.7 -25.0 --- --- 731.5 0.021 0.000 8.0 5 1
02/26/06 4:24 p -12.6 -12.5 -12.6 --- --- 27.8 SSE 0.46 31.3 -25.3 --- --- 731.5 0.021 0.000 8.0 5 1
02/26/06 4:25 p -12.5 -12.4 -12.5 --- --- 27.8 SSE 0.46 29.6 -25.2 --- --- 731.3 0.021 0.000 8.0 5 1
02/26/06 4:26 p -12.5 -12.5 -12.5 --- --- 27.0 SSE 0.45 32.2 -25.1 --- --- 731.3 0.021 0.000 8.0 5 1
02/26/06 4:27 p -12.5 -12.4 -12.6 --- --- 31.3 SSE 0.52 34.8 -25.8 --- --- 731.4 0.021 0.000 8.1 5 1
02/26/06 4:28 p -12.4 -12.4 -12.5 --- --- 29.6 SSE 0.49 33.0 -25.4 --- --- 731.4 0.021 0.000 8.0 5 1
02/26/06 4:29 p -12.4 -12.4 -12.5 --- --- 30.4 SSE 0.51 33.9 -25.6 --- --- 731.4 0.021 0.000 8.0 5 1
02/26/06 4:30 p -12.4 -12.4 -12.5 --- --- 29.6 SSE 0.49 33.0 -25.4 --- --- 731.4 0.021 0.000 8.0 5 1
02/26/06 4:31 p -12.4 -12.4 -12.4 --- --- 28.7 SSE 0.48 35.7 -25.3 --- --- 731.5 0.021 0.000 8.0 5 1
02/26/06 4:32 p -12.4 -12.4 -12.4 --- --- 31.3 SSE 0.52 38.3 -25.7 --- --- 731.5 0.021 0.000 8.0 5 1
02/26/06 4:33 p -12.4 -12.4 -12.4 --- --- 30.4 SSE 0.51 35.7 -25.6 --- --- 731.4 0.021 0.000 8.0 5 1
02/26/06 4:34 p -12.4 -12.4 -12.4 --- --- 30.4 SSE 0.51 37.4 -25.6 --- --- 731.3 0.021 0.000 8.0 5 1
02/26/06 4:35 p -12.4 -12.4 -12.4 --- --- 30.4 SSE 0.51 33.9 -25.6 --- --- 731.5 0.021 0.000 8.0 5 1
02/26/06 4:36 p -12.4 -12.4 -12.4 --- --- 28.7 SSE 0.48 34.8 -25.3 --- --- 731.5 0.021 0.000 8.0 5 1
02/26/06 4:37 p -12.4 -12.4 -12.4 --- --- 25.2 SSE 0.42 29.6 -24.6 --- --- 731.6 0.021 0.000 8.0 5 1
02/26/06 4:38 p -12.4 -12.4 -12.4 --- --- 23.5 SE 0.39 25.2 -24.3 --- --- 731.5 0.021 0.000 8.0 5 1
02/26/06 4:39 p -12.4 -12.4 -12.4 --- --- 27.8 SSE 0.46 33.0 -25.1 --- --- 731.4 0.021 0.000 8.0 5 1
02/26/06 4:40 p -12.4 -12.4 -12.4 --- --- 28.7 SSE 0.48 32.2 -25.2 --- --- 731.5 0.021 0.000 8.0 5 1
02/26/06 4:41 p -12.4 -12.4 -12.4 --- --- 25.2 SE 0.42 28.7 -24.6 --- --- 731.6 0.021 0.000 8.0 5 1
02/26/06 4:42 p -12.4 -12.4 -12.4 --- --- 23.5 SSE 0.39 27.0 -24.3 --- --- 731.6 0.021 0.000 8.0 5 1
02/26/06 4:43 p -12.4 -12.4 -12.4 --- --- 27.0 SSE 0.45 31.3 -24.9 --- --- 731.6 0.021 0.000 8.0 5 1
02/26/06 4:44 p -12.4 -12.4 -12.4 --- --- 26.1 SSE 0.43 32.2 -24.8 --- --- 731.6 0.021 0.000 8.0 5 1
02/26/06 4:45 p -12.4 -12.4 -12.4 --- --- 26.1 SSE 0.43 28.7 -24.8 --- --- 731.6 0.021 0.000 8.0 5 1
02/26/06 4:46 p -12.4 -12.4 -12.4 --- --- 26.1 SSE 0.43 28.7 -24.8 --- --- 731.6 0.021 0.000 8.0 5 1
02/26/06 4:47 p -12.4 -12.4 -12.4 --- --- 27.0 SSE 0.45 32.2 -24.9 --- --- 731.7 0.021 0.000 8.0 5 1
02/26/06 4:48 p -12.4 -12.4 -12.4 --- --- 28.7 SSE 0.48 33.0 -25.2 --- --- 731.6 0.021 0.000 8.0 5 1
02/26/06 4:49 p -12.4 -12.4 -12.4 --- --- 27.0 SSE 0.45 30.4 -24.9 --- --- 731.7 0.021 0.000 8.0 5 1
02/26/06 4:50 p -12.4 -12.4 -12.4 --- --- 27.8 SSE 0.46 31.3 -25.1 --- --- 731.6 0.021 0.000 8.0 5 1
02/26/06 4:51 p -12.4 -12.4 -12.4 --- --- 30.4 SSE 0.51 36.5 -25.6 --- --- 731.6 0.021 0.000 8.0 5 1
02/26/06 4:52 p -12.4 -12.4 -12.4 --- --- 27.8 SSE 0.46 30.4 -25.2 --- --- 731.6 0.021 0.000 8.0 5 1
02/26/06 4:53 p -12.4 -12.4 -12.4 --- --- 27.8 SSE 0.46 32.2 -25.2 --- --- 731.6 0.021 0.000 8.0 5 1
02/26/06 4:54 p -12.4 -12.4 -12.4 --- --- 29.6 SSE 0.49 33.9 -25.4 --- --- 731.7 0.021 0.000 8.0 5 1
02/26/06 4:55 p -12.4 -12.4 -12.4 --- --- 27.0 SSE 0.45 29.6 -25.0 --- --- 731.6 0.021 0.000 8.0 5 1
02/26/06 4:56 p -12.4 -12.4 -12.4 --- --- 27.8 SSE 0.46 30.4 -25.2 --- --- 731.6 0.021 0.000 8.0 5 1
02/26/06 4:57 p -12.4 -12.4 -12.4 --- --- 30.4 SE 0.51 33.0 -25.6 --- --- 731.5 0.021 0.000 8.0 5 1
02/26/06 4:58 p -12.4 -12.4 -12.5 --- --- 29.6 SSE 0.49 33.0 -25.4 --- --- 731.6 0.021 0.000 8.0 5 1
02/26/06 4:59 p -12.5 -12.4 -12.5 --- --- 29.6 SSE 0.49 32.2 -25.6 --- --- 731.4 0.021 0.000 8.0 5 1
02/26/06 5:00 p -12.5 -12.5 -12.5 --- --- 30.4 SSE 0.51 31.3 -25.7 --- --- 731.5 0.021 0.000 8.0 5 1
02/26/06 5:01 p -12.5 -12.5 -12.5 --- --- 28.7 SSE 0.48 34.8 -25.4 --- --- 731.6 0.021 0.000 8.0 5 1
02/26/06 5:02 p -12.5 -12.5 -12.5 --- --- 29.6 SSE 0.49 36.5 -25.6 --- --- 731.6 0.021 0.000 8.0 5 1
02/26/06 5:03 p -12.5 -12.5 -12.5 --- --- 31.3 SSE 0.52 35.7 -25.8 --- --- 731.5 0.021 0.000 8.0 5 1
02/26/06 5:04 p -12.5 -12.5 -12.5 --- --- 30.4 SSE 0.51 34.8 -25.7 --- --- 731.4 0.021 0.000 8.0 5 1
02/26/06 5:05 p -12.6 -12.5 -12.6 --- --- 29.6 SSE 0.49 36.5 -25.6 --- --- 731.4 0.021 0.000 8.0 5 1
02/26/06 5:06 p -12.5 -12.5 -12.6 --- --- 30.4 SSE 0.51 33.0 -25.7 --- --- 731.4 0.021 0.000 8.0 5 1
02/26/06 5:07 p -12.6 -12.5 -12.6 --- --- 30.4 SSE 0.51 33.9 -25.8 --- --- 731.4 0.021 0.000 8.0 5 1
02/26/06 5:08 p -12.6 -12.6 -12.6 --- --- 32.2 SSE 0.54 36.5 -26.1 --- --- 731.4 0.021 0.000 8.0 5 1
02/26/06 5:09 p -12.6 -12.6 -12.6 --- --- 30.4 SSE 0.51 33.9 -25.8 --- --- 731.5 0.021 0.000 8.0 5 1
02/26/06 5:10 p -12.6 -12.6 -12.6 --- --- 28.7 SSE 0.48 33.0 -25.6 --- --- 731.6 0.021 0.000 8.0 5 1
02/26/06 5:11 p -12.6 -12.6 -12.6 --- --- 28.7 SSE 0.48 38.3 -25.6 --- --- 731.6 0.021 0.000 8.1 5 1
02/26/06 5:12 p -12.6 -12.6 -12.6 --- --- 31.3 SSE 0.52 37.4 -25.9 --- --- 731.6 0.021 0.000 8.1 5 1
02/26/06 5:13 p -12.6 -12.6 -12.6 --- --- 29.6 SSE 0.49 33.9 -25.6 --- --- 731.7 0.021 0.000 8.1 5 1
02/26/06 5:14 p -12.6 -12.6 -12.6 --- --- 29.6 SSE 0.49 33.9 -25.7 --- --- 731.6 0.021 0.000 8.1 5 1
02/26/06 5:15 p -12.6 -12.6 -12.6 --- --- 28.7 SSE 0.48 33.9 -25.4 --- --- 731.7 0.021 0.000 8.1 5 1
02/26/06 5:16 p -12.6 -12.6 -12.6 --- --- 28.7 SSE 0.48 33.0 -25.6 --- --- 731.7 0.021 0.000 8.1 5 1
02/26/06 5:17 p -12.6 -12.6 -12.6 --- --- 27.8 SSE 0.46 31.3 -25.4 --- --- 731.6 0.021 0.000 8.1 5 1
02/26/06 5:18 p -12.6 -12.6 -12.6 --- --- 29.6 SSE 0.49 31.3 -25.7 --- --- 731.7 0.021 0.000 8.1 5 1
02/26/06 5:19 p -12.6 -12.6 -12.7 --- --- 29.6 SSE 0.49 33.0 -25.7 --- --- 731.7 0.021 0.000 8.1 5 1
02/26/06 5:20 p -12.6 -12.6 -12.6 --- --- 26.1 SSE 0.43 28.7 -25.1 --- --- 731.9 0.021 0.000 8.1 5 1
02/26/06 5:21 p -12.6 -12.6 -12.6 --- --- 27.8 SSE 0.46 31.3 -25.4 --- --- 731.8 0.021 0.000 8.1 5 1
02/26/06 5:22 p -12.6 -12.6 -12.6 --- --- 26.1 SSE 0.43 29.6 -25.1 --- --- 731.8 0.021 0.000 8.0 5 1
02/26/06 5:23 p -12.6 -12.6 -12.6 --- --- 24.3 SSE 0.41 26.1 -24.7 --- --- 731.8 0.021 0.000 8.1 5 1
02/26/06 5:24 p -12.6 -12.6 -12.6 --- --- 27.0 SSE 0.45 30.4 -25.2 --- --- 731.7 0.021 0.000 8.1 5 1
02/26/06 5:25 p -12.6 -12.6 -12.6 --- --- 27.8 SSE 0.46 33.9 -25.4 --- --- 731.7 0.021 0.000 8.1 5 1
02/26/06 5:26 p -12.6 -12.6 -12.6 --- --- 29.6 SSE 0.49 33.0 -25.6 --- --- 731.7 0.021 0.000 8.1 5 1
02/26/06 5:27 p -12.6 -12.6 -12.6 --- --- 28.7 SSE 0.48 32.2 -25.4 --- --- 731.7 0.021 0.000 8.0 5 1
02/26/06 5:28 p -12.6 -12.6 -12.6 --- --- 24.3 SE 0.41 26.1 -24.7 --- --- 731.9 0.021 0.000 8.0 5 1
02/26/06 5:29 p -12.6 -12.5 -12.6 --- --- 26.1 SE 0.43 29.6 -25.0 --- --- 731.8 0.021 0.000 8.0 5 1
02/26/06 5:30 p -12.6 -12.5 -12.6 --- --- 24.3 SE 0.41 26.1 -24.7 --- --- 732.0 0.021 0.000 8.0 5 1
02/26/06 5:31 p -12.6 -12.6 -12.6 --- --- 25.2 SE 0.42 29.6 -24.8 --- --- 731.9 0.021 0.000 8.0 5 1
02/26/06 5:32 p -12.6 -12.6 -12.6 --- --- 26.1 SE 0.43 28.7 -25.0 --- --- 731.8 0.021 0.000 8.0 5 1
02/26/06 5:33 p -12.6 -12.6 -12.6 --- --- 28.7 SE 0.48 31.3 -25.4 --- --- 731.7 0.021 0.000 8.0 5 1
02/26/06 5:34 p -12.6 -12.6 -12.6 --- --- 27.8 SE 0.46 30.4 -25.4 --- --- 731.7 0.021 0.000 8.0 5 1
02/26/06 5:35 p -12.6 -12.6 -12.6 --- --- 28.7 SSE 0.48 34.8 -25.4 --- --- 731.7 0.021 0.000 8.0 5 1
02/26/06 5:36 p -12.6 -12.6 -12.6 --- --- 30.4 SE 0.51 33.0 -25.8 --- --- 731.7 0.021 0.000 8.0 5 1
02/26/06 5:37 p -12.6 -12.6 -12.6 --- --- 27.8 SE 0.46 31.3 -25.3 --- --- 731.8 0.021 0.000 8.0 5 1
02/26/06 5:38 p -12.6 -12.6 -12.6 --- --- 29.6 SSE 0.49 33.0 -25.6 --- --- 731.8 0.021 0.000 8.0 5 1
02/26/06 5:39 p -12.6 -12.6 -12.6 --- --- 27.0 SE 0.45 29.6 -25.2 --- --- 731.9 0.021 0.000 8.0 5 1
02/26/06 5:40 p -12.6 -12.6 -12.6 --- --- 27.0 SE 0.45 30.4 -25.2 --- --- 731.7 0.021 0.000 8.0 5 1
02/26/06 5:41 p -12.6 -12.5 -12.6 --- --- 27.0 SE 0.45 31.3 -25.2 --- --- 731.9 0.021 0.000 8.0 5 1
02/26/06 5:42 p -12.6 -12.6 -12.6 --- --- 28.7 SE 0.48 32.2 -25.4 --- --- 731.8 0.021 0.000 7.9 5 1
02/26/06 5:43 p -12.6 -12.6 -12.6 --- --- 27.0 SSE 0.45 31.3 -25.2 --- --- 731.8 0.021 0.000 8.0 5 1
02/26/06 5:44 p -12.6 -12.6 -12.6 --- --- 27.8 SE 0.46 30.4 -25.3 --- --- 731.9 0.021 0.000 8.0 5 1
02/26/06 5:45 p -12.6 -12.6 -12.6 --- --- 26.1 SE 0.43 29.6 -25.0 --- --- 731.8 0.021 0.000 8.0 5 1
02/26/06 5:46 p -12.6 -12.5 -12.6 --- --- 27.8 SSE 0.46 32.2 -25.3 --- --- 731.9 0.021 0.000 8.0 5 1
02/26/06 5:47 p -12.6 -12.6 -12.6 --- --- 27.8 SSE 0.46 30.4 -25.3 --- --- 731.9 0.021 0.000 8.0 5 1
02/26/06 5:48 p -12.6 -12.6 -12.6 --- --- 25.2 SSE 0.42 27.8 -24.8 --- --- 732.0 0.021 0.000 8.0 5 1
02/26/06 5:49 p -12.6 -12.5 -12.6 --- --- 27.0 SSE 0.45 30.4 -25.2 --- --- 732.0 0.021 0.000 8.0 5 1
02/26/06 5:50 p -12.6 -12.6 -12.6 --- --- 26.1 SE 0.43 29.6 -25.0 --- --- 731.9 0.021 0.000 8.0 5 1
02/26/06 5:51 p -12.6 -12.6 -12.6 --- --- 26.1 SE 0.43 29.6 -25.0 --- --- 731.9 0.021 0.000 8.0 5 1
02/26/06 5:52 p -12.6 -12.6 -12.6 --- --- 27.8 SSE 0.46 31.3 -25.3 --- --- 732.0 0.021 0.000 8.0 5 1
02/26/06 5:53 p -12.6 -12.6 -12.6 --- --- 27.0 SSE 0.45 30.4 -25.2 --- --- 732.0 0.021 0.000 8.0 5 1
02/26/06 5:54 p -12.6 -12.6 -12.6 --- --- 24.3 SSE 0.41 27.0 -24.7 --- --- 732.2 0.021 0.000 8.0 5 1
02/26/06 5:55 p -12.6 -12.6 -12.6 --- --- 24.3 SSE 0.41 27.8 -24.7 --- --- 732.1 0.021 0.000 8.0 5 1
02/26/06 5:56 p -12.6 -12.5 -12.6 --- --- 28.7 SSE 0.48 32.2 -25.4 --- --- 732.0 0.021 0.000 8.0 5 1
02/26/06 5:57 p -12.6 -12.5 -12.6 --- --- 26.1 SSE 0.43 29.6 -25.0 --- --- 732.1 0.021 0.000 8.0 5 1
02/26/06 5:58 p -12.6 -12.5 -12.6 --- --- 26.1 SSE 0.43 29.6 -25.0 --- --- 732.0 0.021 0.000 8.0 5 1
02/26/06 5:59 p -12.6 -12.5 -12.6 --- --- 26.1 SSE 0.43 27.8 -25.0 --- --- 732.1 0.021 0.000 8.0 5 1
02/26/06 6:00 p -12.6 -12.6 -12.6 --- --- 26.1 SSE 0.43 27.8 -25.0 --- --- 732.0 0.021 0.000 8.0 5 1
02/26/06 6:01 p -12.5 -12.5 -12.6 --- --- 28.7 SSE 0.48 33.0 -25.4 --- --- 732.2 0.021 0.000 8.1 5 1
02/26/06 6:02 p -12.6 -12.6 -12.6 --- --- 23.5 SE 0.39 29.6 -24.5 --- --- 732.2 0.021 0.000 8.0 5 1
02/26/06 6:03 p -12.6 -12.5 -12.6 --- --- 23.5 SE 0.39 27.8 -24.5 --- --- 732.2 0.021 0.000 8.1 5 1
02/26/06 6:04 p -12.6 -12.5 -12.6 --- --- 23.5 SSE 0.39 27.0 -24.5 --- --- 732.2 0.021 0.000 8.1 5 1
02/26/06 6:05 p -12.6 -12.6 -12.6 --- --- 26.1 SSE 0.43 28.7 -25.0 --- --- 732.1 0.021 0.000 8.1 5 1
02/26/06 6:06 p -12.6 -12.5 -12.6 --- --- 23.5 SSE 0.39 26.1 -24.5 --- --- 732.2 0.021 0.000 8.1 5 1
02/26/06 6:07 p -12.6 -12.5 -12.6 --- --- 25.2 SSE 0.42 28.7 -24.8 --- --- 732.1 0.021 0.000 8.0 5 1
02/26/06 6:08 p -12.6 -12.6 -12.6 --- --- 27.0 SSE 0.45 29.6 -25.2 --- --- 732.1 0.021 0.000 8.0 5 1
02/26/06 6:09 p -12.5 -12.5 -12.5 --- --- 27.0 SSE 0.45 29.6 -25.1 --- --- 732.1 0.021 0.000 8.1 5 1
02/26/06 6:10 p -12.5 -12.5 -12.6 --- --- 27.0 SSE 0.45 32.2 -25.1 --- --- 732.0 0.021 0.000 8.1 5 1
02/26/06 6:11 p -12.5 -12.4 -12.5 --- --- 29.6 SE 0.49 33.0 -25.6 --- --- 732.0 0.021 0.000 8.1 5 1
02/26/06 6:12 p -12.5 -12.4 -12.5 --- --- 31.3 SSE 0.52 38.3 -25.8 --- --- 731.8 0.021 0.000 8.1 5 1
02/26/06 6:13 p -12.5 -12.4 -12.5 --- --- 27.8 SSE 0.46 37.4 -25.2 --- --- 732.1 0.021 0.000 8.0 5 1
02/26/06 6:14 p -12.5 -12.5 -12.5 --- --- 22.6 SSE 0.38 27.0 -24.2 --- --- 732.1 0.021 0.000 8.0 5 1
02/26/06 6:15 p -12.5 -12.4 -12.5 --- --- 28.7 SE 0.48 34.8 -25.4 --- --- 732.0 0.021 0.000 8.0 5 1
02/26/06 6:16 p -12.4 -12.4 -12.4 --- --- 30.4 SSE 0.51 37.4 -25.6 --- --- 732.1 0.021 0.000 8.1 5 1
02/26/06 6:17 p -12.4 -12.4 -12.4 --- --- 29.6 SSE 0.49 36.5 -25.4 --- --- 732.1 0.021 0.000 8.1 5 1
02/26/06 6:18 p -12.4 -12.4 -12.4 --- --- 26.1 SSE 0.43 28.7 -24.8 --- --- 732.2 0.021 0.000 8.1 5 1
02/26/06 6:19 p -12.4 -12.4 -12.4 --- --- 27.8 SE 0.46 30.4 -25.2 --- --- 732.1 0.021 0.000 8.1 5 1
02/26/06 6:20 p -12.4 -12.4 -12.4 --- --- 26.1 SE 0.43 28.7 -24.8 --- --- 732.2 0.021 0.000 8.1 5 1
02/26/06 6:21 p -12.4 -12.4 -12.4 --- --- 26.1 SE 0.43 30.4 -24.8 --- --- 732.2 0.021 0.000 8.1 5 1
02/26/06 6:22 p -12.4 -12.4 -12.4 --- --- 24.3 SE 0.41 28.7 -24.4 --- --- 732.2 0.021 0.000 8.0 5 1
02/26/06 6:23 p -12.4 -12.4 -12.4 --- --- 24.3 SSE 0.41 30.4 -24.4 --- --- 732.3 0.021 0.000 8.0 5 1
02/26/06 6:24 p -12.4 -12.4 -12.4 --- --- 26.1 SSE 0.43 30.4 -24.8 --- --- 732.1 0.021 0.000 8.0 5 1
02/26/06 6:25 p -12.4 -12.4 -12.4 --- --- 28.7 SSE 0.48 33.9 -25.2 --- --- 732.1 0.021 0.000 8.0 5 1
02/26/06 6:26 p -12.4 -12.4 -12.4 --- --- 29.6 SSE 0.49 32.2 -25.4 --- --- 732.1 0.021 0.000 8.0 5 1
02/26/06 6:27 p -12.4 -12.4 -12.4 --- --- 27.0 SSE 0.45 32.2 -24.9 --- --- 732.1 0.021 0.000 8.0 5 1
02/26/06 6:28 p -12.4 -12.4 -12.4 --- --- 27.8 SSE 0.46 32.2 -25.1 --- --- 732.2 0.021 0.000 8.0 5 1
02/26/06 6:29 p -12.4 -12.4 -12.4 --- --- 27.8 SSE 0.46 31.3 -25.1 --- --- 732.2 0.021 0.000 8.0 5 1
02/26/06 6:30 p -12.4 -12.4 -12.4 --- --- 30.4 SSE 0.51 32.2 -25.6 --- --- 732.2 0.021 0.000 8.0 5 1
02/26/06 6:31 p -12.4 -12.3 -12.4 --- --- 28.7 SSE 0.48 31.3 -25.2 --- --- 732.2 0.021 0.000 8.0 5 1
02/26/06 6:32 p -12.3 -12.3 -12.4 --- --- 27.8 SSE 0.46 32.2 -25.0 --- --- 732.3 0.021 0.000 8.0 5 1
02/26/06 6:33 p -12.4 -12.3 -12.4 --- --- 27.0 SSE 0.45 28.7 -24.9 --- --- 732.4 0.021 0.000 8.0 5 1
02/26/06 6:34 p -12.3 -12.3 -12.4 --- --- 27.0 SSE 0.45 29.6 -24.8 --- --- 732.2 0.021 0.000 8.0 5 1
02/26/06 6:35 p -12.3 -12.3 -12.3 --- --- 27.0 SSE 0.45 31.3 -24.8 --- --- 732.2 0.021 0.000 8.0 5 1
02/26/06 6:36 p -12.3 -12.3 -12.3 --- --- 30.4 SSE 0.51 34.8 -25.4 --- --- 732.2 0.021 0.000 8.0 5 1
02/26/06 6:37 p -12.3 -12.3 -12.3 --- --- 27.8 SSE 0.46 32.2 -25.0 --- --- 732.2 0.021 0.000 8.0 5 1
02/26/06 6:38 p -12.3 -12.3 -12.3 --- --- 24.3 SE 0.41 27.0 -24.4 --- --- 732.3 0.021 0.000 8.0 5 1
02/26/06 6:39 p -12.3 -12.3 -12.3 --- --- 26.1 SSE 0.43 28.7 -24.6 --- --- 732.2 0.021 0.000 8.0 5 1
02/26/06 6:40 p -12.3 -12.3 -12.3 --- --- 26.1 SSE 0.43 27.8 -24.7 --- --- 732.2 0.021 0.000 8.0 5 1
02/26/06 6:41 p -12.3 -12.3 -12.3 --- --- 27.8 SSE 0.46 31.3 -24.9 --- --- 732.2 0.021 0.000 8.1 5 1
02/26/06 6:42 p -12.3 -12.3 -12.3 --- --- 28.7 SSE 0.48 37.4 -25.1 --- --- 732.2 0.021 0.000 8.1 5 1
02/26/06 6:43 p -12.3 -12.2 -12.3 --- --- 32.2 SSE 0.54 38.3 -25.7 --- --- 732.3 0.021 0.000 8.1 5 1
02/26/06 6:44 p -12.3 -12.3 -12.3 --- --- 30.4 SSE 0.51 34.8 -25.4 --- --- 732.2 0.021 0.000 8.1 5 1
02/26/06 6:45 p -12.2 -12.2 -12.3 --- --- 29.6 SSE 0.49 34.8 -25.2 --- --- 732.2 0.021 0.000 8.1 5 1
02/26/06 6:46 p -12.2 -12.2 -12.2 --- --- 29.6 SSE 0.49 32.2 -25.2 --- --- 732.2 0.021 0.000 8.1 5 1
02/26/06 6:47 p -12.2 -12.2 -12.3 --- --- 30.4 SSE 0.51 37.4 -25.3 --- --- 732.2 0.021 0.000 8.1 5 1
02/26/06 6:48 p -12.2 -12.2 -12.3 --- --- 30.4 SSE 0.51 34.8 -25.3 --- --- 732.1 0.021 0.000 8.1 5 1
02/26/06 6:49 p -12.2 -12.2 -12.3 --- --- 30.4 SSE 0.51 33.9 -25.3 --- --- 732.2 0.021 0.000 8.1 5 1
02/26/06 6:50 p -12.2 -12.2 -12.2 --- --- 30.4 SSE 0.51 34.8 -25.3 --- --- 732.2 0.021 0.000 8.1 5 1
02/26/06 6:51 p -12.2 -12.2 -12.3 --- --- 30.4 SSE 0.51 33.9 -25.3 --- --- 732.3 0.021 0.000 8.1 5 1
02/26/06 6:52 p -12.2 -12.2 -12.2 --- --- 29.6 SSE 0.49 32.2 -25.2 --- --- 732.3 0.021 0.000 8.1 5 1
02/26/06 6:53 p -12.2 -12.2 -12.3 --- --- 27.8 SSE 0.46 32.2 -24.8 --- --- 732.3 0.021 0.000 8.1 5 1
02/26/06 6:54 p -12.2 -12.2 -12.3 --- --- 26.1 SSE 0.43 30.4 -24.6 --- --- 732.4 0.021 0.000 8.1 5 1
02/26/06 6:55 p -12.2 -12.2 -12.2 --- --- 30.4 SSE 0.51 36.5 -25.3 --- --- 732.2 0.021 0.000 8.1 5 1
02/26/06 6:56 p -12.2 -12.2 -12.2 --- --- 31.3 SSE 0.52 35.7 -25.4 --- --- 732.3 0.021 0.000 8.1 5 1
02/26/06 6:57 p -12.2 -12.2 -12.3 --- --- 28.7 SSE 0.48 33.9 -25.0 --- --- 732.3 0.021 0.000 8.1 5 1
02/26/06 6:58 p -12.3 -12.3 -12.3 --- --- 27.8 SE 0.46 36.5 -24.9 --- --- 732.2 0.021 0.000 8.1 5 1
02/26/06 6:59 p -12.3 -12.3 -12.3 --- --- 31.3 SSE 0.52 35.7 -25.5 --- --- 732.2 0.021 0.000 8.1 5 1
02/26/06 7:00 p -12.3 -12.3 -12.3 --- --- 27.8 SSE 0.46 33.0 -24.9 --- --- 732.3 0.021 0.000 8.1 5 1
02/26/06 7:01 p -12.3 -12.3 -12.3 --- --- 28.7 SSE 0.48 33.0 -25.1 --- --- 732.2 0.021 0.000 8.1 5 1
02/26/06 7:02 p -12.3 -12.3 -12.3 --- --- 29.6 SSE 0.49 37.4 -25.2 --- --- 732.2 0.021 0.000 8.1 5 1
02/26/06 7:03 p -12.3 -12.3 -12.3 --- --- 28.7 SSE 0.48 35.7 -25.1 --- --- 732.4 0.021 0.000 8.1 5 1
02/26/06 7:04 p -12.3 -12.3 -12.3 --- --- 27.0 SSE 0.45 30.4 -24.8 --- --- 732.3 0.021 0.000 8.1 5 1
02/26/06 7:05 p -12.3 -12.3 -12.3 --- --- 27.8 SSE 0.46 33.9 -24.9 --- --- 732.3 0.021 0.000 8.1 5 1
02/26/06 7:06 p -12.3 -12.3 -12.3 --- --- 29.6 SSE 0.49 33.9 -25.2 --- --- 732.3 0.021 0.000 8.1 5 1
02/26/06 7:07 p -12.3 -12.3 -12.3 --- --- 27.0 SSE 0.45 30.4 -24.8 --- --- 732.5 0.021 0.000 8.1 5 1
02/26/06 7:08 p -12.3 -12.3 -12.3 --- --- 28.7 SSE 0.48 32.2 -25.1 --- --- 732.3 0.021 0.000 8.1 5 1
02/26/06 7:09 p -12.3 -12.3 -12.3 --- --- 29.6 SSE 0.49 32.2 -25.2 --- --- 732.4 0.021 0.000 8.1 5 1
02/26/06 7:10 p -12.3 -12.3 -12.3 --- --- 27.8 SSE 0.46 30.4 -24.9 --- --- 732.4 0.021 0.000 8.1 5 1
02/26/06 7:11 p -12.3 -12.3 -12.3 --- --- 27.0 SSE 0.45 30.4 -24.8 --- --- 732.4 0.021 0.000 8.1 5 1
02/26/06 7:12 p -12.3 -12.3 -12.3 --- --- 27.8 SSE 0.46 31.3 -24.9 --- --- 732.5 0.021 0.000 8.1 5 1
02/26/06 7:13 p -12.3 -12.3 -12.3 --- --- 22.6 SSE 0.38 26.1 -23.9 --- --- 732.4 0.021 0.000 8.1 5 1
02/26/06 7:14 p -12.3 -12.3 -12.3 --- --- 23.5 SE 0.39 28.7 -24.1 --- --- 732.5 0.021 0.000 8.1 5 1
02/26/06 7:15 p -12.3 -12.3 -12.3 --- --- 24.3 SSE 0.41 27.8 -24.3 --- --- 732.3 0.021 0.000 8.1 5 1
02/26/06 7:16 p -12.3 -12.2 -12.3 --- --- 27.0 SSE 0.45 31.3 -24.8 --- --- 732.3 0.021 0.000 8.1 5 1
02/26/06 7:17 p -12.3 -12.3 -12.3 --- --- 31.3 SSE 0.52 37.4 -25.5 --- --- 732.2 0.021 0.000 8.1 5 1
02/26/06 7:18 p -12.2 -12.2 -12.3 --- --- 31.3 SSE 0.52 40.0 -25.4 --- --- 732.2 0.021 0.000 8.1 5 1
02/26/06 7:19 p -12.2 -12.2 -12.2 --- --- 31.3 SSE 0.52 38.3 -25.4 --- --- 732.3 0.021 0.000 8.1 5 1
02/26/06 7:20 p -12.2 -12.2 -12.2 --- --- 36.5 SSE 0.61 42.6 -26.2 --- --- 732.2 0.021 0.000 8.0 5 1
02/26/06 7:21 p -12.2 -12.2 -12.2 --- --- 33.9 SSE 0.57 38.3 -25.8 --- --- 732.2 0.021 0.000 8.0 5 1
02/26/06 7:22 p -12.2 -12.2 -12.2 --- --- 33.0 SSE 0.55 36.5 -25.7 --- --- 732.2 0.021 0.000 8.0 5 1
02/26/06 7:23 p -12.2 -12.2 -12.2 --- --- 31.3 SSE 0.52 35.7 -25.4 --- --- 732.3 0.021 0.000 8.1 5 1
02/26/06 7:24 p -12.2 -12.2 -12.2 --- --- 30.4 SSE 0.51 33.9 -25.2 --- --- 732.4 0.021 0.000 8.1 5 1
02/26/06 7:25 p -12.2 -12.2 -12.2 --- --- 29.6 SSE 0.49 33.9 -25.1 --- --- 732.3 0.021 0.000 8.1 5 1
02/26/06 7:26 p -12.2 -12.1 -12.2 --- --- 27.8 SSE 0.46 33.9 -24.8 --- --- 732.5 0.021 0.000 8.1 5 1
02/26/06 7:27 p -12.2 -12.1 -12.2 --- --- 26.1 SSE 0.43 28.7 -24.4 --- --- 732.5 0.021 0.000 8.1 5 1
02/26/06 7:28 p -12.1 -12.1 -12.1 --- --- 25.2 SSE 0.42 29.6 -24.2 --- --- 732.5 0.021 0.000 8.1 5 1
02/26/06 7:29 p -12.1 -12.1 -12.2 --- --- 28.7 SSE 0.48 33.0 -24.8 --- --- 732.5 0.021 0.000 8.1 5 1
02/26/06 7:30 p -12.1 -12.1 -12.1 --- --- 26.1 SSE 0.43 33.0 -24.4 --- --- 732.4 0.021 0.000 8.1 5 1
02/26/06 7:31 p -12.1 -12.1 -12.1 --- --- 28.7 SSE 0.48 33.9 -24.8 --- --- 732.5 0.021 0.000 8.1 5 1
02/26/06 7:32 p -12.1 -12.1 -12.1 --- --- 27.0 SE 0.45 30.4 -24.5 --- --- 732.5 0.021 0.000 8.1 5 1
02/26/06 7:33 p -12.1 -12.1 -12.1 --- --- 26.1 SSE 0.43 30.4 -24.4 --- --- 732.5 0.021 0.000 8.1 5 1
02/26/06 7:34 p -12.1 -12.1 -12.1 --- --- 27.8 SSE 0.46 32.2 -24.6 --- --- 732.6 0.021 0.000 8.1 5 1
02/26/06 7:35 p -12.1 -12.0 -12.1 --- --- 25.2 SSE 0.42 28.7 -24.2 --- --- 732.5 0.021 0.000 8.1 5 1
02/26/06 7:36 p -12.1 -12.0 -12.1 --- --- 27.8 SSE 0.46 32.2 -24.6 --- --- 732.4 0.021 0.000 8.1 5 1
02/26/06 7:37 p -12.1 -12.0 -12.1 --- --- 27.0 SSE 0.45 33.0 -24.5 --- --- 732.4 0.021 0.000 8.1 5 1
02/26/06 7:38 p -12.0 -12.0 -12.1 --- --- 27.8 SSE 0.46 31.3 -24.6 --- --- 732.5 0.021 0.000 8.1 5 1
02/26/06 7:39 p -12.0 -12.0 -12.1 --- --- 29.6 SSE 0.49 36.5 -24.8 --- --- 732.5 0.021 0.000 8.1 5 1
02/26/06 7:40 p -12.0 -12.0 -12.1 --- --- 27.0 SSE 0.45 29.6 -24.4 --- --- 732.6 0.021 0.000 8.1 5 1
02/26/06 7:41 p -12.0 -11.9 -12.0 --- --- 22.6 SSE 0.38 26.1 -23.6 --- --- 732.6 0.021 0.000 8.1 5 1
02/26/06 7:42 p -12.0 -12.0 -12.0 --- --- 21.7 SSE 0.36 25.2 -23.4 --- --- 732.6 0.021 0.000 8.1 5 1
02/26/06 7:43 p -11.9 -11.9 -12.0 --- --- 21.7 SSE 0.36 23.5 -23.3 --- --- 732.7 0.021 0.000 8.1 5 1
02/26/06 7:44 p -11.9 -11.9 -11.9 --- --- 25.2 SSE 0.42 28.7 -24.0 --- --- 732.6 0.021 0.000 8.1 5 1
02/26/06 7:45 p -11.9 -11.9 -11.9 --- --- 24.3 SSE 0.41 27.0 -23.8 --- --- 732.7 0.021 0.000 8.1 5 1
02/26/06 7:46 p -11.9 -11.9 -12.0 --- --- 24.3 SSE 0.41 27.8 -23.8 --- --- 732.6 0.021 0.000 8.1 5 1
02/26/06 7:47 p -11.9 -11.9 -11.9 --- --- 23.5 SSE 0.39 27.0 -23.7 --- --- 732.7 0.021 0.000 8.1 5 1
02/26/06 7:48 p -11.9 -11.9 -11.9 --- --- 23.5 SSE 0.39 27.8 -23.7 --- --- 732.7 0.021 0.000 8.1 5 1
02/26/06 7:49 p -11.9 -11.9 -11.9 --- --- 24.3 SSE 0.41 27.0 -23.8 --- --- 732.7 0.021 0.000 8.1 5 1
02/26/06 7:50 p -11.9 -11.9 -11.9 --- --- 26.1 SSE 0.43 31.3 -24.1 --- --- 732.5 0.021 0.000 8.1 5 1
02/26/06 7:51 p -11.9 -11.9 -11.9 --- --- 27.0 SSE 0.45 30.4 -24.3 --- --- 732.7 0.021 0.000 8.1 5 1
02/26/06 7:52 p -11.9 -11.9 -11.9 --- --- 27.0 SSE 0.45 32.2 -24.3 --- --- 732.5 0.021 0.000 8.1 5 1
02/26/06 7:53 p -11.9 -11.9 -11.9 --- --- 28.7 SSE 0.48 32.2 -24.6 --- --- 732.6 0.021 0.000 8.1 5 1
02/26/06 7:54 p -11.9 -11.8 -11.9 --- --- 26.1 SSE 0.43 28.7 -24.1 --- --- 732.5 0.021 0.000 8.1 5 1
02/26/06 7:55 p -11.9 -11.9 -11.9 --- --- 24.3 SSE 0.41 28.7 -23.8 --- --- 732.6 0.021 0.000 8.1 5 1
02/26/06 7:56 p -11.9 -11.8 -11.9 --- --- 24.3 SSE 0.41 28.7 -23.8 --- --- 732.5 0.021 0.000 8.1 5 1
02/26/06 7:57 p -11.9 -11.9 -11.9 --- --- 27.8 SSE 0.46 32.2 -24.4 --- --- 732.6 0.021 0.000 8.1 5 1
02/26/06 7:58 p -11.9 -11.9 -11.9 --- --- 26.1 SSE 0.43 29.6 -24.1 --- --- 732.7 0.021 0.000 8.1 5 1
02/26/06 7:59 p -11.9 -11.9 -11.9 --- --- 27.0 SSE 0.45 29.6 -24.3 --- --- 732.6 0.021 0.000 8.1 5 1
02/26/06 8:00 p -11.9 -11.9 -11.9 --- --- 28.7 SSE 0.48 32.2 -24.6 --- --- 732.6 0.021 0.000 8.1 5 1
02/26/06 8:01 p -11.9 -11.9 -11.9 --- --- 26.1 SE 0.43 29.6 -24.1 --- --- 732.6 0.021 0.000 8.1 5 1
02/26/06 8:02 p -11.9 -11.8 -11.9 --- --- 24.3 SE 0.41 26.1 -23.8 --- --- 732.7 0.021 0.000 8.1 5 1
02/26/06 8:03 p -11.9 -11.8 -11.9 --- --- 23.5 SE 0.39 26.1 -23.6 --- --- 732.7 0.021 0.000 8.1 5 1
02/26/06 8:04 p -11.9 -11.8 -11.9 --- --- 24.3 SE 0.41 27.0 -23.8 --- --- 732.7 0.021 0.000 8.1 5 1
02/26/06 8:05 p -11.9 -11.8 -11.9 --- --- 27.0 SSE 0.45 31.3 -24.3 --- --- 732.7 0.021 0.000 8.1 5 1
02/26/06 8:06 p -11.8 -11.8 -11.9 --- --- 25.2 SE 0.42 32.2 -23.8 --- --- 732.8 0.021 0.000 8.1 5 1
02/26/06 8:07 p -11.9 -11.8 -11.9 --- --- 21.7 SE 0.36 23.5 -23.2 --- --- 732.9 0.021 0.000 8.1 5 1
02/26/06 8:08 p -11.8 -11.8 -11.9 --- --- 20.0 SE 0.33 23.5 -22.8 --- --- 732.9 0.021 0.000 8.1 5 1
02/26/06 8:09 p -11.8 -11.8 -11.9 --- --- 20.9 SE 0.35 22.6 -22.9 --- --- 732.9 0.021 0.000 8.1 5 1
02/26/06 8:10 p -11.8 -11.8 -11.8 --- --- 25.2 SE 0.42 30.4 -23.8 --- --- 732.8 0.021 0.000 8.1 5 1
02/26/06 8:11 p -11.8 -11.8 -11.8 --- --- 26.1 SE 0.43 29.6 -24.0 --- --- 732.8 0.021 0.000 8.1 5 1
02/26/06 8:12 p -11.8 -11.8 -11.8 --- --- 25.2 SE 0.42 28.7 -23.8 --- --- 732.8 0.021 0.000 8.1 5 1
02/26/06 8:13 p -11.8 -11.8 -11.8 --- --- 25.2 SE 0.42 28.7 -23.8 --- --- 732.8 0.021 0.000 8.1 5 1
02/26/06 8:14 p -11.8 -11.8 -11.8 --- --- 23.5 SSE 0.39 26.1 -23.5 --- --- 732.8 0.021 0.000 8.1 5 1
02/26/06 8:15 p -11.8 -11.8 -11.8 --- --- 26.1 SE 0.43 28.7 -24.0 --- --- 732.9 0.021 0.000 8.1 5 1
02/26/06 8:16 p -11.8 -11.8 -11.8 --- --- 25.2 SE 0.42 27.0 -23.8 --- --- 732.8 0.021 0.000 8.1 5 1
02/26/06 8:17 p -11.8 -11.8 -11.8 --- --- 22.6 SSE 0.38 27.8 -23.3 --- --- 732.9 0.021 0.000 8.1 5 1
02/26/06 8:18 p -11.8 -11.8 -11.8 --- --- 26.1 SE 0.43 29.6 -24.0 --- --- 732.7 0.021 0.000 8.1 5 1
02/26/06 8:19 p -11.8 -11.8 -11.8 --- --- 24.3 SE 0.41 28.7 -23.7 --- --- 732.8 0.021 0.000 8.1 5 1
02/26/06 8:20 p -11.8 -11.8 -11.8 --- --- 21.7 SSE 0.36 26.1 -23.2 --- --- 732.9 0.021 0.000 8.1 5 1
02/26/06 8:21 p -11.8 -11.8 -11.8 --- --- 22.6 SE 0.38 25.2 -23.3 --- --- 732.9 0.021 0.000 8.1 5 1
02/26/06 8:22 p -11.8 -11.8 -11.8 --- --- 21.7 SSE 0.36 24.3 -23.2 --- --- 732.9 0.021 0.000 8.1 5 1
02/26/06 8:23 p -11.8 -11.8 -11.8 --- --- 23.5 SE 0.39 27.0 -23.5 --- --- 732.8 0.021 0.000 8.1 5 1
02/26/06 8:24 p -11.8 -11.8 -11.8 --- --- 21.7 SE 0.36 23.5 -23.2 --- --- 732.9 0.021 0.000 8.1 5 1
02/26/06 8:25 p -11.8 -11.8 -11.8 --- --- 22.6 SE 0.38 26.1 -23.3 --- --- 732.9 0.021 0.000 8.1 5 1
02/26/06 8:26 p -11.8 -11.8 -11.8 --- --- 26.1 SE 0.43 28.7 -24.0 --- --- 732.8 0.021 0.000 8.1 5 1
02/26/06 8:27 p -11.8 -11.8 -11.8 --- --- 24.3 SSE 0.41 28.7 -23.7 --- --- 732.8 0.021 0.000 8.1 5 1
02/26/06 8:28 p -11.8 -11.8 -11.8 --- --- 27.0 SE 0.45 30.4 -24.2 --- --- 732.8 0.021 0.000 8.1 5 1
02/26/06 8:29 p -11.8 -11.8 -11.8 --- --- 29.6 SE 0.49 31.3 -24.6 --- --- 732.7 0.021 0.000 8.1 5 1
02/26/06 8:30 p -11.8 -11.8 -11.8 --- --- 27.8 SE 0.46 30.4 -24.3 --- --- 732.8 0.021 0.000 8.1 5 1
02/26/06 8:31 p -11.8 -11.8 -11.8 --- --- 26.1 SE 0.43 30.4 -24.0 --- --- 732.8 0.021 0.000 8.1 5 1
02/26/06 8:32 p -11.8 -11.8 -11.8 --- --- 26.1 SE 0.43 28.7 -24.0 --- --- 732.8 0.021 0.000 8.1 5 1
02/26/06 8:33 p -11.8 -11.8 -11.8 --- --- 25.2 SE 0.42 29.6 -23.8 --- --- 732.8 0.021 0.000 8.1 5 1
02/26/06 8:34 p -11.8 -11.8 -11.8 --- --- 26.1 SE 0.43 28.7 -24.0 --- --- 732.8 0.021 0.000 8.1 5 1
02/26/06 8:35 p -11.8 -11.8 -11.8 --- --- 26.1 SE 0.43 29.6 -24.0 --- --- 732.8 0.021 0.000 8.1 5 1
02/26/06 8:36 p -11.8 -11.8 -11.8 --- --- 27.0 SE 0.45 30.4 -24.2 --- --- 732.9 0.021 0.000 8.1 5 1
02/26/06 8:37 p -11.8 -11.8 -11.8 --- --- 26.1 SE 0.43 28.7 -24.0 --- --- 732.9 0.021 0.000 8.1 5 1
02/26/06 8:38 p -11.8 -11.8 -11.8 --- --- 26.1 SE 0.43 30.4 -24.0 --- --- 732.8 0.021 0.000 8.1 5 1
02/26/06 8:39 p -11.8 -11.8 -11.8 --- --- 27.0 SE 0.45 30.4 -24.2 --- --- 732.9 0.021 0.000 8.1 5 1
02/26/06 8:40 p -11.8 -11.8 -11.8 --- --- 27.8 SSE 0.46 31.3 -24.3 --- --- 733.0 0.021 0.000 8.1 5 1
02/26/06 8:41 p -11.8 -11.8 -11.8 --- --- 28.7 SSE 0.48 31.3 -24.5 --- --- 733.0 0.021 0.000 8.1 5 1
02/26/06 8:42 p -11.8 -11.8 -11.8 --- --- 27.8 SSE 0.46 33.0 -24.3 --- --- 732.9 0.021 0.000 8.1 5 1
02/26/06 8:43 p -11.8 -11.8 -11.8 --- --- 30.4 SSE 0.51 33.9 -24.8 --- --- 732.8 0.021 0.000 8.1 5 1
02/26/06 8:44 p -11.8 -11.8 -11.8 --- --- 28.7 SSE 0.48 32.2 -24.5 --- --- 732.9 0.021 0.000 8.1 5 1
02/26/06 8:45 p -11.8 -11.8 -11.8 --- --- 30.4 SE 0.51 33.9 -24.8 --- --- 732.8 0.021 0.000 8.1 5 1
02/26/06 8:46 p -11.8 -11.8 -11.8 --- --- 27.0 SE 0.45 29.6 -24.2 --- --- 732.9 0.021 0.000 8.1 5 1
02/26/06 8:47 p -11.8 -11.8 -11.8 --- --- 27.0 SE 0.45 31.3 -24.2 --- --- 733.0 0.021 0.000 8.1 5 1
02/26/06 8:48 p -11.8 -11.8 -11.9 --- --- 27.0 SSE 0.45 33.0 -24.2 --- --- 733.0 0.021 0.000 8.1 5 1
02/26/06 8:49 p -11.9 -11.8 -11.9 --- --- 27.8 SE 0.46 28.7 -24.4 --- --- 732.9 0.021 0.000 8.1 5 1
02/26/06 8:50 p -11.8 -11.8 -11.9 --- --- 27.8 SE 0.46 29.6 -24.3 --- --- 733.0 0.021 0.000 8.1 5 1
02/26/06 8:51 p -11.8 -11.8 -11.9 --- --- 27.0 SE 0.45 29.6 -24.2 --- --- 733.0 0.021 0.000 8.1 5 1
02/26/06 8:52 p -11.9 -11.8 -11.9 --- --- 25.2 SSE 0.42 27.0 -23.9 --- --- 733.2 0.021 0.000 8.1 5 1
02/26/06 8:53 p -11.9 -11.8 -11.9 --- --- 23.5 SSE 0.39 27.0 -23.6 --- --- 733.1 0.021 0.000 8.1 5 1
02/26/06 8:54 p -11.9 -11.8 -11.9 --- --- 26.1 SE 0.43 29.6 -24.1 --- --- 733.0 0.021 0.000 8.1 5 1
02/26/06 8:55 p -11.9 -11.8 -11.9 --- --- 27.0 SE 0.45 27.8 -24.3 --- --- 733.0 0.021 0.000 8.1 5 1
02/26/06 8:56 p -11.8 -11.8 -11.9 --- --- 24.3 SE 0.41 27.8 -23.7 --- --- 733.1 0.021 0.000 8.1 5 1
02/26/06 8:57 p -11.9 -11.8 -11.9 --- --- 22.6 SE 0.38 25.2 -23.4 --- --- 733.3 0.021 0.000 8.1 5 1
02/26/06 8:58 p -11.9 -11.8 -11.9 --- --- 23.5 SE 0.39 27.8 -23.6 --- --- 733.1 0.021 0.000 8.1 5 1
02/26/06 8:59 p -11.9 -11.8 -11.9 --- --- 26.1 SE 0.43 28.7 -24.1 --- --- 733.1 0.021 0.000 8.1 5 1
02/26/06 9:00 p -11.9 -11.9 -11.9 --- --- 25.2 SE 0.42 27.0 -23.9 --- --- 733.1 0.021 0.000 8.1 5 1
02/26/06 9:01 p -11.9 -11.8 -11.9 --- --- 24.3 SE 0.41 30.4 -23.8 --- --- 733.2 0.021 0.000 8.1 5 1
02/26/06 9:02 p -11.9 -11.9 -11.9 --- --- 20.9 SE 0.35 23.5 -23.1 --- --- 733.3 0.021 0.000 8.1 5 1
02/26/06 9:03 p -11.8 -11.8 -11.9 --- --- 23.5 SSE 0.39 27.0 -23.5 --- --- 733.2 0.021 0.000 8.1 5 1
02/26/06 9:04 p -11.8 -11.8 -11.9 --- --- 25.2 SSE 0.42 28.7 -23.8 --- --- 733.1 0.021 0.000 8.1 5 1
02/26/06 9:05 p -11.8 -11.8 -11.9 --- --- 23.5 SSE 0.39 26.1 -23.5 --- --- 733.3 0.021 0.000 8.1 5 1
02/26/06 9:06 p -11.8 -11.8 -11.8 --- --- 23.5 SE 0.39 26.1 -23.5 --- --- 733.2 0.021 0.000 8.1 5 1
02/26/06 9:07 p -11.8 -11.8 -11.8 --- --- 22.6 SE 0.38 25.2 -23.3 --- --- 733.1 0.021 0.000 8.1 5 1
02/26/06 9:08 p -11.8 -11.8 -11.8 --- --- 25.2 SE 0.42 28.7 -23.8 --- --- 733.1 0.021 0.000 8.1 5 1
02/26/06 9:09 p -11.8 -11.8 -11.8 --- --- 27.8 SE 0.46 29.6 -24.3 --- --- 733.1 0.021 0.000 8.1 5 1
02/26/06 9:10 p -11.8 -11.8 -11.8 --- --- 27.0 SE 0.45 28.7 -24.2 --- --- 733.1 0.021 0.000 8.1 5 1
02/26/06 9:11 p -11.8 -11.8 -11.8 --- --- 23.5 SE 0.39 26.1 -23.5 --- --- 733.3 0.021 0.000 8.1 5 1
02/26/06 9:12 p -11.8 -11.8 -11.8 --- --- 25.2 SE 0.42 28.7 -23.8 --- --- 733.2 0.021 0.000 8.1 5 1
02/26/06 9:13 p -11.8 -11.8 -11.8 --- --- 27.0 SE 0.45 28.7 -24.2 --- --- 733.1 0.021 0.000 8.1 5 1
02/26/06 9:14 p -11.8 -11.8 -11.8 --- --- 26.1 SE 0.43 27.8 -24.0 --- --- 733.2 0.021 0.000 8.1 5 1
02/26/06 9:15 p -11.8 -11.8 -11.8 --- --- 26.1 SE 0.43 28.7 -24.0 --- --- 733.2 0.021 0.000 8.1 5 1
02/26/06 9:16 p -11.8 -11.8 -11.8 --- --- 27.0 SE 0.45 29.6 -24.1 --- --- 733.3 0.021 0.000 8.1 5 1
02/26/06 9:17 p -11.8 -11.8 -11.8 --- --- 25.2 SE 0.42 27.8 -23.8 --- --- 733.3 0.021 0.000 8.1 5 1
02/26/06 9:18 p -11.8 -11.8 -11.8 --- --- 26.1 SE 0.43 28.7 -24.0 --- --- 733.2 0.021 0.000 8.1 5 1
02/26/06 9:19 p -11.8 -11.8 -11.8 --- --- 25.2 SE 0.42 26.1 -23.8 --- --- 733.3 0.021 0.000 8.1 5 1
02/26/06 9:20 p -11.8 -11.8 -11.8 --- --- 21.7 SE 0.36 24.3 -23.2 --- --- 733.4 0.021 0.000 8.1 5 1
02/26/06 9:21 p -11.8 -11.8 -11.8 --- --- 24.3 SE 0.41 29.6 -23.6 --- --- 733.2 0.021 0.000 8.2 5 1
02/26/06 9:22 p -11.8 -11.8 -11.8 --- --- 27.0 SE 0.45 29.6 -24.1 --- --- 733.1 0.021 0.000 8.1 5 1
02/26/06 9:23 p -11.8 -11.8 -11.8 --- --- 30.4 SE 0.51 34.8 -24.7 --- --- 733.1 0.021 0.000 8.2 5 1
02/26/06 9:24 p -11.8 -11.8 -11.8 --- --- 31.3 SE 0.52 35.7 -24.8 --- --- 733.0 0.021 0.000 8.2 5 1
02/26/06 9:25 p -11.8 -11.8 -11.8 --- --- 31.3 SE 0.52 33.9 -24.9 --- --- 733.1 0.021 0.000 8.2 5 1
02/26/06 9:26 p -11.8 -11.8 -11.8 --- --- 28.7 SE 0.48 30.4 -24.5 --- --- 733.2 0.021 0.000 8.2 5 1
02/26/06 9:27 p -11.8 -11.8 -11.8 --- --- 28.7 SE 0.48 31.3 -24.5 --- --- 733.1 0.021 0.000 8.1 5 1
02/26/06 9:28 p -11.8 -11.8 -11.8 --- --- 28.7 SE 0.48 32.2 -24.5 --- --- 733.1 0.021 0.000 8.2 5 1
02/26/06 9:29 p -11.8 -11.8 -11.8 --- --- 28.7 SE 0.48 30.4 -24.5 --- --- 733.2 0.021 0.000 8.1 5 1
02/26/06 9:30 p -11.8 -11.8 -11.8 --- --- 27.8 SE 0.46 30.4 -24.3 --- --- 733.2 0.021 0.000 8.1 5 1
02/26/06 9:31 p -11.8 -11.8 -11.8 --- --- 26.1 SE 0.43 29.6 -24.0 --- --- 733.3 0.021 0.000 8.1 5 1
02/26/06 9:32 p -11.8 -11.8 -11.8 --- --- 28.7 SE 0.48 30.4 -24.5 --- --- 733.2 0.021 0.000 8.1 5 1
02/26/06 9:33 p -11.8 -11.8 -11.8 --- --- 27.8 SE 0.46 29.6 -24.3 --- --- 733.3 0.021 0.000 8.1 5 1
02/26/06 9:34 p -11.8 -11.8 -11.8 --- --- 27.0 SE 0.45 29.6 -24.2 --- --- 733.2 0.021 0.000 8.1 5 1
02/26/06 9:35 p -11.8 -11.8 -11.8 --- --- 27.0 SE 0.45 29.6 -24.2 --- --- 733.4 0.021 0.000 8.1 5 1
02/26/06 9:36 p -11.8 -11.8 -11.8 --- --- 25.2 SE 0.42 27.8 -23.8 --- --- 733.4 0.021 0.000 8.1 5 1
02/26/06 9:37 p -11.8 -11.8 -11.8 --- --- 25.2 SE 0.42 27.8 -23.8 --- --- 733.4 0.021 0.000 8.1 5 1
02/26/06 9:38 p -11.8 -11.8 -11.8 --- --- 24.3 SE 0.41 27.8 -23.7 --- --- 733.3 0.021 0.000 8.1 5 1
02/26/06 9:39 p -11.8 -11.8 -11.8 --- --- 27.8 SE 0.46 30.4 -24.3 --- --- 733.2 0.021 0.000 8.1 5 1
02/26/06 9:40 p -11.8 -11.8 -11.8 --- --- 26.1 SE 0.43 27.8 -24.0 --- --- 733.3 0.021 0.000 8.1 5 1
02/26/06 9:41 p -11.8 -11.8 -11.8 --- --- 26.1 SE 0.43 28.7 -24.0 --- --- 733.3 0.021 0.000 8.1 5 1
02/26/06 9:42 p -11.8 -11.8 -11.8 --- --- 27.0 SE 0.45 27.8 -24.2 --- --- 733.4 0.021 0.000 8.1 5 1
02/26/06 9:43 p -11.8 -11.8 -11.8 --- --- 24.3 SE 0.41 27.0 -23.7 --- --- 733.5 0.021 0.000 8.1 5 1
02/26/06 9:44 p -11.8 -11.8 -11.8 --- --- 24.3 SE 0.41 27.0 -23.7 --- --- 733.4 0.021 0.000 8.1 5 1
02/26/06 9:45 p -11.8 -11.8 -11.8 --- --- 27.0 SE 0.45 29.6 -24.2 --- --- 733.3 0.021 0.000 8.1 5 1
02/26/06 9:46 p -11.8 -11.8 -11.8 --- --- 27.0 SE 0.45 27.8 -24.2 --- --- 733.2 0.021 0.000 8.1 5 1
02/26/06 9:47 p -11.8 -11.8 -11.8 --- --- 25.2 SE 0.42 27.8 -23.8 --- --- 733.4 0.021 0.000 8.1 5 1
02/26/06 9:48 p -11.8 -11.8 -11.8 --- --- 26.1 SE 0.43 29.6 -23.9 --- --- 733.3 0.021 0.000 8.1 5 1
02/26/06 9:49 p -11.8 -11.8 -11.8 --- --- 26.1 SE 0.43 29.6 -24.0 --- --- 733.3 0.021 0.000 8.1 5 1
02/26/06 9:50 p -11.8 -11.8 -11.8 --- --- 27.8 SE 0.46 31.3 -24.3 --- --- 733.3 0.021 0.000 8.1 5 1
02/26/06 9:51 p -11.8 -11.8 -11.8 --- --- 27.8 SE 0.46 30.4 -24.3 --- --- 733.4 0.021 0.000 8.1 5 1
02/26/06 9:52 p -11.8 -11.8 -11.8 --- --- 26.1 SE 0.43 28.7 -23.9 --- --- 733.2 0.021 0.000 8.1 5 1
02/26/06 9:53 p -11.8 -11.8 -11.8 --- --- 29.6 SE 0.49 32.2 -24.6 --- --- 733.2 0.021 0.000 8.1 5 1
02/26/06 9:54 p -11.8 -11.8 -11.8 --- --- 28.7 SE 0.48 31.3 -24.4 --- --- 733.3 0.021 0.000 8.1 5 1
02/26/06 9:55 p -11.8 -11.8 -11.8 --- --- 27.0 SE 0.45 28.7 -24.1 --- --- 733.3 0.021 0.000 8.1 5 1
02/26/06 9:56 p -11.8 -11.8 -11.8 --- --- 26.1 SE 0.43 29.6 -23.9 --- --- 733.3 0.021 0.000 8.1 5 1
02/26/06 9:57 p -11.8 -11.8 -11.8 --- --- 25.2 SE 0.42 29.6 -23.8 --- --- 733.4 0.021 0.000 8.1 5 1
02/26/06 9:58 p -11.8 -11.7 -11.8 --- --- 25.2 SE 0.42 28.7 -23.8 --- --- 733.4 0.021 0.000 8.1 5 1
02/26/06 9:59 p -11.8 -11.8 -11.8 --- --- 21.7 SE 0.36 24.3 -23.1 --- --- 733.5 0.021 0.000 8.1 5 1
02/26/06 10:00 p -11.8 -11.8 -11.8 --- --- 25.2 SE 0.42 28.7 -23.8 --- --- 733.4 0.021 0.000 8.1 5 1
02/26/06 10:01 p -11.8 -11.8 -11.8 --- --- 26.1 SE 0.43 27.8 -23.9 --- --- 733.4 0.021 0.000 8.1 5 1
02/26/06 10:02 p -11.8 -11.7 -11.8 --- --- 27.8 SE 0.46 29.6 -24.3 --- --- 733.3 0.021 0.000 8.1 5 1
02/26/06 10:03 p -11.7 -11.7 -11.8 --- --- 27.8 SE 0.46 30.4 -24.2 --- --- 733.4 0.021 0.000 8.1 5 1
02/26/06 10:04 p -11.7 -11.7 -11.7 --- --- 27.0 SE 0.45 28.7 -24.0 --- --- 733.4 0.021 0.000 8.1 5 1
02/26/06 10:05 p -11.7 -11.7 -11.7 --- --- 27.0 SE 0.45 32.2 -24.0 --- --- 733.4 0.021 0.000 8.1 5 1
02/26/06 10:06 p -11.7 -11.7 -11.7 --- --- 30.4 SSE 0.51 33.9 -24.6 --- --- 733.3 0.021 0.000 8.1 5 1
02/26/06 10:07 p -11.7 -11.7 -11.7 --- --- 27.8 SSE 0.46 30.4 -24.1 --- --- 733.5 0.021 0.000 8.2 5 1
02/26/06 10:08 p -11.7 -11.7 -11.7 --- --- 28.7 SSE 0.48 33.9 -24.2 --- --- 733.3 0.021 0.000 8.2 5 1
02/26/06 10:09 p -11.7 -11.6 -11.7 --- --- 28.7 SSE 0.48 32.2 -24.2 --- --- 733.2 0.021 0.000 8.2 5 1
02/26/06 10:10 p -11.7 -11.6 -11.7 --- --- 28.7 SE 0.48 33.9 -24.2 --- --- 733.2 0.021 0.000 8.2 5 1
02/26/06 10:11 p -11.7 -11.6 -11.7 --- --- 28.7 SE 0.48 30.4 -24.2 --- --- 733.3 0.021 0.000 8.2 5 1
02/26/06 10:12 p -11.6 -11.6 -11.7 --- --- 30.4 SE 0.51 33.0 -24.4 --- --- 733.3 0.021 0.000 8.2 5 1
02/26/06 10:13 p -11.6 -11.6 -11.6 --- --- 29.6 SE 0.49 31.3 -24.3 --- --- 733.1 0.021 0.000 8.2 5 1
02/26/06 10:14 p -11.6 -11.6 -11.6 --- --- 32.2 SSE 0.54 37.4 -24.7 --- --- 733.2 0.021 0.000 8.2 5 1
02/26/06 10:15 p -11.6 -11.6 -11.6 --- --- 32.2 SE 0.54 37.4 -24.7 --- --- 733.1 0.021 0.000 8.2 5 1
02/26/06 10:16 p -11.6 -11.6 -11.6 --- --- 34.8 SSE 0.58 39.1 -25.1 --- --- 733.0 0.021 0.000 8.2 5 1
02/26/06 10:17 p -11.6 -11.6 -11.6 --- --- 35.7 SSE 0.59 38.3 -25.2 --- --- 733.0 0.021 0.000 8.2 5 1
02/26/06 10:18 p -11.6 -11.6 -11.6 --- --- 37.4 SSE 0.62 41.7 -25.4 --- --- 733.0 0.021 0.000 8.2 5 1
02/26/06 10:19 p -11.6 -11.5 -11.6 --- --- 37.4 SSE 0.62 42.6 -25.4 --- --- 732.9 0.021 0.000 8.2 5 1
02/26/06 10:20 p -11.5 -11.5 -11.6 --- --- 35.7 SSE 0.59 40.0 -25.1 --- --- 733.0 0.021 0.000 8.2 5 1
02/26/06 10:21 p -11.5 -11.5 -11.5 --- --- 34.8 SSE 0.58 39.1 -24.9 --- --- 733.0 0.021 0.000 8.1 5 1
02/26/06 10:22 p -11.5 -11.4 -11.5 --- --- 37.4 SSE 0.62 40.0 -25.3 --- --- 733.1 0.021 0.000 8.1 5 1
02/26/06 10:23 p -11.5 -11.4 -11.5 --- --- 34.8 SSE 0.58 40.0 -24.9 --- --- 733.0 0.021 0.000 8.2 5 1
02/26/06 10:24 p -11.4 -11.4 -11.5 --- --- 36.5 SSE 0.61 42.6 -25.1 --- --- 732.9 0.021 0.000 8.1 5 1
02/26/06 10:25 p -11.4 -11.4 -11.4 --- --- 36.5 SSE 0.61 42.6 -25.1 --- --- 733.0 0.021 0.000 8.2 5 1
02/26/06 10:26 p -11.4 -11.4 -11.4 --- --- 36.5 SE 0.61 40.9 -25.1 --- --- 733.0 0.021 0.000 8.2 5 1
02/26/06 10:27 p -11.4 -11.4 -11.4 --- --- 37.4 SSE 0.62 41.7 -25.2 --- --- 733.0 0.021 0.000 8.2 5 1
02/26/06 10:28 p -11.4 -11.4 -11.4 --- --- 38.3 SE 0.64 42.6 -25.3 --- --- 732.9 0.021 0.000 8.2 5 1
02/26/06 10:29 p -11.4 -11.4 -11.4 --- --- 39.1 SE 0.65 42.6 -25.4 --- --- 733.0 0.021 0.000 8.2 5 1
02/26/06 10:30 p -11.4 -11.4 -11.4 --- --- 37.4 SE 0.62 42.6 -25.2 --- --- 732.8 0.021 0.000 8.1 5 1
02/26/06 10:31 p -11.4 -11.4 -11.4 --- --- 36.5 SE 0.61 41.7 -25.1 --- --- 733.1 0.021 0.000 8.1 5 1
02/26/06 10:32 p -11.4 -11.4 -11.4 --- --- 37.4 SE 0.62 40.9 -25.2 --- --- 732.9 0.021 0.000 8.1 5 1
02/26/06 10:33 p -11.4 -11.4 -11.4 --- --- 36.5 SE 0.61 40.9 -25.1 --- --- 732.9 0.021 0.000 8.1 5 1
02/26/06 10:34 p -11.4 -11.4 -11.4 --- --- 36.5 SE 0.61 40.0 -25.1 --- --- 733.0 0.021 0.000 8.1 5 1
02/26/06 10:35 p -11.4 -11.4 -11.4 --- --- 37.4 SE 0.62 41.7 -25.2 --- --- 733.0 0.021 0.000 8.1 5 1
02/26/06 10:36 p -11.4 -11.4 -11.4 --- --- 40.0 SE 0.67 44.3 -25.5 --- --- 732.9 0.021 0.000 8.1 5 1
02/26/06 10:37 p -11.4 -11.4 -11.4 --- --- 40.0 SE 0.67 41.7 -25.5 --- --- 732.9 0.021 0.000 8.1 5 1
02/26/06 10:38 p -11.4 -11.4 -11.4 --- --- 39.1 SE 0.65 43.5 -25.4 --- --- 733.0 0.021 0.000 8.1 5 1
02/26/06 10:39 p -11.4 -11.4 -11.4 --- --- 35.7 SE 0.59 41.7 -24.9 --- --- 732.9 0.021 0.000 8.1 5 1
02/26/06 10:40 p -11.4 -11.4 -11.4 --- --- 37.4 SE 0.62 41.7 -25.2 --- --- 732.8 0.021 0.000 8.1 5 1
02/26/06 10:41 p -11.4 -11.4 -11.4 --- --- 39.1 SE 0.65 42.6 -25.4 --- --- 732.9 0.021 0.000 8.1 5 1
02/26/06 10:42 p -11.4 -11.4 -11.4 --- --- 38.3 SE 0.64 43.5 -25.3 --- --- 732.9 0.021 0.000 8.1 5 1
02/26/06 10:43 p -11.4 -11.4 -11.4 --- --- 38.3 SE 0.64 41.7 -25.3 --- --- 733.0 0.021 0.000 8.1 5 1
02/26/06 10:44 p -11.4 -11.4 -11.4 --- --- 35.7 SE 0.59 38.3 -25.0 --- --- 733.0 0.021 0.000 8.1 5 1
02/26/06 10:45 p -11.4 -11.4 -11.4 --- --- 34.8 SE 0.58 37.4 -24.9 --- --- 733.2 0.021 0.000 8.1 5 1
02/26/06 10:46 p -11.4 -11.4 -11.5 --- --- 33.0 SE 0.55 35.7 -24.6 --- --- 733.1 0.021 0.000 8.1 5 1
02/26/06 10:47 p -11.5 -11.5 -11.5 --- --- 37.4 SE 0.62 42.6 -25.3 --- --- 732.9 0.021 0.000 8.1 5 1
02/26/06 10:48 p -11.5 -11.5 -11.5 --- --- 37.4 SE 0.62 39.1 -25.3 --- --- 733.0 0.021 0.000 8.1 5 1
02/26/06 10:49 p -11.6 -11.5 -11.6 --- --- 35.7 SE 0.59 37.4 -25.2 --- --- 733.1 0.021 0.000 8.1 5 1
02/26/06 10:50 p -11.5 -11.5 -11.6 --- --- 40.0 SE 0.67 46.1 -25.7 --- --- 733.0 0.021 0.000 8.1 5 1
02/26/06 10:51 p -11.6 -11.5 -11.6 --- --- 36.5 SE 0.61 40.0 -25.3 --- --- 733.1 0.021 0.000 8.1 5 1
02/26/06 10:52 p -11.6 -11.5 -11.6 --- --- 34.8 SE 0.58 36.5 -25.1 --- --- 733.2 0.021 0.000 8.1 5 1
02/26/06 10:53 p -11.5 -11.5 -11.6 --- --- 37.4 SE 0.62 42.6 -25.3 --- --- 732.8 0.021 0.000 8.1 5 1
02/26/06 10:54 p -11.6 -11.5 -11.6 --- --- 31.3 ESE 0.52 34.8 -24.5 --- --- 733.2 0.021 0.000 8.1 5 1
02/26/06 10:55 p -11.6 -11.6 -11.6 --- --- 32.2 SE 0.54 37.4 -24.7 --- --- 733.1 0.021 0.000 8.1 5 1
02/26/06 10:56 p -11.6 -11.6 -11.6 --- --- 36.5 SE 0.61 39.1 -25.3 --- --- 733.0 0.021 0.000 8.1 5 1
02/26/06 10:57 p -11.6 -11.6 -11.6 --- --- 35.7 SE 0.59 39.1 -25.2 --- --- 733.2 0.021 0.000 8.1 5 1
02/26/06 10:58 p -11.6 -11.6 -11.6 --- --- 36.5 SE 0.61 40.0 -25.3 --- --- 733.2 0.021 0.000 8.1 5 1
02/26/06 10:59 p -11.6 -11.6 -11.6 --- --- 33.9 SE 0.57 39.1 -24.9 --- --- 733.2 0.021 0.000 8.1 5 1
02/26/06 11:00 p -11.6 -11.6 -11.6 --- --- 33.0 SE 0.55 35.7 -24.8 --- --- 733.4 0.021 0.000 8.1 5 1
02/26/06 11:01 p -11.6 -11.6 -11.6 --- --- 30.4 ESE 0.51 33.9 -24.4 --- --- 733.2 0.021 0.000 8.1 5 1
02/26/06 11:02 p -11.6 -11.6 -11.6 --- --- 30.4 SE 0.51 33.0 -24.4 --- --- 733.3 0.021 0.000 8.1 5 1
02/26/06 11:03 p -11.6 -11.6 -11.6 --- --- 31.3 SE 0.52 35.7 -24.5 --- --- 733.3 0.021 0.000 8.1 5 1
02/26/06 11:04 p -11.6 -11.6 -11.6 --- --- 33.9 SE 0.57 35.7 -25.0 --- --- 733.4 0.021 0.000 8.1 5 1
02/26/06 11:05 p -11.6 -11.6 -11.6 --- --- 35.7 SE 0.59 37.4 -25.2 --- --- 733.1 0.021 0.000 8.1 5 1
02/26/06 11:06 p -11.6 -11.6 -11.6 --- --- 34.8 SE 0.58 37.4 -25.1 --- --- 733.2 0.021 0.000 8.1 5 1
02/26/06 11:07 p -11.6 -11.6 -11.6 --- --- 32.2 SE 0.54 34.8 -24.7 --- --- 733.3 0.021 0.000 8.1 5 1
02/26/06 11:08 p -11.6 -11.6 -11.6 --- --- 31.3 SE 0.52 34.8 -24.6 --- --- 733.4 0.021 0.000 8.1 5 1
02/26/06 11:09 p -11.6 -11.6 -11.6 --- --- 29.6 SE 0.49 33.0 -24.3 --- --- 733.5 0.021 0.000 8.1 5 1
02/26/06 11:10 p -11.6 -11.6 -11.6 --- --- 27.8 SE 0.46 31.3 -24.0 --- --- 733.4 0.021 0.000 8.1 5 1
02/26/06 11:11 p -11.6 -11.6 -11.6 --- --- 29.6 SE 0.49 32.2 -24.3 --- --- 733.4 0.021 0.000 8.1 5 1
02/26/06 11:12 p -11.6 -11.6 -11.6 --- --- 27.0 SE 0.45 29.6 -23.9 --- --- 733.4 0.021 0.000 8.1 5 1
02/26/06 11:13 p -11.6 -11.6 -11.6 --- --- 28.7 SE 0.48 34.8 -24.2 --- --- 733.5 0.021 0.000 8.1 5 1
02/26/06 11:14 p -11.6 -11.6 -11.6 --- --- 28.7 SE 0.48 31.3 -24.2 --- --- 733.4 0.021 0.000 8.1 5 1
02/26/06 11:15 p -11.6 -11.6 -11.6 --- --- 27.8 SE 0.46 29.6 -24.0 --- --- 733.4 0.021 0.000 8.1 5 1
02/26/06 11:16 p -11.6 -11.6 -11.6 --- --- 31.3 SE 0.52 33.9 -24.6 --- --- 733.3 0.021 0.000 8.1 5 1
02/26/06 11:17 p -11.6 -11.6 -11.6 --- --- 29.6 SE 0.49 33.9 -24.3 --- --- 733.3 0.021 0.000 8.1 5 1
02/26/06 11:18 p -11.6 -11.6 -11.6 --- --- 29.6 SE 0.49 31.3 -24.3 --- --- 733.4 0.021 0.000 8.1 5 1
02/26/06 11:19 p -11.6 -11.6 -11.6 --- --- 29.6 SE 0.49 32.2 -24.3 --- --- 733.4 0.021 0.000 8.1 5 1
02/26/06 11:20 p -11.6 -11.6 -11.6 --- --- 28.7 SE 0.48 32.2 -24.2 --- --- 733.4 0.021 0.000 8.1 5 1
02/26/06 11:21 p -11.6 -11.6 -11.6 --- --- 27.8 SE 0.46 30.4 -24.0 --- --- 733.3 0.021 0.000 8.1 5 1
02/26/06 11:22 p -11.6 -11.6 -11.6 --- --- 27.0 SE 0.45 29.6 -23.9 --- --- 733.6 0.021 0.000 8.1 5 1
02/26/06 11:23 p -11.6 -11.6 -11.6 --- --- 29.6 SE 0.49 33.9 -24.3 --- --- 733.3 0.021 0.000 8.1 5 1
02/26/06 11:24 p -11.6 -11.6 -11.6 --- --- 29.6 SE 0.49 33.0 -24.3 --- --- 733.4 0.021 0.000 8.1 5 1
02/26/06 11:25 p -11.6 -11.6 -11.6 --- --- 30.4 SE 0.51 33.9 -24.4 --- --- 733.3 0.021 0.000 8.1 5 1
02/26/06 11:26 p -11.6 -11.6 -11.6 --- --- 30.4 SE 0.51 33.0 -24.4 --- --- 733.4 0.021 0.000 8.1 5 1
02/26/06 11:27 p -11.6 -11.6 -11.6 --- --- 30.4 SE 0.51 33.0 -24.4 --- --- 733.4 0.021 0.000 8.0 5 1
02/26/06 11:28 p -11.6 -11.6 -11.6 --- --- 29.6 SE 0.49 32.2 -24.2 --- --- 733.4 0.021 0.000 8.1 5 1
02/26/06 11:29 p -11.6 -11.5 -11.6 --- --- 28.7 SE 0.48 31.3 -24.1 --- --- 733.5 0.021 0.000 8.0 5 1
02/26/06 11:30 p -11.6 -11.5 -11.6 --- --- 29.6 SE 0.49 31.3 -24.2 --- --- 733.5 0.021 0.000 8.0 5 1
02/26/06 11:31 p -11.6 -11.5 -11.6 --- --- 28.7 SE 0.48 31.3 -24.1 --- --- 733.5 0.021 0.000 8.0 5 1
02/26/06 11:32 p -11.6 -11.6 -11.6 --- --- 27.8 SE 0.46 30.4 -23.9 --- --- 733.4 0.021 0.000 8.0 5 1
02/26/06 11:33 p -11.6 -11.6 -11.6 --- --- 28.7 SE 0.48 30.4 -24.1 --- --- 733.6 0.021 0.000 8.0 5 1
02/26/06 11:34 p -11.6 -11.6 -11.6 --- --- 30.4 SE 0.51 32.2 -24.4 --- --- 733.5 0.021 0.000 8.0 5 1
02/26/06 11:35 p -11.6 -11.6 -11.6 --- --- 30.4 SE 0.51 32.2 -24.4 --- --- 733.4 0.021 0.000 8.0 5 1
02/26/06 11:36 p -11.6 -11.6 -11.6 --- --- 27.8 SE 0.46 31.3 -23.9 --- --- 733.4 0.021 0.000 8.0 5 1
02/26/06 11:37 p -11.6 -11.6 -11.6 --- --- 27.8 SE 0.46 30.4 -23.9 --- --- 733.5 0.021 0.000 8.0 5 1
02/26/06 11:38 p -11.6 -11.6 -11.6 --- --- 27.8 SE 0.46 30.4 -23.9 --- --- 733.5 0.021 0.000 8.0 5 1
02/26/06 11:39 p -11.6 -11.6 -11.6 --- --- 27.0 SE 0.45 29.6 -23.8 --- --- 733.5 0.021 0.000 8.0 5 1
02/26/06 11:40 p -11.6 -11.6 -11.6 --- --- 27.0 SE 0.45 28.7 -23.8 --- --- 733.6 0.021 0.000 8.0 5 1
02/26/06 11:41 p -11.6 -11.6 -11.6 --- --- 29.6 SE 0.49 32.2 -24.2 --- --- 733.6 0.021 0.000 8.0 5 1
02/26/06 11:42 p -11.6 -11.5 -11.6 --- --- 27.8 SE 0.46 29.6 -23.9 --- --- 733.5 0.021 0.000 8.0 5 1
02/26/06 11:43 p -11.6 -11.5 -11.6 --- --- 30.4 SE 0.51 32.2 -24.4 --- --- 733.5 0.021 0.000 8.1 5 1
02/26/06 11:44 p -11.5 -11.5 -11.6 --- --- 28.7 SE 0.48 32.2 -24.0 --- --- 733.5 0.021 0.000 8.1 5 1
02/26/06 11:45 p -11.4 -11.4 -11.5 --- --- 30.4 SE 0.51 33.0 -24.2 --- --- 733.6 0.021 0.000 8.1 5 1
02/26/06 11:46 p -11.4 -11.4 -11.5 --- --- 28.7 SE 0.48 33.0 -23.9 --- --- 733.7 0.021 0.000 8.1 5 1
02/26/06 11:47 p -11.4 -11.4 -11.4 --- --- 27.8 SE 0.46 29.6 -23.8 --- --- 733.8 0.021 0.000 8.1 5 1
02/26/06 11:48 p -11.4 -11.4 -11.4 --- --- 26.1 SE 0.43 28.7 -23.5 --- --- 733.7 0.021 0.000 8.1 5 1
02/26/06 11:49 p -11.4 -11.4 -11.4 --- --- 26.1 SE 0.43 27.8 -23.5 --- --- 733.8 0.021 0.000 8.1 5 1
02/26/06 11:50 p -11.4 -11.4 -11.4 --- --- 24.3 SE 0.41 25.2 -23.1 --- --- 733.7 0.021 0.000 8.1 5 1
02/26/06 11:51 p -11.4 -11.4 -11.4 --- --- 25.2 SE 0.42 27.8 -23.3 --- --- 733.8 0.021 0.000 8.1 5 1
02/26/06 11:52 p -11.4 -11.4 -11.4 --- --- 24.3 SE 0.41 27.0 -23.1 --- --- 733.8 0.021 0.000 8.1 5 1
02/26/06 11:53 p -11.3 -11.3 -11.3 --- --- 24.3 ESE 0.41 26.1 -23.0 --- --- 733.7 0.021 0.000 8.1 5 1
02/26/06 11:54 p -11.3 -11.3 -11.3 --- --- 23.5 ESE 0.39 26.1 -22.8 --- --- 733.8 0.021 0.000 8.1 5 1
02/26/06 11:55 p -11.3 -11.3 -11.3 --- --- 26.1 SE 0.43 27.8 -23.3 --- --- 733.8 0.021 0.000 8.1 5 1
02/26/06 11:56 p -11.3 -11.3 -11.3 --- --- 24.3 SE 0.41 27.0 -22.9 --- --- 733.8 0.021 0.000 8.1 5 1
02/26/06 11:57 p -11.3 -11.3 -11.3 --- --- 22.6 SE 0.38 24.3 -22.6 --- --- 733.8 0.021 0.000 8.1 5 1
02/26/06 11:58 p -11.2 -11.2 -11.2 --- --- 24.3 SE 0.41 28.7 -22.9 --- --- 733.8 0.021 0.000 8.1 5 1
02/26/06 11:59 p -11.2 -11.2 -11.2 --- --- 24.3 SE 0.41 26.1 -22.9 --- --- 733.8 0.021 0.000 8.1 6 1
02/27/06 12:00 a -11.2 -11.2 -11.2 --- --- 25.2 SE 0.42 27.0 -22.9 --- --- 733.8 0.020 0.000 8.2 6 1
02/27/06 12:01 a -11.2 -11.2 -11.2 --- --- 26.1 SE 0.43 29.6 -23.1 --- --- 733.8 0.020 0.000 8.2 6 1
02/27/06 12:02 a -11.1 -11.1 -11.2 --- --- 26.1 SE 0.43 28.7 -23.1 --- --- 733.9 0.020 0.000 8.2 6 1
02/27/06 12:03 a -11.1 -11.1 -11.1 --- --- 24.3 SE 0.41 26.1 -22.7 --- --- 733.8 0.020 0.000 8.2 6 1
02/27/06 12:04 a -11.1 -11.1 -11.1 --- --- 26.1 SE 0.43 27.8 -23.1 --- --- 733.9 0.020 0.000 8.2 6 1
02/27/06 12:05 a -11.1 -11.1 -11.1 --- --- 25.2 SE 0.42 26.1 -22.8 --- --- 733.9 0.020 0.000 8.2 6 1
02/27/06 12:06 a -11.1 -11.1 -11.1 --- --- 24.3 ESE 0.41 27.8 -22.7 --- --- 733.7 0.020 0.000 8.2 6 1
02/27/06 12:07 a -11.1 -11.1 -11.1 --- --- 27.0 ESE 0.45 28.7 -23.1 --- --- 733.7 0.020 0.000 20.6 7 1
02/27/06 12:08 a -11.1 -11.1 -11.1 --- --- 26.1 SE 0.43 28.7 -22.9 --- --- 733.7 0.020 0.000 20.9 7 1
02/27/06 12:09 a -11.1 -11.0 -11.1 --- --- 25.2 SE 0.42 27.0 -22.8 --- --- 733.9 0.020 0.000 20.9 7 1
02/27/06 12:10 a -11.1 -11.1 -11.1 --- --- 24.3 SE 0.41 27.0 -22.7 --- --- 733.8 0.020 0.000 20.8 7 1
02/27/06 12:11 a -11.0 -11.0 -11.1 --- --- 26.1 SE 0.43 28.7 -22.9 --- --- 733.8 0.020 0.000 20.8 6 1
02/27/06 12:12 a -11.0 -11.0 -11.1 --- --- 26.1 SE 0.43 27.0 -22.9 --- --- 733.8 0.020 0.000 20.7 6 1
02/27/06 12:13 a -11.1 -11.0 -11.1 --- --- 23.5 SE 0.39 25.2 -22.5 --- --- 733.9 0.020 0.000 20.7 6 1
02/27/06 12:14 a -11.0 -11.0 -11.0 --- --- 23.5 SE 0.39 24.3 -22.4 --- --- 733.9 0.020 0.000 20.7 6 1
02/27/06 12:15 a -11.0 -11.0 -11.0 --- --- 23.5 SE 0.39 26.1 -22.4 --- --- 733.9 0.020 0.000 20.7 6 1
02/27/06 12:16 a -11.0 -11.0 -11.0 --- --- 24.3 SE 0.41 26.1 -22.6 --- --- 733.9 0.020 0.000 20.6 6 1
02/27/06 12:17 a -11.0 -11.0 -11.1 --- --- 25.2 SE 0.42 27.8 -22.7 --- --- 733.8 0.020 0.000 20.6 6 1
02/27/06 12:18 a -11.1 -11.1 -11.1 --- --- 27.0 SE 0.45 28.7 -23.1 --- --- 733.7 0.020 0.000 20.6 6 1
02/27/06 12:19 a -11.1 -11.1 -11.1 --- --- 25.2 SE 0.42 27.8 -22.8 --- --- 733.9 0.020 0.000 20.6 6 1
02/27/06 12:20 a -11.1 -11.1 -11.1 --- --- 27.8 SE 0.46 29.6 -23.3 --- --- 733.7 0.020 0.000 20.6 6 1
02/27/06 12:21 a -11.1 -11.1 -11.1 --- --- 27.0 SE 0.45 28.7 -23.2 --- --- 733.7 0.020 0.000 20.6 6 1
02/27/06 12:22 a -11.1 -11.1 -11.1 --- --- 27.0 SE 0.45 29.6 -23.2 --- --- 733.7 0.020 0.000 20.6 6 1
02/27/06 12:23 a -11.1 -11.1 -11.1 --- --- 24.3 SE 0.41 27.0 -22.7 --- --- 733.8 0.020 0.000 20.6 6 1
02/27/06 12:24 a -11.1 -11.1 -11.1 --- --- 26.1 SE 0.43 28.7 -23.1 --- --- 733.8 0.020 0.000 20.6 6 1
02/27/06 12:25 a -11.1 -11.1 -11.1 --- --- 26.1 SE 0.43 28.7 -23.1 --- --- 733.8 0.020 0.000 20.6 6 1
02/27/06 12:26 a -11.2 -11.1 -11.2 --- --- 24.3 SE 0.41 27.0 -22.8 --- --- 733.8 0.020 0.000 20.6 6 1
02/27/06 12:27 a -11.1 -11.1 -11.2 --- --- 25.2 SE 0.42 27.8 -22.9 --- --- 733.7 0.020 0.000 20.6 6 1
02/27/06 12:28 a -11.2 -11.2 -11.2 --- --- 25.2 SE 0.42 27.8 -22.9 --- --- 733.7 0.020 0.000 20.6 6 1
02/27/06 12:29 a -11.2 -11.2 -11.2 --- --- 23.5 SE 0.39 24.3 -22.7 --- --- 733.9 0.021 0.000 20.6 6 1
02/27/06 12:30 a -11.2 -11.2 -11.2 --- --- 24.3 SE 0.41 27.0 -22.9 --- --- 733.7 0.021 0.000 20.6 6 1
02/27/06 12:31 a -11.2 -11.2 -11.2 --- --- 25.2 SE 0.42 27.0 -23.1 --- --- 733.8 0.021 0.000 20.6 6 1
02/27/06 12:32 a -11.2 -11.2 -11.3 --- --- 25.2 SE 0.42 27.0 -23.1 --- --- 733.9 0.021 0.000 20.6 6 1
02/27/06 12:33 a -11.2 -11.2 -11.3 --- --- 24.3 SE 0.41 26.1 -22.9 --- --- 733.8 0.021 0.000 20.6 6 1
02/27/06 12:34 a -11.2 -11.2 -11.3 --- --- 24.3 SE 0.41 26.1 -22.9 --- --- 733.8 0.021 0.000 20.6 6 1
02/27/06 12:35 a -11.2 -11.2 -11.3 --- --- 26.1 SE 0.43 27.8 -23.2 --- --- 733.8 0.021 0.000 20.6 6 1
02/27/06 12:36 a -11.3 -11.2 -11.3 --- --- 26.1 SE 0.43 28.7 -23.3 --- --- 733.8 0.021 0.000 20.6 6 1
02/27/06 12:37 a -11.2 -11.2 -11.3 --- --- 27.0 SE 0.45 28.7 -23.3 --- --- 733.9 0.021 0.000 20.6 6 1
02/27/06 12:38 a -11.3 -11.3 -11.3 --- --- 27.0 SE 0.45 30.4 -23.4 --- --- 733.8 0.021 0.000 20.7 6 1
02/27/06 12:39 a -11.3 -11.3 -11.3 --- --- 27.0 SE 0.45 29.6 -23.4 --- --- 733.8 0.021 0.000 20.7 6 1
02/27/06 12:40 a -11.3 -11.3 -11.3 --- --- 26.1 SE 0.43 27.8 -23.3 --- --- 733.8 0.021 0.000 20.7 6 1
02/27/06 12:41 a -11.3 -11.3 -11.3 --- --- 26.1 SE 0.43 27.8 -23.3 --- --- 733.8 0.021 0.000 20.7 6 1
02/27/06 12:42 a -11.3 -11.3 -11.3 --- --- 26.1 SE 0.43 27.0 -23.3 --- --- 733.7 0.021 0.000 20.7 6 1
02/27/06 12:43 a -11.3 -11.3 -11.3 --- --- 26.1 SE 0.43 28.7 -23.3 --- --- 733.8 0.021 0.000 20.7 6 1
02/27/06 12:44 a -11.3 -11.3 -11.3 --- --- 25.2 SE 0.42 28.7 -23.1 --- --- 733.7 0.021 0.000 20.7 6 1
02/27/06 12:45 a -11.3 -11.3 -11.3 --- --- 26.1 SE 0.43 28.7 -23.3 --- --- 733.8 0.021 0.000 20.7 6 1
02/27/06 12:46 a -11.3 -11.3 -11.3 --- --- 24.3 SE 0.41 27.0 -22.9 --- --- 733.7 0.021 0.000 20.7 6 1
02/27/06 12:47 a -11.3 -11.3 -11.3 --- --- 24.3 SE 0.41 26.1 -22.9 --- --- 733.7 0.021 0.000 20.7 6 1
02/27/06 12:48 a -11.3 -11.3 -11.3 --- --- 23.5 SE 0.39 25.2 -22.8 --- --- 733.7 0.021 0.000 20.7 6 1
02/27/06 12:49 a -11.3 -11.3 -11.3 --- --- 23.5 SE 0.39 25.2 -22.8 --- --- 733.6 0.021 0.000 20.7 6 1
02/27/06 12:50 a -11.3 -11.3 -11.3 --- --- 22.6 SE 0.38 25.2 -22.7 --- --- 733.7 0.021 0.000 20.7 6 1
02/27/06 12:51 a -11.3 -11.3 -11.3 --- --- 22.6 SE 0.38 23.5 -22.6 --- --- 733.7 0.021 0.000 20.7 6 1
02/27/06 12:52 a -11.3 -11.3 -11.3 --- --- 23.5 SE 0.39 25.2 -22.8 --- --- 733.7 0.021 0.000 20.7 6 1
02/27/06 12:53 a -11.3 -11.3 -11.3 --- --- 22.6 ESE 0.38 25.2 -22.7 --- --- 733.8 0.021 0.000 20.7 6 1
02/27/06 12:54 a -11.3 -11.3 -11.3 --- --- 22.6 ESE 0.38 24.3 -22.6 --- --- 733.7 0.021 0.000 20.7 6 1
02/27/06 12:55 a -11.3 -11.2 -11.3 --- --- 23.5 SE 0.39 24.3 -22.8 --- --- 733.8 0.021 0.000 20.7 6 1
02/27/06 12:56 a -11.3 -11.2 -11.3 --- --- 21.7 SE 0.36 23.5 -22.4 --- --- 733.8 0.021 0.000 20.7 6 1
02/27/06 12:57 a -11.2 -11.2 -11.3 --- --- 21.7 ESE 0.36 23.5 -22.3 --- --- 733.8 0.021 0.000 20.7 6 1
02/27/06 12:58 a -11.2 -11.2 -11.2 --- --- 22.6 SE 0.38 23.5 -22.5 --- --- 733.8 0.021 0.000 20.8 6 1
02/27/06 12:59 a -11.2 -11.2 -11.2 --- --- 22.6 SE 0.38 23.5 -22.4 --- --- 733.8 0.020 0.000 20.8 6 1
02/27/06 1:00 a -11.2 -11.2 -11.2 --- --- 23.5 SE 0.39 24.3 -22.6 --- --- 733.8 0.020 0.000 20.8 6 1
02/27/06 1:01 a -11.2 -11.2 -11.2 --- --- 22.6 SE 0.38 23.5 -22.4 --- --- 733.7 0.020 0.000 20.8 6 1
02/27/06 1:02 a -11.2 -11.2 -11.2 --- --- 21.7 SE 0.36 23.5 -22.3 --- --- 733.8 0.020 0.000 20.8 6 1
02/27/06 1:03 a -11.1 -11.1 -11.2 --- --- 21.7 ESE 0.36 23.5 -22.2 --- --- 733.8 0.020 0.000 20.8 6 1
02/27/06 1:04 a -11.1 -11.1 -11.1 --- --- 22.6 ESE 0.38 24.3 -22.4 --- --- 733.7 0.020 0.000 20.8 6 1
02/27/06 1:05 a -11.1 -11.1 -11.1 --- --- 22.6 ESE 0.38 24.3 -22.4 --- --- 733.7 0.020 0.000 20.8 6 1
02/27/06 1:06 a -11.1 -11.1 -11.1 --- --- 21.7 ESE 0.36 22.6 -22.1 --- --- 733.8 0.020 0.000 20.8 6 1
02/27/06 1:07 a -11.1 -11.1 -11.1 --- --- 22.6 ESE 0.38 23.5 -22.3 --- --- 733.9 0.020 0.000 20.8 6 1
02/27/06 1:08 a -11.1 -11.0 -11.1 --- --- 22.6 ESE 0.38 24.3 -22.3 --- --- 733.8 0.020 0.000 20.8 6 1
02/27/06 1:09 a -11.0 -11.0 -11.1 --- --- 22.6 ESE 0.38 23.5 -22.2 --- --- 733.9 0.020 0.000 20.8 6 1
02/27/06 1:10 a -11.0 -11.0 -11.0 --- --- 22.6 SE 0.38 23.5 -22.2 --- --- 733.9 0.020 0.000 20.8 6 1
02/27/06 1:11 a -11.0 -11.0 -11.0 --- --- 20.9 ESE 0.35 22.6 -21.8 --- --- 734.0 0.020 0.000 20.8 6 1
02/27/06 1:12 a -10.9 -10.9 -11.0 --- --- 21.7 ESE 0.36 22.6 -21.9 --- --- 733.9 0.020 0.000 20.8 6 1
02/27/06 1:13 a -10.9 -10.9 -10.9 --- --- 20.9 ESE 0.35 22.6 -21.8 --- --- 734.0 0.020 0.000 20.8 6 1
02/27/06 1:14 a -10.9 -10.9 -10.9 --- --- 20.9 ESE 0.35 23.5 -21.7 --- --- 733.9 0.020 0.000 20.8 6 1
02/27/06 1:15 a -10.9 -10.9 -10.9 --- --- 22.6 ESE 0.38 24.3 -22.1 --- --- 733.9 0.020 0.000 20.8 6 1
02/27/06 1:16 a -10.9 -10.9 -10.9 --- --- 21.7 ESE 0.36 24.3 -21.9 --- --- 733.9 0.020 0.000 20.8 6 1
02/27/06 1:17 a -10.9 -10.9 -10.9 --- --- 22.6 ESE 0.38 24.3 -22.1 --- --- 733.9 0.020 0.000 20.8 6 1
02/27/06 1:18 a -10.9 -10.9 -10.9 --- --- 22.6 ESE 0.38 24.3 -22.1 --- --- 734.0 0.020 0.000 20.8 6 1
02/27/06 1:19 a -10.8 -10.8 -10.8 --- --- 22.6 ESE 0.38 25.2 -22.0 --- --- 733.9 0.020 0.000 20.8 6 1
02/27/06 1:20 a -10.8 -10.8 -10.8 --- --- 20.0 ESE 0.33 21.7 -21.4 --- --- 734.1 0.020 0.000 20.8 6 1
02/27/06 1:21 a -10.8 -10.8 -10.8 --- --- 19.1 ESE 0.32 20.9 -21.3 --- --- 734.1 0.020 0.000 20.8 6 1
02/27/06 1:22 a -10.8 -10.8 -10.8 --- --- 18.3 ESE 0.30 20.9 -21.1 --- --- 734.0 0.020 0.000 20.8 6 1
02/27/06 1:23 a -10.8 -10.8 -10.8 --- --- 17.4 E 0.29 21.7 -20.8 --- --- 734.1 0.020 0.000 20.8 6 1
02/27/06 1:24 a -10.8 -10.8 -10.8 --- --- 17.4 E 0.29 20.9 -20.8 --- --- 734.0 0.020 0.000 20.8 6 1
02/27/06 1:25 a -10.8 -10.8 -10.8 --- --- 18.3 E 0.30 20.9 -20.9 --- --- 734.0 0.020 0.000 20.9 6 1
02/27/06 1:26 a -10.8 -10.8 -10.8 --- --- 20.9 E 0.35 23.5 -21.6 --- --- 734.0 0.020 0.000 20.8 6 1
02/27/06 1:27 a -10.8 -10.7 -10.8 --- --- 18.3 E 0.30 21.7 -20.9 --- --- 734.0 0.020 0.000 20.9 6 1
02/27/06 1:28 a -10.7 -10.7 -10.8 --- --- 18.3 E 0.30 22.6 -20.9 --- --- 734.1 0.020 0.000 20.9 6 1
02/27/06 1:29 a -10.7 -10.7 -10.8 --- --- 15.7 E 0.26 20.0 -20.2 --- --- 734.0 0.020 0.000 20.9 6 1
02/27/06 1:30 a -10.7 -10.7 -10.7 --- --- 19.1 E 0.32 22.6 -21.1 --- --- 734.0 0.020 0.000 20.9 6 1
02/27/06 1:31 a -10.7 -10.7 -10.7 --- --- 17.4 E 0.29 21.7 -20.7 --- --- 734.0 0.020 0.000 20.9 6 1
02/27/06 1:32 a -10.7 -10.7 -10.7 --- --- 20.0 E 0.33 23.5 -21.3 --- --- 734.1 0.020 0.000 20.9 6 1
02/27/06 1:33 a -10.7 -10.7 -10.7 --- --- 18.3 E 0.30 21.7 -20.9 --- --- 734.0 0.020 0.000 20.9 6 1
02/27/06 1:34 a -10.7 -10.7 -10.7 --- --- 18.3 E 0.30 23.5 -20.9 --- --- 734.1 0.020 0.000 20.9 6 1
02/27/06 1:35 a -10.7 -10.7 -10.7 --- --- 19.1 E 0.32 21.7 -21.1 --- --- 734.1 0.020 0.000 20.9 6 1
02/27/06 1:36 a -10.7 -10.7 -10.7 --- --- 20.9 ESE 0.35 24.3 -21.5 --- --- 734.1 0.020 0.000 20.9 6 1
02/27/06 1:37 a -10.7 -10.7 -10.7 --- --- 18.3 E 0.30 21.7 -20.9 --- --- 734.0 0.020 0.000 20.9 6 1
02/27/06 1:38 a -10.7 -10.7 -10.7 --- --- 17.4 E 0.29 21.7 -20.7 --- --- 734.0 0.020 0.000 20.9 6 1
02/27/06 1:39 a -10.7 -10.7 -10.8 --- --- 17.4 E 0.29 20.9 -20.7 --- --- 734.0 0.020 0.000 20.9 6 1
02/27/06 1:40 a -10.7 -10.7 -10.8 --- --- 18.3 E 0.30 21.7 -20.9 --- --- 734.0 0.020 0.000 20.9 6 1
02/27/06 1:41 a -10.7 -10.7 -10.8 --- --- 17.4 E 0.29 21.7 -20.7 --- --- 734.0 0.020 0.000 20.9 6 1
02/27/06 1:42 a -10.8 -10.7 -10.8 --- --- 18.3 E 0.30 21.7 -20.9 --- --- 734.1 0.020 0.000 20.9 6 1
02/27/06 1:43 a -10.7 -10.7 -10.8 --- --- 20.0 E 0.33 21.7 -21.3 --- --- 734.1 0.020 0.000 20.9 6 1
02/27/06 1:44 a -10.8 -10.8 -10.8 --- --- 22.6 E 0.38 25.2 -21.9 --- --- 734.0 0.020 0.000 20.9 6 1
02/27/06 1:45 a -10.8 -10.7 -10.8 --- --- 22.6 E 0.38 25.2 -21.9 --- --- 734.0 0.020 0.000 20.9 6 1
02/27/06 1:46 a -10.8 -10.8 -10.8 --- --- 24.3 E 0.41 26.1 -22.3 --- --- 734.0 0.020 0.000 20.9 6 1
02/27/06 1:47 a -10.8 -10.8 -10.8 --- --- 22.6 ESE 0.38 26.1 -22.0 --- --- 734.1 0.020 0.000 20.9 6 1
02/27/06 1:48 a -10.8 -10.8 -10.8 --- --- 24.3 ESE 0.41 27.0 -22.3 --- --- 734.0 0.020 0.000 20.9 6 1
02/27/06 1:49 a -10.8 -10.8 -10.8 --- --- 25.2 ESE 0.42 27.0 -22.5 --- --- 734.0 0.020 0.000 21.0 6 1
02/27/06 1:50 a -10.8 -10.8 -10.8 --- --- 24.3 ESE 0.41 26.1 -22.3 --- --- 734.1 0.020 0.000 21.0 6 1
02/27/06 1:51 a -10.9 -10.8 -10.9 --- --- 24.3 ESE 0.41 27.0 -22.4 --- --- 734.1 0.020 0.000 21.0 6 1
02/27/06 1:52 a -10.9 -10.9 -10.9 --- --- 24.3 SE 0.41 26.1 -22.4 --- --- 734.2 0.020 0.000 21.0 6 1
02/27/06 1:53 a -10.9 -10.9 -10.9 --- --- 24.3 SE 0.41 26.1 -22.4 --- --- 734.2 0.020 0.000 21.0 6 1
02/27/06 1:54 a -10.9 -10.9 -10.9 --- --- 25.2 SE 0.42 27.8 -22.7 --- --- 734.1 0.020 0.000 21.0 6 1
02/27/06 1:55 a -10.9 -10.9 -10.9 --- --- 25.2 SE 0.42 27.0 -22.7 --- --- 734.1 0.020 0.000 21.0 6 1
02/27/06 1:56 a -10.9 -10.9 -10.9 --- --- 24.3 SE 0.41 26.1 -22.5 --- --- 734.1 0.020 0.000 21.0 6 1
02/27/06 1:57 a -10.9 -10.9 -11.0 --- --- 23.5 SE 0.39 26.1 -22.3 --- --- 734.1 0.020 0.000 21.0 6 1
02/27/06 1:58 a -11.0 -11.0 -11.0 --- --- 24.3 SE 0.41 27.0 -22.6 --- --- 734.1 0.020 0.000 21.0 6 1
02/27/06 1:59 a -11.0 -11.0 -11.0 --- --- 25.2 SE 0.42 28.7 -22.7 --- --- 734.1 0.020 0.000 21.0 6 1
02/27/06 2:00 a -11.0 -11.0 -11.0 --- --- 23.5 SE 0.39 27.0 -22.4 --- --- 734.1 0.020 0.000 21.0 6 1
02/27/06 2:01 a -11.0 -11.0 -11.1 --- --- 24.3 SE 0.41 26.1 -22.6 --- --- 734.2 0.020 0.000 21.0 6 1
02/27/06 2:02 a -11.0 -11.0 -11.1 --- --- 23.5 SE 0.39 25.2 -22.4 --- --- 734.2 0.020 0.000 21.0 6 1
02/27/06 2:03 a -11.1 -11.0 -11.1 --- --- 25.2 SE 0.42 27.8 -22.8 --- --- 734.2 0.020 0.000 21.0 6 1
02/27/06 2:04 a -11.1 -11.1 -11.1 --- --- 24.3 SE 0.41 27.0 -22.7 --- --- 734.3 0.020 0.000 21.0 6 1
02/27/06 2:05 a -11.1 -11.1 -11.1 --- --- 24.3 SE 0.41 26.1 -22.7 --- --- 734.2 0.020 0.000 21.0 6 1
02/27/06 2:06 a -11.1 -11.1 -11.1 --- --- 22.6 SE 0.38 23.5 -22.3 --- --- 734.3 0.020 0.000 21.1 6 1
02/27/06 2:07 a -11.1 -11.1 -11.1 --- --- 23.5 SE 0.39 24.3 -22.6 --- --- 734.2 0.020 0.000 21.0 6 1
02/27/06 2:08 a -11.1 -11.1 -11.1 --- --- 22.6 SE 0.38 24.3 -22.4 --- --- 734.2 0.020 0.000 21.0 6 1
02/27/06 2:09 a -11.1 -11.1 -11.1 --- --- 25.2 SE 0.42 26.1 -22.9 --- --- 734.2 0.020 0.000 21.0 6 1
02/27/06 2:10 a -11.1 -11.1 -11.1 --- --- 24.3 SE 0.41 27.0 -22.7 --- --- 734.2 0.020 0.000 21.0 6 1
02/27/06 2:11 a -11.1 -11.1 -11.1 --- --- 25.2 SE 0.42 27.0 -22.9 --- --- 734.1 0.020 0.000 21.1 6 1
02/27/06 2:12 a -11.2 -11.1 -11.2 --- --- 24.3 SE 0.41 26.1 -22.8 --- --- 734.1 0.020 0.000 21.1 6 1
02/27/06 2:13 a -11.2 -11.2 -11.2 --- --- 24.3 SE 0.41 27.0 -22.8 --- --- 734.2 0.020 0.000 21.1 6 1
02/27/06 2:14 a -11.2 -11.1 -11.2 --- --- 24.3 SE 0.41 26.1 -22.8 --- --- 734.1 0.020 0.000 21.1 6 1
02/27/06 2:15 a -11.2 -11.2 -11.2 --- --- 27.0 SE 0.45 28.7 -23.3 --- --- 734.2 0.020 0.000 21.1 6 1
02/27/06 2:16 a -11.2 -11.2 -11.2 --- --- 27.0 SE 0.45 28.7 -23.3 --- --- 734.1 0.021 0.000 21.1 6 1
02/27/06 2:17 a -11.2 -11.2 -11.2 --- --- 26.1 SE 0.43 27.8 -23.2 --- --- 734.2 0.021 0.000 21.1 6 1
02/27/06 2:18 a -11.2 -11.2 -11.2 --- --- 27.0 SE 0.45 27.8 -23.3 --- --- 734.2 0.021 0.000 21.1 6 1
02/27/06 2:19 a -11.2 -11.2 -11.2 --- --- 27.0 SE 0.45 29.6 -23.3 --- --- 734.0 0.021 0.000 21.1 6 1
02/27/06 2:20 a -11.2 -11.2 -11.3 --- --- 27.0 SE 0.45 30.4 -23.3 --- --- 734.1 0.021 0.000 21.1 6 1
02/27/06 2:21 a -11.2 -11.2 -11.3 --- --- 27.8 SE 0.46 30.4 -23.5 --- --- 734.0 0.021 0.000 21.1 6 1
02/27/06 2:22 a -11.3 -11.3 -11.3 --- --- 28.7 SE 0.48 32.2 -23.7 --- --- 734.1 0.021 0.000 21.1 6 1
02/27/06 2:23 a -11.3 -11.3 -11.3 --- --- 27.0 SE 0.45 29.6 -23.4 --- --- 734.0 0.021 0.000 21.1 6 1
02/27/06 2:24 a -11.3 -11.3 -11.3 --- --- 27.8 SE 0.46 29.6 -23.6 --- --- 734.0 0.021 0.000 21.1 6 1
02/27/06 2:25 a -11.3 -11.3 -11.3 --- --- 27.0 SE 0.45 28.7 -23.4 --- --- 734.1 0.021 0.000 21.1 6 1
02/27/06 2:26 a -11.3 -11.3 -11.3 --- --- 27.0 SE 0.45 30.4 -23.4 --- --- 734.1 0.021 0.000 21.1 6 1
02/27/06 2:27 a -11.3 -11.3 -11.3 --- --- 29.6 SE 0.49 31.3 -23.8 --- --- 734.0 0.021 0.000 21.1 6 1
02/27/06 2:28 a -11.3 -11.3 -11.3 --- --- 28.7 SE 0.48 30.4 -23.8 --- --- 734.0 0.021 0.000 21.1 6 1
02/27/06 2:29 a -11.3 -11.3 -11.3 --- --- 28.7 SE 0.48 30.4 -23.8 --- --- 734.1 0.021 0.000 21.1 6 1
02/27/06 2:30 a -11.3 -11.3 -11.4 --- --- 26.1 SE 0.43 27.8 -23.3 --- --- 734.0 0.021 0.000 21.1 6 1
02/27/06 2:31 a -11.3 -11.3 -11.4 --- --- 29.6 SE 0.49 33.0 -23.9 --- --- 734.0 0.021 0.000 21.1 6 1
02/27/06 2:32 a -11.4 -11.4 -11.4 --- --- 28.7 SE 0.48 30.4 -23.9 --- --- 734.0 0.021 0.000 21.1 6 1
02/27/06 2:33 a -11.4 -11.4 -11.4 --- --- 28.7 SE 0.48 31.3 -23.9 --- --- 734.0 0.021 0.000 21.1 6 1
02/27/06 2:34 a -11.4 -11.4 -11.4 --- --- 29.6 SE 0.49 31.3 -24.0 --- --- 734.0 0.021 0.000 21.1 6 1
02/27/06 2:35 a -11.4 -11.4 -11.4 --- --- 28.7 SE 0.48 32.2 -23.9 --- --- 734.1 0.021 0.000 21.1 6 1
02/27/06 2:36 a -11.4 -11.4 -11.4 --- --- 28.7 SE 0.48 30.4 -23.9 --- --- 734.1 0.021 0.000 21.1 6 1
02/27/06 2:37 a -11.4 -11.4 -11.4 --- --- 28.7 SE 0.48 31.3 -23.9 --- --- 734.0 0.021 0.000 21.1 6 1
02/27/06 2:38 a -11.4 -11.4 -11.4 --- --- 27.8 ESE 0.46 32.2 -23.8 --- --- 734.1 0.021 0.000 21.1 6 1
02/27/06 2:39 a -11.4 -11.4 -11.4 --- --- 28.7 SE 0.48 31.3 -23.9 --- --- 734.0 0.021 0.000 21.1 6 1
02/27/06 2:40 a -11.5 -11.5 -11.5 --- --- 28.7 SE 0.48 31.3 -24.0 --- --- 734.1 0.021 0.000 21.1 6 1
02/27/06 2:41 a -11.5 -11.5 -11.5 --- --- 29.6 SE 0.49 32.2 -24.2 --- --- 734.0 0.021 0.000 21.1 6 1
02/27/06 2:42 a -11.5 -11.5 -11.5 --- --- 27.0 SE 0.45 28.7 -23.7 --- --- 734.0 0.021 0.000 21.1 6 1
02/27/06 2:43 a -11.5 -11.5 -11.5 --- --- 27.8 SE 0.46 29.6 -23.9 --- --- 734.1 0.021 0.000 21.1 6 1
02/27/06 2:44 a -11.5 -11.5 -11.6 --- --- 28.7 ESE 0.48 32.2 -24.0 --- --- 734.1 0.021 0.000 21.1 6 1
02/27/06 2:45 a -11.6 -11.5 -11.6 --- --- 27.0 SE 0.45 31.3 -23.8 --- --- 734.1 0.021 0.000 21.2 6 1
02/27/06 2:46 a -11.6 -11.6 -11.6 --- --- 28.7 SE 0.48 30.4 -24.1 --- --- 734.0 0.021 0.000 21.2 6 1
02/27/06 2:47 a -11.6 -11.6 -11.6 --- --- 26.1 SE 0.43 27.8 -23.7 --- --- 734.2 0.021 0.000 21.2 6 1
02/27/06 2:48 a -11.6 -11.6 -11.6 --- --- 28.7 SE 0.48 30.4 -24.1 --- --- 734.1 0.021 0.000 21.2 6 1
02/27/06 2:49 a -11.6 -11.6 -11.6 --- --- 27.0 SE 0.45 29.6 -23.8 --- --- 734.2 0.021 0.000 21.2 6 1
02/27/06 2:50 a -11.6 -11.6 -11.6 --- --- 25.2 SE 0.42 27.8 -23.6 --- --- 734.2 0.021 0.000 21.2 6 1
02/27/06 2:51 a -11.6 -11.6 -11.6 --- --- 26.1 SE 0.43 29.6 -23.7 --- --- 734.1 0.021 0.000 21.2 6 1
02/27/06 2:52 a -11.6 -11.6 -11.6 --- --- 27.0 SE 0.45 27.8 -23.9 --- --- 734.2 0.021 0.000 21.2 6 1
02/27/06 2:53 a -11.6 -11.6 -11.6 --- --- 26.1 SE 0.43 29.6 -23.7 --- --- 734.1 0.021 0.000 21.2 6 1
02/27/06 2:54 a -11.6 -11.6 -11.7 --- --- 26.1 SE 0.43 28.7 -23.7 --- --- 734.1 0.021 0.000 21.2 6 1
02/27/06 2:55 a -11.6 -11.6 -11.7 --- --- 25.2 SE 0.42 28.7 -23.6 --- --- 734.1 0.021 0.000 21.2 6 1
02/27/06 2:56 a -11.7 -11.7 -11.7 --- --- 25.2 SE 0.42 27.0 -23.6 --- --- 734.2 0.021 0.000 21.2 6 1
02/27/06 2:57 a -11.7 -11.7 -11.7 --- --- 27.0 SE 0.45 30.4 -23.9 --- --- 734.1 0.021 0.000 21.2 6 1
02/27/06 2:58 a -11.7 -11.7 -11.7 --- --- 26.1 SE 0.43 27.8 -23.8 --- --- 734.1 0.021 0.000 21.2 6 1
02/27/06 2:59 a -11.7 -11.7 -11.7 --- --- 24.3 SE 0.41 26.1 -23.4 --- --- 734.2 0.021 0.000 21.2 6 1
02/27/06 3:00 a -11.7 -11.7 -11.7 --- --- 26.1 SE 0.43 27.0 -23.8 --- --- 734.2 0.021 0.000 21.2 6 1
02/27/06 3:01 a -11.7 -11.7 -11.7 --- --- 25.2 SE 0.42 28.7 -23.6 --- --- 734.2 0.021 0.000 21.2 6 1
02/27/06 3:02 a -11.7 -11.7 -11.7 --- --- 25.2 SE 0.42 28.7 -23.6 --- --- 734.1 0.021 0.000 21.2 6 1
02/27/06 3:03 a -11.7 -11.7 -11.7 --- --- 26.1 SE 0.43 27.8 -23.9 --- --- 734.2 0.021 0.000 21.2 6 1
02/27/06 3:04 a -11.7 -11.7 -11.7 --- --- 27.0 SE 0.45 29.6 -24.0 --- --- 734.1 0.021 0.000 21.2 6 1
02/27/06 3:05 a -11.7 -11.7 -11.7 --- --- 26.1 SE 0.43 28.7 -23.9 --- --- 734.2 0.021 0.000 21.2 6 1
02/27/06 3:06 a -11.7 -11.7 -11.7 --- --- 23.5 ESE 0.39 27.0 -23.4 --- --- 734.3 0.021 0.000 21.2 6 1
02/27/06 3:07 a -11.7 -11.7 -11.7 --- --- 24.3 ESE 0.41 27.0 -23.6 --- --- 734.2 0.021 0.000 21.2 6 1
02/27/06 3:08 a -11.7 -11.7 -11.7 --- --- 23.5 ESE 0.39 25.2 -23.4 --- --- 734.1 0.021 0.000 21.2 6 1
02/27/06 3:09 a -11.7 -11.7 -11.8 --- --- 22.6 ESE 0.38 23.5 -23.2 --- --- 734.2 0.021 0.000 21.2 6 1
02/27/06 3:10 a -11.8 -11.7 -11.8 --- --- 23.5 ESE 0.39 26.1 -23.4 --- --- 734.1 0.021 0.000 21.2 6 1
02/27/06 3:11 a -11.7 -11.7 -11.8 --- --- 22.6 ESE 0.38 30.4 -23.2 --- --- 734.1 0.021 0.000 21.2 6 1
02/27/06 3:12 a -11.8 -11.8 -11.8 --- --- 26.1 ESE 0.43 29.6 -23.9 --- --- 734.1 0.021 0.000 21.2 6 1
02/27/06 3:13 a -11.8 -11.8 -11.8 --- --- 26.1 ESE 0.43 30.4 -23.9 --- --- 734.1 0.021 0.000 21.2 6 1
02/27/06 3:14 a -11.8 -11.8 -11.8 --- --- 25.2 ESE 0.42 27.8 -23.8 --- --- 734.1 0.021 0.000 21.2 6 1
02/27/06 3:15 a -11.8 -11.8 -11.8 --- --- 26.1 ESE 0.43 28.7 -23.9 --- --- 734.1 0.021 0.000 21.2 6 1
02/27/06 3:16 a -11.8 -11.8 -11.8 --- --- 27.0 ESE 0.45 31.3 -24.1 --- --- 734.1 0.021 0.000 21.2 6 1
02/27/06 3:17 a -11.8 -11.8 -11.8 --- --- 26.1 ESE 0.43 27.8 -23.9 --- --- 734.1 0.021 0.000 21.2 6 1
02/27/06 3:18 a -11.8 -11.8 -11.8 --- --- 26.1 ESE 0.43 27.8 -24.0 --- --- 734.2 0.021 0.000 21.2 6 1
02/27/06 3:19 a -11.8 -11.8 -11.8 --- --- 27.0 ESE 0.45 29.6 -24.2 --- --- 734.0 0.021 0.000 21.2 6 1
02/27/06 3:20 a -11.8 -11.8 -11.8 --- --- 26.1 ESE 0.43 27.8 -24.0 --- --- 734.2 0.021 0.000 21.2 6 1
02/27/06 3:21 a -11.8 -11.8 -11.8 --- --- 20.0 E 0.33 24.3 -22.8 --- --- 734.2 0.021 0.000 21.2 6 1
02/27/06 3:22 a -11.9 -11.8 -11.9 --- --- 20.9 E 0.35 25.2 -23.1 --- --- 734.2 0.021 0.000 21.2 6 1
02/27/06 3:23 a -11.9 -11.9 -11.9 --- --- 21.7 E 0.36 25.2 -23.2 --- --- 734.2 0.021 0.000 21.2 6 1
02/27/06 3:24 a -11.9 -11.9 -11.9 --- --- 21.7 E 0.36 25.2 -23.2 --- --- 734.2 0.021 0.000 21.2 6 1
02/27/06 3:25 a -11.9 -11.9 -11.9 --- --- 22.6 E 0.38 27.0 -23.4 --- --- 734.1 0.021 0.000 21.2 6 1
02/27/06 3:26 a -11.9 -11.9 -11.9 --- --- 21.7 E 0.36 24.3 -23.2 --- --- 734.0 0.021 0.000 21.2 6 1
02/27/06 3:27 a -11.9 -11.9 -11.9 --- --- 23.5 E 0.39 27.0 -23.7 --- --- 734.1 0.021 0.000 21.2 6 1
02/27/06 3:28 a -11.9 -11.9 -11.9 --- --- 21.7 E 0.36 24.3 -23.3 --- --- 734.1 0.021 0.000 21.2 6 1
02/27/06 3:29 a -11.9 -11.9 -12.0 --- --- 23.5 E 0.39 27.8 -23.7 --- --- 734.1 0.021 0.000 21.2 6 1
02/27/06 3:30 a -11.9 -11.9 -12.0 --- --- 23.5 ESE 0.39 27.8 -23.7 --- --- 734.1 0.021 0.000 21.1 6 1
02/27/06 3:31 a -12.0 -12.0 -12.0 --- --- 24.3 E 0.41 27.0 -23.9 --- --- 734.0 0.021 0.000 21.1 6 1
02/27/06 3:32 a -12.1 -12.0 -12.1 --- --- 23.5 E 0.39 27.8 -23.8 --- --- 734.1 0.021 0.000 21.1 6 1
02/27/06 3:33 a -12.1 -12.0 -12.1 --- --- 24.3 E 0.41 27.8 -24.0 --- --- 734.0 0.021 0.000 21.1 6 1
02/27/06 3:34 a -12.1 -12.1 -12.1 --- --- 20.9 E 0.35 24.3 -23.3 --- --- 734.1 0.021 0.000 21.1 6 1
02/27/06 3:35 a -12.1 -12.1 -12.1 --- --- 22.6 E 0.38 27.0 -23.7 --- --- 734.0 0.021 0.000 21.2 6 1
02/27/06 3:36 a -12.1 -12.1 -12.1 --- --- 20.9 E 0.35 26.1 -23.3 --- --- 734.0 0.021 0.000 21.2 6 1
02/27/06 3:37 a -12.1 -12.1 -12.1 --- --- 20.9 ESE 0.35 24.3 -23.3 --- --- 734.0 0.021 0.000 21.2 6 1
02/27/06 3:38 a -12.2 -12.1 -12.2 --- --- 21.7 E 0.36 24.3 -23.6 --- --- 734.0 0.021 0.000 21.2 6 1
02/27/06 3:39 a -12.2 -12.2 -12.2 --- --- 20.9 E 0.35 25.2 -23.4 --- --- 734.0 0.021 0.000 21.2 6 1
02/27/06 3:40 a -12.2 -12.2 -12.2 --- --- 21.7 E 0.36 25.2 -23.6 --- --- 734.0 0.021 0.000 21.2 6 1
02/27/06 3:41 a -12.2 -12.2 -12.2 --- --- 20.9 E 0.35 24.3 -23.4 --- --- 734.0 0.021 0.000 21.2 6 1
02/27/06 3:42 a -12.2 -12.2 -12.2 --- --- 21.7 E 0.36 26.1 -23.7 --- --- 734.0 0.021 0.000 21.2 6 1
02/27/06 3:43 a -12.2 -12.2 -12.3 --- --- 20.9 E 0.35 24.3 -23.5 --- --- 733.9 0.021 0.000 21.2 6 1
02/27/06 3:44 a -12.2 -12.2 -12.3 --- --- 23.5 E 0.39 26.1 -24.1 --- --- 734.0 0.021 0.000 21.2 5 1
02/27/06 3:45 a -12.3 -12.3 -12.3 --- --- 20.9 E 0.35 25.2 -23.6 --- --- 734.0 0.021 0.000 21.2 5 1
02/27/06 3:46 a -12.3 -12.3 -12.3 --- --- 21.7 E 0.36 25.2 -23.8 --- --- 733.9 0.021 0.000 21.2 5 1
02/27/06 3:47 a -12.3 -12.3 -12.3 --- --- 20.0 E 0.33 25.2 -23.4 --- --- 734.0 0.021 0.000 21.2 6 1
02/27/06 3:48 a -12.3 -12.3 -12.3 --- --- 22.6 E 0.38 27.0 -24.0 --- --- 733.9 0.021 0.000 21.2 5 1
02/27/06 3:49 a -12.3 -12.3 -12.4 --- --- 22.6 E 0.38 27.0 -24.0 --- --- 734.0 0.021 0.000 21.2 5 1
02/27/06 3:50 a -12.4 -12.3 -12.4 --- --- 20.0 E 0.33 26.1 -23.5 --- --- 734.0 0.021 0.000 21.2 6 1
02/27/06 3:51 a -12.4 -12.4 -12.4 --- --- 20.0 E 0.33 25.2 -23.5 --- --- 734.0 0.021 0.000 21.2 6 1
02/27/06 3:52 a -12.4 -12.4 -12.4 --- --- 20.0 E 0.33 24.3 -23.5 --- --- 733.9 0.021 0.000 21.2 5 1
02/27/06 3:53 a -12.4 -12.4 -12.4 --- --- 21.7 E 0.36 27.0 -24.0 --- --- 733.9 0.021 0.000 21.2 6 1
02/27/06 3:54 a -12.4 -12.4 -12.5 --- --- 21.7 E 0.36 24.3 -24.0 --- --- 734.0 0.021 0.000 21.2 5 1
02/27/06 3:55 a -12.5 -12.5 -12.5 --- --- 21.7 E 0.36 24.3 -24.1 --- --- 733.9 0.021 0.000 21.2 5 1
02/27/06 3:56 a -12.5 -12.5 -12.6 --- --- 21.7 E 0.36 27.8 -24.1 --- --- 733.9 0.021 0.000 21.2 5 1
02/27/06 3:57 a -12.6 -12.6 -12.6 --- --- 22.6 E 0.38 26.1 -24.3 --- --- 733.9 0.021 0.000 21.2 5 1
02/27/06 3:58 a -12.6 -12.6 -12.6 --- --- 23.5 E 0.39 27.0 -24.5 --- --- 733.8 0.021 0.000 21.2 5 1
02/27/06 3:59 a -12.6 -12.6 -12.7 --- --- 24.3 E 0.41 29.6 -24.7 --- --- 733.9 0.021 0.000 21.2 5 1
02/27/06 4:00 a -12.7 -12.7 -12.7 --- --- 24.3 E 0.41 28.7 -24.8 --- --- 733.9 0.022 0.000 21.2 5 1
02/27/06 4:01 a -12.7 -12.7 -12.7 --- --- 26.1 E 0.43 30.4 -25.2 --- --- 733.8 0.022 0.000 21.2 5 1
02/27/06 4:02 a -12.8 -12.7 -12.8 --- --- 24.3 E 0.41 29.6 -24.9 --- --- 733.8 0.022 0.000 21.2 5 1
02/27/06 4:03 a -12.8 -12.8 -12.8 --- --- 25.2 E 0.42 31.3 -25.1 --- --- 733.9 0.022 0.000 21.2 6 1
02/27/06 4:04 a -12.8 -12.8 -12.8 --- --- 24.3 E 0.41 27.8 -25.1 --- --- 733.9 0.022 0.000 21.2 5 1
02/27/06 4:05 a -12.9 -12.8 -12.9 --- --- 22.6 E 0.38 27.8 -24.8 --- --- 734.0 0.022 0.000 21.2 5 1
02/27/06 4:06 a -12.9 -12.9 -12.9 --- --- 27.0 E 0.45 30.4 -25.7 --- --- 733.9 0.022 0.000 21.2 5 1
02/27/06 4:07 a -13.0 -12.9 -13.1 --- --- 22.6 E 0.38 27.8 -24.9 --- --- 734.0 0.022 0.000 21.2 5 1
02/27/06 4:08 a -13.1 -13.1 -13.1 --- --- 24.3 E 0.41 29.6 -25.3 --- --- 733.9 0.022 0.000 21.2 5 1
02/27/06 4:09 a -13.1 -13.1 -13.1 --- --- 23.5 E 0.39 27.0 -25.2 --- --- 733.9 0.022 0.000 21.2 5 1
02/27/06 4:10 a -13.2 -13.1 -13.2 --- --- 24.3 E 0.41 29.6 -25.5 --- --- 733.9 0.022 0.000 21.2 5 1
02/27/06 4:11 a -13.1 -13.1 -13.2 --- --- 22.6 E 0.38 27.8 -25.1 --- --- 733.9 0.022 0.000 21.2 5 1
02/27/06 4:12 a -13.2 -13.2 -13.2 --- --- 21.7 E 0.36 28.7 -24.9 --- --- 733.8 0.022 0.000 21.2 5 1
02/27/06 4:13 a -13.2 -13.2 -13.3 --- --- 24.3 E 0.41 27.8 -25.6 --- --- 733.8 0.022 0.000 21.2 5 1
02/27/06 4:14 a -13.3 -13.3 -13.3 --- --- 21.7 E 0.36 25.2 -25.1 --- --- 733.8 0.022 0.000 21.2 5 1
02/27/06 4:15 a -13.3 -13.3 -13.3 --- --- 20.9 E 0.35 26.1 -24.9 --- --- 734.0 0.022 0.000 21.2 5 1
02/27/06 4:16 a -13.3 -13.3 -13.3 --- --- 21.7 E 0.36 25.2 -25.2 --- --- 733.9 0.022 0.000 21.2 5 1
02/27/06 4:17 a -13.3 -13.3 -13.3 --- --- 22.6 E 0.38 27.8 -25.3 --- --- 734.0 0.022 0.000 21.2 5 1
02/27/06 4:18 a -13.3 -13.3 -13.4 --- --- 23.5 E 0.39 30.4 -25.6 --- --- 733.9 0.022 0.000 21.2 5 1
02/27/06 4:19 a -13.4 -13.4 -13.4 --- --- 25.2 E 0.42 30.4 -25.9 --- --- 733.9 0.022 0.000 21.2 5 1
02/27/06 4:20 a -13.4 -13.4 -13.4 --- --- 26.1 E 0.43 31.3 -26.1 --- --- 733.8 0.022 0.000 21.2 5 1
02/27/06 4:21 a -13.4 -13.4 -13.4 --- --- 22.6 E 0.38 27.8 -25.4 --- --- 733.9 0.022 0.000 21.2 5 1
02/27/06 4:22 a -13.4 -13.4 -13.4 --- --- 23.5 E 0.39 26.1 -25.7 --- --- 734.0 0.022 0.000 21.2 5 1
02/27/06 4:23 a -13.4 -13.4 -13.4 --- --- 20.9 E 0.35 24.3 -25.1 --- --- 734.0 0.022 0.000 21.2 5 1
02/27/06 4:24 a -13.4 -13.4 -13.4 --- --- 20.9 ESE 0.35 25.2 -25.1 --- --- 734.0 0.022 0.000 21.2 5 1
02/27/06 4:25 a -13.4 -13.4 -13.4 --- --- 21.7 E 0.36 28.7 -25.2 --- --- 733.9 0.022 0.000 21.2 5 1
02/27/06 4:26 a -13.4 -13.4 -13.4 --- --- 27.0 E 0.45 31.3 -26.4 --- --- 733.8 0.022 0.000 21.2 5 1
02/27/06 4:27 a -13.4 -13.4 -13.4 --- --- 28.7 ENE 0.48 34.8 -26.7 --- --- 733.8 0.022 0.000 21.2 5 1
02/27/06 4:28 a -13.4 -13.4 -13.4 --- --- 23.5 E 0.39 28.7 -25.7 --- --- 733.9 0.022 0.000 21.2 5 1
02/27/06 4:29 a -13.4 -13.4 -13.4 --- --- 22.6 E 0.38 27.8 -25.5 --- --- 733.8 0.022 0.000 21.2 5 1
02/27/06 4:30 a -13.4 -13.4 -13.4 --- --- 22.6 E 0.38 27.0 -25.5 --- --- 733.9 0.022 0.000 21.2 5 1
02/27/06 4:31 a -13.4 -13.4 -13.4 --- --- 21.7 E 0.36 27.8 -25.3 --- --- 733.8 0.022 0.000 21.2 5 1
02/27/06 4:32 a -13.4 -13.4 -13.4 --- --- 22.6 ESE 0.38 27.8 -25.5 --- --- 733.8 0.022 0.000 21.2 5 1
02/27/06 4:33 a -13.4 -13.4 -13.4 --- --- 21.7 ESE 0.36 27.0 -25.3 --- --- 733.8 0.022 0.000 21.2 5 1
02/27/06 4:34 a -13.5 -13.4 -13.5 --- --- 21.7 E 0.36 26.1 -25.4 --- --- 733.9 0.022 0.000 21.2 5 1
02/27/06 4:35 a -13.5 -13.5 -13.5 --- --- 22.6 E 0.38 27.8 -25.6 --- --- 733.8 0.022 0.000 21.2 5 1
02/27/06 4:36 a -13.5 -13.5 -13.5 --- --- 22.6 E 0.38 26.1 -25.6 --- --- 733.9 0.022 0.000 21.2 5 1
02/27/06 4:37 a -13.5 -13.5 -13.5 --- --- 21.7 E 0.36 25.2 -25.4 --- --- 733.9 0.022 0.000 21.2 5 1
02/27/06 4:38 a -13.5 -13.5 -13.5 --- --- 23.5 E 0.39 27.8 -25.8 --- --- 733.8 0.022 0.000 21.2 5 1
02/27/06 4:39 a -13.5 -13.5 -13.5 --- --- 21.7 E 0.36 24.3 -25.4 --- --- 733.8 0.022 0.000 21.2 5 1
02/27/06 4:40 a -13.5 -13.5 -13.6 --- --- 20.9 E 0.35 25.2 -25.2 --- --- 733.8 0.022 0.000 21.2 5 1
02/27/06 4:41 a -13.5 -13.5 -13.6 --- --- 23.5 E 0.39 27.8 -25.8 --- --- 733.8 0.022 0.000 21.2 5 1
02/27/06 4:42 a -13.6 -13.6 -13.6 --- --- 24.3 E 0.41 28.7 -26.0 --- --- 733.9 0.022 0.000 21.2 5 1
02/27/06 4:43 a -13.6 -13.6 -13.6 --- --- 23.5 E 0.39 29.6 -25.8 --- --- 733.9 0.022 0.000 21.2 5 1
02/27/06 4:44 a -13.6 -13.6 -13.6 --- --- 23.5 E 0.39 28.7 -25.8 --- --- 734.0 0.022 0.000 21.2 5 1
02/27/06 4:45 a -13.6 -13.6 -13.6 --- --- 21.7 E 0.36 27.8 -25.4 --- --- 733.9 0.022 0.000 21.2 5 1
02/27/06 4:46 a -13.6 -13.6 -13.6 --- --- 25.2 E 0.42 28.7 -26.2 --- --- 733.9 0.022 0.000 21.2 5 1
02/27/06 4:47 a -13.6 -13.6 -13.6 --- --- 25.2 E 0.42 28.7 -26.2 --- --- 733.8 0.022 0.000 21.2 5 1
02/27/06 4:48 a -13.6 -13.6 -13.6 --- --- 23.5 E 0.39 28.7 -25.8 --- --- 733.9 0.022 0.000 21.2 5 1
02/27/06 4:49 a -13.6 -13.6 -13.6 --- --- 21.7 E 0.36 27.0 -25.4 --- --- 733.9 0.022 0.000 21.2 5 1
02/27/06 4:50 a -13.6 -13.6 -13.6 --- --- 23.5 E 0.39 27.0 -25.9 --- --- 733.9 0.022 0.000 21.2 5 1
02/27/06 4:51 a -13.6 -13.6 -13.6 --- --- 20.9 E 0.35 24.3 -25.3 --- --- 733.9 0.022 0.000 21.2 5 1
02/27/06 4:52 a -13.6 -13.6 -13.6 --- --- 23.5 E 0.39 28.7 -25.9 --- --- 733.9 0.022 0.000 21.2 5 1
02/27/06 4:53 a -13.6 -13.6 -13.6 --- --- 21.7 E 0.36 27.8 -25.6 --- --- 733.9 0.022 0.000 21.2 5 1
02/27/06 4:54 a -13.6 -13.6 -13.6 --- --- 24.3 E 0.41 29.6 -26.1 --- --- 733.9 0.022 0.000 21.2 5 1
02/27/06 4:55 a -13.6 -13.6 -13.6 --- --- 23.5 E 0.39 28.7 -25.9 --- --- 733.9 0.022 0.000 21.2 5 1
02/27/06 4:56 a -13.6 -13.6 -13.6 --- --- 22.6 E 0.38 27.0 -25.7 --- --- 734.0 0.022 0.000 21.1 5 1
02/27/06 4:57 a -13.6 -13.6 -13.6 --- --- 23.5 E 0.39 28.7 -25.9 --- --- 734.0 0.022 0.000 21.1 5 1
02/27/06 4:58 a -13.6 -13.6 -13.7 --- --- 23.5 E 0.39 26.1 -25.9 --- --- 734.0 0.022 0.000 21.1 5 1
02/27/06 4:59 a -13.6 -13.6 -13.6 --- --- 21.7 E 0.36 25.2 -25.6 --- --- 733.9 0.022 0.000 21.2 5 1
02/27/06 5:00 a -13.6 -13.6 -13.7 --- --- 21.7 E 0.36 29.6 -25.6 --- --- 734.0 0.022 0.000 21.2 5 1
02/27/06 5:01 a -13.7 -13.6 -13.7 --- --- 24.3 E 0.41 28.7 -26.2 --- --- 734.0 0.022 0.000 21.2 5 1
02/27/06 5:02 a -13.7 -13.6 -13.7 --- --- 22.6 E 0.38 27.0 -25.8 --- --- 734.0 0.022 0.000 21.2 5 1
02/27/06 5:03 a -13.7 -13.7 -13.7 --- --- 21.7 E 0.36 26.1 -25.6 --- --- 733.9 0.022 0.000 21.2 5 1
02/27/06 5:04 a -13.7 -13.7 -13.7 --- --- 20.9 E 0.35 27.0 -25.4 --- --- 733.9 0.022 0.000 21.2 5 1
02/27/06 5:05 a -13.7 -13.7 -13.7 --- --- 21.7 E 0.36 25.2 -25.6 --- --- 734.0 0.022 0.000 21.1 5 1
02/27/06 5:06 a -13.7 -13.7 -13.7 --- --- 23.5 E 0.39 27.8 -26.0 --- --- 733.9 0.022 0.000 21.1 5 1
02/27/06 5:07 a -13.7 -13.7 -13.7 --- --- 24.3 E 0.41 28.7 -26.2 --- --- 733.9 0.022 0.000 21.1 5 1
02/27/06 5:08 a -13.7 -13.7 -13.7 --- --- 22.6 E 0.38 25.2 -25.8 --- --- 733.9 0.022 0.000 21.1 5 1
02/27/06 5:09 a -13.7 -13.7 -13.7 --- --- 25.2 E 0.42 28.7 -26.3 --- --- 733.9 0.022 0.000 21.1 5 1
02/27/06 5:10 a -13.7 -13.7 -13.7 --- --- 24.3 E 0.41 28.7 -26.2 --- --- 734.0 0.022 0.000 21.1 5 1
02/27/06 5:11 a -13.7 -13.7 -13.7 --- --- 23.5 E 0.39 27.8 -26.1 --- --- 734.0 0.022 0.000 21.1 5 1
02/27/06 5:12 a -13.7 -13.7 -13.7 --- --- 24.3 E 0.41 29.6 -26.2 --- --- 734.1 0.022 0.000 21.1 5 1
02/27/06 5:13 a -13.7 -13.7 -13.7 --- --- 23.5 E 0.39 28.7 -26.1 --- --- 733.9 0.022 0.000 21.1 5 1
02/27/06 5:14 a -13.7 -13.7 -13.7 --- --- 25.2 E 0.42 29.6 -26.4 --- --- 733.9 0.022 0.000 21.1 5 1
02/27/06 5:15 a -13.7 -13.7 -13.7 --- --- 25.2 E 0.42 29.6 -26.4 --- --- 733.9 0.022 0.000 21.1 5 1
02/27/06 5:16 a -13.7 -13.7 -13.7 --- --- 25.2 E 0.42 30.4 -26.4 --- --- 733.9 0.022 0.000 21.1 5 1
02/27/06 5:17 a -13.7 -13.7 -13.7 --- --- 23.5 E 0.39 30.4 -26.1 --- --- 734.0 0.022 0.000 21.1 5 1
02/27/06 5:18 a -13.8 -13.7 -13.8 --- --- 25.2 E 0.42 27.8 -26.5 --- --- 733.9 0.022 0.000 21.1 5 1
02/27/06 5:19 a -13.8 -13.8 -13.8 --- --- 22.6 E 0.38 27.8 -25.9 --- --- 734.0 0.022 0.000 21.1 5 1
02/27/06 5:20 a -13.8 -13.8 -13.8 --- --- 23.5 E 0.39 27.0 -26.1 --- --- 734.0 0.022 0.000 21.1 5 1
02/27/06 5:21 a -13.8 -13.8 -13.8 --- --- 22.6 E 0.38 27.8 -25.9 --- --- 734.0 0.022 0.000 21.1 5 1
02/27/06 5:22 a -13.8 -13.8 -13.8 --- --- 22.6 E 0.38 29.6 -25.9 --- --- 734.0 0.022 0.000 21.1 5 1
02/27/06 5:23 a -13.8 -13.8 -13.8 --- --- 20.9 E 0.35 27.8 -25.6 --- --- 734.0 0.022 0.000 21.1 5 1
02/27/06 5:24 a -13.8 -13.8 -13.8 --- --- 20.9 E 0.35 26.1 -25.6 --- --- 734.1 0.022 0.000 21.1 5 1
02/27/06 5:25 a -13.8 -13.8 -13.8 --- --- 21.7 E 0.36 27.0 -25.8 --- --- 734.0 0.022 0.000 21.1 5 1
02/27/06 5:26 a -13.8 -13.8 -13.8 --- --- 24.3 E 0.41 28.7 -26.4 --- --- 734.1 0.022 0.000 21.1 5 1
02/27/06 5:27 a -13.8 -13.8 -13.8 --- --- 23.5 E 0.39 27.0 -26.2 --- --- 734.0 0.022 0.000 21.1 5 1
02/27/06 5:28 a -13.8 -13.8 -13.8 --- --- 22.6 E 0.38 26.1 -26.0 --- --- 734.0 0.022 0.000 21.1 5 1
02/27/06 5:29 a -13.8 -13.8 -13.9 --- --- 21.7 E 0.36 27.0 -25.8 --- --- 734.0 0.022 0.000 21.1 5 1
02/27/06 5:30 a -13.9 -13.9 -13.9 --- --- 21.7 E 0.36 27.0 -25.9 --- --- 734.0 0.022 0.000 21.1 5 1
02/27/06 5:31 a -13.9 -13.9 -13.9 --- --- 20.9 E 0.35 24.3 -25.7 --- --- 734.1 0.022 0.000 21.1 5 1
02/27/06 5:32 a -13.9 -13.9 -13.9 --- --- 22.6 E 0.38 27.0 -26.1 --- --- 734.0 0.022 0.000 21.1 5 1
02/27/06 5:33 a -13.9 -13.9 -13.9 --- --- 20.9 E 0.35 26.1 -25.7 --- --- 734.1 0.022 0.000 21.1 5 1
02/27/06 5:34 a -13.9 -13.9 -13.9 --- --- 20.9 E 0.35 23.5 -25.7 --- --- 734.0 0.022 0.000 21.1 5 1
02/27/06 5:35 a -13.9 -13.9 -13.9 --- --- 20.0 E 0.33 25.2 -25.5 --- --- 734.0 0.022 0.000 21.1 5 1
02/27/06 5:36 a -13.9 -13.9 -13.9 --- --- 20.9 E 0.35 24.3 -25.8 --- --- 734.1 0.022 0.000 21.1 5 1
02/27/06 5:37 a -13.9 -13.9 -13.9 --- --- 20.9 E 0.35 26.1 -25.7 --- --- 734.0 0.022 0.000 21.1 5 1
02/27/06 5:38 a -13.9 -13.9 -13.9 --- --- 21.7 E 0.36 25.2 -26.0 --- --- 734.1 0.022 0.000 21.1 5 1
02/27/06 5:39 a -13.9 -13.9 -13.9 --- --- 21.7 E 0.36 27.0 -26.0 --- --- 734.0 0.022 0.000 21.1 5 1
02/27/06 5:40 a -13.9 -13.9 -13.9 --- --- 20.9 E 0.35 26.1 -25.8 --- --- 734.1 0.022 0.000 21.1 5 1
02/27/06 5:41 a -13.9 -13.9 -14.0 --- --- 19.1 E 0.32 25.2 -25.4 --- --- 734.1 0.022 0.000 21.1 5 1
02/27/06 5:42 a -14.0 -14.0 -14.0 --- --- 20.0 E 0.33 23.5 -25.7 --- --- 734.1 0.022 0.000 21.1 5 1
02/27/06 5:43 a -14.0 -14.0 -14.0 --- --- 20.0 E 0.33 25.2 -25.7 --- --- 734.1 0.022 0.000 21.1 5 1
02/27/06 5:44 a -14.0 -14.0 -14.0 --- --- 20.9 E 0.35 26.1 -25.8 --- --- 734.1 0.022 0.000 21.1 5 1
02/27/06 5:45 a -14.0 -14.0 -14.1 --- --- 20.9 E 0.35 24.3 -25.8 --- --- 734.1 0.022 0.000 21.1 5 1
02/27/06 5:46 a -14.1 -14.1 -14.1 --- --- 19.1 E 0.32 23.5 -25.5 --- --- 734.2 0.022 0.000 21.1 5 1
02/27/06 5:47 a -14.1 -14.1 -14.1 --- --- 20.0 E 0.33 23.5 -25.7 --- --- 734.2 0.022 0.000 21.1 5 1
02/27/06 5:48 a -14.1 -14.1 -14.1 --- --- 20.0 E 0.33 25.2 -25.7 --- --- 734.1 0.022 0.000 21.1 5 1
02/27/06 5:49 a -14.1 -14.1 -14.1 --- --- 20.9 E 0.35 25.2 -25.9 --- --- 734.1 0.022 0.000 21.1 5 1
02/27/06 5:50 a -14.1 -14.1 -14.1 --- --- 19.1 E 0.32 24.3 -25.6 --- --- 734.1 0.023 0.000 21.1 5 1
02/27/06 5:51 a -14.1 -14.1 -14.1 --- --- 20.0 E 0.33 23.5 -25.8 --- --- 734.2 0.023 0.000 21.1 5 1
02/27/06 5:52 a -14.1 -14.1 -14.1 --- --- 20.9 E 0.35 25.2 -26.0 --- --- 734.2 0.023 0.000 21.1 5 1
02/27/06 5:53 a -14.1 -14.1 -14.2 --- --- 20.0 E 0.33 25.2 -25.8 --- --- 734.2 0.023 0.000 21.1 5 1
02/27/06 5:54 a -14.1 -14.1 -14.2 --- --- 24.3 E 0.41 29.6 -26.8 --- --- 734.1 0.023 0.000 21.1 5 1
02/27/06 5:55 a -14.2 -14.1 -14.2 --- --- 24.3 E 0.41 27.8 -26.8 --- --- 734.1 0.023 0.000 21.1 5 1
02/27/06 5:56 a -14.2 -14.2 -14.2 --- --- 21.7 E 0.36 25.2 -26.3 --- --- 734.1 0.023 0.000 21.1 5 1
02/27/06 5:57 a -14.2 -14.2 -14.2 --- --- 20.0 E 0.33 23.5 -25.9 --- --- 734.1 0.023 0.000 21.1 5 1
02/27/06 5:58 a -14.2 -14.2 -14.2 --- --- 22.6 E 0.38 26.1 -26.6 --- --- 734.1 0.023 0.000 21.1 5 1
02/27/06 5:59 a -14.2 -14.2 -14.2 --- --- 20.9 E 0.35 25.2 -26.2 --- --- 734.1 0.023 0.000 21.1 5 1
02/27/06 6:00 a -14.2 -14.2 -14.2 --- --- 21.7 E 0.36 27.0 -26.3 --- --- 734.1 0.023 0.000 21.1 5 1
02/27/06 6:01 a -14.2 -14.2 -14.2 --- --- 21.7 E 0.36 27.0 -26.3 --- --- 734.0 0.023 0.000 21.1 5 1
02/27/06 6:02 a -14.2 -14.2 -14.2 --- --- 20.9 E 0.35 23.5 -26.2 --- --- 734.1 0.023 0.000 21.1 5 1
02/27/06 6:03 a -14.2 -14.2 -14.3 --- --- 20.9 E 0.35 24.3 -26.2 --- --- 734.1 0.023 0.000 21.1 5 1
02/27/06 6:04 a -14.3 -14.3 -14.3 --- --- 20.9 E 0.35 26.1 -26.2 --- --- 734.0 0.023 0.000 21.1 5 1
02/27/06 6:05 a -14.3 -14.3 -14.3 --- --- 22.6 E 0.38 26.1 -26.6 --- --- 734.0 0.023 0.000 21.1 5 1
02/27/06 6:06 a -14.3 -14.3 -14.3 --- --- 22.6 E 0.38 26.1 -26.6 --- --- 734.1 0.023 0.000 21.1 5 1
02/27/06 6:07 a -14.3 -14.3 -14.3 --- --- 20.9 E 0.35 24.3 -26.2 --- --- 734.1 0.023 0.000 21.1 5 1
02/27/06 6:08 a -14.3 -14.3 -14.3 --- --- 22.6 E 0.38 26.1 -26.6 --- --- 734.0 0.023 0.000 21.1 5 1
02/27/06 6:09 a -14.3 -14.3 -14.3 --- --- 20.0 E 0.33 26.1 -26.1 --- --- 734.2 0.023 0.000 21.1 4 1
02/27/06 6:10 a -14.3 -14.3 -14.3 --- --- 21.7 E 0.36 27.8 -26.5 --- --- 734.1 0.023 0.000 21.1 5 1
02/27/06 6:11 a -14.3 -14.3 -14.3 --- --- 23.5 E 0.39 27.8 -26.9 --- --- 734.1 0.023 0.000 21.1 5 1
02/27/06 6:12 a -14.3 -14.3 -14.3 --- --- 20.0 E 0.33 24.3 -26.1 --- --- 734.1 0.023 0.000 21.1 5 1
02/27/06 6:13 a -14.3 -14.3 -14.3 --- --- 21.7 E 0.36 27.0 -26.5 --- --- 734.1 0.023 0.000 21.1 5 1
02/27/06 6:14 a -14.3 -14.3 -14.4 --- --- 20.0 E 0.33 25.2 -26.1 --- --- 734.2 0.023 0.000 21.1 5 1
02/27/06 6:15 a -14.3 -14.3 -14.3 --- --- 21.7 E 0.36 26.1 -26.5 --- --- 734.1 0.023 0.000 21.1 5 1
02/27/06 6:16 a -14.3 -14.3 -14.4 --- --- 20.0 E 0.33 25.2 -26.1 --- --- 734.1 0.023 0.000 21.1 4 1
02/27/06 6:17 a -14.3 -14.3 -14.3 --- --- 21.7 E 0.36 26.1 -26.5 --- --- 734.1 0.023 0.000 21.1 5 1
02/27/06 6:18 a -14.4 -14.4 -14.4 --- --- 20.0 E 0.33 25.2 -26.2 --- --- 734.2 0.023 0.000 21.1 5 1
02/27/06 6:19 a -14.3 -14.3 -14.4 --- --- 20.0 E 0.33 23.5 -26.1 --- --- 734.1 0.023 0.000 21.1 5 1
02/27/06 6:20 a -14.4 -14.4 -14.4 --- --- 20.0 E 0.33 23.5 -26.2 --- --- 734.2 0.023 0.000 21.1 5 1
02/27/06 6:21 a -14.4 -14.4 -14.4 --- --- 20.9 E 0.35 23.5 -26.4 --- --- 734.2 0.023 0.000 21.1 5 1
02/27/06 6:22 a -14.4 -14.4 -14.4 --- --- 20.9 E 0.35 26.1 -26.4 --- --- 734.2 0.023 0.000 21.1 4 1
02/27/06 6:23 a -14.4 -14.3 -14.4 --- --- 20.0 E 0.33 25.2 -26.2 --- --- 734.2 0.023 0.000 21.1 5 1
02/27/06 6:24 a -14.4 -14.4 -14.4 --- --- 20.0 E 0.33 23.5 -26.2 --- --- 734.4 0.023 0.000 21.1 5 1
02/27/06 6:25 a -14.4 -14.4 -14.4 --- --- 20.9 E 0.35 24.3 -26.4 --- --- 734.3 0.023 0.000 21.1 4 1
02/27/06 6:26 a -14.4 -14.4 -14.4 --- --- 22.6 E 0.38 26.1 -26.8 --- --- 734.2 0.023 0.000 21.1 4 1
02/27/06 6:27 a -14.4 -14.4 -14.4 --- --- 20.0 E 0.33 22.6 -26.2 --- --- 734.3 0.023 0.000 21.1 5 1
02/27/06 6:28 a -14.4 -14.4 -14.4 --- --- 19.1 E 0.32 22.6 -25.9 --- --- 734.2 0.023 0.000 21.1 4 1
02/27/06 6:29 a -14.4 -14.4 -14.4 --- --- 20.9 E 0.35 24.3 -26.4 --- --- 734.2 0.023 0.000 21.1 5 1
02/27/06 6:30 a -14.4 -14.4 -14.4 --- --- 24.3 E 0.41 28.7 -27.2 --- --- 734.2 0.023 0.000 21.1 5 1
02/27/06 6:31 a -14.4 -14.4 -14.4 --- --- 21.7 E 0.36 26.1 -26.6 --- --- 734.2 0.023 0.000 21.1 5 1
02/27/06 6:32 a -14.4 -14.4 -14.4 --- --- 21.7 E 0.36 25.2 -26.6 --- --- 734.2 0.023 0.000 21.1 4 1
02/27/06 6:33 a -14.4 -14.4 -14.4 --- --- 21.7 E 0.36 24.3 -26.6 --- --- 734.2 0.023 0.000 21.1 5 1
02/27/06 6:34 a -14.4 -14.4 -14.4 --- --- 20.0 E 0.33 25.2 -26.2 --- --- 734.2 0.023 0.000 21.1 5 1
02/27/06 6:35 a -14.4 -14.4 -14.4 --- --- 20.0 E 0.33 23.5 -26.2 --- --- 734.2 0.023 0.000 21.1 4 1
02/27/06 6:36 a -14.4 -14.4 -14.4 --- --- 22.6 E 0.38 27.8 -26.8 --- --- 734.2 0.023 0.000 21.1 5 1
02/27/06 6:37 a -14.4 -14.4 -14.4 --- --- 20.0 E 0.33 24.3 -26.2 --- --- 734.3 0.023 0.000 21.1 5 1
02/27/06 6:38 a -14.4 -14.4 -14.4 --- --- 20.9 E 0.35 27.0 -26.4 --- --- 734.2 0.023 0.000 21.1 5 1
02/27/06 6:39 a -14.4 -14.4 -14.4 --- --- 27.8 E 0.46 31.3 -27.8 --- --- 734.2 0.023 0.000 21.1 4 1
02/27/06 6:40 a -14.4 -14.4 -14.4 --- --- 25.2 E 0.42 28.7 -27.3 --- --- 734.3 0.023 0.000 21.1 5 1
02/27/06 6:41 a -14.4 -14.4 -14.4 --- --- 21.7 E 0.36 26.1 -26.7 --- --- 734.3 0.023 0.000 21.1 5 1
02/27/06 6:42 a -14.4 -14.4 -14.4 --- --- 20.9 E 0.35 26.1 -26.4 --- --- 734.2 0.023 0.000 21.1 5 1
02/27/06 6:43 a -14.4 -14.4 -14.4 --- --- 20.9 E 0.35 24.3 -26.4 --- --- 734.4 0.023 0.000 21.1 5 1
02/27/06 6:44 a -14.4 -14.4 -14.4 --- --- 20.9 E 0.35 25.2 -26.4 --- --- 734.4 0.023 0.000 21.1 5 1
02/27/06 6:45 a -14.4 -14.4 -14.4 --- --- 18.3 E 0.30 20.9 -25.8 --- --- 734.4 0.023 0.000 21.1 4 1
02/27/06 6:46 a -14.4 -14.4 -14.4 --- --- 19.1 E 0.32 21.7 -26.0 --- --- 734.3 0.023 0.000 21.1 5 1
02/27/06 6:47 a -14.4 -14.4 -14.4 --- --- 22.6 E 0.38 27.8 -26.8 --- --- 734.2 0.023 0.000 21.1 4 1
02/27/06 6:48 a -14.4 -14.4 -14.4 --- --- 25.2 E 0.42 31.3 -27.4 --- --- 734.3 0.023 0.000 21.1 5 1
02/27/06 6:49 a -14.4 -14.4 -14.5 --- --- 19.1 E 0.32 26.1 -26.0 --- --- 734.4 0.023 0.000 21.1 4 1
02/27/06 6:50 a -14.4 -14.4 -14.5 --- --- 20.0 E 0.33 26.1 -26.2 --- --- 734.5 0.023 0.000 21.1 4 1
02/27/06 6:51 a -14.5 -14.5 -14.5 --- --- 16.5 E 0.28 21.7 -25.4 --- --- 734.4 0.023 0.000 21.1 4 1
02/27/06 6:52 a -14.5 -14.5 -14.5 --- --- 19.1 E 0.32 23.5 -26.1 --- --- 734.4 0.023 0.000 21.1 5 1
02/27/06 6:53 a -14.5 -14.5 -14.5 --- --- 25.2 ENE 0.42 28.7 -27.4 --- --- 734.4 0.023 0.000 21.1 4 1
02/27/06 6:54 a -14.5 -14.5 -14.5 --- --- 21.7 E 0.36 24.3 -26.7 --- --- 734.6 0.023 0.000 21.1 5 1
02/27/06 6:55 a -14.5 -14.5 -14.5 --- --- 17.4 E 0.29 20.0 -25.7 --- --- 734.5 0.023 0.000 21.1 4 1
02/27/06 6:56 a -14.5 -14.5 -14.6 --- --- 18.3 E 0.30 22.6 -25.9 --- --- 734.6 0.023 0.000 21.1 4 1
02/27/06 6:57 a -14.5 -14.5 -14.6 --- --- 19.1 E 0.32 23.5 -26.1 --- --- 734.5 0.023 0.000 21.1 5 1
02/27/06 6:58 a -14.6 -14.6 -14.6 --- --- 20.9 E 0.35 24.3 -26.6 --- --- 734.4 0.023 0.000 21.1 4 1
02/27/06 6:59 a -14.6 -14.6 -14.6 --- --- 21.7 ENE 0.36 27.0 -26.8 --- --- 734.5 0.023 0.000 21.1 4 1
02/27/06 7:00 a -14.6 -14.6 -14.6 --- --- 22.6 E 0.38 27.8 -27.1 --- --- 734.6 0.023 0.000 21.1 4 1
02/27/06 7:01 a -14.6 -14.6 -14.6 --- --- 20.0 E 0.33 24.3 -26.4 --- --- 734.6 0.023 0.000 21.1 4 1
02/27/06 7:02 a -14.6 -14.6 -14.6 --- --- 19.1 E 0.32 24.3 -26.2 --- --- 734.6 0.023 0.000 21.1 5 1
02/27/06 7:03 a -14.6 -14.6 -14.6 --- --- 21.7 E 0.36 26.1 -26.8 --- --- 734.6 0.023 0.000 21.1 4 1
02/27/06 7:04 a -14.5 -14.4 -14.6 --- --- 21.7 E 0.36 26.1 -26.7 --- --- 734.6 0.023 0.000 21.1 4 1
02/27/06 7:05 a -14.4 -14.4 -14.4 --- --- 22.6 ENE 0.38 27.8 -26.8 --- --- 734.6 0.023 0.000 21.1 4 1
02/27/06 7:06 a -14.4 -14.3 -14.4 --- --- 22.6 E 0.38 26.1 -26.8 --- --- 734.7 0.023 0.000 21.1 4 1
02/27/06 7:07 a -14.3 -14.3 -14.3 --- --- 23.5 E 0.39 26.1 -26.9 --- --- 734.6 0.023 0.000 21.1 4 1
02/27/06 7:08 a -14.3 -14.3 -14.3 --- --- 18.3 E 0.30 25.2 -25.7 --- --- 734.7 0.023 0.000 21.1 4 1
02/27/06 7:09 a -14.3 -14.3 -14.3 --- --- 20.0 E 0.33 24.3 -26.1 --- --- 734.7 0.023 0.000 21.1 4 1
02/27/06 7:10 a -14.3 -14.3 -14.3 --- --- 23.5 E 0.39 29.6 -26.8 --- --- 734.6 0.023 0.000 21.1 4 1
02/27/06 7:11 a -14.2 -14.2 -14.2 --- --- 24.3 E 0.41 27.8 -26.9 --- --- 734.5 0.023 0.000 21.1 4 1
02/27/06 7:12 a -14.1 -14.1 -14.2 --- --- 23.5 E 0.39 27.8 -26.6 --- --- 734.6 0.023 0.000 21.1 4 1
02/27/06 7:13 a -14.1 -14.0 -14.1 --- --- 20.0 E 0.33 25.2 -25.7 --- --- 734.7 0.022 0.000 21.1 4 1
02/27/06 7:14 a -13.9 -13.9 -13.9 --- --- 21.7 E 0.36 27.8 -26.0 --- --- 734.6 0.022 0.000 21.1 4 1
02/27/06 7:15 a -13.8 -13.8 -13.8 --- --- 21.7 E 0.36 25.2 -25.8 --- --- 734.5 0.022 0.000 21.1 4 1
02/27/06 7:16 a -13.8 -13.7 -13.8 --- --- 24.3 E 0.41 27.8 -26.3 --- --- 734.6 0.022 0.000 21.1 4 1
02/27/06 7:17 a -13.7 -13.7 -13.7 --- --- 22.6 E 0.38 28.7 -25.9 --- --- 734.6 0.022 0.000 21.1 4 1
02/27/06 7:18 a -13.6 -13.6 -13.7 --- --- 24.3 E 0.41 28.7 -26.1 --- --- 734.5 0.022 0.000 21.1 4 1
02/27/06 7:19 a -13.6 -13.5 -13.6 --- --- 21.7 E 0.36 27.8 -25.4 --- --- 734.5 0.022 0.000 21.1 4 1
02/27/06 7:20 a -13.4 -13.4 -13.5 --- --- 22.6 E 0.38 28.7 -25.5 --- --- 734.5 0.022 0.000 21.1 4 1
02/27/06 7:21 a -13.4 -13.3 -13.4 --- --- 23.5 E 0.39 28.7 -25.6 --- --- 734.5 0.022 0.000 21.1 4 1
02/27/06 7:22 a -13.3 -13.3 -13.3 --- --- 22.6 E 0.38 26.1 -25.3 --- --- 734.6 0.022 0.000 21.1 4 1
02/27/06 7:23 a -13.2 -13.2 -13.2 --- --- 22.6 E 0.38 27.0 -25.2 --- --- 734.6 0.022 0.000 21.1 4 1
02/27/06 7:24 a -13.2 -13.1 -13.2 --- --- 20.9 E 0.35 26.1 -24.7 --- --- 734.6 0.022 0.000 21.1 4 1
02/27/06 7:25 a -13.1 -13.1 -13.1 --- --- 21.7 E 0.36 27.0 -24.9 --- --- 734.6 0.022 0.000 21.1 4 1
02/27/06 7:26 a -13.0 -12.9 -13.0 --- --- 21.7 E 0.36 25.2 -24.7 --- --- 734.6 0.022 0.000 21.2 4 1
02/27/06 7:27 a -12.9 -12.9 -12.9 --- --- 21.7 E 0.36 27.8 -24.7 --- --- 734.6 0.022 0.000 21.1 4 1
02/27/06 7:28 a -12.8 -12.8 -12.8 --- --- 20.0 E 0.33 25.2 -24.1 --- --- 734.5 0.022 0.000 21.1 4 1
02/27/06 7:29 a -12.8 -12.8 -12.8 --- --- 23.5 E 0.39 27.8 -24.9 --- --- 734.7 0.022 0.000 21.2 4 1
02/27/06 7:30 a -12.7 -12.7 -12.8 --- --- 20.0 E 0.33 24.3 -23.9 --- --- 734.6 0.022 0.000 21.2 4 1
02/27/06 7:31 a -12.7 -12.6 -12.7 --- --- 19.1 E 0.32 24.3 -23.7 --- --- 734.7 0.022 0.000 21.1 4 1
02/27/06 7:32 a -12.6 -12.6 -12.7 --- --- 19.1 E 0.32 22.6 -23.6 --- --- 734.7 0.021 0.000 21.1 4 1
02/27/06 7:33 a -12.6 -12.6 -12.6 --- --- 19.1 E 0.32 24.3 -23.6 --- --- 734.7 0.021 0.000 21.1 4 1
02/27/06 7:34 a -12.6 -12.5 -12.6 --- --- 21.7 E 0.36 26.1 -24.1 --- --- 734.6 0.021 0.000 21.1 4 1
02/27/06 7:35 a -12.5 -12.5 -12.5 --- --- 20.0 E 0.33 24.3 -23.7 --- --- 734.7 0.021 0.000 21.1 4 1
02/27/06 7:36 a -12.4 -12.4 -12.5 --- --- 21.7 E 0.36 25.2 -24.0 --- --- 734.7 0.021 0.000 21.1 4 1
02/27/06 7:37 a -12.4 -12.4 -12.4 --- --- 20.9 E 0.35 22.6 -23.7 --- --- 734.7 0.021 0.000 21.1 4 1
02/27/06 7:38 a -12.4 -12.4 -12.4 --- --- 20.9 E 0.35 24.3 -23.7 --- --- 734.7 0.021 0.000 21.1 4 1
02/27/06 7:39 a -12.4 -12.3 -12.4 --- --- 20.9 E 0.35 28.7 -23.7 --- --- 734.7 0.021 0.000 21.1 4 1
02/27/06 7:40 a -12.3 -12.3 -12.4 --- --- 22.6 E 0.38 27.8 -24.0 --- --- 734.7 0.021 0.000 21.1 4 1
02/27/06 7:41 a -12.3 -12.3 -12.3 --- --- 20.9 E 0.35 25.2 -23.6 --- --- 734.7 0.021 0.000 21.1 4 1
02/27/06 7:42 a -12.3 -12.3 -12.3 --- --- 20.9 E 0.35 27.0 -23.6 --- --- 734.7 0.021 0.000 21.1 4 1
02/27/06 7:43 a -12.3 -12.3 -12.3 --- --- 21.7 E 0.36 25.2 -23.8 --- --- 734.7 0.021 0.000 21.1 4 1
02/27/06 7:44 a -12.3 -12.3 -12.3 --- --- 23.5 E 0.39 28.7 -24.1 --- --- 734.7 0.021 0.000 21.1 4 1
02/27/06 7:45 a -12.3 -12.3 -12.3 --- --- 24.3 E 0.41 27.8 -24.3 --- --- 734.7 0.021 0.000 21.1 4 1
02/27/06 7:46 a -12.3 -12.2 -12.3 --- --- 23.5 E 0.39 26.1 -24.1 --- --- 734.7 0.021 0.000 21.1 4 1
02/27/06 7:47 a -12.3 -12.2 -12.3 --- --- 22.6 E 0.38 28.7 -23.9 --- --- 734.7 0.021 0.000 21.1 4 1
02/27/06 7:48 a -12.3 -12.3 -12.3 --- --- 24.3 E 0.41 28.7 -24.3 --- --- 734.7 0.021 0.000 21.1 4 1
02/27/06 7:49 a -12.3 -12.3 -12.3 --- --- 21.7 E 0.36 27.0 -23.8 --- --- 734.7 0.021 0.000 21.1 4 1
02/27/06 7:50 a -12.3 -12.3 -12.3 --- --- 23.5 E 0.39 28.7 -24.1 --- --- 734.6 0.021 0.000 21.1 4 1
02/27/06 7:51 a -12.3 -12.3 -12.3 --- --- 23.5 E 0.39 30.4 -24.1 --- --- 734.7 0.021 0.000 21.1 4 1
02/27/06 7:52 a -12.3 -12.3 -12.3 --- --- 22.6 E 0.38 27.8 -23.9 --- --- 734.7 0.021 0.000 21.1 4 1
02/27/06 7:53 a -12.3 -12.3 -12.3 --- --- 20.9 E 0.35 26.1 -23.6 --- --- 734.7 0.021 0.000 21.1 4 1
02/27/06 7:54 a -12.3 -12.3 -12.3 --- --- 24.3 E 0.41 30.4 -24.4 --- --- 734.6 0.021 0.000 21.1 4 1
02/27/06 7:55 a -12.3 -12.3 -12.3 --- --- 23.5 E 0.39 28.7 -24.2 --- --- 734.7 0.021 0.000 21.1 4 1
02/27/06 7:56 a -12.3 -12.3 -12.4 --- --- 22.6 E 0.38 29.6 -24.0 --- --- 734.6 0.021 0.000 21.1 4 1
02/27/06 7:57 a -12.4 -12.4 -12.4 --- --- 25.2 E 0.42 29.6 -24.6 --- --- 734.7 0.021 0.000 21.1 4 1
02/27/06 7:58 a -12.4 -12.4 -12.4 --- --- 25.2 E 0.42 30.4 -24.6 --- --- 734.7 0.021 0.000 21.1 4 1
02/27/06 7:59 a -12.4 -12.4 -12.4 --- --- 24.3 E 0.41 28.7 -24.5 --- --- 734.6 0.021 0.000 21.1 4 1
02/27/06 8:00 a -12.4 -12.4 -12.4 --- --- 23.5 E 0.39 27.8 -24.3 --- --- 734.8 0.021 0.000 21.0 4 1
02/27/06 8:01 a -12.4 -12.4 -12.5 --- --- 23.5 E 0.39 27.0 -24.3 --- --- 734.8 0.021 0.000 21.0 4 1
02/27/06 8:02 a -12.5 -12.5 -12.5 --- --- 20.0 ESE 0.33 24.3 -23.7 --- --- 734.6 0.021 0.000 21.0 4 1
02/27/06 8:03 a -12.5 -12.5 -12.5 --- --- 24.3 E 0.41 27.8 -24.6 --- --- 734.5 0.021 0.000 21.0 4 1
02/27/06 8:04 a -12.5 -12.5 -12.5 --- --- 20.9 E 0.35 26.1 -23.8 --- --- 734.6 0.021 0.000 21.0 4 1
02/27/06 8:05 a -12.6 -12.5 -12.6 --- --- 22.6 E 0.38 26.1 -24.3 --- --- 734.6 0.021 0.000 21.0 4 1
02/27/06 8:06 a -12.6 -12.6 -12.6 --- --- 24.3 E 0.41 29.6 -24.7 --- --- 734.7 0.021 0.000 21.1 4 1
02/27/06 8:07 a -12.6 -12.6 -12.6 --- --- 23.5 E 0.39 27.8 -24.5 --- --- 734.8 0.021 0.000 21.1 4 1
02/27/06 8:08 a -12.6 -12.6 -12.6 --- --- 21.7 E 0.36 27.0 -24.2 --- --- 734.7 0.021 0.000 21.1 4 1
02/27/06 8:09 a -12.6 -12.6 -12.6 --- --- 20.9 E 0.35 27.0 -24.0 --- --- 734.7 0.021 0.000 21.1 4 1
02/27/06 8:10 a -12.6 -12.6 -12.6 --- --- 21.7 E 0.36 28.7 -24.2 --- --- 734.7 0.021 0.000 21.1 4 1
02/27/06 8:11 a -12.7 -12.6 -12.7 --- --- 21.7 E 0.36 27.0 -24.3 --- --- 734.9 0.022 0.000 21.1 4 1
02/27/06 8:12 a -12.7 -12.6 -12.7 --- --- 22.6 E 0.38 28.7 -24.4 --- --- 734.8 0.022 0.000 21.1 4 1
02/27/06 8:13 a -12.7 -12.7 -12.7 --- --- 24.3 E 0.41 27.8 -24.8 --- --- 734.7 0.022 0.000 21.1 4 1
02/27/06 8:14 a -12.7 -12.7 -12.7 --- --- 24.3 E 0.41 27.8 -24.8 --- --- 734.7 0.022 0.000 21.1 4 1
02/27/06 8:15 a -12.7 -12.7 -12.7 --- --- 22.6 E 0.38 27.8 -24.4 --- --- 734.7 0.022 0.000 21.1 4 1
02/27/06 8:16 a -12.7 -12.7 -12.7 --- --- 20.9 E 0.35 26.1 -24.2 --- --- 734.8 0.022 0.000 21.1 4 1
02/27/06 8:17 a -12.7 -12.7 -12.7 --- --- 20.0 E 0.33 24.3 -23.9 --- --- 734.8 0.022 0.000 21.1 4 1
02/27/06 8:18 a -12.7 -12.7 -12.7 --- --- 20.9 E 0.35 25.2 -24.2 --- --- 734.8 0.022 0.000 21.1 4 1
02/27/06 8:19 a -12.7 -12.7 -12.8 --- --- 21.7 E 0.36 26.1 -24.3 --- --- 734.8 0.022 0.000 21.1 4 1
02/27/06 8:20 a -12.8 -12.7 -12.8 --- --- 20.9 E 0.35 26.1 -24.2 --- --- 734.8 0.022 0.000 21.1 4 1
02/27/06 8:21 a -12.8 -12.8 -12.8 --- --- 20.0 E 0.33 26.1 -24.1 --- --- 734.8 0.022 0.000 21.1 4 1
02/27/06 8:22 a -12.8 -12.8 -12.8 --- --- 20.9 E 0.35 24.3 -24.3 --- --- 734.9 0.022 0.000 21.1 4 1
02/27/06 8:23 a -12.8 -12.8 -12.8 --- --- 23.5 E 0.39 26.1 -24.8 --- --- 734.8 0.022 0.000 21.1 4 1
02/27/06 8:24 a -12.8 -12.8 -12.8 --- --- 22.6 E 0.38 27.0 -24.7 --- --- 734.8 0.022 0.000 21.0 4 1
02/27/06 8:25 a -12.8 -12.8 -12.8 --- --- 22.6 E 0.38 30.4 -24.7 --- --- 734.8 0.022 0.000 21.0 4 1
02/27/06 8:26 a -12.9 -12.9 -12.9 --- --- 22.6 E 0.38 27.0 -24.8 --- --- 734.8 0.022 0.000 21.0 4 1
02/27/06 8:27 a -12.9 -12.9 -12.9 --- --- 21.7 E 0.36 26.1 -24.6 --- --- 734.8 0.022 0.000 21.0 4 1
02/27/06 8:28 a -12.9 -12.9 -12.9 --- --- 21.7 E 0.36 27.0 -24.7 --- --- 734.8 0.022 0.000 21.0 4 1
02/27/06 8:29 a -12.9 -12.9 -12.9 --- --- 23.5 E 0.39 26.1 -25.0 --- --- 734.8 0.022 0.000 20.9 4 1
02/27/06 8:30 a -13.0 -13.0 -13.0 --- --- 21.7 E 0.36 28.7 -24.7 --- --- 734.8 0.022 0.000 21.0 4 1
02/27/06 8:31 a -13.1 -13.0 -13.1 --- --- 22.6 E 0.38 26.1 -25.0 --- --- 734.9 0.022 0.000 21.0 4 1
02/27/06 8:32 a -13.1 -13.1 -13.1 --- --- 21.7 E 0.36 26.1 -24.9 --- --- 734.9 0.022 0.000 21.0 4 1
02/27/06 8:33 a -13.1 -13.1 -13.2 --- --- 21.7 E 0.36 26.1 -24.9 --- --- 734.9 0.022 0.000 21.0 4 1
02/27/06 8:34 a -13.2 -13.2 -13.2 --- --- 22.6 E 0.38 27.8 -25.1 --- --- 734.8 0.022 0.000 21.0 4 1
02/27/06 8:35 a -13.2 -13.2 -13.2 --- --- 23.5 E 0.39 27.0 -25.4 --- --- 734.8 0.022 0.000 20.9 4 1
02/27/06 8:36 a -13.3 -13.2 -13.3 --- --- 23.5 E 0.39 28.7 -25.4 --- --- 734.8 0.022 0.000 20.9 4 1
02/27/06 8:37 a -13.3 -13.3 -13.3 --- --- 22.6 E 0.38 26.1 -25.3 --- --- 734.8 0.022 0.000 21.0 4 1
02/27/06 8:38 a -13.4 -13.4 -13.4 --- --- 20.9 E 0.35 23.5 -25.1 --- --- 734.9 0.022 0.000 20.9 4 1
02/27/06 8:39 a -13.4 -13.4 -13.5 --- --- 20.9 E 0.35 27.0 -25.1 --- --- 734.8 0.022 0.000 20.9 4 1
02/27/06 8:40 a -13.6 -13.5 -13.6 --- --- 21.7 E 0.36 28.7 -25.4 --- --- 734.8 0.022 0.000 20.9 4 1
02/27/06 8:41 a -13.6 -13.6 -13.6 --- --- 21.7 E 0.36 25.2 -25.6 --- --- 734.8 0.022 0.000 20.9 4 1
02/27/06 8:42 a -13.7 -13.6 -13.7 --- --- 23.5 E 0.39 26.1 -26.0 --- --- 734.7 0.022 0.000 20.9 4 1
02/27/06 8:43 a -13.7 -13.7 -13.8 --- --- 20.9 E 0.35 25.2 -25.5 --- --- 734.7 0.022 0.000 20.9 4 1
02/27/06 8:44 a -13.8 -13.8 -13.8 --- --- 23.5 E 0.39 27.8 -26.1 --- --- 734.6 0.022 0.000 20.9 4 1
02/27/06 8:45 a -13.9 -13.8 -13.9 --- --- 23.5 E 0.39 27.8 -26.3 --- --- 734.6 0.022 0.000 20.9 4 1
02/27/06 8:46 a -13.9 -13.9 -14.0 --- --- 23.5 E 0.39 27.8 -26.3 --- --- 734.7 0.022 0.000 20.9 4 1
02/27/06 8:47 a -14.1 -14.0 -14.1 --- --- 24.3 E 0.41 29.6 -26.7 --- --- 734.6 0.022 0.000 20.9 4 1
02/27/06 8:48 a -14.1 -14.1 -14.2 --- --- 23.5 E 0.39 27.0 -26.6 --- --- 734.6 0.023 0.000 20.9 4 1
02/27/06 8:49 a -14.2 -14.2 -14.2 --- --- 23.5 E 0.39 29.6 -26.7 --- --- 734.5 0.023 0.000 20.9 4 1
02/27/06 8:50 a -14.3 -14.2 -14.3 --- --- 26.1 E 0.43 31.3 -27.3 --- --- 734.4 0.023 0.000 20.9 4 1
02/27/06 8:51 a -14.3 -14.3 -14.4 --- --- 26.1 E 0.43 29.6 -27.4 --- --- 734.4 0.023 0.000 20.9 4 1
02/27/06 8:52 a -14.4 -14.4 -14.4 --- --- 26.1 E 0.43 30.4 -27.5 --- --- 734.4 0.023 0.000 20.9 4 1
02/27/06 8:53 a -14.5 -14.4 -14.6 --- --- 25.2 E 0.42 29.6 -27.4 --- --- 734.4 0.023 0.000 20.9 4 1
02/27/06 8:54 a -14.6 -14.6 -14.6 --- --- 27.0 E 0.45 32.2 -27.9 --- --- 734.4 0.023 0.000 20.9 4 1
02/27/06 8:55 a -14.6 -14.6 -14.7 --- --- 25.2 E 0.42 29.6 -27.6 --- --- 734.4 0.023 0.000 20.9 4 1
02/27/06 8:56 a -14.7 -14.7 -14.7 --- --- 25.2 E 0.42 29.6 -27.8 --- --- 734.3 0.023 0.000 20.9 4 1
02/27/06 8:57 a -14.8 -14.8 -14.8 --- --- 25.2 E 0.42 30.4 -27.8 --- --- 734.3 0.023 0.000 20.9 4 1
02/27/06 8:58 a -14.8 -14.8 -14.8 --- --- 26.1 E 0.43 30.4 -28.1 --- --- 734.2 0.023 0.000 20.9 4 1
02/27/06 8:59 a -14.9 -14.9 -14.9 --- --- 28.7 E 0.48 33.0 -28.7 --- --- 734.2 0.023 0.000 20.9 4 1
02/27/06 9:00 a -15.0 -14.9 -15.0 --- --- 30.4 E 0.51 33.9 -29.1 --- --- 734.2 0.023 0.000 20.8 4 1
02/27/06 9:01 a -15.1 -15.0 -15.1 --- --- 28.7 E 0.48 33.9 -28.9 --- --- 734.1 0.023 0.000 20.8 4 1
02/27/06 9:02 a -15.1 -15.1 -15.1 --- --- 31.3 E 0.52 35.7 -29.3 --- --- 734.1 0.023 0.000 20.8 4 1
02/27/06 9:03 a -15.1 -15.1 -15.1 --- --- 30.4 E 0.51 34.8 -29.3 --- --- 734.1 0.023 0.000 20.8 4 1
02/27/06 9:04 a -15.2 -15.1 -15.2 --- --- 29.6 E 0.49 34.8 -29.2 --- --- 734.2 0.023 0.000 20.8 4 1
02/27/06 9:05 a -15.2 -15.2 -15.3 --- --- 27.0 E 0.45 31.3 -28.8 --- --- 734.2 0.023 0.000 20.8 4 1
02/27/06 9:06 a -15.3 -15.3 -15.3 --- --- 27.0 E 0.45 30.4 -28.9 --- --- 734.2 0.023 0.000 20.8 4 1
02/27/06 9:07 a -15.3 -15.3 -15.3 --- --- 25.2 E 0.42 30.4 -28.6 --- --- 734.3 0.023 0.000 20.8 4 1
02/27/06 9:08 a -15.4 -15.4 -15.4 --- --- 24.3 E 0.41 27.8 -28.5 --- --- 734.4 0.023 0.000 20.8 4 1
02/27/06 9:09 a -15.4 -15.4 -15.4 --- --- 23.5 E 0.39 27.8 -28.3 --- --- 734.4 0.023 0.000 20.8 4 1
02/27/06 9:10 a -15.5 -15.4 -15.5 --- --- 25.2 E 0.42 29.6 -28.8 --- --- 734.4 0.023 0.000 20.8 4 1
02/27/06 9:11 a -15.5 -15.5 -15.6 --- --- 26.1 E 0.43 32.2 -29.0 --- --- 734.4 0.023 0.000 20.8 4 1
02/27/06 9:12 a -15.6 -15.6 -15.6 --- --- 26.1 E 0.43 31.3 -29.2 --- --- 734.5 0.024 0.000 20.8 4 1
02/27/06 9:13 a -15.6 -15.6 -15.7 --- --- 25.2 E 0.42 29.6 -29.0 --- --- 734.5 0.024 0.000 20.8 4 1
02/27/06 9:14 a -15.7 -15.7 -15.7 --- --- 23.5 E 0.39 27.0 -28.7 --- --- 734.5 0.024 0.000 20.8 4 1
02/27/06 9:15 a -15.7 -15.7 -15.7 --- --- 24.3 E 0.41 28.7 -28.9 --- --- 734.5 0.024 0.000 20.8 4 1
02/27/06 9:16 a -15.8 -15.7 -15.8 --- --- 24.3 E 0.41 27.0 -29.0 --- --- 734.5 0.024 0.000 20.8 4 1
02/27/06 9:17 a -15.8 -15.8 -15.8 --- --- 24.3 E 0.41 31.3 -29.1 --- --- 734.4 0.024 0.000 20.8 4 1
02/27/06 9:18 a -15.8 -15.8 -15.8 --- --- 26.1 E 0.43 30.4 -29.4 --- --- 734.4 0.024 0.000 20.8 4 1
02/27/06 9:19 a -15.8 -15.8 -15.9 --- --- 24.3 E 0.41 29.6 -29.1 --- --- 734.3 0.024 0.000 20.9 4 1
02/27/06 9:20 a -15.9 -15.9 -15.9 --- --- 24.3 E 0.41 28.7 -29.2 --- --- 734.4 0.024 0.000 20.9 4 1
02/27/06 9:21 a -15.9 -15.9 -16.0 --- --- 26.1 E 0.43 31.3 -29.6 --- --- 734.3 0.024 0.000 20.8 4 1
02/27/06 9:22 a -16.0 -16.0 -16.1 --- --- 26.1 E 0.43 30.4 -29.7 --- --- 734.4 0.024 0.000 20.8 4 1
02/27/06 9:23 a -16.0 -16.0 -16.1 --- --- 26.1 E 0.43 32.2 -29.7 --- --- 734.4 0.024 0.000 20.8 4 1
02/27/06 9:24 a -16.1 -16.1 -16.1 --- --- 25.2 E 0.42 30.4 -29.6 --- --- 734.5 0.024 0.000 20.8 4 1
02/27/06 9:25 a -16.1 -16.1 -16.1 --- --- 26.1 E 0.43 31.3 -29.8 --- --- 734.4 0.024 0.000 20.8 4 1
02/27/06 9:26 a -16.1 -16.1 -16.1 --- --- 26.1 E 0.43 29.6 -29.8 --- --- 734.4 0.024 0.000 20.8 4 1
02/27/06 9:27 a -16.1 -16.1 -16.2 --- --- 26.1 E 0.43 33.0 -29.8 --- --- 734.3 0.024 0.000 20.8 4 1
02/27/06 9:28 a -16.2 -16.2 -16.2 --- --- 26.1 E 0.43 30.4 -29.9 --- --- 734.4 0.024 0.000 20.8 4 1
02/27/06 9:29 a -16.2 -16.2 -16.2 --- --- 25.2 E 0.42 29.6 -29.7 --- --- 734.4 0.024 0.000 20.8 4 1
02/27/06 9:30 a -16.2 -16.2 -16.2 --- --- 26.1 E 0.43 30.4 -29.9 --- --- 734.2 0.024 0.000 20.8 4 1
02/27/06 9:31 a -16.2 -16.2 -16.2 --- --- 26.1 E 0.43 29.6 -30.0 --- --- 734.4 0.024 0.000 20.8 4 1
02/27/06 9:32 a -16.2 -16.2 -16.2 --- --- 25.2 E 0.42 30.4 -29.8 --- --- 734.3 0.024 0.000 20.8 4 1
02/27/06 9:33 a -16.2 -16.2 -16.2 --- --- 29.6 E 0.49 33.9 -30.7 --- --- 734.2 0.024 0.000 20.8 4 1
02/27/06 9:34 a -16.2 -16.2 -16.3 --- --- 25.2 E 0.42 30.4 -29.8 --- --- 734.2 0.024 0.000 20.8 4 1
02/27/06 9:35 a -16.3 -16.3 -16.3 --- --- 27.0 E 0.45 30.4 -30.2 --- --- 734.3 0.024 0.000 20.8 4 1
02/27/06 9:36 a -16.3 -16.3 -16.3 --- --- 26.1 E 0.43 31.3 -30.1 --- --- 734.3 0.024 0.000 20.8 4 1
02/27/06 9:37 a -16.3 -16.3 -16.3 --- --- 27.8 E 0.46 32.2 -30.4 --- --- 734.2 0.024 0.000 20.8 4 1
02/27/06 9:38 a -16.3 -16.3 -16.3 --- --- 26.1 E 0.43 32.2 -30.1 --- --- 734.2 0.024 0.000 20.8 4 1
02/27/06 9:39 a -16.3 -16.3 -16.3 --- --- 27.0 E 0.45 31.3 -30.2 --- --- 734.2 0.024 0.000 20.8 4 1
02/27/06 9:40 a -16.3 -16.3 -16.3 --- --- 29.6 E 0.49 35.7 -30.7 --- --- 734.2 0.024 0.000 20.8 4 1
02/27/06 9:41 a -16.3 -16.3 -16.3 --- --- 28.7 E 0.48 32.2 -30.6 --- --- 734.2 0.024 0.000 20.8 4 1
02/27/06 9:42 a -16.3 -16.3 -16.3 --- --- 28.7 E 0.48 33.0 -30.6 --- --- 734.3 0.024 0.000 20.8 4 1
02/27/06 9:43 a -16.3 -16.3 -16.3 --- --- 26.1 E 0.43 32.2 -30.1 --- --- 734.3 0.024 0.000 20.8 4 1
02/27/06 9:44 a -16.3 -16.3 -16.3 --- --- 25.2 E 0.42 33.0 -29.9 --- --- 734.3 0.024 0.000 20.8 4 1
02/27/06 9:45 a -16.3 -16.2 -16.3 --- --- 27.0 E 0.45 33.0 -30.2 --- --- 734.4 0.024 0.000 20.8 4 1
02/27/06 9:46 a -16.2 -16.2 -16.2 --- --- 27.8 E 0.46 33.0 -30.3 --- --- 734.3 0.024 0.000 20.7 4 1
02/27/06 9:47 a -16.2 -16.2 -16.3 --- --- 27.0 E 0.45 32.2 -30.2 --- --- 734.3 0.024 0.000 20.7 4 1
02/27/06 9:48 a -16.2 -16.2 -16.2 --- --- 28.7 E 0.48 33.0 -30.5 --- --- 734.3 0.024 0.000 20.7 4 1
02/27/06 9:49 a -16.2 -16.2 -16.2 --- --- 29.6 E 0.49 35.7 -30.7 --- --- 734.2 0.024 0.000 20.7 4 1
02/27/06 9:50 a -16.2 -16.2 -16.2 --- --- 27.0 E 0.45 32.2 -30.1 --- --- 734.4 0.024 0.000 20.7 4 1
02/27/06 9:51 a -16.2 -16.2 -16.2 --- --- 26.1 E 0.43 31.3 -29.9 --- --- 734.4 0.024 0.000 20.7 4 1
02/27/06 9:52 a -16.2 -16.2 -16.2 --- --- 25.2 E 0.42 30.4 -29.7 --- --- 734.4 0.024 0.000 20.7 4 1
02/27/06 9:53 a -16.2 -16.2 -16.2 --- --- 27.8 E 0.46 34.8 -30.2 --- --- 734.5 0.024 0.000 20.7 4 1
02/27/06 9:54 a -16.2 -16.2 -16.2 --- --- 28.7 E 0.48 32.2 -30.4 --- --- 734.5 0.024 0.000 20.7 4 1
02/27/06 9:55 a -16.2 -16.2 -16.2 --- --- 27.8 E 0.46 30.4 -30.2 --- --- 734.5 0.024 0.000 20.7 4 1
02/27/06 9:56 a -16.2 -16.2 -16.2 --- --- 25.2 E 0.42 31.3 -29.7 --- --- 734.5 0.024 0.000 20.7 4 1
02/27/06 9:57 a -16.2 -16.2 -16.2 --- --- 27.0 E 0.45 33.9 -30.2 --- --- 734.5 0.024 0.000 20.7 4 1
02/27/06 9:58 a -16.2 -16.2 -16.2 --- --- 28.7 E 0.48 34.8 -30.4 --- --- 734.5 0.024 0.000 20.7 4 1
02/27/06 9:59 a -16.2 -16.2 -16.2 --- --- 27.0 E 0.45 33.0 -30.1 --- --- 734.4 0.024 0.000 20.7 4 1
02/27/06 10:00 a -16.2 -16.2 -16.2 --- --- 29.6 E 0.49 33.9 -30.6 --- --- 734.6 0.024 0.000 20.7 4 1
02/27/06 10:01 a -16.2 -16.2 -16.2 --- --- 25.2 E 0.42 32.2 -29.7 --- --- 734.5 0.024 0.000 20.7 4 1
02/27/06 10:02 a -16.2 -16.2 -16.2 --- --- 25.2 E 0.42 31.3 -29.7 --- --- 734.5 0.024 0.000 20.7 4 1
02/27/06 10:03 a -16.2 -16.2 -16.2 --- --- 27.0 E 0.45 32.2 -30.2 --- --- 734.5 0.024 0.000 20.7 4 1
02/27/06 10:04 a -16.2 -16.2 -16.2 --- --- 27.0 E 0.45 31.3 -30.2 --- --- 734.4 0.024 0.000 20.6 4 1
02/27/06 10:05 a -16.2 -16.2 -16.2 --- --- 27.8 E 0.46 32.2 -30.3 --- --- 734.5 0.024 0.000 20.6 4 1
02/27/06 10:06 a -16.2 -16.2 -16.2 --- --- 26.1 E 0.43 29.6 -30.0 --- --- 734.6 0.024 0.000 20.6 4 1
02/27/06 10:07 a -16.2 -16.2 -16.2 --- --- 25.2 E 0.42 28.7 -29.8 --- --- 734.6 0.024 0.000 20.6 4 1
02/27/06 10:08 a -16.2 -16.2 -16.2 --- --- 26.1 E 0.43 33.0 -30.0 --- --- 734.6 0.024 0.000 20.6 4 1
02/27/06 10:09 a -16.2 -16.2 -16.2 --- --- 27.0 E 0.45 30.4 -30.2 --- --- 734.7 0.024 0.000 20.6 4 1
02/27/06 10:10 a -16.2 -16.2 -16.2 --- --- 25.2 E 0.42 29.6 -29.8 --- --- 734.6 0.024 0.000 20.6 4 1
02/27/06 10:11 a -16.2 -16.2 -16.2 --- --- 26.1 E 0.43 29.6 -30.0 --- --- 734.6 0.024 0.000 20.6 4 1
02/27/06 10:12 a -16.2 -16.2 -16.2 --- --- 27.8 E 0.46 31.3 -30.3 --- --- 734.6 0.024 0.000 20.6 4 1
02/27/06 10:13 a -16.2 -16.2 -16.2 --- --- 25.2 E 0.42 30.4 -29.8 --- --- 734.6 0.024 0.000 20.6 4 1
02/27/06 10:14 a -16.2 -16.2 -16.2 --- --- 25.2 E 0.42 30.4 -29.8 --- --- 734.6 0.024 0.000 20.7 4 1
02/27/06 10:15 a -16.2 -16.2 -16.2 --- --- 26.1 E 0.43 33.9 -30.0 --- --- 734.6 0.024 0.000 20.7 4 1
02/27/06 10:16 a -16.2 -16.2 -16.2 --- --- 26.1 E 0.43 32.2 -30.0 --- --- 734.5 0.024 0.000 20.7 4 1
02/27/06 10:17 a -16.2 -16.2 -16.2 --- --- 25.2 E 0.42 29.6 -29.8 --- --- 734.5 0.024 0.000 20.7 4 1
02/27/06 10:18 a -16.2 -16.2 -16.2 --- --- 26.1 E 0.43 30.4 -30.0 --- --- 734.6 0.024 0.000 20.6 4 1
02/27/06 10:19 a -16.2 -16.2 -16.2 --- --- 24.3 E 0.41 30.4 -29.6 --- --- 734.6 0.024 0.000 20.6 4 1
02/27/06 10:20 a -16.2 -16.2 -16.2 --- --- 26.1 E 0.43 30.4 -30.0 --- --- 734.5 0.024 0.000 20.7 4 1
02/27/06 10:21 a -16.2 -16.2 -16.2 --- --- 26.1 E 0.43 31.3 -30.0 --- --- 734.5 0.024 0.000 20.7 4 1
02/27/06 10:22 a -16.2 -16.2 -16.2 --- --- 27.0 E 0.45 30.4 -30.2 --- --- 734.5 0.024 0.000 20.7 4 1
02/27/06 10:23 a -16.2 -16.2 -16.2 --- --- 27.8 E 0.46 32.2 -30.3 --- --- 734.6 0.024 0.000 20.7 4 1
02/27/06 10:24 a -16.2 -16.2 -16.2 --- --- 26.1 E 0.43 33.0 -30.0 --- --- 734.5 0.024 0.000 20.7 4 1
02/27/06 10:25 a -16.2 -16.2 -16.2 --- --- 25.2 E 0.42 32.2 -29.8 --- --- 734.6 0.024 0.000 20.6 4 1
02/27/06 10:26 a -16.2 -16.2 -16.2 --- --- 27.8 E 0.46 33.9 -30.2 --- --- 734.6 0.024 0.000 20.6 4 1
02/27/06 10:27 a -16.2 -16.2 -16.2 --- --- 26.1 E 0.43 33.0 -30.0 --- --- 734.6 0.024 0.000 20.6 4 1
02/27/06 10:28 a -16.2 -16.2 -16.2 --- --- 27.0 E 0.45 32.2 -30.1 --- --- 734.5 0.024 0.000 20.6 4 1
02/27/06 10:29 a -16.2 -16.2 -16.2 --- --- 27.0 E 0.45 30.4 -30.1 --- --- 734.5 0.024 0.000 20.6 4 1
02/27/06 10:30 a -16.2 -16.2 -16.2 --- --- 27.0 E 0.45 31.3 -30.1 --- --- 734.5 0.024 0.000 20.6 4 1
02/27/06 10:31 a -16.2 -16.2 -16.2 --- --- 28.7 E 0.48 32.2 -30.4 --- --- 734.6 0.024 0.000 20.6 4 1
02/27/06 10:32 a -16.2 -16.1 -16.2 --- --- 27.0 E 0.45 34.8 -30.1 --- --- 734.5 0.024 0.000 20.6 4 1
02/27/06 10:33 a -16.2 -16.2 -16.2 --- --- 26.1 E 0.43 30.4 -29.9 --- --- 734.5 0.024 0.000 20.6 4 1
02/27/06 10:34 a -16.1 -16.1 -16.2 --- --- 26.1 E 0.43 30.4 -29.8 --- --- 734.5 0.024 0.000 20.6 4 1
02/27/06 10:35 a -16.1 -16.1 -16.2 --- --- 27.0 E 0.45 31.3 -30.0 --- --- 734.5 0.024 0.000 20.6 4 1
02/27/06 10:36 a -16.1 -16.1 -16.1 --- --- 25.2 E 0.42 28.7 -29.7 --- --- 734.5 0.024 0.000 20.6 4 1
02/27/06 10:37 a -16.1 -16.1 -16.1 --- --- 24.3 E 0.41 27.8 -29.4 --- --- 734.5 0.024 0.000 20.6 4 1
02/27/06 10:38 a -16.1 -16.1 -16.1 --- --- 25.2 E 0.42 29.6 -29.7 --- --- 734.5 0.024 0.000 20.6 4 1
02/27/06 10:39 a -16.1 -16.1 -16.1 --- --- 27.0 E 0.45 30.4 -30.0 --- --- 734.4 0.024 0.000 20.6 4 1
02/27/06 10:40 a -16.1 -16.1 -16.1 --- --- 25.2 E 0.42 31.3 -29.7 --- --- 734.4 0.024 0.000 20.6 4 1
02/27/06 10:41 a -16.1 -16.1 -16.1 --- --- 26.1 E 0.43 29.6 -29.8 --- --- 734.5 0.024 0.000 20.6 4 1
02/27/06 10:42 a -16.1 -16.1 -16.1 --- --- 27.0 E 0.45 30.4 -29.9 --- --- 734.5 0.024 0.000 20.6 4 1
02/27/06 10:43 a -16.1 -16.1 -16.1 --- --- 26.1 E 0.43 29.6 -29.8 --- --- 734.5 0.024 0.000 20.5 4 1
02/27/06 10:44 a -16.1 -16.1 -16.1 --- --- 24.3 E 0.41 28.7 -29.4 --- --- 734.4 0.024 0.000 20.5 4 1
02/27/06 10:45 a -16.1 -16.0 -16.1 --- --- 26.1 E 0.43 29.6 -29.8 --- --- 734.5 0.024 0.000 20.5 4 1
02/27/06 10:46 a -16.0 -16.0 -16.1 --- --- 26.1 E 0.43 32.2 -29.7 --- --- 734.4 0.024 0.000 20.5 4 1
02/27/06 10:47 a -16.0 -16.0 -16.1 --- --- 26.1 E 0.43 28.7 -29.7 --- --- 734.3 0.024 0.000 20.5 4 1
02/27/06 10:48 a -16.0 -16.0 -16.1 --- --- 24.3 E 0.41 29.6 -29.3 --- --- 734.5 0.024 0.000 20.5 4 1
02/27/06 10:49 a -16.0 -16.0 -16.0 --- --- 27.0 E 0.45 29.6 -29.8 --- --- 734.5 0.024 0.000 20.5 4 1
02/27/06 10:50 a -16.0 -16.0 -16.0 --- --- 26.1 E 0.43 29.6 -29.7 --- --- 734.4 0.024 0.000 20.4 4 1
02/27/06 10:51 a -16.0 -16.0 -16.0 --- --- 26.1 E 0.43 32.2 -29.7 --- --- 734.4 0.024 0.000 20.5 4 1
02/27/06 10:52 a -16.0 -15.9 -16.0 --- --- 26.1 E 0.43 30.4 -29.7 --- --- 734.4 0.024 0.000 20.5 4 1
02/27/06 10:53 a -15.9 -15.9 -16.0 --- --- 27.8 E 0.46 32.2 -29.9 --- --- 734.3 0.024 0.000 20.5 3 1
02/27/06 10:54 a -15.9 -15.9 -15.9 --- --- 27.8 E 0.46 32.2 -29.9 --- --- 734.4 0.024 0.000 20.5 4 1
02/27/06 10:55 a -15.9 -15.9 -16.0 --- --- 28.7 E 0.48 32.2 -30.1 --- --- 734.6 0.024 0.000 20.5 3 1
02/27/06 10:56 a -16.0 -15.9 -16.0 --- --- 24.3 E 0.41 28.7 -29.3 --- --- 734.5 0.024 0.000 20.5 4 1
02/27/06 10:57 a -15.9 -15.9 -15.9 --- --- 25.2 E 0.42 28.7 -29.4 --- --- 734.4 0.024 0.000 20.5 4 1
02/27/06 10:58 a -15.9 -15.9 -15.9 --- --- 28.7 E 0.48 35.7 -30.1 --- --- 734.1 0.024 0.000 20.5 4 1
02/27/06 10:59 a -15.9 -15.9 -15.9 --- --- 29.6 E 0.49 33.9 -30.3 --- --- 734.3 0.024 0.000 20.5 4 1
02/27/06 11:00 a -15.9 -15.9 -15.9 --- --- 27.0 E 0.45 32.2 -29.8 --- --- 734.4 0.024 0.000 20.4 4 1
02/27/06 11:01 a -15.9 -15.9 -15.9 --- --- 24.3 E 0.41 29.6 -29.2 --- --- 734.5 0.024 0.000 20.4 4 1
02/27/06 11:02 a -15.9 -15.9 -15.9 --- --- 26.1 E 0.43 30.4 -29.6 --- --- 734.2 0.024 0.000 20.4 4 1
02/27/06 11:03 a -15.9 -15.9 -15.9 --- --- 27.0 E 0.45 31.3 -29.7 --- --- 734.0 0.024 0.000 20.4 4 1
02/27/06 11:04 a -15.9 -15.9 -15.9 --- --- 29.6 E 0.49 32.2 -30.3 --- --- 734.1 0.024 0.000 20.4 4 1
02/27/06 11:05 a -15.9 -15.9 -15.9 --- --- 27.8 E 0.46 33.0 -29.9 --- --- 734.3 0.024 0.000 20.5 4 1
02/27/06 11:06 a -15.9 -15.9 -15.9 --- --- 26.1 E 0.43 30.4 -29.5 --- --- 734.3 0.024 0.000 20.5 4 1
02/27/06 11:07 a -15.9 -15.9 -15.9 --- --- 26.1 E 0.43 30.4 -29.5 --- --- 734.3 0.024 0.000 20.4 4 1
02/27/06 11:08 a -15.9 -15.9 -15.9 --- --- 26.1 E 0.43 31.3 -29.5 --- --- 734.2 0.024 0.000 20.4 3 1
02/27/06 11:09 a -15.9 -15.9 -15.9 --- --- 26.1 E 0.43 29.6 -29.5 --- --- 734.3 0.024 0.000 20.4 3 1
02/27/06 11:10 a -15.9 -15.8 -15.9 --- --- 27.0 E 0.45 32.2 -29.7 --- --- 734.1 0.024 0.000 20.4 4 1
02/27/06 11:11 a -15.9 -15.9 -15.9 --- --- 32.2 E 0.54 35.7 -30.7 --- --- 733.9 0.024 0.000 20.4 4 1
02/27/06 11:12 a -15.9 -15.8 -15.9 --- --- 32.2 E 0.54 35.7 -30.7 --- --- 734.2 0.024 0.000 20.4 4 1
02/27/06 11:13 a -15.9 -15.8 -15.9 --- --- 28.7 E 0.48 35.7 -30.1 --- --- 734.4 0.024 0.000 20.4 4 1
02/27/06 11:14 a -15.9 -15.8 -15.9 --- --- 25.2 E 0.42 29.6 -29.3 --- --- 734.5 0.024 0.000 20.4 4 1
02/27/06 11:15 a -15.9 -15.8 -15.9 --- --- 25.2 E 0.42 31.3 -29.3 --- --- 734.2 0.024 0.000 20.4 4 1
02/27/06 11:16 a -15.8 -15.8 -15.9 --- --- 29.6 E 0.49 35.7 -30.1 --- --- 734.1 0.024 0.000 20.4 4 1
02/27/06 11:17 a -15.8 -15.8 -15.8 --- --- 29.6 E 0.49 36.5 -30.1 --- --- 734.3 0.024 0.000 20.4 4 1
02/27/06 11:18 a -15.8 -15.8 -15.8 --- --- 25.2 E 0.42 32.2 -29.3 --- --- 734.5 0.024 0.000 20.4 4 1
02/27/06 11:19 a -15.8 -15.8 -15.9 --- --- 24.3 E 0.41 31.3 -29.1 --- --- 734.5 0.024 0.000 20.4 4 1
02/27/06 11:20 a -15.8 -15.8 -15.8 --- --- 24.3 E 0.41 30.4 -29.1 --- --- 734.2 0.024 0.000 20.4 3 1
02/27/06 11:21 a -15.8 -15.8 -15.8 --- --- 31.3 E 0.52 36.5 -30.4 --- --- 734.2 0.024 0.000 20.4 4 1
02/27/06 11:22 a -15.8 -15.8 -15.8 --- --- 27.8 E 0.46 32.2 -29.8 --- --- 734.4 0.024 0.000 20.4 3 1
02/27/06 11:23 a -15.8 -15.8 -15.8 --- --- 25.2 E 0.42 29.6 -29.3 --- --- 734.4 0.024 0.000 20.4 4 1
02/27/06 11:24 a -15.8 -15.8 -15.8 --- --- 28.7 E 0.48 33.9 -29.9 --- --- 734.4 0.024 0.000 20.4 3 1
02/27/06 11:25 a -15.8 -15.8 -15.8 --- --- 25.2 E 0.42 30.4 -29.3 --- --- 734.6 0.024 0.000 20.4 4 1
02/27/06 11:26 a -15.8 -15.8 -15.8 --- --- 27.0 E 0.45 28.7 -29.6 --- --- 734.2 0.024 0.000 20.4 4 1
02/27/06 11:27 a -15.8 -15.8 -15.8 --- --- 28.7 E 0.48 35.7 -29.9 --- --- 734.0 0.024 0.000 20.4 4 1
02/27/06 11:28 a -15.8 -15.8 -15.8 --- --- 29.6 E 0.49 35.7 -30.1 --- --- 734.4 0.024 0.000 20.4 4 1
02/27/06 11:29 a -15.8 -15.8 -15.8 --- --- 27.0 E 0.45 31.3 -29.6 --- --- 734.5 0.024 0.000 20.3 3 1
02/27/06 11:30 a -15.8 -15.8 -15.8 --- --- 24.3 E 0.41 31.3 -29.1 --- --- 734.5 0.024 0.000 20.3 4 1
02/27/06 11:31 a -15.8 -15.8 -15.8 --- --- 25.2 E 0.42 31.3 -29.2 --- --- 734.3 0.024 0.000 20.3 4 1
02/27/06 11:32 a -15.8 -15.8 -15.8 --- --- 27.0 E 0.45 31.3 -29.6 --- --- 734.4 0.024 0.000 20.3 3 1
02/27/06 11:33 a -15.8 -15.8 -15.8 --- --- 28.7 E 0.48 34.8 -29.9 --- --- 734.5 0.024 0.000 20.3 4 1
02/27/06 11:34 a -15.8 -15.8 -15.8 --- --- 25.2 E 0.42 32.2 -29.2 --- --- 734.3 0.024 0.000 20.3 3 1
02/27/06 11:35 a -15.8 -15.8 -15.8 --- --- 26.1 E 0.43 29.6 -29.4 --- --- 734.3 0.024 0.000 20.3 3 1
02/27/06 11:36 a -15.8 -15.8 -15.8 --- --- 27.0 E 0.45 33.9 -29.6 --- --- 734.2 0.024 0.000 20.3 4 1
02/27/06 11:37 a -15.8 -15.8 -15.8 --- --- 29.6 E 0.49 33.0 -30.1 --- --- 734.4 0.024 0.000 20.3 3 1
02/27/06 11:38 a -15.8 -15.8 -15.8 --- --- 28.7 E 0.48 33.9 -29.9 --- --- 734.7 0.024 0.000 20.3 4 1
02/27/06 11:39 a -15.8 -15.8 -15.8 --- --- 24.3 E 0.41 28.7 -29.1 --- --- 734.7 0.024 0.000 20.3 3 1
02/27/06 11:40 a -15.8 -15.8 -15.8 --- --- 23.5 E 0.39 29.6 -28.9 --- --- 734.4 0.024 0.000 20.3 3 1
02/27/06 11:41 a -15.8 -15.8 -15.8 --- --- 25.2 E 0.42 32.2 -29.3 --- --- 734.2 0.024 0.000 20.3 3 1
02/27/06 11:42 a -15.8 -15.8 -15.8 --- --- 28.7 E 0.48 33.0 -29.9 --- --- 734.5 0.024 0.000 20.3 3 1
02/27/06 11:43 a -15.8 -15.8 -15.8 --- --- 25.2 E 0.42 29.6 -29.2 --- --- 734.7 0.024 0.000 20.3 3 1
02/27/06 11:44 a -15.8 -15.8 -15.8 --- --- 23.5 E 0.39 28.7 -28.9 --- --- 734.7 0.024 0.000 20.3 3 1
02/27/06 11:45 a -15.8 -15.8 -15.8 --- --- 22.6 E 0.38 27.8 -28.7 --- --- 734.6 0.024 0.000 20.3 3 1
02/27/06 11:46 a -15.8 -15.8 -15.8 --- --- 24.3 E 0.41 29.6 -29.1 --- --- 734.3 0.024 0.000 20.3 3 1
02/27/06 11:47 a -15.8 -15.8 -15.8 --- --- 26.1 E 0.43 29.6 -29.4 --- --- 734.2 0.024 0.000 20.3 3 1
02/27/06 11:48 a -15.8 -15.8 -15.8 --- --- 27.0 E 0.45 31.3 -29.6 --- --- 734.5 0.024 0.000 20.3 3 1
02/27/06 11:49 a -15.8 -15.8 -15.8 --- --- 25.2 E 0.42 30.4 -29.3 --- --- 734.5 0.024 0.000 20.3 3 1
02/27/06 11:50 a -15.8 -15.8 -15.8 --- --- 24.3 E 0.41 30.4 -29.1 --- --- 734.3 0.024 0.000 20.3 3 1
02/27/06 11:51 a -15.8 -15.8 -15.8 --- --- 27.0 E 0.45 32.2 -29.6 --- --- 734.5 0.024 0.000 20.3 3 1
02/27/06 11:52 a -15.8 -15.8 -15.8 --- --- 25.2 E 0.42 30.4 -29.3 --- --- 734.6 0.024 0.000 20.3 3 1
02/27/06 11:53 a -15.8 -15.8 -15.8 --- --- 22.6 E 0.38 25.2 -28.7 --- --- 734.5 0.024 0.000 20.3 3 1
02/27/06 11:54 a -15.8 -15.8 -15.8 --- --- 24.3 E 0.41 27.8 -29.1 --- --- 734.4 0.024 0.000 20.3 3 1
02/27/06 11:55 a -15.8 -15.8 -15.8 --- --- 25.2 E 0.42 30.4 -29.3 --- --- 734.4 0.024 0.000 20.3 3 1
02/27/06 11:56 a -15.8 -15.8 -15.8 --- --- 27.0 E 0.45 29.6 -29.6 --- --- 734.5 0.024 0.000 20.3 3 1
02/27/06 11:57 a -15.8 -15.8 -15.9 --- --- 27.0 E 0.45 30.4 -29.6 --- --- 734.5 0.024 0.000 20.3 3 1
02/27/06 11:58 a -15.9 -15.9 -15.9 --- --- 24.3 E 0.41 27.0 -29.2 --- --- 734.5 0.024 0.000 20.3 3 1
02/27/06 11:59 a -15.9 -15.8 -15.9 --- --- 23.5 E 0.39 27.8 -29.0 --- --- 734.4 0.024 0.000 20.3 3 1
02/27/06 12:00 p -15.8 -15.8 -15.9 --- --- 24.3 E 0.41 27.8 -29.1 --- --- 734.6 0.024 0.000 20.3 3 1
02/27/06 12:01 p -15.9 -15.9 -15.9 --- --- 23.5 E 0.39 27.8 -29.0 --- --- 734.6 0.024 0.000 20.3 3 1
02/27/06 12:02 p -15.9 -15.9 -15.9 --- --- 23.5 E 0.39 26.1 -29.0 --- --- 734.4 0.024 0.000 20.3 3 1
02/27/06 12:03 p -15.9 -15.9 -15.9 --- --- 26.1 E 0.43 32.2 -29.5 --- --- 734.2 0.024 0.000 20.3 3 1
02/27/06 12:04 p -15.9 -15.9 -15.9 --- --- 27.0 E 0.45 31.3 -29.7 --- --- 734.4 0.024 0.000 20.3 3 1
02/27/06 12:05 p -15.9 -15.9 -15.9 --- --- 26.1 E 0.43 32.2 -29.5 --- --- 734.4 0.024 0.000 20.3 3 1
02/27/06 12:06 p -15.9 -15.9 -15.9 --- --- 27.0 E 0.45 29.6 -29.7 --- --- 734.5 0.024 0.000 20.3 3 1
02/27/06 12:07 p -15.9 -15.9 -15.9 --- --- 23.5 E 0.39 27.0 -29.1 --- --- 734.5 0.024 0.000 20.3 3 1
02/27/06 12:08 p -15.9 -15.9 -15.9 --- --- 24.3 E 0.41 29.6 -29.2 --- --- 734.4 0.024 0.000 20.3 3 1
02/27/06 12:09 p -15.9 -15.9 -15.9 --- --- 27.0 E 0.45 33.9 -29.8 --- --- 734.3 0.024 0.000 20.3 3 1
02/27/06 12:10 p -15.9 -15.9 -15.9 --- --- 26.1 E 0.43 29.6 -29.6 --- --- 734.1 0.024 0.000 20.3 3 1
02/27/06 12:11 p -15.9 -15.9 -15.9 --- --- 26.1 E 0.43 30.4 -29.6 --- --- 734.5 0.024 0.000 20.3 3 1
02/27/06 12:12 p -15.9 -15.9 -16.0 --- --- 25.2 E 0.42 28.7 -29.4 --- --- 734.4 0.024 0.000 20.3 3 1
02/27/06 12:13 p -15.9 -15.9 -16.0 --- --- 25.2 E 0.42 29.6 -29.4 --- --- 734.4 0.024 0.000 20.3 3 1
02/27/06 12:14 p -16.0 -15.9 -16.0 --- --- 24.3 E 0.41 29.6 -29.3 --- --- 734.4 0.024 0.000 20.3 3 1
02/27/06 12:15 p -16.0 -16.0 -16.0 --- --- 25.2 E 0.42 30.4 -29.5 --- --- 734.3 0.024 0.000 20.3 3 1
02/27/06 12:16 p -16.0 -16.0 -16.0 --- --- 28.7 E 0.48 33.9 -30.2 --- --- 734.3 0.024 0.000 20.3 3 1
02/27/06 12:17 p -16.0 -16.0 -16.0 --- --- 27.0 E 0.45 31.3 -29.8 --- --- 734.4 0.024 0.000 20.3 3 1
02/27/06 12:18 p -16.1 -16.1 -16.1 --- --- 23.5 E 0.39 28.7 -29.2 --- --- 734.6 0.024 0.000 20.3 3 1
02/27/06 12:19 p -16.1 -16.1 -16.1 --- --- 25.2 ENE 0.42 29.6 -29.6 --- --- 734.5 0.024 0.000 20.3 3 1
02/27/06 12:20 p -16.1 -16.1 -16.1 --- --- 22.6 E 0.38 27.0 -29.0 --- --- 734.4 0.024 0.000 20.3 3 1
02/27/06 12:21 p -16.1 -16.1 -16.1 --- --- 26.1 E 0.43 30.4 -29.8 --- --- 734.2 0.024 0.000 20.2 3 1
02/27/06 12:22 p -16.1 -16.1 -16.1 --- --- 25.2 E 0.42 29.6 -29.6 --- --- 734.2 0.024 0.000 20.2 3 1
02/27/06 12:23 p -16.1 -16.1 -16.1 --- --- 24.3 E 0.41 30.4 -29.4 --- --- 734.2 0.024 0.000 20.2 3 1
02/27/06 12:24 p -16.1 -16.1 -16.1 --- --- 27.0 E 0.45 34.8 -30.0 --- --- 734.3 0.024 0.000 20.2 3 1
02/27/06 12:25 p -16.1 -16.1 -16.1 --- --- 26.1 E 0.43 30.4 -29.8 --- --- 734.2 0.024 0.000 20.2 3 1
02/27/06 12:26 p -16.1 -16.1 -16.2 --- --- 25.2 E 0.42 29.6 -29.7 --- --- 734.5 0.024 0.000 20.2 3 1
02/27/06 12:27 p -16.2 -16.2 -16.2 --- --- 21.7 E 0.36 26.1 -28.9 --- --- 734.5 0.024 0.000 20.2 3 1
02/27/06 12:28 p -16.2 -16.2 -16.2 --- --- 27.8 E 0.46 34.8 -30.2 --- --- 734.3 0.024 0.000 20.2 3 1
02/27/06 12:29 p -16.2 -16.2 -16.2 --- --- 26.1 E 0.43 31.3 -29.9 --- --- 734.4 0.024 0.000 20.2 3 1
02/27/06 12:30 p -16.2 -16.2 -16.2 --- --- 22.6 E 0.38 27.0 -29.2 --- --- 734.6 0.024 0.000 20.2 3 1
02/27/06 12:31 p -16.2 -16.2 -16.2 --- --- 22.6 E 0.38 29.6 -29.2 --- --- 734.3 0.024 0.000 20.2 3 1
02/27/06 12:32 p -16.2 -16.2 -16.2 --- --- 28.7 E 0.48 33.9 -30.5 --- --- 734.4 0.024 0.000 20.2 3 1
02/27/06 12:33 p -16.2 -16.2 -16.2 --- --- 27.0 E 0.45 32.2 -30.2 --- --- 734.6 0.024 0.000 20.2 3 1
02/27/06 12:34 p -16.2 -16.2 -16.2 --- --- 20.9 E 0.35 28.7 -28.8 --- --- 734.3 0.024 0.000 20.2 3 1
02/27/06 12:35 p -16.2 -16.2 -16.2 --- --- 24.3 E 0.41 30.4 -29.6 --- --- 734.2 0.024 0.000 20.2 3 1
02/27/06 12:36 p -16.2 -16.2 -16.2 --- --- 26.1 E 0.43 31.3 -30.0 --- --- 734.3 0.024 0.000 20.2 3 1
02/27/06 12:37 p -16.3 -16.2 -16.3 --- --- 26.1 E 0.43 31.3 -30.1 --- --- 734.4 0.024 0.000 20.2 3 1
02/27/06 12:38 p -16.3 -16.2 -16.3 --- --- 24.3 E 0.41 27.8 -29.7 --- --- 734.3 0.024 0.000 20.2 3 1
02/27/06 12:39 p -16.3 -16.3 -16.3 --- --- 23.5 E 0.39 27.8 -29.5 --- --- 734.1 0.024 0.000 20.2 3 1
02/27/06 12:40 p -16.3 -16.3 -16.3 --- --- 26.1 E 0.43 32.2 -30.1 --- --- 734.1 0.024 0.000 20.2 3 1
02/27/06 12:41 p -16.3 -16.3 -16.3 --- --- 27.0 E 0.45 33.0 -30.2 --- --- 734.1 0.024 0.000 20.2 3 1
02/27/06 12:42 p -16.3 -16.3 -16.3 --- --- 27.0 E 0.45 31.3 -30.2 --- --- 734.2 0.024 0.000 20.2 3 1
02/27/06 12:43 p -16.3 -16.3 -16.3 --- --- 27.8 E 0.46 31.3 -30.4 --- --- 734.2 0.024 0.000 20.2 3 1
02/27/06 12:44 p -16.3 -16.3 -16.3 --- --- 26.1 E 0.43 29.6 -30.1 --- --- 734.4 0.024 0.000 20.2 3 1
02/27/06 12:45 p -16.3 -16.3 -16.3 --- --- 23.5 E 0.39 27.8 -29.6 --- --- 734.3 0.024 0.000 20.2 3 1
02/27/06 12:46 p -16.3 -16.3 -16.3 --- --- 25.2 E 0.42 30.4 -29.9 --- --- 734.1 0.024 0.000 20.2 3 1
02/27/06 12:47 p -16.3 -16.3 -16.3 --- --- 26.1 E 0.43 30.4 -30.1 --- --- 734.2 0.024 0.000 20.2 3 1
02/27/06 12:48 p -16.3 -16.3 -16.3 --- --- 26.1 E 0.43 31.3 -30.1 --- --- 734.3 0.024 0.000 20.2 3 1
02/27/06 12:49 p -16.3 -16.3 -16.3 --- --- 26.1 E 0.43 29.6 -30.1 --- --- 734.2 0.024 0.000 20.2 3 1
02/27/06 12:50 p -16.3 -16.3 -16.3 --- --- 25.2 E 0.42 28.7 -29.9 --- --- 734.4 0.024 0.000 20.2 3 1
02/27/06 12:51 p -16.3 -16.3 -16.4 --- --- 24.3 E 0.41 31.3 -29.8 --- --- 734.0 0.024 0.000 20.2 3 1
02/27/06 12:52 p -16.3 -16.3 -16.4 --- --- 28.7 E 0.48 33.0 -30.7 --- --- 734.0 0.024 0.000 20.2 3 1
02/27/06 12:53 p -16.4 -16.4 -16.4 --- --- 27.0 E 0.45 33.9 -30.4 --- --- 734.2 0.024 0.000 20.2 3 1
02/27/06 12:54 p -16.3 -16.3 -16.4 --- --- 23.5 E 0.39 27.8 -29.6 --- --- 734.2 0.024 0.000 20.2 3 1
02/27/06 12:55 p -16.4 -16.4 -16.4 --- --- 25.2 E 0.42 32.2 -30.0 --- --- 734.1 0.024 0.000 20.2 3 1
02/27/06 12:56 p -16.4 -16.4 -16.4 --- --- 27.0 E 0.45 30.4 -30.4 --- --- 734.1 0.024 0.000 20.2 3 1
02/27/06 12:57 p -16.4 -16.4 -16.4 --- --- 27.0 E 0.45 29.6 -30.4 --- --- 734.4 0.024 0.000 20.2 3 1
02/27/06 12:58 p -16.4 -16.4 -16.4 --- --- 23.5 E 0.39 27.0 -29.7 --- --- 734.2 0.024 0.000 20.1 3 1
02/27/06 12:59 p -16.4 -16.4 -16.4 --- --- 26.1 E 0.43 28.7 -30.2 --- --- 734.1 0.024 0.000 20.2 3 1
02/27/06 1:00 p -16.4 -16.4 -16.4 --- --- 23.5 E 0.39 27.8 -29.7 --- --- 734.1 0.024 0.000 20.1 3 1
02/27/06 1:01 p -16.4 -16.4 -16.4 --- --- 29.6 E 0.49 34.8 -30.9 --- --- 734.2 0.024 0.000 20.1 3 1
02/27/06 1:02 p -16.4 -16.4 -16.4 --- --- 25.2 E 0.42 31.3 -30.0 --- --- 734.4 0.024 0.000 20.1 3 1
02/27/06 1:03 p -16.4 -16.4 -16.4 --- --- 22.6 E 0.38 27.0 -29.4 --- --- 734.2 0.024 0.000 20.1 3 1
02/27/06 1:04 p -16.4 -16.4 -16.4 --- --- 23.5 E 0.39 31.3 -29.7 --- --- 733.8 0.024 0.000 20.2 3 1
02/27/06 1:05 p -16.4 -16.4 -16.4 --- --- 33.0 E 0.55 38.3 -31.5 --- --- 733.9 0.024 0.000 20.1 3 1
02/27/06 1:06 p -16.4 -16.4 -16.4 --- --- 25.2 E 0.42 33.9 -30.0 --- --- 734.3 0.024 0.000 20.1 3 1
02/27/06 1:07 p -16.4 -16.4 -16.4 --- --- 23.5 E 0.39 27.0 -29.7 --- --- 734.1 0.024 0.000 20.1 3 1
02/27/06 1:08 p -16.4 -16.4 -16.4 --- --- 25.2 E 0.42 28.7 -30.0 --- --- 734.0 0.024 0.000 20.1 3 1
02/27/06 1:09 p -16.4 -16.4 -16.4 --- --- 27.0 E 0.45 32.2 -30.4 --- --- 734.1 0.024 0.000 20.1 3 1
02/27/06 1:10 p -16.4 -16.4 -16.4 --- --- 26.1 E 0.43 29.6 -30.2 --- --- 734.1 0.024 0.000 20.1 3 1
02/27/06 1:11 p -16.4 -16.4 -16.4 --- --- 24.3 E 0.41 27.8 -29.8 --- --- 734.3 0.024 0.000 20.1 3 1
02/27/06 1:12 p -16.4 -16.4 -16.4 --- --- 27.0 E 0.45 30.4 -30.4 --- --- 734.1 0.024 0.000 20.1 3 1
02/27/06 1:13 p -16.4 -16.4 -16.4 --- --- 24.3 E 0.41 27.8 -29.9 --- --- 734.2 0.024 0.000 20.1 3 1
02/27/06 1:14 p -16.4 -16.4 -16.4 --- --- 26.1 E 0.43 31.3 -30.2 --- --- 734.3 0.024 0.000 20.1 3 1
02/27/06 1:15 p -16.4 -16.4 -16.4 --- --- 26.1 E 0.43 29.6 -30.3 --- --- 734.2 0.024 0.000 20.1 3 1
02/27/06 1:16 p -16.4 -16.4 -16.4 --- --- 27.0 E 0.45 31.3 -30.4 --- --- 734.0 0.024 0.000 20.1 3 1
02/27/06 1:17 p -16.4 -16.4 -16.4 --- --- 27.0 E 0.45 31.3 -30.4 --- --- 734.4 0.024 0.000 20.1 3 1
02/27/06 1:18 p -16.4 -16.4 -16.4 --- --- 22.6 E 0.38 27.8 -29.6 --- --- 734.3 0.024 0.000 20.1 3 1
02/27/06 1:19 p -16.4 -16.4 -16.4 --- --- 25.2 E 0.42 32.2 -30.1 --- --- 734.3 0.024 0.000 20.1 3 1
02/27/06 1:20 p -16.4 -16.4 -16.4 --- --- 23.5 E 0.39 27.0 -29.7 --- --- 734.3 0.024 0.000 20.2 3 1
02/27/06 1:21 p -16.4 -16.4 -16.4 --- --- 23.5 E 0.39 28.7 -29.7 --- --- 734.2 0.024 0.000 20.2 3 1
02/27/06 1:22 p -16.4 -16.4 -16.4 --- --- 24.3 E 0.41 27.8 -29.9 --- --- 734.2 0.024 0.000 20.2 3 1
02/27/06 1:23 p -16.4 -16.4 -16.4 --- --- 26.1 E 0.43 31.3 -30.3 --- --- 734.3 0.024 0.000 20.2 3 1
02/27/06 1:24 p -16.4 -16.4 -16.5 --- --- 23.5 E 0.39 27.8 -29.7 --- --- 734.2 0.024 0.000 20.2 4 1
02/27/06 1:25 p -16.5 -16.4 -16.5 --- --- 23.5 E 0.39 27.0 -29.8 --- --- 734.4 0.024 0.000 20.2 3 1
02/27/06 1:26 p -16.4 -16.4 -16.4 --- --- 21.7 E 0.36 24.3 -29.3 --- --- 734.2 0.024 0.000 20.2 3 1
02/27/06 1:27 p -16.4 -16.4 -16.5 --- --- 27.8 E 0.46 34.8 -30.6 --- --- 733.8 0.024 0.000 20.2 3 1
02/27/06 1:28 p -16.5 -16.5 -16.5 --- --- 29.6 E 0.49 33.9 -31.1 --- --- 734.3 0.024 0.000 20.2 3 1
02/27/06 1:29 p -16.5 -16.5 -16.5 --- --- 20.9 E 0.35 29.6 -29.2 --- --- 734.5 0.024 0.000 20.2 3 1
02/27/06 1:30 p -16.5 -16.5 -16.5 --- --- 24.3 E 0.41 31.3 -30.0 --- --- 734.0 0.024 0.000 20.3 3 1
02/27/06 1:31 p -16.5 -16.5 -16.5 --- --- 32.2 E 0.54 38.3 -31.5 --- --- 734.3 0.024 0.000 20.2 3 1
02/27/06 1:32 p -16.5 -16.5 -16.6 --- --- 27.0 E 0.45 31.3 -30.6 --- --- 734.3 0.024 0.000 20.2 3 1
02/27/06 1:33 p -16.6 -16.5 -16.6 --- --- 26.1 E 0.43 33.0 -30.4 --- --- 734.7 0.024 0.000 20.2 3 1
02/27/06 1:34 p -16.6 -16.6 -16.6 --- --- 20.9 ENE 0.35 24.3 -29.3 --- --- 734.7 0.024 0.000 20.2 3 1
02/27/06 1:35 p -16.6 -16.6 -16.6 --- --- 20.0 E 0.33 27.8 -29.1 --- --- 734.2 0.024 0.000 20.2 3 1
02/27/06 1:36 p -16.6 -16.6 -16.6 --- --- 31.3 E 0.52 35.7 -31.4 --- --- 733.8 0.024 0.000 20.2 3 1
02/27/06 1:37 p -16.6 -16.6 -16.6 --- --- 32.2 E 0.54 36.5 -31.7 --- --- 734.1 0.024 0.000 20.2 3 1
02/27/06 1:38 p -16.6 -16.6 -16.6 --- --- 27.8 E 0.46 34.8 -30.8 --- --- 734.4 0.024 0.000 20.2 3 1
02/27/06 1:39 p -16.6 -16.6 -16.6 --- --- 20.9 E 0.35 25.2 -29.3 --- --- 734.7 0.024 0.000 20.2 3 1
02/27/06 1:40 p -16.6 -16.6 -16.6 --- --- 18.3 ESE 0.30 23.5 -28.7 --- --- 734.5 0.024 0.000 20.2 3 1
02/27/06 1:41 p -16.6 -16.6 -16.6 --- --- 24.3 E 0.41 33.9 -30.2 --- --- 733.9 0.024 0.000 20.2 3 1
02/27/06 1:42 p -16.6 -16.6 -16.7 --- --- 28.7 E 0.48 33.0 -31.0 --- --- 734.1 0.024 0.000 20.2 3 1
02/27/06 1:43 p -16.7 -16.6 -16.7 --- --- 24.3 E 0.41 30.4 -30.2 --- --- 734.4 0.024 0.000 20.2 3 1
02/27/06 1:44 p -16.7 -16.7 -16.7 --- --- 26.1 E 0.43 31.3 -30.6 --- --- 734.3 0.024 0.000 20.2 3 1
02/27/06 1:45 p -16.7 -16.7 -16.7 --- --- 27.0 E 0.45 30.4 -30.8 --- --- 734.5 0.024 0.000 20.2 3 1
02/27/06 1:46 p -16.7 -16.7 -16.7 --- --- 25.2 E 0.42 28.7 -30.4 --- --- 734.4 0.024 0.000 20.2 3 1
02/27/06 1:47 p -16.7 -16.7 -16.7 --- --- 22.6 E 0.38 26.1 -29.9 --- --- 734.6 0.024 0.000 20.2 3 1
02/27/06 1:48 p -16.7 -16.7 -16.7 --- --- 20.9 E 0.35 25.2 -29.5 --- --- 734.4 0.024 0.000 20.2 3 1
02/27/06 1:49 p -16.7 -16.7 -16.7 --- --- 26.1 E 0.43 33.9 -30.7 --- --- 734.2 0.024 0.000 20.2 3 1
02/27/06 1:50 p -16.7 -16.7 -16.7 --- --- 27.0 E 0.45 32.2 -30.8 --- --- 734.1 0.024 0.000 20.2 3 1
02/27/06 1:51 p -16.7 -16.7 -16.8 --- --- 27.0 E 0.45 32.2 -30.8 --- --- 734.2 0.024 0.000 20.2 3 1
02/27/06 1:52 p -16.8 -16.8 -16.8 --- --- 25.2 E 0.42 31.3 -30.6 --- --- 734.2 0.024 0.000 20.2 3 1
02/27/06 1:53 p -16.8 -16.8 -16.8 --- --- 22.6 E 0.38 30.4 -30.0 --- --- 734.6 0.024 0.000 20.2 3 1
02/27/06 1:54 p -16.8 -16.8 -16.8 --- --- 23.5 E 0.39 27.8 -30.2 --- --- 734.4 0.024 0.000 20.2 3 1
02/27/06 1:55 p -16.8 -16.8 -16.8 --- --- 22.6 E 0.38 28.7 -30.0 --- --- 734.2 0.024 0.000 20.2 3 1
02/27/06 1:56 p -16.8 -16.8 -16.8 --- --- 28.7 E 0.48 33.0 -31.2 --- --- 734.0 0.024 0.000 20.1 3 1
02/27/06 1:57 p -16.8 -16.8 -16.8 --- --- 28.7 E 0.48 33.9 -31.2 --- --- 734.2 0.024 0.000 20.1 3 1
02/27/06 1:58 p -16.8 -16.8 -16.8 --- --- 27.0 E 0.45 33.0 -31.0 --- --- 734.2 0.024 0.000 20.1 3 1
02/27/06 1:59 p -16.8 -16.8 -16.8 --- --- 22.6 E 0.38 27.8 -30.1 --- --- 734.3 0.024 0.000 20.1 3 1
02/27/06 2:00 p -16.8 -16.8 -16.9 --- --- 26.1 E 0.43 33.0 -30.8 --- --- 734.0 0.024 0.000 20.1 3 1
02/27/06 2:01 p -16.8 -16.8 -16.9 --- --- 28.7 E 0.48 33.0 -31.3 --- --- 734.3 0.024 0.000 20.1 3 1
02/27/06 2:02 p -16.8 -16.8 -16.9 --- --- 26.1 E 0.43 29.6 -30.8 --- --- 734.2 0.024 0.000 20.1 3 1
02/27/06 2:03 p -16.9 -16.8 -16.9 --- --- 27.8 E 0.46 33.0 -31.2 --- --- 734.3 0.024 0.000 20.1 3 1
02/27/06 2:04 p -16.9 -16.9 -16.9 --- --- 24.3 E 0.41 32.2 -30.5 --- --- 734.4 0.024 0.000 20.1 3 1
02/27/06 2:05 p -16.9 -16.9 -16.9 --- --- 24.3 E 0.41 28.7 -30.5 --- --- 734.3 0.024 0.000 20.1 3 1
02/27/06 2:06 p -16.9 -16.9 -16.9 --- --- 24.3 E 0.41 29.6 -30.5 --- --- 734.2 0.024 0.000 20.1 3 1
02/27/06 2:07 p -16.9 -16.9 -16.9 --- --- 27.0 E 0.45 34.8 -31.1 --- --- 734.1 0.024 0.000 20.1 3 1
02/27/06 2:08 p -16.9 -16.9 -16.9 --- --- 26.1 E 0.43 30.4 -30.9 --- --- 734.3 0.024 0.000 20.1 3 1
02/27/06 2:09 p -16.9 -16.9 -16.9 --- --- 26.1 E 0.43 33.0 -30.9 --- --- 734.2 0.024 0.000 20.1 3 1
02/27/06 2:10 p -16.9 -16.9 -16.9 --- --- 27.8 E 0.46 31.3 -31.3 --- --- 734.3 0.024 0.000 20.1 3 1
02/27/06 2:11 p -16.9 -16.9 -16.9 --- --- 28.7 E 0.48 33.0 -31.5 --- --- 734.4 0.024 0.000 20.1 3 1
02/27/06 2:12 p -16.9 -16.9 -16.9 --- --- 25.2 ENE 0.42 29.6 -30.8 --- --- 734.4 0.024 0.000 20.1 3 1
02/27/06 2:13 p -16.9 -16.9 -16.9 --- --- 23.5 E 0.39 30.4 -30.4 --- --- 734.2 0.024 0.000 20.1 3 1
02/27/06 2:14 p -16.9 -16.9 -16.9 --- --- 28.7 E 0.48 33.0 -31.5 --- --- 734.3 0.024 0.000 20.1 3 1
02/27/06 2:15 p -16.9 -16.9 -16.9 --- --- 26.1 E 0.43 33.0 -30.9 --- --- 734.3 0.024 0.000 20.1 3 1
02/27/06 2:16 p -16.9 -16.9 -16.9 --- --- 22.6 E 0.38 27.0 -30.2 --- --- 734.3 0.024 0.000 20.1 3 1
02/27/06 2:17 p -16.9 -16.9 -16.9 --- --- 25.2 E 0.42 31.3 -30.8 --- --- 734.0 0.024 0.000 20.1 3 1
02/27/06 2:18 p -16.9 -16.9 -16.9 --- --- 28.7 E 0.48 32.2 -31.5 --- --- 734.2 0.024 0.000 20.1 3 1
02/27/06 2:19 p -16.9 -16.9 -16.9 --- --- 25.2 E 0.42 30.4 -30.8 --- --- 734.2 0.024 0.000 20.1 3 1
02/27/06 2:20 p -16.9 -16.9 -17.0 --- --- 27.8 E 0.46 31.3 -31.3 --- --- 734.2 0.024 0.000 20.1 3 1
02/27/06 2:21 p -16.9 -16.9 -17.0 --- --- 23.5 E 0.39 27.8 -30.4 --- --- 734.3 0.024 0.000 20.1 3 1
02/27/06 2:22 p -17.0 -17.0 -17.0 --- --- 27.0 E 0.45 33.9 -31.2 --- --- 734.1 0.025 0.000 20.1 3 1
02/27/06 2:23 p -17.0 -17.0 -17.0 --- --- 26.1 ESE 0.43 29.6 -31.1 --- --- 734.3 0.025 0.000 20.2 3 1
02/27/06 2:24 p -17.0 -17.0 -17.0 --- --- 23.5 E 0.39 27.8 -30.5 --- --- 734.4 0.025 0.000 20.2 3 1
02/27/06 2:25 p -17.0 -17.0 -17.1 --- --- 24.3 E 0.41 28.7 -30.7 --- --- 734.1 0.025 0.000 20.1 3 1
02/27/06 2:26 p -17.0 -17.0 -17.1 --- --- 27.0 E 0.45 31.3 -31.2 --- --- 734.2 0.025 0.000 20.1 3 1
02/27/06 2:27 p -17.1 -17.0 -17.1 --- --- 24.3 E 0.41 27.8 -30.7 --- --- 734.5 0.025 0.000 20.1 3 1
02/27/06 2:28 p -17.1 -17.1 -17.1 --- --- 23.5 E 0.39 29.6 -30.6 --- --- 734.4 0.025 0.000 20.1 3 1
02/27/06 2:29 p -17.1 -17.1 -17.1 --- --- 26.1 ENE 0.43 33.0 -31.1 --- --- 734.2 0.025 0.000 20.1 3 1
02/27/06 2:30 p -17.1 -17.1 -17.1 --- --- 27.8 E 0.46 33.0 -31.4 --- --- 734.4 0.025 0.000 20.1 3 1
02/27/06 2:31 p -17.1 -17.1 -17.1 --- --- 25.2 E 0.42 32.2 -31.0 --- --- 734.3 0.025 0.000 20.1 3 1
02/27/06 2:32 p -17.1 -17.1 -17.1 --- --- 26.1 E 0.43 30.4 -31.2 --- --- 734.2 0.025 0.000 20.1 3 1
02/27/06 2:33 p -17.1 -17.1 -17.2 --- --- 27.0 E 0.45 29.6 -31.4 --- --- 734.2 0.025 0.000 20.1 3 1
02/27/06 2:34 p -17.2 -17.1 -17.2 --- --- 25.2 E 0.42 33.0 -31.1 --- --- 734.3 0.025 0.000 20.1 3 1
02/27/06 2:35 p -17.2 -17.2 -17.2 --- --- 23.5 E 0.39 29.6 -30.7 --- --- 734.4 0.025 0.000 20.1 3 1
02/27/06 2:36 p -17.2 -17.2 -17.2 --- --- 23.5 E 0.39 27.0 -30.7 --- --- 734.4 0.025 0.000 20.1 3 1
02/27/06 2:37 p -17.2 -17.2 -17.2 --- --- 23.5 E 0.39 31.3 -30.7 --- --- 734.2 0.025 0.000 20.1 3 1
02/27/06 2:38 p -17.2 -17.2 -17.2 --- --- 24.3 E 0.41 28.7 -30.9 --- --- 734.2 0.025 0.000 20.1 3 1
02/27/06 2:39 p -17.2 -17.2 -17.2 --- --- 24.3 E 0.41 28.7 -30.9 --- --- 734.2 0.025 0.000 20.0 3 1
02/27/06 2:40 p -17.2 -17.2 -17.3 --- --- 25.2 E 0.42 29.6 -31.2 --- --- 734.3 0.025 0.000 20.0 3 1
02/27/06 2:41 p -17.3 -17.2 -17.3 --- --- 27.8 E 0.46 32.2 -31.8 --- --- 734.2 0.025 0.000 20.0 3 1
02/27/06 2:42 p -17.3 -17.3 -17.3 --- --- 25.2 E 0.42 31.3 -31.2 --- --- 734.4 0.025 0.000 20.0 3 1
02/27/06 2:43 p -17.3 -17.3 -17.3 --- --- 23.5 E 0.39 30.4 -30.8 --- --- 734.5 0.025 0.000 20.0 3 1
02/27/06 2:44 p -17.3 -17.3 -17.3 --- --- 22.6 E 0.38 26.1 -30.7 --- --- 734.3 0.025 0.000 19.9 3 1
02/27/06 2:45 p -17.3 -17.3 -17.3 --- --- 23.5 E 0.39 28.7 -30.9 --- --- 734.2 0.025 0.000 20.0 3 1
02/27/06 2:46 p -17.3 -17.3 -17.4 --- --- 22.6 E 0.38 27.0 -30.7 --- --- 734.4 0.025 0.000 20.0 3 1
02/27/06 2:47 p -17.4 -17.4 -17.4 --- --- 25.2 E 0.42 29.6 -31.4 --- --- 734.3 0.025 0.000 19.9 3 1
02/27/06 2:48 p -17.4 -17.4 -17.4 --- --- 25.2 E 0.42 28.7 -31.4 --- --- 734.2 0.025 0.000 19.9 3 1
02/27/06 2:49 p -17.4 -17.4 -17.4 --- --- 25.2 E 0.42 28.7 -31.4 --- --- 734.2 0.025 0.000 19.9 3 1
02/27/06 2:50 p -17.4 -17.4 -17.4 --- --- 24.3 E 0.41 28.7 -31.3 --- --- 734.3 0.025 0.000 19.9 3 1
02/27/06 2:51 p -17.4 -17.4 -17.5 --- --- 23.5 E 0.39 31.3 -31.1 --- --- 734.3 0.025 0.000 19.9 3 1
02/27/06 2:52 p -17.5 -17.5 -17.5 --- --- 23.5 E 0.39 28.7 -31.2 --- --- 734.2 0.025 0.000 19.9 3 1
02/27/06 2:53 p -17.5 -17.5 -17.6 --- --- 25.2 E 0.42 29.6 -31.6 --- --- 734.2 0.025 0.000 19.9 3 1
02/27/06 2:54 p -17.5 -17.5 -17.6 --- --- 25.2 E 0.42 28.7 -31.6 --- --- 734.2 0.025 0.000 19.9 3 1
02/27/06 2:55 p -17.6 -17.5 -17.6 --- --- 24.3 E 0.41 29.6 -31.4 --- --- 734.2 0.025 0.000 19.9 3 1
02/27/06 2:56 p -17.6 -17.6 -17.6 --- --- 26.1 E 0.43 30.4 -31.8 --- --- 734.2 0.025 0.000 19.9 3 1
02/27/06 2:57 p -17.6 -17.6 -17.6 --- --- 26.1 E 0.43 29.6 -31.9 --- --- 734.3 0.025 0.000 20.0 3 1
02/27/06 2:58 p -17.6 -17.6 -17.6 --- --- 24.3 E 0.41 27.0 -31.5 --- --- 734.5 0.025 0.000 20.0 3 1
02/27/06 2:59 p -17.7 -17.6 -17.7 --- --- 22.6 E 0.38 28.7 -31.2 --- --- 734.1 0.025 0.000 20.0 3 1
02/27/06 3:00 p -17.7 -17.7 -17.7 --- --- 26.1 E 0.43 33.0 -31.9 --- --- 734.3 0.025 0.000 19.9 3 1
02/27/06 3:01 p -17.7 -17.7 -17.7 --- --- 23.5 E 0.39 27.0 -31.4 --- --- 734.5 0.025 0.000 19.9 3 1
02/27/06 3:02 p -17.7 -17.7 -17.7 --- --- 20.9 E 0.35 26.1 -30.8 --- --- 734.4 0.025 0.000 19.9 3 1
02/27/06 3:03 p -17.7 -17.7 -17.8 --- --- 24.3 E 0.41 30.4 -31.7 --- --- 734.0 0.025 0.000 20.0 3 1
02/27/06 3:04 p -17.8 -17.7 -17.8 --- --- 25.2 E 0.42 30.4 -31.9 --- --- 734.5 0.025 0.000 20.0 3 1
02/27/06 3:05 p -17.8 -17.8 -17.8 --- --- 22.6 E 0.38 27.0 -31.3 --- --- 734.4 0.025 0.000 20.0 3 1
02/27/06 3:06 p -17.8 -17.8 -17.8 --- --- 24.3 E 0.41 29.6 -31.8 --- --- 734.2 0.025 0.000 20.0 3 1
02/27/06 3:07 p -17.8 -17.8 -17.8 --- --- 25.2 E 0.42 27.8 -32.0 --- --- 734.2 0.025 0.000 20.0 3 1
02/27/06 3:08 p -17.9 -17.9 -17.9 --- --- 24.3 E 0.41 27.8 -31.9 --- --- 734.4 0.025 0.000 20.0 3 1
02/27/06 3:09 p -17.9 -17.9 -17.9 --- --- 20.9 E 0.35 24.3 -31.1 --- --- 734.5 0.025 0.000 20.0 3 1
02/27/06 3:10 p -17.9 -17.9 -17.9 --- --- 20.0 E 0.33 28.7 -30.9 --- --- 734.2 0.025 0.000 20.0 3 1
02/27/06 3:11 p -17.9 -17.9 -17.9 --- --- 25.2 E 0.42 28.7 -32.1 --- --- 734.1 0.025 0.000 20.0 3 1
02/27/06 3:12 p -17.9 -17.9 -18.0 --- --- 23.5 E 0.39 27.8 -31.7 --- --- 734.3 0.025 0.000 19.9 3 1
02/27/06 3:13 p -18.0 -18.0 -18.0 --- --- 20.9 E 0.35 26.1 -31.2 --- --- 734.4 0.025 0.000 19.9 3 1
02/27/06 3:14 p -18.0 -18.0 -18.1 --- --- 20.9 E 0.35 25.2 -31.2 --- --- 734.2 0.025 0.000 19.9 3 1
02/27/06 3:15 p -18.1 -18.0 -18.1 --- --- 24.3 E 0.41 29.6 -32.1 --- --- 734.3 0.025 0.000 19.9 3 1
02/27/06 3:16 p -18.1 -18.1 -18.1 --- --- 21.7 E 0.36 25.2 -31.5 --- --- 734.3 0.025 0.000 19.9 3 1
02/27/06 3:17 p -18.1 -18.1 -18.1 --- --- 20.0 E 0.33 23.5 -31.1 --- --- 734.2 0.025 0.000 19.9 3 1
02/27/06 3:18 p -18.1 -18.1 -18.1 --- --- 25.2 E 0.42 32.2 -32.3 --- --- 734.0 0.025 0.000 19.9 3 1
02/27/06 3:19 p -18.1 -18.1 -18.1 --- --- 23.5 E 0.39 28.7 -31.9 --- --- 734.2 0.025 0.000 19.9 3 1
02/27/06 3:20 p -18.1 -18.1 -18.1 --- --- 23.5 E 0.39 27.0 -31.9 --- --- 734.3 0.025 0.000 19.9 3 1
02/27/06 3:21 p -18.2 -18.1 -18.2 --- --- 24.3 E 0.41 29.6 -32.2 --- --- 734.3 0.025 0.000 19.9 3 1
02/27/06 3:22 p -18.2 -18.1 -18.2 --- --- 28.7 ENE 0.48 31.3 -33.2 --- --- 734.4 0.025 0.000 19.9 3 1
02/27/06 3:23 p -18.2 -18.2 -18.2 --- --- 20.9 E 0.35 27.0 -31.4 --- --- 734.5 0.025 0.000 19.9 3 1
02/27/06 3:24 p -18.2 -18.2 -18.2 --- --- 20.0 E 0.33 25.2 -31.3 --- --- 734.3 0.025 0.000 19.9 3 1
02/27/06 3:25 p -18.2 -18.2 -18.2 --- --- 27.8 E 0.46 33.9 -33.1 --- --- 734.2 0.025 0.000 19.9 3 1
02/27/06 3:26 p -18.2 -18.2 -18.2 --- --- 27.0 E 0.45 30.4 -32.9 --- --- 734.3 0.025 0.000 19.9 3 1
02/27/06 3:27 p -18.2 -18.2 -18.2 --- --- 20.9 E 0.35 24.3 -31.5 --- --- 734.4 0.025 0.000 19.9 3 1
02/27/06 3:28 p -18.3 -18.2 -18.3 --- --- 23.5 E 0.39 28.7 -32.2 --- --- 734.2 0.025 0.000 19.9 3 1
02/27/06 3:29 p -18.3 -18.3 -18.3 --- --- 23.5 E 0.39 27.8 -32.2 --- --- 734.2 0.025 0.000 19.9 3 1
02/27/06 3:30 p -18.3 -18.3 -18.3 --- --- 22.6 E 0.38 25.2 -32.0 --- --- 734.3 0.025 0.000 19.9 3 1
02/27/06 3:31 p -18.3 -18.3 -18.3 --- --- 21.7 E 0.36 27.8 -31.8 --- --- 734.2 0.025 0.000 19.9 3 1
02/27/06 3:32 p -18.3 -18.3 -18.3 --- --- 21.7 E 0.36 24.3 -31.8 --- --- 734.3 0.025 0.000 19.8 3 1
02/27/06 3:33 p -18.3 -18.3 -18.3 --- --- 26.1 E 0.43 31.3 -32.8 --- --- 734.4 0.025 0.000 19.8 3 1
02/27/06 3:34 p -18.3 -18.3 -18.3 --- --- 24.3 E 0.41 28.7 -32.4 --- --- 734.2 0.025 0.000 19.8 3 1
02/27/06 3:35 p -18.3 -18.3 -18.3 --- --- 22.6 E 0.38 26.1 -32.1 --- --- 734.2 0.025 0.000 19.8 3 1
02/27/06 3:36 p -18.3 -18.3 -18.4 --- --- 22.6 E 0.38 27.0 -32.1 --- --- 734.2 0.025 0.000 19.8 3 1
02/27/06 3:37 p -18.4 -18.4 -18.4 --- --- 24.3 E 0.41 32.2 -32.6 --- --- 734.2 0.026 0.000 19.8 3 1
02/27/06 3:38 p -18.4 -18.4 -18.4 --- --- 24.3 E 0.41 29.6 -32.6 --- --- 734.4 0.026 0.000 19.8 3 1
02/27/06 3:39 p -18.4 -18.4 -18.4 --- --- 22.6 E 0.38 28.7 -32.1 --- --- 734.2 0.026 0.000 19.8 3 1
02/27/06 3:40 p -18.4 -18.4 -18.4 --- --- 24.3 E 0.41 27.0 -32.6 --- --- 734.2 0.026 0.000 19.8 3 1
02/27/06 3:41 p -18.4 -18.4 -18.4 --- --- 22.6 E 0.38 27.0 -32.2 --- --- 734.3 0.026 0.000 19.8 3 1
02/27/06 3:42 p -18.4 -18.4 -18.4 --- --- 24.3 E 0.41 27.8 -32.6 --- --- 734.3 0.026 0.000 19.8 3 1
02/27/06 3:43 p -18.4 -18.4 -18.4 --- --- 25.2 E 0.42 30.4 -32.8 --- --- 734.4 0.026 0.000 19.8 3 1
02/27/06 3:44 p -18.4 -18.4 -18.5 --- --- 24.3 E 0.41 27.0 -32.6 --- --- 734.2 0.026 0.000 19.9 3 1
02/27/06 3:45 p -18.4 -18.4 -18.5 --- --- 24.3 E 0.41 29.6 -32.6 --- --- 734.2 0.026 0.000 19.9 3 1
02/27/06 3:46 p -18.5 -18.5 -18.5 --- --- 21.7 E 0.36 27.0 -32.1 --- --- 734.4 0.026 0.000 19.8 3 1
02/27/06 3:47 p -18.5 -18.5 -18.5 --- --- 23.5 E 0.39 31.3 -32.5 --- --- 734.1 0.026 0.000 19.9 3 1
02/27/06 3:48 p -18.5 -18.5 -18.5 --- --- 28.7 E 0.48 33.9 -33.6 --- --- 734.2 0.026 0.000 19.8 3 1
02/27/06 3:49 p -18.5 -18.5 -18.5 --- --- 25.2 E 0.42 29.6 -32.9 --- --- 734.0 0.026 0.000 19.8 3 1
02/27/06 3:50 p -18.5 -18.5 -18.5 --- --- 23.5 E 0.39 27.0 -32.5 --- --- 734.3 0.026 0.000 19.9 3 1
02/27/06 3:51 p -18.6 -18.5 -18.6 --- --- 22.6 E 0.38 28.7 -32.3 --- --- 734.2 0.026 0.000 19.9 3 1
02/27/06 3:52 p -18.6 -18.6 -18.6 --- --- 25.2 E 0.42 30.4 -32.9 --- --- 734.3 0.026 0.000 19.9 3 1
02/27/06 3:53 p -18.6 -18.6 -18.6 --- --- 22.6 E 0.38 28.7 -32.3 --- --- 734.1 0.026 0.000 19.9 3 1
02/27/06 3:54 p -18.6 -18.6 -18.6 --- --- 27.0 E 0.45 30.4 -33.3 --- --- 734.2 0.026 0.000 19.9 3 1
02/27/06 3:55 p -18.6 -18.6 -18.6 --- --- 23.5 E 0.39 28.7 -32.6 --- --- 734.3 0.026 0.000 19.9 3 1
02/27/06 3:56 p -18.6 -18.6 -18.6 --- --- 28.7 ENE 0.48 32.2 -33.7 --- --- 734.1 0.026 0.000 19.9 3 1
02/27/06 3:57 p -18.6 -18.6 -18.6 --- --- 24.3 E 0.41 29.6 -32.8 --- --- 734.4 0.026 0.000 19.9 3 1
02/27/06 3:58 p -18.6 -18.6 -18.6 --- --- 22.6 E 0.38 26.1 -32.3 --- --- 734.3 0.026 0.000 19.9 3 1
02/27/06 3:59 p -18.6 -18.6 -18.6 --- --- 20.9 E 0.35 27.8 -31.9 --- --- 734.1 0.026 0.000 19.9 3 1
02/27/06 4:00 p -18.6 -18.6 -18.6 --- --- 30.4 E 0.51 33.9 -34.0 --- --- 734.1 0.026 0.000 19.9 3 1
02/27/06 4:01 p -18.6 -18.6 -18.6 --- --- 26.1 ENE 0.43 30.4 -33.2 --- --- 734.4 0.026 0.000 19.9 3 1
02/27/06 4:02 p -18.6 -18.6 -18.6 --- --- 20.9 E 0.35 27.0 -31.9 --- --- 734.2 0.026 0.000 19.9 3 1
02/27/06 4:03 p -18.6 -18.6 -18.6 --- --- 24.3 E 0.41 30.4 -32.8 --- --- 734.3 0.026 0.000 19.8 3 1
02/27/06 4:04 p -18.6 -18.6 -18.6 --- --- 25.2 E 0.42 28.7 -32.9 --- --- 734.3 0.026 0.000 19.8 3 1
02/27/06 4:05 p -18.6 -18.6 -18.6 --- --- 21.7 E 0.36 27.0 -32.2 --- --- 734.3 0.026 0.000 19.8 3 1
02/27/06 4:06 p -18.6 -18.6 -18.6 --- --- 25.2 E 0.42 30.4 -32.9 --- --- 734.0 0.026 0.000 19.8 3 1
02/27/06 4:07 p -18.6 -18.6 -18.6 --- --- 25.2 E 0.42 29.6 -32.9 --- --- 734.2 0.026 0.000 19.8 3 1
02/27/06 4:08 p -18.6 -18.6 -18.6 --- --- 23.5 E 0.39 28.7 -32.6 --- --- 734.1 0.026 0.000 19.8 3 1
02/27/06 4:09 p -18.6 -18.6 -18.6 --- --- 23.5 E 0.39 30.4 -32.6 --- --- 734.1 0.026 0.000 19.8 3 1
02/27/06 4:10 p -18.6 -18.6 -18.6 --- --- 27.0 E 0.45 32.2 -33.3 --- --- 734.4 0.026 0.000 19.8 3 1
02/27/06 4:11 p -18.6 -18.6 -18.6 --- --- 23.5 E 0.39 26.1 -32.6 --- --- 734.2 0.026 0.000 19.8 3 1
02/27/06 4:12 p -18.6 -18.6 -18.6 --- --- 27.0 ENE 0.45 29.6 -33.3 --- --- 734.1 0.026 0.000 19.8 3 1
02/27/06 4:13 p -18.6 -18.6 -18.6 --- --- 23.5 E 0.39 27.0 -32.6 --- --- 734.2 0.026 0.000 19.8 3 1
02/27/06 4:14 p -18.6 -18.6 -18.6 --- --- 23.5 E 0.39 28.7 -32.6 --- --- 734.3 0.026 0.000 19.8 3 1
02/27/06 4:15 p -18.6 -18.6 -18.6 --- --- 23.5 E 0.39 26.1 -32.7 --- --- 734.2 0.026 0.000 19.8 3 1
02/27/06 4:16 p -18.6 -18.6 -18.6 --- --- 22.6 E 0.38 29.6 -32.4 --- --- 734.1 0.026 0.000 19.8 3 1
02/27/06 4:17 p -18.6 -18.6 -18.6 --- --- 27.0 ENE 0.45 30.4 -33.3 --- --- 734.3 0.026 0.000 19.8 3 1
02/27/06 4:18 p -18.6 -18.6 -18.6 --- --- 24.3 ENE 0.41 27.0 -32.8 --- --- 734.2 0.026 0.000 19.8 3 1
02/27/06 4:19 p -18.6 -18.6 -18.6 --- --- 27.0 ENE 0.45 31.3 -33.3 --- --- 734.2 0.026 0.000 19.8 3 1
02/27/06 4:20 p -18.6 -18.6 -18.6 --- --- 22.6 E 0.38 28.7 -32.4 --- --- 734.1 0.026 0.000 19.8 3 1
02/27/06 4:21 p -18.6 -18.6 -18.6 --- --- 27.8 E 0.46 33.9 -33.6 --- --- 734.2 0.026 0.000 19.8 3 1
02/27/06 4:22 p -18.6 -18.6 -18.6 --- --- 22.6 E 0.38 28.7 -32.4 --- --- 734.4 0.026 0.000 19.8 3 1
02/27/06 4:23 p -18.6 -18.6 -18.6 --- --- 22.6 E 0.38 28.7 -32.4 --- --- 734.0 0.026 0.000 19.7 3 1
02/27/06 4:24 p -18.6 -18.6 -18.6 --- --- 25.2 E 0.42 28.7 -33.1 --- --- 734.1 0.026 0.000 19.7 3 1
02/27/06 4:25 p -18.6 -18.6 -18.6 --- --- 23.5 E 0.39 27.0 -32.7 --- --- 734.4 0.026 0.000 19.7 3 1
02/27/06 4:26 p -18.6 -18.6 -18.6 --- --- 20.0 E 0.33 25.2 -31.8 --- --- 734.2 0.026 0.000 19.7 3 1
02/27/06 4:27 p -18.6 -18.6 -18.7 --- --- 25.2 E 0.42 30.4 -33.1 --- --- 734.1 0.026 0.000 19.7 3 1
02/27/06 4:28 p -18.6 -18.6 -18.7 --- --- 23.5 E 0.39 30.4 -32.7 --- --- 734.3 0.026 0.000 19.7 3 1
02/27/06 4:29 p -18.6 -18.6 -18.7 --- --- 20.0 E 0.33 23.5 -31.8 --- --- 734.1 0.026 0.000 19.7 3 1
02/27/06 4:30 p -18.7 -18.6 -18.7 --- --- 20.9 E 0.35 26.1 -32.1 --- --- 734.3 0.026 0.000 19.7 3 1
02/27/06 4:31 p -18.7 -18.7 -18.7 --- --- 21.7 E 0.36 27.8 -32.3 --- --- 734.2 0.026 0.000 19.7 3 1
02/27/06 4:32 p -18.7 -18.7 -18.7 --- --- 24.3 E 0.41 29.6 -32.9 --- --- 734.0 0.026 0.000 19.7 3 1
02/27/06 4:33 p -18.7 -18.7 -18.7 --- --- 24.3 E 0.41 29.6 -32.9 --- --- 734.5 0.026 0.000 19.7 3 1
02/27/06 4:34 p -18.7 -18.7 -18.7 --- --- 19.1 E 0.32 25.2 -31.6 --- --- 734.3 0.026 0.000 19.7 3 1
02/27/06 4:35 p -18.7 -18.7 -18.7 --- --- 27.0 E 0.45 33.0 -33.5 --- --- 734.1 0.026 0.000 19.7 3 1
02/27/06 4:36 p -18.7 -18.7 -18.7 --- --- 28.7 ENE 0.48 33.0 -33.9 --- --- 734.2 0.026 0.000 19.7 3 1
02/27/06 4:37 p -18.7 -18.7 -18.7 --- --- 24.3 E 0.41 27.0 -33.0 --- --- 734.2 0.026 0.000 19.7 3 1
02/27/06 4:38 p -18.7 -18.7 -18.7 --- --- 25.2 E 0.42 30.4 -33.2 --- --- 734.1 0.026 0.000 19.7 2 1
02/27/06 4:39 p -18.7 -18.7 -18.7 --- --- 20.0 E 0.33 24.3 -31.9 --- --- 734.3 0.026 0.000 19.7 3 1
02/27/06 4:40 p -18.7 -18.7 -18.7 --- --- 20.9 E 0.35 25.2 -32.2 --- --- 734.1 0.026 0.000 19.7 3 1
02/27/06 4:41 p -18.7 -18.7 -18.7 --- --- 24.3 E 0.41 30.4 -33.0 --- --- 734.1 0.026 0.000 19.7 3 1
02/27/06 4:42 p -18.7 -18.7 -18.7 --- --- 24.3 E 0.41 28.7 -33.0 --- --- 734.2 0.026 0.000 19.7 3 1
02/27/06 4:43 p -18.7 -18.7 -18.7 --- --- 20.0 E 0.33 25.2 -31.9 --- --- 734.1 0.026 0.000 19.7 3 1
02/27/06 4:44 p -18.8 -18.7 -18.8 --- --- 23.5 E 0.39 27.8 -32.9 --- --- 734.0 0.026 0.000 19.7 3 1
02/27/06 4:45 p -18.8 -18.7 -18.8 --- --- 24.3 E 0.41 29.6 -33.1 --- --- 734.2 0.026 0.000 19.7 3 1
02/27/06 4:46 p -18.8 -18.7 -18.8 --- --- 24.3 E 0.41 27.8 -33.1 --- --- 734.3 0.026 0.000 19.7 3 1
02/27/06 4:47 p -18.8 -18.8 -18.8 --- --- 22.6 ENE 0.38 27.0 -32.7 --- --- 734.3 0.026 0.000 19.7 2 1
02/27/06 4:48 p -18.8 -18.8 -18.8 --- --- 22.6 ENE 0.38 26.1 -32.7 --- --- 734.1 0.026 0.000 19.7 3 1
02/27/06 4:49 p -18.8 -18.8 -18.8 --- --- 21.7 E 0.36 28.7 -32.4 --- --- 734.1 0.026 0.000 19.7 2 1
02/27/06 4:50 p -18.8 -18.8 -18.8 --- --- 22.6 ENE 0.38 26.1 -32.7 --- --- 734.1 0.026 0.000 19.7 3 1
02/27/06 4:51 p -18.8 -18.8 -18.8 --- --- 24.3 E 0.41 31.3 -33.1 --- --- 734.1 0.026 0.000 19.8 2 1
02/27/06 4:52 p -18.8 -18.8 -18.8 --- --- 27.0 ENE 0.45 31.3 -33.6 --- --- 734.1 0.026 0.000 19.8 2 1
02/27/06 4:53 p -18.8 -18.8 -18.8 --- --- 23.5 ENE 0.39 31.3 -32.9 --- --- 734.3 0.026 0.000 19.8 3 1
02/27/06 4:54 p -18.8 -18.8 -18.8 --- --- 23.5 E 0.39 30.4 -32.9 --- --- 734.1 0.026 0.000 19.8 2 1
02/27/06 4:55 p -18.8 -18.8 -18.8 --- --- 22.6 E 0.38 29.6 -32.7 --- --- 734.4 0.026 0.000 19.8 3 1
02/27/06 4:56 p -18.8 -18.8 -18.8 --- --- 18.3 E 0.30 25.2 -31.6 --- --- 734.2 0.026 0.000 19.8 2 1
02/27/06 4:57 p -18.8 -18.8 -18.8 --- --- 27.0 ENE 0.45 31.3 -33.7 --- --- 734.2 0.026 0.000 19.8 3 1
02/27/06 4:58 p -18.8 -18.8 -18.8 --- --- 22.6 E 0.38 26.1 -32.7 --- --- 734.0 0.026 0.000 19.7 2 1
02/27/06 4:59 p -18.8 -18.8 -18.8 --- --- 26.1 ENE 0.43 30.4 -33.5 --- --- 734.3 0.026 0.000 19.7 3 1
02/27/06 5:00 p -18.8 -18.8 -18.9 --- --- 19.1 E 0.32 25.2 -31.8 --- --- 734.3 0.026 0.000 19.7 3 1
02/27/06 5:01 p -18.8 -18.8 -18.8 --- --- 27.0 ENE 0.45 31.3 -33.7 --- --- 734.4 0.026 0.000 19.7 2 1
02/27/06 5:02 p -18.8 -18.8 -18.9 --- --- 22.6 ENE 0.38 25.2 -32.7 --- --- 734.4 0.026 0.000 19.7 3 1
02/27/06 5:03 p -18.9 -18.8 -18.9 --- --- 20.0 E 0.33 25.2 -32.2 --- --- 734.1 0.026 0.000 19.7 3 1
02/27/06 5:04 p -18.8 -18.8 -18.9 --- --- 27.0 E 0.45 31.3 -33.7 --- --- 734.0 0.026 0.000 19.7 3 1
02/27/06 5:05 p -18.9 -18.9 -18.9 --- --- 22.6 E 0.38 27.0 -32.8 --- --- 734.2 0.026 0.000 19.7 2 1
02/27/06 5:06 p -18.9 -18.9 -18.9 --- --- 20.9 E 0.35 24.3 -32.4 --- --- 734.3 0.026 0.000 19.7 2 1
02/27/06 5:07 p -18.9 -18.9 -18.9 --- --- 24.3 E 0.41 30.4 -33.2 --- --- 734.1 0.026 0.000 19.7 3 1
02/27/06 5:08 p -18.9 -18.9 -18.9 --- --- 23.5 E 0.39 30.4 -33.0 --- --- 734.2 0.026 0.000 19.7 3 1
02/27/06 5:09 p -18.9 -18.9 -18.9 --- --- 19.1 E 0.32 25.2 -31.9 --- --- 734.1 0.026 0.000 19.6 2 1
02/27/06 5:10 p -18.9 -18.9 -18.9 --- --- 24.3 E 0.41 30.4 -33.2 --- --- 734.0 0.026 0.000 19.6 3 1
02/27/06 5:11 p -18.9 -18.9 -18.9 --- --- 23.5 E 0.39 27.0 -33.0 --- --- 734.2 0.026 0.000 19.6 2 1
02/27/06 5:12 p -18.9 -18.9 -18.9 --- --- 19.1 E 0.32 25.2 -31.9 --- --- 734.2 0.026 0.000 19.6 2 1
02/27/06 5:13 p -18.9 -18.9 -18.9 --- --- 23.5 E 0.39 27.8 -33.0 --- --- 734.1 0.026 0.000 19.6 2 1
02/27/06 5:14 p -18.9 -18.9 -18.9 --- --- 24.3 E 0.41 27.0 -33.3 --- --- 734.1 0.026 0.000 19.6 2 1
02/27/06 5:15 p -18.9 -18.9 -18.9 --- --- 20.0 E 0.33 23.5 -32.2 --- --- 734.2 0.026 0.000 19.6 3 1
02/27/06 5:16 p -18.9 -18.9 -18.9 --- --- 21.7 E 0.36 25.2 -32.7 --- --- 733.9 0.026 0.000 19.6 3 1
02/27/06 5:17 p -18.9 -18.9 -18.9 --- --- 24.3 E 0.41 27.8 -33.3 --- --- 734.1 0.026 0.000 19.6 3 1
02/27/06 5:18 p -18.9 -18.9 -18.9 --- --- 20.9 E 0.35 29.6 -32.4 --- --- 733.9 0.026 0.000 19.6 3 1
02/27/06 5:19 p -18.9 -18.9 -18.9 --- --- 22.6 E 0.38 27.8 -32.9 --- --- 734.1 0.026 0.000 19.6 3 1
02/27/06 5:20 p -18.9 -18.9 -18.9 --- --- 20.0 E 0.33 23.5 -32.2 --- --- 734.1 0.026 0.000 19.6 2 1
02/27/06 5:21 p -18.9 -18.9 -18.9 --- --- 20.9 E 0.35 25.2 -32.4 --- --- 733.9 0.026 0.000 19.6 2 1
02/27/06 5:22 p -18.9 -18.9 -18.9 --- --- 21.7 E 0.36 26.1 -32.7 --- --- 734.1 0.026 0.000 19.6 3 1
02/27/06 5:23 p -18.9 -18.9 -18.9 --- --- 22.6 E 0.38 27.8 -32.9 --- --- 734.0 0.026 0.000 19.6 2 1
02/27/06 5:24 p -18.9 -18.9 -18.9 --- --- 25.2 E 0.42 29.6 -33.5 --- --- 734.2 0.026 0.000 19.6 2 1
02/27/06 5:25 p -18.9 -18.9 -18.9 --- --- 19.1 E 0.32 26.1 -32.0 --- --- 734.1 0.026 0.000 19.6 3 1
02/27/06 5:26 p -18.9 -18.9 -18.9 --- --- 26.1 E 0.43 31.3 -33.7 --- --- 733.9 0.026 0.000 19.6 3 1
02/27/06 5:27 p -18.9 -18.9 -19.0 --- --- 23.5 E 0.39 28.7 -33.1 --- --- 734.1 0.026 0.000 19.5 2 1
02/27/06 5:28 p -19.0 -19.0 -19.0 --- --- 22.6 E 0.38 26.1 -32.9 --- --- 734.0 0.026 0.000 19.6 2 1
02/27/06 5:29 p -19.0 -18.9 -19.0 --- --- 20.9 E 0.35 25.2 -32.5 --- --- 734.1 0.026 0.000 19.6 2 1
02/27/06 5:30 p -19.0 -19.0 -19.0 --- --- 21.7 E 0.36 27.0 -32.7 --- --- 734.0 0.026 0.000 19.6 2 1
02/27/06 5:31 p -19.0 -19.0 -19.0 --- --- 26.1 ENE 0.43 28.7 -33.8 --- --- 734.0 0.026 0.000 19.6 2 1
02/27/06 5:32 p -19.0 -18.9 -19.0 --- --- 24.3 E 0.41 29.6 -33.4 --- --- 734.2 0.026 0.000 19.6 3 1
02/27/06 5:33 p -19.0 -19.0 -19.0 --- --- 21.7 E 0.36 26.1 -32.7 --- --- 734.2 0.026 0.000 19.6 2 1
02/27/06 5:34 p -19.0 -19.0 -19.0 --- --- 20.9 ENE 0.35 25.2 -32.5 --- --- 734.2 0.026 0.000 19.6 2 1
02/27/06 5:35 p -19.0 -19.0 -19.0 --- --- 24.3 E 0.41 30.4 -33.4 --- --- 734.1 0.026 0.000 19.6 2 1
02/27/06 5:36 p -19.0 -19.0 -19.0 --- --- 24.3 ENE 0.41 28.7 -33.4 --- --- 734.1 0.026 0.000 19.6 2 1
02/27/06 5:37 p -19.0 -19.0 -19.0 --- --- 23.5 E 0.39 28.7 -33.2 --- --- 734.2 0.026 0.000 19.6 2 1
02/27/06 5:38 p -19.0 -19.0 -19.0 --- --- 18.3 E 0.30 25.2 -31.8 --- --- 734.1 0.026 0.000 19.7 2 1
02/27/06 5:39 p -19.0 -19.0 -19.0 --- --- 26.1 E 0.43 28.7 -33.8 --- --- 734.0 0.026 0.000 19.7 2 1
02/27/06 5:40 p -19.0 -19.0 -19.0 --- --- 26.1 ENE 0.43 29.6 -33.8 --- --- 734.2 0.026 0.000 19.7 2 1
02/27/06 5:41 p -19.0 -19.0 -19.1 --- --- 26.1 E 0.43 31.3 -33.8 --- --- 734.3 0.026 0.000 19.7 2 1
02/27/06 5:42 p -19.1 -19.1 -19.1 --- --- 21.7 E 0.36 26.1 -32.8 --- --- 734.0 0.026 0.000 19.7 2 1
02/27/06 5:43 p -19.1 -19.1 -19.1 --- --- 24.3 E 0.41 28.7 -33.4 --- --- 734.1 0.026 0.000 19.7 2 1
02/27/06 5:44 p -19.1 -19.1 -19.1 --- --- 21.7 E 0.36 27.0 -32.8 --- --- 734.0 0.026 0.000 19.7 2 1
02/27/06 5:45 p -19.1 -19.1 -19.1 --- --- 23.5 E 0.39 27.8 -33.2 --- --- 734.1 0.026 0.000 19.7 2 1
02/27/06 5:46 p -19.1 -19.1 -19.1 --- --- 20.9 E 0.35 25.2 -32.6 --- --- 734.1 0.026 0.000 19.7 2 1
02/27/06 5:47 p -19.1 -19.1 -19.1 --- --- 24.3 E 0.41 30.4 -33.4 --- --- 734.0 0.026 0.000 19.7 2 1
02/27/06 5:48 p -19.1 -19.1 -19.1 --- --- 25.2 E 0.42 30.4 -33.6 --- --- 734.0 0.026 0.000 19.7 2 1
02/27/06 5:49 p -19.1 -19.1 -19.1 --- --- 25.2 E 0.42 28.7 -33.7 --- --- 734.2 0.026 0.000 19.7 2 1
02/27/06 5:50 p -19.1 -19.1 -19.1 --- --- 19.1 E 0.32 25.2 -32.2 --- --- 734.1 0.026 0.000 19.7 2 1
02/27/06 5:51 p -19.1 -19.1 -19.1 --- --- 25.2 E 0.42 30.4 -33.7 --- --- 734.0 0.026 0.000 19.7 2 1
02/27/06 5:52 p -19.1 -19.1 -19.1 --- --- 23.5 E 0.39 27.8 -33.3 --- --- 734.1 0.026 0.000 19.7 2 1
02/27/06 5:53 p -19.1 -19.1 -19.1 --- --- 19.1 E 0.32 21.7 -32.2 --- --- 734.2 0.026 0.000 19.7 2 1
02/27/06 5:54 p -19.1 -19.1 -19.1 --- --- 22.6 E 0.38 28.7 -33.1 --- --- 733.9 0.026 0.000 19.7 2 1
02/27/06 5:55 p -19.1 -19.1 -19.2 --- --- 25.2 E 0.42 27.8 -33.7 --- --- 734.2 0.026 0.000 19.7 2 1
02/27/06 5:56 p -19.1 -19.1 -19.2 --- --- 23.5 ENE 0.39 27.0 -33.3 --- --- 734.1 0.026 0.000 19.6 2 1
02/27/06 5:57 p -19.1 -19.1 -19.2 --- --- 22.6 E 0.38 26.1 -33.1 --- --- 733.9 0.026 0.000 19.6 2 1
02/27/06 5:58 p -19.2 -19.1 -19.2 --- --- 22.6 E 0.38 28.7 -33.2 --- --- 734.1 0.026 0.000 19.6 2 1
02/27/06 5:59 p -19.1 -19.1 -19.2 --- --- 20.9 ENE 0.35 27.0 -32.7 --- --- 734.3 0.026 0.000 19.6 2 1
02/27/06 6:00 p -19.2 -19.2 -19.2 --- --- 23.5 E 0.39 27.0 -33.4 --- --- 734.0 0.026 0.000 19.6 2 1
02/27/06 6:01 p -19.2 -19.2 -19.2 --- --- 22.6 E 0.38 27.8 -33.2 --- --- 734.0 0.026 0.000 19.6 2 1
02/27/06 6:02 p -19.2 -19.2 -19.2 --- --- 26.1 E 0.43 28.7 -34.0 --- --- 734.0 0.026 0.000 19.6 2 1
02/27/06 6:03 p -19.2 -19.2 -19.2 --- --- 22.6 E 0.38 27.0 -33.2 --- --- 734.1 0.026 0.000 19.6 2 1
02/27/06 6:04 p -19.2 -19.2 -19.2 --- --- 20.9 ENE 0.35 24.3 -32.7 --- --- 734.2 0.026 0.000 19.6 3 1
02/27/06 6:05 p -19.2 -19.2 -19.2 --- --- 22.6 ENE 0.38 26.1 -33.3 --- --- 734.1 0.026 0.000 19.6 3 1
02/27/06 6:06 p -19.2 -19.2 -19.2 --- --- 23.5 E 0.39 27.8 -33.4 --- --- 734.1 0.026 0.000 19.5 2 1
02/27/06 6:07 p -19.2 -19.2 -19.2 --- --- 22.6 E 0.38 28.7 -33.2 --- --- 734.0 0.026 0.000 19.5 2 1
02/27/06 6:08 p -19.2 -19.2 -19.2 --- --- 25.2 E 0.42 27.8 -33.8 --- --- 733.9 0.026 0.000 19.5 2 1
02/27/06 6:09 p -19.2 -19.2 -19.2 --- --- 23.5 E 0.39 28.7 -33.4 --- --- 734.1 0.026 0.000 19.5 2 1
02/27/06 6:10 p -19.2 -19.2 -19.2 --- --- 20.0 E 0.33 25.2 -32.6 --- --- 734.0 0.026 0.000 19.5 2 1
02/27/06 6:11 p -19.2 -19.2 -19.2 --- --- 27.8 ENE 0.46 31.3 -34.4 --- --- 734.3 0.026 0.000 19.5 2 1
02/27/06 6:12 p -19.2 -19.2 -19.2 --- --- 20.0 ENE 0.33 25.2 -32.6 --- --- 734.0 0.026 0.000 19.5 2 1
02/27/06 6:13 p -19.2 -19.2 -19.2 --- --- 26.1 ENE 0.43 30.4 -34.1 --- --- 734.0 0.026 0.000 19.5 2 1
02/27/06 6:14 p -19.2 -19.2 -19.2 --- --- 23.5 E 0.39 28.7 -33.4 --- --- 734.0 0.026 0.000 19.5 3 1
02/27/06 6:15 p -19.2 -19.2 -19.2 --- --- 26.1 ENE 0.43 27.8 -34.1 --- --- 734.2 0.026 0.000 19.5 2 1
02/27/06 6:16 p -19.2 -19.2 -19.2 --- --- 18.3 ENE 0.30 25.2 -32.1 --- --- 734.3 0.026 0.000 19.4 2 1
02/27/06 6:17 p -19.2 -19.2 -19.2 --- --- 19.1 E 0.32 27.0 -32.3 --- --- 733.9 0.026 0.000 19.4 2 1
02/27/06 6:18 p -19.2 -19.2 -19.3 --- --- 25.2 ENE 0.42 32.2 -33.9 --- --- 734.4 0.026 0.000 19.4 2 1
02/27/06 6:19 p -19.2 -19.2 -19.2 --- --- 15.7 ENE 0.26 18.3 -31.3 --- --- 734.1 0.026 0.000 19.5 2 1
02/27/06 6:20 p -19.2 -19.2 -19.3 --- --- 26.1 E 0.43 30.4 -34.1 --- --- 734.1 0.026 0.000 19.5 2 1
02/27/06 6:21 p -19.2 -19.2 -19.2 --- --- 22.6 ENE 0.38 26.1 -33.3 --- --- 734.3 0.026 0.000 19.5 2 1
02/27/06 6:22 p -19.3 -19.2 -19.3 --- --- 20.0 ENE 0.33 26.1 -32.7 --- --- 733.9 0.026 0.000 19.5 2 1
02/27/06 6:23 p -19.3 -19.2 -19.3 --- --- 23.5 ENE 0.39 26.1 -33.6 --- --- 734.1 0.026 0.000 19.5 2 1
02/27/06 6:24 p -19.3 -19.2 -19.3 --- --- 19.1 E 0.32 23.5 -32.4 --- --- 733.9 0.026 0.000 19.5 2 1
02/27/06 6:25 p -19.3 -19.3 -19.3 --- --- 21.7 E 0.36 27.8 -33.1 --- --- 734.2 0.026 0.000 19.5 3 1
02/27/06 6:26 p -19.3 -19.3 -19.3 --- --- 22.6 ENE 0.38 27.0 -33.3 --- --- 734.0 0.026 0.000 19.5 3 1
02/27/06 6:27 p -19.3 -19.3 -19.3 --- --- 20.9 E 0.35 25.2 -32.9 --- --- 734.0 0.026 0.000 19.6 2 1
02/27/06 6:28 p -19.3 -19.3 -19.3 --- --- 22.6 E 0.38 27.0 -33.3 --- --- 734.0 0.026 0.000 19.6 2 1
02/27/06 6:29 p -19.3 -19.3 -19.3 --- --- 22.6 E 0.38 27.8 -33.3 --- --- 733.9 0.026 0.000 19.6 2 1
02/27/06 6:30 p -19.3 -19.3 -19.3 --- --- 22.6 E 0.38 27.8 -33.3 --- --- 734.2 0.026 0.000 19.6 2 1
02/27/06 6:31 p -19.3 -19.3 -19.3 --- --- 20.0 ENE 0.33 22.6 -32.7 --- --- 734.0 0.026 0.000 19.6 2 1
02/27/06 6:32 p -19.3 -19.3 -19.3 --- --- 25.2 E 0.42 30.4 -33.9 --- --- 734.1 0.026 0.000 19.6 2 1
02/27/06 6:33 p -19.3 -19.3 -19.3 --- --- 20.0 E 0.33 22.6 -32.7 --- --- 734.1 0.026 0.000 19.6 2 1
02/27/06 6:34 p -19.3 -19.3 -19.3 --- --- 20.0 E 0.33 24.3 -32.7 --- --- 734.1 0.026 0.000 19.6 2 1
02/27/06 6:35 p -19.3 -19.3 -19.3 --- --- 21.7 ENE 0.36 27.8 -33.1 --- --- 733.9 0.026 0.000 19.6 2 1
02/27/06 6:36 p -19.3 -19.3 -19.3 --- --- 21.7 E 0.36 28.7 -33.1 --- --- 734.2 0.026 0.000 19.6 2 1
02/27/06 6:37 p -19.3 -19.3 -19.3 --- --- 23.5 E 0.39 27.0 -33.6 --- --- 734.1 0.026 0.000 19.6 2 1
02/27/06 6:38 p -19.3 -19.3 -19.3 --- --- 20.0 E 0.33 23.5 -32.7 --- --- 733.9 0.026 0.000 19.6 2 1
02/27/06 6:39 p -19.3 -19.3 -19.3 --- --- 23.5 ENE 0.39 27.0 -33.6 --- --- 734.3 0.026 0.000 19.6 2 1
02/27/06 6:40 p -19.3 -19.3 -19.3 --- --- 21.7 ENE 0.36 27.0 -33.2 --- --- 734.2 0.026 0.000 19.6 2 1
02/27/06 6:41 p -19.3 -19.3 -19.3 --- --- 15.7 E 0.26 20.9 -31.3 --- --- 734.0 0.026 0.000 19.6 2 1
02/27/06 6:42 p -19.3 -19.3 -19.3 --- --- 22.6 E 0.38 27.0 -33.3 --- --- 734.0 0.026 0.000 19.6 2 1
02/27/06 6:43 p -19.3 -19.3 -19.3 --- --- 17.4 E 0.29 21.7 -32.0 --- --- 734.2 0.026 0.000 19.6 2 1
02/27/06 6:44 p -19.3 -19.3 -19.3 --- --- 20.0 E 0.33 23.5 -32.7 --- --- 734.2 0.026 0.000 19.6 2 1
02/27/06 6:45 p -19.3 -19.3 -19.3 --- --- 19.1 ENE 0.32 22.6 -32.5 --- --- 734.0 0.026 0.000 19.6 2 1
02/27/06 6:46 p -19.3 -19.3 -19.3 --- --- 22.6 E 0.38 29.6 -33.4 --- --- 734.0 0.026 0.000 19.6 2 1
02/27/06 6:47 p -19.3 -19.3 -19.3 --- --- 18.3 E 0.30 23.5 -32.2 --- --- 734.2 0.026 0.000 19.6 2 1
02/27/06 6:48 p -19.3 -19.3 -19.3 --- --- 19.1 E 0.32 24.3 -32.4 --- --- 734.2 0.026 0.000 19.6 2 1
02/27/06 6:49 p -19.3 -19.3 -19.3 --- --- 21.7 ENE 0.36 25.2 -33.1 --- --- 734.2 0.026 0.000 19.6 2 1
02/27/06 6:50 p -19.3 -19.3 -19.3 --- --- 20.9 E 0.35 26.1 -32.9 --- --- 734.1 0.026 0.000 19.6 2 1
02/27/06 6:51 p -19.3 -19.3 -19.3 --- --- 24.3 ENE 0.41 27.0 -33.7 --- --- 734.3 0.026 0.000 19.6 3 1
02/27/06 6:52 p -19.3 -19.3 -19.3 --- --- 19.1 ENE 0.32 24.3 -32.4 --- --- 734.0 0.026 0.000 19.6 2 1
02/27/06 6:53 p -19.3 -19.3 -19.3 --- --- 19.1 E 0.32 23.5 -32.4 --- --- 734.1 0.026 0.000 19.6 2 1
02/27/06 6:54 p -19.3 -19.3 -19.3 --- --- 19.1 E 0.32 23.5 -32.4 --- --- 734.1 0.026 0.000 19.6 2 1
02/27/06 6:55 p -19.3 -19.3 -19.3 --- --- 21.7 E 0.36 24.3 -33.1 --- --- 734.2 0.026 0.000 19.6 2 1
02/27/06 6:56 p -19.3 -19.3 -19.3 --- --- 19.1 E 0.32 23.5 -32.4 --- --- 733.9 0.026 0.000 19.6 2 1
02/27/06 6:57 p -19.3 -19.3 -19.3 --- --- 20.9 ENE 0.35 23.5 -32.9 --- --- 734.1 0.026 0.000 19.6 2 1
02/27/06 6:58 p -19.3 -19.3 -19.3 --- --- 18.3 E 0.30 22.6 -32.2 --- --- 733.9 0.026 0.000 19.6 2 1
02/27/06 6:59 p -19.3 -19.3 -19.3 --- --- 22.6 ENE 0.38 26.1 -33.3 --- --- 734.1 0.026 0.000 19.5 2 1
02/27/06 7:00 p -19.3 -19.3 -19.3 --- --- 21.7 ENE 0.36 25.2 -33.1 --- --- 734.3 0.026 0.000 19.5 2 1
02/27/06 7:01 p -19.2 -19.2 -19.2 --- --- 20.0 ENE 0.33 22.6 -32.6 --- --- 734.2 0.026 0.000 19.5 2 1
02/27/06 7:02 p -19.3 -19.2 -19.3 --- --- 20.0 ENE 0.33 24.3 -32.7 --- --- 734.1 0.026 0.000 19.5 2 1
02/27/06 7:03 p -19.3 -19.2 -19.3 --- --- 21.7 ENE 0.36 23.5 -33.1 --- --- 734.1 0.026 0.000 19.5 2 1
02/27/06 7:04 p -19.2 -19.2 -19.3 --- --- 23.5 ENE 0.39 26.1 -33.4 --- --- 734.2 0.026 0.000 19.5 2 1
02/27/06 7:05 p -19.2 -19.2 -19.2 --- --- 17.4 ENE 0.29 20.9 -31.8 --- --- 734.4 0.026 0.000 19.5 2 1
02/27/06 7:06 p -19.3 -19.2 -19.3 --- --- 14.8 ENE 0.25 20.0 -31.1 --- --- 734.2 0.026 0.000 19.5 2 1
02/27/06 7:07 p -19.2 -19.2 -19.2 --- --- 20.9 ENE 0.35 24.3 -32.8 --- --- 734.1 0.026 0.000 19.5 2 1
02/27/06 7:08 p -19.2 -19.2 -19.2 --- --- 17.4 ENE 0.29 20.0 -31.8 --- --- 734.3 0.026 0.000 19.5 2 1
02/27/06 7:09 p -19.2 -19.2 -19.2 --- --- 20.0 ENE 0.33 24.3 -32.6 --- --- 734.3 0.026 0.000 19.5 2 1
02/27/06 7:10 p -19.2 -19.2 -19.2 --- --- 22.6 ENE 0.38 24.3 -33.3 --- --- 734.2 0.026 0.000 19.4 2 1
02/27/06 7:11 p -19.2 -19.2 -19.2 --- --- 22.6 ENE 0.38 24.3 -33.3 --- --- 734.1 0.026 0.000 19.4 2 1
02/27/06 7:12 p -19.2 -19.2 -19.2 --- --- 19.1 ENE 0.32 21.7 -32.3 --- --- 734.3 0.026 0.000 19.4 2 1
02/27/06 7:13 p -19.2 -19.2 -19.2 --- --- 20.0 ENE 0.33 26.1 -32.6 --- --- 734.1 0.026 0.000 19.4 2 1
02/27/06 7:14 p -19.2 -19.2 -19.2 --- --- 20.9 ENE 0.35 23.5 -32.8 --- --- 734.2 0.026 0.000 19.4 2 1
02/27/06 7:15 p -19.2 -19.2 -19.2 --- --- 20.0 ENE 0.33 25.2 -32.6 --- --- 734.1 0.026 0.000 19.4 2 1
02/27/06 7:16 p -19.2 -19.2 -19.2 --- --- 22.6 ENE 0.38 26.1 -33.3 --- --- 734.2 0.026 0.000 19.4 2 1
02/27/06 7:17 p -19.2 -19.2 -19.2 --- --- 20.0 ENE 0.33 23.5 -32.6 --- --- 734.1 0.026 0.000 19.4 2 1
02/27/06 7:18 p -19.2 -19.2 -19.2 --- --- 17.4 NE 0.29 22.6 -31.8 --- --- 734.4 0.026 0.000 19.4 2 1
02/27/06 7:19 p -19.2 -19.2 -19.2 --- --- 17.4 ENE 0.29 23.5 -31.8 --- --- 734.1 0.026 0.000 19.4 2 1
02/27/06 7:20 p -19.2 -19.2 -19.2 --- --- 20.9 ENE 0.35 23.5 -32.7 --- --- 734.1 0.026 0.000 19.4 2 1
02/27/06 7:21 p -19.2 -19.2 -19.2 --- --- 20.0 ENE 0.33 22.6 -32.6 --- --- 734.0 0.026 0.000 19.4 2 1
02/27/06 7:22 p -19.2 -19.2 -19.2 --- --- 21.7 ENE 0.36 23.5 -32.9 --- --- 734.1 0.026 0.000 19.4 2 1
02/27/06 7:23 p -19.2 -19.2 -19.2 --- --- 21.7 ENE 0.36 23.5 -32.9 --- --- 734.1 0.026 0.000 19.4 2 1
02/27/06 7:24 p -19.2 -19.2 -19.2 --- --- 20.9 ENE 0.35 24.3 -32.7 --- --- 734.1 0.026 0.000 19.4 2 1
02/27/06 7:25 p -19.2 -19.2 -19.2 --- --- 19.1 ENE 0.32 22.6 -32.3 --- --- 734.2 0.026 0.000 19.4 2 1
02/27/06 7:26 p -19.2 -19.2 -19.2 --- --- 20.9 E 0.35 23.5 -32.7 --- --- 734.1 0.026 0.000 19.4 2 1
02/27/06 7:27 p -19.2 -19.2 -19.2 --- --- 19.1 ENE 0.32 22.6 -32.3 --- --- 734.1 0.026 0.000 19.4 2 1
02/27/06 7:28 p -19.2 -19.2 -19.2 --- --- 22.6 ENE 0.38 25.2 -33.2 --- --- 734.0 0.026 0.000 19.5 2 1
02/27/06 7:29 p -19.2 -19.2 -19.2 --- --- 19.1 ENE 0.32 24.3 -32.3 --- --- 734.1 0.026 0.000 19.5 2 1
02/27/06 7:30 p -19.2 -19.2 -19.2 --- --- 22.6 ENE 0.38 25.2 -33.2 --- --- 734.2 0.026 0.000 19.5 2 1
02/27/06 7:31 p -19.2 -19.2 -19.2 --- --- 19.1 E 0.32 25.2 -32.3 --- --- 733.9 0.026 0.000 19.5 2 1
02/27/06 7:32 p -19.2 -19.2 -19.2 --- --- 22.6 ENE 0.38 25.2 -33.2 --- --- 734.2 0.026 0.000 19.5 2 1
02/27/06 7:33 p -19.2 -19.2 -19.2 --- --- 20.9 ENE 0.35 23.5 -32.7 --- --- 734.0 0.026 0.000 19.5 2 1
02/27/06 7:34 p -19.2 -19.2 -19.2 --- --- 20.0 ENE 0.33 24.3 -32.5 --- --- 734.1 0.026 0.000 19.5 2 1
02/27/06 7:35 p -19.2 -19.2 -19.2 --- --- 22.6 ENE 0.38 26.1 -33.2 --- --- 734.0 0.026 0.000 19.5 2 1
02/27/06 7:36 p -19.2 -19.2 -19.2 --- --- 22.6 ENE 0.38 23.5 -33.2 --- --- 734.0 0.026 0.000 19.5 2 1
02/27/06 7:37 p -19.2 -19.1 -19.2 --- --- 19.1 ENE 0.32 21.7 -32.3 --- --- 734.2 0.026 0.000 19.5 2 1
02/27/06 7:38 p -19.2 -19.2 -19.2 --- --- 20.0 ENE 0.33 21.7 -32.5 --- --- 734.1 0.026 0.000 19.5 2 1
02/27/06 7:39 p -19.2 -19.2 -19.2 --- --- 21.7 ENE 0.36 24.3 -32.9 --- --- 734.0 0.026 0.000 19.6 2 1
02/27/06 7:40 p -19.2 -19.1 -19.2 --- --- 21.7 ENE 0.36 24.3 -32.9 --- --- 734.0 0.026 0.000 19.5 2 1
02/27/06 7:41 p -19.1 -19.1 -19.2 --- --- 20.0 ENE 0.33 22.6 -32.4 --- --- 734.1 0.026 0.000 19.5 2 1
02/27/06 7:42 p -19.2 -19.1 -19.2 --- --- 21.7 ENE 0.36 23.5 -32.9 --- --- 734.0 0.026 0.000 19.5 2 1
02/27/06 7:43 p -19.2 -19.1 -19.2 --- --- 22.6 ENE 0.38 24.3 -33.2 --- --- 734.0 0.026 0.000 19.6 2 1
02/27/06 7:44 p -19.2 -19.2 -19.2 --- --- 22.6 ENE 0.38 24.3 -33.2 --- --- 734.0 0.026 0.000 19.6 2 1
02/27/06 7:45 p -19.2 -19.2 -19.2 --- --- 22.6 ENE 0.38 25.2 -33.2 --- --- 734.1 0.026 0.000 19.6 2 1
02/27/06 7:46 p -19.2 -19.1 -19.2 --- --- 16.5 ENE 0.28 20.9 -31.5 --- --- 734.2 0.026 0.000 19.6 2 1
02/27/06 7:47 p -19.2 -19.1 -19.2 --- --- 22.6 ENE 0.38 26.1 -33.2 --- --- 734.0 0.026 0.000 19.6 2 1
02/27/06 7:48 p -19.2 -19.2 -19.2 --- --- 21.7 ENE 0.36 25.2 -32.9 --- --- 734.0 0.026 0.000 19.5 2 1
02/27/06 7:49 p -19.2 -19.2 -19.2 --- --- 20.0 ENE 0.33 23.5 -32.5 --- --- 733.9 0.026 0.000 19.5 2 1
02/27/06 7:50 p -19.2 -19.1 -19.2 --- --- 23.5 ENE 0.39 25.2 -33.4 --- --- 733.9 0.026 0.000 19.5 2 1
02/27/06 7:51 p -19.1 -19.1 -19.2 --- --- 20.0 ENE 0.33 26.1 -32.4 --- --- 734.1 0.026 0.000 19.5 2 1
02/27/06 7:52 p -19.1 -19.1 -19.1 --- --- 20.0 ENE 0.33 23.5 -32.4 --- --- 734.1 0.026 0.000 19.4 2 1
02/27/06 7:53 p -19.1 -19.1 -19.2 --- --- 20.0 ENE 0.33 22.6 -32.4 --- --- 734.2 0.026 0.000 19.4 2 1
02/27/06 7:54 p -19.1 -19.1 -19.1 --- --- 19.1 ENE 0.32 23.5 -32.2 --- --- 734.2 0.026 0.000 19.4 2 1
02/27/06 7:55 p -19.1 -19.1 -19.1 --- --- 17.4 ENE 0.29 22.6 -31.7 --- --- 734.1 0.026 0.000 19.4 2 1
02/27/06 7:56 p -19.1 -19.1 -19.1 --- --- 22.6 ENE 0.38 27.0 -33.1 --- --- 733.8 0.026 0.000 19.4 2 1
02/27/06 7:57 p -19.1 -19.1 -19.2 --- --- 18.3 ENE 0.30 23.5 -31.9 --- --- 734.0 0.026 0.000 19.4 2 1
02/27/06 7:58 p -19.1 -19.1 -19.1 --- --- 20.9 ENE 0.35 23.5 -32.7 --- --- 733.9 0.026 0.000 19.4 2 1
02/27/06 7:59 p -19.1 -19.1 -19.1 --- --- 20.0 ENE 0.33 22.6 -32.4 --- --- 734.0 0.026 0.000 19.4 2 1
02/27/06 8:00 p -19.1 -19.1 -19.1 --- --- 20.0 ENE 0.33 21.7 -32.4 --- --- 734.1 0.026 0.000 19.4 2 1
02/27/06 8:01 p -19.1 -19.1 -19.1 --- --- 20.0 ENE 0.33 22.6 -32.4 --- --- 734.1 0.026 0.000 19.4 2 1
02/27/06 8:02 p -19.1 -19.1 -19.1 --- --- 13.9 ENE 0.23 16.5 -30.6 --- --- 734.3 0.026 0.000 19.4 2 1
02/27/06 8:03 p -19.1 -19.1 -19.1 --- --- 20.9 ENE 0.35 25.2 -32.7 --- --- 734.0 0.026 0.000 19.4 2 1
02/27/06 8:04 p -19.1 -19.1 -19.1 --- --- 20.0 ENE 0.33 22.6 -32.4 --- --- 734.1 0.026 0.000 19.4 2 1
02/27/06 8:05 p -19.1 -19.1 -19.1 --- --- 17.4 ENE 0.29 21.7 -31.7 --- --- 734.1 0.026 0.000 19.4 2 1
02/27/06 8:06 p -19.1 -19.1 -19.1 --- --- 21.7 ENE 0.36 23.5 -32.9 --- --- 734.1 0.026 0.000 19.4 2 1
02/27/06 8:07 p -19.1 -19.1 -19.1 --- --- 20.0 ENE 0.33 21.7 -32.4 --- --- 734.1 0.026 0.000 19.4 2 1
02/27/06 8:08 p -19.1 -19.1 -19.1 --- --- 20.0 ENE 0.33 21.7 -32.4 --- --- 734.1 0.026 0.000 19.4 2 1
02/27/06 8:09 p -19.1 -19.1 -19.1 --- --- 16.5 ENE 0.28 20.0 -31.3 --- --- 734.1 0.026 0.000 19.4 2 1
02/27/06 8:10 p -19.1 -19.1 -19.1 --- --- 20.9 ENE 0.35 25.2 -32.6 --- --- 733.9 0.026 0.000 19.4 2 1
02/27/06 8:11 p -19.1 -19.1 -19.1 --- --- 21.7 ENE 0.36 27.0 -32.8 --- --- 734.1 0.026 0.000 19.4 2 1
02/27/06 8:12 p -19.1 -19.1 -19.1 --- --- 17.4 ENE 0.29 22.6 -31.6 --- --- 734.1 0.026 0.000 19.4 2 1
02/27/06 8:13 p -19.1 -19.1 -19.1 --- --- 20.9 ENE 0.35 23.5 -32.6 --- --- 734.1 0.026 0.000 19.4 2 1
02/27/06 8:14 p -19.1 -19.1 -19.1 --- --- 13.9 ENE 0.23 17.4 -30.4 --- --- 734.3 0.026 0.000 19.4 2 1
02/27/06 8:15 p -19.1 -19.1 -19.1 --- --- 13.0 ENE 0.22 19.1 -30.1 --- --- 734.1 0.026 0.000 19.4 2 1
02/27/06 8:16 p -19.1 -19.0 -19.1 --- --- 24.3 ENE 0.41 26.1 -33.4 --- --- 733.9 0.026 0.000 19.4 2 1
02/27/06 8:17 p -19.0 -19.0 -19.1 --- --- 20.0 ENE 0.33 22.6 -32.3 --- --- 734.1 0.026 0.000 19.4 2 1
02/27/06 8:18 p -19.0 -19.0 -19.1 --- --- 17.4 ENE 0.29 20.9 -31.6 --- --- 734.1 0.026 0.000 19.4 2 1
02/27/06 8:19 p -19.0 -19.0 -19.1 --- --- 20.0 ENE 0.33 25.2 -32.3 --- --- 734.0 0.026 0.000 19.4 2 1
02/27/06 8:20 p -19.0 -19.0 -19.0 --- --- 15.7 ENE 0.26 18.3 -31.0 --- --- 734.0 0.026 0.000 19.4 2 1
02/27/06 8:21 p -19.0 -19.0 -19.0 --- --- 18.3 ENE 0.30 20.9 -31.8 --- --- 734.0 0.026 0.000 19.4 2 1
02/27/06 8:22 p -19.0 -19.0 -19.0 --- --- 18.3 ENE 0.30 20.0 -31.8 --- --- 734.1 0.026 0.000 19.4 2 1
02/27/06 8:23 p -18.9 -18.9 -19.0 --- --- 19.1 ENE 0.32 20.0 -32.0 --- --- 734.0 0.026 0.000 19.4 2 1
02/27/06 8:24 p -18.9 -18.9 -18.9 --- --- 18.3 ENE 0.30 21.7 -31.7 --- --- 734.1 0.026 0.000 19.4 2 1
02/27/06 8:25 p -18.9 -18.9 -18.9 --- --- 16.5 ENE 0.28 20.0 -31.2 --- --- 734.0 0.026 0.000 19.4 2 1
02/27/06 8:26 p -18.9 -18.9 -18.9 --- --- 19.1 E 0.32 25.2 -32.0 --- --- 733.8 0.026 0.000 19.4 2 1
02/27/06 8:27 p -18.9 -18.9 -18.9 --- --- 21.7 ENE 0.36 22.6 -32.7 --- --- 734.0 0.026 0.000 19.4 2 1
02/27/06 8:28 p -18.9 -18.9 -18.9 --- --- 15.7 ENE 0.26 19.1 -30.9 --- --- 734.0 0.026 0.000 19.5 2 1
02/27/06 8:29 p -18.9 -18.9 -18.9 --- --- 21.7 ENE 0.36 24.3 -32.7 --- --- 733.9 0.026 0.000 19.4 2 1
02/27/06 8:30 p -18.9 -18.9 -18.9 --- --- 17.4 ENE 0.29 22.6 -31.5 --- --- 734.3 0.026 0.000 19.5 2 1
02/27/06 8:31 p -18.9 -18.9 -18.9 --- --- 11.3 ENE 0.19 13.0 -29.3 --- --- 733.9 0.026 0.000 19.5 2 1
02/27/06 8:32 p -18.9 -18.9 -18.9 --- --- 21.7 ENE 0.36 27.8 -32.7 --- --- 733.9 0.026 0.000 19.5 2 1
02/27/06 8:33 p -18.9 -18.9 -18.9 --- --- 17.4 ENE 0.29 21.7 -31.5 --- --- 734.0 0.026 0.000 19.5 2 1
02/27/06 8:34 p -18.9 -18.9 -18.9 --- --- 16.5 E 0.28 19.1 -31.1 --- --- 733.9 0.026 0.000 19.5 2 1
02/27/06 8:35 p -18.9 -18.9 -18.9 --- --- 20.9 ENE 0.35 23.5 -32.4 --- --- 733.9 0.026 0.000 19.5 2 1
02/27/06 8:36 p -18.9 -18.9 -18.9 --- --- 16.5 ENE 0.28 20.9 -31.1 --- --- 733.9 0.026 0.000 19.5 2 1
02/27/06 8:37 p -18.9 -18.9 -18.9 --- --- 20.0 ENE 0.33 22.6 -32.2 --- --- 734.0 0.026 0.000 19.5 2 1
02/27/06 8:38 p -18.9 -18.9 -18.9 --- --- 20.0 ENE 0.33 21.7 -32.2 --- --- 733.9 0.026 0.000 19.5 2 1
02/27/06 8:39 p -18.9 -18.9 -18.9 --- --- 20.9 ENE 0.35 24.3 -32.4 --- --- 733.8 0.026 0.000 19.5 2 1
02/27/06 8:40 p -18.9 -18.9 -18.9 --- --- 20.0 ENE 0.33 21.7 -32.2 --- --- 733.9 0.026 0.000 19.6 2 1
02/27/06 8:41 p -18.9 -18.9 -18.9 --- --- 19.1 ENE 0.32 21.7 -31.9 --- --- 734.0 0.026 0.000 19.6 2 1
02/27/06 8:42 p -18.9 -18.9 -18.9 --- --- 14.8 ENE 0.25 18.3 -30.6 --- --- 733.9 0.026 0.000 19.6 2 1
02/27/06 8:43 p -18.9 -18.9 -18.9 --- --- 20.0 E 0.33 23.5 -32.2 --- --- 733.8 0.026 0.000 19.6 2 1
02/27/06 8:44 p -18.9 -18.9 -18.9 --- --- 22.6 ENE 0.38 25.2 -32.8 --- --- 733.8 0.026 0.000 19.6 2 1
02/27/06 8:45 p -18.9 -18.9 -18.9 --- --- 19.1 ENE 0.32 21.7 -31.9 --- --- 734.0 0.026 0.000 19.6 2 1
02/27/06 8:46 p -18.9 -18.8 -18.9 --- --- 18.3 ENE 0.30 21.7 -31.7 --- --- 733.7 0.026 0.000 19.6 2 1
02/27/06 8:47 p -18.9 -18.9 -18.9 --- --- 20.0 ENE 0.33 21.7 -32.2 --- --- 733.9 0.026 0.000 19.6 2 1
02/27/06 8:48 p -18.9 -18.9 -18.9 --- --- 20.9 ENE 0.35 25.2 -32.4 --- --- 733.9 0.026 0.000 19.5 2 1
02/27/06 8:49 p -18.9 -18.9 -18.9 --- --- 20.0 ENE 0.33 23.5 -32.2 --- --- 733.9 0.026 0.000 19.6 2 1
02/27/06 8:50 p -18.9 -18.8 -18.9 --- --- 19.1 ENE 0.32 23.5 -31.9 --- --- 733.7 0.026 0.000 19.6 2 1
02/27/06 8:51 p -18.9 -18.9 -18.9 --- --- 20.9 ENE 0.35 22.6 -32.4 --- --- 733.7 0.026 0.000 19.6 2 1
02/27/06 8:52 p -18.9 -18.8 -18.9 --- --- 20.0 ENE 0.33 23.5 -32.2 --- --- 733.9 0.026 0.000 19.6 2 1
02/27/06 8:53 p -18.9 -18.9 -18.9 --- --- 18.3 ENE 0.30 20.9 -31.7 --- --- 733.8 0.026 0.000 19.5 2 1
02/27/06 8:54 p -18.9 -18.8 -18.9 --- --- 20.0 ENE 0.33 22.6 -32.2 --- --- 733.9 0.026 0.000 19.5 2 1
02/27/06 8:55 p -18.9 -18.8 -18.9 --- --- 19.1 ENE 0.32 20.9 -31.9 --- --- 733.9 0.026 0.000 19.5 2 1
02/27/06 8:56 p -18.9 -18.8 -18.9 --- --- 20.0 ENE 0.33 23.5 -32.2 --- --- 733.9 0.026 0.000 19.5 2 1
02/27/06 8:57 p -18.9 -18.9 -18.9 --- --- 20.0 ENE 0.33 22.6 -32.2 --- --- 733.8 0.026 0.000 19.5 2 1
02/27/06 8:58 p -18.9 -18.9 -18.9 --- --- 18.3 ENE 0.30 20.9 -31.7 --- --- 733.8 0.026 0.000 19.5 2 1
02/27/06 8:59 p -18.9 -18.8 -18.9 --- --- 19.1 ENE 0.32 21.7 -31.9 --- --- 733.9 0.026 0.000 19.4 2 1
02/27/06 9:00 p -18.8 -18.8 -18.9 --- --- 20.9 ENE 0.35 23.5 -32.3 --- --- 733.7 0.026 0.000 19.4 2 1
02/27/06 9:01 p -18.8 -18.8 -18.8 --- --- 20.0 ENE 0.33 23.5 -32.1 --- --- 733.9 0.026 0.000 19.4 2 1
02/27/06 9:02 p -18.9 -18.8 -18.9 --- --- 19.1 ENE 0.32 22.6 -31.9 --- --- 733.8 0.026 0.000 19.4 2 1
02/27/06 9:03 p -18.8 -18.8 -18.9 --- --- 18.3 ENE 0.30 22.6 -31.6 --- --- 733.7 0.026 0.000 19.4 2 1
02/27/06 9:04 p -18.8 -18.8 -18.9 --- --- 20.0 ENE 0.33 24.3 -32.1 --- --- 733.7 0.026 0.000 19.4 2 1
02/27/06 9:05 p -18.9 -18.9 -18.9 --- --- 18.3 ENE 0.30 22.6 -31.7 --- --- 733.8 0.026 0.000 19.4 2 1
02/27/06 9:06 p -18.8 -18.8 -18.9 --- --- 19.1 ENE 0.32 20.9 -31.8 --- --- 733.9 0.026 0.000 19.4 2 1
02/27/06 9:07 p -18.8 -18.8 -18.8 --- --- 16.5 ENE 0.28 20.0 -31.1 --- --- 733.8 0.026 0.000 19.4 2 1
02/27/06 9:08 p -18.9 -18.8 -18.9 --- --- 20.0 ENE 0.33 23.5 -32.2 --- --- 733.8 0.026 0.000 19.4 2 1
02/27/06 9:09 p -18.8 -18.8 -18.8 --- --- 20.9 ENE 0.35 24.3 -32.3 --- --- 733.7 0.026 0.000 19.4 2 1
02/27/06 9:10 p -18.8 -18.8 -18.8 --- --- 20.9 ENE 0.35 25.2 -32.3 --- --- 733.8 0.026 0.000 19.4 2 1
02/27/06 9:11 p -18.8 -18.8 -18.9 --- --- 14.8 ENE 0.25 20.0 -30.5 --- --- 733.7 0.026 0.000 19.4 2 1
02/27/06 9:12 p -18.9 -18.8 -18.9 --- --- 20.9 ENE 0.35 23.5 -32.4 --- --- 733.6 0.026 0.000 19.4 2 1
02/27/06 9:13 p -18.9 -18.8 -18.9 --- --- 20.9 ENE 0.35 24.3 -32.4 --- --- 733.7 0.026 0.000 19.4 2 1
02/27/06 9:14 p -18.8 -18.8 -18.8 --- --- 19.1 ENE 0.32 23.5 -31.8 --- --- 733.9 0.026 0.000 19.4 2 1
02/27/06 9:15 p -18.8 -18.8 -18.8 --- --- 18.3 ENE 0.30 21.7 -31.6 --- --- 733.8 0.026 0.000 19.4 2 1
02/27/06 9:16 p -18.8 -18.8 -18.8 --- --- 20.9 ENE 0.35 22.6 -32.3 --- --- 733.7 0.026 0.000 19.4 2 1
02/27/06 9:17 p -18.8 -18.8 -18.8 --- --- 20.0 ENE 0.33 24.3 -32.1 --- --- 733.8 0.026 0.000 19.4 2 1
02/27/06 9:18 p -18.8 -18.8 -18.8 --- --- 18.3 ENE 0.30 21.7 -31.6 --- --- 733.9 0.026 0.000 19.5 2 1
02/27/06 9:19 p -18.8 -18.8 -18.8 --- --- 20.9 ENE 0.35 24.3 -32.3 --- --- 733.9 0.026 0.000 19.5 2 1
02/27/06 9:20 p -18.8 -18.8 -18.8 --- --- 20.9 ENE 0.35 25.2 -32.3 --- --- 733.7 0.026 0.000 19.5 2 1
02/27/06 9:21 p -18.8 -18.8 -18.8 --- --- 20.9 ENE 0.35 24.3 -32.3 --- --- 733.8 0.026 0.000 19.5 2 1
02/27/06 9:22 p -18.8 -18.8 -18.8 --- --- 18.3 ENE 0.30 20.0 -31.6 --- --- 733.8 0.026 0.000 19.5 2 1
02/27/06 9:23 p -18.8 -18.8 -18.8 --- --- 20.0 ENE 0.33 22.6 -32.1 --- --- 733.7 0.026 0.000 19.5 2 1
02/27/06 9:24 p -18.8 -18.8 -18.8 --- --- 20.0 ENE 0.33 20.9 -32.1 --- --- 733.6 0.026 0.000 19.5 2 1
02/27/06 9:25 p -18.8 -18.8 -18.8 --- --- 18.3 ENE 0.30 20.9 -31.6 --- --- 733.8 0.026 0.000 19.5 2 1
02/27/06 9:26 p -18.8 -18.8 -18.8 --- --- 20.9 ENE 0.35 22.6 -32.3 --- --- 733.7 0.026 0.000 19.5 2 1
02/27/06 9:27 p -18.8 -18.8 -18.8 --- --- 20.0 ENE 0.33 21.7 -32.1 --- --- 733.7 0.026 0.000 19.6 3 1
02/27/06 9:28 p -18.8 -18.8 -18.8 --- --- 20.0 ENE 0.33 22.6 -32.1 --- --- 733.7 0.026 0.000 19.6 2 1
02/27/06 9:29 p -18.8 -18.8 -18.8 --- --- 20.0 ENE 0.33 21.7 -32.1 --- --- 733.9 0.026 0.000 19.6 3 1
02/27/06 9:30 p -18.8 -18.8 -18.8 --- --- 20.9 ENE 0.35 22.6 -32.3 --- --- 733.8 0.026 0.000 19.6 3 1
02/27/06 9:31 p -18.8 -18.8 -18.8 --- --- 19.1 ENE 0.32 20.9 -31.8 --- --- 733.8 0.026 0.000 19.6 2 1
02/27/06 9:32 p -18.8 -18.8 -18.8 --- --- 20.0 ENE 0.33 23.5 -32.1 --- --- 733.7 0.026 0.000 19.6 3 1
02/27/06 9:33 p -18.8 -18.8 -18.8 --- --- 20.9 ENE 0.35 22.6 -32.3 --- --- 733.7 0.026 0.000 19.6 3 1
02/27/06 9:34 p -18.8 -18.8 -18.8 --- --- 18.3 ENE 0.30 21.7 -31.6 --- --- 733.8 0.026 0.000 19.6 3 1
02/27/06 9:35 p -18.8 -18.8 -18.8 --- --- 20.0 ENE 0.33 20.9 -32.1 --- --- 733.8 0.026 0.000 19.6 3 1
02/27/06 9:36 p -18.8 -18.8 -18.8 --- --- 18.3 ENE 0.30 21.7 -31.6 --- --- 733.8 0.026 0.000 19.6 3 1
02/27/06 9:37 p -18.8 -18.8 -18.8 --- --- 20.9 ENE 0.35 23.5 -32.3 --- --- 733.7 0.026 0.000 19.6 3 1
02/27/06 9:38 p -18.8 -18.8 -18.8 --- --- 19.1 ENE 0.32 21.7 -31.8 --- --- 733.7 0.026 0.000 19.6 3 1
02/27/06 9:39 p -18.8 -18.8 -18.8 --- --- 20.0 ENE 0.33 25.2 -32.1 --- --- 733.7 0.026 0.000 19.6 3 1
02/27/06 9:40 p -18.8 -18.8 -18.8 --- --- 20.0 ENE 0.33 25.2 -32.1 --- --- 733.9 0.026 0.000 19.5 3 1
02/27/06 9:41 p -18.8 -18.8 -18.8 --- --- 17.4 ENE 0.29 20.9 -31.3 --- --- 733.8 0.026 0.000 19.5 3 1
02/27/06 9:42 p -18.8 -18.8 -18.8 --- --- 19.1 ENE 0.32 23.5 -31.8 --- --- 733.7 0.026 0.000 19.5 3 1
02/27/06 9:43 p -18.9 -18.8 -18.9 --- --- 20.0 ENE 0.33 22.6 -32.2 --- --- 733.8 0.026 0.000 19.5 3 1
02/27/06 9:44 p -18.9 -18.8 -18.9 --- --- 20.0 ENE 0.33 20.9 -32.2 --- --- 733.8 0.026 0.000 19.5 3 1
02/27/06 9:45 p -18.9 -18.8 -18.9 --- --- 19.1 ENE 0.32 21.7 -31.9 --- --- 733.7 0.026 0.000 19.5 3 1
02/27/06 9:46 p -18.9 -18.8 -18.9 --- --- 20.0 ENE 0.33 22.6 -32.2 --- --- 733.8 0.026 0.000 19.5 3 1
02/27/06 9:47 p -18.9 -18.9 -18.9 --- --- 17.4 ENE 0.29 20.0 -31.4 --- --- 733.8 0.026 0.000 19.5 3 1
02/27/06 9:48 p -18.9 -18.9 -18.9 --- --- 20.9 ENE 0.35 22.6 -32.4 --- --- 733.8 0.026 0.000 19.4 3 1
02/27/06 9:49 p -18.9 -18.9 -18.9 --- --- 19.1 ENE 0.32 20.0 -31.9 --- --- 733.8 0.026 0.000 19.4 3 1
02/27/06 9:50 p -18.9 -18.9 -18.9 --- --- 13.9 NE 0.23 19.1 -30.2 --- --- 733.9 0.026 0.000 19.4 3 1
02/27/06 9:51 p -18.9 -18.9 -18.9 --- --- 16.5 ENE 0.28 20.9 -31.1 --- --- 733.6 0.026 0.000 19.4 3 1
02/27/06 9:52 p -18.9 -18.9 -18.9 --- --- 19.1 ENE 0.32 24.3 -31.9 --- --- 733.8 0.026 0.000 19.4 3 1
02/27/06 9:53 p -18.9 -18.9 -18.9 --- --- 17.4 ENE 0.29 20.9 -31.4 --- --- 733.7 0.026 0.000 19.4 3 1
02/27/06 9:54 p -18.9 -18.9 -18.9 --- --- 19.1 ENE 0.32 20.9 -31.9 --- --- 733.8 0.026 0.000 19.4 3 1
02/27/06 9:55 p -18.9 -18.9 -18.9 --- --- 16.5 ENE 0.28 19.1 -31.1 --- --- 733.7 0.026 0.000 19.4 3 1
02/27/06 9:56 p -18.9 -18.9 -18.9 --- --- 20.0 ENE 0.33 21.7 -32.2 --- --- 733.8 0.026 0.000 19.4 3 1
02/27/06 9:57 p -18.9 -18.9 -18.9 --- --- 17.4 ENE 0.29 20.9 -31.4 --- --- 733.7 0.026 0.000 19.4 3 1
02/27/06 9:58 p -18.9 -18.9 -18.9 --- --- 20.0 ENE 0.33 26.1 -32.2 --- --- 733.8 0.026 0.000 19.4 3 1
02/27/06 9:59 p -18.9 -18.9 -18.9 --- --- 19.1 ENE 0.32 24.3 -31.9 --- --- 733.6 0.026 0.000 19.4 3 1
02/27/06 10:00 p -18.9 -18.9 -18.9 --- --- 19.1 ENE 0.32 22.6 -31.9 --- --- 733.8 0.026 0.000 19.4 3 1
02/27/06 10:01 p -18.9 -18.9 -18.9 --- --- 15.7 NE 0.26 18.3 -30.8 --- --- 733.8 0.026 0.000 19.3 3 1
02/27/06 10:02 p -18.9 -18.9 -18.9 --- --- 19.1 ENE 0.32 21.7 -31.9 --- --- 733.7 0.026 0.000 19.3 3 1
02/27/06 10:03 p -18.9 -18.8 -18.9 --- --- 19.1 ENE 0.32 21.7 -31.9 --- --- 733.8 0.026 0.000 19.3 3 1
02/27/06 10:04 p -18.8 -18.8 -18.9 --- --- 20.0 ENE 0.33 23.5 -32.1 --- --- 733.7 0.026 0.000 19.3 3 1
02/27/06 10:05 p -18.9 -18.8 -18.9 --- --- 16.5 ENE 0.28 18.3 -31.1 --- --- 733.7 0.026 0.000 19.3 3 1
02/27/06 10:06 p -18.8 -18.8 -18.9 --- --- 19.1 ENE 0.32 21.7 -31.8 --- --- 733.7 0.026 0.000 19.3 3 1
02/27/06 10:07 p -18.8 -18.8 -18.8 --- --- 20.9 ENE 0.35 22.6 -32.3 --- --- 733.7 0.026 0.000 19.3 3 1
02/27/06 10:08 p -18.8 -18.8 -18.8 --- --- 16.5 ENE 0.28 20.0 -31.1 --- --- 733.6 0.026 0.000 19.3 3 1
02/27/06 10:09 p -18.8 -18.8 -18.8 --- --- 20.9 ENE 0.35 21.7 -32.3 --- --- 733.7 0.026 0.000 19.3 3 1
02/27/06 10:10 p -18.8 -18.8 -18.8 --- --- 18.3 ENE 0.30 20.9 -31.6 --- --- 733.7 0.026 0.000 19.3 3 1
02/27/06 10:11 p -18.8 -18.8 -18.8 --- --- 16.5 ENE 0.28 20.9 -31.1 --- --- 733.6 0.026 0.000 19.3 3 1
02/27/06 10:12 p -18.8 -18.8 -18.8 --- --- 18.3 ENE 0.30 20.9 -31.6 --- --- 733.6 0.026 0.000 19.3 3 1
02/27/06 10:13 p -18.8 -18.8 -18.8 --- --- 20.0 ENE 0.33 21.7 -32.1 --- --- 733.6 0.026 0.000 19.2 3 1
02/27/06 10:14 p -18.8 -18.8 -18.8 --- --- 19.1 NE 0.32 20.9 -31.8 --- --- 733.7 0.026 0.000 19.2 3 1
02/27/06 10:15 p -18.8 -18.8 -18.8 --- --- 13.9 ENE 0.23 17.4 -30.2 --- --- 733.8 0.026 0.000 19.2 3 1
02/27/06 10:16 p -18.8 -18.8 -18.8 --- --- 17.4 ENE 0.29 20.0 -31.3 --- --- 733.6 0.026 0.000 19.2 3 1
02/27/06 10:17 p -18.8 -18.8 -18.8 --- --- 20.9 ENE 0.35 22.6 -32.3 --- --- 733.6 0.026 0.000 19.2 3 1
02/27/06 10:18 p -18.8 -18.8 -18.8 --- --- 13.9 ENE 0.23 18.3 -30.2 --- --- 733.8 0.026 0.000 19.2 3 1
02/27/06 10:19 p -18.8 -18.8 -18.8 --- --- 14.8 ENE 0.25 20.9 -30.5 --- --- 733.6 0.026 0.000 19.2 3 1
02/27/06 10:20 p -18.8 -18.8 -18.8 --- --- 20.9 ENE 0.35 23.5 -32.2 --- --- 733.6 0.026 0.000 19.2 3 1
02/27/06 10:21 p -18.8 -18.8 -18.8 --- --- 16.5 ENE 0.28 20.9 -31.0 --- --- 733.8 0.026 0.000 19.2 3 1
02/27/06 10:22 p -18.8 -18.8 -18.8 --- --- 16.5 ENE 0.28 18.3 -31.0 --- --- 733.8 0.026 0.000 19.2 3 1
02/27/06 10:23 p -18.8 -18.8 -18.8 --- --- 17.4 ENE 0.29 21.7 -31.3 --- --- 733.5 0.026 0.000 19.2 3 1
02/27/06 10:24 p -18.8 -18.8 -18.8 --- --- 20.0 ENE 0.33 21.7 -32.0 --- --- 733.5 0.026 0.000 19.2 3 1
02/27/06 10:25 p -18.8 -18.8 -18.8 --- --- 16.5 ENE 0.28 23.5 -31.0 --- --- 733.5 0.026 0.000 19.2 3 1
02/27/06 10:26 p -18.8 -18.8 -18.8 --- --- 18.3 ENE 0.30 22.6 -31.5 --- --- 733.6 0.026 0.000 19.2 3 1
02/27/06 10:27 p -18.8 -18.8 -18.8 --- --- 18.3 ENE 0.30 20.9 -31.5 --- --- 733.6 0.026 0.000 19.2 3 1
02/27/06 10:28 p -18.8 -18.8 -18.8 --- --- 17.4 ENE 0.29 19.1 -31.3 --- --- 733.7 0.026 0.000 19.2 3 1
02/27/06 10:29 p -18.8 -18.7 -18.8 --- --- 19.1 ENE 0.32 20.9 -31.8 --- --- 733.6 0.026 0.000 19.2 3 1
02/27/06 10:30 p -18.8 -18.7 -18.8 --- --- 15.7 ENE 0.26 17.4 -30.7 --- --- 733.7 0.026 0.000 19.2 3 1
02/27/06 10:31 p -18.8 -18.7 -18.8 --- --- 19.1 ENE 0.32 21.7 -31.8 --- --- 733.6 0.026 0.000 19.2 3 1
02/27/06 10:32 p -18.7 -18.7 -18.8 --- --- 14.8 ENE 0.25 17.4 -30.3 --- --- 733.6 0.026 0.000 19.2 3 1
02/27/06 10:33 p -18.7 -18.7 -18.8 --- --- 20.0 ENE 0.33 22.6 -31.9 --- --- 733.5 0.026 0.000 19.2 3 1
02/27/06 10:34 p -18.7 -18.7 -18.7 --- --- 18.3 ENE 0.30 20.9 -31.4 --- --- 733.5 0.026 0.000 19.2 3 1
02/27/06 10:35 p -18.7 -18.7 -18.7 --- --- 17.4 ENE 0.29 20.9 -31.2 --- --- 733.5 0.026 0.000 19.2 3 1
02/27/06 10:36 p -18.7 -18.7 -18.7 --- --- 19.1 ENE 0.32 21.7 -31.7 --- --- 733.5 0.026 0.000 19.2 3 1
02/27/06 10:37 p -18.7 -18.7 -18.7 --- --- 20.0 ENE 0.33 22.6 -31.9 --- --- 733.6 0.026 0.000 19.2 3 1
02/27/06 10:38 p -18.7 -18.7 -18.7 --- --- 15.7 ENE 0.26 20.0 -30.6 --- --- 733.5 0.026 0.000 19.2 3 1
02/27/06 10:39 p -18.7 -18.7 -18.7 --- --- 20.9 ENE 0.35 22.6 -32.2 --- --- 733.5 0.026 0.000 19.2 3 1
02/27/06 10:40 p -18.7 -18.7 -18.7 --- --- 17.4 ENE 0.29 20.0 -31.2 --- --- 733.6 0.026 0.000 19.2 3 1
02/27/06 10:41 p -18.7 -18.7 -18.7 --- --- 17.4 ENE 0.29 21.7 -31.1 --- --- 733.4 0.026 0.000 19.2 3 1
02/27/06 10:42 p -18.7 -18.7 -18.7 --- --- 19.1 ENE 0.32 20.9 -31.7 --- --- 733.6 0.026 0.000 19.2 3 1
02/27/06 10:43 p -18.7 -18.7 -18.7 --- --- 18.3 ENE 0.30 20.0 -31.4 --- --- 733.5 0.026 0.000 19.2 3 1
02/27/06 10:44 p -18.7 -18.7 -18.7 --- --- 20.0 ENE 0.33 22.6 -31.8 --- --- 733.4 0.026 0.000 19.2 3 1
02/27/06 10:45 p -18.7 -18.7 -18.7 --- --- 17.4 ENE 0.29 20.9 -31.1 --- --- 733.5 0.026 0.000 19.2 3 1
02/27/06 10:46 p -18.7 -18.7 -18.7 --- --- 16.5 ENE 0.28 22.6 -30.9 --- --- 733.4 0.026 0.000 19.2 3 1
02/27/06 10:47 p -18.7 -18.7 -18.7 --- --- 20.9 ENE 0.35 22.6 -32.1 --- --- 733.4 0.026 0.000 19.2 3 1
02/27/06 10:48 p -18.7 -18.7 -18.7 --- --- 18.3 ENE 0.30 20.9 -31.4 --- --- 733.4 0.026 0.000 19.2 3 1
02/27/06 10:49 p -18.7 -18.7 -18.7 --- --- 17.4 NE 0.29 20.9 -31.1 --- --- 733.6 0.026 0.000 19.2 3 1
02/27/06 10:50 p -18.7 -18.7 -18.7 --- --- 13.9 ENE 0.23 18.3 -29.9 --- --- 733.4 0.026 0.000 19.2 3 1
02/27/06 10:51 p -18.7 -18.7 -18.7 --- --- 19.1 ENE 0.32 20.9 -31.6 --- --- 733.5 0.026 0.000 19.2 3 1
02/27/06 10:52 p -18.7 -18.7 -18.7 --- --- 19.1 ENE 0.32 22.6 -31.6 --- --- 733.5 0.026 0.000 19.2 3 1
02/27/06 10:53 p -18.7 -18.6 -18.7 --- --- 16.5 ENE 0.28 18.3 -30.8 --- --- 733.6 0.026 0.000 19.2 3 1
02/27/06 10:54 p -18.7 -18.6 -18.7 --- --- 19.1 ENE 0.32 22.6 -31.6 --- --- 733.3 0.026 0.000 19.2 3 1
02/27/06 10:55 p -18.7 -18.7 -18.7 --- --- 19.1 ENE 0.32 21.7 -31.6 --- --- 733.4 0.026 0.000 19.2 3 1
02/27/06 10:56 p -18.6 -18.6 -18.7 --- --- 15.7 ENE 0.26 20.0 -30.5 --- --- 733.5 0.026 0.000 19.2 3 1
02/27/06 10:57 p -18.7 -18.7 -18.7 --- --- 20.0 ENE 0.33 21.7 -31.8 --- --- 733.4 0.026 0.000 19.2 3 1
02/27/06 10:58 p -18.7 -18.6 -18.7 --- --- 18.3 ENE 0.30 20.9 -31.4 --- --- 733.4 0.026 0.000 19.2 3 1
02/27/06 10:59 p -18.6 -18.6 -18.6 --- --- 17.4 ENE 0.29 20.0 -31.1 --- --- 733.5 0.026 0.000 19.2 3 1
02/27/06 11:00 p -18.6 -18.6 -18.6 --- --- 17.4 ENE 0.29 21.7 -31.1 --- --- 733.3 0.026 0.000 19.2 3 1
02/27/06 11:01 p -18.6 -18.6 -18.7 --- --- 20.0 ENE 0.33 22.6 -31.8 --- --- 733.4 0.026 0.000 19.2 3 1
02/27/06 11:02 p -18.6 -18.6 -18.6 --- --- 17.4 ENE 0.29 21.7 -31.1 --- --- 733.3 0.026 0.000 19.2 3 1
02/27/06 11:03 p -18.6 -18.6 -18.6 --- --- 17.4 ENE 0.29 21.7 -31.1 --- --- 733.5 0.026 0.000 19.1 3 1
02/27/06 11:04 p -18.6 -18.6 -18.6 --- --- 17.4 ENE 0.29 21.7 -31.1 --- --- 733.4 0.026 0.000 19.1 3 1
02/27/06 11:05 p -18.6 -18.6 -18.6 --- --- 17.4 ENE 0.29 20.0 -31.1 --- --- 733.3 0.026 0.000 19.1 3 1
02/27/06 11:07 p -18.6 -18.6 -18.6 --- --- 17.4 ENE 0.29 22.6 -31.1 --- --- 733.3 0.026 0.000 19.1 3 1
02/27/06 11:08 p -18.6 -18.6 -18.6 --- --- 19.1 ENE 0.32 21.7 -31.6 --- --- 733.4 0.026 0.000 19.1 3 1
02/27/06 11:09 p -18.6 -18.6 -18.6 --- --- 17.4 ENE 0.29 20.9 -31.1 --- --- 733.3 0.026 0.000 19.1 3 1
02/27/06 11:10 p -18.6 -18.6 -18.6 --- --- 18.3 ENE 0.30 20.9 -31.3 --- --- 733.4 0.026 0.000 19.1 3 1
02/27/06 11:11 p -18.6 -18.6 -18.6 --- --- 18.3 ENE 0.30 21.7 -31.3 --- --- 733.2 0.026 0.000 19.1 3 1
02/27/06 11:12 p -18.6 -18.6 -18.6 --- --- 19.1 ENE 0.32 21.7 -31.6 --- --- 733.3 0.026 0.000 19.1 3 1
02/27/06 11:13 p -18.6 -18.6 -18.6 --- --- 18.3 ENE 0.30 20.0 -31.3 --- --- 733.3 0.026 0.000 19.1 3 1
02/27/06 11:14 p -18.6 -18.6 -18.6 --- --- 18.3 ENE 0.30 20.9 -31.3 --- --- 733.3 0.026 0.000 19.1 3 1
02/27/06 11:15 p -18.6 -18.6 -18.6 --- --- 18.3 ENE 0.30 22.6 -31.2 --- --- 733.3 0.026 0.000 19.1 3 1
02/27/06 11:16 p -18.6 -18.6 -18.6 --- --- 19.1 ENE 0.32 21.7 -31.4 --- --- 733.3 0.026 0.000 19.1 3 1
02/27/06 11:17 p -18.6 -18.6 -18.6 --- --- 16.5 ENE 0.28 21.7 -30.7 --- --- 733.3 0.026 0.000 19.1 3 1
02/27/06 11:18 p -18.6 -18.6 -18.6 --- --- 16.5 ENE 0.28 19.1 -30.7 --- --- 733.4 0.026 0.000 19.1 3 1
02/27/06 11:19 p -18.6 -18.6 -18.6 --- --- 19.1 ENE 0.32 20.9 -31.4 --- --- 733.3 0.026 0.000 19.1 3 1
02/27/06 11:20 p -18.6 -18.6 -18.6 --- --- 16.5 ENE 0.28 20.9 -30.7 --- --- 733.2 0.026 0.000 19.1 3 1
02/27/06 11:21 p -18.6 -18.5 -18.6 --- --- 19.1 ENE 0.32 20.9 -31.4 --- --- 733.2 0.026 0.000 19.1 3 1
02/27/06 11:22 p -18.5 -18.5 -18.6 --- --- 20.9 ENE 0.35 22.6 -31.8 --- --- 733.2 0.026 0.000 19.1 2 1
02/27/06 11:23 p -18.6 -18.5 -18.6 --- --- 17.4 ENE 0.29 20.9 -30.9 --- --- 733.3 0.026 0.000 19.1 3 1
02/27/06 11:24 p -18.5 -18.5 -18.5 --- --- 20.0 ENE 0.33 23.5 -31.6 --- --- 733.3 0.026 0.000 19.1 3 1
02/27/06 11:25 p -18.5 -18.5 -18.5 --- --- 19.1 ENE 0.32 22.6 -31.4 --- --- 733.3 0.026 0.000 19.1 3 1
02/27/06 11:26 p -18.5 -18.5 -18.5 --- --- 10.4 NE 0.17 19.1 -28.3 --- --- 733.4 0.026 0.000 19.1 3 1
02/27/06 11:27 p -18.5 -18.4 -18.5 --- --- 18.3 NE 0.30 21.7 -31.2 --- --- 733.4 0.026 0.000 19.1 3 1
02/27/06 11:28 p -18.4 -18.4 -18.5 --- --- 16.5 ENE 0.28 20.0 -30.6 --- --- 733.2 0.026 0.000 19.1 3 1
02/27/06 11:29 p -18.4 -18.4 -18.4 --- --- 19.1 ENE 0.32 23.5 -31.3 --- --- 733.1 0.026 0.000 19.1 3 1
02/27/06 11:30 p -18.4 -18.4 -18.4 --- --- 16.5 ENE 0.28 19.1 -30.6 --- --- 733.2 0.026 0.000 19.1 3 1
02/27/06 11:31 p -18.4 -18.4 -18.4 --- --- 16.5 ENE 0.28 20.9 -30.6 --- --- 733.3 0.026 0.000 19.1 3 1
02/27/06 11:32 p -18.4 -18.4 -18.4 --- --- 18.3 ENE 0.30 20.0 -31.1 --- --- 733.1 0.026 0.000 19.1 3 1
02/27/06 11:33 p -18.4 -18.4 -18.4 --- --- 20.0 ENE 0.33 21.7 -31.6 --- --- 733.2 0.026 0.000 19.1 2 1
02/27/06 11:34 p -18.4 -18.4 -18.4 --- --- 20.0 ENE 0.33 22.6 -31.6 --- --- 733.1 0.026 0.000 19.1 3 1
02/27/06 11:35 p -18.4 -18.4 -18.4 --- --- 19.1 ENE 0.32 21.7 -31.2 --- --- 733.2 0.026 0.000 19.2 3 1
02/27/06 11:36 p -18.4 -18.4 -18.4 --- --- 17.4 ENE 0.29 21.7 -30.7 --- --- 733.1 0.026 0.000 19.1 3 1
02/27/06 11:37 p -18.4 -18.4 -18.4 --- --- 20.0 ENE 0.33 23.5 -31.5 --- --- 733.1 0.026 0.000 19.2 3 1
02/27/06 11:38 p -18.4 -18.4 -18.4 --- --- 18.3 ENE 0.30 21.7 -31.0 --- --- 733.2 0.026 0.000 19.1 3 1
02/27/06 11:39 p -18.4 -18.4 -18.4 --- --- 19.1 ENE 0.32 21.7 -31.2 --- --- 733.1 0.026 0.000 19.2 3 1
02/27/06 11:40 p -18.4 -18.4 -18.4 --- --- 18.3 ENE 0.30 20.0 -31.0 --- --- 733.2 0.026 0.000 19.2 3 1
02/27/06 11:41 p -18.4 -18.4 -18.4 --- --- 19.1 ENE 0.32 21.7 -31.2 --- --- 733.2 0.026 0.000 19.2 2 1
02/27/06 11:42 p -18.4 -18.4 -18.4 --- --- 18.3 ENE 0.30 20.9 -31.0 --- --- 733.1 0.026 0.000 19.2 3 1
02/27/06 11:43 p -18.4 -18.4 -18.4 --- --- 18.3 ENE 0.30 21.7 -31.0 --- --- 733.0 0.026 0.000 19.2 3 1
02/27/06 11:44 p -18.4 -18.4 -18.4 --- --- 21.7 ENE 0.36 23.5 -31.9 --- --- 733.0 0.026 0.000 19.2 3 1
02/27/06 11:45 p -18.3 -18.3 -18.4 --- --- 15.7 ENE 0.26 19.1 -30.1 --- --- 733.2 0.025 0.000 19.2 3 1
02/27/06 11:46 p -18.3 -18.3 -18.3 --- --- 19.1 ENE 0.32 20.9 -31.2 --- --- 733.1 0.025 0.000 19.2 2 1
02/27/06 11:47 p -18.3 -18.3 -18.4 --- --- 19.1 ENE 0.32 21.7 -31.2 --- --- 733.0 0.025 0.000 19.2 3 1
02/27/06 11:48 p -18.3 -18.3 -18.3 --- --- 20.9 ENE 0.35 23.5 -31.6 --- --- 732.9 0.025 0.000 19.2 3 1
02/27/06 11:49 p -18.3 -18.3 -18.3 --- --- 16.5 ENE 0.28 20.9 -30.4 --- --- 733.1 0.025 0.000 19.2 3 1
02/27/06 11:50 p -18.3 -18.3 -18.3 --- --- 19.1 ENE 0.32 21.7 -31.2 --- --- 733.0 0.025 0.000 19.2 3 1
02/27/06 11:51 p -18.3 -18.3 -18.3 --- --- 20.0 ENE 0.33 21.7 -31.4 --- --- 733.1 0.025 0.000 19.1 2 1
02/27/06 11:52 p -18.3 -18.3 -18.3 --- --- 17.4 ENE 0.29 19.1 -30.7 --- --- 733.2 0.025 0.000 19.1 3 1
02/27/06 11:53 p -18.3 -18.3 -18.3 --- --- 14.8 ENE 0.25 17.4 -29.8 --- --- 733.1 0.025 0.000 19.1 2 1
02/27/06 11:54 p -18.3 -18.3 -18.3 --- --- 20.9 ENE 0.35 23.5 -31.6 --- --- 733.2 0.025 0.000 19.1 3 1
02/27/06 11:55 p -18.3 -18.3 -18.3 --- --- 16.5 ENE 0.28 18.3 -30.3 --- --- 733.1 0.025 0.000 19.1 2 1
02/27/06 11:56 p -18.3 -18.3 -18.3 --- --- 18.3 ENE 0.30 20.0 -30.8 --- --- 733.1 0.025 0.000 19.1 2 1
02/27/06 11:57 p -18.3 -18.3 -18.3 --- --- 17.4 ENE 0.29 19.1 -30.6 --- --- 733.2 0.025 0.000 19.1 3 1
02/27/06 11:58 p -18.3 -18.3 -18.3 --- --- 18.3 ENE 0.30 20.9 -30.8 --- --- 733.0 0.025 0.000 19.1 3 1
02/27/06 11:59 p -18.3 -18.3 -18.3 --- --- 21.7 ENE 0.36 24.3 -31.8 --- --- 733.0 0.025 0.000 19.1 3 1
02/28/06 12:00 a -18.3 -18.3 -18.3 --- --- 16.5 ENE 0.28 19.1 -30.3 --- --- 733.1 0.025 0.000 19.1 3 1
02/28/06 12:01 a -18.3 -18.3 -18.3 --- --- 21.7 ENE 0.36 24.3 -31.8 --- --- 733.0 0.025 0.000 19.1 2 1
02/28/06 12:02 a -18.3 -18.3 -18.3 --- --- 20.0 ENE 0.33 21.7 -31.3 --- --- 733.0 0.025 0.000 19.1 3 1
02/28/06 12:03 a -18.3 -18.3 -18.3 --- --- 20.0 ENE 0.33 22.6 -31.3 --- --- 733.0 0.025 0.000 19.1 2 1
02/28/06 12:04 a -18.3 -18.2 -18.3 --- --- 17.4 ENE 0.29 22.6 -30.6 --- --- 733.0 0.025 0.000 19.1 3 1
02/28/06 12:05 a -18.2 -18.2 -18.2 --- --- 20.0 ENE 0.33 21.7 -31.3 --- --- 733.1 0.025 0.000 19.1 3 1
02/28/06 12:06 a -18.2 -18.2 -18.2 --- --- 13.9 ENE 0.23 20.9 -29.4 --- --- 733.2 0.025 0.000 19.1 3 1
02/28/06 12:07 a -18.2 -18.2 -18.2 --- --- 18.3 ENE 0.30 23.5 -30.8 --- --- 732.9 0.025 0.000 19.1 2 1
02/28/06 12:08 a -18.2 -18.2 -18.2 --- --- 17.4 NE 0.29 23.5 -30.5 --- --- 732.9 0.025 0.000 19.1 2 1
02/28/06 12:09 a -18.2 -18.2 -18.2 --- --- 20.9 ENE 0.35 23.5 -31.5 --- --- 733.0 0.025 0.000 19.1 3 1
02/28/06 12:10 a -18.2 -18.2 -18.2 --- --- 15.7 ENE 0.26 21.7 -30.0 --- --- 733.0 0.025 0.000 19.1 2 1
02/28/06 12:11 a -18.2 -18.2 -18.2 --- --- 19.1 ENE 0.32 21.7 -31.0 --- --- 733.2 0.025 0.000 19.1 2 1
02/28/06 12:12 a -18.2 -18.2 -18.2 --- --- 14.8 ENE 0.25 19.1 -29.6 --- --- 733.0 0.025 0.000 19.1 3 1
02/28/06 12:13 a -18.2 -18.2 -18.2 --- --- 18.3 ENE 0.30 21.7 -30.7 --- --- 733.0 0.025 0.000 19.1 3 1
02/28/06 12:14 a -18.2 -18.2 -18.2 --- --- 18.3 ENE 0.30 22.6 -30.7 --- --- 733.0 0.025 0.000 19.1 3 1
02/28/06 12:15 a -18.2 -18.2 -18.2 --- --- 17.4 ENE 0.29 21.7 -30.4 --- --- 733.1 0.025 0.000 19.1 3 1
02/28/06 12:16 a -18.2 -18.2 -18.2 --- --- 19.1 ENE 0.32 20.9 -30.9 --- --- 733.0 0.025 0.000 19.1 3 1
02/28/06 12:17 a -18.2 -18.2 -18.2 --- --- 19.1 ENE 0.32 21.7 -30.9 --- --- 733.0 0.025 0.000 19.1 3 1
02/28/06 12:18 a -18.2 -18.1 -18.2 --- --- 17.4 ENE 0.29 20.0 -30.4 --- --- 732.9 0.025 0.000 19.1 3 1
02/28/06 12:19 a -18.2 -18.2 -18.2 --- --- 19.1 ENE 0.32 21.7 -30.9 --- --- 732.9 0.025 0.000 19.1 3 1
02/28/06 12:20 a -18.1 -18.1 -18.2 --- --- 17.4 ENE 0.29 21.7 -30.4 --- --- 732.8 0.025 0.000 19.1 2 1
02/28/06 12:21 a -18.1 -18.1 -18.1 --- --- 17.4 ENE 0.29 20.0 -30.4 --- --- 732.9 0.025 0.000 19.1 3 1
02/28/06 12:22 a -18.1 -18.1 -18.1 --- --- 18.3 ENE 0.30 20.9 -30.6 --- --- 732.8 0.025 0.000 19.1 3 1
02/28/06 12:23 a -18.1 -18.1 -18.1 --- --- 18.3 ENE 0.30 21.7 -30.6 --- --- 732.9 0.025 0.000 19.1 3 1
02/28/06 12:24 a -18.1 -18.1 -18.1 --- --- 18.3 ENE 0.30 24.3 -30.6 --- --- 732.9 0.025 0.000 19.1 3 1
02/28/06 12:25 a -18.1 -18.1 -18.1 --- --- 20.0 ENE 0.33 21.7 -31.1 --- --- 732.9 0.025 0.000 19.1 3 1
02/28/06 12:26 a -18.1 -18.1 -18.1 --- --- 17.4 ENE 0.29 23.5 -30.4 --- --- 732.9 0.025 0.000 19.1 3 1
02/28/06 12:27 a -18.1 -18.1 -18.1 --- --- 18.3 ENE 0.30 21.7 -30.6 --- --- 732.9 0.025 0.000 19.1 2 1
02/28/06 12:28 a -18.1 -18.1 -18.1 --- --- 20.0 ENE 0.33 24.3 -31.1 --- --- 733.0 0.025 0.000 19.1 3 1
02/28/06 12:29 a -18.1 -18.1 -18.1 --- --- 15.7 ENE 0.26 20.0 -29.8 --- --- 733.1 0.025 0.000 19.1 2 1
02/28/06 12:30 a -18.1 -18.1 -18.1 --- --- 18.3 ENE 0.30 21.7 -30.6 --- --- 732.9 0.025 0.000 19.1 3 1
02/28/06 12:31 a -18.1 -18.1 -18.1 --- --- 17.4 ENE 0.29 20.0 -30.3 --- --- 733.0 0.025 0.000 19.1 3 1
02/28/06 12:32 a -18.1 -18.1 -18.1 --- --- 20.9 ENE 0.35 24.3 -31.3 --- --- 732.8 0.025 0.000 19.1 3 1
02/28/06 12:33 a -18.1 -18.1 -18.1 --- --- 16.5 ENE 0.28 20.9 -30.1 --- --- 733.1 0.025 0.000 19.1 2 1
02/28/06 12:34 a -18.1 -18.1 -18.1 --- --- 17.4 ENE 0.29 21.7 -30.3 --- --- 732.8 0.025 0.000 19.1 3 1
02/28/06 12:35 a -18.1 -18.1 -18.1 --- --- 17.4 ENE 0.29 20.9 -30.3 --- --- 733.0 0.025 0.000 19.1 2 1
02/28/06 12:36 a -18.1 -18.1 -18.1 --- --- 20.0 ENE 0.33 21.7 -31.1 --- --- 732.9 0.025 0.000 19.1 2 1
02/28/06 12:37 a -18.1 -18.1 -18.1 --- --- 17.4 ENE 0.29 19.1 -30.3 --- --- 732.9 0.025 0.000 19.1 3 1
02/28/06 12:38 a -18.1 -18.1 -18.1 --- --- 17.4 ENE 0.29 20.0 -30.3 --- --- 732.9 0.025 0.000 19.1 2 1
02/28/06 12:39 a -18.1 -18.1 -18.1 --- --- 18.3 ENE 0.30 20.0 -30.6 --- --- 732.8 0.025 0.000 19.1 2 1
02/28/06 12:40 a -18.1 -18.1 -18.1 --- --- 18.3 ENE 0.30 21.7 -30.6 --- --- 732.9 0.025 0.000 19.1 3 1
02/28/06 12:41 a -18.1 -18.0 -18.1 --- --- 20.0 ENE 0.33 20.9 -31.1 --- --- 733.0 0.025 0.000 19.1 3 1
02/28/06 12:42 a -18.1 -18.0 -18.1 --- --- 18.3 ENE 0.30 20.9 -30.6 --- --- 733.0 0.025 0.000 19.1 2 1
02/28/06 12:43 a -18.1 -18.0 -18.1 --- --- 19.1 ENE 0.32 20.9 -30.8 --- --- 733.0 0.025 0.000 19.1 3 1
02/28/06 12:44 a -18.0 -18.0 -18.1 --- --- 17.4 ENE 0.29 19.1 -30.2 --- --- 733.0 0.025 0.000 19.1 3 1
02/28/06 12:45 a -18.0 -18.0 -18.0 --- --- 17.4 ENE 0.29 20.9 -30.2 --- --- 733.0 0.025 0.000 19.1 2 1
02/28/06 12:46 a -18.0 -18.0 -18.0 --- --- 17.4 ENE 0.29 20.0 -30.2 --- --- 732.9 0.025 0.000 19.1 3 1
02/28/06 12:47 a -18.0 -18.0 -18.0 --- --- 16.5 ENE 0.28 18.3 -29.9 --- --- 733.0 0.025 0.000 19.1 2 1
02/28/06 12:48 a -18.0 -18.0 -18.0 --- --- 17.4 ENE 0.29 18.3 -30.2 --- --- 732.9 0.025 0.000 19.1 3 1
02/28/06 12:49 a -18.0 -18.0 -18.0 --- --- 17.4 ENE 0.29 19.1 -30.2 --- --- 732.9 0.025 0.000 19.1 2 1
02/28/06 12:50 a -18.0 -18.0 -18.0 --- --- 17.4 ENE 0.29 19.1 -30.2 --- --- 732.9 0.025 0.000 19.1 2 1
02/28/06 12:51 a -18.0 -18.0 -18.0 --- --- 17.4 ENE 0.29 20.0 -30.2 --- --- 733.0 0.025 0.000 19.1 3 1
02/28/06 12:52 a -18.0 -18.0 -18.0 --- --- 17.4 ENE 0.29 20.0 -30.2 --- --- 732.8 0.025 0.000 19.1 3 1
02/28/06 12:53 a -18.0 -17.9 -18.0 --- --- 17.4 ENE 0.29 19.1 -30.2 --- --- 732.9 0.025 0.000 19.1 2 1
02/28/06 12:54 a -18.0 -18.0 -18.0 --- --- 14.8 ENE 0.25 17.4 -29.4 --- --- 732.9 0.025 0.000 19.1 3 1
02/28/06 12:55 a -18.0 -17.9 -18.0 --- --- 17.4 ENE 0.29 20.9 -30.2 --- --- 733.0 0.025 0.000 19.1 2 1
02/28/06 12:56 a -18.0 -17.9 -18.0 --- --- 16.5 ENE 0.28 18.3 -29.9 --- --- 732.9 0.025 0.000 19.1 2 1
02/28/06 12:57 a -17.9 -17.9 -17.9 --- --- 17.4 ENE 0.29 19.1 -30.2 --- --- 732.9 0.025 0.000 19.1 2 1
02/28/06 12:58 a -17.9 -17.9 -17.9 --- --- 14.8 ENE 0.25 16.5 -29.3 --- --- 733.0 0.025 0.000 19.1 3 1
02/28/06 12:59 a -17.9 -17.9 -17.9 --- --- 16.5 ENE 0.28 20.0 -29.9 --- --- 733.0 0.025 0.000 19.1 2 1
02/28/06 1:00 a -17.9 -17.9 -17.9 --- --- 17.4 ENE 0.29 19.1 -30.2 --- --- 732.9 0.025 0.000 19.1 3 1
02/28/06 1:01 a -17.9 -17.9 -18.0 --- --- 17.4 ENE 0.29 19.1 -30.2 --- --- 732.9 0.025 0.000 19.1 2 1
02/28/06 1:02 a -17.9 -17.9 -17.9 --- --- 16.5 ENE 0.28 20.9 -29.9 --- --- 732.8 0.025 0.000 19.1 2 1
02/28/06 1:03 a -17.9 -17.9 -17.9 --- --- 19.1 ENE 0.32 20.9 -30.7 --- --- 732.8 0.025 0.000 19.1 2 1
02/28/06 1:04 a -17.9 -17.9 -17.9 --- --- 17.4 ENE 0.29 20.0 -30.2 --- --- 732.8 0.025 0.000 19.1 3 1
02/28/06 1:05 a -17.9 -17.9 -17.9 --- --- 18.3 ENE 0.30 20.0 -30.4 --- --- 732.9 0.025 0.000 19.1 2 1
02/28/06 1:06 a -17.9 -17.9 -17.9 --- --- 17.4 ENE 0.29 19.1 -30.2 --- --- 732.8 0.025 0.000 19.1 2 1
02/28/06 1:07 a -17.9 -17.9 -17.9 --- --- 17.4 ENE 0.29 19.1 -30.2 --- --- 732.8 0.025 0.000 19.1 3 1
02/28/06 1:08 a -17.9 -17.9 -17.9 --- --- 15.7 ENE 0.26 20.0 -29.6 --- --- 732.9 0.025 0.000 19.1 2 1
02/28/06 1:09 a -17.9 -17.9 -17.9 --- --- 17.4 ENE 0.29 20.0 -30.2 --- --- 732.8 0.025 0.000 19.1 2 1
02/28/06 1:10 a -17.9 -17.9 -17.9 --- --- 18.3 ENE 0.30 19.1 -30.3 --- --- 732.8 0.025 0.000 19.1 2 1
02/28/06 1:11 a -17.9 -17.9 -17.9 --- --- 15.7 ENE 0.26 18.3 -29.6 --- --- 732.9 0.025 0.000 19.1 2 1
02/28/06 1:12 a -17.9 -17.9 -17.9 --- --- 17.4 ENE 0.29 19.1 -30.1 --- --- 732.7 0.025 0.000 19.1 2 1
02/28/06 1:13 a -17.9 -17.9 -17.9 --- --- 18.3 ENE 0.30 21.7 -30.3 --- --- 732.7 0.025 0.000 19.1 3 1
02/28/06 1:14 a -17.9 -17.9 -17.9 --- --- 15.7 ENE 0.26 17.4 -29.6 --- --- 732.8 0.025 0.000 19.1 2 1
02/28/06 1:15 a -17.9 -17.9 -17.9 --- --- 19.1 ENE 0.32 20.9 -30.6 --- --- 732.7 0.025 0.000 19.1 2 1
02/28/06 1:16 a -17.9 -17.8 -17.9 --- --- 18.3 ENE 0.30 19.1 -30.3 --- --- 732.7 0.025 0.000 19.1 3 1
02/28/06 1:17 a -17.8 -17.8 -17.8 --- --- 17.4 ENE 0.29 19.1 -30.0 --- --- 732.6 0.025 0.000 19.1 3 1
02/28/06 1:18 a -17.8 -17.8 -17.9 --- --- 16.5 ENE 0.28 18.3 -29.8 --- --- 732.7 0.025 0.000 19.1 2 1
02/28/06 1:19 a -17.8 -17.8 -17.8 --- --- 17.4 ENE 0.29 20.0 -30.0 --- --- 732.7 0.025 0.000 19.1 3 1
02/28/06 1:20 a -17.8 -17.8 -17.8 --- --- 17.4 ENE 0.29 19.1 -30.0 --- --- 732.7 0.025 0.000 19.1 3 1
02/28/06 1:21 a -17.8 -17.8 -17.8 --- --- 19.1 ENE 0.32 20.9 -30.5 --- --- 732.6 0.025 0.000 19.1 3 1
02/28/06 1:22 a -17.8 -17.8 -17.8 --- --- 14.8 ENE 0.25 20.0 -29.2 --- --- 732.7 0.025 0.000 19.1 3 1
02/28/06 1:23 a -17.8 -17.8 -17.8 --- --- 18.3 ENE 0.30 20.9 -30.2 --- --- 732.6 0.025 0.000 19.1 3 1
02/28/06 1:24 a -17.8 -17.8 -17.8 --- --- 16.5 ENE 0.28 19.1 -29.7 --- --- 732.7 0.025 0.000 19.1 3 1
02/28/06 1:25 a -17.8 -17.8 -17.8 --- --- 17.4 ENE 0.29 19.1 -29.9 --- --- 732.6 0.025 0.000 19.1 2 1
02/28/06 1:26 a -17.8 -17.8 -17.8 --- --- 17.4 ENE 0.29 19.1 -29.9 --- --- 732.6 0.025 0.000 19.1 3 1
02/28/06 1:27 a -17.8 -17.8 -17.8 --- --- 19.1 ENE 0.32 20.9 -30.4 --- --- 732.6 0.025 0.000 19.1 2 1
02/28/06 1:28 a -17.8 -17.8 -17.8 --- --- 17.4 ENE 0.29 20.0 -29.9 --- --- 732.6 0.025 0.000 19.1 2 1
02/28/06 1:29 a -17.8 -17.8 -17.8 --- --- 18.3 ENE 0.30 20.0 -30.2 --- --- 732.6 0.025 0.000 19.1 3 1
02/28/06 1:30 a -17.8 -17.8 -17.8 --- --- 18.3 ENE 0.30 20.0 -30.2 --- --- 732.6 0.025 0.000 19.1 2 1
02/28/06 1:31 a -17.8 -17.8 -17.8 --- --- 18.3 ENE 0.30 20.0 -30.2 --- --- 732.6 0.025 0.000 19.1 3 1
02/28/06 1:32 a -17.8 -17.8 -17.8 --- --- 18.3 ENE 0.30 20.0 -30.2 --- --- 732.6 0.025 0.000 19.1 3 1
02/28/06 1:33 a -17.8 -17.8 -17.8 --- --- 20.0 ENE 0.33 20.9 -30.7 --- --- 732.6 0.025 0.000 19.1 3 1
02/28/06 1:34 a -17.8 -17.8 -17.8 --- --- 17.4 ENE 0.29 19.1 -29.9 --- --- 732.6 0.025 0.000 19.1 2 1
02/28/06 1:35 a -17.8 -17.8 -17.8 --- --- 16.5 ENE 0.28 20.0 -29.7 --- --- 732.6 0.025 0.000 19.1 2 1
02/28/06 1:36 a -17.8 -17.7 -17.8 --- --- 18.3 ENE 0.30 20.0 -30.2 --- --- 732.5 0.025 0.000 19.1 3 1
02/28/06 1:37 a -17.8 -17.8 -17.8 --- --- 18.3 ENE 0.30 20.9 -30.2 --- --- 732.6 0.025 0.000 19.1 2 1
02/28/06 1:38 a -17.8 -17.8 -17.8 --- --- 18.3 ENE 0.30 20.9 -30.2 --- --- 732.6 0.025 0.000 19.1 3 1
02/28/06 1:39 a -17.8 -17.8 -17.8 --- --- 18.3 ENE 0.30 20.0 -30.2 --- --- 732.6 0.025 0.000 19.1 2 1
02/28/06 1:40 a -17.8 -17.8 -17.8 --- --- 19.1 ENE 0.32 20.9 -30.4 --- --- 732.6 0.025 0.000 19.2 2 1
02/28/06 1:41 a -17.8 -17.8 -17.8 --- --- 18.3 ENE 0.30 19.1 -30.2 --- --- 732.5 0.025 0.000 19.2 2 1
02/28/06 1:42 a -17.8 -17.8 -17.8 --- --- 18.3 ENE 0.30 20.0 -30.2 --- --- 732.6 0.025 0.000 19.1 2 1
02/28/06 1:43 a -17.8 -17.8 -17.8 --- --- 17.4 ENE 0.29 20.0 -29.9 --- --- 732.5 0.025 0.000 19.2 2 1
02/28/06 1:44 a -17.8 -17.8 -17.8 --- --- 18.3 ENE 0.30 20.9 -30.2 --- --- 732.5 0.025 0.000 19.2 2 1
02/28/06 1:45 a -17.8 -17.8 -17.8 --- --- 19.1 ENE 0.32 21.7 -30.4 --- --- 732.5 0.025 0.000 19.1 3 1
02/28/06 1:46 a -17.8 -17.8 -17.8 --- --- 18.3 ENE 0.30 20.9 -30.2 --- --- 732.5 0.025 0.000 19.1 2 1
02/28/06 1:47 a -17.8 -17.8 -17.8 --- --- 19.1 ENE 0.32 20.9 -30.4 --- --- 732.6 0.025 0.000 19.1 2 1
02/28/06 1:48 a -17.8 -17.8 -17.8 --- --- 18.3 ENE 0.30 20.0 -30.3 --- --- 732.4 0.025 0.000 19.1 2 1
02/28/06 1:49 a -17.8 -17.8 -17.8 --- --- 18.3 ENE 0.30 20.0 -30.3 --- --- 732.5 0.025 0.000 19.1 3 1
02/28/06 1:50 a -17.8 -17.8 -17.8 --- --- 19.1 ENE 0.32 20.0 -30.5 --- --- 732.4 0.025 0.000 19.1 2 1
02/28/06 1:51 a -17.9 -17.9 -17.9 --- --- 17.4 ENE 0.29 19.1 -30.1 --- --- 732.5 0.025 0.000 19.1 3 1
02/28/06 1:52 a -17.8 -17.8 -17.9 --- --- 18.3 ENE 0.30 20.0 -30.3 --- --- 732.5 0.025 0.000 19.1 2 1
02/28/06 1:53 a -17.8 -17.8 -17.8 --- --- 20.0 ENE 0.33 20.9 -30.7 --- --- 732.5 0.025 0.000 19.1 2 1
02/28/06 1:54 a -17.8 -17.8 -17.9 --- --- 19.1 ENE 0.32 22.6 -30.5 --- --- 732.6 0.025 0.000 19.1 3 1
02/28/06 1:55 a -17.9 -17.9 -17.9 --- --- 18.3 ENE 0.30 20.0 -30.3 --- --- 732.5 0.025 0.000 19.1 3 1
02/28/06 1:56 a -17.9 -17.9 -17.9 --- --- 17.4 ENE 0.29 19.1 -30.1 --- --- 732.5 0.025 0.000 19.1 3 1
02/28/06 1:57 a -17.9 -17.9 -17.9 --- --- 19.1 ENE 0.32 20.0 -30.6 --- --- 732.5 0.025 0.000 19.1 3 1
02/28/06 1:58 a -17.9 -17.9 -17.9 --- --- 17.4 ENE 0.29 20.0 -30.1 --- --- 732.5 0.025 0.000 19.1 3 1
02/28/06 1:59 a -17.9 -17.9 -17.9 --- --- 16.5 ENE 0.28 19.1 -29.9 --- --- 732.5 0.025 0.000 19.1 3 1
02/28/06 2:00 a -17.9 -17.9 -17.9 --- --- 18.3 ENE 0.30 20.0 -30.4 --- --- 732.4 0.025 0.000 19.1 2 1
02/28/06 2:01 a -17.9 -17.9 -17.9 --- --- 18.3 ENE 0.30 19.1 -30.4 --- --- 732.5 0.025 0.000 19.1 2 1
02/28/06 2:02 a -17.9 -17.9 -17.9 --- --- 17.4 ENE 0.29 19.1 -30.2 --- --- 732.6 0.025 0.000 19.1 3 1
02/28/06 2:03 a -17.9 -17.9 -17.9 --- --- 18.3 ENE 0.30 19.1 -30.4 --- --- 732.5 0.025 0.000 19.1 3 1
02/28/06 2:04 a -17.9 -17.9 -17.9 --- --- 17.4 NE 0.29 19.1 -30.2 --- --- 732.6 0.025 0.000 19.1 2 1
02/28/06 2:05 a -18.0 -17.9 -18.0 --- --- 16.5 NE 0.28 18.3 -29.9 --- --- 732.5 0.025 0.000 19.1 3 1
02/28/06 2:06 a -18.0 -18.0 -18.0 --- --- 16.5 NE 0.28 17.4 -29.9 --- --- 732.6 0.025 0.000 19.1 2 1
02/28/06 2:07 a -18.0 -18.0 -18.0 --- --- 16.5 NE 0.28 17.4 -29.9 --- --- 732.6 0.025 0.000 19.1 2 1
02/28/06 2:08 a -18.0 -18.0 -18.0 --- --- 17.4 ENE 0.29 20.0 -30.2 --- --- 732.5 0.025 0.000 19.1 2 1
02/28/06 2:09 a -18.0 -18.0 -18.1 --- --- 20.0 ENE 0.33 20.9 -30.9 --- --- 732.4 0.025 0.000 19.1 3 1
02/28/06 2:10 a -18.1 -18.0 -18.1 --- --- 17.4 NE 0.29 19.1 -30.3 --- --- 732.5 0.025 0.000 19.1 2 1
02/28/06 2:11 a -18.0 -18.0 -18.1 --- --- 18.3 ENE 0.30 20.0 -30.5 --- --- 732.5 0.025 0.000 19.1 2 1
02/28/06 2:12 a -18.1 -18.1 -18.1 --- --- 14.8 NE 0.25 15.7 -29.5 --- --- 732.5 0.025 0.000 19.1 3 1
02/28/06 2:13 a -18.1 -18.1 -18.1 --- --- 16.5 NE 0.28 18.3 -30.1 --- --- 732.5 0.025 0.000 19.1 3 1
02/28/06 2:14 a -18.1 -18.1 -18.1 --- --- 16.5 NE 0.28 19.1 -30.1 --- --- 732.4 0.025 0.000 19.1 3 1
02/28/06 2:15 a -18.1 -18.1 -18.1 --- --- 15.7 NE 0.26 19.1 -29.8 --- --- 732.4 0.025 0.000 19.1 2 1
02/28/06 2:16 a -18.1 -18.1 -18.1 --- --- 17.4 ENE 0.29 18.3 -30.3 --- --- 732.4 0.025 0.000 19.1 2 1
02/28/06 2:17 a -18.1 -18.1 -18.1 --- --- 18.3 NE 0.30 19.1 -30.6 --- --- 732.4 0.025 0.000 19.1 2 1
02/28/06 2:18 a -18.1 -18.1 -18.1 --- --- 16.5 ENE 0.28 18.3 -30.1 --- --- 732.4 0.025 0.000 19.1 2 1
02/28/06 2:19 a -18.1 -18.1 -18.1 --- --- 18.3 ENE 0.30 19.1 -30.6 --- --- 732.4 0.025 0.000 19.1 3 1
02/28/06 2:20 a -18.1 -18.1 -18.1 --- --- 15.7 NE 0.26 19.1 -29.8 --- --- 732.5 0.025 0.000 19.1 2 1
02/28/06 2:21 a -18.1 -18.1 -18.1 --- --- 15.7 NE 0.26 17.4 -29.8 --- --- 732.4 0.025 0.000 19.1 3 1
02/28/06 2:22 a -18.1 -18.1 -18.1 --- --- 16.5 NE 0.28 18.3 -30.1 --- --- 732.4 0.025 0.000 19.1 3 1
02/28/06 2:23 a -18.1 -18.1 -18.1 --- --- 16.5 NE 0.28 19.1 -30.1 --- --- 732.4 0.025 0.000 19.1 3 1
02/28/06 2:24 a -18.1 -18.1 -18.1 --- --- 16.5 NE 0.28 18.3 -30.1 --- --- 732.4 0.025 0.000 19.1 3 1
02/28/06 2:25 a -18.1 -18.1 -18.2 --- --- 13.9 NE 0.23 16.5 -29.2 --- --- 732.3 0.025 0.000 19.1 3 1
02/28/06 2:26 a -18.1 -18.1 -18.1 --- --- 15.7 NE 0.26 16.5 -29.8 --- --- 732.4 0.025 0.000 19.1 3 1
02/28/06 2:27 a -18.2 -18.2 -18.2 --- --- 14.8 NE 0.25 17.4 -29.6 --- --- 732.4 0.025 0.000 19.1 3 1
02/28/06 2:28 a -18.2 -18.1 -18.2 --- --- 14.8 NE 0.25 17.4 -29.6 --- --- 732.3 0.025 0.000 19.1 3 1
02/28/06 2:29 a -18.2 -18.2 -18.2 --- --- 16.5 ENE 0.28 18.3 -30.2 --- --- 732.3 0.025 0.000 19.1 3 1
02/28/06 2:30 a -18.2 -18.2 -18.2 --- --- 15.7 ENE 0.26 17.4 -29.9 --- --- 732.3 0.025 0.000 19.1 2 1
02/28/06 2:31 a -18.2 -18.2 -18.2 --- --- 17.4 NE 0.29 18.3 -30.4 --- --- 732.3 0.025 0.000 19.1 3 1
02/28/06 2:32 a -18.2 -18.2 -18.2 --- --- 15.7 NE 0.26 18.3 -29.9 --- --- 732.3 0.025 0.000 19.2 2 1
02/28/06 2:33 a -18.2 -18.2 -18.2 --- --- 16.5 NE 0.28 19.1 -30.2 --- --- 732.4 0.025 0.000 19.1 3 1
02/28/06 2:34 a -18.2 -18.2 -18.2 --- --- 16.5 NE 0.28 18.3 -30.2 --- --- 732.3 0.025 0.000 19.2 2 1
02/28/06 2:35 a -18.2 -18.2 -18.2 --- --- 15.7 NE 0.26 16.5 -29.9 --- --- 732.4 0.025 0.000 19.1 3 1
02/28/06 2:36 a -18.2 -18.2 -18.2 --- --- 16.5 NE 0.28 18.3 -30.3 --- --- 732.3 0.025 0.000 19.1 3 1
02/28/06 2:37 a -18.2 -18.2 -18.2 --- --- 15.7 NE 0.26 18.3 -30.0 --- --- 732.2 0.025 0.000 19.2 2 1
02/28/06 2:38 a -18.2 -18.2 -18.2 --- --- 16.5 NE 0.28 18.3 -30.3 --- --- 732.3 0.025 0.000 19.2 2 1
02/28/06 2:39 a -18.2 -18.2 -18.2 --- --- 15.7 NE 0.26 19.1 -30.0 --- --- 732.3 0.025 0.000 19.2 2 1
02/28/06 2:40 a -18.2 -18.2 -18.3 --- --- 15.7 NE 0.26 20.0 -30.0 --- --- 732.3 0.025 0.000 19.2 2 1
02/28/06 2:41 a -18.3 -18.2 -18.3 --- --- 16.5 NE 0.28 19.1 -30.3 --- --- 732.3 0.025 0.000 19.2 2 1
02/28/06 2:42 a -18.3 -18.3 -18.3 --- --- 16.5 NE 0.28 18.3 -30.3 --- --- 732.3 0.025 0.000 19.2 3 1
02/28/06 2:43 a -18.3 -18.3 -18.3 --- --- 16.5 NE 0.28 19.1 -30.3 --- --- 732.3 0.025 0.000 19.2 3 1
02/28/06 2:44 a -18.3 -18.3 -18.3 --- --- 16.5 ENE 0.28 18.3 -30.3 --- --- 732.3 0.025 0.000 19.2 2 1
02/28/06 2:45 a -18.3 -18.3 -18.3 --- --- 17.4 ENE 0.29 19.1 -30.6 --- --- 732.3 0.025 0.000 19.2 2 1
02/28/06 2:46 a -18.3 -18.3 -18.3 --- --- 16.5 ENE 0.28 19.1 -30.3 --- --- 732.3 0.025 0.000 19.2 3 1
02/28/06 2:47 a -18.3 -18.3 -18.3 --- --- 17.4 ENE 0.29 19.1 -30.6 --- --- 732.3 0.025 0.000 19.2 2 1
02/28/06 2:48 a -18.3 -18.3 -18.3 --- --- 18.3 ENE 0.30 20.9 -30.9 --- --- 732.2 0.025 0.000 19.1 3 1
02/28/06 2:49 a -18.3 -18.3 -18.3 --- --- 17.4 ENE 0.29 20.0 -30.7 --- --- 732.4 0.025 0.000 19.1 2 1
02/28/06 2:50 a -18.3 -18.3 -18.3 --- --- 15.7 ENE 0.26 19.1 -30.1 --- --- 732.3 0.025 0.000 19.1 3 1
02/28/06 2:51 a -18.3 -18.3 -18.3 --- --- 17.4 ENE 0.29 19.1 -30.7 --- --- 732.2 0.025 0.000 19.1 3 1
02/28/06 2:52 a -18.3 -18.3 -18.3 --- --- 18.3 ENE 0.30 19.1 -30.9 --- --- 732.2 0.025 0.000 19.1 3 1
02/28/06 2:53 a -18.3 -18.3 -18.4 --- --- 17.4 NE 0.29 19.1 -30.7 --- --- 732.3 0.025 0.000 19.1 2 1
02/28/06 2:54 a -18.4 -18.4 -18.4 --- --- 17.4 NE 0.29 19.1 -30.7 --- --- 732.2 0.026 0.000 19.1 2 1
02/28/06 2:55 a -18.4 -18.4 -18.4 --- --- 18.3 ENE 0.30 20.0 -31.0 --- --- 732.2 0.026 0.000 19.1 2 1
02/28/06 2:56 a -18.4 -18.4 -18.4 --- --- 16.5 ENE 0.28 18.3 -30.5 --- --- 732.3 0.026 0.000 19.1 3 1
02/28/06 2:57 a -18.4 -18.4 -18.4 --- --- 18.3 ENE 0.30 20.0 -31.0 --- --- 732.2 0.026 0.000 19.1 3 1
02/28/06 2:58 a -18.4 -18.4 -18.4 --- --- 16.5 ENE 0.28 19.1 -30.5 --- --- 732.1 0.026 0.000 19.1 3 1
02/28/06 2:59 a -18.4 -18.4 -18.4 --- --- 16.5 NE 0.28 18.3 -30.5 --- --- 732.2 0.026 0.000 19.1 3 1
02/28/06 3:00 a -18.4 -18.4 -18.4 --- --- 18.3 ENE 0.30 19.1 -31.0 --- --- 732.2 0.026 0.000 19.1 2 1
02/28/06 3:01 a -18.4 -18.4 -18.4 --- --- 14.8 NE 0.25 16.5 -29.9 --- --- 732.2 0.026 0.000 19.1 3 1
02/28/06 3:02 a -18.4 -18.4 -18.4 --- --- 16.5 NE 0.28 19.1 -30.6 --- --- 732.1 0.026 0.000 19.1 2 1
02/28/06 3:03 a -18.4 -18.4 -18.4 --- --- 16.5 NE 0.28 19.1 -30.6 --- --- 732.3 0.026 0.000 19.1 2 1
02/28/06 3:04 a -18.4 -18.4 -18.4 --- --- 15.7 NE 0.26 18.3 -30.3 --- --- 732.3 0.026 0.000 19.1 2 1
02/28/06 3:05 a -18.4 -18.4 -18.4 --- --- 16.5 ENE 0.28 18.3 -30.6 --- --- 732.2 0.026 0.000 19.1 2 1
02/28/06 3:06 a -18.4 -18.4 -18.4 --- --- 17.4 NE 0.29 18.3 -30.8 --- --- 732.1 0.026 0.000 19.1 3 1
02/28/06 3:07 a -18.4 -18.4 -18.4 --- --- 13.9 NE 0.23 17.4 -29.7 --- --- 732.2 0.026 0.000 19.1 2 1
02/28/06 3:08 a -18.4 -18.4 -18.4 --- --- 14.8 NE 0.25 17.4 -30.0 --- --- 732.1 0.026 0.000 19.1 2 1
02/28/06 3:09 a -18.4 -18.4 -18.5 --- --- 13.9 NE 0.23 16.5 -29.7 --- --- 732.1 0.026 0.000 19.1 3 1
02/28/06 3:10 a -18.4 -18.4 -18.4 --- --- 15.7 NE 0.26 17.4 -30.3 --- --- 732.1 0.026 0.000 19.1 3 1
02/28/06 3:11 a -18.4 -18.4 -18.4 --- --- 15.7 NE 0.26 17.4 -30.3 --- --- 732.1 0.026 0.000 19.1 2 1
02/28/06 3:12 a -18.5 -18.4 -18.5 --- --- 13.9 NE 0.23 16.5 -29.7 --- --- 732.1 0.026 0.000 19.1 2 1
02/28/06 3:13 a -18.5 -18.5 -18.5 --- --- 15.7 NE 0.26 17.4 -30.3 --- --- 732.0 0.026 0.000 19.1 3 1
02/28/06 3:14 a -18.5 -18.5 -18.5 --- --- 15.7 NE 0.26 17.4 -30.3 --- --- 732.1 0.026 0.000 19.1 2 1
02/28/06 3:15 a -18.5 -18.4 -18.5 --- --- 13.0 NE 0.22 16.5 -29.4 --- --- 732.1 0.026 0.000 19.1 3 1
02/28/06 3:16 a -18.5 -18.5 -18.5 --- --- 14.8 NE 0.25 18.3 -30.1 --- --- 732.2 0.026 0.000 19.1 2 1
02/28/06 3:17 a -18.5 -18.5 -18.5 --- --- 13.0 NE 0.22 15.7 -29.4 --- --- 732.1 0.026 0.000 19.1 2 1
02/28/06 3:18 a -18.5 -18.5 -18.5 --- --- 16.5 NE 0.28 19.1 -30.6 --- --- 732.0 0.026 0.000 19.1 3 1
02/28/06 3:19 a -18.5 -18.5 -18.5 --- --- 14.8 NE 0.25 17.4 -30.1 --- --- 732.0 0.026 0.000 19.1 3 1
02/28/06 3:20 a -18.5 -18.5 -18.5 --- --- 16.5 NE 0.28 18.3 -30.6 --- --- 732.2 0.026 0.000 19.1 2 1
02/28/06 3:21 a -18.5 -18.5 -18.5 --- --- 14.8 NE 0.25 17.4 -30.1 --- --- 732.1 0.026 0.000 19.1 2 1
02/28/06 3:22 a -18.5 -18.5 -18.5 --- --- 13.0 NNE 0.22 14.8 -29.4 --- --- 732.2 0.026 0.000 19.1 3 1
02/28/06 3:23 a -18.4 -18.4 -18.5 --- --- 13.9 NE 0.23 15.7 -29.7 --- --- 732.2 0.026 0.000 19.2 2 1
02/28/06 3:24 a -18.5 -18.5 -18.5 --- --- 13.0 NE 0.22 14.8 -29.4 --- --- 732.1 0.026 0.000 19.1 3 1
02/28/06 3:25 a -18.5 -18.4 -18.5 --- --- 14.8 NE 0.25 16.5 -30.1 --- --- 732.1 0.026 0.000 19.2 3 1
02/28/06 3:26 a -18.5 -18.4 -18.5 --- --- 15.7 NE 0.26 16.5 -30.3 --- --- 732.1 0.026 0.000 19.2 3 1
02/28/06 3:27 a -18.5 -18.5 -18.5 --- --- 11.3 NE 0.19 14.8 -28.7 --- --- 732.1 0.026 0.000 19.2 3 1
02/28/06 3:28 a -18.5 -18.4 -18.5 --- --- 14.8 NE 0.25 16.5 -30.1 --- --- 732.1 0.026 0.000 19.2 3 1
02/28/06 3:29 a -18.4 -18.4 -18.5 --- --- 13.0 NE 0.22 15.7 -29.3 --- --- 732.0 0.026 0.000 19.2 2 1
02/28/06 3:30 a -18.5 -18.5 -18.5 --- --- 14.8 NE 0.25 16.5 -30.1 --- --- 732.1 0.026 0.000 19.2 3 1
02/28/06 3:31 a -18.4 -18.4 -18.5 --- --- 13.9 NE 0.23 14.8 -29.7 --- --- 732.0 0.026 0.000 19.2 3 1
02/28/06 3:32 a -18.4 -18.4 -18.4 --- --- 13.9 NE 0.23 14.8 -29.7 --- --- 732.0 0.026 0.000 19.2 3 1
02/28/06 3:33 a -18.4 -18.4 -18.4 --- --- 14.8 ENE 0.25 16.5 -30.0 --- --- 732.1 0.026 0.000 19.2 2 1
02/28/06 3:34 a -18.4 -18.4 -18.5 --- --- 13.9 ENE 0.23 17.4 -29.7 --- --- 732.0 0.026 0.000 19.2 3 1
02/28/06 3:35 a -18.4 -18.4 -18.4 --- --- 15.7 ENE 0.26 16.5 -30.3 --- --- 732.0 0.026 0.000 19.2 3 1
02/28/06 3:36 a -18.4 -18.4 -18.4 --- --- 14.8 ENE 0.25 16.5 -30.0 --- --- 732.0 0.026 0.000 19.2 3 1
02/28/06 3:37 a -18.4 -18.4 -18.4 --- --- 14.8 ENE 0.25 16.5 -30.0 --- --- 731.9 0.026 0.000 19.2 3 1
02/28/06 3:38 a -18.4 -18.4 -18.4 --- --- 14.8 ENE 0.25 16.5 -30.0 --- --- 732.0 0.026 0.000 19.2 3 1
02/28/06 3:39 a -18.4 -18.4 -18.4 --- --- 14.8 ENE 0.25 16.5 -30.0 --- --- 731.9 0.026 0.000 19.2 3 1
02/28/06 3:40 a -18.4 -18.4 -18.4 --- --- 15.7 ENE 0.26 16.5 -30.2 --- --- 731.9 0.026 0.000 19.2 2 1
02/28/06 3:41 a -18.4 -18.4 -18.4 --- --- 15.7 ENE 0.26 16.5 -30.2 --- --- 731.9 0.026 0.000 19.2 3 1
02/28/06 3:42 a -18.4 -18.4 -18.4 --- --- 14.8 NE 0.25 16.5 -29.9 --- --- 731.8 0.026 0.000 19.2 2 1
02/28/06 3:43 a -18.4 -18.4 -18.4 --- --- 14.8 ENE 0.25 17.4 -29.9 --- --- 731.9 0.026 0.000 19.2 3 1
02/28/06 3:44 a -18.4 -18.4 -18.4 --- --- 15.7 ENE 0.26 17.4 -30.2 --- --- 731.9 0.026 0.000 19.2 3 1
02/28/06 3:45 a -18.4 -18.4 -18.4 --- --- 15.7 ENE 0.26 17.4 -30.2 --- --- 731.9 0.026 0.000 19.2 3 1
02/28/06 3:46 a -18.4 -18.4 -18.4 --- --- 14.8 ENE 0.25 16.5 -29.9 --- --- 731.9 0.026 0.000 19.2 2 1
02/28/06 3:47 a -18.4 -18.4 -18.4 --- --- 15.7 ENE 0.26 16.5 -30.2 --- --- 731.9 0.026 0.000 19.2 2 1
02/28/06 3:48 a -18.4 -18.4 -18.4 --- --- 14.8 ENE 0.25 15.7 -29.9 --- --- 731.9 0.026 0.000 19.1 3 1
02/28/06 3:49 a -18.4 -18.4 -18.4 --- --- 15.7 ENE 0.26 18.3 -30.2 --- --- 731.9 0.026 0.000 19.1 2 1
02/28/06 3:50 a -18.3 -18.3 -18.3 --- --- 16.5 ENE 0.28 17.4 -30.4 --- --- 731.9 0.025 0.000 19.1 2 1
02/28/06 3:51 a -18.3 -18.3 -18.4 --- --- 13.9 ENE 0.23 17.4 -29.6 --- --- 731.9 0.025 0.000 19.1 3 1
02/28/06 3:52 a -18.3 -18.3 -18.3 --- --- 15.7 ENE 0.26 17.4 -30.1 --- --- 731.8 0.025 0.000 19.1 2 1
02/28/06 3:53 a -18.3 -18.3 -18.3 --- --- 13.9 ENE 0.23 15.7 -29.6 --- --- 731.8 0.025 0.000 19.1 2 1
02/28/06 3:54 a -18.3 -18.3 -18.3 --- --- 15.7 ENE 0.26 16.5 -30.1 --- --- 731.9 0.025 0.000 19.1 2 1
02/28/06 3:55 a -18.3 -18.3 -18.3 --- --- 15.7 ENE 0.26 16.5 -30.1 --- --- 731.9 0.025 0.000 19.1 2 1
02/28/06 3:56 a -18.3 -18.3 -18.3 --- --- 15.7 ENE 0.26 17.4 -30.1 --- --- 731.9 0.025 0.000 19.1 2 1
02/28/06 3:57 a -18.3 -18.3 -18.3 --- --- 15.7 ENE 0.26 16.5 -30.1 --- --- 731.8 0.025 0.000 19.1 3 1
02/28/06 3:58 a -18.3 -18.3 -18.3 --- --- 16.5 NE 0.28 17.4 -30.4 --- --- 731.9 0.025 0.000 19.1 2 1
02/28/06 3:59 a -18.3 -18.3 -18.3 --- --- 15.7 ENE 0.26 18.3 -30.1 --- --- 731.9 0.025 0.000 19.1 2 1
02/28/06 4:00 a -18.3 -18.3 -18.3 --- --- 15.7 ENE 0.26 18.3 -30.1 --- --- 731.8 0.025 0.000 19.1 3 1
02/28/06 4:01 a -18.3 -18.3 -18.3 --- --- 14.8 ENE 0.25 17.4 -29.8 --- --- 731.9 0.025 0.000 19.1 2 1
02/28/06 4:02 a -18.3 -18.3 -18.3 --- --- 14.8 NE 0.25 16.5 -29.8 --- --- 732.0 0.025 0.000 19.1 2 1
02/28/06 4:03 a -18.3 -18.3 -18.3 --- --- 13.9 ENE 0.23 15.7 -29.4 --- --- 731.8 0.025 0.000 19.1 2 1
02/28/06 4:04 a -18.3 -18.3 -18.3 --- --- 14.8 ENE 0.25 15.7 -29.8 --- --- 731.9 0.025 0.000 19.1 2 1
02/28/06 4:05 a -18.3 -18.3 -18.3 --- --- 15.7 ENE 0.26 17.4 -30.1 --- --- 731.8 0.025 0.000 19.1 2 1
02/28/06 4:06 a -18.3 -18.3 -18.3 --- --- 13.9 ENE 0.23 17.4 -29.4 --- --- 731.8 0.025 0.000 19.1 2 1
02/28/06 4:07 a -18.3 -18.3 -18.3 --- --- 14.8 ENE 0.25 17.4 -29.8 --- --- 731.8 0.025 0.000 19.1 3 1
02/28/06 4:08 a -18.3 -18.3 -18.3 --- --- 13.9 ENE 0.23 16.5 -29.4 --- --- 731.8 0.025 0.000 19.1 2 1
02/28/06 4:09 a -18.3 -18.3 -18.3 --- --- 15.7 ENE 0.26 17.4 -30.1 --- --- 731.7 0.025 0.000 19.1 3 1
02/28/06 4:10 a -18.3 -18.3 -18.3 --- --- 13.9 ENE 0.23 15.7 -29.4 --- --- 731.7 0.025 0.000 19.1 2 1
02/28/06 4:11 a -18.3 -18.3 -18.3 --- --- 13.9 ENE 0.23 16.5 -29.4 --- --- 731.7 0.025 0.000 19.1 3 1
02/28/06 4:12 a -18.3 -18.3 -18.3 --- --- 14.8 ENE 0.25 19.1 -29.8 --- --- 731.7 0.025 0.000 19.1 2 1
02/28/06 4:13 a -18.3 -18.3 -18.3 --- --- 14.8 ENE 0.25 15.7 -29.8 --- --- 731.7 0.025 0.000 19.1 3 1
02/28/06 4:14 a -18.3 -18.3 -18.3 --- --- 15.7 ENE 0.26 17.4 -30.1 --- --- 731.7 0.025 0.000 19.1 2 1
02/28/06 4:15 a -18.3 -18.3 -18.3 --- --- 14.8 ENE 0.25 16.5 -29.8 --- --- 731.8 0.025 0.000 19.2 2 1
02/28/06 4:16 a -18.3 -18.3 -18.3 --- --- 14.8 ENE 0.25 16.5 -29.8 --- --- 731.7 0.025 0.000 19.2 2 1
02/28/06 4:17 a -18.3 -18.3 -18.3 --- --- 15.7 ENE 0.26 17.4 -30.1 --- --- 731.7 0.025 0.000 19.2 2 1
02/28/06 4:18 a -18.3 -18.3 -18.3 --- --- 13.9 ENE 0.23 16.5 -29.4 --- --- 731.7 0.025 0.000 19.2 2 1
02/28/06 4:19 a -18.3 -18.3 -18.3 --- --- 14.8 ENE 0.25 16.5 -29.8 --- --- 731.6 0.025 0.000 19.2 3 1
02/28/06 4:20 a -18.3 -18.3 -18.3 --- --- 13.0 ENE 0.22 14.8 -29.2 --- --- 731.7 0.025 0.000 19.2 2 1
02/28/06 4:21 a -18.3 -18.3 -18.3 --- --- 13.9 ENE 0.23 17.4 -29.4 --- --- 731.6 0.025 0.000 19.2 3 1
02/28/06 4:22 a -18.3 -18.3 -18.3 --- --- 13.0 ENE 0.22 14.8 -29.2 --- --- 731.7 0.025 0.000 19.2 2 1
02/28/06 4:23 a -18.3 -18.2 -18.3 --- --- 13.9 ENE 0.23 16.5 -29.4 --- --- 731.7 0.025 0.000 19.2 2 1
02/28/06 4:24 a -18.2 -18.2 -18.2 --- --- 13.9 ENE 0.23 16.5 -29.4 --- --- 731.6 0.025 0.000 19.2 2 1
02/28/06 4:25 a -18.2 -18.2 -18.3 --- --- 14.8 ENE 0.25 17.4 -29.7 --- --- 731.7 0.025 0.000 19.2 2 1
02/28/06 4:26 a -18.2 -18.2 -18.2 --- --- 15.7 ENE 0.26 16.5 -30.0 --- --- 731.6 0.025 0.000 19.2 2 1
02/28/06 4:27 a -18.2 -18.2 -18.3 --- --- 17.4 ENE 0.29 19.1 -30.5 --- --- 731.6 0.025 0.000 19.2 3 1
02/28/06 4:28 a -18.2 -18.2 -18.2 --- --- 16.5 ENE 0.28 18.3 -30.3 --- --- 731.5 0.025 0.000 19.2 3 1
02/28/06 4:29 a -18.3 -18.2 -18.3 --- --- 16.5 ENE 0.28 18.3 -30.3 --- --- 731.6 0.025 0.000 19.2 2 1
02/28/06 4:30 a -18.2 -18.2 -18.3 --- --- 14.8 ENE 0.25 15.7 -29.7 --- --- 731.6 0.025 0.000 19.2 2 1
02/28/06 4:31 a -18.2 -18.2 -18.3 --- --- 13.0 ENE 0.22 15.7 -29.1 --- --- 731.6 0.025 0.000 19.2 3 1
02/28/06 4:32 a -18.2 -18.2 -18.2 --- --- 12.2 ENE 0.20 13.9 -28.7 --- --- 731.7 0.025 0.000 19.2 2 1
02/28/06 4:33 a -18.2 -18.2 -18.2 --- --- 13.9 ENE 0.23 17.4 -29.4 --- --- 731.5 0.025 0.000 19.2 2 1
02/28/06 4:34 a -18.2 -18.2 -18.2 --- --- 15.7 ENE 0.26 17.4 -30.0 --- --- 731.6 0.025 0.000 19.2 3 1
02/28/06 4:35 a -18.2 -18.2 -18.2 --- --- 15.7 ENE 0.26 17.4 -30.0 --- --- 731.6 0.025 0.000 19.2 2 1
02/28/06 4:36 a -18.2 -18.2 -18.2 --- --- 16.5 ENE 0.28 17.4 -30.3 --- --- 731.6 0.025 0.000 19.2 2 1
02/28/06 4:37 a -18.2 -18.2 -18.2 --- --- 15.7 ENE 0.26 16.5 -30.0 --- --- 731.6 0.025 0.000 19.2 2 1
02/28/06 4:38 a -18.3 -18.2 -18.3 --- --- 16.5 ENE 0.28 17.4 -30.3 --- --- 731.5 0.025 0.000 19.2 3 1
02/28/06 4:39 a -18.2 -18.2 -18.3 --- --- 15.7 ENE 0.26 18.3 -30.0 --- --- 731.6 0.025 0.000 19.2 2 1
02/28/06 4:40 a -18.2 -18.2 -18.3 --- --- 15.7 ENE 0.26 17.4 -30.0 --- --- 731.6 0.025 0.000 19.2 2 1
02/28/06 4:41 a -18.2 -18.2 -18.3 --- --- 14.8 ENE 0.25 17.4 -29.7 --- --- 731.6 0.025 0.000 19.2 3 1
02/28/06 4:42 a -18.2 -18.2 -18.3 --- --- 15.7 ENE 0.26 17.4 -30.0 --- --- 731.7 0.025 0.000 19.2 2 1
02/28/06 4:43 a -18.2 -18.2 -18.3 --- --- 14.8 ENE 0.25 17.4 -29.7 --- --- 731.6 0.025 0.000 19.2 2 1
02/28/06 4:44 a -18.2 -18.2 -18.3 --- --- 13.0 ENE 0.22 15.7 -29.1 --- --- 731.7 0.025 0.000 19.2 2 1
02/28/06 4:45 a -18.2 -18.2 -18.3 --- --- 13.9 ENE 0.23 14.8 -29.4 --- --- 731.7 0.025 0.000 19.2 2 1
02/28/06 4:46 a -18.3 -18.3 -18.3 --- --- 13.9 ENE 0.23 15.7 -29.4 --- --- 731.7 0.025 0.000 19.2 3 1
02/28/06 4:47 a -18.3 -18.3 -18.3 --- --- 13.9 ENE 0.23 16.5 -29.4 --- --- 731.7 0.025 0.000 19.2 2 1
02/28/06 4:48 a -18.3 -18.3 -18.3 --- --- 13.9 ENE 0.23 15.7 -29.4 --- --- 731.7 0.025 0.000 19.2 3 1
02/28/06 4:49 a -18.3 -18.3 -18.3 --- --- 14.8 ENE 0.25 16.5 -29.8 --- --- 731.6 0.025 0.000 19.1 2 1
02/28/06 4:50 a -18.3 -18.3 -18.3 --- --- 13.0 ENE 0.22 14.8 -29.2 --- --- 731.7 0.025 0.000 19.2 3 1
02/28/06 4:51 a -18.3 -18.3 -18.3 --- --- 12.2 ENE 0.20 13.9 -28.8 --- --- 731.6 0.025 0.000 19.1 3 1
02/28/06 4:52 a -18.3 -18.3 -18.3 --- --- 13.9 ENE 0.23 16.5 -29.4 --- --- 731.6 0.025 0.000 19.1 3 1
02/28/06 4:53 a -18.3 -18.3 -18.3 --- --- 13.9 ENE 0.23 15.7 -29.4 --- --- 731.6 0.025 0.000 19.1 2 1
02/28/06 4:54 a -18.3 -18.3 -18.3 --- --- 14.8 ENE 0.25 16.5 -29.8 --- --- 731.6 0.025 0.000 19.1 3 1
02/28/06 4:55 a -18.3 -18.3 -18.3 --- --- 13.0 ENE 0.22 14.8 -29.2 --- --- 731.5 0.025 0.000 19.1 3 1
02/28/06 4:56 a -18.3 -18.3 -18.3 --- --- 13.0 ENE 0.22 15.7 -29.2 --- --- 731.6 0.025 0.000 19.1 2 1
02/28/06 4:57 a -18.3 -18.3 -18.3 --- --- 13.9 ENE 0.23 14.8 -29.4 --- --- 731.6 0.025 0.000 19.1 2 1
02/28/06 4:58 a -18.3 -18.3 -18.3 --- --- 12.2 E 0.20 13.9 -28.8 --- --- 731.6 0.025 0.000 19.1 3 1
02/28/06 4:59 a -18.3 -18.3 -18.3 --- --- 12.2 E 0.20 14.8 -28.8 --- --- 731.6 0.025 0.000 19.1 3 1
02/28/06 5:00 a -18.3 -18.3 -18.3 --- --- 10.4 ENE 0.17 13.9 -28.1 --- --- 731.6 0.025 0.000 19.1 2 1
02/28/06 5:01 a -18.3 -18.3 -18.3 --- --- 11.3 E 0.19 13.0 -28.5 --- --- 731.6 0.025 0.000 19.1 3 1
02/28/06 5:02 a -18.3 -18.3 -18.3 --- --- 13.9 ENE 0.23 15.7 -29.6 --- --- 731.7 0.025 0.000 19.1 2 1
02/28/06 5:03 a -18.3 -18.3 -18.3 --- --- 13.0 ENE 0.22 14.8 -29.2 --- --- 731.6 0.025 0.000 19.1 2 1
02/28/06 5:04 a -18.3 -18.3 -18.3 --- --- 13.0 ENE 0.22 15.7 -29.2 --- --- 731.6 0.025 0.000 19.1 3 1
02/28/06 5:05 a -18.3 -18.3 -18.3 --- --- 12.2 ENE 0.20 13.9 -28.9 --- --- 731.6 0.025 0.000 19.1 2 1
02/28/06 5:06 a -18.3 -18.3 -18.3 --- --- 12.2 ENE 0.20 13.9 -28.9 --- --- 731.5 0.025 0.000 19.2 3 1
02/28/06 5:07 a -18.3 -18.3 -18.3 --- --- 13.0 ENE 0.22 14.8 -29.2 --- --- 731.6 0.025 0.000 19.2 3 1
02/28/06 5:08 a -18.3 -18.3 -18.3 --- --- 13.9 ENE 0.23 15.7 -29.6 --- --- 731.6 0.025 0.000 19.1 2 1
02/28/06 5:09 a -18.3 -18.3 -18.4 --- --- 14.8 ENE 0.25 15.7 -29.8 --- --- 731.6 0.025 0.000 19.1 2 1
02/28/06 5:10 a -18.3 -18.3 -18.3 --- --- 14.8 ENE 0.25 15.7 -29.8 --- --- 731.6 0.025 0.000 19.2 3 1
02/28/06 5:11 a -18.3 -18.3 -18.3 --- --- 13.9 ENE 0.23 14.8 -29.6 --- --- 731.6 0.025 0.000 19.2 3 1
02/28/06 5:12 a -18.3 -18.3 -18.4 --- --- 13.0 ENE 0.22 13.9 -29.2 --- --- 731.5 0.025 0.000 19.2 3 1
02/28/06 5:13 a -18.3 -18.3 -18.4 --- --- 12.2 ENE 0.20 13.9 -28.9 --- --- 731.6 0.025 0.000 19.2 3 1
02/28/06 5:14 a -18.3 -18.3 -18.4 --- --- 12.2 ENE 0.20 13.0 -28.9 --- --- 731.6 0.025 0.000 19.2 3 1
02/28/06 5:15 a -18.4 -18.3 -18.4 --- --- 12.2 ENE 0.20 13.9 -28.9 --- --- 731.6 0.026 0.000 19.2 2 1
02/28/06 5:16 a -18.4 -18.3 -18.4 --- --- 13.0 NE 0.22 13.9 -29.3 --- --- 731.6 0.026 0.000 19.2 3 1
02/28/06 5:17 a -18.3 -18.3 -18.4 --- --- 13.9 ENE 0.23 14.8 -29.6 --- --- 731.6 0.025 0.000 19.2 3 1
02/28/06 5:18 a -18.4 -18.4 -18.4 --- --- 13.0 ENE 0.22 14.8 -29.3 --- --- 731.6 0.026 0.000 19.2 3 1
02/28/06 5:19 a -18.4 -18.4 -18.4 --- --- 13.9 ENE 0.23 13.9 -29.6 --- --- 731.5 0.026 0.000 19.2 2 1
02/28/06 5:20 a -18.4 -18.4 -18.4 --- --- 13.0 ENE 0.22 14.8 -29.3 --- --- 731.6 0.026 0.000 19.2 3 1
02/28/06 5:21 a -18.4 -18.4 -18.4 --- --- 13.0 ENE 0.22 13.9 -29.3 --- --- 731.6 0.026 0.000 19.2 2 1
02/28/06 5:22 a -18.4 -18.4 -18.4 --- --- 13.9 NE 0.23 14.8 -29.6 --- --- 731.6 0.026 0.000 19.2 3 1
02/28/06 5:23 a -18.4 -18.4 -18.4 --- --- 13.9 NE 0.23 14.8 -29.6 --- --- 731.5 0.026 0.000 19.2 2 1
02/28/06 5:24 a -18.4 -18.4 -18.4 --- --- 13.0 ENE 0.22 13.9 -29.3 --- --- 731.6 0.026 0.000 19.2 2 1
02/28/06 5:25 a -18.4 -18.4 -18.4 --- --- 12.2 NE 0.20 13.0 -28.9 --- --- 731.5 0.026 0.000 19.2 3 1
02/28/06 5:26 a -18.4 -18.4 -18.4 --- --- 11.3 ENE 0.19 12.2 -28.6 --- --- 731.5 0.026 0.000 19.2 2 1
02/28/06 5:27 a -18.4 -18.4 -18.4 --- --- 10.4 NE 0.17 11.3 -28.2 --- --- 731.5 0.026 0.000 19.2 2 1
02/28/06 5:28 a -18.4 -18.4 -18.4 --- --- 11.3 ENE 0.19 12.2 -28.6 --- --- 731.5 0.026 0.000 19.2 2 1
02/28/06 5:29 a -18.4 -18.4 -18.4 --- --- 11.3 NE 0.19 13.0 -28.6 --- --- 731.6 0.026 0.000 19.2 2 1
02/28/06 5:30 a -18.4 -18.4 -18.4 --- --- 11.3 NE 0.19 13.0 -28.6 --- --- 731.6 0.026 0.000 19.2 3 1
02/28/06 5:31 a -18.4 -18.4 -18.4 --- --- 12.2 ENE 0.20 13.9 -28.9 --- --- 731.5 0.026 0.000 19.2 2 1
02/28/06 5:32 a -18.4 -18.4 -18.4 --- --- 13.0 ENE 0.22 13.9 -29.3 --- --- 731.4 0.026 0.000 19.2 2 1
02/28/06 5:33 a -18.4 -18.4 -18.4 --- --- 12.2 ENE 0.20 13.9 -28.9 --- --- 731.5 0.026 0.000 19.2 3 1
02/28/06 5:34 a -18.4 -18.4 -18.4 --- --- 12.2 NE 0.20 13.9 -28.9 --- --- 731.5 0.026 0.000 19.2 2 1
02/28/06 5:35 a -18.4 -18.4 -18.4 --- --- 12.2 NE 0.20 13.9 -28.9 --- --- 731.6 0.026 0.000 19.2 3 1
02/28/06 5:36 a -18.3 -18.3 -18.3 --- --- 12.2 NE 0.20 13.9 -28.9 --- --- 731.6 0.025 0.000 19.2 3 1
02/28/06 5:37 a -18.4 -18.4 -18.4 --- --- 11.3 NE 0.19 12.2 -28.6 --- --- 731.6 0.026 0.000 19.2 2 1
02/28/06 5:38 a -18.4 -18.4 -18.4 --- --- 11.3 NE 0.19 12.2 -28.6 --- --- 731.6 0.026 0.000 19.2 3 1
02/28/06 5:39 a -18.3 -18.3 -18.3 --- --- 11.3 NE 0.19 12.2 -28.5 --- --- 731.5 0.025 0.000 19.2 3 1
02/28/06 5:40 a -18.3 -18.3 -18.3 --- --- 11.3 NE 0.19 13.0 -28.5 --- --- 731.5 0.025 0.000 19.2 2 1
02/28/06 5:41 a -18.3 -18.3 -18.3 --- --- 12.2 NE 0.20 13.0 -28.9 --- --- 731.5 0.025 0.000 19.2 3 1
02/28/06 5:42 a -18.3 -18.3 -18.3 --- --- 11.3 NE 0.19 12.2 -28.5 --- --- 731.5 0.025 0.000 19.2 2 1
02/28/06 5:43 a -18.3 -18.3 -18.3 --- --- 11.3 NE 0.19 12.2 -28.5 --- --- 731.5 0.025 0.000 19.2 2 1
02/28/06 5:44 a -18.3 -18.3 -18.3 --- --- 10.4 NE 0.17 12.2 -28.1 --- --- 731.5 0.025 0.000 19.2 3 1
02/28/06 5:45 a -18.3 -18.3 -18.3 --- --- 10.4 ENE 0.17 11.3 -28.1 --- --- 731.5 0.025 0.000 19.2 2 1
02/28/06 5:46 a -18.3 -18.3 -18.3 --- --- 11.3 ENE 0.19 13.0 -28.4 --- --- 731.5 0.025 0.000 19.2 2 1
02/28/06 5:47 a -18.3 -18.3 -18.3 --- --- 11.3 NE 0.19 12.2 -28.4 --- --- 731.5 0.025 0.000 19.2 3 1
02/28/06 5:48 a -18.3 -18.3 -18.3 --- --- 11.3 ENE 0.19 13.0 -28.4 --- --- 731.4 0.025 0.000 19.2 3 1
02/28/06 5:49 a -18.3 -18.3 -18.3 --- --- 12.2 ENE 0.20 13.0 -28.8 --- --- 731.4 0.025 0.000 19.2 2 1
02/28/06 5:50 a -18.3 -18.3 -18.3 --- --- 12.2 NE 0.20 13.0 -28.8 --- --- 731.4 0.025 0.000 19.2 3 1
02/28/06 5:51 a -18.3 -18.3 -18.3 --- --- 10.4 NE 0.17 12.2 -28.1 --- --- 731.4 0.025 0.000 19.2 3 1
02/28/06 5:52 a -18.3 -18.3 -18.3 --- --- 10.4 NE 0.17 11.3 -28.1 --- --- 731.5 0.025 0.000 19.2 2 1
02/28/06 5:53 a -18.3 -18.3 -18.3 --- --- 10.4 NE 0.17 11.3 -28.1 --- --- 731.4 0.025 0.000 19.2 2 1
02/28/06 5:54 a -18.3 -18.3 -18.3 --- --- 10.4 NE 0.17 11.3 -28.1 --- --- 731.5 0.025 0.000 19.1 2 1
02/28/06 5:55 a -18.3 -18.3 -18.3 --- --- 11.3 ENE 0.19 12.2 -28.4 --- --- 731.4 0.025 0.000 19.1 3 1
02/28/06 5:56 a -18.3 -18.3 -18.3 --- --- 11.3 NE 0.19 12.2 -28.4 --- --- 731.5 0.025 0.000 19.2 2 1
02/28/06 5:57 a -18.2 -18.2 -18.3 --- --- 10.4 NE 0.17 11.3 -28.0 --- --- 731.6 0.025 0.000 19.2 2 1
02/28/06 5:58 a -18.2 -18.2 -18.3 --- --- 11.3 NE 0.19 12.2 -28.4 --- --- 731.6 0.025 0.000 19.2 3 1
02/28/06 5:59 a -18.2 -18.2 -18.2 --- --- 10.4 ENE 0.17 12.2 -28.0 --- --- 731.5 0.025 0.000 19.2 2 1
02/28/06 6:00 a -18.2 -18.2 -18.2 --- --- 11.3 ENE 0.19 13.0 -28.4 --- --- 731.4 0.025 0.000 19.1 2 1
02/28/06 6:01 a -18.2 -18.2 -18.2 --- --- 12.2 ENE 0.20 13.9 -28.7 --- --- 731.5 0.025 0.000 19.2 3 1
02/28/06 6:02 a -18.2 -18.2 -18.2 --- --- 10.4 ENE 0.17 12.2 -28.0 --- --- 731.5 0.025 0.000 19.2 2 1
02/28/06 6:03 a -18.2 -18.2 -18.2 --- --- 10.4 ENE 0.17 11.3 -28.0 --- --- 731.5 0.025 0.000 19.2 2 1
02/28/06 6:04 a -18.2 -18.2 -18.2 --- --- 10.4 ENE 0.17 11.3 -28.0 --- --- 731.5 0.025 0.000 19.2 2 1
02/28/06 6:05 a -18.2 -18.2 -18.2 --- --- 10.4 ENE 0.17 11.3 -27.9 --- --- 731.5 0.025 0.000 19.2 2 1
02/28/06 6:06 a -18.2 -18.2 -18.2 --- --- 10.4 NE 0.17 10.4 -27.9 --- --- 731.5 0.025 0.000 19.2 3 1
02/28/06 6:07 a -18.2 -18.2 -18.2 --- --- 9.6 NE 0.16 10.4 -27.5 --- --- 731.5 0.025 0.000 19.2 3 1
02/28/06 6:08 a -18.2 -18.2 -18.2 --- --- 9.6 NE 0.16 10.4 -27.5 --- --- 731.4 0.025 0.000 19.2 2 1
02/28/06 6:09 a -18.2 -18.1 -18.2 --- --- 8.7 ENE 0.14 10.4 -27.1 --- --- 731.5 0.025 0.000 19.2 2 1
02/28/06 6:10 a -18.1 -18.1 -18.2 --- --- 9.6 ENE 0.16 11.3 -27.4 --- --- 731.4 0.025 0.000 19.2 3 1
02/28/06 6:11 a -18.1 -18.1 -18.1 --- --- 10.4 ENE 0.17 11.3 -27.8 --- --- 731.5 0.025 0.000 19.2 2 1
02/28/06 6:12 a -18.1 -18.1 -18.1 --- --- 9.6 NE 0.16 10.4 -27.4 --- --- 731.5 0.025 0.000 19.2 2 1
02/28/06 6:13 a -18.1 -18.1 -18.1 --- --- 9.6 NE 0.16 12.2 -27.4 --- --- 731.4 0.025 0.000 19.2 2 1
02/28/06 6:14 a -18.1 -18.1 -18.1 --- --- 11.3 ENE 0.19 13.0 -28.2 --- --- 731.4 0.025 0.000 19.2 3 1
02/28/06 6:15 a -18.1 -18.1 -18.1 --- --- 12.2 ENE 0.20 13.9 -28.5 --- --- 731.4 0.025 0.000 19.2 2 1
02/28/06 6:16 a -18.1 -18.0 -18.1 --- --- 11.3 ENE 0.19 13.0 -28.2 --- --- 731.5 0.025 0.000 19.2 3 1
02/28/06 6:17 a -18.0 -18.0 -18.0 --- --- 11.3 E 0.19 13.9 -28.1 --- --- 731.3 0.025 0.000 19.2 2 1
02/28/06 6:18 a -18.0 -18.0 -18.0 --- --- 11.3 ENE 0.19 13.0 -28.1 --- --- 731.4 0.025 0.000 19.2 3 1
02/28/06 6:19 a -18.0 -18.0 -18.0 --- --- 10.4 NE 0.17 12.2 -27.7 --- --- 731.4 0.025 0.000 19.2 2 1
02/28/06 6:20 a -18.0 -18.0 -18.0 --- --- 10.4 ENE 0.17 12.2 -27.7 --- --- 731.4 0.025 0.000 19.2 2 1
02/28/06 6:21 a -17.9 -17.9 -17.9 --- --- 10.4 ENE 0.17 11.3 -27.6 --- --- 731.4 0.025 0.000 19.2 3 1
02/28/06 6:22 a -17.9 -17.9 -17.9 --- --- 12.2 ENE 0.20 13.9 -28.4 --- --- 731.3 0.025 0.000 19.2 2 1
02/28/06 6:23 a -17.9 -17.9 -17.9 --- --- 11.3 NE 0.19 13.9 -28.0 --- --- 731.4 0.025 0.000 19.2 2 1
02/28/06 6:24 a -17.9 -17.9 -17.9 --- --- 12.2 ENE 0.20 13.9 -28.4 --- --- 731.3 0.025 0.000 19.2 2 1
02/28/06 6:25 a -17.9 -17.9 -17.9 --- --- 13.0 ENE 0.22 14.8 -28.7 --- --- 731.3 0.025 0.000 19.2 3 1
02/28/06 6:26 a -17.9 -17.9 -17.9 --- --- 12.2 ENE 0.20 13.9 -28.4 --- --- 731.3 0.025 0.000 19.2 2 1
02/28/06 6:27 a -17.9 -17.9 -17.9 --- --- 11.3 ENE 0.19 13.0 -28.0 --- --- 731.4 0.025 0.000 19.2 3 1
02/28/06 6:28 a -17.9 -17.9 -17.9 --- --- 12.2 NE 0.20 13.0 -28.3 --- --- 731.4 0.025 0.000 19.2 2 1
02/28/06 6:29 a -17.9 -17.9 -17.9 --- --- 11.3 NE 0.19 13.0 -27.9 --- --- 731.4 0.025 0.000 19.2 3 1
02/28/06 6:30 a -17.9 -17.9 -17.9 --- --- 10.4 ENE 0.17 13.9 -27.6 --- --- 731.4 0.025 0.000 19.2 3 1
02/28/06 6:31 a -17.9 -17.9 -17.9 --- --- 12.2 ENE 0.20 13.0 -28.3 --- --- 731.4 0.025 0.000 19.2 2 1
02/28/06 6:32 a -17.9 -17.9 -17.9 --- --- 12.2 ENE 0.20 13.9 -28.3 --- --- 731.3 0.025 0.000 19.2 3 1
02/28/06 6:33 a -17.9 -17.9 -17.9 --- --- 11.3 NE 0.19 13.0 -27.9 --- --- 731.3 0.025 0.000 19.2 2 1
02/28/06 6:34 a -17.9 -17.9 -17.9 --- --- 11.3 ENE 0.19 13.0 -27.9 --- --- 731.4 0.025 0.000 19.2 3 1
02/28/06 6:35 a -17.9 -17.9 -17.9 --- --- 12.2 ENE 0.20 13.9 -28.3 --- --- 731.3 0.025 0.000 19.2 2 1
02/28/06 6:36 a -17.9 -17.9 -17.9 --- --- 12.2 ENE 0.20 13.9 -28.3 --- --- 731.3 0.025 0.000 19.2 3 1
02/28/06 6:37 a -17.9 -17.9 -17.9 --- --- 13.0 ENE 0.22 14.8 -28.7 --- --- 731.2 0.025 0.000 19.2 2 1
02/28/06 6:38 a -17.9 -17.9 -17.9 --- --- 13.0 ENE 0.22 14.8 -28.7 --- --- 731.3 0.025 0.000 19.2 3 1
02/28/06 6:39 a -17.9 -17.9 -17.9 --- --- 13.0 NE 0.22 14.8 -28.7 --- --- 731.3 0.025 0.000 19.2 3 1
02/28/06 6:40 a -17.9 -17.9 -17.9 --- --- 12.2 ENE 0.20 13.9 -28.4 --- --- 731.3 0.025 0.000 19.2 2 1
02/28/06 6:41 a -17.9 -17.9 -17.9 --- --- 13.0 NE 0.22 13.9 -28.7 --- --- 731.4 0.025 0.000 19.2 3 1
02/28/06 6:42 a -17.9 -17.9 -17.9 --- --- 12.2 ENE 0.20 13.9 -28.4 --- --- 731.3 0.025 0.000 19.2 2 1
02/28/06 6:43 a -17.9 -17.9 -17.9 --- --- 13.0 ENE 0.22 13.9 -28.7 --- --- 731.3 0.025 0.000 19.2 3 1
02/28/06 6:44 a -17.9 -17.9 -17.9 --- --- 13.0 ENE 0.22 13.9 -28.7 --- --- 731.4 0.025 0.000 19.2 3 1
02/28/06 6:45 a -17.9 -17.9 -18.0 --- --- 12.2 ENE 0.20 13.0 -28.4 --- --- 731.4 0.025 0.000 19.2 2 1
02/28/06 6:46 a -18.0 -18.0 -18.0 --- --- 12.2 ENE 0.20 13.9 -28.4 --- --- 731.3 0.025 0.000 19.2 3 1
02/28/06 6:47 a -18.0 -18.0 -18.0 --- --- 13.0 ENE 0.22 14.8 -28.8 --- --- 731.3 0.025 0.000 19.2 3 1
02/28/06 6:48 a -18.0 -18.0 -18.1 --- --- 12.2 NE 0.20 13.9 -28.4 --- --- 731.3 0.025 0.000 19.2 2 1
02/28/06 6:49 a -18.1 -18.1 -18.1 --- --- 12.2 NE 0.20 13.9 -28.5 --- --- 731.3 0.025 0.000 19.2 2 1
02/28/06 6:50 a -18.0 -18.0 -18.1 --- --- 13.0 NE 0.22 14.8 -28.8 --- --- 731.3 0.025 0.000 19.2 2 1
02/28/06 6:51 a -18.1 -18.1 -18.1 --- --- 13.0 NE 0.22 14.8 -28.8 --- --- 731.3 0.025 0.000 19.2 3 1
02/28/06 6:52 a -18.1 -18.1 -18.1 --- --- 12.2 NE 0.20 13.9 -28.5 --- --- 731.3 0.025 0.000 19.2 3 1
02/28/06 6:53 a -18.1 -18.1 -18.1 --- --- 11.3 NE 0.19 13.0 -28.2 --- --- 731.3 0.025 0.000 19.2 3 1
02/28/06 6:54 a -18.1 -18.1 -18.1 --- --- 11.3 NE 0.19 13.0 -28.2 --- --- 731.2 0.025 0.000 19.2 3 1
02/28/06 6:55 a -18.2 -18.1 -18.2 --- --- 11.3 NE 0.19 13.9 -28.3 --- --- 731.3 0.025 0.000 19.2 2 1
02/28/06 6:56 a -18.2 -18.1 -18.2 --- --- 11.3 NE 0.19 12.2 -28.3 --- --- 731.3 0.025 0.000 19.2 3 1
02/28/06 6:57 a -18.2 -18.2 -18.2 --- --- 11.3 NE 0.19 12.2 -28.3 --- --- 731.3 0.025 0.000 19.2 2 1
02/28/06 6:58 a -18.2 -18.2 -18.2 --- --- 11.3 NE 0.19 13.0 -28.3 --- --- 731.2 0.025 0.000 19.2 3 1
02/28/06 6:59 a -18.2 -18.2 -18.2 --- --- 11.3 NE 0.19 13.0 -28.4 --- --- 731.2 0.025 0.000 19.2 2 1
02/28/06 7:00 a -18.2 -18.2 -18.2 --- --- 11.3 NE 0.19 12.2 -28.4 --- --- 731.3 0.025 0.000 19.2 3 1
02/28/06 7:01 a -18.2 -18.2 -18.3 --- --- 11.3 NE 0.19 13.0 -28.4 --- --- 731.2 0.025 0.000 19.2 2 1
02/28/06 7:02 a -18.3 -18.2 -18.3 --- --- 10.4 NE 0.17 12.2 -28.1 --- --- 731.2 0.025 0.000 19.2 2 1
02/28/06 7:03 a -18.3 -18.3 -18.3 --- --- 10.4 NE 0.17 12.2 -28.1 --- --- 731.2 0.025 0.000 19.2 3 1
02/28/06 7:04 a -18.3 -18.3 -18.3 --- --- 12.2 ENE 0.20 13.0 -28.8 --- --- 731.2 0.025 0.000 19.2 3 1
02/28/06 7:05 a -18.3 -18.3 -18.3 --- --- 12.2 NE 0.20 13.9 -28.8 --- --- 731.1 0.025 0.000 19.2 3 1
02/28/06 7:06 a -18.3 -18.3 -18.3 --- --- 12.2 NE 0.20 13.0 -28.8 --- --- 731.2 0.025 0.000 19.2 3 1
02/28/06 7:07 a -18.3 -18.3 -18.3 --- --- 11.3 NE 0.19 12.2 -28.4 --- --- 731.2 0.025 0.000 19.2 3 1
02/28/06 7:08 a -18.3 -18.3 -18.3 --- --- 13.0 NE 0.22 14.8 -29.2 --- --- 731.1 0.025 0.000 19.2 3 1
02/28/06 7:09 a -18.3 -18.3 -18.3 --- --- 11.3 NE 0.19 14.8 -28.5 --- --- 731.2 0.025 0.000 19.2 2 1
02/28/06 7:10 a -18.3 -18.3 -18.3 --- --- 12.2 NE 0.20 13.9 -28.9 --- --- 731.3 0.025 0.000 19.2 2 1
02/28/06 7:11 a -18.3 -18.3 -18.3 --- --- 12.2 ENE 0.20 13.9 -28.9 --- --- 731.4 0.025 0.000 19.2 2 1
02/28/06 7:12 a -18.3 -18.3 -18.4 --- --- 13.0 ENE 0.22 13.9 -29.2 --- --- 731.1 0.025 0.000 19.2 3 1
02/28/06 7:13 a -18.3 -18.3 -18.3 --- --- 12.2 NE 0.20 13.9 -28.9 --- --- 731.2 0.025 0.000 19.2 2 1
02/28/06 7:14 a -18.3 -18.3 -18.3 --- --- 13.0 ENE 0.22 13.9 -29.2 --- --- 731.2 0.025 0.000 19.2 3 1
02/28/06 7:15 a -18.3 -18.3 -18.4 --- --- 12.2 NE 0.20 13.0 -28.9 --- --- 731.2 0.025 0.000 19.2 2 1
02/28/06 7:16 a -18.4 -18.4 -18.4 --- --- 9.6 NE 0.16 10.4 -27.8 --- --- 731.2 0.026 0.000 19.2 2 1
02/28/06 7:17 a -18.4 -18.4 -18.4 --- --- 10.4 ENE 0.17 11.3 -28.2 --- --- 731.2 0.026 0.000 19.2 2 1
02/28/06 7:18 a -18.4 -18.4 -18.4 --- --- 10.4 NE 0.17 11.3 -28.2 --- --- 731.2 0.026 0.000 19.2 2 1
02/28/06 7:19 a -18.4 -18.4 -18.4 --- --- 11.3 NE 0.19 12.2 -28.6 --- --- 731.1 0.026 0.000 19.2 3 1
02/28/06 7:20 a -18.4 -18.4 -18.4 --- --- 12.2 NE 0.20 13.0 -28.9 --- --- 731.2 0.026 0.000 19.2 2 1
02/28/06 7:21 a -18.4 -18.4 -18.4 --- --- 12.2 NE 0.20 13.0 -28.9 --- --- 731.2 0.026 0.000 19.3 3 1
02/28/06 7:22 a -18.4 -18.4 -18.4 --- --- 12.2 ENE 0.20 13.0 -28.9 --- --- 731.2 0.026 0.000 19.3 2 1
02/28/06 7:23 a -18.4 -18.4 -18.4 --- --- 12.2 ENE 0.20 13.9 -28.9 --- --- 731.1 0.026 0.000 19.2 3 1
02/28/06 7:24 a -18.4 -18.4 -18.4 --- --- 12.2 ENE 0.20 13.9 -28.9 --- --- 731.2 0.026 0.000 19.2 3 1
02/28/06 7:25 a -18.4 -18.4 -18.4 --- --- 12.2 ENE 0.20 13.9 -28.9 --- --- 731.1 0.026 0.000 19.3 3 1
02/28/06 7:26 a -18.4 -18.4 -18.4 --- --- 11.3 NE 0.19 12.2 -28.6 --- --- 731.3 0.026 0.000 19.3 3 1
02/28/06 7:27 a -18.4 -18.4 -18.4 --- --- 11.3 NE 0.19 12.2 -28.6 --- --- 731.1 0.026 0.000 19.3 3 1
02/28/06 7:28 a -18.4 -18.4 -18.4 --- --- 11.3 ENE 0.19 12.2 -28.6 --- --- 731.1 0.026 0.000 19.2 3 1
02/28/06 7:29 a -18.4 -18.4 -18.4 --- --- 11.3 ENE 0.19 13.0 -28.7 --- --- 731.2 0.026 0.000 19.2 2 1
02/28/06 7:30 a -18.4 -18.4 -18.4 --- --- 13.0 ENE 0.22 13.9 -29.3 --- --- 731.2 0.026 0.000 19.2 2 1
02/28/06 7:31 a -18.4 -18.4 -18.4 --- --- 13.0 ENE 0.22 13.9 -29.3 --- --- 731.2 0.026 0.000 19.2 2 1
02/28/06 7:32 a -18.4 -18.4 -18.4 --- --- 13.9 ENE 0.23 14.8 -29.6 --- --- 731.2 0.026 0.000 19.2 2 1
02/28/06 7:33 a -18.4 -18.4 -18.4 --- --- 13.0 NE 0.22 13.9 -29.3 --- --- 731.1 0.026 0.000 19.2 3 1
02/28/06 7:34 a -18.4 -18.4 -18.4 --- --- 12.2 NE 0.20 13.9 -28.9 --- --- 731.2 0.026 0.000 19.2 2 1
02/28/06 7:35 a -18.4 -18.4 -18.4 --- --- 12.2 ENE 0.20 13.0 -29.0 --- --- 731.2 0.026 0.000 19.2 2 1
02/28/06 7:36 a -18.4 -18.4 -18.4 --- --- 13.0 ENE 0.22 13.9 -29.3 --- --- 731.2 0.026 0.000 19.2 3 1
02/28/06 7:37 a -18.4 -18.4 -18.4 --- --- 13.0 ENE 0.22 13.9 -29.3 --- --- 731.1 0.026 0.000 19.2 3 1
02/28/06 7:38 a -18.4 -18.4 -18.4 --- --- 13.0 ENE 0.22 14.8 -29.3 --- --- 731.2 0.026 0.000 19.2 2 1
02/28/06 7:39 a -18.4 -18.4 -18.4 --- --- 13.0 NE 0.22 13.9 -29.3 --- --- 731.2 0.026 0.000 19.2 3 1
02/28/06 7:40 a -18.4 -18.4 -18.4 --- --- 12.2 NE 0.20 13.0 -29.0 --- --- 731.2 0.026 0.000 19.2 2 1
02/28/06 7:41 a -18.4 -18.4 -18.4 --- --- 11.3 NE 0.19 12.2 -28.7 --- --- 731.2 0.026 0.000 19.2 3 1
02/28/06 7:42 a -18.4 -18.4 -18.4 --- --- 13.0 NE 0.22 13.9 -29.3 --- --- 731.2 0.026 0.000 19.2 2 1
02/28/06 7:43 a -18.4 -18.4 -18.4 --- --- 13.0 ENE 0.22 13.9 -29.3 --- --- 731.2 0.026 0.000 19.2 2 1
02/28/06 7:44 a -18.4 -18.4 -18.4 --- --- 12.2 NE 0.20 13.9 -29.0 --- --- 731.2 0.026 0.000 19.2 2 1
02/28/06 7:45 a -18.4 -18.4 -18.4 --- --- 13.0 NE 0.22 13.9 -29.3 --- --- 731.2 0.026 0.000 19.2 2 1
02/28/06 7:46 a -18.4 -18.4 -18.4 --- --- 12.2 NE 0.20 13.0 -29.0 --- --- 731.2 0.026 0.000 19.2 2 1
02/28/06 7:47 a -18.4 -18.4 -18.4 --- --- 11.3 ENE 0.19 13.9 -28.7 --- --- 731.2 0.026 0.000 19.2 3 1
02/28/06 7:48 a -18.4 -18.4 -18.4 --- --- 12.2 ENE 0.20 13.0 -29.0 --- --- 731.2 0.026 0.000 19.2 3 1
02/28/06 7:49 a -18.4 -18.4 -18.4 --- --- 13.0 ENE 0.22 13.9 -29.3 --- --- 731.2 0.026 0.000 19.2 3 1
02/28/06 7:50 a -18.4 -18.4 -18.4 --- --- 12.2 NE 0.20 13.0 -29.0 --- --- 731.3 0.026 0.000 19.2 3 1
02/28/06 7:51 a -18.4 -18.4 -18.4 --- --- 11.3 NE 0.19 13.0 -28.7 --- --- 731.3 0.026 0.000 19.2 2 1
02/28/06 7:52 a -18.4 -18.4 -18.4 --- --- 12.2 ENE 0.20 13.0 -29.0 --- --- 731.2 0.026 0.000 19.2 2 1
02/28/06 7:53 a -18.4 -18.4 -18.4 --- --- 12.2 NE 0.20 13.0 -29.0 --- --- 731.2 0.026 0.000 19.2 3 1
02/28/06 7:54 a -18.4 -18.4 -18.5 --- --- 12.2 NE 0.20 13.0 -29.0 --- --- 731.1 0.026 0.000 19.2 2 1
02/28/06 7:55 a -18.5 -18.4 -18.5 --- --- 12.2 NE 0.20 13.9 -29.1 --- --- 731.2 0.026 0.000 19.2 2 1
02/28/06 7:56 a -18.5 -18.4 -18.5 --- --- 13.0 NE 0.22 14.8 -29.4 --- --- 731.2 0.026 0.000 19.2 3 1
02/28/06 7:57 a -18.5 -18.5 -18.5 --- --- 12.2 NE 0.20 13.9 -29.1 --- --- 731.2 0.026 0.000 19.2 3 1
02/28/06 7:58 a -18.5 -18.5 -18.5 --- --- 12.2 NE 0.20 13.9 -29.1 --- --- 731.2 0.026 0.000 19.2 2 1
02/28/06 7:59 a -18.5 -18.5 -18.5 --- --- 13.0 NE 0.22 13.9 -29.4 --- --- 731.2 0.026 0.000 19.2 3 1
02/28/06 8:00 a -18.5 -18.5 -18.5 --- --- 12.2 NE 0.20 13.0 -29.1 --- --- 731.2 0.026 0.000 19.2 2 1
02/28/06 8:01 a -18.5 -18.5 -18.6 --- --- 11.3 NE 0.19 12.2 -28.7 --- --- 731.2 0.026 0.000 19.2 3 1
02/28/06 8:02 a -18.5 -18.5 -18.6 --- --- 10.4 NE 0.17 12.2 -28.3 --- --- 731.2 0.026 0.000 19.2 3 1
02/28/06 8:03 a -18.6 -18.6 -18.6 --- --- 12.2 NE 0.20 13.0 -29.2 --- --- 731.2 0.026 0.000 19.2 3 1
02/28/06 8:04 a -18.6 -18.6 -18.6 --- --- 13.0 NE 0.22 13.9 -29.5 --- --- 731.3 0.026 0.000 19.2 2 1
02/28/06 8:05 a -18.6 -18.6 -18.6 --- --- 13.0 NE 0.22 14.8 -29.5 --- --- 731.2 0.026 0.000 19.2 3 1
02/28/06 8:06 a -18.6 -18.6 -18.6 --- --- 13.9 ENE 0.23 14.8 -29.8 --- --- 731.2 0.026 0.000 19.2 3 1
02/28/06 8:07 a -18.6 -18.6 -18.6 --- --- 12.2 ENE 0.20 13.0 -29.2 --- --- 731.2 0.026 0.000 19.2 2 1
02/28/06 8:08 a -18.6 -18.6 -18.6 --- --- 12.2 NE 0.20 13.9 -29.2 --- --- 731.2 0.026 0.000 19.2 3 1
02/28/06 8:09 a -18.6 -18.6 -18.6 --- --- 13.9 ENE 0.23 15.7 -29.8 --- --- 731.2 0.026 0.000 19.2 2 1
02/28/06 8:10 a -18.6 -18.6 -18.6 --- --- 13.0 NE 0.22 13.9 -29.6 --- --- 731.2 0.026 0.000 19.2 3 1
02/28/06 8:11 a -18.6 -18.6 -18.6 --- --- 13.0 ENE 0.22 14.8 -29.6 --- --- 731.1 0.026 0.000 19.2 3 1
02/28/06 8:12 a -18.6 -18.6 -18.6 --- --- 12.2 ENE 0.20 13.9 -29.2 --- --- 731.2 0.026 0.000 19.3 2 1
02/28/06 8:13 a -18.6 -18.6 -18.6 --- --- 13.0 NE 0.22 13.9 -29.6 --- --- 731.2 0.026 0.000 19.2 3 1
02/28/06 8:14 a -18.6 -18.6 -18.6 --- --- 13.0 NE 0.22 13.9 -29.6 --- --- 731.1 0.026 0.000 19.3 2 1
02/28/06 8:15 a -18.6 -18.6 -18.6 --- --- 13.0 ENE 0.22 13.9 -29.6 --- --- 731.1 0.026 0.000 19.3 2 1
02/28/06 8:16 a -18.7 -18.6 -18.7 --- --- 12.2 NE 0.20 15.7 -29.3 --- --- 731.0 0.026 0.000 19.3 3 1
02/28/06 8:17 a -18.6 -18.6 -18.6 --- --- 12.2 ENE 0.20 14.8 -29.2 --- --- 731.2 0.026 0.000 19.3 2 1
02/28/06 8:18 a -18.7 -18.6 -18.7 --- --- 10.4 NE 0.17 12.2 -28.6 --- --- 731.1 0.026 0.000 19.3 3 1
02/28/06 8:19 a -18.7 -18.6 -18.7 --- --- 11.3 NE 0.19 13.9 -28.9 --- --- 731.1 0.026 0.000 19.3 2 1
02/28/06 8:20 a -18.7 -18.7 -18.7 --- --- 13.0 ENE 0.22 14.8 -29.6 --- --- 731.1 0.026 0.000 19.3 3 1
02/28/06 8:21 a -18.7 -18.7 -18.7 --- --- 13.0 ENE 0.22 14.8 -29.6 --- --- 731.1 0.026 0.000 19.3 3 1
02/28/06 8:22 a -18.7 -18.7 -18.7 --- --- 13.9 ENE 0.23 14.8 -29.9 --- --- 731.1 0.026 0.000 19.3 2 1
02/28/06 8:23 a -18.7 -18.7 -18.7 --- --- 12.2 ENE 0.20 13.9 -29.3 --- --- 731.0 0.026 0.000 19.2 3 1
02/28/06 8:24 a -18.7 -18.7 -18.7 --- --- 13.0 ENE 0.22 13.9 -29.7 --- --- 731.1 0.026 0.000 19.2 2 1
02/28/06 8:25 a -18.7 -18.7 -18.7 --- --- 13.0 ENE 0.22 13.9 -29.7 --- --- 731.0 0.026 0.000 19.2 3 1
02/28/06 8:26 a -18.7 -18.7 -18.7 --- --- 13.9 ENE 0.23 14.8 -30.1 --- --- 731.1 0.026 0.000 19.2 2 1
02/28/06 8:27 a -18.7 -18.7 -18.7 --- --- 13.0 ENE 0.22 14.8 -29.7 --- --- 731.2 0.026 0.000 19.2 2 1
02/28/06 8:28 a -18.7 -18.7 -18.7 --- --- 13.0 ENE 0.22 13.9 -29.7 --- --- 731.0 0.026 0.000 19.2 3 1
02/28/06 8:29 a -18.7 -18.7 -18.7 --- --- 14.8 ENE 0.25 15.7 -30.3 --- --- 731.1 0.026 0.000 19.2 3 1
02/28/06 8:30 a -18.7 -18.7 -18.8 --- --- 13.0 ENE 0.22 14.8 -29.7 --- --- 731.0 0.026 0.000 19.2 3 1
02/28/06 8:31 a -18.8 -18.7 -18.8 --- --- 13.9 ENE 0.23 16.5 -30.1 --- --- 731.0 0.026 0.000 19.2 3 1
02/28/06 8:32 a -18.8 -18.7 -18.8 --- --- 12.2 ENE 0.20 13.9 -29.4 --- --- 730.9 0.026 0.000 19.2 2 1
02/28/06 8:33 a -18.8 -18.8 -18.8 --- --- 13.0 ENE 0.22 14.8 -29.8 --- --- 731.0 0.026 0.000 19.2 3 1
02/28/06 8:34 a -18.8 -18.8 -18.8 --- --- 13.0 ENE 0.22 14.8 -29.8 --- --- 731.0 0.026 0.000 19.2 2 1
02/28/06 8:35 a -18.8 -18.8 -18.8 --- --- 13.0 ENE 0.22 13.9 -29.8 --- --- 731.0 0.026 0.000 19.2 3 1
02/28/06 8:36 a -18.8 -18.8 -18.8 --- --- 13.0 ENE 0.22 14.8 -29.8 --- --- 730.9 0.026 0.000 19.2 3 1
02/28/06 8:37 a -18.8 -18.8 -18.8 --- --- 13.0 ENE 0.22 15.7 -29.8 --- --- 731.0 0.026 0.000 19.2 2 1
02/28/06 8:38 a -18.8 -18.8 -18.8 --- --- 12.2 ENE 0.20 15.7 -29.5 --- --- 731.0 0.026 0.000 19.2 2 1
02/28/06 8:39 a -18.8 -18.8 -18.8 --- --- 13.0 NE 0.22 14.8 -29.8 --- --- 730.9 0.026 0.000 19.2 3 1
02/28/06 8:40 a -18.8 -18.8 -18.8 --- --- 13.0 ENE 0.22 14.8 -29.8 --- --- 731.0 0.026 0.000 19.2 3 1
02/28/06 8:41 a -18.8 -18.8 -18.8 --- --- 13.0 ENE 0.22 13.9 -29.8 --- --- 731.0 0.026 0.000 19.2 3 1
02/28/06 8:42 a -18.8 -18.8 -18.8 --- --- 13.9 ENE 0.23 14.8 -30.2 --- --- 731.0 0.026 0.000 19.2 2 1
02/28/06 8:43 a -18.8 -18.8 -18.8 --- --- 13.9 ENE 0.23 15.7 -30.2 --- --- 731.0 0.026 0.000 19.2 2 1
02/28/06 8:44 a -18.8 -18.8 -18.8 --- --- 13.0 NE 0.22 14.8 -29.8 --- --- 731.0 0.026 0.000 19.2 3 1
02/28/06 8:45 a -18.8 -18.8 -18.8 --- --- 12.2 ENE 0.20 13.9 -29.5 --- --- 731.0 0.026 0.000 19.2 2 1
02/28/06 8:46 a -18.8 -18.8 -18.8 --- --- 12.2 NE 0.20 14.8 -29.5 --- --- 731.0 0.026 0.000 19.2 2 1
02/28/06 8:47 a -18.8 -18.8 -18.9 --- --- 13.0 NE 0.22 14.8 -29.8 --- --- 731.0 0.026 0.000 19.2 2 1
02/28/06 8:48 a -18.9 -18.8 -18.9 --- --- 12.2 ENE 0.20 13.9 -29.6 --- --- 731.0 0.026 0.000 19.2 3 1
02/28/06 8:49 a -18.9 -18.9 -18.9 --- --- 13.0 ENE 0.22 14.8 -29.9 --- --- 731.0 0.026 0.000 19.2 3 1
02/28/06 8:50 a -18.9 -18.9 -18.9 --- --- 12.2 NE 0.20 13.9 -29.6 --- --- 731.0 0.026 0.000 19.2 2 1
02/28/06 8:51 a -18.9 -18.9 -18.9 --- --- 12.2 NE 0.20 13.9 -29.6 --- --- 731.0 0.026 0.000 19.2 3 1
02/28/06 8:52 a -18.9 -18.9 -18.9 --- --- 11.3 NE 0.19 13.9 -29.2 --- --- 731.0 0.026 0.000 19.2 3 1
02/28/06 8:53 a -18.9 -18.9 -18.9 --- --- 13.0 NE 0.22 14.8 -29.9 --- --- 731.0 0.026 0.000 19.2 2 1
02/28/06 8:54 a -18.9 -18.9 -18.9 --- --- 10.4 ENE 0.17 13.0 -28.8 --- --- 730.9 0.026 0.000 19.2 3 1
02/28/06 8:55 a -18.9 -18.9 -18.9 --- --- 11.3 NE 0.19 12.2 -29.2 --- --- 731.0 0.026 0.000 19.2 3 1
02/28/06 8:56 a -18.9 -18.9 -18.9 --- --- 11.3 NE 0.19 13.0 -29.3 --- --- 730.9 0.026 0.000 19.2 2 1
02/28/06 8:57 a -18.9 -18.9 -18.9 --- --- 12.2 ENE 0.20 14.8 -29.6 --- --- 731.0 0.026 0.000 19.2 3 1
02/28/06 8:58 a -18.9 -18.9 -18.9 --- --- 12.2 ENE 0.20 14.8 -29.6 --- --- 731.0 0.026 0.000 19.2 2 1
02/28/06 8:59 a -18.9 -18.9 -18.9 --- --- 12.2 ENE 0.20 14.8 -29.6 --- --- 730.9 0.026 0.000 19.2 3 1
02/28/06 9:00 a -18.9 -18.9 -18.9 --- --- 13.0 ENE 0.22 14.8 -29.9 --- --- 731.0 0.026 0.000 19.2 2 1
02/28/06 9:01 a -18.9 -18.9 -18.9 --- --- 13.0 ENE 0.22 13.9 -29.9 --- --- 731.0 0.026 0.000 19.2 2 1
02/28/06 9:02 a -18.9 -18.9 -18.9 --- --- 13.0 ENE 0.22 14.8 -29.9 --- --- 730.9 0.026 0.000 19.2 2 1
02/28/06 9:03 a -18.9 -18.9 -18.9 --- --- 12.2 ENE 0.20 13.9 -29.6 --- --- 731.0 0.026 0.000 19.2 3 1
02/28/06 9:04 a -18.9 -18.9 -18.9 --- --- 12.2 NE 0.20 13.9 -29.6 --- --- 731.0 0.026 0.000 19.2 2 1
02/28/06 9:05 a -18.9 -18.9 -18.9 --- --- 12.2 NE 0.20 13.9 -29.6 --- --- 730.9 0.026 0.000 19.2 3 1
02/28/06 9:06 a -18.9 -18.9 -18.9 --- --- 12.2 NE 0.20 13.0 -29.6 --- --- 731.0 0.026 0.000 19.2 3 1
02/28/06 9:07 a -18.9 -18.9 -18.9 --- --- 12.2 NE 0.20 13.9 -29.6 --- --- 730.9 0.026 0.000 19.3 2 1
02/28/06 9:08 a -18.9 -18.8 -18.9 --- --- 13.0 NE 0.22 13.9 -29.9 --- --- 730.9 0.026 0.000 19.3 3 1
02/28/06 9:09 a -18.9 -18.8 -18.9 --- --- 11.3 NE 0.19 13.0 -29.2 --- --- 731.0 0.026 0.000 19.3 2 1
02/28/06 9:10 a -18.9 -18.8 -18.9 --- --- 12.2 NE 0.20 13.9 -29.6 --- --- 730.9 0.026 0.000 19.3 3 1
02/28/06 9:11 a -18.8 -18.8 -18.9 --- --- 10.4 NE 0.17 12.2 -28.8 --- --- 730.9 0.026 0.000 19.3 3 1
02/28/06 9:12 a -18.8 -18.8 -18.9 --- --- 10.4 NE 0.17 11.3 -28.8 --- --- 730.9 0.026 0.000 19.3 2 1
02/28/06 9:13 a -18.8 -18.8 -18.8 --- --- 11.3 NE 0.19 13.0 -29.2 --- --- 730.9 0.026 0.000 19.3 2 1
02/28/06 9:14 a -18.8 -18.8 -18.8 --- --- 11.3 NE 0.19 13.0 -29.2 --- --- 730.9 0.026 0.000 19.3 2 1
02/28/06 9:15 a -18.8 -18.8 -18.8 --- --- 11.3 NE 0.19 13.0 -29.2 --- --- 730.9 0.026 0.000 19.3 3 1
02/28/06 9:16 a -18.8 -18.8 -18.8 --- --- 11.3 NE 0.19 12.2 -29.2 --- --- 731.0 0.026 0.000 19.3 2 1
02/28/06 9:17 a -18.8 -18.8 -18.8 --- --- 10.4 NE 0.17 12.2 -28.8 --- --- 730.9 0.026 0.000 19.3 2 1
02/28/06 9:18 a -18.8 -18.8 -18.8 --- --- 10.4 NE 0.17 11.3 -28.8 --- --- 730.9 0.026 0.000 19.3 2 1
02/28/06 9:19 a -18.8 -18.8 -18.8 --- --- 10.4 NE 0.17 12.2 -28.8 --- --- 730.9 0.026 0.000 19.3 2 1
02/28/06 9:20 a -18.8 -18.8 -18.8 --- --- 8.7 NE 0.14 10.4 -27.9 --- --- 730.9 0.026 0.000 19.2 3 1
02/28/06 9:21 a -18.8 -18.8 -18.8 --- --- 10.4 NE 0.17 12.2 -28.8 --- --- 731.0 0.026 0.000 19.2 2 1
02/28/06 9:22 a -18.8 -18.8 -18.8 --- --- 10.4 NE 0.17 11.3 -28.7 --- --- 730.9 0.026 0.000 19.2 2 1
02/28/06 9:23 a -18.8 -18.8 -18.8 --- --- 11.3 NE 0.19 12.2 -29.1 --- --- 730.8 0.026 0.000 19.2 2 1
02/28/06 9:24 a -18.8 -18.8 -18.8 --- --- 10.4 NE 0.17 11.3 -28.7 --- --- 730.8 0.026 0.000 19.2 3 1
02/28/06 9:25 a -18.8 -18.8 -18.8 --- --- 10.4 NE 0.17 12.2 -28.7 --- --- 730.9 0.026 0.000 19.2 3 1
02/28/06 9:26 a -18.8 -18.7 -18.8 --- --- 9.6 NE 0.16 11.3 -28.3 --- --- 730.9 0.026 0.000 19.2 3 1
02/28/06 9:27 a -18.7 -18.7 -18.8 --- --- 12.2 NE 0.20 13.9 -29.4 --- --- 730.9 0.026 0.000 19.2 2 1
02/28/06 9:28 a -18.7 -18.7 -18.7 --- --- 9.6 NE 0.16 11.3 -28.2 --- --- 730.9 0.026 0.000 19.2 2 1
02/28/06 9:29 a -18.7 -18.7 -18.7 --- --- 10.4 NE 0.17 13.0 -28.6 --- --- 730.8 0.026 0.000 19.2 3 1
02/28/06 9:30 a -18.7 -18.7 -18.7 --- --- 8.7 NE 0.14 10.4 -27.7 --- --- 730.9 0.026 0.000 19.2 2 1
02/28/06 9:31 a -18.7 -18.7 -18.7 --- --- 10.4 NE 0.17 12.2 -28.6 --- --- 730.8 0.026 0.000 19.2 3 1
02/28/06 9:32 a -18.7 -18.7 -18.7 --- --- 7.8 NE 0.13 9.6 -27.3 --- --- 730.8 0.026 0.000 19.2 3 1
02/28/06 9:33 a -18.7 -18.7 -18.7 --- --- 11.3 NE 0.19 13.0 -28.9 --- --- 730.8 0.026 0.000 19.2 3 1
02/28/06 9:34 a -18.7 -18.7 -18.7 --- --- 10.4 NE 0.17 11.3 -28.6 --- --- 730.9 0.026 0.000 19.2 2 1
02/28/06 9:35 a -18.7 -18.7 -18.7 --- --- 10.4 NE 0.17 11.3 -28.6 --- --- 730.9 0.026 0.000 19.2 2 1
02/28/06 9:36 a -18.7 -18.7 -18.7 --- --- 10.4 NE 0.17 12.2 -28.6 --- --- 730.8 0.026 0.000 19.2 3 1
02/28/06 9:37 a -18.7 -18.7 -18.7 --- --- 9.6 NE 0.16 11.3 -28.1 --- --- 730.8 0.026 0.000 19.2 3 1
02/28/06 9:38 a -18.7 -18.7 -18.7 --- --- 10.4 NE 0.17 12.2 -28.6 --- --- 730.8 0.026 0.000 19.2 3 1
02/28/06 9:39 a -18.7 -18.7 -18.7 --- --- 10.4 NE 0.17 13.0 -28.6 --- --- 730.8 0.026 0.000 19.2 3 1
02/28/06 9:40 a -18.7 -18.6 -18.7 --- --- 10.4 NE 0.17 12.2 -28.6 --- --- 730.9 0.026 0.000 19.2 2 1
02/28/06 9:41 a -18.6 -18.6 -18.7 --- --- 9.6 NE 0.16 13.0 -28.1 --- --- 731.0 0.026 0.000 19.2 2 1
02/28/06 9:42 a -18.6 -18.6 -18.7 --- --- 11.3 NE 0.19 13.0 -28.8 --- --- 730.9 0.026 0.000 19.2 2 1
02/28/06 9:43 a -18.6 -18.6 -18.6 --- --- 11.3 NE 0.19 12.2 -28.8 --- --- 730.9 0.026 0.000 19.2 3 1
02/28/06 9:44 a -18.6 -18.6 -18.6 --- --- 9.6 NE 0.16 11.3 -28.1 --- --- 730.8 0.026 0.000 19.2 2 1
02/28/06 9:45 a -18.6 -18.6 -18.6 --- --- 10.4 NE 0.17 12.2 -28.5 --- --- 730.8 0.026 0.000 19.2 2 1
02/28/06 9:46 a -18.6 -18.6 -18.6 --- --- 10.4 NE 0.17 11.3 -28.5 --- --- 730.8 0.026 0.000 19.2 2 1
02/28/06 9:47 a -18.6 -18.6 -18.6 --- --- 10.4 NE 0.17 12.2 -28.5 --- --- 730.9 0.026 0.000 19.2 2 1
02/28/06 9:48 a -18.6 -18.6 -18.6 --- --- 10.4 NE 0.17 12.2 -28.4 --- --- 730.8 0.026 0.000 19.2 2 1
02/28/06 9:49 a -18.6 -18.6 -18.6 --- --- 9.6 NE 0.16 11.3 -28.0 --- --- 730.9 0.026 0.000 19.2 2 1
02/28/06 9:50 a -18.6 -18.6 -18.6 --- --- 9.6 NE 0.16 12.2 -28.0 --- --- 730.8 0.026 0.000 19.2 3 1
02/28/06 9:51 a -18.6 -18.6 -18.6 --- --- 11.3 NE 0.19 13.0 -28.8 --- --- 730.8 0.026 0.000 19.2 3 1
02/28/06 9:52 a -18.6 -18.6 -18.6 --- --- 8.7 NE 0.14 10.4 -27.6 --- --- 730.9 0.026 0.000 19.2 3 1
02/28/06 9:53 a -18.6 -18.6 -18.6 --- --- 9.6 NE 0.16 10.4 -28.0 --- --- 730.8 0.026 0.000 19.2 3 1
02/28/06 9:54 a -18.6 -18.5 -18.6 --- --- 8.7 NE 0.14 12.2 -27.6 --- --- 730.7 0.026 0.000 19.2 3 1
02/28/06 9:55 a -18.5 -18.5 -18.5 --- --- 11.3 NE 0.19 13.0 -28.7 --- --- 730.7 0.026 0.000 19.2 3 1
02/28/06 9:56 a -18.5 -18.5 -18.6 --- --- 10.4 NE 0.17 13.0 -28.3 --- --- 730.8 0.026 0.000 19.2 2 1
02/28/06 9:57 a -18.5 -18.5 -18.5 --- --- 10.4 NE 0.17 12.2 -28.3 --- --- 730.8 0.026 0.000 19.2 2 1
02/28/06 9:58 a -18.5 -18.5 -18.5 --- --- 11.3 NE 0.19 13.0 -28.7 --- --- 730.8 0.026 0.000 19.2 3 1
02/28/06 9:59 a -18.5 -18.5 -18.5 --- --- 11.3 ENE 0.19 13.0 -28.7 --- --- 730.8 0.026 0.000 19.2 3 1
02/28/06 10:00 a -18.5 -18.5 -18.5 --- --- 11.3 NE 0.19 13.0 -28.7 --- --- 730.8 0.026 0.000 19.2 3 1
02/28/06 10:01 a -18.5 -18.5 -18.5 --- --- 11.3 NE 0.19 13.0 -28.7 --- --- 730.8 0.026 0.000 19.3 3 1
02/28/06 10:02 a -18.5 -18.5 -18.5 --- --- 11.3 ENE 0.19 12.2 -28.7 --- --- 730.8 0.026 0.000 19.2 3 1
02/28/06 10:03 a -18.5 -18.5 -18.5 --- --- 10.4 NE 0.17 12.2 -28.3 --- --- 730.8 0.026 0.000 19.2 3 1
02/28/06 10:04 a -18.5 -18.5 -18.5 --- --- 12.2 ENE 0.20 13.0 -29.1 --- --- 730.9 0.026 0.000 19.2 3 1
02/28/06 10:05 a -18.5 -18.5 -18.5 --- --- 9.6 ENE 0.16 11.3 -27.9 --- --- 730.9 0.026 0.000 19.3 3 1
02/28/06 10:06 a -18.5 -18.5 -18.5 --- --- 10.4 ENE 0.17 12.2 -28.3 --- --- 730.9 0.026 0.000 19.3 2 1
02/28/06 10:07 a -18.5 -18.5 -18.5 --- --- 9.6 ENE 0.16 11.3 -27.9 --- --- 730.9 0.026 0.000 19.3 2 1
02/28/06 10:08 a -18.5 -18.5 -18.6 --- --- 9.6 NE 0.16 11.3 -27.9 --- --- 730.9 0.026 0.000 19.3 2 1
02/28/06 10:09 a -18.5 -18.5 -18.6 --- --- 10.4 NE 0.17 11.3 -28.3 --- --- 730.9 0.026 0.000 19.3 3 1
02/28/06 10:10 a -18.5 -18.5 -18.6 --- --- 9.6 NE 0.16 11.3 -27.9 --- --- 730.9 0.026 0.000 19.3 2 1
02/28/06 10:11 a -18.6 -18.6 -18.6 --- --- 10.4 NE 0.17 12.2 -28.4 --- --- 730.9 0.026 0.000 19.3 3 1
02/28/06 10:12 a -18.6 -18.5 -18.6 --- --- 10.4 NE 0.17 11.3 -28.4 --- --- 730.9 0.026 0.000 19.3 2 1
02/28/06 10:13 a -18.6 -18.6 -18.6 --- --- 10.4 ENE 0.17 12.2 -28.4 --- --- 730.9 0.026 0.000 19.3 3 1
02/28/06 10:14 a -18.6 -18.6 -18.6 --- --- 9.6 ENE 0.16 10.4 -28.0 --- --- 730.9 0.026 0.000 19.3 2 1
02/28/06 10:15 a -18.6 -18.6 -18.6 --- --- 10.4 ENE 0.17 11.3 -28.4 --- --- 730.9 0.026 0.000 19.3 3 1
02/28/06 10:16 a -18.6 -18.6 -18.6 --- --- 10.4 NE 0.17 12.2 -28.4 --- --- 730.9 0.026 0.000 19.3 2 1
02/28/06 10:17 a -18.6 -18.6 -18.6 --- --- 10.4 NE 0.17 12.2 -28.5 --- --- 730.9 0.026 0.000 19.2 2 1
02/28/06 10:18 a -18.6 -18.6 -18.6 --- --- 9.6 NE 0.16 12.2 -28.1 --- --- 730.9 0.026 0.000 19.2 3 1
02/28/06 10:19 a -18.6 -18.6 -18.6 --- --- 10.4 ENE 0.17 12.2 -28.5 --- --- 730.8 0.026 0.000 19.2 3 1
02/28/06 10:20 a -18.6 -18.6 -18.6 --- --- 9.6 NE 0.16 10.4 -28.1 --- --- 730.8 0.026 0.000 19.2 3 1
02/28/06 10:21 a -18.6 -18.6 -18.6 --- --- 11.3 ENE 0.19 13.0 -28.8 --- --- 730.8 0.026 0.000 19.2 3 1
02/28/06 10:22 a -18.6 -18.6 -18.6 --- --- 10.4 ENE 0.17 13.0 -28.5 --- --- 730.8 0.026 0.000 19.2 2 1
02/28/06 10:23 a -18.6 -18.6 -18.6 --- --- 11.3 ENE 0.19 13.0 -28.8 --- --- 730.8 0.026 0.000 19.2 2 1
02/28/06 10:24 a -18.6 -18.6 -18.6 --- --- 12.2 ENE 0.20 13.9 -29.2 --- --- 730.8 0.026 0.000 19.2 3 1
02/28/06 10:25 a -18.6 -18.6 -18.6 --- --- 10.4 ENE 0.17 13.0 -28.5 --- --- 730.8 0.026 0.000 19.2 2 1
02/28/06 10:26 a -18.6 -18.6 -18.7 --- --- 11.3 ENE 0.19 12.2 -28.8 --- --- 730.7 0.026 0.000 19.2 3 1
02/28/06 10:27 a -18.6 -18.6 -18.7 --- --- 10.4 ENE 0.17 12.2 -28.5 --- --- 730.8 0.026 0.000 19.2 3 1
02/28/06 10:28 a -18.6 -18.6 -18.7 --- --- 11.3 ENE 0.19 13.0 -28.8 --- --- 730.8 0.026 0.000 19.2 2 1
02/28/06 10:29 a -18.6 -18.6 -18.7 --- --- 9.6 ENE 0.16 13.0 -28.1 --- --- 730.6 0.026 0.000 19.2 3 1
02/28/06 10:30 a -18.7 -18.7 -18.7 --- --- 11.3 ENE 0.19 12.2 -28.9 --- --- 730.8 0.026 0.000 19.2 2 1
02/28/06 10:31 a -18.7 -18.7 -18.7 --- --- 12.2 ENE 0.20 13.9 -29.3 --- --- 730.7 0.026 0.000 19.2 3 1
02/28/06 10:32 a -18.7 -18.7 -18.7 --- --- 10.4 ENE 0.17 12.2 -28.6 --- --- 730.7 0.026 0.000 19.2 3 1
02/28/06 10:33 a -18.7 -18.7 -18.7 --- --- 12.2 ENE 0.20 13.9 -29.3 --- --- 730.7 0.026 0.000 19.2 2 1
02/28/06 10:34 a -18.7 -18.7 -18.7 --- --- 10.4 ENE 0.17 13.9 -28.6 --- --- 730.8 0.026 0.000 19.2 2 1
02/28/06 10:35 a -18.7 -18.7 -18.7 --- --- 11.3 ENE 0.19 14.8 -28.9 --- --- 730.7 0.026 0.000 19.2 3 1
02/28/06 10:36 a -18.7 -18.7 -18.7 --- --- 12.2 ENE 0.20 13.9 -29.3 --- --- 730.7 0.026 0.000 19.2 3 1
02/28/06 10:37 a -18.7 -18.7 -18.7 --- --- 11.3 ENE 0.19 12.2 -29.0 --- --- 730.7 0.026 0.000 19.2 3 1
02/28/06 10:38 a -18.7 -18.7 -18.7 --- --- 13.0 ENE 0.22 13.9 -29.7 --- --- 730.7 0.026 0.000 19.2 3 1
02/28/06 10:39 a -18.7 -18.7 -18.7 --- --- 10.4 ENE 0.17 13.9 -28.6 --- --- 730.7 0.026 0.000 19.2 2 1
02/28/06 10:40 a -18.7 -18.7 -18.7 --- --- 10.4 ENE 0.17 12.2 -28.6 --- --- 730.7 0.026 0.000 19.2 3 1
02/28/06 10:41 a -18.7 -18.7 -18.7 --- --- 11.3 NE 0.19 12.2 -29.0 --- --- 730.7 0.026 0.000 19.2 3 1
02/28/06 10:42 a -18.7 -18.7 -18.7 --- --- 11.3 ENE 0.19 13.9 -29.0 --- --- 730.7 0.026 0.000 19.2 3 1
02/28/06 10:43 a -18.8 -18.7 -18.8 --- --- 13.0 ENE 0.22 14.8 -29.8 --- --- 730.7 0.026 0.000 19.2 2 1
02/28/06 10:44 a -18.8 -18.8 -18.8 --- --- 11.3 ENE 0.19 13.0 -29.1 --- --- 730.8 0.026 0.000 19.2 2 1
02/28/06 10:45 a -18.8 -18.8 -18.8 --- --- 11.3 ENE 0.19 13.9 -29.1 --- --- 730.6 0.026 0.000 19.2 3 1
02/28/06 10:46 a -18.8 -18.8 -18.8 --- --- 13.0 ENE 0.22 13.9 -29.8 --- --- 730.7 0.026 0.000 19.2 3 1
02/28/06 10:47 a -18.8 -18.8 -18.8 --- --- 10.4 ENE 0.17 13.0 -28.8 --- --- 730.7 0.026 0.000 19.2 2 1
02/28/06 10:48 a -18.8 -18.8 -18.8 --- --- 9.6 ENE 0.16 12.2 -28.3 --- --- 730.7 0.026 0.000 19.2 2 1
02/28/06 10:49 a -18.8 -18.8 -18.8 --- --- 13.0 ENE 0.22 13.9 -29.8 --- --- 730.7 0.026 0.000 19.2 2 1
02/28/06 10:50 a -18.8 -18.8 -18.8 --- --- 12.2 ENE 0.20 13.0 -29.5 --- --- 730.8 0.026 0.000 19.2 2 1
02/28/06 10:51 a -18.8 -18.8 -18.9 --- --- 11.3 ENE 0.19 13.9 -29.2 --- --- 730.6 0.026 0.000 19.2 3 1
02/28/06 10:52 a -18.9 -18.8 -18.9 --- --- 12.2 ENE 0.20 13.0 -29.6 --- --- 730.6 0.026 0.000 19.2 2 1
02/28/06 10:53 a -18.9 -18.9 -18.9 --- --- 13.0 ENE 0.22 13.0 -29.9 --- --- 730.7 0.026 0.000 19.2 2 1
02/28/06 10:54 a -18.9 -18.9 -18.9 --- --- 12.2 ENE 0.20 13.0 -29.6 --- --- 730.6 0.026 0.000 19.2 2 1
02/28/06 10:55 a -18.9 -18.9 -18.9 --- --- 12.2 ENE 0.20 13.0 -29.6 --- --- 730.7 0.026 0.000 19.2 3 1
02/28/06 10:56 a -18.9 -18.9 -18.9 --- --- 11.3 ENE 0.19 13.0 -29.3 --- --- 730.7 0.026 0.000 19.2 2 1
02/28/06 10:57 a -18.9 -18.9 -18.9 --- --- 13.0 ENE 0.22 14.8 -30.0 --- --- 730.7 0.026 0.000 19.2 2 1
02/28/06 10:58 a -18.9 -18.9 -18.9 --- --- 12.2 ENE 0.20 13.0 -29.7 --- --- 730.6 0.026 0.000 19.2 3 1
02/28/06 10:59 a -18.9 -18.9 -19.0 --- --- 12.2 ENE 0.20 13.9 -29.7 --- --- 730.7 0.026 0.000 19.2 3 1
02/28/06 11:00 a -19.0 -18.9 -19.0 --- --- 11.3 NE 0.19 13.0 -29.3 --- --- 730.7 0.026 0.000 19.2 3 1
02/28/06 11:01 a -19.0 -19.0 -19.0 --- --- 8.7 NE 0.14 11.3 -28.1 --- --- 730.8 0.026 0.000 19.3 2 1
02/28/06 11:02 a -19.0 -19.0 -19.1 --- --- 11.3 ENE 0.19 13.0 -29.3 --- --- 730.6 0.026 0.000 19.3 3 1
02/28/06 11:03 a -19.1 -19.0 -19.1 --- --- 13.0 ENE 0.22 13.9 -30.1 --- --- 730.7 0.026 0.000 19.3 3 1
02/28/06 11:04 a -19.1 -19.1 -19.1 --- --- 12.2 NE 0.20 13.9 -29.8 --- --- 730.7 0.026 0.000 19.3 2 1
02/28/06 11:05 a -19.1 -19.1 -19.1 --- --- 11.3 NE 0.19 12.2 -29.4 --- --- 730.7 0.026 0.000 19.3 3 1
02/28/06 11:06 a -19.1 -19.1 -19.1 --- --- 11.3 ENE 0.19 12.2 -29.5 --- --- 730.7 0.026 0.000 19.3 2 1
02/28/06 11:07 a -19.1 -19.1 -19.1 --- --- 12.2 ENE 0.20 13.0 -29.8 --- --- 730.6 0.026 0.000 19.3 3 1
02/28/06 11:08 a -19.1 -19.1 -19.1 --- --- 12.2 NE 0.20 13.0 -29.8 --- --- 730.7 0.026 0.000 19.3 2 1
02/28/06 11:09 a -19.2 -19.1 -19.2 --- --- 12.2 NE 0.20 13.0 -29.9 --- --- 730.7 0.026 0.000 19.3 3 1
02/28/06 11:10 a -19.2 -19.1 -19.2 --- --- 13.0 ENE 0.22 13.9 -30.3 --- --- 730.8 0.026 0.000 19.3 2 1
02/28/06 11:11 a -19.2 -19.2 -19.2 --- --- 12.2 ENE 0.20 13.0 -29.9 --- --- 730.7 0.026 0.000 19.3 3 1
02/28/06 11:12 a -19.2 -19.2 -19.2 --- --- 12.2 NE 0.20 13.9 -29.9 --- --- 730.8 0.026 0.000 19.3 2 1
02/28/06 11:13 a -19.2 -19.2 -19.2 --- --- 11.3 NE 0.19 12.2 -29.6 --- --- 730.8 0.026 0.000 19.3 2 1
02/28/06 11:14 a -19.2 -19.2 -19.2 --- --- 12.2 ENE 0.20 13.9 -29.9 --- --- 730.8 0.026 0.000 19.3 2 1
02/28/06 11:15 a -19.2 -19.2 -19.2 --- --- 13.0 ENE 0.22 13.9 -30.3 --- --- 730.8 0.026 0.000 19.2 3 1
02/28/06 11:16 a -19.2 -19.2 -19.2 --- --- 12.2 ENE 0.20 13.0 -30.0 --- --- 730.8 0.026 0.000 19.2 2 1
02/28/06 11:17 a -19.2 -19.2 -19.2 --- --- 12.2 ENE 0.20 13.0 -30.0 --- --- 730.8 0.026 0.000 19.2 3 1
02/28/06 11:18 a -19.2 -19.2 -19.3 --- --- 12.2 NE 0.20 12.2 -30.0 --- --- 730.7 0.026 0.000 19.2 2 1
02/28/06 11:19 a -19.3 -19.3 -19.3 --- --- 11.3 ENE 0.19 12.2 -29.7 --- --- 730.7 0.026 0.000 19.2 3 1
02/28/06 11:20 a -19.3 -19.3 -19.3 --- --- 12.2 ENE 0.20 13.0 -30.1 --- --- 730.7 0.026 0.000 19.2 2 1
02/28/06 11:21 a -19.3 -19.3 -19.3 --- --- 12.2 ENE 0.20 13.9 -30.1 --- --- 730.6 0.026 0.000 19.2 3 1
02/28/06 11:22 a -19.3 -19.3 -19.3 --- --- 13.0 ENE 0.22 13.9 -30.4 --- --- 730.7 0.026 0.000 19.2 2 1
02/28/06 11:23 a -19.3 -19.3 -19.3 --- --- 13.0 ENE 0.22 14.8 -30.4 --- --- 730.8 0.026 0.000 19.2 2 1
02/28/06 11:24 a -19.3 -19.3 -19.3 --- --- 12.2 ENE 0.20 13.0 -30.2 --- --- 730.8 0.026 0.000 19.2 2 1
02/28/06 11:25 a -19.3 -19.3 -19.3 --- --- 12.2 ENE 0.20 13.9 -30.1 --- --- 730.8 0.026 0.000 19.2 2 1
02/28/06 11:26 a -19.3 -19.3 -19.3 --- --- 12.2 ENE 0.20 13.9 -30.2 --- --- 730.7 0.026 0.000 19.2 3 1
02/28/06 11:27 a -19.3 -19.3 -19.3 --- --- 12.2 ENE 0.20 13.9 -30.1 --- --- 730.8 0.026 0.000 19.2 2 1
02/28/06 11:28 a -19.3 -19.3 -19.3 --- --- 11.3 ENE 0.19 12.2 -29.8 --- --- 730.8 0.026 0.000 19.2 2 1
02/28/06 11:29 a -19.3 -19.3 -19.3 --- --- 12.2 ENE 0.20 15.7 -30.2 --- --- 730.7 0.026 0.000 19.2 3 1
02/28/06 11:30 a -19.3 -19.3 -19.3 --- --- 13.0 ENE 0.22 14.8 -30.5 --- --- 730.7 0.026 0.000 19.2 2 1
02/28/06 11:31 a -19.3 -19.3 -19.3 --- --- 12.2 ENE 0.20 13.9 -30.2 --- --- 730.7 0.026 0.000 19.2 2 1
02/28/06 11:32 a -19.3 -19.3 -19.3 --- --- 13.0 ENE 0.22 14.8 -30.5 --- --- 730.7 0.026 0.000 19.2 2 1
02/28/06 11:33 a -19.3 -19.3 -19.3 --- --- 13.0 ENE 0.22 15.7 -30.5 --- --- 730.7 0.026 0.000 19.2 3 1
02/28/06 11:34 a -19.3 -19.3 -19.3 --- --- 13.0 ENE 0.22 14.8 -30.5 --- --- 730.6 0.026 0.000 19.2 3 1
02/28/06 11:35 a -19.3 -19.3 -19.3 --- --- 12.2 E 0.20 14.8 -30.1 --- --- 730.7 0.026 0.000 19.2 2 1
02/28/06 11:36 a -19.3 -19.3 -19.3 --- --- 12.2 E 0.20 15.7 -30.1 --- --- 730.7 0.026 0.000 19.2 2 1
02/28/06 11:37 a -19.3 -19.3 -19.3 --- --- 12.2 ENE 0.20 14.8 -30.1 --- --- 730.6 0.026 0.000 19.2 2 1
02/28/06 11:38 a -19.3 -19.3 -19.3 --- --- 13.9 E 0.23 15.7 -30.8 --- --- 730.6 0.026 0.000 19.2 2 1
02/28/06 11:39 a -19.3 -19.3 -19.3 --- --- 13.0 ENE 0.22 14.8 -30.4 --- --- 730.7 0.026 0.000 19.2 2 1
02/28/06 11:40 a -19.3 -19.3 -19.3 --- --- 13.9 ENE 0.23 15.7 -30.7 --- --- 730.7 0.026 0.000 19.2 3 1
02/28/06 11:41 a -19.3 -19.3 -19.3 --- --- 13.0 E 0.22 15.7 -30.4 --- --- 730.7 0.026 0.000 19.2 2 1
02/28/06 11:42 a -19.3 -19.3 -19.3 --- --- 13.0 ENE 0.22 13.9 -30.4 --- --- 730.7 0.026 0.000 19.2 3 1
02/28/06 11:43 a -19.3 -19.3 -19.3 --- --- 12.2 E 0.20 14.8 -30.1 --- --- 730.6 0.026 0.000 19.2 2 1
02/28/06 11:44 a -19.3 -19.3 -19.3 --- --- 12.2 E 0.20 14.8 -30.1 --- --- 730.6 0.026 0.000 19.2 2 1
02/28/06 11:45 a -19.3 -19.2 -19.3 --- --- 13.9 E 0.23 17.4 -30.7 --- --- 730.6 0.026 0.000 19.2 2 1
02/28/06 11:46 a -19.3 -19.3 -19.3 --- --- 13.9 E 0.23 16.5 -30.7 --- --- 730.6 0.026 0.000 19.2 2 1
02/28/06 11:47 a -19.3 -19.2 -19.3 --- --- 13.0 E 0.22 15.7 -30.4 --- --- 730.6 0.026 0.000 19.2 3 1
02/28/06 11:48 a -19.3 -19.2 -19.3 --- --- 13.0 E 0.22 14.8 -30.4 --- --- 730.6 0.026 0.000 19.2 2 1
02/28/06 11:49 a -19.2 -19.2 -19.2 --- --- 14.8 E 0.25 16.5 -31.0 --- --- 730.6 0.026 0.000 19.2 3 1
02/28/06 11:50 a -19.2 -19.2 -19.2 --- --- 12.2 E 0.20 14.8 -30.0 --- --- 730.7 0.026 0.000 19.2 2 1
02/28/06 11:51 a -19.2 -19.2 -19.2 --- --- 12.2 E 0.20 14.8 -30.0 --- --- 730.5 0.026 0.000 19.2 2 1
02/28/06 11:52 a -19.2 -19.2 -19.2 --- --- 10.4 E 0.17 13.0 -29.2 --- --- 730.5 0.026 0.000 19.2 2 1
02/28/06 11:53 a -19.2 -19.2 -19.2 --- --- 12.2 E 0.20 15.7 -30.0 --- --- 730.6 0.026 0.000 19.2 2 1
02/28/06 11:54 a -19.2 -19.2 -19.2 --- --- 11.3 E 0.19 13.9 -29.6 --- --- 730.5 0.026 0.000 19.2 2 1
02/28/06 11:55 a -19.2 -19.2 -19.2 --- --- 11.3 E 0.19 13.0 -29.6 --- --- 730.6 0.026 0.000 19.2 2 1
02/28/06 11:56 a -19.2 -19.2 -19.2 --- --- 11.3 E 0.19 13.9 -29.6 --- --- 730.5 0.026 0.000 19.2 2 1
02/28/06 11:57 a -19.2 -19.2 -19.2 --- --- 11.3 E 0.19 13.9 -29.6 --- --- 730.5 0.026 0.000 19.2 2 1
02/28/06 11:58 a -19.2 -19.2 -19.2 --- --- 9.6 E 0.16 12.2 -28.8 --- --- 730.6 0.026 0.000 19.3 2 1
02/28/06 11:59 a -19.2 -19.2 -19.2 --- --- 10.4 E 0.17 12.2 -29.2 --- --- 730.6 0.026 0.000 19.3 2 1
02/28/06 12:00 p -19.2 -19.2 -19.2 --- --- 12.2 E 0.20 14.8 -30.0 --- --- 730.5 0.026 0.000 19.3 2 1
02/28/06 12:01 p -19.2 -19.2 -19.2 --- --- 10.4 ESE 0.17 13.0 -29.2 --- --- 730.6 0.026 0.000 19.3 2 1
02/28/06 12:02 p -19.2 -19.2 -19.2 --- --- 10.4 E 0.17 14.8 -29.2 --- --- 730.5 0.026 0.000 19.3 2 1
02/28/06 12:03 p -19.2 -19.2 -19.2 --- --- 12.2 E 0.20 15.7 -30.0 --- --- 730.4 0.026 0.000 19.3 3 1
02/28/06 12:04 p -19.2 -19.2 -19.2 --- --- 12.2 E 0.20 13.9 -30.0 --- --- 730.4 0.026 0.000 19.2 2 1
02/28/06 12:05 p -19.2 -19.2 -19.2 --- --- 11.3 E 0.19 14.8 -29.6 --- --- 730.4 0.026 0.000 19.3 2 1
02/28/06 12:06 p -19.2 -19.2 -19.2 --- --- 11.3 E 0.19 13.9 -29.6 --- --- 730.4 0.026 0.000 19.3 2 1
02/28/06 12:07 p -19.2 -19.2 -19.2 --- --- 11.3 E 0.19 15.7 -29.6 --- --- 730.3 0.026 0.000 19.3 2 1
02/28/06 12:08 p -19.2 -19.2 -19.2 --- --- 13.0 E 0.22 16.5 -30.3 --- --- 730.4 0.026 0.000 19.3 2 1
02/28/06 12:09 p -19.3 -19.2 -19.3 --- --- 12.2 E 0.20 15.7 -30.1 --- --- 730.4 0.026 0.000 19.3 2 1
02/28/06 12:10 p -19.2 -19.2 -19.3 --- --- 12.2 E 0.20 15.7 -30.0 --- --- 730.4 0.026 0.000 19.2 2 1
02/28/06 12:11 p -19.2 -19.2 -19.2 --- --- 13.0 E 0.22 15.7 -30.3 --- --- 730.4 0.026 0.000 19.2 2 1
02/28/06 12:12 p -19.3 -19.2 -19.3 --- --- 13.0 ESE 0.22 16.5 -30.4 --- --- 730.4 0.026 0.000 19.2 2 1
02/28/06 12:13 p -19.3 -19.3 -19.3 --- --- 13.0 E 0.22 16.5 -30.4 --- --- 730.5 0.026 0.000 19.2 2 1
02/28/06 12:14 p -19.3 -19.3 -19.3 --- --- 11.3 E 0.19 14.8 -29.7 --- --- 730.3 0.026 0.000 19.2 3 1
02/28/06 12:15 p -19.3 -19.3 -19.3 --- --- 12.2 E 0.20 15.7 -30.1 --- --- 730.4 0.026 0.000 19.2 2 1
02/28/06 12:16 p -19.3 -19.3 -19.3 --- --- 12.2 E 0.20 13.9 -30.1 --- --- 730.5 0.026 0.000 19.2 2 1
02/28/06 12:17 p -19.3 -19.3 -19.3 --- --- 12.2 E 0.20 15.7 -30.2 --- --- 730.5 0.026 0.000 19.2 2 1
02/28/06 12:18 p -19.3 -19.3 -19.3 --- --- 12.2 E 0.20 13.9 -30.2 --- --- 730.4 0.026 0.000 19.2 2 1
02/28/06 12:19 p -19.3 -19.3 -19.3 --- --- 13.0 E 0.22 17.4 -30.5 --- --- 730.4 0.026 0.000 19.2 2 1
02/28/06 12:20 p -19.3 -19.3 -19.3 --- --- 12.2 E 0.20 16.5 -30.2 --- --- 730.5 0.026 0.000 19.2 2 1
02/28/06 12:21 p -19.3 -19.3 -19.3 --- --- 12.2 E 0.20 14.8 -30.2 --- --- 730.5 0.026 0.000 19.2 2 1
02/28/06 12:22 p -19.3 -19.3 -19.3 --- --- 11.3 E 0.19 13.9 -29.8 --- --- 730.5 0.026 0.000 19.2 2 1
02/28/06 12:23 p -19.3 -19.3 -19.4 --- --- 13.0 E 0.22 16.5 -30.5 --- --- 730.4 0.026 0.000 19.2 3 1
02/28/06 12:24 p -19.3 -19.3 -19.4 --- --- 12.2 E 0.20 15.7 -30.2 --- --- 730.4 0.026 0.000 19.2 2 1
02/28/06 12:25 p -19.4 -19.3 -19.4 --- --- 13.0 E 0.22 16.5 -30.6 --- --- 730.4 0.026 0.000 19.2 2 1
02/28/06 12:26 p -19.4 -19.4 -19.4 --- --- 13.0 E 0.22 16.5 -30.6 --- --- 730.4 0.026 0.000 19.2 2 1
02/28/06 12:27 p -19.4 -19.4 -19.4 --- --- 13.0 E 0.22 15.7 -30.6 --- --- 730.4 0.026 0.000 19.2 2 1
02/28/06 12:28 p -19.4 -19.4 -19.4 --- --- 13.9 E 0.23 16.5 -30.9 --- --- 730.5 0.026 0.000 19.2 2 1
02/28/06 12:29 p -19.4 -19.4 -19.4 --- --- 14.8 E 0.25 17.4 -31.2 --- --- 730.5 0.026 0.000 19.2 2 1
02/28/06 12:30 p -19.4 -19.4 -19.4 --- --- 14.8 E 0.25 18.3 -31.2 --- --- 730.4 0.026 0.000 19.2 2 1
02/28/06 12:31 p -19.4 -19.4 -19.4 --- --- 13.0 E 0.22 15.7 -30.6 --- --- 730.4 0.026 0.000 19.2 2 1
02/28/06 12:32 p -19.4 -19.4 -19.4 --- --- 13.9 E 0.23 17.4 -30.9 --- --- 730.4 0.026 0.000 19.2 2 1
02/28/06 12:33 p -19.4 -19.4 -19.4 --- --- 13.9 E 0.23 18.3 -30.9 --- --- 730.3 0.026 0.000 19.2 2 1
02/28/06 12:34 p -19.4 -19.4 -19.4 --- --- 14.8 E 0.25 20.0 -31.3 --- --- 730.4 0.026 0.000 19.2 2 1
02/28/06 12:35 p -19.4 -19.4 -19.4 --- --- 15.7 E 0.26 18.3 -31.6 --- --- 730.5 0.026 0.000 19.2 2 1
02/28/06 12:36 p -19.4 -19.4 -19.4 --- --- 15.7 E 0.26 19.1 -31.6 --- --- 730.5 0.026 0.000 19.2 2 1
02/28/06 12:37 p -19.4 -19.4 -19.5 --- --- 14.8 E 0.25 19.1 -31.3 --- --- 730.4 0.026 0.000 19.2 2 1
02/28/06 12:38 p -19.4 -19.4 -19.5 --- --- 16.5 E 0.28 19.1 -31.8 --- --- 730.5 0.026 0.000 19.2 2 1
02/28/06 12:39 p -19.4 -19.4 -19.4 --- --- 13.9 E 0.23 17.4 -30.9 --- --- 730.5 0.026 0.000 19.2 2 1
02/28/06 12:40 p -19.5 -19.4 -19.5 --- --- 14.8 E 0.25 18.3 -31.3 --- --- 730.4 0.026 0.000 19.2 2 1
02/28/06 12:41 p -19.4 -19.4 -19.5 --- --- 13.9 E 0.23 18.3 -30.9 --- --- 730.6 0.026 0.000 19.2 2 1
02/28/06 12:42 p -19.5 -19.4 -19.5 --- --- 13.9 E 0.23 17.4 -31.1 --- --- 730.5 0.026 0.000 19.2 2 1
02/28/06 12:43 p -19.5 -19.5 -19.5 --- --- 14.8 E 0.25 19.1 -31.3 --- --- 730.5 0.026 0.000 19.2 2 1
02/28/06 12:44 p -19.5 -19.5 -19.5 --- --- 16.5 E 0.28 20.0 -31.9 --- --- 730.5 0.026 0.000 19.2 2 1
02/28/06 12:45 p -19.5 -19.5 -19.5 --- --- 14.8 E 0.25 20.0 -31.3 --- --- 730.5 0.026 0.000 19.2 2 1
02/28/06 12:46 p -19.5 -19.5 -19.5 --- --- 14.8 E 0.25 19.1 -31.3 --- --- 730.5 0.026 0.000 19.2 2 1
02/28/06 12:47 p -19.5 -19.5 -19.5 --- --- 14.8 E 0.25 17.4 -31.3 --- --- 730.6 0.026 0.000 19.2 2 1
02/28/06 12:48 p -19.5 -19.5 -19.5 --- --- 14.8 E 0.25 18.3 -31.3 --- --- 730.6 0.026 0.000 19.2 2 1
02/28/06 12:49 p -19.5 -19.5 -19.5 --- --- 14.8 E 0.25 17.4 -31.3 --- --- 730.6 0.026 0.000 19.2 2 1
02/28/06 12:50 p -19.5 -19.5 -19.5 --- --- 14.8 E 0.25 17.4 -31.3 --- --- 730.6 0.026 0.000 19.2 2 1
02/28/06 12:51 p -19.5 -19.5 -19.6 --- --- 14.8 E 0.25 19.1 -31.3 --- --- 730.5 0.026 0.000 19.2 2 1
02/28/06 12:52 p -19.5 -19.5 -19.6 --- --- 16.5 E 0.28 20.0 -31.9 --- --- 730.5 0.026 0.000 19.2 2 1
02/28/06 12:53 p -19.6 -19.5 -19.6 --- --- 16.5 E 0.28 20.9 -32.0 --- --- 730.5 0.026 0.000 19.2 2 1
02/28/06 12:54 p -19.6 -19.6 -19.6 --- --- 14.8 E 0.25 18.3 -31.4 --- --- 730.5 0.026 0.000 19.2 2 1
02/28/06 12:55 p -19.6 -19.6 -19.6 --- --- 15.7 E 0.26 19.1 -31.7 --- --- 730.5 0.026 0.000 19.2 2 1
02/28/06 12:56 p -19.6 -19.6 -19.6 --- --- 18.3 E 0.30 22.6 -32.6 --- --- 730.5 0.026 0.000 19.2 2 1
02/28/06 12:57 p -19.6 -19.6 -19.6 --- --- 17.4 E 0.29 20.0 -32.3 --- --- 730.5 0.026 0.000 19.2 2 1
02/28/06 12:58 p -19.6 -19.6 -19.6 --- --- 16.5 E 0.28 20.0 -32.0 --- --- 730.6 0.026 0.000 19.2 2 1
02/28/06 12:59 p -19.6 -19.6 -19.6 --- --- 17.4 E 0.29 21.7 -32.3 --- --- 730.5 0.026 0.000 19.2 2 1
02/28/06 1:00 p -19.6 -19.6 -19.7 --- --- 20.0 E 0.33 22.6 -33.1 --- --- 730.4 0.026 0.000 19.2 2 1
02/28/06 1:01 p -19.7 -19.7 -19.7 --- --- 20.9 E 0.35 24.3 -33.4 --- --- 730.5 0.026 0.000 19.2 2 1
02/28/06 1:02 p -19.7 -19.7 -19.7 --- --- 17.4 E 0.29 24.3 -32.4 --- --- 730.6 0.026 0.000 19.2 2 1
02/28/06 1:03 p -19.7 -19.7 -19.7 --- --- 20.0 ENE 0.33 23.5 -33.2 --- --- 730.6 0.026 0.000 19.2 2 1
02/28/06 1:04 p -19.7 -19.7 -19.7 --- --- 19.1 E 0.32 23.5 -33.0 --- --- 730.3 0.026 0.000 19.2 2 1
02/28/06 1:05 p -19.7 -19.7 -19.7 --- --- 19.1 E 0.32 23.5 -33.0 --- --- 730.4 0.026 0.000 19.2 2 1
02/28/06 1:06 p -19.8 -19.8 -19.8 --- --- 20.0 E 0.33 24.3 -33.3 --- --- 730.6 0.026 0.000 19.2 2 1
02/28/06 1:07 p -19.8 -19.8 -19.8 --- --- 15.7 E 0.26 18.3 -32.0 --- --- 730.6 0.026 0.000 19.2 2 1
02/28/06 1:08 p -19.8 -19.8 -19.8 --- --- 20.0 E 0.33 27.0 -33.3 --- --- 730.4 0.026 0.000 19.2 2 1
02/28/06 1:09 p -19.8 -19.8 -19.8 --- --- 22.6 E 0.38 27.0 -34.1 --- --- 730.5 0.027 0.000 19.2 2 1
02/28/06 1:10 p -19.8 -19.8 -19.8 --- --- 21.7 E 0.36 27.0 -33.8 --- --- 730.6 0.027 0.000 19.2 2 1
02/28/06 1:11 p -19.8 -19.8 -19.8 --- --- 17.4 E 0.29 21.7 -32.6 --- --- 730.6 0.027 0.000 19.2 2 1
02/28/06 1:12 p -19.8 -19.8 -19.9 --- --- 16.5 E 0.28 20.0 -32.4 --- --- 730.6 0.027 0.000 19.2 2 1
02/28/06 1:13 p -19.9 -19.9 -19.9 --- --- 19.1 E 0.32 20.9 -33.2 --- --- 730.6 0.027 0.000 19.2 2 1
02/28/06 1:14 p -19.9 -19.9 -19.9 --- --- 19.1 E 0.32 23.5 -33.2 --- --- 730.6 0.027 0.000 19.2 2 1
02/28/06 1:15 p -19.9 -19.9 -19.9 --- --- 20.9 E 0.35 23.5 -33.8 --- --- 730.5 0.027 0.000 19.2 2 1
02/28/06 1:16 p -19.9 -19.9 -20.0 --- --- 22.6 E 0.38 27.0 -34.2 --- --- 730.5 0.027 0.000 19.2 2 1
02/28/06 1:17 p -20.0 -19.9 -20.0 --- --- 22.6 E 0.38 27.0 -34.3 --- --- 730.5 0.027 0.000 19.2 2 1
02/28/06 1:18 p -20.0 -19.9 -20.0 --- --- 20.0 E 0.33 23.5 -33.6 --- --- 730.7 0.027 0.000 19.2 2 1
02/28/06 1:19 p -20.0 -20.0 -20.0 --- --- 16.5 E 0.28 21.7 -32.6 --- --- 730.5 0.027 0.000 19.2 2 1
02/28/06 1:20 p -20.0 -20.0 -20.0 --- --- 17.4 E 0.29 23.5 -32.8 --- --- 730.5 0.027 0.000 19.2 2 1
02/28/06 1:21 p -20.0 -20.0 -20.1 --- --- 22.6 E 0.38 26.1 -34.3 --- --- 730.5 0.027 0.000 19.2 2 1
02/28/06 1:22 p -20.1 -20.0 -20.1 --- --- 21.7 E 0.36 25.2 -34.2 --- --- 730.6 0.027 0.000 19.2 2 1
02/28/06 1:23 p -20.1 -20.1 -20.1 --- --- 20.0 E 0.33 24.3 -33.7 --- --- 730.5 0.027 0.000 19.2 2 1
02/28/06 1:24 p -20.1 -20.1 -20.1 --- --- 19.1 E 0.32 25.2 -33.4 --- --- 730.5 0.027 0.000 19.2 2 1
02/28/06 1:25 p -20.1 -20.1 -20.1 --- --- 19.1 E 0.32 24.3 -33.4 --- --- 730.5 0.027 0.000 19.2 2 1
02/28/06 1:26 p -20.1 -20.1 -20.1 --- --- 20.9 E 0.35 23.5 -34.0 --- --- 730.4 0.027 0.000 19.2 2 1
02/28/06 1:27 p -20.1 -20.1 -20.1 --- --- 20.9 E 0.35 24.3 -34.0 --- --- 730.4 0.027 0.000 19.2 2 1
02/28/06 1:28 p -20.2 -20.1 -20.2 --- --- 21.7 E 0.36 27.0 -34.3 --- --- 730.5 0.027 0.000 19.2 2 1
02/28/06 1:29 p -20.1 -20.1 -20.2 --- --- 20.9 E 0.35 24.3 -34.0 --- --- 730.4 0.027 0.000 19.2 2 1
02/28/06 1:30 p -20.2 -20.1 -20.2 --- --- 19.1 E 0.32 23.5 -33.6 --- --- 730.5 0.027 0.000 19.2 2 1
02/28/06 1:31 p -20.2 -20.1 -20.2 --- --- 20.0 E 0.33 23.5 -33.8 --- --- 730.4 0.027 0.000 19.2 2 1
02/28/06 1:32 p -20.2 -20.2 -20.2 --- --- 20.0 E 0.33 23.5 -33.8 --- --- 730.4 0.027 0.000 19.2 2 1
02/28/06 1:33 p -20.2 -20.2 -20.2 --- --- 20.9 E 0.35 29.6 -34.1 --- --- 730.4 0.027 0.000 19.2 2 1
02/28/06 1:34 p -20.2 -20.2 -20.2 --- --- 22.6 E 0.38 25.2 -34.5 --- --- 730.3 0.027 0.000 19.2 2 1
02/28/06 1:35 p -20.2 -20.2 -20.2 --- --- 19.1 E 0.32 24.3 -33.6 --- --- 730.5 0.027 0.000 19.2 2 1
02/28/06 1:36 p -20.2 -20.2 -20.2 --- --- 19.1 E 0.32 24.3 -33.6 --- --- 730.3 0.027 0.000 19.2 2 1
02/28/06 1:37 p -20.2 -20.2 -20.2 --- --- 23.5 E 0.39 29.6 -34.7 --- --- 730.2 0.027 0.000 19.3 2 1
02/28/06 1:38 p -20.2 -20.2 -20.2 --- --- 20.9 E 0.35 24.3 -34.2 --- --- 730.4 0.027 0.000 19.3 2 1
02/28/06 1:39 p -20.2 -20.2 -20.2 --- --- 20.9 E 0.35 26.1 -34.1 --- --- 730.4 0.027 0.000 19.3 2 1
02/28/06 1:40 p -20.2 -20.2 -20.2 --- --- 21.7 E 0.36 26.1 -34.4 --- --- 730.3 0.027 0.000 19.3 2 1
02/28/06 1:41 p -20.2 -20.2 -20.2 --- --- 21.7 E 0.36 27.0 -34.4 --- --- 730.2 0.027 0.000 19.3 2 1
02/28/06 1:42 p -20.2 -20.2 -20.2 --- --- 22.6 E 0.38 25.2 -34.6 --- --- 730.4 0.027 0.000 19.3 2 1
02/28/06 1:43 p -20.2 -20.2 -20.2 --- --- 22.6 E 0.38 26.1 -34.6 --- --- 730.3 0.027 0.000 19.2 2 1
02/28/06 1:44 p -20.2 -20.2 -20.2 --- --- 22.6 E 0.38 27.8 -34.6 --- --- 730.4 0.027 0.000 19.2 2 1
02/28/06 1:45 p -20.2 -20.2 -20.2 --- --- 20.9 E 0.35 25.2 -34.2 --- --- 730.3 0.027 0.000 19.3 2 1
02/28/06 1:46 p -20.2 -20.2 -20.2 --- --- 24.3 E 0.41 30.4 -35.0 --- --- 730.2 0.027 0.000 19.3 2 1
02/28/06 1:47 p -20.2 -20.2 -20.2 --- --- 23.5 E 0.39 28.7 -34.8 --- --- 730.3 0.027 0.000 19.3 2 1
02/28/06 1:48 p -20.2 -20.2 -20.2 --- --- 20.9 E 0.35 25.2 -34.2 --- --- 730.3 0.027 0.000 19.3 2 1
02/28/06 1:49 p -20.2 -20.2 -20.2 --- --- 22.6 E 0.38 28.7 -34.6 --- --- 730.2 0.027 0.000 19.3 2 1
02/28/06 1:50 p -20.2 -20.2 -20.3 --- --- 22.6 E 0.38 29.6 -34.6 --- --- 730.2 0.027 0.000 19.2 2 1
02/28/06 1:51 p -20.2 -20.2 -20.2 --- --- 22.6 ESE 0.38 25.2 -34.6 --- --- 730.3 0.027 0.000 19.3 2 1
02/28/06 1:52 p -20.2 -20.2 -20.3 --- --- 21.7 E 0.36 25.2 -34.4 --- --- 730.5 0.027 0.000 19.2 2 1
02/28/06 1:53 p -20.3 -20.2 -20.3 --- --- 20.0 E 0.33 26.1 -34.0 --- --- 730.3 0.027 0.000 19.2 2 1
02/28/06 1:54 p -20.2 -20.2 -20.3 --- --- 25.2 E 0.42 30.4 -35.2 --- --- 730.3 0.027 0.000 19.2 2 1
02/28/06 1:55 p -20.2 -20.2 -20.2 --- --- 23.5 E 0.39 30.4 -34.8 --- --- 730.4 0.027 0.000 19.2 2 1
02/28/06 1:56 p -20.2 -20.2 -20.2 --- --- 23.5 E 0.39 28.7 -34.8 --- --- 730.5 0.027 0.000 19.2 2 1
02/28/06 1:57 p -20.2 -20.2 -20.2 --- --- 22.6 ESE 0.38 26.1 -34.6 --- --- 730.5 0.027 0.000 19.2 2 1
02/28/06 1:58 p -20.2 -20.2 -20.2 --- --- 22.6 E 0.38 28.7 -34.6 --- --- 730.2 0.027 0.000 19.2 2 1
02/28/06 1:59 p -20.2 -20.2 -20.2 --- --- 26.1 E 0.43 29.6 -35.4 --- --- 730.2 0.027 0.000 19.2 2 1
02/28/06 2:00 p -20.2 -20.2 -20.2 --- --- 23.5 E 0.39 29.6 -34.8 --- --- 730.4 0.027 0.000 19.2 2 1
02/28/06 2:01 p -20.2 -20.2 -20.2 --- --- 22.6 E 0.38 28.7 -34.6 --- --- 730.3 0.027 0.000 19.2 2 1
02/28/06 2:02 p -20.2 -20.2 -20.2 --- --- 23.5 E 0.39 29.6 -34.8 --- --- 730.3 0.027 0.000 19.2 2 1
02/28/06 2:03 p -20.2 -20.2 -20.2 --- --- 23.5 E 0.39 28.7 -34.8 --- --- 730.4 0.027 0.000 19.2 2 1
02/28/06 2:04 p -20.2 -20.2 -20.2 --- --- 22.6 E 0.38 27.0 -34.6 --- --- 730.4 0.027 0.000 19.2 2 1
02/28/06 2:05 p -20.2 -20.2 -20.2 --- --- 22.6 E 0.38 27.8 -34.6 --- --- 730.4 0.027 0.000 19.2 2 1
02/28/06 2:06 p -20.2 -20.2 -20.2 --- --- 22.6 E 0.38 27.8 -34.6 --- --- 730.4 0.027 0.000 19.2 2 1
02/28/06 2:07 p -20.2 -20.2 -20.2 --- --- 22.6 E 0.38 29.6 -34.6 --- --- 730.3 0.027 0.000 19.2 2 1
02/28/06 2:08 p -20.2 -20.2 -20.2 --- --- 22.6 E 0.38 30.4 -34.6 --- --- 730.4 0.027 0.000 19.2 2 1
02/28/06 2:09 p -20.2 -20.2 -20.2 --- --- 21.7 E 0.36 26.1 -34.4 --- --- 730.4 0.027 0.000 19.2 2 1
02/28/06 2:10 p -20.2 -20.2 -20.2 --- --- 21.7 E 0.36 25.2 -34.4 --- --- 730.5 0.027 0.000 19.2 2 1
02/28/06 2:11 p -20.2 -20.2 -20.2 --- --- 20.9 E 0.35 24.3 -34.2 --- --- 730.4 0.027 0.000 19.1 2 1
02/28/06 2:12 p -20.2 -20.2 -20.2 --- --- 24.3 E 0.41 28.7 -35.0 --- --- 730.2 0.027 0.000 19.1 2 1
02/28/06 2:13 p -20.2 -20.2 -20.2 --- --- 26.1 E 0.43 30.4 -35.4 --- --- 730.5 0.027 0.000 19.1 2 1
02/28/06 2:14 p -20.2 -20.2 -20.2 --- --- 23.5 E 0.39 27.8 -34.8 --- --- 730.4 0.027 0.000 19.1 2 1
02/28/06 2:15 p -20.2 -20.2 -20.2 --- --- 26.1 E 0.43 29.6 -35.4 --- --- 730.4 0.027 0.000 19.1 2 1
02/28/06 2:16 p -20.2 -20.2 -20.2 --- --- 24.3 E 0.41 29.6 -35.0 --- --- 730.2 0.027 0.000 19.1 2 1
02/28/06 2:17 p -20.2 -20.2 -20.2 --- --- 23.5 E 0.39 27.8 -34.8 --- --- 730.3 0.027 0.000 19.1 2 1
02/28/06 2:18 p -20.2 -20.2 -20.2 --- --- 22.6 E 0.38 27.0 -34.6 --- --- 730.6 0.027 0.000 19.1 2 1
02/28/06 2:19 p -20.2 -20.2 -20.2 --- --- 21.7 E 0.36 25.2 -34.4 --- --- 730.4 0.027 0.000 19.1 2 1
02/28/06 2:20 p -20.2 -20.2 -20.2 --- --- 24.3 E 0.41 32.2 -35.0 --- --- 730.3 0.027 0.000 19.1 2 1
02/28/06 2:21 p -20.2 -20.2 -20.2 --- --- 25.2 E 0.42 29.6 -35.2 --- --- 730.3 0.027 0.000 19.1 2 1
02/28/06 2:22 p -20.2 -20.2 -20.2 --- --- 25.2 E 0.42 33.9 -35.2 --- --- 730.5 0.027 0.000 19.1 2 1
02/28/06 2:23 p -20.2 -20.2 -20.2 --- --- 24.3 E 0.41 28.7 -35.0 --- --- 730.6 0.027 0.000 19.1 2 1
02/28/06 2:24 p -20.2 -20.2 -20.2 --- --- 25.2 E 0.42 33.0 -35.2 --- --- 730.3 0.027 0.000 19.1 2 1
02/28/06 2:25 p -20.2 -20.2 -20.2 --- --- 26.1 E 0.43 32.2 -35.4 --- --- 730.4 0.027 0.000 19.1 2 1
02/28/06 2:26 p -20.2 -20.2 -20.2 --- --- 26.1 E 0.43 29.6 -35.4 --- --- 730.4 0.027 0.000 19.1 2 1
02/28/06 2:27 p -20.2 -20.2 -20.2 --- --- 26.1 E 0.43 31.3 -35.4 --- --- 730.4 0.027 0.000 19.1 2 1
02/28/06 2:28 p -20.2 -20.2 -20.2 --- --- 23.5 E 0.39 27.8 -34.8 --- --- 730.3 0.027 0.000 19.1 2 1
02/28/06 2:29 p -20.2 -20.2 -20.2 --- --- 24.3 E 0.41 27.0 -35.0 --- --- 730.5 0.027 0.000 19.1 2 1
02/28/06 2:30 p -20.2 -20.2 -20.2 --- --- 22.6 E 0.38 28.7 -34.6 --- --- 730.5 0.027 0.000 19.1 2 1
02/28/06 2:31 p -20.2 -20.2 -20.2 --- --- 23.5 E 0.39 30.4 -34.8 --- --- 730.4 0.027 0.000 19.1 2 1
02/28/06 2:32 p -20.2 -20.2 -20.2 --- --- 26.1 E 0.43 29.6 -35.4 --- --- 730.2 0.027 0.000 19.1 2 1
02/28/06 2:33 p -20.2 -20.2 -20.2 --- --- 27.0 E 0.45 35.7 -35.6 --- --- 730.2 0.027 0.000 19.1 2 1
02/28/06 2:34 p -20.2 -20.2 -20.2 --- --- 24.3 E 0.41 29.6 -35.0 --- --- 730.3 0.027 0.000 19.1 2 1
02/28/06 2:35 p -20.2 -20.2 -20.2 --- --- 24.3 E 0.41 28.7 -35.0 --- --- 730.3 0.027 0.000 19.1 2 1
02/28/06 2:36 p -20.2 -20.2 -20.2 --- --- 27.0 E 0.45 33.0 -35.6 --- --- 730.2 0.027 0.000 19.1 2 1
02/28/06 2:37 p -20.2 -20.2 -20.2 --- --- 22.6 E 0.38 27.8 -34.5 --- --- 730.1 0.027 0.000 19.1 2 1
02/28/06 2:38 p -20.2 -20.2 -20.2 --- --- 27.0 E 0.45 32.2 -35.5 --- --- 730.2 0.027 0.000 19.1 2 1
02/28/06 2:39 p -20.2 -20.2 -20.2 --- --- 24.3 E 0.41 27.8 -34.9 --- --- 730.4 0.027 0.000 19.1 2 1
02/28/06 2:40 p -20.2 -20.2 -20.2 --- --- 25.2 E 0.42 31.3 -35.2 --- --- 730.4 0.027 0.000 19.1 2 1
02/28/06 2:41 p -20.2 -20.2 -20.2 --- --- 27.8 E 0.46 30.4 -35.7 --- --- 730.3 0.027 0.000 19.1 2 1
02/28/06 2:42 p -20.2 -20.2 -20.2 --- --- 25.2 E 0.42 31.3 -35.2 --- --- 730.3 0.027 0.000 19.1 2 1
02/28/06 2:43 p -20.2 -20.2 -20.2 --- --- 27.0 E 0.45 29.6 -35.5 --- --- 730.4 0.027 0.000 19.1 2 1
02/28/06 2:44 p -20.2 -20.2 -20.2 --- --- 25.2 E 0.42 32.2 -35.2 --- --- 730.2 0.027 0.000 19.1 2 1
02/28/06 2:45 p -20.2 -20.1 -20.2 --- --- 24.3 E 0.41 27.8 -34.9 --- --- 730.2 0.027 0.000 19.1 2 1
02/28/06 2:46 p -20.2 -20.2 -20.2 --- --- 25.2 E 0.42 29.6 -35.2 --- --- 730.3 0.027 0.000 19.1 2 1
02/28/06 2:47 p -20.2 -20.2 -20.2 --- --- 26.1 E 0.43 31.3 -35.3 --- --- 730.2 0.027 0.000 19.1 2 1
02/28/06 2:48 p -20.2 -20.1 -20.2 --- --- 25.2 E 0.42 31.3 -35.2 --- --- 730.3 0.027 0.000 19.1 2 1
02/28/06 2:49 p -20.1 -20.1 -20.1 --- --- 26.1 E 0.43 31.3 -35.3 --- --- 730.3 0.027 0.000 19.1 2 1
02/28/06 2:50 p -20.1 -20.1 -20.2 --- --- 26.1 E 0.43 33.0 -35.3 --- --- 730.3 0.027 0.000 19.1 2 1
02/28/06 2:51 p -20.1 -20.1 -20.1 --- --- 26.1 E 0.43 28.7 -35.3 --- --- 730.4 0.027 0.000 19.1 2 1
02/28/06 2:52 p -20.1 -20.1 -20.1 --- --- 25.2 E 0.42 32.2 -35.1 --- --- 730.4 0.027 0.000 19.1 2 1
02/28/06 2:53 p -20.1 -20.1 -20.1 --- --- 26.1 E 0.43 32.2 -35.3 --- --- 730.2 0.027 0.000 19.1 2 1
02/28/06 2:54 p -20.1 -20.1 -20.1 --- --- 26.1 E 0.43 31.3 -35.3 --- --- 730.3 0.027 0.000 19.1 2 1
02/28/06 2:55 p -20.1 -20.1 -20.1 --- --- 26.1 E 0.43 29.6 -35.2 --- --- 730.4 0.027 0.000 19.1 2 1
02/28/06 2:56 p -20.1 -20.1 -20.1 --- --- 24.3 ESE 0.41 30.4 -34.8 --- --- 730.2 0.027 0.000 19.1 2 1
02/28/06 2:57 p -20.1 -20.1 -20.1 --- --- 25.2 E 0.42 30.4 -35.1 --- --- 730.3 0.027 0.000 19.1 2 1
02/28/06 2:58 p -20.1 -20.1 -20.1 --- --- 26.1 E 0.43 29.6 -35.2 --- --- 730.3 0.027 0.000 19.0 2 1
02/28/06 2:59 p -20.1 -20.1 -20.1 --- --- 25.2 E 0.42 28.7 -35.0 --- --- 730.3 0.027 0.000 19.0 2 1
02/28/06 3:00 p -20.1 -20.1 -20.1 --- --- 27.8 E 0.46 32.2 -35.6 --- --- 730.2 0.027 0.000 19.0 2 1
02/28/06 3:01 p -20.1 -20.1 -20.1 --- --- 26.1 E 0.43 30.4 -35.2 --- --- 730.2 0.027 0.000 19.0 2 1
02/28/06 3:02 p -20.1 -20.1 -20.1 --- --- 28.7 E 0.48 33.0 -35.7 --- --- 730.2 0.027 0.000 19.0 2 1
02/28/06 3:03 p -20.1 -20.1 -20.1 --- --- 27.8 E 0.46 30.4 -35.6 --- --- 730.0 0.027 0.000 19.0 2 1
02/28/06 3:04 p -20.1 -20.1 -20.1 --- --- 28.7 E 0.48 33.0 -35.7 --- --- 730.2 0.027 0.000 18.9 2 1
02/28/06 3:05 p -20.1 -20.1 -20.1 --- --- 27.0 E 0.45 32.2 -35.4 --- --- 730.2 0.027 0.000 18.9 2 1
02/28/06 3:06 p -20.1 -20.1 -20.1 --- --- 26.1 E 0.43 30.4 -35.2 --- --- 730.2 0.027 0.000 18.9 2 1
02/28/06 3:07 p -20.1 -20.1 -20.1 --- --- 29.6 E 0.49 34.8 -35.9 --- --- 730.1 0.027 0.000 18.9 2 1
02/28/06 3:08 p -20.1 -20.1 -20.1 --- --- 27.8 E 0.46 35.7 -35.6 --- --- 730.1 0.027 0.000 18.9 2 1
02/28/06 3:09 p -20.1 -20.1 -20.1 --- --- 26.1 E 0.43 31.3 -35.2 --- --- 730.3 0.027 0.000 18.9 2 1
02/28/06 3:10 p -20.1 -20.1 -20.1 --- --- 29.6 E 0.49 32.2 -36.0 --- --- 730.0 0.027 0.000 18.9 2 1
02/28/06 3:11 p -20.1 -20.1 -20.1 --- --- 27.0 E 0.45 33.0 -35.4 --- --- 730.3 0.027 0.000 18.9 2 1
02/28/06 3:12 p -20.1 -20.1 -20.1 --- --- 27.8 E 0.46 31.3 -35.6 --- --- 730.1 0.027 0.000 18.9 2 1
02/28/06 3:13 p -20.1 -20.1 -20.1 --- --- 27.0 ESE 0.45 33.0 -35.4 --- --- 730.1 0.027 0.000 18.9 2 1
02/28/06 3:14 p -20.1 -20.1 -20.1 --- --- 29.6 E 0.49 36.5 -36.0 --- --- 730.1 0.027 0.000 18.9 2 1
02/28/06 3:15 p -20.1 -20.1 -20.2 --- --- 27.0 E 0.45 33.0 -35.4 --- --- 730.2 0.027 0.000 18.9 2 1
02/28/06 3:16 p -20.1 -20.1 -20.2 --- --- 27.0 E 0.45 32.2 -35.4 --- --- 730.2 0.027 0.000 18.9 2 1
02/28/06 3:17 p -20.1 -20.1 -20.2 --- --- 27.0 E 0.45 33.0 -35.4 --- --- 730.1 0.027 0.000 18.9 2 1
02/28/06 3:18 p -20.1 -20.1 -20.2 --- --- 27.0 E 0.45 30.4 -35.4 --- --- 730.1 0.027 0.000 18.9 2 1
02/28/06 3:19 p -20.2 -20.1 -20.2 --- --- 28.7 E 0.48 32.2 -35.9 --- --- 730.1 0.027 0.000 18.8 2 1
02/28/06 3:20 p -20.2 -20.1 -20.2 --- --- 27.0 E 0.45 32.2 -35.5 --- --- 730.2 0.027 0.000 18.8 2 1
02/28/06 3:21 p -20.2 -20.1 -20.2 --- --- 28.7 E 0.48 31.3 -35.9 --- --- 730.1 0.027 0.000 18.8 2 1
02/28/06 3:22 p -20.2 -20.1 -20.2 --- --- 27.8 E 0.46 34.8 -35.7 --- --- 730.0 0.027 0.000 18.9 2 1
02/28/06 3:23 p -20.2 -20.2 -20.2 --- --- 27.8 E 0.46 33.9 -35.7 --- --- 730.0 0.027 0.000 18.8 2 1
02/28/06 3:24 p -20.2 -20.2 -20.2 --- --- 27.0 ESE 0.45 31.3 -35.5 --- --- 730.2 0.027 0.000 18.8 2 1
02/28/06 3:25 p -20.2 -20.2 -20.2 --- --- 29.6 E 0.49 34.8 -36.1 --- --- 730.1 0.027 0.000 18.8 2 1
02/28/06 3:26 p -20.2 -20.2 -20.2 --- --- 27.8 E 0.46 31.3 -35.8 --- --- 730.2 0.027 0.000 18.8 2 1
02/28/06 3:27 p -20.2 -20.2 -20.2 --- --- 27.8 E 0.46 33.0 -35.8 --- --- 730.2 0.027 0.000 18.8 2 1
02/28/06 3:28 p -20.2 -20.2 -20.2 --- --- 27.8 E 0.46 31.3 -35.8 --- --- 730.1 0.027 0.000 18.8 2 1
02/28/06 3:29 p -20.2 -20.2 -20.3 --- --- 28.7 E 0.48 32.2 -35.9 --- --- 730.1 0.027 0.000 18.8 2 1
02/28/06 3:30 p -20.3 -20.2 -20.3 --- --- 27.8 E 0.46 32.2 -35.9 --- --- 730.1 0.027 0.000 18.8 2 1
02/28/06 3:31 p -20.2 -20.2 -20.3 --- --- 28.7 E 0.48 32.2 -35.9 --- --- 730.0 0.027 0.000 18.8 2 1
02/28/06 3:32 p -20.3 -20.2 -20.3 --- --- 28.7 E 0.48 35.7 -36.1 --- --- 730.0 0.027 0.000 18.8 2 1
02/28/06 3:33 p -20.3 -20.3 -20.3 --- --- 28.7 E 0.48 33.0 -36.1 --- --- 730.1 0.027 0.000 18.8 2 1
02/28/06 3:34 p -20.3 -20.3 -20.3 --- --- 28.7 E 0.48 41.7 -36.1 --- --- 730.0 0.027 0.000 18.8 2 1
02/28/06 3:35 p -20.3 -20.3 -20.3 --- --- 30.4 E 0.51 38.3 -36.4 --- --- 730.1 0.027 0.000 18.8 2 1
02/28/06 3:36 p -20.3 -20.3 -20.3 --- --- 30.4 E 0.51 36.5 -36.4 --- --- 730.3 0.027 0.000 18.8 2 1
02/28/06 3:37 p -20.3 -20.3 -20.3 --- --- 29.6 E 0.49 34.8 -36.2 --- --- 730.3 0.027 0.000 18.8 2 1
02/28/06 3:38 p -20.3 -20.3 -20.3 --- --- 32.2 E 0.54 38.3 -36.8 --- --- 730.0 0.027 0.000 18.8 2 1
02/28/06 3:39 p -20.3 -20.3 -20.3 --- --- 29.6 E 0.49 34.8 -36.3 --- --- 730.2 0.027 0.000 18.8 2 1
02/28/06 3:40 p -20.3 -20.3 -20.4 --- --- 31.3 E 0.52 34.8 -36.6 --- --- 730.1 0.027 0.000 18.8 2 1
02/28/06 3:41 p -20.4 -20.3 -20.4 --- --- 29.6 E 0.49 35.7 -36.4 --- --- 730.2 0.027 0.000 18.8 2 1
02/28/06 3:42 p -20.4 -20.4 -20.4 --- --- 29.6 E 0.49 38.3 -36.4 --- --- 730.0 0.027 0.000 18.8 2 1
02/28/06 3:43 p -20.4 -20.4 -20.4 --- --- 30.4 E 0.51 39.1 -36.6 --- --- 730.0 0.027 0.000 18.8 2 1
02/28/06 3:44 p -20.4 -20.4 -20.4 --- --- 31.3 E 0.52 36.5 -36.7 --- --- 730.0 0.027 0.000 18.8 2 1
02/28/06 3:45 p -20.4 -20.4 -20.4 --- --- 33.0 E 0.55 37.4 -37.1 --- --- 730.0 0.027 0.000 18.8 2 1
02/28/06 3:46 p -20.4 -20.4 -20.4 --- --- 33.0 E 0.55 39.1 -37.1 --- --- 729.9 0.027 0.000 18.8 2 1
02/28/06 3:47 p -20.4 -20.4 -20.4 --- --- 31.3 E 0.52 37.4 -36.8 --- --- 730.0 0.027 0.000 18.8 2 1
02/28/06 3:48 p -20.4 -20.4 -20.4 --- --- 29.6 E 0.49 34.8 -36.4 --- --- 730.2 0.027 0.000 18.8 2 1
02/28/06 3:49 p -20.4 -20.4 -20.4 --- --- 29.6 E 0.49 34.8 -36.4 --- --- 730.0 0.027 0.000 18.8 2 1
02/28/06 3:50 p -20.4 -20.4 -20.4 --- --- 31.3 E 0.52 36.5 -36.8 --- --- 730.0 0.027 0.000 18.8 2 1
02/28/06 3:51 p -20.4 -20.4 -20.4 --- --- 32.2 E 0.54 40.0 -36.9 --- --- 729.9 0.027 0.000 18.8 2 1
02/28/06 3:52 p -20.4 -20.4 -20.5 --- --- 31.3 E 0.52 37.4 -36.8 --- --- 730.1 0.027 0.000 18.8 2 1
02/28/06 3:53 p -20.4 -20.4 -20.4 --- --- 31.3 E 0.52 36.5 -36.8 --- --- 730.0 0.027 0.000 18.8 2 1
02/28/06 3:54 p -20.5 -20.4 -20.5 --- --- 29.6 E 0.49 36.5 -36.5 --- --- 730.1 0.027 0.000 18.8 2 1
02/28/06 3:55 p -20.5 -20.4 -20.5 --- --- 29.6 E 0.49 34.8 -36.5 --- --- 730.1 0.027 0.000 18.8 2 1
02/28/06 3:56 p -20.4 -20.4 -20.4 --- --- 30.4 E 0.51 36.5 -36.6 --- --- 730.1 0.027 0.000 18.8 2 1
02/28/06 3:57 p -20.5 -20.4 -20.5 --- --- 31.3 E 0.52 37.4 -36.9 --- --- 729.9 0.027 0.000 18.8 2 1
02/28/06 3:58 p -20.5 -20.4 -20.5 --- --- 28.7 E 0.48 33.9 -36.3 --- --- 729.9 0.027 0.000 18.8 2 1
02/28/06 3:59 p -20.5 -20.4 -20.5 --- --- 30.4 E 0.51 39.1 -36.7 --- --- 730.0 0.027 0.000 18.8 2 1
02/28/06 4:00 p -20.5 -20.4 -20.5 --- --- 32.2 E 0.54 36.5 -37.0 --- --- 730.0 0.027 0.000 18.8 2 1
02/28/06 4:01 p -20.5 -20.4 -20.5 --- --- 30.4 E 0.51 33.9 -36.7 --- --- 730.1 0.027 0.000 18.8 2 1
02/28/06 4:02 p -20.5 -20.5 -20.5 --- --- 31.3 E 0.52 36.5 -36.9 --- --- 730.0 0.027 0.000 18.8 2 1
02/28/06 4:03 p -20.5 -20.5 -20.5 --- --- 30.4 E 0.51 34.8 -36.7 --- --- 729.9 0.027 0.000 18.8 2 1
02/28/06 4:04 p -20.5 -20.5 -20.5 --- --- 30.4 E 0.51 36.5 -36.7 --- --- 730.1 0.027 0.000 18.8 2 1
02/28/06 4:05 p -20.5 -20.5 -20.5 --- --- 30.4 E 0.51 37.4 -36.7 --- --- 730.1 0.027 0.000 18.8 2 1
02/28/06 4:06 p -20.6 -20.5 -20.6 --- --- 31.3 E 0.52 37.4 -36.9 --- --- 730.0 0.027 0.000 18.8 2 1
02/28/06 4:07 p -20.6 -20.5 -20.6 --- --- 31.3 E 0.52 36.5 -36.9 --- --- 730.1 0.027 0.000 18.7 2 1
02/28/06 4:08 p -20.6 -20.6 -20.6 --- --- 29.6 E 0.49 33.9 -36.6 --- --- 730.0 0.027 0.000 18.8 2 1
02/28/06 4:09 p -20.6 -20.6 -20.6 --- --- 31.3 E 0.52 34.8 -36.9 --- --- 730.1 0.027 0.000 18.7 2 1
02/28/06 4:10 p -20.6 -20.6 -20.6 --- --- 30.4 E 0.51 35.7 -36.8 --- --- 730.1 0.027 0.000 18.7 2 1
02/28/06 4:11 p -20.6 -20.6 -20.6 --- --- 30.4 E 0.51 39.1 -36.8 --- --- 730.1 0.027 0.000 18.7 2 1
02/28/06 4:12 p -20.6 -20.6 -20.6 --- --- 28.7 E 0.48 33.9 -36.5 --- --- 730.1 0.027 0.000 18.7 2 1
02/28/06 4:13 p -20.6 -20.6 -20.6 --- --- 29.6 E 0.49 37.4 -36.7 --- --- 730.1 0.027 0.000 18.7 2 1
02/28/06 4:14 p -20.6 -20.6 -20.6 --- --- 32.2 E 0.54 39.1 -37.2 --- --- 730.0 0.027 0.000 18.7 2 1
02/28/06 4:15 p -20.6 -20.6 -20.7 --- --- 31.3 E 0.52 36.5 -37.0 --- --- 730.0 0.027 0.000 18.7 2 1
02/28/06 4:16 p -20.7 -20.7 -20.7 --- --- 31.3 E 0.52 37.4 -37.1 --- --- 730.0 0.027 0.000 18.7 2 1
02/28/06 4:17 p -20.7 -20.7 -20.7 --- --- 33.0 E 0.55 36.5 -37.4 --- --- 730.0 0.027 0.000 18.7 2 1
02/28/06 4:18 p -20.7 -20.7 -20.7 --- --- 33.0 E 0.55 38.3 -37.4 --- --- 730.1 0.027 0.000 18.7 2 1
02/28/06 4:19 p -20.7 -20.7 -20.7 --- --- 31.3 E 0.52 37.4 -37.1 --- --- 730.0 0.027 0.000 18.7 2 1
02/28/06 4:20 p -20.7 -20.7 -20.7 --- --- 31.3 E 0.52 37.4 -37.2 --- --- 730.1 0.027 0.000 18.7 2 1
02/28/06 4:21 p -20.7 -20.7 -20.8 --- --- 32.2 E 0.54 38.3 -37.3 --- --- 730.0 0.027 0.000 18.7 2 1
02/28/06 4:22 p -20.8 -20.8 -20.8 --- --- 33.0 E 0.55 38.3 -37.6 --- --- 730.1 0.027 0.000 18.6 2 1
02/28/06 4:23 p -20.8 -20.7 -20.8 --- --- 31.3 E 0.52 35.7 -37.2 --- --- 730.1 0.027 0.000 18.6 2 1
02/28/06 4:24 p -20.8 -20.8 -20.8 --- --- 32.2 E 0.54 38.3 -37.4 --- --- 730.1 0.027 0.000 18.6 2 1
02/28/06 4:25 p -20.8 -20.8 -20.8 --- --- 32.2 E 0.54 38.3 -37.4 --- --- 730.1 0.027 0.000 18.6 2 1
02/28/06 4:26 p -20.8 -20.8 -20.8 --- --- 31.3 E 0.52 39.1 -37.2 --- --- 730.1 0.027 0.000 18.6 2 1
02/28/06 4:27 p -20.8 -20.8 -20.8 --- --- 33.9 E 0.57 40.0 -37.7 --- --- 730.0 0.027 0.000 18.6 2 1
02/28/06 4:28 p -20.8 -20.8 -20.8 --- --- 33.9 E 0.57 39.1 -37.7 --- --- 730.1 0.027 0.000 18.6 2 1
02/28/06 4:29 p -20.8 -20.8 -20.8 --- --- 33.9 E 0.57 38.3 -37.7 --- --- 730.0 0.027 0.000 18.6 2 1
02/28/06 4:30 p -20.8 -20.8 -20.8 --- --- 33.9 E 0.57 36.5 -37.7 --- --- 730.2 0.027 0.000 18.6 2 1
02/28/06 4:31 p -20.8 -20.8 -20.8 --- --- 32.2 E 0.54 36.5 -37.5 --- --- 730.2 0.027 0.000 18.6 2 1
02/28/06 4:32 p -20.8 -20.8 -20.8 --- --- 30.4 E 0.51 34.8 -37.1 --- --- 730.2 0.027 0.000 18.6 2 1
02/28/06 4:33 p -20.8 -20.8 -20.8 --- --- 33.0 E 0.55 37.4 -37.7 --- --- 730.1 0.027 0.000 18.6 2 1
02/28/06 4:34 p -20.8 -20.8 -20.8 --- --- 33.0 E 0.55 36.5 -37.7 --- --- 730.1 0.027 0.000 18.6 2 1
02/28/06 4:35 p -20.8 -20.8 -20.8 --- --- 33.0 E 0.55 37.4 -37.6 --- --- 730.2 0.027 0.000 18.6 2 1
02/28/06 4:36 p -20.8 -20.8 -20.8 --- --- 32.2 E 0.54 37.4 -37.4 --- --- 730.0 0.027 0.000 18.6 2 1
02/28/06 4:37 p -20.8 -20.8 -20.8 --- --- 33.0 E 0.55 37.4 -37.6 --- --- 730.0 0.027 0.000 18.6 2 1
02/28/06 4:38 p -20.8 -20.8 -20.8 --- --- 33.0 E 0.55 37.4 -37.6 --- --- 730.1 0.027 0.000 18.5 2 1
02/28/06 4:39 p -20.8 -20.8 -20.8 --- --- 33.0 E 0.55 38.3 -37.6 --- --- 730.1 0.027 0.000 18.5 2 1
02/28/06 4:40 p -20.8 -20.8 -20.8 --- --- 32.2 E 0.54 38.3 -37.5 --- --- 730.1 0.027 0.000 18.5 2 1
02/28/06 4:41 p -20.8 -20.8 -20.8 --- --- 31.3 E 0.52 35.7 -37.2 --- --- 730.2 0.027 0.000 18.5 2 1
02/28/06 4:42 p -20.8 -20.8 -20.8 --- --- 30.4 E 0.51 36.5 -37.1 --- --- 730.3 0.027 0.000 18.5 2 1
02/28/06 4:43 p -20.8 -20.8 -20.8 --- --- 31.3 E 0.52 34.8 -37.3 --- --- 730.2 0.027 0.000 18.5 2 1
02/28/06 4:44 p -20.8 -20.8 -20.8 --- --- 32.2 E 0.54 37.4 -37.5 --- --- 730.2 0.027 0.000 18.5 2 1
02/28/06 4:45 p -20.8 -20.8 -20.8 --- --- 33.0 E 0.55 37.4 -37.6 --- --- 730.4 0.027 0.000 18.5 2 1
02/28/06 4:46 p -20.8 -20.8 -20.8 --- --- 34.8 E 0.58 41.7 -37.9 --- --- 730.4 0.027 0.000 18.5 2 1
02/28/06 4:47 p -20.8 -20.8 -20.8 --- --- 36.5 E 0.61 40.9 -38.2 --- --- 730.5 0.027 0.000 18.5 2 1
02/28/06 4:48 p -20.8 -20.8 -20.8 --- --- 33.9 E 0.57 45.2 -37.7 --- --- 730.3 0.027 0.000 18.5 2 1
02/28/06 4:49 p -20.8 -20.8 -20.8 --- --- 37.4 E 0.62 44.3 -38.4 --- --- 730.2 0.027 0.000 18.5 2 1
02/28/06 4:50 p -20.8 -20.8 -20.8 --- --- 37.4 E 0.62 42.6 -38.4 --- --- 730.4 0.027 0.000 18.5 2 1
02/28/06 4:51 p -20.8 -20.8 -20.8 --- --- 36.5 E 0.61 44.3 -38.3 --- --- 730.4 0.027 0.000 18.5 2 1
02/28/06 4:52 p -20.9 -20.9 -20.9 --- --- 34.8 E 0.58 42.6 -38.1 --- --- 730.3 0.027 0.000 18.5 2 1
02/28/06 4:53 p -20.9 -20.9 -20.9 --- --- 35.7 E 0.59 42.6 -38.3 --- --- 730.3 0.027 0.000 18.5 2 1
02/28/06 4:54 p -20.9 -20.9 -20.9 --- --- 34.8 E 0.58 44.3 -38.1 --- --- 730.2 0.027 0.000 18.5 2 1
02/28/06 4:55 p -21.0 -21.0 -21.0 --- --- 35.7 E 0.59 42.6 -38.3 --- --- 730.2 0.027 0.000 18.5 2 1
02/28/06 4:56 p -21.0 -21.0 -21.0 --- --- 36.5 E 0.61 46.1 -38.5 --- --- 730.1 0.027 0.000 18.5 2 1
02/28/06 4:57 p -21.1 -21.0 -21.1 --- --- 34.8 E 0.58 41.7 -38.3 --- --- 730.3 0.027 0.000 18.5 2 1
02/28/06 4:58 p -21.1 -21.1 -21.1 --- --- 36.5 E 0.61 42.6 -38.6 --- --- 730.4 0.027 0.000 18.5 2 1
02/28/06 4:59 p -21.1 -21.1 -21.1 --- --- 36.5 E 0.61 42.6 -38.7 --- --- 730.3 0.027 0.000 18.5 2 1
02/28/06 5:00 p -21.1 -21.1 -21.1 --- --- 36.5 E 0.61 40.9 -38.7 --- --- 730.3 0.027 0.000 18.5 2 1
02/28/06 5:01 p -21.1 -21.1 -21.1 --- --- 31.3 E 0.52 37.4 -37.7 --- --- 730.3 0.027 0.000 18.4 2 1
02/28/06 5:02 p -21.1 -21.1 -21.1 --- --- 33.0 E 0.55 37.4 -38.1 --- --- 730.3 0.027 0.000 18.4 2 1
02/28/06 5:03 p -21.1 -21.1 -21.1 --- --- 32.2 E 0.54 40.0 -37.9 --- --- 730.5 0.027 0.000 18.4 2 1
02/28/06 5:04 p -21.1 -21.1 -21.1 --- --- 33.0 E 0.55 39.1 -38.1 --- --- 730.3 0.027 0.000 18.4 2 1
02/28/06 5:05 p -21.1 -21.1 -21.2 --- --- 33.0 E 0.55 38.3 -38.1 --- --- 730.2 0.027 0.000 18.4 2 1
02/28/06 5:06 p -21.1 -21.1 -21.2 --- --- 33.9 E 0.57 38.3 -38.2 --- --- 730.3 0.027 0.000 18.4 2 1
02/28/06 5:07 p -21.1 -21.1 -21.1 --- --- 36.5 E 0.61 44.3 -38.7 --- --- 730.1 0.027 0.000 18.4 2 1
02/28/06 5:08 p -21.1 -21.1 -21.1 --- --- 36.5 E 0.61 43.5 -38.7 --- --- 730.1 0.027 0.000 18.4 2 1
02/28/06 5:09 p -21.1 -21.1 -21.2 --- --- 37.4 E 0.62 47.0 -38.8 --- --- 730.0 0.027 0.000 18.4 2 1
02/28/06 5:10 p -21.1 -21.1 -21.2 --- --- 38.3 E 0.64 44.3 -38.9 --- --- 730.1 0.027 0.000 18.4 2 1
02/28/06 5:11 p -21.1 -21.1 -21.1 --- --- 40.0 E 0.67 47.0 -39.2 --- --- 730.2 0.027 0.000 18.4 2 1
02/28/06 5:12 p -21.1 -21.1 -21.2 --- --- 37.4 E 0.62 45.2 -38.8 --- --- 730.1 0.027 0.000 18.4 2 1
02/28/06 5:13 p -21.1 -21.1 -21.1 --- --- 37.4 E 0.62 43.5 -38.8 --- --- 730.2 0.027 0.000 18.4 2 1
02/28/06 5:14 p -21.1 -21.1 -21.1 --- --- 38.3 E 0.64 42.6 -38.9 --- --- 730.3 0.027 0.000 18.4 2 1
02/28/06 5:15 p -21.1 -21.1 -21.2 --- --- 38.3 E 0.64 45.2 -38.9 --- --- 730.1 0.027 0.000 18.4 2 1
02/28/06 5:16 p -21.1 -21.1 -21.1 --- --- 35.7 E 0.59 43.5 -38.5 --- --- 730.3 0.027 0.000 18.4 2 1
02/28/06 5:17 p -21.1 -21.1 -21.2 --- --- 32.2 E 0.54 36.5 -37.9 --- --- 730.3 0.027 0.000 18.4 2 1
02/28/06 5:18 p -21.2 -21.1 -21.2 --- --- 35.7 E 0.59 42.6 -38.6 --- --- 730.1 0.027 0.000 18.4 2 1
02/28/06 5:19 p -21.1 -21.1 -21.2 --- --- 38.3 E 0.64 47.0 -38.9 --- --- 730.0 0.027 0.000 18.3 2 1
02/28/06 5:20 p -21.2 -21.1 -21.2 --- --- 35.7 E 0.59 41.7 -38.6 --- --- 730.0 0.027 0.000 18.3 2 1
02/28/06 5:21 p -21.1 -21.1 -21.2 --- --- 36.5 E 0.61 42.6 -38.7 --- --- 730.2 0.027 0.000 18.3 2 1
02/28/06 5:22 p -21.2 -21.1 -21.2 --- --- 38.3 E 0.64 41.7 -39.0 --- --- 730.2 0.027 0.000 18.3 2 1
02/28/06 5:23 p -21.2 -21.2 -21.2 --- --- 36.5 E 0.61 41.7 -38.7 --- --- 730.1 0.027 0.000 18.3 2 1
02/28/06 5:24 p -21.2 -21.2 -21.2 --- --- 37.4 E 0.62 44.3 -38.9 --- --- 730.1 0.027 0.000 18.3 2 1
02/28/06 5:25 p -21.2 -21.2 -21.2 --- --- 36.5 E 0.61 44.3 -38.7 --- --- 730.1 0.027 0.000 18.3 2 1
02/28/06 5:26 p -21.2 -21.2 -21.2 --- --- 39.1 E 0.65 45.2 -39.2 --- --- 730.0 0.027 0.000 18.3 2 1
02/28/06 5:27 p -21.2 -21.2 -21.2 --- --- 38.3 E 0.64 43.5 -39.0 --- --- 730.2 0.027 0.000 18.3 2 1
02/28/06 5:28 p -21.2 -21.2 -21.2 --- --- 38.3 E 0.64 46.1 -39.0 --- --- 730.1 0.027 0.000 18.3 2 1
02/28/06 5:29 p -21.2 -21.2 -21.2 --- --- 37.4 E 0.62 45.2 -38.9 --- --- 730.0 0.027 0.000 18.3 2 1
02/28/06 5:30 p -21.2 -21.2 -21.2 --- --- 37.4 E 0.62 47.0 -38.9 --- --- 730.1 0.027 0.000 18.3 2 1
02/28/06 5:31 p -21.2 -21.2 -21.2 --- --- 35.7 E 0.59 43.5 -38.7 --- --- 730.2 0.027 0.000 18.3 2 1
02/28/06 5:32 p -21.2 -21.2 -21.3 --- --- 36.5 E 0.61 41.7 -38.8 --- --- 730.3 0.027 0.000 18.3 2 1
02/28/06 5:33 p -21.3 -21.2 -21.3 --- --- 37.4 E 0.62 41.7 -39.0 --- --- 730.3 0.028 0.000 18.3 2 1
02/28/06 5:34 p -21.3 -21.3 -21.3 --- --- 38.3 E 0.64 44.3 -39.2 --- --- 730.4 0.028 0.000 18.3 2 1
02/28/06 5:35 p -21.3 -21.3 -21.3 --- --- 35.7 E 0.59 40.9 -38.7 --- --- 730.4 0.028 0.000 18.3 2 1
02/28/06 5:36 p -21.3 -21.3 -21.3 --- --- 40.9 E 0.68 49.6 -39.6 --- --- 730.3 0.028 0.000 18.3 2 1
02/28/06 5:37 p -21.3 -21.3 -21.3 --- --- 36.5 E 0.61 46.1 -38.9 --- --- 730.3 0.028 0.000 18.3 2 1
02/28/06 5:38 p -21.3 -21.3 -21.3 --- --- 37.4 E 0.62 42.6 -39.1 --- --- 730.4 0.028 0.000 18.2 2 1
02/28/06 5:39 p -21.3 -21.3 -21.4 --- --- 37.4 E 0.62 45.2 -39.1 --- --- 730.1 0.028 0.000 18.2 2 1
02/28/06 5:40 p -21.4 -21.3 -21.4 --- --- 37.4 E 0.62 42.6 -39.2 --- --- 730.4 0.028 0.000 18.2 2 1
02/28/06 5:41 p -21.4 -21.3 -21.4 --- --- 34.8 E 0.58 40.0 -38.7 --- --- 730.4 0.028 0.000 18.3 2 1
02/28/06 5:42 p -21.4 -21.4 -21.4 --- --- 36.5 E 0.61 42.6 -39.1 --- --- 730.4 0.028 0.000 18.3 2 1
02/28/06 5:43 p -21.4 -21.4 -21.4 --- --- 34.8 E 0.58 42.6 -38.7 --- --- 730.5 0.028 0.000 18.2 2 1
02/28/06 5:44 p -21.4 -21.4 -21.4 --- --- 32.2 E 0.54 41.7 -38.3 --- --- 730.4 0.028 0.000 18.2 2 1
02/28/06 5:45 p -21.4 -21.4 -21.4 --- --- 36.5 E 0.61 46.1 -39.1 --- --- 730.5 0.028 0.000 18.2 2 1
02/28/06 5:46 p -21.4 -21.4 -21.4 --- --- 37.4 E 0.62 42.6 -39.2 --- --- 730.4 0.028 0.000 18.2 2 1
02/28/06 5:47 p -21.4 -21.4 -21.4 --- --- 33.9 E 0.57 40.0 -38.6 --- --- 730.4 0.028 0.000 18.2 2 1
02/28/06 5:48 p -21.4 -21.4 -21.4 --- --- 33.9 E 0.57 38.3 -38.6 --- --- 730.3 0.028 0.000 18.2 2 1
02/28/06 5:49 p -21.4 -21.4 -21.4 --- --- 37.4 E 0.62 43.5 -39.2 --- --- 730.1 0.028 0.000 18.2 2 1
02/28/06 5:50 p -21.4 -21.4 -21.4 --- --- 35.7 E 0.59 43.5 -38.9 --- --- 730.2 0.028 0.000 18.2 2 1
02/28/06 5:51 p -21.4 -21.4 -21.4 --- --- 38.3 E 0.64 43.5 -39.4 --- --- 730.3 0.028 0.000 18.2 2 1
02/28/06 5:52 p -21.4 -21.4 -21.4 --- --- 37.4 E 0.62 42.6 -39.2 --- --- 730.3 0.028 0.000 18.2 2 1
02/28/06 5:53 p -21.4 -21.4 -21.4 --- --- 33.9 E 0.57 40.9 -38.6 --- --- 730.5 0.028 0.000 18.2 2 1
02/28/06 5:54 p -21.4 -21.4 -21.4 --- --- 33.0 E 0.55 37.4 -38.4 --- --- 730.5 0.028 0.000 18.2 2 1
02/28/06 5:55 p -21.3 -21.3 -21.4 --- --- 31.3 E 0.52 35.7 -38.0 --- --- 730.6 0.028 0.000 18.2 2 1
02/28/06 5:56 p -21.4 -21.3 -21.4 --- --- 30.4 E 0.51 36.5 -37.9 --- --- 730.6 0.028 0.000 18.2 2 1
02/28/06 5:57 p -21.3 -21.3 -21.3 --- --- 34.8 E 0.58 40.0 -38.7 --- --- 730.6 0.028 0.000 18.2 2 1
02/28/06 5:58 p -21.3 -21.3 -21.3 --- --- 33.9 E 0.57 37.4 -38.5 --- --- 730.6 0.028 0.000 18.2 2 1
02/28/06 5:59 p -21.3 -21.3 -21.3 --- --- 32.2 E 0.54 39.1 -38.2 --- --- 730.8 0.028 0.000 18.2 2 1
02/28/06 6:00 p -21.3 -21.3 -21.3 --- --- 32.2 E 0.54 38.3 -38.2 --- --- 730.8 0.028 0.000 18.2 2 1
02/28/06 6:01 p -21.3 -21.3 -21.3 --- --- 31.3 E 0.52 36.5 -37.9 --- --- 730.8 0.028 0.000 18.2 2 1
02/28/06 6:02 p -21.3 -21.3 -21.3 --- --- 31.3 E 0.52 38.3 -37.9 --- --- 730.8 0.028 0.000 18.2 2 1
02/28/06 6:03 p -21.3 -21.3 -21.3 --- --- 31.3 E 0.52 36.5 -37.9 --- --- 730.9 0.028 0.000 18.2 2 1
02/28/06 6:04 p -21.3 -21.3 -21.3 --- --- 31.3 E 0.52 34.8 -37.9 --- --- 730.8 0.028 0.000 18.2 2 1
02/28/06 6:05 p -21.3 -21.2 -21.3 --- --- 32.2 E 0.54 38.3 -38.1 --- --- 730.7 0.028 0.000 18.2 2 1
02/28/06 6:06 p -21.3 -21.2 -21.3 --- --- 31.3 E 0.52 38.3 -37.9 --- --- 730.7 0.028 0.000 18.1 2 1
02/28/06 6:07 p -21.3 -21.2 -21.3 --- --- 32.2 E 0.54 39.1 -38.1 --- --- 730.6 0.028 0.000 18.1 2 1
02/28/06 6:08 p -21.2 -21.2 -21.2 --- --- 36.5 E 0.61 41.7 -38.8 --- --- 730.6 0.027 0.000 18.1 2 1
02/28/06 6:09 p -21.2 -21.2 -21.2 --- --- 34.8 E 0.58 40.0 -38.5 --- --- 730.7 0.027 0.000 18.1 2 1
02/28/06 6:10 p -21.2 -21.2 -21.2 --- --- 33.9 E 0.57 37.4 -38.3 --- --- 730.8 0.027 0.000 18.1 2 1
02/28/06 6:11 p -21.2 -21.2 -21.2 --- --- 31.3 E 0.52 39.1 -37.8 --- --- 730.8 0.027 0.000 18.1 2 1
02/28/06 6:12 p -21.2 -21.2 -21.2 --- --- 32.2 E 0.54 39.1 -38.0 --- --- 730.9 0.027 0.000 18.1 2 1
02/28/06 6:13 p -21.2 -21.2 -21.2 --- --- 31.3 E 0.52 37.4 -37.8 --- --- 731.0 0.027 0.000 18.1 2 1
02/28/06 6:14 p -21.2 -21.2 -21.2 --- --- 30.4 E 0.51 35.7 -37.7 --- --- 730.8 0.027 0.000 18.1 2 1
02/28/06 6:15 p -21.2 -21.2 -21.2 --- --- 32.2 E 0.54 37.4 -38.0 --- --- 730.9 0.027 0.000 18.1 2 1
02/28/06 6:16 p -21.2 -21.2 -21.2 --- --- 33.9 E 0.57 40.0 -38.3 --- --- 730.7 0.027 0.000 18.1 2 1
02/28/06 6:17 p -21.2 -21.2 -21.2 --- --- 33.0 E 0.55 38.3 -38.2 --- --- 730.9 0.027 0.000 18.1 2 1
02/28/06 6:18 p -21.2 -21.2 -21.2 --- --- 30.4 E 0.51 37.4 -37.7 --- --- 730.8 0.027 0.000 18.1 2 1
02/28/06 6:19 p -21.2 -21.2 -21.2 --- --- 32.2 E 0.54 37.4 -38.0 --- --- 730.8 0.027 0.000 18.1 2 1
02/28/06 6:20 p -21.2 -21.2 -21.2 --- --- 33.9 E 0.57 39.1 -38.3 --- --- 730.8 0.027 0.000 18.1 2 1
02/28/06 6:21 p -21.2 -21.2 -21.2 --- --- 32.2 E 0.54 36.5 -38.0 --- --- 730.9 0.027 0.000 18.1 2 1
02/28/06 6:22 p -21.2 -21.2 -21.2 --- --- 31.3 E 0.52 36.5 -37.8 --- --- 731.0 0.027 0.000 18.1 2 1
02/28/06 6:23 p -21.2 -21.2 -21.2 --- --- 33.9 E 0.57 40.9 -38.3 --- --- 730.8 0.027 0.000 18.1 2 1
02/28/06 6:24 p -21.2 -21.2 -21.2 --- --- 33.0 E 0.55 39.1 -38.1 --- --- 730.8 0.027 0.000 18.1 2 1
02/28/06 6:25 p -21.2 -21.2 -21.2 --- --- 33.9 E 0.57 38.3 -38.3 --- --- 730.8 0.027 0.000 18.1 2 1
02/28/06 6:26 p -21.2 -21.2 -21.2 --- --- 33.9 E 0.57 39.1 -38.3 --- --- 730.8 0.027 0.000 18.1 2 1
02/28/06 6:27 p -21.2 -21.2 -21.2 --- --- 35.7 E 0.59 40.9 -38.6 --- --- 730.8 0.027 0.000 18.0 2 1
02/28/06 6:28 p -21.2 -21.1 -21.2 --- --- 35.7 E 0.59 40.9 -38.6 --- --- 730.8 0.027 0.000 18.0 2 1
02/28/06 6:29 p -21.2 -21.1 -21.2 --- --- 33.9 E 0.57 39.1 -38.3 --- --- 730.9 0.027 0.000 18.0 2 1
02/28/06 6:30 p -21.1 -21.1 -21.2 --- --- 34.8 E 0.58 40.9 -38.3 --- --- 730.8 0.027 0.000 18.0 2 1
02/28/06 6:31 p -21.1 -21.1 -21.2 --- --- 33.9 E 0.57 40.0 -38.2 --- --- 730.8 0.027 0.000 18.0 2 1
02/28/06 6:32 p -21.1 -21.1 -21.2 --- --- 33.9 E 0.57 42.6 -38.2 --- --- 730.8 0.027 0.000 18.0 2 1
02/28/06 6:33 p -21.1 -21.1 -21.1 --- --- 33.9 E 0.57 40.0 -38.2 --- --- 730.7 0.027 0.000 18.0 2 1
02/28/06 6:34 p -21.1 -21.1 -21.1 --- --- 38.3 E 0.64 43.5 -38.8 --- --- 730.7 0.027 0.000 18.0 2 1
02/28/06 6:35 p -21.1 -21.1 -21.1 --- --- 37.4 E 0.62 45.2 -38.8 --- --- 730.7 0.027 0.000 18.0 2 1
02/28/06 6:36 p -21.1 -21.1 -21.1 --- --- 35.7 E 0.59 45.2 -38.4 --- --- 730.9 0.027 0.000 18.0 2 1
02/28/06 6:37 p -21.1 -21.1 -21.1 --- --- 37.4 E 0.62 42.6 -38.7 --- --- 730.8 0.027 0.000 17.9 2 1
02/28/06 6:38 p -21.1 -21.1 -21.1 --- --- 34.8 ESE 0.58 44.3 -38.3 --- --- 730.9 0.027 0.000 17.9 2 1
02/28/06 6:39 p -21.1 -21.1 -21.1 --- --- 35.7 E 0.59 43.5 -38.4 --- --- 730.7 0.027 0.000 17.9 2 1
02/28/06 6:40 p -21.1 -21.1 -21.1 --- --- 36.5 E 0.61 40.9 -38.6 --- --- 730.8 0.027 0.000 17.9 2 1
02/28/06 6:41 p -21.1 -21.1 -21.1 --- --- 36.5 E 0.61 41.7 -38.6 --- --- 730.9 0.027 0.000 17.9 2 1
02/28/06 6:42 p -21.1 -21.1 -21.1 --- --- 36.5 E 0.61 43.5 -38.6 --- --- 730.9 0.027 0.000 17.9 2 1
02/28/06 6:43 p -21.1 -21.1 -21.1 --- --- 35.7 E 0.59 41.7 -38.4 --- --- 730.9 0.027 0.000 17.9 2 1
02/28/06 6:44 p -21.1 -21.1 -21.1 --- --- 35.7 E 0.59 40.0 -38.4 --- --- 730.9 0.027 0.000 17.9 2 1
02/28/06 6:45 p -21.1 -21.1 -21.1 --- --- 35.7 E 0.59 41.7 -38.4 --- --- 730.8 0.027 0.000 17.9 2 1
02/28/06 6:46 p -21.1 -21.1 -21.1 --- --- 37.4 E 0.62 41.7 -38.7 --- --- 730.7 0.027 0.000 17.9 2 1
02/28/06 6:47 p -21.1 -21.1 -21.1 --- --- 39.1 E 0.65 43.5 -39.0 --- --- 730.7 0.027 0.000 17.9 2 1
02/28/06 6:48 p -21.1 -21.1 -21.1 --- --- 39.1 E 0.65 47.0 -39.0 --- --- 730.8 0.027 0.000 17.9 2 1
02/28/06 6:49 p -21.1 -21.1 -21.1 --- --- 37.4 E 0.62 47.0 -38.7 --- --- 730.9 0.027 0.000 17.9 2 1
02/28/06 6:50 p -21.1 -21.1 -21.1 --- --- 37.4 E 0.62 42.6 -38.7 --- --- 730.8 0.027 0.000 17.9 2 1
02/28/06 6:51 p -21.1 -21.1 -21.1 --- --- 38.3 E 0.64 47.0 -38.8 --- --- 730.8 0.027 0.000 17.9 2 1
02/28/06 6:52 p -21.1 -21.1 -21.1 --- --- 37.4 E 0.62 44.3 -38.7 --- --- 730.8 0.027 0.000 17.8 2 1
02/28/06 6:53 p -21.1 -21.1 -21.1 --- --- 40.9 E 0.68 47.8 -39.3 --- --- 730.7 0.027 0.000 17.8 3 1
02/28/06 6:54 p -21.1 -21.1 -21.1 --- --- 40.0 E 0.67 45.2 -39.1 --- --- 730.8 0.027 0.000 17.8 2 1
02/28/06 6:55 p -21.1 -21.1 -21.1 --- --- 40.9 E 0.68 44.3 -39.3 --- --- 730.7 0.027 0.000 17.8 2 1
02/28/06 6:56 p -21.1 -21.1 -21.1 --- --- 40.9 E 0.68 47.0 -39.3 --- --- 730.5 0.027 0.000 17.8 3 1
02/28/06 6:57 p -21.1 -21.1 -21.1 --- --- 40.0 E 0.67 44.3 -39.1 --- --- 730.7 0.027 0.000 17.8 2 1
02/28/06 6:58 p -21.1 -21.1 -21.1 --- --- 40.0 E 0.67 48.7 -39.1 --- --- 730.6 0.027 0.000 17.8 2 1
02/28/06 6:59 p -21.1 -21.0 -21.1 --- --- 40.0 E 0.67 45.2 -39.1 --- --- 730.6 0.027 0.000 17.8 3 1
02/28/06 7:00 p -21.1 -21.0 -21.1 --- --- 41.7 E 0.70 50.4 -39.4 --- --- 730.5 0.027 0.000 17.8 3 1
02/28/06 7:01 p -21.1 -21.1 -21.1 --- --- 42.6 E 0.71 51.3 -39.6 --- --- 730.5 0.027 0.000 17.8 3 1
02/28/06 7:02 p -21.1 -21.0 -21.1 --- --- 43.5 E 0.72 47.0 -39.7 --- --- 730.6 0.027 0.000 17.8 3 1
02/28/06 7:03 p -21.0 -21.0 -21.1 --- --- 43.5 E 0.72 48.7 -39.6 --- --- 730.6 0.027 0.000 17.8 3 1
02/28/06 7:04 p -21.0 -21.0 -21.1 --- --- 40.9 E 0.68 46.1 -39.2 --- --- 730.7 0.027 0.000 17.7 3 1
02/28/06 7:05 p -21.1 -21.0 -21.1 --- --- 41.7 E 0.70 51.3 -39.4 --- --- 730.7 0.027 0.000 17.8 3 1
02/28/06 7:06 p -21.0 -21.0 -21.1 --- --- 46.1 E 0.77 53.0 -39.9 --- --- 730.6 0.027 0.000 17.8 3 1
02/28/06 7:07 p -21.0 -21.0 -21.0 --- --- 47.8 E 0.80 55.7 -40.2 --- --- 730.6 0.027 0.000 17.8 3 1
02/28/06 7:08 p -21.0 -21.0 -21.1 --- --- 49.6 E 0.83 53.0 -40.4 --- --- 730.7 0.027 0.000 17.8 3 1
02/28/06 7:09 p -21.0 -21.0 -21.0 --- --- 49.6 ESE 0.83 52.2 -40.4 --- --- 730.7 0.027 0.000 17.8 3 1
02/28/06 7:10 p -21.0 -21.0 -21.0 --- --- 47.8 E 0.80 51.3 -40.2 --- --- 730.7 0.027 0.000 17.8 3 1
02/28/06 7:11 p -21.0 -21.0 -21.0 --- --- 49.6 ESE 0.83 53.0 -40.4 --- --- 730.6 0.027 0.000 17.8 3 1
02/28/06 7:12 p -21.0 -21.0 -21.0 --- --- 49.6 ESE 0.83 52.2 -40.4 --- --- 730.6 0.027 0.000 17.8 3 1
02/28/06 7:13 p -21.0 -21.0 -21.0 --- --- 49.6 ESE 0.83 52.2 -40.4 --- --- 730.7 0.027 0.000 17.8 3 1
02/28/06 7:14 p -21.0 -21.0 -21.0 --- --- 48.7 ESE 0.81 52.2 -40.3 --- --- 730.7 0.027 0.000 17.8 3 1
02/28/06 7:15 p -21.0 -20.9 -21.0 --- --- 48.7 ESE 0.81 52.2 -40.3 --- --- 730.7 0.027 0.000 17.8 3 1
02/28/06 7:16 p -20.9 -20.9 -20.9 --- --- 48.7 ESE 0.81 51.3 -40.2 --- --- 730.8 0.027 0.000 17.8 3 1
02/28/06 7:17 p -20.9 -20.9 -20.9 --- --- 47.8 ESE 0.80 50.4 -40.1 --- --- 730.7 0.027 0.000 17.8 3 1
02/28/06 7:18 p -20.9 -20.9 -20.9 --- --- 47.8 ESE 0.80 52.2 -40.1 --- --- 730.8 0.027 0.000 17.8 3 1
02/28/06 7:19 p -20.9 -20.9 -20.9 --- --- 46.1 ESE 0.77 49.6 -39.9 --- --- 730.9 0.027 0.000 17.7 4 1
02/28/06 7:20 p -20.9 -20.9 -20.9 --- --- 47.0 ESE 0.78 49.6 -40.0 --- --- 730.8 0.027 0.000 17.7 4 1
02/28/06 7:21 p -20.9 -20.9 -20.9 --- --- 45.2 ESE 0.75 47.8 -39.8 --- --- 730.9 0.027 0.000 17.7 4 1
02/28/06 7:22 p -20.9 -20.9 -20.9 --- --- 45.2 ESE 0.75 47.8 -39.7 --- --- 730.9 0.027 0.000 17.7 4 1
02/28/06 7:23 p -20.9 -20.9 -20.9 --- --- 44.3 ESE 0.74 48.7 -39.6 --- --- 731.1 0.027 0.000 17.7 4 1
02/28/06 7:24 p -20.9 -20.9 -20.9 --- --- 43.5 ESE 0.72 47.0 -39.4 --- --- 731.2 0.027 0.000 17.6 3 1
02/28/06 7:25 p -20.9 -20.9 -20.9 --- --- 45.2 ESE 0.75 47.8 -39.7 --- --- 731.0 0.027 0.000 17.6 4 1
02/28/06 7:26 p -20.9 -20.9 -20.9 --- --- 43.5 ESE 0.72 46.1 -39.4 --- --- 731.0 0.027 0.000 17.6 4 1
02/28/06 7:27 p -20.8 -20.8 -20.8 --- --- 41.7 ESE 0.70 44.3 -39.1 --- --- 731.2 0.027 0.000 17.6 3 1
02/28/06 7:28 p -20.8 -20.8 -20.8 --- --- 42.6 ESE 0.71 47.0 -39.2 --- --- 731.0 0.027 0.000 17.6 4 1
02/28/06 7:29 p -20.8 -20.8 -20.8 --- --- 45.2 ESE 0.75 48.7 -39.6 --- --- 731.2 0.027 0.000 17.6 4 1
02/28/06 7:30 p -20.8 -20.8 -20.8 --- --- 43.5 ESE 0.72 46.1 -39.3 --- --- 731.3 0.027 0.000 17.6 4 1
02/28/06 7:31 p -20.8 -20.8 -20.8 --- --- 42.6 ESE 0.71 47.0 -39.2 --- --- 731.2 0.027 0.000 17.6 4 1
02/28/06 7:32 p -20.8 -20.8 -20.8 --- --- 42.6 ESE 0.71 46.1 -39.2 --- --- 731.1 0.027 0.000 17.5 4 1
02/28/06 7:33 p -20.8 -20.8 -20.8 --- --- 46.1 ESE 0.77 48.7 -39.7 --- --- 731.0 0.027 0.000 17.5 4 1
02/28/06 7:34 p -20.8 -20.8 -20.8 --- --- 43.5 ESE 0.72 46.1 -39.3 --- --- 731.1 0.027 0.000 17.5 4 1
02/28/06 7:35 p -20.8 -20.8 -20.8 --- --- 43.5 ESE 0.72 47.0 -39.3 --- --- 731.2 0.027 0.000 17.5 4 1
02/28/06 7:36 p -20.8 -20.8 -20.8 --- --- 44.3 ESE 0.74 47.0 -39.4 --- --- 731.2 0.027 0.000 17.5 4 1
02/28/06 7:37 p -20.8 -20.7 -20.8 --- --- 46.1 ESE 0.77 50.4 -39.7 --- --- 731.2 0.027 0.000 17.4 4 1
02/28/06 7:38 p -20.8 -20.8 -20.8 --- --- 43.5 ESE 0.72 47.0 -39.3 --- --- 731.3 0.027 0.000 17.4 4 1
02/28/06 7:39 p -20.7 -20.7 -20.7 --- --- 44.3 ESE 0.74 48.7 -39.3 --- --- 731.2 0.027 0.000 17.4 4 1
02/28/06 7:40 p -20.7 -20.7 -20.7 --- --- 46.1 ESE 0.77 47.8 -39.6 --- --- 731.1 0.027 0.000 17.5 4 1
02/28/06 7:41 p -20.7 -20.7 -20.7 --- --- 44.3 ESE 0.74 47.0 -39.3 --- --- 731.2 0.027 0.000 17.5 4 1
02/28/06 7:42 p -20.7 -20.7 -20.7 --- --- 44.3 ESE 0.74 50.4 -39.3 --- --- 731.0 0.027 0.000 17.5 4 1
02/28/06 7:43 p -20.7 -20.7 -20.7 --- --- 46.1 ESE 0.77 48.7 -39.6 --- --- 731.2 0.027 0.000 17.6 4 1
02/28/06 7:44 p -20.7 -20.7 -20.7 --- --- 46.1 ESE 0.77 49.6 -39.6 --- --- 731.1 0.027 0.000 17.6 4 1
02/28/06 7:45 p -20.7 -20.7 -20.7 --- --- 46.1 ESE 0.77 49.6 -39.6 --- --- 731.3 0.027 0.000 17.6 4 1
02/28/06 7:46 p -20.7 -20.7 -20.7 --- --- 45.2 ESE 0.75 48.7 -39.4 --- --- 731.2 0.027 0.000 17.6 4 1
02/28/06 7:47 p -20.7 -20.7 -20.7 --- --- 43.5 ESE 0.72 48.7 -39.2 --- --- 731.3 0.027 0.000 17.6 4 1
02/28/06 7:48 p -20.7 -20.7 -20.7 --- --- 44.3 ESE 0.74 48.7 -39.3 --- --- 731.3 0.027 0.000 17.6 4 1
02/28/06 7:49 p -20.7 -20.7 -20.7 --- --- 40.0 ESE 0.67 45.2 -38.7 --- --- 731.6 0.027 0.000 17.6 4 1
02/28/06 7:50 p -20.7 -20.7 -20.7 --- --- 42.6 ESE 0.71 44.3 -39.1 --- --- 731.3 0.027 0.000 17.6 4 1
02/28/06 7:51 p -20.7 -20.7 -20.7 --- --- 44.3 ESE 0.74 47.0 -39.3 --- --- 731.4 0.027 0.000 17.6 4 1
02/28/06 7:52 p -20.7 -20.7 -20.7 --- --- 40.0 ESE 0.67 45.2 -38.6 --- --- 731.6 0.027 0.000 17.6 4 1
02/28/06 7:53 p -20.7 -20.7 -20.7 --- --- 40.0 ESE 0.67 44.3 -38.6 --- --- 731.5 0.027 0.000 17.6 4 1
02/28/06 7:54 p -20.7 -20.7 -20.7 --- --- 42.6 ESE 0.71 46.1 -39.0 --- --- 731.3 0.027 0.000 17.5 4 1
02/28/06 7:55 p -20.7 -20.7 -20.7 --- --- 44.3 ESE 0.74 46.1 -39.2 --- --- 731.3 0.027 0.000 17.5 4 1
02/28/06 7:56 p -20.7 -20.7 -20.7 --- --- 43.5 ESE 0.72 46.1 -39.1 --- --- 731.4 0.027 0.000 17.5 4 1
02/28/06 7:57 p -20.7 -20.7 -20.7 --- --- 42.6 ESE 0.71 46.1 -39.0 --- --- 731.5 0.027 0.000 17.5 4 1
02/28/06 7:58 p -20.7 -20.7 -20.7 --- --- 42.6 ESE 0.71 44.3 -39.0 --- --- 731.6 0.027 0.000 17.4 4 1
02/28/06 7:59 p -20.7 -20.7 -20.7 --- --- 44.3 ESE 0.74 47.8 -39.2 --- --- 731.3 0.027 0.000 17.4 4 1
02/28/06 8:00 p -20.7 -20.7 -20.7 --- --- 42.6 ESE 0.71 46.1 -39.0 --- --- 731.6 0.027 0.000 17.4 4 1
02/28/06 8:01 p -20.7 -20.7 -20.7 --- --- 43.5 ESE 0.72 46.1 -39.1 --- --- 731.4 0.027 0.000 17.4 4 1
02/28/06 8:02 p -20.7 -20.7 -20.7 --- --- 42.6 ESE 0.71 47.0 -39.0 --- --- 731.4 0.027 0.000 17.4 4 1
02/28/06 8:03 p -20.7 -20.7 -20.7 --- --- 44.3 ESE 0.74 47.8 -39.2 --- --- 731.4 0.027 0.000 17.4 4 1
02/28/06 8:04 p -20.7 -20.6 -20.7 --- --- 43.5 ESE 0.72 46.1 -39.1 --- --- 731.3 0.027 0.000 17.4 4 1
02/28/06 8:05 p -20.7 -20.6 -20.7 --- --- 42.6 ESE 0.71 47.8 -39.0 --- --- 731.4 0.027 0.000 17.4 4 1
02/28/06 8:06 p -20.7 -20.6 -20.7 --- --- 43.5 ESE 0.72 47.0 -39.1 --- --- 731.5 0.027 0.000 17.3 4 1
02/28/06 8:07 p -20.7 -20.6 -20.7 --- --- 43.5 ESE 0.72 47.0 -39.1 --- --- 731.5 0.027 0.000 17.3 4 1
02/28/06 8:08 p -20.7 -20.7 -20.7 --- --- 42.6 ESE 0.71 46.1 -39.0 --- --- 731.6 0.027 0.000 17.3 4 1
02/28/06 8:09 p -20.7 -20.7 -20.7 --- --- 42.6 ESE 0.71 45.2 -39.0 --- --- 731.6 0.027 0.000 17.3 4 1
02/28/06 8:10 p -20.7 -20.6 -20.7 --- --- 42.6 ESE 0.71 45.2 -39.0 --- --- 731.5 0.027 0.000 17.3 4 1
02/28/06 8:11 p -20.7 -20.6 -20.7 --- --- 42.6 ESE 0.71 47.0 -39.0 --- --- 731.6 0.027 0.000 17.3 4 1
02/28/06 8:12 p -20.6 -20.6 -20.6 --- --- 41.7 ESE 0.70 44.3 -38.8 --- --- 731.7 0.027 0.000 17.3 4 1
02/28/06 8:13 p -20.6 -20.6 -20.6 --- --- 40.9 ESE 0.68 45.2 -38.7 --- --- 731.7 0.027 0.000 17.3 4 1
02/28/06 8:14 p -20.6 -20.6 -20.6 --- --- 40.0 ESE 0.67 44.3 -38.5 --- --- 731.7 0.027 0.000 17.3 4 1
02/28/06 8:15 p -20.6 -20.6 -20.6 --- --- 41.7 ESE 0.70 45.2 -38.8 --- --- 731.8 0.027 0.000 17.3 4 1
02/28/06 8:16 p -20.6 -20.6 -20.6 --- --- 40.9 ESE 0.68 44.3 -38.7 --- --- 731.8 0.027 0.000 17.4 4 1
02/28/06 8:17 p -20.6 -20.6 -20.7 --- --- 41.7 ESE 0.70 46.1 -38.8 --- --- 731.7 0.027 0.000 17.4 4 1
02/28/06 8:18 p -20.6 -20.6 -20.7 --- --- 40.9 ESE 0.68 43.5 -38.7 --- --- 731.8 0.027 0.000 17.4 4 1
02/28/06 8:19 p -20.6 -20.6 -20.7 --- --- 40.9 ESE 0.68 46.1 -38.7 --- --- 731.6 0.027 0.000 17.4 4 1
02/28/06 8:20 p -20.6 -20.6 -20.6 --- --- 40.9 ESE 0.68 44.3 -38.7 --- --- 731.7 0.027 0.000 17.4 4 1
02/28/06 8:21 p -20.6 -20.6 -20.6 --- --- 42.6 ESE 0.71 46.1 -38.9 --- --- 731.6 0.027 0.000 17.5 4 1
02/28/06 8:22 p -20.6 -20.6 -20.7 --- --- 40.9 ESE 0.68 46.1 -38.7 --- --- 731.6 0.027 0.000 17.5 4 1
02/28/06 8:23 p -20.6 -20.6 -20.7 --- --- 40.9 ESE 0.68 44.3 -38.7 --- --- 731.7 0.027 0.000 17.5 4 1
02/28/06 8:24 p -20.6 -20.6 -20.6 --- --- 40.0 ESE 0.67 42.6 -38.5 --- --- 731.8 0.027 0.000 17.5 4 1
02/28/06 8:25 p -20.6 -20.6 -20.6 --- --- 40.0 ESE 0.67 44.3 -38.5 --- --- 731.8 0.027 0.000 17.4 4 1
02/28/06 8:26 p -20.6 -20.6 -20.6 --- --- 38.3 ESE 0.64 45.2 -38.2 --- --- 731.7 0.027 0.000 17.4 5 1
02/28/06 8:27 p -20.6 -20.6 -20.6 --- --- 38.3 E 0.64 43.5 -38.2 --- --- 731.7 0.027 0.000 17.4 4 1
02/28/06 8:28 p -20.6 -20.6 -20.6 --- --- 36.5 E 0.61 41.7 -37.9 --- --- 731.8 0.027 0.000 17.4 4 1
02/28/06 8:29 p -20.6 -20.6 -20.6 --- --- 40.0 E 0.67 44.3 -38.5 --- --- 731.7 0.027 0.000 17.4 4 1
02/28/06 8:30 p -20.6 -20.6 -20.6 --- --- 39.1 E 0.65 42.6 -38.4 --- --- 731.8 0.027 0.000 17.4 4 1
02/28/06 8:31 p -20.6 -20.6 -20.6 --- --- 40.0 E 0.67 45.2 -38.5 --- --- 731.8 0.027 0.000 17.4 4 1
02/28/06 8:32 p -20.6 -20.6 -20.6 --- --- 38.3 E 0.64 41.7 -38.2 --- --- 731.9 0.027 0.000 17.3 4 1
02/28/06 8:33 p -20.6 -20.6 -20.6 --- --- 36.5 E 0.61 42.6 -37.9 --- --- 731.8 0.027 0.000 17.3 5 1
02/28/06 8:34 p -20.6 -20.6 -20.6 --- --- 38.3 E 0.64 43.5 -38.2 --- --- 731.8 0.027 0.000 17.3 5 1
02/28/06 8:35 p -20.6 -20.6 -20.6 --- --- 39.1 E 0.65 44.3 -38.4 --- --- 731.9 0.027 0.000 17.3 4 1
02/28/06 8:36 p -20.6 -20.6 -20.6 --- --- 39.1 E 0.65 45.2 -38.4 --- --- 731.7 0.027 0.000 17.3 4 1
02/28/06 8:37 p -20.6 -20.6 -20.6 --- --- 38.3 E 0.64 43.5 -38.2 --- --- 731.8 0.027 0.000 17.3 5 1
02/28/06 8:38 p -20.7 -20.6 -20.7 --- --- 40.9 E 0.68 43.5 -38.7 --- --- 731.9 0.027 0.000 17.3 4 1
02/28/06 8:39 p -20.6 -20.6 -20.7 --- --- 40.9 E 0.68 43.5 -38.7 --- --- 731.9 0.027 0.000 17.3 5 1
02/28/06 8:40 p -20.6 -20.6 -20.7 --- --- 40.0 E 0.67 44.3 -38.5 --- --- 731.8 0.027 0.000 17.3 5 1
02/28/06 8:41 p -20.6 -20.6 -20.7 --- --- 37.4 E 0.62 42.6 -38.1 --- --- 731.8 0.027 0.000 17.3 5 1
02/28/06 8:42 p -20.6 -20.6 -20.6 --- --- 37.4 E 0.62 41.7 -38.1 --- --- 731.8 0.027 0.000 17.3 5 1
02/28/06 8:43 p -20.7 -20.6 -20.7 --- --- 36.5 E 0.61 44.3 -38.0 --- --- 731.8 0.027 0.000 17.2 5 1
02/28/06 8:44 p -20.7 -20.7 -20.7 --- --- 39.1 E 0.65 42.6 -38.4 --- --- 731.8 0.027 0.000 17.3 5 1
02/28/06 8:45 p -20.7 -20.7 -20.7 --- --- 40.9 E 0.68 44.3 -38.7 --- --- 731.8 0.027 0.000 17.3 5 1
02/28/06 8:46 p -20.7 -20.7 -20.7 --- --- 39.1 E 0.65 43.5 -38.4 --- --- 731.9 0.027 0.000 17.3 5 1
02/28/06 8:47 p -20.7 -20.7 -20.7 --- --- 39.1 E 0.65 43.5 -38.4 --- --- 731.8 0.027 0.000 17.3 5 1
02/28/06 8:48 p -20.7 -20.7 -20.7 --- --- 37.4 E 0.62 45.2 -38.2 --- --- 731.8 0.027 0.000 17.3 5 1
02/28/06 8:49 p -20.7 -20.7 -20.7 --- --- 41.7 E 0.70 45.2 -38.8 --- --- 731.7 0.027 0.000 17.4 5 1
02/28/06 8:50 p -20.7 -20.7 -20.7 --- --- 40.0 E 0.67 44.3 -38.6 --- --- 731.7 0.027 0.000 17.4 5 1
02/28/06 8:51 p -20.7 -20.7 -20.7 --- --- 39.1 E 0.65 44.3 -38.6 --- --- 731.8 0.027 0.000 17.4 5 1
02/28/06 8:52 p -20.7 -20.7 -20.7 --- --- 41.7 E 0.70 47.0 -38.9 --- --- 731.6 0.027 0.000 17.4 5 1
02/28/06 8:53 p -20.7 -20.7 -20.7 --- --- 41.7 E 0.70 46.1 -38.9 --- --- 731.7 0.027 0.000 17.4 5 1
02/28/06 8:54 p -20.7 -20.7 -20.7 --- --- 40.9 E 0.68 46.1 -38.8 --- --- 731.7 0.027 0.000 17.5 5 1
02/28/06 8:55 p -20.7 -20.7 -20.7 --- --- 41.7 E 0.70 47.0 -38.9 --- --- 731.7 0.027 0.000 17.5 5 1
02/28/06 8:56 p -20.8 -20.7 -20.8 --- --- 40.9 E 0.68 44.3 -38.9 --- --- 731.6 0.027 0.000 17.4 5 1
02/28/06 8:57 p -20.7 -20.7 -20.7 --- --- 40.9 E 0.68 46.1 -38.8 --- --- 731.7 0.027 0.000 17.4 5 1
02/28/06 8:58 p -20.7 -20.7 -20.8 --- --- 40.9 E 0.68 46.1 -38.8 --- --- 731.8 0.027 0.000 17.4 5 1
02/28/06 8:59 p -20.8 -20.8 -20.8 --- --- 40.9 E 0.68 45.2 -38.9 --- --- 731.8 0.027 0.000 17.4 5 1
02/28/06 9:00 p -20.7 -20.7 -20.8 --- --- 40.0 E 0.67 45.2 -38.7 --- --- 731.8 0.027 0.000 17.4 5 1
02/28/06 9:01 p -20.7 -20.7 -20.8 --- --- 42.6 E 0.71 47.0 -39.1 --- --- 731.8 0.027 0.000 17.4 5 1
02/28/06 9:02 p -20.8 -20.8 -20.8 --- --- 40.0 ESE 0.67 46.1 -38.7 --- --- 731.9 0.027 0.000 17.3 5 1
02/28/06 9:03 p -20.8 -20.7 -20.8 --- --- 39.1 E 0.65 45.2 -38.6 --- --- 731.8 0.027 0.000 17.3 5 1
02/28/06 9:04 p -20.8 -20.8 -20.8 --- --- 40.9 E 0.68 46.1 -38.9 --- --- 731.9 0.027 0.000 17.3 5 1
02/28/06 9:05 p -20.8 -20.8 -20.8 --- --- 38.3 E 0.64 44.3 -38.4 --- --- 732.0 0.027 0.000 17.3 5 1
02/28/06 9:06 p -20.8 -20.8 -20.8 --- --- 37.4 E 0.62 41.7 -38.3 --- --- 732.0 0.027 0.000 17.3 5 1
02/28/06 9:07 p -20.8 -20.8 -20.8 --- --- 35.7 E 0.59 40.9 -38.1 --- --- 732.0 0.027 0.000 17.3 5 1
02/28/06 9:08 p -20.8 -20.8 -20.8 --- --- 39.1 E 0.65 44.3 -38.6 --- --- 732.0 0.027 0.000 17.3 5 1
02/28/06 9:09 p -20.8 -20.8 -20.8 --- --- 38.3 E 0.64 41.7 -38.6 --- --- 732.1 0.027 0.000 17.3 5 1
02/28/06 9:10 p -20.8 -20.8 -20.8 --- --- 37.4 E 0.62 41.7 -38.4 --- --- 732.1 0.027 0.000 17.3 5 1
02/28/06 9:11 p -20.8 -20.8 -20.8 --- --- 39.1 E 0.65 42.6 -38.7 --- --- 732.1 0.027 0.000 17.3 5 1
02/28/06 9:12 p -20.8 -20.8 -20.8 --- --- 37.4 E 0.62 40.9 -38.4 --- --- 732.1 0.027 0.000 17.2 5 1
02/28/06 9:13 p -20.8 -20.8 -20.8 --- --- 40.0 E 0.67 44.3 -38.8 --- --- 732.1 0.027 0.000 17.2 5 1
02/28/06 9:14 p -20.8 -20.8 -20.8 --- --- 39.1 E 0.65 44.3 -38.7 --- --- 732.0 0.027 0.000 17.2 5 1
02/28/06 9:15 p -20.8 -20.8 -20.8 --- --- 37.4 E 0.62 43.5 -38.4 --- --- 732.1 0.027 0.000 17.3 5 1
02/28/06 9:16 p -20.8 -20.8 -20.8 --- --- 39.1 E 0.65 44.3 -38.7 --- --- 732.1 0.027 0.000 17.3 5 1
02/28/06 9:17 p -20.8 -20.8 -20.8 --- --- 37.4 E 0.62 40.9 -38.4 --- --- 732.1 0.027 0.000 17.3 5 1
02/28/06 9:18 p -20.8 -20.8 -20.8 --- --- 37.4 E 0.62 42.6 -38.4 --- --- 732.1 0.027 0.000 17.3 5 1
02/28/06 9:19 p -20.8 -20.8 -20.8 --- --- 36.5 E 0.61 41.7 -38.3 --- --- 732.2 0.027 0.000 17.3 5 1
02/28/06 9:20 p -20.8 -20.8 -20.8 --- --- 36.5 E 0.61 40.9 -38.3 --- --- 732.1 0.027 0.000 17.3 5 1
02/28/06 9:21 p -20.8 -20.8 -20.8 --- --- 37.4 E 0.62 41.7 -38.4 --- --- 732.1 0.027 0.000 17.4 5 1
02/28/06 9:22 p -20.9 -20.8 -20.9 --- --- 36.5 E 0.61 42.6 -38.3 --- --- 732.2 0.027 0.000 17.4 5 1
02/28/06 9:23 p -20.8 -20.8 -20.8 --- --- 36.5 E 0.61 40.0 -38.3 --- --- 732.2 0.027 0.000 17.4 5 1
02/28/06 9:24 p -20.9 -20.9 -20.9 --- --- 35.7 E 0.59 40.0 -38.2 --- --- 732.3 0.027 0.000 17.4 5 1
02/28/06 9:25 p -20.9 -20.9 -20.9 --- --- 37.4 E 0.62 41.7 -38.5 --- --- 732.2 0.027 0.000 17.4 5 1
02/28/06 9:26 p -20.9 -20.9 -20.9 --- --- 36.5 E 0.61 42.6 -38.3 --- --- 732.2 0.027 0.000 17.4 5 1
02/28/06 9:27 p -20.9 -20.9 -20.9 --- --- 37.4 E 0.62 41.7 -38.5 --- --- 732.1 0.027 0.000 17.4 5 1
02/28/06 9:28 p -20.9 -20.9 -20.9 --- --- 36.5 E 0.61 39.1 -38.4 --- --- 732.1 0.027 0.000 17.4 5 1
02/28/06 9:29 p -20.9 -20.9 -20.9 --- --- 34.8 E 0.58 40.9 -38.1 --- --- 732.2 0.027 0.000 17.4 5 1
02/28/06 9:30 p -20.9 -20.9 -20.9 --- --- 34.8 E 0.58 40.9 -38.1 --- --- 732.2 0.027 0.000 17.4 5 1
02/28/06 9:31 p -20.9 -20.9 -20.9 --- --- 34.8 E 0.58 40.9 -38.1 --- --- 732.2 0.027 0.000 17.4 5 1
02/28/06 9:32 p -20.9 -20.9 -20.9 --- --- 34.8 E 0.58 41.7 -38.1 --- --- 732.2 0.027 0.000 17.4 5 1
02/28/06 9:33 p -20.9 -20.9 -21.0 --- --- 34.8 E 0.58 40.9 -38.1 --- --- 732.2 0.027 0.000 17.4 5 1
02/28/06 9:34 p -21.0 -20.9 -21.0 --- --- 35.7 E 0.59 39.1 -38.3 --- --- 732.2 0.027 0.000 17.3 5 1
02/28/06 9:35 p -20.9 -20.9 -21.0 --- --- 35.7 E 0.59 41.7 -38.3 --- --- 732.2 0.027 0.000 17.3 5 1
02/28/06 9:36 p -21.0 -20.9 -21.0 --- --- 34.8 E 0.58 40.0 -38.2 --- --- 732.1 0.027 0.000 17.3 5 1
02/28/06 9:37 p -20.9 -20.9 -21.0 --- --- 33.0 E 0.55 39.1 -37.8 --- --- 732.1 0.027 0.000 17.3 5 1
02/28/06 9:38 p -21.0 -21.0 -21.0 --- --- 35.7 E 0.59 40.0 -38.3 --- --- 732.0 0.027 0.000 17.3 5 1
02/28/06 9:39 p -21.0 -21.0 -21.0 --- --- 35.7 E 0.59 40.9 -38.3 --- --- 732.0 0.027 0.000 17.3 5 1
02/28/06 9:40 p -21.0 -21.0 -21.0 --- --- 33.0 E 0.55 39.1 -37.9 --- --- 732.2 0.027 0.000 17.3 5 1
02/28/06 9:41 p -21.0 -21.0 -21.0 --- --- 35.7 E 0.59 40.0 -38.3 --- --- 732.1 0.027 0.000 17.3 5 1
02/28/06 9:42 p -21.0 -21.0 -21.0 --- --- 33.0 E 0.55 39.1 -37.9 --- --- 732.1 0.027 0.000 17.3 5 1
02/28/06 9:43 p -21.0 -21.0 -21.0 --- --- 34.8 E 0.58 42.6 -38.2 --- --- 732.1 0.027 0.000 17.3 5 1
02/28/06 9:44 p -21.0 -21.0 -21.0 --- --- 36.5 E 0.61 40.9 -38.5 --- --- 732.0 0.027 0.000 17.3 5 1
02/28/06 9:45 p -21.1 -21.0 -21.1 --- --- 35.7 E 0.59 40.0 -38.4 --- --- 732.0 0.027 0.000 17.3 6 1
02/28/06 9:46 p -21.1 -21.1 -21.1 --- --- 35.7 E 0.59 41.7 -38.4 --- --- 732.1 0.027 0.000 17.3 5 1
02/28/06 9:47 p -21.1 -21.1 -21.1 --- --- 34.8 E 0.58 40.9 -38.3 --- --- 732.0 0.027 0.000 17.3 5 1
02/28/06 9:48 p -21.1 -21.1 -21.1 --- --- 35.7 E 0.59 39.1 -38.4 --- --- 732.0 0.027 0.000 17.3 6 1
02/28/06 9:49 p -21.1 -21.1 -21.1 --- --- 36.5 E 0.61 40.0 -38.6 --- --- 732.0 0.027 0.000 17.3 5 1
02/28/06 9:50 p -21.1 -21.1 -21.1 --- --- 34.8 E 0.58 40.0 -38.3 --- --- 732.0 0.027 0.000 17.4 5 1
02/28/06 9:51 p -21.1 -21.1 -21.1 --- --- 33.9 E 0.57 39.1 -38.2 --- --- 732.0 0.027 0.000 17.4 5 1
02/28/06 9:52 p -21.1 -21.1 -21.1 --- --- 34.8 E 0.58 39.1 -38.3 --- --- 732.1 0.027 0.000 17.4 5 1
02/28/06 9:53 p -21.1 -21.1 -21.1 --- --- 34.8 E 0.58 38.3 -38.3 --- --- 732.1 0.027 0.000 17.5 6 1
02/28/06 9:54 p -21.2 -21.1 -21.2 --- --- 34.8 E 0.58 40.0 -38.4 --- --- 732.1 0.027 0.000 17.5 6 1
02/28/06 9:55 p -21.2 -21.2 -21.2 --- --- 33.9 E 0.57 40.0 -38.3 --- --- 731.9 0.027 0.000 17.6 5 1
02/28/06 9:56 p -21.2 -21.2 -21.2 --- --- 35.7 E 0.59 41.7 -38.6 --- --- 732.0 0.027 0.000 17.6 6 1
02/28/06 9:57 p -21.2 -21.2 -21.2 --- --- 34.8 E 0.58 40.9 -38.4 --- --- 732.1 0.027 0.000 17.6 6 1
02/28/06 9:58 p -21.2 -21.2 -21.2 --- --- 34.8 E 0.58 40.9 -38.4 --- --- 732.1 0.027 0.000 17.5 5 1
02/28/06 9:59 p -21.2 -21.2 -21.2 --- --- 34.8 E 0.58 40.9 -38.5 --- --- 732.1 0.027 0.000 17.5 5 1
02/28/06 10:00 p -21.2 -21.2 -21.2 --- --- 33.9 E 0.57 38.3 -38.3 --- --- 732.1 0.027 0.000 17.5 5 1
02/28/06 10:01 p -21.3 -21.3 -21.3 --- --- 32.2 E 0.54 40.0 -38.1 --- --- 732.0 0.028 0.000 17.4 6 1
02/28/06 10:02 p -21.3 -21.3 -21.3 --- --- 32.2 E 0.54 38.3 -38.1 --- --- 732.1 0.028 0.000 17.4 5 1
02/28/06 10:03 p -21.3 -21.3 -21.3 --- --- 33.9 E 0.57 37.4 -38.4 --- --- 732.0 0.028 0.000 17.4 5 1
02/28/06 10:04 p -21.3 -21.3 -21.3 --- --- 33.0 E 0.55 40.0 -38.3 --- --- 732.1 0.028 0.000 17.4 5 1
02/28/06 10:05 p -21.3 -21.3 -21.3 --- --- 33.9 E 0.57 40.9 -38.4 --- --- 732.0 0.028 0.000 17.4 5 1
02/28/06 10:06 p -21.3 -21.3 -21.3 --- --- 33.0 E 0.55 40.9 -38.3 --- --- 732.1 0.028 0.000 17.4 5 1
02/28/06 10:07 p -21.4 -21.4 -21.4 --- --- 33.9 E 0.57 39.1 -38.6 --- --- 732.0 0.028 0.000 17.4 5 1
02/28/06 10:08 p -21.4 -21.4 -21.4 --- --- 34.8 E 0.58 41.7 -38.7 --- --- 732.1 0.028 0.000 17.4 5 1
02/28/06 10:09 p -21.4 -21.4 -21.4 --- --- 34.8 E 0.58 40.9 -38.7 --- --- 732.1 0.028 0.000 17.4 5 1
02/28/06 10:10 p -21.4 -21.4 -21.4 --- --- 34.8 E 0.58 39.1 -38.7 --- --- 732.1 0.028 0.000 17.4 5 1
02/28/06 10:11 p -21.4 -21.4 -21.4 --- --- 33.0 E 0.55 40.0 -38.5 --- --- 732.2 0.028 0.000 17.4 5 1
02/28/06 10:12 p -21.4 -21.4 -21.4 --- --- 33.0 E 0.55 39.1 -38.5 --- --- 732.2 0.028 0.000 17.3 5 1
02/28/06 10:13 p -21.4 -21.4 -21.4 --- --- 31.3 E 0.52 40.9 -38.2 --- --- 732.1 0.028 0.000 17.3 5 1
02/28/06 10:14 p -21.4 -21.4 -21.4 --- --- 34.8 E 0.58 40.0 -38.8 --- --- 732.2 0.028 0.000 17.3 5 1
02/28/06 10:15 p -21.4 -21.4 -21.4 --- --- 33.0 E 0.55 37.4 -38.5 --- --- 732.3 0.028 0.000 17.3 5 1
02/28/06 10:16 p -21.4 -21.4 -21.4 --- --- 31.3 E 0.52 38.3 -38.2 --- --- 732.2 0.028 0.000 17.4 5 1
02/28/06 10:17 p -21.4 -21.4 -21.4 --- --- 32.2 E 0.54 39.1 -38.3 --- --- 732.3 0.028 0.000 17.4 5 1
02/28/06 10:18 p -21.4 -21.4 -21.4 --- --- 33.0 E 0.55 34.8 -38.5 --- --- 732.3 0.028 0.000 17.4 5 1
02/28/06 10:19 p -21.4 -21.4 -21.4 --- --- 32.2 E 0.54 36.5 -38.3 --- --- 732.3 0.028 0.000 17.4 5 1
02/28/06 10:20 p -21.4 -21.4 -21.4 --- --- 32.2 ESE 0.54 38.3 -38.3 --- --- 732.3 0.028 0.000 17.5 5 1
02/28/06 10:21 p -21.4 -21.4 -21.4 --- --- 32.2 E 0.54 39.1 -38.3 --- --- 732.4 0.028 0.000 17.5 5 1
02/28/06 10:22 p -21.4 -21.4 -21.4 --- --- 32.2 E 0.54 38.3 -38.3 --- --- 732.3 0.028 0.000 17.6 5 1
02/28/06 10:23 p -21.4 -21.4 -21.4 --- --- 33.0 E 0.55 37.4 -38.5 --- --- 732.1 0.028 0.000 17.6 5 1
02/28/06 10:24 p -21.4 -21.4 -21.4 --- --- 32.2 E 0.54 36.5 -38.3 --- --- 732.3 0.028 0.000 17.6 5 1
02/28/06 10:25 p -21.4 -21.4 -21.4 --- --- 33.9 E 0.57 38.3 -38.7 --- --- 732.3 0.028 0.000 17.7 5 1
02/28/06 10:26 p -21.4 -21.4 -21.4 --- --- 32.2 E 0.54 38.3 -38.3 --- --- 732.4 0.028 0.000 17.7 5 1
02/28/06 10:27 p -21.4 -21.4 -21.4 --- --- 34.8 E 0.58 38.3 -38.8 --- --- 732.3 0.028 0.000 17.7 5 1
02/28/06 10:28 p -21.4 -21.4 -21.4 --- --- 32.2 E 0.54 39.1 -38.3 --- --- 732.4 0.028 0.000 17.7 5 1
02/28/06 10:29 p -21.4 -21.4 -21.4 --- --- 33.0 E 0.55 37.4 -38.4 --- --- 732.2 0.028 0.000 17.8 6 1
02/28/06 10:30 p -21.4 -21.4 -21.4 --- --- 32.2 E 0.54 40.0 -38.3 --- --- 732.3 0.028 0.000 17.8 5 1
02/28/06 10:31 p -21.4 -21.4 -21.4 --- --- 31.3 E 0.52 37.4 -38.2 --- --- 732.3 0.028 0.000 17.8 6 1
02/28/06 10:32 p -21.4 -21.4 -21.4 --- --- 30.4 E 0.51 37.4 -38.0 --- --- 732.3 0.028 0.000 17.7 6 1
02/28/06 10:33 p -21.4 -21.4 -21.4 --- --- 34.8 E 0.58 36.5 -38.7 --- --- 732.2 0.028 0.000 17.7 6 1
02/28/06 10:34 p -21.4 -21.4 -21.4 --- --- 33.0 E 0.55 38.3 -38.4 --- --- 732.2 0.028 0.000 17.7 6 1
02/28/06 10:35 p -21.4 -21.4 -21.4 --- --- 33.9 E 0.57 40.0 -38.7 --- --- 732.3 0.028 0.000 17.7 6 1
02/28/06 10:36 p -21.4 -21.4 -21.4 --- --- 31.3 E 0.52 37.4 -38.1 --- --- 732.3 0.028 0.000 17.7 6 1
02/28/06 10:37 p -21.4 -21.4 -21.4 --- --- 32.2 E 0.54 37.4 -38.3 --- --- 732.3 0.028 0.000 17.7 5 1
02/28/06 10:38 p -21.4 -21.4 -21.4 --- --- 32.2 E 0.54 40.0 -38.3 --- --- 732.3 0.028 0.000 17.6 5 1
02/28/06 10:39 p -21.4 -21.4 -21.4 --- --- 32.2 E 0.54 36.5 -38.3 --- --- 732.4 0.028 0.000 17.6 5 1
02/28/06 10:40 p -21.4 -21.4 -21.4 --- --- 33.0 E 0.55 38.3 -38.4 --- --- 732.3 0.028 0.000 17.6 5 1
02/28/06 10:41 p -21.4 -21.4 -21.4 --- --- 33.0 E 0.55 40.0 -38.4 --- --- 732.4 0.028 0.000 17.6 5 1
02/28/06 10:42 p -21.4 -21.3 -21.4 --- --- 30.4 E 0.51 36.5 -37.9 --- --- 732.3 0.028 0.000 17.6 5 1
02/28/06 10:43 p -21.4 -21.3 -21.4 --- --- 31.3 E 0.52 39.1 -38.1 --- --- 732.4 0.028 0.000 17.6 6 1
02/28/06 10:44 p -21.4 -21.3 -21.4 --- --- 29.6 E 0.49 35.7 -37.7 --- --- 732.3 0.028 0.000 17.6 5 1
02/28/06 10:45 p -21.3 -21.3 -21.3 --- --- 32.2 E 0.54 37.4 -38.2 --- --- 732.3 0.028 0.000 17.6 6 1
02/28/06 10:46 p -21.4 -21.3 -21.4 --- --- 30.4 E 0.51 34.8 -37.9 --- --- 732.5 0.028 0.000 17.5 5 1
02/28/06 10:47 p -21.3 -21.3 -21.3 --- --- 30.4 E 0.51 36.5 -37.8 --- --- 732.4 0.028 0.000 17.5 5 1
02/28/06 10:48 p -21.3 -21.3 -21.3 --- --- 31.3 E 0.52 38.3 -38.0 --- --- 732.5 0.028 0.000 17.5 5 1
02/28/06 10:49 p -21.3 -21.3 -21.3 --- --- 30.4 E 0.51 36.5 -37.8 --- --- 732.5 0.028 0.000 17.6 5 1
02/28/06 10:50 p -21.3 -21.3 -21.3 --- --- 29.6 E 0.49 34.8 -37.7 --- --- 732.5 0.028 0.000 17.6 5 1
02/28/06 10:51 p -21.3 -21.3 -21.3 --- --- 30.4 E 0.51 35.7 -37.8 --- --- 732.5 0.028 0.000 17.6 5 1
02/28/06 10:52 p -21.3 -21.3 -21.3 --- --- 29.6 E 0.49 33.9 -37.6 --- --- 732.7 0.028 0.000 17.6 5 1
02/28/06 10:53 p -21.3 -21.2 -21.3 --- --- 27.8 E 0.46 33.9 -37.2 --- --- 732.7 0.028 0.000 17.6 5 1
02/28/06 10:54 p -21.2 -21.2 -21.3 --- --- 31.3 E 0.52 39.1 -37.8 --- --- 732.5 0.027 0.000 17.7 5 1
02/28/06 10:55 p -21.2 -21.2 -21.2 --- --- 27.8 E 0.46 33.9 -37.2 --- --- 732.7 0.027 0.000 17.7 5 1
02/28/06 10:56 p -21.2 -21.2 -21.2 --- --- 30.4 E 0.51 35.7 -37.7 --- --- 732.7 0.027 0.000 17.7 5 1
02/28/06 10:57 p -21.2 -21.2 -21.2 --- --- 29.6 E 0.49 33.9 -37.5 --- --- 732.7 0.027 0.000 17.8 5 1
02/28/06 10:58 p -21.2 -21.2 -21.2 --- --- 30.4 E 0.51 35.7 -37.6 --- --- 732.8 0.027 0.000 17.8 5 1
02/28/06 10:59 p -21.2 -21.2 -21.2 --- --- 27.0 E 0.45 33.0 -36.9 --- --- 732.9 0.027 0.000 17.8 5 1
02/28/06 11:00 p -21.2 -21.2 -21.2 --- --- 28.7 E 0.48 33.0 -37.3 --- --- 732.8 0.027 0.000 17.8 5 1
02/28/06 11:01 p -21.2 -21.1 -21.2 --- --- 30.4 E 0.51 35.7 -37.6 --- --- 732.8 0.027 0.000 17.8 5 1
02/28/06 11:02 p -21.2 -21.1 -21.2 --- --- 26.1 E 0.43 31.3 -36.7 --- --- 732.9 0.027 0.000 17.8 5 1
02/28/06 11:03 p -21.1 -21.1 -21.1 --- --- 28.7 E 0.48 35.7 -37.2 --- --- 732.8 0.027 0.000 17.9 5 1
02/28/06 11:04 p -21.1 -21.1 -21.1 --- --- 26.1 E 0.43 32.2 -36.6 --- --- 733.0 0.027 0.000 17.9 5 1
02/28/06 11:05 p -21.1 -21.1 -21.1 --- --- 27.0 E 0.45 31.3 -36.7 --- --- 733.0 0.027 0.000 17.9 5 1
02/28/06 11:06 p -21.1 -21.1 -21.1 --- --- 27.0 E 0.45 30.4 -36.7 --- --- 733.0 0.027 0.000 17.9 5 1
02/28/06 11:07 p -21.1 -21.0 -21.1 --- --- 27.8 E 0.46 32.2 -36.9 --- --- 733.0 0.027 0.000 18.0 5 1
02/28/06 11:08 p -21.0 -21.0 -21.0 --- --- 27.0 E 0.45 32.2 -36.7 --- --- 733.0 0.027 0.000 18.0 5 1
02/28/06 11:09 p -21.0 -21.0 -21.0 --- --- 27.8 E 0.46 34.8 -36.8 --- --- 732.9 0.027 0.000 18.0 5 1
02/28/06 11:10 p -21.0 -21.0 -21.0 --- --- 28.7 E 0.48 32.2 -37.1 --- --- 732.8 0.027 0.000 18.1 5 1
02/28/06 11:11 p -20.9 -20.9 -20.9 --- --- 28.7 E 0.48 34.8 -36.9 --- --- 732.8 0.027 0.000 18.1 5 1
02/28/06 11:12 p -20.9 -20.9 -21.0 --- --- 27.8 E 0.46 32.2 -36.8 --- --- 732.8 0.027 0.000 18.1 5 1
02/28/06 11:13 p -20.9 -20.9 -20.9 --- --- 27.8 E 0.46 33.0 -36.8 --- --- 732.8 0.027 0.000 18.1 5 1
02/28/06 11:14 p -20.9 -20.9 -20.9 --- --- 28.7 E 0.48 33.0 -36.9 --- --- 732.9 0.027 0.000 18.1 5 1
02/28/06 11:15 p -20.9 -20.9 -20.9 --- --- 26.1 E 0.43 32.2 -36.4 --- --- 732.9 0.027 0.000 18.1 5 1
02/28/06 11:16 p -20.9 -20.9 -20.9 --- --- 26.1 E 0.43 28.7 -36.3 --- --- 733.0 0.027 0.000 18.2 5 1
02/28/06 11:17 p -20.9 -20.8 -20.9 --- --- 27.0 E 0.45 32.2 -36.5 --- --- 733.0 0.027 0.000 18.2 5 1
02/28/06 11:18 p -20.8 -20.8 -20.9 --- --- 26.1 E 0.43 34.8 -36.2 --- --- 733.1 0.027 0.000 18.2 5 1
02/28/06 11:19 p -20.8 -20.8 -20.8 --- --- 24.3 E 0.41 27.8 -35.8 --- --- 733.1 0.027 0.000 18.2 5 1
02/28/06 11:20 p -20.8 -20.8 -20.8 --- --- 25.2 E 0.42 29.6 -36.1 --- --- 733.1 0.027 0.000 18.2 5 1
02/28/06 11:21 p -20.8 -20.8 -20.8 --- --- 26.1 E 0.43 33.0 -36.2 --- --- 733.4 0.027 0.000 18.2 5 1
02/28/06 11:22 p -20.8 -20.8 -20.8 --- --- 25.2 ESE 0.42 30.4 -35.9 --- --- 733.2 0.027 0.000 18.2 5 1
02/28/06 11:23 p -20.8 -20.8 -20.8 --- --- 27.0 E 0.45 32.2 -36.3 --- --- 733.3 0.027 0.000 18.1 5 1
02/28/06 11:24 p -20.8 -20.8 -20.8 --- --- 25.2 E 0.42 31.3 -35.9 --- --- 733.2 0.027 0.000 18.1 5 1
02/28/06 11:25 p -20.7 -20.7 -20.8 --- --- 26.1 E 0.43 29.6 -36.1 --- --- 733.3 0.027 0.000 18.1 5 1
02/28/06 11:26 p -20.7 -20.7 -20.7 --- --- 25.2 E 0.42 29.6 -35.9 --- --- 733.3 0.027 0.000 18.1 5 1
02/28/06 11:27 p -20.7 -20.7 -20.7 --- --- 24.3 E 0.41 29.6 -35.7 --- --- 733.5 0.027 0.000 18.0 5 1
02/28/06 11:28 p -20.7 -20.7 -20.7 --- --- 24.3 E 0.41 27.0 -35.7 --- --- 733.5 0.027 0.000 18.0 5 1
02/28/06 11:29 p -20.7 -20.7 -20.7 --- --- 23.5 E 0.39 28.7 -35.4 --- --- 733.5 0.027 0.000 18.0 5 1
02/28/06 11:30 p -20.7 -20.7 -20.7 --- --- 24.3 E 0.41 28.7 -35.6 --- --- 733.5 0.027 0.000 17.9 5 1
02/28/06 11:31 p -20.6 -20.6 -20.7 --- --- 23.5 E 0.39 29.6 -35.3 --- --- 733.5 0.027 0.000 17.9 5 1
02/28/06 11:32 p -20.6 -20.6 -20.6 --- --- 23.5 E 0.39 27.0 -35.3 --- --- 733.6 0.027 0.000 17.9 5 1
02/28/06 11:33 p -20.6 -20.6 -20.6 --- --- 22.6 E 0.38 27.8 -35.1 --- --- 733.6 0.027 0.000 17.9 5 1
02/28/06 11:34 p -20.6 -20.6 -20.6 --- --- 20.9 E 0.35 26.1 -34.6 --- --- 733.6 0.027 0.000 17.9 5 1
02/28/06 11:35 p -20.6 -20.6 -20.6 --- --- 25.2 E 0.42 29.6 -35.7 --- --- 733.7 0.027 0.000 17.9 5 1
02/28/06 11:36 p -20.6 -20.5 -20.6 --- --- 25.2 E 0.42 27.8 -35.7 --- --- 733.6 0.027 0.000 17.9 5 1
02/28/06 11:37 p -20.5 -20.5 -20.6 --- --- 26.1 E 0.43 29.6 -35.8 --- --- 733.8 0.027 0.000 17.9 5 1
02/28/06 11:38 p -20.5 -20.5 -20.5 --- --- 24.3 E 0.41 29.6 -35.4 --- --- 733.7 0.027 0.000 17.8 5 1
02/28/06 11:39 p -20.5 -20.4 -20.5 --- --- 22.6 E 0.38 27.0 -34.9 --- --- 733.7 0.027 0.000 17.8 5 1
02/28/06 11:40 p -20.4 -20.4 -20.4 --- --- 21.7 E 0.36 27.0 -34.7 --- --- 733.7 0.027 0.000 17.8 5 1
02/28/06 11:41 p -20.4 -20.4 -20.4 --- --- 21.7 E 0.36 27.8 -34.7 --- --- 733.7 0.027 0.000 17.8 5 1
02/28/06 11:42 p -20.4 -20.4 -20.4 --- --- 25.2 E 0.42 27.8 -35.5 --- --- 733.8 0.027 0.000 17.8 5 1
02/28/06 11:43 p -20.4 -20.4 -20.4 --- --- 20.9 E 0.35 26.1 -34.4 --- --- 733.8 0.027 0.000 17.8 5 1
02/28/06 11:44 p -20.4 -20.4 -20.4 --- --- 23.5 E 0.39 27.8 -35.1 --- --- 733.8 0.027 0.000 17.8 5 1
02/28/06 11:45 p -20.4 -20.4 -20.4 --- --- 21.7 E 0.36 26.1 -34.6 --- --- 733.8 0.027 0.000 17.8 5 1
02/28/06 11:46 p -20.4 -20.3 -20.4 --- --- 25.2 E 0.42 29.6 -35.4 --- --- 733.7 0.027 0.000 17.8 5 1
02/28/06 11:47 p -20.3 -20.3 -20.3 --- --- 23.5 E 0.39 27.0 -34.9 --- --- 733.8 0.027 0.000 17.8 5 1
02/28/06 11:48 p -20.3 -20.3 -20.3 --- --- 25.2 E 0.42 27.0 -35.4 --- --- 733.8 0.027 0.000 17.8 5 1
02/28/06 11:49 p -20.3 -20.3 -20.3 --- --- 21.7 E 0.36 25.2 -34.4 --- --- 733.9 0.027 0.000 17.8 5 1
02/28/06 11:50 p -20.3 -20.3 -20.3 --- --- 22.6 E 0.38 27.0 -34.7 --- --- 733.9 0.027 0.000 17.8 5 1
02/28/06 11:51 p -20.3 -20.3 -20.3 --- --- 21.7 E 0.36 26.1 -34.4 --- --- 733.9 0.027 0.000 17.8 5 1
02/28/06 11:52 p -20.3 -20.2 -20.3 --- --- 22.6 E 0.38 25.2 -34.7 --- --- 733.8 0.027 0.000 17.8 5 1
02/28/06 11:53 p -20.2 -20.2 -20.3 --- --- 21.7 E 0.36 26.1 -34.4 --- --- 733.8 0.027 0.000 17.9 5 1
02/28/06 11:54 p -20.2 -20.2 -20.2 --- --- 23.5 E 0.39 26.1 -34.8 --- --- 733.8 0.027 0.000 17.9 5 1
02/28/06 11:55 p -20.2 -20.2 -20.2 --- --- 24.3 E 0.41 27.0 -35.0 --- --- 733.9 0.027 0.000 17.9 5 1
02/28/06 11:56 p -20.2 -20.2 -20.2 --- --- 23.5 ESE 0.39 25.2 -34.8 --- --- 733.8 0.027 0.000 17.9 5 1
02/28/06 11:57 p -20.2 -20.2 -20.2 --- --- 24.3 ESE 0.41 27.0 -34.9 --- --- 733.8 0.027 0.000 18.0 5 1
02/28/06 11:58 p -20.2 -20.2 -20.2 --- --- 24.3 ESE 0.41 29.6 -34.9 --- --- 733.9 0.027 0.000 18.0 5 1
02/28/06 11:59 p -20.2 -20.1 -20.2 --- --- 24.3 E 0.41 27.8 -34.9 --- --- 733.8 0.027 0.000 18.0 5 1
03/01/06 12:00 a -20.1 -20.1 -20.2 --- --- 23.5 ESE 0.39 27.0 -34.7 --- --- 733.8 0.027 0.000 18.1 5 1